<?xml version="1.0" encoding="UTF-8" standalone="no" ?>
<gpx xmlns="http://www.topografix.com/GPX/1/1" xmlns:xsi="http://www.w3.org/2001/XMLSchema-instance" xsi:schemaLocation="http://www.topografix.com/GPX/1/1 http://www.topografix.com/GPX/1/1/gpx.xsd" version="1.1" creator="VisuGPX - https://www.visugpx.com">
  <metadata>
    <name>suite voyage</name>
  </metadata>
  <trk>
    <name><![CDATA[T14]]></name>
    <trkseg>
      <trkpt lat="49.63941" lon="-1.63658">
        <ele>16.5</ele>
        <time>2020-06-15T06:58:46Z</time>
      </trkpt>
      <trkpt lat="49.63941" lon="-1.63657">
        <ele>16.5</ele>
        <time>2020-06-15T06:58:47Z</time>
      </trkpt>
      <trkpt lat="49.63941" lon="-1.63657">
        <ele>16.5</ele>
        <time>2020-06-15T06:58:48Z</time>
      </trkpt>
      <trkpt lat="49.63941" lon="-1.63656">
        <ele>16.5</ele>
        <time>2020-06-15T06:58:49Z</time>
      </trkpt>
      <trkpt lat="49.63941" lon="-1.63656">
        <ele>16.5</ele>
        <time>2020-06-15T06:58:50Z</time>
      </trkpt>
      <trkpt lat="49.63941" lon="-1.63655">
        <ele>16.4</ele>
        <time>2020-06-15T06:58:51Z</time>
      </trkpt>
      <trkpt lat="49.63941" lon="-1.63655">
        <ele>16.4</ele>
        <time>2020-06-15T06:58:52Z</time>
      </trkpt>
      <trkpt lat="49.6394" lon="-1.63654">
        <ele>16.4</ele>
        <time>2020-06-15T06:58:53Z</time>
      </trkpt>
      <trkpt lat="49.6394" lon="-1.63654">
        <ele>16.4</ele>
        <time>2020-06-15T06:58:54Z</time>
      </trkpt>
      <trkpt lat="49.6394" lon="-1.63653">
        <ele>16.4</ele>
        <time>2020-06-15T06:58:55Z</time>
      </trkpt>
      <trkpt lat="49.6394" lon="-1.63653">
        <ele>16.4</ele>
        <time>2020-06-15T06:58:56Z</time>
      </trkpt>
      <trkpt lat="49.6394" lon="-1.63652">
        <ele>16.4</ele>
        <time>2020-06-15T06:58:57Z</time>
      </trkpt>
      <trkpt lat="49.6394" lon="-1.63652">
        <ele>16.4</ele>
        <time>2020-06-15T06:58:58Z</time>
      </trkpt>
      <trkpt lat="49.6394" lon="-1.63651">
        <ele>16.3</ele>
        <time>2020-06-15T06:58:59Z</time>
      </trkpt>
      <trkpt lat="49.6394" lon="-1.63651">
        <ele>16.3</ele>
        <time>2020-06-15T06:59:00Z</time>
      </trkpt>
      <trkpt lat="49.6394" lon="-1.6365">
        <ele>16.3</ele>
        <time>2020-06-15T06:59:01Z</time>
      </trkpt>
      <trkpt lat="49.6394" lon="-1.63649">
        <ele>16.3</ele>
        <time>2020-06-15T06:59:02Z</time>
      </trkpt>
      <trkpt lat="49.6394" lon="-1.63649">
        <ele>16.3</ele>
        <time>2020-06-15T06:59:03Z</time>
      </trkpt>
      <trkpt lat="49.6394" lon="-1.63648">
        <ele>16.3</ele>
        <time>2020-06-15T06:59:04Z</time>
      </trkpt>
      <trkpt lat="49.6394" lon="-1.63648">
        <ele>16.3</ele>
        <time>2020-06-15T06:59:10Z</time>
      </trkpt>
      <trkpt lat="49.63939" lon="-1.63647">
        <ele>16.3</ele>
        <time>2020-06-15T06:59:11Z</time>
      </trkpt>
      <trkpt lat="49.63939" lon="-1.63647">
        <ele>16.2</ele>
        <time>2020-06-15T06:59:12Z</time>
      </trkpt>
      <trkpt lat="49.63939" lon="-1.63646">
        <ele>16.2</ele>
        <time>2020-06-15T06:59:13Z</time>
      </trkpt>
      <trkpt lat="49.63939" lon="-1.63646">
        <ele>16.2</ele>
        <time>2020-06-15T06:59:14Z</time>
      </trkpt>
      <trkpt lat="49.63939" lon="-1.63645">
        <ele>16.2</ele>
        <time>2020-06-15T06:59:15Z</time>
      </trkpt>
      <trkpt lat="49.63939" lon="-1.63645">
        <ele>16.2</ele>
        <time>2020-06-15T06:59:16Z</time>
      </trkpt>
      <trkpt lat="49.63939" lon="-1.63644">
        <ele>16.2</ele>
        <time>2020-06-15T06:59:17Z</time>
      </trkpt>
      <trkpt lat="49.63939" lon="-1.6364">
        <ele>16.1</ele>
        <time>2020-06-15T06:59:18Z</time>
      </trkpt>
      <trkpt lat="49.63939" lon="-1.63639">
        <ele>16</ele>
        <time>2020-06-15T06:59:19Z</time>
      </trkpt>
      <trkpt lat="49.63939" lon="-1.63634">
        <ele>15.9</ele>
        <time>2020-06-15T06:59:20Z</time>
      </trkpt>
      <trkpt lat="49.63938" lon="-1.63633">
        <ele>15.9</ele>
        <time>2020-06-15T06:59:21Z</time>
      </trkpt>
      <trkpt lat="49.63938" lon="-1.63626">
        <ele>15.7</ele>
        <time>2020-06-15T06:59:22Z</time>
      </trkpt>
      <trkpt lat="49.63938" lon="-1.63624">
        <ele>15.7</ele>
        <time>2020-06-15T06:59:23Z</time>
      </trkpt>
      <trkpt lat="49.63937" lon="-1.63619">
        <ele>15.5</ele>
        <time>2020-06-15T06:59:24Z</time>
      </trkpt>
      <trkpt lat="49.63937" lon="-1.63614">
        <ele>15.4</ele>
        <time>2020-06-15T06:59:25Z</time>
      </trkpt>
      <trkpt lat="49.63936" lon="-1.6361">
        <ele>15.3</ele>
        <time>2020-06-15T06:59:26Z</time>
      </trkpt>
      <trkpt lat="49.63936" lon="-1.63605">
        <ele>15.1</ele>
        <time>2020-06-15T06:59:27Z</time>
      </trkpt>
      <trkpt lat="49.63935" lon="-1.63599">
        <ele>15</ele>
        <time>2020-06-15T06:59:28Z</time>
      </trkpt>
      <trkpt lat="49.63935" lon="-1.63592">
        <ele>14.8</ele>
        <time>2020-06-15T06:59:29Z</time>
      </trkpt>
      <trkpt lat="49.63934" lon="-1.63586">
        <ele>14.6</ele>
        <time>2020-06-15T06:59:30Z</time>
      </trkpt>
      <trkpt lat="49.63933" lon="-1.6358">
        <ele>14.5</ele>
        <time>2020-06-15T06:59:31Z</time>
      </trkpt>
      <trkpt lat="49.63932" lon="-1.63576">
        <ele>14.4</ele>
        <time>2020-06-15T06:59:32Z</time>
      </trkpt>
      <trkpt lat="49.63931" lon="-1.63572">
        <ele>14.3</ele>
        <time>2020-06-15T06:59:33Z</time>
      </trkpt>
      <trkpt lat="49.63931" lon="-1.63567">
        <ele>14.1</ele>
        <time>2020-06-15T06:59:34Z</time>
      </trkpt>
      <trkpt lat="49.63931" lon="-1.63565">
        <ele>14.1</ele>
        <time>2020-06-15T06:59:35Z</time>
      </trkpt>
      <trkpt lat="49.63932" lon="-1.6356">
        <ele>14.1</ele>
        <time>2020-06-15T06:59:36Z</time>
      </trkpt>
      <trkpt lat="49.63933" lon="-1.63555">
        <ele>14</ele>
        <time>2020-06-15T06:59:37Z</time>
      </trkpt>
      <trkpt lat="49.63935" lon="-1.63549">
        <ele>14</ele>
        <time>2020-06-15T06:59:38Z</time>
      </trkpt>
      <trkpt lat="49.63935" lon="-1.63544">
        <ele>13.9</ele>
        <time>2020-06-15T06:59:39Z</time>
      </trkpt>
      <trkpt lat="49.63936" lon="-1.6354">
        <ele>13.8</ele>
        <time>2020-06-15T06:59:40Z</time>
      </trkpt>
      <trkpt lat="49.63937" lon="-1.63535">
        <ele>13.8</ele>
        <time>2020-06-15T06:59:41Z</time>
      </trkpt>
      <trkpt lat="49.63938" lon="-1.63529">
        <ele>13.7</ele>
        <time>2020-06-15T06:59:42Z</time>
      </trkpt>
      <trkpt lat="49.63939" lon="-1.63527">
        <ele>13.7</ele>
        <time>2020-06-15T06:59:43Z</time>
      </trkpt>
      <trkpt lat="49.6394" lon="-1.63523">
        <ele>13.6</ele>
        <time>2020-06-15T06:59:44Z</time>
      </trkpt>
      <trkpt lat="49.63942" lon="-1.63518">
        <ele>13.6</ele>
        <time>2020-06-15T06:59:45Z</time>
      </trkpt>
      <trkpt lat="49.63943" lon="-1.63512">
        <ele>13.6</ele>
        <time>2020-06-15T06:59:46Z</time>
      </trkpt>
      <trkpt lat="49.63945" lon="-1.63507">
        <ele>13.5</ele>
        <time>2020-06-15T06:59:47Z</time>
      </trkpt>
      <trkpt lat="49.63946" lon="-1.63502">
        <ele>13.5</ele>
        <time>2020-06-15T06:59:48Z</time>
      </trkpt>
      <trkpt lat="49.63948" lon="-1.63497">
        <ele>13.4</ele>
        <time>2020-06-15T06:59:49Z</time>
      </trkpt>
      <trkpt lat="49.63949" lon="-1.63493">
        <ele>13.4</ele>
        <time>2020-06-15T06:59:50Z</time>
      </trkpt>
      <trkpt lat="49.6395" lon="-1.63491">
        <ele>13.3</ele>
        <time>2020-06-15T06:59:51Z</time>
      </trkpt>
      <trkpt lat="49.63951" lon="-1.63486">
        <ele>13.3</ele>
        <time>2020-06-15T06:59:52Z</time>
      </trkpt>
      <trkpt lat="49.63953" lon="-1.63482">
        <ele>13.2</ele>
        <time>2020-06-15T06:59:53Z</time>
      </trkpt>
      <trkpt lat="49.63954" lon="-1.63477">
        <ele>13.1</ele>
        <time>2020-06-15T06:59:54Z</time>
      </trkpt>
      <trkpt lat="49.63956" lon="-1.63473">
        <ele>13.1</ele>
        <time>2020-06-15T06:59:55Z</time>
      </trkpt>
      <trkpt lat="49.63958" lon="-1.63468">
        <ele>13</ele>
        <time>2020-06-15T06:59:56Z</time>
      </trkpt>
      <trkpt lat="49.63961" lon="-1.63461">
        <ele>12.9</ele>
        <time>2020-06-15T06:59:57Z</time>
      </trkpt>
      <trkpt lat="49.63964" lon="-1.63455">
        <ele>12.8</ele>
        <time>2020-06-15T06:59:58Z</time>
      </trkpt>
      <trkpt lat="49.63967" lon="-1.63449">
        <ele>12.7</ele>
        <time>2020-06-15T06:59:59Z</time>
      </trkpt>
      <trkpt lat="49.6397" lon="-1.63443">
        <ele>12.6</ele>
        <time>2020-06-15T07:00:00Z</time>
      </trkpt>
      <trkpt lat="49.63972" lon="-1.63438">
        <ele>12.5</ele>
        <time>2020-06-15T07:00:01Z</time>
      </trkpt>
      <trkpt lat="49.63974" lon="-1.63432">
        <ele>12.5</ele>
        <time>2020-06-15T07:00:02Z</time>
      </trkpt>
      <trkpt lat="49.63976" lon="-1.63427">
        <ele>12.4</ele>
        <time>2020-06-15T07:00:03Z</time>
      </trkpt>
      <trkpt lat="49.63979" lon="-1.63423">
        <ele>12.4</ele>
        <time>2020-06-15T07:00:04Z</time>
      </trkpt>
      <trkpt lat="49.63981" lon="-1.63418">
        <ele>12.3</ele>
        <time>2020-06-15T07:00:05Z</time>
      </trkpt>
      <trkpt lat="49.63984" lon="-1.63414">
        <ele>12.3</ele>
        <time>2020-06-15T07:00:06Z</time>
      </trkpt>
      <trkpt lat="49.63986" lon="-1.6341">
        <ele>12.2</ele>
        <time>2020-06-15T07:00:07Z</time>
      </trkpt>
      <trkpt lat="49.63988" lon="-1.63405">
        <ele>12.2</ele>
        <time>2020-06-15T07:00:08Z</time>
      </trkpt>
      <trkpt lat="49.63989" lon="-1.634">
        <ele>12.2</ele>
        <time>2020-06-15T07:00:09Z</time>
      </trkpt>
      <trkpt lat="49.63989" lon="-1.63399">
        <ele>12.2</ele>
        <time>2020-06-15T07:00:10Z</time>
      </trkpt>
      <trkpt lat="49.63988" lon="-1.63394">
        <ele>12.1</ele>
        <time>2020-06-15T07:00:11Z</time>
      </trkpt>
      <trkpt lat="49.63987" lon="-1.63389">
        <ele>12</ele>
        <time>2020-06-15T07:00:12Z</time>
      </trkpt>
      <trkpt lat="49.63985" lon="-1.63383">
        <ele>12</ele>
        <time>2020-06-15T07:00:13Z</time>
      </trkpt>
      <trkpt lat="49.63984" lon="-1.63376">
        <ele>12</ele>
        <time>2020-06-15T07:00:14Z</time>
      </trkpt>
      <trkpt lat="49.63981" lon="-1.63369">
        <ele>11.9</ele>
        <time>2020-06-15T07:00:15Z</time>
      </trkpt>
      <trkpt lat="49.63978" lon="-1.63361">
        <ele>11.9</ele>
        <time>2020-06-15T07:00:16Z</time>
      </trkpt>
      <trkpt lat="49.63974" lon="-1.63355">
        <ele>11.9</ele>
        <time>2020-06-15T07:00:17Z</time>
      </trkpt>
      <trkpt lat="49.6397" lon="-1.63349">
        <ele>11.9</ele>
        <time>2020-06-15T07:00:18Z</time>
      </trkpt>
      <trkpt lat="49.63967" lon="-1.63343">
        <ele>11.9</ele>
        <time>2020-06-15T07:00:19Z</time>
      </trkpt>
      <trkpt lat="49.63965" lon="-1.63336">
        <ele>11.9</ele>
        <time>2020-06-15T07:00:20Z</time>
      </trkpt>
      <trkpt lat="49.63962" lon="-1.63329">
        <ele>11.9</ele>
        <time>2020-06-15T07:00:21Z</time>
      </trkpt>
      <trkpt lat="49.63959" lon="-1.63322">
        <ele>11.9</ele>
        <time>2020-06-15T07:00:22Z</time>
      </trkpt>
      <trkpt lat="49.63956" lon="-1.63315">
        <ele>11.9</ele>
        <time>2020-06-15T07:00:23Z</time>
      </trkpt>
      <trkpt lat="49.63953" lon="-1.63308">
        <ele>11.9</ele>
        <time>2020-06-15T07:00:24Z</time>
      </trkpt>
      <trkpt lat="49.63951" lon="-1.633">
        <ele>11.9</ele>
        <time>2020-06-15T07:00:25Z</time>
      </trkpt>
      <trkpt lat="49.63948" lon="-1.63293">
        <ele>11.9</ele>
        <time>2020-06-15T07:00:26Z</time>
      </trkpt>
      <trkpt lat="49.63945" lon="-1.63287">
        <ele>11.9</ele>
        <time>2020-06-15T07:00:27Z</time>
      </trkpt>
      <trkpt lat="49.63943" lon="-1.63281">
        <ele>11.9</ele>
        <time>2020-06-15T07:00:28Z</time>
      </trkpt>
      <trkpt lat="49.63941" lon="-1.63275">
        <ele>12</ele>
        <time>2020-06-15T07:00:29Z</time>
      </trkpt>
      <trkpt lat="49.63939" lon="-1.6327">
        <ele>12</ele>
        <time>2020-06-15T07:00:30Z</time>
      </trkpt>
      <trkpt lat="49.63937" lon="-1.63265">
        <ele>12</ele>
        <time>2020-06-15T07:00:31Z</time>
      </trkpt>
      <trkpt lat="49.63934" lon="-1.6326">
        <ele>12</ele>
        <time>2020-06-15T07:00:32Z</time>
      </trkpt>
      <trkpt lat="49.63932" lon="-1.63253">
        <ele>12</ele>
        <time>2020-06-15T07:00:33Z</time>
      </trkpt>
      <trkpt lat="49.6393" lon="-1.63247">
        <ele>12.1</ele>
        <time>2020-06-15T07:00:34Z</time>
      </trkpt>
      <trkpt lat="49.63928" lon="-1.6324">
        <ele>12.1</ele>
        <time>2020-06-15T07:00:35Z</time>
      </trkpt>
      <trkpt lat="49.63923" lon="-1.63234">
        <ele>12.1</ele>
        <time>2020-06-15T07:00:36Z</time>
      </trkpt>
      <trkpt lat="49.63921" lon="-1.63227">
        <ele>12.1</ele>
        <time>2020-06-15T07:00:37Z</time>
      </trkpt>
      <trkpt lat="49.63919" lon="-1.63221">
        <ele>12.1</ele>
        <time>2020-06-15T07:00:38Z</time>
      </trkpt>
      <trkpt lat="49.63917" lon="-1.63214">
        <ele>12.2</ele>
        <time>2020-06-15T07:00:39Z</time>
      </trkpt>
      <trkpt lat="49.63914" lon="-1.63207">
        <ele>12.2</ele>
        <time>2020-06-15T07:00:40Z</time>
      </trkpt>
      <trkpt lat="49.6391" lon="-1.632">
        <ele>12.2</ele>
        <time>2020-06-15T07:00:41Z</time>
      </trkpt>
      <trkpt lat="49.63908" lon="-1.63193">
        <ele>12.2</ele>
        <time>2020-06-15T07:00:42Z</time>
      </trkpt>
      <trkpt lat="49.63905" lon="-1.63186">
        <ele>12.2</ele>
        <time>2020-06-15T07:00:43Z</time>
      </trkpt>
      <trkpt lat="49.63903" lon="-1.63179">
        <ele>12.2</ele>
        <time>2020-06-15T07:00:44Z</time>
      </trkpt>
      <trkpt lat="49.639" lon="-1.63173">
        <ele>12.1</ele>
        <time>2020-06-15T07:00:45Z</time>
      </trkpt>
      <trkpt lat="49.63898" lon="-1.63167">
        <ele>12.1</ele>
        <time>2020-06-15T07:00:46Z</time>
      </trkpt>
      <trkpt lat="49.63897" lon="-1.63161">
        <ele>12.1</ele>
        <time>2020-06-15T07:00:47Z</time>
      </trkpt>
      <trkpt lat="49.63895" lon="-1.63156">
        <ele>12.1</ele>
        <time>2020-06-15T07:00:48Z</time>
      </trkpt>
      <trkpt lat="49.63894" lon="-1.63151">
        <ele>12.1</ele>
        <time>2020-06-15T07:00:49Z</time>
      </trkpt>
      <trkpt lat="49.63892" lon="-1.63147">
        <ele>12</ele>
        <time>2020-06-15T07:00:50Z</time>
      </trkpt>
      <trkpt lat="49.6389" lon="-1.63143">
        <ele>12</ele>
        <time>2020-06-15T07:00:51Z</time>
      </trkpt>
      <trkpt lat="49.63888" lon="-1.63138">
        <ele>12</ele>
        <time>2020-06-15T07:00:52Z</time>
      </trkpt>
      <trkpt lat="49.63886" lon="-1.63134">
        <ele>12.2</ele>
        <time>2020-06-15T07:00:53Z</time>
      </trkpt>
      <trkpt lat="49.63884" lon="-1.63131">
        <ele>12.3</ele>
        <time>2020-06-15T07:00:54Z</time>
      </trkpt>
      <trkpt lat="49.63881" lon="-1.63127">
        <ele>12.3</ele>
        <time>2020-06-15T07:00:55Z</time>
      </trkpt>
      <trkpt lat="49.63878" lon="-1.63126">
        <ele>12.3</ele>
        <time>2020-06-15T07:00:56Z</time>
      </trkpt>
      <trkpt lat="49.63874" lon="-1.63125">
        <ele>12.4</ele>
        <time>2020-06-15T07:00:57Z</time>
      </trkpt>
      <trkpt lat="49.63873" lon="-1.63124">
        <ele>12.4</ele>
        <time>2020-06-15T07:00:58Z</time>
      </trkpt>
      <trkpt lat="49.6387" lon="-1.63124">
        <ele>12.4</ele>
        <time>2020-06-15T07:00:59Z</time>
      </trkpt>
      <trkpt lat="49.63866" lon="-1.63124">
        <ele>12.5</ele>
        <time>2020-06-15T07:01:00Z</time>
      </trkpt>
      <trkpt lat="49.63862" lon="-1.63126">
        <ele>12.5</ele>
        <time>2020-06-15T07:01:01Z</time>
      </trkpt>
      <trkpt lat="49.63858" lon="-1.63127">
        <ele>12.6</ele>
        <time>2020-06-15T07:01:02Z</time>
      </trkpt>
      <trkpt lat="49.63854" lon="-1.63128">
        <ele>12.6</ele>
        <time>2020-06-15T07:01:03Z</time>
      </trkpt>
      <trkpt lat="49.6385" lon="-1.63128">
        <ele>12.7</ele>
        <time>2020-06-15T07:01:04Z</time>
      </trkpt>
      <trkpt lat="49.63847" lon="-1.63128">
        <ele>12.7</ele>
        <time>2020-06-15T07:01:05Z</time>
      </trkpt>
      <trkpt lat="49.63842" lon="-1.63127">
        <ele>12.8</ele>
        <time>2020-06-15T07:01:06Z</time>
      </trkpt>
      <trkpt lat="49.63838" lon="-1.63127">
        <ele>12.8</ele>
        <time>2020-06-15T07:01:07Z</time>
      </trkpt>
      <trkpt lat="49.63833" lon="-1.63127">
        <ele>12.9</ele>
        <time>2020-06-15T07:01:08Z</time>
      </trkpt>
      <trkpt lat="49.63827" lon="-1.63127">
        <ele>13</ele>
        <time>2020-06-15T07:01:09Z</time>
      </trkpt>
      <trkpt lat="49.63822" lon="-1.63127">
        <ele>13.2</ele>
        <time>2020-06-15T07:01:10Z</time>
      </trkpt>
      <trkpt lat="49.63817" lon="-1.63127">
        <ele>13.3</ele>
        <time>2020-06-15T07:01:11Z</time>
      </trkpt>
      <trkpt lat="49.63812" lon="-1.63127">
        <ele>13.4</ele>
        <time>2020-06-15T07:01:12Z</time>
      </trkpt>
      <trkpt lat="49.63808" lon="-1.63126">
        <ele>13.4</ele>
        <time>2020-06-15T07:01:13Z</time>
      </trkpt>
      <trkpt lat="49.63803" lon="-1.63126">
        <ele>13.5</ele>
        <time>2020-06-15T07:01:14Z</time>
      </trkpt>
      <trkpt lat="49.63798" lon="-1.63127">
        <ele>13.6</ele>
        <time>2020-06-15T07:01:15Z</time>
      </trkpt>
      <trkpt lat="49.63794" lon="-1.63128">
        <ele>13.7</ele>
        <time>2020-06-15T07:01:16Z</time>
      </trkpt>
      <trkpt lat="49.63789" lon="-1.63129">
        <ele>13.7</ele>
        <time>2020-06-15T07:01:17Z</time>
      </trkpt>
      <trkpt lat="49.63785" lon="-1.63129">
        <ele>13.8</ele>
        <time>2020-06-15T07:01:18Z</time>
      </trkpt>
      <trkpt lat="49.6378" lon="-1.63129">
        <ele>13.8</ele>
        <time>2020-06-15T07:01:19Z</time>
      </trkpt>
      <trkpt lat="49.63775" lon="-1.6313">
        <ele>13.9</ele>
        <time>2020-06-15T07:01:20Z</time>
      </trkpt>
      <trkpt lat="49.63771" lon="-1.63131">
        <ele>14</ele>
        <time>2020-06-15T07:01:21Z</time>
      </trkpt>
      <trkpt lat="49.63767" lon="-1.6313">
        <ele>14.1</ele>
        <time>2020-06-15T07:01:22Z</time>
      </trkpt>
      <trkpt lat="49.63763" lon="-1.6313">
        <ele>14.2</ele>
        <time>2020-06-15T07:01:23Z</time>
      </trkpt>
      <trkpt lat="49.63757" lon="-1.6313">
        <ele>14.3</ele>
        <time>2020-06-15T07:01:24Z</time>
      </trkpt>
      <trkpt lat="49.63752" lon="-1.63129">
        <ele>14.5</ele>
        <time>2020-06-15T07:01:25Z</time>
      </trkpt>
      <trkpt lat="49.63747" lon="-1.63128">
        <ele>14.6</ele>
        <time>2020-06-15T07:01:26Z</time>
      </trkpt>
      <trkpt lat="49.63743" lon="-1.63129">
        <ele>14.7</ele>
        <time>2020-06-15T07:01:27Z</time>
      </trkpt>
      <trkpt lat="49.63738" lon="-1.6313">
        <ele>14.8</ele>
        <time>2020-06-15T07:01:28Z</time>
      </trkpt>
      <trkpt lat="49.63734" lon="-1.6313">
        <ele>15</ele>
        <time>2020-06-15T07:01:29Z</time>
      </trkpt>
      <trkpt lat="49.63729" lon="-1.6313">
        <ele>15.1</ele>
        <time>2020-06-15T07:01:30Z</time>
      </trkpt>
      <trkpt lat="49.63724" lon="-1.63129">
        <ele>15.3</ele>
        <time>2020-06-15T07:01:31Z</time>
      </trkpt>
      <trkpt lat="49.6372" lon="-1.63128">
        <ele>15.4</ele>
        <time>2020-06-15T07:01:32Z</time>
      </trkpt>
      <trkpt lat="49.63716" lon="-1.63128">
        <ele>15.5</ele>
        <time>2020-06-15T07:01:33Z</time>
      </trkpt>
      <trkpt lat="49.63711" lon="-1.63129">
        <ele>15.7</ele>
        <time>2020-06-15T07:01:34Z</time>
      </trkpt>
      <trkpt lat="49.63707" lon="-1.63127">
        <ele>15.9</ele>
        <time>2020-06-15T07:01:35Z</time>
      </trkpt>
      <trkpt lat="49.63702" lon="-1.63128">
        <ele>16</ele>
        <time>2020-06-15T07:01:36Z</time>
      </trkpt>
      <trkpt lat="49.63696" lon="-1.63127">
        <ele>16.2</ele>
        <time>2020-06-15T07:01:37Z</time>
      </trkpt>
      <trkpt lat="49.63691" lon="-1.63129">
        <ele>16.4</ele>
        <time>2020-06-15T07:01:38Z</time>
      </trkpt>
      <trkpt lat="49.63687" lon="-1.63128">
        <ele>16.5</ele>
        <time>2020-06-15T07:01:39Z</time>
      </trkpt>
      <trkpt lat="49.63683" lon="-1.63128">
        <ele>16.7</ele>
        <time>2020-06-15T07:01:40Z</time>
      </trkpt>
      <trkpt lat="49.63679" lon="-1.63128">
        <ele>16.8</ele>
        <time>2020-06-15T07:01:41Z</time>
      </trkpt>
      <trkpt lat="49.63674" lon="-1.63127">
        <ele>16.9</ele>
        <time>2020-06-15T07:01:42Z</time>
      </trkpt>
      <trkpt lat="49.63669" lon="-1.63127">
        <ele>17.1</ele>
        <time>2020-06-15T07:01:43Z</time>
      </trkpt>
      <trkpt lat="49.63664" lon="-1.63128">
        <ele>17.3</ele>
        <time>2020-06-15T07:01:44Z</time>
      </trkpt>
      <trkpt lat="49.6366" lon="-1.63126">
        <ele>17.4</ele>
        <time>2020-06-15T07:01:45Z</time>
      </trkpt>
      <trkpt lat="49.63657" lon="-1.63128">
        <ele>17.6</ele>
        <time>2020-06-15T07:01:46Z</time>
      </trkpt>
      <trkpt lat="49.63654" lon="-1.63128">
        <ele>17.7</ele>
        <time>2020-06-15T07:01:47Z</time>
      </trkpt>
      <trkpt lat="49.63649" lon="-1.63126">
        <ele>17.8</ele>
        <time>2020-06-15T07:01:48Z</time>
      </trkpt>
      <trkpt lat="49.63646" lon="-1.63126">
        <ele>17.9</ele>
        <time>2020-06-15T07:01:49Z</time>
      </trkpt>
      <trkpt lat="49.63642" lon="-1.63127">
        <ele>18</ele>
        <time>2020-06-15T07:01:50Z</time>
      </trkpt>
      <trkpt lat="49.63638" lon="-1.63128">
        <ele>18.1</ele>
        <time>2020-06-15T07:01:51Z</time>
      </trkpt>
      <trkpt lat="49.63634" lon="-1.63129">
        <ele>18.2</ele>
        <time>2020-06-15T07:01:52Z</time>
      </trkpt>
      <trkpt lat="49.6363" lon="-1.63129">
        <ele>18.4</ele>
        <time>2020-06-15T07:01:53Z</time>
      </trkpt>
      <trkpt lat="49.63626" lon="-1.63129">
        <ele>18.5</ele>
        <time>2020-06-15T07:01:54Z</time>
      </trkpt>
      <trkpt lat="49.63622" lon="-1.6313">
        <ele>18.6</ele>
        <time>2020-06-15T07:01:55Z</time>
      </trkpt>
      <trkpt lat="49.63619" lon="-1.63129">
        <ele>18.7</ele>
        <time>2020-06-15T07:01:56Z</time>
      </trkpt>
      <trkpt lat="49.63615" lon="-1.63129">
        <ele>18.8</ele>
        <time>2020-06-15T07:01:57Z</time>
      </trkpt>
      <trkpt lat="49.63611" lon="-1.63129">
        <ele>18.9</ele>
        <time>2020-06-15T07:01:58Z</time>
      </trkpt>
      <trkpt lat="49.63606" lon="-1.63129">
        <ele>19</ele>
        <time>2020-06-15T07:01:59Z</time>
      </trkpt>
      <trkpt lat="49.63602" lon="-1.63128">
        <ele>19.1</ele>
        <time>2020-06-15T07:02:00Z</time>
      </trkpt>
      <trkpt lat="49.63599" lon="-1.63124">
        <ele>19.3</ele>
        <time>2020-06-15T07:02:01Z</time>
      </trkpt>
      <trkpt lat="49.63595" lon="-1.63124">
        <ele>19.4</ele>
        <time>2020-06-15T07:02:02Z</time>
      </trkpt>
      <trkpt lat="49.63594" lon="-1.63124">
        <ele>19.5</ele>
        <time>2020-06-15T07:02:03Z</time>
      </trkpt>
      <trkpt lat="49.63591" lon="-1.63125">
        <ele>19.5</ele>
        <time>2020-06-15T07:02:04Z</time>
      </trkpt>
      <trkpt lat="49.63591" lon="-1.63126">
        <ele>19.6</ele>
        <time>2020-06-15T07:02:05Z</time>
      </trkpt>
      <trkpt lat="49.63588" lon="-1.63125">
        <ele>19.6</ele>
        <time>2020-06-15T07:02:06Z</time>
      </trkpt>
      <trkpt lat="49.63587" lon="-1.63125">
        <ele>19.7</ele>
        <time>2020-06-15T07:02:07Z</time>
      </trkpt>
      <trkpt lat="49.63586" lon="-1.63125">
        <ele>19.7</ele>
        <time>2020-06-15T07:02:08Z</time>
      </trkpt>
      <trkpt lat="49.63584" lon="-1.63122">
        <ele>19.8</ele>
        <time>2020-06-15T07:02:09Z</time>
      </trkpt>
      <trkpt lat="49.63583" lon="-1.63121">
        <ele>19.8</ele>
        <time>2020-06-15T07:02:10Z</time>
      </trkpt>
      <trkpt lat="49.6358" lon="-1.63122">
        <ele>19.8</ele>
        <time>2020-06-15T07:02:11Z</time>
      </trkpt>
      <trkpt lat="49.63577" lon="-1.63123">
        <ele>19.9</ele>
        <time>2020-06-15T07:02:12Z</time>
      </trkpt>
      <trkpt lat="49.63576" lon="-1.63122">
        <ele>19.9</ele>
        <time>2020-06-15T07:02:13Z</time>
      </trkpt>
      <trkpt lat="49.63574" lon="-1.63123">
        <ele>19.9</ele>
        <time>2020-06-15T07:02:14Z</time>
      </trkpt>
      <trkpt lat="49.63572" lon="-1.63123">
        <ele>19.9</ele>
        <time>2020-06-15T07:02:15Z</time>
      </trkpt>
      <trkpt lat="49.63568" lon="-1.63121">
        <ele>20</ele>
        <time>2020-06-15T07:02:16Z</time>
      </trkpt>
      <trkpt lat="49.63564" lon="-1.6312">
        <ele>20</ele>
        <time>2020-06-15T07:02:17Z</time>
      </trkpt>
      <trkpt lat="49.63561" lon="-1.63115">
        <ele>19.9</ele>
        <time>2020-06-15T07:02:18Z</time>
      </trkpt>
      <trkpt lat="49.63559" lon="-1.63109">
        <ele>19.9</ele>
        <time>2020-06-15T07:02:19Z</time>
      </trkpt>
      <trkpt lat="49.63558" lon="-1.63102">
        <ele>19.8</ele>
        <time>2020-06-15T07:02:20Z</time>
      </trkpt>
      <trkpt lat="49.63557" lon="-1.63097">
        <ele>19.8</ele>
        <time>2020-06-15T07:02:21Z</time>
      </trkpt>
      <trkpt lat="49.63557" lon="-1.63092">
        <ele>19.7</ele>
        <time>2020-06-15T07:02:22Z</time>
      </trkpt>
      <trkpt lat="49.63557" lon="-1.6309">
        <ele>19.6</ele>
        <time>2020-06-15T07:02:23Z</time>
      </trkpt>
      <trkpt lat="49.63555" lon="-1.63085">
        <ele>19.5</ele>
        <time>2020-06-15T07:02:24Z</time>
      </trkpt>
      <trkpt lat="49.63555" lon="-1.63083">
        <ele>19.5</ele>
        <time>2020-06-15T07:02:25Z</time>
      </trkpt>
      <trkpt lat="49.63555" lon="-1.63079">
        <ele>19.4</ele>
        <time>2020-06-15T07:02:26Z</time>
      </trkpt>
      <trkpt lat="49.63554" lon="-1.63073">
        <ele>19.3</ele>
        <time>2020-06-15T07:02:27Z</time>
      </trkpt>
      <trkpt lat="49.63553" lon="-1.63066">
        <ele>19.2</ele>
        <time>2020-06-15T07:02:28Z</time>
      </trkpt>
      <trkpt lat="49.63551" lon="-1.63059">
        <ele>19.2</ele>
        <time>2020-06-15T07:02:29Z</time>
      </trkpt>
      <trkpt lat="49.63549" lon="-1.63053">
        <ele>19.2</ele>
        <time>2020-06-15T07:02:30Z</time>
      </trkpt>
      <trkpt lat="49.63548" lon="-1.63046">
        <ele>19.2</ele>
        <time>2020-06-15T07:02:31Z</time>
      </trkpt>
      <trkpt lat="49.63546" lon="-1.63038">
        <ele>18.9</ele>
        <time>2020-06-15T07:02:32Z</time>
      </trkpt>
      <trkpt lat="49.63544" lon="-1.6303">
        <ele>18.6</ele>
        <time>2020-06-15T07:02:33Z</time>
      </trkpt>
      <trkpt lat="49.63542" lon="-1.63022">
        <ele>18.2</ele>
        <time>2020-06-15T07:02:34Z</time>
      </trkpt>
      <trkpt lat="49.63541" lon="-1.63012">
        <ele>17.8</ele>
        <time>2020-06-15T07:02:35Z</time>
      </trkpt>
      <trkpt lat="49.63538" lon="-1.63002">
        <ele>17.4</ele>
        <time>2020-06-15T07:02:36Z</time>
      </trkpt>
      <trkpt lat="49.63536" lon="-1.62993">
        <ele>17.1</ele>
        <time>2020-06-15T07:02:37Z</time>
      </trkpt>
      <trkpt lat="49.63533" lon="-1.62982">
        <ele>16.7</ele>
        <time>2020-06-15T07:02:38Z</time>
      </trkpt>
      <trkpt lat="49.63531" lon="-1.62973">
        <ele>16.4</ele>
        <time>2020-06-15T07:02:39Z</time>
      </trkpt>
      <trkpt lat="49.63528" lon="-1.62964">
        <ele>16.1</ele>
        <time>2020-06-15T07:02:40Z</time>
      </trkpt>
      <trkpt lat="49.63525" lon="-1.62955">
        <ele>15.9</ele>
        <time>2020-06-15T07:02:41Z</time>
      </trkpt>
      <trkpt lat="49.63522" lon="-1.62944">
        <ele>15.6</ele>
        <time>2020-06-15T07:02:42Z</time>
      </trkpt>
      <trkpt lat="49.6352" lon="-1.62934">
        <ele>15.3</ele>
        <time>2020-06-15T07:02:43Z</time>
      </trkpt>
      <trkpt lat="49.63518" lon="-1.62925">
        <ele>15</ele>
        <time>2020-06-15T07:02:44Z</time>
      </trkpt>
      <trkpt lat="49.63516" lon="-1.62915">
        <ele>14.7</ele>
        <time>2020-06-15T07:02:45Z</time>
      </trkpt>
      <trkpt lat="49.63514" lon="-1.62903">
        <ele>14.4</ele>
        <time>2020-06-15T07:02:46Z</time>
      </trkpt>
      <trkpt lat="49.63512" lon="-1.62892">
        <ele>14.1</ele>
        <time>2020-06-15T07:02:47Z</time>
      </trkpt>
      <trkpt lat="49.6351" lon="-1.62881">
        <ele>13.7</ele>
        <time>2020-06-15T07:02:48Z</time>
      </trkpt>
      <trkpt lat="49.63508" lon="-1.62871">
        <ele>13.4</ele>
        <time>2020-06-15T07:02:49Z</time>
      </trkpt>
      <trkpt lat="49.63506" lon="-1.6286">
        <ele>13.1</ele>
        <time>2020-06-15T07:02:50Z</time>
      </trkpt>
      <trkpt lat="49.63504" lon="-1.6285">
        <ele>12.8</ele>
        <time>2020-06-15T07:02:51Z</time>
      </trkpt>
      <trkpt lat="49.63502" lon="-1.62839">
        <ele>12.5</ele>
        <time>2020-06-15T07:02:52Z</time>
      </trkpt>
      <trkpt lat="49.635" lon="-1.62829">
        <ele>12.1</ele>
        <time>2020-06-15T07:02:53Z</time>
      </trkpt>
      <trkpt lat="49.63498" lon="-1.62818">
        <ele>11.8</ele>
        <time>2020-06-15T07:02:54Z</time>
      </trkpt>
      <trkpt lat="49.63496" lon="-1.62808">
        <ele>11.5</ele>
        <time>2020-06-15T07:02:55Z</time>
      </trkpt>
      <trkpt lat="49.63493" lon="-1.62798">
        <ele>11.2</ele>
        <time>2020-06-15T07:02:56Z</time>
      </trkpt>
      <trkpt lat="49.63491" lon="-1.62788">
        <ele>10.9</ele>
        <time>2020-06-15T07:02:57Z</time>
      </trkpt>
      <trkpt lat="49.63489" lon="-1.62778">
        <ele>10.7</ele>
        <time>2020-06-15T07:02:58Z</time>
      </trkpt>
      <trkpt lat="49.63486" lon="-1.62769">
        <ele>10.4</ele>
        <time>2020-06-15T07:02:59Z</time>
      </trkpt>
      <trkpt lat="49.63485" lon="-1.62759">
        <ele>10.2</ele>
        <time>2020-06-15T07:03:00Z</time>
      </trkpt>
      <trkpt lat="49.63483" lon="-1.62749">
        <ele>10</ele>
        <time>2020-06-15T07:03:01Z</time>
      </trkpt>
      <trkpt lat="49.63482" lon="-1.6274">
        <ele>9.9</ele>
        <time>2020-06-15T07:03:02Z</time>
      </trkpt>
      <trkpt lat="49.6348" lon="-1.6273">
        <ele>9.7</ele>
        <time>2020-06-15T07:03:03Z</time>
      </trkpt>
      <trkpt lat="49.63478" lon="-1.6272">
        <ele>9.6</ele>
        <time>2020-06-15T07:03:04Z</time>
      </trkpt>
      <trkpt lat="49.63476" lon="-1.62709">
        <ele>9.4</ele>
        <time>2020-06-15T07:03:05Z</time>
      </trkpt>
      <trkpt lat="49.63473" lon="-1.62699">
        <ele>9.2</ele>
        <time>2020-06-15T07:03:06Z</time>
      </trkpt>
      <trkpt lat="49.6347" lon="-1.62689">
        <ele>9.1</ele>
        <time>2020-06-15T07:03:07Z</time>
      </trkpt>
      <trkpt lat="49.63468" lon="-1.62678">
        <ele>9</ele>
        <time>2020-06-15T07:03:08Z</time>
      </trkpt>
      <trkpt lat="49.63466" lon="-1.62668">
        <ele>8.9</ele>
        <time>2020-06-15T07:03:09Z</time>
      </trkpt>
      <trkpt lat="49.63464" lon="-1.62658">
        <ele>8.8</ele>
        <time>2020-06-15T07:03:10Z</time>
      </trkpt>
      <trkpt lat="49.63461" lon="-1.62648">
        <ele>8.7</ele>
        <time>2020-06-15T07:03:11Z</time>
      </trkpt>
      <trkpt lat="49.63459" lon="-1.62639">
        <ele>8.6</ele>
        <time>2020-06-15T07:03:12Z</time>
      </trkpt>
      <trkpt lat="49.63456" lon="-1.62629">
        <ele>8.5</ele>
        <time>2020-06-15T07:03:13Z</time>
      </trkpt>
      <trkpt lat="49.63454" lon="-1.6262">
        <ele>8.3</ele>
        <time>2020-06-15T07:03:14Z</time>
      </trkpt>
      <trkpt lat="49.63452" lon="-1.6261">
        <ele>8.3</ele>
        <time>2020-06-15T07:03:15Z</time>
      </trkpt>
      <trkpt lat="49.63449" lon="-1.62601">
        <ele>8.2</ele>
        <time>2020-06-15T07:03:16Z</time>
      </trkpt>
      <trkpt lat="49.63447" lon="-1.62591">
        <ele>8.2</ele>
        <time>2020-06-15T07:03:17Z</time>
      </trkpt>
      <trkpt lat="49.63445" lon="-1.62582">
        <ele>8.3</ele>
        <time>2020-06-15T07:03:18Z</time>
      </trkpt>
      <trkpt lat="49.63443" lon="-1.62573">
        <ele>8.5</ele>
        <time>2020-06-15T07:03:19Z</time>
      </trkpt>
      <trkpt lat="49.63441" lon="-1.62564">
        <ele>8.6</ele>
        <time>2020-06-15T07:03:20Z</time>
      </trkpt>
      <trkpt lat="49.63439" lon="-1.62554">
        <ele>8.7</ele>
        <time>2020-06-15T07:03:21Z</time>
      </trkpt>
      <trkpt lat="49.63437" lon="-1.62544">
        <ele>8.7</ele>
        <time>2020-06-15T07:03:22Z</time>
      </trkpt>
      <trkpt lat="49.63435" lon="-1.62535">
        <ele>8.7</ele>
        <time>2020-06-15T07:03:23Z</time>
      </trkpt>
      <trkpt lat="49.63433" lon="-1.62525">
        <ele>8.7</ele>
        <time>2020-06-15T07:03:24Z</time>
      </trkpt>
      <trkpt lat="49.63431" lon="-1.62516">
        <ele>8.6</ele>
        <time>2020-06-15T07:03:25Z</time>
      </trkpt>
      <trkpt lat="49.63428" lon="-1.62506">
        <ele>8.3</ele>
        <time>2020-06-15T07:03:26Z</time>
      </trkpt>
      <trkpt lat="49.63426" lon="-1.62497">
        <ele>8</ele>
        <time>2020-06-15T07:03:27Z</time>
      </trkpt>
      <trkpt lat="49.63424" lon="-1.62488">
        <ele>7.7</ele>
        <time>2020-06-15T07:03:28Z</time>
      </trkpt>
      <trkpt lat="49.63422" lon="-1.62479">
        <ele>7.4</ele>
        <time>2020-06-15T07:03:29Z</time>
      </trkpt>
      <trkpt lat="49.6342" lon="-1.6247">
        <ele>7.1</ele>
        <time>2020-06-15T07:03:30Z</time>
      </trkpt>
      <trkpt lat="49.63418" lon="-1.6246">
        <ele>6.9</ele>
        <time>2020-06-15T07:03:31Z</time>
      </trkpt>
      <trkpt lat="49.63416" lon="-1.62451">
        <ele>6.8</ele>
        <time>2020-06-15T07:03:32Z</time>
      </trkpt>
      <trkpt lat="49.63414" lon="-1.62442">
        <ele>6.7</ele>
        <time>2020-06-15T07:03:33Z</time>
      </trkpt>
      <trkpt lat="49.63412" lon="-1.62432">
        <ele>6.6</ele>
        <time>2020-06-15T07:03:34Z</time>
      </trkpt>
      <trkpt lat="49.6341" lon="-1.62423">
        <ele>6.5</ele>
        <time>2020-06-15T07:03:35Z</time>
      </trkpt>
      <trkpt lat="49.63408" lon="-1.62414">
        <ele>6.4</ele>
        <time>2020-06-15T07:03:36Z</time>
      </trkpt>
      <trkpt lat="49.63406" lon="-1.62405">
        <ele>6.3</ele>
        <time>2020-06-15T07:03:37Z</time>
      </trkpt>
      <trkpt lat="49.63404" lon="-1.62396">
        <ele>6.2</ele>
        <time>2020-06-15T07:03:38Z</time>
      </trkpt>
      <trkpt lat="49.63402" lon="-1.62388">
        <ele>6.2</ele>
        <time>2020-06-15T07:03:39Z</time>
      </trkpt>
      <trkpt lat="49.634" lon="-1.6238">
        <ele>6.1</ele>
        <time>2020-06-15T07:03:40Z</time>
      </trkpt>
      <trkpt lat="49.63399" lon="-1.62373">
        <ele>6.1</ele>
        <time>2020-06-15T07:03:41Z</time>
      </trkpt>
      <trkpt lat="49.63397" lon="-1.62366">
        <ele>6</ele>
        <time>2020-06-15T07:03:42Z</time>
      </trkpt>
      <trkpt lat="49.63396" lon="-1.6236">
        <ele>6</ele>
        <time>2020-06-15T07:03:43Z</time>
      </trkpt>
      <trkpt lat="49.63395" lon="-1.62357">
        <ele>6</ele>
        <time>2020-06-15T07:03:44Z</time>
      </trkpt>
      <trkpt lat="49.63395" lon="-1.62356">
        <ele>6</ele>
        <time>2020-06-15T07:03:45Z</time>
      </trkpt>
      <trkpt lat="49.63395" lon="-1.62357">
        <ele>6</ele>
        <time>2020-06-15T07:03:46Z</time>
      </trkpt>
      <trkpt lat="49.63395" lon="-1.62357">
        <ele>6</ele>
        <time>2020-06-15T07:03:47Z</time>
      </trkpt>
      <trkpt lat="49.63394" lon="-1.62357">
        <ele>6</ele>
        <time>2020-06-15T07:03:48Z</time>
      </trkpt>
      <trkpt lat="49.63393" lon="-1.62358">
        <ele>6</ele>
        <time>2020-06-15T07:03:49Z</time>
      </trkpt>
      <trkpt lat="49.63393" lon="-1.62358">
        <ele>6</ele>
        <time>2020-06-15T07:03:50Z</time>
      </trkpt>
      <trkpt lat="49.63393" lon="-1.62358">
        <ele>6</ele>
        <time>2020-06-15T07:03:51Z</time>
      </trkpt>
      <trkpt lat="49.63392" lon="-1.62358">
        <ele>6</ele>
        <time>2020-06-15T07:03:52Z</time>
      </trkpt>
      <trkpt lat="49.63391" lon="-1.62356">
        <ele>5.9</ele>
        <time>2020-06-15T07:03:53Z</time>
      </trkpt>
      <trkpt lat="49.63391" lon="-1.62353">
        <ele>5.9</ele>
        <time>2020-06-15T07:03:54Z</time>
      </trkpt>
      <trkpt lat="49.63391" lon="-1.6235">
        <ele>5.9</ele>
        <time>2020-06-15T07:03:55Z</time>
      </trkpt>
      <trkpt lat="49.6339" lon="-1.62347">
        <ele>5.9</ele>
        <time>2020-06-15T07:05:03Z</time>
      </trkpt>
      <trkpt lat="49.6339" lon="-1.62344">
        <ele>5.9</ele>
        <time>2020-06-15T07:05:04Z</time>
      </trkpt>
      <trkpt lat="49.6339" lon="-1.6234">
        <ele>5.9</ele>
        <time>2020-06-15T07:05:05Z</time>
      </trkpt>
      <trkpt lat="49.63389" lon="-1.62334">
        <ele>5.8</ele>
        <time>2020-06-15T07:05:06Z</time>
      </trkpt>
      <trkpt lat="49.63389" lon="-1.62327">
        <ele>5.8</ele>
        <time>2020-06-15T07:05:07Z</time>
      </trkpt>
      <trkpt lat="49.63389" lon="-1.62321">
        <ele>5.7</ele>
        <time>2020-06-15T07:05:08Z</time>
      </trkpt>
      <trkpt lat="49.63388" lon="-1.62314">
        <ele>5.6</ele>
        <time>2020-06-15T07:05:09Z</time>
      </trkpt>
      <trkpt lat="49.63387" lon="-1.62307">
        <ele>5.6</ele>
        <time>2020-06-15T07:05:10Z</time>
      </trkpt>
      <trkpt lat="49.63386" lon="-1.62299">
        <ele>5.5</ele>
        <time>2020-06-15T07:05:11Z</time>
      </trkpt>
      <trkpt lat="49.63385" lon="-1.62291">
        <ele>5.4</ele>
        <time>2020-06-15T07:05:12Z</time>
      </trkpt>
      <trkpt lat="49.63385" lon="-1.62284">
        <ele>5.4</ele>
        <time>2020-06-15T07:05:13Z</time>
      </trkpt>
      <trkpt lat="49.63384" lon="-1.62276">
        <ele>5.3</ele>
        <time>2020-06-15T07:05:14Z</time>
      </trkpt>
      <trkpt lat="49.63384" lon="-1.62268">
        <ele>5.3</ele>
        <time>2020-06-15T07:05:15Z</time>
      </trkpt>
      <trkpt lat="49.63384" lon="-1.62261">
        <ele>5.3</ele>
        <time>2020-06-15T07:05:16Z</time>
      </trkpt>
      <trkpt lat="49.63384" lon="-1.62253">
        <ele>5.4</ele>
        <time>2020-06-15T07:05:17Z</time>
      </trkpt>
      <trkpt lat="49.63385" lon="-1.62244">
        <ele>5.4</ele>
        <time>2020-06-15T07:05:18Z</time>
      </trkpt>
      <trkpt lat="49.63385" lon="-1.62236">
        <ele>5.4</ele>
        <time>2020-06-15T07:05:19Z</time>
      </trkpt>
      <trkpt lat="49.63384" lon="-1.62229">
        <ele>5.4</ele>
        <time>2020-06-15T07:05:20Z</time>
      </trkpt>
      <trkpt lat="49.63382" lon="-1.62222">
        <ele>5.4</ele>
        <time>2020-06-15T07:05:21Z</time>
      </trkpt>
      <trkpt lat="49.63381" lon="-1.62214">
        <ele>5.3</ele>
        <time>2020-06-15T07:05:22Z</time>
      </trkpt>
      <trkpt lat="49.6338" lon="-1.62205">
        <ele>5.2</ele>
        <time>2020-06-15T07:05:23Z</time>
      </trkpt>
      <trkpt lat="49.63378" lon="-1.62196">
        <ele>5</ele>
        <time>2020-06-15T07:05:24Z</time>
      </trkpt>
      <trkpt lat="49.63377" lon="-1.62188">
        <ele>4.8</ele>
        <time>2020-06-15T07:05:25Z</time>
      </trkpt>
      <trkpt lat="49.63375" lon="-1.62179">
        <ele>4.7</ele>
        <time>2020-06-15T07:05:26Z</time>
      </trkpt>
      <trkpt lat="49.63374" lon="-1.62171">
        <ele>4.5</ele>
        <time>2020-06-15T07:05:27Z</time>
      </trkpt>
      <trkpt lat="49.63373" lon="-1.62163">
        <ele>4.5</ele>
        <time>2020-06-15T07:05:28Z</time>
      </trkpt>
      <trkpt lat="49.63372" lon="-1.62154">
        <ele>4.4</ele>
        <time>2020-06-15T07:05:29Z</time>
      </trkpt>
      <trkpt lat="49.63371" lon="-1.62145">
        <ele>4.4</ele>
        <time>2020-06-15T07:05:30Z</time>
      </trkpt>
      <trkpt lat="49.6337" lon="-1.62136">
        <ele>4.4</ele>
        <time>2020-06-15T07:05:31Z</time>
      </trkpt>
      <trkpt lat="49.63369" lon="-1.62127">
        <ele>4.4</ele>
        <time>2020-06-15T07:05:32Z</time>
      </trkpt>
      <trkpt lat="49.63368" lon="-1.62118">
        <ele>4.3</ele>
        <time>2020-06-15T07:05:33Z</time>
      </trkpt>
      <trkpt lat="49.63367" lon="-1.62109">
        <ele>4.4</ele>
        <time>2020-06-15T07:05:34Z</time>
      </trkpt>
      <trkpt lat="49.63366" lon="-1.621">
        <ele>4.4</ele>
        <time>2020-06-15T07:05:35Z</time>
      </trkpt>
      <trkpt lat="49.63365" lon="-1.62093">
        <ele>4.4</ele>
        <time>2020-06-15T07:05:36Z</time>
      </trkpt>
      <trkpt lat="49.63365" lon="-1.62085">
        <ele>4.4</ele>
        <time>2020-06-15T07:05:37Z</time>
      </trkpt>
      <trkpt lat="49.63364" lon="-1.62077">
        <ele>4.4</ele>
        <time>2020-06-15T07:05:38Z</time>
      </trkpt>
      <trkpt lat="49.63362" lon="-1.62067">
        <ele>4.4</ele>
        <time>2020-06-15T07:05:39Z</time>
      </trkpt>
      <trkpt lat="49.63362" lon="-1.62058">
        <ele>4.4</ele>
        <time>2020-06-15T07:05:40Z</time>
      </trkpt>
      <trkpt lat="49.63361" lon="-1.62049">
        <ele>4.4</ele>
        <time>2020-06-15T07:05:41Z</time>
      </trkpt>
      <trkpt lat="49.6336" lon="-1.62039">
        <ele>4.4</ele>
        <time>2020-06-15T07:05:42Z</time>
      </trkpt>
      <trkpt lat="49.6336" lon="-1.62031">
        <ele>4.4</ele>
        <time>2020-06-15T07:05:43Z</time>
      </trkpt>
      <trkpt lat="49.6336" lon="-1.62023">
        <ele>4.4</ele>
        <time>2020-06-15T07:05:44Z</time>
      </trkpt>
      <trkpt lat="49.6336" lon="-1.62015">
        <ele>4.4</ele>
        <time>2020-06-15T07:05:45Z</time>
      </trkpt>
      <trkpt lat="49.63359" lon="-1.62006">
        <ele>4.5</ele>
        <time>2020-06-15T07:05:46Z</time>
      </trkpt>
      <trkpt lat="49.63359" lon="-1.61997">
        <ele>4.5</ele>
        <time>2020-06-15T07:05:47Z</time>
      </trkpt>
      <trkpt lat="49.63359" lon="-1.61989">
        <ele>4.5</ele>
        <time>2020-06-15T07:05:48Z</time>
      </trkpt>
      <trkpt lat="49.63358" lon="-1.61979">
        <ele>4.5</ele>
        <time>2020-06-15T07:05:49Z</time>
      </trkpt>
      <trkpt lat="49.63358" lon="-1.61971">
        <ele>4.5</ele>
        <time>2020-06-15T07:05:50Z</time>
      </trkpt>
      <trkpt lat="49.63356" lon="-1.61963">
        <ele>4.6</ele>
        <time>2020-06-15T07:05:51Z</time>
      </trkpt>
      <trkpt lat="49.63355" lon="-1.61955">
        <ele>4.6</ele>
        <time>2020-06-15T07:05:52Z</time>
      </trkpt>
      <trkpt lat="49.63355" lon="-1.61947">
        <ele>4.6</ele>
        <time>2020-06-15T07:05:53Z</time>
      </trkpt>
      <trkpt lat="49.63354" lon="-1.61939">
        <ele>4.6</ele>
        <time>2020-06-15T07:05:54Z</time>
      </trkpt>
      <trkpt lat="49.63354" lon="-1.6193">
        <ele>4.6</ele>
        <time>2020-06-15T07:05:55Z</time>
      </trkpt>
      <trkpt lat="49.63354" lon="-1.61923">
        <ele>4.6</ele>
        <time>2020-06-15T07:05:56Z</time>
      </trkpt>
      <trkpt lat="49.63353" lon="-1.61914">
        <ele>4.6</ele>
        <time>2020-06-15T07:05:57Z</time>
      </trkpt>
      <trkpt lat="49.63353" lon="-1.61904">
        <ele>4.6</ele>
        <time>2020-06-15T07:05:58Z</time>
      </trkpt>
      <trkpt lat="49.63352" lon="-1.61895">
        <ele>4.6</ele>
        <time>2020-06-15T07:05:59Z</time>
      </trkpt>
      <trkpt lat="49.63351" lon="-1.61885">
        <ele>4.5</ele>
        <time>2020-06-15T07:06:00Z</time>
      </trkpt>
      <trkpt lat="49.6335" lon="-1.61877">
        <ele>4.5</ele>
        <time>2020-06-15T07:06:01Z</time>
      </trkpt>
      <trkpt lat="49.63349" lon="-1.61866">
        <ele>4.5</ele>
        <time>2020-06-15T07:06:02Z</time>
      </trkpt>
      <trkpt lat="49.63348" lon="-1.61855">
        <ele>4.5</ele>
        <time>2020-06-15T07:06:03Z</time>
      </trkpt>
      <trkpt lat="49.63348" lon="-1.61847">
        <ele>4.4</ele>
        <time>2020-06-15T07:06:04Z</time>
      </trkpt>
      <trkpt lat="49.63347" lon="-1.61838">
        <ele>4.5</ele>
        <time>2020-06-15T07:06:05Z</time>
      </trkpt>
      <trkpt lat="49.63347" lon="-1.61832">
        <ele>4.5</ele>
        <time>2020-06-15T07:06:06Z</time>
      </trkpt>
      <trkpt lat="49.63347" lon="-1.61824">
        <ele>4.5</ele>
        <time>2020-06-15T07:06:07Z</time>
      </trkpt>
      <trkpt lat="49.63346" lon="-1.61816">
        <ele>4.5</ele>
        <time>2020-06-15T07:06:08Z</time>
      </trkpt>
      <trkpt lat="49.63346" lon="-1.61807">
        <ele>4.5</ele>
        <time>2020-06-15T07:06:09Z</time>
      </trkpt>
      <trkpt lat="49.63346" lon="-1.618">
        <ele>4.5</ele>
        <time>2020-06-15T07:06:10Z</time>
      </trkpt>
      <trkpt lat="49.63346" lon="-1.61793">
        <ele>4.6</ele>
        <time>2020-06-15T07:06:11Z</time>
      </trkpt>
      <trkpt lat="49.63345" lon="-1.61786">
        <ele>4.5</ele>
        <time>2020-06-15T07:06:12Z</time>
      </trkpt>
      <trkpt lat="49.63345" lon="-1.61777">
        <ele>4.5</ele>
        <time>2020-06-15T07:06:13Z</time>
      </trkpt>
      <trkpt lat="49.63344" lon="-1.6177">
        <ele>4.5</ele>
        <time>2020-06-15T07:06:14Z</time>
      </trkpt>
      <trkpt lat="49.63344" lon="-1.61763">
        <ele>4.5</ele>
        <time>2020-06-15T07:06:15Z</time>
      </trkpt>
      <trkpt lat="49.63344" lon="-1.61758">
        <ele>4.5</ele>
        <time>2020-06-15T07:06:16Z</time>
      </trkpt>
      <trkpt lat="49.63344" lon="-1.61753">
        <ele>4.4</ele>
        <time>2020-06-15T07:06:17Z</time>
      </trkpt>
      <trkpt lat="49.63342" lon="-1.61749">
        <ele>4.4</ele>
        <time>2020-06-15T07:06:18Z</time>
      </trkpt>
      <trkpt lat="49.63342" lon="-1.61747">
        <ele>4.4</ele>
        <time>2020-06-15T07:06:19Z</time>
      </trkpt>
      <trkpt lat="49.6334" lon="-1.61744">
        <ele>4.3</ele>
        <time>2020-06-15T07:06:20Z</time>
      </trkpt>
      <trkpt lat="49.63336" lon="-1.61743">
        <ele>4.3</ele>
        <time>2020-06-15T07:06:21Z</time>
      </trkpt>
      <trkpt lat="49.63331" lon="-1.61743">
        <ele>4.3</ele>
        <time>2020-06-15T07:06:22Z</time>
      </trkpt>
      <trkpt lat="49.63326" lon="-1.61746">
        <ele>4.3</ele>
        <time>2020-06-15T07:06:23Z</time>
      </trkpt>
      <trkpt lat="49.6332" lon="-1.61747">
        <ele>4.2</ele>
        <time>2020-06-15T07:06:24Z</time>
      </trkpt>
      <trkpt lat="49.63314" lon="-1.61748">
        <ele>4.2</ele>
        <time>2020-06-15T07:06:25Z</time>
      </trkpt>
      <trkpt lat="49.63307" lon="-1.6175">
        <ele>4.2</ele>
        <time>2020-06-15T07:06:26Z</time>
      </trkpt>
      <trkpt lat="49.633" lon="-1.61752">
        <ele>4.1</ele>
        <time>2020-06-15T07:06:27Z</time>
      </trkpt>
      <trkpt lat="49.63296" lon="-1.61752">
        <ele>4.1</ele>
        <time>2020-06-15T07:06:28Z</time>
      </trkpt>
      <trkpt lat="49.63291" lon="-1.61753">
        <ele>4.1</ele>
        <time>2020-06-15T07:06:29Z</time>
      </trkpt>
      <trkpt lat="49.63285" lon="-1.61754">
        <ele>4</ele>
        <time>2020-06-15T07:06:30Z</time>
      </trkpt>
      <trkpt lat="49.6328" lon="-1.61756">
        <ele>4</ele>
        <time>2020-06-15T07:06:31Z</time>
      </trkpt>
      <trkpt lat="49.63275" lon="-1.61757">
        <ele>4</ele>
        <time>2020-06-15T07:06:32Z</time>
      </trkpt>
      <trkpt lat="49.63269" lon="-1.6176">
        <ele>4</ele>
        <time>2020-06-15T07:06:33Z</time>
      </trkpt>
      <trkpt lat="49.63263" lon="-1.61761">
        <ele>4</ele>
        <time>2020-06-15T07:06:34Z</time>
      </trkpt>
      <trkpt lat="49.63256" lon="-1.61762">
        <ele>4</ele>
        <time>2020-06-15T07:06:35Z</time>
      </trkpt>
      <trkpt lat="49.6325" lon="-1.61762">
        <ele>3.9</ele>
        <time>2020-06-15T07:06:36Z</time>
      </trkpt>
      <trkpt lat="49.63244" lon="-1.61762">
        <ele>3.9</ele>
        <time>2020-06-15T07:06:37Z</time>
      </trkpt>
      <trkpt lat="49.63237" lon="-1.61763">
        <ele>3.9</ele>
        <time>2020-06-15T07:06:38Z</time>
      </trkpt>
      <trkpt lat="49.63231" lon="-1.61763">
        <ele>3.9</ele>
        <time>2020-06-15T07:06:39Z</time>
      </trkpt>
      <trkpt lat="49.63225" lon="-1.61764">
        <ele>4</ele>
        <time>2020-06-15T07:06:40Z</time>
      </trkpt>
      <trkpt lat="49.63218" lon="-1.61763">
        <ele>4</ele>
        <time>2020-06-15T07:06:41Z</time>
      </trkpt>
      <trkpt lat="49.63213" lon="-1.61763">
        <ele>4.1</ele>
        <time>2020-06-15T07:06:42Z</time>
      </trkpt>
      <trkpt lat="49.63208" lon="-1.61764">
        <ele>4.1</ele>
        <time>2020-06-15T07:06:43Z</time>
      </trkpt>
      <trkpt lat="49.63202" lon="-1.61764">
        <ele>4.1</ele>
        <time>2020-06-15T07:06:44Z</time>
      </trkpt>
      <trkpt lat="49.63198" lon="-1.61766">
        <ele>4.2</ele>
        <time>2020-06-15T07:06:45Z</time>
      </trkpt>
      <trkpt lat="49.63192" lon="-1.61767">
        <ele>4.2</ele>
        <time>2020-06-15T07:06:46Z</time>
      </trkpt>
      <trkpt lat="49.63184" lon="-1.61769">
        <ele>4.3</ele>
        <time>2020-06-15T07:06:47Z</time>
      </trkpt>
      <trkpt lat="49.63178" lon="-1.6177">
        <ele>4.4</ele>
        <time>2020-06-15T07:06:48Z</time>
      </trkpt>
      <trkpt lat="49.63172" lon="-1.61772">
        <ele>4.4</ele>
        <time>2020-06-15T07:06:49Z</time>
      </trkpt>
      <trkpt lat="49.63165" lon="-1.61772">
        <ele>4.4</ele>
        <time>2020-06-15T07:06:50Z</time>
      </trkpt>
      <trkpt lat="49.63158" lon="-1.61773">
        <ele>4.4</ele>
        <time>2020-06-15T07:06:51Z</time>
      </trkpt>
      <trkpt lat="49.63152" lon="-1.61774">
        <ele>4.4</ele>
        <time>2020-06-15T07:06:52Z</time>
      </trkpt>
      <trkpt lat="49.63147" lon="-1.61774">
        <ele>4.3</ele>
        <time>2020-06-15T07:06:53Z</time>
      </trkpt>
      <trkpt lat="49.63141" lon="-1.61775">
        <ele>4.3</ele>
        <time>2020-06-15T07:06:54Z</time>
      </trkpt>
      <trkpt lat="49.63135" lon="-1.61776">
        <ele>4.2</ele>
        <time>2020-06-15T07:06:55Z</time>
      </trkpt>
      <trkpt lat="49.63129" lon="-1.61777">
        <ele>4.2</ele>
        <time>2020-06-15T07:06:56Z</time>
      </trkpt>
      <trkpt lat="49.63124" lon="-1.61778">
        <ele>4.2</ele>
        <time>2020-06-15T07:06:57Z</time>
      </trkpt>
      <trkpt lat="49.63117" lon="-1.61778">
        <ele>4.1</ele>
        <time>2020-06-15T07:06:58Z</time>
      </trkpt>
      <trkpt lat="49.63111" lon="-1.61778">
        <ele>4.1</ele>
        <time>2020-06-15T07:06:59Z</time>
      </trkpt>
      <trkpt lat="49.63104" lon="-1.61779">
        <ele>4.1</ele>
        <time>2020-06-15T07:07:00Z</time>
      </trkpt>
      <trkpt lat="49.63099" lon="-1.6178">
        <ele>4.1</ele>
        <time>2020-06-15T07:07:01Z</time>
      </trkpt>
      <trkpt lat="49.63093" lon="-1.61781">
        <ele>4</ele>
        <time>2020-06-15T07:07:02Z</time>
      </trkpt>
      <trkpt lat="49.63086" lon="-1.61782">
        <ele>4</ele>
        <time>2020-06-15T07:07:03Z</time>
      </trkpt>
      <trkpt lat="49.63079" lon="-1.61781">
        <ele>3.9</ele>
        <time>2020-06-15T07:07:04Z</time>
      </trkpt>
      <trkpt lat="49.63071" lon="-1.61783">
        <ele>3.9</ele>
        <time>2020-06-15T07:07:05Z</time>
      </trkpt>
      <trkpt lat="49.63064" lon="-1.61784">
        <ele>3.9</ele>
        <time>2020-06-15T07:07:06Z</time>
      </trkpt>
      <trkpt lat="49.63058" lon="-1.61786">
        <ele>3.9</ele>
        <time>2020-06-15T07:07:07Z</time>
      </trkpt>
      <trkpt lat="49.63054" lon="-1.61789">
        <ele>3.9</ele>
        <time>2020-06-15T07:07:08Z</time>
      </trkpt>
      <trkpt lat="49.63048" lon="-1.61791">
        <ele>3.8</ele>
        <time>2020-06-15T07:07:09Z</time>
      </trkpt>
      <trkpt lat="49.63043" lon="-1.61792">
        <ele>3.8</ele>
        <time>2020-06-15T07:07:10Z</time>
      </trkpt>
      <trkpt lat="49.63039" lon="-1.61794">
        <ele>3.8</ele>
        <time>2020-06-15T07:07:11Z</time>
      </trkpt>
      <trkpt lat="49.63037" lon="-1.61795">
        <ele>3.8</ele>
        <time>2020-06-15T07:07:12Z</time>
      </trkpt>
      <trkpt lat="49.63032" lon="-1.61795">
        <ele>3.8</ele>
        <time>2020-06-15T07:07:13Z</time>
      </trkpt>
      <trkpt lat="49.63029" lon="-1.61795">
        <ele>3.8</ele>
        <time>2020-06-15T07:07:14Z</time>
      </trkpt>
      <trkpt lat="49.63027" lon="-1.61795">
        <ele>3.8</ele>
        <time>2020-06-15T07:07:15Z</time>
      </trkpt>
      <trkpt lat="49.63023" lon="-1.61795">
        <ele>3.8</ele>
        <time>2020-06-15T07:07:16Z</time>
      </trkpt>
      <trkpt lat="49.63018" lon="-1.61796">
        <ele>3.8</ele>
        <time>2020-06-15T07:07:17Z</time>
      </trkpt>
      <trkpt lat="49.63014" lon="-1.61797">
        <ele>3.8</ele>
        <time>2020-06-15T07:07:18Z</time>
      </trkpt>
      <trkpt lat="49.63008" lon="-1.61798">
        <ele>3.8</ele>
        <time>2020-06-15T07:07:19Z</time>
      </trkpt>
      <trkpt lat="49.63004" lon="-1.61797">
        <ele>3.8</ele>
        <time>2020-06-15T07:07:20Z</time>
      </trkpt>
      <trkpt lat="49.62998" lon="-1.61799">
        <ele>3.7</ele>
        <time>2020-06-15T07:07:21Z</time>
      </trkpt>
      <trkpt lat="49.62991" lon="-1.61799">
        <ele>3.7</ele>
        <time>2020-06-15T07:07:22Z</time>
      </trkpt>
      <trkpt lat="49.62985" lon="-1.618">
        <ele>3.7</ele>
        <time>2020-06-15T07:07:23Z</time>
      </trkpt>
      <trkpt lat="49.6298" lon="-1.61801">
        <ele>3.7</ele>
        <time>2020-06-15T07:07:24Z</time>
      </trkpt>
      <trkpt lat="49.62973" lon="-1.61803">
        <ele>3.7</ele>
        <time>2020-06-15T07:07:25Z</time>
      </trkpt>
      <trkpt lat="49.62967" lon="-1.61805">
        <ele>3.7</ele>
        <time>2020-06-15T07:07:26Z</time>
      </trkpt>
      <trkpt lat="49.6296" lon="-1.61807">
        <ele>3.7</ele>
        <time>2020-06-15T07:07:27Z</time>
      </trkpt>
      <trkpt lat="49.62953" lon="-1.61809">
        <ele>3.7</ele>
        <time>2020-06-15T07:07:28Z</time>
      </trkpt>
      <trkpt lat="49.62946" lon="-1.61811">
        <ele>3.7</ele>
        <time>2020-06-15T07:07:29Z</time>
      </trkpt>
      <trkpt lat="49.62939" lon="-1.61813">
        <ele>3.7</ele>
        <time>2020-06-15T07:07:30Z</time>
      </trkpt>
      <trkpt lat="49.62932" lon="-1.61814">
        <ele>3.6</ele>
        <time>2020-06-15T07:07:31Z</time>
      </trkpt>
      <trkpt lat="49.62926" lon="-1.61815">
        <ele>3.6</ele>
        <time>2020-06-15T07:07:32Z</time>
      </trkpt>
      <trkpt lat="49.62925" lon="-1.61816">
        <ele>3.6</ele>
        <time>2020-06-15T07:07:33Z</time>
      </trkpt>
      <trkpt lat="49.62924" lon="-1.61816">
        <ele>3.6</ele>
        <time>2020-06-15T07:07:34Z</time>
      </trkpt>
      <trkpt lat="49.62922" lon="-1.61818">
        <ele>3.6</ele>
        <time>2020-06-15T07:07:35Z</time>
      </trkpt>
      <trkpt lat="49.62922" lon="-1.61818">
        <ele>3.6</ele>
        <time>2020-06-15T07:07:36Z</time>
      </trkpt>
      <trkpt lat="49.62921" lon="-1.61819">
        <ele>3.6</ele>
        <time>2020-06-15T07:07:37Z</time>
      </trkpt>
      <trkpt lat="49.62921" lon="-1.61819">
        <ele>3.6</ele>
        <time>2020-06-15T07:07:38Z</time>
      </trkpt>
      <trkpt lat="49.6292" lon="-1.6182">
        <ele>3.6</ele>
        <time>2020-06-15T07:07:39Z</time>
      </trkpt>
      <trkpt lat="49.62919" lon="-1.61821">
        <ele>3.6</ele>
        <time>2020-06-15T07:07:40Z</time>
      </trkpt>
      <trkpt lat="49.62919" lon="-1.61821">
        <ele>3.6</ele>
        <time>2020-06-15T07:07:41Z</time>
      </trkpt>
      <trkpt lat="49.62918" lon="-1.61822">
        <ele>3.6</ele>
        <time>2020-06-15T07:07:42Z</time>
      </trkpt>
      <trkpt lat="49.62918" lon="-1.61823">
        <ele>3.6</ele>
        <time>2020-06-15T07:07:43Z</time>
      </trkpt>
      <trkpt lat="49.62917" lon="-1.61823">
        <ele>3.6</ele>
        <time>2020-06-15T07:07:44Z</time>
      </trkpt>
      <trkpt lat="49.62917" lon="-1.61824">
        <ele>3.6</ele>
        <time>2020-06-15T07:07:45Z</time>
      </trkpt>
      <trkpt lat="49.62916" lon="-1.61824">
        <ele>3.6</ele>
        <time>2020-06-15T07:07:46Z</time>
      </trkpt>
      <trkpt lat="49.62916" lon="-1.61825">
        <ele>3.6</ele>
        <time>2020-06-15T07:07:47Z</time>
      </trkpt>
      <trkpt lat="49.62915" lon="-1.61826">
        <ele>3.6</ele>
        <time>2020-06-15T07:08:04Z</time>
      </trkpt>
      <trkpt lat="49.62915" lon="-1.61826">
        <ele>3.6</ele>
        <time>2020-06-15T07:08:05Z</time>
      </trkpt>
      <trkpt lat="49.62912" lon="-1.61827">
        <ele>3.6</ele>
        <time>2020-06-15T07:08:06Z</time>
      </trkpt>
      <trkpt lat="49.62909" lon="-1.61828">
        <ele>3.6</ele>
        <time>2020-06-15T07:08:07Z</time>
      </trkpt>
      <trkpt lat="49.62906" lon="-1.61828">
        <ele>3.6</ele>
        <time>2020-06-15T07:08:08Z</time>
      </trkpt>
      <trkpt lat="49.62903" lon="-1.61828">
        <ele>3.6</ele>
        <time>2020-06-15T07:08:09Z</time>
      </trkpt>
      <trkpt lat="49.62899" lon="-1.61829">
        <ele>3.6</ele>
        <time>2020-06-15T07:08:10Z</time>
      </trkpt>
      <trkpt lat="49.62895" lon="-1.6183">
        <ele>3.7</ele>
        <time>2020-06-15T07:08:11Z</time>
      </trkpt>
      <trkpt lat="49.6289" lon="-1.6183">
        <ele>3.7</ele>
        <time>2020-06-15T07:08:12Z</time>
      </trkpt>
      <trkpt lat="49.62887" lon="-1.61831">
        <ele>3.8</ele>
        <time>2020-06-15T07:08:13Z</time>
      </trkpt>
      <trkpt lat="49.62883" lon="-1.61832">
        <ele>3.8</ele>
        <time>2020-06-15T07:08:14Z</time>
      </trkpt>
      <trkpt lat="49.62879" lon="-1.61832">
        <ele>3.8</ele>
        <time>2020-06-15T07:08:15Z</time>
      </trkpt>
      <trkpt lat="49.62875" lon="-1.61833">
        <ele>3.8</ele>
        <time>2020-06-15T07:08:16Z</time>
      </trkpt>
      <trkpt lat="49.6287" lon="-1.61833">
        <ele>3.9</ele>
        <time>2020-06-15T07:08:17Z</time>
      </trkpt>
      <trkpt lat="49.62866" lon="-1.61834">
        <ele>4</ele>
        <time>2020-06-15T07:08:18Z</time>
      </trkpt>
      <trkpt lat="49.62862" lon="-1.61834">
        <ele>4</ele>
        <time>2020-06-15T07:08:19Z</time>
      </trkpt>
      <trkpt lat="49.62858" lon="-1.61834">
        <ele>4.1</ele>
        <time>2020-06-15T07:08:20Z</time>
      </trkpt>
      <trkpt lat="49.62854" lon="-1.61835">
        <ele>4.2</ele>
        <time>2020-06-15T07:08:21Z</time>
      </trkpt>
      <trkpt lat="49.62853" lon="-1.61835">
        <ele>4.3</ele>
        <time>2020-06-15T07:08:22Z</time>
      </trkpt>
      <trkpt lat="49.6285" lon="-1.61834">
        <ele>4.3</ele>
        <time>2020-06-15T07:08:23Z</time>
      </trkpt>
      <trkpt lat="49.62846" lon="-1.61833">
        <ele>4.4</ele>
        <time>2020-06-15T07:08:24Z</time>
      </trkpt>
      <trkpt lat="49.62844" lon="-1.61833">
        <ele>4.5</ele>
        <time>2020-06-15T07:08:25Z</time>
      </trkpt>
      <trkpt lat="49.62839" lon="-1.61832">
        <ele>4.7</ele>
        <time>2020-06-15T07:08:26Z</time>
      </trkpt>
      <trkpt lat="49.62834" lon="-1.61831">
        <ele>4.9</ele>
        <time>2020-06-15T07:08:27Z</time>
      </trkpt>
      <trkpt lat="49.62829" lon="-1.6183">
        <ele>5.1</ele>
        <time>2020-06-15T07:08:28Z</time>
      </trkpt>
      <trkpt lat="49.62827" lon="-1.6183">
        <ele>5.2</ele>
        <time>2020-06-15T07:08:29Z</time>
      </trkpt>
      <trkpt lat="49.62822" lon="-1.6183">
        <ele>5.4</ele>
        <time>2020-06-15T07:08:30Z</time>
      </trkpt>
      <trkpt lat="49.62818" lon="-1.61828">
        <ele>5.5</ele>
        <time>2020-06-15T07:08:31Z</time>
      </trkpt>
      <trkpt lat="49.62815" lon="-1.61826">
        <ele>5.7</ele>
        <time>2020-06-15T07:08:32Z</time>
      </trkpt>
      <trkpt lat="49.62812" lon="-1.61824">
        <ele>5.8</ele>
        <time>2020-06-15T07:08:33Z</time>
      </trkpt>
      <trkpt lat="49.62807" lon="-1.61822">
        <ele>5.9</ele>
        <time>2020-06-15T07:08:34Z</time>
      </trkpt>
      <trkpt lat="49.62802" lon="-1.6182">
        <ele>6.1</ele>
        <time>2020-06-15T07:08:35Z</time>
      </trkpt>
      <trkpt lat="49.62798" lon="-1.61819">
        <ele>6.2</ele>
        <time>2020-06-15T07:08:36Z</time>
      </trkpt>
      <trkpt lat="49.62794" lon="-1.61818">
        <ele>6.3</ele>
        <time>2020-06-15T07:08:37Z</time>
      </trkpt>
      <trkpt lat="49.62793" lon="-1.61818">
        <ele>6.4</ele>
        <time>2020-06-15T07:08:38Z</time>
      </trkpt>
      <trkpt lat="49.6279" lon="-1.61816">
        <ele>6.5</ele>
        <time>2020-06-15T07:08:39Z</time>
      </trkpt>
      <trkpt lat="49.62789" lon="-1.61816">
        <ele>6.5</ele>
        <time>2020-06-15T07:08:40Z</time>
      </trkpt>
      <trkpt lat="49.62787" lon="-1.61811">
        <ele>6.6</ele>
        <time>2020-06-15T07:08:41Z</time>
      </trkpt>
      <trkpt lat="49.62784" lon="-1.61807">
        <ele>6.6</ele>
        <time>2020-06-15T07:08:42Z</time>
      </trkpt>
      <trkpt lat="49.62783" lon="-1.61805">
        <ele>6.6</ele>
        <time>2020-06-15T07:08:43Z</time>
      </trkpt>
      <trkpt lat="49.6278" lon="-1.61802">
        <ele>6.7</ele>
        <time>2020-06-15T07:08:44Z</time>
      </trkpt>
      <trkpt lat="49.62779" lon="-1.61801">
        <ele>6.7</ele>
        <time>2020-06-15T07:08:45Z</time>
      </trkpt>
      <trkpt lat="49.62776" lon="-1.61798">
        <ele>6.8</ele>
        <time>2020-06-15T07:08:46Z</time>
      </trkpt>
      <trkpt lat="49.62773" lon="-1.61795">
        <ele>6.8</ele>
        <time>2020-06-15T07:08:47Z</time>
      </trkpt>
      <trkpt lat="49.6277" lon="-1.61791">
        <ele>6.9</ele>
        <time>2020-06-15T07:08:48Z</time>
      </trkpt>
      <trkpt lat="49.62767" lon="-1.61789">
        <ele>7</ele>
        <time>2020-06-15T07:08:49Z</time>
      </trkpt>
      <trkpt lat="49.62765" lon="-1.61786">
        <ele>7</ele>
        <time>2020-06-15T07:08:50Z</time>
      </trkpt>
      <trkpt lat="49.62762" lon="-1.61783">
        <ele>7.1</ele>
        <time>2020-06-15T07:08:51Z</time>
      </trkpt>
      <trkpt lat="49.62761" lon="-1.61781">
        <ele>7.1</ele>
        <time>2020-06-15T07:08:52Z</time>
      </trkpt>
      <trkpt lat="49.62759" lon="-1.61778">
        <ele>7.2</ele>
        <time>2020-06-15T07:08:53Z</time>
      </trkpt>
      <trkpt lat="49.62754" lon="-1.61774">
        <ele>7.3</ele>
        <time>2020-06-15T07:08:54Z</time>
      </trkpt>
      <trkpt lat="49.62749" lon="-1.61772">
        <ele>7.4</ele>
        <time>2020-06-15T07:08:55Z</time>
      </trkpt>
      <trkpt lat="49.62744" lon="-1.61769">
        <ele>7.6</ele>
        <time>2020-06-15T07:08:56Z</time>
      </trkpt>
      <trkpt lat="49.6274" lon="-1.61767">
        <ele>7.7</ele>
        <time>2020-06-15T07:08:57Z</time>
      </trkpt>
      <trkpt lat="49.62736" lon="-1.61767">
        <ele>7.8</ele>
        <time>2020-06-15T07:08:58Z</time>
      </trkpt>
      <trkpt lat="49.62733" lon="-1.61768">
        <ele>8</ele>
        <time>2020-06-15T07:08:59Z</time>
      </trkpt>
      <trkpt lat="49.62732" lon="-1.61768">
        <ele>8</ele>
        <time>2020-06-15T07:09:00Z</time>
      </trkpt>
      <trkpt lat="49.62729" lon="-1.61767">
        <ele>8</ele>
        <time>2020-06-15T07:09:01Z</time>
      </trkpt>
      <trkpt lat="49.62725" lon="-1.61768">
        <ele>8.1</ele>
        <time>2020-06-15T07:09:02Z</time>
      </trkpt>
      <trkpt lat="49.62725" lon="-1.61769">
        <ele>8.1</ele>
        <time>2020-06-15T07:09:03Z</time>
      </trkpt>
      <trkpt lat="49.62723" lon="-1.61769">
        <ele>8.2</ele>
        <time>2020-06-15T07:09:04Z</time>
      </trkpt>
      <trkpt lat="49.62722" lon="-1.61768">
        <ele>8.2</ele>
        <time>2020-06-15T07:09:05Z</time>
      </trkpt>
      <trkpt lat="49.62721" lon="-1.61768">
        <ele>8.2</ele>
        <time>2020-06-15T07:09:06Z</time>
      </trkpt>
      <trkpt lat="49.6272" lon="-1.61768">
        <ele>8.2</ele>
        <time>2020-06-15T07:09:07Z</time>
      </trkpt>
      <trkpt lat="49.6272" lon="-1.61768">
        <ele>8.2</ele>
        <time>2020-06-15T07:09:08Z</time>
      </trkpt>
      <trkpt lat="49.62719" lon="-1.61768">
        <ele>8.2</ele>
        <time>2020-06-15T07:09:09Z</time>
      </trkpt>
      <trkpt lat="49.62719" lon="-1.61768">
        <ele>8.2</ele>
        <time>2020-06-15T07:09:10Z</time>
      </trkpt>
      <trkpt lat="49.62718" lon="-1.61768">
        <ele>8.3</ele>
        <time>2020-06-15T07:09:11Z</time>
      </trkpt>
      <trkpt lat="49.62719" lon="-1.61768">
        <ele>8.3</ele>
        <time>2020-06-15T07:09:12Z</time>
      </trkpt>
      <trkpt lat="49.6272" lon="-1.61768">
        <ele>8.3</ele>
        <time>2020-06-15T07:09:13Z</time>
      </trkpt>
      <trkpt lat="49.62721" lon="-1.61768">
        <ele>8.3</ele>
        <time>2020-06-15T07:09:14Z</time>
      </trkpt>
      <trkpt lat="49.62723" lon="-1.61768">
        <ele>8.3</ele>
        <time>2020-06-15T07:09:15Z</time>
      </trkpt>
      <trkpt lat="49.62724" lon="-1.61769">
        <ele>8.4</ele>
        <time>2020-06-15T07:09:16Z</time>
      </trkpt>
      <trkpt lat="49.62725" lon="-1.61769">
        <ele>8.3</ele>
        <time>2020-06-15T07:11:28Z</time>
      </trkpt>
      <trkpt lat="49.62726" lon="-1.61769">
        <ele>8.3</ele>
        <time>2020-06-15T07:11:29Z</time>
      </trkpt>
      <trkpt lat="49.62729" lon="-1.61769">
        <ele>8.1</ele>
        <time>2020-06-15T07:11:30Z</time>
      </trkpt>
      <trkpt lat="49.6273" lon="-1.61769">
        <ele>8.1</ele>
        <time>2020-06-15T07:11:31Z</time>
      </trkpt>
      <trkpt lat="49.62731" lon="-1.61769">
        <ele>8</ele>
        <time>2020-06-15T07:11:32Z</time>
      </trkpt>
      <trkpt lat="49.62732" lon="-1.61768">
        <ele>8</ele>
        <time>2020-06-15T07:11:33Z</time>
      </trkpt>
      <trkpt lat="49.62733" lon="-1.61767">
        <ele>7.9</ele>
        <time>2020-06-15T07:11:34Z</time>
      </trkpt>
      <trkpt lat="49.62734" lon="-1.61767">
        <ele>7.8</ele>
        <time>2020-06-15T07:11:35Z</time>
      </trkpt>
      <trkpt lat="49.62735" lon="-1.61767">
        <ele>7.7</ele>
        <time>2020-06-15T07:11:36Z</time>
      </trkpt>
      <trkpt lat="49.62736" lon="-1.61767">
        <ele>7.7</ele>
        <time>2020-06-15T07:11:37Z</time>
      </trkpt>
      <trkpt lat="49.62737" lon="-1.61765">
        <ele>7.7</ele>
        <time>2020-06-15T07:11:38Z</time>
      </trkpt>
      <trkpt lat="49.62737" lon="-1.61765">
        <ele>7.7</ele>
        <time>2020-06-15T07:11:39Z</time>
      </trkpt>
      <trkpt lat="49.62738" lon="-1.61765">
        <ele>7.7</ele>
        <time>2020-06-15T07:11:40Z</time>
      </trkpt>
      <trkpt lat="49.62739" lon="-1.61765">
        <ele>7.6</ele>
        <time>2020-06-15T07:11:41Z</time>
      </trkpt>
      <trkpt lat="49.6274" lon="-1.61766">
        <ele>7.6</ele>
        <time>2020-06-15T07:11:42Z</time>
      </trkpt>
      <trkpt lat="49.62742" lon="-1.61767">
        <ele>7.6</ele>
        <time>2020-06-15T07:11:43Z</time>
      </trkpt>
      <trkpt lat="49.62746" lon="-1.61769">
        <ele>7.5</ele>
        <time>2020-06-15T07:11:44Z</time>
      </trkpt>
      <trkpt lat="49.62748" lon="-1.61771">
        <ele>7.4</ele>
        <time>2020-06-15T07:11:45Z</time>
      </trkpt>
      <trkpt lat="49.62752" lon="-1.61772">
        <ele>7.3</ele>
        <time>2020-06-15T07:11:46Z</time>
      </trkpt>
      <trkpt lat="49.62756" lon="-1.61774">
        <ele>7.3</ele>
        <time>2020-06-15T07:11:47Z</time>
      </trkpt>
      <trkpt lat="49.62759" lon="-1.61775">
        <ele>7.2</ele>
        <time>2020-06-15T07:11:48Z</time>
      </trkpt>
      <trkpt lat="49.62762" lon="-1.61777">
        <ele>7.1</ele>
        <time>2020-06-15T07:11:49Z</time>
      </trkpt>
      <trkpt lat="49.62765" lon="-1.61779">
        <ele>7</ele>
        <time>2020-06-15T07:11:50Z</time>
      </trkpt>
      <trkpt lat="49.62768" lon="-1.61781">
        <ele>7</ele>
        <time>2020-06-15T07:11:51Z</time>
      </trkpt>
      <trkpt lat="49.62772" lon="-1.61783">
        <ele>6.9</ele>
        <time>2020-06-15T07:11:52Z</time>
      </trkpt>
      <trkpt lat="49.62775" lon="-1.61784">
        <ele>6.8</ele>
        <time>2020-06-15T07:11:53Z</time>
      </trkpt>
      <trkpt lat="49.6278" lon="-1.61785">
        <ele>6.8</ele>
        <time>2020-06-15T07:11:54Z</time>
      </trkpt>
      <trkpt lat="49.62783" lon="-1.61787">
        <ele>6.7</ele>
        <time>2020-06-15T07:11:55Z</time>
      </trkpt>
      <trkpt lat="49.62787" lon="-1.61788">
        <ele>6.5</ele>
        <time>2020-06-15T07:11:56Z</time>
      </trkpt>
      <trkpt lat="49.62791" lon="-1.6179">
        <ele>6.3</ele>
        <time>2020-06-15T07:11:57Z</time>
      </trkpt>
      <trkpt lat="49.62796" lon="-1.61791">
        <ele>6.1</ele>
        <time>2020-06-15T07:11:58Z</time>
      </trkpt>
      <trkpt lat="49.628" lon="-1.61793">
        <ele>6</ele>
        <time>2020-06-15T07:11:59Z</time>
      </trkpt>
      <trkpt lat="49.62804" lon="-1.61795">
        <ele>5.8</ele>
        <time>2020-06-15T07:12:00Z</time>
      </trkpt>
      <trkpt lat="49.62809" lon="-1.61798">
        <ele>5.6</ele>
        <time>2020-06-15T07:12:01Z</time>
      </trkpt>
      <trkpt lat="49.62813" lon="-1.61801">
        <ele>5.4</ele>
        <time>2020-06-15T07:12:02Z</time>
      </trkpt>
      <trkpt lat="49.62818" lon="-1.61804">
        <ele>5.2</ele>
        <time>2020-06-15T07:12:03Z</time>
      </trkpt>
      <trkpt lat="49.62824" lon="-1.61806">
        <ele>5</ele>
        <time>2020-06-15T07:12:04Z</time>
      </trkpt>
      <trkpt lat="49.62831" lon="-1.61808">
        <ele>4.8</ele>
        <time>2020-06-15T07:12:05Z</time>
      </trkpt>
      <trkpt lat="49.62837" lon="-1.6181">
        <ele>4.6</ele>
        <time>2020-06-15T07:12:06Z</time>
      </trkpt>
      <trkpt lat="49.62844" lon="-1.61812">
        <ele>4.4</ele>
        <time>2020-06-15T07:12:07Z</time>
      </trkpt>
      <trkpt lat="49.62851" lon="-1.61813">
        <ele>4.3</ele>
        <time>2020-06-15T07:12:08Z</time>
      </trkpt>
      <trkpt lat="49.62857" lon="-1.61814">
        <ele>4.1</ele>
        <time>2020-06-15T07:12:09Z</time>
      </trkpt>
      <trkpt lat="49.62864" lon="-1.61814">
        <ele>3.9</ele>
        <time>2020-06-15T07:12:10Z</time>
      </trkpt>
      <trkpt lat="49.62871" lon="-1.61814">
        <ele>3.8</ele>
        <time>2020-06-15T07:12:11Z</time>
      </trkpt>
      <trkpt lat="49.62878" lon="-1.61813">
        <ele>3.8</ele>
        <time>2020-06-15T07:12:12Z</time>
      </trkpt>
      <trkpt lat="49.62887" lon="-1.6181">
        <ele>3.7</ele>
        <time>2020-06-15T07:12:13Z</time>
      </trkpt>
      <trkpt lat="49.62893" lon="-1.61809">
        <ele>3.7</ele>
        <time>2020-06-15T07:12:14Z</time>
      </trkpt>
      <trkpt lat="49.629" lon="-1.61808">
        <ele>3.6</ele>
        <time>2020-06-15T07:12:15Z</time>
      </trkpt>
      <trkpt lat="49.62906" lon="-1.61807">
        <ele>3.6</ele>
        <time>2020-06-15T07:12:16Z</time>
      </trkpt>
      <trkpt lat="49.62912" lon="-1.61806">
        <ele>3.6</ele>
        <time>2020-06-15T07:12:17Z</time>
      </trkpt>
      <trkpt lat="49.6292" lon="-1.61805">
        <ele>3.6</ele>
        <time>2020-06-15T07:12:18Z</time>
      </trkpt>
      <trkpt lat="49.62927" lon="-1.61804">
        <ele>3.6</ele>
        <time>2020-06-15T07:12:19Z</time>
      </trkpt>
      <trkpt lat="49.62933" lon="-1.61803">
        <ele>3.6</ele>
        <time>2020-06-15T07:12:20Z</time>
      </trkpt>
      <trkpt lat="49.62939" lon="-1.61803">
        <ele>3.7</ele>
        <time>2020-06-15T07:12:21Z</time>
      </trkpt>
      <trkpt lat="49.62944" lon="-1.61802">
        <ele>3.7</ele>
        <time>2020-06-15T07:12:22Z</time>
      </trkpt>
      <trkpt lat="49.6295" lon="-1.61801">
        <ele>3.7</ele>
        <time>2020-06-15T07:12:23Z</time>
      </trkpt>
      <trkpt lat="49.62956" lon="-1.61799">
        <ele>3.7</ele>
        <time>2020-06-15T07:12:24Z</time>
      </trkpt>
      <trkpt lat="49.62963" lon="-1.61798">
        <ele>3.7</ele>
        <time>2020-06-15T07:12:25Z</time>
      </trkpt>
      <trkpt lat="49.62969" lon="-1.61796">
        <ele>3.7</ele>
        <time>2020-06-15T07:12:26Z</time>
      </trkpt>
      <trkpt lat="49.62976" lon="-1.61796">
        <ele>3.7</ele>
        <time>2020-06-15T07:12:27Z</time>
      </trkpt>
      <trkpt lat="49.62982" lon="-1.61795">
        <ele>3.7</ele>
        <time>2020-06-15T07:12:28Z</time>
      </trkpt>
      <trkpt lat="49.62989" lon="-1.61794">
        <ele>3.7</ele>
        <time>2020-06-15T07:12:29Z</time>
      </trkpt>
      <trkpt lat="49.62996" lon="-1.61793">
        <ele>3.7</ele>
        <time>2020-06-15T07:12:30Z</time>
      </trkpt>
      <trkpt lat="49.63003" lon="-1.61793">
        <ele>3.8</ele>
        <time>2020-06-15T07:12:31Z</time>
      </trkpt>
      <trkpt lat="49.63011" lon="-1.61791">
        <ele>3.8</ele>
        <time>2020-06-15T07:12:32Z</time>
      </trkpt>
      <trkpt lat="49.63017" lon="-1.6179">
        <ele>3.8</ele>
        <time>2020-06-15T07:12:33Z</time>
      </trkpt>
      <trkpt lat="49.63023" lon="-1.61788">
        <ele>3.8</ele>
        <time>2020-06-15T07:12:34Z</time>
      </trkpt>
      <trkpt lat="49.6303" lon="-1.61787">
        <ele>3.8</ele>
        <time>2020-06-15T07:12:35Z</time>
      </trkpt>
      <trkpt lat="49.63036" lon="-1.61785">
        <ele>3.8</ele>
        <time>2020-06-15T07:12:36Z</time>
      </trkpt>
      <trkpt lat="49.63042" lon="-1.61785">
        <ele>3.8</ele>
        <time>2020-06-15T07:12:37Z</time>
      </trkpt>
      <trkpt lat="49.63047" lon="-1.61784">
        <ele>3.8</ele>
        <time>2020-06-15T07:12:38Z</time>
      </trkpt>
      <trkpt lat="49.63052" lon="-1.61783">
        <ele>3.9</ele>
        <time>2020-06-15T07:12:39Z</time>
      </trkpt>
      <trkpt lat="49.63056" lon="-1.61781">
        <ele>3.9</ele>
        <time>2020-06-15T07:12:40Z</time>
      </trkpt>
      <trkpt lat="49.63063" lon="-1.61781">
        <ele>3.9</ele>
        <time>2020-06-15T07:12:41Z</time>
      </trkpt>
      <trkpt lat="49.63068" lon="-1.6178">
        <ele>3.9</ele>
        <time>2020-06-15T07:12:42Z</time>
      </trkpt>
      <trkpt lat="49.63073" lon="-1.61779">
        <ele>3.9</ele>
        <time>2020-06-15T07:12:43Z</time>
      </trkpt>
      <trkpt lat="49.63078" lon="-1.61777">
        <ele>3.9</ele>
        <time>2020-06-15T07:12:44Z</time>
      </trkpt>
      <trkpt lat="49.63084" lon="-1.61775">
        <ele>4</ele>
        <time>2020-06-15T07:12:45Z</time>
      </trkpt>
      <trkpt lat="49.6309" lon="-1.61774">
        <ele>4</ele>
        <time>2020-06-15T07:12:46Z</time>
      </trkpt>
      <trkpt lat="49.63095" lon="-1.61775">
        <ele>4.1</ele>
        <time>2020-06-15T07:12:47Z</time>
      </trkpt>
      <trkpt lat="49.63101" lon="-1.61775">
        <ele>4.1</ele>
        <time>2020-06-15T07:12:48Z</time>
      </trkpt>
      <trkpt lat="49.63105" lon="-1.61774">
        <ele>4.1</ele>
        <time>2020-06-15T07:12:49Z</time>
      </trkpt>
      <trkpt lat="49.6311" lon="-1.61772">
        <ele>4.1</ele>
        <time>2020-06-15T07:12:50Z</time>
      </trkpt>
      <trkpt lat="49.63115" lon="-1.61772">
        <ele>4.1</ele>
        <time>2020-06-15T07:12:51Z</time>
      </trkpt>
      <trkpt lat="49.63119" lon="-1.61771">
        <ele>4.1</ele>
        <time>2020-06-15T07:12:52Z</time>
      </trkpt>
      <trkpt lat="49.63124" lon="-1.61771">
        <ele>4.2</ele>
        <time>2020-06-15T07:12:53Z</time>
      </trkpt>
      <trkpt lat="49.63128" lon="-1.61771">
        <ele>4.2</ele>
        <time>2020-06-15T07:12:54Z</time>
      </trkpt>
      <trkpt lat="49.63132" lon="-1.61769">
        <ele>4.2</ele>
        <time>2020-06-15T07:12:55Z</time>
      </trkpt>
      <trkpt lat="49.63136" lon="-1.61768">
        <ele>4.2</ele>
        <time>2020-06-15T07:12:56Z</time>
      </trkpt>
      <trkpt lat="49.6314" lon="-1.61768">
        <ele>4.3</ele>
        <time>2020-06-15T07:12:57Z</time>
      </trkpt>
      <trkpt lat="49.63144" lon="-1.61767">
        <ele>4.3</ele>
        <time>2020-06-15T07:12:58Z</time>
      </trkpt>
      <trkpt lat="49.63148" lon="-1.61766">
        <ele>4.3</ele>
        <time>2020-06-15T07:12:59Z</time>
      </trkpt>
      <trkpt lat="49.63151" lon="-1.61766">
        <ele>4.3</ele>
        <time>2020-06-15T07:13:00Z</time>
      </trkpt>
      <trkpt lat="49.63155" lon="-1.61765">
        <ele>4.4</ele>
        <time>2020-06-15T07:13:01Z</time>
      </trkpt>
      <trkpt lat="49.63158" lon="-1.61764">
        <ele>4.4</ele>
        <time>2020-06-15T07:13:02Z</time>
      </trkpt>
      <trkpt lat="49.6316" lon="-1.61762">
        <ele>4.5</ele>
        <time>2020-06-15T07:13:03Z</time>
      </trkpt>
      <trkpt lat="49.63163" lon="-1.6176">
        <ele>4.6</ele>
        <time>2020-06-15T07:13:04Z</time>
      </trkpt>
      <trkpt lat="49.63165" lon="-1.61754">
        <ele>4.8</ele>
        <time>2020-06-15T07:13:05Z</time>
      </trkpt>
      <trkpt lat="49.63166" lon="-1.61745">
        <ele>4.9</ele>
        <time>2020-06-15T07:13:06Z</time>
      </trkpt>
      <trkpt lat="49.63166" lon="-1.61739">
        <ele>5</ele>
        <time>2020-06-15T07:13:07Z</time>
      </trkpt>
      <trkpt lat="49.63166" lon="-1.61732">
        <ele>5</ele>
        <time>2020-06-15T07:13:08Z</time>
      </trkpt>
      <trkpt lat="49.63166" lon="-1.61727">
        <ele>5.1</ele>
        <time>2020-06-15T07:13:09Z</time>
      </trkpt>
      <trkpt lat="49.63166" lon="-1.61721">
        <ele>5.2</ele>
        <time>2020-06-15T07:13:10Z</time>
      </trkpt>
      <trkpt lat="49.63165" lon="-1.61715">
        <ele>5.2</ele>
        <time>2020-06-15T07:13:11Z</time>
      </trkpt>
      <trkpt lat="49.63165" lon="-1.61707">
        <ele>5.3</ele>
        <time>2020-06-15T07:13:12Z</time>
      </trkpt>
      <trkpt lat="49.63164" lon="-1.61702">
        <ele>5.4</ele>
        <time>2020-06-15T07:13:13Z</time>
      </trkpt>
      <trkpt lat="49.63163" lon="-1.61695">
        <ele>5.5</ele>
        <time>2020-06-15T07:13:14Z</time>
      </trkpt>
      <trkpt lat="49.63162" lon="-1.61688">
        <ele>5.6</ele>
        <time>2020-06-15T07:13:15Z</time>
      </trkpt>
      <trkpt lat="49.63161" lon="-1.61682">
        <ele>5.7</ele>
        <time>2020-06-15T07:13:16Z</time>
      </trkpt>
      <trkpt lat="49.63161" lon="-1.61676">
        <ele>6</ele>
        <time>2020-06-15T07:13:17Z</time>
      </trkpt>
      <trkpt lat="49.63161" lon="-1.61669">
        <ele>6.2</ele>
        <time>2020-06-15T07:13:18Z</time>
      </trkpt>
      <trkpt lat="49.63161" lon="-1.61664">
        <ele>6.4</ele>
        <time>2020-06-15T07:13:19Z</time>
      </trkpt>
      <trkpt lat="49.63162" lon="-1.61657">
        <ele>6.8</ele>
        <time>2020-06-15T07:13:20Z</time>
      </trkpt>
      <trkpt lat="49.63161" lon="-1.61651">
        <ele>6.9</ele>
        <time>2020-06-15T07:13:21Z</time>
      </trkpt>
      <trkpt lat="49.63161" lon="-1.61646">
        <ele>6.9</ele>
        <time>2020-06-15T07:13:22Z</time>
      </trkpt>
      <trkpt lat="49.6316" lon="-1.6164">
        <ele>7.1</ele>
        <time>2020-06-15T07:13:23Z</time>
      </trkpt>
      <trkpt lat="49.6316" lon="-1.61638">
        <ele>7.2</ele>
        <time>2020-06-15T07:13:24Z</time>
      </trkpt>
      <trkpt lat="49.6316" lon="-1.61634">
        <ele>7.4</ele>
        <time>2020-06-15T07:13:25Z</time>
      </trkpt>
      <trkpt lat="49.63161" lon="-1.6163">
        <ele>7.6</ele>
        <time>2020-06-15T07:13:26Z</time>
      </trkpt>
      <trkpt lat="49.63161" lon="-1.61624">
        <ele>7.9</ele>
        <time>2020-06-15T07:13:27Z</time>
      </trkpt>
      <trkpt lat="49.63161" lon="-1.61621">
        <ele>8</ele>
        <time>2020-06-15T07:13:28Z</time>
      </trkpt>
      <trkpt lat="49.63161" lon="-1.61616">
        <ele>8.3</ele>
        <time>2020-06-15T07:13:29Z</time>
      </trkpt>
      <trkpt lat="49.63161" lon="-1.6161">
        <ele>8.6</ele>
        <time>2020-06-15T07:13:30Z</time>
      </trkpt>
      <trkpt lat="49.6316" lon="-1.61604">
        <ele>8.9</ele>
        <time>2020-06-15T07:13:31Z</time>
      </trkpt>
      <trkpt lat="49.63159" lon="-1.61601">
        <ele>9</ele>
        <time>2020-06-15T07:13:32Z</time>
      </trkpt>
      <trkpt lat="49.63158" lon="-1.61595">
        <ele>9.3</ele>
        <time>2020-06-15T07:13:33Z</time>
      </trkpt>
      <trkpt lat="49.63157" lon="-1.61591">
        <ele>9.5</ele>
        <time>2020-06-15T07:13:34Z</time>
      </trkpt>
      <trkpt lat="49.63156" lon="-1.61586">
        <ele>9.8</ele>
        <time>2020-06-15T07:13:35Z</time>
      </trkpt>
      <trkpt lat="49.63156" lon="-1.61579">
        <ele>10.2</ele>
        <time>2020-06-15T07:13:36Z</time>
      </trkpt>
      <trkpt lat="49.63156" lon="-1.61576">
        <ele>10.3</ele>
        <time>2020-06-15T07:13:37Z</time>
      </trkpt>
      <trkpt lat="49.63155" lon="-1.61572">
        <ele>10.5</ele>
        <time>2020-06-15T07:13:38Z</time>
      </trkpt>
      <trkpt lat="49.63155" lon="-1.6157">
        <ele>10.5</ele>
        <time>2020-06-15T07:13:39Z</time>
      </trkpt>
      <trkpt lat="49.63154" lon="-1.61567">
        <ele>10.7</ele>
        <time>2020-06-15T07:13:40Z</time>
      </trkpt>
      <trkpt lat="49.63154" lon="-1.61562">
        <ele>11</ele>
        <time>2020-06-15T07:13:41Z</time>
      </trkpt>
      <trkpt lat="49.63154" lon="-1.61557">
        <ele>11</ele>
        <time>2020-06-15T07:13:42Z</time>
      </trkpt>
      <trkpt lat="49.63156" lon="-1.61553">
        <ele>11.1</ele>
        <time>2020-06-15T07:13:43Z</time>
      </trkpt>
      <trkpt lat="49.63158" lon="-1.61549">
        <ele>11.2</ele>
        <time>2020-06-15T07:13:44Z</time>
      </trkpt>
      <trkpt lat="49.63161" lon="-1.61545">
        <ele>11.2</ele>
        <time>2020-06-15T07:13:45Z</time>
      </trkpt>
      <trkpt lat="49.63165" lon="-1.61541">
        <ele>11.3</ele>
        <time>2020-06-15T07:13:46Z</time>
      </trkpt>
      <trkpt lat="49.63166" lon="-1.61537">
        <ele>11.4</ele>
        <time>2020-06-15T07:13:47Z</time>
      </trkpt>
      <trkpt lat="49.63168" lon="-1.61534">
        <ele>11.4</ele>
        <time>2020-06-15T07:13:48Z</time>
      </trkpt>
      <trkpt lat="49.63169" lon="-1.61529">
        <ele>11.5</ele>
        <time>2020-06-15T07:13:49Z</time>
      </trkpt>
      <trkpt lat="49.6317" lon="-1.61528">
        <ele>11.5</ele>
        <time>2020-06-15T07:13:50Z</time>
      </trkpt>
      <trkpt lat="49.63172" lon="-1.61524">
        <ele>11.5</ele>
        <time>2020-06-15T07:13:51Z</time>
      </trkpt>
      <trkpt lat="49.63174" lon="-1.6152">
        <ele>11.5</ele>
        <time>2020-06-15T07:13:52Z</time>
      </trkpt>
      <trkpt lat="49.63175" lon="-1.61515">
        <ele>11.6</ele>
        <time>2020-06-15T07:13:53Z</time>
      </trkpt>
      <trkpt lat="49.63176" lon="-1.6151">
        <ele>11.6</ele>
        <time>2020-06-15T07:13:54Z</time>
      </trkpt>
      <trkpt lat="49.63178" lon="-1.61505">
        <ele>11.6</ele>
        <time>2020-06-15T07:13:55Z</time>
      </trkpt>
      <trkpt lat="49.63179" lon="-1.61498">
        <ele>11.6</ele>
        <time>2020-06-15T07:13:56Z</time>
      </trkpt>
      <trkpt lat="49.6318" lon="-1.61492">
        <ele>11.6</ele>
        <time>2020-06-15T07:13:57Z</time>
      </trkpt>
      <trkpt lat="49.63182" lon="-1.61487">
        <ele>11.7</ele>
        <time>2020-06-15T07:13:58Z</time>
      </trkpt>
      <trkpt lat="49.63184" lon="-1.61483">
        <ele>11.7</ele>
        <time>2020-06-15T07:13:59Z</time>
      </trkpt>
      <trkpt lat="49.63186" lon="-1.6148">
        <ele>11.7</ele>
        <time>2020-06-15T07:14:00Z</time>
      </trkpt>
      <trkpt lat="49.63187" lon="-1.61476">
        <ele>11.7</ele>
        <time>2020-06-15T07:14:01Z</time>
      </trkpt>
      <trkpt lat="49.63188" lon="-1.61472">
        <ele>11.8</ele>
        <time>2020-06-15T07:14:02Z</time>
      </trkpt>
      <trkpt lat="49.63189" lon="-1.61468">
        <ele>11.8</ele>
        <time>2020-06-15T07:14:03Z</time>
      </trkpt>
      <trkpt lat="49.63191" lon="-1.61461">
        <ele>11.8</ele>
        <time>2020-06-15T07:14:04Z</time>
      </trkpt>
      <trkpt lat="49.63192" lon="-1.61458">
        <ele>11.8</ele>
        <time>2020-06-15T07:14:05Z</time>
      </trkpt>
      <trkpt lat="49.63193" lon="-1.61453">
        <ele>11.8</ele>
        <time>2020-06-15T07:14:06Z</time>
      </trkpt>
      <trkpt lat="49.63194" lon="-1.61447">
        <ele>11.8</ele>
        <time>2020-06-15T07:14:07Z</time>
      </trkpt>
      <trkpt lat="49.63195" lon="-1.61441">
        <ele>11.8</ele>
        <time>2020-06-15T07:14:08Z</time>
      </trkpt>
      <trkpt lat="49.63195" lon="-1.61434">
        <ele>11.8</ele>
        <time>2020-06-15T07:14:09Z</time>
      </trkpt>
      <trkpt lat="49.63198" lon="-1.61428">
        <ele>11.8</ele>
        <time>2020-06-15T07:14:10Z</time>
      </trkpt>
      <trkpt lat="49.632" lon="-1.61422">
        <ele>11.8</ele>
        <time>2020-06-15T07:14:11Z</time>
      </trkpt>
      <trkpt lat="49.63202" lon="-1.61415">
        <ele>11.8</ele>
        <time>2020-06-15T07:14:12Z</time>
      </trkpt>
      <trkpt lat="49.63204" lon="-1.61408">
        <ele>11.8</ele>
        <time>2020-06-15T07:14:13Z</time>
      </trkpt>
      <trkpt lat="49.63206" lon="-1.61402">
        <ele>11.8</ele>
        <time>2020-06-15T07:14:14Z</time>
      </trkpt>
      <trkpt lat="49.63208" lon="-1.61398">
        <ele>11.8</ele>
        <time>2020-06-15T07:14:15Z</time>
      </trkpt>
      <trkpt lat="49.63209" lon="-1.61398">
        <ele>11.8</ele>
        <time>2020-06-15T07:14:16Z</time>
      </trkpt>
      <trkpt lat="49.6321" lon="-1.61397">
        <ele>11.8</ele>
        <time>2020-06-15T07:14:17Z</time>
      </trkpt>
      <trkpt lat="49.6321" lon="-1.61395">
        <ele>11.8</ele>
        <time>2020-06-15T07:14:18Z</time>
      </trkpt>
      <trkpt lat="49.6321" lon="-1.61395">
        <ele>11.8</ele>
        <time>2020-06-15T07:14:19Z</time>
      </trkpt>
      <trkpt lat="49.63211" lon="-1.61395">
        <ele>11.8</ele>
        <time>2020-06-15T07:14:20Z</time>
      </trkpt>
      <trkpt lat="49.63211" lon="-1.61395">
        <ele>11.8</ele>
        <time>2020-06-15T07:14:21Z</time>
      </trkpt>
      <trkpt lat="49.63212" lon="-1.61394">
        <ele>11.8</ele>
        <time>2020-06-15T07:14:22Z</time>
      </trkpt>
      <trkpt lat="49.63212" lon="-1.61394">
        <ele>11.8</ele>
        <time>2020-06-15T07:14:23Z</time>
      </trkpt>
      <trkpt lat="49.63213" lon="-1.61395">
        <ele>11.8</ele>
        <time>2020-06-15T07:14:24Z</time>
      </trkpt>
      <trkpt lat="49.63213" lon="-1.61395">
        <ele>11.8</ele>
        <time>2020-06-15T07:14:25Z</time>
      </trkpt>
      <trkpt lat="49.63213" lon="-1.61395">
        <ele>11.8</ele>
        <time>2020-06-15T07:14:26Z</time>
      </trkpt>
      <trkpt lat="49.63213" lon="-1.61393">
        <ele>11.8</ele>
        <time>2020-06-15T07:14:27Z</time>
      </trkpt>
      <trkpt lat="49.63214" lon="-1.61386">
        <ele>11.8</ele>
        <time>2020-06-15T07:14:29Z</time>
      </trkpt>
      <trkpt lat="49.63214" lon="-1.61381">
        <ele>11.8</ele>
        <time>2020-06-15T07:14:30Z</time>
      </trkpt>
      <trkpt lat="49.63215" lon="-1.61378">
        <ele>11.8</ele>
        <time>2020-06-15T07:14:31Z</time>
      </trkpt>
      <trkpt lat="49.63216" lon="-1.61373">
        <ele>11.8</ele>
        <time>2020-06-15T07:14:32Z</time>
      </trkpt>
      <trkpt lat="49.63218" lon="-1.61369">
        <ele>11.8</ele>
        <time>2020-06-15T07:14:33Z</time>
      </trkpt>
      <trkpt lat="49.6322" lon="-1.61363">
        <ele>11.8</ele>
        <time>2020-06-15T07:14:34Z</time>
      </trkpt>
      <trkpt lat="49.63221" lon="-1.61356">
        <ele>11.7</ele>
        <time>2020-06-15T07:14:35Z</time>
      </trkpt>
      <trkpt lat="49.63221" lon="-1.61351">
        <ele>11.7</ele>
        <time>2020-06-15T07:14:36Z</time>
      </trkpt>
      <trkpt lat="49.63221" lon="-1.61345">
        <ele>11.7</ele>
        <time>2020-06-15T07:14:37Z</time>
      </trkpt>
      <trkpt lat="49.63224" lon="-1.61335">
        <ele>11.8</ele>
        <time>2020-06-15T07:14:38Z</time>
      </trkpt>
      <trkpt lat="49.63226" lon="-1.61326">
        <ele>11.8</ele>
        <time>2020-06-15T07:14:39Z</time>
      </trkpt>
      <trkpt lat="49.63227" lon="-1.61318">
        <ele>11.8</ele>
        <time>2020-06-15T07:14:40Z</time>
      </trkpt>
      <trkpt lat="49.63227" lon="-1.6131">
        <ele>11.8</ele>
        <time>2020-06-15T07:14:41Z</time>
      </trkpt>
      <trkpt lat="49.63229" lon="-1.61303">
        <ele>11.8</ele>
        <time>2020-06-15T07:14:42Z</time>
      </trkpt>
      <trkpt lat="49.6323" lon="-1.61296">
        <ele>11.8</ele>
        <time>2020-06-15T07:14:43Z</time>
      </trkpt>
      <trkpt lat="49.6323" lon="-1.61288">
        <ele>11.8</ele>
        <time>2020-06-15T07:14:44Z</time>
      </trkpt>
      <trkpt lat="49.63232" lon="-1.6128">
        <ele>11.8</ele>
        <time>2020-06-15T07:14:45Z</time>
      </trkpt>
      <trkpt lat="49.63233" lon="-1.61274">
        <ele>11.9</ele>
        <time>2020-06-15T07:14:46Z</time>
      </trkpt>
      <trkpt lat="49.63233" lon="-1.61267">
        <ele>11.9</ele>
        <time>2020-06-15T07:14:47Z</time>
      </trkpt>
      <trkpt lat="49.63234" lon="-1.6126">
        <ele>11.9</ele>
        <time>2020-06-15T07:14:48Z</time>
      </trkpt>
      <trkpt lat="49.63235" lon="-1.61251">
        <ele>12</ele>
        <time>2020-06-15T07:14:49Z</time>
      </trkpt>
      <trkpt lat="49.63236" lon="-1.61243">
        <ele>12</ele>
        <time>2020-06-15T07:14:50Z</time>
      </trkpt>
      <trkpt lat="49.63238" lon="-1.61237">
        <ele>12.1</ele>
        <time>2020-06-15T07:14:51Z</time>
      </trkpt>
      <trkpt lat="49.6324" lon="-1.61231">
        <ele>12.1</ele>
        <time>2020-06-15T07:14:52Z</time>
      </trkpt>
      <trkpt lat="49.63241" lon="-1.61226">
        <ele>12.2</ele>
        <time>2020-06-15T07:14:53Z</time>
      </trkpt>
      <trkpt lat="49.63242" lon="-1.61223">
        <ele>12.2</ele>
        <time>2020-06-15T07:14:54Z</time>
      </trkpt>
      <trkpt lat="49.63244" lon="-1.61219">
        <ele>12.2</ele>
        <time>2020-06-15T07:14:55Z</time>
      </trkpt>
      <trkpt lat="49.63244" lon="-1.61214">
        <ele>12.2</ele>
        <time>2020-06-15T07:14:56Z</time>
      </trkpt>
      <trkpt lat="49.63245" lon="-1.6121">
        <ele>12.3</ele>
        <time>2020-06-15T07:14:57Z</time>
      </trkpt>
      <trkpt lat="49.63244" lon="-1.61205">
        <ele>12.3</ele>
        <time>2020-06-15T07:14:58Z</time>
      </trkpt>
      <trkpt lat="49.63245" lon="-1.612">
        <ele>12.3</ele>
        <time>2020-06-15T07:14:59Z</time>
      </trkpt>
      <trkpt lat="49.63245" lon="-1.61194">
        <ele>12.3</ele>
        <time>2020-06-15T07:15:00Z</time>
      </trkpt>
      <trkpt lat="49.63246" lon="-1.61188">
        <ele>12.3</ele>
        <time>2020-06-15T07:15:01Z</time>
      </trkpt>
      <trkpt lat="49.63247" lon="-1.61178">
        <ele>12.2</ele>
        <time>2020-06-15T07:15:02Z</time>
      </trkpt>
      <trkpt lat="49.63248" lon="-1.61169">
        <ele>12.1</ele>
        <time>2020-06-15T07:15:03Z</time>
      </trkpt>
      <trkpt lat="49.63249" lon="-1.61159">
        <ele>12</ele>
        <time>2020-06-15T07:15:04Z</time>
      </trkpt>
      <trkpt lat="49.63251" lon="-1.6115">
        <ele>11.9</ele>
        <time>2020-06-15T07:15:05Z</time>
      </trkpt>
      <trkpt lat="49.63253" lon="-1.61141">
        <ele>11.8</ele>
        <time>2020-06-15T07:15:06Z</time>
      </trkpt>
      <trkpt lat="49.63255" lon="-1.61131">
        <ele>11.6</ele>
        <time>2020-06-15T07:15:07Z</time>
      </trkpt>
      <trkpt lat="49.63257" lon="-1.61121">
        <ele>11.5</ele>
        <time>2020-06-15T07:15:08Z</time>
      </trkpt>
      <trkpt lat="49.63259" lon="-1.61112">
        <ele>11.5</ele>
        <time>2020-06-15T07:15:09Z</time>
      </trkpt>
      <trkpt lat="49.63261" lon="-1.61102">
        <ele>11.3</ele>
        <time>2020-06-15T07:15:10Z</time>
      </trkpt>
      <trkpt lat="49.63262" lon="-1.61094">
        <ele>11.2</ele>
        <time>2020-06-15T07:15:11Z</time>
      </trkpt>
      <trkpt lat="49.63264" lon="-1.61083">
        <ele>11.1</ele>
        <time>2020-06-15T07:15:12Z</time>
      </trkpt>
      <trkpt lat="49.63261" lon="-1.61075">
        <ele>11</ele>
        <time>2020-06-15T07:15:13Z</time>
      </trkpt>
      <trkpt lat="49.6326" lon="-1.61068">
        <ele>11</ele>
        <time>2020-06-15T07:15:14Z</time>
      </trkpt>
      <trkpt lat="49.63261" lon="-1.6106">
        <ele>11</ele>
        <time>2020-06-15T07:15:15Z</time>
      </trkpt>
      <trkpt lat="49.63262" lon="-1.61052">
        <ele>10.9</ele>
        <time>2020-06-15T07:15:16Z</time>
      </trkpt>
      <trkpt lat="49.63264" lon="-1.61046">
        <ele>10.9</ele>
        <time>2020-06-15T07:15:17Z</time>
      </trkpt>
      <trkpt lat="49.63266" lon="-1.61036">
        <ele>10.8</ele>
        <time>2020-06-15T07:15:18Z</time>
      </trkpt>
      <trkpt lat="49.63268" lon="-1.61027">
        <ele>10.8</ele>
        <time>2020-06-15T07:15:19Z</time>
      </trkpt>
      <trkpt lat="49.6327" lon="-1.61015">
        <ele>10.7</ele>
        <time>2020-06-15T07:15:20Z</time>
      </trkpt>
      <trkpt lat="49.63272" lon="-1.61003">
        <ele>10.6</ele>
        <time>2020-06-15T07:15:21Z</time>
      </trkpt>
      <trkpt lat="49.63275" lon="-1.60992">
        <ele>10.4</ele>
        <time>2020-06-15T07:15:22Z</time>
      </trkpt>
      <trkpt lat="49.63278" lon="-1.60982">
        <ele>10.3</ele>
        <time>2020-06-15T07:15:23Z</time>
      </trkpt>
      <trkpt lat="49.63281" lon="-1.6097">
        <ele>10.2</ele>
        <time>2020-06-15T07:15:24Z</time>
      </trkpt>
      <trkpt lat="49.63282" lon="-1.60958">
        <ele>10.1</ele>
        <time>2020-06-15T07:15:25Z</time>
      </trkpt>
      <trkpt lat="49.63284" lon="-1.60947">
        <ele>10</ele>
        <time>2020-06-15T07:15:26Z</time>
      </trkpt>
      <trkpt lat="49.63285" lon="-1.60938">
        <ele>9.9</ele>
        <time>2020-06-15T07:15:27Z</time>
      </trkpt>
      <trkpt lat="49.63287" lon="-1.60929">
        <ele>9.8</ele>
        <time>2020-06-15T07:15:28Z</time>
      </trkpt>
      <trkpt lat="49.6329" lon="-1.6092">
        <ele>9.8</ele>
        <time>2020-06-15T07:15:29Z</time>
      </trkpt>
      <trkpt lat="49.63294" lon="-1.6091">
        <ele>9.7</ele>
        <time>2020-06-15T07:15:30Z</time>
      </trkpt>
      <trkpt lat="49.63297" lon="-1.609">
        <ele>9.6</ele>
        <time>2020-06-15T07:15:31Z</time>
      </trkpt>
      <trkpt lat="49.63299" lon="-1.60892">
        <ele>9.6</ele>
        <time>2020-06-15T07:15:32Z</time>
      </trkpt>
      <trkpt lat="49.63301" lon="-1.60883">
        <ele>9.5</ele>
        <time>2020-06-15T07:15:33Z</time>
      </trkpt>
      <trkpt lat="49.63303" lon="-1.60874">
        <ele>9.3</ele>
        <time>2020-06-15T07:15:34Z</time>
      </trkpt>
      <trkpt lat="49.63304" lon="-1.60865">
        <ele>9.1</ele>
        <time>2020-06-15T07:15:35Z</time>
      </trkpt>
      <trkpt lat="49.63306" lon="-1.60856">
        <ele>9.1</ele>
        <time>2020-06-15T07:15:36Z</time>
      </trkpt>
      <trkpt lat="49.63308" lon="-1.60845">
        <ele>9.1</ele>
        <time>2020-06-15T07:15:37Z</time>
      </trkpt>
      <trkpt lat="49.6331" lon="-1.60835">
        <ele>9</ele>
        <time>2020-06-15T07:15:38Z</time>
      </trkpt>
      <trkpt lat="49.63312" lon="-1.60826">
        <ele>9</ele>
        <time>2020-06-15T07:15:39Z</time>
      </trkpt>
      <trkpt lat="49.63313" lon="-1.60816">
        <ele>8.9</ele>
        <time>2020-06-15T07:15:40Z</time>
      </trkpt>
      <trkpt lat="49.63316" lon="-1.60808">
        <ele>8.8</ele>
        <time>2020-06-15T07:15:41Z</time>
      </trkpt>
      <trkpt lat="49.63319" lon="-1.60799">
        <ele>8.8</ele>
        <time>2020-06-15T07:15:42Z</time>
      </trkpt>
      <trkpt lat="49.63321" lon="-1.60791">
        <ele>8.7</ele>
        <time>2020-06-15T07:15:43Z</time>
      </trkpt>
      <trkpt lat="49.63322" lon="-1.60785">
        <ele>8.7</ele>
        <time>2020-06-15T07:15:44Z</time>
      </trkpt>
      <trkpt lat="49.63324" lon="-1.60776">
        <ele>8.7</ele>
        <time>2020-06-15T07:15:45Z</time>
      </trkpt>
      <trkpt lat="49.63325" lon="-1.60768">
        <ele>8.7</ele>
        <time>2020-06-15T07:15:46Z</time>
      </trkpt>
      <trkpt lat="49.63327" lon="-1.60761">
        <ele>8.7</ele>
        <time>2020-06-15T07:15:47Z</time>
      </trkpt>
      <trkpt lat="49.63327" lon="-1.60754">
        <ele>8.7</ele>
        <time>2020-06-15T07:15:48Z</time>
      </trkpt>
      <trkpt lat="49.63329" lon="-1.60748">
        <ele>8.7</ele>
        <time>2020-06-15T07:15:49Z</time>
      </trkpt>
      <trkpt lat="49.63331" lon="-1.60741">
        <ele>8.8</ele>
        <time>2020-06-15T07:15:50Z</time>
      </trkpt>
      <trkpt lat="49.63333" lon="-1.60735">
        <ele>8.8</ele>
        <time>2020-06-15T07:15:51Z</time>
      </trkpt>
      <trkpt lat="49.63334" lon="-1.60727">
        <ele>8.8</ele>
        <time>2020-06-15T07:15:52Z</time>
      </trkpt>
      <trkpt lat="49.63335" lon="-1.60718">
        <ele>8.8</ele>
        <time>2020-06-15T07:15:53Z</time>
      </trkpt>
      <trkpt lat="49.63335" lon="-1.60708">
        <ele>8.8</ele>
        <time>2020-06-15T07:15:54Z</time>
      </trkpt>
      <trkpt lat="49.63335" lon="-1.60699">
        <ele>8.7</ele>
        <time>2020-06-15T07:15:55Z</time>
      </trkpt>
      <trkpt lat="49.63336" lon="-1.60693">
        <ele>8.7</ele>
        <time>2020-06-15T07:15:56Z</time>
      </trkpt>
      <trkpt lat="49.63337" lon="-1.60686">
        <ele>8.6</ele>
        <time>2020-06-15T07:15:57Z</time>
      </trkpt>
      <trkpt lat="49.63337" lon="-1.60681">
        <ele>8.5</ele>
        <time>2020-06-15T07:15:58Z</time>
      </trkpt>
      <trkpt lat="49.63339" lon="-1.60674">
        <ele>8.4</ele>
        <time>2020-06-15T07:15:59Z</time>
      </trkpt>
      <trkpt lat="49.63341" lon="-1.60668">
        <ele>8.3</ele>
        <time>2020-06-15T07:16:00Z</time>
      </trkpt>
      <trkpt lat="49.63342" lon="-1.60662">
        <ele>8.2</ele>
        <time>2020-06-15T07:16:01Z</time>
      </trkpt>
      <trkpt lat="49.63344" lon="-1.60655">
        <ele>8.1</ele>
        <time>2020-06-15T07:16:02Z</time>
      </trkpt>
      <trkpt lat="49.63347" lon="-1.60648">
        <ele>8</ele>
        <time>2020-06-15T07:16:03Z</time>
      </trkpt>
      <trkpt lat="49.63349" lon="-1.60642">
        <ele>7.9</ele>
        <time>2020-06-15T07:16:04Z</time>
      </trkpt>
      <trkpt lat="49.63351" lon="-1.60636">
        <ele>7.9</ele>
        <time>2020-06-15T07:16:05Z</time>
      </trkpt>
      <trkpt lat="49.63354" lon="-1.6063">
        <ele>7.9</ele>
        <time>2020-06-15T07:16:06Z</time>
      </trkpt>
      <trkpt lat="49.63357" lon="-1.60622">
        <ele>7.8</ele>
        <time>2020-06-15T07:16:07Z</time>
      </trkpt>
      <trkpt lat="49.63361" lon="-1.60615">
        <ele>7.8</ele>
        <time>2020-06-15T07:16:08Z</time>
      </trkpt>
      <trkpt lat="49.63364" lon="-1.60603">
        <ele>7.7</ele>
        <time>2020-06-15T07:16:09Z</time>
      </trkpt>
      <trkpt lat="49.63366" lon="-1.60594">
        <ele>7.7</ele>
        <time>2020-06-15T07:16:10Z</time>
      </trkpt>
      <trkpt lat="49.63365" lon="-1.60579">
        <ele>7.7</ele>
        <time>2020-06-15T07:16:11Z</time>
      </trkpt>
      <trkpt lat="49.63363" lon="-1.60569">
        <ele>7.7</ele>
        <time>2020-06-15T07:16:12Z</time>
      </trkpt>
      <trkpt lat="49.63362" lon="-1.6056">
        <ele>7.6</ele>
        <time>2020-06-15T07:16:13Z</time>
      </trkpt>
      <trkpt lat="49.63362" lon="-1.60551">
        <ele>7.6</ele>
        <time>2020-06-15T07:16:14Z</time>
      </trkpt>
      <trkpt lat="49.63363" lon="-1.60542">
        <ele>7.5</ele>
        <time>2020-06-15T07:16:15Z</time>
      </trkpt>
      <trkpt lat="49.63364" lon="-1.60535">
        <ele>7.5</ele>
        <time>2020-06-15T07:16:16Z</time>
      </trkpt>
      <trkpt lat="49.63365" lon="-1.60528">
        <ele>7.4</ele>
        <time>2020-06-15T07:16:17Z</time>
      </trkpt>
      <trkpt lat="49.63366" lon="-1.6052">
        <ele>7.4</ele>
        <time>2020-06-15T07:16:18Z</time>
      </trkpt>
      <trkpt lat="49.63367" lon="-1.60514">
        <ele>7.4</ele>
        <time>2020-06-15T07:16:19Z</time>
      </trkpt>
      <trkpt lat="49.63368" lon="-1.60505">
        <ele>7.4</ele>
        <time>2020-06-15T07:16:20Z</time>
      </trkpt>
      <trkpt lat="49.6337" lon="-1.60498">
        <ele>7.4</ele>
        <time>2020-06-15T07:16:21Z</time>
      </trkpt>
      <trkpt lat="49.63371" lon="-1.60492">
        <ele>7.4</ele>
        <time>2020-06-15T07:16:22Z</time>
      </trkpt>
      <trkpt lat="49.63372" lon="-1.60485">
        <ele>7.4</ele>
        <time>2020-06-15T07:16:23Z</time>
      </trkpt>
      <trkpt lat="49.63372" lon="-1.6048">
        <ele>7.4</ele>
        <time>2020-06-15T07:16:24Z</time>
      </trkpt>
      <trkpt lat="49.63373" lon="-1.60473">
        <ele>7.4</ele>
        <time>2020-06-15T07:16:25Z</time>
      </trkpt>
      <trkpt lat="49.63375" lon="-1.60466">
        <ele>7.3</ele>
        <time>2020-06-15T07:16:26Z</time>
      </trkpt>
      <trkpt lat="49.63376" lon="-1.6046">
        <ele>7.3</ele>
        <time>2020-06-15T07:16:27Z</time>
      </trkpt>
      <trkpt lat="49.63377" lon="-1.60455">
        <ele>7.3</ele>
        <time>2020-06-15T07:16:28Z</time>
      </trkpt>
      <trkpt lat="49.63378" lon="-1.60448">
        <ele>7.2</ele>
        <time>2020-06-15T07:16:29Z</time>
      </trkpt>
      <trkpt lat="49.63379" lon="-1.60441">
        <ele>7.2</ele>
        <time>2020-06-15T07:16:30Z</time>
      </trkpt>
      <trkpt lat="49.63381" lon="-1.60432">
        <ele>7.1</ele>
        <time>2020-06-15T07:16:31Z</time>
      </trkpt>
      <trkpt lat="49.63382" lon="-1.60422">
        <ele>7</ele>
        <time>2020-06-15T07:16:32Z</time>
      </trkpt>
      <trkpt lat="49.63383" lon="-1.60414">
        <ele>6.9</ele>
        <time>2020-06-15T07:16:33Z</time>
      </trkpt>
      <trkpt lat="49.63385" lon="-1.60407">
        <ele>6.9</ele>
        <time>2020-06-15T07:16:34Z</time>
      </trkpt>
      <trkpt lat="49.63387" lon="-1.604">
        <ele>6.8</ele>
        <time>2020-06-15T07:16:35Z</time>
      </trkpt>
      <trkpt lat="49.63388" lon="-1.60393">
        <ele>6.8</ele>
        <time>2020-06-15T07:16:36Z</time>
      </trkpt>
      <trkpt lat="49.63389" lon="-1.60386">
        <ele>6.8</ele>
        <time>2020-06-15T07:16:37Z</time>
      </trkpt>
      <trkpt lat="49.6339" lon="-1.60377">
        <ele>6.7</ele>
        <time>2020-06-15T07:16:38Z</time>
      </trkpt>
      <trkpt lat="49.63392" lon="-1.60368">
        <ele>6.7</ele>
        <time>2020-06-15T07:16:39Z</time>
      </trkpt>
      <trkpt lat="49.63394" lon="-1.6036">
        <ele>6.7</ele>
        <time>2020-06-15T07:16:40Z</time>
      </trkpt>
      <trkpt lat="49.63394" lon="-1.60351">
        <ele>6.6</ele>
        <time>2020-06-15T07:16:41Z</time>
      </trkpt>
      <trkpt lat="49.63395" lon="-1.60343">
        <ele>6.6</ele>
        <time>2020-06-15T07:16:42Z</time>
      </trkpt>
      <trkpt lat="49.63397" lon="-1.60335">
        <ele>6.6</ele>
        <time>2020-06-15T07:16:43Z</time>
      </trkpt>
      <trkpt lat="49.63399" lon="-1.60326">
        <ele>6.5</ele>
        <time>2020-06-15T07:16:44Z</time>
      </trkpt>
      <trkpt lat="49.634" lon="-1.60319">
        <ele>6.5</ele>
        <time>2020-06-15T07:16:45Z</time>
      </trkpt>
      <trkpt lat="49.63401" lon="-1.60311">
        <ele>6.5</ele>
        <time>2020-06-15T07:16:46Z</time>
      </trkpt>
      <trkpt lat="49.634" lon="-1.60305">
        <ele>6.5</ele>
        <time>2020-06-15T07:16:47Z</time>
      </trkpt>
      <trkpt lat="49.634" lon="-1.60298">
        <ele>6.4</ele>
        <time>2020-06-15T07:16:48Z</time>
      </trkpt>
      <trkpt lat="49.63401" lon="-1.60292">
        <ele>6.4</ele>
        <time>2020-06-15T07:16:49Z</time>
      </trkpt>
      <trkpt lat="49.63403" lon="-1.60287">
        <ele>6.5</ele>
        <time>2020-06-15T07:16:50Z</time>
      </trkpt>
      <trkpt lat="49.63405" lon="-1.60279">
        <ele>6.5</ele>
        <time>2020-06-15T07:16:51Z</time>
      </trkpt>
      <trkpt lat="49.63408" lon="-1.60274">
        <ele>6.5</ele>
        <time>2020-06-15T07:16:52Z</time>
      </trkpt>
      <trkpt lat="49.6341" lon="-1.60267">
        <ele>6.5</ele>
        <time>2020-06-15T07:16:53Z</time>
      </trkpt>
      <trkpt lat="49.63413" lon="-1.60262">
        <ele>6.5</ele>
        <time>2020-06-15T07:16:54Z</time>
      </trkpt>
      <trkpt lat="49.63415" lon="-1.6026">
        <ele>6.5</ele>
        <time>2020-06-15T07:16:55Z</time>
      </trkpt>
      <trkpt lat="49.63418" lon="-1.60255">
        <ele>6.5</ele>
        <time>2020-06-15T07:16:56Z</time>
      </trkpt>
      <trkpt lat="49.63422" lon="-1.6025">
        <ele>6.5</ele>
        <time>2020-06-15T07:16:57Z</time>
      </trkpt>
      <trkpt lat="49.63425" lon="-1.60243">
        <ele>6.5</ele>
        <time>2020-06-15T07:16:58Z</time>
      </trkpt>
      <trkpt lat="49.63426" lon="-1.60241">
        <ele>6.5</ele>
        <time>2020-06-15T07:16:59Z</time>
      </trkpt>
      <trkpt lat="49.63426" lon="-1.60242">
        <ele>6.5</ele>
        <time>2020-06-15T07:17:00Z</time>
      </trkpt>
      <trkpt lat="49.63426" lon="-1.60241">
        <ele>6.5</ele>
        <time>2020-06-15T07:17:01Z</time>
      </trkpt>
      <trkpt lat="49.63426" lon="-1.60241">
        <ele>6.5</ele>
        <time>2020-06-15T07:17:02Z</time>
      </trkpt>
      <trkpt lat="49.63426" lon="-1.60241">
        <ele>6.5</ele>
        <time>2020-06-15T07:17:03Z</time>
      </trkpt>
      <trkpt lat="49.63427" lon="-1.60239">
        <ele>6.5</ele>
        <time>2020-06-15T07:17:04Z</time>
      </trkpt>
      <trkpt lat="49.63428" lon="-1.60238">
        <ele>6.5</ele>
        <time>2020-06-15T07:17:05Z</time>
      </trkpt>
      <trkpt lat="49.63429" lon="-1.60237">
        <ele>6.5</ele>
        <time>2020-06-15T07:17:06Z</time>
      </trkpt>
      <trkpt lat="49.6343" lon="-1.60236">
        <ele>6.5</ele>
        <time>2020-06-15T07:17:07Z</time>
      </trkpt>
      <trkpt lat="49.63431" lon="-1.60235">
        <ele>6.4</ele>
        <time>2020-06-15T07:17:08Z</time>
      </trkpt>
      <trkpt lat="49.63432" lon="-1.60234">
        <ele>6.4</ele>
        <time>2020-06-15T07:17:09Z</time>
      </trkpt>
      <trkpt lat="49.63433" lon="-1.6023">
        <ele>6.4</ele>
        <time>2020-06-15T07:17:10Z</time>
      </trkpt>
      <trkpt lat="49.63435" lon="-1.60224">
        <ele>6.4</ele>
        <time>2020-06-15T07:17:11Z</time>
      </trkpt>
      <trkpt lat="49.63437" lon="-1.60219">
        <ele>6.3</ele>
        <time>2020-06-15T07:17:12Z</time>
      </trkpt>
      <trkpt lat="49.63439" lon="-1.60214">
        <ele>6.3</ele>
        <time>2020-06-15T07:17:13Z</time>
      </trkpt>
      <trkpt lat="49.63441" lon="-1.6021">
        <ele>6.2</ele>
        <time>2020-06-15T07:17:14Z</time>
      </trkpt>
      <trkpt lat="49.63443" lon="-1.60206">
        <ele>6.2</ele>
        <time>2020-06-15T07:17:15Z</time>
      </trkpt>
      <trkpt lat="49.63445" lon="-1.60201">
        <ele>6.1</ele>
        <time>2020-06-15T07:17:16Z</time>
      </trkpt>
      <trkpt lat="49.63447" lon="-1.60195">
        <ele>6.1</ele>
        <time>2020-06-15T07:17:17Z</time>
      </trkpt>
      <trkpt lat="49.63451" lon="-1.6019">
        <ele>6</ele>
        <time>2020-06-15T07:17:18Z</time>
      </trkpt>
      <trkpt lat="49.63453" lon="-1.60184">
        <ele>6</ele>
        <time>2020-06-15T07:17:19Z</time>
      </trkpt>
      <trkpt lat="49.63456" lon="-1.60178">
        <ele>5.9</ele>
        <time>2020-06-15T07:17:20Z</time>
      </trkpt>
      <trkpt lat="49.63458" lon="-1.60173">
        <ele>5.9</ele>
        <time>2020-06-15T07:17:21Z</time>
      </trkpt>
      <trkpt lat="49.63461" lon="-1.60166">
        <ele>5.8</ele>
        <time>2020-06-15T07:17:22Z</time>
      </trkpt>
      <trkpt lat="49.63464" lon="-1.6016">
        <ele>5.8</ele>
        <time>2020-06-15T07:17:23Z</time>
      </trkpt>
      <trkpt lat="49.63467" lon="-1.60155">
        <ele>5.7</ele>
        <time>2020-06-15T07:17:24Z</time>
      </trkpt>
      <trkpt lat="49.63471" lon="-1.60148">
        <ele>5.7</ele>
        <time>2020-06-15T07:17:25Z</time>
      </trkpt>
      <trkpt lat="49.63475" lon="-1.60141">
        <ele>5.7</ele>
        <time>2020-06-15T07:17:26Z</time>
      </trkpt>
      <trkpt lat="49.63479" lon="-1.60133">
        <ele>5.7</ele>
        <time>2020-06-15T07:17:27Z</time>
      </trkpt>
      <trkpt lat="49.63482" lon="-1.60127">
        <ele>5.6</ele>
        <time>2020-06-15T07:17:28Z</time>
      </trkpt>
      <trkpt lat="49.63486" lon="-1.60121">
        <ele>5.6</ele>
        <time>2020-06-15T07:17:29Z</time>
      </trkpt>
      <trkpt lat="49.63489" lon="-1.60114">
        <ele>5.6</ele>
        <time>2020-06-15T07:17:30Z</time>
      </trkpt>
      <trkpt lat="49.63492" lon="-1.60108">
        <ele>5.5</ele>
        <time>2020-06-15T07:17:31Z</time>
      </trkpt>
      <trkpt lat="49.63495" lon="-1.60103">
        <ele>5.5</ele>
        <time>2020-06-15T07:17:32Z</time>
      </trkpt>
      <trkpt lat="49.63498" lon="-1.60098">
        <ele>5.5</ele>
        <time>2020-06-15T07:17:33Z</time>
      </trkpt>
      <trkpt lat="49.63499" lon="-1.60093">
        <ele>5.5</ele>
        <time>2020-06-15T07:17:34Z</time>
      </trkpt>
      <trkpt lat="49.63501" lon="-1.60089">
        <ele>5.5</ele>
        <time>2020-06-15T07:17:35Z</time>
      </trkpt>
      <trkpt lat="49.63503" lon="-1.60085">
        <ele>5.4</ele>
        <time>2020-06-15T07:17:36Z</time>
      </trkpt>
      <trkpt lat="49.63505" lon="-1.6008">
        <ele>5.3</ele>
        <time>2020-06-15T07:17:37Z</time>
      </trkpt>
      <trkpt lat="49.63506" lon="-1.60075">
        <ele>5.3</ele>
        <time>2020-06-15T07:17:38Z</time>
      </trkpt>
      <trkpt lat="49.63509" lon="-1.6007">
        <ele>5.2</ele>
        <time>2020-06-15T07:17:39Z</time>
      </trkpt>
      <trkpt lat="49.63511" lon="-1.60064">
        <ele>5.1</ele>
        <time>2020-06-15T07:17:40Z</time>
      </trkpt>
      <trkpt lat="49.63515" lon="-1.60057">
        <ele>5</ele>
        <time>2020-06-15T07:17:41Z</time>
      </trkpt>
      <trkpt lat="49.63519" lon="-1.60051">
        <ele>4.9</ele>
        <time>2020-06-15T07:17:42Z</time>
      </trkpt>
      <trkpt lat="49.63521" lon="-1.60045">
        <ele>4.8</ele>
        <time>2020-06-15T07:17:43Z</time>
      </trkpt>
      <trkpt lat="49.63525" lon="-1.60038">
        <ele>4.7</ele>
        <time>2020-06-15T07:17:44Z</time>
      </trkpt>
      <trkpt lat="49.63528" lon="-1.60031">
        <ele>4.6</ele>
        <time>2020-06-15T07:17:45Z</time>
      </trkpt>
      <trkpt lat="49.63531" lon="-1.60024">
        <ele>4.6</ele>
        <time>2020-06-15T07:17:46Z</time>
      </trkpt>
      <trkpt lat="49.63534" lon="-1.60018">
        <ele>4.5</ele>
        <time>2020-06-15T07:17:47Z</time>
      </trkpt>
      <trkpt lat="49.63537" lon="-1.60011">
        <ele>4.5</ele>
        <time>2020-06-15T07:17:48Z</time>
      </trkpt>
      <trkpt lat="49.63539" lon="-1.60005">
        <ele>4.5</ele>
        <time>2020-06-15T07:17:49Z</time>
      </trkpt>
      <trkpt lat="49.63541" lon="-1.59999">
        <ele>4.4</ele>
        <time>2020-06-15T07:17:50Z</time>
      </trkpt>
      <trkpt lat="49.63543" lon="-1.59991">
        <ele>4.4</ele>
        <time>2020-06-15T07:17:51Z</time>
      </trkpt>
      <trkpt lat="49.63546" lon="-1.59983">
        <ele>4.3</ele>
        <time>2020-06-15T07:17:52Z</time>
      </trkpt>
      <trkpt lat="49.63548" lon="-1.59976">
        <ele>4.3</ele>
        <time>2020-06-15T07:17:53Z</time>
      </trkpt>
      <trkpt lat="49.63551" lon="-1.59968">
        <ele>4.2</ele>
        <time>2020-06-15T07:17:54Z</time>
      </trkpt>
      <trkpt lat="49.63553" lon="-1.59961">
        <ele>4.2</ele>
        <time>2020-06-15T07:17:55Z</time>
      </trkpt>
      <trkpt lat="49.63556" lon="-1.59953">
        <ele>4.2</ele>
        <time>2020-06-15T07:17:56Z</time>
      </trkpt>
      <trkpt lat="49.63557" lon="-1.59947">
        <ele>4.2</ele>
        <time>2020-06-15T07:17:57Z</time>
      </trkpt>
      <trkpt lat="49.63559" lon="-1.59941">
        <ele>4.2</ele>
        <time>2020-06-15T07:17:58Z</time>
      </trkpt>
      <trkpt lat="49.6356" lon="-1.59934">
        <ele>4.2</ele>
        <time>2020-06-15T07:17:59Z</time>
      </trkpt>
      <trkpt lat="49.63561" lon="-1.59928">
        <ele>4.2</ele>
        <time>2020-06-15T07:18:00Z</time>
      </trkpt>
      <trkpt lat="49.63563" lon="-1.59922">
        <ele>4.3</ele>
        <time>2020-06-15T07:18:01Z</time>
      </trkpt>
      <trkpt lat="49.63564" lon="-1.59915">
        <ele>4.3</ele>
        <time>2020-06-15T07:18:02Z</time>
      </trkpt>
      <trkpt lat="49.63567" lon="-1.59908">
        <ele>4.3</ele>
        <time>2020-06-15T07:18:03Z</time>
      </trkpt>
      <trkpt lat="49.63568" lon="-1.59901">
        <ele>4.3</ele>
        <time>2020-06-15T07:18:04Z</time>
      </trkpt>
      <trkpt lat="49.6357" lon="-1.59894">
        <ele>4.3</ele>
        <time>2020-06-15T07:18:05Z</time>
      </trkpt>
      <trkpt lat="49.63573" lon="-1.59887">
        <ele>4.3</ele>
        <time>2020-06-15T07:18:06Z</time>
      </trkpt>
      <trkpt lat="49.63575" lon="-1.5988">
        <ele>4.3</ele>
        <time>2020-06-15T07:18:07Z</time>
      </trkpt>
      <trkpt lat="49.63577" lon="-1.5987">
        <ele>4.2</ele>
        <time>2020-06-15T07:18:08Z</time>
      </trkpt>
      <trkpt lat="49.63579" lon="-1.59862">
        <ele>4.2</ele>
        <time>2020-06-15T07:18:09Z</time>
      </trkpt>
      <trkpt lat="49.63581" lon="-1.59854">
        <ele>4.2</ele>
        <time>2020-06-15T07:18:10Z</time>
      </trkpt>
      <trkpt lat="49.63583" lon="-1.59846">
        <ele>4.2</ele>
        <time>2020-06-15T07:18:11Z</time>
      </trkpt>
      <trkpt lat="49.63585" lon="-1.59838">
        <ele>4.2</ele>
        <time>2020-06-15T07:18:12Z</time>
      </trkpt>
      <trkpt lat="49.63587" lon="-1.59831">
        <ele>4.2</ele>
        <time>2020-06-15T07:18:13Z</time>
      </trkpt>
      <trkpt lat="49.63588" lon="-1.59825">
        <ele>4.2</ele>
        <time>2020-06-15T07:18:14Z</time>
      </trkpt>
      <trkpt lat="49.63592" lon="-1.59816">
        <ele>4.2</ele>
        <time>2020-06-15T07:18:15Z</time>
      </trkpt>
      <trkpt lat="49.63594" lon="-1.5981">
        <ele>4.2</ele>
        <time>2020-06-15T07:18:16Z</time>
      </trkpt>
      <trkpt lat="49.63596" lon="-1.59801">
        <ele>4.2</ele>
        <time>2020-06-15T07:18:17Z</time>
      </trkpt>
      <trkpt lat="49.63598" lon="-1.59793">
        <ele>4.2</ele>
        <time>2020-06-15T07:18:18Z</time>
      </trkpt>
      <trkpt lat="49.636" lon="-1.59786">
        <ele>4.2</ele>
        <time>2020-06-15T07:18:19Z</time>
      </trkpt>
      <trkpt lat="49.63602" lon="-1.59779">
        <ele>4.3</ele>
        <time>2020-06-15T07:18:20Z</time>
      </trkpt>
      <trkpt lat="49.63604" lon="-1.59769">
        <ele>4.3</ele>
        <time>2020-06-15T07:18:21Z</time>
      </trkpt>
      <trkpt lat="49.63607" lon="-1.59762">
        <ele>4.3</ele>
        <time>2020-06-15T07:18:22Z</time>
      </trkpt>
      <trkpt lat="49.63609" lon="-1.59754">
        <ele>4.3</ele>
        <time>2020-06-15T07:18:23Z</time>
      </trkpt>
      <trkpt lat="49.63612" lon="-1.59747">
        <ele>4.3</ele>
        <time>2020-06-15T07:18:24Z</time>
      </trkpt>
      <trkpt lat="49.63614" lon="-1.5974">
        <ele>4.3</ele>
        <time>2020-06-15T07:18:25Z</time>
      </trkpt>
      <trkpt lat="49.63617" lon="-1.59731">
        <ele>4.3</ele>
        <time>2020-06-15T07:18:26Z</time>
      </trkpt>
      <trkpt lat="49.63619" lon="-1.59725">
        <ele>4.3</ele>
        <time>2020-06-15T07:18:27Z</time>
      </trkpt>
      <trkpt lat="49.63622" lon="-1.59718">
        <ele>4.3</ele>
        <time>2020-06-15T07:18:28Z</time>
      </trkpt>
      <trkpt lat="49.63625" lon="-1.59712">
        <ele>4.3</ele>
        <time>2020-06-15T07:18:29Z</time>
      </trkpt>
      <trkpt lat="49.63627" lon="-1.59707">
        <ele>4.3</ele>
        <time>2020-06-15T07:18:30Z</time>
      </trkpt>
      <trkpt lat="49.6363" lon="-1.59702">
        <ele>4.3</ele>
        <time>2020-06-15T07:18:31Z</time>
      </trkpt>
      <trkpt lat="49.63632" lon="-1.59696">
        <ele>4.3</ele>
        <time>2020-06-15T07:18:32Z</time>
      </trkpt>
      <trkpt lat="49.63635" lon="-1.5969">
        <ele>4.3</ele>
        <time>2020-06-15T07:18:33Z</time>
      </trkpt>
      <trkpt lat="49.63638" lon="-1.59684">
        <ele>4.3</ele>
        <time>2020-06-15T07:18:34Z</time>
      </trkpt>
      <trkpt lat="49.6364" lon="-1.59678">
        <ele>4.3</ele>
        <time>2020-06-15T07:18:35Z</time>
      </trkpt>
      <trkpt lat="49.63642" lon="-1.59673">
        <ele>4.4</ele>
        <time>2020-06-15T07:18:36Z</time>
      </trkpt>
      <trkpt lat="49.63643" lon="-1.59666">
        <ele>4.4</ele>
        <time>2020-06-15T07:18:37Z</time>
      </trkpt>
      <trkpt lat="49.63645" lon="-1.5966">
        <ele>4.4</ele>
        <time>2020-06-15T07:18:38Z</time>
      </trkpt>
      <trkpt lat="49.63645" lon="-1.59653">
        <ele>4.4</ele>
        <time>2020-06-15T07:18:39Z</time>
      </trkpt>
      <trkpt lat="49.63644" lon="-1.59646">
        <ele>4.4</ele>
        <time>2020-06-15T07:18:40Z</time>
      </trkpt>
      <trkpt lat="49.63643" lon="-1.59637">
        <ele>4.5</ele>
        <time>2020-06-15T07:18:41Z</time>
      </trkpt>
      <trkpt lat="49.63643" lon="-1.59631">
        <ele>4.5</ele>
        <time>2020-06-15T07:18:42Z</time>
      </trkpt>
      <trkpt lat="49.63643" lon="-1.59624">
        <ele>4.6</ele>
        <time>2020-06-15T07:18:43Z</time>
      </trkpt>
      <trkpt lat="49.63643" lon="-1.59619">
        <ele>5</ele>
        <time>2020-06-15T07:18:44Z</time>
      </trkpt>
      <trkpt lat="49.63642" lon="-1.59611">
        <ele>5</ele>
        <time>2020-06-15T07:18:45Z</time>
      </trkpt>
      <trkpt lat="49.63641" lon="-1.59606">
        <ele>4.9</ele>
        <time>2020-06-15T07:18:46Z</time>
      </trkpt>
      <trkpt lat="49.63641" lon="-1.596">
        <ele>4.9</ele>
        <time>2020-06-15T07:18:47Z</time>
      </trkpt>
      <trkpt lat="49.63641" lon="-1.59598">
        <ele>4.9</ele>
        <time>2020-06-15T07:18:48Z</time>
      </trkpt>
      <trkpt lat="49.63641" lon="-1.59593">
        <ele>4.9</ele>
        <time>2020-06-15T07:18:49Z</time>
      </trkpt>
      <trkpt lat="49.6364" lon="-1.5959">
        <ele>4.9</ele>
        <time>2020-06-15T07:18:50Z</time>
      </trkpt>
      <trkpt lat="49.6364" lon="-1.59589">
        <ele>4.9</ele>
        <time>2020-06-15T07:18:51Z</time>
      </trkpt>
      <trkpt lat="49.63641" lon="-1.59589">
        <ele>4.9</ele>
        <time>2020-06-15T07:18:52Z</time>
      </trkpt>
      <trkpt lat="49.63642" lon="-1.59589">
        <ele>4.9</ele>
        <time>2020-06-15T07:18:53Z</time>
      </trkpt>
      <trkpt lat="49.63643" lon="-1.59589">
        <ele>4.9</ele>
        <time>2020-06-15T07:18:54Z</time>
      </trkpt>
      <trkpt lat="49.63643" lon="-1.5959">
        <ele>4.9</ele>
        <time>2020-06-15T07:18:55Z</time>
      </trkpt>
      <trkpt lat="49.63644" lon="-1.5959">
        <ele>4.9</ele>
        <time>2020-06-15T07:18:56Z</time>
      </trkpt>
      <trkpt lat="49.63647" lon="-1.59589">
        <ele>4.9</ele>
        <time>2020-06-15T07:18:57Z</time>
      </trkpt>
      <trkpt lat="49.63648" lon="-1.59589">
        <ele>4.9</ele>
        <time>2020-06-15T07:18:58Z</time>
      </trkpt>
      <trkpt lat="49.6365" lon="-1.59589">
        <ele>4.8</ele>
        <time>2020-06-15T07:18:59Z</time>
      </trkpt>
      <trkpt lat="49.63652" lon="-1.59588">
        <ele>4.8</ele>
        <time>2020-06-15T07:19:00Z</time>
      </trkpt>
      <trkpt lat="49.63653" lon="-1.59588">
        <ele>4.8</ele>
        <time>2020-06-15T07:19:01Z</time>
      </trkpt>
      <trkpt lat="49.63654" lon="-1.59588">
        <ele>4.8</ele>
        <time>2020-06-15T07:19:02Z</time>
      </trkpt>
      <trkpt lat="49.63655" lon="-1.59589">
        <ele>4.8</ele>
        <time>2020-06-15T07:19:03Z</time>
      </trkpt>
      <trkpt lat="49.63655" lon="-1.59589">
        <ele>4.8</ele>
        <time>2020-06-15T07:19:04Z</time>
      </trkpt>
      <trkpt lat="49.63656" lon="-1.59589">
        <ele>4.8</ele>
        <time>2020-06-15T07:19:05Z</time>
      </trkpt>
      <trkpt lat="49.63658" lon="-1.59592">
        <ele>4.9</ele>
        <time>2020-06-15T07:19:06Z</time>
      </trkpt>
      <trkpt lat="49.63662" lon="-1.59595">
        <ele>5</ele>
        <time>2020-06-15T07:19:07Z</time>
      </trkpt>
      <trkpt lat="49.63665" lon="-1.59597">
        <ele>4.9</ele>
        <time>2020-06-15T07:19:08Z</time>
      </trkpt>
      <trkpt lat="49.63669" lon="-1.59597">
        <ele>4.9</ele>
        <time>2020-06-15T07:19:09Z</time>
      </trkpt>
      <trkpt lat="49.63673" lon="-1.59594">
        <ele>4.9</ele>
        <time>2020-06-15T07:19:10Z</time>
      </trkpt>
      <trkpt lat="49.63677" lon="-1.59589">
        <ele>4.9</ele>
        <time>2020-06-15T07:19:11Z</time>
      </trkpt>
      <trkpt lat="49.63681" lon="-1.59583">
        <ele>4.9</ele>
        <time>2020-06-15T07:19:12Z</time>
      </trkpt>
      <trkpt lat="49.63685" lon="-1.59579">
        <ele>4.8</ele>
        <time>2020-06-15T07:19:13Z</time>
      </trkpt>
      <trkpt lat="49.63689" lon="-1.59576">
        <ele>4.8</ele>
        <time>2020-06-15T07:19:14Z</time>
      </trkpt>
      <trkpt lat="49.63693" lon="-1.59571">
        <ele>4.8</ele>
        <time>2020-06-15T07:19:15Z</time>
      </trkpt>
      <trkpt lat="49.63697" lon="-1.59566">
        <ele>4.7</ele>
        <time>2020-06-15T07:19:16Z</time>
      </trkpt>
      <trkpt lat="49.63701" lon="-1.59562">
        <ele>4.7</ele>
        <time>2020-06-15T07:19:17Z</time>
      </trkpt>
      <trkpt lat="49.63705" lon="-1.59557">
        <ele>4.7</ele>
        <time>2020-06-15T07:19:18Z</time>
      </trkpt>
      <trkpt lat="49.63709" lon="-1.59553">
        <ele>4.7</ele>
        <time>2020-06-15T07:19:19Z</time>
      </trkpt>
      <trkpt lat="49.63713" lon="-1.59549">
        <ele>4.7</ele>
        <time>2020-06-15T07:19:20Z</time>
      </trkpt>
      <trkpt lat="49.63717" lon="-1.59545">
        <ele>4.7</ele>
        <time>2020-06-15T07:19:21Z</time>
      </trkpt>
      <trkpt lat="49.63721" lon="-1.59542">
        <ele>4.6</ele>
        <time>2020-06-15T07:19:22Z</time>
      </trkpt>
      <trkpt lat="49.63725" lon="-1.59538">
        <ele>4.6</ele>
        <time>2020-06-15T07:19:23Z</time>
      </trkpt>
      <trkpt lat="49.6373" lon="-1.59534">
        <ele>4.6</ele>
        <time>2020-06-15T07:19:24Z</time>
      </trkpt>
      <trkpt lat="49.63734" lon="-1.59531">
        <ele>4.6</ele>
        <time>2020-06-15T07:19:25Z</time>
      </trkpt>
      <trkpt lat="49.63738" lon="-1.59527">
        <ele>4.6</ele>
        <time>2020-06-15T07:19:26Z</time>
      </trkpt>
      <trkpt lat="49.63743" lon="-1.59524">
        <ele>4.6</ele>
        <time>2020-06-15T07:19:27Z</time>
      </trkpt>
      <trkpt lat="49.63748" lon="-1.5952">
        <ele>4.6</ele>
        <time>2020-06-15T07:19:28Z</time>
      </trkpt>
      <trkpt lat="49.63752" lon="-1.59516">
        <ele>4.6</ele>
        <time>2020-06-15T07:19:29Z</time>
      </trkpt>
      <trkpt lat="49.63757" lon="-1.59514">
        <ele>4.6</ele>
        <time>2020-06-15T07:19:30Z</time>
      </trkpt>
      <trkpt lat="49.63762" lon="-1.5951">
        <ele>4.6</ele>
        <time>2020-06-15T07:19:31Z</time>
      </trkpt>
      <trkpt lat="49.63766" lon="-1.59507">
        <ele>4.6</ele>
        <time>2020-06-15T07:19:32Z</time>
      </trkpt>
      <trkpt lat="49.63771" lon="-1.59504">
        <ele>4.6</ele>
        <time>2020-06-15T07:19:33Z</time>
      </trkpt>
      <trkpt lat="49.63775" lon="-1.59501">
        <ele>4.6</ele>
        <time>2020-06-15T07:19:34Z</time>
      </trkpt>
      <trkpt lat="49.6378" lon="-1.59497">
        <ele>4.6</ele>
        <time>2020-06-15T07:19:35Z</time>
      </trkpt>
      <trkpt lat="49.63785" lon="-1.59495">
        <ele>4.5</ele>
        <time>2020-06-15T07:19:36Z</time>
      </trkpt>
      <trkpt lat="49.6379" lon="-1.59492">
        <ele>4.5</ele>
        <time>2020-06-15T07:19:37Z</time>
      </trkpt>
      <trkpt lat="49.63795" lon="-1.59489">
        <ele>4.4</ele>
        <time>2020-06-15T07:19:38Z</time>
      </trkpt>
      <trkpt lat="49.638" lon="-1.59486">
        <ele>4.4</ele>
        <time>2020-06-15T07:19:39Z</time>
      </trkpt>
      <trkpt lat="49.63806" lon="-1.59481">
        <ele>4.3</ele>
        <time>2020-06-15T07:19:40Z</time>
      </trkpt>
      <trkpt lat="49.6381" lon="-1.59478">
        <ele>4.3</ele>
        <time>2020-06-15T07:19:41Z</time>
      </trkpt>
      <trkpt lat="49.63816" lon="-1.59475">
        <ele>4.3</ele>
        <time>2020-06-15T07:19:42Z</time>
      </trkpt>
      <trkpt lat="49.63822" lon="-1.59472">
        <ele>4.2</ele>
        <time>2020-06-15T07:19:43Z</time>
      </trkpt>
      <trkpt lat="49.63827" lon="-1.59468">
        <ele>4.2</ele>
        <time>2020-06-15T07:19:44Z</time>
      </trkpt>
      <trkpt lat="49.63832" lon="-1.59464">
        <ele>4.2</ele>
        <time>2020-06-15T07:19:45Z</time>
      </trkpt>
      <trkpt lat="49.63838" lon="-1.5946">
        <ele>4.1</ele>
        <time>2020-06-15T07:19:46Z</time>
      </trkpt>
      <trkpt lat="49.63843" lon="-1.59458">
        <ele>4.1</ele>
        <time>2020-06-15T07:19:47Z</time>
      </trkpt>
      <trkpt lat="49.63848" lon="-1.59455">
        <ele>4.1</ele>
        <time>2020-06-15T07:19:48Z</time>
      </trkpt>
      <trkpt lat="49.63853" lon="-1.59452">
        <ele>4.1</ele>
        <time>2020-06-15T07:19:49Z</time>
      </trkpt>
      <trkpt lat="49.63858" lon="-1.59448">
        <ele>4.1</ele>
        <time>2020-06-15T07:19:50Z</time>
      </trkpt>
      <trkpt lat="49.63864" lon="-1.59444">
        <ele>4.1</ele>
        <time>2020-06-15T07:19:51Z</time>
      </trkpt>
      <trkpt lat="49.63869" lon="-1.59441">
        <ele>4.2</ele>
        <time>2020-06-15T07:19:52Z</time>
      </trkpt>
      <trkpt lat="49.63873" lon="-1.59438">
        <ele>4.2</ele>
        <time>2020-06-15T07:19:53Z</time>
      </trkpt>
      <trkpt lat="49.63878" lon="-1.59434">
        <ele>4.3</ele>
        <time>2020-06-15T07:19:54Z</time>
      </trkpt>
      <trkpt lat="49.63883" lon="-1.59431">
        <ele>4.3</ele>
        <time>2020-06-15T07:19:55Z</time>
      </trkpt>
      <trkpt lat="49.63889" lon="-1.59427">
        <ele>4.4</ele>
        <time>2020-06-15T07:19:56Z</time>
      </trkpt>
      <trkpt lat="49.63894" lon="-1.59424">
        <ele>4.4</ele>
        <time>2020-06-15T07:19:57Z</time>
      </trkpt>
      <trkpt lat="49.63899" lon="-1.5942">
        <ele>4.4</ele>
        <time>2020-06-15T07:19:58Z</time>
      </trkpt>
      <trkpt lat="49.63905" lon="-1.59415">
        <ele>4.4</ele>
        <time>2020-06-15T07:19:59Z</time>
      </trkpt>
      <trkpt lat="49.63911" lon="-1.59411">
        <ele>4.4</ele>
        <time>2020-06-15T07:20:00Z</time>
      </trkpt>
      <trkpt lat="49.63917" lon="-1.59409">
        <ele>4.4</ele>
        <time>2020-06-15T07:20:01Z</time>
      </trkpt>
      <trkpt lat="49.63923" lon="-1.59405">
        <ele>4.4</ele>
        <time>2020-06-15T07:20:02Z</time>
      </trkpt>
      <trkpt lat="49.63929" lon="-1.59401">
        <ele>4.4</ele>
        <time>2020-06-15T07:20:03Z</time>
      </trkpt>
      <trkpt lat="49.63934" lon="-1.59398">
        <ele>4.4</ele>
        <time>2020-06-15T07:20:04Z</time>
      </trkpt>
      <trkpt lat="49.63939" lon="-1.59396">
        <ele>4.4</ele>
        <time>2020-06-15T07:20:05Z</time>
      </trkpt>
      <trkpt lat="49.63944" lon="-1.59393">
        <ele>4.5</ele>
        <time>2020-06-15T07:20:06Z</time>
      </trkpt>
      <trkpt lat="49.63948" lon="-1.59391">
        <ele>4.5</ele>
        <time>2020-06-15T07:20:07Z</time>
      </trkpt>
      <trkpt lat="49.63952" lon="-1.59389">
        <ele>4.5</ele>
        <time>2020-06-15T07:20:08Z</time>
      </trkpt>
      <trkpt lat="49.63956" lon="-1.59387">
        <ele>4.5</ele>
        <time>2020-06-15T07:20:09Z</time>
      </trkpt>
      <trkpt lat="49.6396" lon="-1.59386">
        <ele>4.5</ele>
        <time>2020-06-15T07:20:10Z</time>
      </trkpt>
      <trkpt lat="49.63964" lon="-1.59384">
        <ele>4.5</ele>
        <time>2020-06-15T07:20:11Z</time>
      </trkpt>
      <trkpt lat="49.63969" lon="-1.59382">
        <ele>4.5</ele>
        <time>2020-06-15T07:20:12Z</time>
      </trkpt>
      <trkpt lat="49.63973" lon="-1.59379">
        <ele>4.5</ele>
        <time>2020-06-15T07:20:13Z</time>
      </trkpt>
      <trkpt lat="49.6398" lon="-1.59376">
        <ele>4.6</ele>
        <time>2020-06-15T07:20:14Z</time>
      </trkpt>
      <trkpt lat="49.63985" lon="-1.59374">
        <ele>4.6</ele>
        <time>2020-06-15T07:20:15Z</time>
      </trkpt>
      <trkpt lat="49.6399" lon="-1.59372">
        <ele>4.6</ele>
        <time>2020-06-15T07:20:16Z</time>
      </trkpt>
      <trkpt lat="49.63996" lon="-1.5937">
        <ele>4.7</ele>
        <time>2020-06-15T07:20:17Z</time>
      </trkpt>
      <trkpt lat="49.64001" lon="-1.59369">
        <ele>4.7</ele>
        <time>2020-06-15T07:20:18Z</time>
      </trkpt>
      <trkpt lat="49.64006" lon="-1.59367">
        <ele>4.8</ele>
        <time>2020-06-15T07:20:19Z</time>
      </trkpt>
      <trkpt lat="49.6401" lon="-1.59364">
        <ele>4.9</ele>
        <time>2020-06-15T07:20:20Z</time>
      </trkpt>
      <trkpt lat="49.64015" lon="-1.59363">
        <ele>4.9</ele>
        <time>2020-06-15T07:20:21Z</time>
      </trkpt>
      <trkpt lat="49.64019" lon="-1.59361">
        <ele>5</ele>
        <time>2020-06-15T07:20:22Z</time>
      </trkpt>
      <trkpt lat="49.64024" lon="-1.5936">
        <ele>5</ele>
        <time>2020-06-15T07:20:23Z</time>
      </trkpt>
      <trkpt lat="49.64029" lon="-1.59358">
        <ele>5</ele>
        <time>2020-06-15T07:20:24Z</time>
      </trkpt>
      <trkpt lat="49.64033" lon="-1.59356">
        <ele>5</ele>
        <time>2020-06-15T07:20:25Z</time>
      </trkpt>
      <trkpt lat="49.64039" lon="-1.59354">
        <ele>5</ele>
        <time>2020-06-15T07:20:26Z</time>
      </trkpt>
      <trkpt lat="49.64044" lon="-1.59351">
        <ele>5</ele>
        <time>2020-06-15T07:20:27Z</time>
      </trkpt>
      <trkpt lat="49.6405" lon="-1.59349">
        <ele>5</ele>
        <time>2020-06-15T07:20:28Z</time>
      </trkpt>
      <trkpt lat="49.64056" lon="-1.59348">
        <ele>5</ele>
        <time>2020-06-15T07:20:29Z</time>
      </trkpt>
      <trkpt lat="49.64061" lon="-1.59347">
        <ele>5</ele>
        <time>2020-06-15T07:20:30Z</time>
      </trkpt>
      <trkpt lat="49.64065" lon="-1.59346">
        <ele>5</ele>
        <time>2020-06-15T07:20:31Z</time>
      </trkpt>
      <trkpt lat="49.64071" lon="-1.59345">
        <ele>5</ele>
        <time>2020-06-15T07:20:32Z</time>
      </trkpt>
      <trkpt lat="49.64076" lon="-1.59344">
        <ele>5.1</ele>
        <time>2020-06-15T07:20:33Z</time>
      </trkpt>
      <trkpt lat="49.6408" lon="-1.59342">
        <ele>5.1</ele>
        <time>2020-06-15T07:20:34Z</time>
      </trkpt>
      <trkpt lat="49.64085" lon="-1.59342">
        <ele>5.1</ele>
        <time>2020-06-15T07:20:35Z</time>
      </trkpt>
      <trkpt lat="49.64089" lon="-1.5934">
        <ele>5.1</ele>
        <time>2020-06-15T07:20:36Z</time>
      </trkpt>
      <trkpt lat="49.64095" lon="-1.5934">
        <ele>5.1</ele>
        <time>2020-06-15T07:20:37Z</time>
      </trkpt>
      <trkpt lat="49.641" lon="-1.5934">
        <ele>5.1</ele>
        <time>2020-06-15T07:20:38Z</time>
      </trkpt>
      <trkpt lat="49.64105" lon="-1.59339">
        <ele>5.1</ele>
        <time>2020-06-15T07:20:39Z</time>
      </trkpt>
      <trkpt lat="49.6411" lon="-1.5934">
        <ele>5.1</ele>
        <time>2020-06-15T07:20:40Z</time>
      </trkpt>
      <trkpt lat="49.64115" lon="-1.5934">
        <ele>5.1</ele>
        <time>2020-06-15T07:20:41Z</time>
      </trkpt>
      <trkpt lat="49.64119" lon="-1.5934">
        <ele>5.1</ele>
        <time>2020-06-15T07:20:42Z</time>
      </trkpt>
      <trkpt lat="49.64123" lon="-1.5934">
        <ele>5</ele>
        <time>2020-06-15T07:20:43Z</time>
      </trkpt>
      <trkpt lat="49.64127" lon="-1.59339">
        <ele>5</ele>
        <time>2020-06-15T07:20:44Z</time>
      </trkpt>
      <trkpt lat="49.6413" lon="-1.59337">
        <ele>5</ele>
        <time>2020-06-15T07:20:45Z</time>
      </trkpt>
      <trkpt lat="49.64132" lon="-1.59336">
        <ele>5</ele>
        <time>2020-06-15T07:20:46Z</time>
      </trkpt>
      <trkpt lat="49.64132" lon="-1.59334">
        <ele>5</ele>
        <time>2020-06-15T07:20:47Z</time>
      </trkpt>
      <trkpt lat="49.64133" lon="-1.59326">
        <ele>5.1</ele>
        <time>2020-06-15T07:20:48Z</time>
      </trkpt>
      <trkpt lat="49.64132" lon="-1.59322">
        <ele>5.1</ele>
        <time>2020-06-15T07:20:49Z</time>
      </trkpt>
      <trkpt lat="49.64133" lon="-1.59314">
        <ele>5</ele>
        <time>2020-06-15T07:20:50Z</time>
      </trkpt>
      <trkpt lat="49.64134" lon="-1.59308">
        <ele>5</ele>
        <time>2020-06-15T07:20:51Z</time>
      </trkpt>
      <trkpt lat="49.64135" lon="-1.59302">
        <ele>5</ele>
        <time>2020-06-15T07:20:52Z</time>
      </trkpt>
      <trkpt lat="49.64136" lon="-1.59297">
        <ele>5</ele>
        <time>2020-06-15T07:20:53Z</time>
      </trkpt>
      <trkpt lat="49.64138" lon="-1.59289">
        <ele>4.9</ele>
        <time>2020-06-15T07:20:54Z</time>
      </trkpt>
      <trkpt lat="49.64139" lon="-1.59281">
        <ele>4.9</ele>
        <time>2020-06-15T07:20:55Z</time>
      </trkpt>
      <trkpt lat="49.64139" lon="-1.59274">
        <ele>4.9</ele>
        <time>2020-06-15T07:20:56Z</time>
      </trkpt>
      <trkpt lat="49.6414" lon="-1.59266">
        <ele>4.8</ele>
        <time>2020-06-15T07:20:57Z</time>
      </trkpt>
      <trkpt lat="49.64141" lon="-1.59259">
        <ele>4.8</ele>
        <time>2020-06-15T07:20:58Z</time>
      </trkpt>
      <trkpt lat="49.64142" lon="-1.59252">
        <ele>4.8</ele>
        <time>2020-06-15T07:20:59Z</time>
      </trkpt>
      <trkpt lat="49.64144" lon="-1.59246">
        <ele>4.8</ele>
        <time>2020-06-15T07:21:00Z</time>
      </trkpt>
      <trkpt lat="49.64145" lon="-1.59237">
        <ele>4.8</ele>
        <time>2020-06-15T07:21:01Z</time>
      </trkpt>
      <trkpt lat="49.64147" lon="-1.59228">
        <ele>4.7</ele>
        <time>2020-06-15T07:21:02Z</time>
      </trkpt>
      <trkpt lat="49.64149" lon="-1.59221">
        <ele>4.7</ele>
        <time>2020-06-15T07:21:03Z</time>
      </trkpt>
      <trkpt lat="49.64151" lon="-1.59213">
        <ele>4.7</ele>
        <time>2020-06-15T07:21:04Z</time>
      </trkpt>
      <trkpt lat="49.64152" lon="-1.59206">
        <ele>4.7</ele>
        <time>2020-06-15T07:21:05Z</time>
      </trkpt>
      <trkpt lat="49.64153" lon="-1.59199">
        <ele>4.7</ele>
        <time>2020-06-15T07:21:06Z</time>
      </trkpt>
      <trkpt lat="49.64154" lon="-1.59193">
        <ele>4.7</ele>
        <time>2020-06-15T07:21:07Z</time>
      </trkpt>
      <trkpt lat="49.64156" lon="-1.59185">
        <ele>4.7</ele>
        <time>2020-06-15T07:21:08Z</time>
      </trkpt>
      <trkpt lat="49.64159" lon="-1.59177">
        <ele>4.7</ele>
        <time>2020-06-15T07:21:09Z</time>
      </trkpt>
      <trkpt lat="49.64161" lon="-1.59168">
        <ele>4.7</ele>
        <time>2020-06-15T07:21:10Z</time>
      </trkpt>
      <trkpt lat="49.64163" lon="-1.59161">
        <ele>4.7</ele>
        <time>2020-06-15T07:21:11Z</time>
      </trkpt>
      <trkpt lat="49.64165" lon="-1.59153">
        <ele>4.7</ele>
        <time>2020-06-15T07:21:12Z</time>
      </trkpt>
      <trkpt lat="49.64165" lon="-1.59145">
        <ele>4.7</ele>
        <time>2020-06-15T07:21:13Z</time>
      </trkpt>
      <trkpt lat="49.64166" lon="-1.59139">
        <ele>4.7</ele>
        <time>2020-06-15T07:21:14Z</time>
      </trkpt>
      <trkpt lat="49.64167" lon="-1.59132">
        <ele>4.7</ele>
        <time>2020-06-15T07:21:15Z</time>
      </trkpt>
      <trkpt lat="49.64167" lon="-1.59125">
        <ele>4.7</ele>
        <time>2020-06-15T07:21:16Z</time>
      </trkpt>
      <trkpt lat="49.64168" lon="-1.59118">
        <ele>4.7</ele>
        <time>2020-06-15T07:21:17Z</time>
      </trkpt>
      <trkpt lat="49.64169" lon="-1.59112">
        <ele>4.7</ele>
        <time>2020-06-15T07:21:18Z</time>
      </trkpt>
      <trkpt lat="49.6417" lon="-1.59103">
        <ele>4.7</ele>
        <time>2020-06-15T07:21:19Z</time>
      </trkpt>
      <trkpt lat="49.64171" lon="-1.59092">
        <ele>4.8</ele>
        <time>2020-06-15T07:21:20Z</time>
      </trkpt>
      <trkpt lat="49.64172" lon="-1.59083">
        <ele>4.8</ele>
        <time>2020-06-15T07:21:21Z</time>
      </trkpt>
      <trkpt lat="49.64173" lon="-1.59075">
        <ele>4.8</ele>
        <time>2020-06-15T07:21:22Z</time>
      </trkpt>
      <trkpt lat="49.64175" lon="-1.59068">
        <ele>4.8</ele>
        <time>2020-06-15T07:21:23Z</time>
      </trkpt>
      <trkpt lat="49.64176" lon="-1.59062">
        <ele>4.8</ele>
        <time>2020-06-15T07:21:24Z</time>
      </trkpt>
      <trkpt lat="49.64178" lon="-1.59053">
        <ele>4.8</ele>
        <time>2020-06-15T07:21:25Z</time>
      </trkpt>
      <trkpt lat="49.6418" lon="-1.59046">
        <ele>4.8</ele>
        <time>2020-06-15T07:21:26Z</time>
      </trkpt>
      <trkpt lat="49.6418" lon="-1.59041">
        <ele>4.8</ele>
        <time>2020-06-15T07:21:27Z</time>
      </trkpt>
      <trkpt lat="49.64181" lon="-1.59032">
        <ele>4.8</ele>
        <time>2020-06-15T07:21:28Z</time>
      </trkpt>
      <trkpt lat="49.64182" lon="-1.59025">
        <ele>4.8</ele>
        <time>2020-06-15T07:21:29Z</time>
      </trkpt>
      <trkpt lat="49.64183" lon="-1.59017">
        <ele>4.8</ele>
        <time>2020-06-15T07:21:30Z</time>
      </trkpt>
      <trkpt lat="49.64184" lon="-1.59007">
        <ele>4.8</ele>
        <time>2020-06-15T07:21:31Z</time>
      </trkpt>
      <trkpt lat="49.64186" lon="-1.58998">
        <ele>4.8</ele>
        <time>2020-06-15T07:21:32Z</time>
      </trkpt>
      <trkpt lat="49.64187" lon="-1.5899">
        <ele>4.9</ele>
        <time>2020-06-15T07:21:33Z</time>
      </trkpt>
      <trkpt lat="49.64189" lon="-1.58982">
        <ele>4.9</ele>
        <time>2020-06-15T07:21:34Z</time>
      </trkpt>
      <trkpt lat="49.6419" lon="-1.58973">
        <ele>4.9</ele>
        <time>2020-06-15T07:21:35Z</time>
      </trkpt>
      <trkpt lat="49.64191" lon="-1.58962">
        <ele>4.9</ele>
        <time>2020-06-15T07:21:36Z</time>
      </trkpt>
      <trkpt lat="49.64192" lon="-1.58958">
        <ele>4.9</ele>
        <time>2020-06-15T07:21:37Z</time>
      </trkpt>
      <trkpt lat="49.64192" lon="-1.5895">
        <ele>4.9</ele>
        <time>2020-06-15T07:21:38Z</time>
      </trkpt>
      <trkpt lat="49.64193" lon="-1.58942">
        <ele>5</ele>
        <time>2020-06-15T07:21:39Z</time>
      </trkpt>
      <trkpt lat="49.64194" lon="-1.58933">
        <ele>5</ele>
        <time>2020-06-15T07:21:40Z</time>
      </trkpt>
      <trkpt lat="49.64196" lon="-1.58925">
        <ele>5</ele>
        <time>2020-06-15T07:21:41Z</time>
      </trkpt>
      <trkpt lat="49.64197" lon="-1.58918">
        <ele>5.1</ele>
        <time>2020-06-15T07:21:42Z</time>
      </trkpt>
      <trkpt lat="49.64198" lon="-1.58912">
        <ele>5.1</ele>
        <time>2020-06-15T07:21:43Z</time>
      </trkpt>
      <trkpt lat="49.642" lon="-1.58905">
        <ele>5.1</ele>
        <time>2020-06-15T07:21:44Z</time>
      </trkpt>
      <trkpt lat="49.64201" lon="-1.58898">
        <ele>5.1</ele>
        <time>2020-06-15T07:21:45Z</time>
      </trkpt>
      <trkpt lat="49.64202" lon="-1.58891">
        <ele>5.2</ele>
        <time>2020-06-15T07:21:46Z</time>
      </trkpt>
      <trkpt lat="49.64203" lon="-1.58884">
        <ele>5.2</ele>
        <time>2020-06-15T07:21:47Z</time>
      </trkpt>
      <trkpt lat="49.64203" lon="-1.58878">
        <ele>5.2</ele>
        <time>2020-06-15T07:21:48Z</time>
      </trkpt>
      <trkpt lat="49.64204" lon="-1.58873">
        <ele>5.2</ele>
        <time>2020-06-15T07:21:49Z</time>
      </trkpt>
      <trkpt lat="49.64205" lon="-1.58869">
        <ele>5.3</ele>
        <time>2020-06-15T07:21:50Z</time>
      </trkpt>
      <trkpt lat="49.64206" lon="-1.58866">
        <ele>5.3</ele>
        <time>2020-06-15T07:21:51Z</time>
      </trkpt>
      <trkpt lat="49.64205" lon="-1.58864">
        <ele>5.3</ele>
        <time>2020-06-15T07:21:52Z</time>
      </trkpt>
      <trkpt lat="49.64204" lon="-1.58863">
        <ele>5.3</ele>
        <time>2020-06-15T07:21:53Z</time>
      </trkpt>
      <trkpt lat="49.64205" lon="-1.58862">
        <ele>5.3</ele>
        <time>2020-06-15T07:21:54Z</time>
      </trkpt>
      <trkpt lat="49.64205" lon="-1.58861">
        <ele>5.3</ele>
        <time>2020-06-15T07:21:55Z</time>
      </trkpt>
      <trkpt lat="49.64205" lon="-1.58861">
        <ele>5.3</ele>
        <time>2020-06-15T07:21:56Z</time>
      </trkpt>
      <trkpt lat="49.64205" lon="-1.5886">
        <ele>5.3</ele>
        <time>2020-06-15T07:21:57Z</time>
      </trkpt>
      <trkpt lat="49.64205" lon="-1.5886">
        <ele>5.3</ele>
        <time>2020-06-15T07:21:58Z</time>
      </trkpt>
      <trkpt lat="49.64206" lon="-1.58859">
        <ele>5.3</ele>
        <time>2020-06-15T07:21:59Z</time>
      </trkpt>
      <trkpt lat="49.64206" lon="-1.58858">
        <ele>5.3</ele>
        <time>2020-06-15T07:22:00Z</time>
      </trkpt>
      <trkpt lat="49.64206" lon="-1.58858">
        <ele>5.4</ele>
        <time>2020-06-15T07:22:01Z</time>
      </trkpt>
      <trkpt lat="49.64206" lon="-1.58853">
        <ele>5.4</ele>
        <time>2020-06-15T07:22:02Z</time>
      </trkpt>
      <trkpt lat="49.64207" lon="-1.58851">
        <ele>5.4</ele>
        <time>2020-06-15T07:22:03Z</time>
      </trkpt>
      <trkpt lat="49.64209" lon="-1.58847">
        <ele>5.4</ele>
        <time>2020-06-15T07:22:04Z</time>
      </trkpt>
      <trkpt lat="49.6421" lon="-1.58845">
        <ele>5.4</ele>
        <time>2020-06-15T07:22:05Z</time>
      </trkpt>
      <trkpt lat="49.64212" lon="-1.58841">
        <ele>5.4</ele>
        <time>2020-06-15T07:22:06Z</time>
      </trkpt>
      <trkpt lat="49.64215" lon="-1.58834">
        <ele>5.5</ele>
        <time>2020-06-15T07:22:07Z</time>
      </trkpt>
      <trkpt lat="49.64217" lon="-1.58831">
        <ele>5.5</ele>
        <time>2020-06-15T07:22:08Z</time>
      </trkpt>
      <trkpt lat="49.6422" lon="-1.58828">
        <ele>5.5</ele>
        <time>2020-06-15T07:22:09Z</time>
      </trkpt>
      <trkpt lat="49.64222" lon="-1.58825">
        <ele>5.4</ele>
        <time>2020-06-15T07:22:10Z</time>
      </trkpt>
      <trkpt lat="49.64225" lon="-1.58823">
        <ele>5.4</ele>
        <time>2020-06-15T07:22:11Z</time>
      </trkpt>
      <trkpt lat="49.6423" lon="-1.58823">
        <ele>5.4</ele>
        <time>2020-06-15T07:22:12Z</time>
      </trkpt>
      <trkpt lat="49.64235" lon="-1.58824">
        <ele>5.3</ele>
        <time>2020-06-15T07:22:13Z</time>
      </trkpt>
      <trkpt lat="49.64241" lon="-1.58826">
        <ele>5.3</ele>
        <time>2020-06-15T07:22:14Z</time>
      </trkpt>
      <trkpt lat="49.64246" lon="-1.58829">
        <ele>5.3</ele>
        <time>2020-06-15T07:22:15Z</time>
      </trkpt>
      <trkpt lat="49.6425" lon="-1.58832">
        <ele>5.3</ele>
        <time>2020-06-15T07:22:16Z</time>
      </trkpt>
      <trkpt lat="49.64255" lon="-1.58835">
        <ele>5.3</ele>
        <time>2020-06-15T07:22:17Z</time>
      </trkpt>
      <trkpt lat="49.6426" lon="-1.58838">
        <ele>5.3</ele>
        <time>2020-06-15T07:22:18Z</time>
      </trkpt>
      <trkpt lat="49.64265" lon="-1.58841">
        <ele>5.3</ele>
        <time>2020-06-15T07:22:19Z</time>
      </trkpt>
      <trkpt lat="49.6427" lon="-1.58844">
        <ele>5.2</ele>
        <time>2020-06-15T07:22:20Z</time>
      </trkpt>
      <trkpt lat="49.64276" lon="-1.58847">
        <ele>5.1</ele>
        <time>2020-06-15T07:22:21Z</time>
      </trkpt>
      <trkpt lat="49.64281" lon="-1.5885">
        <ele>5</ele>
        <time>2020-06-15T07:22:22Z</time>
      </trkpt>
      <trkpt lat="49.64287" lon="-1.58854">
        <ele>5</ele>
        <time>2020-06-15T07:22:23Z</time>
      </trkpt>
      <trkpt lat="49.64292" lon="-1.58857">
        <ele>4.9</ele>
        <time>2020-06-15T07:22:24Z</time>
      </trkpt>
      <trkpt lat="49.64297" lon="-1.5886">
        <ele>4.8</ele>
        <time>2020-06-15T07:22:25Z</time>
      </trkpt>
      <trkpt lat="49.64303" lon="-1.58862">
        <ele>4.8</ele>
        <time>2020-06-15T07:22:26Z</time>
      </trkpt>
      <trkpt lat="49.64308" lon="-1.58865">
        <ele>4.7</ele>
        <time>2020-06-15T07:22:27Z</time>
      </trkpt>
      <trkpt lat="49.64311" lon="-1.58867">
        <ele>4.7</ele>
        <time>2020-06-15T07:22:28Z</time>
      </trkpt>
      <trkpt lat="49.64316" lon="-1.58869">
        <ele>4.6</ele>
        <time>2020-06-15T07:22:29Z</time>
      </trkpt>
      <trkpt lat="49.64321" lon="-1.58873">
        <ele>4.6</ele>
        <time>2020-06-15T07:22:30Z</time>
      </trkpt>
      <trkpt lat="49.64327" lon="-1.58875">
        <ele>4.6</ele>
        <time>2020-06-15T07:22:31Z</time>
      </trkpt>
      <trkpt lat="49.64332" lon="-1.58878">
        <ele>4.5</ele>
        <time>2020-06-15T07:22:32Z</time>
      </trkpt>
      <trkpt lat="49.64337" lon="-1.58881">
        <ele>4.5</ele>
        <time>2020-06-15T07:22:33Z</time>
      </trkpt>
      <trkpt lat="49.64342" lon="-1.58884">
        <ele>4.5</ele>
        <time>2020-06-15T07:22:34Z</time>
      </trkpt>
      <trkpt lat="49.64347" lon="-1.58887">
        <ele>4.4</ele>
        <time>2020-06-15T07:22:35Z</time>
      </trkpt>
      <trkpt lat="49.6435" lon="-1.58889">
        <ele>4.4</ele>
        <time>2020-06-15T07:22:36Z</time>
      </trkpt>
      <trkpt lat="49.64356" lon="-1.58893">
        <ele>4.3</ele>
        <time>2020-06-15T07:22:37Z</time>
      </trkpt>
      <trkpt lat="49.64361" lon="-1.58897">
        <ele>4.3</ele>
        <time>2020-06-15T07:22:38Z</time>
      </trkpt>
      <trkpt lat="49.64366" lon="-1.589">
        <ele>4.3</ele>
        <time>2020-06-15T07:22:39Z</time>
      </trkpt>
      <trkpt lat="49.64371" lon="-1.58902">
        <ele>4.2</ele>
        <time>2020-06-15T07:22:40Z</time>
      </trkpt>
      <trkpt lat="49.64376" lon="-1.58905">
        <ele>4.2</ele>
        <time>2020-06-15T07:22:41Z</time>
      </trkpt>
      <trkpt lat="49.64382" lon="-1.58908">
        <ele>4.2</ele>
        <time>2020-06-15T07:22:42Z</time>
      </trkpt>
      <trkpt lat="49.64387" lon="-1.58911">
        <ele>4.2</ele>
        <time>2020-06-15T07:22:43Z</time>
      </trkpt>
      <trkpt lat="49.64392" lon="-1.58914">
        <ele>4.2</ele>
        <time>2020-06-15T07:22:44Z</time>
      </trkpt>
      <trkpt lat="49.64396" lon="-1.58917">
        <ele>4.3</ele>
        <time>2020-06-15T07:22:45Z</time>
      </trkpt>
      <trkpt lat="49.64401" lon="-1.5892">
        <ele>4.3</ele>
        <time>2020-06-15T07:22:46Z</time>
      </trkpt>
      <trkpt lat="49.64407" lon="-1.58923">
        <ele>4.3</ele>
        <time>2020-06-15T07:22:47Z</time>
      </trkpt>
      <trkpt lat="49.64412" lon="-1.58926">
        <ele>4.4</ele>
        <time>2020-06-15T07:22:48Z</time>
      </trkpt>
      <trkpt lat="49.64417" lon="-1.5893">
        <ele>4.4</ele>
        <time>2020-06-15T07:22:49Z</time>
      </trkpt>
      <trkpt lat="49.64423" lon="-1.58933">
        <ele>4.4</ele>
        <time>2020-06-15T07:22:50Z</time>
      </trkpt>
      <trkpt lat="49.64428" lon="-1.58937">
        <ele>4.4</ele>
        <time>2020-06-15T07:22:51Z</time>
      </trkpt>
      <trkpt lat="49.64433" lon="-1.5894">
        <ele>4.3</ele>
        <time>2020-06-15T07:22:52Z</time>
      </trkpt>
      <trkpt lat="49.64438" lon="-1.58944">
        <ele>4.3</ele>
        <time>2020-06-15T07:22:53Z</time>
      </trkpt>
      <trkpt lat="49.64442" lon="-1.58947">
        <ele>4.3</ele>
        <time>2020-06-15T07:22:54Z</time>
      </trkpt>
      <trkpt lat="49.64447" lon="-1.58951">
        <ele>4.2</ele>
        <time>2020-06-15T07:22:55Z</time>
      </trkpt>
      <trkpt lat="49.64452" lon="-1.58954">
        <ele>4.2</ele>
        <time>2020-06-15T07:22:56Z</time>
      </trkpt>
      <trkpt lat="49.64458" lon="-1.58957">
        <ele>4.2</ele>
        <time>2020-06-15T07:22:57Z</time>
      </trkpt>
      <trkpt lat="49.64464" lon="-1.5896">
        <ele>4.1</ele>
        <time>2020-06-15T07:22:58Z</time>
      </trkpt>
      <trkpt lat="49.6447" lon="-1.58964">
        <ele>4.1</ele>
        <time>2020-06-15T07:22:59Z</time>
      </trkpt>
      <trkpt lat="49.64476" lon="-1.58967">
        <ele>4</ele>
        <time>2020-06-15T07:23:00Z</time>
      </trkpt>
      <trkpt lat="49.64481" lon="-1.5897">
        <ele>4</ele>
        <time>2020-06-15T07:23:01Z</time>
      </trkpt>
      <trkpt lat="49.64487" lon="-1.58974">
        <ele>4</ele>
        <time>2020-06-15T07:23:02Z</time>
      </trkpt>
      <trkpt lat="49.64491" lon="-1.58976">
        <ele>4</ele>
        <time>2020-06-15T07:23:03Z</time>
      </trkpt>
      <trkpt lat="49.64497" lon="-1.58978">
        <ele>4</ele>
        <time>2020-06-15T07:23:04Z</time>
      </trkpt>
      <trkpt lat="49.64502" lon="-1.5898">
        <ele>4</ele>
        <time>2020-06-15T07:23:05Z</time>
      </trkpt>
      <trkpt lat="49.64508" lon="-1.58983">
        <ele>4</ele>
        <time>2020-06-15T07:23:06Z</time>
      </trkpt>
      <trkpt lat="49.64514" lon="-1.58986">
        <ele>4.1</ele>
        <time>2020-06-15T07:23:07Z</time>
      </trkpt>
      <trkpt lat="49.64518" lon="-1.58989">
        <ele>4.1</ele>
        <time>2020-06-15T07:23:08Z</time>
      </trkpt>
      <trkpt lat="49.64524" lon="-1.58991">
        <ele>4.1</ele>
        <time>2020-06-15T07:23:09Z</time>
      </trkpt>
      <trkpt lat="49.6453" lon="-1.58994">
        <ele>4.1</ele>
        <time>2020-06-15T07:23:10Z</time>
      </trkpt>
      <trkpt lat="49.64535" lon="-1.58997">
        <ele>4.2</ele>
        <time>2020-06-15T07:23:11Z</time>
      </trkpt>
      <trkpt lat="49.64539" lon="-1.59001">
        <ele>4.2</ele>
        <time>2020-06-15T07:23:12Z</time>
      </trkpt>
      <trkpt lat="49.64544" lon="-1.59004">
        <ele>4.2</ele>
        <time>2020-06-15T07:23:13Z</time>
      </trkpt>
      <trkpt lat="49.6455" lon="-1.59008">
        <ele>4.2</ele>
        <time>2020-06-15T07:23:14Z</time>
      </trkpt>
      <trkpt lat="49.64555" lon="-1.59011">
        <ele>4.3</ele>
        <time>2020-06-15T07:23:15Z</time>
      </trkpt>
      <trkpt lat="49.64559" lon="-1.59014">
        <ele>4.3</ele>
        <time>2020-06-15T07:23:16Z</time>
      </trkpt>
      <trkpt lat="49.64564" lon="-1.59016">
        <ele>4.3</ele>
        <time>2020-06-15T07:23:17Z</time>
      </trkpt>
      <trkpt lat="49.6457" lon="-1.59019">
        <ele>4.4</ele>
        <time>2020-06-15T07:23:18Z</time>
      </trkpt>
      <trkpt lat="49.64574" lon="-1.59022">
        <ele>4.4</ele>
        <time>2020-06-15T07:23:19Z</time>
      </trkpt>
      <trkpt lat="49.6458" lon="-1.59023">
        <ele>4.5</ele>
        <time>2020-06-15T07:23:20Z</time>
      </trkpt>
      <trkpt lat="49.64585" lon="-1.59026">
        <ele>4.5</ele>
        <time>2020-06-15T07:23:21Z</time>
      </trkpt>
      <trkpt lat="49.6459" lon="-1.59029">
        <ele>4.5</ele>
        <time>2020-06-15T07:23:22Z</time>
      </trkpt>
      <trkpt lat="49.64594" lon="-1.59032">
        <ele>4.6</ele>
        <time>2020-06-15T07:23:23Z</time>
      </trkpt>
      <trkpt lat="49.64598" lon="-1.59035">
        <ele>4.6</ele>
        <time>2020-06-15T07:23:24Z</time>
      </trkpt>
      <trkpt lat="49.64603" lon="-1.59038">
        <ele>4.7</ele>
        <time>2020-06-15T07:23:25Z</time>
      </trkpt>
      <trkpt lat="49.64607" lon="-1.59042">
        <ele>4.7</ele>
        <time>2020-06-15T07:23:26Z</time>
      </trkpt>
      <trkpt lat="49.64611" lon="-1.59044">
        <ele>4.8</ele>
        <time>2020-06-15T07:23:27Z</time>
      </trkpt>
      <trkpt lat="49.64616" lon="-1.59046">
        <ele>4.8</ele>
        <time>2020-06-15T07:23:28Z</time>
      </trkpt>
      <trkpt lat="49.6462" lon="-1.59047">
        <ele>4.9</ele>
        <time>2020-06-15T07:23:29Z</time>
      </trkpt>
      <trkpt lat="49.64625" lon="-1.5905">
        <ele>4.9</ele>
        <time>2020-06-15T07:23:30Z</time>
      </trkpt>
      <trkpt lat="49.64631" lon="-1.59053">
        <ele>5</ele>
        <time>2020-06-15T07:23:31Z</time>
      </trkpt>
      <trkpt lat="49.64636" lon="-1.59056">
        <ele>5</ele>
        <time>2020-06-15T07:23:32Z</time>
      </trkpt>
      <trkpt lat="49.6464" lon="-1.59058">
        <ele>5</ele>
        <time>2020-06-15T07:23:33Z</time>
      </trkpt>
      <trkpt lat="49.64646" lon="-1.59058">
        <ele>5.1</ele>
        <time>2020-06-15T07:23:34Z</time>
      </trkpt>
      <trkpt lat="49.64652" lon="-1.59054">
        <ele>5</ele>
        <time>2020-06-15T07:23:35Z</time>
      </trkpt>
      <trkpt lat="49.64655" lon="-1.59044">
        <ele>5</ele>
        <time>2020-06-15T07:23:36Z</time>
      </trkpt>
      <trkpt lat="49.64659" lon="-1.59035">
        <ele>4.9</ele>
        <time>2020-06-15T07:23:37Z</time>
      </trkpt>
      <trkpt lat="49.64661" lon="-1.59027">
        <ele>4.9</ele>
        <time>2020-06-15T07:23:38Z</time>
      </trkpt>
      <trkpt lat="49.64664" lon="-1.5902">
        <ele>4.8</ele>
        <time>2020-06-15T07:23:39Z</time>
      </trkpt>
      <trkpt lat="49.64668" lon="-1.59012">
        <ele>4.8</ele>
        <time>2020-06-15T07:23:40Z</time>
      </trkpt>
      <trkpt lat="49.64671" lon="-1.59004">
        <ele>4.8</ele>
        <time>2020-06-15T07:23:41Z</time>
      </trkpt>
      <trkpt lat="49.64674" lon="-1.58996">
        <ele>4.8</ele>
        <time>2020-06-15T07:23:42Z</time>
      </trkpt>
      <trkpt lat="49.64676" lon="-1.58987">
        <ele>4.8</ele>
        <time>2020-06-15T07:23:43Z</time>
      </trkpt>
      <trkpt lat="49.64679" lon="-1.58978">
        <ele>4.8</ele>
        <time>2020-06-15T07:23:44Z</time>
      </trkpt>
      <trkpt lat="49.64682" lon="-1.5897">
        <ele>4.8</ele>
        <time>2020-06-15T07:23:45Z</time>
      </trkpt>
      <trkpt lat="49.64685" lon="-1.58962">
        <ele>4.8</ele>
        <time>2020-06-15T07:23:46Z</time>
      </trkpt>
      <trkpt lat="49.64687" lon="-1.58955">
        <ele>4.9</ele>
        <time>2020-06-15T07:23:47Z</time>
      </trkpt>
      <trkpt lat="49.6469" lon="-1.58948">
        <ele>4.9</ele>
        <time>2020-06-15T07:23:48Z</time>
      </trkpt>
      <trkpt lat="49.64693" lon="-1.5894">
        <ele>4.9</ele>
        <time>2020-06-15T07:23:49Z</time>
      </trkpt>
      <trkpt lat="49.64696" lon="-1.58933">
        <ele>4.9</ele>
        <time>2020-06-15T07:23:50Z</time>
      </trkpt>
      <trkpt lat="49.64699" lon="-1.58925">
        <ele>4.9</ele>
        <time>2020-06-15T07:23:51Z</time>
      </trkpt>
      <trkpt lat="49.64701" lon="-1.58918">
        <ele>4.9</ele>
        <time>2020-06-15T07:23:52Z</time>
      </trkpt>
      <trkpt lat="49.64704" lon="-1.58911">
        <ele>4.9</ele>
        <time>2020-06-15T07:23:53Z</time>
      </trkpt>
      <trkpt lat="49.64707" lon="-1.58905">
        <ele>4.9</ele>
        <time>2020-06-15T07:23:54Z</time>
      </trkpt>
      <trkpt lat="49.6471" lon="-1.58899">
        <ele>4.8</ele>
        <time>2020-06-15T07:23:55Z</time>
      </trkpt>
      <trkpt lat="49.64713" lon="-1.58892">
        <ele>4.8</ele>
        <time>2020-06-15T07:23:56Z</time>
      </trkpt>
      <trkpt lat="49.64716" lon="-1.58884">
        <ele>4.7</ele>
        <time>2020-06-15T07:23:57Z</time>
      </trkpt>
      <trkpt lat="49.64718" lon="-1.58878">
        <ele>4.7</ele>
        <time>2020-06-15T07:23:58Z</time>
      </trkpt>
      <trkpt lat="49.64721" lon="-1.58872">
        <ele>4.6</ele>
        <time>2020-06-15T07:23:59Z</time>
      </trkpt>
      <trkpt lat="49.64724" lon="-1.58865">
        <ele>4.6</ele>
        <time>2020-06-15T07:24:00Z</time>
      </trkpt>
      <trkpt lat="49.64727" lon="-1.58858">
        <ele>4.6</ele>
        <time>2020-06-15T07:24:01Z</time>
      </trkpt>
      <trkpt lat="49.6473" lon="-1.58852">
        <ele>4.5</ele>
        <time>2020-06-15T07:24:02Z</time>
      </trkpt>
      <trkpt lat="49.64733" lon="-1.58845">
        <ele>4.5</ele>
        <time>2020-06-15T07:24:03Z</time>
      </trkpt>
      <trkpt lat="49.64736" lon="-1.58837">
        <ele>4.5</ele>
        <time>2020-06-15T07:24:04Z</time>
      </trkpt>
      <trkpt lat="49.64739" lon="-1.5883">
        <ele>4.5</ele>
        <time>2020-06-15T07:24:05Z</time>
      </trkpt>
      <trkpt lat="49.64742" lon="-1.58824">
        <ele>4.5</ele>
        <time>2020-06-15T07:24:06Z</time>
      </trkpt>
      <trkpt lat="49.64745" lon="-1.58817">
        <ele>4.5</ele>
        <time>2020-06-15T07:24:07Z</time>
      </trkpt>
      <trkpt lat="49.64749" lon="-1.5881">
        <ele>4.5</ele>
        <time>2020-06-15T07:24:08Z</time>
      </trkpt>
      <trkpt lat="49.64753" lon="-1.58803">
        <ele>4.5</ele>
        <time>2020-06-15T07:24:09Z</time>
      </trkpt>
      <trkpt lat="49.64757" lon="-1.58796">
        <ele>4.4</ele>
        <time>2020-06-15T07:24:10Z</time>
      </trkpt>
      <trkpt lat="49.6476" lon="-1.58789">
        <ele>4.4</ele>
        <time>2020-06-15T07:24:11Z</time>
      </trkpt>
      <trkpt lat="49.64763" lon="-1.58783">
        <ele>4.4</ele>
        <time>2020-06-15T07:24:12Z</time>
      </trkpt>
      <trkpt lat="49.64766" lon="-1.58775">
        <ele>4.3</ele>
        <time>2020-06-15T07:24:13Z</time>
      </trkpt>
      <trkpt lat="49.64768" lon="-1.58768">
        <ele>4.3</ele>
        <time>2020-06-15T07:24:14Z</time>
      </trkpt>
      <trkpt lat="49.64771" lon="-1.58761">
        <ele>4.2</ele>
        <time>2020-06-15T07:24:15Z</time>
      </trkpt>
      <trkpt lat="49.64773" lon="-1.58755">
        <ele>4.2</ele>
        <time>2020-06-15T07:24:16Z</time>
      </trkpt>
      <trkpt lat="49.64775" lon="-1.58748">
        <ele>4.2</ele>
        <time>2020-06-15T07:24:17Z</time>
      </trkpt>
      <trkpt lat="49.64778" lon="-1.5874">
        <ele>4.2</ele>
        <time>2020-06-15T07:24:18Z</time>
      </trkpt>
      <trkpt lat="49.64781" lon="-1.58732">
        <ele>4.1</ele>
        <time>2020-06-15T07:24:19Z</time>
      </trkpt>
      <trkpt lat="49.64784" lon="-1.58724">
        <ele>4.1</ele>
        <time>2020-06-15T07:24:20Z</time>
      </trkpt>
      <trkpt lat="49.64787" lon="-1.58716">
        <ele>4.1</ele>
        <time>2020-06-15T07:24:21Z</time>
      </trkpt>
      <trkpt lat="49.6479" lon="-1.5871">
        <ele>4</ele>
        <time>2020-06-15T07:24:22Z</time>
      </trkpt>
      <trkpt lat="49.64793" lon="-1.58702">
        <ele>4</ele>
        <time>2020-06-15T07:24:23Z</time>
      </trkpt>
      <trkpt lat="49.64796" lon="-1.58693">
        <ele>4</ele>
        <time>2020-06-15T07:24:24Z</time>
      </trkpt>
      <trkpt lat="49.64798" lon="-1.58686">
        <ele>3.9</ele>
        <time>2020-06-15T07:24:25Z</time>
      </trkpt>
      <trkpt lat="49.64801" lon="-1.58678">
        <ele>3.9</ele>
        <time>2020-06-15T07:24:26Z</time>
      </trkpt>
      <trkpt lat="49.64804" lon="-1.58672">
        <ele>3.9</ele>
        <time>2020-06-15T07:24:27Z</time>
      </trkpt>
      <trkpt lat="49.64807" lon="-1.58665">
        <ele>3.9</ele>
        <time>2020-06-15T07:24:28Z</time>
      </trkpt>
      <trkpt lat="49.64808" lon="-1.5866">
        <ele>3.8</ele>
        <time>2020-06-15T07:24:29Z</time>
      </trkpt>
      <trkpt lat="49.64811" lon="-1.58655">
        <ele>3.8</ele>
        <time>2020-06-15T07:24:30Z</time>
      </trkpt>
      <trkpt lat="49.64813" lon="-1.58649">
        <ele>3.8</ele>
        <time>2020-06-15T07:24:31Z</time>
      </trkpt>
      <trkpt lat="49.64815" lon="-1.58643">
        <ele>3.8</ele>
        <time>2020-06-15T07:24:32Z</time>
      </trkpt>
      <trkpt lat="49.64818" lon="-1.58638">
        <ele>3.8</ele>
        <time>2020-06-15T07:24:33Z</time>
      </trkpt>
      <trkpt lat="49.64819" lon="-1.58634">
        <ele>3.7</ele>
        <time>2020-06-15T07:24:34Z</time>
      </trkpt>
      <trkpt lat="49.64822" lon="-1.58628">
        <ele>3.7</ele>
        <time>2020-06-15T07:24:35Z</time>
      </trkpt>
      <trkpt lat="49.64824" lon="-1.58623">
        <ele>3.7</ele>
        <time>2020-06-15T07:24:36Z</time>
      </trkpt>
      <trkpt lat="49.64825" lon="-1.58621">
        <ele>3.7</ele>
        <time>2020-06-15T07:24:37Z</time>
      </trkpt>
      <trkpt lat="49.64828" lon="-1.58618">
        <ele>3.7</ele>
        <time>2020-06-15T07:24:38Z</time>
      </trkpt>
      <trkpt lat="49.64832" lon="-1.58619">
        <ele>3.6</ele>
        <time>2020-06-15T07:24:39Z</time>
      </trkpt>
      <trkpt lat="49.64833" lon="-1.5862">
        <ele>3.6</ele>
        <time>2020-06-15T07:24:40Z</time>
      </trkpt>
      <trkpt lat="49.64839" lon="-1.58623">
        <ele>3.6</ele>
        <time>2020-06-15T07:24:41Z</time>
      </trkpt>
      <trkpt lat="49.64845" lon="-1.58626">
        <ele>3.6</ele>
        <time>2020-06-15T07:24:42Z</time>
      </trkpt>
      <trkpt lat="49.64849" lon="-1.5863">
        <ele>3.6</ele>
        <time>2020-06-15T07:24:43Z</time>
      </trkpt>
      <trkpt lat="49.64855" lon="-1.58633">
        <ele>3.6</ele>
        <time>2020-06-15T07:24:44Z</time>
      </trkpt>
      <trkpt lat="49.64859" lon="-1.58635">
        <ele>3.6</ele>
        <time>2020-06-15T07:24:45Z</time>
      </trkpt>
      <trkpt lat="49.64862" lon="-1.58638">
        <ele>3.5</ele>
        <time>2020-06-15T07:24:46Z</time>
      </trkpt>
      <trkpt lat="49.64867" lon="-1.58642">
        <ele>3.5</ele>
        <time>2020-06-15T07:24:47Z</time>
      </trkpt>
      <trkpt lat="49.64871" lon="-1.58645">
        <ele>3.5</ele>
        <time>2020-06-15T07:24:48Z</time>
      </trkpt>
      <trkpt lat="49.64873" lon="-1.58647">
        <ele>3.5</ele>
        <time>2020-06-15T07:24:49Z</time>
      </trkpt>
      <trkpt lat="49.64877" lon="-1.5865">
        <ele>3.5</ele>
        <time>2020-06-15T07:24:50Z</time>
      </trkpt>
      <trkpt lat="49.6488" lon="-1.58652">
        <ele>3.5</ele>
        <time>2020-06-15T07:24:51Z</time>
      </trkpt>
      <trkpt lat="49.64883" lon="-1.58655">
        <ele>3.5</ele>
        <time>2020-06-15T07:24:52Z</time>
      </trkpt>
      <trkpt lat="49.64887" lon="-1.58657">
        <ele>3.5</ele>
        <time>2020-06-15T07:24:53Z</time>
      </trkpt>
      <trkpt lat="49.64891" lon="-1.58659">
        <ele>3.5</ele>
        <time>2020-06-15T07:24:54Z</time>
      </trkpt>
      <trkpt lat="49.64892" lon="-1.5866">
        <ele>3.5</ele>
        <time>2020-06-15T07:24:55Z</time>
      </trkpt>
      <trkpt lat="49.64893" lon="-1.5866">
        <ele>3.5</ele>
        <time>2020-06-15T07:24:56Z</time>
      </trkpt>
      <trkpt lat="49.64894" lon="-1.58661">
        <ele>3.5</ele>
        <time>2020-06-15T07:24:57Z</time>
      </trkpt>
      <trkpt lat="49.64895" lon="-1.58662">
        <ele>3.5</ele>
        <time>2020-06-15T07:24:58Z</time>
      </trkpt>
      <trkpt lat="49.64895" lon="-1.58664">
        <ele>3.5</ele>
        <time>2020-06-15T07:24:59Z</time>
      </trkpt>
      <trkpt lat="49.64895" lon="-1.58664">
        <ele>3.5</ele>
        <time>2020-06-15T07:25:00Z</time>
      </trkpt>
      <trkpt lat="49.64895" lon="-1.58662">
        <ele>3.5</ele>
        <time>2020-06-15T07:25:01Z</time>
      </trkpt>
      <trkpt lat="49.64895" lon="-1.58663">
        <ele>3.5</ele>
        <time>2020-06-15T07:25:02Z</time>
      </trkpt>
      <trkpt lat="49.64895" lon="-1.58664">
        <ele>3.5</ele>
        <time>2020-06-15T07:25:03Z</time>
      </trkpt>
      <trkpt lat="49.64895" lon="-1.58664">
        <ele>3.5</ele>
        <time>2020-06-15T07:25:04Z</time>
      </trkpt>
      <trkpt lat="49.64895" lon="-1.58666">
        <ele>3.5</ele>
        <time>2020-06-15T07:25:05Z</time>
      </trkpt>
      <trkpt lat="49.64895" lon="-1.58665">
        <ele>3.5</ele>
        <time>2020-06-15T07:25:06Z</time>
      </trkpt>
      <trkpt lat="49.64894" lon="-1.58664">
        <ele>3.5</ele>
        <time>2020-06-15T07:25:07Z</time>
      </trkpt>
      <trkpt lat="49.64894" lon="-1.58664">
        <ele>3.5</ele>
        <time>2020-06-15T07:25:08Z</time>
      </trkpt>
      <trkpt lat="49.64894" lon="-1.58664">
        <ele>3.5</ele>
        <time>2020-06-15T07:25:09Z</time>
      </trkpt>
      <trkpt lat="49.64894" lon="-1.58664">
        <ele>3.5</ele>
        <time>2020-06-15T07:25:10Z</time>
      </trkpt>
      <trkpt lat="49.64904" lon="-1.58667">
        <ele>3.4</ele>
        <time>2020-06-15T07:27:31Z</time>
      </trkpt>
      <trkpt lat="49.64907" lon="-1.58668">
        <ele>3.4</ele>
        <time>2020-06-15T07:27:32Z</time>
      </trkpt>
      <trkpt lat="49.6491" lon="-1.5867">
        <ele>3.4</ele>
        <time>2020-06-15T07:27:33Z</time>
      </trkpt>
      <trkpt lat="49.64913" lon="-1.58671">
        <ele>3.4</ele>
        <time>2020-06-15T07:27:34Z</time>
      </trkpt>
      <trkpt lat="49.64915" lon="-1.58671">
        <ele>3.4</ele>
        <time>2020-06-15T07:27:35Z</time>
      </trkpt>
      <trkpt lat="49.64917" lon="-1.58668">
        <ele>3.4</ele>
        <time>2020-06-15T07:27:36Z</time>
      </trkpt>
      <trkpt lat="49.64918" lon="-1.58662">
        <ele>3.4</ele>
        <time>2020-06-15T07:27:37Z</time>
      </trkpt>
      <trkpt lat="49.6492" lon="-1.58655">
        <ele>3.4</ele>
        <time>2020-06-15T07:27:38Z</time>
      </trkpt>
      <trkpt lat="49.64921" lon="-1.58649">
        <ele>3.4</ele>
        <time>2020-06-15T07:27:39Z</time>
      </trkpt>
      <trkpt lat="49.64923" lon="-1.58645">
        <ele>3.4</ele>
        <time>2020-06-15T07:27:40Z</time>
      </trkpt>
      <trkpt lat="49.64924" lon="-1.58639">
        <ele>3.4</ele>
        <time>2020-06-15T07:27:41Z</time>
      </trkpt>
      <trkpt lat="49.64925" lon="-1.58637">
        <ele>3.4</ele>
        <time>2020-06-15T07:27:42Z</time>
      </trkpt>
      <trkpt lat="49.64927" lon="-1.5863">
        <ele>3.4</ele>
        <time>2020-06-15T07:27:43Z</time>
      </trkpt>
      <trkpt lat="49.64929" lon="-1.58625">
        <ele>3.4</ele>
        <time>2020-06-15T07:27:44Z</time>
      </trkpt>
      <trkpt lat="49.6493" lon="-1.58621">
        <ele>3.4</ele>
        <time>2020-06-15T07:27:45Z</time>
      </trkpt>
      <trkpt lat="49.64931" lon="-1.58616">
        <ele>3.4</ele>
        <time>2020-06-15T07:27:46Z</time>
      </trkpt>
      <trkpt lat="49.64932" lon="-1.5861">
        <ele>3.4</ele>
        <time>2020-06-15T07:27:47Z</time>
      </trkpt>
      <trkpt lat="49.64934" lon="-1.58605">
        <ele>3.4</ele>
        <time>2020-06-15T07:27:48Z</time>
      </trkpt>
      <trkpt lat="49.64934" lon="-1.58602">
        <ele>3.4</ele>
        <time>2020-06-15T07:27:49Z</time>
      </trkpt>
      <trkpt lat="49.64936" lon="-1.58597">
        <ele>3.4</ele>
        <time>2020-06-15T07:27:50Z</time>
      </trkpt>
      <trkpt lat="49.64938" lon="-1.58592">
        <ele>3.4</ele>
        <time>2020-06-15T07:27:51Z</time>
      </trkpt>
      <trkpt lat="49.64939" lon="-1.58586">
        <ele>3.4</ele>
        <time>2020-06-15T07:27:52Z</time>
      </trkpt>
      <trkpt lat="49.64941" lon="-1.5858">
        <ele>3.3</ele>
        <time>2020-06-15T07:27:53Z</time>
      </trkpt>
      <trkpt lat="49.64942" lon="-1.58573">
        <ele>3.3</ele>
        <time>2020-06-15T07:27:54Z</time>
      </trkpt>
      <trkpt lat="49.64944" lon="-1.58568">
        <ele>3.3</ele>
        <time>2020-06-15T07:27:55Z</time>
      </trkpt>
      <trkpt lat="49.64945" lon="-1.58563">
        <ele>3.3</ele>
        <time>2020-06-15T07:27:56Z</time>
      </trkpt>
      <trkpt lat="49.64947" lon="-1.58557">
        <ele>3.3</ele>
        <time>2020-06-15T07:27:57Z</time>
      </trkpt>
      <trkpt lat="49.64948" lon="-1.58551">
        <ele>3.3</ele>
        <time>2020-06-15T07:27:58Z</time>
      </trkpt>
      <trkpt lat="49.64948" lon="-1.58549">
        <ele>3.3</ele>
        <time>2020-06-15T07:27:59Z</time>
      </trkpt>
      <trkpt lat="49.6495" lon="-1.58545">
        <ele>3.3</ele>
        <time>2020-06-15T07:28:00Z</time>
      </trkpt>
      <trkpt lat="49.6495" lon="-1.58543">
        <ele>3.3</ele>
        <time>2020-06-15T07:28:01Z</time>
      </trkpt>
      <trkpt lat="49.64951" lon="-1.58542">
        <ele>3.3</ele>
        <time>2020-06-15T07:28:02Z</time>
      </trkpt>
      <trkpt lat="49.64951" lon="-1.5854">
        <ele>3.3</ele>
        <time>2020-06-15T07:28:03Z</time>
      </trkpt>
      <trkpt lat="49.64952" lon="-1.58539">
        <ele>3.3</ele>
        <time>2020-06-15T07:28:04Z</time>
      </trkpt>
      <trkpt lat="49.64956" lon="-1.58542">
        <ele>3.3</ele>
        <time>2020-06-15T07:28:05Z</time>
      </trkpt>
      <trkpt lat="49.64958" lon="-1.58544">
        <ele>3.3</ele>
        <time>2020-06-15T07:28:06Z</time>
      </trkpt>
      <trkpt lat="49.64962" lon="-1.58546">
        <ele>3.3</ele>
        <time>2020-06-15T07:28:07Z</time>
      </trkpt>
      <trkpt lat="49.64966" lon="-1.58549">
        <ele>3.4</ele>
        <time>2020-06-15T07:28:08Z</time>
      </trkpt>
      <trkpt lat="49.64971" lon="-1.58552">
        <ele>3.4</ele>
        <time>2020-06-15T07:28:09Z</time>
      </trkpt>
      <trkpt lat="49.64974" lon="-1.58555">
        <ele>3.4</ele>
        <time>2020-06-15T07:28:10Z</time>
      </trkpt>
      <trkpt lat="49.64978" lon="-1.58558">
        <ele>3.4</ele>
        <time>2020-06-15T07:28:11Z</time>
      </trkpt>
      <trkpt lat="49.64983" lon="-1.58561">
        <ele>3.5</ele>
        <time>2020-06-15T07:28:12Z</time>
      </trkpt>
      <trkpt lat="49.64988" lon="-1.58564">
        <ele>3.6</ele>
        <time>2020-06-15T07:28:13Z</time>
      </trkpt>
      <trkpt lat="49.64992" lon="-1.58567">
        <ele>3.6</ele>
        <time>2020-06-15T07:28:14Z</time>
      </trkpt>
      <trkpt lat="49.64996" lon="-1.5857">
        <ele>3.7</ele>
        <time>2020-06-15T07:28:15Z</time>
      </trkpt>
      <trkpt lat="49.65" lon="-1.58573">
        <ele>3.7</ele>
        <time>2020-06-15T07:28:16Z</time>
      </trkpt>
      <trkpt lat="49.65004" lon="-1.58577">
        <ele>3.8</ele>
        <time>2020-06-15T07:28:17Z</time>
      </trkpt>
      <trkpt lat="49.65007" lon="-1.58579">
        <ele>3.9</ele>
        <time>2020-06-15T07:28:18Z</time>
      </trkpt>
      <trkpt lat="49.65012" lon="-1.58581">
        <ele>3.9</ele>
        <time>2020-06-15T07:28:19Z</time>
      </trkpt>
      <trkpt lat="49.65017" lon="-1.5858">
        <ele>3.8</ele>
        <time>2020-06-15T07:28:20Z</time>
      </trkpt>
      <trkpt lat="49.65021" lon="-1.58573">
        <ele>3.8</ele>
        <time>2020-06-15T07:28:21Z</time>
      </trkpt>
      <trkpt lat="49.65026" lon="-1.58567">
        <ele>3.8</ele>
        <time>2020-06-15T07:28:22Z</time>
      </trkpt>
      <trkpt lat="49.65029" lon="-1.58562">
        <ele>3.8</ele>
        <time>2020-06-15T07:28:23Z</time>
      </trkpt>
      <trkpt lat="49.65032" lon="-1.58556">
        <ele>3.8</ele>
        <time>2020-06-15T07:28:24Z</time>
      </trkpt>
      <trkpt lat="49.65035" lon="-1.5855">
        <ele>3.8</ele>
        <time>2020-06-15T07:28:25Z</time>
      </trkpt>
      <trkpt lat="49.65039" lon="-1.58543">
        <ele>3.8</ele>
        <time>2020-06-15T07:28:26Z</time>
      </trkpt>
      <trkpt lat="49.65042" lon="-1.58537">
        <ele>3.8</ele>
        <time>2020-06-15T07:28:27Z</time>
      </trkpt>
      <trkpt lat="49.65046" lon="-1.58531">
        <ele>3.8</ele>
        <time>2020-06-15T07:28:28Z</time>
      </trkpt>
      <trkpt lat="49.6505" lon="-1.58525">
        <ele>3.8</ele>
        <time>2020-06-15T07:28:29Z</time>
      </trkpt>
      <trkpt lat="49.65053" lon="-1.58518">
        <ele>3.8</ele>
        <time>2020-06-15T07:28:30Z</time>
      </trkpt>
      <trkpt lat="49.65056" lon="-1.58511">
        <ele>3.8</ele>
        <time>2020-06-15T07:28:31Z</time>
      </trkpt>
      <trkpt lat="49.65059" lon="-1.58504">
        <ele>3.7</ele>
        <time>2020-06-15T07:28:32Z</time>
      </trkpt>
      <trkpt lat="49.65063" lon="-1.58498">
        <ele>3.7</ele>
        <time>2020-06-15T07:28:33Z</time>
      </trkpt>
      <trkpt lat="49.65066" lon="-1.58492">
        <ele>3.7</ele>
        <time>2020-06-15T07:28:34Z</time>
      </trkpt>
      <trkpt lat="49.65069" lon="-1.58486">
        <ele>3.6</ele>
        <time>2020-06-15T07:28:35Z</time>
      </trkpt>
      <trkpt lat="49.65073" lon="-1.5848">
        <ele>3.6</ele>
        <time>2020-06-15T07:28:36Z</time>
      </trkpt>
      <trkpt lat="49.65076" lon="-1.58473">
        <ele>3.6</ele>
        <time>2020-06-15T07:28:37Z</time>
      </trkpt>
      <trkpt lat="49.65079" lon="-1.58466">
        <ele>3.5</ele>
        <time>2020-06-15T07:28:38Z</time>
      </trkpt>
      <trkpt lat="49.65083" lon="-1.58459">
        <ele>3.5</ele>
        <time>2020-06-15T07:28:39Z</time>
      </trkpt>
      <trkpt lat="49.65087" lon="-1.58451">
        <ele>3.5</ele>
        <time>2020-06-15T07:28:40Z</time>
      </trkpt>
      <trkpt lat="49.6509" lon="-1.58444">
        <ele>3.5</ele>
        <time>2020-06-15T07:28:41Z</time>
      </trkpt>
      <trkpt lat="49.65093" lon="-1.58437">
        <ele>3.5</ele>
        <time>2020-06-15T07:28:42Z</time>
      </trkpt>
      <trkpt lat="49.65095" lon="-1.58431">
        <ele>3.4</ele>
        <time>2020-06-15T07:28:43Z</time>
      </trkpt>
      <trkpt lat="49.65098" lon="-1.58425">
        <ele>3.4</ele>
        <time>2020-06-15T07:28:44Z</time>
      </trkpt>
      <trkpt lat="49.65101" lon="-1.58419">
        <ele>3.4</ele>
        <time>2020-06-15T07:28:45Z</time>
      </trkpt>
      <trkpt lat="49.65105" lon="-1.58412">
        <ele>3.3</ele>
        <time>2020-06-15T07:28:46Z</time>
      </trkpt>
      <trkpt lat="49.65108" lon="-1.58406">
        <ele>3.3</ele>
        <time>2020-06-15T07:28:47Z</time>
      </trkpt>
      <trkpt lat="49.65111" lon="-1.58402">
        <ele>3.3</ele>
        <time>2020-06-15T07:28:48Z</time>
      </trkpt>
      <trkpt lat="49.65113" lon="-1.58399">
        <ele>3.3</ele>
        <time>2020-06-15T07:28:49Z</time>
      </trkpt>
      <trkpt lat="49.65116" lon="-1.58399">
        <ele>3.2</ele>
        <time>2020-06-15T07:28:50Z</time>
      </trkpt>
      <trkpt lat="49.65117" lon="-1.584">
        <ele>3.2</ele>
        <time>2020-06-15T07:28:51Z</time>
      </trkpt>
      <trkpt lat="49.65119" lon="-1.58402">
        <ele>3.2</ele>
        <time>2020-06-15T07:28:52Z</time>
      </trkpt>
      <trkpt lat="49.6512" lon="-1.58403">
        <ele>3.2</ele>
        <time>2020-06-15T07:28:53Z</time>
      </trkpt>
      <trkpt lat="49.65123" lon="-1.58406">
        <ele>3.2</ele>
        <time>2020-06-15T07:28:54Z</time>
      </trkpt>
      <trkpt lat="49.65124" lon="-1.58407">
        <ele>3.2</ele>
        <time>2020-06-15T07:28:55Z</time>
      </trkpt>
      <trkpt lat="49.65126" lon="-1.58409">
        <ele>3.2</ele>
        <time>2020-06-15T07:28:56Z</time>
      </trkpt>
      <trkpt lat="49.65129" lon="-1.58412">
        <ele>3.2</ele>
        <time>2020-06-15T07:28:57Z</time>
      </trkpt>
      <trkpt lat="49.65133" lon="-1.58415">
        <ele>3.2</ele>
        <time>2020-06-15T07:28:58Z</time>
      </trkpt>
      <trkpt lat="49.65137" lon="-1.58417">
        <ele>3.2</ele>
        <time>2020-06-15T07:28:59Z</time>
      </trkpt>
      <trkpt lat="49.6514" lon="-1.58419">
        <ele>3.2</ele>
        <time>2020-06-15T07:29:00Z</time>
      </trkpt>
      <trkpt lat="49.65143" lon="-1.58422">
        <ele>3.2</ele>
        <time>2020-06-15T07:29:01Z</time>
      </trkpt>
      <trkpt lat="49.65146" lon="-1.58426">
        <ele>3.2</ele>
        <time>2020-06-15T07:29:02Z</time>
      </trkpt>
      <trkpt lat="49.65149" lon="-1.5843">
        <ele>3.2</ele>
        <time>2020-06-15T07:29:03Z</time>
      </trkpt>
      <trkpt lat="49.65152" lon="-1.58433">
        <ele>3.2</ele>
        <time>2020-06-15T07:29:04Z</time>
      </trkpt>
      <trkpt lat="49.65155" lon="-1.58435">
        <ele>3.2</ele>
        <time>2020-06-15T07:29:05Z</time>
      </trkpt>
      <trkpt lat="49.65158" lon="-1.58436">
        <ele>3.2</ele>
        <time>2020-06-15T07:29:06Z</time>
      </trkpt>
      <trkpt lat="49.65162" lon="-1.58436">
        <ele>3.2</ele>
        <time>2020-06-15T07:29:07Z</time>
      </trkpt>
      <trkpt lat="49.65165" lon="-1.58436">
        <ele>3.3</ele>
        <time>2020-06-15T07:29:08Z</time>
      </trkpt>
      <trkpt lat="49.65168" lon="-1.58435">
        <ele>3.3</ele>
        <time>2020-06-15T07:29:09Z</time>
      </trkpt>
      <trkpt lat="49.65171" lon="-1.58433">
        <ele>3.3</ele>
        <time>2020-06-15T07:29:10Z</time>
      </trkpt>
      <trkpt lat="49.65172" lon="-1.58433">
        <ele>3.3</ele>
        <time>2020-06-15T07:29:11Z</time>
      </trkpt>
      <trkpt lat="49.65173" lon="-1.58433">
        <ele>3.3</ele>
        <time>2020-06-15T07:29:12Z</time>
      </trkpt>
      <trkpt lat="49.65175" lon="-1.58433">
        <ele>3.3</ele>
        <time>2020-06-15T07:29:13Z</time>
      </trkpt>
      <trkpt lat="49.65177" lon="-1.58432">
        <ele>3.3</ele>
        <time>2020-06-15T07:29:14Z</time>
      </trkpt>
      <trkpt lat="49.65178" lon="-1.58432">
        <ele>3.3</ele>
        <time>2020-06-15T07:29:15Z</time>
      </trkpt>
      <trkpt lat="49.65179" lon="-1.58433">
        <ele>3.3</ele>
        <time>2020-06-15T07:29:16Z</time>
      </trkpt>
      <trkpt lat="49.6518" lon="-1.58433">
        <ele>3.3</ele>
        <time>2020-06-15T07:29:17Z</time>
      </trkpt>
      <trkpt lat="49.6518" lon="-1.58434">
        <ele>3.3</ele>
        <time>2020-06-15T07:29:18Z</time>
      </trkpt>
      <trkpt lat="49.6518" lon="-1.58434">
        <ele>3.3</ele>
        <time>2020-06-15T07:29:19Z</time>
      </trkpt>
      <trkpt lat="49.65181" lon="-1.58434">
        <ele>3.3</ele>
        <time>2020-06-15T07:29:20Z</time>
      </trkpt>
      <trkpt lat="49.65181" lon="-1.58435">
        <ele>3.3</ele>
        <time>2020-06-15T07:29:21Z</time>
      </trkpt>
      <trkpt lat="49.65181" lon="-1.58435">
        <ele>3.3</ele>
        <time>2020-06-15T07:29:22Z</time>
      </trkpt>
      <trkpt lat="49.65181" lon="-1.58436">
        <ele>3.4</ele>
        <time>2020-06-15T07:29:23Z</time>
      </trkpt>
      <trkpt lat="49.65182" lon="-1.58436">
        <ele>3.4</ele>
        <time>2020-06-15T07:29:24Z</time>
      </trkpt>
      <trkpt lat="49.65182" lon="-1.58437">
        <ele>3.4</ele>
        <time>2020-06-15T07:29:25Z</time>
      </trkpt>
      <trkpt lat="49.65182" lon="-1.58437">
        <ele>3.4</ele>
        <time>2020-06-15T07:29:26Z</time>
      </trkpt>
      <trkpt lat="49.65183" lon="-1.58438">
        <ele>3.4</ele>
        <time>2020-06-15T07:30:21Z</time>
      </trkpt>
      <trkpt lat="49.65183" lon="-1.58438">
        <ele>3.4</ele>
        <time>2020-06-15T07:30:22Z</time>
      </trkpt>
      <trkpt lat="49.65187" lon="-1.5844">
        <ele>3.4</ele>
        <time>2020-06-15T07:30:23Z</time>
      </trkpt>
      <trkpt lat="49.65188" lon="-1.5844">
        <ele>3.4</ele>
        <time>2020-06-15T07:30:24Z</time>
      </trkpt>
      <trkpt lat="49.65191" lon="-1.58441">
        <ele>3.4</ele>
        <time>2020-06-15T07:30:25Z</time>
      </trkpt>
      <trkpt lat="49.65192" lon="-1.58442">
        <ele>3.4</ele>
        <time>2020-06-15T07:30:26Z</time>
      </trkpt>
      <trkpt lat="49.65193" lon="-1.58442">
        <ele>3.4</ele>
        <time>2020-06-15T07:30:27Z</time>
      </trkpt>
      <trkpt lat="49.65195" lon="-1.58443">
        <ele>3.4</ele>
        <time>2020-06-15T07:30:28Z</time>
      </trkpt>
      <trkpt lat="49.65197" lon="-1.58443">
        <ele>3.4</ele>
        <time>2020-06-15T07:30:29Z</time>
      </trkpt>
      <trkpt lat="49.65198" lon="-1.58443">
        <ele>3.4</ele>
        <time>2020-06-15T07:30:30Z</time>
      </trkpt>
      <trkpt lat="49.65199" lon="-1.58443">
        <ele>3.4</ele>
        <time>2020-06-15T07:30:31Z</time>
      </trkpt>
      <trkpt lat="49.652" lon="-1.58444">
        <ele>3.4</ele>
        <time>2020-06-15T07:30:32Z</time>
      </trkpt>
      <trkpt lat="49.65201" lon="-1.58445">
        <ele>3.4</ele>
        <time>2020-06-15T07:30:33Z</time>
      </trkpt>
      <trkpt lat="49.65202" lon="-1.58446">
        <ele>3.4</ele>
        <time>2020-06-15T07:30:34Z</time>
      </trkpt>
      <trkpt lat="49.65204" lon="-1.58448">
        <ele>3.4</ele>
        <time>2020-06-15T07:30:35Z</time>
      </trkpt>
      <trkpt lat="49.65205" lon="-1.58449">
        <ele>3.4</ele>
        <time>2020-06-15T07:30:36Z</time>
      </trkpt>
      <trkpt lat="49.65207" lon="-1.58449">
        <ele>3.4</ele>
        <time>2020-06-15T07:30:37Z</time>
      </trkpt>
      <trkpt lat="49.65209" lon="-1.58448">
        <ele>3.4</ele>
        <time>2020-06-15T07:30:38Z</time>
      </trkpt>
      <trkpt lat="49.65209" lon="-1.58448">
        <ele>3.4</ele>
        <time>2020-06-15T07:30:39Z</time>
      </trkpt>
      <trkpt lat="49.6521" lon="-1.58449">
        <ele>3.4</ele>
        <time>2020-06-15T07:30:40Z</time>
      </trkpt>
      <trkpt lat="49.65212" lon="-1.5845">
        <ele>3.4</ele>
        <time>2020-06-15T07:30:41Z</time>
      </trkpt>
      <trkpt lat="49.65214" lon="-1.58453">
        <ele>3.4</ele>
        <time>2020-06-15T07:30:42Z</time>
      </trkpt>
      <trkpt lat="49.65215" lon="-1.58455">
        <ele>3.4</ele>
        <time>2020-06-15T07:30:43Z</time>
      </trkpt>
      <trkpt lat="49.65217" lon="-1.58459">
        <ele>3.4</ele>
        <time>2020-06-15T07:30:44Z</time>
      </trkpt>
      <trkpt lat="49.65218" lon="-1.58461">
        <ele>3.4</ele>
        <time>2020-06-15T07:30:45Z</time>
      </trkpt>
      <trkpt lat="49.65222" lon="-1.58466">
        <ele>3.4</ele>
        <time>2020-06-15T07:30:46Z</time>
      </trkpt>
      <trkpt lat="49.65227" lon="-1.58469">
        <ele>3.4</ele>
        <time>2020-06-15T07:30:47Z</time>
      </trkpt>
      <trkpt lat="49.65231" lon="-1.58472">
        <ele>3.4</ele>
        <time>2020-06-15T07:30:48Z</time>
      </trkpt>
      <trkpt lat="49.65235" lon="-1.58474">
        <ele>3.4</ele>
        <time>2020-06-15T07:30:49Z</time>
      </trkpt>
      <trkpt lat="49.65238" lon="-1.58477">
        <ele>3.4</ele>
        <time>2020-06-15T07:30:50Z</time>
      </trkpt>
      <trkpt lat="49.65242" lon="-1.58479">
        <ele>3.4</ele>
        <time>2020-06-15T07:30:51Z</time>
      </trkpt>
      <trkpt lat="49.65244" lon="-1.58481">
        <ele>3.4</ele>
        <time>2020-06-15T07:30:52Z</time>
      </trkpt>
      <trkpt lat="49.65247" lon="-1.58483">
        <ele>3.4</ele>
        <time>2020-06-15T07:30:53Z</time>
      </trkpt>
      <trkpt lat="49.6525" lon="-1.58486">
        <ele>3.4</ele>
        <time>2020-06-15T07:30:54Z</time>
      </trkpt>
      <trkpt lat="49.65253" lon="-1.58489">
        <ele>3.5</ele>
        <time>2020-06-15T07:30:55Z</time>
      </trkpt>
      <trkpt lat="49.65256" lon="-1.5849">
        <ele>3.5</ele>
        <time>2020-06-15T07:30:56Z</time>
      </trkpt>
      <trkpt lat="49.65259" lon="-1.58491">
        <ele>3.5</ele>
        <time>2020-06-15T07:30:57Z</time>
      </trkpt>
      <trkpt lat="49.65262" lon="-1.58492">
        <ele>3.5</ele>
        <time>2020-06-15T07:30:58Z</time>
      </trkpt>
      <trkpt lat="49.65265" lon="-1.58494">
        <ele>3.5</ele>
        <time>2020-06-15T07:30:59Z</time>
      </trkpt>
      <trkpt lat="49.65267" lon="-1.58497">
        <ele>3.5</ele>
        <time>2020-06-15T07:31:00Z</time>
      </trkpt>
      <trkpt lat="49.65269" lon="-1.58501">
        <ele>3.5</ele>
        <time>2020-06-15T07:31:01Z</time>
      </trkpt>
      <trkpt lat="49.65271" lon="-1.58504">
        <ele>3.5</ele>
        <time>2020-06-15T07:31:02Z</time>
      </trkpt>
      <trkpt lat="49.65273" lon="-1.58508">
        <ele>3.5</ele>
        <time>2020-06-15T07:31:03Z</time>
      </trkpt>
      <trkpt lat="49.65276" lon="-1.58511">
        <ele>3.5</ele>
        <time>2020-06-15T07:31:04Z</time>
      </trkpt>
      <trkpt lat="49.65279" lon="-1.58514">
        <ele>3.5</ele>
        <time>2020-06-15T07:31:05Z</time>
      </trkpt>
      <trkpt lat="49.6528" lon="-1.58516">
        <ele>3.5</ele>
        <time>2020-06-15T07:31:06Z</time>
      </trkpt>
      <trkpt lat="49.65282" lon="-1.58519">
        <ele>3.5</ele>
        <time>2020-06-15T07:31:07Z</time>
      </trkpt>
      <trkpt lat="49.65285" lon="-1.58521">
        <ele>3.6</ele>
        <time>2020-06-15T07:31:08Z</time>
      </trkpt>
      <trkpt lat="49.65288" lon="-1.58522">
        <ele>3.6</ele>
        <time>2020-06-15T07:31:09Z</time>
      </trkpt>
      <trkpt lat="49.65291" lon="-1.58525">
        <ele>3.6</ele>
        <time>2020-06-15T07:31:10Z</time>
      </trkpt>
      <trkpt lat="49.65294" lon="-1.58528">
        <ele>3.7</ele>
        <time>2020-06-15T07:31:11Z</time>
      </trkpt>
      <trkpt lat="49.65298" lon="-1.58532">
        <ele>3.7</ele>
        <time>2020-06-15T07:31:12Z</time>
      </trkpt>
      <trkpt lat="49.653" lon="-1.58536">
        <ele>3.8</ele>
        <time>2020-06-15T07:31:13Z</time>
      </trkpt>
      <trkpt lat="49.65302" lon="-1.58539">
        <ele>3.8</ele>
        <time>2020-06-15T07:31:14Z</time>
      </trkpt>
      <trkpt lat="49.65305" lon="-1.58542">
        <ele>3.8</ele>
        <time>2020-06-15T07:31:15Z</time>
      </trkpt>
      <trkpt lat="49.65307" lon="-1.58545">
        <ele>3.8</ele>
        <time>2020-06-15T07:31:16Z</time>
      </trkpt>
      <trkpt lat="49.65308" lon="-1.58549">
        <ele>3.8</ele>
        <time>2020-06-15T07:31:17Z</time>
      </trkpt>
      <trkpt lat="49.6531" lon="-1.58552">
        <ele>3.8</ele>
        <time>2020-06-15T07:31:18Z</time>
      </trkpt>
      <trkpt lat="49.65313" lon="-1.58555">
        <ele>3.8</ele>
        <time>2020-06-15T07:31:19Z</time>
      </trkpt>
      <trkpt lat="49.65313" lon="-1.58556">
        <ele>3.8</ele>
        <time>2020-06-15T07:31:20Z</time>
      </trkpt>
      <trkpt lat="49.65316" lon="-1.58559">
        <ele>3.8</ele>
        <time>2020-06-15T07:31:21Z</time>
      </trkpt>
      <trkpt lat="49.65319" lon="-1.5856">
        <ele>3.8</ele>
        <time>2020-06-15T07:31:22Z</time>
      </trkpt>
      <trkpt lat="49.6532" lon="-1.58561">
        <ele>3.8</ele>
        <time>2020-06-15T07:31:23Z</time>
      </trkpt>
      <trkpt lat="49.65321" lon="-1.58561">
        <ele>3.8</ele>
        <time>2020-06-15T07:31:24Z</time>
      </trkpt>
      <trkpt lat="49.65322" lon="-1.58562">
        <ele>3.9</ele>
        <time>2020-06-15T07:31:25Z</time>
      </trkpt>
      <trkpt lat="49.65323" lon="-1.58563">
        <ele>3.9</ele>
        <time>2020-06-15T07:31:26Z</time>
      </trkpt>
      <trkpt lat="49.65322" lon="-1.58563">
        <ele>3.9</ele>
        <time>2020-06-15T07:31:27Z</time>
      </trkpt>
      <trkpt lat="49.65322" lon="-1.58563">
        <ele>3.9</ele>
        <time>2020-06-15T07:31:28Z</time>
      </trkpt>
      <trkpt lat="49.65321" lon="-1.58562">
        <ele>3.9</ele>
        <time>2020-06-15T07:31:29Z</time>
      </trkpt>
      <trkpt lat="49.65321" lon="-1.58562">
        <ele>3.9</ele>
        <time>2020-06-15T07:31:30Z</time>
      </trkpt>
      <trkpt lat="49.65321" lon="-1.58561">
        <ele>3.9</ele>
        <time>2020-06-15T07:31:31Z</time>
      </trkpt>
      <trkpt lat="49.6532" lon="-1.58561">
        <ele>3.9</ele>
        <time>2020-06-15T07:31:32Z</time>
      </trkpt>
      <trkpt lat="49.6532" lon="-1.58561">
        <ele>3.9</ele>
        <time>2020-06-15T07:31:33Z</time>
      </trkpt>
      <trkpt lat="49.65319" lon="-1.5856">
        <ele>3.9</ele>
        <time>2020-06-15T07:31:34Z</time>
      </trkpt>
      <trkpt lat="49.65319" lon="-1.5856">
        <ele>3.9</ele>
        <time>2020-06-15T07:31:35Z</time>
      </trkpt>
      <trkpt lat="49.65318" lon="-1.5856">
        <ele>3.9</ele>
        <time>2020-06-15T07:31:36Z</time>
      </trkpt>
      <trkpt lat="49.65318" lon="-1.58559">
        <ele>3.9</ele>
        <time>2020-06-15T07:31:37Z</time>
      </trkpt>
      <trkpt lat="49.65317" lon="-1.58559">
        <ele>3.9</ele>
        <time>2020-06-15T07:38:03Z</time>
      </trkpt>
      <trkpt lat="49.65317" lon="-1.58559">
        <ele>3.9</ele>
        <time>2020-06-15T07:38:04Z</time>
      </trkpt>
      <trkpt lat="49.65316" lon="-1.58558">
        <ele>3.9</ele>
        <time>2020-06-15T07:38:05Z</time>
      </trkpt>
      <trkpt lat="49.65313" lon="-1.58556">
        <ele>3.9</ele>
        <time>2020-06-15T07:38:06Z</time>
      </trkpt>
      <trkpt lat="49.65312" lon="-1.58555">
        <ele>3.9</ele>
        <time>2020-06-15T07:38:07Z</time>
      </trkpt>
      <trkpt lat="49.6531" lon="-1.58551">
        <ele>3.8</ele>
        <time>2020-06-15T07:38:08Z</time>
      </trkpt>
      <trkpt lat="49.65309" lon="-1.5855">
        <ele>3.8</ele>
        <time>2020-06-15T07:38:09Z</time>
      </trkpt>
      <trkpt lat="49.65306" lon="-1.58548">
        <ele>3.8</ele>
        <time>2020-06-15T07:38:10Z</time>
      </trkpt>
      <trkpt lat="49.65304" lon="-1.58546">
        <ele>3.8</ele>
        <time>2020-06-15T07:38:11Z</time>
      </trkpt>
      <trkpt lat="49.65302" lon="-1.58543">
        <ele>3.8</ele>
        <time>2020-06-15T07:38:12Z</time>
      </trkpt>
      <trkpt lat="49.653" lon="-1.5854">
        <ele>3.8</ele>
        <time>2020-06-15T07:38:13Z</time>
      </trkpt>
      <trkpt lat="49.65296" lon="-1.58537">
        <ele>3.8</ele>
        <time>2020-06-15T07:38:14Z</time>
      </trkpt>
      <trkpt lat="49.65295" lon="-1.58536">
        <ele>3.8</ele>
        <time>2020-06-15T07:38:15Z</time>
      </trkpt>
      <trkpt lat="49.65292" lon="-1.58533">
        <ele>3.8</ele>
        <time>2020-06-15T07:38:16Z</time>
      </trkpt>
      <trkpt lat="49.65291" lon="-1.58532">
        <ele>3.8</ele>
        <time>2020-06-15T07:38:17Z</time>
      </trkpt>
      <trkpt lat="49.65288" lon="-1.58529">
        <ele>3.7</ele>
        <time>2020-06-15T07:38:18Z</time>
      </trkpt>
      <trkpt lat="49.65286" lon="-1.58525">
        <ele>3.7</ele>
        <time>2020-06-15T07:38:19Z</time>
      </trkpt>
      <trkpt lat="49.65283" lon="-1.58522">
        <ele>3.7</ele>
        <time>2020-06-15T07:38:20Z</time>
      </trkpt>
      <trkpt lat="49.6528" lon="-1.5852">
        <ele>3.6</ele>
        <time>2020-06-15T07:38:21Z</time>
      </trkpt>
      <trkpt lat="49.65277" lon="-1.58517">
        <ele>3.6</ele>
        <time>2020-06-15T07:38:22Z</time>
      </trkpt>
      <trkpt lat="49.65275" lon="-1.58514">
        <ele>3.5</ele>
        <time>2020-06-15T07:38:23Z</time>
      </trkpt>
      <trkpt lat="49.65272" lon="-1.58512">
        <ele>3.5</ele>
        <time>2020-06-15T07:38:24Z</time>
      </trkpt>
      <trkpt lat="49.65269" lon="-1.58509">
        <ele>3.5</ele>
        <time>2020-06-15T07:38:25Z</time>
      </trkpt>
      <trkpt lat="49.65267" lon="-1.58506">
        <ele>3.5</ele>
        <time>2020-06-15T07:38:26Z</time>
      </trkpt>
      <trkpt lat="49.65264" lon="-1.58504">
        <ele>3.5</ele>
        <time>2020-06-15T07:38:27Z</time>
      </trkpt>
      <trkpt lat="49.65262" lon="-1.58501">
        <ele>3.5</ele>
        <time>2020-06-15T07:38:28Z</time>
      </trkpt>
      <trkpt lat="49.65259" lon="-1.58498">
        <ele>3.5</ele>
        <time>2020-06-15T07:38:29Z</time>
      </trkpt>
      <trkpt lat="49.65257" lon="-1.58495">
        <ele>3.5</ele>
        <time>2020-06-15T07:38:30Z</time>
      </trkpt>
      <trkpt lat="49.65254" lon="-1.58492">
        <ele>3.5</ele>
        <time>2020-06-15T07:38:31Z</time>
      </trkpt>
      <trkpt lat="49.65252" lon="-1.58489">
        <ele>3.5</ele>
        <time>2020-06-15T07:38:32Z</time>
      </trkpt>
      <trkpt lat="49.65249" lon="-1.58486">
        <ele>3.5</ele>
        <time>2020-06-15T07:38:33Z</time>
      </trkpt>
      <trkpt lat="49.65246" lon="-1.58483">
        <ele>3.4</ele>
        <time>2020-06-15T07:38:34Z</time>
      </trkpt>
      <trkpt lat="49.65244" lon="-1.5848">
        <ele>3.4</ele>
        <time>2020-06-15T07:38:35Z</time>
      </trkpt>
      <trkpt lat="49.65241" lon="-1.58477">
        <ele>3.4</ele>
        <time>2020-06-15T07:38:36Z</time>
      </trkpt>
      <trkpt lat="49.65239" lon="-1.58473">
        <ele>3.4</ele>
        <time>2020-06-15T07:38:37Z</time>
      </trkpt>
      <trkpt lat="49.65237" lon="-1.5847">
        <ele>3.4</ele>
        <time>2020-06-15T07:38:38Z</time>
      </trkpt>
      <trkpt lat="49.65234" lon="-1.58468">
        <ele>3.4</ele>
        <time>2020-06-15T07:38:39Z</time>
      </trkpt>
      <trkpt lat="49.65233" lon="-1.58464">
        <ele>3.4</ele>
        <time>2020-06-15T07:38:40Z</time>
      </trkpt>
      <trkpt lat="49.65231" lon="-1.58459">
        <ele>3.4</ele>
        <time>2020-06-15T07:38:41Z</time>
      </trkpt>
      <trkpt lat="49.65232" lon="-1.58455">
        <ele>3.4</ele>
        <time>2020-06-15T07:38:42Z</time>
      </trkpt>
      <trkpt lat="49.65232" lon="-1.5845">
        <ele>3.4</ele>
        <time>2020-06-15T07:38:43Z</time>
      </trkpt>
      <trkpt lat="49.65233" lon="-1.58445">
        <ele>3.4</ele>
        <time>2020-06-15T07:38:44Z</time>
      </trkpt>
      <trkpt lat="49.65235" lon="-1.58441">
        <ele>3.4</ele>
        <time>2020-06-15T07:38:45Z</time>
      </trkpt>
      <trkpt lat="49.65238" lon="-1.58439">
        <ele>3.4</ele>
        <time>2020-06-15T07:38:46Z</time>
      </trkpt>
      <trkpt lat="49.6524" lon="-1.58436">
        <ele>3.4</ele>
        <time>2020-06-15T07:38:47Z</time>
      </trkpt>
      <trkpt lat="49.65243" lon="-1.58433">
        <ele>3.4</ele>
        <time>2020-06-15T07:38:48Z</time>
      </trkpt>
      <trkpt lat="49.65245" lon="-1.5843">
        <ele>3.4</ele>
        <time>2020-06-15T07:38:49Z</time>
      </trkpt>
      <trkpt lat="49.65247" lon="-1.58427">
        <ele>3.4</ele>
        <time>2020-06-15T07:38:50Z</time>
      </trkpt>
      <trkpt lat="49.6525" lon="-1.58424">
        <ele>3.4</ele>
        <time>2020-06-15T07:38:51Z</time>
      </trkpt>
      <trkpt lat="49.65253" lon="-1.58421">
        <ele>3.4</ele>
        <time>2020-06-15T07:38:52Z</time>
      </trkpt>
      <trkpt lat="49.65254" lon="-1.58416">
        <ele>3.3</ele>
        <time>2020-06-15T07:38:53Z</time>
      </trkpt>
      <trkpt lat="49.65255" lon="-1.58412">
        <ele>3.3</ele>
        <time>2020-06-15T07:38:54Z</time>
      </trkpt>
      <trkpt lat="49.65257" lon="-1.58407">
        <ele>3.3</ele>
        <time>2020-06-15T07:38:55Z</time>
      </trkpt>
      <trkpt lat="49.65259" lon="-1.58401">
        <ele>3.3</ele>
        <time>2020-06-15T07:38:56Z</time>
      </trkpt>
      <trkpt lat="49.6526" lon="-1.58396">
        <ele>3.4</ele>
        <time>2020-06-15T07:38:57Z</time>
      </trkpt>
      <trkpt lat="49.65261" lon="-1.5839">
        <ele>3.4</ele>
        <time>2020-06-15T07:38:58Z</time>
      </trkpt>
      <trkpt lat="49.65263" lon="-1.58384">
        <ele>3.4</ele>
        <time>2020-06-15T07:38:59Z</time>
      </trkpt>
      <trkpt lat="49.65265" lon="-1.58379">
        <ele>3.4</ele>
        <time>2020-06-15T07:39:00Z</time>
      </trkpt>
      <trkpt lat="49.65266" lon="-1.58373">
        <ele>3.4</ele>
        <time>2020-06-15T07:39:01Z</time>
      </trkpt>
      <trkpt lat="49.65268" lon="-1.58368">
        <ele>3.5</ele>
        <time>2020-06-15T07:39:02Z</time>
      </trkpt>
      <trkpt lat="49.6527" lon="-1.58363">
        <ele>3.5</ele>
        <time>2020-06-15T07:39:03Z</time>
      </trkpt>
      <trkpt lat="49.65271" lon="-1.58357">
        <ele>3.5</ele>
        <time>2020-06-15T07:39:04Z</time>
      </trkpt>
      <trkpt lat="49.65273" lon="-1.58352">
        <ele>3.5</ele>
        <time>2020-06-15T07:39:05Z</time>
      </trkpt>
      <trkpt lat="49.65275" lon="-1.58347">
        <ele>3.5</ele>
        <time>2020-06-15T07:39:06Z</time>
      </trkpt>
      <trkpt lat="49.65276" lon="-1.58342">
        <ele>3.6</ele>
        <time>2020-06-15T07:39:07Z</time>
      </trkpt>
      <trkpt lat="49.65279" lon="-1.58337">
        <ele>3.6</ele>
        <time>2020-06-15T07:39:08Z</time>
      </trkpt>
      <trkpt lat="49.6528" lon="-1.58332">
        <ele>3.6</ele>
        <time>2020-06-15T07:39:09Z</time>
      </trkpt>
      <trkpt lat="49.65282" lon="-1.58328">
        <ele>3.6</ele>
        <time>2020-06-15T07:39:10Z</time>
      </trkpt>
      <trkpt lat="49.65284" lon="-1.58322">
        <ele>3.6</ele>
        <time>2020-06-15T07:39:11Z</time>
      </trkpt>
      <trkpt lat="49.65285" lon="-1.58317">
        <ele>3.6</ele>
        <time>2020-06-15T07:39:12Z</time>
      </trkpt>
      <trkpt lat="49.65286" lon="-1.58311">
        <ele>3.7</ele>
        <time>2020-06-15T07:39:13Z</time>
      </trkpt>
      <trkpt lat="49.65288" lon="-1.58306">
        <ele>3.7</ele>
        <time>2020-06-15T07:39:14Z</time>
      </trkpt>
      <trkpt lat="49.6529" lon="-1.58301">
        <ele>3.7</ele>
        <time>2020-06-15T07:39:15Z</time>
      </trkpt>
      <trkpt lat="49.65292" lon="-1.58296">
        <ele>3.7</ele>
        <time>2020-06-15T07:39:16Z</time>
      </trkpt>
      <trkpt lat="49.65295" lon="-1.58291">
        <ele>3.7</ele>
        <time>2020-06-15T07:39:17Z</time>
      </trkpt>
      <trkpt lat="49.65297" lon="-1.58286">
        <ele>3.7</ele>
        <time>2020-06-15T07:39:18Z</time>
      </trkpt>
      <trkpt lat="49.65299" lon="-1.58281">
        <ele>3.8</ele>
        <time>2020-06-15T07:39:19Z</time>
      </trkpt>
      <trkpt lat="49.653" lon="-1.58276">
        <ele>3.8</ele>
        <time>2020-06-15T07:39:20Z</time>
      </trkpt>
      <trkpt lat="49.65302" lon="-1.58271">
        <ele>3.8</ele>
        <time>2020-06-15T07:39:21Z</time>
      </trkpt>
      <trkpt lat="49.65304" lon="-1.58266">
        <ele>3.8</ele>
        <time>2020-06-15T07:39:22Z</time>
      </trkpt>
      <trkpt lat="49.65305" lon="-1.5826">
        <ele>3.8</ele>
        <time>2020-06-15T07:39:23Z</time>
      </trkpt>
      <trkpt lat="49.65307" lon="-1.58255">
        <ele>3.8</ele>
        <time>2020-06-15T07:39:24Z</time>
      </trkpt>
      <trkpt lat="49.65308" lon="-1.5825">
        <ele>3.8</ele>
        <time>2020-06-15T07:39:25Z</time>
      </trkpt>
      <trkpt lat="49.6531" lon="-1.58244">
        <ele>3.8</ele>
        <time>2020-06-15T07:39:26Z</time>
      </trkpt>
      <trkpt lat="49.65312" lon="-1.58238">
        <ele>3.8</ele>
        <time>2020-06-15T07:39:27Z</time>
      </trkpt>
      <trkpt lat="49.65314" lon="-1.58233">
        <ele>3.8</ele>
        <time>2020-06-15T07:39:28Z</time>
      </trkpt>
      <trkpt lat="49.65316" lon="-1.58227">
        <ele>3.8</ele>
        <time>2020-06-15T07:39:29Z</time>
      </trkpt>
      <trkpt lat="49.65317" lon="-1.58221">
        <ele>3.8</ele>
        <time>2020-06-15T07:39:30Z</time>
      </trkpt>
      <trkpt lat="49.65319" lon="-1.58214">
        <ele>3.8</ele>
        <time>2020-06-15T07:39:31Z</time>
      </trkpt>
      <trkpt lat="49.65321" lon="-1.58208">
        <ele>3.8</ele>
        <time>2020-06-15T07:39:32Z</time>
      </trkpt>
      <trkpt lat="49.65323" lon="-1.58201">
        <ele>3.8</ele>
        <time>2020-06-15T07:39:33Z</time>
      </trkpt>
      <trkpt lat="49.65324" lon="-1.58195">
        <ele>3.8</ele>
        <time>2020-06-15T07:39:34Z</time>
      </trkpt>
      <trkpt lat="49.65326" lon="-1.58188">
        <ele>3.8</ele>
        <time>2020-06-15T07:39:35Z</time>
      </trkpt>
      <trkpt lat="49.65328" lon="-1.58182">
        <ele>3.8</ele>
        <time>2020-06-15T07:39:36Z</time>
      </trkpt>
      <trkpt lat="49.65329" lon="-1.58175">
        <ele>3.8</ele>
        <time>2020-06-15T07:39:37Z</time>
      </trkpt>
      <trkpt lat="49.65331" lon="-1.58169">
        <ele>3.8</ele>
        <time>2020-06-15T07:39:38Z</time>
      </trkpt>
      <trkpt lat="49.65333" lon="-1.58162">
        <ele>3.8</ele>
        <time>2020-06-15T07:39:39Z</time>
      </trkpt>
      <trkpt lat="49.65335" lon="-1.58156">
        <ele>3.8</ele>
        <time>2020-06-15T07:39:40Z</time>
      </trkpt>
      <trkpt lat="49.65337" lon="-1.58149">
        <ele>3.8</ele>
        <time>2020-06-15T07:39:41Z</time>
      </trkpt>
      <trkpt lat="49.65339" lon="-1.58142">
        <ele>3.8</ele>
        <time>2020-06-15T07:39:42Z</time>
      </trkpt>
      <trkpt lat="49.6534" lon="-1.58135">
        <ele>3.8</ele>
        <time>2020-06-15T07:39:43Z</time>
      </trkpt>
      <trkpt lat="49.65341" lon="-1.58128">
        <ele>3.8</ele>
        <time>2020-06-15T07:39:44Z</time>
      </trkpt>
      <trkpt lat="49.65342" lon="-1.58121">
        <ele>3.8</ele>
        <time>2020-06-15T07:39:45Z</time>
      </trkpt>
      <trkpt lat="49.65343" lon="-1.58114">
        <ele>3.8</ele>
        <time>2020-06-15T07:39:46Z</time>
      </trkpt>
      <trkpt lat="49.65344" lon="-1.58107">
        <ele>3.8</ele>
        <time>2020-06-15T07:39:47Z</time>
      </trkpt>
      <trkpt lat="49.65345" lon="-1.581">
        <ele>3.8</ele>
        <time>2020-06-15T07:39:48Z</time>
      </trkpt>
      <trkpt lat="49.65345" lon="-1.58093">
        <ele>3.8</ele>
        <time>2020-06-15T07:39:49Z</time>
      </trkpt>
      <trkpt lat="49.65346" lon="-1.58086">
        <ele>3.8</ele>
        <time>2020-06-15T07:39:50Z</time>
      </trkpt>
      <trkpt lat="49.65347" lon="-1.5808">
        <ele>3.8</ele>
        <time>2020-06-15T07:39:51Z</time>
      </trkpt>
      <trkpt lat="49.65348" lon="-1.58074">
        <ele>3.8</ele>
        <time>2020-06-15T07:39:52Z</time>
      </trkpt>
      <trkpt lat="49.65349" lon="-1.58067">
        <ele>3.8</ele>
        <time>2020-06-15T07:39:53Z</time>
      </trkpt>
      <trkpt lat="49.6535" lon="-1.58061">
        <ele>3.8</ele>
        <time>2020-06-15T07:39:54Z</time>
      </trkpt>
      <trkpt lat="49.65352" lon="-1.58054">
        <ele>3.8</ele>
        <time>2020-06-15T07:39:55Z</time>
      </trkpt>
      <trkpt lat="49.65353" lon="-1.58047">
        <ele>3.8</ele>
        <time>2020-06-15T07:39:56Z</time>
      </trkpt>
      <trkpt lat="49.65354" lon="-1.5804">
        <ele>3.8</ele>
        <time>2020-06-15T07:39:57Z</time>
      </trkpt>
      <trkpt lat="49.65356" lon="-1.58033">
        <ele>3.8</ele>
        <time>2020-06-15T07:39:58Z</time>
      </trkpt>
      <trkpt lat="49.65358" lon="-1.58027">
        <ele>3.8</ele>
        <time>2020-06-15T07:39:59Z</time>
      </trkpt>
      <trkpt lat="49.65359" lon="-1.5802">
        <ele>3.8</ele>
        <time>2020-06-15T07:40:00Z</time>
      </trkpt>
      <trkpt lat="49.6536" lon="-1.58014">
        <ele>3.8</ele>
        <time>2020-06-15T07:40:01Z</time>
      </trkpt>
      <trkpt lat="49.65362" lon="-1.58007">
        <ele>3.8</ele>
        <time>2020-06-15T07:40:02Z</time>
      </trkpt>
      <trkpt lat="49.65364" lon="-1.58001">
        <ele>3.8</ele>
        <time>2020-06-15T07:40:03Z</time>
      </trkpt>
      <trkpt lat="49.65366" lon="-1.57995">
        <ele>3.8</ele>
        <time>2020-06-15T07:40:04Z</time>
      </trkpt>
      <trkpt lat="49.65367" lon="-1.57989">
        <ele>3.8</ele>
        <time>2020-06-15T07:40:05Z</time>
      </trkpt>
      <trkpt lat="49.65369" lon="-1.57983">
        <ele>3.8</ele>
        <time>2020-06-15T07:40:06Z</time>
      </trkpt>
      <trkpt lat="49.65371" lon="-1.57977">
        <ele>3.8</ele>
        <time>2020-06-15T07:40:07Z</time>
      </trkpt>
      <trkpt lat="49.65374" lon="-1.57971">
        <ele>3.8</ele>
        <time>2020-06-15T07:40:08Z</time>
      </trkpt>
      <trkpt lat="49.65376" lon="-1.57966">
        <ele>3.8</ele>
        <time>2020-06-15T07:40:09Z</time>
      </trkpt>
      <trkpt lat="49.65378" lon="-1.57959">
        <ele>3.8</ele>
        <time>2020-06-15T07:40:10Z</time>
      </trkpt>
      <trkpt lat="49.65381" lon="-1.57954">
        <ele>3.8</ele>
        <time>2020-06-15T07:40:11Z</time>
      </trkpt>
      <trkpt lat="49.65383" lon="-1.57948">
        <ele>3.7</ele>
        <time>2020-06-15T07:40:12Z</time>
      </trkpt>
      <trkpt lat="49.65386" lon="-1.57943">
        <ele>3.7</ele>
        <time>2020-06-15T07:40:13Z</time>
      </trkpt>
      <trkpt lat="49.65389" lon="-1.57938">
        <ele>3.8</ele>
        <time>2020-06-15T07:40:14Z</time>
      </trkpt>
      <trkpt lat="49.65392" lon="-1.57933">
        <ele>3.8</ele>
        <time>2020-06-15T07:40:15Z</time>
      </trkpt>
      <trkpt lat="49.65395" lon="-1.57928">
        <ele>3.8</ele>
        <time>2020-06-15T07:40:16Z</time>
      </trkpt>
      <trkpt lat="49.65398" lon="-1.57923">
        <ele>3.8</ele>
        <time>2020-06-15T07:40:17Z</time>
      </trkpt>
      <trkpt lat="49.654" lon="-1.57918">
        <ele>3.8</ele>
        <time>2020-06-15T07:40:18Z</time>
      </trkpt>
      <trkpt lat="49.65404" lon="-1.57913">
        <ele>3.8</ele>
        <time>2020-06-15T07:40:19Z</time>
      </trkpt>
      <trkpt lat="49.65408" lon="-1.57909">
        <ele>3.9</ele>
        <time>2020-06-15T07:40:20Z</time>
      </trkpt>
      <trkpt lat="49.6541" lon="-1.57904">
        <ele>3.9</ele>
        <time>2020-06-15T07:40:21Z</time>
      </trkpt>
      <trkpt lat="49.65412" lon="-1.57898">
        <ele>3.9</ele>
        <time>2020-06-15T07:40:22Z</time>
      </trkpt>
      <trkpt lat="49.65414" lon="-1.57893">
        <ele>3.8</ele>
        <time>2020-06-15T07:40:23Z</time>
      </trkpt>
      <trkpt lat="49.65416" lon="-1.57887">
        <ele>3.8</ele>
        <time>2020-06-15T07:40:24Z</time>
      </trkpt>
      <trkpt lat="49.65418" lon="-1.57881">
        <ele>3.8</ele>
        <time>2020-06-15T07:40:25Z</time>
      </trkpt>
      <trkpt lat="49.65419" lon="-1.57875">
        <ele>3.8</ele>
        <time>2020-06-15T07:40:26Z</time>
      </trkpt>
      <trkpt lat="49.65421" lon="-1.5787">
        <ele>3.8</ele>
        <time>2020-06-15T07:40:27Z</time>
      </trkpt>
      <trkpt lat="49.65422" lon="-1.57863">
        <ele>3.8</ele>
        <time>2020-06-15T07:40:28Z</time>
      </trkpt>
      <trkpt lat="49.65424" lon="-1.57857">
        <ele>3.8</ele>
        <time>2020-06-15T07:40:29Z</time>
      </trkpt>
      <trkpt lat="49.65425" lon="-1.57851">
        <ele>3.8</ele>
        <time>2020-06-15T07:40:30Z</time>
      </trkpt>
      <trkpt lat="49.65427" lon="-1.57845">
        <ele>3.8</ele>
        <time>2020-06-15T07:40:31Z</time>
      </trkpt>
      <trkpt lat="49.65427" lon="-1.57839">
        <ele>3.8</ele>
        <time>2020-06-15T07:40:32Z</time>
      </trkpt>
      <trkpt lat="49.65428" lon="-1.57832">
        <ele>3.8</ele>
        <time>2020-06-15T07:40:33Z</time>
      </trkpt>
      <trkpt lat="49.65429" lon="-1.57825">
        <ele>3.8</ele>
        <time>2020-06-15T07:40:34Z</time>
      </trkpt>
      <trkpt lat="49.65429" lon="-1.57818">
        <ele>3.8</ele>
        <time>2020-06-15T07:40:35Z</time>
      </trkpt>
      <trkpt lat="49.6543" lon="-1.57811">
        <ele>3.8</ele>
        <time>2020-06-15T07:40:36Z</time>
      </trkpt>
      <trkpt lat="49.6543" lon="-1.57803">
        <ele>3.8</ele>
        <time>2020-06-15T07:40:37Z</time>
      </trkpt>
      <trkpt lat="49.6543" lon="-1.57795">
        <ele>3.8</ele>
        <time>2020-06-15T07:40:38Z</time>
      </trkpt>
      <trkpt lat="49.65429" lon="-1.57787">
        <ele>3.8</ele>
        <time>2020-06-15T07:40:39Z</time>
      </trkpt>
      <trkpt lat="49.65429" lon="-1.57779">
        <ele>3.8</ele>
        <time>2020-06-15T07:40:40Z</time>
      </trkpt>
      <trkpt lat="49.65429" lon="-1.57771">
        <ele>3.8</ele>
        <time>2020-06-15T07:40:41Z</time>
      </trkpt>
      <trkpt lat="49.65429" lon="-1.57763">
        <ele>3.8</ele>
        <time>2020-06-15T07:40:42Z</time>
      </trkpt>
      <trkpt lat="49.65429" lon="-1.57755">
        <ele>3.8</ele>
        <time>2020-06-15T07:40:43Z</time>
      </trkpt>
      <trkpt lat="49.65429" lon="-1.57747">
        <ele>3.7</ele>
        <time>2020-06-15T07:40:44Z</time>
      </trkpt>
      <trkpt lat="49.6543" lon="-1.57739">
        <ele>3.7</ele>
        <time>2020-06-15T07:40:45Z</time>
      </trkpt>
      <trkpt lat="49.65432" lon="-1.57732">
        <ele>3.7</ele>
        <time>2020-06-15T07:40:46Z</time>
      </trkpt>
      <trkpt lat="49.65433" lon="-1.57724">
        <ele>3.7</ele>
        <time>2020-06-15T07:40:47Z</time>
      </trkpt>
      <trkpt lat="49.65434" lon="-1.57717">
        <ele>3.7</ele>
        <time>2020-06-15T07:40:48Z</time>
      </trkpt>
      <trkpt lat="49.65436" lon="-1.5771">
        <ele>3.7</ele>
        <time>2020-06-15T07:40:49Z</time>
      </trkpt>
      <trkpt lat="49.65438" lon="-1.57703">
        <ele>3.6</ele>
        <time>2020-06-15T07:40:50Z</time>
      </trkpt>
      <trkpt lat="49.6544" lon="-1.57696">
        <ele>3.6</ele>
        <time>2020-06-15T07:40:51Z</time>
      </trkpt>
      <trkpt lat="49.65442" lon="-1.57689">
        <ele>3.6</ele>
        <time>2020-06-15T07:40:52Z</time>
      </trkpt>
      <trkpt lat="49.65444" lon="-1.57682">
        <ele>3.5</ele>
        <time>2020-06-15T07:40:53Z</time>
      </trkpt>
      <trkpt lat="49.65447" lon="-1.57675">
        <ele>3.5</ele>
        <time>2020-06-15T07:40:54Z</time>
      </trkpt>
      <trkpt lat="49.65448" lon="-1.57667">
        <ele>3.5</ele>
        <time>2020-06-15T07:40:55Z</time>
      </trkpt>
      <trkpt lat="49.65451" lon="-1.5766">
        <ele>3.6</ele>
        <time>2020-06-15T07:40:56Z</time>
      </trkpt>
      <trkpt lat="49.65453" lon="-1.57653">
        <ele>3.6</ele>
        <time>2020-06-15T07:40:57Z</time>
      </trkpt>
      <trkpt lat="49.65455" lon="-1.57646">
        <ele>3.6</ele>
        <time>2020-06-15T07:40:58Z</time>
      </trkpt>
      <trkpt lat="49.65457" lon="-1.57638">
        <ele>3.6</ele>
        <time>2020-06-15T07:40:59Z</time>
      </trkpt>
      <trkpt lat="49.65459" lon="-1.5763">
        <ele>3.6</ele>
        <time>2020-06-15T07:41:00Z</time>
      </trkpt>
      <trkpt lat="49.65461" lon="-1.57622">
        <ele>3.7</ele>
        <time>2020-06-15T07:41:01Z</time>
      </trkpt>
      <trkpt lat="49.65464" lon="-1.57614">
        <ele>3.7</ele>
        <time>2020-06-15T07:41:02Z</time>
      </trkpt>
      <trkpt lat="49.65466" lon="-1.57606">
        <ele>3.7</ele>
        <time>2020-06-15T07:41:03Z</time>
      </trkpt>
      <trkpt lat="49.65469" lon="-1.57598">
        <ele>3.7</ele>
        <time>2020-06-15T07:41:04Z</time>
      </trkpt>
      <trkpt lat="49.65471" lon="-1.5759">
        <ele>3.7</ele>
        <time>2020-06-15T07:41:05Z</time>
      </trkpt>
      <trkpt lat="49.65474" lon="-1.57582">
        <ele>3.7</ele>
        <time>2020-06-15T07:41:06Z</time>
      </trkpt>
      <trkpt lat="49.65476" lon="-1.57574">
        <ele>3.8</ele>
        <time>2020-06-15T07:41:07Z</time>
      </trkpt>
      <trkpt lat="49.65479" lon="-1.57566">
        <ele>3.8</ele>
        <time>2020-06-15T07:41:08Z</time>
      </trkpt>
      <trkpt lat="49.6548" lon="-1.57557">
        <ele>3.8</ele>
        <time>2020-06-15T07:41:09Z</time>
      </trkpt>
      <trkpt lat="49.65481" lon="-1.57549">
        <ele>3.9</ele>
        <time>2020-06-15T07:41:10Z</time>
      </trkpt>
      <trkpt lat="49.65484" lon="-1.57542">
        <ele>3.9</ele>
        <time>2020-06-15T07:41:11Z</time>
      </trkpt>
      <trkpt lat="49.65486" lon="-1.57534">
        <ele>3.9</ele>
        <time>2020-06-15T07:41:12Z</time>
      </trkpt>
      <trkpt lat="49.65488" lon="-1.57527">
        <ele>3.9</ele>
        <time>2020-06-15T07:41:13Z</time>
      </trkpt>
      <trkpt lat="49.6549" lon="-1.5752">
        <ele>3.9</ele>
        <time>2020-06-15T07:41:14Z</time>
      </trkpt>
      <trkpt lat="49.65492" lon="-1.57513">
        <ele>3.9</ele>
        <time>2020-06-15T07:41:15Z</time>
      </trkpt>
      <trkpt lat="49.65494" lon="-1.57506">
        <ele>3.9</ele>
        <time>2020-06-15T07:41:16Z</time>
      </trkpt>
      <trkpt lat="49.65496" lon="-1.57499">
        <ele>3.9</ele>
        <time>2020-06-15T07:41:17Z</time>
      </trkpt>
      <trkpt lat="49.65498" lon="-1.57492">
        <ele>3.9</ele>
        <time>2020-06-15T07:41:18Z</time>
      </trkpt>
      <trkpt lat="49.65499" lon="-1.57485">
        <ele>3.8</ele>
        <time>2020-06-15T07:41:19Z</time>
      </trkpt>
      <trkpt lat="49.65502" lon="-1.57478">
        <ele>3.8</ele>
        <time>2020-06-15T07:41:20Z</time>
      </trkpt>
      <trkpt lat="49.65504" lon="-1.5747">
        <ele>3.8</ele>
        <time>2020-06-15T07:41:21Z</time>
      </trkpt>
      <trkpt lat="49.65506" lon="-1.57463">
        <ele>3.8</ele>
        <time>2020-06-15T07:41:22Z</time>
      </trkpt>
      <trkpt lat="49.65508" lon="-1.57455">
        <ele>3.8</ele>
        <time>2020-06-15T07:41:23Z</time>
      </trkpt>
      <trkpt lat="49.6551" lon="-1.57447">
        <ele>3.8</ele>
        <time>2020-06-15T07:41:24Z</time>
      </trkpt>
      <trkpt lat="49.65512" lon="-1.5744">
        <ele>3.8</ele>
        <time>2020-06-15T07:41:25Z</time>
      </trkpt>
      <trkpt lat="49.65514" lon="-1.57433">
        <ele>3.8</ele>
        <time>2020-06-15T07:41:26Z</time>
      </trkpt>
      <trkpt lat="49.65515" lon="-1.57426">
        <ele>3.8</ele>
        <time>2020-06-15T07:41:27Z</time>
      </trkpt>
      <trkpt lat="49.65517" lon="-1.57419">
        <ele>3.8</ele>
        <time>2020-06-15T07:41:28Z</time>
      </trkpt>
      <trkpt lat="49.65519" lon="-1.57412">
        <ele>3.8</ele>
        <time>2020-06-15T07:41:29Z</time>
      </trkpt>
      <trkpt lat="49.65521" lon="-1.57405">
        <ele>3.8</ele>
        <time>2020-06-15T07:41:30Z</time>
      </trkpt>
      <trkpt lat="49.65523" lon="-1.57398">
        <ele>3.8</ele>
        <time>2020-06-15T07:41:31Z</time>
      </trkpt>
      <trkpt lat="49.65524" lon="-1.57391">
        <ele>3.8</ele>
        <time>2020-06-15T07:41:32Z</time>
      </trkpt>
      <trkpt lat="49.65526" lon="-1.57385">
        <ele>3.8</ele>
        <time>2020-06-15T07:41:33Z</time>
      </trkpt>
      <trkpt lat="49.65527" lon="-1.5738">
        <ele>3.9</ele>
        <time>2020-06-15T07:41:34Z</time>
      </trkpt>
      <trkpt lat="49.65527" lon="-1.57374">
        <ele>3.9</ele>
        <time>2020-06-15T07:41:35Z</time>
      </trkpt>
      <trkpt lat="49.65527" lon="-1.5737">
        <ele>3.9</ele>
        <time>2020-06-15T07:41:36Z</time>
      </trkpt>
      <trkpt lat="49.65526" lon="-1.57369">
        <ele>3.9</ele>
        <time>2020-06-15T07:41:37Z</time>
      </trkpt>
      <trkpt lat="49.65525" lon="-1.57368">
        <ele>3.9</ele>
        <time>2020-06-15T07:41:38Z</time>
      </trkpt>
      <trkpt lat="49.65524" lon="-1.57367">
        <ele>3.9</ele>
        <time>2020-06-15T07:41:39Z</time>
      </trkpt>
      <trkpt lat="49.65523" lon="-1.57367">
        <ele>3.9</ele>
        <time>2020-06-15T07:41:40Z</time>
      </trkpt>
      <trkpt lat="49.65522" lon="-1.57367">
        <ele>4</ele>
        <time>2020-06-15T07:41:41Z</time>
      </trkpt>
      <trkpt lat="49.65521" lon="-1.57368">
        <ele>4</ele>
        <time>2020-06-15T07:41:42Z</time>
      </trkpt>
      <trkpt lat="49.65521" lon="-1.57369">
        <ele>4</ele>
        <time>2020-06-15T07:41:43Z</time>
      </trkpt>
      <trkpt lat="49.65521" lon="-1.5737">
        <ele>4</ele>
        <time>2020-06-15T07:41:44Z</time>
      </trkpt>
      <trkpt lat="49.65522" lon="-1.57369">
        <ele>4</ele>
        <time>2020-06-15T07:41:45Z</time>
      </trkpt>
      <trkpt lat="49.65522" lon="-1.57369">
        <ele>4</ele>
        <time>2020-06-15T07:41:46Z</time>
      </trkpt>
      <trkpt lat="49.65522" lon="-1.57369">
        <ele>4</ele>
        <time>2020-06-15T07:41:47Z</time>
      </trkpt>
      <trkpt lat="49.65522" lon="-1.57369">
        <ele>4</ele>
        <time>2020-06-15T07:41:48Z</time>
      </trkpt>
      <trkpt lat="49.65522" lon="-1.57369">
        <ele>4</ele>
        <time>2020-06-15T07:41:49Z</time>
      </trkpt>
      <trkpt lat="49.65522" lon="-1.57369">
        <ele>4</ele>
        <time>2020-06-15T07:41:50Z</time>
      </trkpt>
      <trkpt lat="49.65522" lon="-1.57369">
        <ele>4</ele>
        <time>2020-06-15T07:41:51Z</time>
      </trkpt>
      <trkpt lat="49.65522" lon="-1.57368">
        <ele>4</ele>
        <time>2020-06-15T07:41:52Z</time>
      </trkpt>
      <trkpt lat="49.65517" lon="-1.57366">
        <ele>4</ele>
        <time>2020-06-15T07:43:03Z</time>
      </trkpt>
      <trkpt lat="49.65516" lon="-1.57365">
        <ele>4</ele>
        <time>2020-06-15T07:43:04Z</time>
      </trkpt>
      <trkpt lat="49.65514" lon="-1.57365">
        <ele>4</ele>
        <time>2020-06-15T07:43:05Z</time>
      </trkpt>
      <trkpt lat="49.65511" lon="-1.57365">
        <ele>4</ele>
        <time>2020-06-15T07:43:06Z</time>
      </trkpt>
      <trkpt lat="49.6551" lon="-1.57364">
        <ele>4</ele>
        <time>2020-06-15T07:43:07Z</time>
      </trkpt>
      <trkpt lat="49.65507" lon="-1.57363">
        <ele>4.1</ele>
        <time>2020-06-15T07:43:08Z</time>
      </trkpt>
      <trkpt lat="49.65506" lon="-1.57362">
        <ele>4.1</ele>
        <time>2020-06-15T07:43:09Z</time>
      </trkpt>
      <trkpt lat="49.65503" lon="-1.5736">
        <ele>4.1</ele>
        <time>2020-06-15T07:43:10Z</time>
      </trkpt>
      <trkpt lat="49.65502" lon="-1.5736">
        <ele>4.1</ele>
        <time>2020-06-15T07:43:11Z</time>
      </trkpt>
      <trkpt lat="49.65498" lon="-1.57357">
        <ele>4.1</ele>
        <time>2020-06-15T07:43:12Z</time>
      </trkpt>
      <trkpt lat="49.65497" lon="-1.57357">
        <ele>4.1</ele>
        <time>2020-06-15T07:43:13Z</time>
      </trkpt>
      <trkpt lat="49.65493" lon="-1.57356">
        <ele>4.1</ele>
        <time>2020-06-15T07:43:14Z</time>
      </trkpt>
      <trkpt lat="49.65489" lon="-1.57354">
        <ele>4.1</ele>
        <time>2020-06-15T07:43:15Z</time>
      </trkpt>
      <trkpt lat="49.65488" lon="-1.57353">
        <ele>4.2</ele>
        <time>2020-06-15T07:43:16Z</time>
      </trkpt>
      <trkpt lat="49.65485" lon="-1.57351">
        <ele>4.2</ele>
        <time>2020-06-15T07:43:17Z</time>
      </trkpt>
      <trkpt lat="49.65484" lon="-1.5735">
        <ele>4.2</ele>
        <time>2020-06-15T07:43:18Z</time>
      </trkpt>
      <trkpt lat="49.65482" lon="-1.57348">
        <ele>4.2</ele>
        <time>2020-06-15T07:43:19Z</time>
      </trkpt>
      <trkpt lat="49.65478" lon="-1.57345">
        <ele>4.2</ele>
        <time>2020-06-15T07:43:20Z</time>
      </trkpt>
      <trkpt lat="49.65477" lon="-1.57344">
        <ele>4.2</ele>
        <time>2020-06-15T07:43:21Z</time>
      </trkpt>
      <trkpt lat="49.65475" lon="-1.5734">
        <ele>4.2</ele>
        <time>2020-06-15T07:43:22Z</time>
      </trkpt>
      <trkpt lat="49.65473" lon="-1.57335">
        <ele>4.3</ele>
        <time>2020-06-15T07:43:23Z</time>
      </trkpt>
      <trkpt lat="49.65471" lon="-1.5733">
        <ele>4.3</ele>
        <time>2020-06-15T07:43:24Z</time>
      </trkpt>
      <trkpt lat="49.6547" lon="-1.57324">
        <ele>4.3</ele>
        <time>2020-06-15T07:43:25Z</time>
      </trkpt>
      <trkpt lat="49.65469" lon="-1.57318">
        <ele>4.3</ele>
        <time>2020-06-15T07:43:26Z</time>
      </trkpt>
      <trkpt lat="49.65469" lon="-1.57312">
        <ele>4.3</ele>
        <time>2020-06-15T07:43:27Z</time>
      </trkpt>
      <trkpt lat="49.6547" lon="-1.57306">
        <ele>4.4</ele>
        <time>2020-06-15T07:43:28Z</time>
      </trkpt>
      <trkpt lat="49.65472" lon="-1.573">
        <ele>4.4</ele>
        <time>2020-06-15T07:43:29Z</time>
      </trkpt>
      <trkpt lat="49.65473" lon="-1.57293">
        <ele>4.4</ele>
        <time>2020-06-15T07:43:30Z</time>
      </trkpt>
      <trkpt lat="49.65474" lon="-1.57286">
        <ele>4.4</ele>
        <time>2020-06-15T07:43:31Z</time>
      </trkpt>
      <trkpt lat="49.65475" lon="-1.57279">
        <ele>4.4</ele>
        <time>2020-06-15T07:43:32Z</time>
      </trkpt>
      <trkpt lat="49.65476" lon="-1.57273">
        <ele>4.5</ele>
        <time>2020-06-15T07:43:33Z</time>
      </trkpt>
      <trkpt lat="49.65477" lon="-1.57265">
        <ele>4.5</ele>
        <time>2020-06-15T07:43:34Z</time>
      </trkpt>
      <trkpt lat="49.65477" lon="-1.57258">
        <ele>4.5</ele>
        <time>2020-06-15T07:43:35Z</time>
      </trkpt>
      <trkpt lat="49.65479" lon="-1.5725">
        <ele>4.5</ele>
        <time>2020-06-15T07:43:36Z</time>
      </trkpt>
      <trkpt lat="49.6548" lon="-1.57242">
        <ele>4.6</ele>
        <time>2020-06-15T07:43:37Z</time>
      </trkpt>
      <trkpt lat="49.65481" lon="-1.57235">
        <ele>4.6</ele>
        <time>2020-06-15T07:43:38Z</time>
      </trkpt>
      <trkpt lat="49.65482" lon="-1.57228">
        <ele>4.6</ele>
        <time>2020-06-15T07:43:39Z</time>
      </trkpt>
      <trkpt lat="49.65483" lon="-1.5722">
        <ele>4.6</ele>
        <time>2020-06-15T07:43:40Z</time>
      </trkpt>
      <trkpt lat="49.65484" lon="-1.57213">
        <ele>4.7</ele>
        <time>2020-06-15T07:43:41Z</time>
      </trkpt>
      <trkpt lat="49.65485" lon="-1.57207">
        <ele>4.7</ele>
        <time>2020-06-15T07:43:42Z</time>
      </trkpt>
      <trkpt lat="49.65486" lon="-1.572">
        <ele>4.7</ele>
        <time>2020-06-15T07:43:43Z</time>
      </trkpt>
      <trkpt lat="49.65488" lon="-1.57193">
        <ele>4.7</ele>
        <time>2020-06-15T07:43:44Z</time>
      </trkpt>
      <trkpt lat="49.65489" lon="-1.57185">
        <ele>4.8</ele>
        <time>2020-06-15T07:43:45Z</time>
      </trkpt>
      <trkpt lat="49.65492" lon="-1.57177">
        <ele>4.8</ele>
        <time>2020-06-15T07:43:46Z</time>
      </trkpt>
      <trkpt lat="49.65496" lon="-1.5717">
        <ele>4.8</ele>
        <time>2020-06-15T07:43:47Z</time>
      </trkpt>
      <trkpt lat="49.655" lon="-1.57164">
        <ele>4.8</ele>
        <time>2020-06-15T07:43:48Z</time>
      </trkpt>
      <trkpt lat="49.65504" lon="-1.57157">
        <ele>4.7</ele>
        <time>2020-06-15T07:43:49Z</time>
      </trkpt>
      <trkpt lat="49.65504" lon="-1.5715">
        <ele>4.8</ele>
        <time>2020-06-15T07:43:50Z</time>
      </trkpt>
      <trkpt lat="49.65504" lon="-1.57143">
        <ele>4.8</ele>
        <time>2020-06-15T07:43:51Z</time>
      </trkpt>
      <trkpt lat="49.65504" lon="-1.57137">
        <ele>4.8</ele>
        <time>2020-06-15T07:43:52Z</time>
      </trkpt>
      <trkpt lat="49.65504" lon="-1.57132">
        <ele>4.8</ele>
        <time>2020-06-15T07:43:53Z</time>
      </trkpt>
      <trkpt lat="49.65504" lon="-1.57126">
        <ele>4.8</ele>
        <time>2020-06-15T07:43:54Z</time>
      </trkpt>
      <trkpt lat="49.65502" lon="-1.57122">
        <ele>4.8</ele>
        <time>2020-06-15T07:43:55Z</time>
      </trkpt>
      <trkpt lat="49.65501" lon="-1.57118">
        <ele>4.8</ele>
        <time>2020-06-15T07:43:56Z</time>
      </trkpt>
      <trkpt lat="49.65501" lon="-1.57113">
        <ele>4.8</ele>
        <time>2020-06-15T07:43:57Z</time>
      </trkpt>
      <trkpt lat="49.65501" lon="-1.57112">
        <ele>4.8</ele>
        <time>2020-06-15T07:43:58Z</time>
      </trkpt>
      <trkpt lat="49.65501" lon="-1.5711">
        <ele>4.8</ele>
        <time>2020-06-15T07:43:59Z</time>
      </trkpt>
      <trkpt lat="49.655" lon="-1.57108">
        <ele>4.8</ele>
        <time>2020-06-15T07:44:00Z</time>
      </trkpt>
      <trkpt lat="49.655" lon="-1.57107">
        <ele>4.8</ele>
        <time>2020-06-15T07:44:01Z</time>
      </trkpt>
      <trkpt lat="49.65499" lon="-1.57106">
        <ele>4.8</ele>
        <time>2020-06-15T07:44:02Z</time>
      </trkpt>
      <trkpt lat="49.655" lon="-1.57107">
        <ele>4.8</ele>
        <time>2020-06-15T07:44:03Z</time>
      </trkpt>
      <trkpt lat="49.65501" lon="-1.57107">
        <ele>4.8</ele>
        <time>2020-06-15T07:44:04Z</time>
      </trkpt>
      <trkpt lat="49.65501" lon="-1.57106">
        <ele>4.8</ele>
        <time>2020-06-15T07:44:05Z</time>
      </trkpt>
      <trkpt lat="49.65502" lon="-1.57106">
        <ele>4.8</ele>
        <time>2020-06-15T07:44:06Z</time>
      </trkpt>
      <trkpt lat="49.65502" lon="-1.57105">
        <ele>4.8</ele>
        <time>2020-06-15T07:44:07Z</time>
      </trkpt>
      <trkpt lat="49.65503" lon="-1.57105">
        <ele>4.8</ele>
        <time>2020-06-15T07:44:08Z</time>
      </trkpt>
      <trkpt lat="49.65503" lon="-1.57105">
        <ele>4.8</ele>
        <time>2020-06-15T07:44:09Z</time>
      </trkpt>
      <trkpt lat="49.65504" lon="-1.57105">
        <ele>4.8</ele>
        <time>2020-06-15T07:44:10Z</time>
      </trkpt>
      <trkpt lat="49.65501" lon="-1.57107">
        <ele>4.8</ele>
        <time>2020-06-15T07:44:11Z</time>
      </trkpt>
      <trkpt lat="49.65501" lon="-1.57107">
        <ele>4.8</ele>
        <time>2020-06-15T07:44:12Z</time>
      </trkpt>
      <trkpt lat="49.65502" lon="-1.57107">
        <ele>4.8</ele>
        <time>2020-06-15T07:44:13Z</time>
      </trkpt>
      <trkpt lat="49.65502" lon="-1.57107">
        <ele>4.8</ele>
        <time>2020-06-15T07:44:14Z</time>
      </trkpt>
      <trkpt lat="49.65502" lon="-1.57107">
        <ele>4.8</ele>
        <time>2020-06-15T07:44:15Z</time>
      </trkpt>
      <trkpt lat="49.65502" lon="-1.57107">
        <ele>4.8</ele>
        <time>2020-06-15T07:44:16Z</time>
      </trkpt>
      <trkpt lat="49.65502" lon="-1.57106">
        <ele>4.8</ele>
        <time>2020-06-15T07:44:17Z</time>
      </trkpt>
      <trkpt lat="49.65502" lon="-1.57106">
        <ele>4.8</ele>
        <time>2020-06-15T07:44:18Z</time>
      </trkpt>
      <trkpt lat="49.65503" lon="-1.57113">
        <ele>4.8</ele>
        <time>2020-06-15T07:45:27Z</time>
      </trkpt>
      <trkpt lat="49.65502" lon="-1.57115">
        <ele>4.8</ele>
        <time>2020-06-15T07:45:28Z</time>
      </trkpt>
      <trkpt lat="49.65501" lon="-1.57115">
        <ele>4.8</ele>
        <time>2020-06-15T07:45:29Z</time>
      </trkpt>
      <trkpt lat="49.655" lon="-1.57114">
        <ele>4.8</ele>
        <time>2020-06-15T07:45:30Z</time>
      </trkpt>
      <trkpt lat="49.65499" lon="-1.57113">
        <ele>4.8</ele>
        <time>2020-06-15T07:45:31Z</time>
      </trkpt>
      <trkpt lat="49.65499" lon="-1.57112">
        <ele>4.8</ele>
        <time>2020-06-15T07:45:32Z</time>
      </trkpt>
      <trkpt lat="49.65499" lon="-1.57111">
        <ele>4.8</ele>
        <time>2020-06-15T07:45:33Z</time>
      </trkpt>
      <trkpt lat="49.65499" lon="-1.5711">
        <ele>4.8</ele>
        <time>2020-06-15T07:45:34Z</time>
      </trkpt>
      <trkpt lat="49.65498" lon="-1.57109">
        <ele>4.8</ele>
        <time>2020-06-15T07:45:35Z</time>
      </trkpt>
      <trkpt lat="49.65498" lon="-1.57108">
        <ele>4.8</ele>
        <time>2020-06-15T07:45:36Z</time>
      </trkpt>
      <trkpt lat="49.65498" lon="-1.57107">
        <ele>4.8</ele>
        <time>2020-06-15T07:45:37Z</time>
      </trkpt>
      <trkpt lat="49.65498" lon="-1.57107">
        <ele>4.8</ele>
        <time>2020-06-15T07:45:38Z</time>
      </trkpt>
      <trkpt lat="49.65498" lon="-1.57106">
        <ele>4.8</ele>
        <time>2020-06-15T07:45:39Z</time>
      </trkpt>
      <trkpt lat="49.65498" lon="-1.57106">
        <ele>4.8</ele>
        <time>2020-06-15T07:45:40Z</time>
      </trkpt>
      <trkpt lat="49.65498" lon="-1.57106">
        <ele>4.8</ele>
        <time>2020-06-15T07:45:41Z</time>
      </trkpt>
      <trkpt lat="49.65498" lon="-1.57106">
        <ele>4.8</ele>
        <time>2020-06-15T07:45:42Z</time>
      </trkpt>
      <trkpt lat="49.65498" lon="-1.57106">
        <ele>4.8</ele>
        <time>2020-06-15T07:45:43Z</time>
      </trkpt>
      <trkpt lat="49.65498" lon="-1.57106">
        <ele>4.8</ele>
        <time>2020-06-15T07:45:44Z</time>
      </trkpt>
      <trkpt lat="49.65498" lon="-1.57106">
        <ele>4.8</ele>
        <time>2020-06-15T07:45:45Z</time>
      </trkpt>
      <trkpt lat="49.65498" lon="-1.57105">
        <ele>4.8</ele>
        <time>2020-06-15T07:45:46Z</time>
      </trkpt>
      <trkpt lat="49.65593" lon="-1.57126">
        <ele>3</ele>
        <time>2020-06-15T08:10:14Z</time>
      </trkpt>
      <trkpt lat="49.65588" lon="-1.57119">
        <ele>3.2</ele>
        <time>2020-06-15T08:10:15Z</time>
      </trkpt>
      <trkpt lat="49.65587" lon="-1.57118">
        <ele>3.2</ele>
        <time>2020-06-15T08:10:16Z</time>
      </trkpt>
      <trkpt lat="49.65585" lon="-1.57116">
        <ele>3.3</ele>
        <time>2020-06-15T08:10:17Z</time>
      </trkpt>
      <trkpt lat="49.65582" lon="-1.57113">
        <ele>3.4</ele>
        <time>2020-06-15T08:10:18Z</time>
      </trkpt>
      <trkpt lat="49.65581" lon="-1.57113">
        <ele>3.4</ele>
        <time>2020-06-15T08:10:19Z</time>
      </trkpt>
      <trkpt lat="49.6558" lon="-1.57112">
        <ele>3.4</ele>
        <time>2020-06-15T08:10:20Z</time>
      </trkpt>
      <trkpt lat="49.65577" lon="-1.5711">
        <ele>3.6</ele>
        <time>2020-06-15T08:10:21Z</time>
      </trkpt>
      <trkpt lat="49.65573" lon="-1.57106">
        <ele>3.6</ele>
        <time>2020-06-15T08:10:22Z</time>
      </trkpt>
      <trkpt lat="49.65572" lon="-1.57102">
        <ele>3.6</ele>
        <time>2020-06-15T08:10:23Z</time>
      </trkpt>
      <trkpt lat="49.65571" lon="-1.571">
        <ele>3.6</ele>
        <time>2020-06-15T08:10:24Z</time>
      </trkpt>
      <trkpt lat="49.65571" lon="-1.57101">
        <ele>3.7</ele>
        <time>2020-06-15T08:10:25Z</time>
      </trkpt>
      <trkpt lat="49.65571" lon="-1.57101">
        <ele>3.7</ele>
        <time>2020-06-15T08:10:26Z</time>
      </trkpt>
      <trkpt lat="49.6557" lon="-1.571">
        <ele>3.7</ele>
        <time>2020-06-15T08:10:27Z</time>
      </trkpt>
      <trkpt lat="49.6557" lon="-1.57099">
        <ele>3.7</ele>
        <time>2020-06-15T08:10:28Z</time>
      </trkpt>
      <trkpt lat="49.65569" lon="-1.57099">
        <ele>3.7</ele>
        <time>2020-06-15T08:10:29Z</time>
      </trkpt>
      <trkpt lat="49.6557" lon="-1.571">
        <ele>3.7</ele>
        <time>2020-06-15T08:10:30Z</time>
      </trkpt>
      <trkpt lat="49.65569" lon="-1.571">
        <ele>3.7</ele>
        <time>2020-06-15T08:10:31Z</time>
      </trkpt>
      <trkpt lat="49.65569" lon="-1.57099">
        <ele>3.7</ele>
        <time>2020-06-15T08:10:32Z</time>
      </trkpt>
      <trkpt lat="49.65568" lon="-1.57098">
        <ele>3.7</ele>
        <time>2020-06-15T08:10:33Z</time>
      </trkpt>
      <trkpt lat="49.65567" lon="-1.57096">
        <ele>3.8</ele>
        <time>2020-06-15T08:10:34Z</time>
      </trkpt>
      <trkpt lat="49.65566" lon="-1.57096">
        <ele>3.8</ele>
        <time>2020-06-15T08:10:35Z</time>
      </trkpt>
      <trkpt lat="49.65565" lon="-1.57097">
        <ele>3.8</ele>
        <time>2020-06-15T08:10:36Z</time>
      </trkpt>
      <trkpt lat="49.65564" lon="-1.57098">
        <ele>3.8</ele>
        <time>2020-06-15T08:10:37Z</time>
      </trkpt>
      <trkpt lat="49.65563" lon="-1.57098">
        <ele>3.8</ele>
        <time>2020-06-15T08:10:38Z</time>
      </trkpt>
      <trkpt lat="49.65563" lon="-1.57098">
        <ele>3.9</ele>
        <time>2020-06-15T08:10:39Z</time>
      </trkpt>
      <trkpt lat="49.65562" lon="-1.57098">
        <ele>3.9</ele>
        <time>2020-06-15T08:10:40Z</time>
      </trkpt>
      <trkpt lat="49.65561" lon="-1.57094">
        <ele>3.9</ele>
        <time>2020-06-15T08:10:41Z</time>
      </trkpt>
      <trkpt lat="49.65561" lon="-1.57095">
        <ele>3.9</ele>
        <time>2020-06-15T08:10:42Z</time>
      </trkpt>
      <trkpt lat="49.65559" lon="-1.57092">
        <ele>4</ele>
        <time>2020-06-15T08:10:43Z</time>
      </trkpt>
      <trkpt lat="49.65558" lon="-1.57092">
        <ele>4</ele>
        <time>2020-06-15T08:10:44Z</time>
      </trkpt>
      <trkpt lat="49.65555" lon="-1.57089">
        <ele>4</ele>
        <time>2020-06-15T08:10:45Z</time>
      </trkpt>
      <trkpt lat="49.65554" lon="-1.57089">
        <ele>4.1</ele>
        <time>2020-06-15T08:10:46Z</time>
      </trkpt>
      <trkpt lat="49.65554" lon="-1.57089">
        <ele>4.1</ele>
        <time>2020-06-15T08:10:47Z</time>
      </trkpt>
      <trkpt lat="49.65553" lon="-1.57087">
        <ele>4.1</ele>
        <time>2020-06-15T08:10:48Z</time>
      </trkpt>
      <trkpt lat="49.65552" lon="-1.57085">
        <ele>4.2</ele>
        <time>2020-06-15T08:10:49Z</time>
      </trkpt>
      <trkpt lat="49.65551" lon="-1.57084">
        <ele>4.2</ele>
        <time>2020-06-15T08:10:50Z</time>
      </trkpt>
      <trkpt lat="49.65535" lon="-1.57071">
        <ele>4.5</ele>
        <time>2020-06-15T08:10:57Z</time>
      </trkpt>
      <trkpt lat="49.6553" lon="-1.57064">
        <ele>4.6</ele>
        <time>2020-06-15T08:10:58Z</time>
      </trkpt>
      <trkpt lat="49.6553" lon="-1.57065">
        <ele>4.6</ele>
        <time>2020-06-15T08:10:59Z</time>
      </trkpt>
      <trkpt lat="49.6553" lon="-1.57064">
        <ele>4.6</ele>
        <time>2020-06-15T08:11:00Z</time>
      </trkpt>
      <trkpt lat="49.65529" lon="-1.57063">
        <ele>4.7</ele>
        <time>2020-06-15T08:11:01Z</time>
      </trkpt>
      <trkpt lat="49.65527" lon="-1.57062">
        <ele>4.7</ele>
        <time>2020-06-15T08:11:02Z</time>
      </trkpt>
      <trkpt lat="49.65525" lon="-1.57061">
        <ele>4.8</ele>
        <time>2020-06-15T08:11:03Z</time>
      </trkpt>
      <trkpt lat="49.65524" lon="-1.57062">
        <ele>4.7</ele>
        <time>2020-06-15T08:11:04Z</time>
      </trkpt>
      <trkpt lat="49.65523" lon="-1.57062">
        <ele>4.7</ele>
        <time>2020-06-15T08:11:05Z</time>
      </trkpt>
      <trkpt lat="49.65522" lon="-1.57062">
        <ele>4.7</ele>
        <time>2020-06-15T08:11:06Z</time>
      </trkpt>
      <trkpt lat="49.6552" lon="-1.57062">
        <ele>4.8</ele>
        <time>2020-06-15T08:11:07Z</time>
      </trkpt>
      <trkpt lat="49.65519" lon="-1.57062">
        <ele>4.8</ele>
        <time>2020-06-15T08:11:08Z</time>
      </trkpt>
      <trkpt lat="49.65519" lon="-1.57061">
        <ele>4.8</ele>
        <time>2020-06-15T08:11:09Z</time>
      </trkpt>
      <trkpt lat="49.65517" lon="-1.57061">
        <ele>4.8</ele>
        <time>2020-06-15T08:11:10Z</time>
      </trkpt>
      <trkpt lat="49.65518" lon="-1.57061">
        <ele>4.8</ele>
        <time>2020-06-15T08:11:11Z</time>
      </trkpt>
      <trkpt lat="49.65518" lon="-1.57061">
        <ele>4.8</ele>
        <time>2020-06-15T08:11:12Z</time>
      </trkpt>
      <trkpt lat="49.65517" lon="-1.57061">
        <ele>4.8</ele>
        <time>2020-06-15T08:11:13Z</time>
      </trkpt>
      <trkpt lat="49.65516" lon="-1.57061">
        <ele>4.8</ele>
        <time>2020-06-15T08:11:14Z</time>
      </trkpt>
      <trkpt lat="49.65517" lon="-1.57061">
        <ele>4.8</ele>
        <time>2020-06-15T08:11:15Z</time>
      </trkpt>
      <trkpt lat="49.65517" lon="-1.57061">
        <ele>4.8</ele>
        <time>2020-06-15T08:11:16Z</time>
      </trkpt>
      <trkpt lat="49.65516" lon="-1.57061">
        <ele>4.8</ele>
        <time>2020-06-15T08:11:17Z</time>
      </trkpt>
      <trkpt lat="49.65515" lon="-1.57061">
        <ele>4.9</ele>
        <time>2020-06-15T08:11:18Z</time>
      </trkpt>
      <trkpt lat="49.65517" lon="-1.5707">
        <ele>4.8</ele>
        <time>2020-06-15T08:11:25Z</time>
      </trkpt>
      <trkpt lat="49.65516" lon="-1.57072">
        <ele>4.7</ele>
        <time>2020-06-15T08:11:26Z</time>
      </trkpt>
      <trkpt lat="49.65515" lon="-1.57071">
        <ele>4.7</ele>
        <time>2020-06-15T08:11:27Z</time>
      </trkpt>
      <trkpt lat="49.65514" lon="-1.57072">
        <ele>4.7</ele>
        <time>2020-06-15T08:11:28Z</time>
      </trkpt>
      <trkpt lat="49.65513" lon="-1.57074">
        <ele>4.7</ele>
        <time>2020-06-15T08:11:29Z</time>
      </trkpt>
      <trkpt lat="49.65512" lon="-1.5708">
        <ele>4.7</ele>
        <time>2020-06-15T08:11:30Z</time>
      </trkpt>
      <trkpt lat="49.65511" lon="-1.57082">
        <ele>4.7</ele>
        <time>2020-06-15T08:11:31Z</time>
      </trkpt>
      <trkpt lat="49.6551" lon="-1.57088">
        <ele>4.7</ele>
        <time>2020-06-15T08:11:32Z</time>
      </trkpt>
      <trkpt lat="49.6551" lon="-1.5709">
        <ele>4.7</ele>
        <time>2020-06-15T08:11:33Z</time>
      </trkpt>
      <trkpt lat="49.65509" lon="-1.57094">
        <ele>4.7</ele>
        <time>2020-06-15T08:11:34Z</time>
      </trkpt>
      <trkpt lat="49.65508" lon="-1.57101">
        <ele>4.7</ele>
        <time>2020-06-15T08:11:35Z</time>
      </trkpt>
      <trkpt lat="49.65507" lon="-1.57108">
        <ele>4.7</ele>
        <time>2020-06-15T08:11:36Z</time>
      </trkpt>
      <trkpt lat="49.65505" lon="-1.57113">
        <ele>4.7</ele>
        <time>2020-06-15T08:11:37Z</time>
      </trkpt>
      <trkpt lat="49.65504" lon="-1.57118">
        <ele>4.7</ele>
        <time>2020-06-15T08:11:38Z</time>
      </trkpt>
      <trkpt lat="49.65502" lon="-1.57123">
        <ele>4.7</ele>
        <time>2020-06-15T08:11:39Z</time>
      </trkpt>
      <trkpt lat="49.65501" lon="-1.57129">
        <ele>4.8</ele>
        <time>2020-06-15T08:11:40Z</time>
      </trkpt>
      <trkpt lat="49.65499" lon="-1.57135">
        <ele>4.8</ele>
        <time>2020-06-15T08:11:41Z</time>
      </trkpt>
      <trkpt lat="49.65497" lon="-1.5714">
        <ele>4.8</ele>
        <time>2020-06-15T08:11:42Z</time>
      </trkpt>
      <trkpt lat="49.65496" lon="-1.57145">
        <ele>4.8</ele>
        <time>2020-06-15T08:11:43Z</time>
      </trkpt>
      <trkpt lat="49.65495" lon="-1.5715">
        <ele>4.8</ele>
        <time>2020-06-15T08:11:44Z</time>
      </trkpt>
      <trkpt lat="49.65494" lon="-1.57159">
        <ele>4.8</ele>
        <time>2020-06-15T08:11:45Z</time>
      </trkpt>
      <trkpt lat="49.65493" lon="-1.57167">
        <ele>4.8</ele>
        <time>2020-06-15T08:11:46Z</time>
      </trkpt>
      <trkpt lat="49.65492" lon="-1.57171">
        <ele>4.8</ele>
        <time>2020-06-15T08:11:47Z</time>
      </trkpt>
      <trkpt lat="49.65492" lon="-1.57178">
        <ele>4.8</ele>
        <time>2020-06-15T08:11:48Z</time>
      </trkpt>
      <trkpt lat="49.65491" lon="-1.57186">
        <ele>4.8</ele>
        <time>2020-06-15T08:11:49Z</time>
      </trkpt>
      <trkpt lat="49.6549" lon="-1.57191">
        <ele>4.7</ele>
        <time>2020-06-15T08:11:50Z</time>
      </trkpt>
      <trkpt lat="49.65489" lon="-1.57197">
        <ele>4.7</ele>
        <time>2020-06-15T08:11:51Z</time>
      </trkpt>
      <trkpt lat="49.65488" lon="-1.57205">
        <ele>4.7</ele>
        <time>2020-06-15T08:11:52Z</time>
      </trkpt>
      <trkpt lat="49.65488" lon="-1.57211">
        <ele>4.7</ele>
        <time>2020-06-15T08:11:53Z</time>
      </trkpt>
      <trkpt lat="49.65487" lon="-1.57223">
        <ele>4.6</ele>
        <time>2020-06-15T08:11:54Z</time>
      </trkpt>
      <trkpt lat="49.65486" lon="-1.57234">
        <ele>4.6</ele>
        <time>2020-06-15T08:11:55Z</time>
      </trkpt>
      <trkpt lat="49.65484" lon="-1.57243">
        <ele>4.6</ele>
        <time>2020-06-15T08:11:56Z</time>
      </trkpt>
      <trkpt lat="49.65483" lon="-1.57252">
        <ele>4.5</ele>
        <time>2020-06-15T08:11:57Z</time>
      </trkpt>
      <trkpt lat="49.65481" lon="-1.57259">
        <ele>4.5</ele>
        <time>2020-06-15T08:11:58Z</time>
      </trkpt>
      <trkpt lat="49.6548" lon="-1.57267">
        <ele>4.5</ele>
        <time>2020-06-15T08:11:59Z</time>
      </trkpt>
      <trkpt lat="49.65478" lon="-1.57274">
        <ele>4.5</ele>
        <time>2020-06-15T08:12:00Z</time>
      </trkpt>
      <trkpt lat="49.65477" lon="-1.5728">
        <ele>4.4</ele>
        <time>2020-06-15T08:12:01Z</time>
      </trkpt>
      <trkpt lat="49.65476" lon="-1.57287">
        <ele>4.4</ele>
        <time>2020-06-15T08:12:02Z</time>
      </trkpt>
      <trkpt lat="49.65475" lon="-1.57295">
        <ele>4.4</ele>
        <time>2020-06-15T08:12:03Z</time>
      </trkpt>
      <trkpt lat="49.65474" lon="-1.57302">
        <ele>4.4</ele>
        <time>2020-06-15T08:12:04Z</time>
      </trkpt>
      <trkpt lat="49.65472" lon="-1.57309">
        <ele>4.3</ele>
        <time>2020-06-15T08:12:05Z</time>
      </trkpt>
      <trkpt lat="49.65472" lon="-1.57314">
        <ele>4.3</ele>
        <time>2020-06-15T08:12:06Z</time>
      </trkpt>
      <trkpt lat="49.65472" lon="-1.57319">
        <ele>4.3</ele>
        <time>2020-06-15T08:12:07Z</time>
      </trkpt>
      <trkpt lat="49.65472" lon="-1.57324">
        <ele>4.3</ele>
        <time>2020-06-15T08:12:08Z</time>
      </trkpt>
      <trkpt lat="49.65472" lon="-1.57329">
        <ele>4.3</ele>
        <time>2020-06-15T08:12:09Z</time>
      </trkpt>
      <trkpt lat="49.65473" lon="-1.57334">
        <ele>4.2</ele>
        <time>2020-06-15T08:12:10Z</time>
      </trkpt>
      <trkpt lat="49.65474" lon="-1.57339">
        <ele>4.2</ele>
        <time>2020-06-15T08:12:11Z</time>
      </trkpt>
      <trkpt lat="49.65475" lon="-1.57343">
        <ele>4.2</ele>
        <time>2020-06-15T08:12:12Z</time>
      </trkpt>
      <trkpt lat="49.65477" lon="-1.57346">
        <ele>4.2</ele>
        <time>2020-06-15T08:12:13Z</time>
      </trkpt>
      <trkpt lat="49.65479" lon="-1.57349">
        <ele>4.2</ele>
        <time>2020-06-15T08:12:14Z</time>
      </trkpt>
      <trkpt lat="49.65482" lon="-1.5735">
        <ele>4.2</ele>
        <time>2020-06-15T08:12:15Z</time>
      </trkpt>
      <trkpt lat="49.65485" lon="-1.57352">
        <ele>4.2</ele>
        <time>2020-06-15T08:12:16Z</time>
      </trkpt>
      <trkpt lat="49.65488" lon="-1.57353">
        <ele>4.1</ele>
        <time>2020-06-15T08:12:17Z</time>
      </trkpt>
      <trkpt lat="49.65491" lon="-1.57355">
        <ele>4.1</ele>
        <time>2020-06-15T08:12:18Z</time>
      </trkpt>
      <trkpt lat="49.65493" lon="-1.57356">
        <ele>4.1</ele>
        <time>2020-06-15T08:12:19Z</time>
      </trkpt>
      <trkpt lat="49.65496" lon="-1.57358">
        <ele>4.1</ele>
        <time>2020-06-15T08:12:20Z</time>
      </trkpt>
      <trkpt lat="49.65499" lon="-1.57359">
        <ele>4.1</ele>
        <time>2020-06-15T08:12:21Z</time>
      </trkpt>
      <trkpt lat="49.65501" lon="-1.57361">
        <ele>4.1</ele>
        <time>2020-06-15T08:12:22Z</time>
      </trkpt>
      <trkpt lat="49.65504" lon="-1.57363">
        <ele>4</ele>
        <time>2020-06-15T08:12:23Z</time>
      </trkpt>
      <trkpt lat="49.65506" lon="-1.57364">
        <ele>4</ele>
        <time>2020-06-15T08:12:24Z</time>
      </trkpt>
      <trkpt lat="49.65509" lon="-1.57366">
        <ele>4</ele>
        <time>2020-06-15T08:12:25Z</time>
      </trkpt>
      <trkpt lat="49.65512" lon="-1.57368">
        <ele>4</ele>
        <time>2020-06-15T08:12:26Z</time>
      </trkpt>
      <trkpt lat="49.65514" lon="-1.5737">
        <ele>4</ele>
        <time>2020-06-15T08:12:27Z</time>
      </trkpt>
      <trkpt lat="49.65517" lon="-1.57371">
        <ele>4</ele>
        <time>2020-06-15T08:12:28Z</time>
      </trkpt>
      <trkpt lat="49.6552" lon="-1.57371">
        <ele>4</ele>
        <time>2020-06-15T08:12:29Z</time>
      </trkpt>
      <trkpt lat="49.65523" lon="-1.5737">
        <ele>3.9</ele>
        <time>2020-06-15T08:12:30Z</time>
      </trkpt>
      <trkpt lat="49.65527" lon="-1.57368">
        <ele>3.9</ele>
        <time>2020-06-15T08:12:31Z</time>
      </trkpt>
      <trkpt lat="49.65529" lon="-1.57367">
        <ele>3.9</ele>
        <time>2020-06-15T08:12:32Z</time>
      </trkpt>
      <trkpt lat="49.65531" lon="-1.57364">
        <ele>3.9</ele>
        <time>2020-06-15T08:12:33Z</time>
      </trkpt>
      <trkpt lat="49.65534" lon="-1.5736">
        <ele>3.9</ele>
        <time>2020-06-15T08:12:34Z</time>
      </trkpt>
      <trkpt lat="49.65537" lon="-1.57355">
        <ele>3.9</ele>
        <time>2020-06-15T08:12:35Z</time>
      </trkpt>
      <trkpt lat="49.65539" lon="-1.5735">
        <ele>3.9</ele>
        <time>2020-06-15T08:12:36Z</time>
      </trkpt>
      <trkpt lat="49.65541" lon="-1.57345">
        <ele>3.9</ele>
        <time>2020-06-15T08:12:37Z</time>
      </trkpt>
      <trkpt lat="49.65542" lon="-1.57338">
        <ele>3.8</ele>
        <time>2020-06-15T08:12:38Z</time>
      </trkpt>
      <trkpt lat="49.65544" lon="-1.57332">
        <ele>3.8</ele>
        <time>2020-06-15T08:12:39Z</time>
      </trkpt>
      <trkpt lat="49.65546" lon="-1.57326">
        <ele>3.8</ele>
        <time>2020-06-15T08:12:40Z</time>
      </trkpt>
      <trkpt lat="49.65547" lon="-1.57319">
        <ele>3.8</ele>
        <time>2020-06-15T08:12:41Z</time>
      </trkpt>
      <trkpt lat="49.65549" lon="-1.57312">
        <ele>3.8</ele>
        <time>2020-06-15T08:12:42Z</time>
      </trkpt>
      <trkpt lat="49.6555" lon="-1.57305">
        <ele>3.8</ele>
        <time>2020-06-15T08:12:43Z</time>
      </trkpt>
      <trkpt lat="49.65552" lon="-1.57298">
        <ele>3.8</ele>
        <time>2020-06-15T08:12:44Z</time>
      </trkpt>
      <trkpt lat="49.65554" lon="-1.57292">
        <ele>3.9</ele>
        <time>2020-06-15T08:12:45Z</time>
      </trkpt>
      <trkpt lat="49.65556" lon="-1.57285">
        <ele>3.9</ele>
        <time>2020-06-15T08:12:46Z</time>
      </trkpt>
      <trkpt lat="49.65558" lon="-1.57279">
        <ele>3.9</ele>
        <time>2020-06-15T08:12:47Z</time>
      </trkpt>
      <trkpt lat="49.6556" lon="-1.57272">
        <ele>3.9</ele>
        <time>2020-06-15T08:12:48Z</time>
      </trkpt>
      <trkpt lat="49.65563" lon="-1.57266">
        <ele>3.9</ele>
        <time>2020-06-15T08:12:49Z</time>
      </trkpt>
      <trkpt lat="49.65565" lon="-1.5726">
        <ele>3.9</ele>
        <time>2020-06-15T08:12:50Z</time>
      </trkpt>
      <trkpt lat="49.65567" lon="-1.57253">
        <ele>3.9</ele>
        <time>2020-06-15T08:12:51Z</time>
      </trkpt>
      <trkpt lat="49.65568" lon="-1.57246">
        <ele>3.9</ele>
        <time>2020-06-15T08:12:52Z</time>
      </trkpt>
      <trkpt lat="49.6557" lon="-1.57241">
        <ele>3.9</ele>
        <time>2020-06-15T08:12:53Z</time>
      </trkpt>
      <trkpt lat="49.65573" lon="-1.57235">
        <ele>3.8</ele>
        <time>2020-06-15T08:12:54Z</time>
      </trkpt>
      <trkpt lat="49.65575" lon="-1.57229">
        <ele>3.8</ele>
        <time>2020-06-15T08:12:55Z</time>
      </trkpt>
      <trkpt lat="49.65577" lon="-1.57223">
        <ele>3.8</ele>
        <time>2020-06-15T08:12:56Z</time>
      </trkpt>
      <trkpt lat="49.6558" lon="-1.57217">
        <ele>3.8</ele>
        <time>2020-06-15T08:12:57Z</time>
      </trkpt>
      <trkpt lat="49.65582" lon="-1.5721">
        <ele>3.9</ele>
        <time>2020-06-15T08:12:58Z</time>
      </trkpt>
      <trkpt lat="49.65584" lon="-1.57204">
        <ele>3.9</ele>
        <time>2020-06-15T08:12:59Z</time>
      </trkpt>
      <trkpt lat="49.65586" lon="-1.57197">
        <ele>3.9</ele>
        <time>2020-06-15T08:13:00Z</time>
      </trkpt>
      <trkpt lat="49.65587" lon="-1.57189">
        <ele>4</ele>
        <time>2020-06-15T08:13:01Z</time>
      </trkpt>
      <trkpt lat="49.65588" lon="-1.57183">
        <ele>4</ele>
        <time>2020-06-15T08:13:02Z</time>
      </trkpt>
      <trkpt lat="49.6559" lon="-1.57176">
        <ele>4</ele>
        <time>2020-06-15T08:13:03Z</time>
      </trkpt>
      <trkpt lat="49.65592" lon="-1.57169">
        <ele>4.1</ele>
        <time>2020-06-15T08:13:04Z</time>
      </trkpt>
      <trkpt lat="49.65593" lon="-1.57161">
        <ele>4.1</ele>
        <time>2020-06-15T08:13:05Z</time>
      </trkpt>
      <trkpt lat="49.65595" lon="-1.57155">
        <ele>4.2</ele>
        <time>2020-06-15T08:13:06Z</time>
      </trkpt>
      <trkpt lat="49.65596" lon="-1.57147">
        <ele>4.2</ele>
        <time>2020-06-15T08:13:07Z</time>
      </trkpt>
      <trkpt lat="49.65597" lon="-1.5714">
        <ele>4.2</ele>
        <time>2020-06-15T08:13:08Z</time>
      </trkpt>
      <trkpt lat="49.65599" lon="-1.57133">
        <ele>4.3</ele>
        <time>2020-06-15T08:13:09Z</time>
      </trkpt>
      <trkpt lat="49.656" lon="-1.57126">
        <ele>4.3</ele>
        <time>2020-06-15T08:13:10Z</time>
      </trkpt>
      <trkpt lat="49.65602" lon="-1.57119">
        <ele>4.3</ele>
        <time>2020-06-15T08:13:11Z</time>
      </trkpt>
      <trkpt lat="49.65604" lon="-1.57112">
        <ele>4.3</ele>
        <time>2020-06-15T08:13:12Z</time>
      </trkpt>
      <trkpt lat="49.65605" lon="-1.57105">
        <ele>4.3</ele>
        <time>2020-06-15T08:13:13Z</time>
      </trkpt>
      <trkpt lat="49.65607" lon="-1.57099">
        <ele>4.3</ele>
        <time>2020-06-15T08:13:14Z</time>
      </trkpt>
      <trkpt lat="49.65609" lon="-1.57092">
        <ele>4.3</ele>
        <time>2020-06-15T08:13:15Z</time>
      </trkpt>
      <trkpt lat="49.65611" lon="-1.57085">
        <ele>4.2</ele>
        <time>2020-06-15T08:13:16Z</time>
      </trkpt>
      <trkpt lat="49.65612" lon="-1.57078">
        <ele>4.2</ele>
        <time>2020-06-15T08:13:17Z</time>
      </trkpt>
      <trkpt lat="49.65613" lon="-1.5707">
        <ele>4.1</ele>
        <time>2020-06-15T08:13:18Z</time>
      </trkpt>
      <trkpt lat="49.65616" lon="-1.57063">
        <ele>4</ele>
        <time>2020-06-15T08:13:19Z</time>
      </trkpt>
      <trkpt lat="49.65617" lon="-1.57056">
        <ele>4</ele>
        <time>2020-06-15T08:13:20Z</time>
      </trkpt>
      <trkpt lat="49.65619" lon="-1.57049">
        <ele>3.9</ele>
        <time>2020-06-15T08:13:21Z</time>
      </trkpt>
      <trkpt lat="49.65621" lon="-1.57042">
        <ele>3.8</ele>
        <time>2020-06-15T08:13:22Z</time>
      </trkpt>
      <trkpt lat="49.65623" lon="-1.57034">
        <ele>3.8</ele>
        <time>2020-06-15T08:13:23Z</time>
      </trkpt>
      <trkpt lat="49.65625" lon="-1.57027">
        <ele>3.7</ele>
        <time>2020-06-15T08:13:24Z</time>
      </trkpt>
      <trkpt lat="49.65627" lon="-1.5702">
        <ele>3.6</ele>
        <time>2020-06-15T08:13:25Z</time>
      </trkpt>
      <trkpt lat="49.65629" lon="-1.57013">
        <ele>3.6</ele>
        <time>2020-06-15T08:13:26Z</time>
      </trkpt>
      <trkpt lat="49.65631" lon="-1.57006">
        <ele>3.5</ele>
        <time>2020-06-15T08:13:27Z</time>
      </trkpt>
      <trkpt lat="49.65633" lon="-1.56999">
        <ele>3.5</ele>
        <time>2020-06-15T08:13:28Z</time>
      </trkpt>
      <trkpt lat="49.65635" lon="-1.56992">
        <ele>3.4</ele>
        <time>2020-06-15T08:13:29Z</time>
      </trkpt>
      <trkpt lat="49.65638" lon="-1.56986">
        <ele>3.3</ele>
        <time>2020-06-15T08:13:30Z</time>
      </trkpt>
      <trkpt lat="49.6564" lon="-1.56979">
        <ele>3.3</ele>
        <time>2020-06-15T08:13:31Z</time>
      </trkpt>
      <trkpt lat="49.65641" lon="-1.56972">
        <ele>3.4</ele>
        <time>2020-06-15T08:13:32Z</time>
      </trkpt>
      <trkpt lat="49.65641" lon="-1.56965">
        <ele>4</ele>
        <time>2020-06-15T08:13:33Z</time>
      </trkpt>
      <trkpt lat="49.65639" lon="-1.56959">
        <ele>4.1</ele>
        <time>2020-06-15T08:13:34Z</time>
      </trkpt>
      <trkpt lat="49.65639" lon="-1.56951">
        <ele>4.1</ele>
        <time>2020-06-15T08:13:35Z</time>
      </trkpt>
      <trkpt lat="49.65638" lon="-1.56944">
        <ele>4.2</ele>
        <time>2020-06-15T08:13:36Z</time>
      </trkpt>
      <trkpt lat="49.65639" lon="-1.56937">
        <ele>4.2</ele>
        <time>2020-06-15T08:13:37Z</time>
      </trkpt>
      <trkpt lat="49.65639" lon="-1.56931">
        <ele>4.3</ele>
        <time>2020-06-15T08:13:38Z</time>
      </trkpt>
      <trkpt lat="49.65639" lon="-1.56924">
        <ele>4.3</ele>
        <time>2020-06-15T08:13:39Z</time>
      </trkpt>
      <trkpt lat="49.6564" lon="-1.56918">
        <ele>4.3</ele>
        <time>2020-06-15T08:13:40Z</time>
      </trkpt>
      <trkpt lat="49.6564" lon="-1.56912">
        <ele>4.4</ele>
        <time>2020-06-15T08:13:41Z</time>
      </trkpt>
      <trkpt lat="49.6564" lon="-1.56905">
        <ele>4.4</ele>
        <time>2020-06-15T08:13:42Z</time>
      </trkpt>
      <trkpt lat="49.65641" lon="-1.56898">
        <ele>4.4</ele>
        <time>2020-06-15T08:13:43Z</time>
      </trkpt>
      <trkpt lat="49.65642" lon="-1.56891">
        <ele>4.5</ele>
        <time>2020-06-15T08:13:44Z</time>
      </trkpt>
      <trkpt lat="49.65642" lon="-1.56884">
        <ele>4.5</ele>
        <time>2020-06-15T08:13:45Z</time>
      </trkpt>
      <trkpt lat="49.65642" lon="-1.56877">
        <ele>4.5</ele>
        <time>2020-06-15T08:13:46Z</time>
      </trkpt>
      <trkpt lat="49.65643" lon="-1.56871">
        <ele>4.5</ele>
        <time>2020-06-15T08:13:47Z</time>
      </trkpt>
      <trkpt lat="49.65644" lon="-1.56864">
        <ele>4.5</ele>
        <time>2020-06-15T08:13:48Z</time>
      </trkpt>
      <trkpt lat="49.65644" lon="-1.56857">
        <ele>4.6</ele>
        <time>2020-06-15T08:13:49Z</time>
      </trkpt>
      <trkpt lat="49.65644" lon="-1.5685">
        <ele>4.6</ele>
        <time>2020-06-15T08:13:50Z</time>
      </trkpt>
      <trkpt lat="49.65645" lon="-1.56844">
        <ele>4.6</ele>
        <time>2020-06-15T08:13:51Z</time>
      </trkpt>
      <trkpt lat="49.65646" lon="-1.56838">
        <ele>4.6</ele>
        <time>2020-06-15T08:13:52Z</time>
      </trkpt>
      <trkpt lat="49.65647" lon="-1.56832">
        <ele>4.5</ele>
        <time>2020-06-15T08:13:53Z</time>
      </trkpt>
      <trkpt lat="49.65647" lon="-1.56826">
        <ele>4.5</ele>
        <time>2020-06-15T08:13:54Z</time>
      </trkpt>
      <trkpt lat="49.65647" lon="-1.5682">
        <ele>4.5</ele>
        <time>2020-06-15T08:13:55Z</time>
      </trkpt>
      <trkpt lat="49.65648" lon="-1.56813">
        <ele>4.5</ele>
        <time>2020-06-15T08:13:56Z</time>
      </trkpt>
      <trkpt lat="49.65649" lon="-1.56807">
        <ele>4.4</ele>
        <time>2020-06-15T08:13:57Z</time>
      </trkpt>
      <trkpt lat="49.6565" lon="-1.56801">
        <ele>4.4</ele>
        <time>2020-06-15T08:13:58Z</time>
      </trkpt>
      <trkpt lat="49.65651" lon="-1.56796">
        <ele>4.4</ele>
        <time>2020-06-15T08:13:59Z</time>
      </trkpt>
      <trkpt lat="49.65652" lon="-1.5679">
        <ele>4.4</ele>
        <time>2020-06-15T08:14:00Z</time>
      </trkpt>
      <trkpt lat="49.65652" lon="-1.56785">
        <ele>4.4</ele>
        <time>2020-06-15T08:14:01Z</time>
      </trkpt>
      <trkpt lat="49.65652" lon="-1.5678">
        <ele>4.4</ele>
        <time>2020-06-15T08:14:02Z</time>
      </trkpt>
      <trkpt lat="49.65652" lon="-1.56775">
        <ele>4.4</ele>
        <time>2020-06-15T08:14:03Z</time>
      </trkpt>
      <trkpt lat="49.65653" lon="-1.56771">
        <ele>4.4</ele>
        <time>2020-06-15T08:14:04Z</time>
      </trkpt>
      <trkpt lat="49.65654" lon="-1.56766">
        <ele>4.4</ele>
        <time>2020-06-15T08:14:05Z</time>
      </trkpt>
      <trkpt lat="49.65654" lon="-1.56765">
        <ele>4.4</ele>
        <time>2020-06-15T08:14:06Z</time>
      </trkpt>
      <trkpt lat="49.65656" lon="-1.56765">
        <ele>4.4</ele>
        <time>2020-06-15T08:14:07Z</time>
      </trkpt>
      <trkpt lat="49.65657" lon="-1.56765">
        <ele>4.4</ele>
        <time>2020-06-15T08:14:08Z</time>
      </trkpt>
      <trkpt lat="49.65656" lon="-1.56765">
        <ele>4.4</ele>
        <time>2020-06-15T08:14:09Z</time>
      </trkpt>
      <trkpt lat="49.65656" lon="-1.56765">
        <ele>4.4</ele>
        <time>2020-06-15T08:14:10Z</time>
      </trkpt>
      <trkpt lat="49.65656" lon="-1.56765">
        <ele>4.4</ele>
        <time>2020-06-15T08:14:11Z</time>
      </trkpt>
      <trkpt lat="49.65657" lon="-1.56765">
        <ele>4.4</ele>
        <time>2020-06-15T08:14:12Z</time>
      </trkpt>
      <trkpt lat="49.65657" lon="-1.56764">
        <ele>4.4</ele>
        <time>2020-06-15T08:14:13Z</time>
      </trkpt>
      <trkpt lat="49.65657" lon="-1.56762">
        <ele>4.4</ele>
        <time>2020-06-15T08:14:14Z</time>
      </trkpt>
      <trkpt lat="49.65657" lon="-1.5676">
        <ele>4.4</ele>
        <time>2020-06-15T08:14:15Z</time>
      </trkpt>
      <trkpt lat="49.65657" lon="-1.56759">
        <ele>4.4</ele>
        <time>2020-06-15T08:14:16Z</time>
      </trkpt>
      <trkpt lat="49.65657" lon="-1.56757">
        <ele>4.4</ele>
        <time>2020-06-15T08:14:17Z</time>
      </trkpt>
      <trkpt lat="49.65657" lon="-1.56755">
        <ele>4.4</ele>
        <time>2020-06-15T08:14:18Z</time>
      </trkpt>
      <trkpt lat="49.65657" lon="-1.56753">
        <ele>4.4</ele>
        <time>2020-06-15T08:14:56Z</time>
      </trkpt>
      <trkpt lat="49.65657" lon="-1.56752">
        <ele>4.4</ele>
        <time>2020-06-15T08:14:57Z</time>
      </trkpt>
      <trkpt lat="49.65658" lon="-1.56747">
        <ele>4.4</ele>
        <time>2020-06-15T08:14:58Z</time>
      </trkpt>
      <trkpt lat="49.65659" lon="-1.56742">
        <ele>4.4</ele>
        <time>2020-06-15T08:14:59Z</time>
      </trkpt>
      <trkpt lat="49.65659" lon="-1.56737">
        <ele>4.4</ele>
        <time>2020-06-15T08:15:00Z</time>
      </trkpt>
      <trkpt lat="49.65658" lon="-1.56731">
        <ele>4.4</ele>
        <time>2020-06-15T08:15:01Z</time>
      </trkpt>
      <trkpt lat="49.65657" lon="-1.56726">
        <ele>4.4</ele>
        <time>2020-06-15T08:15:02Z</time>
      </trkpt>
      <trkpt lat="49.65656" lon="-1.56722">
        <ele>4.5</ele>
        <time>2020-06-15T08:15:03Z</time>
      </trkpt>
      <trkpt lat="49.65656" lon="-1.56718">
        <ele>4.4</ele>
        <time>2020-06-15T08:15:04Z</time>
      </trkpt>
      <trkpt lat="49.65656" lon="-1.56712">
        <ele>4.4</ele>
        <time>2020-06-15T08:15:05Z</time>
      </trkpt>
      <trkpt lat="49.65656" lon="-1.5671">
        <ele>4.4</ele>
        <time>2020-06-15T08:15:06Z</time>
      </trkpt>
      <trkpt lat="49.65656" lon="-1.56705">
        <ele>4.4</ele>
        <time>2020-06-15T08:15:07Z</time>
      </trkpt>
      <trkpt lat="49.65656" lon="-1.56704">
        <ele>4.4</ele>
        <time>2020-06-15T08:15:08Z</time>
      </trkpt>
      <trkpt lat="49.65655" lon="-1.56701">
        <ele>4.4</ele>
        <time>2020-06-15T08:15:09Z</time>
      </trkpt>
      <trkpt lat="49.65655" lon="-1.567">
        <ele>4.4</ele>
        <time>2020-06-15T08:15:10Z</time>
      </trkpt>
      <trkpt lat="49.65655" lon="-1.567">
        <ele>4.4</ele>
        <time>2020-06-15T08:15:11Z</time>
      </trkpt>
      <trkpt lat="49.65655" lon="-1.567">
        <ele>4.4</ele>
        <time>2020-06-15T08:15:12Z</time>
      </trkpt>
      <trkpt lat="49.65655" lon="-1.567">
        <ele>4.4</ele>
        <time>2020-06-15T08:15:13Z</time>
      </trkpt>
      <trkpt lat="49.65655" lon="-1.567">
        <ele>4.4</ele>
        <time>2020-06-15T08:15:14Z</time>
      </trkpt>
      <trkpt lat="49.65655" lon="-1.56699">
        <ele>4.4</ele>
        <time>2020-06-15T08:15:15Z</time>
      </trkpt>
      <trkpt lat="49.65655" lon="-1.56699">
        <ele>4.4</ele>
        <time>2020-06-15T08:15:16Z</time>
      </trkpt>
      <trkpt lat="49.65655" lon="-1.56699">
        <ele>4.4</ele>
        <time>2020-06-15T08:15:17Z</time>
      </trkpt>
      <trkpt lat="49.65655" lon="-1.56699">
        <ele>4.4</ele>
        <time>2020-06-15T08:15:18Z</time>
      </trkpt>
      <trkpt lat="49.65654" lon="-1.56699">
        <ele>4.4</ele>
        <time>2020-06-15T08:15:19Z</time>
      </trkpt>
      <trkpt lat="49.65653" lon="-1.56699">
        <ele>4.4</ele>
        <time>2020-06-15T08:15:20Z</time>
      </trkpt>
      <trkpt lat="49.65653" lon="-1.56699">
        <ele>4.4</ele>
        <time>2020-06-15T08:15:21Z</time>
      </trkpt>
      <trkpt lat="49.65653" lon="-1.56699">
        <ele>4.4</ele>
        <time>2020-06-15T08:15:22Z</time>
      </trkpt>
      <trkpt lat="49.65654" lon="-1.56699">
        <ele>4.4</ele>
        <time>2020-06-15T08:15:23Z</time>
      </trkpt>
      <trkpt lat="49.65653" lon="-1.56699">
        <ele>4.4</ele>
        <time>2020-06-15T08:15:24Z</time>
      </trkpt>
      <trkpt lat="49.65652" lon="-1.56699">
        <ele>4.4</ele>
        <time>2020-06-15T08:15:25Z</time>
      </trkpt>
      <trkpt lat="49.65652" lon="-1.56699">
        <ele>4.4</ele>
        <time>2020-06-15T08:15:26Z</time>
      </trkpt>
      <trkpt lat="49.65652" lon="-1.56699">
        <ele>4.4</ele>
        <time>2020-06-15T08:15:27Z</time>
      </trkpt>
      <trkpt lat="49.65652" lon="-1.56699">
        <ele>4.4</ele>
        <time>2020-06-15T08:15:28Z</time>
      </trkpt>
      <trkpt lat="49.65651" lon="-1.56693">
        <ele>4.3</ele>
        <time>2020-06-15T08:15:49Z</time>
      </trkpt>
      <trkpt lat="49.65651" lon="-1.5669">
        <ele>4.3</ele>
        <time>2020-06-15T08:15:50Z</time>
      </trkpt>
      <trkpt lat="49.65652" lon="-1.56684">
        <ele>4.3</ele>
        <time>2020-06-15T08:15:51Z</time>
      </trkpt>
      <trkpt lat="49.65652" lon="-1.56683">
        <ele>4.3</ele>
        <time>2020-06-15T08:15:52Z</time>
      </trkpt>
      <trkpt lat="49.65652" lon="-1.56678">
        <ele>4.3</ele>
        <time>2020-06-15T08:15:53Z</time>
      </trkpt>
      <trkpt lat="49.65652" lon="-1.56676">
        <ele>4.3</ele>
        <time>2020-06-15T08:15:54Z</time>
      </trkpt>
      <trkpt lat="49.65651" lon="-1.56671">
        <ele>4.2</ele>
        <time>2020-06-15T08:15:55Z</time>
      </trkpt>
      <trkpt lat="49.65651" lon="-1.56669">
        <ele>4.2</ele>
        <time>2020-06-15T08:15:56Z</time>
      </trkpt>
      <trkpt lat="49.65651" lon="-1.56664">
        <ele>4.2</ele>
        <time>2020-06-15T08:15:57Z</time>
      </trkpt>
      <trkpt lat="49.6565" lon="-1.56663">
        <ele>4.2</ele>
        <time>2020-06-15T08:15:58Z</time>
      </trkpt>
      <trkpt lat="49.6565" lon="-1.56658">
        <ele>4.2</ele>
        <time>2020-06-15T08:15:59Z</time>
      </trkpt>
      <trkpt lat="49.6565" lon="-1.56656">
        <ele>4.2</ele>
        <time>2020-06-15T08:16:00Z</time>
      </trkpt>
      <trkpt lat="49.65649" lon="-1.56651">
        <ele>4.1</ele>
        <time>2020-06-15T08:16:01Z</time>
      </trkpt>
      <trkpt lat="49.65649" lon="-1.56646">
        <ele>4.1</ele>
        <time>2020-06-15T08:16:02Z</time>
      </trkpt>
      <trkpt lat="49.65649" lon="-1.5664">
        <ele>4.1</ele>
        <time>2020-06-15T08:16:03Z</time>
      </trkpt>
      <trkpt lat="49.65648" lon="-1.56634">
        <ele>4</ele>
        <time>2020-06-15T08:16:04Z</time>
      </trkpt>
      <trkpt lat="49.65648" lon="-1.56628">
        <ele>4</ele>
        <time>2020-06-15T08:16:05Z</time>
      </trkpt>
      <trkpt lat="49.65647" lon="-1.56621">
        <ele>4</ele>
        <time>2020-06-15T08:16:06Z</time>
      </trkpt>
      <trkpt lat="49.65646" lon="-1.56614">
        <ele>4</ele>
        <time>2020-06-15T08:16:07Z</time>
      </trkpt>
      <trkpt lat="49.65646" lon="-1.56608">
        <ele>4</ele>
        <time>2020-06-15T08:16:08Z</time>
      </trkpt>
      <trkpt lat="49.65645" lon="-1.56603">
        <ele>3.9</ele>
        <time>2020-06-15T08:16:09Z</time>
      </trkpt>
      <trkpt lat="49.65644" lon="-1.56598">
        <ele>3.9</ele>
        <time>2020-06-15T08:16:10Z</time>
      </trkpt>
      <trkpt lat="49.65643" lon="-1.56593">
        <ele>3.9</ele>
        <time>2020-06-15T08:16:11Z</time>
      </trkpt>
      <trkpt lat="49.65641" lon="-1.56588">
        <ele>3.9</ele>
        <time>2020-06-15T08:16:12Z</time>
      </trkpt>
      <trkpt lat="49.6564" lon="-1.56583">
        <ele>3.9</ele>
        <time>2020-06-15T08:16:13Z</time>
      </trkpt>
      <trkpt lat="49.65639" lon="-1.56578">
        <ele>3.9</ele>
        <time>2020-06-15T08:16:14Z</time>
      </trkpt>
      <trkpt lat="49.65638" lon="-1.56572">
        <ele>3.9</ele>
        <time>2020-06-15T08:16:15Z</time>
      </trkpt>
      <trkpt lat="49.65637" lon="-1.56567">
        <ele>3.9</ele>
        <time>2020-06-15T08:16:16Z</time>
      </trkpt>
      <trkpt lat="49.65636" lon="-1.56561">
        <ele>3.9</ele>
        <time>2020-06-15T08:16:17Z</time>
      </trkpt>
      <trkpt lat="49.65635" lon="-1.56555">
        <ele>3.9</ele>
        <time>2020-06-15T08:16:18Z</time>
      </trkpt>
      <trkpt lat="49.65634" lon="-1.5655">
        <ele>3.9</ele>
        <time>2020-06-15T08:16:19Z</time>
      </trkpt>
      <trkpt lat="49.65633" lon="-1.56544">
        <ele>3.9</ele>
        <time>2020-06-15T08:16:20Z</time>
      </trkpt>
      <trkpt lat="49.65632" lon="-1.56539">
        <ele>3.9</ele>
        <time>2020-06-15T08:16:21Z</time>
      </trkpt>
      <trkpt lat="49.65631" lon="-1.56534">
        <ele>3.8</ele>
        <time>2020-06-15T08:16:22Z</time>
      </trkpt>
      <trkpt lat="49.65631" lon="-1.56528">
        <ele>3.8</ele>
        <time>2020-06-15T08:16:23Z</time>
      </trkpt>
      <trkpt lat="49.6563" lon="-1.56522">
        <ele>3.8</ele>
        <time>2020-06-15T08:16:24Z</time>
      </trkpt>
      <trkpt lat="49.65629" lon="-1.56517">
        <ele>3.8</ele>
        <time>2020-06-15T08:16:25Z</time>
      </trkpt>
      <trkpt lat="49.65627" lon="-1.56511">
        <ele>3.8</ele>
        <time>2020-06-15T08:16:26Z</time>
      </trkpt>
      <trkpt lat="49.65625" lon="-1.56506">
        <ele>3.7</ele>
        <time>2020-06-15T08:16:27Z</time>
      </trkpt>
      <trkpt lat="49.65623" lon="-1.56501">
        <ele>3.7</ele>
        <time>2020-06-15T08:16:28Z</time>
      </trkpt>
      <trkpt lat="49.65621" lon="-1.56495">
        <ele>3.7</ele>
        <time>2020-06-15T08:16:29Z</time>
      </trkpt>
      <trkpt lat="49.6562" lon="-1.56489">
        <ele>3.7</ele>
        <time>2020-06-15T08:16:30Z</time>
      </trkpt>
      <trkpt lat="49.65619" lon="-1.56483">
        <ele>3.7</ele>
        <time>2020-06-15T08:16:31Z</time>
      </trkpt>
      <trkpt lat="49.65617" lon="-1.56478">
        <ele>3.7</ele>
        <time>2020-06-15T08:16:32Z</time>
      </trkpt>
      <trkpt lat="49.65615" lon="-1.56473">
        <ele>3.7</ele>
        <time>2020-06-15T08:16:33Z</time>
      </trkpt>
      <trkpt lat="49.65613" lon="-1.56467">
        <ele>3.7</ele>
        <time>2020-06-15T08:16:34Z</time>
      </trkpt>
      <trkpt lat="49.65612" lon="-1.56462">
        <ele>3.7</ele>
        <time>2020-06-15T08:16:35Z</time>
      </trkpt>
      <trkpt lat="49.6561" lon="-1.56456">
        <ele>3.7</ele>
        <time>2020-06-15T08:16:36Z</time>
      </trkpt>
      <trkpt lat="49.65608" lon="-1.5645">
        <ele>3.7</ele>
        <time>2020-06-15T08:16:37Z</time>
      </trkpt>
      <trkpt lat="49.65607" lon="-1.56444">
        <ele>3.7</ele>
        <time>2020-06-15T08:16:38Z</time>
      </trkpt>
      <trkpt lat="49.65606" lon="-1.56438">
        <ele>3.7</ele>
        <time>2020-06-15T08:16:39Z</time>
      </trkpt>
      <trkpt lat="49.65604" lon="-1.56432">
        <ele>3.7</ele>
        <time>2020-06-15T08:16:40Z</time>
      </trkpt>
      <trkpt lat="49.65602" lon="-1.56426">
        <ele>3.7</ele>
        <time>2020-06-15T08:16:41Z</time>
      </trkpt>
      <trkpt lat="49.656" lon="-1.5642">
        <ele>3.7</ele>
        <time>2020-06-15T08:16:42Z</time>
      </trkpt>
      <trkpt lat="49.65598" lon="-1.56414">
        <ele>3.7</ele>
        <time>2020-06-15T08:16:43Z</time>
      </trkpt>
      <trkpt lat="49.65597" lon="-1.56408">
        <ele>3.7</ele>
        <time>2020-06-15T08:16:44Z</time>
      </trkpt>
      <trkpt lat="49.65595" lon="-1.56402">
        <ele>3.7</ele>
        <time>2020-06-15T08:16:45Z</time>
      </trkpt>
      <trkpt lat="49.65594" lon="-1.56396">
        <ele>3.6</ele>
        <time>2020-06-15T08:16:46Z</time>
      </trkpt>
      <trkpt lat="49.65593" lon="-1.56389">
        <ele>3.6</ele>
        <time>2020-06-15T08:16:47Z</time>
      </trkpt>
      <trkpt lat="49.65591" lon="-1.56383">
        <ele>3.6</ele>
        <time>2020-06-15T08:16:48Z</time>
      </trkpt>
      <trkpt lat="49.65589" lon="-1.56377">
        <ele>3.5</ele>
        <time>2020-06-15T08:16:49Z</time>
      </trkpt>
      <trkpt lat="49.65588" lon="-1.56371">
        <ele>3.5</ele>
        <time>2020-06-15T08:16:50Z</time>
      </trkpt>
      <trkpt lat="49.65586" lon="-1.56365">
        <ele>3.5</ele>
        <time>2020-06-15T08:16:51Z</time>
      </trkpt>
      <trkpt lat="49.65584" lon="-1.5636">
        <ele>3.5</ele>
        <time>2020-06-15T08:16:52Z</time>
      </trkpt>
      <trkpt lat="49.65583" lon="-1.56354">
        <ele>3.4</ele>
        <time>2020-06-15T08:16:53Z</time>
      </trkpt>
      <trkpt lat="49.65581" lon="-1.56348">
        <ele>3.4</ele>
        <time>2020-06-15T08:16:54Z</time>
      </trkpt>
      <trkpt lat="49.6558" lon="-1.56343">
        <ele>3.4</ele>
        <time>2020-06-15T08:16:55Z</time>
      </trkpt>
      <trkpt lat="49.65578" lon="-1.56338">
        <ele>3.4</ele>
        <time>2020-06-15T08:16:56Z</time>
      </trkpt>
      <trkpt lat="49.65578" lon="-1.56333">
        <ele>3.4</ele>
        <time>2020-06-15T08:16:57Z</time>
      </trkpt>
      <trkpt lat="49.65578" lon="-1.56328">
        <ele>3.4</ele>
        <time>2020-06-15T08:16:58Z</time>
      </trkpt>
      <trkpt lat="49.65577" lon="-1.56323">
        <ele>3.3</ele>
        <time>2020-06-15T08:16:59Z</time>
      </trkpt>
      <trkpt lat="49.65576" lon="-1.56319">
        <ele>3.3</ele>
        <time>2020-06-15T08:17:00Z</time>
      </trkpt>
      <trkpt lat="49.65574" lon="-1.56314">
        <ele>3.3</ele>
        <time>2020-06-15T08:17:01Z</time>
      </trkpt>
      <trkpt lat="49.65573" lon="-1.5631">
        <ele>3.3</ele>
        <time>2020-06-15T08:17:02Z</time>
      </trkpt>
      <trkpt lat="49.65571" lon="-1.56306">
        <ele>3.3</ele>
        <time>2020-06-15T08:17:03Z</time>
      </trkpt>
      <trkpt lat="49.65569" lon="-1.56302">
        <ele>3.2</ele>
        <time>2020-06-15T08:17:04Z</time>
      </trkpt>
      <trkpt lat="49.65568" lon="-1.56298">
        <ele>3.2</ele>
        <time>2020-06-15T08:17:05Z</time>
      </trkpt>
      <trkpt lat="49.65567" lon="-1.56294">
        <ele>3.2</ele>
        <time>2020-06-15T08:17:06Z</time>
      </trkpt>
      <trkpt lat="49.65565" lon="-1.5629">
        <ele>3.2</ele>
        <time>2020-06-15T08:17:07Z</time>
      </trkpt>
      <trkpt lat="49.65564" lon="-1.56286">
        <ele>3.2</ele>
        <time>2020-06-15T08:17:08Z</time>
      </trkpt>
      <trkpt lat="49.65563" lon="-1.56282">
        <ele>3.2</ele>
        <time>2020-06-15T08:17:09Z</time>
      </trkpt>
      <trkpt lat="49.65562" lon="-1.56278">
        <ele>3.2</ele>
        <time>2020-06-15T08:17:10Z</time>
      </trkpt>
      <trkpt lat="49.65561" lon="-1.56273">
        <ele>3.2</ele>
        <time>2020-06-15T08:17:11Z</time>
      </trkpt>
      <trkpt lat="49.65559" lon="-1.56269">
        <ele>3.1</ele>
        <time>2020-06-15T08:17:12Z</time>
      </trkpt>
      <trkpt lat="49.65558" lon="-1.56264">
        <ele>3.1</ele>
        <time>2020-06-15T08:17:13Z</time>
      </trkpt>
      <trkpt lat="49.65556" lon="-1.56258">
        <ele>3.1</ele>
        <time>2020-06-15T08:17:14Z</time>
      </trkpt>
      <trkpt lat="49.65556" lon="-1.56252">
        <ele>3.1</ele>
        <time>2020-06-15T08:17:15Z</time>
      </trkpt>
      <trkpt lat="49.65556" lon="-1.56246">
        <ele>3.1</ele>
        <time>2020-06-15T08:17:16Z</time>
      </trkpt>
      <trkpt lat="49.65555" lon="-1.5624">
        <ele>3.1</ele>
        <time>2020-06-15T08:17:17Z</time>
      </trkpt>
      <trkpt lat="49.65553" lon="-1.56234">
        <ele>3</ele>
        <time>2020-06-15T08:17:18Z</time>
      </trkpt>
      <trkpt lat="49.65551" lon="-1.56229">
        <ele>3</ele>
        <time>2020-06-15T08:17:19Z</time>
      </trkpt>
      <trkpt lat="49.65549" lon="-1.56224">
        <ele>3</ele>
        <time>2020-06-15T08:17:20Z</time>
      </trkpt>
      <trkpt lat="49.65548" lon="-1.56218">
        <ele>3</ele>
        <time>2020-06-15T08:17:21Z</time>
      </trkpt>
      <trkpt lat="49.65546" lon="-1.56212">
        <ele>3</ele>
        <time>2020-06-15T08:17:22Z</time>
      </trkpt>
      <trkpt lat="49.65545" lon="-1.56206">
        <ele>3</ele>
        <time>2020-06-15T08:17:23Z</time>
      </trkpt>
      <trkpt lat="49.65543" lon="-1.56201">
        <ele>3</ele>
        <time>2020-06-15T08:17:24Z</time>
      </trkpt>
      <trkpt lat="49.65541" lon="-1.56195">
        <ele>3.1</ele>
        <time>2020-06-15T08:17:25Z</time>
      </trkpt>
      <trkpt lat="49.6554" lon="-1.56189">
        <ele>3.1</ele>
        <time>2020-06-15T08:17:26Z</time>
      </trkpt>
      <trkpt lat="49.65538" lon="-1.56183">
        <ele>3.1</ele>
        <time>2020-06-15T08:17:27Z</time>
      </trkpt>
      <trkpt lat="49.65537" lon="-1.56177">
        <ele>3.1</ele>
        <time>2020-06-15T08:17:28Z</time>
      </trkpt>
      <trkpt lat="49.65536" lon="-1.56171">
        <ele>3.1</ele>
        <time>2020-06-15T08:17:29Z</time>
      </trkpt>
      <trkpt lat="49.65533" lon="-1.56165">
        <ele>3.1</ele>
        <time>2020-06-15T08:17:30Z</time>
      </trkpt>
      <trkpt lat="49.65532" lon="-1.56159">
        <ele>3.1</ele>
        <time>2020-06-15T08:17:31Z</time>
      </trkpt>
      <trkpt lat="49.6553" lon="-1.56152">
        <ele>3.1</ele>
        <time>2020-06-15T08:17:32Z</time>
      </trkpt>
      <trkpt lat="49.65529" lon="-1.56146">
        <ele>3.1</ele>
        <time>2020-06-15T08:17:33Z</time>
      </trkpt>
      <trkpt lat="49.65527" lon="-1.5614">
        <ele>3.1</ele>
        <time>2020-06-15T08:17:34Z</time>
      </trkpt>
      <trkpt lat="49.65525" lon="-1.56134">
        <ele>3.1</ele>
        <time>2020-06-15T08:17:35Z</time>
      </trkpt>
      <trkpt lat="49.65523" lon="-1.56128">
        <ele>3</ele>
        <time>2020-06-15T08:17:36Z</time>
      </trkpt>
      <trkpt lat="49.65521" lon="-1.56122">
        <ele>3</ele>
        <time>2020-06-15T08:17:37Z</time>
      </trkpt>
      <trkpt lat="49.6552" lon="-1.56115">
        <ele>3</ele>
        <time>2020-06-15T08:17:38Z</time>
      </trkpt>
      <trkpt lat="49.65518" lon="-1.56109">
        <ele>3</ele>
        <time>2020-06-15T08:17:39Z</time>
      </trkpt>
      <trkpt lat="49.65517" lon="-1.56103">
        <ele>3</ele>
        <time>2020-06-15T08:17:40Z</time>
      </trkpt>
      <trkpt lat="49.65515" lon="-1.56097">
        <ele>3</ele>
        <time>2020-06-15T08:17:41Z</time>
      </trkpt>
      <trkpt lat="49.65513" lon="-1.56091">
        <ele>3</ele>
        <time>2020-06-15T08:17:42Z</time>
      </trkpt>
      <trkpt lat="49.65511" lon="-1.56085">
        <ele>3</ele>
        <time>2020-06-15T08:17:43Z</time>
      </trkpt>
      <trkpt lat="49.6551" lon="-1.56079">
        <ele>3</ele>
        <time>2020-06-15T08:17:44Z</time>
      </trkpt>
      <trkpt lat="49.65509" lon="-1.56073">
        <ele>3</ele>
        <time>2020-06-15T08:17:45Z</time>
      </trkpt>
      <trkpt lat="49.65507" lon="-1.56067">
        <ele>3</ele>
        <time>2020-06-15T08:17:46Z</time>
      </trkpt>
      <trkpt lat="49.65505" lon="-1.56061">
        <ele>2.9</ele>
        <time>2020-06-15T08:17:47Z</time>
      </trkpt>
      <trkpt lat="49.65504" lon="-1.56054">
        <ele>2.9</ele>
        <time>2020-06-15T08:17:48Z</time>
      </trkpt>
      <trkpt lat="49.65503" lon="-1.56047">
        <ele>2.9</ele>
        <time>2020-06-15T08:17:49Z</time>
      </trkpt>
      <trkpt lat="49.65501" lon="-1.56041">
        <ele>2.9</ele>
        <time>2020-06-15T08:17:50Z</time>
      </trkpt>
      <trkpt lat="49.655" lon="-1.56035">
        <ele>2.9</ele>
        <time>2020-06-15T08:17:51Z</time>
      </trkpt>
      <trkpt lat="49.65499" lon="-1.56028">
        <ele>2.9</ele>
        <time>2020-06-15T08:17:52Z</time>
      </trkpt>
      <trkpt lat="49.65497" lon="-1.56022">
        <ele>2.9</ele>
        <time>2020-06-15T08:17:53Z</time>
      </trkpt>
      <trkpt lat="49.65495" lon="-1.56016">
        <ele>2.9</ele>
        <time>2020-06-15T08:17:54Z</time>
      </trkpt>
      <trkpt lat="49.65494" lon="-1.5601">
        <ele>2.9</ele>
        <time>2020-06-15T08:17:55Z</time>
      </trkpt>
      <trkpt lat="49.65491" lon="-1.56004">
        <ele>2.9</ele>
        <time>2020-06-15T08:17:56Z</time>
      </trkpt>
      <trkpt lat="49.65489" lon="-1.55998">
        <ele>2.9</ele>
        <time>2020-06-15T08:17:57Z</time>
      </trkpt>
      <trkpt lat="49.65487" lon="-1.55993">
        <ele>2.9</ele>
        <time>2020-06-15T08:17:58Z</time>
      </trkpt>
      <trkpt lat="49.65485" lon="-1.55987">
        <ele>3</ele>
        <time>2020-06-15T08:17:59Z</time>
      </trkpt>
      <trkpt lat="49.65484" lon="-1.55981">
        <ele>3</ele>
        <time>2020-06-15T08:18:00Z</time>
      </trkpt>
      <trkpt lat="49.65482" lon="-1.55976">
        <ele>3</ele>
        <time>2020-06-15T08:18:01Z</time>
      </trkpt>
      <trkpt lat="49.6548" lon="-1.5597">
        <ele>3</ele>
        <time>2020-06-15T08:18:02Z</time>
      </trkpt>
      <trkpt lat="49.65479" lon="-1.55967">
        <ele>3</ele>
        <time>2020-06-15T08:18:03Z</time>
      </trkpt>
      <trkpt lat="49.65477" lon="-1.55966">
        <ele>3</ele>
        <time>2020-06-15T08:18:04Z</time>
      </trkpt>
      <trkpt lat="49.65476" lon="-1.55968">
        <ele>3</ele>
        <time>2020-06-15T08:18:05Z</time>
      </trkpt>
      <trkpt lat="49.65473" lon="-1.5597">
        <ele>3</ele>
        <time>2020-06-15T08:18:06Z</time>
      </trkpt>
      <trkpt lat="49.65473" lon="-1.5597">
        <ele>3</ele>
        <time>2020-06-15T08:18:07Z</time>
      </trkpt>
      <trkpt lat="49.65471" lon="-1.5597">
        <ele>3</ele>
        <time>2020-06-15T08:18:08Z</time>
      </trkpt>
      <trkpt lat="49.65469" lon="-1.55969">
        <ele>3</ele>
        <time>2020-06-15T08:18:09Z</time>
      </trkpt>
      <trkpt lat="49.65468" lon="-1.55968">
        <ele>3</ele>
        <time>2020-06-15T08:18:10Z</time>
      </trkpt>
      <trkpt lat="49.65466" lon="-1.55966">
        <ele>3</ele>
        <time>2020-06-15T08:18:11Z</time>
      </trkpt>
      <trkpt lat="49.65465" lon="-1.55965">
        <ele>3</ele>
        <time>2020-06-15T08:18:12Z</time>
      </trkpt>
      <trkpt lat="49.65463" lon="-1.55964">
        <ele>3</ele>
        <time>2020-06-15T08:18:13Z</time>
      </trkpt>
      <trkpt lat="49.65462" lon="-1.55963">
        <ele>3</ele>
        <time>2020-06-15T08:18:14Z</time>
      </trkpt>
      <trkpt lat="49.6546" lon="-1.55962">
        <ele>3</ele>
        <time>2020-06-15T08:18:15Z</time>
      </trkpt>
      <trkpt lat="49.65458" lon="-1.55959">
        <ele>3</ele>
        <time>2020-06-15T08:18:16Z</time>
      </trkpt>
      <trkpt lat="49.65457" lon="-1.55958">
        <ele>3</ele>
        <time>2020-06-15T08:18:17Z</time>
      </trkpt>
      <trkpt lat="49.65456" lon="-1.55954">
        <ele>2.9</ele>
        <time>2020-06-15T08:18:18Z</time>
      </trkpt>
      <trkpt lat="49.65455" lon="-1.55953">
        <ele>2.9</ele>
        <time>2020-06-15T08:18:19Z</time>
      </trkpt>
      <trkpt lat="49.65453" lon="-1.55951">
        <ele>2.9</ele>
        <time>2020-06-15T08:18:20Z</time>
      </trkpt>
      <trkpt lat="49.65452" lon="-1.5595">
        <ele>2.9</ele>
        <time>2020-06-15T08:18:21Z</time>
      </trkpt>
      <trkpt lat="49.65449" lon="-1.55947">
        <ele>2.9</ele>
        <time>2020-06-15T08:18:22Z</time>
      </trkpt>
      <trkpt lat="49.65448" lon="-1.55947">
        <ele>2.9</ele>
        <time>2020-06-15T08:18:23Z</time>
      </trkpt>
      <trkpt lat="49.65446" lon="-1.55944">
        <ele>2.9</ele>
        <time>2020-06-15T08:18:24Z</time>
      </trkpt>
      <trkpt lat="49.65445" lon="-1.55943">
        <ele>2.8</ele>
        <time>2020-06-15T08:18:25Z</time>
      </trkpt>
      <trkpt lat="49.65442" lon="-1.55941">
        <ele>2.8</ele>
        <time>2020-06-15T08:18:26Z</time>
      </trkpt>
      <trkpt lat="49.65441" lon="-1.5594">
        <ele>2.8</ele>
        <time>2020-06-15T08:18:27Z</time>
      </trkpt>
      <trkpt lat="49.65438" lon="-1.55939">
        <ele>2.8</ele>
        <time>2020-06-15T08:18:28Z</time>
      </trkpt>
      <trkpt lat="49.65437" lon="-1.55939">
        <ele>2.8</ele>
        <time>2020-06-15T08:18:29Z</time>
      </trkpt>
      <trkpt lat="49.65434" lon="-1.55941">
        <ele>2.8</ele>
        <time>2020-06-15T08:18:30Z</time>
      </trkpt>
      <trkpt lat="49.6543" lon="-1.55942">
        <ele>2.8</ele>
        <time>2020-06-15T08:18:31Z</time>
      </trkpt>
      <trkpt lat="49.65429" lon="-1.55943">
        <ele>2.8</ele>
        <time>2020-06-15T08:18:32Z</time>
      </trkpt>
      <trkpt lat="49.65426" lon="-1.55944">
        <ele>2.9</ele>
        <time>2020-06-15T08:18:33Z</time>
      </trkpt>
      <trkpt lat="49.65424" lon="-1.55946">
        <ele>2.9</ele>
        <time>2020-06-15T08:18:34Z</time>
      </trkpt>
      <trkpt lat="49.65421" lon="-1.55948">
        <ele>3</ele>
        <time>2020-06-15T08:18:35Z</time>
      </trkpt>
      <trkpt lat="49.65418" lon="-1.5595">
        <ele>3</ele>
        <time>2020-06-15T08:18:36Z</time>
      </trkpt>
      <trkpt lat="49.65415" lon="-1.5595">
        <ele>3.1</ele>
        <time>2020-06-15T08:18:37Z</time>
      </trkpt>
      <trkpt lat="49.65411" lon="-1.55949">
        <ele>3.1</ele>
        <time>2020-06-15T08:18:38Z</time>
      </trkpt>
      <trkpt lat="49.65408" lon="-1.5595">
        <ele>3.1</ele>
        <time>2020-06-15T08:18:39Z</time>
      </trkpt>
      <trkpt lat="49.65404" lon="-1.55951">
        <ele>3.2</ele>
        <time>2020-06-15T08:18:40Z</time>
      </trkpt>
      <trkpt lat="49.654" lon="-1.55951">
        <ele>3.3</ele>
        <time>2020-06-15T08:18:41Z</time>
      </trkpt>
      <trkpt lat="49.65396" lon="-1.55952">
        <ele>3.4</ele>
        <time>2020-06-15T08:18:42Z</time>
      </trkpt>
      <trkpt lat="49.65392" lon="-1.55952">
        <ele>3.5</ele>
        <time>2020-06-15T08:18:43Z</time>
      </trkpt>
      <trkpt lat="49.65388" lon="-1.55952">
        <ele>3.6</ele>
        <time>2020-06-15T08:18:44Z</time>
      </trkpt>
      <trkpt lat="49.65384" lon="-1.55951">
        <ele>3.8</ele>
        <time>2020-06-15T08:18:45Z</time>
      </trkpt>
      <trkpt lat="49.65379" lon="-1.55951">
        <ele>3.9</ele>
        <time>2020-06-15T08:18:46Z</time>
      </trkpt>
      <trkpt lat="49.65375" lon="-1.55951">
        <ele>4.1</ele>
        <time>2020-06-15T08:18:47Z</time>
      </trkpt>
      <trkpt lat="49.65371" lon="-1.55952">
        <ele>4.2</ele>
        <time>2020-06-15T08:18:48Z</time>
      </trkpt>
      <trkpt lat="49.65366" lon="-1.55952">
        <ele>4.3</ele>
        <time>2020-06-15T08:18:49Z</time>
      </trkpt>
      <trkpt lat="49.65362" lon="-1.55952">
        <ele>4.4</ele>
        <time>2020-06-15T08:18:50Z</time>
      </trkpt>
      <trkpt lat="49.65357" lon="-1.55951">
        <ele>4.5</ele>
        <time>2020-06-15T08:18:51Z</time>
      </trkpt>
      <trkpt lat="49.65353" lon="-1.5595">
        <ele>4.6</ele>
        <time>2020-06-15T08:18:52Z</time>
      </trkpt>
      <trkpt lat="49.65349" lon="-1.55951">
        <ele>4.7</ele>
        <time>2020-06-15T08:18:53Z</time>
      </trkpt>
      <trkpt lat="49.65344" lon="-1.5595">
        <ele>4.8</ele>
        <time>2020-06-15T08:18:54Z</time>
      </trkpt>
      <trkpt lat="49.6534" lon="-1.5595">
        <ele>4.9</ele>
        <time>2020-06-15T08:18:55Z</time>
      </trkpt>
      <trkpt lat="49.65336" lon="-1.55949">
        <ele>5</ele>
        <time>2020-06-15T08:18:56Z</time>
      </trkpt>
      <trkpt lat="49.65331" lon="-1.55949">
        <ele>5.1</ele>
        <time>2020-06-15T08:18:57Z</time>
      </trkpt>
      <trkpt lat="49.65327" lon="-1.55948">
        <ele>5.2</ele>
        <time>2020-06-15T08:18:58Z</time>
      </trkpt>
      <trkpt lat="49.65323" lon="-1.55948">
        <ele>5.3</ele>
        <time>2020-06-15T08:18:59Z</time>
      </trkpt>
      <trkpt lat="49.65319" lon="-1.55948">
        <ele>5.3</ele>
        <time>2020-06-15T08:19:00Z</time>
      </trkpt>
      <trkpt lat="49.65315" lon="-1.55947">
        <ele>5.4</ele>
        <time>2020-06-15T08:19:01Z</time>
      </trkpt>
      <trkpt lat="49.65311" lon="-1.55947">
        <ele>5.4</ele>
        <time>2020-06-15T08:19:02Z</time>
      </trkpt>
      <trkpt lat="49.65307" lon="-1.55946">
        <ele>5.4</ele>
        <time>2020-06-15T08:19:03Z</time>
      </trkpt>
      <trkpt lat="49.65302" lon="-1.55945">
        <ele>5.5</ele>
        <time>2020-06-15T08:19:04Z</time>
      </trkpt>
      <trkpt lat="49.65298" lon="-1.55945">
        <ele>5.6</ele>
        <time>2020-06-15T08:19:05Z</time>
      </trkpt>
      <trkpt lat="49.65294" lon="-1.55945">
        <ele>5.6</ele>
        <time>2020-06-15T08:19:06Z</time>
      </trkpt>
      <trkpt lat="49.6529" lon="-1.55945">
        <ele>5.7</ele>
        <time>2020-06-15T08:19:07Z</time>
      </trkpt>
      <trkpt lat="49.65285" lon="-1.55943">
        <ele>5.7</ele>
        <time>2020-06-15T08:19:08Z</time>
      </trkpt>
      <trkpt lat="49.65281" lon="-1.55941">
        <ele>5.8</ele>
        <time>2020-06-15T08:19:09Z</time>
      </trkpt>
      <trkpt lat="49.65277" lon="-1.55939">
        <ele>5.9</ele>
        <time>2020-06-15T08:19:10Z</time>
      </trkpt>
      <trkpt lat="49.65273" lon="-1.55937">
        <ele>6.1</ele>
        <time>2020-06-15T08:19:11Z</time>
      </trkpt>
      <trkpt lat="49.65269" lon="-1.55936">
        <ele>6.2</ele>
        <time>2020-06-15T08:19:12Z</time>
      </trkpt>
      <trkpt lat="49.65265" lon="-1.55935">
        <ele>6.3</ele>
        <time>2020-06-15T08:19:13Z</time>
      </trkpt>
      <trkpt lat="49.65261" lon="-1.55934">
        <ele>6.4</ele>
        <time>2020-06-15T08:19:14Z</time>
      </trkpt>
      <trkpt lat="49.65257" lon="-1.55933">
        <ele>6.5</ele>
        <time>2020-06-15T08:19:15Z</time>
      </trkpt>
      <trkpt lat="49.65252" lon="-1.55932">
        <ele>6.6</ele>
        <time>2020-06-15T08:19:16Z</time>
      </trkpt>
      <trkpt lat="49.65248" lon="-1.55932">
        <ele>7</ele>
        <time>2020-06-15T08:19:17Z</time>
      </trkpt>
      <trkpt lat="49.65244" lon="-1.55932">
        <ele>7.2</ele>
        <time>2020-06-15T08:19:18Z</time>
      </trkpt>
      <trkpt lat="49.65239" lon="-1.55932">
        <ele>7.3</ele>
        <time>2020-06-15T08:19:19Z</time>
      </trkpt>
      <trkpt lat="49.65235" lon="-1.55931">
        <ele>7.5</ele>
        <time>2020-06-15T08:19:20Z</time>
      </trkpt>
      <trkpt lat="49.65232" lon="-1.55931">
        <ele>7.6</ele>
        <time>2020-06-15T08:19:21Z</time>
      </trkpt>
      <trkpt lat="49.65228" lon="-1.55929">
        <ele>7.8</ele>
        <time>2020-06-15T08:19:22Z</time>
      </trkpt>
      <trkpt lat="49.65224" lon="-1.55927">
        <ele>7.9</ele>
        <time>2020-06-15T08:19:23Z</time>
      </trkpt>
      <trkpt lat="49.65221" lon="-1.55926">
        <ele>8</ele>
        <time>2020-06-15T08:19:24Z</time>
      </trkpt>
      <trkpt lat="49.65217" lon="-1.55924">
        <ele>8.1</ele>
        <time>2020-06-15T08:19:25Z</time>
      </trkpt>
      <trkpt lat="49.65214" lon="-1.55921">
        <ele>8.3</ele>
        <time>2020-06-15T08:19:26Z</time>
      </trkpt>
      <trkpt lat="49.65211" lon="-1.55918">
        <ele>8.4</ele>
        <time>2020-06-15T08:19:27Z</time>
      </trkpt>
      <trkpt lat="49.65207" lon="-1.55915">
        <ele>8.6</ele>
        <time>2020-06-15T08:19:28Z</time>
      </trkpt>
      <trkpt lat="49.65204" lon="-1.55913">
        <ele>8.7</ele>
        <time>2020-06-15T08:19:29Z</time>
      </trkpt>
      <trkpt lat="49.652" lon="-1.55911">
        <ele>8.9</ele>
        <time>2020-06-15T08:19:30Z</time>
      </trkpt>
      <trkpt lat="49.65196" lon="-1.5591">
        <ele>9</ele>
        <time>2020-06-15T08:19:31Z</time>
      </trkpt>
      <trkpt lat="49.65193" lon="-1.55909">
        <ele>9.1</ele>
        <time>2020-06-15T08:19:32Z</time>
      </trkpt>
      <trkpt lat="49.6519" lon="-1.55906">
        <ele>9.3</ele>
        <time>2020-06-15T08:19:33Z</time>
      </trkpt>
      <trkpt lat="49.65187" lon="-1.55904">
        <ele>9.4</ele>
        <time>2020-06-15T08:19:34Z</time>
      </trkpt>
      <trkpt lat="49.65185" lon="-1.55902">
        <ele>9.5</ele>
        <time>2020-06-15T08:19:35Z</time>
      </trkpt>
      <trkpt lat="49.65183" lon="-1.55899">
        <ele>9.7</ele>
        <time>2020-06-15T08:19:36Z</time>
      </trkpt>
      <trkpt lat="49.65181" lon="-1.55896">
        <ele>9.8</ele>
        <time>2020-06-15T08:19:37Z</time>
      </trkpt>
      <trkpt lat="49.65177" lon="-1.55893">
        <ele>10</ele>
        <time>2020-06-15T08:19:38Z</time>
      </trkpt>
      <trkpt lat="49.65177" lon="-1.55891">
        <ele>10</ele>
        <time>2020-06-15T08:19:39Z</time>
      </trkpt>
      <trkpt lat="49.65174" lon="-1.55888">
        <ele>10.2</ele>
        <time>2020-06-15T08:19:40Z</time>
      </trkpt>
      <trkpt lat="49.65173" lon="-1.55887">
        <ele>10.3</ele>
        <time>2020-06-15T08:19:41Z</time>
      </trkpt>
      <trkpt lat="49.65169" lon="-1.55885">
        <ele>10.4</ele>
        <time>2020-06-15T08:19:42Z</time>
      </trkpt>
      <trkpt lat="49.65168" lon="-1.55884">
        <ele>10.5</ele>
        <time>2020-06-15T08:19:43Z</time>
      </trkpt>
      <trkpt lat="49.65167" lon="-1.55883">
        <ele>10.6</ele>
        <time>2020-06-15T08:19:44Z</time>
      </trkpt>
      <trkpt lat="49.65167" lon="-1.5588">
        <ele>10.6</ele>
        <time>2020-06-15T08:19:45Z</time>
      </trkpt>
      <trkpt lat="49.65167" lon="-1.55873">
        <ele>10.8</ele>
        <time>2020-06-15T08:19:46Z</time>
      </trkpt>
      <trkpt lat="49.65167" lon="-1.55871">
        <ele>10.9</ele>
        <time>2020-06-15T08:19:47Z</time>
      </trkpt>
      <trkpt lat="49.65167" lon="-1.55865">
        <ele>11.1</ele>
        <time>2020-06-15T08:19:48Z</time>
      </trkpt>
      <trkpt lat="49.65168" lon="-1.55859">
        <ele>11.1</ele>
        <time>2020-06-15T08:19:49Z</time>
      </trkpt>
      <trkpt lat="49.65169" lon="-1.55854">
        <ele>11.1</ele>
        <time>2020-06-15T08:19:50Z</time>
      </trkpt>
      <trkpt lat="49.65171" lon="-1.55847">
        <ele>11.1</ele>
        <time>2020-06-15T08:19:51Z</time>
      </trkpt>
      <trkpt lat="49.65171" lon="-1.55841">
        <ele>11.1</ele>
        <time>2020-06-15T08:19:52Z</time>
      </trkpt>
      <trkpt lat="49.65172" lon="-1.55834">
        <ele>11.1</ele>
        <time>2020-06-15T08:19:53Z</time>
      </trkpt>
      <trkpt lat="49.65174" lon="-1.55828">
        <ele>11.2</ele>
        <time>2020-06-15T08:19:54Z</time>
      </trkpt>
      <trkpt lat="49.65175" lon="-1.55822">
        <ele>11.2</ele>
        <time>2020-06-15T08:19:55Z</time>
      </trkpt>
      <trkpt lat="49.65175" lon="-1.55815">
        <ele>11.3</ele>
        <time>2020-06-15T08:19:56Z</time>
      </trkpt>
      <trkpt lat="49.65176" lon="-1.55809">
        <ele>11.3</ele>
        <time>2020-06-15T08:19:57Z</time>
      </trkpt>
      <trkpt lat="49.65177" lon="-1.55802">
        <ele>11.2</ele>
        <time>2020-06-15T08:19:58Z</time>
      </trkpt>
      <trkpt lat="49.65178" lon="-1.55795">
        <ele>11.2</ele>
        <time>2020-06-15T08:19:59Z</time>
      </trkpt>
      <trkpt lat="49.65179" lon="-1.55788">
        <ele>11.2</ele>
        <time>2020-06-15T08:20:00Z</time>
      </trkpt>
      <trkpt lat="49.65181" lon="-1.55781">
        <ele>11.2</ele>
        <time>2020-06-15T08:20:01Z</time>
      </trkpt>
      <trkpt lat="49.65181" lon="-1.55773">
        <ele>11.2</ele>
        <time>2020-06-15T08:20:02Z</time>
      </trkpt>
      <trkpt lat="49.65182" lon="-1.55765">
        <ele>11.2</ele>
        <time>2020-06-15T08:20:03Z</time>
      </trkpt>
      <trkpt lat="49.65183" lon="-1.55758">
        <ele>11.2</ele>
        <time>2020-06-15T08:20:04Z</time>
      </trkpt>
      <trkpt lat="49.65185" lon="-1.55751">
        <ele>11.2</ele>
        <time>2020-06-15T08:20:05Z</time>
      </trkpt>
      <trkpt lat="49.65186" lon="-1.55744">
        <ele>11.2</ele>
        <time>2020-06-15T08:20:06Z</time>
      </trkpt>
      <trkpt lat="49.65188" lon="-1.55737">
        <ele>11.2</ele>
        <time>2020-06-15T08:20:07Z</time>
      </trkpt>
      <trkpt lat="49.65188" lon="-1.55729">
        <ele>11.3</ele>
        <time>2020-06-15T08:20:08Z</time>
      </trkpt>
      <trkpt lat="49.65188" lon="-1.55723">
        <ele>11.3</ele>
        <time>2020-06-15T08:20:09Z</time>
      </trkpt>
      <trkpt lat="49.65189" lon="-1.55716">
        <ele>11.3</ele>
        <time>2020-06-15T08:20:10Z</time>
      </trkpt>
      <trkpt lat="49.65189" lon="-1.55709">
        <ele>11.4</ele>
        <time>2020-06-15T08:20:11Z</time>
      </trkpt>
      <trkpt lat="49.65189" lon="-1.55702">
        <ele>11.4</ele>
        <time>2020-06-15T08:20:12Z</time>
      </trkpt>
      <trkpt lat="49.65189" lon="-1.55695">
        <ele>11.5</ele>
        <time>2020-06-15T08:20:13Z</time>
      </trkpt>
      <trkpt lat="49.6519" lon="-1.55687">
        <ele>11.5</ele>
        <time>2020-06-15T08:20:14Z</time>
      </trkpt>
      <trkpt lat="49.65189" lon="-1.5568">
        <ele>11.6</ele>
        <time>2020-06-15T08:20:15Z</time>
      </trkpt>
      <trkpt lat="49.65189" lon="-1.55672">
        <ele>11.7</ele>
        <time>2020-06-15T08:20:16Z</time>
      </trkpt>
      <trkpt lat="49.65189" lon="-1.55664">
        <ele>11.7</ele>
        <time>2020-06-15T08:20:17Z</time>
      </trkpt>
      <trkpt lat="49.65188" lon="-1.55657">
        <ele>11.8</ele>
        <time>2020-06-15T08:20:18Z</time>
      </trkpt>
      <trkpt lat="49.65188" lon="-1.55649">
        <ele>11.7</ele>
        <time>2020-06-15T08:20:19Z</time>
      </trkpt>
      <trkpt lat="49.65188" lon="-1.55641">
        <ele>11.7</ele>
        <time>2020-06-15T08:20:20Z</time>
      </trkpt>
      <trkpt lat="49.65189" lon="-1.55633">
        <ele>11.7</ele>
        <time>2020-06-15T08:20:21Z</time>
      </trkpt>
      <trkpt lat="49.65189" lon="-1.55625">
        <ele>11.7</ele>
        <time>2020-06-15T08:20:22Z</time>
      </trkpt>
      <trkpt lat="49.65189" lon="-1.55618">
        <ele>11.8</ele>
        <time>2020-06-15T08:20:23Z</time>
      </trkpt>
      <trkpt lat="49.65189" lon="-1.5561">
        <ele>11.8</ele>
        <time>2020-06-15T08:20:24Z</time>
      </trkpt>
      <trkpt lat="49.65189" lon="-1.55603">
        <ele>11.8</ele>
        <time>2020-06-15T08:20:25Z</time>
      </trkpt>
      <trkpt lat="49.65189" lon="-1.55596">
        <ele>11.9</ele>
        <time>2020-06-15T08:20:26Z</time>
      </trkpt>
      <trkpt lat="49.65189" lon="-1.55587">
        <ele>11.9</ele>
        <time>2020-06-15T08:20:27Z</time>
      </trkpt>
      <trkpt lat="49.65189" lon="-1.55579">
        <ele>12</ele>
        <time>2020-06-15T08:20:28Z</time>
      </trkpt>
      <trkpt lat="49.65189" lon="-1.55572">
        <ele>12.1</ele>
        <time>2020-06-15T08:20:29Z</time>
      </trkpt>
      <trkpt lat="49.65189" lon="-1.55566">
        <ele>12.1</ele>
        <time>2020-06-15T08:20:30Z</time>
      </trkpt>
      <trkpt lat="49.65189" lon="-1.55559">
        <ele>12.1</ele>
        <time>2020-06-15T08:20:31Z</time>
      </trkpt>
      <trkpt lat="49.6519" lon="-1.55553">
        <ele>12.1</ele>
        <time>2020-06-15T08:20:32Z</time>
      </trkpt>
      <trkpt lat="49.6519" lon="-1.55544">
        <ele>12.2</ele>
        <time>2020-06-15T08:20:33Z</time>
      </trkpt>
      <trkpt lat="49.65191" lon="-1.55535">
        <ele>12.1</ele>
        <time>2020-06-15T08:20:34Z</time>
      </trkpt>
      <trkpt lat="49.65193" lon="-1.55528">
        <ele>12.1</ele>
        <time>2020-06-15T08:20:35Z</time>
      </trkpt>
      <trkpt lat="49.65193" lon="-1.55519">
        <ele>12.1</ele>
        <time>2020-06-15T08:20:36Z</time>
      </trkpt>
      <trkpt lat="49.65195" lon="-1.55512">
        <ele>12.1</ele>
        <time>2020-06-15T08:20:37Z</time>
      </trkpt>
      <trkpt lat="49.65197" lon="-1.55505">
        <ele>12.1</ele>
        <time>2020-06-15T08:20:38Z</time>
      </trkpt>
      <trkpt lat="49.65201" lon="-1.55497">
        <ele>12.1</ele>
        <time>2020-06-15T08:20:39Z</time>
      </trkpt>
      <trkpt lat="49.65205" lon="-1.5549">
        <ele>12</ele>
        <time>2020-06-15T08:20:40Z</time>
      </trkpt>
      <trkpt lat="49.65209" lon="-1.55484">
        <ele>12</ele>
        <time>2020-06-15T08:20:41Z</time>
      </trkpt>
      <trkpt lat="49.65214" lon="-1.55476">
        <ele>11.9</ele>
        <time>2020-06-15T08:20:42Z</time>
      </trkpt>
      <trkpt lat="49.65218" lon="-1.55468">
        <ele>11.9</ele>
        <time>2020-06-15T08:20:43Z</time>
      </trkpt>
      <trkpt lat="49.6522" lon="-1.55462">
        <ele>11.9</ele>
        <time>2020-06-15T08:20:44Z</time>
      </trkpt>
      <trkpt lat="49.65223" lon="-1.55456">
        <ele>11.9</ele>
        <time>2020-06-15T08:20:45Z</time>
      </trkpt>
      <trkpt lat="49.65225" lon="-1.5545">
        <ele>11.9</ele>
        <time>2020-06-15T08:20:46Z</time>
      </trkpt>
      <trkpt lat="49.65229" lon="-1.55444">
        <ele>11.8</ele>
        <time>2020-06-15T08:20:47Z</time>
      </trkpt>
      <trkpt lat="49.65232" lon="-1.55436">
        <ele>11.8</ele>
        <time>2020-06-15T08:20:48Z</time>
      </trkpt>
      <trkpt lat="49.65234" lon="-1.5543">
        <ele>11.8</ele>
        <time>2020-06-15T08:20:49Z</time>
      </trkpt>
      <trkpt lat="49.65237" lon="-1.55424">
        <ele>11.7</ele>
        <time>2020-06-15T08:20:50Z</time>
      </trkpt>
      <trkpt lat="49.6524" lon="-1.55419">
        <ele>11.7</ele>
        <time>2020-06-15T08:20:51Z</time>
      </trkpt>
      <trkpt lat="49.65243" lon="-1.55411">
        <ele>11.6</ele>
        <time>2020-06-15T08:20:52Z</time>
      </trkpt>
      <trkpt lat="49.65246" lon="-1.55405">
        <ele>11.5</ele>
        <time>2020-06-15T08:20:53Z</time>
      </trkpt>
      <trkpt lat="49.6525" lon="-1.55399">
        <ele>11.5</ele>
        <time>2020-06-15T08:20:54Z</time>
      </trkpt>
      <trkpt lat="49.65253" lon="-1.55393">
        <ele>11.4</ele>
        <time>2020-06-15T08:20:55Z</time>
      </trkpt>
      <trkpt lat="49.65256" lon="-1.55387">
        <ele>11.4</ele>
        <time>2020-06-15T08:20:56Z</time>
      </trkpt>
      <trkpt lat="49.65259" lon="-1.55381">
        <ele>11.4</ele>
        <time>2020-06-15T08:20:57Z</time>
      </trkpt>
      <trkpt lat="49.65261" lon="-1.55374">
        <ele>11.3</ele>
        <time>2020-06-15T08:20:58Z</time>
      </trkpt>
      <trkpt lat="49.65265" lon="-1.55366">
        <ele>11.3</ele>
        <time>2020-06-15T08:20:59Z</time>
      </trkpt>
      <trkpt lat="49.65267" lon="-1.5536">
        <ele>11.3</ele>
        <time>2020-06-15T08:21:00Z</time>
      </trkpt>
      <trkpt lat="49.6527" lon="-1.55353">
        <ele>11.3</ele>
        <time>2020-06-15T08:21:01Z</time>
      </trkpt>
      <trkpt lat="49.65273" lon="-1.55347">
        <ele>11.3</ele>
        <time>2020-06-15T08:21:02Z</time>
      </trkpt>
      <trkpt lat="49.65276" lon="-1.55343">
        <ele>11.3</ele>
        <time>2020-06-15T08:21:03Z</time>
      </trkpt>
      <trkpt lat="49.65278" lon="-1.55339">
        <ele>11.3</ele>
        <time>2020-06-15T08:21:04Z</time>
      </trkpt>
      <trkpt lat="49.6528" lon="-1.55335">
        <ele>11.2</ele>
        <time>2020-06-15T08:21:05Z</time>
      </trkpt>
      <trkpt lat="49.65281" lon="-1.5533">
        <ele>11.2</ele>
        <time>2020-06-15T08:21:06Z</time>
      </trkpt>
      <trkpt lat="49.65283" lon="-1.55325">
        <ele>11.1</ele>
        <time>2020-06-15T08:21:07Z</time>
      </trkpt>
      <trkpt lat="49.65286" lon="-1.5532">
        <ele>11</ele>
        <time>2020-06-15T08:21:08Z</time>
      </trkpt>
      <trkpt lat="49.65286" lon="-1.55318">
        <ele>11</ele>
        <time>2020-06-15T08:21:09Z</time>
      </trkpt>
      <trkpt lat="49.65287" lon="-1.55313">
        <ele>10.9</ele>
        <time>2020-06-15T08:21:10Z</time>
      </trkpt>
      <trkpt lat="49.65289" lon="-1.55306">
        <ele>10.8</ele>
        <time>2020-06-15T08:21:11Z</time>
      </trkpt>
      <trkpt lat="49.65291" lon="-1.553">
        <ele>10.7</ele>
        <time>2020-06-15T08:21:12Z</time>
      </trkpt>
      <trkpt lat="49.65292" lon="-1.55294">
        <ele>10.6</ele>
        <time>2020-06-15T08:21:13Z</time>
      </trkpt>
      <trkpt lat="49.65293" lon="-1.55285">
        <ele>10.4</ele>
        <time>2020-06-15T08:21:14Z</time>
      </trkpt>
      <trkpt lat="49.65295" lon="-1.55276">
        <ele>10.3</ele>
        <time>2020-06-15T08:21:15Z</time>
      </trkpt>
      <trkpt lat="49.65296" lon="-1.55268">
        <ele>10.2</ele>
        <time>2020-06-15T08:21:16Z</time>
      </trkpt>
      <trkpt lat="49.65295" lon="-1.55261">
        <ele>10.1</ele>
        <time>2020-06-15T08:21:17Z</time>
      </trkpt>
      <trkpt lat="49.65295" lon="-1.55253">
        <ele>10.1</ele>
        <time>2020-06-15T08:21:18Z</time>
      </trkpt>
      <trkpt lat="49.65294" lon="-1.55244">
        <ele>10</ele>
        <time>2020-06-15T08:21:19Z</time>
      </trkpt>
      <trkpt lat="49.65295" lon="-1.55236">
        <ele>10</ele>
        <time>2020-06-15T08:21:20Z</time>
      </trkpt>
      <trkpt lat="49.65295" lon="-1.55227">
        <ele>10</ele>
        <time>2020-06-15T08:21:21Z</time>
      </trkpt>
      <trkpt lat="49.65295" lon="-1.55219">
        <ele>9.9</ele>
        <time>2020-06-15T08:21:22Z</time>
      </trkpt>
      <trkpt lat="49.65296" lon="-1.5521">
        <ele>9.9</ele>
        <time>2020-06-15T08:21:23Z</time>
      </trkpt>
      <trkpt lat="49.65297" lon="-1.55201">
        <ele>9.8</ele>
        <time>2020-06-15T08:21:24Z</time>
      </trkpt>
      <trkpt lat="49.65297" lon="-1.55193">
        <ele>9.7</ele>
        <time>2020-06-15T08:21:25Z</time>
      </trkpt>
      <trkpt lat="49.65299" lon="-1.55184">
        <ele>9.6</ele>
        <time>2020-06-15T08:21:26Z</time>
      </trkpt>
      <trkpt lat="49.653" lon="-1.55176">
        <ele>9.4</ele>
        <time>2020-06-15T08:21:27Z</time>
      </trkpt>
      <trkpt lat="49.65301" lon="-1.55167">
        <ele>9.3</ele>
        <time>2020-06-15T08:21:28Z</time>
      </trkpt>
      <trkpt lat="49.65303" lon="-1.55158">
        <ele>9.2</ele>
        <time>2020-06-15T08:21:29Z</time>
      </trkpt>
      <trkpt lat="49.65303" lon="-1.55149">
        <ele>9.1</ele>
        <time>2020-06-15T08:21:30Z</time>
      </trkpt>
      <trkpt lat="49.65304" lon="-1.55142">
        <ele>9</ele>
        <time>2020-06-15T08:21:31Z</time>
      </trkpt>
      <trkpt lat="49.65305" lon="-1.55133">
        <ele>8.9</ele>
        <time>2020-06-15T08:21:32Z</time>
      </trkpt>
      <trkpt lat="49.65305" lon="-1.55124">
        <ele>8.8</ele>
        <time>2020-06-15T08:21:33Z</time>
      </trkpt>
      <trkpt lat="49.65306" lon="-1.55116">
        <ele>8.7</ele>
        <time>2020-06-15T08:21:34Z</time>
      </trkpt>
      <trkpt lat="49.65306" lon="-1.55107">
        <ele>8.6</ele>
        <time>2020-06-15T08:21:35Z</time>
      </trkpt>
      <trkpt lat="49.65306" lon="-1.55099">
        <ele>8.5</ele>
        <time>2020-06-15T08:21:36Z</time>
      </trkpt>
      <trkpt lat="49.65307" lon="-1.55091">
        <ele>8.5</ele>
        <time>2020-06-15T08:21:37Z</time>
      </trkpt>
      <trkpt lat="49.65307" lon="-1.55083">
        <ele>8.4</ele>
        <time>2020-06-15T08:21:38Z</time>
      </trkpt>
      <trkpt lat="49.65308" lon="-1.55076">
        <ele>8.3</ele>
        <time>2020-06-15T08:21:39Z</time>
      </trkpt>
      <trkpt lat="49.65309" lon="-1.55068">
        <ele>8.2</ele>
        <time>2020-06-15T08:21:40Z</time>
      </trkpt>
      <trkpt lat="49.6531" lon="-1.55058">
        <ele>8.1</ele>
        <time>2020-06-15T08:21:41Z</time>
      </trkpt>
      <trkpt lat="49.65311" lon="-1.5505">
        <ele>8</ele>
        <time>2020-06-15T08:21:42Z</time>
      </trkpt>
      <trkpt lat="49.65312" lon="-1.55041">
        <ele>7.9</ele>
        <time>2020-06-15T08:21:43Z</time>
      </trkpt>
      <trkpt lat="49.65312" lon="-1.55033">
        <ele>7.7</ele>
        <time>2020-06-15T08:21:44Z</time>
      </trkpt>
      <trkpt lat="49.65313" lon="-1.55025">
        <ele>7.6</ele>
        <time>2020-06-15T08:21:45Z</time>
      </trkpt>
      <trkpt lat="49.65313" lon="-1.55016">
        <ele>7.5</ele>
        <time>2020-06-15T08:21:46Z</time>
      </trkpt>
      <trkpt lat="49.65313" lon="-1.55007">
        <ele>7.4</ele>
        <time>2020-06-15T08:21:47Z</time>
      </trkpt>
      <trkpt lat="49.65313" lon="-1.54996">
        <ele>7.2</ele>
        <time>2020-06-15T08:21:48Z</time>
      </trkpt>
      <trkpt lat="49.65313" lon="-1.54987">
        <ele>7.1</ele>
        <time>2020-06-15T08:21:49Z</time>
      </trkpt>
      <trkpt lat="49.65314" lon="-1.54977">
        <ele>7</ele>
        <time>2020-06-15T08:21:50Z</time>
      </trkpt>
      <trkpt lat="49.65314" lon="-1.54967">
        <ele>6.9</ele>
        <time>2020-06-15T08:21:51Z</time>
      </trkpt>
      <trkpt lat="49.65315" lon="-1.54957">
        <ele>6.8</ele>
        <time>2020-06-15T08:21:52Z</time>
      </trkpt>
      <trkpt lat="49.65316" lon="-1.5495">
        <ele>6.6</ele>
        <time>2020-06-15T08:21:53Z</time>
      </trkpt>
      <trkpt lat="49.65317" lon="-1.54939">
        <ele>6.5</ele>
        <time>2020-06-15T08:21:54Z</time>
      </trkpt>
      <trkpt lat="49.65318" lon="-1.54929">
        <ele>6.3</ele>
        <time>2020-06-15T08:21:55Z</time>
      </trkpt>
      <trkpt lat="49.65319" lon="-1.5492">
        <ele>6.3</ele>
        <time>2020-06-15T08:21:56Z</time>
      </trkpt>
      <trkpt lat="49.65319" lon="-1.54909">
        <ele>6.2</ele>
        <time>2020-06-15T08:21:57Z</time>
      </trkpt>
      <trkpt lat="49.6532" lon="-1.549">
        <ele>6.1</ele>
        <time>2020-06-15T08:21:58Z</time>
      </trkpt>
      <trkpt lat="49.6532" lon="-1.5489">
        <ele>6</ele>
        <time>2020-06-15T08:21:59Z</time>
      </trkpt>
      <trkpt lat="49.65321" lon="-1.5488">
        <ele>6</ele>
        <time>2020-06-15T08:22:00Z</time>
      </trkpt>
      <trkpt lat="49.65321" lon="-1.5487">
        <ele>5.9</ele>
        <time>2020-06-15T08:22:01Z</time>
      </trkpt>
      <trkpt lat="49.65322" lon="-1.5486">
        <ele>5.9</ele>
        <time>2020-06-15T08:22:02Z</time>
      </trkpt>
      <trkpt lat="49.65323" lon="-1.5485">
        <ele>5.8</ele>
        <time>2020-06-15T08:22:03Z</time>
      </trkpt>
      <trkpt lat="49.65324" lon="-1.5484">
        <ele>5.7</ele>
        <time>2020-06-15T08:22:04Z</time>
      </trkpt>
      <trkpt lat="49.65325" lon="-1.54832">
        <ele>5.7</ele>
        <time>2020-06-15T08:22:05Z</time>
      </trkpt>
      <trkpt lat="49.65325" lon="-1.54821">
        <ele>5.6</ele>
        <time>2020-06-15T08:22:06Z</time>
      </trkpt>
      <trkpt lat="49.65325" lon="-1.54811">
        <ele>5.6</ele>
        <time>2020-06-15T08:22:07Z</time>
      </trkpt>
      <trkpt lat="49.65324" lon="-1.54801">
        <ele>5.6</ele>
        <time>2020-06-15T08:22:08Z</time>
      </trkpt>
      <trkpt lat="49.65324" lon="-1.54791">
        <ele>5.6</ele>
        <time>2020-06-15T08:22:09Z</time>
      </trkpt>
      <trkpt lat="49.65324" lon="-1.54781">
        <ele>5.5</ele>
        <time>2020-06-15T08:22:10Z</time>
      </trkpt>
      <trkpt lat="49.65324" lon="-1.54773">
        <ele>5.5</ele>
        <time>2020-06-15T08:22:11Z</time>
      </trkpt>
      <trkpt lat="49.65324" lon="-1.54763">
        <ele>5.5</ele>
        <time>2020-06-15T08:22:12Z</time>
      </trkpt>
      <trkpt lat="49.65324" lon="-1.54755">
        <ele>5.4</ele>
        <time>2020-06-15T08:22:13Z</time>
      </trkpt>
      <trkpt lat="49.65324" lon="-1.54746">
        <ele>5.4</ele>
        <time>2020-06-15T08:22:14Z</time>
      </trkpt>
      <trkpt lat="49.65325" lon="-1.54736">
        <ele>5.3</ele>
        <time>2020-06-15T08:22:15Z</time>
      </trkpt>
      <trkpt lat="49.65326" lon="-1.54728">
        <ele>5.3</ele>
        <time>2020-06-15T08:22:16Z</time>
      </trkpt>
      <trkpt lat="49.65326" lon="-1.5472">
        <ele>5.3</ele>
        <time>2020-06-15T08:22:17Z</time>
      </trkpt>
      <trkpt lat="49.65327" lon="-1.54711">
        <ele>5.3</ele>
        <time>2020-06-15T08:22:18Z</time>
      </trkpt>
      <trkpt lat="49.65327" lon="-1.54703">
        <ele>5.2</ele>
        <time>2020-06-15T08:22:19Z</time>
      </trkpt>
      <trkpt lat="49.65328" lon="-1.54694">
        <ele>5.2</ele>
        <time>2020-06-15T08:22:20Z</time>
      </trkpt>
      <trkpt lat="49.65329" lon="-1.54685">
        <ele>5.2</ele>
        <time>2020-06-15T08:22:21Z</time>
      </trkpt>
      <trkpt lat="49.6533" lon="-1.54676">
        <ele>5.2</ele>
        <time>2020-06-15T08:22:22Z</time>
      </trkpt>
      <trkpt lat="49.6533" lon="-1.54668">
        <ele>5.2</ele>
        <time>2020-06-15T08:22:23Z</time>
      </trkpt>
      <trkpt lat="49.65331" lon="-1.54659">
        <ele>5.2</ele>
        <time>2020-06-15T08:22:24Z</time>
      </trkpt>
      <trkpt lat="49.65332" lon="-1.54651">
        <ele>5.2</ele>
        <time>2020-06-15T08:22:25Z</time>
      </trkpt>
      <trkpt lat="49.65334" lon="-1.5464">
        <ele>5.2</ele>
        <time>2020-06-15T08:22:26Z</time>
      </trkpt>
      <trkpt lat="49.65335" lon="-1.54632">
        <ele>5.2</ele>
        <time>2020-06-15T08:22:27Z</time>
      </trkpt>
      <trkpt lat="49.65337" lon="-1.54624">
        <ele>5.2</ele>
        <time>2020-06-15T08:22:28Z</time>
      </trkpt>
      <trkpt lat="49.65338" lon="-1.54615">
        <ele>5.2</ele>
        <time>2020-06-15T08:22:29Z</time>
      </trkpt>
      <trkpt lat="49.65339" lon="-1.54607">
        <ele>5.3</ele>
        <time>2020-06-15T08:22:30Z</time>
      </trkpt>
      <trkpt lat="49.65339" lon="-1.54598">
        <ele>5.3</ele>
        <time>2020-06-15T08:22:31Z</time>
      </trkpt>
      <trkpt lat="49.6534" lon="-1.54589">
        <ele>5.4</ele>
        <time>2020-06-15T08:22:32Z</time>
      </trkpt>
      <trkpt lat="49.6534" lon="-1.54579">
        <ele>5.4</ele>
        <time>2020-06-15T08:22:33Z</time>
      </trkpt>
      <trkpt lat="49.6534" lon="-1.54569">
        <ele>5.5</ele>
        <time>2020-06-15T08:22:34Z</time>
      </trkpt>
      <trkpt lat="49.65341" lon="-1.5456">
        <ele>5.6</ele>
        <time>2020-06-15T08:22:35Z</time>
      </trkpt>
      <trkpt lat="49.65341" lon="-1.54552">
        <ele>5.7</ele>
        <time>2020-06-15T08:22:36Z</time>
      </trkpt>
      <trkpt lat="49.65342" lon="-1.54545">
        <ele>5.8</ele>
        <time>2020-06-15T08:22:37Z</time>
      </trkpt>
      <trkpt lat="49.65342" lon="-1.54539">
        <ele>5.9</ele>
        <time>2020-06-15T08:22:38Z</time>
      </trkpt>
      <trkpt lat="49.65343" lon="-1.54534">
        <ele>5.8</ele>
        <time>2020-06-15T08:22:39Z</time>
      </trkpt>
      <trkpt lat="49.65345" lon="-1.54531">
        <ele>5.7</ele>
        <time>2020-06-15T08:22:40Z</time>
      </trkpt>
      <trkpt lat="49.65347" lon="-1.5453">
        <ele>5.6</ele>
        <time>2020-06-15T08:22:41Z</time>
      </trkpt>
      <trkpt lat="49.6535" lon="-1.54534">
        <ele>5.4</ele>
        <time>2020-06-15T08:22:42Z</time>
      </trkpt>
      <trkpt lat="49.65355" lon="-1.54535">
        <ele>5.2</ele>
        <time>2020-06-15T08:22:43Z</time>
      </trkpt>
      <trkpt lat="49.6536" lon="-1.54535">
        <ele>5</ele>
        <time>2020-06-15T08:22:44Z</time>
      </trkpt>
      <trkpt lat="49.65365" lon="-1.54535">
        <ele>4.8</ele>
        <time>2020-06-15T08:22:45Z</time>
      </trkpt>
      <trkpt lat="49.65371" lon="-1.54535">
        <ele>4.6</ele>
        <time>2020-06-15T08:22:46Z</time>
      </trkpt>
      <trkpt lat="49.65377" lon="-1.54536">
        <ele>4.4</ele>
        <time>2020-06-15T08:22:47Z</time>
      </trkpt>
      <trkpt lat="49.65386" lon="-1.54537">
        <ele>4.1</ele>
        <time>2020-06-15T08:22:48Z</time>
      </trkpt>
      <trkpt lat="49.65392" lon="-1.54538">
        <ele>3.8</ele>
        <time>2020-06-15T08:22:49Z</time>
      </trkpt>
      <trkpt lat="49.65398" lon="-1.54539">
        <ele>3.6</ele>
        <time>2020-06-15T08:22:50Z</time>
      </trkpt>
      <trkpt lat="49.65404" lon="-1.5454">
        <ele>3.5</ele>
        <time>2020-06-15T08:22:51Z</time>
      </trkpt>
      <trkpt lat="49.65409" lon="-1.54541">
        <ele>3.3</ele>
        <time>2020-06-15T08:22:52Z</time>
      </trkpt>
      <trkpt lat="49.65413" lon="-1.54541">
        <ele>3.2</ele>
        <time>2020-06-15T08:22:53Z</time>
      </trkpt>
      <trkpt lat="49.65417" lon="-1.54542">
        <ele>3.1</ele>
        <time>2020-06-15T08:22:54Z</time>
      </trkpt>
      <trkpt lat="49.6542" lon="-1.54544">
        <ele>3</ele>
        <time>2020-06-15T08:22:55Z</time>
      </trkpt>
      <trkpt lat="49.65421" lon="-1.54544">
        <ele>3</ele>
        <time>2020-06-15T08:22:56Z</time>
      </trkpt>
      <trkpt lat="49.65424" lon="-1.54547">
        <ele>2.9</ele>
        <time>2020-06-15T08:22:57Z</time>
      </trkpt>
      <trkpt lat="49.65424" lon="-1.54555">
        <ele>2.7</ele>
        <time>2020-06-15T08:22:58Z</time>
      </trkpt>
      <trkpt lat="49.65424" lon="-1.5456">
        <ele>2.7</ele>
        <time>2020-06-15T08:22:59Z</time>
      </trkpt>
      <trkpt lat="49.65423" lon="-1.54565">
        <ele>2.6</ele>
        <time>2020-06-15T08:23:00Z</time>
      </trkpt>
      <trkpt lat="49.65423" lon="-1.54566">
        <ele>2.6</ele>
        <time>2020-06-15T08:23:01Z</time>
      </trkpt>
      <trkpt lat="49.65422" lon="-1.5457">
        <ele>2.5</ele>
        <time>2020-06-15T08:23:02Z</time>
      </trkpt>
      <trkpt lat="49.65424" lon="-1.54567">
        <ele>2.4</ele>
        <time>2020-06-15T08:23:03Z</time>
      </trkpt>
      <trkpt lat="49.65428" lon="-1.54564">
        <ele>2.4</ele>
        <time>2020-06-15T08:23:04Z</time>
      </trkpt>
      <trkpt lat="49.6543" lon="-1.5456">
        <ele>2.4</ele>
        <time>2020-06-15T08:23:05Z</time>
      </trkpt>
      <trkpt lat="49.65433" lon="-1.54557">
        <ele>2.4</ele>
        <time>2020-06-15T08:23:06Z</time>
      </trkpt>
      <trkpt lat="49.65434" lon="-1.54555">
        <ele>2.4</ele>
        <time>2020-06-15T08:23:07Z</time>
      </trkpt>
      <trkpt lat="49.65437" lon="-1.54553">
        <ele>2.4</ele>
        <time>2020-06-15T08:23:08Z</time>
      </trkpt>
      <trkpt lat="49.65439" lon="-1.54549">
        <ele>2.4</ele>
        <time>2020-06-15T08:23:09Z</time>
      </trkpt>
      <trkpt lat="49.65442" lon="-1.54545">
        <ele>2.4</ele>
        <time>2020-06-15T08:23:10Z</time>
      </trkpt>
      <trkpt lat="49.65445" lon="-1.54542">
        <ele>2.4</ele>
        <time>2020-06-15T08:23:11Z</time>
      </trkpt>
      <trkpt lat="49.65448" lon="-1.5454">
        <ele>2.4</ele>
        <time>2020-06-15T08:23:12Z</time>
      </trkpt>
      <trkpt lat="49.65451" lon="-1.54538">
        <ele>2.4</ele>
        <time>2020-06-15T08:23:13Z</time>
      </trkpt>
      <trkpt lat="49.65453" lon="-1.54535">
        <ele>2.5</ele>
        <time>2020-06-15T08:23:14Z</time>
      </trkpt>
      <trkpt lat="49.65456" lon="-1.54532">
        <ele>2.5</ele>
        <time>2020-06-15T08:23:15Z</time>
      </trkpt>
      <trkpt lat="49.65459" lon="-1.54529">
        <ele>2.5</ele>
        <time>2020-06-15T08:23:16Z</time>
      </trkpt>
      <trkpt lat="49.65461" lon="-1.54525">
        <ele>2.6</ele>
        <time>2020-06-15T08:23:17Z</time>
      </trkpt>
      <trkpt lat="49.65461" lon="-1.54523">
        <ele>2.6</ele>
        <time>2020-06-15T08:23:18Z</time>
      </trkpt>
      <trkpt lat="49.65462" lon="-1.5452">
        <ele>2.6</ele>
        <time>2020-06-15T08:23:19Z</time>
      </trkpt>
      <trkpt lat="49.65463" lon="-1.54518">
        <ele>2.6</ele>
        <time>2020-06-15T08:23:20Z</time>
      </trkpt>
      <trkpt lat="49.65466" lon="-1.54514">
        <ele>2.6</ele>
        <time>2020-06-15T08:23:21Z</time>
      </trkpt>
      <trkpt lat="49.65467" lon="-1.54513">
        <ele>2.6</ele>
        <time>2020-06-15T08:23:22Z</time>
      </trkpt>
      <trkpt lat="49.65469" lon="-1.54511">
        <ele>2.6</ele>
        <time>2020-06-15T08:23:23Z</time>
      </trkpt>
      <trkpt lat="49.65471" lon="-1.54509">
        <ele>2.6</ele>
        <time>2020-06-15T08:23:24Z</time>
      </trkpt>
      <trkpt lat="49.65471" lon="-1.54507">
        <ele>2.6</ele>
        <time>2020-06-15T08:23:25Z</time>
      </trkpt>
      <trkpt lat="49.65471" lon="-1.54502">
        <ele>2.6</ele>
        <time>2020-06-15T08:23:26Z</time>
      </trkpt>
      <trkpt lat="49.65471" lon="-1.545">
        <ele>2.6</ele>
        <time>2020-06-15T08:23:27Z</time>
      </trkpt>
      <trkpt lat="49.65469" lon="-1.54497">
        <ele>2.6</ele>
        <time>2020-06-15T08:23:28Z</time>
      </trkpt>
      <trkpt lat="49.65466" lon="-1.54494">
        <ele>2.6</ele>
        <time>2020-06-15T08:23:29Z</time>
      </trkpt>
      <trkpt lat="49.65463" lon="-1.54492">
        <ele>2.6</ele>
        <time>2020-06-15T08:23:30Z</time>
      </trkpt>
      <trkpt lat="49.65459" lon="-1.54489">
        <ele>2.6</ele>
        <time>2020-06-15T08:23:31Z</time>
      </trkpt>
      <trkpt lat="49.65455" lon="-1.54486">
        <ele>2.6</ele>
        <time>2020-06-15T08:23:32Z</time>
      </trkpt>
      <trkpt lat="49.6545" lon="-1.54484">
        <ele>2.6</ele>
        <time>2020-06-15T08:23:33Z</time>
      </trkpt>
      <trkpt lat="49.65447" lon="-1.54481">
        <ele>2.6</ele>
        <time>2020-06-15T08:23:34Z</time>
      </trkpt>
      <trkpt lat="49.65443" lon="-1.54477">
        <ele>2.6</ele>
        <time>2020-06-15T08:23:35Z</time>
      </trkpt>
      <trkpt lat="49.65439" lon="-1.54473">
        <ele>2.6</ele>
        <time>2020-06-15T08:23:36Z</time>
      </trkpt>
      <trkpt lat="49.65435" lon="-1.5447">
        <ele>2.6</ele>
        <time>2020-06-15T08:23:37Z</time>
      </trkpt>
      <trkpt lat="49.65432" lon="-1.54466">
        <ele>2.6</ele>
        <time>2020-06-15T08:23:38Z</time>
      </trkpt>
      <trkpt lat="49.65429" lon="-1.54462">
        <ele>2.6</ele>
        <time>2020-06-15T08:23:39Z</time>
      </trkpt>
      <trkpt lat="49.65426" lon="-1.54458">
        <ele>2.7</ele>
        <time>2020-06-15T08:23:40Z</time>
      </trkpt>
      <trkpt lat="49.65423" lon="-1.54453">
        <ele>2.7</ele>
        <time>2020-06-15T08:23:41Z</time>
      </trkpt>
      <trkpt lat="49.6542" lon="-1.54446">
        <ele>2.7</ele>
        <time>2020-06-15T08:23:42Z</time>
      </trkpt>
      <trkpt lat="49.65418" lon="-1.54441">
        <ele>2.7</ele>
        <time>2020-06-15T08:23:43Z</time>
      </trkpt>
      <trkpt lat="49.65416" lon="-1.54435">
        <ele>2.8</ele>
        <time>2020-06-15T08:23:44Z</time>
      </trkpt>
      <trkpt lat="49.65414" lon="-1.5443">
        <ele>2.8</ele>
        <time>2020-06-15T08:23:45Z</time>
      </trkpt>
      <trkpt lat="49.65412" lon="-1.54426">
        <ele>2.8</ele>
        <time>2020-06-15T08:23:46Z</time>
      </trkpt>
      <trkpt lat="49.65409" lon="-1.54422">
        <ele>2.9</ele>
        <time>2020-06-15T08:23:47Z</time>
      </trkpt>
      <trkpt lat="49.65407" lon="-1.54419">
        <ele>2.9</ele>
        <time>2020-06-15T08:23:48Z</time>
      </trkpt>
      <trkpt lat="49.65404" lon="-1.54417">
        <ele>2.9</ele>
        <time>2020-06-15T08:23:49Z</time>
      </trkpt>
      <trkpt lat="49.65401" lon="-1.54415">
        <ele>2.9</ele>
        <time>2020-06-15T08:23:50Z</time>
      </trkpt>
      <trkpt lat="49.65399" lon="-1.54411">
        <ele>3</ele>
        <time>2020-06-15T08:23:51Z</time>
      </trkpt>
      <trkpt lat="49.65396" lon="-1.54408">
        <ele>3</ele>
        <time>2020-06-15T08:23:52Z</time>
      </trkpt>
      <trkpt lat="49.65393" lon="-1.54405">
        <ele>3.2</ele>
        <time>2020-06-15T08:23:53Z</time>
      </trkpt>
      <trkpt lat="49.6539" lon="-1.54403">
        <ele>3.4</ele>
        <time>2020-06-15T08:23:54Z</time>
      </trkpt>
      <trkpt lat="49.65387" lon="-1.54401">
        <ele>3.5</ele>
        <time>2020-06-15T08:23:55Z</time>
      </trkpt>
      <trkpt lat="49.65383" lon="-1.544">
        <ele>3.7</ele>
        <time>2020-06-15T08:23:56Z</time>
      </trkpt>
      <trkpt lat="49.6538" lon="-1.54398">
        <ele>3.8</ele>
        <time>2020-06-15T08:23:57Z</time>
      </trkpt>
      <trkpt lat="49.65376" lon="-1.54396">
        <ele>4</ele>
        <time>2020-06-15T08:23:58Z</time>
      </trkpt>
      <trkpt lat="49.65373" lon="-1.54394">
        <ele>4.1</ele>
        <time>2020-06-15T08:23:59Z</time>
      </trkpt>
      <trkpt lat="49.65369" lon="-1.54392">
        <ele>4.3</ele>
        <time>2020-06-15T08:24:00Z</time>
      </trkpt>
      <trkpt lat="49.65367" lon="-1.5439">
        <ele>4.4</ele>
        <time>2020-06-15T08:24:01Z</time>
      </trkpt>
      <trkpt lat="49.65363" lon="-1.54388">
        <ele>4.6</ele>
        <time>2020-06-15T08:24:02Z</time>
      </trkpt>
      <trkpt lat="49.6536" lon="-1.54386">
        <ele>4.7</ele>
        <time>2020-06-15T08:24:03Z</time>
      </trkpt>
      <trkpt lat="49.65357" lon="-1.54384">
        <ele>4.8</ele>
        <time>2020-06-15T08:24:04Z</time>
      </trkpt>
      <trkpt lat="49.65356" lon="-1.5438">
        <ele>5</ele>
        <time>2020-06-15T08:24:05Z</time>
      </trkpt>
      <trkpt lat="49.65354" lon="-1.54376">
        <ele>5</ele>
        <time>2020-06-15T08:24:06Z</time>
      </trkpt>
      <trkpt lat="49.65354" lon="-1.54374">
        <ele>5</ele>
        <time>2020-06-15T08:24:07Z</time>
      </trkpt>
      <trkpt lat="49.65354" lon="-1.54372">
        <ele>5</ele>
        <time>2020-06-15T08:24:08Z</time>
      </trkpt>
      <trkpt lat="49.65354" lon="-1.54368">
        <ele>5</ele>
        <time>2020-06-15T08:24:09Z</time>
      </trkpt>
      <trkpt lat="49.65354" lon="-1.54362">
        <ele>5.1</ele>
        <time>2020-06-15T08:24:10Z</time>
      </trkpt>
      <trkpt lat="49.65354" lon="-1.54356">
        <ele>5.1</ele>
        <time>2020-06-15T08:24:11Z</time>
      </trkpt>
      <trkpt lat="49.65354" lon="-1.5435">
        <ele>5.1</ele>
        <time>2020-06-15T08:24:12Z</time>
      </trkpt>
      <trkpt lat="49.65355" lon="-1.54344">
        <ele>5.2</ele>
        <time>2020-06-15T08:24:13Z</time>
      </trkpt>
      <trkpt lat="49.65355" lon="-1.54336">
        <ele>5.2</ele>
        <time>2020-06-15T08:24:14Z</time>
      </trkpt>
      <trkpt lat="49.65356" lon="-1.5433">
        <ele>5.3</ele>
        <time>2020-06-15T08:24:15Z</time>
      </trkpt>
      <trkpt lat="49.65357" lon="-1.54323">
        <ele>5.4</ele>
        <time>2020-06-15T08:24:16Z</time>
      </trkpt>
      <trkpt lat="49.65358" lon="-1.54317">
        <ele>5.4</ele>
        <time>2020-06-15T08:24:17Z</time>
      </trkpt>
      <trkpt lat="49.65358" lon="-1.5431">
        <ele>5.5</ele>
        <time>2020-06-15T08:24:18Z</time>
      </trkpt>
      <trkpt lat="49.65358" lon="-1.54303">
        <ele>5.5</ele>
        <time>2020-06-15T08:24:19Z</time>
      </trkpt>
      <trkpt lat="49.65359" lon="-1.54296">
        <ele>5.5</ele>
        <time>2020-06-15T08:24:20Z</time>
      </trkpt>
      <trkpt lat="49.65358" lon="-1.54289">
        <ele>5.6</ele>
        <time>2020-06-15T08:24:21Z</time>
      </trkpt>
      <trkpt lat="49.65359" lon="-1.54282">
        <ele>5.6</ele>
        <time>2020-06-15T08:24:22Z</time>
      </trkpt>
      <trkpt lat="49.65359" lon="-1.54275">
        <ele>5.7</ele>
        <time>2020-06-15T08:24:23Z</time>
      </trkpt>
      <trkpt lat="49.65359" lon="-1.54268">
        <ele>5.7</ele>
        <time>2020-06-15T08:24:24Z</time>
      </trkpt>
      <trkpt lat="49.65359" lon="-1.54261">
        <ele>5.8</ele>
        <time>2020-06-15T08:24:25Z</time>
      </trkpt>
      <trkpt lat="49.65359" lon="-1.54255">
        <ele>5.8</ele>
        <time>2020-06-15T08:24:26Z</time>
      </trkpt>
      <trkpt lat="49.6536" lon="-1.54248">
        <ele>6.1</ele>
        <time>2020-06-15T08:24:27Z</time>
      </trkpt>
      <trkpt lat="49.6536" lon="-1.54243">
        <ele>6.2</ele>
        <time>2020-06-15T08:24:28Z</time>
      </trkpt>
      <trkpt lat="49.6536" lon="-1.54237">
        <ele>6.4</ele>
        <time>2020-06-15T08:24:29Z</time>
      </trkpt>
      <trkpt lat="49.6536" lon="-1.54231">
        <ele>6.5</ele>
        <time>2020-06-15T08:24:30Z</time>
      </trkpt>
      <trkpt lat="49.6536" lon="-1.54223">
        <ele>6.7</ele>
        <time>2020-06-15T08:24:31Z</time>
      </trkpt>
      <trkpt lat="49.65361" lon="-1.54217">
        <ele>6.8</ele>
        <time>2020-06-15T08:24:32Z</time>
      </trkpt>
      <trkpt lat="49.65361" lon="-1.54209">
        <ele>7</ele>
        <time>2020-06-15T08:24:33Z</time>
      </trkpt>
      <trkpt lat="49.65362" lon="-1.54202">
        <ele>7.2</ele>
        <time>2020-06-15T08:24:34Z</time>
      </trkpt>
      <trkpt lat="49.65362" lon="-1.54196">
        <ele>7.3</ele>
        <time>2020-06-15T08:24:35Z</time>
      </trkpt>
      <trkpt lat="49.65363" lon="-1.54189">
        <ele>7.5</ele>
        <time>2020-06-15T08:24:36Z</time>
      </trkpt>
      <trkpt lat="49.65363" lon="-1.54182">
        <ele>7.6</ele>
        <time>2020-06-15T08:24:37Z</time>
      </trkpt>
      <trkpt lat="49.65363" lon="-1.54176">
        <ele>7.7</ele>
        <time>2020-06-15T08:24:38Z</time>
      </trkpt>
      <trkpt lat="49.65364" lon="-1.5417">
        <ele>7.7</ele>
        <time>2020-06-15T08:24:39Z</time>
      </trkpt>
      <trkpt lat="49.65364" lon="-1.54163">
        <ele>7.7</ele>
        <time>2020-06-15T08:24:40Z</time>
      </trkpt>
      <trkpt lat="49.65364" lon="-1.54155">
        <ele>8</ele>
        <time>2020-06-15T08:24:41Z</time>
      </trkpt>
      <trkpt lat="49.65363" lon="-1.54148">
        <ele>8.3</ele>
        <time>2020-06-15T08:24:42Z</time>
      </trkpt>
      <trkpt lat="49.65362" lon="-1.5414">
        <ele>8.5</ele>
        <time>2020-06-15T08:24:43Z</time>
      </trkpt>
      <trkpt lat="49.65362" lon="-1.54132">
        <ele>8.8</ele>
        <time>2020-06-15T08:24:44Z</time>
      </trkpt>
      <trkpt lat="49.65361" lon="-1.54124">
        <ele>9.1</ele>
        <time>2020-06-15T08:24:45Z</time>
      </trkpt>
      <trkpt lat="49.6536" lon="-1.54115">
        <ele>9.4</ele>
        <time>2020-06-15T08:24:46Z</time>
      </trkpt>
      <trkpt lat="49.6536" lon="-1.54107">
        <ele>9.8</ele>
        <time>2020-06-15T08:24:47Z</time>
      </trkpt>
      <trkpt lat="49.65359" lon="-1.541">
        <ele>10.1</ele>
        <time>2020-06-15T08:24:48Z</time>
      </trkpt>
      <trkpt lat="49.65358" lon="-1.54093">
        <ele>10.4</ele>
        <time>2020-06-15T08:24:49Z</time>
      </trkpt>
      <trkpt lat="49.65357" lon="-1.54086">
        <ele>10.8</ele>
        <time>2020-06-15T08:24:50Z</time>
      </trkpt>
      <trkpt lat="49.65356" lon="-1.54079">
        <ele>11.1</ele>
        <time>2020-06-15T08:24:51Z</time>
      </trkpt>
      <trkpt lat="49.65356" lon="-1.54071">
        <ele>11.5</ele>
        <time>2020-06-15T08:24:52Z</time>
      </trkpt>
      <trkpt lat="49.65356" lon="-1.54066">
        <ele>11.8</ele>
        <time>2020-06-15T08:24:53Z</time>
      </trkpt>
      <trkpt lat="49.65355" lon="-1.54059">
        <ele>12.1</ele>
        <time>2020-06-15T08:24:54Z</time>
      </trkpt>
      <trkpt lat="49.65354" lon="-1.54053">
        <ele>12.4</ele>
        <time>2020-06-15T08:24:55Z</time>
      </trkpt>
      <trkpt lat="49.65354" lon="-1.54046">
        <ele>12.7</ele>
        <time>2020-06-15T08:24:56Z</time>
      </trkpt>
      <trkpt lat="49.65353" lon="-1.54039">
        <ele>12.9</ele>
        <time>2020-06-15T08:24:57Z</time>
      </trkpt>
      <trkpt lat="49.65353" lon="-1.54033">
        <ele>13.2</ele>
        <time>2020-06-15T08:24:58Z</time>
      </trkpt>
      <trkpt lat="49.65353" lon="-1.54028">
        <ele>13.5</ele>
        <time>2020-06-15T08:24:59Z</time>
      </trkpt>
      <trkpt lat="49.65352" lon="-1.54022">
        <ele>13.7</ele>
        <time>2020-06-15T08:25:00Z</time>
      </trkpt>
      <trkpt lat="49.65352" lon="-1.54017">
        <ele>14</ele>
        <time>2020-06-15T08:25:01Z</time>
      </trkpt>
      <trkpt lat="49.65352" lon="-1.5401">
        <ele>14.3</ele>
        <time>2020-06-15T08:25:02Z</time>
      </trkpt>
      <trkpt lat="49.65351" lon="-1.54004">
        <ele>14.6</ele>
        <time>2020-06-15T08:25:03Z</time>
      </trkpt>
      <trkpt lat="49.6535" lon="-1.53999">
        <ele>14.9</ele>
        <time>2020-06-15T08:25:04Z</time>
      </trkpt>
      <trkpt lat="49.6535" lon="-1.53992">
        <ele>15.2</ele>
        <time>2020-06-15T08:25:05Z</time>
      </trkpt>
      <trkpt lat="49.65349" lon="-1.53985">
        <ele>15.6</ele>
        <time>2020-06-15T08:25:06Z</time>
      </trkpt>
      <trkpt lat="49.65349" lon="-1.53979">
        <ele>15.9</ele>
        <time>2020-06-15T08:25:07Z</time>
      </trkpt>
      <trkpt lat="49.65349" lon="-1.53972">
        <ele>16.2</ele>
        <time>2020-06-15T08:25:08Z</time>
      </trkpt>
      <trkpt lat="49.65349" lon="-1.53966">
        <ele>16.4</ele>
        <time>2020-06-15T08:25:09Z</time>
      </trkpt>
      <trkpt lat="49.65349" lon="-1.5396">
        <ele>16.7</ele>
        <time>2020-06-15T08:25:10Z</time>
      </trkpt>
      <trkpt lat="49.65349" lon="-1.53954">
        <ele>16.9</ele>
        <time>2020-06-15T08:25:11Z</time>
      </trkpt>
      <trkpt lat="49.65349" lon="-1.53949">
        <ele>17.1</ele>
        <time>2020-06-15T08:25:12Z</time>
      </trkpt>
      <trkpt lat="49.65349" lon="-1.53944">
        <ele>17.3</ele>
        <time>2020-06-15T08:25:13Z</time>
      </trkpt>
      <trkpt lat="49.65349" lon="-1.53942">
        <ele>17.3</ele>
        <time>2020-06-15T08:25:14Z</time>
      </trkpt>
      <trkpt lat="49.6535" lon="-1.53937">
        <ele>17.5</ele>
        <time>2020-06-15T08:25:15Z</time>
      </trkpt>
      <trkpt lat="49.6535" lon="-1.53936">
        <ele>17.6</ele>
        <time>2020-06-15T08:25:16Z</time>
      </trkpt>
      <trkpt lat="49.65352" lon="-1.53935">
        <ele>17.7</ele>
        <time>2020-06-15T08:25:17Z</time>
      </trkpt>
      <trkpt lat="49.65353" lon="-1.53934">
        <ele>17.8</ele>
        <time>2020-06-15T08:25:18Z</time>
      </trkpt>
      <trkpt lat="49.65354" lon="-1.53932">
        <ele>17.4</ele>
        <time>2020-06-15T08:25:19Z</time>
      </trkpt>
      <trkpt lat="49.65357" lon="-1.53927">
        <ele>17.3</ele>
        <time>2020-06-15T08:25:20Z</time>
      </trkpt>
      <trkpt lat="49.65358" lon="-1.53924">
        <ele>17.2</ele>
        <time>2020-06-15T08:25:21Z</time>
      </trkpt>
      <trkpt lat="49.65361" lon="-1.53918">
        <ele>17</ele>
        <time>2020-06-15T08:25:22Z</time>
      </trkpt>
      <trkpt lat="49.65364" lon="-1.5391">
        <ele>16.8</ele>
        <time>2020-06-15T08:25:23Z</time>
      </trkpt>
      <trkpt lat="49.65367" lon="-1.53902">
        <ele>16.7</ele>
        <time>2020-06-15T08:25:24Z</time>
      </trkpt>
      <trkpt lat="49.65371" lon="-1.53894">
        <ele>16.6</ele>
        <time>2020-06-15T08:25:25Z</time>
      </trkpt>
      <trkpt lat="49.65375" lon="-1.53886">
        <ele>16.5</ele>
        <time>2020-06-15T08:25:26Z</time>
      </trkpt>
      <trkpt lat="49.65378" lon="-1.53878">
        <ele>16.3</ele>
        <time>2020-06-15T08:25:27Z</time>
      </trkpt>
      <trkpt lat="49.65382" lon="-1.53871">
        <ele>16.2</ele>
        <time>2020-06-15T08:25:28Z</time>
      </trkpt>
      <trkpt lat="49.65385" lon="-1.53864">
        <ele>16</ele>
        <time>2020-06-15T08:25:29Z</time>
      </trkpt>
      <trkpt lat="49.65389" lon="-1.53857">
        <ele>15.9</ele>
        <time>2020-06-15T08:25:30Z</time>
      </trkpt>
      <trkpt lat="49.65393" lon="-1.53851">
        <ele>15.8</ele>
        <time>2020-06-15T08:25:31Z</time>
      </trkpt>
      <trkpt lat="49.65396" lon="-1.53845">
        <ele>15.7</ele>
        <time>2020-06-15T08:25:32Z</time>
      </trkpt>
      <trkpt lat="49.65399" lon="-1.53838">
        <ele>15.6</ele>
        <time>2020-06-15T08:25:33Z</time>
      </trkpt>
      <trkpt lat="49.65401" lon="-1.53832">
        <ele>15.5</ele>
        <time>2020-06-15T08:25:34Z</time>
      </trkpt>
      <trkpt lat="49.65404" lon="-1.53824">
        <ele>15.4</ele>
        <time>2020-06-15T08:25:35Z</time>
      </trkpt>
      <trkpt lat="49.65406" lon="-1.53817">
        <ele>15.3</ele>
        <time>2020-06-15T08:25:36Z</time>
      </trkpt>
      <trkpt lat="49.65409" lon="-1.5381">
        <ele>15.2</ele>
        <time>2020-06-15T08:25:37Z</time>
      </trkpt>
      <trkpt lat="49.65412" lon="-1.53803">
        <ele>15.1</ele>
        <time>2020-06-15T08:25:38Z</time>
      </trkpt>
      <trkpt lat="49.65415" lon="-1.53796">
        <ele>15.1</ele>
        <time>2020-06-15T08:25:39Z</time>
      </trkpt>
      <trkpt lat="49.65418" lon="-1.53789">
        <ele>15</ele>
        <time>2020-06-15T08:25:40Z</time>
      </trkpt>
      <trkpt lat="49.6542" lon="-1.53782">
        <ele>14.9</ele>
        <time>2020-06-15T08:25:41Z</time>
      </trkpt>
      <trkpt lat="49.65423" lon="-1.53777">
        <ele>14.8</ele>
        <time>2020-06-15T08:25:42Z</time>
      </trkpt>
      <trkpt lat="49.65425" lon="-1.53769">
        <ele>14.7</ele>
        <time>2020-06-15T08:25:43Z</time>
      </trkpt>
      <trkpt lat="49.65426" lon="-1.53762">
        <ele>14.6</ele>
        <time>2020-06-15T08:25:44Z</time>
      </trkpt>
      <trkpt lat="49.65428" lon="-1.53755">
        <ele>14.5</ele>
        <time>2020-06-15T08:25:45Z</time>
      </trkpt>
      <trkpt lat="49.6543" lon="-1.53747">
        <ele>14.4</ele>
        <time>2020-06-15T08:25:46Z</time>
      </trkpt>
      <trkpt lat="49.65431" lon="-1.5374">
        <ele>14.3</ele>
        <time>2020-06-15T08:25:47Z</time>
      </trkpt>
      <trkpt lat="49.65432" lon="-1.53732">
        <ele>14.3</ele>
        <time>2020-06-15T08:25:48Z</time>
      </trkpt>
      <trkpt lat="49.65434" lon="-1.53725">
        <ele>14.2</ele>
        <time>2020-06-15T08:25:49Z</time>
      </trkpt>
      <trkpt lat="49.65436" lon="-1.53719">
        <ele>14.1</ele>
        <time>2020-06-15T08:25:50Z</time>
      </trkpt>
      <trkpt lat="49.65437" lon="-1.53711">
        <ele>14.1</ele>
        <time>2020-06-15T08:25:51Z</time>
      </trkpt>
      <trkpt lat="49.65438" lon="-1.53706">
        <ele>14</ele>
        <time>2020-06-15T08:25:52Z</time>
      </trkpt>
      <trkpt lat="49.6544" lon="-1.53699">
        <ele>13.9</ele>
        <time>2020-06-15T08:25:53Z</time>
      </trkpt>
      <trkpt lat="49.65441" lon="-1.53692">
        <ele>13.9</ele>
        <time>2020-06-15T08:25:54Z</time>
      </trkpt>
      <trkpt lat="49.65441" lon="-1.53685">
        <ele>13.8</ele>
        <time>2020-06-15T08:25:55Z</time>
      </trkpt>
      <trkpt lat="49.65441" lon="-1.53677">
        <ele>13.7</ele>
        <time>2020-06-15T08:25:56Z</time>
      </trkpt>
      <trkpt lat="49.65441" lon="-1.53668">
        <ele>13.6</ele>
        <time>2020-06-15T08:25:57Z</time>
      </trkpt>
      <trkpt lat="49.65442" lon="-1.5366">
        <ele>13.5</ele>
        <time>2020-06-15T08:25:58Z</time>
      </trkpt>
      <trkpt lat="49.65442" lon="-1.53653">
        <ele>13.4</ele>
        <time>2020-06-15T08:25:59Z</time>
      </trkpt>
      <trkpt lat="49.65442" lon="-1.53645">
        <ele>13.3</ele>
        <time>2020-06-15T08:26:00Z</time>
      </trkpt>
      <trkpt lat="49.65442" lon="-1.53638">
        <ele>13.2</ele>
        <time>2020-06-15T08:26:01Z</time>
      </trkpt>
      <trkpt lat="49.65442" lon="-1.5363">
        <ele>13.1</ele>
        <time>2020-06-15T08:26:02Z</time>
      </trkpt>
      <trkpt lat="49.65442" lon="-1.53622">
        <ele>13.1</ele>
        <time>2020-06-15T08:26:03Z</time>
      </trkpt>
      <trkpt lat="49.65442" lon="-1.53615">
        <ele>13.1</ele>
        <time>2020-06-15T08:26:04Z</time>
      </trkpt>
      <trkpt lat="49.65441" lon="-1.53608">
        <ele>13</ele>
        <time>2020-06-15T08:26:05Z</time>
      </trkpt>
      <trkpt lat="49.65441" lon="-1.53602">
        <ele>13</ele>
        <time>2020-06-15T08:26:06Z</time>
      </trkpt>
      <trkpt lat="49.65441" lon="-1.53595">
        <ele>13</ele>
        <time>2020-06-15T08:26:07Z</time>
      </trkpt>
      <trkpt lat="49.65441" lon="-1.53588">
        <ele>12.9</ele>
        <time>2020-06-15T08:26:08Z</time>
      </trkpt>
      <trkpt lat="49.65443" lon="-1.53581">
        <ele>12.9</ele>
        <time>2020-06-15T08:26:09Z</time>
      </trkpt>
      <trkpt lat="49.65443" lon="-1.53573">
        <ele>12.8</ele>
        <time>2020-06-15T08:26:10Z</time>
      </trkpt>
      <trkpt lat="49.65443" lon="-1.53565">
        <ele>12.7</ele>
        <time>2020-06-15T08:26:11Z</time>
      </trkpt>
      <trkpt lat="49.65443" lon="-1.53557">
        <ele>12.6</ele>
        <time>2020-06-15T08:26:12Z</time>
      </trkpt>
      <trkpt lat="49.65442" lon="-1.5355">
        <ele>12.6</ele>
        <time>2020-06-15T08:26:13Z</time>
      </trkpt>
      <trkpt lat="49.65442" lon="-1.53543">
        <ele>12.5</ele>
        <time>2020-06-15T08:26:14Z</time>
      </trkpt>
      <trkpt lat="49.65442" lon="-1.53536">
        <ele>12.4</ele>
        <time>2020-06-15T08:26:15Z</time>
      </trkpt>
      <trkpt lat="49.65441" lon="-1.53529">
        <ele>12.3</ele>
        <time>2020-06-15T08:26:16Z</time>
      </trkpt>
      <trkpt lat="49.65441" lon="-1.53521">
        <ele>12.3</ele>
        <time>2020-06-15T08:26:17Z</time>
      </trkpt>
      <trkpt lat="49.65441" lon="-1.53514">
        <ele>12.2</ele>
        <time>2020-06-15T08:26:18Z</time>
      </trkpt>
      <trkpt lat="49.65441" lon="-1.53506">
        <ele>12.1</ele>
        <time>2020-06-15T08:26:19Z</time>
      </trkpt>
      <trkpt lat="49.65442" lon="-1.53499">
        <ele>11.9</ele>
        <time>2020-06-15T08:26:20Z</time>
      </trkpt>
      <trkpt lat="49.65442" lon="-1.53491">
        <ele>12.1</ele>
        <time>2020-06-15T08:26:21Z</time>
      </trkpt>
      <trkpt lat="49.65442" lon="-1.53484">
        <ele>12.3</ele>
        <time>2020-06-15T08:26:22Z</time>
      </trkpt>
      <trkpt lat="49.65442" lon="-1.53477">
        <ele>12.4</ele>
        <time>2020-06-15T08:26:23Z</time>
      </trkpt>
      <trkpt lat="49.65442" lon="-1.5347">
        <ele>12.4</ele>
        <time>2020-06-15T08:26:24Z</time>
      </trkpt>
      <trkpt lat="49.65441" lon="-1.53463">
        <ele>12.3</ele>
        <time>2020-06-15T08:26:25Z</time>
      </trkpt>
      <trkpt lat="49.6544" lon="-1.53456">
        <ele>12.3</ele>
        <time>2020-06-15T08:26:26Z</time>
      </trkpt>
      <trkpt lat="49.6544" lon="-1.53449">
        <ele>12.2</ele>
        <time>2020-06-15T08:26:27Z</time>
      </trkpt>
      <trkpt lat="49.6544" lon="-1.53441">
        <ele>12.1</ele>
        <time>2020-06-15T08:26:28Z</time>
      </trkpt>
      <trkpt lat="49.65441" lon="-1.53434">
        <ele>12</ele>
        <time>2020-06-15T08:26:29Z</time>
      </trkpt>
      <trkpt lat="49.6544" lon="-1.53426">
        <ele>11.9</ele>
        <time>2020-06-15T08:26:30Z</time>
      </trkpt>
      <trkpt lat="49.6544" lon="-1.53419">
        <ele>11.8</ele>
        <time>2020-06-15T08:26:31Z</time>
      </trkpt>
      <trkpt lat="49.65438" lon="-1.53411">
        <ele>11.7</ele>
        <time>2020-06-15T08:26:32Z</time>
      </trkpt>
      <trkpt lat="49.65438" lon="-1.53404">
        <ele>11.6</ele>
        <time>2020-06-15T08:26:33Z</time>
      </trkpt>
      <trkpt lat="49.65437" lon="-1.53396">
        <ele>11.5</ele>
        <time>2020-06-15T08:26:34Z</time>
      </trkpt>
      <trkpt lat="49.65437" lon="-1.53388">
        <ele>11.4</ele>
        <time>2020-06-15T08:26:35Z</time>
      </trkpt>
      <trkpt lat="49.65436" lon="-1.5338">
        <ele>11.3</ele>
        <time>2020-06-15T08:26:36Z</time>
      </trkpt>
      <trkpt lat="49.65437" lon="-1.53372">
        <ele>11.2</ele>
        <time>2020-06-15T08:26:37Z</time>
      </trkpt>
      <trkpt lat="49.65438" lon="-1.53364">
        <ele>11.1</ele>
        <time>2020-06-15T08:26:38Z</time>
      </trkpt>
      <trkpt lat="49.65437" lon="-1.53356">
        <ele>11</ele>
        <time>2020-06-15T08:26:39Z</time>
      </trkpt>
      <trkpt lat="49.65437" lon="-1.53348">
        <ele>11</ele>
        <time>2020-06-15T08:26:40Z</time>
      </trkpt>
      <trkpt lat="49.65437" lon="-1.53341">
        <ele>10.9</ele>
        <time>2020-06-15T08:26:41Z</time>
      </trkpt>
      <trkpt lat="49.65437" lon="-1.53333">
        <ele>10.9</ele>
        <time>2020-06-15T08:26:42Z</time>
      </trkpt>
      <trkpt lat="49.65438" lon="-1.53326">
        <ele>10.8</ele>
        <time>2020-06-15T08:26:43Z</time>
      </trkpt>
      <trkpt lat="49.65437" lon="-1.53319">
        <ele>10.8</ele>
        <time>2020-06-15T08:26:44Z</time>
      </trkpt>
      <trkpt lat="49.65437" lon="-1.53312">
        <ele>10.7</ele>
        <time>2020-06-15T08:26:45Z</time>
      </trkpt>
      <trkpt lat="49.65437" lon="-1.53305">
        <ele>10.6</ele>
        <time>2020-06-15T08:26:46Z</time>
      </trkpt>
      <trkpt lat="49.65437" lon="-1.53298">
        <ele>10.5</ele>
        <time>2020-06-15T08:26:47Z</time>
      </trkpt>
      <trkpt lat="49.65436" lon="-1.53291">
        <ele>10.5</ele>
        <time>2020-06-15T08:26:48Z</time>
      </trkpt>
      <trkpt lat="49.65436" lon="-1.53283">
        <ele>10.4</ele>
        <time>2020-06-15T08:26:49Z</time>
      </trkpt>
      <trkpt lat="49.65435" lon="-1.53276">
        <ele>10.3</ele>
        <time>2020-06-15T08:26:50Z</time>
      </trkpt>
      <trkpt lat="49.65436" lon="-1.53269">
        <ele>10.3</ele>
        <time>2020-06-15T08:26:51Z</time>
      </trkpt>
      <trkpt lat="49.65437" lon="-1.53261">
        <ele>10.2</ele>
        <time>2020-06-15T08:26:52Z</time>
      </trkpt>
      <trkpt lat="49.65436" lon="-1.53253">
        <ele>10.2</ele>
        <time>2020-06-15T08:26:53Z</time>
      </trkpt>
      <trkpt lat="49.65436" lon="-1.53246">
        <ele>10.2</ele>
        <time>2020-06-15T08:26:54Z</time>
      </trkpt>
      <trkpt lat="49.65437" lon="-1.53238">
        <ele>10.2</ele>
        <time>2020-06-15T08:26:55Z</time>
      </trkpt>
      <trkpt lat="49.65436" lon="-1.53231">
        <ele>10.1</ele>
        <time>2020-06-15T08:26:56Z</time>
      </trkpt>
      <trkpt lat="49.65435" lon="-1.53224">
        <ele>10.1</ele>
        <time>2020-06-15T08:26:57Z</time>
      </trkpt>
      <trkpt lat="49.65436" lon="-1.53218">
        <ele>10.1</ele>
        <time>2020-06-15T08:26:58Z</time>
      </trkpt>
      <trkpt lat="49.65436" lon="-1.53211">
        <ele>10.1</ele>
        <time>2020-06-15T08:26:59Z</time>
      </trkpt>
      <trkpt lat="49.65436" lon="-1.53204">
        <ele>10.1</ele>
        <time>2020-06-15T08:27:00Z</time>
      </trkpt>
      <trkpt lat="49.65436" lon="-1.53197">
        <ele>10</ele>
        <time>2020-06-15T08:27:01Z</time>
      </trkpt>
      <trkpt lat="49.65435" lon="-1.5319">
        <ele>10</ele>
        <time>2020-06-15T08:27:02Z</time>
      </trkpt>
      <trkpt lat="49.65435" lon="-1.53182">
        <ele>10</ele>
        <time>2020-06-15T08:27:03Z</time>
      </trkpt>
      <trkpt lat="49.65435" lon="-1.53175">
        <ele>9.9</ele>
        <time>2020-06-15T08:27:04Z</time>
      </trkpt>
      <trkpt lat="49.65436" lon="-1.53168">
        <ele>9.8</ele>
        <time>2020-06-15T08:27:05Z</time>
      </trkpt>
      <trkpt lat="49.65436" lon="-1.5316">
        <ele>9.7</ele>
        <time>2020-06-15T08:27:06Z</time>
      </trkpt>
      <trkpt lat="49.65435" lon="-1.53153">
        <ele>9.6</ele>
        <time>2020-06-15T08:27:07Z</time>
      </trkpt>
      <trkpt lat="49.65435" lon="-1.53146">
        <ele>9.6</ele>
        <time>2020-06-15T08:27:08Z</time>
      </trkpt>
      <trkpt lat="49.65436" lon="-1.53139">
        <ele>9.6</ele>
        <time>2020-06-15T08:27:09Z</time>
      </trkpt>
      <trkpt lat="49.65436" lon="-1.53132">
        <ele>9.6</ele>
        <time>2020-06-15T08:27:10Z</time>
      </trkpt>
      <trkpt lat="49.65437" lon="-1.53125">
        <ele>9.6</ele>
        <time>2020-06-15T08:27:11Z</time>
      </trkpt>
      <trkpt lat="49.65437" lon="-1.53119">
        <ele>9.6</ele>
        <time>2020-06-15T08:27:12Z</time>
      </trkpt>
      <trkpt lat="49.65439" lon="-1.53112">
        <ele>9.6</ele>
        <time>2020-06-15T08:27:13Z</time>
      </trkpt>
      <trkpt lat="49.6544" lon="-1.53106">
        <ele>9.6</ele>
        <time>2020-06-15T08:27:14Z</time>
      </trkpt>
      <trkpt lat="49.6544" lon="-1.53101">
        <ele>9.6</ele>
        <time>2020-06-15T08:27:15Z</time>
      </trkpt>
      <trkpt lat="49.65439" lon="-1.53097">
        <ele>9.6</ele>
        <time>2020-06-15T08:27:16Z</time>
      </trkpt>
      <trkpt lat="49.65439" lon="-1.53096">
        <ele>9.6</ele>
        <time>2020-06-15T08:27:17Z</time>
      </trkpt>
      <trkpt lat="49.6544" lon="-1.53095">
        <ele>9.6</ele>
        <time>2020-06-15T08:27:18Z</time>
      </trkpt>
      <trkpt lat="49.65441" lon="-1.53094">
        <ele>9.5</ele>
        <time>2020-06-15T08:27:19Z</time>
      </trkpt>
      <trkpt lat="49.65441" lon="-1.53093">
        <ele>9.5</ele>
        <time>2020-06-15T08:27:20Z</time>
      </trkpt>
      <trkpt lat="49.65442" lon="-1.53093">
        <ele>9.4</ele>
        <time>2020-06-15T08:27:21Z</time>
      </trkpt>
      <trkpt lat="49.65443" lon="-1.53093">
        <ele>9.4</ele>
        <time>2020-06-15T08:27:22Z</time>
      </trkpt>
      <trkpt lat="49.65445" lon="-1.53093">
        <ele>9.3</ele>
        <time>2020-06-15T08:27:23Z</time>
      </trkpt>
      <trkpt lat="49.65449" lon="-1.53093">
        <ele>9</ele>
        <time>2020-06-15T08:27:24Z</time>
      </trkpt>
      <trkpt lat="49.65454" lon="-1.53092">
        <ele>8.7</ele>
        <time>2020-06-15T08:27:25Z</time>
      </trkpt>
      <trkpt lat="49.65459" lon="-1.53092">
        <ele>8.4</ele>
        <time>2020-06-15T08:27:26Z</time>
      </trkpt>
      <trkpt lat="49.65463" lon="-1.53091">
        <ele>8.1</ele>
        <time>2020-06-15T08:27:27Z</time>
      </trkpt>
      <trkpt lat="49.65468" lon="-1.53091">
        <ele>7.9</ele>
        <time>2020-06-15T08:27:28Z</time>
      </trkpt>
      <trkpt lat="49.65473" lon="-1.53091">
        <ele>7.6</ele>
        <time>2020-06-15T08:27:29Z</time>
      </trkpt>
      <trkpt lat="49.65478" lon="-1.53091">
        <ele>7.3</ele>
        <time>2020-06-15T08:27:30Z</time>
      </trkpt>
      <trkpt lat="49.65483" lon="-1.53091">
        <ele>7.1</ele>
        <time>2020-06-15T08:27:31Z</time>
      </trkpt>
      <trkpt lat="49.65488" lon="-1.5309">
        <ele>6.9</ele>
        <time>2020-06-15T08:27:32Z</time>
      </trkpt>
      <trkpt lat="49.65493" lon="-1.5309">
        <ele>6.7</ele>
        <time>2020-06-15T08:27:33Z</time>
      </trkpt>
      <trkpt lat="49.65498" lon="-1.53089">
        <ele>6.5</ele>
        <time>2020-06-15T08:27:34Z</time>
      </trkpt>
      <trkpt lat="49.65502" lon="-1.53088">
        <ele>6.1</ele>
        <time>2020-06-15T08:27:35Z</time>
      </trkpt>
      <trkpt lat="49.65507" lon="-1.53087">
        <ele>6</ele>
        <time>2020-06-15T08:27:36Z</time>
      </trkpt>
      <trkpt lat="49.65511" lon="-1.53087">
        <ele>6</ele>
        <time>2020-06-15T08:27:37Z</time>
      </trkpt>
      <trkpt lat="49.65515" lon="-1.53085">
        <ele>5.9</ele>
        <time>2020-06-15T08:27:38Z</time>
      </trkpt>
      <trkpt lat="49.65518" lon="-1.53082">
        <ele>5.9</ele>
        <time>2020-06-15T08:27:39Z</time>
      </trkpt>
      <trkpt lat="49.65522" lon="-1.5308">
        <ele>5.8</ele>
        <time>2020-06-15T08:27:40Z</time>
      </trkpt>
      <trkpt lat="49.65524" lon="-1.53074">
        <ele>5.8</ele>
        <time>2020-06-15T08:27:41Z</time>
      </trkpt>
      <trkpt lat="49.65527" lon="-1.53069">
        <ele>5.8</ele>
        <time>2020-06-15T08:27:42Z</time>
      </trkpt>
      <trkpt lat="49.65529" lon="-1.53064">
        <ele>5.8</ele>
        <time>2020-06-15T08:27:43Z</time>
      </trkpt>
      <trkpt lat="49.65532" lon="-1.53059">
        <ele>5.8</ele>
        <time>2020-06-15T08:27:44Z</time>
      </trkpt>
      <trkpt lat="49.65534" lon="-1.53054">
        <ele>5.8</ele>
        <time>2020-06-15T08:27:45Z</time>
      </trkpt>
      <trkpt lat="49.65537" lon="-1.53049">
        <ele>5.7</ele>
        <time>2020-06-15T08:27:46Z</time>
      </trkpt>
      <trkpt lat="49.65539" lon="-1.53043">
        <ele>5.7</ele>
        <time>2020-06-15T08:27:47Z</time>
      </trkpt>
      <trkpt lat="49.65542" lon="-1.53038">
        <ele>5.7</ele>
        <time>2020-06-15T08:27:48Z</time>
      </trkpt>
      <trkpt lat="49.65544" lon="-1.53032">
        <ele>5.7</ele>
        <time>2020-06-15T08:27:49Z</time>
      </trkpt>
      <trkpt lat="49.65547" lon="-1.53027">
        <ele>5.7</ele>
        <time>2020-06-15T08:27:50Z</time>
      </trkpt>
      <trkpt lat="49.65549" lon="-1.53022">
        <ele>5.6</ele>
        <time>2020-06-15T08:27:51Z</time>
      </trkpt>
      <trkpt lat="49.65552" lon="-1.53017">
        <ele>5.6</ele>
        <time>2020-06-15T08:27:52Z</time>
      </trkpt>
      <trkpt lat="49.65555" lon="-1.53012">
        <ele>5.6</ele>
        <time>2020-06-15T08:27:53Z</time>
      </trkpt>
      <trkpt lat="49.65557" lon="-1.53007">
        <ele>5.6</ele>
        <time>2020-06-15T08:27:54Z</time>
      </trkpt>
      <trkpt lat="49.6556" lon="-1.53002">
        <ele>5.6</ele>
        <time>2020-06-15T08:27:55Z</time>
      </trkpt>
      <trkpt lat="49.65562" lon="-1.52996">
        <ele>5.6</ele>
        <time>2020-06-15T08:27:56Z</time>
      </trkpt>
      <trkpt lat="49.65563" lon="-1.5299">
        <ele>5.6</ele>
        <time>2020-06-15T08:27:57Z</time>
      </trkpt>
      <trkpt lat="49.65564" lon="-1.52983">
        <ele>5.6</ele>
        <time>2020-06-15T08:27:58Z</time>
      </trkpt>
      <trkpt lat="49.65566" lon="-1.52977">
        <ele>5.7</ele>
        <time>2020-06-15T08:27:59Z</time>
      </trkpt>
      <trkpt lat="49.65568" lon="-1.5297">
        <ele>5.7</ele>
        <time>2020-06-15T08:28:00Z</time>
      </trkpt>
      <trkpt lat="49.6557" lon="-1.52965">
        <ele>5.7</ele>
        <time>2020-06-15T08:28:01Z</time>
      </trkpt>
      <trkpt lat="49.65572" lon="-1.52959">
        <ele>5.7</ele>
        <time>2020-06-15T08:28:02Z</time>
      </trkpt>
      <trkpt lat="49.65574" lon="-1.52953">
        <ele>5.8</ele>
        <time>2020-06-15T08:28:03Z</time>
      </trkpt>
      <trkpt lat="49.65576" lon="-1.52947">
        <ele>5.8</ele>
        <time>2020-06-15T08:28:04Z</time>
      </trkpt>
      <trkpt lat="49.65578" lon="-1.52941">
        <ele>5.8</ele>
        <time>2020-06-15T08:28:05Z</time>
      </trkpt>
      <trkpt lat="49.65581" lon="-1.52935">
        <ele>5.8</ele>
        <time>2020-06-15T08:28:06Z</time>
      </trkpt>
      <trkpt lat="49.65582" lon="-1.52928">
        <ele>5.8</ele>
        <time>2020-06-15T08:28:07Z</time>
      </trkpt>
      <trkpt lat="49.65584" lon="-1.52921">
        <ele>5.8</ele>
        <time>2020-06-15T08:28:08Z</time>
      </trkpt>
      <trkpt lat="49.65586" lon="-1.52915">
        <ele>5.9</ele>
        <time>2020-06-15T08:28:09Z</time>
      </trkpt>
      <trkpt lat="49.65588" lon="-1.52909">
        <ele>5.9</ele>
        <time>2020-06-15T08:28:10Z</time>
      </trkpt>
      <trkpt lat="49.6559" lon="-1.52902">
        <ele>5.9</ele>
        <time>2020-06-15T08:28:11Z</time>
      </trkpt>
      <trkpt lat="49.65593" lon="-1.52896">
        <ele>5.9</ele>
        <time>2020-06-15T08:28:12Z</time>
      </trkpt>
      <trkpt lat="49.65595" lon="-1.5289">
        <ele>5.9</ele>
        <time>2020-06-15T08:28:13Z</time>
      </trkpt>
      <trkpt lat="49.65597" lon="-1.52883">
        <ele>5.9</ele>
        <time>2020-06-15T08:28:14Z</time>
      </trkpt>
      <trkpt lat="49.65599" lon="-1.52877">
        <ele>6</ele>
        <time>2020-06-15T08:28:15Z</time>
      </trkpt>
      <trkpt lat="49.65601" lon="-1.5287">
        <ele>6</ele>
        <time>2020-06-15T08:28:16Z</time>
      </trkpt>
      <trkpt lat="49.65603" lon="-1.52864">
        <ele>6.1</ele>
        <time>2020-06-15T08:28:17Z</time>
      </trkpt>
      <trkpt lat="49.65605" lon="-1.52857">
        <ele>6.1</ele>
        <time>2020-06-15T08:28:18Z</time>
      </trkpt>
      <trkpt lat="49.65608" lon="-1.5285">
        <ele>6.1</ele>
        <time>2020-06-15T08:28:19Z</time>
      </trkpt>
      <trkpt lat="49.6561" lon="-1.52843">
        <ele>6.1</ele>
        <time>2020-06-15T08:28:20Z</time>
      </trkpt>
      <trkpt lat="49.65612" lon="-1.52836">
        <ele>6.2</ele>
        <time>2020-06-15T08:28:21Z</time>
      </trkpt>
      <trkpt lat="49.65612" lon="-1.52829">
        <ele>6.2</ele>
        <time>2020-06-15T08:28:22Z</time>
      </trkpt>
      <trkpt lat="49.65612" lon="-1.52821">
        <ele>6.3</ele>
        <time>2020-06-15T08:28:23Z</time>
      </trkpt>
      <trkpt lat="49.65614" lon="-1.52815">
        <ele>6.5</ele>
        <time>2020-06-15T08:28:24Z</time>
      </trkpt>
      <trkpt lat="49.65615" lon="-1.52808">
        <ele>6.6</ele>
        <time>2020-06-15T08:28:25Z</time>
      </trkpt>
      <trkpt lat="49.65615" lon="-1.52801">
        <ele>6.7</ele>
        <time>2020-06-15T08:28:26Z</time>
      </trkpt>
      <trkpt lat="49.65616" lon="-1.52794">
        <ele>6.8</ele>
        <time>2020-06-15T08:28:27Z</time>
      </trkpt>
      <trkpt lat="49.65617" lon="-1.52787">
        <ele>6.9</ele>
        <time>2020-06-15T08:28:28Z</time>
      </trkpt>
      <trkpt lat="49.6562" lon="-1.52781">
        <ele>7</ele>
        <time>2020-06-15T08:28:29Z</time>
      </trkpt>
      <trkpt lat="49.6562" lon="-1.52774">
        <ele>7.1</ele>
        <time>2020-06-15T08:28:30Z</time>
      </trkpt>
      <trkpt lat="49.65621" lon="-1.52768">
        <ele>7.2</ele>
        <time>2020-06-15T08:28:31Z</time>
      </trkpt>
      <trkpt lat="49.65622" lon="-1.52761">
        <ele>7.3</ele>
        <time>2020-06-15T08:28:32Z</time>
      </trkpt>
      <trkpt lat="49.65622" lon="-1.52755">
        <ele>7.5</ele>
        <time>2020-06-15T08:28:33Z</time>
      </trkpt>
      <trkpt lat="49.65622" lon="-1.52748">
        <ele>7.6</ele>
        <time>2020-06-15T08:28:34Z</time>
      </trkpt>
      <trkpt lat="49.65623" lon="-1.52742">
        <ele>7.8</ele>
        <time>2020-06-15T08:28:35Z</time>
      </trkpt>
      <trkpt lat="49.65624" lon="-1.52736">
        <ele>7.9</ele>
        <time>2020-06-15T08:28:36Z</time>
      </trkpt>
      <trkpt lat="49.65624" lon="-1.52729">
        <ele>8.1</ele>
        <time>2020-06-15T08:28:37Z</time>
      </trkpt>
      <trkpt lat="49.65625" lon="-1.52723">
        <ele>8.2</ele>
        <time>2020-06-15T08:28:38Z</time>
      </trkpt>
      <trkpt lat="49.65626" lon="-1.52717">
        <ele>8.4</ele>
        <time>2020-06-15T08:28:39Z</time>
      </trkpt>
      <trkpt lat="49.65626" lon="-1.52711">
        <ele>8.5</ele>
        <time>2020-06-15T08:28:40Z</time>
      </trkpt>
      <trkpt lat="49.65626" lon="-1.52705">
        <ele>8.7</ele>
        <time>2020-06-15T08:28:41Z</time>
      </trkpt>
      <trkpt lat="49.65628" lon="-1.52699">
        <ele>8.8</ele>
        <time>2020-06-15T08:28:42Z</time>
      </trkpt>
      <trkpt lat="49.65629" lon="-1.52694">
        <ele>9</ele>
        <time>2020-06-15T08:28:43Z</time>
      </trkpt>
      <trkpt lat="49.6563" lon="-1.52688">
        <ele>9.1</ele>
        <time>2020-06-15T08:28:44Z</time>
      </trkpt>
      <trkpt lat="49.6563" lon="-1.52682">
        <ele>9.3</ele>
        <time>2020-06-15T08:28:45Z</time>
      </trkpt>
      <trkpt lat="49.65631" lon="-1.52676">
        <ele>9.5</ele>
        <time>2020-06-15T08:28:46Z</time>
      </trkpt>
      <trkpt lat="49.6563" lon="-1.5267">
        <ele>9.6</ele>
        <time>2020-06-15T08:28:47Z</time>
      </trkpt>
      <trkpt lat="49.6563" lon="-1.52663">
        <ele>9.8</ele>
        <time>2020-06-15T08:28:48Z</time>
      </trkpt>
      <trkpt lat="49.6563" lon="-1.52654">
        <ele>10</ele>
        <time>2020-06-15T08:28:49Z</time>
      </trkpt>
      <trkpt lat="49.6563" lon="-1.52649">
        <ele>10.2</ele>
        <time>2020-06-15T08:28:50Z</time>
      </trkpt>
      <trkpt lat="49.65631" lon="-1.52642">
        <ele>10.3</ele>
        <time>2020-06-15T08:28:51Z</time>
      </trkpt>
      <trkpt lat="49.65632" lon="-1.52639">
        <ele>10.4</ele>
        <time>2020-06-15T08:28:52Z</time>
      </trkpt>
      <trkpt lat="49.65633" lon="-1.52634">
        <ele>10.5</ele>
        <time>2020-06-15T08:28:53Z</time>
      </trkpt>
      <trkpt lat="49.65633" lon="-1.52627">
        <ele>10.7</ele>
        <time>2020-06-15T08:28:54Z</time>
      </trkpt>
      <trkpt lat="49.65634" lon="-1.5262">
        <ele>10.9</ele>
        <time>2020-06-15T08:28:55Z</time>
      </trkpt>
      <trkpt lat="49.65634" lon="-1.52612">
        <ele>11</ele>
        <time>2020-06-15T08:28:56Z</time>
      </trkpt>
      <trkpt lat="49.65635" lon="-1.52606">
        <ele>11.1</ele>
        <time>2020-06-15T08:28:57Z</time>
      </trkpt>
      <trkpt lat="49.65635" lon="-1.52601">
        <ele>11.2</ele>
        <time>2020-06-15T08:28:58Z</time>
      </trkpt>
      <trkpt lat="49.65634" lon="-1.52596">
        <ele>11.2</ele>
        <time>2020-06-15T08:28:59Z</time>
      </trkpt>
      <trkpt lat="49.65633" lon="-1.52591">
        <ele>11.3</ele>
        <time>2020-06-15T08:29:00Z</time>
      </trkpt>
      <trkpt lat="49.65633" lon="-1.52587">
        <ele>11.3</ele>
        <time>2020-06-15T08:29:01Z</time>
      </trkpt>
      <trkpt lat="49.65633" lon="-1.52585">
        <ele>11.2</ele>
        <time>2020-06-15T08:29:02Z</time>
      </trkpt>
      <trkpt lat="49.65634" lon="-1.52581">
        <ele>11.2</ele>
        <time>2020-06-15T08:29:03Z</time>
      </trkpt>
      <trkpt lat="49.65634" lon="-1.5258">
        <ele>11.2</ele>
        <time>2020-06-15T08:29:04Z</time>
      </trkpt>
      <trkpt lat="49.65635" lon="-1.5258">
        <ele>11.2</ele>
        <time>2020-06-15T08:29:05Z</time>
      </trkpt>
      <trkpt lat="49.65636" lon="-1.5258">
        <ele>11.2</ele>
        <time>2020-06-15T08:29:06Z</time>
      </trkpt>
      <trkpt lat="49.65637" lon="-1.52579">
        <ele>11.2</ele>
        <time>2020-06-15T08:29:07Z</time>
      </trkpt>
      <trkpt lat="49.65637" lon="-1.5258">
        <ele>11.2</ele>
        <time>2020-06-15T08:29:08Z</time>
      </trkpt>
      <trkpt lat="49.65637" lon="-1.5258">
        <ele>11.2</ele>
        <time>2020-06-15T08:29:09Z</time>
      </trkpt>
      <trkpt lat="49.65637" lon="-1.52579">
        <ele>11.2</ele>
        <time>2020-06-15T08:29:10Z</time>
      </trkpt>
      <trkpt lat="49.65637" lon="-1.5258">
        <ele>11.2</ele>
        <time>2020-06-15T08:29:11Z</time>
      </trkpt>
      <trkpt lat="49.65636" lon="-1.5258">
        <ele>11.2</ele>
        <time>2020-06-15T08:29:12Z</time>
      </trkpt>
      <trkpt lat="49.65636" lon="-1.52579">
        <ele>11.2</ele>
        <time>2020-06-15T08:29:13Z</time>
      </trkpt>
      <trkpt lat="49.65636" lon="-1.5258">
        <ele>11.1</ele>
        <time>2020-06-15T08:29:14Z</time>
      </trkpt>
      <trkpt lat="49.65636" lon="-1.52581">
        <ele>11.1</ele>
        <time>2020-06-15T08:29:15Z</time>
      </trkpt>
      <trkpt lat="49.65636" lon="-1.52581">
        <ele>11.1</ele>
        <time>2020-06-15T08:29:16Z</time>
      </trkpt>
      <trkpt lat="49.65635" lon="-1.52581">
        <ele>11.1</ele>
        <time>2020-06-15T08:29:17Z</time>
      </trkpt>
      <trkpt lat="49.65642" lon="-1.52586">
        <ele>11.1</ele>
        <time>2020-06-15T08:29:24Z</time>
      </trkpt>
      <trkpt lat="49.65645" lon="-1.52588">
        <ele>11</ele>
        <time>2020-06-15T08:29:25Z</time>
      </trkpt>
      <trkpt lat="49.65648" lon="-1.5259">
        <ele>11</ele>
        <time>2020-06-15T08:29:26Z</time>
      </trkpt>
      <trkpt lat="49.65653" lon="-1.52592">
        <ele>11</ele>
        <time>2020-06-15T08:29:27Z</time>
      </trkpt>
      <trkpt lat="49.65654" lon="-1.52593">
        <ele>10.9</ele>
        <time>2020-06-15T08:29:28Z</time>
      </trkpt>
      <trkpt lat="49.65659" lon="-1.52594">
        <ele>10.9</ele>
        <time>2020-06-15T08:29:29Z</time>
      </trkpt>
      <trkpt lat="49.65663" lon="-1.52596">
        <ele>10.8</ele>
        <time>2020-06-15T08:29:30Z</time>
      </trkpt>
      <trkpt lat="49.65666" lon="-1.52599">
        <ele>10.8</ele>
        <time>2020-06-15T08:29:31Z</time>
      </trkpt>
      <trkpt lat="49.6567" lon="-1.526">
        <ele>10.7</ele>
        <time>2020-06-15T08:29:32Z</time>
      </trkpt>
      <trkpt lat="49.65673" lon="-1.52602">
        <ele>10.6</ele>
        <time>2020-06-15T08:29:33Z</time>
      </trkpt>
      <trkpt lat="49.65676" lon="-1.52604">
        <ele>10.6</ele>
        <time>2020-06-15T08:29:34Z</time>
      </trkpt>
      <trkpt lat="49.65679" lon="-1.52605">
        <ele>10.5</ele>
        <time>2020-06-15T08:29:35Z</time>
      </trkpt>
      <trkpt lat="49.65682" lon="-1.52607">
        <ele>10.4</ele>
        <time>2020-06-15T08:29:36Z</time>
      </trkpt>
      <trkpt lat="49.65683" lon="-1.52608">
        <ele>10.4</ele>
        <time>2020-06-15T08:29:37Z</time>
      </trkpt>
      <trkpt lat="49.65686" lon="-1.52611">
        <ele>10.3</ele>
        <time>2020-06-15T08:29:38Z</time>
      </trkpt>
      <trkpt lat="49.65689" lon="-1.52614">
        <ele>10.2</ele>
        <time>2020-06-15T08:29:39Z</time>
      </trkpt>
      <trkpt lat="49.65692" lon="-1.52617">
        <ele>10.2</ele>
        <time>2020-06-15T08:29:40Z</time>
      </trkpt>
      <trkpt lat="49.65695" lon="-1.52619">
        <ele>10.2</ele>
        <time>2020-06-15T08:29:41Z</time>
      </trkpt>
      <trkpt lat="49.65699" lon="-1.52618">
        <ele>10.1</ele>
        <time>2020-06-15T08:29:42Z</time>
      </trkpt>
      <trkpt lat="49.65701" lon="-1.52617">
        <ele>10.1</ele>
        <time>2020-06-15T08:29:43Z</time>
      </trkpt>
      <trkpt lat="49.65704" lon="-1.52615">
        <ele>9.9</ele>
        <time>2020-06-15T08:29:44Z</time>
      </trkpt>
      <trkpt lat="49.65707" lon="-1.52612">
        <ele>9.7</ele>
        <time>2020-06-15T08:29:45Z</time>
      </trkpt>
      <trkpt lat="49.6571" lon="-1.5261">
        <ele>9.6</ele>
        <time>2020-06-15T08:29:46Z</time>
      </trkpt>
      <trkpt lat="49.65711" lon="-1.52609">
        <ele>9.5</ele>
        <time>2020-06-15T08:29:47Z</time>
      </trkpt>
      <trkpt lat="49.65713" lon="-1.52606">
        <ele>9.3</ele>
        <time>2020-06-15T08:29:48Z</time>
      </trkpt>
      <trkpt lat="49.65714" lon="-1.52605">
        <ele>9.2</ele>
        <time>2020-06-15T08:29:49Z</time>
      </trkpt>
      <trkpt lat="49.65714" lon="-1.52601">
        <ele>9.1</ele>
        <time>2020-06-15T08:29:50Z</time>
      </trkpt>
      <trkpt lat="49.65716" lon="-1.52596">
        <ele>8.9</ele>
        <time>2020-06-15T08:29:51Z</time>
      </trkpt>
      <trkpt lat="49.65716" lon="-1.52591">
        <ele>8.6</ele>
        <time>2020-06-15T08:29:52Z</time>
      </trkpt>
      <trkpt lat="49.65717" lon="-1.52585">
        <ele>8.4</ele>
        <time>2020-06-15T08:29:53Z</time>
      </trkpt>
      <trkpt lat="49.65717" lon="-1.5258">
        <ele>8.2</ele>
        <time>2020-06-15T08:29:54Z</time>
      </trkpt>
      <trkpt lat="49.65718" lon="-1.52575">
        <ele>8</ele>
        <time>2020-06-15T08:29:55Z</time>
      </trkpt>
      <trkpt lat="49.65719" lon="-1.52569">
        <ele>7.9</ele>
        <time>2020-06-15T08:29:56Z</time>
      </trkpt>
      <trkpt lat="49.6572" lon="-1.52564">
        <ele>7.7</ele>
        <time>2020-06-15T08:29:57Z</time>
      </trkpt>
      <trkpt lat="49.65722" lon="-1.5256">
        <ele>7.6</ele>
        <time>2020-06-15T08:29:58Z</time>
      </trkpt>
      <trkpt lat="49.65725" lon="-1.52558">
        <ele>7.5</ele>
        <time>2020-06-15T08:29:59Z</time>
      </trkpt>
      <trkpt lat="49.65726" lon="-1.52559">
        <ele>7.4</ele>
        <time>2020-06-15T08:30:00Z</time>
      </trkpt>
      <trkpt lat="49.65729" lon="-1.5256">
        <ele>7.4</ele>
        <time>2020-06-15T08:30:01Z</time>
      </trkpt>
      <trkpt lat="49.6573" lon="-1.52561">
        <ele>7.3</ele>
        <time>2020-06-15T08:30:02Z</time>
      </trkpt>
      <trkpt lat="49.65734" lon="-1.52563">
        <ele>7.3</ele>
        <time>2020-06-15T08:30:03Z</time>
      </trkpt>
      <trkpt lat="49.65735" lon="-1.52564">
        <ele>7.2</ele>
        <time>2020-06-15T08:30:04Z</time>
      </trkpt>
      <trkpt lat="49.65738" lon="-1.52567">
        <ele>7.2</ele>
        <time>2020-06-15T08:30:05Z</time>
      </trkpt>
      <trkpt lat="49.65739" lon="-1.52568">
        <ele>7.2</ele>
        <time>2020-06-15T08:30:06Z</time>
      </trkpt>
      <trkpt lat="49.65742" lon="-1.5257">
        <ele>7.2</ele>
        <time>2020-06-15T08:30:07Z</time>
      </trkpt>
      <trkpt lat="49.65744" lon="-1.52571">
        <ele>7.1</ele>
        <time>2020-06-15T08:30:08Z</time>
      </trkpt>
      <trkpt lat="49.65746" lon="-1.52574">
        <ele>7.1</ele>
        <time>2020-06-15T08:30:09Z</time>
      </trkpt>
      <trkpt lat="49.6575" lon="-1.52576">
        <ele>7.1</ele>
        <time>2020-06-15T08:30:10Z</time>
      </trkpt>
      <trkpt lat="49.65751" lon="-1.52577">
        <ele>7.1</ele>
        <time>2020-06-15T08:30:11Z</time>
      </trkpt>
      <trkpt lat="49.65754" lon="-1.52579">
        <ele>7.1</ele>
        <time>2020-06-15T08:30:12Z</time>
      </trkpt>
      <trkpt lat="49.65757" lon="-1.5258">
        <ele>7</ele>
        <time>2020-06-15T08:30:13Z</time>
      </trkpt>
      <trkpt lat="49.6576" lon="-1.52581">
        <ele>7</ele>
        <time>2020-06-15T08:30:14Z</time>
      </trkpt>
      <trkpt lat="49.65762" lon="-1.52585">
        <ele>7</ele>
        <time>2020-06-15T08:30:15Z</time>
      </trkpt>
      <trkpt lat="49.65767" lon="-1.52586">
        <ele>7</ele>
        <time>2020-06-15T08:30:16Z</time>
      </trkpt>
      <trkpt lat="49.65769" lon="-1.52587">
        <ele>6.9</ele>
        <time>2020-06-15T08:30:17Z</time>
      </trkpt>
      <trkpt lat="49.65772" lon="-1.52588">
        <ele>6.9</ele>
        <time>2020-06-15T08:30:18Z</time>
      </trkpt>
      <trkpt lat="49.65776" lon="-1.52588">
        <ele>6.9</ele>
        <time>2020-06-15T08:30:19Z</time>
      </trkpt>
      <trkpt lat="49.65779" lon="-1.52589">
        <ele>7</ele>
        <time>2020-06-15T08:30:20Z</time>
      </trkpt>
      <trkpt lat="49.65782" lon="-1.52591">
        <ele>7</ele>
        <time>2020-06-15T08:30:21Z</time>
      </trkpt>
      <trkpt lat="49.65783" lon="-1.52595">
        <ele>7</ele>
        <time>2020-06-15T08:30:22Z</time>
      </trkpt>
      <trkpt lat="49.65783" lon="-1.52596">
        <ele>7</ele>
        <time>2020-06-15T08:30:23Z</time>
      </trkpt>
      <trkpt lat="49.65781" lon="-1.52595">
        <ele>7</ele>
        <time>2020-06-15T08:30:24Z</time>
      </trkpt>
      <trkpt lat="49.6578" lon="-1.52594">
        <ele>7</ele>
        <time>2020-06-15T08:30:25Z</time>
      </trkpt>
      <trkpt lat="49.65779" lon="-1.52593">
        <ele>7</ele>
        <time>2020-06-15T08:30:26Z</time>
      </trkpt>
      <trkpt lat="49.65776" lon="-1.5259">
        <ele>7</ele>
        <time>2020-06-15T08:30:27Z</time>
      </trkpt>
      <trkpt lat="49.65775" lon="-1.52589">
        <ele>7</ele>
        <time>2020-06-15T08:30:28Z</time>
      </trkpt>
      <trkpt lat="49.65772" lon="-1.52588">
        <ele>7.1</ele>
        <time>2020-06-15T08:30:29Z</time>
      </trkpt>
      <trkpt lat="49.65769" lon="-1.52586">
        <ele>7.1</ele>
        <time>2020-06-15T08:30:30Z</time>
      </trkpt>
      <trkpt lat="49.65766" lon="-1.52584">
        <ele>7.1</ele>
        <time>2020-06-15T08:30:31Z</time>
      </trkpt>
      <trkpt lat="49.65763" lon="-1.52583">
        <ele>7.1</ele>
        <time>2020-06-15T08:30:32Z</time>
      </trkpt>
      <trkpt lat="49.6576" lon="-1.52581">
        <ele>7.2</ele>
        <time>2020-06-15T08:30:33Z</time>
      </trkpt>
      <trkpt lat="49.65757" lon="-1.5258">
        <ele>7.2</ele>
        <time>2020-06-15T08:30:34Z</time>
      </trkpt>
      <trkpt lat="49.65754" lon="-1.52578">
        <ele>7.2</ele>
        <time>2020-06-15T08:30:35Z</time>
      </trkpt>
      <trkpt lat="49.65751" lon="-1.52575">
        <ele>7.2</ele>
        <time>2020-06-15T08:30:36Z</time>
      </trkpt>
      <trkpt lat="49.65748" lon="-1.52573">
        <ele>7.3</ele>
        <time>2020-06-15T08:30:37Z</time>
      </trkpt>
      <trkpt lat="49.65744" lon="-1.52571">
        <ele>7.3</ele>
        <time>2020-06-15T08:30:38Z</time>
      </trkpt>
      <trkpt lat="49.65741" lon="-1.52569">
        <ele>7.4</ele>
        <time>2020-06-15T08:30:39Z</time>
      </trkpt>
      <trkpt lat="49.65737" lon="-1.52568">
        <ele>7.5</ele>
        <time>2020-06-15T08:30:40Z</time>
      </trkpt>
      <trkpt lat="49.65733" lon="-1.52566">
        <ele>7.6</ele>
        <time>2020-06-15T08:30:41Z</time>
      </trkpt>
      <trkpt lat="49.6573" lon="-1.52565">
        <ele>7.7</ele>
        <time>2020-06-15T08:30:42Z</time>
      </trkpt>
      <trkpt lat="49.65727" lon="-1.52563">
        <ele>7.8</ele>
        <time>2020-06-15T08:30:43Z</time>
      </trkpt>
      <trkpt lat="49.65724" lon="-1.52563">
        <ele>7.9</ele>
        <time>2020-06-15T08:30:44Z</time>
      </trkpt>
      <trkpt lat="49.65721" lon="-1.52561">
        <ele>8</ele>
        <time>2020-06-15T08:30:45Z</time>
      </trkpt>
      <trkpt lat="49.65718" lon="-1.52563">
        <ele>8.2</ele>
        <time>2020-06-15T08:30:46Z</time>
      </trkpt>
      <trkpt lat="49.65715" lon="-1.52566">
        <ele>8.3</ele>
        <time>2020-06-15T08:30:47Z</time>
      </trkpt>
      <trkpt lat="49.65714" lon="-1.52568">
        <ele>8.4</ele>
        <time>2020-06-15T08:30:48Z</time>
      </trkpt>
      <trkpt lat="49.65713" lon="-1.52572">
        <ele>8.6</ele>
        <time>2020-06-15T08:30:49Z</time>
      </trkpt>
      <trkpt lat="49.65711" lon="-1.52578">
        <ele>8.8</ele>
        <time>2020-06-15T08:30:50Z</time>
      </trkpt>
      <trkpt lat="49.65711" lon="-1.52583">
        <ele>9</ele>
        <time>2020-06-15T08:30:51Z</time>
      </trkpt>
      <trkpt lat="49.6571" lon="-1.5259">
        <ele>9.2</ele>
        <time>2020-06-15T08:30:52Z</time>
      </trkpt>
      <trkpt lat="49.65709" lon="-1.52595">
        <ele>9.4</ele>
        <time>2020-06-15T08:30:53Z</time>
      </trkpt>
      <trkpt lat="49.65708" lon="-1.526">
        <ele>9.5</ele>
        <time>2020-06-15T08:30:54Z</time>
      </trkpt>
      <trkpt lat="49.65707" lon="-1.52605">
        <ele>9.7</ele>
        <time>2020-06-15T08:30:55Z</time>
      </trkpt>
      <trkpt lat="49.65705" lon="-1.52608">
        <ele>9.8</ele>
        <time>2020-06-15T08:30:56Z</time>
      </trkpt>
      <trkpt lat="49.65704" lon="-1.52613">
        <ele>9.9</ele>
        <time>2020-06-15T08:30:57Z</time>
      </trkpt>
      <trkpt lat="49.657" lon="-1.52613">
        <ele>10.1</ele>
        <time>2020-06-15T08:30:58Z</time>
      </trkpt>
      <trkpt lat="49.65699" lon="-1.52613">
        <ele>10.1</ele>
        <time>2020-06-15T08:30:59Z</time>
      </trkpt>
      <trkpt lat="49.65696" lon="-1.52613">
        <ele>10.2</ele>
        <time>2020-06-15T08:31:00Z</time>
      </trkpt>
      <trkpt lat="49.65692" lon="-1.52613">
        <ele>10.2</ele>
        <time>2020-06-15T08:31:01Z</time>
      </trkpt>
      <trkpt lat="49.6569" lon="-1.52613">
        <ele>10.2</ele>
        <time>2020-06-15T08:31:02Z</time>
      </trkpt>
      <trkpt lat="49.65687" lon="-1.52611">
        <ele>10.3</ele>
        <time>2020-06-15T08:31:03Z</time>
      </trkpt>
      <trkpt lat="49.65686" lon="-1.52609">
        <ele>10.3</ele>
        <time>2020-06-15T08:31:04Z</time>
      </trkpt>
      <trkpt lat="49.65684" lon="-1.52606">
        <ele>10.4</ele>
        <time>2020-06-15T08:31:05Z</time>
      </trkpt>
      <trkpt lat="49.65682" lon="-1.52603">
        <ele>10.5</ele>
        <time>2020-06-15T08:31:06Z</time>
      </trkpt>
      <trkpt lat="49.65679" lon="-1.52601">
        <ele>10.6</ele>
        <time>2020-06-15T08:31:07Z</time>
      </trkpt>
      <trkpt lat="49.65676" lon="-1.52598">
        <ele>10.6</ele>
        <time>2020-06-15T08:31:08Z</time>
      </trkpt>
      <trkpt lat="49.65673" lon="-1.52598">
        <ele>10.7</ele>
        <time>2020-06-15T08:31:09Z</time>
      </trkpt>
      <trkpt lat="49.6567" lon="-1.52596">
        <ele>10.7</ele>
        <time>2020-06-15T08:31:10Z</time>
      </trkpt>
      <trkpt lat="49.65666" lon="-1.52594">
        <ele>10.8</ele>
        <time>2020-06-15T08:31:11Z</time>
      </trkpt>
      <trkpt lat="49.65663" lon="-1.52591">
        <ele>10.9</ele>
        <time>2020-06-15T08:31:12Z</time>
      </trkpt>
      <trkpt lat="49.6566" lon="-1.52589">
        <ele>10.9</ele>
        <time>2020-06-15T08:31:13Z</time>
      </trkpt>
      <trkpt lat="49.65656" lon="-1.52587">
        <ele>11</ele>
        <time>2020-06-15T08:31:14Z</time>
      </trkpt>
      <trkpt lat="49.65651" lon="-1.52585">
        <ele>11</ele>
        <time>2020-06-15T08:31:15Z</time>
      </trkpt>
      <trkpt lat="49.65647" lon="-1.52584">
        <ele>11.1</ele>
        <time>2020-06-15T08:31:16Z</time>
      </trkpt>
      <trkpt lat="49.65643" lon="-1.52584">
        <ele>11.1</ele>
        <time>2020-06-15T08:31:17Z</time>
      </trkpt>
      <trkpt lat="49.6564" lon="-1.52584">
        <ele>11.1</ele>
        <time>2020-06-15T08:31:18Z</time>
      </trkpt>
      <trkpt lat="49.65639" lon="-1.52585">
        <ele>11.1</ele>
        <time>2020-06-15T08:31:19Z</time>
      </trkpt>
      <trkpt lat="49.65636" lon="-1.52583">
        <ele>11.2</ele>
        <time>2020-06-15T08:31:20Z</time>
      </trkpt>
      <trkpt lat="49.65635" lon="-1.52583">
        <ele>11.2</ele>
        <time>2020-06-15T08:31:21Z</time>
      </trkpt>
      <trkpt lat="49.65631" lon="-1.52582">
        <ele>11.2</ele>
        <time>2020-06-15T08:31:22Z</time>
      </trkpt>
      <trkpt lat="49.6563" lon="-1.52581">
        <ele>11.2</ele>
        <time>2020-06-15T08:31:23Z</time>
      </trkpt>
      <trkpt lat="49.65627" lon="-1.52578">
        <ele>11.1</ele>
        <time>2020-06-15T08:31:24Z</time>
      </trkpt>
      <trkpt lat="49.65627" lon="-1.52576">
        <ele>11.1</ele>
        <time>2020-06-15T08:31:25Z</time>
      </trkpt>
      <trkpt lat="49.65626" lon="-1.52571">
        <ele>11</ele>
        <time>2020-06-15T08:31:26Z</time>
      </trkpt>
      <trkpt lat="49.65626" lon="-1.52566">
        <ele>11</ele>
        <time>2020-06-15T08:31:27Z</time>
      </trkpt>
      <trkpt lat="49.65627" lon="-1.52559">
        <ele>10.8</ele>
        <time>2020-06-15T08:31:28Z</time>
      </trkpt>
      <trkpt lat="49.65628" lon="-1.52553">
        <ele>10.7</ele>
        <time>2020-06-15T08:31:29Z</time>
      </trkpt>
      <trkpt lat="49.65629" lon="-1.52545">
        <ele>10.6</ele>
        <time>2020-06-15T08:31:30Z</time>
      </trkpt>
      <trkpt lat="49.6563" lon="-1.52537">
        <ele>10.5</ele>
        <time>2020-06-15T08:31:31Z</time>
      </trkpt>
      <trkpt lat="49.65631" lon="-1.52528">
        <ele>10.4</ele>
        <time>2020-06-15T08:31:32Z</time>
      </trkpt>
      <trkpt lat="49.65631" lon="-1.5252">
        <ele>10.2</ele>
        <time>2020-06-15T08:31:33Z</time>
      </trkpt>
      <trkpt lat="49.65632" lon="-1.52511">
        <ele>10.1</ele>
        <time>2020-06-15T08:31:34Z</time>
      </trkpt>
      <trkpt lat="49.65632" lon="-1.52503">
        <ele>10</ele>
        <time>2020-06-15T08:31:35Z</time>
      </trkpt>
      <trkpt lat="49.65633" lon="-1.52495">
        <ele>9.9</ele>
        <time>2020-06-15T08:31:36Z</time>
      </trkpt>
      <trkpt lat="49.65634" lon="-1.52486">
        <ele>9.8</ele>
        <time>2020-06-15T08:31:37Z</time>
      </trkpt>
      <trkpt lat="49.65635" lon="-1.52476">
        <ele>9.7</ele>
        <time>2020-06-15T08:31:38Z</time>
      </trkpt>
      <trkpt lat="49.65634" lon="-1.52467">
        <ele>9.7</ele>
        <time>2020-06-15T08:31:39Z</time>
      </trkpt>
      <trkpt lat="49.65634" lon="-1.52458">
        <ele>9.6</ele>
        <time>2020-06-15T08:31:40Z</time>
      </trkpt>
      <trkpt lat="49.65633" lon="-1.5245">
        <ele>9.6</ele>
        <time>2020-06-15T08:31:41Z</time>
      </trkpt>
      <trkpt lat="49.65632" lon="-1.52441">
        <ele>9.6</ele>
        <time>2020-06-15T08:31:42Z</time>
      </trkpt>
      <trkpt lat="49.65633" lon="-1.52432">
        <ele>9.6</ele>
        <time>2020-06-15T08:31:43Z</time>
      </trkpt>
      <trkpt lat="49.65633" lon="-1.52422">
        <ele>9.7</ele>
        <time>2020-06-15T08:31:44Z</time>
      </trkpt>
      <trkpt lat="49.65632" lon="-1.52413">
        <ele>9.7</ele>
        <time>2020-06-15T08:31:45Z</time>
      </trkpt>
      <trkpt lat="49.65632" lon="-1.52405">
        <ele>9.7</ele>
        <time>2020-06-15T08:31:46Z</time>
      </trkpt>
      <trkpt lat="49.65632" lon="-1.52396">
        <ele>9.8</ele>
        <time>2020-06-15T08:31:47Z</time>
      </trkpt>
      <trkpt lat="49.65632" lon="-1.52388">
        <ele>9.9</ele>
        <time>2020-06-15T08:31:48Z</time>
      </trkpt>
      <trkpt lat="49.65631" lon="-1.5238">
        <ele>9.9</ele>
        <time>2020-06-15T08:31:49Z</time>
      </trkpt>
      <trkpt lat="49.6563" lon="-1.52373">
        <ele>10</ele>
        <time>2020-06-15T08:31:50Z</time>
      </trkpt>
      <trkpt lat="49.65629" lon="-1.52367">
        <ele>10.2</ele>
        <time>2020-06-15T08:31:51Z</time>
      </trkpt>
      <trkpt lat="49.65629" lon="-1.5236">
        <ele>10.3</ele>
        <time>2020-06-15T08:31:52Z</time>
      </trkpt>
      <trkpt lat="49.65628" lon="-1.52355">
        <ele>10.4</ele>
        <time>2020-06-15T08:31:53Z</time>
      </trkpt>
      <trkpt lat="49.65628" lon="-1.52348">
        <ele>10.5</ele>
        <time>2020-06-15T08:31:54Z</time>
      </trkpt>
      <trkpt lat="49.65627" lon="-1.52342">
        <ele>10.6</ele>
        <time>2020-06-15T08:31:55Z</time>
      </trkpt>
      <trkpt lat="49.65626" lon="-1.52337">
        <ele>10.7</ele>
        <time>2020-06-15T08:31:56Z</time>
      </trkpt>
      <trkpt lat="49.65625" lon="-1.52332">
        <ele>10.7</ele>
        <time>2020-06-15T08:31:57Z</time>
      </trkpt>
      <trkpt lat="49.65623" lon="-1.52328">
        <ele>10.8</ele>
        <time>2020-06-15T08:31:58Z</time>
      </trkpt>
      <trkpt lat="49.65621" lon="-1.52323">
        <ele>10.8</ele>
        <time>2020-06-15T08:31:59Z</time>
      </trkpt>
      <trkpt lat="49.65621" lon="-1.52321">
        <ele>10.8</ele>
        <time>2020-06-15T08:32:00Z</time>
      </trkpt>
      <trkpt lat="49.65621" lon="-1.52315">
        <ele>10.8</ele>
        <time>2020-06-15T08:32:01Z</time>
      </trkpt>
      <trkpt lat="49.65622" lon="-1.5231">
        <ele>10.8</ele>
        <time>2020-06-15T08:32:02Z</time>
      </trkpt>
      <trkpt lat="49.65623" lon="-1.52304">
        <ele>10.7</ele>
        <time>2020-06-15T08:32:03Z</time>
      </trkpt>
      <trkpt lat="49.65626" lon="-1.52299">
        <ele>10.7</ele>
        <time>2020-06-15T08:32:04Z</time>
      </trkpt>
      <trkpt lat="49.65628" lon="-1.52293">
        <ele>10.6</ele>
        <time>2020-06-15T08:32:05Z</time>
      </trkpt>
      <trkpt lat="49.6563" lon="-1.52287">
        <ele>10.5</ele>
        <time>2020-06-15T08:32:06Z</time>
      </trkpt>
      <trkpt lat="49.65631" lon="-1.5228">
        <ele>10.3</ele>
        <time>2020-06-15T08:32:07Z</time>
      </trkpt>
      <trkpt lat="49.65633" lon="-1.52273">
        <ele>10.2</ele>
        <time>2020-06-15T08:32:08Z</time>
      </trkpt>
      <trkpt lat="49.65634" lon="-1.52265">
        <ele>10.1</ele>
        <time>2020-06-15T08:32:09Z</time>
      </trkpt>
      <trkpt lat="49.65636" lon="-1.52256">
        <ele>9.9</ele>
        <time>2020-06-15T08:32:10Z</time>
      </trkpt>
      <trkpt lat="49.65638" lon="-1.52248">
        <ele>9.8</ele>
        <time>2020-06-15T08:32:11Z</time>
      </trkpt>
      <trkpt lat="49.6564" lon="-1.5224">
        <ele>9.7</ele>
        <time>2020-06-15T08:32:12Z</time>
      </trkpt>
      <trkpt lat="49.65642" lon="-1.52233">
        <ele>9.6</ele>
        <time>2020-06-15T08:32:13Z</time>
      </trkpt>
      <trkpt lat="49.65644" lon="-1.52224">
        <ele>9.4</ele>
        <time>2020-06-15T08:32:14Z</time>
      </trkpt>
      <trkpt lat="49.65646" lon="-1.52215">
        <ele>9.3</ele>
        <time>2020-06-15T08:32:15Z</time>
      </trkpt>
      <trkpt lat="49.65648" lon="-1.52206">
        <ele>9.2</ele>
        <time>2020-06-15T08:32:16Z</time>
      </trkpt>
      <trkpt lat="49.6565" lon="-1.52198">
        <ele>9.1</ele>
        <time>2020-06-15T08:32:17Z</time>
      </trkpt>
      <trkpt lat="49.65653" lon="-1.5219">
        <ele>9.1</ele>
        <time>2020-06-15T08:32:18Z</time>
      </trkpt>
      <trkpt lat="49.65655" lon="-1.52182">
        <ele>9</ele>
        <time>2020-06-15T08:32:19Z</time>
      </trkpt>
      <trkpt lat="49.65658" lon="-1.52174">
        <ele>9</ele>
        <time>2020-06-15T08:32:20Z</time>
      </trkpt>
      <trkpt lat="49.6566" lon="-1.52165">
        <ele>8.9</ele>
        <time>2020-06-15T08:32:21Z</time>
      </trkpt>
      <trkpt lat="49.65662" lon="-1.52157">
        <ele>8.8</ele>
        <time>2020-06-15T08:32:22Z</time>
      </trkpt>
      <trkpt lat="49.65664" lon="-1.52148">
        <ele>8.8</ele>
        <time>2020-06-15T08:32:23Z</time>
      </trkpt>
      <trkpt lat="49.65666" lon="-1.52139">
        <ele>8.7</ele>
        <time>2020-06-15T08:32:24Z</time>
      </trkpt>
      <trkpt lat="49.65668" lon="-1.5213">
        <ele>8.6</ele>
        <time>2020-06-15T08:32:25Z</time>
      </trkpt>
      <trkpt lat="49.6567" lon="-1.52121">
        <ele>8.6</ele>
        <time>2020-06-15T08:32:26Z</time>
      </trkpt>
      <trkpt lat="49.65673" lon="-1.52112">
        <ele>8.5</ele>
        <time>2020-06-15T08:32:27Z</time>
      </trkpt>
      <trkpt lat="49.65675" lon="-1.52102">
        <ele>8.5</ele>
        <time>2020-06-15T08:32:28Z</time>
      </trkpt>
      <trkpt lat="49.65676" lon="-1.52094">
        <ele>8.5</ele>
        <time>2020-06-15T08:32:29Z</time>
      </trkpt>
      <trkpt lat="49.65678" lon="-1.52086">
        <ele>8.5</ele>
        <time>2020-06-15T08:32:30Z</time>
      </trkpt>
      <trkpt lat="49.6568" lon="-1.52079">
        <ele>8.6</ele>
        <time>2020-06-15T08:32:31Z</time>
      </trkpt>
      <trkpt lat="49.65684" lon="-1.5207">
        <ele>8.6</ele>
        <time>2020-06-15T08:32:32Z</time>
      </trkpt>
      <trkpt lat="49.65686" lon="-1.52063">
        <ele>8.7</ele>
        <time>2020-06-15T08:32:33Z</time>
      </trkpt>
      <trkpt lat="49.65686" lon="-1.52056">
        <ele>8.7</ele>
        <time>2020-06-15T08:32:34Z</time>
      </trkpt>
      <trkpt lat="49.65688" lon="-1.52048">
        <ele>8.8</ele>
        <time>2020-06-15T08:32:35Z</time>
      </trkpt>
      <trkpt lat="49.65691" lon="-1.5204">
        <ele>8.9</ele>
        <time>2020-06-15T08:32:36Z</time>
      </trkpt>
      <trkpt lat="49.65693" lon="-1.52033">
        <ele>9</ele>
        <time>2020-06-15T08:32:37Z</time>
      </trkpt>
      <trkpt lat="49.65696" lon="-1.52025">
        <ele>9</ele>
        <time>2020-06-15T08:32:38Z</time>
      </trkpt>
      <trkpt lat="49.65698" lon="-1.52017">
        <ele>9.1</ele>
        <time>2020-06-15T08:32:39Z</time>
      </trkpt>
      <trkpt lat="49.657" lon="-1.52009">
        <ele>9.1</ele>
        <time>2020-06-15T08:32:40Z</time>
      </trkpt>
      <trkpt lat="49.65702" lon="-1.52002">
        <ele>9.2</ele>
        <time>2020-06-15T08:32:41Z</time>
      </trkpt>
      <trkpt lat="49.65704" lon="-1.51995">
        <ele>9.3</ele>
        <time>2020-06-15T08:32:42Z</time>
      </trkpt>
      <trkpt lat="49.65706" lon="-1.51987">
        <ele>9.2</ele>
        <time>2020-06-15T08:32:43Z</time>
      </trkpt>
      <trkpt lat="49.65708" lon="-1.51979">
        <ele>9.2</ele>
        <time>2020-06-15T08:32:44Z</time>
      </trkpt>
      <trkpt lat="49.65711" lon="-1.51971">
        <ele>9.2</ele>
        <time>2020-06-15T08:32:45Z</time>
      </trkpt>
      <trkpt lat="49.65713" lon="-1.51965">
        <ele>9.2</ele>
        <time>2020-06-15T08:32:46Z</time>
      </trkpt>
      <trkpt lat="49.65716" lon="-1.51957">
        <ele>9.2</ele>
        <time>2020-06-15T08:32:47Z</time>
      </trkpt>
      <trkpt lat="49.65719" lon="-1.5195">
        <ele>9.1</ele>
        <time>2020-06-15T08:32:48Z</time>
      </trkpt>
      <trkpt lat="49.65722" lon="-1.51942">
        <ele>9.1</ele>
        <time>2020-06-15T08:32:49Z</time>
      </trkpt>
      <trkpt lat="49.65725" lon="-1.51935">
        <ele>9</ele>
        <time>2020-06-15T08:32:50Z</time>
      </trkpt>
      <trkpt lat="49.65729" lon="-1.51927">
        <ele>9</ele>
        <time>2020-06-15T08:32:51Z</time>
      </trkpt>
      <trkpt lat="49.65731" lon="-1.5192">
        <ele>9</ele>
        <time>2020-06-15T08:32:52Z</time>
      </trkpt>
      <trkpt lat="49.65733" lon="-1.51912">
        <ele>8.9</ele>
        <time>2020-06-15T08:32:53Z</time>
      </trkpt>
      <trkpt lat="49.65735" lon="-1.51904">
        <ele>8.9</ele>
        <time>2020-06-15T08:32:54Z</time>
      </trkpt>
      <trkpt lat="49.65738" lon="-1.51897">
        <ele>8.9</ele>
        <time>2020-06-15T08:32:55Z</time>
      </trkpt>
      <trkpt lat="49.6574" lon="-1.51889">
        <ele>8.9</ele>
        <time>2020-06-15T08:32:56Z</time>
      </trkpt>
      <trkpt lat="49.65742" lon="-1.51881">
        <ele>8.9</ele>
        <time>2020-06-15T08:32:57Z</time>
      </trkpt>
      <trkpt lat="49.65744" lon="-1.51873">
        <ele>8.9</ele>
        <time>2020-06-15T08:32:58Z</time>
      </trkpt>
      <trkpt lat="49.65746" lon="-1.51865">
        <ele>8.9</ele>
        <time>2020-06-15T08:32:59Z</time>
      </trkpt>
      <trkpt lat="49.65749" lon="-1.51858">
        <ele>8.9</ele>
        <time>2020-06-15T08:33:00Z</time>
      </trkpt>
      <trkpt lat="49.65751" lon="-1.51851">
        <ele>8.9</ele>
        <time>2020-06-15T08:33:01Z</time>
      </trkpt>
      <trkpt lat="49.65753" lon="-1.51845">
        <ele>8.9</ele>
        <time>2020-06-15T08:33:02Z</time>
      </trkpt>
      <trkpt lat="49.65755" lon="-1.51837">
        <ele>8.9</ele>
        <time>2020-06-15T08:33:03Z</time>
      </trkpt>
      <trkpt lat="49.65757" lon="-1.51829">
        <ele>8.9</ele>
        <time>2020-06-15T08:33:04Z</time>
      </trkpt>
      <trkpt lat="49.65759" lon="-1.51822">
        <ele>8.9</ele>
        <time>2020-06-15T08:33:05Z</time>
      </trkpt>
      <trkpt lat="49.65761" lon="-1.51817">
        <ele>8.9</ele>
        <time>2020-06-15T08:33:06Z</time>
      </trkpt>
      <trkpt lat="49.65763" lon="-1.5181">
        <ele>8.9</ele>
        <time>2020-06-15T08:33:07Z</time>
      </trkpt>
      <trkpt lat="49.65766" lon="-1.51803">
        <ele>8.9</ele>
        <time>2020-06-15T08:33:08Z</time>
      </trkpt>
      <trkpt lat="49.65768" lon="-1.51795">
        <ele>9</ele>
        <time>2020-06-15T08:33:09Z</time>
      </trkpt>
      <trkpt lat="49.65772" lon="-1.51786">
        <ele>9</ele>
        <time>2020-06-15T08:33:10Z</time>
      </trkpt>
      <trkpt lat="49.65775" lon="-1.51779">
        <ele>9</ele>
        <time>2020-06-15T08:33:11Z</time>
      </trkpt>
      <trkpt lat="49.65778" lon="-1.5177">
        <ele>9.1</ele>
        <time>2020-06-15T08:33:12Z</time>
      </trkpt>
      <trkpt lat="49.6578" lon="-1.51764">
        <ele>9.1</ele>
        <time>2020-06-15T08:33:13Z</time>
      </trkpt>
      <trkpt lat="49.65783" lon="-1.51757">
        <ele>9.1</ele>
        <time>2020-06-15T08:33:14Z</time>
      </trkpt>
      <trkpt lat="49.65785" lon="-1.51749">
        <ele>9.1</ele>
        <time>2020-06-15T08:33:15Z</time>
      </trkpt>
      <trkpt lat="49.65788" lon="-1.51741">
        <ele>9.1</ele>
        <time>2020-06-15T08:33:16Z</time>
      </trkpt>
      <trkpt lat="49.6579" lon="-1.51734">
        <ele>9.1</ele>
        <time>2020-06-15T08:33:17Z</time>
      </trkpt>
      <trkpt lat="49.65794" lon="-1.51727">
        <ele>9.1</ele>
        <time>2020-06-15T08:33:18Z</time>
      </trkpt>
      <trkpt lat="49.65797" lon="-1.51721">
        <ele>9.1</ele>
        <time>2020-06-15T08:33:19Z</time>
      </trkpt>
      <trkpt lat="49.658" lon="-1.51714">
        <ele>9.1</ele>
        <time>2020-06-15T08:33:20Z</time>
      </trkpt>
      <trkpt lat="49.65802" lon="-1.51707">
        <ele>9.1</ele>
        <time>2020-06-15T08:33:21Z</time>
      </trkpt>
      <trkpt lat="49.65804" lon="-1.51701">
        <ele>9.1</ele>
        <time>2020-06-15T08:33:22Z</time>
      </trkpt>
      <trkpt lat="49.65807" lon="-1.51692">
        <ele>9.1</ele>
        <time>2020-06-15T08:33:23Z</time>
      </trkpt>
      <trkpt lat="49.65809" lon="-1.51684">
        <ele>9.1</ele>
        <time>2020-06-15T08:33:24Z</time>
      </trkpt>
      <trkpt lat="49.65811" lon="-1.51676">
        <ele>9</ele>
        <time>2020-06-15T08:33:25Z</time>
      </trkpt>
      <trkpt lat="49.65814" lon="-1.51669">
        <ele>9</ele>
        <time>2020-06-15T08:33:26Z</time>
      </trkpt>
      <trkpt lat="49.65817" lon="-1.51661">
        <ele>9</ele>
        <time>2020-06-15T08:33:27Z</time>
      </trkpt>
      <trkpt lat="49.65818" lon="-1.51654">
        <ele>9</ele>
        <time>2020-06-15T08:33:28Z</time>
      </trkpt>
      <trkpt lat="49.65821" lon="-1.51647">
        <ele>9</ele>
        <time>2020-06-15T08:33:29Z</time>
      </trkpt>
      <trkpt lat="49.65823" lon="-1.51639">
        <ele>9</ele>
        <time>2020-06-15T08:33:30Z</time>
      </trkpt>
      <trkpt lat="49.65825" lon="-1.51632">
        <ele>8.9</ele>
        <time>2020-06-15T08:33:31Z</time>
      </trkpt>
      <trkpt lat="49.65828" lon="-1.51624">
        <ele>8.9</ele>
        <time>2020-06-15T08:33:32Z</time>
      </trkpt>
      <trkpt lat="49.65831" lon="-1.51616">
        <ele>8.9</ele>
        <time>2020-06-15T08:33:33Z</time>
      </trkpt>
      <trkpt lat="49.65833" lon="-1.51608">
        <ele>8.8</ele>
        <time>2020-06-15T08:33:34Z</time>
      </trkpt>
      <trkpt lat="49.65836" lon="-1.51599">
        <ele>8.8</ele>
        <time>2020-06-15T08:33:35Z</time>
      </trkpt>
      <trkpt lat="49.65839" lon="-1.51591">
        <ele>8.8</ele>
        <time>2020-06-15T08:33:36Z</time>
      </trkpt>
      <trkpt lat="49.65842" lon="-1.51583">
        <ele>8.8</ele>
        <time>2020-06-15T08:33:37Z</time>
      </trkpt>
      <trkpt lat="49.65844" lon="-1.51576">
        <ele>8.7</ele>
        <time>2020-06-15T08:33:38Z</time>
      </trkpt>
      <trkpt lat="49.65849" lon="-1.51566">
        <ele>8.7</ele>
        <time>2020-06-15T08:33:39Z</time>
      </trkpt>
      <trkpt lat="49.65852" lon="-1.51557">
        <ele>8.7</ele>
        <time>2020-06-15T08:33:40Z</time>
      </trkpt>
      <trkpt lat="49.65854" lon="-1.51549">
        <ele>8.7</ele>
        <time>2020-06-15T08:33:41Z</time>
      </trkpt>
      <trkpt lat="49.65857" lon="-1.51541">
        <ele>8.6</ele>
        <time>2020-06-15T08:33:42Z</time>
      </trkpt>
      <trkpt lat="49.6586" lon="-1.51533">
        <ele>8.6</ele>
        <time>2020-06-15T08:33:43Z</time>
      </trkpt>
      <trkpt lat="49.65863" lon="-1.51524">
        <ele>8.6</ele>
        <time>2020-06-15T08:33:44Z</time>
      </trkpt>
      <trkpt lat="49.65866" lon="-1.51515">
        <ele>8.6</ele>
        <time>2020-06-15T08:33:45Z</time>
      </trkpt>
      <trkpt lat="49.65869" lon="-1.51506">
        <ele>8.6</ele>
        <time>2020-06-15T08:33:46Z</time>
      </trkpt>
      <trkpt lat="49.65872" lon="-1.51497">
        <ele>8.5</ele>
        <time>2020-06-15T08:33:47Z</time>
      </trkpt>
      <trkpt lat="49.65874" lon="-1.51489">
        <ele>8.5</ele>
        <time>2020-06-15T08:33:48Z</time>
      </trkpt>
      <trkpt lat="49.65877" lon="-1.51481">
        <ele>8.5</ele>
        <time>2020-06-15T08:33:49Z</time>
      </trkpt>
      <trkpt lat="49.65879" lon="-1.51471">
        <ele>8.5</ele>
        <time>2020-06-15T08:33:50Z</time>
      </trkpt>
      <trkpt lat="49.65883" lon="-1.51463">
        <ele>8.5</ele>
        <time>2020-06-15T08:33:51Z</time>
      </trkpt>
      <trkpt lat="49.65885" lon="-1.51454">
        <ele>8.5</ele>
        <time>2020-06-15T08:33:52Z</time>
      </trkpt>
      <trkpt lat="49.65888" lon="-1.51445">
        <ele>8.4</ele>
        <time>2020-06-15T08:33:53Z</time>
      </trkpt>
      <trkpt lat="49.65891" lon="-1.51436">
        <ele>8.4</ele>
        <time>2020-06-15T08:33:54Z</time>
      </trkpt>
      <trkpt lat="49.65893" lon="-1.51428">
        <ele>8.3</ele>
        <time>2020-06-15T08:33:55Z</time>
      </trkpt>
      <trkpt lat="49.65896" lon="-1.51419">
        <ele>8.3</ele>
        <time>2020-06-15T08:33:56Z</time>
      </trkpt>
      <trkpt lat="49.65899" lon="-1.5141">
        <ele>8.3</ele>
        <time>2020-06-15T08:33:57Z</time>
      </trkpt>
      <trkpt lat="49.65902" lon="-1.51401">
        <ele>8.3</ele>
        <time>2020-06-15T08:33:58Z</time>
      </trkpt>
      <trkpt lat="49.65905" lon="-1.51392">
        <ele>8.3</ele>
        <time>2020-06-15T08:33:59Z</time>
      </trkpt>
      <trkpt lat="49.65908" lon="-1.51383">
        <ele>8.2</ele>
        <time>2020-06-15T08:34:00Z</time>
      </trkpt>
      <trkpt lat="49.65911" lon="-1.51374">
        <ele>8.2</ele>
        <time>2020-06-15T08:34:01Z</time>
      </trkpt>
      <trkpt lat="49.65913" lon="-1.51365">
        <ele>8.2</ele>
        <time>2020-06-15T08:34:02Z</time>
      </trkpt>
      <trkpt lat="49.65916" lon="-1.51356">
        <ele>8.2</ele>
        <time>2020-06-15T08:34:03Z</time>
      </trkpt>
      <trkpt lat="49.6592" lon="-1.51347">
        <ele>8.2</ele>
        <time>2020-06-15T08:34:04Z</time>
      </trkpt>
      <trkpt lat="49.65924" lon="-1.51338">
        <ele>8.1</ele>
        <time>2020-06-15T08:34:05Z</time>
      </trkpt>
      <trkpt lat="49.65926" lon="-1.5133">
        <ele>8.1</ele>
        <time>2020-06-15T08:34:06Z</time>
      </trkpt>
      <trkpt lat="49.65929" lon="-1.51321">
        <ele>8.1</ele>
        <time>2020-06-15T08:34:07Z</time>
      </trkpt>
      <trkpt lat="49.65932" lon="-1.51313">
        <ele>8.1</ele>
        <time>2020-06-15T08:34:08Z</time>
      </trkpt>
      <trkpt lat="49.65934" lon="-1.51304">
        <ele>8.1</ele>
        <time>2020-06-15T08:34:09Z</time>
      </trkpt>
      <trkpt lat="49.65937" lon="-1.51295">
        <ele>8.1</ele>
        <time>2020-06-15T08:34:10Z</time>
      </trkpt>
      <trkpt lat="49.6594" lon="-1.51286">
        <ele>8.1</ele>
        <time>2020-06-15T08:34:11Z</time>
      </trkpt>
      <trkpt lat="49.65943" lon="-1.51276">
        <ele>8</ele>
        <time>2020-06-15T08:34:12Z</time>
      </trkpt>
      <trkpt lat="49.65945" lon="-1.51268">
        <ele>7.9</ele>
        <time>2020-06-15T08:34:13Z</time>
      </trkpt>
      <trkpt lat="49.65948" lon="-1.51258">
        <ele>7.8</ele>
        <time>2020-06-15T08:34:14Z</time>
      </trkpt>
      <trkpt lat="49.65951" lon="-1.51249">
        <ele>7.8</ele>
        <time>2020-06-15T08:34:15Z</time>
      </trkpt>
      <trkpt lat="49.65954" lon="-1.51239">
        <ele>7.8</ele>
        <time>2020-06-15T08:34:16Z</time>
      </trkpt>
      <trkpt lat="49.65957" lon="-1.5123">
        <ele>7.8</ele>
        <time>2020-06-15T08:34:17Z</time>
      </trkpt>
      <trkpt lat="49.65961" lon="-1.51222">
        <ele>7.8</ele>
        <time>2020-06-15T08:34:18Z</time>
      </trkpt>
      <trkpt lat="49.65964" lon="-1.51212">
        <ele>7.8</ele>
        <time>2020-06-15T08:34:19Z</time>
      </trkpt>
      <trkpt lat="49.65967" lon="-1.51203">
        <ele>7.8</ele>
        <time>2020-06-15T08:34:20Z</time>
      </trkpt>
      <trkpt lat="49.6597" lon="-1.51193">
        <ele>7.8</ele>
        <time>2020-06-15T08:34:21Z</time>
      </trkpt>
      <trkpt lat="49.65973" lon="-1.51184">
        <ele>7.8</ele>
        <time>2020-06-15T08:34:22Z</time>
      </trkpt>
      <trkpt lat="49.65975" lon="-1.51175">
        <ele>7.8</ele>
        <time>2020-06-15T08:34:23Z</time>
      </trkpt>
      <trkpt lat="49.65978" lon="-1.51166">
        <ele>7.8</ele>
        <time>2020-06-15T08:34:24Z</time>
      </trkpt>
      <trkpt lat="49.65982" lon="-1.51157">
        <ele>7.7</ele>
        <time>2020-06-15T08:34:25Z</time>
      </trkpt>
      <trkpt lat="49.65985" lon="-1.51147">
        <ele>7.6</ele>
        <time>2020-06-15T08:34:26Z</time>
      </trkpt>
      <trkpt lat="49.65987" lon="-1.51138">
        <ele>7.6</ele>
        <time>2020-06-15T08:34:27Z</time>
      </trkpt>
      <trkpt lat="49.6599" lon="-1.51128">
        <ele>7.6</ele>
        <time>2020-06-15T08:34:28Z</time>
      </trkpt>
      <trkpt lat="49.65994" lon="-1.51119">
        <ele>7.6</ele>
        <time>2020-06-15T08:34:29Z</time>
      </trkpt>
      <trkpt lat="49.65997" lon="-1.5111">
        <ele>7.6</ele>
        <time>2020-06-15T08:34:30Z</time>
      </trkpt>
      <trkpt lat="49.66" lon="-1.51101">
        <ele>7.6</ele>
        <time>2020-06-15T08:34:31Z</time>
      </trkpt>
      <trkpt lat="49.66003" lon="-1.51092">
        <ele>7.6</ele>
        <time>2020-06-15T08:34:32Z</time>
      </trkpt>
      <trkpt lat="49.66006" lon="-1.51083">
        <ele>7.6</ele>
        <time>2020-06-15T08:34:33Z</time>
      </trkpt>
      <trkpt lat="49.66009" lon="-1.51073">
        <ele>7.7</ele>
        <time>2020-06-15T08:34:34Z</time>
      </trkpt>
      <trkpt lat="49.66012" lon="-1.51063">
        <ele>7.7</ele>
        <time>2020-06-15T08:34:35Z</time>
      </trkpt>
      <trkpt lat="49.66015" lon="-1.51054">
        <ele>7.7</ele>
        <time>2020-06-15T08:34:36Z</time>
      </trkpt>
      <trkpt lat="49.66018" lon="-1.51045">
        <ele>7.7</ele>
        <time>2020-06-15T08:34:37Z</time>
      </trkpt>
      <trkpt lat="49.66021" lon="-1.51036">
        <ele>7.8</ele>
        <time>2020-06-15T08:34:38Z</time>
      </trkpt>
      <trkpt lat="49.66024" lon="-1.51027">
        <ele>7.8</ele>
        <time>2020-06-15T08:34:39Z</time>
      </trkpt>
      <trkpt lat="49.66027" lon="-1.51018">
        <ele>7.8</ele>
        <time>2020-06-15T08:34:40Z</time>
      </trkpt>
      <trkpt lat="49.6603" lon="-1.51009">
        <ele>7.9</ele>
        <time>2020-06-15T08:34:41Z</time>
      </trkpt>
      <trkpt lat="49.66033" lon="-1.51">
        <ele>7.9</ele>
        <time>2020-06-15T08:34:42Z</time>
      </trkpt>
      <trkpt lat="49.66036" lon="-1.50991">
        <ele>7.9</ele>
        <time>2020-06-15T08:34:43Z</time>
      </trkpt>
      <trkpt lat="49.66039" lon="-1.50983">
        <ele>7.9</ele>
        <time>2020-06-15T08:34:44Z</time>
      </trkpt>
      <trkpt lat="49.66043" lon="-1.50974">
        <ele>7.8</ele>
        <time>2020-06-15T08:34:45Z</time>
      </trkpt>
      <trkpt lat="49.66045" lon="-1.50965">
        <ele>7.8</ele>
        <time>2020-06-15T08:34:46Z</time>
      </trkpt>
      <trkpt lat="49.66048" lon="-1.50956">
        <ele>7.8</ele>
        <time>2020-06-15T08:34:47Z</time>
      </trkpt>
      <trkpt lat="49.66051" lon="-1.50947">
        <ele>7.8</ele>
        <time>2020-06-15T08:34:48Z</time>
      </trkpt>
      <trkpt lat="49.66054" lon="-1.50938">
        <ele>7.9</ele>
        <time>2020-06-15T08:34:49Z</time>
      </trkpt>
      <trkpt lat="49.66057" lon="-1.50929">
        <ele>7.9</ele>
        <time>2020-06-15T08:34:50Z</time>
      </trkpt>
      <trkpt lat="49.6606" lon="-1.50921">
        <ele>7.9</ele>
        <time>2020-06-15T08:34:51Z</time>
      </trkpt>
      <trkpt lat="49.66064" lon="-1.50912">
        <ele>8</ele>
        <time>2020-06-15T08:34:52Z</time>
      </trkpt>
      <trkpt lat="49.66067" lon="-1.50903">
        <ele>8</ele>
        <time>2020-06-15T08:34:53Z</time>
      </trkpt>
      <trkpt lat="49.6607" lon="-1.50893">
        <ele>8.1</ele>
        <time>2020-06-15T08:34:54Z</time>
      </trkpt>
      <trkpt lat="49.66073" lon="-1.50884">
        <ele>8.2</ele>
        <time>2020-06-15T08:34:55Z</time>
      </trkpt>
      <trkpt lat="49.66076" lon="-1.50874">
        <ele>8.2</ele>
        <time>2020-06-15T08:34:56Z</time>
      </trkpt>
      <trkpt lat="49.66079" lon="-1.50865">
        <ele>8.3</ele>
        <time>2020-06-15T08:34:57Z</time>
      </trkpt>
      <trkpt lat="49.66081" lon="-1.50855">
        <ele>8.4</ele>
        <time>2020-06-15T08:34:58Z</time>
      </trkpt>
      <trkpt lat="49.66084" lon="-1.50846">
        <ele>8.4</ele>
        <time>2020-06-15T08:34:59Z</time>
      </trkpt>
      <trkpt lat="49.66087" lon="-1.50836">
        <ele>8.5</ele>
        <time>2020-06-15T08:35:00Z</time>
      </trkpt>
      <trkpt lat="49.6609" lon="-1.50827">
        <ele>8.7</ele>
        <time>2020-06-15T08:35:01Z</time>
      </trkpt>
      <trkpt lat="49.66092" lon="-1.50818">
        <ele>8.8</ele>
        <time>2020-06-15T08:35:02Z</time>
      </trkpt>
      <trkpt lat="49.66095" lon="-1.50808">
        <ele>8.9</ele>
        <time>2020-06-15T08:35:03Z</time>
      </trkpt>
      <trkpt lat="49.66098" lon="-1.508">
        <ele>9</ele>
        <time>2020-06-15T08:35:04Z</time>
      </trkpt>
      <trkpt lat="49.661" lon="-1.5079">
        <ele>9.1</ele>
        <time>2020-06-15T08:35:05Z</time>
      </trkpt>
      <trkpt lat="49.66102" lon="-1.50781">
        <ele>9.2</ele>
        <time>2020-06-15T08:35:06Z</time>
      </trkpt>
      <trkpt lat="49.66105" lon="-1.50772">
        <ele>9.3</ele>
        <time>2020-06-15T08:35:07Z</time>
      </trkpt>
      <trkpt lat="49.66107" lon="-1.50763">
        <ele>9.3</ele>
        <time>2020-06-15T08:35:08Z</time>
      </trkpt>
      <trkpt lat="49.66109" lon="-1.50754">
        <ele>9.3</ele>
        <time>2020-06-15T08:35:09Z</time>
      </trkpt>
      <trkpt lat="49.66112" lon="-1.50746">
        <ele>9.3</ele>
        <time>2020-06-15T08:35:10Z</time>
      </trkpt>
      <trkpt lat="49.66114" lon="-1.50738">
        <ele>9.4</ele>
        <time>2020-06-15T08:35:11Z</time>
      </trkpt>
      <trkpt lat="49.66117" lon="-1.5073">
        <ele>9.4</ele>
        <time>2020-06-15T08:35:12Z</time>
      </trkpt>
      <trkpt lat="49.6612" lon="-1.50722">
        <ele>9.5</ele>
        <time>2020-06-15T08:35:13Z</time>
      </trkpt>
      <trkpt lat="49.66122" lon="-1.50714">
        <ele>9.6</ele>
        <time>2020-06-15T08:35:14Z</time>
      </trkpt>
      <trkpt lat="49.66125" lon="-1.50707">
        <ele>9.7</ele>
        <time>2020-06-15T08:35:15Z</time>
      </trkpt>
      <trkpt lat="49.66128" lon="-1.50699">
        <ele>9.8</ele>
        <time>2020-06-15T08:35:16Z</time>
      </trkpt>
      <trkpt lat="49.66131" lon="-1.50692">
        <ele>9.9</ele>
        <time>2020-06-15T08:35:17Z</time>
      </trkpt>
      <trkpt lat="49.66134" lon="-1.50685">
        <ele>10</ele>
        <time>2020-06-15T08:35:18Z</time>
      </trkpt>
      <trkpt lat="49.66137" lon="-1.50678">
        <ele>10.1</ele>
        <time>2020-06-15T08:35:19Z</time>
      </trkpt>
      <trkpt lat="49.6614" lon="-1.50671">
        <ele>10.3</ele>
        <time>2020-06-15T08:35:20Z</time>
      </trkpt>
      <trkpt lat="49.66143" lon="-1.50664">
        <ele>10.4</ele>
        <time>2020-06-15T08:35:21Z</time>
      </trkpt>
      <trkpt lat="49.66147" lon="-1.5066">
        <ele>10.5</ele>
        <time>2020-06-15T08:35:22Z</time>
      </trkpt>
      <trkpt lat="49.6615" lon="-1.50652">
        <ele>10.6</ele>
        <time>2020-06-15T08:35:23Z</time>
      </trkpt>
      <trkpt lat="49.66154" lon="-1.50645">
        <ele>10.8</ele>
        <time>2020-06-15T08:35:24Z</time>
      </trkpt>
      <trkpt lat="49.66158" lon="-1.50638">
        <ele>10.9</ele>
        <time>2020-06-15T08:35:25Z</time>
      </trkpt>
      <trkpt lat="49.66162" lon="-1.50632">
        <ele>11</ele>
        <time>2020-06-15T08:35:26Z</time>
      </trkpt>
      <trkpt lat="49.66166" lon="-1.50625">
        <ele>11.2</ele>
        <time>2020-06-15T08:35:27Z</time>
      </trkpt>
      <trkpt lat="49.6617" lon="-1.50618">
        <ele>11.3</ele>
        <time>2020-06-15T08:35:28Z</time>
      </trkpt>
      <trkpt lat="49.66174" lon="-1.50611">
        <ele>11.5</ele>
        <time>2020-06-15T08:35:29Z</time>
      </trkpt>
      <trkpt lat="49.66177" lon="-1.50605">
        <ele>11.6</ele>
        <time>2020-06-15T08:35:30Z</time>
      </trkpt>
      <trkpt lat="49.66181" lon="-1.50598">
        <ele>11.7</ele>
        <time>2020-06-15T08:35:31Z</time>
      </trkpt>
      <trkpt lat="49.66184" lon="-1.50592">
        <ele>11.8</ele>
        <time>2020-06-15T08:35:32Z</time>
      </trkpt>
      <trkpt lat="49.66186" lon="-1.50588">
        <ele>11.9</ele>
        <time>2020-06-15T08:35:33Z</time>
      </trkpt>
      <trkpt lat="49.66191" lon="-1.50582">
        <ele>12</ele>
        <time>2020-06-15T08:35:34Z</time>
      </trkpt>
      <trkpt lat="49.66194" lon="-1.50576">
        <ele>12</ele>
        <time>2020-06-15T08:35:35Z</time>
      </trkpt>
      <trkpt lat="49.66197" lon="-1.5057">
        <ele>12.2</ele>
        <time>2020-06-15T08:35:36Z</time>
      </trkpt>
      <trkpt lat="49.662" lon="-1.50562">
        <ele>12.3</ele>
        <time>2020-06-15T08:35:37Z</time>
      </trkpt>
      <trkpt lat="49.66203" lon="-1.50555">
        <ele>12.4</ele>
        <time>2020-06-15T08:35:38Z</time>
      </trkpt>
      <trkpt lat="49.66206" lon="-1.50548">
        <ele>12.4</ele>
        <time>2020-06-15T08:35:39Z</time>
      </trkpt>
      <trkpt lat="49.66209" lon="-1.5054">
        <ele>12.5</ele>
        <time>2020-06-15T08:35:40Z</time>
      </trkpt>
      <trkpt lat="49.66212" lon="-1.50533">
        <ele>12.5</ele>
        <time>2020-06-15T08:35:41Z</time>
      </trkpt>
      <trkpt lat="49.66215" lon="-1.50527">
        <ele>12.6</ele>
        <time>2020-06-15T08:35:42Z</time>
      </trkpt>
      <trkpt lat="49.66219" lon="-1.50521">
        <ele>12.6</ele>
        <time>2020-06-15T08:35:43Z</time>
      </trkpt>
      <trkpt lat="49.66223" lon="-1.50514">
        <ele>12.7</ele>
        <time>2020-06-15T08:35:44Z</time>
      </trkpt>
      <trkpt lat="49.66227" lon="-1.50506">
        <ele>12.8</ele>
        <time>2020-06-15T08:35:45Z</time>
      </trkpt>
      <trkpt lat="49.6623" lon="-1.505">
        <ele>12.9</ele>
        <time>2020-06-15T08:35:46Z</time>
      </trkpt>
      <trkpt lat="49.66233" lon="-1.50495">
        <ele>12.9</ele>
        <time>2020-06-15T08:35:47Z</time>
      </trkpt>
      <trkpt lat="49.66237" lon="-1.50488">
        <ele>13</ele>
        <time>2020-06-15T08:35:48Z</time>
      </trkpt>
      <trkpt lat="49.66241" lon="-1.50482">
        <ele>13.1</ele>
        <time>2020-06-15T08:35:49Z</time>
      </trkpt>
      <trkpt lat="49.66244" lon="-1.50475">
        <ele>13.2</ele>
        <time>2020-06-15T08:35:50Z</time>
      </trkpt>
      <trkpt lat="49.66247" lon="-1.50469">
        <ele>13.3</ele>
        <time>2020-06-15T08:35:51Z</time>
      </trkpt>
      <trkpt lat="49.66249" lon="-1.50462">
        <ele>13.4</ele>
        <time>2020-06-15T08:35:52Z</time>
      </trkpt>
      <trkpt lat="49.66252" lon="-1.50455">
        <ele>13.5</ele>
        <time>2020-06-15T08:35:53Z</time>
      </trkpt>
      <trkpt lat="49.66256" lon="-1.50449">
        <ele>13.6</ele>
        <time>2020-06-15T08:35:54Z</time>
      </trkpt>
      <trkpt lat="49.66259" lon="-1.50442">
        <ele>13.7</ele>
        <time>2020-06-15T08:35:55Z</time>
      </trkpt>
      <trkpt lat="49.66262" lon="-1.50435">
        <ele>13.7</ele>
        <time>2020-06-15T08:35:56Z</time>
      </trkpt>
      <trkpt lat="49.66265" lon="-1.50428">
        <ele>13.8</ele>
        <time>2020-06-15T08:35:57Z</time>
      </trkpt>
      <trkpt lat="49.66269" lon="-1.50421">
        <ele>13.9</ele>
        <time>2020-06-15T08:35:58Z</time>
      </trkpt>
      <trkpt lat="49.66272" lon="-1.50414">
        <ele>14</ele>
        <time>2020-06-15T08:35:59Z</time>
      </trkpt>
      <trkpt lat="49.66276" lon="-1.50407">
        <ele>14</ele>
        <time>2020-06-15T08:36:00Z</time>
      </trkpt>
      <trkpt lat="49.6628" lon="-1.504">
        <ele>14.1</ele>
        <time>2020-06-15T08:36:01Z</time>
      </trkpt>
      <trkpt lat="49.66283" lon="-1.50392">
        <ele>14.2</ele>
        <time>2020-06-15T08:36:02Z</time>
      </trkpt>
      <trkpt lat="49.66286" lon="-1.50385">
        <ele>14.2</ele>
        <time>2020-06-15T08:36:03Z</time>
      </trkpt>
      <trkpt lat="49.66289" lon="-1.50378">
        <ele>14.3</ele>
        <time>2020-06-15T08:36:04Z</time>
      </trkpt>
      <trkpt lat="49.66292" lon="-1.50371">
        <ele>14.3</ele>
        <time>2020-06-15T08:36:05Z</time>
      </trkpt>
      <trkpt lat="49.66295" lon="-1.50364">
        <ele>14.4</ele>
        <time>2020-06-15T08:36:06Z</time>
      </trkpt>
      <trkpt lat="49.66299" lon="-1.50358">
        <ele>14.4</ele>
        <time>2020-06-15T08:36:07Z</time>
      </trkpt>
      <trkpt lat="49.66303" lon="-1.50351">
        <ele>14.4</ele>
        <time>2020-06-15T08:36:08Z</time>
      </trkpt>
      <trkpt lat="49.66306" lon="-1.50345">
        <ele>14.5</ele>
        <time>2020-06-15T08:36:09Z</time>
      </trkpt>
      <trkpt lat="49.66309" lon="-1.50338">
        <ele>14.5</ele>
        <time>2020-06-15T08:36:10Z</time>
      </trkpt>
      <trkpt lat="49.66313" lon="-1.50332">
        <ele>14.6</ele>
        <time>2020-06-15T08:36:11Z</time>
      </trkpt>
      <trkpt lat="49.66317" lon="-1.50324">
        <ele>14.7</ele>
        <time>2020-06-15T08:36:12Z</time>
      </trkpt>
      <trkpt lat="49.6632" lon="-1.50317">
        <ele>14.7</ele>
        <time>2020-06-15T08:36:13Z</time>
      </trkpt>
      <trkpt lat="49.66324" lon="-1.5031">
        <ele>14.7</ele>
        <time>2020-06-15T08:36:14Z</time>
      </trkpt>
      <trkpt lat="49.66327" lon="-1.50303">
        <ele>14.8</ele>
        <time>2020-06-15T08:36:15Z</time>
      </trkpt>
      <trkpt lat="49.66331" lon="-1.50296">
        <ele>14.8</ele>
        <time>2020-06-15T08:36:16Z</time>
      </trkpt>
      <trkpt lat="49.66334" lon="-1.5029">
        <ele>14.9</ele>
        <time>2020-06-15T08:36:17Z</time>
      </trkpt>
      <trkpt lat="49.66337" lon="-1.50283">
        <ele>14.9</ele>
        <time>2020-06-15T08:36:18Z</time>
      </trkpt>
      <trkpt lat="49.66341" lon="-1.50277">
        <ele>15</ele>
        <time>2020-06-15T08:36:19Z</time>
      </trkpt>
      <trkpt lat="49.66345" lon="-1.50271">
        <ele>15.1</ele>
        <time>2020-06-15T08:36:20Z</time>
      </trkpt>
      <trkpt lat="49.66349" lon="-1.50264">
        <ele>15.2</ele>
        <time>2020-06-15T08:36:21Z</time>
      </trkpt>
      <trkpt lat="49.66353" lon="-1.50258">
        <ele>15.3</ele>
        <time>2020-06-15T08:36:22Z</time>
      </trkpt>
      <trkpt lat="49.66356" lon="-1.50251">
        <ele>15.4</ele>
        <time>2020-06-15T08:36:23Z</time>
      </trkpt>
      <trkpt lat="49.66359" lon="-1.50243">
        <ele>15.5</ele>
        <time>2020-06-15T08:36:24Z</time>
      </trkpt>
      <trkpt lat="49.66362" lon="-1.50237">
        <ele>15.5</ele>
        <time>2020-06-15T08:36:25Z</time>
      </trkpt>
      <trkpt lat="49.66366" lon="-1.5023">
        <ele>15.6</ele>
        <time>2020-06-15T08:36:26Z</time>
      </trkpt>
      <trkpt lat="49.66368" lon="-1.50223">
        <ele>15.6</ele>
        <time>2020-06-15T08:36:27Z</time>
      </trkpt>
      <trkpt lat="49.66371" lon="-1.50216">
        <ele>15.7</ele>
        <time>2020-06-15T08:36:28Z</time>
      </trkpt>
      <trkpt lat="49.66375" lon="-1.50209">
        <ele>15.7</ele>
        <time>2020-06-15T08:36:29Z</time>
      </trkpt>
      <trkpt lat="49.66378" lon="-1.50201">
        <ele>15.8</ele>
        <time>2020-06-15T08:36:30Z</time>
      </trkpt>
      <trkpt lat="49.66381" lon="-1.50195">
        <ele>15.8</ele>
        <time>2020-06-15T08:36:31Z</time>
      </trkpt>
      <trkpt lat="49.66384" lon="-1.50188">
        <ele>15.9</ele>
        <time>2020-06-15T08:36:32Z</time>
      </trkpt>
      <trkpt lat="49.66387" lon="-1.50181">
        <ele>16</ele>
        <time>2020-06-15T08:36:33Z</time>
      </trkpt>
      <trkpt lat="49.66391" lon="-1.50174">
        <ele>16</ele>
        <time>2020-06-15T08:36:34Z</time>
      </trkpt>
      <trkpt lat="49.66394" lon="-1.50167">
        <ele>16.1</ele>
        <time>2020-06-15T08:36:35Z</time>
      </trkpt>
      <trkpt lat="49.66398" lon="-1.50158">
        <ele>16.1</ele>
        <time>2020-06-15T08:36:36Z</time>
      </trkpt>
      <trkpt lat="49.66401" lon="-1.50152">
        <ele>16.1</ele>
        <time>2020-06-15T08:36:37Z</time>
      </trkpt>
      <trkpt lat="49.66405" lon="-1.50145">
        <ele>16.1</ele>
        <time>2020-06-15T08:36:38Z</time>
      </trkpt>
      <trkpt lat="49.66408" lon="-1.50138">
        <ele>16.1</ele>
        <time>2020-06-15T08:36:39Z</time>
      </trkpt>
      <trkpt lat="49.66411" lon="-1.50132">
        <ele>16.2</ele>
        <time>2020-06-15T08:36:40Z</time>
      </trkpt>
      <trkpt lat="49.66414" lon="-1.50125">
        <ele>16.2</ele>
        <time>2020-06-15T08:36:41Z</time>
      </trkpt>
      <trkpt lat="49.66417" lon="-1.50117">
        <ele>16.3</ele>
        <time>2020-06-15T08:36:42Z</time>
      </trkpt>
      <trkpt lat="49.66421" lon="-1.50111">
        <ele>16.4</ele>
        <time>2020-06-15T08:36:43Z</time>
      </trkpt>
      <trkpt lat="49.66425" lon="-1.50105">
        <ele>16.5</ele>
        <time>2020-06-15T08:36:44Z</time>
      </trkpt>
      <trkpt lat="49.66428" lon="-1.50098">
        <ele>16.6</ele>
        <time>2020-06-15T08:36:45Z</time>
      </trkpt>
      <trkpt lat="49.66431" lon="-1.50092">
        <ele>16.7</ele>
        <time>2020-06-15T08:36:46Z</time>
      </trkpt>
      <trkpt lat="49.66434" lon="-1.50086">
        <ele>16.8</ele>
        <time>2020-06-15T08:36:47Z</time>
      </trkpt>
      <trkpt lat="49.66437" lon="-1.50078">
        <ele>16.9</ele>
        <time>2020-06-15T08:36:48Z</time>
      </trkpt>
      <trkpt lat="49.66439" lon="-1.5007">
        <ele>17</ele>
        <time>2020-06-15T08:36:49Z</time>
      </trkpt>
      <trkpt lat="49.66442" lon="-1.50063">
        <ele>17.1</ele>
        <time>2020-06-15T08:36:50Z</time>
      </trkpt>
      <trkpt lat="49.66446" lon="-1.50057">
        <ele>17.2</ele>
        <time>2020-06-15T08:36:51Z</time>
      </trkpt>
      <trkpt lat="49.66449" lon="-1.5005">
        <ele>17.3</ele>
        <time>2020-06-15T08:36:52Z</time>
      </trkpt>
      <trkpt lat="49.66453" lon="-1.50045">
        <ele>17.4</ele>
        <time>2020-06-15T08:36:53Z</time>
      </trkpt>
      <trkpt lat="49.66456" lon="-1.5004">
        <ele>17.4</ele>
        <time>2020-06-15T08:36:54Z</time>
      </trkpt>
      <trkpt lat="49.66459" lon="-1.50035">
        <ele>17.5</ele>
        <time>2020-06-15T08:36:55Z</time>
      </trkpt>
      <trkpt lat="49.66461" lon="-1.50029">
        <ele>17.6</ele>
        <time>2020-06-15T08:36:56Z</time>
      </trkpt>
      <trkpt lat="49.66463" lon="-1.50023">
        <ele>17.6</ele>
        <time>2020-06-15T08:36:57Z</time>
      </trkpt>
      <trkpt lat="49.66465" lon="-1.50018">
        <ele>17.7</ele>
        <time>2020-06-15T08:36:58Z</time>
      </trkpt>
      <trkpt lat="49.66468" lon="-1.50014">
        <ele>17.8</ele>
        <time>2020-06-15T08:36:59Z</time>
      </trkpt>
      <trkpt lat="49.66471" lon="-1.5001">
        <ele>17.9</ele>
        <time>2020-06-15T08:37:00Z</time>
      </trkpt>
      <trkpt lat="49.66473" lon="-1.50006">
        <ele>17.9</ele>
        <time>2020-06-15T08:37:01Z</time>
      </trkpt>
      <trkpt lat="49.66474" lon="-1.50002">
        <ele>18</ele>
        <time>2020-06-15T08:37:02Z</time>
      </trkpt>
      <trkpt lat="49.66476" lon="-1.49997">
        <ele>18.1</ele>
        <time>2020-06-15T08:37:03Z</time>
      </trkpt>
      <trkpt lat="49.66477" lon="-1.49996">
        <ele>18.1</ele>
        <time>2020-06-15T08:37:04Z</time>
      </trkpt>
      <trkpt lat="49.66478" lon="-1.49994">
        <ele>18.1</ele>
        <time>2020-06-15T08:37:05Z</time>
      </trkpt>
      <trkpt lat="49.66478" lon="-1.49992">
        <ele>18.1</ele>
        <time>2020-06-15T08:37:06Z</time>
      </trkpt>
      <trkpt lat="49.66478" lon="-1.49989">
        <ele>18.2</ele>
        <time>2020-06-15T08:37:07Z</time>
      </trkpt>
      <trkpt lat="49.66478" lon="-1.49989">
        <ele>18.2</ele>
        <time>2020-06-15T08:37:08Z</time>
      </trkpt>
      <trkpt lat="49.66478" lon="-1.49988">
        <ele>18.2</ele>
        <time>2020-06-15T08:37:09Z</time>
      </trkpt>
      <trkpt lat="49.66478" lon="-1.49988">
        <ele>18.2</ele>
        <time>2020-06-15T08:37:10Z</time>
      </trkpt>
      <trkpt lat="49.66478" lon="-1.49987">
        <ele>18.2</ele>
        <time>2020-06-15T08:37:11Z</time>
      </trkpt>
      <trkpt lat="49.66478" lon="-1.49986">
        <ele>18.2</ele>
        <time>2020-06-15T08:37:12Z</time>
      </trkpt>
      <trkpt lat="49.66478" lon="-1.49986">
        <ele>18.2</ele>
        <time>2020-06-15T08:37:13Z</time>
      </trkpt>
      <trkpt lat="49.66478" lon="-1.49985">
        <ele>18.2</ele>
        <time>2020-06-15T08:37:14Z</time>
      </trkpt>
      <trkpt lat="49.66478" lon="-1.49984">
        <ele>18.2</ele>
        <time>2020-06-15T08:37:15Z</time>
      </trkpt>
      <trkpt lat="49.66478" lon="-1.49984">
        <ele>18.3</ele>
        <time>2020-06-15T08:37:16Z</time>
      </trkpt>
      <trkpt lat="49.66478" lon="-1.49983">
        <ele>18.3</ele>
        <time>2020-06-15T08:37:17Z</time>
      </trkpt>
      <trkpt lat="49.66478" lon="-1.49982">
        <ele>18.3</ele>
        <time>2020-06-15T08:37:18Z</time>
      </trkpt>
      <trkpt lat="49.66478" lon="-1.49982">
        <ele>18.3</ele>
        <time>2020-06-15T08:37:19Z</time>
      </trkpt>
      <trkpt lat="49.66478" lon="-1.49981">
        <ele>18.3</ele>
        <time>2020-06-15T08:38:53Z</time>
      </trkpt>
      <trkpt lat="49.66478" lon="-1.4998">
        <ele>18.3</ele>
        <time>2020-06-15T08:38:54Z</time>
      </trkpt>
      <trkpt lat="49.66479" lon="-1.49975">
        <ele>18.4</ele>
        <time>2020-06-15T08:38:55Z</time>
      </trkpt>
      <trkpt lat="49.6648" lon="-1.4997">
        <ele>18.5</ele>
        <time>2020-06-15T08:38:56Z</time>
      </trkpt>
      <trkpt lat="49.66481" lon="-1.49965">
        <ele>18.5</ele>
        <time>2020-06-15T08:38:57Z</time>
      </trkpt>
      <trkpt lat="49.66482" lon="-1.49961">
        <ele>18.6</ele>
        <time>2020-06-15T08:38:58Z</time>
      </trkpt>
      <trkpt lat="49.66482" lon="-1.49956">
        <ele>18.6</ele>
        <time>2020-06-15T08:38:59Z</time>
      </trkpt>
      <trkpt lat="49.66482" lon="-1.49952">
        <ele>18.7</ele>
        <time>2020-06-15T08:39:00Z</time>
      </trkpt>
      <trkpt lat="49.66483" lon="-1.49947">
        <ele>18.7</ele>
        <time>2020-06-15T08:39:01Z</time>
      </trkpt>
      <trkpt lat="49.66484" lon="-1.49943">
        <ele>18.8</ele>
        <time>2020-06-15T08:39:02Z</time>
      </trkpt>
      <trkpt lat="49.66484" lon="-1.49938">
        <ele>18.8</ele>
        <time>2020-06-15T08:39:03Z</time>
      </trkpt>
      <trkpt lat="49.66485" lon="-1.49933">
        <ele>18.9</ele>
        <time>2020-06-15T08:39:04Z</time>
      </trkpt>
      <trkpt lat="49.66486" lon="-1.49929">
        <ele>18.9</ele>
        <time>2020-06-15T08:39:05Z</time>
      </trkpt>
      <trkpt lat="49.66487" lon="-1.49924">
        <ele>19</ele>
        <time>2020-06-15T08:39:06Z</time>
      </trkpt>
      <trkpt lat="49.66488" lon="-1.49919">
        <ele>19</ele>
        <time>2020-06-15T08:39:07Z</time>
      </trkpt>
      <trkpt lat="49.66489" lon="-1.49914">
        <ele>19.1</ele>
        <time>2020-06-15T08:39:08Z</time>
      </trkpt>
      <trkpt lat="49.66489" lon="-1.49909">
        <ele>19.1</ele>
        <time>2020-06-15T08:39:09Z</time>
      </trkpt>
      <trkpt lat="49.66489" lon="-1.49905">
        <ele>19.2</ele>
        <time>2020-06-15T08:39:10Z</time>
      </trkpt>
      <trkpt lat="49.6649" lon="-1.49898">
        <ele>19.2</ele>
        <time>2020-06-15T08:39:11Z</time>
      </trkpt>
      <trkpt lat="49.6649" lon="-1.49892">
        <ele>19.3</ele>
        <time>2020-06-15T08:39:12Z</time>
      </trkpt>
      <trkpt lat="49.66491" lon="-1.49887">
        <ele>19.4</ele>
        <time>2020-06-15T08:39:13Z</time>
      </trkpt>
      <trkpt lat="49.66491" lon="-1.49881">
        <ele>19.4</ele>
        <time>2020-06-15T08:39:14Z</time>
      </trkpt>
      <trkpt lat="49.66492" lon="-1.49876">
        <ele>19.5</ele>
        <time>2020-06-15T08:39:15Z</time>
      </trkpt>
      <trkpt lat="49.66492" lon="-1.49871">
        <ele>19.6</ele>
        <time>2020-06-15T08:39:16Z</time>
      </trkpt>
      <trkpt lat="49.66494" lon="-1.49865">
        <ele>19.6</ele>
        <time>2020-06-15T08:39:17Z</time>
      </trkpt>
      <trkpt lat="49.66495" lon="-1.4986">
        <ele>19.7</ele>
        <time>2020-06-15T08:39:18Z</time>
      </trkpt>
      <trkpt lat="49.66496" lon="-1.49855">
        <ele>19.8</ele>
        <time>2020-06-15T08:39:19Z</time>
      </trkpt>
      <trkpt lat="49.66498" lon="-1.49849">
        <ele>19.9</ele>
        <time>2020-06-15T08:39:20Z</time>
      </trkpt>
      <trkpt lat="49.66499" lon="-1.49844">
        <ele>19.9</ele>
        <time>2020-06-15T08:39:21Z</time>
      </trkpt>
      <trkpt lat="49.66499" lon="-1.49837">
        <ele>20</ele>
        <time>2020-06-15T08:39:22Z</time>
      </trkpt>
      <trkpt lat="49.66499" lon="-1.49834">
        <ele>20</ele>
        <time>2020-06-15T08:39:23Z</time>
      </trkpt>
      <trkpt lat="49.665" lon="-1.49829">
        <ele>20.1</ele>
        <time>2020-06-15T08:39:24Z</time>
      </trkpt>
      <trkpt lat="49.66501" lon="-1.49825">
        <ele>20.1</ele>
        <time>2020-06-15T08:39:25Z</time>
      </trkpt>
      <trkpt lat="49.66502" lon="-1.4982">
        <ele>20.2</ele>
        <time>2020-06-15T08:39:26Z</time>
      </trkpt>
      <trkpt lat="49.66502" lon="-1.49815">
        <ele>20.2</ele>
        <time>2020-06-15T08:39:27Z</time>
      </trkpt>
      <trkpt lat="49.66504" lon="-1.4981">
        <ele>20.3</ele>
        <time>2020-06-15T08:39:28Z</time>
      </trkpt>
      <trkpt lat="49.66505" lon="-1.49804">
        <ele>20.4</ele>
        <time>2020-06-15T08:39:29Z</time>
      </trkpt>
      <trkpt lat="49.66507" lon="-1.498">
        <ele>20.4</ele>
        <time>2020-06-15T08:39:30Z</time>
      </trkpt>
      <trkpt lat="49.66509" lon="-1.49795">
        <ele>20.5</ele>
        <time>2020-06-15T08:39:31Z</time>
      </trkpt>
      <trkpt lat="49.66509" lon="-1.4979">
        <ele>20.5</ele>
        <time>2020-06-15T08:39:32Z</time>
      </trkpt>
      <trkpt lat="49.6651" lon="-1.49784">
        <ele>20.6</ele>
        <time>2020-06-15T08:39:33Z</time>
      </trkpt>
      <trkpt lat="49.66512" lon="-1.49778">
        <ele>20.7</ele>
        <time>2020-06-15T08:39:34Z</time>
      </trkpt>
      <trkpt lat="49.66514" lon="-1.49772">
        <ele>20.7</ele>
        <time>2020-06-15T08:39:35Z</time>
      </trkpt>
      <trkpt lat="49.66515" lon="-1.49766">
        <ele>20.8</ele>
        <time>2020-06-15T08:39:36Z</time>
      </trkpt>
      <trkpt lat="49.66518" lon="-1.49761">
        <ele>20.8</ele>
        <time>2020-06-15T08:39:37Z</time>
      </trkpt>
      <trkpt lat="49.6652" lon="-1.49755">
        <ele>20.9</ele>
        <time>2020-06-15T08:39:38Z</time>
      </trkpt>
      <trkpt lat="49.66522" lon="-1.4975">
        <ele>20.9</ele>
        <time>2020-06-15T08:39:39Z</time>
      </trkpt>
      <trkpt lat="49.66525" lon="-1.49744">
        <ele>20.9</ele>
        <time>2020-06-15T08:39:40Z</time>
      </trkpt>
      <trkpt lat="49.66527" lon="-1.49739">
        <ele>21</ele>
        <time>2020-06-15T08:39:41Z</time>
      </trkpt>
      <trkpt lat="49.6653" lon="-1.49734">
        <ele>21</ele>
        <time>2020-06-15T08:39:42Z</time>
      </trkpt>
      <trkpt lat="49.66532" lon="-1.49729">
        <ele>21</ele>
        <time>2020-06-15T08:39:43Z</time>
      </trkpt>
      <trkpt lat="49.66534" lon="-1.49723">
        <ele>21</ele>
        <time>2020-06-15T08:39:44Z</time>
      </trkpt>
      <trkpt lat="49.66536" lon="-1.49717">
        <ele>21</ele>
        <time>2020-06-15T08:39:45Z</time>
      </trkpt>
      <trkpt lat="49.66539" lon="-1.49712">
        <ele>21</ele>
        <time>2020-06-15T08:39:46Z</time>
      </trkpt>
      <trkpt lat="49.66543" lon="-1.49708">
        <ele>21</ele>
        <time>2020-06-15T08:39:47Z</time>
      </trkpt>
      <trkpt lat="49.66546" lon="-1.49704">
        <ele>21</ele>
        <time>2020-06-15T08:39:48Z</time>
      </trkpt>
      <trkpt lat="49.66548" lon="-1.49699">
        <ele>21</ele>
        <time>2020-06-15T08:39:49Z</time>
      </trkpt>
      <trkpt lat="49.6655" lon="-1.49693">
        <ele>21</ele>
        <time>2020-06-15T08:39:50Z</time>
      </trkpt>
      <trkpt lat="49.66553" lon="-1.49687">
        <ele>21</ele>
        <time>2020-06-15T08:39:51Z</time>
      </trkpt>
      <trkpt lat="49.66556" lon="-1.49682">
        <ele>20.9</ele>
        <time>2020-06-15T08:39:52Z</time>
      </trkpt>
      <trkpt lat="49.6656" lon="-1.49677">
        <ele>20.9</ele>
        <time>2020-06-15T08:39:53Z</time>
      </trkpt>
      <trkpt lat="49.66562" lon="-1.49672">
        <ele>20.9</ele>
        <time>2020-06-15T08:39:54Z</time>
      </trkpt>
      <trkpt lat="49.66565" lon="-1.49666">
        <ele>20.9</ele>
        <time>2020-06-15T08:39:55Z</time>
      </trkpt>
      <trkpt lat="49.66569" lon="-1.4966">
        <ele>20.8</ele>
        <time>2020-06-15T08:39:56Z</time>
      </trkpt>
      <trkpt lat="49.66572" lon="-1.49655">
        <ele>20.8</ele>
        <time>2020-06-15T08:39:57Z</time>
      </trkpt>
      <trkpt lat="49.66576" lon="-1.4965">
        <ele>20.8</ele>
        <time>2020-06-15T08:39:58Z</time>
      </trkpt>
      <trkpt lat="49.66579" lon="-1.49645">
        <ele>20.8</ele>
        <time>2020-06-15T08:39:59Z</time>
      </trkpt>
      <trkpt lat="49.66582" lon="-1.49641">
        <ele>20.8</ele>
        <time>2020-06-15T08:40:00Z</time>
      </trkpt>
      <trkpt lat="49.66585" lon="-1.49637">
        <ele>20.6</ele>
        <time>2020-06-15T08:40:01Z</time>
      </trkpt>
      <trkpt lat="49.66588" lon="-1.49632">
        <ele>20.5</ele>
        <time>2020-06-15T08:40:02Z</time>
      </trkpt>
      <trkpt lat="49.66591" lon="-1.49627">
        <ele>20.4</ele>
        <time>2020-06-15T08:40:03Z</time>
      </trkpt>
      <trkpt lat="49.66595" lon="-1.49623">
        <ele>20.3</ele>
        <time>2020-06-15T08:40:04Z</time>
      </trkpt>
      <trkpt lat="49.66598" lon="-1.49618">
        <ele>20.3</ele>
        <time>2020-06-15T08:40:05Z</time>
      </trkpt>
      <trkpt lat="49.66603" lon="-1.49615">
        <ele>20.2</ele>
        <time>2020-06-15T08:40:06Z</time>
      </trkpt>
      <trkpt lat="49.66607" lon="-1.49609">
        <ele>20.1</ele>
        <time>2020-06-15T08:40:07Z</time>
      </trkpt>
      <trkpt lat="49.66612" lon="-1.49604">
        <ele>20.1</ele>
        <time>2020-06-15T08:40:08Z</time>
      </trkpt>
      <trkpt lat="49.66617" lon="-1.49599">
        <ele>20</ele>
        <time>2020-06-15T08:40:09Z</time>
      </trkpt>
      <trkpt lat="49.66621" lon="-1.49594">
        <ele>20</ele>
        <time>2020-06-15T08:40:10Z</time>
      </trkpt>
      <trkpt lat="49.66626" lon="-1.4959">
        <ele>20</ele>
        <time>2020-06-15T08:40:11Z</time>
      </trkpt>
      <trkpt lat="49.66631" lon="-1.49587">
        <ele>19.9</ele>
        <time>2020-06-15T08:40:12Z</time>
      </trkpt>
      <trkpt lat="49.66634" lon="-1.49584">
        <ele>19.9</ele>
        <time>2020-06-15T08:40:13Z</time>
      </trkpt>
      <trkpt lat="49.66639" lon="-1.4958">
        <ele>19.8</ele>
        <time>2020-06-15T08:40:14Z</time>
      </trkpt>
      <trkpt lat="49.66643" lon="-1.49577">
        <ele>19.8</ele>
        <time>2020-06-15T08:40:15Z</time>
      </trkpt>
      <trkpt lat="49.66648" lon="-1.49574">
        <ele>19.7</ele>
        <time>2020-06-15T08:40:16Z</time>
      </trkpt>
      <trkpt lat="49.66651" lon="-1.49571">
        <ele>19.6</ele>
        <time>2020-06-15T08:40:17Z</time>
      </trkpt>
      <trkpt lat="49.66656" lon="-1.49566">
        <ele>19.5</ele>
        <time>2020-06-15T08:40:18Z</time>
      </trkpt>
      <trkpt lat="49.66661" lon="-1.49562">
        <ele>19.4</ele>
        <time>2020-06-15T08:40:19Z</time>
      </trkpt>
      <trkpt lat="49.66666" lon="-1.49559">
        <ele>19.4</ele>
        <time>2020-06-15T08:40:20Z</time>
      </trkpt>
      <trkpt lat="49.66671" lon="-1.49556">
        <ele>19.3</ele>
        <time>2020-06-15T08:40:21Z</time>
      </trkpt>
      <trkpt lat="49.66677" lon="-1.49555">
        <ele>19.2</ele>
        <time>2020-06-15T08:40:22Z</time>
      </trkpt>
      <trkpt lat="49.66682" lon="-1.49553">
        <ele>19.2</ele>
        <time>2020-06-15T08:40:23Z</time>
      </trkpt>
      <trkpt lat="49.66687" lon="-1.4955">
        <ele>19.1</ele>
        <time>2020-06-15T08:40:24Z</time>
      </trkpt>
      <trkpt lat="49.66692" lon="-1.49548">
        <ele>19</ele>
        <time>2020-06-15T08:40:25Z</time>
      </trkpt>
      <trkpt lat="49.66697" lon="-1.49546">
        <ele>19</ele>
        <time>2020-06-15T08:40:26Z</time>
      </trkpt>
      <trkpt lat="49.66703" lon="-1.49544">
        <ele>19</ele>
        <time>2020-06-15T08:40:27Z</time>
      </trkpt>
      <trkpt lat="49.66709" lon="-1.49542">
        <ele>19</ele>
        <time>2020-06-15T08:40:28Z</time>
      </trkpt>
      <trkpt lat="49.66714" lon="-1.49541">
        <ele>19</ele>
        <time>2020-06-15T08:40:29Z</time>
      </trkpt>
      <trkpt lat="49.6672" lon="-1.49539">
        <ele>19</ele>
        <time>2020-06-15T08:40:30Z</time>
      </trkpt>
      <trkpt lat="49.66725" lon="-1.49537">
        <ele>19</ele>
        <time>2020-06-15T08:40:31Z</time>
      </trkpt>
      <trkpt lat="49.6673" lon="-1.49536">
        <ele>19</ele>
        <time>2020-06-15T08:40:32Z</time>
      </trkpt>
      <trkpt lat="49.66735" lon="-1.49535">
        <ele>18.9</ele>
        <time>2020-06-15T08:40:33Z</time>
      </trkpt>
      <trkpt lat="49.66739" lon="-1.49533">
        <ele>18.9</ele>
        <time>2020-06-15T08:40:34Z</time>
      </trkpt>
      <trkpt lat="49.66743" lon="-1.49531">
        <ele>18.9</ele>
        <time>2020-06-15T08:40:35Z</time>
      </trkpt>
      <trkpt lat="49.66747" lon="-1.49528">
        <ele>18.9</ele>
        <time>2020-06-15T08:40:36Z</time>
      </trkpt>
      <trkpt lat="49.6675" lon="-1.49527">
        <ele>18.9</ele>
        <time>2020-06-15T08:40:37Z</time>
      </trkpt>
      <trkpt lat="49.66755" lon="-1.49525">
        <ele>18.9</ele>
        <time>2020-06-15T08:40:38Z</time>
      </trkpt>
      <trkpt lat="49.66759" lon="-1.49523">
        <ele>18.9</ele>
        <time>2020-06-15T08:40:39Z</time>
      </trkpt>
      <trkpt lat="49.66764" lon="-1.49521">
        <ele>18.9</ele>
        <time>2020-06-15T08:40:40Z</time>
      </trkpt>
      <trkpt lat="49.66768" lon="-1.49519">
        <ele>18.9</ele>
        <time>2020-06-15T08:40:41Z</time>
      </trkpt>
      <trkpt lat="49.66773" lon="-1.49517">
        <ele>18.9</ele>
        <time>2020-06-15T08:40:42Z</time>
      </trkpt>
      <trkpt lat="49.66778" lon="-1.49514">
        <ele>18.9</ele>
        <time>2020-06-15T08:40:43Z</time>
      </trkpt>
      <trkpt lat="49.66782" lon="-1.4951">
        <ele>18.9</ele>
        <time>2020-06-15T08:40:44Z</time>
      </trkpt>
      <trkpt lat="49.66787" lon="-1.49505">
        <ele>18.9</ele>
        <time>2020-06-15T08:40:45Z</time>
      </trkpt>
      <trkpt lat="49.66791" lon="-1.49501">
        <ele>19</ele>
        <time>2020-06-15T08:40:46Z</time>
      </trkpt>
      <trkpt lat="49.66796" lon="-1.49496">
        <ele>19</ele>
        <time>2020-06-15T08:40:47Z</time>
      </trkpt>
      <trkpt lat="49.668" lon="-1.49491">
        <ele>19</ele>
        <time>2020-06-15T08:40:48Z</time>
      </trkpt>
      <trkpt lat="49.66805" lon="-1.49484">
        <ele>19</ele>
        <time>2020-06-15T08:40:49Z</time>
      </trkpt>
      <trkpt lat="49.6681" lon="-1.49479">
        <ele>19</ele>
        <time>2020-06-15T08:40:50Z</time>
      </trkpt>
      <trkpt lat="49.66813" lon="-1.49474">
        <ele>18.9</ele>
        <time>2020-06-15T08:40:51Z</time>
      </trkpt>
      <trkpt lat="49.66816" lon="-1.49467">
        <ele>18.9</ele>
        <time>2020-06-15T08:40:52Z</time>
      </trkpt>
      <trkpt lat="49.66819" lon="-1.49461">
        <ele>18.9</ele>
        <time>2020-06-15T08:40:53Z</time>
      </trkpt>
      <trkpt lat="49.66822" lon="-1.49454">
        <ele>18.9</ele>
        <time>2020-06-15T08:40:54Z</time>
      </trkpt>
      <trkpt lat="49.66825" lon="-1.49447">
        <ele>18.9</ele>
        <time>2020-06-15T08:40:55Z</time>
      </trkpt>
      <trkpt lat="49.66829" lon="-1.49441">
        <ele>18.9</ele>
        <time>2020-06-15T08:40:56Z</time>
      </trkpt>
      <trkpt lat="49.66833" lon="-1.49434">
        <ele>18.9</ele>
        <time>2020-06-15T08:40:57Z</time>
      </trkpt>
      <trkpt lat="49.66835" lon="-1.49428">
        <ele>19</ele>
        <time>2020-06-15T08:40:58Z</time>
      </trkpt>
      <trkpt lat="49.66838" lon="-1.49421">
        <ele>19</ele>
        <time>2020-06-15T08:40:59Z</time>
      </trkpt>
      <trkpt lat="49.6684" lon="-1.49416">
        <ele>19</ele>
        <time>2020-06-15T08:41:00Z</time>
      </trkpt>
      <trkpt lat="49.66843" lon="-1.49411">
        <ele>19</ele>
        <time>2020-06-15T08:41:01Z</time>
      </trkpt>
      <trkpt lat="49.66846" lon="-1.49404">
        <ele>19</ele>
        <time>2020-06-15T08:41:02Z</time>
      </trkpt>
      <trkpt lat="49.66851" lon="-1.49397">
        <ele>18.9</ele>
        <time>2020-06-15T08:41:03Z</time>
      </trkpt>
      <trkpt lat="49.66854" lon="-1.49392">
        <ele>18.9</ele>
        <time>2020-06-15T08:41:04Z</time>
      </trkpt>
      <trkpt lat="49.66857" lon="-1.49385">
        <ele>18.9</ele>
        <time>2020-06-15T08:41:05Z</time>
      </trkpt>
      <trkpt lat="49.66859" lon="-1.49377">
        <ele>18.8</ele>
        <time>2020-06-15T08:41:06Z</time>
      </trkpt>
      <trkpt lat="49.66862" lon="-1.4937">
        <ele>18.8</ele>
        <time>2020-06-15T08:41:07Z</time>
      </trkpt>
      <trkpt lat="49.66864" lon="-1.49363">
        <ele>18.8</ele>
        <time>2020-06-15T08:41:08Z</time>
      </trkpt>
      <trkpt lat="49.66867" lon="-1.49356">
        <ele>18.8</ele>
        <time>2020-06-15T08:41:09Z</time>
      </trkpt>
      <trkpt lat="49.6687" lon="-1.4935">
        <ele>18.8</ele>
        <time>2020-06-15T08:41:10Z</time>
      </trkpt>
      <trkpt lat="49.66871" lon="-1.49344">
        <ele>18.9</ele>
        <time>2020-06-15T08:41:11Z</time>
      </trkpt>
      <trkpt lat="49.66873" lon="-1.49338">
        <ele>18.9</ele>
        <time>2020-06-15T08:41:12Z</time>
      </trkpt>
      <trkpt lat="49.66874" lon="-1.49332">
        <ele>18.9</ele>
        <time>2020-06-15T08:41:13Z</time>
      </trkpt>
      <trkpt lat="49.66876" lon="-1.49325">
        <ele>19</ele>
        <time>2020-06-15T08:41:14Z</time>
      </trkpt>
      <trkpt lat="49.66879" lon="-1.49318">
        <ele>19</ele>
        <time>2020-06-15T08:41:15Z</time>
      </trkpt>
      <trkpt lat="49.66883" lon="-1.4931">
        <ele>19.1</ele>
        <time>2020-06-15T08:41:16Z</time>
      </trkpt>
      <trkpt lat="49.66886" lon="-1.49302">
        <ele>19.1</ele>
        <time>2020-06-15T08:41:17Z</time>
      </trkpt>
      <trkpt lat="49.66888" lon="-1.49296">
        <ele>19.2</ele>
        <time>2020-06-15T08:41:18Z</time>
      </trkpt>
      <trkpt lat="49.6689" lon="-1.49289">
        <ele>19.2</ele>
        <time>2020-06-15T08:41:19Z</time>
      </trkpt>
      <trkpt lat="49.66893" lon="-1.49281">
        <ele>19.3</ele>
        <time>2020-06-15T08:41:20Z</time>
      </trkpt>
      <trkpt lat="49.66895" lon="-1.49274">
        <ele>19.3</ele>
        <time>2020-06-15T08:41:21Z</time>
      </trkpt>
      <trkpt lat="49.66896" lon="-1.49267">
        <ele>19.3</ele>
        <time>2020-06-15T08:41:22Z</time>
      </trkpt>
      <trkpt lat="49.66898" lon="-1.49259">
        <ele>19.3</ele>
        <time>2020-06-15T08:41:23Z</time>
      </trkpt>
      <trkpt lat="49.66899" lon="-1.49251">
        <ele>19.3</ele>
        <time>2020-06-15T08:41:24Z</time>
      </trkpt>
      <trkpt lat="49.669" lon="-1.49243">
        <ele>19.3</ele>
        <time>2020-06-15T08:41:25Z</time>
      </trkpt>
      <trkpt lat="49.669" lon="-1.49235">
        <ele>19.4</ele>
        <time>2020-06-15T08:41:26Z</time>
      </trkpt>
      <trkpt lat="49.669" lon="-1.49227">
        <ele>19.4</ele>
        <time>2020-06-15T08:41:27Z</time>
      </trkpt>
      <trkpt lat="49.669" lon="-1.4922">
        <ele>19.4</ele>
        <time>2020-06-15T08:41:28Z</time>
      </trkpt>
      <trkpt lat="49.66899" lon="-1.49212">
        <ele>19.4</ele>
        <time>2020-06-15T08:41:29Z</time>
      </trkpt>
      <trkpt lat="49.669" lon="-1.49203">
        <ele>19.4</ele>
        <time>2020-06-15T08:41:30Z</time>
      </trkpt>
      <trkpt lat="49.669" lon="-1.49197">
        <ele>19.4</ele>
        <time>2020-06-15T08:41:31Z</time>
      </trkpt>
      <trkpt lat="49.669" lon="-1.4919">
        <ele>19.4</ele>
        <time>2020-06-15T08:41:32Z</time>
      </trkpt>
      <trkpt lat="49.66899" lon="-1.49182">
        <ele>19.4</ele>
        <time>2020-06-15T08:41:33Z</time>
      </trkpt>
      <trkpt lat="49.66899" lon="-1.49174">
        <ele>19.4</ele>
        <time>2020-06-15T08:41:34Z</time>
      </trkpt>
      <trkpt lat="49.66898" lon="-1.49166">
        <ele>19.3</ele>
        <time>2020-06-15T08:41:35Z</time>
      </trkpt>
      <trkpt lat="49.66897" lon="-1.49158">
        <ele>19.3</ele>
        <time>2020-06-15T08:41:36Z</time>
      </trkpt>
      <trkpt lat="49.66897" lon="-1.4915">
        <ele>19.2</ele>
        <time>2020-06-15T08:41:37Z</time>
      </trkpt>
      <trkpt lat="49.66896" lon="-1.49142">
        <ele>19.2</ele>
        <time>2020-06-15T08:41:38Z</time>
      </trkpt>
      <trkpt lat="49.66896" lon="-1.49135">
        <ele>19.1</ele>
        <time>2020-06-15T08:41:39Z</time>
      </trkpt>
      <trkpt lat="49.66895" lon="-1.49128">
        <ele>19.1</ele>
        <time>2020-06-15T08:41:40Z</time>
      </trkpt>
      <trkpt lat="49.66894" lon="-1.49121">
        <ele>19</ele>
        <time>2020-06-15T08:41:41Z</time>
      </trkpt>
      <trkpt lat="49.66894" lon="-1.49114">
        <ele>19</ele>
        <time>2020-06-15T08:41:42Z</time>
      </trkpt>
      <trkpt lat="49.66892" lon="-1.49105">
        <ele>18.9</ele>
        <time>2020-06-15T08:41:43Z</time>
      </trkpt>
      <trkpt lat="49.66891" lon="-1.49097">
        <ele>18.9</ele>
        <time>2020-06-15T08:41:44Z</time>
      </trkpt>
      <trkpt lat="49.6689" lon="-1.49089">
        <ele>18.8</ele>
        <time>2020-06-15T08:41:45Z</time>
      </trkpt>
      <trkpt lat="49.66888" lon="-1.49082">
        <ele>18.8</ele>
        <time>2020-06-15T08:41:46Z</time>
      </trkpt>
      <trkpt lat="49.66886" lon="-1.49074">
        <ele>18.8</ele>
        <time>2020-06-15T08:41:47Z</time>
      </trkpt>
      <trkpt lat="49.66883" lon="-1.49065">
        <ele>18.8</ele>
        <time>2020-06-15T08:41:48Z</time>
      </trkpt>
      <trkpt lat="49.6688" lon="-1.49058">
        <ele>18.8</ele>
        <time>2020-06-15T08:41:49Z</time>
      </trkpt>
      <trkpt lat="49.66877" lon="-1.4905">
        <ele>18.8</ele>
        <time>2020-06-15T08:41:50Z</time>
      </trkpt>
      <trkpt lat="49.66873" lon="-1.49043">
        <ele>18.8</ele>
        <time>2020-06-15T08:41:51Z</time>
      </trkpt>
      <trkpt lat="49.66869" lon="-1.49037">
        <ele>18.9</ele>
        <time>2020-06-15T08:41:52Z</time>
      </trkpt>
      <trkpt lat="49.66865" lon="-1.4903">
        <ele>18.9</ele>
        <time>2020-06-15T08:41:53Z</time>
      </trkpt>
      <trkpt lat="49.6686" lon="-1.49023">
        <ele>18.9</ele>
        <time>2020-06-15T08:41:54Z</time>
      </trkpt>
      <trkpt lat="49.66855" lon="-1.49016">
        <ele>18.8</ele>
        <time>2020-06-15T08:41:55Z</time>
      </trkpt>
      <trkpt lat="49.66851" lon="-1.4901">
        <ele>18.8</ele>
        <time>2020-06-15T08:41:56Z</time>
      </trkpt>
      <trkpt lat="49.66847" lon="-1.49003">
        <ele>18.8</ele>
        <time>2020-06-15T08:41:57Z</time>
      </trkpt>
      <trkpt lat="49.66843" lon="-1.48997">
        <ele>18.8</ele>
        <time>2020-06-15T08:41:58Z</time>
      </trkpt>
      <trkpt lat="49.66839" lon="-1.48991">
        <ele>18.8</ele>
        <time>2020-06-15T08:41:59Z</time>
      </trkpt>
      <trkpt lat="49.66836" lon="-1.48984">
        <ele>18.8</ele>
        <time>2020-06-15T08:42:00Z</time>
      </trkpt>
      <trkpt lat="49.66832" lon="-1.48978">
        <ele>18.8</ele>
        <time>2020-06-15T08:42:01Z</time>
      </trkpt>
      <trkpt lat="49.66827" lon="-1.48971">
        <ele>18.8</ele>
        <time>2020-06-15T08:42:02Z</time>
      </trkpt>
      <trkpt lat="49.66822" lon="-1.48965">
        <ele>18.8</ele>
        <time>2020-06-15T08:42:03Z</time>
      </trkpt>
      <trkpt lat="49.66819" lon="-1.48958">
        <ele>18.8</ele>
        <time>2020-06-15T08:42:04Z</time>
      </trkpt>
      <trkpt lat="49.66814" lon="-1.48951">
        <ele>18.8</ele>
        <time>2020-06-15T08:42:05Z</time>
      </trkpt>
      <trkpt lat="49.66811" lon="-1.48944">
        <ele>18.8</ele>
        <time>2020-06-15T08:42:06Z</time>
      </trkpt>
      <trkpt lat="49.66807" lon="-1.48937">
        <ele>18.9</ele>
        <time>2020-06-15T08:42:07Z</time>
      </trkpt>
      <trkpt lat="49.66803" lon="-1.48931">
        <ele>18.9</ele>
        <time>2020-06-15T08:42:08Z</time>
      </trkpt>
      <trkpt lat="49.668" lon="-1.48925">
        <ele>18.9</ele>
        <time>2020-06-15T08:42:09Z</time>
      </trkpt>
      <trkpt lat="49.66795" lon="-1.48918">
        <ele>19</ele>
        <time>2020-06-15T08:42:10Z</time>
      </trkpt>
      <trkpt lat="49.66792" lon="-1.48914">
        <ele>19</ele>
        <time>2020-06-15T08:42:11Z</time>
      </trkpt>
      <trkpt lat="49.66788" lon="-1.48908">
        <ele>19</ele>
        <time>2020-06-15T08:42:12Z</time>
      </trkpt>
      <trkpt lat="49.66785" lon="-1.48899">
        <ele>19.1</ele>
        <time>2020-06-15T08:42:13Z</time>
      </trkpt>
      <trkpt lat="49.66783" lon="-1.48892">
        <ele>19.1</ele>
        <time>2020-06-15T08:42:14Z</time>
      </trkpt>
      <trkpt lat="49.6678" lon="-1.48886">
        <ele>19.2</ele>
        <time>2020-06-15T08:42:15Z</time>
      </trkpt>
      <trkpt lat="49.66778" lon="-1.48879">
        <ele>19.3</ele>
        <time>2020-06-15T08:42:16Z</time>
      </trkpt>
      <trkpt lat="49.66775" lon="-1.48873">
        <ele>19.4</ele>
        <time>2020-06-15T08:42:17Z</time>
      </trkpt>
      <trkpt lat="49.66773" lon="-1.48867">
        <ele>19.5</ele>
        <time>2020-06-15T08:42:18Z</time>
      </trkpt>
      <trkpt lat="49.66771" lon="-1.48863">
        <ele>19.6</ele>
        <time>2020-06-15T08:42:19Z</time>
      </trkpt>
      <trkpt lat="49.6677" lon="-1.48858">
        <ele>19.5</ele>
        <time>2020-06-15T08:42:20Z</time>
      </trkpt>
      <trkpt lat="49.66769" lon="-1.48854">
        <ele>19.5</ele>
        <time>2020-06-15T08:42:21Z</time>
      </trkpt>
      <trkpt lat="49.66768" lon="-1.48849">
        <ele>19.5</ele>
        <time>2020-06-15T08:42:22Z</time>
      </trkpt>
      <trkpt lat="49.66768" lon="-1.48842">
        <ele>19.4</ele>
        <time>2020-06-15T08:42:23Z</time>
      </trkpt>
      <trkpt lat="49.66766" lon="-1.48835">
        <ele>19.4</ele>
        <time>2020-06-15T08:42:24Z</time>
      </trkpt>
      <trkpt lat="49.66765" lon="-1.48831">
        <ele>19.4</ele>
        <time>2020-06-15T08:42:25Z</time>
      </trkpt>
      <trkpt lat="49.66762" lon="-1.48826">
        <ele>19.3</ele>
        <time>2020-06-15T08:42:26Z</time>
      </trkpt>
      <trkpt lat="49.6676" lon="-1.48821">
        <ele>19.3</ele>
        <time>2020-06-15T08:42:27Z</time>
      </trkpt>
      <trkpt lat="49.6676" lon="-1.48817">
        <ele>19.3</ele>
        <time>2020-06-15T08:42:28Z</time>
      </trkpt>
      <trkpt lat="49.6676" lon="-1.4881">
        <ele>19.4</ele>
        <time>2020-06-15T08:42:29Z</time>
      </trkpt>
      <trkpt lat="49.66759" lon="-1.48803">
        <ele>19.5</ele>
        <time>2020-06-15T08:42:30Z</time>
      </trkpt>
      <trkpt lat="49.66759" lon="-1.48795">
        <ele>19.6</ele>
        <time>2020-06-15T08:42:31Z</time>
      </trkpt>
      <trkpt lat="49.66758" lon="-1.48789">
        <ele>19.7</ele>
        <time>2020-06-15T08:42:32Z</time>
      </trkpt>
      <trkpt lat="49.66757" lon="-1.48781">
        <ele>19.7</ele>
        <time>2020-06-15T08:42:33Z</time>
      </trkpt>
      <trkpt lat="49.66757" lon="-1.48775">
        <ele>19.8</ele>
        <time>2020-06-15T08:42:34Z</time>
      </trkpt>
      <trkpt lat="49.66756" lon="-1.48767">
        <ele>19.8</ele>
        <time>2020-06-15T08:42:35Z</time>
      </trkpt>
      <trkpt lat="49.66756" lon="-1.48761">
        <ele>19.8</ele>
        <time>2020-06-15T08:42:36Z</time>
      </trkpt>
      <trkpt lat="49.66756" lon="-1.48754">
        <ele>19.8</ele>
        <time>2020-06-15T08:42:37Z</time>
      </trkpt>
      <trkpt lat="49.66755" lon="-1.48747">
        <ele>19.8</ele>
        <time>2020-06-15T08:42:38Z</time>
      </trkpt>
      <trkpt lat="49.66755" lon="-1.48741">
        <ele>19.8</ele>
        <time>2020-06-15T08:42:39Z</time>
      </trkpt>
      <trkpt lat="49.66755" lon="-1.48735">
        <ele>19.8</ele>
        <time>2020-06-15T08:42:40Z</time>
      </trkpt>
      <trkpt lat="49.66755" lon="-1.48728">
        <ele>19.8</ele>
        <time>2020-06-15T08:42:41Z</time>
      </trkpt>
      <trkpt lat="49.66757" lon="-1.48719">
        <ele>19.7</ele>
        <time>2020-06-15T08:42:42Z</time>
      </trkpt>
      <trkpt lat="49.66759" lon="-1.4871">
        <ele>19.7</ele>
        <time>2020-06-15T08:42:43Z</time>
      </trkpt>
      <trkpt lat="49.6676" lon="-1.48701">
        <ele>19.6</ele>
        <time>2020-06-15T08:42:44Z</time>
      </trkpt>
      <trkpt lat="49.66761" lon="-1.48694">
        <ele>19.5</ele>
        <time>2020-06-15T08:42:45Z</time>
      </trkpt>
      <trkpt lat="49.66761" lon="-1.48685">
        <ele>19.5</ele>
        <time>2020-06-15T08:42:46Z</time>
      </trkpt>
      <trkpt lat="49.66761" lon="-1.48677">
        <ele>19.4</ele>
        <time>2020-06-15T08:42:47Z</time>
      </trkpt>
      <trkpt lat="49.6676" lon="-1.48668">
        <ele>19.3</ele>
        <time>2020-06-15T08:42:48Z</time>
      </trkpt>
      <trkpt lat="49.66761" lon="-1.48661">
        <ele>19.3</ele>
        <time>2020-06-15T08:42:49Z</time>
      </trkpt>
      <trkpt lat="49.66762" lon="-1.48654">
        <ele>19.2</ele>
        <time>2020-06-15T08:42:50Z</time>
      </trkpt>
      <trkpt lat="49.66765" lon="-1.48646">
        <ele>19.2</ele>
        <time>2020-06-15T08:42:51Z</time>
      </trkpt>
      <trkpt lat="49.66767" lon="-1.48638">
        <ele>19.1</ele>
        <time>2020-06-15T08:42:52Z</time>
      </trkpt>
      <trkpt lat="49.66769" lon="-1.4863">
        <ele>19</ele>
        <time>2020-06-15T08:42:53Z</time>
      </trkpt>
      <trkpt lat="49.66772" lon="-1.48621">
        <ele>19</ele>
        <time>2020-06-15T08:42:54Z</time>
      </trkpt>
      <trkpt lat="49.66775" lon="-1.48613">
        <ele>18.9</ele>
        <time>2020-06-15T08:42:55Z</time>
      </trkpt>
      <trkpt lat="49.66777" lon="-1.48606">
        <ele>18.8</ele>
        <time>2020-06-15T08:42:56Z</time>
      </trkpt>
      <trkpt lat="49.66781" lon="-1.48598">
        <ele>18.7</ele>
        <time>2020-06-15T08:42:57Z</time>
      </trkpt>
      <trkpt lat="49.66785" lon="-1.4859">
        <ele>18.6</ele>
        <time>2020-06-15T08:42:58Z</time>
      </trkpt>
      <trkpt lat="49.66788" lon="-1.48582">
        <ele>18.5</ele>
        <time>2020-06-15T08:42:59Z</time>
      </trkpt>
      <trkpt lat="49.66792" lon="-1.48575">
        <ele>18.4</ele>
        <time>2020-06-15T08:43:00Z</time>
      </trkpt>
      <trkpt lat="49.66796" lon="-1.48568">
        <ele>18.3</ele>
        <time>2020-06-15T08:43:01Z</time>
      </trkpt>
      <trkpt lat="49.66801" lon="-1.48562">
        <ele>18.2</ele>
        <time>2020-06-15T08:43:02Z</time>
      </trkpt>
      <trkpt lat="49.66806" lon="-1.48556">
        <ele>18</ele>
        <time>2020-06-15T08:43:03Z</time>
      </trkpt>
      <trkpt lat="49.66811" lon="-1.48551">
        <ele>17.8</ele>
        <time>2020-06-15T08:43:04Z</time>
      </trkpt>
      <trkpt lat="49.66816" lon="-1.48544">
        <ele>17.7</ele>
        <time>2020-06-15T08:43:05Z</time>
      </trkpt>
      <trkpt lat="49.66819" lon="-1.48537">
        <ele>17.6</ele>
        <time>2020-06-15T08:43:06Z</time>
      </trkpt>
      <trkpt lat="49.66823" lon="-1.4853">
        <ele>17.5</ele>
        <time>2020-06-15T08:43:07Z</time>
      </trkpt>
      <trkpt lat="49.66827" lon="-1.48524">
        <ele>17.5</ele>
        <time>2020-06-15T08:43:08Z</time>
      </trkpt>
      <trkpt lat="49.66832" lon="-1.48519">
        <ele>17.5</ele>
        <time>2020-06-15T08:43:09Z</time>
      </trkpt>
      <trkpt lat="49.66837" lon="-1.48513">
        <ele>17.4</ele>
        <time>2020-06-15T08:43:10Z</time>
      </trkpt>
      <trkpt lat="49.66842" lon="-1.48509">
        <ele>17.4</ele>
        <time>2020-06-15T08:43:11Z</time>
      </trkpt>
      <trkpt lat="49.66848" lon="-1.48504">
        <ele>17.3</ele>
        <time>2020-06-15T08:43:12Z</time>
      </trkpt>
      <trkpt lat="49.66853" lon="-1.485">
        <ele>17.3</ele>
        <time>2020-06-15T08:43:13Z</time>
      </trkpt>
      <trkpt lat="49.66859" lon="-1.48496">
        <ele>17.3</ele>
        <time>2020-06-15T08:43:14Z</time>
      </trkpt>
      <trkpt lat="49.66865" lon="-1.48491">
        <ele>17.3</ele>
        <time>2020-06-15T08:43:15Z</time>
      </trkpt>
      <trkpt lat="49.66871" lon="-1.48488">
        <ele>17.4</ele>
        <time>2020-06-15T08:43:16Z</time>
      </trkpt>
      <trkpt lat="49.66877" lon="-1.48485">
        <ele>17.4</ele>
        <time>2020-06-15T08:43:17Z</time>
      </trkpt>
      <trkpt lat="49.66883" lon="-1.48481">
        <ele>17.4</ele>
        <time>2020-06-15T08:43:18Z</time>
      </trkpt>
      <trkpt lat="49.66889" lon="-1.48479">
        <ele>17.5</ele>
        <time>2020-06-15T08:43:19Z</time>
      </trkpt>
      <trkpt lat="49.66895" lon="-1.48477">
        <ele>17.5</ele>
        <time>2020-06-15T08:43:20Z</time>
      </trkpt>
      <trkpt lat="49.66901" lon="-1.48475">
        <ele>17.6</ele>
        <time>2020-06-15T08:43:21Z</time>
      </trkpt>
      <trkpt lat="49.66907" lon="-1.48473">
        <ele>17.6</ele>
        <time>2020-06-15T08:43:22Z</time>
      </trkpt>
      <trkpt lat="49.66912" lon="-1.48472">
        <ele>17.7</ele>
        <time>2020-06-15T08:43:23Z</time>
      </trkpt>
      <trkpt lat="49.66918" lon="-1.48473">
        <ele>17.7</ele>
        <time>2020-06-15T08:43:24Z</time>
      </trkpt>
      <trkpt lat="49.66924" lon="-1.48472">
        <ele>17.8</ele>
        <time>2020-06-15T08:43:25Z</time>
      </trkpt>
      <trkpt lat="49.6693" lon="-1.48471">
        <ele>17.8</ele>
        <time>2020-06-15T08:43:26Z</time>
      </trkpt>
      <trkpt lat="49.66936" lon="-1.4847">
        <ele>17.9</ele>
        <time>2020-06-15T08:43:27Z</time>
      </trkpt>
      <trkpt lat="49.66941" lon="-1.48471">
        <ele>18</ele>
        <time>2020-06-15T08:43:28Z</time>
      </trkpt>
      <trkpt lat="49.66947" lon="-1.48472">
        <ele>18</ele>
        <time>2020-06-15T08:43:29Z</time>
      </trkpt>
      <trkpt lat="49.66952" lon="-1.48472">
        <ele>18.1</ele>
        <time>2020-06-15T08:43:30Z</time>
      </trkpt>
      <trkpt lat="49.66957" lon="-1.48473">
        <ele>18.1</ele>
        <time>2020-06-15T08:43:31Z</time>
      </trkpt>
      <trkpt lat="49.66963" lon="-1.48474">
        <ele>18.2</ele>
        <time>2020-06-15T08:43:32Z</time>
      </trkpt>
      <trkpt lat="49.66968" lon="-1.48475">
        <ele>18.3</ele>
        <time>2020-06-15T08:43:33Z</time>
      </trkpt>
      <trkpt lat="49.66974" lon="-1.48476">
        <ele>18.4</ele>
        <time>2020-06-15T08:43:34Z</time>
      </trkpt>
      <trkpt lat="49.66979" lon="-1.48477">
        <ele>18.5</ele>
        <time>2020-06-15T08:43:35Z</time>
      </trkpt>
      <trkpt lat="49.66983" lon="-1.48479">
        <ele>18.6</ele>
        <time>2020-06-15T08:43:36Z</time>
      </trkpt>
      <trkpt lat="49.66989" lon="-1.48482">
        <ele>18.6</ele>
        <time>2020-06-15T08:43:37Z</time>
      </trkpt>
      <trkpt lat="49.66993" lon="-1.48483">
        <ele>18.5</ele>
        <time>2020-06-15T08:43:38Z</time>
      </trkpt>
      <trkpt lat="49.66999" lon="-1.48486">
        <ele>18.5</ele>
        <time>2020-06-15T08:43:39Z</time>
      </trkpt>
      <trkpt lat="49.67004" lon="-1.48488">
        <ele>18.7</ele>
        <time>2020-06-15T08:43:40Z</time>
      </trkpt>
      <trkpt lat="49.67008" lon="-1.48491">
        <ele>18.9</ele>
        <time>2020-06-15T08:43:41Z</time>
      </trkpt>
      <trkpt lat="49.67014" lon="-1.48492">
        <ele>19.1</ele>
        <time>2020-06-15T08:43:42Z</time>
      </trkpt>
      <trkpt lat="49.67019" lon="-1.48495">
        <ele>19.2</ele>
        <time>2020-06-15T08:43:43Z</time>
      </trkpt>
      <trkpt lat="49.67024" lon="-1.48497">
        <ele>19.3</ele>
        <time>2020-06-15T08:43:44Z</time>
      </trkpt>
      <trkpt lat="49.67029" lon="-1.48498">
        <ele>19.4</ele>
        <time>2020-06-15T08:43:45Z</time>
      </trkpt>
      <trkpt lat="49.67034" lon="-1.485">
        <ele>19.5</ele>
        <time>2020-06-15T08:43:46Z</time>
      </trkpt>
      <trkpt lat="49.67039" lon="-1.485">
        <ele>19.6</ele>
        <time>2020-06-15T08:43:47Z</time>
      </trkpt>
      <trkpt lat="49.67045" lon="-1.48502">
        <ele>19.7</ele>
        <time>2020-06-15T08:43:48Z</time>
      </trkpt>
      <trkpt lat="49.67051" lon="-1.48503">
        <ele>19.8</ele>
        <time>2020-06-15T08:43:49Z</time>
      </trkpt>
      <trkpt lat="49.67056" lon="-1.48504">
        <ele>19.9</ele>
        <time>2020-06-15T08:43:50Z</time>
      </trkpt>
      <trkpt lat="49.67061" lon="-1.48505">
        <ele>19.9</ele>
        <time>2020-06-15T08:43:51Z</time>
      </trkpt>
      <trkpt lat="49.67067" lon="-1.48506">
        <ele>20</ele>
        <time>2020-06-15T08:43:52Z</time>
      </trkpt>
      <trkpt lat="49.67073" lon="-1.48508">
        <ele>20.1</ele>
        <time>2020-06-15T08:43:53Z</time>
      </trkpt>
      <trkpt lat="49.67078" lon="-1.4851">
        <ele>20.2</ele>
        <time>2020-06-15T08:43:54Z</time>
      </trkpt>
      <trkpt lat="49.67084" lon="-1.48511">
        <ele>20.3</ele>
        <time>2020-06-15T08:43:55Z</time>
      </trkpt>
      <trkpt lat="49.67089" lon="-1.48511">
        <ele>20.4</ele>
        <time>2020-06-15T08:43:56Z</time>
      </trkpt>
      <trkpt lat="49.67095" lon="-1.48511">
        <ele>20.5</ele>
        <time>2020-06-15T08:43:57Z</time>
      </trkpt>
      <trkpt lat="49.671" lon="-1.4851">
        <ele>20.5</ele>
        <time>2020-06-15T08:43:58Z</time>
      </trkpt>
      <trkpt lat="49.67105" lon="-1.48509">
        <ele>20.6</ele>
        <time>2020-06-15T08:43:59Z</time>
      </trkpt>
      <trkpt lat="49.67111" lon="-1.48509">
        <ele>20.7</ele>
        <time>2020-06-15T08:44:00Z</time>
      </trkpt>
      <trkpt lat="49.67116" lon="-1.48511">
        <ele>20.8</ele>
        <time>2020-06-15T08:44:01Z</time>
      </trkpt>
      <trkpt lat="49.67122" lon="-1.4851">
        <ele>20.9</ele>
        <time>2020-06-15T08:44:02Z</time>
      </trkpt>
      <trkpt lat="49.67126" lon="-1.4851">
        <ele>21</ele>
        <time>2020-06-15T08:44:03Z</time>
      </trkpt>
      <trkpt lat="49.67131" lon="-1.4851">
        <ele>21.1</ele>
        <time>2020-06-15T08:44:04Z</time>
      </trkpt>
      <trkpt lat="49.67136" lon="-1.48509">
        <ele>21.1</ele>
        <time>2020-06-15T08:44:05Z</time>
      </trkpt>
      <trkpt lat="49.67141" lon="-1.48509">
        <ele>21.2</ele>
        <time>2020-06-15T08:44:06Z</time>
      </trkpt>
      <trkpt lat="49.67146" lon="-1.4851">
        <ele>21.3</ele>
        <time>2020-06-15T08:44:07Z</time>
      </trkpt>
      <trkpt lat="49.67151" lon="-1.4851">
        <ele>21.3</ele>
        <time>2020-06-15T08:44:08Z</time>
      </trkpt>
      <trkpt lat="49.67156" lon="-1.48511">
        <ele>21.4</ele>
        <time>2020-06-15T08:44:09Z</time>
      </trkpt>
      <trkpt lat="49.67162" lon="-1.48511">
        <ele>21.5</ele>
        <time>2020-06-15T08:44:10Z</time>
      </trkpt>
      <trkpt lat="49.67168" lon="-1.48512">
        <ele>21.5</ele>
        <time>2020-06-15T08:44:11Z</time>
      </trkpt>
      <trkpt lat="49.67173" lon="-1.48513">
        <ele>21.6</ele>
        <time>2020-06-15T08:44:12Z</time>
      </trkpt>
      <trkpt lat="49.67179" lon="-1.48513">
        <ele>21.7</ele>
        <time>2020-06-15T08:44:13Z</time>
      </trkpt>
      <trkpt lat="49.67186" lon="-1.48511">
        <ele>21.7</ele>
        <time>2020-06-15T08:44:14Z</time>
      </trkpt>
      <trkpt lat="49.67192" lon="-1.4851">
        <ele>21.8</ele>
        <time>2020-06-15T08:44:15Z</time>
      </trkpt>
      <trkpt lat="49.67197" lon="-1.4851">
        <ele>22</ele>
        <time>2020-06-15T08:44:16Z</time>
      </trkpt>
      <trkpt lat="49.67202" lon="-1.48509">
        <ele>22.1</ele>
        <time>2020-06-15T08:44:17Z</time>
      </trkpt>
      <trkpt lat="49.67207" lon="-1.4851">
        <ele>22.2</ele>
        <time>2020-06-15T08:44:18Z</time>
      </trkpt>
      <trkpt lat="49.67212" lon="-1.48511">
        <ele>22.3</ele>
        <time>2020-06-15T08:44:19Z</time>
      </trkpt>
      <trkpt lat="49.67217" lon="-1.48511">
        <ele>22.5</ele>
        <time>2020-06-15T08:44:20Z</time>
      </trkpt>
      <trkpt lat="49.67223" lon="-1.48511">
        <ele>22.6</ele>
        <time>2020-06-15T08:44:21Z</time>
      </trkpt>
      <trkpt lat="49.67229" lon="-1.4851">
        <ele>22.7</ele>
        <time>2020-06-15T08:44:22Z</time>
      </trkpt>
      <trkpt lat="49.67234" lon="-1.48512">
        <ele>22.9</ele>
        <time>2020-06-15T08:44:23Z</time>
      </trkpt>
      <trkpt lat="49.67239" lon="-1.48511">
        <ele>23</ele>
        <time>2020-06-15T08:44:24Z</time>
      </trkpt>
      <trkpt lat="49.67244" lon="-1.48513">
        <ele>23.1</ele>
        <time>2020-06-15T08:44:25Z</time>
      </trkpt>
      <trkpt lat="49.67249" lon="-1.48513">
        <ele>23.2</ele>
        <time>2020-06-15T08:44:26Z</time>
      </trkpt>
      <trkpt lat="49.67253" lon="-1.48513">
        <ele>23.3</ele>
        <time>2020-06-15T08:44:27Z</time>
      </trkpt>
      <trkpt lat="49.67258" lon="-1.48513">
        <ele>23.3</ele>
        <time>2020-06-15T08:44:28Z</time>
      </trkpt>
      <trkpt lat="49.67263" lon="-1.48512">
        <ele>23.4</ele>
        <time>2020-06-15T08:44:29Z</time>
      </trkpt>
      <trkpt lat="49.67269" lon="-1.48512">
        <ele>23.5</ele>
        <time>2020-06-15T08:44:30Z</time>
      </trkpt>
      <trkpt lat="49.67274" lon="-1.4851">
        <ele>23.5</ele>
        <time>2020-06-15T08:44:31Z</time>
      </trkpt>
      <trkpt lat="49.6728" lon="-1.4851">
        <ele>23.6</ele>
        <time>2020-06-15T08:44:32Z</time>
      </trkpt>
      <trkpt lat="49.67286" lon="-1.4851">
        <ele>23.6</ele>
        <time>2020-06-15T08:44:33Z</time>
      </trkpt>
      <trkpt lat="49.67293" lon="-1.48509">
        <ele>23.6</ele>
        <time>2020-06-15T08:44:34Z</time>
      </trkpt>
      <trkpt lat="49.67299" lon="-1.4851">
        <ele>23.7</ele>
        <time>2020-06-15T08:44:35Z</time>
      </trkpt>
      <trkpt lat="49.67304" lon="-1.48511">
        <ele>23.7</ele>
        <time>2020-06-15T08:44:36Z</time>
      </trkpt>
      <trkpt lat="49.67309" lon="-1.48512">
        <ele>23.7</ele>
        <time>2020-06-15T08:44:37Z</time>
      </trkpt>
      <trkpt lat="49.67315" lon="-1.48512">
        <ele>23.8</ele>
        <time>2020-06-15T08:44:38Z</time>
      </trkpt>
      <trkpt lat="49.67321" lon="-1.48512">
        <ele>23.8</ele>
        <time>2020-06-15T08:44:39Z</time>
      </trkpt>
      <trkpt lat="49.67327" lon="-1.48513">
        <ele>23.8</ele>
        <time>2020-06-15T08:44:40Z</time>
      </trkpt>
      <trkpt lat="49.67333" lon="-1.48513">
        <ele>23.8</ele>
        <time>2020-06-15T08:44:41Z</time>
      </trkpt>
      <trkpt lat="49.67339" lon="-1.48513">
        <ele>23.9</ele>
        <time>2020-06-15T08:44:42Z</time>
      </trkpt>
      <trkpt lat="49.67345" lon="-1.48513">
        <ele>23.9</ele>
        <time>2020-06-15T08:44:43Z</time>
      </trkpt>
      <trkpt lat="49.67351" lon="-1.48513">
        <ele>23.9</ele>
        <time>2020-06-15T08:44:44Z</time>
      </trkpt>
      <trkpt lat="49.67356" lon="-1.48513">
        <ele>23.9</ele>
        <time>2020-06-15T08:44:45Z</time>
      </trkpt>
      <trkpt lat="49.67362" lon="-1.48512">
        <ele>23.9</ele>
        <time>2020-06-15T08:44:46Z</time>
      </trkpt>
      <trkpt lat="49.67368" lon="-1.48509">
        <ele>23.9</ele>
        <time>2020-06-15T08:44:47Z</time>
      </trkpt>
      <trkpt lat="49.67373" lon="-1.48506">
        <ele>23.9</ele>
        <time>2020-06-15T08:44:48Z</time>
      </trkpt>
      <trkpt lat="49.6738" lon="-1.48503">
        <ele>23.9</ele>
        <time>2020-06-15T08:44:49Z</time>
      </trkpt>
      <trkpt lat="49.67386" lon="-1.48501">
        <ele>23.8</ele>
        <time>2020-06-15T08:44:50Z</time>
      </trkpt>
      <trkpt lat="49.67392" lon="-1.48498">
        <ele>23.8</ele>
        <time>2020-06-15T08:44:51Z</time>
      </trkpt>
      <trkpt lat="49.67399" lon="-1.48495">
        <ele>23.8</ele>
        <time>2020-06-15T08:44:52Z</time>
      </trkpt>
      <trkpt lat="49.67405" lon="-1.48492">
        <ele>23.8</ele>
        <time>2020-06-15T08:44:53Z</time>
      </trkpt>
      <trkpt lat="49.67411" lon="-1.48488">
        <ele>23.8</ele>
        <time>2020-06-15T08:44:54Z</time>
      </trkpt>
      <trkpt lat="49.67415" lon="-1.48486">
        <ele>23.8</ele>
        <time>2020-06-15T08:44:55Z</time>
      </trkpt>
      <trkpt lat="49.6742" lon="-1.48483">
        <ele>23.8</ele>
        <time>2020-06-15T08:44:56Z</time>
      </trkpt>
      <trkpt lat="49.67425" lon="-1.48478">
        <ele>23.9</ele>
        <time>2020-06-15T08:44:57Z</time>
      </trkpt>
      <trkpt lat="49.6743" lon="-1.48475">
        <ele>23.9</ele>
        <time>2020-06-15T08:44:58Z</time>
      </trkpt>
      <trkpt lat="49.67435" lon="-1.48471">
        <ele>23.9</ele>
        <time>2020-06-15T08:44:59Z</time>
      </trkpt>
      <trkpt lat="49.67441" lon="-1.48468">
        <ele>24</ele>
        <time>2020-06-15T08:45:00Z</time>
      </trkpt>
      <trkpt lat="49.67447" lon="-1.48464">
        <ele>24.1</ele>
        <time>2020-06-15T08:45:01Z</time>
      </trkpt>
      <trkpt lat="49.67453" lon="-1.4846">
        <ele>24.2</ele>
        <time>2020-06-15T08:45:02Z</time>
      </trkpt>
      <trkpt lat="49.67458" lon="-1.48457">
        <ele>24.3</ele>
        <time>2020-06-15T08:45:03Z</time>
      </trkpt>
      <trkpt lat="49.67464" lon="-1.48455">
        <ele>24.5</ele>
        <time>2020-06-15T08:45:04Z</time>
      </trkpt>
      <trkpt lat="49.67468" lon="-1.48453">
        <ele>24.5</ele>
        <time>2020-06-15T08:45:05Z</time>
      </trkpt>
      <trkpt lat="49.67473" lon="-1.48451">
        <ele>24.6</ele>
        <time>2020-06-15T08:45:06Z</time>
      </trkpt>
      <trkpt lat="49.67476" lon="-1.4845">
        <ele>24.7</ele>
        <time>2020-06-15T08:45:07Z</time>
      </trkpt>
      <trkpt lat="49.67482" lon="-1.48449">
        <ele>24.8</ele>
        <time>2020-06-15T08:45:08Z</time>
      </trkpt>
      <trkpt lat="49.67488" lon="-1.48446">
        <ele>24.9</ele>
        <time>2020-06-15T08:45:09Z</time>
      </trkpt>
      <trkpt lat="49.67493" lon="-1.48445">
        <ele>25</ele>
        <time>2020-06-15T08:45:10Z</time>
      </trkpt>
      <trkpt lat="49.67497" lon="-1.48444">
        <ele>25.1</ele>
        <time>2020-06-15T08:45:11Z</time>
      </trkpt>
      <trkpt lat="49.67502" lon="-1.48442">
        <ele>25.2</ele>
        <time>2020-06-15T08:45:12Z</time>
      </trkpt>
      <trkpt lat="49.67507" lon="-1.4844">
        <ele>25.2</ele>
        <time>2020-06-15T08:45:13Z</time>
      </trkpt>
      <trkpt lat="49.67512" lon="-1.48438">
        <ele>25.3</ele>
        <time>2020-06-15T08:45:14Z</time>
      </trkpt>
      <trkpt lat="49.67518" lon="-1.48437">
        <ele>25.4</ele>
        <time>2020-06-15T08:45:15Z</time>
      </trkpt>
      <trkpt lat="49.67524" lon="-1.48436">
        <ele>25.5</ele>
        <time>2020-06-15T08:45:16Z</time>
      </trkpt>
      <trkpt lat="49.67529" lon="-1.48435">
        <ele>25.6</ele>
        <time>2020-06-15T08:45:17Z</time>
      </trkpt>
      <trkpt lat="49.67535" lon="-1.48434">
        <ele>25.7</ele>
        <time>2020-06-15T08:45:18Z</time>
      </trkpt>
      <trkpt lat="49.67539" lon="-1.48432">
        <ele>25.7</ele>
        <time>2020-06-15T08:45:19Z</time>
      </trkpt>
      <trkpt lat="49.67542" lon="-1.48432">
        <ele>25.8</ele>
        <time>2020-06-15T08:45:20Z</time>
      </trkpt>
      <trkpt lat="49.67547" lon="-1.48432">
        <ele>25.9</ele>
        <time>2020-06-15T08:45:21Z</time>
      </trkpt>
      <trkpt lat="49.67552" lon="-1.4843">
        <ele>26.1</ele>
        <time>2020-06-15T08:45:22Z</time>
      </trkpt>
      <trkpt lat="49.67557" lon="-1.48429">
        <ele>26.2</ele>
        <time>2020-06-15T08:45:23Z</time>
      </trkpt>
      <trkpt lat="49.67561" lon="-1.48427">
        <ele>26.3</ele>
        <time>2020-06-15T08:45:24Z</time>
      </trkpt>
      <trkpt lat="49.67565" lon="-1.48426">
        <ele>26.5</ele>
        <time>2020-06-15T08:45:25Z</time>
      </trkpt>
      <trkpt lat="49.67571" lon="-1.48424">
        <ele>26.6</ele>
        <time>2020-06-15T08:45:26Z</time>
      </trkpt>
      <trkpt lat="49.67577" lon="-1.48422">
        <ele>26.8</ele>
        <time>2020-06-15T08:45:27Z</time>
      </trkpt>
      <trkpt lat="49.67582" lon="-1.4842">
        <ele>27</ele>
        <time>2020-06-15T08:45:28Z</time>
      </trkpt>
      <trkpt lat="49.67586" lon="-1.48417">
        <ele>27.1</ele>
        <time>2020-06-15T08:45:29Z</time>
      </trkpt>
      <trkpt lat="49.67591" lon="-1.48415">
        <ele>27.3</ele>
        <time>2020-06-15T08:45:30Z</time>
      </trkpt>
      <trkpt lat="49.67596" lon="-1.48414">
        <ele>27.4</ele>
        <time>2020-06-15T08:45:31Z</time>
      </trkpt>
      <trkpt lat="49.67601" lon="-1.48412">
        <ele>27.6</ele>
        <time>2020-06-15T08:45:32Z</time>
      </trkpt>
      <trkpt lat="49.67606" lon="-1.4841">
        <ele>27.8</ele>
        <time>2020-06-15T08:45:33Z</time>
      </trkpt>
      <trkpt lat="49.6761" lon="-1.48408">
        <ele>27.9</ele>
        <time>2020-06-15T08:45:34Z</time>
      </trkpt>
      <trkpt lat="49.67615" lon="-1.48404">
        <ele>28.1</ele>
        <time>2020-06-15T08:45:35Z</time>
      </trkpt>
      <trkpt lat="49.67619" lon="-1.48402">
        <ele>28.3</ele>
        <time>2020-06-15T08:45:36Z</time>
      </trkpt>
      <trkpt lat="49.67622" lon="-1.484">
        <ele>28.4</ele>
        <time>2020-06-15T08:45:37Z</time>
      </trkpt>
      <trkpt lat="49.67627" lon="-1.48398">
        <ele>28.5</ele>
        <time>2020-06-15T08:45:38Z</time>
      </trkpt>
      <trkpt lat="49.67632" lon="-1.48395">
        <ele>28.7</ele>
        <time>2020-06-15T08:45:39Z</time>
      </trkpt>
      <trkpt lat="49.67636" lon="-1.48392">
        <ele>28.8</ele>
        <time>2020-06-15T08:45:40Z</time>
      </trkpt>
      <trkpt lat="49.6764" lon="-1.48389">
        <ele>28.9</ele>
        <time>2020-06-15T08:45:41Z</time>
      </trkpt>
      <trkpt lat="49.67645" lon="-1.48385">
        <ele>29.1</ele>
        <time>2020-06-15T08:45:42Z</time>
      </trkpt>
      <trkpt lat="49.6765" lon="-1.4838">
        <ele>29.3</ele>
        <time>2020-06-15T08:45:43Z</time>
      </trkpt>
      <trkpt lat="49.67655" lon="-1.48374">
        <ele>29.5</ele>
        <time>2020-06-15T08:45:44Z</time>
      </trkpt>
      <trkpt lat="49.6766" lon="-1.48368">
        <ele>29.7</ele>
        <time>2020-06-15T08:45:45Z</time>
      </trkpt>
      <trkpt lat="49.67666" lon="-1.48363">
        <ele>29.9</ele>
        <time>2020-06-15T08:45:46Z</time>
      </trkpt>
      <trkpt lat="49.67671" lon="-1.48358">
        <ele>30</ele>
        <time>2020-06-15T08:45:47Z</time>
      </trkpt>
      <trkpt lat="49.67674" lon="-1.48354">
        <ele>30.1</ele>
        <time>2020-06-15T08:45:48Z</time>
      </trkpt>
      <trkpt lat="49.67679" lon="-1.4835">
        <ele>30.3</ele>
        <time>2020-06-15T08:45:49Z</time>
      </trkpt>
      <trkpt lat="49.67682" lon="-1.48345">
        <ele>30.4</ele>
        <time>2020-06-15T08:45:50Z</time>
      </trkpt>
      <trkpt lat="49.67685" lon="-1.48341">
        <ele>30.5</ele>
        <time>2020-06-15T08:45:51Z</time>
      </trkpt>
      <trkpt lat="49.67688" lon="-1.48337">
        <ele>30.7</ele>
        <time>2020-06-15T08:45:52Z</time>
      </trkpt>
      <trkpt lat="49.67692" lon="-1.48332">
        <ele>30.8</ele>
        <time>2020-06-15T08:45:53Z</time>
      </trkpt>
      <trkpt lat="49.67694" lon="-1.48327">
        <ele>30.9</ele>
        <time>2020-06-15T08:45:54Z</time>
      </trkpt>
      <trkpt lat="49.67697" lon="-1.48323">
        <ele>31</ele>
        <time>2020-06-15T08:45:55Z</time>
      </trkpt>
      <trkpt lat="49.677" lon="-1.48318">
        <ele>31.1</ele>
        <time>2020-06-15T08:45:56Z</time>
      </trkpt>
      <trkpt lat="49.67703" lon="-1.48313">
        <ele>31.2</ele>
        <time>2020-06-15T08:45:57Z</time>
      </trkpt>
      <trkpt lat="49.67706" lon="-1.48308">
        <ele>31.3</ele>
        <time>2020-06-15T08:45:58Z</time>
      </trkpt>
      <trkpt lat="49.67709" lon="-1.48303">
        <ele>31.4</ele>
        <time>2020-06-15T08:45:59Z</time>
      </trkpt>
      <trkpt lat="49.67712" lon="-1.48297">
        <ele>31.6</ele>
        <time>2020-06-15T08:46:00Z</time>
      </trkpt>
      <trkpt lat="49.67715" lon="-1.48291">
        <ele>31.7</ele>
        <time>2020-06-15T08:46:01Z</time>
      </trkpt>
      <trkpt lat="49.67717" lon="-1.48288">
        <ele>31.8</ele>
        <time>2020-06-15T08:46:02Z</time>
      </trkpt>
      <trkpt lat="49.6772" lon="-1.48283">
        <ele>32</ele>
        <time>2020-06-15T08:46:03Z</time>
      </trkpt>
      <trkpt lat="49.67723" lon="-1.48276">
        <ele>32.1</ele>
        <time>2020-06-15T08:46:04Z</time>
      </trkpt>
      <trkpt lat="49.67726" lon="-1.48269">
        <ele>32.3</ele>
        <time>2020-06-15T08:46:05Z</time>
      </trkpt>
      <trkpt lat="49.67729" lon="-1.48266">
        <ele>32.4</ele>
        <time>2020-06-15T08:46:06Z</time>
      </trkpt>
      <trkpt lat="49.67732" lon="-1.48259">
        <ele>32.5</ele>
        <time>2020-06-15T08:46:07Z</time>
      </trkpt>
      <trkpt lat="49.67735" lon="-1.48253">
        <ele>32.6</ele>
        <time>2020-06-15T08:46:08Z</time>
      </trkpt>
      <trkpt lat="49.67738" lon="-1.48247">
        <ele>32.8</ele>
        <time>2020-06-15T08:46:09Z</time>
      </trkpt>
      <trkpt lat="49.67741" lon="-1.4824">
        <ele>32.9</ele>
        <time>2020-06-15T08:46:10Z</time>
      </trkpt>
      <trkpt lat="49.67743" lon="-1.48234">
        <ele>33</ele>
        <time>2020-06-15T08:46:11Z</time>
      </trkpt>
      <trkpt lat="49.67745" lon="-1.48227">
        <ele>33</ele>
        <time>2020-06-15T08:46:12Z</time>
      </trkpt>
      <trkpt lat="49.67747" lon="-1.4822">
        <ele>33.1</ele>
        <time>2020-06-15T08:46:13Z</time>
      </trkpt>
      <trkpt lat="49.67748" lon="-1.48213">
        <ele>33.2</ele>
        <time>2020-06-15T08:46:14Z</time>
      </trkpt>
      <trkpt lat="49.67751" lon="-1.48208">
        <ele>33.2</ele>
        <time>2020-06-15T08:46:15Z</time>
      </trkpt>
      <trkpt lat="49.67753" lon="-1.48199">
        <ele>33.3</ele>
        <time>2020-06-15T08:46:16Z</time>
      </trkpt>
      <trkpt lat="49.67755" lon="-1.48195">
        <ele>33.3</ele>
        <time>2020-06-15T08:46:17Z</time>
      </trkpt>
      <trkpt lat="49.67757" lon="-1.48188">
        <ele>33.3</ele>
        <time>2020-06-15T08:46:18Z</time>
      </trkpt>
      <trkpt lat="49.6776" lon="-1.48182">
        <ele>33.3</ele>
        <time>2020-06-15T08:46:19Z</time>
      </trkpt>
      <trkpt lat="49.67762" lon="-1.48176">
        <ele>33.4</ele>
        <time>2020-06-15T08:46:20Z</time>
      </trkpt>
      <trkpt lat="49.67764" lon="-1.48169">
        <ele>33.4</ele>
        <time>2020-06-15T08:46:21Z</time>
      </trkpt>
      <trkpt lat="49.67766" lon="-1.48162">
        <ele>33.5</ele>
        <time>2020-06-15T08:46:22Z</time>
      </trkpt>
      <trkpt lat="49.67769" lon="-1.48154">
        <ele>33.6</ele>
        <time>2020-06-15T08:46:23Z</time>
      </trkpt>
      <trkpt lat="49.67769" lon="-1.48148">
        <ele>33.7</ele>
        <time>2020-06-15T08:46:24Z</time>
      </trkpt>
      <trkpt lat="49.67771" lon="-1.48138">
        <ele>33.8</ele>
        <time>2020-06-15T08:46:25Z</time>
      </trkpt>
      <trkpt lat="49.67773" lon="-1.4813">
        <ele>33.8</ele>
        <time>2020-06-15T08:46:26Z</time>
      </trkpt>
      <trkpt lat="49.67774" lon="-1.48122">
        <ele>33.9</ele>
        <time>2020-06-15T08:46:27Z</time>
      </trkpt>
      <trkpt lat="49.67775" lon="-1.48114">
        <ele>34</ele>
        <time>2020-06-15T08:46:28Z</time>
      </trkpt>
      <trkpt lat="49.67776" lon="-1.48106">
        <ele>34</ele>
        <time>2020-06-15T08:46:29Z</time>
      </trkpt>
      <trkpt lat="49.67777" lon="-1.48097">
        <ele>34.1</ele>
        <time>2020-06-15T08:46:30Z</time>
      </trkpt>
      <trkpt lat="49.67777" lon="-1.48089">
        <ele>34.1</ele>
        <time>2020-06-15T08:46:31Z</time>
      </trkpt>
      <trkpt lat="49.67779" lon="-1.4808">
        <ele>34.2</ele>
        <time>2020-06-15T08:46:32Z</time>
      </trkpt>
      <trkpt lat="49.67779" lon="-1.48071">
        <ele>34.2</ele>
        <time>2020-06-15T08:46:33Z</time>
      </trkpt>
      <trkpt lat="49.6778" lon="-1.48065">
        <ele>34.2</ele>
        <time>2020-06-15T08:46:34Z</time>
      </trkpt>
      <trkpt lat="49.67781" lon="-1.48056">
        <ele>34.2</ele>
        <time>2020-06-15T08:46:35Z</time>
      </trkpt>
      <trkpt lat="49.67781" lon="-1.48047">
        <ele>34.2</ele>
        <time>2020-06-15T08:46:36Z</time>
      </trkpt>
      <trkpt lat="49.67782" lon="-1.48041">
        <ele>34.2</ele>
        <time>2020-06-15T08:46:37Z</time>
      </trkpt>
      <trkpt lat="49.67782" lon="-1.48033">
        <ele>34.2</ele>
        <time>2020-06-15T08:46:38Z</time>
      </trkpt>
      <trkpt lat="49.67783" lon="-1.48024">
        <ele>34.2</ele>
        <time>2020-06-15T08:46:39Z</time>
      </trkpt>
      <trkpt lat="49.67783" lon="-1.48016">
        <ele>34.2</ele>
        <time>2020-06-15T08:46:40Z</time>
      </trkpt>
      <trkpt lat="49.67783" lon="-1.48006">
        <ele>34.1</ele>
        <time>2020-06-15T08:46:41Z</time>
      </trkpt>
      <trkpt lat="49.67782" lon="-1.47998">
        <ele>34.1</ele>
        <time>2020-06-15T08:46:42Z</time>
      </trkpt>
      <trkpt lat="49.6778" lon="-1.4799">
        <ele>34.1</ele>
        <time>2020-06-15T08:46:43Z</time>
      </trkpt>
      <trkpt lat="49.67779" lon="-1.47981">
        <ele>34</ele>
        <time>2020-06-15T08:46:44Z</time>
      </trkpt>
      <trkpt lat="49.67777" lon="-1.47972">
        <ele>33.9</ele>
        <time>2020-06-15T08:46:45Z</time>
      </trkpt>
      <trkpt lat="49.67776" lon="-1.47962">
        <ele>33.8</ele>
        <time>2020-06-15T08:46:46Z</time>
      </trkpt>
      <trkpt lat="49.67775" lon="-1.47955">
        <ele>33.7</ele>
        <time>2020-06-15T08:46:47Z</time>
      </trkpt>
      <trkpt lat="49.67774" lon="-1.47947">
        <ele>33.7</ele>
        <time>2020-06-15T08:46:48Z</time>
      </trkpt>
      <trkpt lat="49.67774" lon="-1.47939">
        <ele>33.7</ele>
        <time>2020-06-15T08:46:49Z</time>
      </trkpt>
      <trkpt lat="49.67773" lon="-1.47929">
        <ele>33.6</ele>
        <time>2020-06-15T08:46:50Z</time>
      </trkpt>
      <trkpt lat="49.67773" lon="-1.4792">
        <ele>33.5</ele>
        <time>2020-06-15T08:46:51Z</time>
      </trkpt>
      <trkpt lat="49.67773" lon="-1.4791">
        <ele>33.3</ele>
        <time>2020-06-15T08:46:52Z</time>
      </trkpt>
      <trkpt lat="49.67772" lon="-1.47902">
        <ele>33.2</ele>
        <time>2020-06-15T08:46:53Z</time>
      </trkpt>
      <trkpt lat="49.67771" lon="-1.47892">
        <ele>33.1</ele>
        <time>2020-06-15T08:46:54Z</time>
      </trkpt>
      <trkpt lat="49.67771" lon="-1.47883">
        <ele>33.1</ele>
        <time>2020-06-15T08:46:55Z</time>
      </trkpt>
      <trkpt lat="49.6777" lon="-1.47874">
        <ele>33.1</ele>
        <time>2020-06-15T08:46:56Z</time>
      </trkpt>
      <trkpt lat="49.67769" lon="-1.47864">
        <ele>33</ele>
        <time>2020-06-15T08:46:57Z</time>
      </trkpt>
      <trkpt lat="49.67768" lon="-1.47856">
        <ele>33.1</ele>
        <time>2020-06-15T08:46:58Z</time>
      </trkpt>
      <trkpt lat="49.67767" lon="-1.47846">
        <ele>33.1</ele>
        <time>2020-06-15T08:46:59Z</time>
      </trkpt>
      <trkpt lat="49.67766" lon="-1.47836">
        <ele>33.2</ele>
        <time>2020-06-15T08:47:00Z</time>
      </trkpt>
      <trkpt lat="49.67764" lon="-1.47828">
        <ele>33.2</ele>
        <time>2020-06-15T08:47:01Z</time>
      </trkpt>
      <trkpt lat="49.67763" lon="-1.47818">
        <ele>33.3</ele>
        <time>2020-06-15T08:47:02Z</time>
      </trkpt>
      <trkpt lat="49.67762" lon="-1.47809">
        <ele>33.4</ele>
        <time>2020-06-15T08:47:03Z</time>
      </trkpt>
      <trkpt lat="49.6776" lon="-1.47799">
        <ele>33.4</ele>
        <time>2020-06-15T08:47:04Z</time>
      </trkpt>
      <trkpt lat="49.67759" lon="-1.4779">
        <ele>33.5</ele>
        <time>2020-06-15T08:47:05Z</time>
      </trkpt>
      <trkpt lat="49.67758" lon="-1.47782">
        <ele>33.6</ele>
        <time>2020-06-15T08:47:06Z</time>
      </trkpt>
      <trkpt lat="49.67756" lon="-1.47774">
        <ele>33.7</ele>
        <time>2020-06-15T08:47:07Z</time>
      </trkpt>
      <trkpt lat="49.67754" lon="-1.47764">
        <ele>33.8</ele>
        <time>2020-06-15T08:47:08Z</time>
      </trkpt>
      <trkpt lat="49.67754" lon="-1.47755">
        <ele>34</ele>
        <time>2020-06-15T08:47:09Z</time>
      </trkpt>
      <trkpt lat="49.67753" lon="-1.47747">
        <ele>34.2</ele>
        <time>2020-06-15T08:47:10Z</time>
      </trkpt>
      <trkpt lat="49.67752" lon="-1.47737">
        <ele>34.4</ele>
        <time>2020-06-15T08:47:11Z</time>
      </trkpt>
      <trkpt lat="49.67752" lon="-1.4773">
        <ele>34.5</ele>
        <time>2020-06-15T08:47:12Z</time>
      </trkpt>
      <trkpt lat="49.67752" lon="-1.47722">
        <ele>34.7</ele>
        <time>2020-06-15T08:47:13Z</time>
      </trkpt>
      <trkpt lat="49.67751" lon="-1.47715">
        <ele>34.8</ele>
        <time>2020-06-15T08:47:14Z</time>
      </trkpt>
      <trkpt lat="49.67751" lon="-1.47709">
        <ele>34.9</ele>
        <time>2020-06-15T08:47:15Z</time>
      </trkpt>
      <trkpt lat="49.67751" lon="-1.47701">
        <ele>35.1</ele>
        <time>2020-06-15T08:47:16Z</time>
      </trkpt>
      <trkpt lat="49.67751" lon="-1.47695">
        <ele>35.2</ele>
        <time>2020-06-15T08:47:17Z</time>
      </trkpt>
      <trkpt lat="49.67751" lon="-1.47689">
        <ele>35.3</ele>
        <time>2020-06-15T08:47:18Z</time>
      </trkpt>
      <trkpt lat="49.6775" lon="-1.47683">
        <ele>35.4</ele>
        <time>2020-06-15T08:47:19Z</time>
      </trkpt>
      <trkpt lat="49.6775" lon="-1.47676">
        <ele>35.5</ele>
        <time>2020-06-15T08:47:20Z</time>
      </trkpt>
      <trkpt lat="49.6775" lon="-1.47667">
        <ele>35.6</ele>
        <time>2020-06-15T08:47:21Z</time>
      </trkpt>
      <trkpt lat="49.67749" lon="-1.4766">
        <ele>35.8</ele>
        <time>2020-06-15T08:47:22Z</time>
      </trkpt>
      <trkpt lat="49.67749" lon="-1.47651">
        <ele>35.9</ele>
        <time>2020-06-15T08:47:23Z</time>
      </trkpt>
      <trkpt lat="49.67749" lon="-1.47643">
        <ele>36</ele>
        <time>2020-06-15T08:47:24Z</time>
      </trkpt>
      <trkpt lat="49.67749" lon="-1.47635">
        <ele>36.1</ele>
        <time>2020-06-15T08:47:25Z</time>
      </trkpt>
      <trkpt lat="49.67749" lon="-1.47627">
        <ele>36.2</ele>
        <time>2020-06-15T08:47:26Z</time>
      </trkpt>
      <trkpt lat="49.6775" lon="-1.4762">
        <ele>36.3</ele>
        <time>2020-06-15T08:47:27Z</time>
      </trkpt>
      <trkpt lat="49.6775" lon="-1.47612">
        <ele>36.3</ele>
        <time>2020-06-15T08:47:28Z</time>
      </trkpt>
      <trkpt lat="49.6775" lon="-1.47605">
        <ele>36.4</ele>
        <time>2020-06-15T08:47:29Z</time>
      </trkpt>
      <trkpt lat="49.67751" lon="-1.47598">
        <ele>36.5</ele>
        <time>2020-06-15T08:47:30Z</time>
      </trkpt>
      <trkpt lat="49.67751" lon="-1.47592">
        <ele>36.5</ele>
        <time>2020-06-15T08:47:31Z</time>
      </trkpt>
      <trkpt lat="49.67753" lon="-1.47586">
        <ele>36.6</ele>
        <time>2020-06-15T08:47:32Z</time>
      </trkpt>
      <trkpt lat="49.67755" lon="-1.47576">
        <ele>36.7</ele>
        <time>2020-06-15T08:47:33Z</time>
      </trkpt>
      <trkpt lat="49.67756" lon="-1.47569">
        <ele>36.7</ele>
        <time>2020-06-15T08:47:34Z</time>
      </trkpt>
      <trkpt lat="49.67757" lon="-1.47563">
        <ele>36.8</ele>
        <time>2020-06-15T08:47:35Z</time>
      </trkpt>
      <trkpt lat="49.67758" lon="-1.47555">
        <ele>36.9</ele>
        <time>2020-06-15T08:47:36Z</time>
      </trkpt>
      <trkpt lat="49.6776" lon="-1.47548">
        <ele>36.9</ele>
        <time>2020-06-15T08:47:37Z</time>
      </trkpt>
      <trkpt lat="49.67762" lon="-1.47541">
        <ele>37</ele>
        <time>2020-06-15T08:47:38Z</time>
      </trkpt>
      <trkpt lat="49.67762" lon="-1.47533">
        <ele>37</ele>
        <time>2020-06-15T08:47:39Z</time>
      </trkpt>
      <trkpt lat="49.67763" lon="-1.47526">
        <ele>37.1</ele>
        <time>2020-06-15T08:47:40Z</time>
      </trkpt>
      <trkpt lat="49.67765" lon="-1.47519">
        <ele>37.2</ele>
        <time>2020-06-15T08:47:41Z</time>
      </trkpt>
      <trkpt lat="49.67766" lon="-1.47513">
        <ele>37.2</ele>
        <time>2020-06-15T08:47:42Z</time>
      </trkpt>
      <trkpt lat="49.67768" lon="-1.47506">
        <ele>37.3</ele>
        <time>2020-06-15T08:47:43Z</time>
      </trkpt>
      <trkpt lat="49.6777" lon="-1.47497">
        <ele>37.4</ele>
        <time>2020-06-15T08:47:44Z</time>
      </trkpt>
      <trkpt lat="49.67772" lon="-1.4749">
        <ele>37.4</ele>
        <time>2020-06-15T08:47:45Z</time>
      </trkpt>
      <trkpt lat="49.67774" lon="-1.47483">
        <ele>37.5</ele>
        <time>2020-06-15T08:47:46Z</time>
      </trkpt>
      <trkpt lat="49.67776" lon="-1.47477">
        <ele>37.5</ele>
        <time>2020-06-15T08:47:47Z</time>
      </trkpt>
      <trkpt lat="49.67778" lon="-1.47471">
        <ele>37.6</ele>
        <time>2020-06-15T08:47:48Z</time>
      </trkpt>
      <trkpt lat="49.6778" lon="-1.47463">
        <ele>37.7</ele>
        <time>2020-06-15T08:47:49Z</time>
      </trkpt>
      <trkpt lat="49.67782" lon="-1.47456">
        <ele>37.8</ele>
        <time>2020-06-15T08:47:50Z</time>
      </trkpt>
      <trkpt lat="49.67784" lon="-1.47449">
        <ele>37.8</ele>
        <time>2020-06-15T08:47:51Z</time>
      </trkpt>
      <trkpt lat="49.67786" lon="-1.47443">
        <ele>37.9</ele>
        <time>2020-06-15T08:47:52Z</time>
      </trkpt>
      <trkpt lat="49.67788" lon="-1.47437">
        <ele>37.9</ele>
        <time>2020-06-15T08:47:53Z</time>
      </trkpt>
      <trkpt lat="49.67789" lon="-1.47432">
        <ele>37.9</ele>
        <time>2020-06-15T08:47:54Z</time>
      </trkpt>
      <trkpt lat="49.67791" lon="-1.47425">
        <ele>37.9</ele>
        <time>2020-06-15T08:47:55Z</time>
      </trkpt>
      <trkpt lat="49.67794" lon="-1.47418">
        <ele>37.9</ele>
        <time>2020-06-15T08:47:56Z</time>
      </trkpt>
      <trkpt lat="49.67795" lon="-1.4741">
        <ele>37.9</ele>
        <time>2020-06-15T08:47:57Z</time>
      </trkpt>
      <trkpt lat="49.67797" lon="-1.47402">
        <ele>38</ele>
        <time>2020-06-15T08:47:58Z</time>
      </trkpt>
      <trkpt lat="49.67798" lon="-1.47395">
        <ele>38</ele>
        <time>2020-06-15T08:47:59Z</time>
      </trkpt>
      <trkpt lat="49.67799" lon="-1.47388">
        <ele>38.1</ele>
        <time>2020-06-15T08:48:00Z</time>
      </trkpt>
      <trkpt lat="49.67801" lon="-1.47379">
        <ele>38.1</ele>
        <time>2020-06-15T08:48:01Z</time>
      </trkpt>
      <trkpt lat="49.67803" lon="-1.47372">
        <ele>38.2</ele>
        <time>2020-06-15T08:48:02Z</time>
      </trkpt>
      <trkpt lat="49.67804" lon="-1.47364">
        <ele>38.2</ele>
        <time>2020-06-15T08:48:03Z</time>
      </trkpt>
      <trkpt lat="49.67805" lon="-1.47355">
        <ele>38.2</ele>
        <time>2020-06-15T08:48:04Z</time>
      </trkpt>
      <trkpt lat="49.67807" lon="-1.47347">
        <ele>38.2</ele>
        <time>2020-06-15T08:48:05Z</time>
      </trkpt>
      <trkpt lat="49.67809" lon="-1.4734">
        <ele>38.2</ele>
        <time>2020-06-15T08:48:06Z</time>
      </trkpt>
      <trkpt lat="49.6781" lon="-1.47332">
        <ele>38.3</ele>
        <time>2020-06-15T08:48:07Z</time>
      </trkpt>
      <trkpt lat="49.67812" lon="-1.47324">
        <ele>38.4</ele>
        <time>2020-06-15T08:48:08Z</time>
      </trkpt>
      <trkpt lat="49.67813" lon="-1.47316">
        <ele>38.4</ele>
        <time>2020-06-15T08:48:09Z</time>
      </trkpt>
      <trkpt lat="49.67815" lon="-1.4731">
        <ele>38.5</ele>
        <time>2020-06-15T08:48:10Z</time>
      </trkpt>
      <trkpt lat="49.67817" lon="-1.47302">
        <ele>38.6</ele>
        <time>2020-06-15T08:48:11Z</time>
      </trkpt>
      <trkpt lat="49.67819" lon="-1.47292">
        <ele>38.7</ele>
        <time>2020-06-15T08:48:12Z</time>
      </trkpt>
      <trkpt lat="49.67821" lon="-1.47282">
        <ele>38.8</ele>
        <time>2020-06-15T08:48:13Z</time>
      </trkpt>
      <trkpt lat="49.67822" lon="-1.47273">
        <ele>38.8</ele>
        <time>2020-06-15T08:48:14Z</time>
      </trkpt>
      <trkpt lat="49.67824" lon="-1.47264">
        <ele>38.9</ele>
        <time>2020-06-15T08:48:15Z</time>
      </trkpt>
      <trkpt lat="49.67826" lon="-1.47257">
        <ele>38.9</ele>
        <time>2020-06-15T08:48:16Z</time>
      </trkpt>
      <trkpt lat="49.67828" lon="-1.4725">
        <ele>39</ele>
        <time>2020-06-15T08:48:17Z</time>
      </trkpt>
      <trkpt lat="49.6783" lon="-1.47243">
        <ele>39</ele>
        <time>2020-06-15T08:48:18Z</time>
      </trkpt>
      <trkpt lat="49.67833" lon="-1.47236">
        <ele>39.1</ele>
        <time>2020-06-15T08:48:19Z</time>
      </trkpt>
      <trkpt lat="49.67834" lon="-1.47229">
        <ele>39.1</ele>
        <time>2020-06-15T08:48:20Z</time>
      </trkpt>
      <trkpt lat="49.67835" lon="-1.47221">
        <ele>39.2</ele>
        <time>2020-06-15T08:48:21Z</time>
      </trkpt>
      <trkpt lat="49.67836" lon="-1.47214">
        <ele>39.2</ele>
        <time>2020-06-15T08:48:22Z</time>
      </trkpt>
      <trkpt lat="49.67838" lon="-1.47208">
        <ele>39.3</ele>
        <time>2020-06-15T08:48:23Z</time>
      </trkpt>
      <trkpt lat="49.6784" lon="-1.47202">
        <ele>39.3</ele>
        <time>2020-06-15T08:48:24Z</time>
      </trkpt>
      <trkpt lat="49.67841" lon="-1.47194">
        <ele>39.3</ele>
        <time>2020-06-15T08:48:25Z</time>
      </trkpt>
      <trkpt lat="49.67843" lon="-1.47187">
        <ele>39.4</ele>
        <time>2020-06-15T08:48:26Z</time>
      </trkpt>
      <trkpt lat="49.67844" lon="-1.4718">
        <ele>39.4</ele>
        <time>2020-06-15T08:48:27Z</time>
      </trkpt>
      <trkpt lat="49.67847" lon="-1.47172">
        <ele>39.5</ele>
        <time>2020-06-15T08:48:28Z</time>
      </trkpt>
      <trkpt lat="49.67849" lon="-1.47165">
        <ele>39.5</ele>
        <time>2020-06-15T08:48:29Z</time>
      </trkpt>
      <trkpt lat="49.67851" lon="-1.47158">
        <ele>39.6</ele>
        <time>2020-06-15T08:48:30Z</time>
      </trkpt>
      <trkpt lat="49.67853" lon="-1.47151">
        <ele>39.6</ele>
        <time>2020-06-15T08:48:31Z</time>
      </trkpt>
      <trkpt lat="49.67854" lon="-1.47144">
        <ele>39.7</ele>
        <time>2020-06-15T08:48:32Z</time>
      </trkpt>
      <trkpt lat="49.67854" lon="-1.47137">
        <ele>39.8</ele>
        <time>2020-06-15T08:48:33Z</time>
      </trkpt>
      <trkpt lat="49.67856" lon="-1.4713">
        <ele>39.8</ele>
        <time>2020-06-15T08:48:34Z</time>
      </trkpt>
      <trkpt lat="49.67858" lon="-1.47123">
        <ele>39.8</ele>
        <time>2020-06-15T08:48:35Z</time>
      </trkpt>
      <trkpt lat="49.6786" lon="-1.47116">
        <ele>39.9</ele>
        <time>2020-06-15T08:48:36Z</time>
      </trkpt>
      <trkpt lat="49.67861" lon="-1.47109">
        <ele>39.9</ele>
        <time>2020-06-15T08:48:37Z</time>
      </trkpt>
      <trkpt lat="49.67863" lon="-1.47102">
        <ele>40</ele>
        <time>2020-06-15T08:48:38Z</time>
      </trkpt>
      <trkpt lat="49.67865" lon="-1.47094">
        <ele>40</ele>
        <time>2020-06-15T08:48:39Z</time>
      </trkpt>
      <trkpt lat="49.67866" lon="-1.47086">
        <ele>40.1</ele>
        <time>2020-06-15T08:48:40Z</time>
      </trkpt>
      <trkpt lat="49.67868" lon="-1.47078">
        <ele>40.2</ele>
        <time>2020-06-15T08:48:41Z</time>
      </trkpt>
      <trkpt lat="49.6787" lon="-1.4707">
        <ele>40.2</ele>
        <time>2020-06-15T08:48:42Z</time>
      </trkpt>
      <trkpt lat="49.67872" lon="-1.47062">
        <ele>40.3</ele>
        <time>2020-06-15T08:48:43Z</time>
      </trkpt>
      <trkpt lat="49.67873" lon="-1.47054">
        <ele>40.4</ele>
        <time>2020-06-15T08:48:44Z</time>
      </trkpt>
      <trkpt lat="49.67875" lon="-1.47047">
        <ele>40.5</ele>
        <time>2020-06-15T08:48:45Z</time>
      </trkpt>
      <trkpt lat="49.67876" lon="-1.4704">
        <ele>40.6</ele>
        <time>2020-06-15T08:48:46Z</time>
      </trkpt>
      <trkpt lat="49.67879" lon="-1.47032">
        <ele>40.6</ele>
        <time>2020-06-15T08:48:47Z</time>
      </trkpt>
      <trkpt lat="49.67881" lon="-1.47025">
        <ele>40.7</ele>
        <time>2020-06-15T08:48:48Z</time>
      </trkpt>
      <trkpt lat="49.67883" lon="-1.47018">
        <ele>40.8</ele>
        <time>2020-06-15T08:48:49Z</time>
      </trkpt>
      <trkpt lat="49.67884" lon="-1.47011">
        <ele>40.9</ele>
        <time>2020-06-15T08:48:50Z</time>
      </trkpt>
      <trkpt lat="49.67886" lon="-1.47004">
        <ele>41</ele>
        <time>2020-06-15T08:48:51Z</time>
      </trkpt>
      <trkpt lat="49.67889" lon="-1.46997">
        <ele>41.1</ele>
        <time>2020-06-15T08:48:52Z</time>
      </trkpt>
      <trkpt lat="49.67891" lon="-1.46989">
        <ele>41.2</ele>
        <time>2020-06-15T08:48:53Z</time>
      </trkpt>
      <trkpt lat="49.67893" lon="-1.46981">
        <ele>41.4</ele>
        <time>2020-06-15T08:48:54Z</time>
      </trkpt>
      <trkpt lat="49.67895" lon="-1.46973">
        <ele>41.5</ele>
        <time>2020-06-15T08:48:55Z</time>
      </trkpt>
      <trkpt lat="49.67898" lon="-1.46965">
        <ele>41.6</ele>
        <time>2020-06-15T08:48:56Z</time>
      </trkpt>
      <trkpt lat="49.679" lon="-1.46957">
        <ele>41.8</ele>
        <time>2020-06-15T08:48:57Z</time>
      </trkpt>
      <trkpt lat="49.67901" lon="-1.4695">
        <ele>42</ele>
        <time>2020-06-15T08:48:58Z</time>
      </trkpt>
      <trkpt lat="49.67903" lon="-1.46943">
        <ele>42.1</ele>
        <time>2020-06-15T08:48:59Z</time>
      </trkpt>
      <trkpt lat="49.67904" lon="-1.46936">
        <ele>42.3</ele>
        <time>2020-06-15T08:49:00Z</time>
      </trkpt>
      <trkpt lat="49.67904" lon="-1.46929">
        <ele>42.5</ele>
        <time>2020-06-15T08:49:01Z</time>
      </trkpt>
      <trkpt lat="49.67908" lon="-1.46922">
        <ele>42.7</ele>
        <time>2020-06-15T08:49:02Z</time>
      </trkpt>
      <trkpt lat="49.6791" lon="-1.46915">
        <ele>42.9</ele>
        <time>2020-06-15T08:49:03Z</time>
      </trkpt>
      <trkpt lat="49.67912" lon="-1.46909">
        <ele>43.1</ele>
        <time>2020-06-15T08:49:04Z</time>
      </trkpt>
      <trkpt lat="49.67914" lon="-1.46903">
        <ele>43.3</ele>
        <time>2020-06-15T08:49:05Z</time>
      </trkpt>
      <trkpt lat="49.67915" lon="-1.46897">
        <ele>43.4</ele>
        <time>2020-06-15T08:49:06Z</time>
      </trkpt>
      <trkpt lat="49.67916" lon="-1.46891">
        <ele>43.6</ele>
        <time>2020-06-15T08:49:07Z</time>
      </trkpt>
      <trkpt lat="49.67919" lon="-1.46886">
        <ele>43.7</ele>
        <time>2020-06-15T08:49:08Z</time>
      </trkpt>
      <trkpt lat="49.67922" lon="-1.46881">
        <ele>43.9</ele>
        <time>2020-06-15T08:49:09Z</time>
      </trkpt>
      <trkpt lat="49.67925" lon="-1.46875">
        <ele>44.1</ele>
        <time>2020-06-15T08:49:10Z</time>
      </trkpt>
      <trkpt lat="49.67928" lon="-1.4687">
        <ele>44.2</ele>
        <time>2020-06-15T08:49:11Z</time>
      </trkpt>
      <trkpt lat="49.67931" lon="-1.46865">
        <ele>44.4</ele>
        <time>2020-06-15T08:49:12Z</time>
      </trkpt>
      <trkpt lat="49.67934" lon="-1.4686">
        <ele>44.5</ele>
        <time>2020-06-15T08:49:13Z</time>
      </trkpt>
      <trkpt lat="49.67937" lon="-1.46855">
        <ele>44.7</ele>
        <time>2020-06-15T08:49:14Z</time>
      </trkpt>
      <trkpt lat="49.6794" lon="-1.46851">
        <ele>44.8</ele>
        <time>2020-06-15T08:49:15Z</time>
      </trkpt>
      <trkpt lat="49.67944" lon="-1.46845">
        <ele>45</ele>
        <time>2020-06-15T08:49:16Z</time>
      </trkpt>
      <trkpt lat="49.67947" lon="-1.4684">
        <ele>45.2</ele>
        <time>2020-06-15T08:49:17Z</time>
      </trkpt>
      <trkpt lat="49.6795" lon="-1.46833">
        <ele>45.4</ele>
        <time>2020-06-15T08:49:18Z</time>
      </trkpt>
      <trkpt lat="49.67953" lon="-1.46827">
        <ele>45.5</ele>
        <time>2020-06-15T08:49:19Z</time>
      </trkpt>
      <trkpt lat="49.67956" lon="-1.46821">
        <ele>45.7</ele>
        <time>2020-06-15T08:49:20Z</time>
      </trkpt>
      <trkpt lat="49.67958" lon="-1.46815">
        <ele>45.9</ele>
        <time>2020-06-15T08:49:21Z</time>
      </trkpt>
      <trkpt lat="49.67961" lon="-1.4681">
        <ele>46.1</ele>
        <time>2020-06-15T08:49:22Z</time>
      </trkpt>
      <trkpt lat="49.67965" lon="-1.46804">
        <ele>46.2</ele>
        <time>2020-06-15T08:49:23Z</time>
      </trkpt>
      <trkpt lat="49.67967" lon="-1.46798">
        <ele>46.3</ele>
        <time>2020-06-15T08:49:24Z</time>
      </trkpt>
      <trkpt lat="49.6797" lon="-1.46793">
        <ele>46.5</ele>
        <time>2020-06-15T08:49:25Z</time>
      </trkpt>
      <trkpt lat="49.67973" lon="-1.46786">
        <ele>46.6</ele>
        <time>2020-06-15T08:49:26Z</time>
      </trkpt>
      <trkpt lat="49.67976" lon="-1.4678">
        <ele>46.7</ele>
        <time>2020-06-15T08:49:27Z</time>
      </trkpt>
      <trkpt lat="49.67979" lon="-1.46775">
        <ele>46.9</ele>
        <time>2020-06-15T08:49:28Z</time>
      </trkpt>
      <trkpt lat="49.67982" lon="-1.46769">
        <ele>47</ele>
        <time>2020-06-15T08:49:29Z</time>
      </trkpt>
      <trkpt lat="49.67985" lon="-1.46764">
        <ele>47.1</ele>
        <time>2020-06-15T08:49:30Z</time>
      </trkpt>
      <trkpt lat="49.67988" lon="-1.46757">
        <ele>47.2</ele>
        <time>2020-06-15T08:49:31Z</time>
      </trkpt>
      <trkpt lat="49.67991" lon="-1.46751">
        <ele>47.3</ele>
        <time>2020-06-15T08:49:32Z</time>
      </trkpt>
      <trkpt lat="49.67994" lon="-1.46743">
        <ele>47.4</ele>
        <time>2020-06-15T08:49:33Z</time>
      </trkpt>
      <trkpt lat="49.67997" lon="-1.46736">
        <ele>47.5</ele>
        <time>2020-06-15T08:49:34Z</time>
      </trkpt>
      <trkpt lat="49.68" lon="-1.46729">
        <ele>47.6</ele>
        <time>2020-06-15T08:49:35Z</time>
      </trkpt>
      <trkpt lat="49.68003" lon="-1.46722">
        <ele>47.6</ele>
        <time>2020-06-15T08:49:36Z</time>
      </trkpt>
      <trkpt lat="49.68005" lon="-1.46715">
        <ele>47.7</ele>
        <time>2020-06-15T08:49:37Z</time>
      </trkpt>
      <trkpt lat="49.68008" lon="-1.46708">
        <ele>47.8</ele>
        <time>2020-06-15T08:49:38Z</time>
      </trkpt>
      <trkpt lat="49.6801" lon="-1.46701">
        <ele>47.9</ele>
        <time>2020-06-15T08:49:39Z</time>
      </trkpt>
      <trkpt lat="49.68012" lon="-1.46694">
        <ele>47.9</ele>
        <time>2020-06-15T08:49:40Z</time>
      </trkpt>
      <trkpt lat="49.68013" lon="-1.46687">
        <ele>48</ele>
        <time>2020-06-15T08:49:41Z</time>
      </trkpt>
      <trkpt lat="49.68015" lon="-1.4668">
        <ele>48.1</ele>
        <time>2020-06-15T08:49:42Z</time>
      </trkpt>
      <trkpt lat="49.68017" lon="-1.46673">
        <ele>48.1</ele>
        <time>2020-06-15T08:49:43Z</time>
      </trkpt>
      <trkpt lat="49.68019" lon="-1.46666">
        <ele>48.2</ele>
        <time>2020-06-15T08:49:44Z</time>
      </trkpt>
      <trkpt lat="49.68021" lon="-1.46659">
        <ele>48.2</ele>
        <time>2020-06-15T08:49:45Z</time>
      </trkpt>
      <trkpt lat="49.68022" lon="-1.46651">
        <ele>48.2</ele>
        <time>2020-06-15T08:49:46Z</time>
      </trkpt>
      <trkpt lat="49.68023" lon="-1.46643">
        <ele>48.3</ele>
        <time>2020-06-15T08:49:47Z</time>
      </trkpt>
      <trkpt lat="49.68025" lon="-1.46635">
        <ele>48.4</ele>
        <time>2020-06-15T08:49:48Z</time>
      </trkpt>
      <trkpt lat="49.68026" lon="-1.46627">
        <ele>48.5</ele>
        <time>2020-06-15T08:49:49Z</time>
      </trkpt>
      <trkpt lat="49.68029" lon="-1.46619">
        <ele>48.5</ele>
        <time>2020-06-15T08:49:50Z</time>
      </trkpt>
      <trkpt lat="49.68029" lon="-1.4661">
        <ele>48.5</ele>
        <time>2020-06-15T08:49:51Z</time>
      </trkpt>
      <trkpt lat="49.68031" lon="-1.46602">
        <ele>48.5</ele>
        <time>2020-06-15T08:49:52Z</time>
      </trkpt>
      <trkpt lat="49.68031" lon="-1.46593">
        <ele>48.5</ele>
        <time>2020-06-15T08:49:53Z</time>
      </trkpt>
      <trkpt lat="49.68031" lon="-1.46584">
        <ele>48.5</ele>
        <time>2020-06-15T08:49:54Z</time>
      </trkpt>
      <trkpt lat="49.68031" lon="-1.46576">
        <ele>48.5</ele>
        <time>2020-06-15T08:49:55Z</time>
      </trkpt>
      <trkpt lat="49.68031" lon="-1.46566">
        <ele>48.4</ele>
        <time>2020-06-15T08:49:56Z</time>
      </trkpt>
      <trkpt lat="49.68031" lon="-1.46558">
        <ele>48.4</ele>
        <time>2020-06-15T08:49:57Z</time>
      </trkpt>
      <trkpt lat="49.68033" lon="-1.46549">
        <ele>48.4</ele>
        <time>2020-06-15T08:49:58Z</time>
      </trkpt>
      <trkpt lat="49.68034" lon="-1.4654">
        <ele>48.5</ele>
        <time>2020-06-15T08:49:59Z</time>
      </trkpt>
      <trkpt lat="49.68036" lon="-1.46531">
        <ele>48.5</ele>
        <time>2020-06-15T08:50:00Z</time>
      </trkpt>
      <trkpt lat="49.68036" lon="-1.46523">
        <ele>48.5</ele>
        <time>2020-06-15T08:50:01Z</time>
      </trkpt>
      <trkpt lat="49.68037" lon="-1.46514">
        <ele>48.5</ele>
        <time>2020-06-15T08:50:02Z</time>
      </trkpt>
      <trkpt lat="49.68038" lon="-1.46506">
        <ele>48.5</ele>
        <time>2020-06-15T08:50:03Z</time>
      </trkpt>
      <trkpt lat="49.68038" lon="-1.46498">
        <ele>48.6</ele>
        <time>2020-06-15T08:50:04Z</time>
      </trkpt>
      <trkpt lat="49.68038" lon="-1.46489">
        <ele>48.6</ele>
        <time>2020-06-15T08:50:05Z</time>
      </trkpt>
      <trkpt lat="49.6804" lon="-1.46481">
        <ele>48.6</ele>
        <time>2020-06-15T08:50:06Z</time>
      </trkpt>
      <trkpt lat="49.68041" lon="-1.46472">
        <ele>48.6</ele>
        <time>2020-06-15T08:50:07Z</time>
      </trkpt>
      <trkpt lat="49.68042" lon="-1.46464">
        <ele>48.7</ele>
        <time>2020-06-15T08:50:08Z</time>
      </trkpt>
      <trkpt lat="49.68044" lon="-1.46456">
        <ele>48.7</ele>
        <time>2020-06-15T08:50:09Z</time>
      </trkpt>
      <trkpt lat="49.68045" lon="-1.46448">
        <ele>48.8</ele>
        <time>2020-06-15T08:50:10Z</time>
      </trkpt>
      <trkpt lat="49.68046" lon="-1.4644">
        <ele>49</ele>
        <time>2020-06-15T08:50:11Z</time>
      </trkpt>
      <trkpt lat="49.68046" lon="-1.4643">
        <ele>49.1</ele>
        <time>2020-06-15T08:50:12Z</time>
      </trkpt>
      <trkpt lat="49.68047" lon="-1.46421">
        <ele>49.3</ele>
        <time>2020-06-15T08:50:13Z</time>
      </trkpt>
      <trkpt lat="49.68048" lon="-1.46411">
        <ele>49.5</ele>
        <time>2020-06-15T08:50:14Z</time>
      </trkpt>
      <trkpt lat="49.68049" lon="-1.46402">
        <ele>49.6</ele>
        <time>2020-06-15T08:50:15Z</time>
      </trkpt>
      <trkpt lat="49.6805" lon="-1.46393">
        <ele>49.7</ele>
        <time>2020-06-15T08:50:16Z</time>
      </trkpt>
      <trkpt lat="49.6805" lon="-1.46386">
        <ele>49.8</ele>
        <time>2020-06-15T08:50:17Z</time>
      </trkpt>
      <trkpt lat="49.68051" lon="-1.46378">
        <ele>50</ele>
        <time>2020-06-15T08:50:18Z</time>
      </trkpt>
      <trkpt lat="49.68052" lon="-1.4637">
        <ele>50.1</ele>
        <time>2020-06-15T08:50:19Z</time>
      </trkpt>
      <trkpt lat="49.68054" lon="-1.46363">
        <ele>50.3</ele>
        <time>2020-06-15T08:50:20Z</time>
      </trkpt>
      <trkpt lat="49.68054" lon="-1.46355">
        <ele>50.5</ele>
        <time>2020-06-15T08:50:21Z</time>
      </trkpt>
      <trkpt lat="49.68055" lon="-1.46347">
        <ele>50.7</ele>
        <time>2020-06-15T08:50:22Z</time>
      </trkpt>
      <trkpt lat="49.68056" lon="-1.46338">
        <ele>50.8</ele>
        <time>2020-06-15T08:50:23Z</time>
      </trkpt>
      <trkpt lat="49.68057" lon="-1.4633">
        <ele>51</ele>
        <time>2020-06-15T08:50:24Z</time>
      </trkpt>
      <trkpt lat="49.68058" lon="-1.46323">
        <ele>51.1</ele>
        <time>2020-06-15T08:50:25Z</time>
      </trkpt>
      <trkpt lat="49.68058" lon="-1.46316">
        <ele>51.2</ele>
        <time>2020-06-15T08:50:26Z</time>
      </trkpt>
      <trkpt lat="49.68059" lon="-1.46308">
        <ele>51.3</ele>
        <time>2020-06-15T08:50:27Z</time>
      </trkpt>
      <trkpt lat="49.6806" lon="-1.463">
        <ele>51.3</ele>
        <time>2020-06-15T08:50:28Z</time>
      </trkpt>
      <trkpt lat="49.68061" lon="-1.46293">
        <ele>51.4</ele>
        <time>2020-06-15T08:50:29Z</time>
      </trkpt>
      <trkpt lat="49.68061" lon="-1.46285">
        <ele>51.5</ele>
        <time>2020-06-15T08:50:30Z</time>
      </trkpt>
      <trkpt lat="49.68061" lon="-1.46278">
        <ele>51.5</ele>
        <time>2020-06-15T08:50:31Z</time>
      </trkpt>
      <trkpt lat="49.68062" lon="-1.4627">
        <ele>51.5</ele>
        <time>2020-06-15T08:50:32Z</time>
      </trkpt>
      <trkpt lat="49.68064" lon="-1.46262">
        <ele>51.5</ele>
        <time>2020-06-15T08:50:33Z</time>
      </trkpt>
      <trkpt lat="49.68065" lon="-1.46253">
        <ele>51.5</ele>
        <time>2020-06-15T08:50:34Z</time>
      </trkpt>
      <trkpt lat="49.68066" lon="-1.46245">
        <ele>51.6</ele>
        <time>2020-06-15T08:50:35Z</time>
      </trkpt>
      <trkpt lat="49.68065" lon="-1.46237">
        <ele>51.6</ele>
        <time>2020-06-15T08:50:36Z</time>
      </trkpt>
      <trkpt lat="49.68065" lon="-1.46228">
        <ele>51.6</ele>
        <time>2020-06-15T08:50:37Z</time>
      </trkpt>
      <trkpt lat="49.68065" lon="-1.46219">
        <ele>51.6</ele>
        <time>2020-06-15T08:50:38Z</time>
      </trkpt>
      <trkpt lat="49.68065" lon="-1.46209">
        <ele>51.5</ele>
        <time>2020-06-15T08:50:39Z</time>
      </trkpt>
      <trkpt lat="49.68066" lon="-1.46201">
        <ele>51.5</ele>
        <time>2020-06-15T08:50:40Z</time>
      </trkpt>
      <trkpt lat="49.68067" lon="-1.46193">
        <ele>51.5</ele>
        <time>2020-06-15T08:50:41Z</time>
      </trkpt>
      <trkpt lat="49.68069" lon="-1.46184">
        <ele>51.5</ele>
        <time>2020-06-15T08:50:42Z</time>
      </trkpt>
      <trkpt lat="49.68069" lon="-1.46175">
        <ele>51.4</ele>
        <time>2020-06-15T08:50:43Z</time>
      </trkpt>
      <trkpt lat="49.6807" lon="-1.46165">
        <ele>51.4</ele>
        <time>2020-06-15T08:50:44Z</time>
      </trkpt>
      <trkpt lat="49.6807" lon="-1.46156">
        <ele>51.3</ele>
        <time>2020-06-15T08:50:45Z</time>
      </trkpt>
      <trkpt lat="49.68071" lon="-1.46149">
        <ele>51.2</ele>
        <time>2020-06-15T08:50:46Z</time>
      </trkpt>
      <trkpt lat="49.68071" lon="-1.4614">
        <ele>51.1</ele>
        <time>2020-06-15T08:50:47Z</time>
      </trkpt>
      <trkpt lat="49.68072" lon="-1.46132">
        <ele>51</ele>
        <time>2020-06-15T08:50:48Z</time>
      </trkpt>
      <trkpt lat="49.68073" lon="-1.46123">
        <ele>50.9</ele>
        <time>2020-06-15T08:50:49Z</time>
      </trkpt>
      <trkpt lat="49.68074" lon="-1.46114">
        <ele>50.8</ele>
        <time>2020-06-15T08:50:50Z</time>
      </trkpt>
      <trkpt lat="49.68074" lon="-1.46105">
        <ele>50.6</ele>
        <time>2020-06-15T08:50:51Z</time>
      </trkpt>
      <trkpt lat="49.68075" lon="-1.46096">
        <ele>50.5</ele>
        <time>2020-06-15T08:50:52Z</time>
      </trkpt>
      <trkpt lat="49.68075" lon="-1.46087">
        <ele>50.4</ele>
        <time>2020-06-15T08:50:53Z</time>
      </trkpt>
      <trkpt lat="49.68075" lon="-1.46078">
        <ele>50.3</ele>
        <time>2020-06-15T08:50:54Z</time>
      </trkpt>
      <trkpt lat="49.68076" lon="-1.46069">
        <ele>50.2</ele>
        <time>2020-06-15T08:50:55Z</time>
      </trkpt>
      <trkpt lat="49.68076" lon="-1.4606">
        <ele>50.1</ele>
        <time>2020-06-15T08:50:56Z</time>
      </trkpt>
      <trkpt lat="49.68077" lon="-1.46049">
        <ele>50</ele>
        <time>2020-06-15T08:50:57Z</time>
      </trkpt>
      <trkpt lat="49.68078" lon="-1.46038">
        <ele>49.8</ele>
        <time>2020-06-15T08:50:58Z</time>
      </trkpt>
      <trkpt lat="49.68079" lon="-1.46027">
        <ele>49.6</ele>
        <time>2020-06-15T08:50:59Z</time>
      </trkpt>
      <trkpt lat="49.68079" lon="-1.46016">
        <ele>49.5</ele>
        <time>2020-06-15T08:51:00Z</time>
      </trkpt>
      <trkpt lat="49.6808" lon="-1.46005">
        <ele>49.3</ele>
        <time>2020-06-15T08:51:01Z</time>
      </trkpt>
      <trkpt lat="49.68081" lon="-1.45994">
        <ele>49.1</ele>
        <time>2020-06-15T08:51:02Z</time>
      </trkpt>
      <trkpt lat="49.68083" lon="-1.45985">
        <ele>49</ele>
        <time>2020-06-15T08:51:03Z</time>
      </trkpt>
      <trkpt lat="49.68084" lon="-1.45974">
        <ele>48.9</ele>
        <time>2020-06-15T08:51:04Z</time>
      </trkpt>
      <trkpt lat="49.68085" lon="-1.45964">
        <ele>48.8</ele>
        <time>2020-06-15T08:51:05Z</time>
      </trkpt>
      <trkpt lat="49.68086" lon="-1.45952">
        <ele>48.8</ele>
        <time>2020-06-15T08:51:06Z</time>
      </trkpt>
      <trkpt lat="49.68087" lon="-1.45942">
        <ele>48.7</ele>
        <time>2020-06-15T08:51:07Z</time>
      </trkpt>
      <trkpt lat="49.68088" lon="-1.45931">
        <ele>48.7</ele>
        <time>2020-06-15T08:51:08Z</time>
      </trkpt>
      <trkpt lat="49.68088" lon="-1.45922">
        <ele>48.7</ele>
        <time>2020-06-15T08:51:09Z</time>
      </trkpt>
      <trkpt lat="49.68089" lon="-1.45912">
        <ele>48.7</ele>
        <time>2020-06-15T08:51:10Z</time>
      </trkpt>
      <trkpt lat="49.6809" lon="-1.45901">
        <ele>48.8</ele>
        <time>2020-06-15T08:51:11Z</time>
      </trkpt>
      <trkpt lat="49.6809" lon="-1.45892">
        <ele>48.8</ele>
        <time>2020-06-15T08:51:12Z</time>
      </trkpt>
      <trkpt lat="49.6809" lon="-1.45882">
        <ele>48.9</ele>
        <time>2020-06-15T08:51:13Z</time>
      </trkpt>
      <trkpt lat="49.6809" lon="-1.45872">
        <ele>48.9</ele>
        <time>2020-06-15T08:51:14Z</time>
      </trkpt>
      <trkpt lat="49.68091" lon="-1.45863">
        <ele>49</ele>
        <time>2020-06-15T08:51:15Z</time>
      </trkpt>
      <trkpt lat="49.68092" lon="-1.45853">
        <ele>49</ele>
        <time>2020-06-15T08:51:16Z</time>
      </trkpt>
      <trkpt lat="49.68093" lon="-1.45844">
        <ele>49.1</ele>
        <time>2020-06-15T08:51:17Z</time>
      </trkpt>
      <trkpt lat="49.68094" lon="-1.45834">
        <ele>49.1</ele>
        <time>2020-06-15T08:51:18Z</time>
      </trkpt>
      <trkpt lat="49.68095" lon="-1.45825">
        <ele>49.2</ele>
        <time>2020-06-15T08:51:19Z</time>
      </trkpt>
      <trkpt lat="49.68096" lon="-1.45816">
        <ele>49.2</ele>
        <time>2020-06-15T08:51:20Z</time>
      </trkpt>
      <trkpt lat="49.68097" lon="-1.45807">
        <ele>49.2</ele>
        <time>2020-06-15T08:51:21Z</time>
      </trkpt>
      <trkpt lat="49.68098" lon="-1.45798">
        <ele>49.2</ele>
        <time>2020-06-15T08:51:22Z</time>
      </trkpt>
      <trkpt lat="49.68099" lon="-1.45789">
        <ele>49.2</ele>
        <time>2020-06-15T08:51:23Z</time>
      </trkpt>
      <trkpt lat="49.681" lon="-1.45781">
        <ele>49.2</ele>
        <time>2020-06-15T08:51:24Z</time>
      </trkpt>
      <trkpt lat="49.68101" lon="-1.45772">
        <ele>49.2</ele>
        <time>2020-06-15T08:51:25Z</time>
      </trkpt>
      <trkpt lat="49.68102" lon="-1.45764">
        <ele>49.2</ele>
        <time>2020-06-15T08:51:26Z</time>
      </trkpt>
      <trkpt lat="49.68103" lon="-1.45756">
        <ele>49.2</ele>
        <time>2020-06-15T08:51:27Z</time>
      </trkpt>
      <trkpt lat="49.68104" lon="-1.45747">
        <ele>49.2</ele>
        <time>2020-06-15T08:51:28Z</time>
      </trkpt>
      <trkpt lat="49.68104" lon="-1.45738">
        <ele>49.2</ele>
        <time>2020-06-15T08:51:29Z</time>
      </trkpt>
      <trkpt lat="49.68105" lon="-1.4573">
        <ele>49.2</ele>
        <time>2020-06-15T08:51:30Z</time>
      </trkpt>
      <trkpt lat="49.68105" lon="-1.45721">
        <ele>49.2</ele>
        <time>2020-06-15T08:51:31Z</time>
      </trkpt>
      <trkpt lat="49.68106" lon="-1.45713">
        <ele>49.2</ele>
        <time>2020-06-15T08:51:32Z</time>
      </trkpt>
      <trkpt lat="49.68107" lon="-1.45705">
        <ele>49.2</ele>
        <time>2020-06-15T08:51:33Z</time>
      </trkpt>
      <trkpt lat="49.68107" lon="-1.45696">
        <ele>49.2</ele>
        <time>2020-06-15T08:51:34Z</time>
      </trkpt>
      <trkpt lat="49.68108" lon="-1.45688">
        <ele>49.2</ele>
        <time>2020-06-15T08:51:35Z</time>
      </trkpt>
      <trkpt lat="49.6811" lon="-1.4568">
        <ele>49.1</ele>
        <time>2020-06-15T08:51:36Z</time>
      </trkpt>
      <trkpt lat="49.68112" lon="-1.45672">
        <ele>49.1</ele>
        <time>2020-06-15T08:51:37Z</time>
      </trkpt>
      <trkpt lat="49.68114" lon="-1.45665">
        <ele>49.1</ele>
        <time>2020-06-15T08:51:38Z</time>
      </trkpt>
      <trkpt lat="49.68115" lon="-1.45656">
        <ele>49.1</ele>
        <time>2020-06-15T08:51:39Z</time>
      </trkpt>
      <trkpt lat="49.68116" lon="-1.45648">
        <ele>49.1</ele>
        <time>2020-06-15T08:51:40Z</time>
      </trkpt>
      <trkpt lat="49.68119" lon="-1.4564">
        <ele>49</ele>
        <time>2020-06-15T08:51:41Z</time>
      </trkpt>
      <trkpt lat="49.68121" lon="-1.45632">
        <ele>48.9</ele>
        <time>2020-06-15T08:51:42Z</time>
      </trkpt>
      <trkpt lat="49.68124" lon="-1.45625">
        <ele>48.8</ele>
        <time>2020-06-15T08:51:43Z</time>
      </trkpt>
      <trkpt lat="49.68128" lon="-1.45618">
        <ele>48.7</ele>
        <time>2020-06-15T08:51:44Z</time>
      </trkpt>
      <trkpt lat="49.68131" lon="-1.45611">
        <ele>48.5</ele>
        <time>2020-06-15T08:51:45Z</time>
      </trkpt>
      <trkpt lat="49.68135" lon="-1.45603">
        <ele>48.4</ele>
        <time>2020-06-15T08:51:46Z</time>
      </trkpt>
      <trkpt lat="49.6814" lon="-1.45596">
        <ele>48.2</ele>
        <time>2020-06-15T08:51:47Z</time>
      </trkpt>
      <trkpt lat="49.68144" lon="-1.45589">
        <ele>48.1</ele>
        <time>2020-06-15T08:51:48Z</time>
      </trkpt>
      <trkpt lat="49.68149" lon="-1.45582">
        <ele>47.9</ele>
        <time>2020-06-15T08:51:49Z</time>
      </trkpt>
      <trkpt lat="49.68153" lon="-1.45574">
        <ele>47.8</ele>
        <time>2020-06-15T08:51:50Z</time>
      </trkpt>
      <trkpt lat="49.68158" lon="-1.45567">
        <ele>47.6</ele>
        <time>2020-06-15T08:51:51Z</time>
      </trkpt>
      <trkpt lat="49.68163" lon="-1.4556">
        <ele>47.4</ele>
        <time>2020-06-15T08:51:52Z</time>
      </trkpt>
      <trkpt lat="49.68168" lon="-1.45553">
        <ele>47.2</ele>
        <time>2020-06-15T08:51:53Z</time>
      </trkpt>
      <trkpt lat="49.68172" lon="-1.45547">
        <ele>47</ele>
        <time>2020-06-15T08:51:54Z</time>
      </trkpt>
      <trkpt lat="49.68178" lon="-1.45541">
        <ele>46.8</ele>
        <time>2020-06-15T08:51:55Z</time>
      </trkpt>
      <trkpt lat="49.68183" lon="-1.45535">
        <ele>46.5</ele>
        <time>2020-06-15T08:51:56Z</time>
      </trkpt>
      <trkpt lat="49.68189" lon="-1.4553">
        <ele>46.2</ele>
        <time>2020-06-15T08:51:57Z</time>
      </trkpt>
      <trkpt lat="49.68196" lon="-1.45524">
        <ele>46</ele>
        <time>2020-06-15T08:51:58Z</time>
      </trkpt>
      <trkpt lat="49.68202" lon="-1.45519">
        <ele>45.7</ele>
        <time>2020-06-15T08:51:59Z</time>
      </trkpt>
      <trkpt lat="49.68208" lon="-1.45514">
        <ele>45.5</ele>
        <time>2020-06-15T08:52:00Z</time>
      </trkpt>
      <trkpt lat="49.68215" lon="-1.45508">
        <ele>45.3</ele>
        <time>2020-06-15T08:52:01Z</time>
      </trkpt>
      <trkpt lat="49.68221" lon="-1.45503">
        <ele>45</ele>
        <time>2020-06-15T08:52:02Z</time>
      </trkpt>
      <trkpt lat="49.68227" lon="-1.45498">
        <ele>44.8</ele>
        <time>2020-06-15T08:52:03Z</time>
      </trkpt>
      <trkpt lat="49.68234" lon="-1.45492">
        <ele>44.6</ele>
        <time>2020-06-15T08:52:04Z</time>
      </trkpt>
      <trkpt lat="49.6824" lon="-1.45486">
        <ele>44.4</ele>
        <time>2020-06-15T08:52:05Z</time>
      </trkpt>
      <trkpt lat="49.68246" lon="-1.45481">
        <ele>44.2</ele>
        <time>2020-06-15T08:52:06Z</time>
      </trkpt>
      <trkpt lat="49.68252" lon="-1.45475">
        <ele>44</ele>
        <time>2020-06-15T08:52:07Z</time>
      </trkpt>
      <trkpt lat="49.68258" lon="-1.45469">
        <ele>43.9</ele>
        <time>2020-06-15T08:52:08Z</time>
      </trkpt>
      <trkpt lat="49.68264" lon="-1.45464">
        <ele>43.8</ele>
        <time>2020-06-15T08:52:09Z</time>
      </trkpt>
      <trkpt lat="49.6827" lon="-1.45459">
        <ele>43.7</ele>
        <time>2020-06-15T08:52:10Z</time>
      </trkpt>
      <trkpt lat="49.68277" lon="-1.45456">
        <ele>43.4</ele>
        <time>2020-06-15T08:52:11Z</time>
      </trkpt>
      <trkpt lat="49.68283" lon="-1.45452">
        <ele>43.3</ele>
        <time>2020-06-15T08:52:12Z</time>
      </trkpt>
      <trkpt lat="49.6829" lon="-1.4545">
        <ele>43.2</ele>
        <time>2020-06-15T08:52:13Z</time>
      </trkpt>
      <trkpt lat="49.68296" lon="-1.45448">
        <ele>43.1</ele>
        <time>2020-06-15T08:52:14Z</time>
      </trkpt>
      <trkpt lat="49.68303" lon="-1.45446">
        <ele>43.1</ele>
        <time>2020-06-15T08:52:15Z</time>
      </trkpt>
      <trkpt lat="49.68309" lon="-1.45444">
        <ele>43</ele>
        <time>2020-06-15T08:52:16Z</time>
      </trkpt>
      <trkpt lat="49.68316" lon="-1.45442">
        <ele>43</ele>
        <time>2020-06-15T08:52:17Z</time>
      </trkpt>
      <trkpt lat="49.68323" lon="-1.4544">
        <ele>42.9</ele>
        <time>2020-06-15T08:52:18Z</time>
      </trkpt>
      <trkpt lat="49.6833" lon="-1.45437">
        <ele>42.9</ele>
        <time>2020-06-15T08:52:19Z</time>
      </trkpt>
      <trkpt lat="49.68337" lon="-1.45435">
        <ele>42.9</ele>
        <time>2020-06-15T08:52:20Z</time>
      </trkpt>
      <trkpt lat="49.68344" lon="-1.45433">
        <ele>42.8</ele>
        <time>2020-06-15T08:52:21Z</time>
      </trkpt>
      <trkpt lat="49.6835" lon="-1.45429">
        <ele>42.8</ele>
        <time>2020-06-15T08:52:22Z</time>
      </trkpt>
      <trkpt lat="49.68357" lon="-1.45426">
        <ele>42.7</ele>
        <time>2020-06-15T08:52:23Z</time>
      </trkpt>
      <trkpt lat="49.68363" lon="-1.45422">
        <ele>42.7</ele>
        <time>2020-06-15T08:52:24Z</time>
      </trkpt>
      <trkpt lat="49.68369" lon="-1.45419">
        <ele>42.6</ele>
        <time>2020-06-15T08:52:25Z</time>
      </trkpt>
      <trkpt lat="49.68375" lon="-1.45413">
        <ele>42.5</ele>
        <time>2020-06-15T08:52:26Z</time>
      </trkpt>
      <trkpt lat="49.68382" lon="-1.45407">
        <ele>42.5</ele>
        <time>2020-06-15T08:52:27Z</time>
      </trkpt>
      <trkpt lat="49.68387" lon="-1.454">
        <ele>42.4</ele>
        <time>2020-06-15T08:52:28Z</time>
      </trkpt>
      <trkpt lat="49.68393" lon="-1.45393">
        <ele>42.3</ele>
        <time>2020-06-15T08:52:29Z</time>
      </trkpt>
      <trkpt lat="49.68398" lon="-1.45385">
        <ele>42.3</ele>
        <time>2020-06-15T08:52:30Z</time>
      </trkpt>
      <trkpt lat="49.68403" lon="-1.45377">
        <ele>42.2</ele>
        <time>2020-06-15T08:52:31Z</time>
      </trkpt>
      <trkpt lat="49.68408" lon="-1.45369">
        <ele>42.2</ele>
        <time>2020-06-15T08:52:32Z</time>
      </trkpt>
      <trkpt lat="49.68412" lon="-1.45361">
        <ele>42.1</ele>
        <time>2020-06-15T08:52:33Z</time>
      </trkpt>
      <trkpt lat="49.68417" lon="-1.45352">
        <ele>42.1</ele>
        <time>2020-06-15T08:52:34Z</time>
      </trkpt>
      <trkpt lat="49.6842" lon="-1.45343">
        <ele>42.1</ele>
        <time>2020-06-15T08:52:35Z</time>
      </trkpt>
      <trkpt lat="49.68423" lon="-1.45334">
        <ele>42.1</ele>
        <time>2020-06-15T08:52:36Z</time>
      </trkpt>
      <trkpt lat="49.68426" lon="-1.45325">
        <ele>42.1</ele>
        <time>2020-06-15T08:52:37Z</time>
      </trkpt>
      <trkpt lat="49.68429" lon="-1.45316">
        <ele>42.1</ele>
        <time>2020-06-15T08:52:38Z</time>
      </trkpt>
      <trkpt lat="49.68431" lon="-1.45308">
        <ele>42</ele>
        <time>2020-06-15T08:52:39Z</time>
      </trkpt>
      <trkpt lat="49.68434" lon="-1.45299">
        <ele>42</ele>
        <time>2020-06-15T08:52:40Z</time>
      </trkpt>
      <trkpt lat="49.68436" lon="-1.45291">
        <ele>41.9</ele>
        <time>2020-06-15T08:52:41Z</time>
      </trkpt>
      <trkpt lat="49.68437" lon="-1.45282">
        <ele>41.7</ele>
        <time>2020-06-15T08:52:42Z</time>
      </trkpt>
      <trkpt lat="49.68439" lon="-1.45274">
        <ele>41.6</ele>
        <time>2020-06-15T08:52:43Z</time>
      </trkpt>
      <trkpt lat="49.6844" lon="-1.45266">
        <ele>41.4</ele>
        <time>2020-06-15T08:52:44Z</time>
      </trkpt>
      <trkpt lat="49.68442" lon="-1.45257">
        <ele>41.2</ele>
        <time>2020-06-15T08:52:45Z</time>
      </trkpt>
      <trkpt lat="49.68443" lon="-1.45248">
        <ele>40.9</ele>
        <time>2020-06-15T08:52:46Z</time>
      </trkpt>
      <trkpt lat="49.68444" lon="-1.45238">
        <ele>40.5</ele>
        <time>2020-06-15T08:52:47Z</time>
      </trkpt>
      <trkpt lat="49.68443" lon="-1.45227">
        <ele>40.1</ele>
        <time>2020-06-15T08:52:48Z</time>
      </trkpt>
      <trkpt lat="49.68444" lon="-1.45217">
        <ele>39.6</ele>
        <time>2020-06-15T08:52:49Z</time>
      </trkpt>
      <trkpt lat="49.68444" lon="-1.45205">
        <ele>39.1</ele>
        <time>2020-06-15T08:52:50Z</time>
      </trkpt>
      <trkpt lat="49.68445" lon="-1.45194">
        <ele>38.4</ele>
        <time>2020-06-15T08:52:51Z</time>
      </trkpt>
      <trkpt lat="49.68446" lon="-1.45184">
        <ele>37.7</ele>
        <time>2020-06-15T08:52:52Z</time>
      </trkpt>
      <trkpt lat="49.68447" lon="-1.45173">
        <ele>36.9</ele>
        <time>2020-06-15T08:52:53Z</time>
      </trkpt>
      <trkpt lat="49.68448" lon="-1.45161">
        <ele>36.1</ele>
        <time>2020-06-15T08:52:54Z</time>
      </trkpt>
      <trkpt lat="49.68449" lon="-1.45149">
        <ele>35.2</ele>
        <time>2020-06-15T08:52:55Z</time>
      </trkpt>
      <trkpt lat="49.68448" lon="-1.45136">
        <ele>34.1</ele>
        <time>2020-06-15T08:52:56Z</time>
      </trkpt>
      <trkpt lat="49.68447" lon="-1.45121">
        <ele>33</ele>
        <time>2020-06-15T08:52:57Z</time>
      </trkpt>
      <trkpt lat="49.68447" lon="-1.45107">
        <ele>31.9</ele>
        <time>2020-06-15T08:52:58Z</time>
      </trkpt>
      <trkpt lat="49.68446" lon="-1.45091">
        <ele>30.7</ele>
        <time>2020-06-15T08:52:59Z</time>
      </trkpt>
      <trkpt lat="49.68446" lon="-1.45075">
        <ele>29.5</ele>
        <time>2020-06-15T08:53:00Z</time>
      </trkpt>
      <trkpt lat="49.68446" lon="-1.45059">
        <ele>28.4</ele>
        <time>2020-06-15T08:53:01Z</time>
      </trkpt>
      <trkpt lat="49.68446" lon="-1.45042">
        <ele>27.3</ele>
        <time>2020-06-15T08:53:02Z</time>
      </trkpt>
      <trkpt lat="49.68445" lon="-1.45026">
        <ele>26.2</ele>
        <time>2020-06-15T08:53:03Z</time>
      </trkpt>
      <trkpt lat="49.68444" lon="-1.4501">
        <ele>25</ele>
        <time>2020-06-15T08:53:04Z</time>
      </trkpt>
      <trkpt lat="49.6844" lon="-1.44995">
        <ele>23.9</ele>
        <time>2020-06-15T08:53:05Z</time>
      </trkpt>
      <trkpt lat="49.68434" lon="-1.44982">
        <ele>22.8</ele>
        <time>2020-06-15T08:53:06Z</time>
      </trkpt>
      <trkpt lat="49.68426" lon="-1.4497">
        <ele>21.8</ele>
        <time>2020-06-15T08:53:07Z</time>
      </trkpt>
      <trkpt lat="49.68418" lon="-1.4496">
        <ele>20.8</ele>
        <time>2020-06-15T08:53:08Z</time>
      </trkpt>
      <trkpt lat="49.68409" lon="-1.44952">
        <ele>19.9</ele>
        <time>2020-06-15T08:53:09Z</time>
      </trkpt>
      <trkpt lat="49.68399" lon="-1.44943">
        <ele>19</ele>
        <time>2020-06-15T08:53:10Z</time>
      </trkpt>
      <trkpt lat="49.68389" lon="-1.44936">
        <ele>18</ele>
        <time>2020-06-15T08:53:11Z</time>
      </trkpt>
      <trkpt lat="49.68379" lon="-1.44929">
        <ele>17</ele>
        <time>2020-06-15T08:53:12Z</time>
      </trkpt>
      <trkpt lat="49.6837" lon="-1.44922">
        <ele>16</ele>
        <time>2020-06-15T08:53:13Z</time>
      </trkpt>
      <trkpt lat="49.68361" lon="-1.44912">
        <ele>14.9</ele>
        <time>2020-06-15T08:53:14Z</time>
      </trkpt>
      <trkpt lat="49.68352" lon="-1.44902">
        <ele>13.7</ele>
        <time>2020-06-15T08:53:15Z</time>
      </trkpt>
      <trkpt lat="49.68344" lon="-1.44889">
        <ele>12.3</ele>
        <time>2020-06-15T08:53:16Z</time>
      </trkpt>
      <trkpt lat="49.68337" lon="-1.44875">
        <ele>11</ele>
        <time>2020-06-15T08:53:17Z</time>
      </trkpt>
      <trkpt lat="49.68328" lon="-1.44862">
        <ele>9.8</ele>
        <time>2020-06-15T08:53:18Z</time>
      </trkpt>
      <trkpt lat="49.68321" lon="-1.44849">
        <ele>8.8</ele>
        <time>2020-06-15T08:53:19Z</time>
      </trkpt>
      <trkpt lat="49.68313" lon="-1.44835">
        <ele>7.8</ele>
        <time>2020-06-15T08:53:20Z</time>
      </trkpt>
      <trkpt lat="49.68308" lon="-1.4482">
        <ele>7.1</ele>
        <time>2020-06-15T08:53:21Z</time>
      </trkpt>
      <trkpt lat="49.683" lon="-1.44807">
        <ele>6.4</ele>
        <time>2020-06-15T08:53:22Z</time>
      </trkpt>
      <trkpt lat="49.68294" lon="-1.44793">
        <ele>5.9</ele>
        <time>2020-06-15T08:53:23Z</time>
      </trkpt>
      <trkpt lat="49.68288" lon="-1.44779">
        <ele>5.4</ele>
        <time>2020-06-15T08:53:24Z</time>
      </trkpt>
      <trkpt lat="49.68282" lon="-1.44765">
        <ele>5</ele>
        <time>2020-06-15T08:53:25Z</time>
      </trkpt>
      <trkpt lat="49.68279" lon="-1.4475">
        <ele>4.8</ele>
        <time>2020-06-15T08:53:26Z</time>
      </trkpt>
      <trkpt lat="49.68277" lon="-1.44736">
        <ele>4.8</ele>
        <time>2020-06-15T08:53:27Z</time>
      </trkpt>
      <trkpt lat="49.68275" lon="-1.44723">
        <ele>4.9</ele>
        <time>2020-06-15T08:53:28Z</time>
      </trkpt>
      <trkpt lat="49.68275" lon="-1.4471">
        <ele>5.1</ele>
        <time>2020-06-15T08:53:29Z</time>
      </trkpt>
      <trkpt lat="49.68276" lon="-1.44698">
        <ele>5.3</ele>
        <time>2020-06-15T08:53:30Z</time>
      </trkpt>
      <trkpt lat="49.68278" lon="-1.44687">
        <ele>5.4</ele>
        <time>2020-06-15T08:53:31Z</time>
      </trkpt>
      <trkpt lat="49.68281" lon="-1.44678">
        <ele>5.6</ele>
        <time>2020-06-15T08:53:32Z</time>
      </trkpt>
      <trkpt lat="49.68284" lon="-1.44669">
        <ele>5.7</ele>
        <time>2020-06-15T08:53:33Z</time>
      </trkpt>
      <trkpt lat="49.68289" lon="-1.44661">
        <ele>5.9</ele>
        <time>2020-06-15T08:53:34Z</time>
      </trkpt>
      <trkpt lat="49.68292" lon="-1.44653">
        <ele>6.1</ele>
        <time>2020-06-15T08:53:35Z</time>
      </trkpt>
      <trkpt lat="49.68296" lon="-1.44645">
        <ele>6.4</ele>
        <time>2020-06-15T08:53:36Z</time>
      </trkpt>
      <trkpt lat="49.683" lon="-1.44638">
        <ele>6.7</ele>
        <time>2020-06-15T08:53:37Z</time>
      </trkpt>
      <trkpt lat="49.68303" lon="-1.44631">
        <ele>7.1</ele>
        <time>2020-06-15T08:53:38Z</time>
      </trkpt>
      <trkpt lat="49.68307" lon="-1.44624">
        <ele>7.5</ele>
        <time>2020-06-15T08:53:39Z</time>
      </trkpt>
      <trkpt lat="49.68311" lon="-1.44618">
        <ele>7.9</ele>
        <time>2020-06-15T08:53:40Z</time>
      </trkpt>
      <trkpt lat="49.68315" lon="-1.44612">
        <ele>8.3</ele>
        <time>2020-06-15T08:53:41Z</time>
      </trkpt>
      <trkpt lat="49.68318" lon="-1.44606">
        <ele>8.7</ele>
        <time>2020-06-15T08:53:42Z</time>
      </trkpt>
      <trkpt lat="49.68321" lon="-1.446">
        <ele>9.1</ele>
        <time>2020-06-15T08:53:43Z</time>
      </trkpt>
      <trkpt lat="49.68324" lon="-1.44595">
        <ele>9.5</ele>
        <time>2020-06-15T08:53:44Z</time>
      </trkpt>
      <trkpt lat="49.68327" lon="-1.4459">
        <ele>9.9</ele>
        <time>2020-06-15T08:53:45Z</time>
      </trkpt>
      <trkpt lat="49.68329" lon="-1.44585">
        <ele>10.3</ele>
        <time>2020-06-15T08:53:46Z</time>
      </trkpt>
      <trkpt lat="49.68332" lon="-1.4458">
        <ele>10.6</ele>
        <time>2020-06-15T08:53:47Z</time>
      </trkpt>
      <trkpt lat="49.68334" lon="-1.44575">
        <ele>11</ele>
        <time>2020-06-15T08:53:48Z</time>
      </trkpt>
      <trkpt lat="49.68336" lon="-1.4457">
        <ele>11.4</ele>
        <time>2020-06-15T08:53:49Z</time>
      </trkpt>
      <trkpt lat="49.68339" lon="-1.44565">
        <ele>11.8</ele>
        <time>2020-06-15T08:53:50Z</time>
      </trkpt>
      <trkpt lat="49.68341" lon="-1.44561">
        <ele>12.1</ele>
        <time>2020-06-15T08:53:51Z</time>
      </trkpt>
      <trkpt lat="49.68344" lon="-1.44557">
        <ele>12.5</ele>
        <time>2020-06-15T08:53:52Z</time>
      </trkpt>
      <trkpt lat="49.68346" lon="-1.44552">
        <ele>12.8</ele>
        <time>2020-06-15T08:53:53Z</time>
      </trkpt>
      <trkpt lat="49.68348" lon="-1.44548">
        <ele>13.2</ele>
        <time>2020-06-15T08:53:54Z</time>
      </trkpt>
      <trkpt lat="49.6835" lon="-1.44544">
        <ele>13.5</ele>
        <time>2020-06-15T08:53:55Z</time>
      </trkpt>
      <trkpt lat="49.68353" lon="-1.44541">
        <ele>13.8</ele>
        <time>2020-06-15T08:53:56Z</time>
      </trkpt>
      <trkpt lat="49.68354" lon="-1.44536">
        <ele>14.1</ele>
        <time>2020-06-15T08:53:57Z</time>
      </trkpt>
      <trkpt lat="49.68357" lon="-1.44531">
        <ele>14.5</ele>
        <time>2020-06-15T08:53:58Z</time>
      </trkpt>
      <trkpt lat="49.68359" lon="-1.44527">
        <ele>14.8</ele>
        <time>2020-06-15T08:53:59Z</time>
      </trkpt>
      <trkpt lat="49.68362" lon="-1.44524">
        <ele>15.1</ele>
        <time>2020-06-15T08:54:00Z</time>
      </trkpt>
      <trkpt lat="49.68363" lon="-1.44523">
        <ele>15.2</ele>
        <time>2020-06-15T08:54:01Z</time>
      </trkpt>
      <trkpt lat="49.68366" lon="-1.44518">
        <ele>15.5</ele>
        <time>2020-06-15T08:54:02Z</time>
      </trkpt>
      <trkpt lat="49.68367" lon="-1.44516">
        <ele>15.7</ele>
        <time>2020-06-15T08:54:03Z</time>
      </trkpt>
      <trkpt lat="49.6837" lon="-1.44511">
        <ele>16.1</ele>
        <time>2020-06-15T08:54:04Z</time>
      </trkpt>
      <trkpt lat="49.68371" lon="-1.44508">
        <ele>16.3</ele>
        <time>2020-06-15T08:54:05Z</time>
      </trkpt>
      <trkpt lat="49.68375" lon="-1.44503">
        <ele>16.6</ele>
        <time>2020-06-15T08:54:06Z</time>
      </trkpt>
      <trkpt lat="49.68377" lon="-1.44499">
        <ele>16.9</ele>
        <time>2020-06-15T08:54:07Z</time>
      </trkpt>
      <trkpt lat="49.6838" lon="-1.44495">
        <ele>17.3</ele>
        <time>2020-06-15T08:54:08Z</time>
      </trkpt>
      <trkpt lat="49.68382" lon="-1.44491">
        <ele>17.6</ele>
        <time>2020-06-15T08:54:09Z</time>
      </trkpt>
      <trkpt lat="49.68385" lon="-1.44488">
        <ele>17.8</ele>
        <time>2020-06-15T08:54:10Z</time>
      </trkpt>
      <trkpt lat="49.68387" lon="-1.44484">
        <ele>18.1</ele>
        <time>2020-06-15T08:54:11Z</time>
      </trkpt>
      <trkpt lat="49.6839" lon="-1.44481">
        <ele>18.4</ele>
        <time>2020-06-15T08:54:12Z</time>
      </trkpt>
      <trkpt lat="49.68392" lon="-1.44478">
        <ele>18.6</ele>
        <time>2020-06-15T08:54:13Z</time>
      </trkpt>
      <trkpt lat="49.68395" lon="-1.44473">
        <ele>18.9</ele>
        <time>2020-06-15T08:54:14Z</time>
      </trkpt>
      <trkpt lat="49.68398" lon="-1.44469">
        <ele>19.2</ele>
        <time>2020-06-15T08:54:15Z</time>
      </trkpt>
      <trkpt lat="49.68401" lon="-1.44465">
        <ele>19.5</ele>
        <time>2020-06-15T08:54:16Z</time>
      </trkpt>
      <trkpt lat="49.68403" lon="-1.44461">
        <ele>19.7</ele>
        <time>2020-06-15T08:54:17Z</time>
      </trkpt>
      <trkpt lat="49.68406" lon="-1.44457">
        <ele>19.9</ele>
        <time>2020-06-15T08:54:18Z</time>
      </trkpt>
      <trkpt lat="49.6841" lon="-1.44452">
        <ele>20.3</ele>
        <time>2020-06-15T08:54:19Z</time>
      </trkpt>
      <trkpt lat="49.68413" lon="-1.44451">
        <ele>20.4</ele>
        <time>2020-06-15T08:54:20Z</time>
      </trkpt>
      <trkpt lat="49.68415" lon="-1.44451">
        <ele>20.5</ele>
        <time>2020-06-15T08:54:21Z</time>
      </trkpt>
      <trkpt lat="49.68418" lon="-1.44446">
        <ele>20.8</ele>
        <time>2020-06-15T08:54:22Z</time>
      </trkpt>
      <trkpt lat="49.6842" lon="-1.44443">
        <ele>21</ele>
        <time>2020-06-15T08:54:23Z</time>
      </trkpt>
      <trkpt lat="49.68423" lon="-1.4444">
        <ele>21.2</ele>
        <time>2020-06-15T08:54:24Z</time>
      </trkpt>
      <trkpt lat="49.68425" lon="-1.44437">
        <ele>21.4</ele>
        <time>2020-06-15T08:54:25Z</time>
      </trkpt>
      <trkpt lat="49.68426" lon="-1.44436">
        <ele>21.5</ele>
        <time>2020-06-15T08:54:26Z</time>
      </trkpt>
      <trkpt lat="49.6843" lon="-1.44432">
        <ele>21.8</ele>
        <time>2020-06-15T08:54:27Z</time>
      </trkpt>
      <trkpt lat="49.68432" lon="-1.44428">
        <ele>22</ele>
        <time>2020-06-15T08:54:28Z</time>
      </trkpt>
      <trkpt lat="49.68436" lon="-1.44426">
        <ele>22.3</ele>
        <time>2020-06-15T08:54:29Z</time>
      </trkpt>
      <trkpt lat="49.68439" lon="-1.44422">
        <ele>22.5</ele>
        <time>2020-06-15T08:54:30Z</time>
      </trkpt>
      <trkpt lat="49.68442" lon="-1.44419">
        <ele>22.8</ele>
        <time>2020-06-15T08:54:31Z</time>
      </trkpt>
      <trkpt lat="49.68445" lon="-1.44416">
        <ele>23.1</ele>
        <time>2020-06-15T08:54:32Z</time>
      </trkpt>
      <trkpt lat="49.68448" lon="-1.44413">
        <ele>23.3</ele>
        <time>2020-06-15T08:54:33Z</time>
      </trkpt>
      <trkpt lat="49.68451" lon="-1.44409">
        <ele>23.6</ele>
        <time>2020-06-15T08:54:34Z</time>
      </trkpt>
      <trkpt lat="49.68454" lon="-1.44406">
        <ele>23.8</ele>
        <time>2020-06-15T08:54:35Z</time>
      </trkpt>
      <trkpt lat="49.68456" lon="-1.44402">
        <ele>24</ele>
        <time>2020-06-15T08:54:36Z</time>
      </trkpt>
      <trkpt lat="49.68459" lon="-1.44398">
        <ele>24.3</ele>
        <time>2020-06-15T08:54:37Z</time>
      </trkpt>
      <trkpt lat="49.68462" lon="-1.44395">
        <ele>24.5</ele>
        <time>2020-06-15T08:54:38Z</time>
      </trkpt>
      <trkpt lat="49.68463" lon="-1.44394">
        <ele>24.6</ele>
        <time>2020-06-15T08:54:39Z</time>
      </trkpt>
      <trkpt lat="49.68466" lon="-1.4439">
        <ele>24.8</ele>
        <time>2020-06-15T08:54:40Z</time>
      </trkpt>
      <trkpt lat="49.68468" lon="-1.44388">
        <ele>25</ele>
        <time>2020-06-15T08:54:41Z</time>
      </trkpt>
      <trkpt lat="49.68471" lon="-1.44385">
        <ele>25.2</ele>
        <time>2020-06-15T08:54:42Z</time>
      </trkpt>
      <trkpt lat="49.68473" lon="-1.44382">
        <ele>25.4</ele>
        <time>2020-06-15T08:54:43Z</time>
      </trkpt>
      <trkpt lat="49.68477" lon="-1.44379">
        <ele>25.7</ele>
        <time>2020-06-15T08:54:44Z</time>
      </trkpt>
      <trkpt lat="49.68478" lon="-1.44378">
        <ele>25.7</ele>
        <time>2020-06-15T08:54:45Z</time>
      </trkpt>
      <trkpt lat="49.68481" lon="-1.44376">
        <ele>25.9</ele>
        <time>2020-06-15T08:54:46Z</time>
      </trkpt>
      <trkpt lat="49.68482" lon="-1.44375">
        <ele>26</ele>
        <time>2020-06-15T08:54:47Z</time>
      </trkpt>
      <trkpt lat="49.68485" lon="-1.44371">
        <ele>26.2</ele>
        <time>2020-06-15T08:54:48Z</time>
      </trkpt>
      <trkpt lat="49.68488" lon="-1.44367">
        <ele>26.4</ele>
        <time>2020-06-15T08:54:49Z</time>
      </trkpt>
      <trkpt lat="49.68491" lon="-1.44365">
        <ele>26.5</ele>
        <time>2020-06-15T08:54:50Z</time>
      </trkpt>
      <trkpt lat="49.68493" lon="-1.44363">
        <ele>26.6</ele>
        <time>2020-06-15T08:54:51Z</time>
      </trkpt>
      <trkpt lat="49.68495" lon="-1.44361">
        <ele>26.7</ele>
        <time>2020-06-15T08:54:52Z</time>
      </trkpt>
      <trkpt lat="49.68498" lon="-1.44359">
        <ele>26.8</ele>
        <time>2020-06-15T08:54:53Z</time>
      </trkpt>
      <trkpt lat="49.685" lon="-1.44355">
        <ele>27</ele>
        <time>2020-06-15T08:54:54Z</time>
      </trkpt>
      <trkpt lat="49.685" lon="-1.44355">
        <ele>27</ele>
        <time>2020-06-15T08:54:55Z</time>
      </trkpt>
      <trkpt lat="49.68502" lon="-1.44352">
        <ele>27.1</ele>
        <time>2020-06-15T08:54:56Z</time>
      </trkpt>
      <trkpt lat="49.68503" lon="-1.44351">
        <ele>27.1</ele>
        <time>2020-06-15T08:54:57Z</time>
      </trkpt>
      <trkpt lat="49.68503" lon="-1.44351">
        <ele>27.1</ele>
        <time>2020-06-15T08:54:58Z</time>
      </trkpt>
      <trkpt lat="49.68503" lon="-1.44351">
        <ele>27.2</ele>
        <time>2020-06-15T08:54:59Z</time>
      </trkpt>
      <trkpt lat="49.68502" lon="-1.44351">
        <ele>27.2</ele>
        <time>2020-06-15T08:55:00Z</time>
      </trkpt>
      <trkpt lat="49.68502" lon="-1.44351">
        <ele>27.2</ele>
        <time>2020-06-15T08:55:01Z</time>
      </trkpt>
      <trkpt lat="49.68503" lon="-1.44351">
        <ele>27.2</ele>
        <time>2020-06-15T08:55:02Z</time>
      </trkpt>
      <trkpt lat="49.68503" lon="-1.44351">
        <ele>27.2</ele>
        <time>2020-06-15T08:55:03Z</time>
      </trkpt>
      <trkpt lat="49.68503" lon="-1.44351">
        <ele>27.2</ele>
        <time>2020-06-15T08:55:04Z</time>
      </trkpt>
      <trkpt lat="49.68503" lon="-1.44352">
        <ele>27.2</ele>
        <time>2020-06-15T08:55:05Z</time>
      </trkpt>
      <trkpt lat="49.68503" lon="-1.44352">
        <ele>27.3</ele>
        <time>2020-06-15T08:55:06Z</time>
      </trkpt>
      <trkpt lat="49.68502" lon="-1.44352">
        <ele>27.3</ele>
        <time>2020-06-15T08:55:07Z</time>
      </trkpt>
      <trkpt lat="49.68502" lon="-1.44352">
        <ele>27.3</ele>
        <time>2020-06-15T08:55:08Z</time>
      </trkpt>
      <trkpt lat="49.68501" lon="-1.44352">
        <ele>27.3</ele>
        <time>2020-06-15T08:55:09Z</time>
      </trkpt>
      <trkpt lat="49.68504" lon="-1.44349">
        <ele>27.4</ele>
        <time>2020-06-15T08:55:38Z</time>
      </trkpt>
      <trkpt lat="49.68505" lon="-1.44349">
        <ele>27.5</ele>
        <time>2020-06-15T08:55:39Z</time>
      </trkpt>
      <trkpt lat="49.68508" lon="-1.44348">
        <ele>27.6</ele>
        <time>2020-06-15T08:55:40Z</time>
      </trkpt>
      <trkpt lat="49.68509" lon="-1.44347">
        <ele>27.6</ele>
        <time>2020-06-15T08:55:41Z</time>
      </trkpt>
      <trkpt lat="49.68512" lon="-1.44348">
        <ele>27.7</ele>
        <time>2020-06-15T08:55:42Z</time>
      </trkpt>
      <trkpt lat="49.68513" lon="-1.44348">
        <ele>27.7</ele>
        <time>2020-06-15T08:55:43Z</time>
      </trkpt>
      <trkpt lat="49.68516" lon="-1.44347">
        <ele>27.8</ele>
        <time>2020-06-15T08:55:44Z</time>
      </trkpt>
      <trkpt lat="49.68517" lon="-1.44347">
        <ele>27.8</ele>
        <time>2020-06-15T08:55:45Z</time>
      </trkpt>
      <trkpt lat="49.6852" lon="-1.44347">
        <ele>27.9</ele>
        <time>2020-06-15T08:55:46Z</time>
      </trkpt>
      <trkpt lat="49.68521" lon="-1.44346">
        <ele>27.9</ele>
        <time>2020-06-15T08:55:47Z</time>
      </trkpt>
      <trkpt lat="49.68523" lon="-1.44344">
        <ele>28</ele>
        <time>2020-06-15T08:55:48Z</time>
      </trkpt>
      <trkpt lat="49.68527" lon="-1.44344">
        <ele>28.1</ele>
        <time>2020-06-15T08:55:49Z</time>
      </trkpt>
      <trkpt lat="49.6853" lon="-1.44342">
        <ele>28.2</ele>
        <time>2020-06-15T08:55:50Z</time>
      </trkpt>
      <trkpt lat="49.68533" lon="-1.4434">
        <ele>28.3</ele>
        <time>2020-06-15T08:55:51Z</time>
      </trkpt>
      <trkpt lat="49.68537" lon="-1.4434">
        <ele>28.4</ele>
        <time>2020-06-15T08:55:52Z</time>
      </trkpt>
      <trkpt lat="49.68541" lon="-1.44339">
        <ele>28.5</ele>
        <time>2020-06-15T08:55:53Z</time>
      </trkpt>
      <trkpt lat="49.68545" lon="-1.44339">
        <ele>28.5</ele>
        <time>2020-06-15T08:55:54Z</time>
      </trkpt>
      <trkpt lat="49.68548" lon="-1.44338">
        <ele>28.6</ele>
        <time>2020-06-15T08:55:55Z</time>
      </trkpt>
      <trkpt lat="49.68551" lon="-1.44336">
        <ele>28.7</ele>
        <time>2020-06-15T08:55:56Z</time>
      </trkpt>
      <trkpt lat="49.68555" lon="-1.44335">
        <ele>28.8</ele>
        <time>2020-06-15T08:55:57Z</time>
      </trkpt>
      <trkpt lat="49.68558" lon="-1.44335">
        <ele>28.8</ele>
        <time>2020-06-15T08:55:58Z</time>
      </trkpt>
      <trkpt lat="49.68561" lon="-1.44334">
        <ele>28.9</ele>
        <time>2020-06-15T08:55:59Z</time>
      </trkpt>
      <trkpt lat="49.68564" lon="-1.44334">
        <ele>28.9</ele>
        <time>2020-06-15T08:56:00Z</time>
      </trkpt>
      <trkpt lat="49.68567" lon="-1.44335">
        <ele>28.9</ele>
        <time>2020-06-15T08:56:01Z</time>
      </trkpt>
      <trkpt lat="49.6857" lon="-1.44335">
        <ele>29</ele>
        <time>2020-06-15T08:56:02Z</time>
      </trkpt>
      <trkpt lat="49.68574" lon="-1.44332">
        <ele>29</ele>
        <time>2020-06-15T08:56:03Z</time>
      </trkpt>
      <trkpt lat="49.68577" lon="-1.44331">
        <ele>29</ele>
        <time>2020-06-15T08:56:04Z</time>
      </trkpt>
      <trkpt lat="49.68581" lon="-1.4433">
        <ele>29</ele>
        <time>2020-06-15T08:56:05Z</time>
      </trkpt>
      <trkpt lat="49.68584" lon="-1.4433">
        <ele>29</ele>
        <time>2020-06-15T08:56:06Z</time>
      </trkpt>
      <trkpt lat="49.68587" lon="-1.4433">
        <ele>29</ele>
        <time>2020-06-15T08:56:07Z</time>
      </trkpt>
      <trkpt lat="49.68591" lon="-1.44331">
        <ele>29</ele>
        <time>2020-06-15T08:56:08Z</time>
      </trkpt>
      <trkpt lat="49.68594" lon="-1.44331">
        <ele>29</ele>
        <time>2020-06-15T08:56:09Z</time>
      </trkpt>
      <trkpt lat="49.68599" lon="-1.44331">
        <ele>29</ele>
        <time>2020-06-15T08:56:10Z</time>
      </trkpt>
      <trkpt lat="49.68602" lon="-1.44331">
        <ele>29</ele>
        <time>2020-06-15T08:56:11Z</time>
      </trkpt>
      <trkpt lat="49.68606" lon="-1.44331">
        <ele>29</ele>
        <time>2020-06-15T08:56:12Z</time>
      </trkpt>
      <trkpt lat="49.68611" lon="-1.44332">
        <ele>28.9</ele>
        <time>2020-06-15T08:56:13Z</time>
      </trkpt>
      <trkpt lat="49.68616" lon="-1.44332">
        <ele>28.8</ele>
        <time>2020-06-15T08:56:14Z</time>
      </trkpt>
      <trkpt lat="49.6862" lon="-1.44332">
        <ele>28.8</ele>
        <time>2020-06-15T08:56:15Z</time>
      </trkpt>
      <trkpt lat="49.68624" lon="-1.44333">
        <ele>28.7</ele>
        <time>2020-06-15T08:56:16Z</time>
      </trkpt>
      <trkpt lat="49.68629" lon="-1.44334">
        <ele>28.6</ele>
        <time>2020-06-15T08:56:17Z</time>
      </trkpt>
      <trkpt lat="49.68633" lon="-1.44334">
        <ele>28.5</ele>
        <time>2020-06-15T08:56:18Z</time>
      </trkpt>
      <trkpt lat="49.68636" lon="-1.44335">
        <ele>28.4</ele>
        <time>2020-06-15T08:56:19Z</time>
      </trkpt>
      <trkpt lat="49.68642" lon="-1.44336">
        <ele>28.3</ele>
        <time>2020-06-15T08:56:20Z</time>
      </trkpt>
      <trkpt lat="49.68646" lon="-1.44338">
        <ele>28.1</ele>
        <time>2020-06-15T08:56:21Z</time>
      </trkpt>
      <trkpt lat="49.6865" lon="-1.44341">
        <ele>28</ele>
        <time>2020-06-15T08:56:22Z</time>
      </trkpt>
      <trkpt lat="49.68655" lon="-1.44344">
        <ele>27.8</ele>
        <time>2020-06-15T08:56:23Z</time>
      </trkpt>
      <trkpt lat="49.68661" lon="-1.44347">
        <ele>27.5</ele>
        <time>2020-06-15T08:56:24Z</time>
      </trkpt>
      <trkpt lat="49.68666" lon="-1.44349">
        <ele>27.3</ele>
        <time>2020-06-15T08:56:25Z</time>
      </trkpt>
      <trkpt lat="49.68672" lon="-1.44352">
        <ele>27</ele>
        <time>2020-06-15T08:56:26Z</time>
      </trkpt>
      <trkpt lat="49.68678" lon="-1.44355">
        <ele>26.7</ele>
        <time>2020-06-15T08:56:27Z</time>
      </trkpt>
      <trkpt lat="49.68684" lon="-1.44359">
        <ele>26.4</ele>
        <time>2020-06-15T08:56:28Z</time>
      </trkpt>
      <trkpt lat="49.68691" lon="-1.44361">
        <ele>26</ele>
        <time>2020-06-15T08:56:29Z</time>
      </trkpt>
      <trkpt lat="49.68694" lon="-1.44365">
        <ele>25.8</ele>
        <time>2020-06-15T08:56:30Z</time>
      </trkpt>
      <trkpt lat="49.68702" lon="-1.44369">
        <ele>25.4</ele>
        <time>2020-06-15T08:56:31Z</time>
      </trkpt>
      <trkpt lat="49.68708" lon="-1.44374">
        <ele>25.1</ele>
        <time>2020-06-15T08:56:32Z</time>
      </trkpt>
      <trkpt lat="49.68715" lon="-1.44381">
        <ele>24.7</ele>
        <time>2020-06-15T08:56:33Z</time>
      </trkpt>
      <trkpt lat="49.68722" lon="-1.44386">
        <ele>24.4</ele>
        <time>2020-06-15T08:56:34Z</time>
      </trkpt>
      <trkpt lat="49.68728" lon="-1.44391">
        <ele>24.1</ele>
        <time>2020-06-15T08:56:35Z</time>
      </trkpt>
      <trkpt lat="49.68735" lon="-1.44396">
        <ele>23.8</ele>
        <time>2020-06-15T08:56:36Z</time>
      </trkpt>
      <trkpt lat="49.68742" lon="-1.44401">
        <ele>23.5</ele>
        <time>2020-06-15T08:56:37Z</time>
      </trkpt>
      <trkpt lat="49.6875" lon="-1.44406">
        <ele>22.8</ele>
        <time>2020-06-15T08:56:38Z</time>
      </trkpt>
      <trkpt lat="49.68757" lon="-1.4441">
        <ele>22.5</ele>
        <time>2020-06-15T08:56:39Z</time>
      </trkpt>
      <trkpt lat="49.68764" lon="-1.44415">
        <ele>22.3</ele>
        <time>2020-06-15T08:56:40Z</time>
      </trkpt>
      <trkpt lat="49.68771" lon="-1.44419">
        <ele>22.1</ele>
        <time>2020-06-15T08:56:41Z</time>
      </trkpt>
      <trkpt lat="49.68779" lon="-1.44423">
        <ele>21.9</ele>
        <time>2020-06-15T08:56:42Z</time>
      </trkpt>
      <trkpt lat="49.68787" lon="-1.44426">
        <ele>21.7</ele>
        <time>2020-06-15T08:56:43Z</time>
      </trkpt>
      <trkpt lat="49.68795" lon="-1.4443">
        <ele>21.6</ele>
        <time>2020-06-15T08:56:44Z</time>
      </trkpt>
      <trkpt lat="49.68803" lon="-1.44433">
        <ele>21.5</ele>
        <time>2020-06-15T08:56:45Z</time>
      </trkpt>
      <trkpt lat="49.68811" lon="-1.44436">
        <ele>21.4</ele>
        <time>2020-06-15T08:56:46Z</time>
      </trkpt>
      <trkpt lat="49.68819" lon="-1.44438">
        <ele>21.3</ele>
        <time>2020-06-15T08:56:47Z</time>
      </trkpt>
      <trkpt lat="49.68826" lon="-1.44438">
        <ele>21.2</ele>
        <time>2020-06-15T08:56:48Z</time>
      </trkpt>
      <trkpt lat="49.68834" lon="-1.44438">
        <ele>21.2</ele>
        <time>2020-06-15T08:56:49Z</time>
      </trkpt>
      <trkpt lat="49.68842" lon="-1.44437">
        <ele>21.2</ele>
        <time>2020-06-15T08:56:50Z</time>
      </trkpt>
      <trkpt lat="49.68849" lon="-1.44436">
        <ele>21.2</ele>
        <time>2020-06-15T08:56:51Z</time>
      </trkpt>
      <trkpt lat="49.68857" lon="-1.44435">
        <ele>21.2</ele>
        <time>2020-06-15T08:56:52Z</time>
      </trkpt>
      <trkpt lat="49.68864" lon="-1.44433">
        <ele>21.2</ele>
        <time>2020-06-15T08:56:53Z</time>
      </trkpt>
      <trkpt lat="49.68871" lon="-1.44431">
        <ele>21.2</ele>
        <time>2020-06-15T08:56:54Z</time>
      </trkpt>
      <trkpt lat="49.68878" lon="-1.44429">
        <ele>21.2</ele>
        <time>2020-06-15T08:56:55Z</time>
      </trkpt>
      <trkpt lat="49.68885" lon="-1.44427">
        <ele>21.2</ele>
        <time>2020-06-15T08:56:56Z</time>
      </trkpt>
      <trkpt lat="49.68892" lon="-1.44424">
        <ele>21.2</ele>
        <time>2020-06-15T08:56:57Z</time>
      </trkpt>
      <trkpt lat="49.68898" lon="-1.44422">
        <ele>21.2</ele>
        <time>2020-06-15T08:56:58Z</time>
      </trkpt>
      <trkpt lat="49.68904" lon="-1.44419">
        <ele>21.3</ele>
        <time>2020-06-15T08:56:59Z</time>
      </trkpt>
      <trkpt lat="49.68911" lon="-1.44415">
        <ele>21.3</ele>
        <time>2020-06-15T08:57:00Z</time>
      </trkpt>
      <trkpt lat="49.68917" lon="-1.44411">
        <ele>21.3</ele>
        <time>2020-06-15T08:57:01Z</time>
      </trkpt>
      <trkpt lat="49.68923" lon="-1.44407">
        <ele>21.3</ele>
        <time>2020-06-15T08:57:02Z</time>
      </trkpt>
      <trkpt lat="49.6893" lon="-1.44402">
        <ele>21.3</ele>
        <time>2020-06-15T08:57:03Z</time>
      </trkpt>
      <trkpt lat="49.68936" lon="-1.44398">
        <ele>21.2</ele>
        <time>2020-06-15T08:57:04Z</time>
      </trkpt>
      <trkpt lat="49.68943" lon="-1.44393">
        <ele>21.1</ele>
        <time>2020-06-15T08:57:05Z</time>
      </trkpt>
      <trkpt lat="49.68949" lon="-1.44387">
        <ele>21</ele>
        <time>2020-06-15T08:57:06Z</time>
      </trkpt>
      <trkpt lat="49.68956" lon="-1.44381">
        <ele>21</ele>
        <time>2020-06-15T08:57:07Z</time>
      </trkpt>
      <trkpt lat="49.68962" lon="-1.44375">
        <ele>20.9</ele>
        <time>2020-06-15T08:57:08Z</time>
      </trkpt>
      <trkpt lat="49.68968" lon="-1.44369">
        <ele>20.9</ele>
        <time>2020-06-15T08:57:09Z</time>
      </trkpt>
      <trkpt lat="49.68974" lon="-1.44363">
        <ele>20.8</ele>
        <time>2020-06-15T08:57:10Z</time>
      </trkpt>
      <trkpt lat="49.6898" lon="-1.44357">
        <ele>20.8</ele>
        <time>2020-06-15T08:57:11Z</time>
      </trkpt>
      <trkpt lat="49.68985" lon="-1.44351">
        <ele>20.8</ele>
        <time>2020-06-15T08:57:12Z</time>
      </trkpt>
      <trkpt lat="49.6899" lon="-1.44344">
        <ele>20.8</ele>
        <time>2020-06-15T08:57:13Z</time>
      </trkpt>
      <trkpt lat="49.68995" lon="-1.44337">
        <ele>20.8</ele>
        <time>2020-06-15T08:57:14Z</time>
      </trkpt>
      <trkpt lat="49.68999" lon="-1.44329">
        <ele>20.8</ele>
        <time>2020-06-15T08:57:15Z</time>
      </trkpt>
      <trkpt lat="49.69004" lon="-1.44322">
        <ele>20.8</ele>
        <time>2020-06-15T08:57:16Z</time>
      </trkpt>
      <trkpt lat="49.69008" lon="-1.44315">
        <ele>20.8</ele>
        <time>2020-06-15T08:57:17Z</time>
      </trkpt>
      <trkpt lat="49.69012" lon="-1.44307">
        <ele>20.8</ele>
        <time>2020-06-15T08:57:18Z</time>
      </trkpt>
      <trkpt lat="49.69016" lon="-1.443">
        <ele>20.8</ele>
        <time>2020-06-15T08:57:19Z</time>
      </trkpt>
      <trkpt lat="49.6902" lon="-1.44292">
        <ele>20.8</ele>
        <time>2020-06-15T08:57:20Z</time>
      </trkpt>
      <trkpt lat="49.69024" lon="-1.44284">
        <ele>20.8</ele>
        <time>2020-06-15T08:57:21Z</time>
      </trkpt>
      <trkpt lat="49.69027" lon="-1.44276">
        <ele>20.8</ele>
        <time>2020-06-15T08:57:22Z</time>
      </trkpt>
      <trkpt lat="49.6903" lon="-1.44268">
        <ele>20.7</ele>
        <time>2020-06-15T08:57:23Z</time>
      </trkpt>
      <trkpt lat="49.69033" lon="-1.4426">
        <ele>20.7</ele>
        <time>2020-06-15T08:57:24Z</time>
      </trkpt>
      <trkpt lat="49.69036" lon="-1.44252">
        <ele>20.8</ele>
        <time>2020-06-15T08:57:25Z</time>
      </trkpt>
      <trkpt lat="49.69039" lon="-1.44243">
        <ele>20.8</ele>
        <time>2020-06-15T08:57:26Z</time>
      </trkpt>
      <trkpt lat="49.69041" lon="-1.44234">
        <ele>20.9</ele>
        <time>2020-06-15T08:57:27Z</time>
      </trkpt>
      <trkpt lat="49.69043" lon="-1.44225">
        <ele>20.9</ele>
        <time>2020-06-15T08:57:28Z</time>
      </trkpt>
      <trkpt lat="49.69045" lon="-1.44217">
        <ele>20.8</ele>
        <time>2020-06-15T08:57:29Z</time>
      </trkpt>
      <trkpt lat="49.69047" lon="-1.44208">
        <ele>20.6</ele>
        <time>2020-06-15T08:57:30Z</time>
      </trkpt>
      <trkpt lat="49.69049" lon="-1.44198">
        <ele>20.5</ele>
        <time>2020-06-15T08:57:31Z</time>
      </trkpt>
      <trkpt lat="49.69051" lon="-1.44189">
        <ele>20.4</ele>
        <time>2020-06-15T08:57:32Z</time>
      </trkpt>
      <trkpt lat="49.69052" lon="-1.4418">
        <ele>20.2</ele>
        <time>2020-06-15T08:57:33Z</time>
      </trkpt>
      <trkpt lat="49.69054" lon="-1.44171">
        <ele>20.1</ele>
        <time>2020-06-15T08:57:34Z</time>
      </trkpt>
      <trkpt lat="49.69057" lon="-1.44163">
        <ele>19.9</ele>
        <time>2020-06-15T08:57:35Z</time>
      </trkpt>
      <trkpt lat="49.69059" lon="-1.44154">
        <ele>19.7</ele>
        <time>2020-06-15T08:57:36Z</time>
      </trkpt>
      <trkpt lat="49.69061" lon="-1.44144">
        <ele>19.5</ele>
        <time>2020-06-15T08:57:37Z</time>
      </trkpt>
      <trkpt lat="49.69063" lon="-1.44134">
        <ele>19.3</ele>
        <time>2020-06-15T08:57:38Z</time>
      </trkpt>
      <trkpt lat="49.69066" lon="-1.44124">
        <ele>19.1</ele>
        <time>2020-06-15T08:57:39Z</time>
      </trkpt>
      <trkpt lat="49.69067" lon="-1.44114">
        <ele>18.9</ele>
        <time>2020-06-15T08:57:40Z</time>
      </trkpt>
      <trkpt lat="49.69069" lon="-1.44104">
        <ele>18.7</ele>
        <time>2020-06-15T08:57:41Z</time>
      </trkpt>
      <trkpt lat="49.69072" lon="-1.44094">
        <ele>18.4</ele>
        <time>2020-06-15T08:57:42Z</time>
      </trkpt>
      <trkpt lat="49.69074" lon="-1.44084">
        <ele>18.2</ele>
        <time>2020-06-15T08:57:43Z</time>
      </trkpt>
      <trkpt lat="49.69076" lon="-1.44074">
        <ele>18</ele>
        <time>2020-06-15T08:57:44Z</time>
      </trkpt>
      <trkpt lat="49.69078" lon="-1.44063">
        <ele>17.8</ele>
        <time>2020-06-15T08:57:45Z</time>
      </trkpt>
      <trkpt lat="49.6908" lon="-1.44053">
        <ele>17.6</ele>
        <time>2020-06-15T08:57:46Z</time>
      </trkpt>
      <trkpt lat="49.69082" lon="-1.44042">
        <ele>17.4</ele>
        <time>2020-06-15T08:57:47Z</time>
      </trkpt>
      <trkpt lat="49.69084" lon="-1.44031">
        <ele>17.1</ele>
        <time>2020-06-15T08:57:48Z</time>
      </trkpt>
      <trkpt lat="49.69086" lon="-1.4402">
        <ele>16.9</ele>
        <time>2020-06-15T08:57:49Z</time>
      </trkpt>
      <trkpt lat="49.69089" lon="-1.44009">
        <ele>16.6</ele>
        <time>2020-06-15T08:57:50Z</time>
      </trkpt>
      <trkpt lat="49.69091" lon="-1.43998">
        <ele>16.4</ele>
        <time>2020-06-15T08:57:51Z</time>
      </trkpt>
      <trkpt lat="49.69094" lon="-1.43987">
        <ele>16.2</ele>
        <time>2020-06-15T08:57:52Z</time>
      </trkpt>
      <trkpt lat="49.69097" lon="-1.43976">
        <ele>16.1</ele>
        <time>2020-06-15T08:57:53Z</time>
      </trkpt>
      <trkpt lat="49.691" lon="-1.43964">
        <ele>15.9</ele>
        <time>2020-06-15T08:57:54Z</time>
      </trkpt>
      <trkpt lat="49.69102" lon="-1.43953">
        <ele>15.7</ele>
        <time>2020-06-15T08:57:55Z</time>
      </trkpt>
      <trkpt lat="49.69105" lon="-1.43942">
        <ele>15.6</ele>
        <time>2020-06-15T08:57:56Z</time>
      </trkpt>
      <trkpt lat="49.69108" lon="-1.4393">
        <ele>15.4</ele>
        <time>2020-06-15T08:57:57Z</time>
      </trkpt>
      <trkpt lat="49.69111" lon="-1.43919">
        <ele>15.3</ele>
        <time>2020-06-15T08:57:58Z</time>
      </trkpt>
      <trkpt lat="49.69113" lon="-1.43907">
        <ele>15.3</ele>
        <time>2020-06-15T08:57:59Z</time>
      </trkpt>
      <trkpt lat="49.69114" lon="-1.43895">
        <ele>15.3</ele>
        <time>2020-06-15T08:58:00Z</time>
      </trkpt>
      <trkpt lat="49.69117" lon="-1.43884">
        <ele>15.4</ele>
        <time>2020-06-15T08:58:01Z</time>
      </trkpt>
      <trkpt lat="49.6912" lon="-1.43873">
        <ele>15.5</ele>
        <time>2020-06-15T08:58:02Z</time>
      </trkpt>
      <trkpt lat="49.69123" lon="-1.43862">
        <ele>15.6</ele>
        <time>2020-06-15T08:58:03Z</time>
      </trkpt>
      <trkpt lat="49.69126" lon="-1.43852">
        <ele>15.7</ele>
        <time>2020-06-15T08:58:04Z</time>
      </trkpt>
      <trkpt lat="49.69128" lon="-1.43842">
        <ele>15.7</ele>
        <time>2020-06-15T08:58:05Z</time>
      </trkpt>
      <trkpt lat="49.69131" lon="-1.43832">
        <ele>15.8</ele>
        <time>2020-06-15T08:58:06Z</time>
      </trkpt>
      <trkpt lat="49.69133" lon="-1.43822">
        <ele>15.9</ele>
        <time>2020-06-15T08:58:07Z</time>
      </trkpt>
      <trkpt lat="49.69135" lon="-1.43812">
        <ele>16</ele>
        <time>2020-06-15T08:58:08Z</time>
      </trkpt>
      <trkpt lat="49.69137" lon="-1.43801">
        <ele>16.1</ele>
        <time>2020-06-15T08:58:09Z</time>
      </trkpt>
      <trkpt lat="49.6914" lon="-1.43792">
        <ele>16.2</ele>
        <time>2020-06-15T08:58:10Z</time>
      </trkpt>
      <trkpt lat="49.69142" lon="-1.43782">
        <ele>16.3</ele>
        <time>2020-06-15T08:58:11Z</time>
      </trkpt>
      <trkpt lat="49.69144" lon="-1.43773">
        <ele>16.4</ele>
        <time>2020-06-15T08:58:12Z</time>
      </trkpt>
      <trkpt lat="49.69146" lon="-1.43763">
        <ele>16.6</ele>
        <time>2020-06-15T08:58:13Z</time>
      </trkpt>
      <trkpt lat="49.69148" lon="-1.43754">
        <ele>16.7</ele>
        <time>2020-06-15T08:58:14Z</time>
      </trkpt>
      <trkpt lat="49.69149" lon="-1.43744">
        <ele>16.9</ele>
        <time>2020-06-15T08:58:15Z</time>
      </trkpt>
      <trkpt lat="49.6915" lon="-1.43735">
        <ele>17</ele>
        <time>2020-06-15T08:58:16Z</time>
      </trkpt>
      <trkpt lat="49.69152" lon="-1.43726">
        <ele>17.2</ele>
        <time>2020-06-15T08:58:17Z</time>
      </trkpt>
      <trkpt lat="49.69154" lon="-1.43717">
        <ele>17.5</ele>
        <time>2020-06-15T08:58:18Z</time>
      </trkpt>
      <trkpt lat="49.69156" lon="-1.43708">
        <ele>17.7</ele>
        <time>2020-06-15T08:58:19Z</time>
      </trkpt>
      <trkpt lat="49.69158" lon="-1.43699">
        <ele>17.9</ele>
        <time>2020-06-15T08:58:20Z</time>
      </trkpt>
      <trkpt lat="49.6916" lon="-1.4369">
        <ele>18.2</ele>
        <time>2020-06-15T08:58:21Z</time>
      </trkpt>
      <trkpt lat="49.69162" lon="-1.43681">
        <ele>18.4</ele>
        <time>2020-06-15T08:58:22Z</time>
      </trkpt>
      <trkpt lat="49.69164" lon="-1.43673">
        <ele>18.6</ele>
        <time>2020-06-15T08:58:23Z</time>
      </trkpt>
      <trkpt lat="49.69165" lon="-1.43664">
        <ele>18.8</ele>
        <time>2020-06-15T08:58:24Z</time>
      </trkpt>
      <trkpt lat="49.69167" lon="-1.43655">
        <ele>19</ele>
        <time>2020-06-15T08:58:25Z</time>
      </trkpt>
      <trkpt lat="49.69169" lon="-1.43646">
        <ele>19.3</ele>
        <time>2020-06-15T08:58:26Z</time>
      </trkpt>
      <trkpt lat="49.69171" lon="-1.43638">
        <ele>19.5</ele>
        <time>2020-06-15T08:58:27Z</time>
      </trkpt>
      <trkpt lat="49.69174" lon="-1.43631">
        <ele>19.7</ele>
        <time>2020-06-15T08:58:28Z</time>
      </trkpt>
      <trkpt lat="49.69176" lon="-1.43623">
        <ele>19.9</ele>
        <time>2020-06-15T08:58:29Z</time>
      </trkpt>
      <trkpt lat="49.69177" lon="-1.43616">
        <ele>20</ele>
        <time>2020-06-15T08:58:30Z</time>
      </trkpt>
      <trkpt lat="49.69178" lon="-1.43609">
        <ele>20.1</ele>
        <time>2020-06-15T08:58:31Z</time>
      </trkpt>
      <trkpt lat="49.6918" lon="-1.43602">
        <ele>20.3</ele>
        <time>2020-06-15T08:58:32Z</time>
      </trkpt>
      <trkpt lat="49.69181" lon="-1.43597">
        <ele>20.4</ele>
        <time>2020-06-15T08:58:33Z</time>
      </trkpt>
      <trkpt lat="49.69182" lon="-1.43592">
        <ele>20.4</ele>
        <time>2020-06-15T08:58:34Z</time>
      </trkpt>
      <trkpt lat="49.69184" lon="-1.43584">
        <ele>20.6</ele>
        <time>2020-06-15T08:58:35Z</time>
      </trkpt>
      <trkpt lat="49.69185" lon="-1.43576">
        <ele>20.7</ele>
        <time>2020-06-15T08:58:36Z</time>
      </trkpt>
      <trkpt lat="49.69187" lon="-1.43568">
        <ele>20.9</ele>
        <time>2020-06-15T08:58:37Z</time>
      </trkpt>
      <trkpt lat="49.69188" lon="-1.43561">
        <ele>21</ele>
        <time>2020-06-15T08:58:38Z</time>
      </trkpt>
      <trkpt lat="49.6919" lon="-1.43553">
        <ele>21.1</ele>
        <time>2020-06-15T08:58:39Z</time>
      </trkpt>
      <trkpt lat="49.69192" lon="-1.43545">
        <ele>21.2</ele>
        <time>2020-06-15T08:58:40Z</time>
      </trkpt>
      <trkpt lat="49.69194" lon="-1.43537">
        <ele>21.3</ele>
        <time>2020-06-15T08:58:41Z</time>
      </trkpt>
      <trkpt lat="49.69195" lon="-1.4353">
        <ele>21.3</ele>
        <time>2020-06-15T08:58:42Z</time>
      </trkpt>
      <trkpt lat="49.69198" lon="-1.43522">
        <ele>21.3</ele>
        <time>2020-06-15T08:58:43Z</time>
      </trkpt>
      <trkpt lat="49.69199" lon="-1.43513">
        <ele>21.2</ele>
        <time>2020-06-15T08:58:44Z</time>
      </trkpt>
      <trkpt lat="49.69202" lon="-1.43503">
        <ele>21.2</ele>
        <time>2020-06-15T08:58:45Z</time>
      </trkpt>
      <trkpt lat="49.69204" lon="-1.43495">
        <ele>21.1</ele>
        <time>2020-06-15T08:58:46Z</time>
      </trkpt>
      <trkpt lat="49.69206" lon="-1.43486">
        <ele>21</ele>
        <time>2020-06-15T08:58:47Z</time>
      </trkpt>
      <trkpt lat="49.69207" lon="-1.43479">
        <ele>20.9</ele>
        <time>2020-06-15T08:58:48Z</time>
      </trkpt>
      <trkpt lat="49.6921" lon="-1.43469">
        <ele>20.8</ele>
        <time>2020-06-15T08:58:49Z</time>
      </trkpt>
      <trkpt lat="49.69211" lon="-1.4346">
        <ele>20.7</ele>
        <time>2020-06-15T08:58:50Z</time>
      </trkpt>
      <trkpt lat="49.69213" lon="-1.4345">
        <ele>20.5</ele>
        <time>2020-06-15T08:58:51Z</time>
      </trkpt>
      <trkpt lat="49.69214" lon="-1.43442">
        <ele>20.4</ele>
        <time>2020-06-15T08:58:52Z</time>
      </trkpt>
      <trkpt lat="49.69215" lon="-1.43434">
        <ele>20.3</ele>
        <time>2020-06-15T08:58:53Z</time>
      </trkpt>
      <trkpt lat="49.69217" lon="-1.43428">
        <ele>20.2</ele>
        <time>2020-06-15T08:58:54Z</time>
      </trkpt>
      <trkpt lat="49.69219" lon="-1.43418">
        <ele>20</ele>
        <time>2020-06-15T08:58:55Z</time>
      </trkpt>
      <trkpt lat="49.69222" lon="-1.43408">
        <ele>19.8</ele>
        <time>2020-06-15T08:58:56Z</time>
      </trkpt>
      <trkpt lat="49.69225" lon="-1.43398">
        <ele>19.6</ele>
        <time>2020-06-15T08:58:57Z</time>
      </trkpt>
      <trkpt lat="49.69227" lon="-1.43389">
        <ele>19.4</ele>
        <time>2020-06-15T08:58:58Z</time>
      </trkpt>
      <trkpt lat="49.69227" lon="-1.4338">
        <ele>19.2</ele>
        <time>2020-06-15T08:58:59Z</time>
      </trkpt>
      <trkpt lat="49.69231" lon="-1.43369">
        <ele>19</ele>
        <time>2020-06-15T08:59:00Z</time>
      </trkpt>
      <trkpt lat="49.69233" lon="-1.4336">
        <ele>18.8</ele>
        <time>2020-06-15T08:59:01Z</time>
      </trkpt>
      <trkpt lat="49.69235" lon="-1.4335">
        <ele>18.7</ele>
        <time>2020-06-15T08:59:02Z</time>
      </trkpt>
      <trkpt lat="49.69238" lon="-1.43339">
        <ele>18.5</ele>
        <time>2020-06-15T08:59:03Z</time>
      </trkpt>
      <trkpt lat="49.6924" lon="-1.43329">
        <ele>18.3</ele>
        <time>2020-06-15T08:59:04Z</time>
      </trkpt>
      <trkpt lat="49.69242" lon="-1.43319">
        <ele>18.1</ele>
        <time>2020-06-15T08:59:05Z</time>
      </trkpt>
      <trkpt lat="49.69244" lon="-1.43309">
        <ele>17.9</ele>
        <time>2020-06-15T08:59:06Z</time>
      </trkpt>
      <trkpt lat="49.69246" lon="-1.43299">
        <ele>17.7</ele>
        <time>2020-06-15T08:59:07Z</time>
      </trkpt>
      <trkpt lat="49.69249" lon="-1.43289">
        <ele>17.4</ele>
        <time>2020-06-15T08:59:08Z</time>
      </trkpt>
      <trkpt lat="49.69251" lon="-1.43279">
        <ele>17.2</ele>
        <time>2020-06-15T08:59:09Z</time>
      </trkpt>
      <trkpt lat="49.69253" lon="-1.43269">
        <ele>17</ele>
        <time>2020-06-15T08:59:10Z</time>
      </trkpt>
      <trkpt lat="49.69255" lon="-1.43259">
        <ele>16.7</ele>
        <time>2020-06-15T08:59:11Z</time>
      </trkpt>
      <trkpt lat="49.69257" lon="-1.43249">
        <ele>16.5</ele>
        <time>2020-06-15T08:59:12Z</time>
      </trkpt>
      <trkpt lat="49.69259" lon="-1.43238">
        <ele>16.2</ele>
        <time>2020-06-15T08:59:13Z</time>
      </trkpt>
      <trkpt lat="49.69261" lon="-1.43228">
        <ele>15.9</ele>
        <time>2020-06-15T08:59:14Z</time>
      </trkpt>
      <trkpt lat="49.69263" lon="-1.43218">
        <ele>15.6</ele>
        <time>2020-06-15T08:59:15Z</time>
      </trkpt>
      <trkpt lat="49.69266" lon="-1.43208">
        <ele>15.4</ele>
        <time>2020-06-15T08:59:16Z</time>
      </trkpt>
      <trkpt lat="49.69268" lon="-1.43198">
        <ele>15.2</ele>
        <time>2020-06-15T08:59:17Z</time>
      </trkpt>
      <trkpt lat="49.69271" lon="-1.43187">
        <ele>15</ele>
        <time>2020-06-15T08:59:18Z</time>
      </trkpt>
      <trkpt lat="49.69273" lon="-1.43177">
        <ele>14.7</ele>
        <time>2020-06-15T08:59:19Z</time>
      </trkpt>
      <trkpt lat="49.69275" lon="-1.43165">
        <ele>14.5</ele>
        <time>2020-06-15T08:59:20Z</time>
      </trkpt>
      <trkpt lat="49.69278" lon="-1.43154">
        <ele>14.3</ele>
        <time>2020-06-15T08:59:21Z</time>
      </trkpt>
      <trkpt lat="49.6928" lon="-1.43143">
        <ele>14.2</ele>
        <time>2020-06-15T08:59:22Z</time>
      </trkpt>
      <trkpt lat="49.69283" lon="-1.43132">
        <ele>14.1</ele>
        <time>2020-06-15T08:59:23Z</time>
      </trkpt>
      <trkpt lat="49.69285" lon="-1.43121">
        <ele>14</ele>
        <time>2020-06-15T08:59:24Z</time>
      </trkpt>
      <trkpt lat="49.69288" lon="-1.4311">
        <ele>13.8</ele>
        <time>2020-06-15T08:59:25Z</time>
      </trkpt>
      <trkpt lat="49.69291" lon="-1.43099">
        <ele>13.6</ele>
        <time>2020-06-15T08:59:26Z</time>
      </trkpt>
      <trkpt lat="49.69293" lon="-1.43087">
        <ele>13.4</ele>
        <time>2020-06-15T08:59:27Z</time>
      </trkpt>
      <trkpt lat="49.69296" lon="-1.43076">
        <ele>13.2</ele>
        <time>2020-06-15T08:59:28Z</time>
      </trkpt>
      <trkpt lat="49.69298" lon="-1.43065">
        <ele>13</ele>
        <time>2020-06-15T08:59:29Z</time>
      </trkpt>
      <trkpt lat="49.69301" lon="-1.43054">
        <ele>12.9</ele>
        <time>2020-06-15T08:59:30Z</time>
      </trkpt>
      <trkpt lat="49.69302" lon="-1.43043">
        <ele>12.7</ele>
        <time>2020-06-15T08:59:31Z</time>
      </trkpt>
      <trkpt lat="49.69304" lon="-1.43032">
        <ele>12.6</ele>
        <time>2020-06-15T08:59:32Z</time>
      </trkpt>
      <trkpt lat="49.69307" lon="-1.43021">
        <ele>12.5</ele>
        <time>2020-06-15T08:59:33Z</time>
      </trkpt>
      <trkpt lat="49.69309" lon="-1.4301">
        <ele>12.3</ele>
        <time>2020-06-15T08:59:34Z</time>
      </trkpt>
      <trkpt lat="49.69312" lon="-1.43">
        <ele>12.2</ele>
        <time>2020-06-15T08:59:35Z</time>
      </trkpt>
      <trkpt lat="49.69314" lon="-1.42989">
        <ele>12</ele>
        <time>2020-06-15T08:59:36Z</time>
      </trkpt>
      <trkpt lat="49.69316" lon="-1.42979">
        <ele>11.9</ele>
        <time>2020-06-15T08:59:37Z</time>
      </trkpt>
      <trkpt lat="49.69319" lon="-1.42969">
        <ele>11.8</ele>
        <time>2020-06-15T08:59:38Z</time>
      </trkpt>
      <trkpt lat="49.69321" lon="-1.42959">
        <ele>11.7</ele>
        <time>2020-06-15T08:59:39Z</time>
      </trkpt>
      <trkpt lat="49.69323" lon="-1.42949">
        <ele>11.6</ele>
        <time>2020-06-15T08:59:40Z</time>
      </trkpt>
      <trkpt lat="49.69325" lon="-1.42939">
        <ele>11.6</ele>
        <time>2020-06-15T08:59:41Z</time>
      </trkpt>
      <trkpt lat="49.69328" lon="-1.42929">
        <ele>11.5</ele>
        <time>2020-06-15T08:59:42Z</time>
      </trkpt>
      <trkpt lat="49.6933" lon="-1.42919">
        <ele>11.4</ele>
        <time>2020-06-15T08:59:43Z</time>
      </trkpt>
      <trkpt lat="49.69332" lon="-1.42909">
        <ele>11.3</ele>
        <time>2020-06-15T08:59:44Z</time>
      </trkpt>
      <trkpt lat="49.69334" lon="-1.42899">
        <ele>11.2</ele>
        <time>2020-06-15T08:59:45Z</time>
      </trkpt>
      <trkpt lat="49.69335" lon="-1.42889">
        <ele>11.1</ele>
        <time>2020-06-15T08:59:46Z</time>
      </trkpt>
      <trkpt lat="49.69336" lon="-1.42878">
        <ele>11</ele>
        <time>2020-06-15T08:59:47Z</time>
      </trkpt>
      <trkpt lat="49.69337" lon="-1.42867">
        <ele>10.9</ele>
        <time>2020-06-15T08:59:48Z</time>
      </trkpt>
      <trkpt lat="49.69337" lon="-1.42857">
        <ele>10.8</ele>
        <time>2020-06-15T08:59:49Z</time>
      </trkpt>
      <trkpt lat="49.69338" lon="-1.42847">
        <ele>10.7</ele>
        <time>2020-06-15T08:59:50Z</time>
      </trkpt>
      <trkpt lat="49.69339" lon="-1.42836">
        <ele>10.6</ele>
        <time>2020-06-15T08:59:51Z</time>
      </trkpt>
      <trkpt lat="49.69339" lon="-1.42826">
        <ele>10.5</ele>
        <time>2020-06-15T08:59:52Z</time>
      </trkpt>
      <trkpt lat="49.69339" lon="-1.42816">
        <ele>10.5</ele>
        <time>2020-06-15T08:59:53Z</time>
      </trkpt>
      <trkpt lat="49.69339" lon="-1.42806">
        <ele>10.4</ele>
        <time>2020-06-15T08:59:54Z</time>
      </trkpt>
      <trkpt lat="49.69338" lon="-1.42796">
        <ele>10.3</ele>
        <time>2020-06-15T08:59:55Z</time>
      </trkpt>
      <trkpt lat="49.69338" lon="-1.42785">
        <ele>10.2</ele>
        <time>2020-06-15T08:59:56Z</time>
      </trkpt>
      <trkpt lat="49.69338" lon="-1.42775">
        <ele>10.1</ele>
        <time>2020-06-15T08:59:57Z</time>
      </trkpt>
      <trkpt lat="49.69338" lon="-1.42764">
        <ele>10.1</ele>
        <time>2020-06-15T08:59:58Z</time>
      </trkpt>
      <trkpt lat="49.69337" lon="-1.42754">
        <ele>10.1</ele>
        <time>2020-06-15T08:59:59Z</time>
      </trkpt>
      <trkpt lat="49.69336" lon="-1.42744">
        <ele>10.1</ele>
        <time>2020-06-15T09:00:00Z</time>
      </trkpt>
      <trkpt lat="49.69334" lon="-1.42734">
        <ele>10</ele>
        <time>2020-06-15T09:00:01Z</time>
      </trkpt>
      <trkpt lat="49.69333" lon="-1.42724">
        <ele>10.1</ele>
        <time>2020-06-15T09:00:02Z</time>
      </trkpt>
      <trkpt lat="49.69332" lon="-1.42714">
        <ele>10.1</ele>
        <time>2020-06-15T09:00:03Z</time>
      </trkpt>
      <trkpt lat="49.69331" lon="-1.42704">
        <ele>10.2</ele>
        <time>2020-06-15T09:00:04Z</time>
      </trkpt>
      <trkpt lat="49.69329" lon="-1.42695">
        <ele>10.2</ele>
        <time>2020-06-15T09:00:05Z</time>
      </trkpt>
      <trkpt lat="49.69328" lon="-1.42685">
        <ele>10.3</ele>
        <time>2020-06-15T09:00:06Z</time>
      </trkpt>
      <trkpt lat="49.69326" lon="-1.42676">
        <ele>10.4</ele>
        <time>2020-06-15T09:00:07Z</time>
      </trkpt>
      <trkpt lat="49.69325" lon="-1.42667">
        <ele>10.5</ele>
        <time>2020-06-15T09:00:08Z</time>
      </trkpt>
      <trkpt lat="49.69323" lon="-1.42658">
        <ele>10.7</ele>
        <time>2020-06-15T09:00:09Z</time>
      </trkpt>
      <trkpt lat="49.69321" lon="-1.42648">
        <ele>10.9</ele>
        <time>2020-06-15T09:00:10Z</time>
      </trkpt>
      <trkpt lat="49.69319" lon="-1.42639">
        <ele>11.1</ele>
        <time>2020-06-15T09:00:11Z</time>
      </trkpt>
      <trkpt lat="49.69317" lon="-1.4263">
        <ele>11.2</ele>
        <time>2020-06-15T09:00:12Z</time>
      </trkpt>
      <trkpt lat="49.69315" lon="-1.42621">
        <ele>11.2</ele>
        <time>2020-06-15T09:00:13Z</time>
      </trkpt>
      <trkpt lat="49.69313" lon="-1.42612">
        <ele>11.3</ele>
        <time>2020-06-15T09:00:14Z</time>
      </trkpt>
      <trkpt lat="49.6931" lon="-1.42603">
        <ele>11.4</ele>
        <time>2020-06-15T09:00:15Z</time>
      </trkpt>
      <trkpt lat="49.69309" lon="-1.42594">
        <ele>11.5</ele>
        <time>2020-06-15T09:00:16Z</time>
      </trkpt>
      <trkpt lat="49.69307" lon="-1.42585">
        <ele>11.6</ele>
        <time>2020-06-15T09:00:17Z</time>
      </trkpt>
      <trkpt lat="49.69306" lon="-1.42576">
        <ele>11.7</ele>
        <time>2020-06-15T09:00:18Z</time>
      </trkpt>
      <trkpt lat="49.69304" lon="-1.42568">
        <ele>11.8</ele>
        <time>2020-06-15T09:00:19Z</time>
      </trkpt>
      <trkpt lat="49.69303" lon="-1.4256">
        <ele>11.9</ele>
        <time>2020-06-15T09:00:20Z</time>
      </trkpt>
      <trkpt lat="49.69302" lon="-1.42551">
        <ele>12</ele>
        <time>2020-06-15T09:00:21Z</time>
      </trkpt>
      <trkpt lat="49.69302" lon="-1.42543">
        <ele>12.1</ele>
        <time>2020-06-15T09:00:22Z</time>
      </trkpt>
      <trkpt lat="49.69301" lon="-1.42534">
        <ele>12.2</ele>
        <time>2020-06-15T09:00:23Z</time>
      </trkpt>
      <trkpt lat="49.69301" lon="-1.42526">
        <ele>12.3</ele>
        <time>2020-06-15T09:00:24Z</time>
      </trkpt>
      <trkpt lat="49.693" lon="-1.42518">
        <ele>12.3</ele>
        <time>2020-06-15T09:00:25Z</time>
      </trkpt>
      <trkpt lat="49.693" lon="-1.4251">
        <ele>12.4</ele>
        <time>2020-06-15T09:00:26Z</time>
      </trkpt>
      <trkpt lat="49.693" lon="-1.425">
        <ele>12.5</ele>
        <time>2020-06-15T09:00:27Z</time>
      </trkpt>
      <trkpt lat="49.69299" lon="-1.42492">
        <ele>12.6</ele>
        <time>2020-06-15T09:00:28Z</time>
      </trkpt>
      <trkpt lat="49.69299" lon="-1.42484">
        <ele>12.6</ele>
        <time>2020-06-15T09:00:29Z</time>
      </trkpt>
      <trkpt lat="49.693" lon="-1.42474">
        <ele>12.7</ele>
        <time>2020-06-15T09:00:30Z</time>
      </trkpt>
      <trkpt lat="49.693" lon="-1.42464">
        <ele>12.8</ele>
        <time>2020-06-15T09:00:31Z</time>
      </trkpt>
      <trkpt lat="49.69301" lon="-1.42456">
        <ele>12.9</ele>
        <time>2020-06-15T09:00:32Z</time>
      </trkpt>
      <trkpt lat="49.69301" lon="-1.42447">
        <ele>13</ele>
        <time>2020-06-15T09:00:33Z</time>
      </trkpt>
      <trkpt lat="49.69302" lon="-1.42438">
        <ele>13.1</ele>
        <time>2020-06-15T09:00:34Z</time>
      </trkpt>
      <trkpt lat="49.69302" lon="-1.42429">
        <ele>13.2</ele>
        <time>2020-06-15T09:00:35Z</time>
      </trkpt>
      <trkpt lat="49.69302" lon="-1.4242">
        <ele>13.3</ele>
        <time>2020-06-15T09:00:36Z</time>
      </trkpt>
      <trkpt lat="49.69303" lon="-1.42411">
        <ele>13.4</ele>
        <time>2020-06-15T09:00:37Z</time>
      </trkpt>
      <trkpt lat="49.69305" lon="-1.42404">
        <ele>13.4</ele>
        <time>2020-06-15T09:00:38Z</time>
      </trkpt>
      <trkpt lat="49.69306" lon="-1.42395">
        <ele>13.5</ele>
        <time>2020-06-15T09:00:39Z</time>
      </trkpt>
      <trkpt lat="49.69308" lon="-1.42387">
        <ele>13.6</ele>
        <time>2020-06-15T09:00:40Z</time>
      </trkpt>
      <trkpt lat="49.69309" lon="-1.42378">
        <ele>13.7</ele>
        <time>2020-06-15T09:00:41Z</time>
      </trkpt>
      <trkpt lat="49.69311" lon="-1.4237">
        <ele>13.7</ele>
        <time>2020-06-15T09:00:42Z</time>
      </trkpt>
      <trkpt lat="49.69312" lon="-1.42359">
        <ele>13.8</ele>
        <time>2020-06-15T09:00:43Z</time>
      </trkpt>
      <trkpt lat="49.69314" lon="-1.42351">
        <ele>13.9</ele>
        <time>2020-06-15T09:00:44Z</time>
      </trkpt>
      <trkpt lat="49.69316" lon="-1.42342">
        <ele>14</ele>
        <time>2020-06-15T09:00:45Z</time>
      </trkpt>
      <trkpt lat="49.69318" lon="-1.42335">
        <ele>14.1</ele>
        <time>2020-06-15T09:00:46Z</time>
      </trkpt>
      <trkpt lat="49.6932" lon="-1.42326">
        <ele>14.2</ele>
        <time>2020-06-15T09:00:47Z</time>
      </trkpt>
      <trkpt lat="49.69322" lon="-1.42317">
        <ele>14.3</ele>
        <time>2020-06-15T09:00:48Z</time>
      </trkpt>
      <trkpt lat="49.69323" lon="-1.4231">
        <ele>14.3</ele>
        <time>2020-06-15T09:00:49Z</time>
      </trkpt>
      <trkpt lat="49.69325" lon="-1.42302">
        <ele>14.4</ele>
        <time>2020-06-15T09:00:50Z</time>
      </trkpt>
      <trkpt lat="49.69326" lon="-1.42294">
        <ele>14.5</ele>
        <time>2020-06-15T09:00:51Z</time>
      </trkpt>
      <trkpt lat="49.69328" lon="-1.42287">
        <ele>14.6</ele>
        <time>2020-06-15T09:00:52Z</time>
      </trkpt>
      <trkpt lat="49.69329" lon="-1.42278">
        <ele>14.7</ele>
        <time>2020-06-15T09:00:53Z</time>
      </trkpt>
      <trkpt lat="49.69331" lon="-1.42271">
        <ele>14.8</ele>
        <time>2020-06-15T09:00:54Z</time>
      </trkpt>
      <trkpt lat="49.69333" lon="-1.42263">
        <ele>14.8</ele>
        <time>2020-06-15T09:00:55Z</time>
      </trkpt>
      <trkpt lat="49.69335" lon="-1.42255">
        <ele>14.9</ele>
        <time>2020-06-15T09:00:56Z</time>
      </trkpt>
      <trkpt lat="49.69337" lon="-1.42246">
        <ele>14.9</ele>
        <time>2020-06-15T09:00:57Z</time>
      </trkpt>
      <trkpt lat="49.69338" lon="-1.42239">
        <ele>15</ele>
        <time>2020-06-15T09:00:58Z</time>
      </trkpt>
      <trkpt lat="49.6934" lon="-1.42231">
        <ele>15</ele>
        <time>2020-06-15T09:00:59Z</time>
      </trkpt>
      <trkpt lat="49.69341" lon="-1.42222">
        <ele>15</ele>
        <time>2020-06-15T09:01:00Z</time>
      </trkpt>
      <trkpt lat="49.69342" lon="-1.42214">
        <ele>15</ele>
        <time>2020-06-15T09:01:01Z</time>
      </trkpt>
      <trkpt lat="49.69343" lon="-1.42206">
        <ele>15</ele>
        <time>2020-06-15T09:01:02Z</time>
      </trkpt>
      <trkpt lat="49.69345" lon="-1.42199">
        <ele>14.9</ele>
        <time>2020-06-15T09:01:03Z</time>
      </trkpt>
      <trkpt lat="49.69347" lon="-1.42191">
        <ele>14.9</ele>
        <time>2020-06-15T09:01:04Z</time>
      </trkpt>
      <trkpt lat="49.69349" lon="-1.42182">
        <ele>14.8</ele>
        <time>2020-06-15T09:01:05Z</time>
      </trkpt>
      <trkpt lat="49.69351" lon="-1.42173">
        <ele>14.7</ele>
        <time>2020-06-15T09:01:06Z</time>
      </trkpt>
      <trkpt lat="49.69354" lon="-1.42164">
        <ele>14.6</ele>
        <time>2020-06-15T09:01:07Z</time>
      </trkpt>
      <trkpt lat="49.69355" lon="-1.42157">
        <ele>14.5</ele>
        <time>2020-06-15T09:01:08Z</time>
      </trkpt>
      <trkpt lat="49.69357" lon="-1.42149">
        <ele>14.4</ele>
        <time>2020-06-15T09:01:09Z</time>
      </trkpt>
      <trkpt lat="49.69359" lon="-1.4214">
        <ele>14.2</ele>
        <time>2020-06-15T09:01:10Z</time>
      </trkpt>
      <trkpt lat="49.69362" lon="-1.4213">
        <ele>14.1</ele>
        <time>2020-06-15T09:01:11Z</time>
      </trkpt>
      <trkpt lat="49.69364" lon="-1.42121">
        <ele>14</ele>
        <time>2020-06-15T09:01:12Z</time>
      </trkpt>
      <trkpt lat="49.69365" lon="-1.42111">
        <ele>13.8</ele>
        <time>2020-06-15T09:01:13Z</time>
      </trkpt>
      <trkpt lat="49.69367" lon="-1.42102">
        <ele>13.7</ele>
        <time>2020-06-15T09:01:14Z</time>
      </trkpt>
      <trkpt lat="49.69369" lon="-1.42092">
        <ele>13.5</ele>
        <time>2020-06-15T09:01:15Z</time>
      </trkpt>
      <trkpt lat="49.6937" lon="-1.42083">
        <ele>13.4</ele>
        <time>2020-06-15T09:01:16Z</time>
      </trkpt>
      <trkpt lat="49.69372" lon="-1.42073">
        <ele>13.2</ele>
        <time>2020-06-15T09:01:17Z</time>
      </trkpt>
      <trkpt lat="49.69374" lon="-1.42063">
        <ele>13</ele>
        <time>2020-06-15T09:01:18Z</time>
      </trkpt>
      <trkpt lat="49.69374" lon="-1.42053">
        <ele>12.8</ele>
        <time>2020-06-15T09:01:19Z</time>
      </trkpt>
      <trkpt lat="49.69374" lon="-1.42043">
        <ele>12.6</ele>
        <time>2020-06-15T09:01:20Z</time>
      </trkpt>
      <trkpt lat="49.69375" lon="-1.42031">
        <ele>12.5</ele>
        <time>2020-06-15T09:01:21Z</time>
      </trkpt>
      <trkpt lat="49.69375" lon="-1.4202">
        <ele>12.3</ele>
        <time>2020-06-15T09:01:22Z</time>
      </trkpt>
      <trkpt lat="49.69376" lon="-1.4201">
        <ele>12.2</ele>
        <time>2020-06-15T09:01:23Z</time>
      </trkpt>
      <trkpt lat="49.69376" lon="-1.41999">
        <ele>12</ele>
        <time>2020-06-15T09:01:24Z</time>
      </trkpt>
      <trkpt lat="49.69377" lon="-1.41989">
        <ele>11.9</ele>
        <time>2020-06-15T09:01:25Z</time>
      </trkpt>
      <trkpt lat="49.69377" lon="-1.41977">
        <ele>11.7</ele>
        <time>2020-06-15T09:01:26Z</time>
      </trkpt>
      <trkpt lat="49.69377" lon="-1.41967">
        <ele>11.6</ele>
        <time>2020-06-15T09:01:27Z</time>
      </trkpt>
      <trkpt lat="49.69377" lon="-1.41956">
        <ele>11.5</ele>
        <time>2020-06-15T09:01:28Z</time>
      </trkpt>
      <trkpt lat="49.69377" lon="-1.41945">
        <ele>11.5</ele>
        <time>2020-06-15T09:01:29Z</time>
      </trkpt>
      <trkpt lat="49.69377" lon="-1.41933">
        <ele>11.5</ele>
        <time>2020-06-15T09:01:30Z</time>
      </trkpt>
      <trkpt lat="49.69376" lon="-1.41922">
        <ele>11.5</ele>
        <time>2020-06-15T09:01:31Z</time>
      </trkpt>
      <trkpt lat="49.69376" lon="-1.41912">
        <ele>11.5</ele>
        <time>2020-06-15T09:01:32Z</time>
      </trkpt>
      <trkpt lat="49.69375" lon="-1.41902">
        <ele>11.5</ele>
        <time>2020-06-15T09:01:33Z</time>
      </trkpt>
      <trkpt lat="49.69374" lon="-1.41893">
        <ele>11.6</ele>
        <time>2020-06-15T09:01:34Z</time>
      </trkpt>
      <trkpt lat="49.69375" lon="-1.41883">
        <ele>11.6</ele>
        <time>2020-06-15T09:01:35Z</time>
      </trkpt>
      <trkpt lat="49.69375" lon="-1.41874">
        <ele>11.7</ele>
        <time>2020-06-15T09:01:36Z</time>
      </trkpt>
      <trkpt lat="49.69375" lon="-1.41865">
        <ele>11.7</ele>
        <time>2020-06-15T09:01:37Z</time>
      </trkpt>
      <trkpt lat="49.69375" lon="-1.41856">
        <ele>11.8</ele>
        <time>2020-06-15T09:01:38Z</time>
      </trkpt>
      <trkpt lat="49.69375" lon="-1.41847">
        <ele>11.9</ele>
        <time>2020-06-15T09:01:39Z</time>
      </trkpt>
      <trkpt lat="49.69375" lon="-1.41838">
        <ele>12</ele>
        <time>2020-06-15T09:01:40Z</time>
      </trkpt>
      <trkpt lat="49.69375" lon="-1.41829">
        <ele>12.1</ele>
        <time>2020-06-15T09:01:41Z</time>
      </trkpt>
      <trkpt lat="49.69375" lon="-1.41819">
        <ele>12.2</ele>
        <time>2020-06-15T09:01:42Z</time>
      </trkpt>
      <trkpt lat="49.69376" lon="-1.4181">
        <ele>12.4</ele>
        <time>2020-06-15T09:01:43Z</time>
      </trkpt>
      <trkpt lat="49.69375" lon="-1.41801">
        <ele>12.6</ele>
        <time>2020-06-15T09:01:44Z</time>
      </trkpt>
      <trkpt lat="49.69375" lon="-1.41791">
        <ele>12.8</ele>
        <time>2020-06-15T09:01:45Z</time>
      </trkpt>
      <trkpt lat="49.69376" lon="-1.41782">
        <ele>13</ele>
        <time>2020-06-15T09:01:46Z</time>
      </trkpt>
      <trkpt lat="49.69375" lon="-1.41773">
        <ele>13.2</ele>
        <time>2020-06-15T09:01:47Z</time>
      </trkpt>
      <trkpt lat="49.69375" lon="-1.41764">
        <ele>13.5</ele>
        <time>2020-06-15T09:01:48Z</time>
      </trkpt>
      <trkpt lat="49.69374" lon="-1.41755">
        <ele>13.7</ele>
        <time>2020-06-15T09:01:49Z</time>
      </trkpt>
      <trkpt lat="49.69374" lon="-1.41747">
        <ele>13.9</ele>
        <time>2020-06-15T09:01:50Z</time>
      </trkpt>
      <trkpt lat="49.69374" lon="-1.41739">
        <ele>14.1</ele>
        <time>2020-06-15T09:01:51Z</time>
      </trkpt>
      <trkpt lat="49.69375" lon="-1.41731">
        <ele>14.3</ele>
        <time>2020-06-15T09:01:52Z</time>
      </trkpt>
      <trkpt lat="49.69374" lon="-1.41723">
        <ele>14.5</ele>
        <time>2020-06-15T09:01:53Z</time>
      </trkpt>
      <trkpt lat="49.69374" lon="-1.41715">
        <ele>14.7</ele>
        <time>2020-06-15T09:01:54Z</time>
      </trkpt>
      <trkpt lat="49.69374" lon="-1.41707">
        <ele>14.8</ele>
        <time>2020-06-15T09:01:55Z</time>
      </trkpt>
      <trkpt lat="49.69374" lon="-1.417">
        <ele>15</ele>
        <time>2020-06-15T09:01:56Z</time>
      </trkpt>
      <trkpt lat="49.69373" lon="-1.41693">
        <ele>15.2</ele>
        <time>2020-06-15T09:01:57Z</time>
      </trkpt>
      <trkpt lat="49.69373" lon="-1.41686">
        <ele>15.4</ele>
        <time>2020-06-15T09:01:58Z</time>
      </trkpt>
      <trkpt lat="49.69373" lon="-1.4168">
        <ele>15.6</ele>
        <time>2020-06-15T09:01:59Z</time>
      </trkpt>
      <trkpt lat="49.69372" lon="-1.41674">
        <ele>15.7</ele>
        <time>2020-06-15T09:02:00Z</time>
      </trkpt>
      <trkpt lat="49.69372" lon="-1.41668">
        <ele>15.9</ele>
        <time>2020-06-15T09:02:01Z</time>
      </trkpt>
      <trkpt lat="49.69373" lon="-1.41663">
        <ele>16.1</ele>
        <time>2020-06-15T09:02:02Z</time>
      </trkpt>
      <trkpt lat="49.69373" lon="-1.41656">
        <ele>16.2</ele>
        <time>2020-06-15T09:02:03Z</time>
      </trkpt>
      <trkpt lat="49.69373" lon="-1.4165">
        <ele>16.4</ele>
        <time>2020-06-15T09:02:04Z</time>
      </trkpt>
      <trkpt lat="49.69374" lon="-1.41642">
        <ele>16.6</ele>
        <time>2020-06-15T09:02:05Z</time>
      </trkpt>
      <trkpt lat="49.69374" lon="-1.41635">
        <ele>16.7</ele>
        <time>2020-06-15T09:02:06Z</time>
      </trkpt>
      <trkpt lat="49.69374" lon="-1.41629">
        <ele>16.9</ele>
        <time>2020-06-15T09:02:07Z</time>
      </trkpt>
      <trkpt lat="49.69375" lon="-1.41622">
        <ele>17</ele>
        <time>2020-06-15T09:02:08Z</time>
      </trkpt>
      <trkpt lat="49.69375" lon="-1.41615">
        <ele>17.2</ele>
        <time>2020-06-15T09:02:09Z</time>
      </trkpt>
      <trkpt lat="49.69375" lon="-1.41608">
        <ele>17.4</ele>
        <time>2020-06-15T09:02:10Z</time>
      </trkpt>
      <trkpt lat="49.69376" lon="-1.41602">
        <ele>17.5</ele>
        <time>2020-06-15T09:02:11Z</time>
      </trkpt>
      <trkpt lat="49.69377" lon="-1.41597">
        <ele>17.6</ele>
        <time>2020-06-15T09:02:12Z</time>
      </trkpt>
      <trkpt lat="49.69377" lon="-1.41591">
        <ele>17.8</ele>
        <time>2020-06-15T09:02:13Z</time>
      </trkpt>
      <trkpt lat="49.69378" lon="-1.41586">
        <ele>17.9</ele>
        <time>2020-06-15T09:02:14Z</time>
      </trkpt>
      <trkpt lat="49.69378" lon="-1.4158">
        <ele>18.1</ele>
        <time>2020-06-15T09:02:15Z</time>
      </trkpt>
      <trkpt lat="49.69377" lon="-1.41573">
        <ele>18.2</ele>
        <time>2020-06-15T09:02:16Z</time>
      </trkpt>
      <trkpt lat="49.69377" lon="-1.41567">
        <ele>18.3</ele>
        <time>2020-06-15T09:02:17Z</time>
      </trkpt>
      <trkpt lat="49.69377" lon="-1.4156">
        <ele>18.4</ele>
        <time>2020-06-15T09:02:18Z</time>
      </trkpt>
      <trkpt lat="49.69377" lon="-1.41554">
        <ele>18.5</ele>
        <time>2020-06-15T09:02:19Z</time>
      </trkpt>
      <trkpt lat="49.69377" lon="-1.41547">
        <ele>18.6</ele>
        <time>2020-06-15T09:02:20Z</time>
      </trkpt>
      <trkpt lat="49.69377" lon="-1.41541">
        <ele>18.7</ele>
        <time>2020-06-15T09:02:21Z</time>
      </trkpt>
      <trkpt lat="49.69377" lon="-1.41533">
        <ele>18.9</ele>
        <time>2020-06-15T09:02:22Z</time>
      </trkpt>
      <trkpt lat="49.69377" lon="-1.41526">
        <ele>19</ele>
        <time>2020-06-15T09:02:23Z</time>
      </trkpt>
      <trkpt lat="49.69378" lon="-1.41519">
        <ele>19.1</ele>
        <time>2020-06-15T09:02:24Z</time>
      </trkpt>
      <trkpt lat="49.69378" lon="-1.41512">
        <ele>19.2</ele>
        <time>2020-06-15T09:02:25Z</time>
      </trkpt>
      <trkpt lat="49.69378" lon="-1.41505">
        <ele>19.3</ele>
        <time>2020-06-15T09:02:26Z</time>
      </trkpt>
      <trkpt lat="49.69377" lon="-1.41498">
        <ele>19.4</ele>
        <time>2020-06-15T09:02:27Z</time>
      </trkpt>
      <trkpt lat="49.69377" lon="-1.41491">
        <ele>19.5</ele>
        <time>2020-06-15T09:02:28Z</time>
      </trkpt>
      <trkpt lat="49.69377" lon="-1.41483">
        <ele>19.5</ele>
        <time>2020-06-15T09:02:29Z</time>
      </trkpt>
      <trkpt lat="49.69377" lon="-1.41476">
        <ele>19.6</ele>
        <time>2020-06-15T09:02:30Z</time>
      </trkpt>
      <trkpt lat="49.69377" lon="-1.41468">
        <ele>19.7</ele>
        <time>2020-06-15T09:02:31Z</time>
      </trkpt>
      <trkpt lat="49.69377" lon="-1.41461">
        <ele>19.8</ele>
        <time>2020-06-15T09:02:32Z</time>
      </trkpt>
      <trkpt lat="49.69378" lon="-1.41453">
        <ele>19.9</ele>
        <time>2020-06-15T09:02:33Z</time>
      </trkpt>
      <trkpt lat="49.69378" lon="-1.41447">
        <ele>20</ele>
        <time>2020-06-15T09:02:34Z</time>
      </trkpt>
      <trkpt lat="49.69378" lon="-1.4144">
        <ele>20.1</ele>
        <time>2020-06-15T09:02:35Z</time>
      </trkpt>
      <trkpt lat="49.69378" lon="-1.41433">
        <ele>20.2</ele>
        <time>2020-06-15T09:02:36Z</time>
      </trkpt>
      <trkpt lat="49.69377" lon="-1.41425">
        <ele>20.3</ele>
        <time>2020-06-15T09:02:37Z</time>
      </trkpt>
      <trkpt lat="49.69378" lon="-1.41419">
        <ele>20.4</ele>
        <time>2020-06-15T09:02:38Z</time>
      </trkpt>
      <trkpt lat="49.69377" lon="-1.41412">
        <ele>20.5</ele>
        <time>2020-06-15T09:02:39Z</time>
      </trkpt>
      <trkpt lat="49.69378" lon="-1.41404">
        <ele>20.6</ele>
        <time>2020-06-15T09:02:40Z</time>
      </trkpt>
      <trkpt lat="49.69378" lon="-1.41396">
        <ele>20.7</ele>
        <time>2020-06-15T09:02:41Z</time>
      </trkpt>
      <trkpt lat="49.69377" lon="-1.41389">
        <ele>20.8</ele>
        <time>2020-06-15T09:02:42Z</time>
      </trkpt>
      <trkpt lat="49.69377" lon="-1.4138">
        <ele>21</ele>
        <time>2020-06-15T09:02:43Z</time>
      </trkpt>
      <trkpt lat="49.69377" lon="-1.41372">
        <ele>21.1</ele>
        <time>2020-06-15T09:02:44Z</time>
      </trkpt>
      <trkpt lat="49.69377" lon="-1.41365">
        <ele>21.2</ele>
        <time>2020-06-15T09:02:45Z</time>
      </trkpt>
      <trkpt lat="49.69377" lon="-1.41357">
        <ele>21.4</ele>
        <time>2020-06-15T09:02:46Z</time>
      </trkpt>
      <trkpt lat="49.69377" lon="-1.41349">
        <ele>21.5</ele>
        <time>2020-06-15T09:02:47Z</time>
      </trkpt>
      <trkpt lat="49.69377" lon="-1.41341">
        <ele>21.7</ele>
        <time>2020-06-15T09:02:48Z</time>
      </trkpt>
      <trkpt lat="49.69377" lon="-1.41335">
        <ele>21.8</ele>
        <time>2020-06-15T09:02:49Z</time>
      </trkpt>
      <trkpt lat="49.69377" lon="-1.41327">
        <ele>21.9</ele>
        <time>2020-06-15T09:02:50Z</time>
      </trkpt>
      <trkpt lat="49.69377" lon="-1.41319">
        <ele>22.1</ele>
        <time>2020-06-15T09:02:51Z</time>
      </trkpt>
      <trkpt lat="49.69377" lon="-1.41312">
        <ele>22.2</ele>
        <time>2020-06-15T09:02:52Z</time>
      </trkpt>
      <trkpt lat="49.69377" lon="-1.41303">
        <ele>22.4</ele>
        <time>2020-06-15T09:02:53Z</time>
      </trkpt>
      <trkpt lat="49.69376" lon="-1.41298">
        <ele>22.5</ele>
        <time>2020-06-15T09:02:54Z</time>
      </trkpt>
      <trkpt lat="49.69376" lon="-1.41292">
        <ele>22.6</ele>
        <time>2020-06-15T09:02:55Z</time>
      </trkpt>
      <trkpt lat="49.69376" lon="-1.41284">
        <ele>22.8</ele>
        <time>2020-06-15T09:02:56Z</time>
      </trkpt>
      <trkpt lat="49.69376" lon="-1.41278">
        <ele>23</ele>
        <time>2020-06-15T09:02:57Z</time>
      </trkpt>
      <trkpt lat="49.69376" lon="-1.41269">
        <ele>23.1</ele>
        <time>2020-06-15T09:02:58Z</time>
      </trkpt>
      <trkpt lat="49.69376" lon="-1.4126">
        <ele>23.3</ele>
        <time>2020-06-15T09:02:59Z</time>
      </trkpt>
      <trkpt lat="49.69375" lon="-1.41252">
        <ele>23.4</ele>
        <time>2020-06-15T09:03:00Z</time>
      </trkpt>
      <trkpt lat="49.69375" lon="-1.41245">
        <ele>23.6</ele>
        <time>2020-06-15T09:03:01Z</time>
      </trkpt>
      <trkpt lat="49.69374" lon="-1.41239">
        <ele>23.7</ele>
        <time>2020-06-15T09:03:02Z</time>
      </trkpt>
      <trkpt lat="49.69373" lon="-1.41233">
        <ele>23.8</ele>
        <time>2020-06-15T09:03:03Z</time>
      </trkpt>
      <trkpt lat="49.69372" lon="-1.41225">
        <ele>23.9</ele>
        <time>2020-06-15T09:03:04Z</time>
      </trkpt>
      <trkpt lat="49.6937" lon="-1.41217">
        <ele>24</ele>
        <time>2020-06-15T09:03:05Z</time>
      </trkpt>
      <trkpt lat="49.69369" lon="-1.41209">
        <ele>24.1</ele>
        <time>2020-06-15T09:03:06Z</time>
      </trkpt>
      <trkpt lat="49.69367" lon="-1.41201">
        <ele>24.2</ele>
        <time>2020-06-15T09:03:07Z</time>
      </trkpt>
      <trkpt lat="49.69366" lon="-1.41195">
        <ele>24.3</ele>
        <time>2020-06-15T09:03:08Z</time>
      </trkpt>
      <trkpt lat="49.69363" lon="-1.41188">
        <ele>24.4</ele>
        <time>2020-06-15T09:03:09Z</time>
      </trkpt>
      <trkpt lat="49.69362" lon="-1.41181">
        <ele>24.5</ele>
        <time>2020-06-15T09:03:10Z</time>
      </trkpt>
      <trkpt lat="49.6936" lon="-1.41172">
        <ele>24.5</ele>
        <time>2020-06-15T09:03:11Z</time>
      </trkpt>
      <trkpt lat="49.69358" lon="-1.41165">
        <ele>24.6</ele>
        <time>2020-06-15T09:03:12Z</time>
      </trkpt>
      <trkpt lat="49.69355" lon="-1.41156">
        <ele>24.6</ele>
        <time>2020-06-15T09:03:13Z</time>
      </trkpt>
      <trkpt lat="49.69353" lon="-1.4115">
        <ele>24.6</ele>
        <time>2020-06-15T09:03:14Z</time>
      </trkpt>
      <trkpt lat="49.69351" lon="-1.41143">
        <ele>24.8</ele>
        <time>2020-06-15T09:03:15Z</time>
      </trkpt>
      <trkpt lat="49.69348" lon="-1.41137">
        <ele>24.9</ele>
        <time>2020-06-15T09:03:16Z</time>
      </trkpt>
      <trkpt lat="49.69346" lon="-1.4113">
        <ele>25</ele>
        <time>2020-06-15T09:03:17Z</time>
      </trkpt>
      <trkpt lat="49.69343" lon="-1.41122">
        <ele>25.1</ele>
        <time>2020-06-15T09:03:18Z</time>
      </trkpt>
      <trkpt lat="49.69341" lon="-1.41117">
        <ele>25.1</ele>
        <time>2020-06-15T09:03:19Z</time>
      </trkpt>
      <trkpt lat="49.69339" lon="-1.4111">
        <ele>25.2</ele>
        <time>2020-06-15T09:03:20Z</time>
      </trkpt>
      <trkpt lat="49.69337" lon="-1.41102">
        <ele>25.3</ele>
        <time>2020-06-15T09:03:21Z</time>
      </trkpt>
      <trkpt lat="49.69335" lon="-1.41095">
        <ele>25.3</ele>
        <time>2020-06-15T09:03:22Z</time>
      </trkpt>
      <trkpt lat="49.69332" lon="-1.41087">
        <ele>25.3</ele>
        <time>2020-06-15T09:03:23Z</time>
      </trkpt>
      <trkpt lat="49.69331" lon="-1.41081">
        <ele>25.3</ele>
        <time>2020-06-15T09:03:24Z</time>
      </trkpt>
      <trkpt lat="49.6933" lon="-1.41074">
        <ele>25.3</ele>
        <time>2020-06-15T09:03:25Z</time>
      </trkpt>
      <trkpt lat="49.69327" lon="-1.41065">
        <ele>25.2</ele>
        <time>2020-06-15T09:03:26Z</time>
      </trkpt>
      <trkpt lat="49.69326" lon="-1.41058">
        <ele>25.2</ele>
        <time>2020-06-15T09:03:27Z</time>
      </trkpt>
      <trkpt lat="49.69325" lon="-1.4105">
        <ele>25.2</ele>
        <time>2020-06-15T09:03:28Z</time>
      </trkpt>
      <trkpt lat="49.69325" lon="-1.41042">
        <ele>25.2</ele>
        <time>2020-06-15T09:03:29Z</time>
      </trkpt>
      <trkpt lat="49.69323" lon="-1.41033">
        <ele>25.1</ele>
        <time>2020-06-15T09:03:30Z</time>
      </trkpt>
      <trkpt lat="49.69322" lon="-1.41025">
        <ele>25.1</ele>
        <time>2020-06-15T09:03:31Z</time>
      </trkpt>
      <trkpt lat="49.6932" lon="-1.41016">
        <ele>25.1</ele>
        <time>2020-06-15T09:03:32Z</time>
      </trkpt>
      <trkpt lat="49.6932" lon="-1.41005">
        <ele>25</ele>
        <time>2020-06-15T09:03:33Z</time>
      </trkpt>
      <trkpt lat="49.6932" lon="-1.40996">
        <ele>25</ele>
        <time>2020-06-15T09:03:34Z</time>
      </trkpt>
      <trkpt lat="49.6932" lon="-1.40987">
        <ele>25</ele>
        <time>2020-06-15T09:03:35Z</time>
      </trkpt>
      <trkpt lat="49.6932" lon="-1.40979">
        <ele>25</ele>
        <time>2020-06-15T09:03:36Z</time>
      </trkpt>
      <trkpt lat="49.6932" lon="-1.40971">
        <ele>25</ele>
        <time>2020-06-15T09:03:37Z</time>
      </trkpt>
      <trkpt lat="49.6932" lon="-1.40963">
        <ele>25</ele>
        <time>2020-06-15T09:03:38Z</time>
      </trkpt>
      <trkpt lat="49.6932" lon="-1.40955">
        <ele>24.9</ele>
        <time>2020-06-15T09:03:39Z</time>
      </trkpt>
      <trkpt lat="49.6932" lon="-1.40947">
        <ele>24.9</ele>
        <time>2020-06-15T09:03:40Z</time>
      </trkpt>
      <trkpt lat="49.6932" lon="-1.40939">
        <ele>24.9</ele>
        <time>2020-06-15T09:03:41Z</time>
      </trkpt>
      <trkpt lat="49.6932" lon="-1.40932">
        <ele>24.8</ele>
        <time>2020-06-15T09:03:42Z</time>
      </trkpt>
      <trkpt lat="49.69321" lon="-1.40924">
        <ele>24.7</ele>
        <time>2020-06-15T09:03:43Z</time>
      </trkpt>
      <trkpt lat="49.69322" lon="-1.40915">
        <ele>24.7</ele>
        <time>2020-06-15T09:03:44Z</time>
      </trkpt>
      <trkpt lat="49.69324" lon="-1.40906">
        <ele>24.6</ele>
        <time>2020-06-15T09:03:45Z</time>
      </trkpt>
      <trkpt lat="49.69325" lon="-1.40897">
        <ele>24.5</ele>
        <time>2020-06-15T09:03:46Z</time>
      </trkpt>
      <trkpt lat="49.69326" lon="-1.40888">
        <ele>24.4</ele>
        <time>2020-06-15T09:03:47Z</time>
      </trkpt>
      <trkpt lat="49.69328" lon="-1.40879">
        <ele>24.3</ele>
        <time>2020-06-15T09:03:48Z</time>
      </trkpt>
      <trkpt lat="49.69329" lon="-1.40869">
        <ele>24.3</ele>
        <time>2020-06-15T09:03:49Z</time>
      </trkpt>
      <trkpt lat="49.69331" lon="-1.40861">
        <ele>24.2</ele>
        <time>2020-06-15T09:03:50Z</time>
      </trkpt>
      <trkpt lat="49.69332" lon="-1.40852">
        <ele>24.2</ele>
        <time>2020-06-15T09:03:51Z</time>
      </trkpt>
      <trkpt lat="49.69334" lon="-1.40843">
        <ele>24.2</ele>
        <time>2020-06-15T09:03:52Z</time>
      </trkpt>
      <trkpt lat="49.69335" lon="-1.40833">
        <ele>24.1</ele>
        <time>2020-06-15T09:03:53Z</time>
      </trkpt>
      <trkpt lat="49.69337" lon="-1.40826">
        <ele>24</ele>
        <time>2020-06-15T09:03:54Z</time>
      </trkpt>
      <trkpt lat="49.69339" lon="-1.40818">
        <ele>24</ele>
        <time>2020-06-15T09:03:55Z</time>
      </trkpt>
      <trkpt lat="49.69341" lon="-1.40812">
        <ele>23.9</ele>
        <time>2020-06-15T09:03:56Z</time>
      </trkpt>
      <trkpt lat="49.69343" lon="-1.40804">
        <ele>23.8</ele>
        <time>2020-06-15T09:03:57Z</time>
      </trkpt>
      <trkpt lat="49.69346" lon="-1.40798">
        <ele>23.8</ele>
        <time>2020-06-15T09:03:58Z</time>
      </trkpt>
      <trkpt lat="49.69348" lon="-1.4079">
        <ele>23.7</ele>
        <time>2020-06-15T09:03:59Z</time>
      </trkpt>
      <trkpt lat="49.69351" lon="-1.40783">
        <ele>23.6</ele>
        <time>2020-06-15T09:04:00Z</time>
      </trkpt>
      <trkpt lat="49.69353" lon="-1.40777">
        <ele>23.5</ele>
        <time>2020-06-15T09:04:01Z</time>
      </trkpt>
      <trkpt lat="49.69356" lon="-1.40767">
        <ele>23.3</ele>
        <time>2020-06-15T09:04:02Z</time>
      </trkpt>
      <trkpt lat="49.69359" lon="-1.40759">
        <ele>23.2</ele>
        <time>2020-06-15T09:04:03Z</time>
      </trkpt>
      <trkpt lat="49.69362" lon="-1.40748">
        <ele>22.9</ele>
        <time>2020-06-15T09:04:04Z</time>
      </trkpt>
      <trkpt lat="49.69366" lon="-1.40738">
        <ele>22.7</ele>
        <time>2020-06-15T09:04:05Z</time>
      </trkpt>
      <trkpt lat="49.69369" lon="-1.40728">
        <ele>22.4</ele>
        <time>2020-06-15T09:04:06Z</time>
      </trkpt>
      <trkpt lat="49.69374" lon="-1.40718">
        <ele>22.2</ele>
        <time>2020-06-15T09:04:07Z</time>
      </trkpt>
      <trkpt lat="49.69377" lon="-1.40709">
        <ele>21.9</ele>
        <time>2020-06-15T09:04:08Z</time>
      </trkpt>
      <trkpt lat="49.69379" lon="-1.407">
        <ele>21.7</ele>
        <time>2020-06-15T09:04:09Z</time>
      </trkpt>
      <trkpt lat="49.69382" lon="-1.40692">
        <ele>21.5</ele>
        <time>2020-06-15T09:04:10Z</time>
      </trkpt>
      <trkpt lat="49.69385" lon="-1.40684">
        <ele>21.3</ele>
        <time>2020-06-15T09:04:11Z</time>
      </trkpt>
      <trkpt lat="49.69387" lon="-1.40675">
        <ele>21</ele>
        <time>2020-06-15T09:04:12Z</time>
      </trkpt>
      <trkpt lat="49.6939" lon="-1.40666">
        <ele>20.9</ele>
        <time>2020-06-15T09:04:13Z</time>
      </trkpt>
      <trkpt lat="49.69393" lon="-1.40655">
        <ele>20.6</ele>
        <time>2020-06-15T09:04:14Z</time>
      </trkpt>
      <trkpt lat="49.69395" lon="-1.40644">
        <ele>20.4</ele>
        <time>2020-06-15T09:04:15Z</time>
      </trkpt>
      <trkpt lat="49.69398" lon="-1.40632">
        <ele>20</ele>
        <time>2020-06-15T09:04:16Z</time>
      </trkpt>
      <trkpt lat="49.69399" lon="-1.4062">
        <ele>19.7</ele>
        <time>2020-06-15T09:04:17Z</time>
      </trkpt>
      <trkpt lat="49.69401" lon="-1.40608">
        <ele>19.3</ele>
        <time>2020-06-15T09:04:18Z</time>
      </trkpt>
      <trkpt lat="49.69402" lon="-1.40596">
        <ele>19</ele>
        <time>2020-06-15T09:04:19Z</time>
      </trkpt>
      <trkpt lat="49.69404" lon="-1.40584">
        <ele>18.7</ele>
        <time>2020-06-15T09:04:20Z</time>
      </trkpt>
      <trkpt lat="49.69405" lon="-1.40572">
        <ele>18.4</ele>
        <time>2020-06-15T09:04:21Z</time>
      </trkpt>
      <trkpt lat="49.69406" lon="-1.4056">
        <ele>18.1</ele>
        <time>2020-06-15T09:04:22Z</time>
      </trkpt>
      <trkpt lat="49.69408" lon="-1.40548">
        <ele>17.8</ele>
        <time>2020-06-15T09:04:23Z</time>
      </trkpt>
      <trkpt lat="49.69409" lon="-1.40535">
        <ele>17.5</ele>
        <time>2020-06-15T09:04:24Z</time>
      </trkpt>
      <trkpt lat="49.69409" lon="-1.40523">
        <ele>17.3</ele>
        <time>2020-06-15T09:04:25Z</time>
      </trkpt>
      <trkpt lat="49.69409" lon="-1.40511">
        <ele>17.1</ele>
        <time>2020-06-15T09:04:26Z</time>
      </trkpt>
      <trkpt lat="49.69409" lon="-1.405">
        <ele>16.9</ele>
        <time>2020-06-15T09:04:27Z</time>
      </trkpt>
      <trkpt lat="49.69409" lon="-1.40489">
        <ele>16.8</ele>
        <time>2020-06-15T09:04:28Z</time>
      </trkpt>
      <trkpt lat="49.69408" lon="-1.40478">
        <ele>16.6</ele>
        <time>2020-06-15T09:04:29Z</time>
      </trkpt>
      <trkpt lat="49.69407" lon="-1.40467">
        <ele>16.5</ele>
        <time>2020-06-15T09:04:30Z</time>
      </trkpt>
      <trkpt lat="49.69406" lon="-1.40457">
        <ele>16.3</ele>
        <time>2020-06-15T09:04:31Z</time>
      </trkpt>
      <trkpt lat="49.69405" lon="-1.40447">
        <ele>16.3</ele>
        <time>2020-06-15T09:04:32Z</time>
      </trkpt>
      <trkpt lat="49.69404" lon="-1.40436">
        <ele>16.2</ele>
        <time>2020-06-15T09:04:33Z</time>
      </trkpt>
      <trkpt lat="49.69402" lon="-1.40426">
        <ele>16.1</ele>
        <time>2020-06-15T09:04:34Z</time>
      </trkpt>
      <trkpt lat="49.694" lon="-1.40415">
        <ele>16.1</ele>
        <time>2020-06-15T09:04:35Z</time>
      </trkpt>
      <trkpt lat="49.69398" lon="-1.40404">
        <ele>16.1</ele>
        <time>2020-06-15T09:04:36Z</time>
      </trkpt>
      <trkpt lat="49.69396" lon="-1.40394">
        <ele>16.1</ele>
        <time>2020-06-15T09:04:37Z</time>
      </trkpt>
      <trkpt lat="49.69394" lon="-1.40384">
        <ele>16</ele>
        <time>2020-06-15T09:04:38Z</time>
      </trkpt>
      <trkpt lat="49.69392" lon="-1.40373">
        <ele>16</ele>
        <time>2020-06-15T09:04:39Z</time>
      </trkpt>
      <trkpt lat="49.6939" lon="-1.40363">
        <ele>16</ele>
        <time>2020-06-15T09:04:40Z</time>
      </trkpt>
      <trkpt lat="49.69388" lon="-1.40353">
        <ele>15.9</ele>
        <time>2020-06-15T09:04:41Z</time>
      </trkpt>
      <trkpt lat="49.69387" lon="-1.40342">
        <ele>15.8</ele>
        <time>2020-06-15T09:04:42Z</time>
      </trkpt>
      <trkpt lat="49.69384" lon="-1.40332">
        <ele>15.7</ele>
        <time>2020-06-15T09:04:43Z</time>
      </trkpt>
      <trkpt lat="49.69382" lon="-1.40321">
        <ele>15.6</ele>
        <time>2020-06-15T09:04:44Z</time>
      </trkpt>
      <trkpt lat="49.6938" lon="-1.40311">
        <ele>15.5</ele>
        <time>2020-06-15T09:04:45Z</time>
      </trkpt>
      <trkpt lat="49.69378" lon="-1.403">
        <ele>15.4</ele>
        <time>2020-06-15T09:04:46Z</time>
      </trkpt>
      <trkpt lat="49.69375" lon="-1.40289">
        <ele>15.3</ele>
        <time>2020-06-15T09:04:47Z</time>
      </trkpt>
      <trkpt lat="49.69373" lon="-1.40278">
        <ele>15.2</ele>
        <time>2020-06-15T09:04:48Z</time>
      </trkpt>
      <trkpt lat="49.69371" lon="-1.40268">
        <ele>15.2</ele>
        <time>2020-06-15T09:04:49Z</time>
      </trkpt>
      <trkpt lat="49.69369" lon="-1.40257">
        <ele>15.1</ele>
        <time>2020-06-15T09:04:50Z</time>
      </trkpt>
      <trkpt lat="49.69367" lon="-1.40247">
        <ele>15.1</ele>
        <time>2020-06-15T09:04:51Z</time>
      </trkpt>
      <trkpt lat="49.69366" lon="-1.40236">
        <ele>15</ele>
        <time>2020-06-15T09:04:52Z</time>
      </trkpt>
      <trkpt lat="49.69364" lon="-1.40225">
        <ele>14.9</ele>
        <time>2020-06-15T09:04:53Z</time>
      </trkpt>
      <trkpt lat="49.69364" lon="-1.40215">
        <ele>14.9</ele>
        <time>2020-06-15T09:04:54Z</time>
      </trkpt>
      <trkpt lat="49.69363" lon="-1.40203">
        <ele>14.8</ele>
        <time>2020-06-15T09:04:55Z</time>
      </trkpt>
      <trkpt lat="49.69363" lon="-1.40192">
        <ele>14.8</ele>
        <time>2020-06-15T09:04:56Z</time>
      </trkpt>
      <trkpt lat="49.69363" lon="-1.40181">
        <ele>14.7</ele>
        <time>2020-06-15T09:04:57Z</time>
      </trkpt>
      <trkpt lat="49.69364" lon="-1.4017">
        <ele>14.7</ele>
        <time>2020-06-15T09:04:58Z</time>
      </trkpt>
      <trkpt lat="49.69366" lon="-1.40159">
        <ele>14.6</ele>
        <time>2020-06-15T09:04:59Z</time>
      </trkpt>
      <trkpt lat="49.69368" lon="-1.40148">
        <ele>14.6</ele>
        <time>2020-06-15T09:05:00Z</time>
      </trkpt>
      <trkpt lat="49.6937" lon="-1.40138">
        <ele>14.5</ele>
        <time>2020-06-15T09:05:01Z</time>
      </trkpt>
      <trkpt lat="49.69373" lon="-1.40128">
        <ele>14.5</ele>
        <time>2020-06-15T09:05:02Z</time>
      </trkpt>
      <trkpt lat="49.69376" lon="-1.40118">
        <ele>14.5</ele>
        <time>2020-06-15T09:05:03Z</time>
      </trkpt>
      <trkpt lat="49.69379" lon="-1.40107">
        <ele>14.5</ele>
        <time>2020-06-15T09:05:04Z</time>
      </trkpt>
      <trkpt lat="49.69382" lon="-1.40098">
        <ele>14.5</ele>
        <time>2020-06-15T09:05:05Z</time>
      </trkpt>
      <trkpt lat="49.69385" lon="-1.40088">
        <ele>14.5</ele>
        <time>2020-06-15T09:05:06Z</time>
      </trkpt>
      <trkpt lat="49.69389" lon="-1.40078">
        <ele>14.5</ele>
        <time>2020-06-15T09:05:07Z</time>
      </trkpt>
      <trkpt lat="49.69392" lon="-1.40069">
        <ele>14.5</ele>
        <time>2020-06-15T09:05:08Z</time>
      </trkpt>
      <trkpt lat="49.69397" lon="-1.40061">
        <ele>14.5</ele>
        <time>2020-06-15T09:05:09Z</time>
      </trkpt>
      <trkpt lat="49.694" lon="-1.40052">
        <ele>14.6</ele>
        <time>2020-06-15T09:05:10Z</time>
      </trkpt>
      <trkpt lat="49.69404" lon="-1.40042">
        <ele>14.7</ele>
        <time>2020-06-15T09:05:11Z</time>
      </trkpt>
      <trkpt lat="49.69407" lon="-1.40033">
        <ele>14.7</ele>
        <time>2020-06-15T09:05:12Z</time>
      </trkpt>
      <trkpt lat="49.69411" lon="-1.40024">
        <ele>14.9</ele>
        <time>2020-06-15T09:05:13Z</time>
      </trkpt>
      <trkpt lat="49.69415" lon="-1.40016">
        <ele>15</ele>
        <time>2020-06-15T09:05:14Z</time>
      </trkpt>
      <trkpt lat="49.69419" lon="-1.40008">
        <ele>15.1</ele>
        <time>2020-06-15T09:05:15Z</time>
      </trkpt>
      <trkpt lat="49.69422" lon="-1.39999">
        <ele>15.2</ele>
        <time>2020-06-15T09:05:16Z</time>
      </trkpt>
      <trkpt lat="49.69426" lon="-1.39991">
        <ele>15.4</ele>
        <time>2020-06-15T09:05:17Z</time>
      </trkpt>
      <trkpt lat="49.6943" lon="-1.39983">
        <ele>15.5</ele>
        <time>2020-06-15T09:05:18Z</time>
      </trkpt>
      <trkpt lat="49.69433" lon="-1.39974">
        <ele>15.6</ele>
        <time>2020-06-15T09:05:19Z</time>
      </trkpt>
      <trkpt lat="49.69436" lon="-1.39966">
        <ele>15.6</ele>
        <time>2020-06-15T09:05:20Z</time>
      </trkpt>
      <trkpt lat="49.6944" lon="-1.39958">
        <ele>15.6</ele>
        <time>2020-06-15T09:05:21Z</time>
      </trkpt>
      <trkpt lat="49.69444" lon="-1.3995">
        <ele>15.5</ele>
        <time>2020-06-15T09:05:22Z</time>
      </trkpt>
      <trkpt lat="49.69448" lon="-1.39942">
        <ele>15.5</ele>
        <time>2020-06-15T09:05:23Z</time>
      </trkpt>
      <trkpt lat="49.69452" lon="-1.39934">
        <ele>15.4</ele>
        <time>2020-06-15T09:05:24Z</time>
      </trkpt>
      <trkpt lat="49.69455" lon="-1.39925">
        <ele>15.3</ele>
        <time>2020-06-15T09:05:25Z</time>
      </trkpt>
      <trkpt lat="49.69459" lon="-1.39917">
        <ele>15.2</ele>
        <time>2020-06-15T09:05:26Z</time>
      </trkpt>
      <trkpt lat="49.69463" lon="-1.39909">
        <ele>15</ele>
        <time>2020-06-15T09:05:27Z</time>
      </trkpt>
      <trkpt lat="49.69466" lon="-1.399">
        <ele>14.9</ele>
        <time>2020-06-15T09:05:28Z</time>
      </trkpt>
      <trkpt lat="49.6947" lon="-1.39892">
        <ele>14.6</ele>
        <time>2020-06-15T09:05:29Z</time>
      </trkpt>
      <trkpt lat="49.69474" lon="-1.39883">
        <ele>14.4</ele>
        <time>2020-06-15T09:05:30Z</time>
      </trkpt>
      <trkpt lat="49.69477" lon="-1.39874">
        <ele>14.1</ele>
        <time>2020-06-15T09:05:31Z</time>
      </trkpt>
      <trkpt lat="49.69481" lon="-1.39864">
        <ele>13.7</ele>
        <time>2020-06-15T09:05:32Z</time>
      </trkpt>
      <trkpt lat="49.69485" lon="-1.39854">
        <ele>13.4</ele>
        <time>2020-06-15T09:05:33Z</time>
      </trkpt>
      <trkpt lat="49.6949" lon="-1.39844">
        <ele>13</ele>
        <time>2020-06-15T09:05:34Z</time>
      </trkpt>
      <trkpt lat="49.69494" lon="-1.39834">
        <ele>12.5</ele>
        <time>2020-06-15T09:05:35Z</time>
      </trkpt>
      <trkpt lat="49.69498" lon="-1.39823">
        <ele>12</ele>
        <time>2020-06-15T09:05:36Z</time>
      </trkpt>
      <trkpt lat="49.69502" lon="-1.3981">
        <ele>11.4</ele>
        <time>2020-06-15T09:05:37Z</time>
      </trkpt>
      <trkpt lat="49.69505" lon="-1.39798">
        <ele>10.8</ele>
        <time>2020-06-15T09:05:38Z</time>
      </trkpt>
      <trkpt lat="49.69508" lon="-1.39785">
        <ele>10.1</ele>
        <time>2020-06-15T09:05:39Z</time>
      </trkpt>
      <trkpt lat="49.69509" lon="-1.39771">
        <ele>9.5</ele>
        <time>2020-06-15T09:05:40Z</time>
      </trkpt>
      <trkpt lat="49.6951" lon="-1.39756">
        <ele>8.8</ele>
        <time>2020-06-15T09:05:41Z</time>
      </trkpt>
      <trkpt lat="49.69509" lon="-1.39741">
        <ele>8.1</ele>
        <time>2020-06-15T09:05:42Z</time>
      </trkpt>
      <trkpt lat="49.69508" lon="-1.39726">
        <ele>7.4</ele>
        <time>2020-06-15T09:05:43Z</time>
      </trkpt>
      <trkpt lat="49.69505" lon="-1.39711">
        <ele>6.6</ele>
        <time>2020-06-15T09:05:44Z</time>
      </trkpt>
      <trkpt lat="49.69502" lon="-1.39697">
        <ele>5.9</ele>
        <time>2020-06-15T09:05:45Z</time>
      </trkpt>
      <trkpt lat="49.69497" lon="-1.39683">
        <ele>5.1</ele>
        <time>2020-06-15T09:05:46Z</time>
      </trkpt>
      <trkpt lat="49.69493" lon="-1.39669">
        <ele>4.3</ele>
        <time>2020-06-15T09:05:47Z</time>
      </trkpt>
      <trkpt lat="49.69489" lon="-1.39655">
        <ele>3.7</ele>
        <time>2020-06-15T09:05:48Z</time>
      </trkpt>
      <trkpt lat="49.69484" lon="-1.39642">
        <ele>3.2</ele>
        <time>2020-06-15T09:05:49Z</time>
      </trkpt>
      <trkpt lat="49.69479" lon="-1.39629">
        <ele>2.8</ele>
        <time>2020-06-15T09:05:50Z</time>
      </trkpt>
      <trkpt lat="49.69475" lon="-1.39616">
        <ele>2.6</ele>
        <time>2020-06-15T09:05:51Z</time>
      </trkpt>
      <trkpt lat="49.6947" lon="-1.39603">
        <ele>2.5</ele>
        <time>2020-06-15T09:05:52Z</time>
      </trkpt>
      <trkpt lat="49.69466" lon="-1.3959">
        <ele>2.4</ele>
        <time>2020-06-15T09:05:53Z</time>
      </trkpt>
      <trkpt lat="49.69462" lon="-1.39577">
        <ele>2.2</ele>
        <time>2020-06-15T09:05:54Z</time>
      </trkpt>
      <trkpt lat="49.69459" lon="-1.39564">
        <ele>2.1</ele>
        <time>2020-06-15T09:05:55Z</time>
      </trkpt>
      <trkpt lat="49.69456" lon="-1.39551">
        <ele>2.1</ele>
        <time>2020-06-15T09:05:56Z</time>
      </trkpt>
      <trkpt lat="49.69454" lon="-1.39539">
        <ele>2.2</ele>
        <time>2020-06-15T09:05:57Z</time>
      </trkpt>
      <trkpt lat="49.69452" lon="-1.39527">
        <ele>2.3</ele>
        <time>2020-06-15T09:05:58Z</time>
      </trkpt>
      <trkpt lat="49.69452" lon="-1.39515">
        <ele>2.6</ele>
        <time>2020-06-15T09:05:59Z</time>
      </trkpt>
      <trkpt lat="49.69451" lon="-1.39504">
        <ele>2.8</ele>
        <time>2020-06-15T09:06:00Z</time>
      </trkpt>
      <trkpt lat="49.69451" lon="-1.39493">
        <ele>3</ele>
        <time>2020-06-15T09:06:01Z</time>
      </trkpt>
      <trkpt lat="49.69452" lon="-1.39482">
        <ele>3.3</ele>
        <time>2020-06-15T09:06:02Z</time>
      </trkpt>
      <trkpt lat="49.69452" lon="-1.39471">
        <ele>3.6</ele>
        <time>2020-06-15T09:06:03Z</time>
      </trkpt>
      <trkpt lat="49.69453" lon="-1.3946">
        <ele>4</ele>
        <time>2020-06-15T09:06:04Z</time>
      </trkpt>
      <trkpt lat="49.69454" lon="-1.3945">
        <ele>4.3</ele>
        <time>2020-06-15T09:06:05Z</time>
      </trkpt>
      <trkpt lat="49.69454" lon="-1.3944">
        <ele>4.6</ele>
        <time>2020-06-15T09:06:06Z</time>
      </trkpt>
      <trkpt lat="49.69456" lon="-1.3943">
        <ele>5</ele>
        <time>2020-06-15T09:06:07Z</time>
      </trkpt>
      <trkpt lat="49.69457" lon="-1.39421">
        <ele>5.4</ele>
        <time>2020-06-15T09:06:08Z</time>
      </trkpt>
      <trkpt lat="49.69459" lon="-1.39412">
        <ele>5.7</ele>
        <time>2020-06-15T09:06:09Z</time>
      </trkpt>
      <trkpt lat="49.6946" lon="-1.39403">
        <ele>6.1</ele>
        <time>2020-06-15T09:06:10Z</time>
      </trkpt>
      <trkpt lat="49.69461" lon="-1.39394">
        <ele>6.4</ele>
        <time>2020-06-15T09:06:11Z</time>
      </trkpt>
      <trkpt lat="49.69462" lon="-1.39386">
        <ele>6.8</ele>
        <time>2020-06-15T09:06:12Z</time>
      </trkpt>
      <trkpt lat="49.69463" lon="-1.39378">
        <ele>7.1</ele>
        <time>2020-06-15T09:06:13Z</time>
      </trkpt>
      <trkpt lat="49.69464" lon="-1.3937">
        <ele>7.4</ele>
        <time>2020-06-15T09:06:14Z</time>
      </trkpt>
      <trkpt lat="49.69465" lon="-1.39363">
        <ele>7.8</ele>
        <time>2020-06-15T09:06:15Z</time>
      </trkpt>
      <trkpt lat="49.69466" lon="-1.39355">
        <ele>8.1</ele>
        <time>2020-06-15T09:06:16Z</time>
      </trkpt>
      <trkpt lat="49.69467" lon="-1.39347">
        <ele>8.4</ele>
        <time>2020-06-15T09:06:17Z</time>
      </trkpt>
      <trkpt lat="49.69469" lon="-1.3934">
        <ele>8.7</ele>
        <time>2020-06-15T09:06:18Z</time>
      </trkpt>
      <trkpt lat="49.6947" lon="-1.39332">
        <ele>9</ele>
        <time>2020-06-15T09:06:19Z</time>
      </trkpt>
      <trkpt lat="49.69471" lon="-1.39324">
        <ele>9.6</ele>
        <time>2020-06-15T09:06:20Z</time>
      </trkpt>
      <trkpt lat="49.69472" lon="-1.39319">
        <ele>9.8</ele>
        <time>2020-06-15T09:06:21Z</time>
      </trkpt>
      <trkpt lat="49.69473" lon="-1.39313">
        <ele>10</ele>
        <time>2020-06-15T09:06:22Z</time>
      </trkpt>
      <trkpt lat="49.69475" lon="-1.39307">
        <ele>10.2</ele>
        <time>2020-06-15T09:06:23Z</time>
      </trkpt>
      <trkpt lat="49.69477" lon="-1.39303">
        <ele>10.4</ele>
        <time>2020-06-15T09:06:24Z</time>
      </trkpt>
      <trkpt lat="49.69478" lon="-1.39298">
        <ele>10.6</ele>
        <time>2020-06-15T09:06:25Z</time>
      </trkpt>
      <trkpt lat="49.6948" lon="-1.39293">
        <ele>10.8</ele>
        <time>2020-06-15T09:06:26Z</time>
      </trkpt>
      <trkpt lat="49.69481" lon="-1.39286">
        <ele>10.9</ele>
        <time>2020-06-15T09:06:27Z</time>
      </trkpt>
      <trkpt lat="49.69484" lon="-1.3928">
        <ele>11.1</ele>
        <time>2020-06-15T09:06:28Z</time>
      </trkpt>
      <trkpt lat="49.69488" lon="-1.39274">
        <ele>11.3</ele>
        <time>2020-06-15T09:06:29Z</time>
      </trkpt>
      <trkpt lat="49.6949" lon="-1.39269">
        <ele>11.4</ele>
        <time>2020-06-15T09:06:30Z</time>
      </trkpt>
      <trkpt lat="49.69492" lon="-1.39263">
        <ele>11.5</ele>
        <time>2020-06-15T09:06:31Z</time>
      </trkpt>
      <trkpt lat="49.69494" lon="-1.39256">
        <ele>11.6</ele>
        <time>2020-06-15T09:06:32Z</time>
      </trkpt>
      <trkpt lat="49.69496" lon="-1.39249">
        <ele>11.7</ele>
        <time>2020-06-15T09:06:33Z</time>
      </trkpt>
      <trkpt lat="49.69498" lon="-1.39242">
        <ele>11.8</ele>
        <time>2020-06-15T09:06:34Z</time>
      </trkpt>
      <trkpt lat="49.69501" lon="-1.39236">
        <ele>11.8</ele>
        <time>2020-06-15T09:06:35Z</time>
      </trkpt>
      <trkpt lat="49.69505" lon="-1.39229">
        <ele>11.8</ele>
        <time>2020-06-15T09:06:36Z</time>
      </trkpt>
      <trkpt lat="49.69508" lon="-1.39223">
        <ele>11.7</ele>
        <time>2020-06-15T09:06:37Z</time>
      </trkpt>
      <trkpt lat="49.69512" lon="-1.39216">
        <ele>11.7</ele>
        <time>2020-06-15T09:06:38Z</time>
      </trkpt>
      <trkpt lat="49.69516" lon="-1.39209">
        <ele>11.6</ele>
        <time>2020-06-15T09:06:39Z</time>
      </trkpt>
      <trkpt lat="49.6952" lon="-1.39201">
        <ele>11.6</ele>
        <time>2020-06-15T09:06:40Z</time>
      </trkpt>
      <trkpt lat="49.69525" lon="-1.39193">
        <ele>11.5</ele>
        <time>2020-06-15T09:06:41Z</time>
      </trkpt>
      <trkpt lat="49.69529" lon="-1.39185">
        <ele>11.4</ele>
        <time>2020-06-15T09:06:42Z</time>
      </trkpt>
      <trkpt lat="49.69534" lon="-1.39176">
        <ele>11.3</ele>
        <time>2020-06-15T09:06:43Z</time>
      </trkpt>
      <trkpt lat="49.69539" lon="-1.39167">
        <ele>11.1</ele>
        <time>2020-06-15T09:06:44Z</time>
      </trkpt>
      <trkpt lat="49.69543" lon="-1.3916">
        <ele>11.1</ele>
        <time>2020-06-15T09:06:45Z</time>
      </trkpt>
      <trkpt lat="49.69548" lon="-1.39153">
        <ele>11</ele>
        <time>2020-06-15T09:06:46Z</time>
      </trkpt>
      <trkpt lat="49.69552" lon="-1.39145">
        <ele>10.9</ele>
        <time>2020-06-15T09:06:47Z</time>
      </trkpt>
      <trkpt lat="49.69556" lon="-1.39138">
        <ele>10.8</ele>
        <time>2020-06-15T09:06:48Z</time>
      </trkpt>
      <trkpt lat="49.6956" lon="-1.39131">
        <ele>10.7</ele>
        <time>2020-06-15T09:06:49Z</time>
      </trkpt>
      <trkpt lat="49.69564" lon="-1.39123">
        <ele>10.6</ele>
        <time>2020-06-15T09:06:50Z</time>
      </trkpt>
      <trkpt lat="49.69568" lon="-1.39116">
        <ele>10.5</ele>
        <time>2020-06-15T09:06:51Z</time>
      </trkpt>
      <trkpt lat="49.69572" lon="-1.39107">
        <ele>10.3</ele>
        <time>2020-06-15T09:06:52Z</time>
      </trkpt>
      <trkpt lat="49.69576" lon="-1.391">
        <ele>10.2</ele>
        <time>2020-06-15T09:06:53Z</time>
      </trkpt>
      <trkpt lat="49.6958" lon="-1.39093">
        <ele>10.1</ele>
        <time>2020-06-15T09:06:54Z</time>
      </trkpt>
      <trkpt lat="49.69584" lon="-1.39085">
        <ele>10</ele>
        <time>2020-06-15T09:06:55Z</time>
      </trkpt>
      <trkpt lat="49.69588" lon="-1.39078">
        <ele>9.9</ele>
        <time>2020-06-15T09:06:56Z</time>
      </trkpt>
      <trkpt lat="49.69592" lon="-1.39071">
        <ele>9.8</ele>
        <time>2020-06-15T09:06:57Z</time>
      </trkpt>
      <trkpt lat="49.69596" lon="-1.39064">
        <ele>9.7</ele>
        <time>2020-06-15T09:06:58Z</time>
      </trkpt>
      <trkpt lat="49.696" lon="-1.39057">
        <ele>9.7</ele>
        <time>2020-06-15T09:06:59Z</time>
      </trkpt>
      <trkpt lat="49.69604" lon="-1.39049">
        <ele>9.6</ele>
        <time>2020-06-15T09:07:00Z</time>
      </trkpt>
      <trkpt lat="49.69608" lon="-1.39042">
        <ele>9.5</ele>
        <time>2020-06-15T09:07:01Z</time>
      </trkpt>
      <trkpt lat="49.69612" lon="-1.39034">
        <ele>9.4</ele>
        <time>2020-06-15T09:07:02Z</time>
      </trkpt>
      <trkpt lat="49.69616" lon="-1.39026">
        <ele>9.3</ele>
        <time>2020-06-15T09:07:03Z</time>
      </trkpt>
      <trkpt lat="49.6962" lon="-1.39019">
        <ele>9.2</ele>
        <time>2020-06-15T09:07:04Z</time>
      </trkpt>
      <trkpt lat="49.69624" lon="-1.39011">
        <ele>9</ele>
        <time>2020-06-15T09:07:05Z</time>
      </trkpt>
      <trkpt lat="49.69628" lon="-1.39004">
        <ele>8.8</ele>
        <time>2020-06-15T09:07:06Z</time>
      </trkpt>
      <trkpt lat="49.69631" lon="-1.38996">
        <ele>8.5</ele>
        <time>2020-06-15T09:07:07Z</time>
      </trkpt>
      <trkpt lat="49.69635" lon="-1.38989">
        <ele>8.2</ele>
        <time>2020-06-15T09:07:08Z</time>
      </trkpt>
      <trkpt lat="49.69639" lon="-1.38981">
        <ele>7.9</ele>
        <time>2020-06-15T09:07:09Z</time>
      </trkpt>
      <trkpt lat="49.69642" lon="-1.38973">
        <ele>7.5</ele>
        <time>2020-06-15T09:07:10Z</time>
      </trkpt>
      <trkpt lat="49.69646" lon="-1.38964">
        <ele>7.1</ele>
        <time>2020-06-15T09:07:11Z</time>
      </trkpt>
      <trkpt lat="49.6965" lon="-1.38955">
        <ele>6.5</ele>
        <time>2020-06-15T09:07:12Z</time>
      </trkpt>
      <trkpt lat="49.69655" lon="-1.38945">
        <ele>6</ele>
        <time>2020-06-15T09:07:13Z</time>
      </trkpt>
      <trkpt lat="49.69659" lon="-1.38935">
        <ele>5.5</ele>
        <time>2020-06-15T09:07:14Z</time>
      </trkpt>
      <trkpt lat="49.69664" lon="-1.38925">
        <ele>5</ele>
        <time>2020-06-15T09:07:15Z</time>
      </trkpt>
      <trkpt lat="49.69669" lon="-1.38914">
        <ele>4.6</ele>
        <time>2020-06-15T09:07:16Z</time>
      </trkpt>
      <trkpt lat="49.69674" lon="-1.38904">
        <ele>4.3</ele>
        <time>2020-06-15T09:07:17Z</time>
      </trkpt>
      <trkpt lat="49.69679" lon="-1.38893">
        <ele>4</ele>
        <time>2020-06-15T09:07:18Z</time>
      </trkpt>
      <trkpt lat="49.69684" lon="-1.38883">
        <ele>3.7</ele>
        <time>2020-06-15T09:07:19Z</time>
      </trkpt>
      <trkpt lat="49.69688" lon="-1.38872">
        <ele>3.4</ele>
        <time>2020-06-15T09:07:20Z</time>
      </trkpt>
      <trkpt lat="49.69692" lon="-1.3886">
        <ele>3.2</ele>
        <time>2020-06-15T09:07:21Z</time>
      </trkpt>
      <trkpt lat="49.69697" lon="-1.38849">
        <ele>3</ele>
        <time>2020-06-15T09:07:22Z</time>
      </trkpt>
      <trkpt lat="49.69701" lon="-1.38838">
        <ele>2.9</ele>
        <time>2020-06-15T09:07:23Z</time>
      </trkpt>
      <trkpt lat="49.69705" lon="-1.38827">
        <ele>2.9</ele>
        <time>2020-06-15T09:07:24Z</time>
      </trkpt>
      <trkpt lat="49.69709" lon="-1.38816">
        <ele>3</ele>
        <time>2020-06-15T09:07:25Z</time>
      </trkpt>
      <trkpt lat="49.69712" lon="-1.38804">
        <ele>3.2</ele>
        <time>2020-06-15T09:07:26Z</time>
      </trkpt>
      <trkpt lat="49.69715" lon="-1.38793">
        <ele>3.4</ele>
        <time>2020-06-15T09:07:27Z</time>
      </trkpt>
      <trkpt lat="49.69718" lon="-1.38783">
        <ele>3.7</ele>
        <time>2020-06-15T09:07:28Z</time>
      </trkpt>
      <trkpt lat="49.6972" lon="-1.38773">
        <ele>4</ele>
        <time>2020-06-15T09:07:29Z</time>
      </trkpt>
      <trkpt lat="49.69722" lon="-1.38763">
        <ele>4.4</ele>
        <time>2020-06-15T09:07:30Z</time>
      </trkpt>
      <trkpt lat="49.69724" lon="-1.38754">
        <ele>4.7</ele>
        <time>2020-06-15T09:07:31Z</time>
      </trkpt>
      <trkpt lat="49.69727" lon="-1.38745">
        <ele>5</ele>
        <time>2020-06-15T09:07:32Z</time>
      </trkpt>
      <trkpt lat="49.69728" lon="-1.38736">
        <ele>5.4</ele>
        <time>2020-06-15T09:07:33Z</time>
      </trkpt>
      <trkpt lat="49.69729" lon="-1.38726">
        <ele>5.7</ele>
        <time>2020-06-15T09:07:34Z</time>
      </trkpt>
      <trkpt lat="49.69729" lon="-1.38716">
        <ele>6</ele>
        <time>2020-06-15T09:07:35Z</time>
      </trkpt>
      <trkpt lat="49.69729" lon="-1.38707">
        <ele>6.3</ele>
        <time>2020-06-15T09:07:36Z</time>
      </trkpt>
      <trkpt lat="49.6973" lon="-1.38698">
        <ele>6.6</ele>
        <time>2020-06-15T09:07:37Z</time>
      </trkpt>
      <trkpt lat="49.6973" lon="-1.38689">
        <ele>6.8</ele>
        <time>2020-06-15T09:07:38Z</time>
      </trkpt>
      <trkpt lat="49.69731" lon="-1.3868">
        <ele>7.1</ele>
        <time>2020-06-15T09:07:39Z</time>
      </trkpt>
      <trkpt lat="49.69731" lon="-1.38671">
        <ele>7.4</ele>
        <time>2020-06-15T09:07:40Z</time>
      </trkpt>
      <trkpt lat="49.6973" lon="-1.38662">
        <ele>7.8</ele>
        <time>2020-06-15T09:07:41Z</time>
      </trkpt>
      <trkpt lat="49.6973" lon="-1.38654">
        <ele>8.1</ele>
        <time>2020-06-15T09:07:42Z</time>
      </trkpt>
      <trkpt lat="49.6973" lon="-1.38645">
        <ele>8.4</ele>
        <time>2020-06-15T09:07:43Z</time>
      </trkpt>
      <trkpt lat="49.6973" lon="-1.38638">
        <ele>8.6</ele>
        <time>2020-06-15T09:07:44Z</time>
      </trkpt>
      <trkpt lat="49.69731" lon="-1.3863">
        <ele>8.9</ele>
        <time>2020-06-15T09:07:45Z</time>
      </trkpt>
      <trkpt lat="49.6973" lon="-1.38622">
        <ele>9.1</ele>
        <time>2020-06-15T09:07:46Z</time>
      </trkpt>
      <trkpt lat="49.6973" lon="-1.38614">
        <ele>9.4</ele>
        <time>2020-06-15T09:07:47Z</time>
      </trkpt>
      <trkpt lat="49.69731" lon="-1.38607">
        <ele>9.6</ele>
        <time>2020-06-15T09:07:48Z</time>
      </trkpt>
      <trkpt lat="49.69731" lon="-1.38599">
        <ele>9.9</ele>
        <time>2020-06-15T09:07:49Z</time>
      </trkpt>
      <trkpt lat="49.6973" lon="-1.38592">
        <ele>10.1</ele>
        <time>2020-06-15T09:07:50Z</time>
      </trkpt>
      <trkpt lat="49.6973" lon="-1.38585">
        <ele>10.3</ele>
        <time>2020-06-15T09:07:51Z</time>
      </trkpt>
      <trkpt lat="49.6973" lon="-1.38578">
        <ele>10.6</ele>
        <time>2020-06-15T09:07:52Z</time>
      </trkpt>
      <trkpt lat="49.69729" lon="-1.3857">
        <ele>10.8</ele>
        <time>2020-06-15T09:07:53Z</time>
      </trkpt>
      <trkpt lat="49.69729" lon="-1.38563">
        <ele>11.1</ele>
        <time>2020-06-15T09:07:54Z</time>
      </trkpt>
      <trkpt lat="49.69728" lon="-1.38555">
        <ele>11.3</ele>
        <time>2020-06-15T09:07:55Z</time>
      </trkpt>
      <trkpt lat="49.69728" lon="-1.38547">
        <ele>11.5</ele>
        <time>2020-06-15T09:07:56Z</time>
      </trkpt>
      <trkpt lat="49.69727" lon="-1.3854">
        <ele>11.7</ele>
        <time>2020-06-15T09:07:57Z</time>
      </trkpt>
      <trkpt lat="49.69725" lon="-1.38532">
        <ele>11.9</ele>
        <time>2020-06-15T09:07:58Z</time>
      </trkpt>
      <trkpt lat="49.69724" lon="-1.38525">
        <ele>12</ele>
        <time>2020-06-15T09:07:59Z</time>
      </trkpt>
      <trkpt lat="49.69723" lon="-1.38517">
        <ele>12.2</ele>
        <time>2020-06-15T09:08:00Z</time>
      </trkpt>
      <trkpt lat="49.69722" lon="-1.3851">
        <ele>12.3</ele>
        <time>2020-06-15T09:08:01Z</time>
      </trkpt>
      <trkpt lat="49.6972" lon="-1.38502">
        <ele>12.4</ele>
        <time>2020-06-15T09:08:02Z</time>
      </trkpt>
      <trkpt lat="49.69719" lon="-1.38494">
        <ele>12.6</ele>
        <time>2020-06-15T09:08:03Z</time>
      </trkpt>
      <trkpt lat="49.69717" lon="-1.38486">
        <ele>12.7</ele>
        <time>2020-06-15T09:08:04Z</time>
      </trkpt>
      <trkpt lat="49.69716" lon="-1.38478">
        <ele>12.7</ele>
        <time>2020-06-15T09:08:05Z</time>
      </trkpt>
      <trkpt lat="49.69714" lon="-1.38471">
        <ele>12.8</ele>
        <time>2020-06-15T09:08:06Z</time>
      </trkpt>
      <trkpt lat="49.69712" lon="-1.38462">
        <ele>12.9</ele>
        <time>2020-06-15T09:08:07Z</time>
      </trkpt>
      <trkpt lat="49.69711" lon="-1.38454">
        <ele>13</ele>
        <time>2020-06-15T09:08:08Z</time>
      </trkpt>
      <trkpt lat="49.6971" lon="-1.38446">
        <ele>13.1</ele>
        <time>2020-06-15T09:08:09Z</time>
      </trkpt>
      <trkpt lat="49.69708" lon="-1.38439">
        <ele>13.2</ele>
        <time>2020-06-15T09:08:10Z</time>
      </trkpt>
      <trkpt lat="49.69707" lon="-1.38431">
        <ele>13.3</ele>
        <time>2020-06-15T09:08:11Z</time>
      </trkpt>
      <trkpt lat="49.69705" lon="-1.38424">
        <ele>13.3</ele>
        <time>2020-06-15T09:08:12Z</time>
      </trkpt>
      <trkpt lat="49.69703" lon="-1.38416">
        <ele>13.4</ele>
        <time>2020-06-15T09:08:13Z</time>
      </trkpt>
      <trkpt lat="49.69701" lon="-1.38408">
        <ele>13.5</ele>
        <time>2020-06-15T09:08:14Z</time>
      </trkpt>
      <trkpt lat="49.69699" lon="-1.384">
        <ele>13.5</ele>
        <time>2020-06-15T09:08:15Z</time>
      </trkpt>
      <trkpt lat="49.69697" lon="-1.38393">
        <ele>13.5</ele>
        <time>2020-06-15T09:08:16Z</time>
      </trkpt>
      <trkpt lat="49.69695" lon="-1.38385">
        <ele>13.6</ele>
        <time>2020-06-15T09:08:17Z</time>
      </trkpt>
      <trkpt lat="49.69694" lon="-1.38378">
        <ele>13.6</ele>
        <time>2020-06-15T09:08:18Z</time>
      </trkpt>
      <trkpt lat="49.69692" lon="-1.38368">
        <ele>13.7</ele>
        <time>2020-06-15T09:08:19Z</time>
      </trkpt>
      <trkpt lat="49.6969" lon="-1.38361">
        <ele>13.8</ele>
        <time>2020-06-15T09:08:20Z</time>
      </trkpt>
      <trkpt lat="49.69688" lon="-1.38354">
        <ele>13.8</ele>
        <time>2020-06-15T09:08:21Z</time>
      </trkpt>
      <trkpt lat="49.69686" lon="-1.38346">
        <ele>13.9</ele>
        <time>2020-06-15T09:08:22Z</time>
      </trkpt>
      <trkpt lat="49.69684" lon="-1.38339">
        <ele>14</ele>
        <time>2020-06-15T09:08:23Z</time>
      </trkpt>
      <trkpt lat="49.69682" lon="-1.38329">
        <ele>14.1</ele>
        <time>2020-06-15T09:08:24Z</time>
      </trkpt>
      <trkpt lat="49.69679" lon="-1.38323">
        <ele>14.1</ele>
        <time>2020-06-15T09:08:25Z</time>
      </trkpt>
      <trkpt lat="49.69676" lon="-1.38316">
        <ele>14.2</ele>
        <time>2020-06-15T09:08:26Z</time>
      </trkpt>
      <trkpt lat="49.69674" lon="-1.38308">
        <ele>14.2</ele>
        <time>2020-06-15T09:08:27Z</time>
      </trkpt>
      <trkpt lat="49.69671" lon="-1.38301">
        <ele>14.3</ele>
        <time>2020-06-15T09:08:28Z</time>
      </trkpt>
      <trkpt lat="49.69669" lon="-1.38294">
        <ele>14.3</ele>
        <time>2020-06-15T09:08:29Z</time>
      </trkpt>
      <trkpt lat="49.69666" lon="-1.38287">
        <ele>14.4</ele>
        <time>2020-06-15T09:08:30Z</time>
      </trkpt>
      <trkpt lat="49.69663" lon="-1.38279">
        <ele>14.5</ele>
        <time>2020-06-15T09:08:31Z</time>
      </trkpt>
      <trkpt lat="49.6966" lon="-1.38272">
        <ele>14.6</ele>
        <time>2020-06-15T09:08:32Z</time>
      </trkpt>
      <trkpt lat="49.69657" lon="-1.38267">
        <ele>14.7</ele>
        <time>2020-06-15T09:08:33Z</time>
      </trkpt>
      <trkpt lat="49.69654" lon="-1.38262">
        <ele>14.7</ele>
        <time>2020-06-15T09:08:34Z</time>
      </trkpt>
      <trkpt lat="49.6965" lon="-1.38257">
        <ele>14.8</ele>
        <time>2020-06-15T09:08:35Z</time>
      </trkpt>
      <trkpt lat="49.69646" lon="-1.38251">
        <ele>14.9</ele>
        <time>2020-06-15T09:08:36Z</time>
      </trkpt>
      <trkpt lat="49.69643" lon="-1.38246">
        <ele>14.9</ele>
        <time>2020-06-15T09:08:37Z</time>
      </trkpt>
      <trkpt lat="49.69639" lon="-1.38241">
        <ele>14.9</ele>
        <time>2020-06-15T09:08:38Z</time>
      </trkpt>
      <trkpt lat="49.69636" lon="-1.38237">
        <ele>15</ele>
        <time>2020-06-15T09:08:39Z</time>
      </trkpt>
      <trkpt lat="49.69632" lon="-1.38232">
        <ele>15</ele>
        <time>2020-06-15T09:08:40Z</time>
      </trkpt>
      <trkpt lat="49.69628" lon="-1.38228">
        <ele>15</ele>
        <time>2020-06-15T09:08:41Z</time>
      </trkpt>
      <trkpt lat="49.69624" lon="-1.38224">
        <ele>15.1</ele>
        <time>2020-06-15T09:08:42Z</time>
      </trkpt>
      <trkpt lat="49.6962" lon="-1.3822">
        <ele>15.1</ele>
        <time>2020-06-15T09:08:43Z</time>
      </trkpt>
      <trkpt lat="49.69616" lon="-1.38215">
        <ele>15.1</ele>
        <time>2020-06-15T09:08:44Z</time>
      </trkpt>
      <trkpt lat="49.69611" lon="-1.38211">
        <ele>15.1</ele>
        <time>2020-06-15T09:08:45Z</time>
      </trkpt>
      <trkpt lat="49.69606" lon="-1.38206">
        <ele>15.1</ele>
        <time>2020-06-15T09:08:46Z</time>
      </trkpt>
      <trkpt lat="49.696" lon="-1.38201">
        <ele>15</ele>
        <time>2020-06-15T09:08:47Z</time>
      </trkpt>
      <trkpt lat="49.69596" lon="-1.38196">
        <ele>15</ele>
        <time>2020-06-15T09:08:48Z</time>
      </trkpt>
      <trkpt lat="49.69591" lon="-1.38191">
        <ele>14.9</ele>
        <time>2020-06-15T09:08:49Z</time>
      </trkpt>
      <trkpt lat="49.69586" lon="-1.38186">
        <ele>14.9</ele>
        <time>2020-06-15T09:08:50Z</time>
      </trkpt>
      <trkpt lat="49.69581" lon="-1.38181">
        <ele>14.8</ele>
        <time>2020-06-15T09:08:51Z</time>
      </trkpt>
      <trkpt lat="49.69575" lon="-1.38176">
        <ele>14.8</ele>
        <time>2020-06-15T09:08:52Z</time>
      </trkpt>
      <trkpt lat="49.6957" lon="-1.38171">
        <ele>14.7</ele>
        <time>2020-06-15T09:08:53Z</time>
      </trkpt>
      <trkpt lat="49.69564" lon="-1.38166">
        <ele>14.6</ele>
        <time>2020-06-15T09:08:54Z</time>
      </trkpt>
      <trkpt lat="49.69558" lon="-1.38161">
        <ele>14.6</ele>
        <time>2020-06-15T09:08:55Z</time>
      </trkpt>
      <trkpt lat="49.69552" lon="-1.38156">
        <ele>14.5</ele>
        <time>2020-06-15T09:08:56Z</time>
      </trkpt>
      <trkpt lat="49.69547" lon="-1.38151">
        <ele>14.5</ele>
        <time>2020-06-15T09:08:57Z</time>
      </trkpt>
      <trkpt lat="49.69542" lon="-1.38145">
        <ele>14.4</ele>
        <time>2020-06-15T09:08:58Z</time>
      </trkpt>
      <trkpt lat="49.69536" lon="-1.38139">
        <ele>14.4</ele>
        <time>2020-06-15T09:08:59Z</time>
      </trkpt>
      <trkpt lat="49.6953" lon="-1.38134">
        <ele>14.4</ele>
        <time>2020-06-15T09:09:00Z</time>
      </trkpt>
      <trkpt lat="49.69524" lon="-1.38129">
        <ele>14.5</ele>
        <time>2020-06-15T09:09:01Z</time>
      </trkpt>
      <trkpt lat="49.69519" lon="-1.38124">
        <ele>14.5</ele>
        <time>2020-06-15T09:09:02Z</time>
      </trkpt>
      <trkpt lat="49.69513" lon="-1.38119">
        <ele>14.6</ele>
        <time>2020-06-15T09:09:03Z</time>
      </trkpt>
      <trkpt lat="49.69509" lon="-1.38114">
        <ele>14.7</ele>
        <time>2020-06-15T09:09:04Z</time>
      </trkpt>
      <trkpt lat="49.69504" lon="-1.38108">
        <ele>14.7</ele>
        <time>2020-06-15T09:09:05Z</time>
      </trkpt>
      <trkpt lat="49.69499" lon="-1.38103">
        <ele>14.8</ele>
        <time>2020-06-15T09:09:06Z</time>
      </trkpt>
      <trkpt lat="49.69495" lon="-1.38098">
        <ele>14.9</ele>
        <time>2020-06-15T09:09:07Z</time>
      </trkpt>
      <trkpt lat="49.6949" lon="-1.38093">
        <ele>15</ele>
        <time>2020-06-15T09:09:08Z</time>
      </trkpt>
      <trkpt lat="49.69485" lon="-1.38086">
        <ele>15.1</ele>
        <time>2020-06-15T09:09:09Z</time>
      </trkpt>
      <trkpt lat="49.69482" lon="-1.38079">
        <ele>15.3</ele>
        <time>2020-06-15T09:09:10Z</time>
      </trkpt>
      <trkpt lat="49.69478" lon="-1.38075">
        <ele>15.4</ele>
        <time>2020-06-15T09:09:11Z</time>
      </trkpt>
      <trkpt lat="49.69474" lon="-1.38069">
        <ele>15.5</ele>
        <time>2020-06-15T09:09:12Z</time>
      </trkpt>
      <trkpt lat="49.6947" lon="-1.38065">
        <ele>15.6</ele>
        <time>2020-06-15T09:09:13Z</time>
      </trkpt>
      <trkpt lat="49.69465" lon="-1.38057">
        <ele>15.7</ele>
        <time>2020-06-15T09:09:14Z</time>
      </trkpt>
      <trkpt lat="49.69461" lon="-1.38051">
        <ele>15.8</ele>
        <time>2020-06-15T09:09:15Z</time>
      </trkpt>
      <trkpt lat="49.69458" lon="-1.38045">
        <ele>16</ele>
        <time>2020-06-15T09:09:16Z</time>
      </trkpt>
      <trkpt lat="49.69455" lon="-1.38039">
        <ele>16.1</ele>
        <time>2020-06-15T09:09:17Z</time>
      </trkpt>
      <trkpt lat="49.69452" lon="-1.38032">
        <ele>16.2</ele>
        <time>2020-06-15T09:09:18Z</time>
      </trkpt>
      <trkpt lat="49.69449" lon="-1.38027">
        <ele>16.3</ele>
        <time>2020-06-15T09:09:19Z</time>
      </trkpt>
      <trkpt lat="49.69446" lon="-1.38021">
        <ele>16.4</ele>
        <time>2020-06-15T09:09:20Z</time>
      </trkpt>
      <trkpt lat="49.69443" lon="-1.38014">
        <ele>16.6</ele>
        <time>2020-06-15T09:09:21Z</time>
      </trkpt>
      <trkpt lat="49.6944" lon="-1.38005">
        <ele>16.7</ele>
        <time>2020-06-15T09:09:22Z</time>
      </trkpt>
      <trkpt lat="49.69436" lon="-1.37997">
        <ele>16.9</ele>
        <time>2020-06-15T09:09:23Z</time>
      </trkpt>
      <trkpt lat="49.69432" lon="-1.3799">
        <ele>17</ele>
        <time>2020-06-15T09:09:24Z</time>
      </trkpt>
      <trkpt lat="49.69429" lon="-1.37984">
        <ele>17.1</ele>
        <time>2020-06-15T09:09:25Z</time>
      </trkpt>
      <trkpt lat="49.69427" lon="-1.37977">
        <ele>17.3</ele>
        <time>2020-06-15T09:09:26Z</time>
      </trkpt>
      <trkpt lat="49.69424" lon="-1.37971">
        <ele>17.4</ele>
        <time>2020-06-15T09:09:27Z</time>
      </trkpt>
      <trkpt lat="49.69422" lon="-1.37963">
        <ele>17.5</ele>
        <time>2020-06-15T09:09:28Z</time>
      </trkpt>
      <trkpt lat="49.69419" lon="-1.37955">
        <ele>17.5</ele>
        <time>2020-06-15T09:09:29Z</time>
      </trkpt>
      <trkpt lat="49.69417" lon="-1.37948">
        <ele>17.6</ele>
        <time>2020-06-15T09:09:30Z</time>
      </trkpt>
      <trkpt lat="49.69415" lon="-1.37941">
        <ele>17.6</ele>
        <time>2020-06-15T09:09:31Z</time>
      </trkpt>
      <trkpt lat="49.69412" lon="-1.37934">
        <ele>17.7</ele>
        <time>2020-06-15T09:09:32Z</time>
      </trkpt>
      <trkpt lat="49.6941" lon="-1.37928">
        <ele>17.7</ele>
        <time>2020-06-15T09:09:33Z</time>
      </trkpt>
      <trkpt lat="49.69408" lon="-1.3792">
        <ele>17.7</ele>
        <time>2020-06-15T09:09:34Z</time>
      </trkpt>
      <trkpt lat="49.69406" lon="-1.37913">
        <ele>17.8</ele>
        <time>2020-06-15T09:09:35Z</time>
      </trkpt>
      <trkpt lat="49.69404" lon="-1.37905">
        <ele>17.8</ele>
        <time>2020-06-15T09:09:36Z</time>
      </trkpt>
      <trkpt lat="49.69402" lon="-1.37897">
        <ele>17.8</ele>
        <time>2020-06-15T09:09:37Z</time>
      </trkpt>
      <trkpt lat="49.694" lon="-1.3789">
        <ele>17.8</ele>
        <time>2020-06-15T09:09:38Z</time>
      </trkpt>
      <trkpt lat="49.69397" lon="-1.37884">
        <ele>17.8</ele>
        <time>2020-06-15T09:09:39Z</time>
      </trkpt>
      <trkpt lat="49.69395" lon="-1.37876">
        <ele>17.8</ele>
        <time>2020-06-15T09:09:40Z</time>
      </trkpt>
      <trkpt lat="49.69392" lon="-1.37868">
        <ele>17.8</ele>
        <time>2020-06-15T09:09:41Z</time>
      </trkpt>
      <trkpt lat="49.69389" lon="-1.37861">
        <ele>17.7</ele>
        <time>2020-06-15T09:09:42Z</time>
      </trkpt>
      <trkpt lat="49.69387" lon="-1.37853">
        <ele>17.7</ele>
        <time>2020-06-15T09:09:43Z</time>
      </trkpt>
      <trkpt lat="49.69384" lon="-1.37845">
        <ele>17.7</ele>
        <time>2020-06-15T09:09:44Z</time>
      </trkpt>
      <trkpt lat="49.69382" lon="-1.37836">
        <ele>17.7</ele>
        <time>2020-06-15T09:09:45Z</time>
      </trkpt>
      <trkpt lat="49.69379" lon="-1.37828">
        <ele>17.7</ele>
        <time>2020-06-15T09:09:46Z</time>
      </trkpt>
      <trkpt lat="49.69376" lon="-1.37819">
        <ele>17.7</ele>
        <time>2020-06-15T09:09:47Z</time>
      </trkpt>
      <trkpt lat="49.69373" lon="-1.37811">
        <ele>17.6</ele>
        <time>2020-06-15T09:09:48Z</time>
      </trkpt>
      <trkpt lat="49.6937" lon="-1.37803">
        <ele>17.6</ele>
        <time>2020-06-15T09:09:49Z</time>
      </trkpt>
      <trkpt lat="49.69367" lon="-1.37795">
        <ele>17.6</ele>
        <time>2020-06-15T09:09:50Z</time>
      </trkpt>
      <trkpt lat="49.69365" lon="-1.37786">
        <ele>17.6</ele>
        <time>2020-06-15T09:09:51Z</time>
      </trkpt>
      <trkpt lat="49.69362" lon="-1.37778">
        <ele>17.6</ele>
        <time>2020-06-15T09:09:52Z</time>
      </trkpt>
      <trkpt lat="49.6936" lon="-1.37768">
        <ele>17.6</ele>
        <time>2020-06-15T09:09:53Z</time>
      </trkpt>
      <trkpt lat="49.69357" lon="-1.37758">
        <ele>17.6</ele>
        <time>2020-06-15T09:09:54Z</time>
      </trkpt>
      <trkpt lat="49.69354" lon="-1.37748">
        <ele>17.5</ele>
        <time>2020-06-15T09:09:55Z</time>
      </trkpt>
      <trkpt lat="49.69352" lon="-1.37738">
        <ele>17.5</ele>
        <time>2020-06-15T09:09:56Z</time>
      </trkpt>
      <trkpt lat="49.69351" lon="-1.37729">
        <ele>17.5</ele>
        <time>2020-06-15T09:09:57Z</time>
      </trkpt>
      <trkpt lat="49.69349" lon="-1.37719">
        <ele>17.5</ele>
        <time>2020-06-15T09:09:58Z</time>
      </trkpt>
      <trkpt lat="49.69348" lon="-1.37709">
        <ele>17.5</ele>
        <time>2020-06-15T09:09:59Z</time>
      </trkpt>
      <trkpt lat="49.69347" lon="-1.37698">
        <ele>17.5</ele>
        <time>2020-06-15T09:10:00Z</time>
      </trkpt>
      <trkpt lat="49.69347" lon="-1.37689">
        <ele>17.5</ele>
        <time>2020-06-15T09:10:01Z</time>
      </trkpt>
      <trkpt lat="49.69347" lon="-1.3768">
        <ele>17.4</ele>
        <time>2020-06-15T09:10:02Z</time>
      </trkpt>
      <trkpt lat="49.69347" lon="-1.3767">
        <ele>17.4</ele>
        <time>2020-06-15T09:10:03Z</time>
      </trkpt>
      <trkpt lat="49.69348" lon="-1.37661">
        <ele>17.4</ele>
        <time>2020-06-15T09:10:04Z</time>
      </trkpt>
      <trkpt lat="49.69348" lon="-1.37651">
        <ele>17.4</ele>
        <time>2020-06-15T09:10:05Z</time>
      </trkpt>
      <trkpt lat="49.69348" lon="-1.37642">
        <ele>17.4</ele>
        <time>2020-06-15T09:10:06Z</time>
      </trkpt>
      <trkpt lat="49.69349" lon="-1.37633">
        <ele>17.4</ele>
        <time>2020-06-15T09:10:07Z</time>
      </trkpt>
      <trkpt lat="49.69349" lon="-1.37624">
        <ele>17.3</ele>
        <time>2020-06-15T09:10:08Z</time>
      </trkpt>
      <trkpt lat="49.6935" lon="-1.37615">
        <ele>17.3</ele>
        <time>2020-06-15T09:10:09Z</time>
      </trkpt>
      <trkpt lat="49.69351" lon="-1.37605">
        <ele>17.2</ele>
        <time>2020-06-15T09:10:10Z</time>
      </trkpt>
      <trkpt lat="49.69351" lon="-1.37595">
        <ele>17.2</ele>
        <time>2020-06-15T09:10:11Z</time>
      </trkpt>
      <trkpt lat="49.69352" lon="-1.37586">
        <ele>17.1</ele>
        <time>2020-06-15T09:10:12Z</time>
      </trkpt>
      <trkpt lat="49.69353" lon="-1.37576">
        <ele>17</ele>
        <time>2020-06-15T09:10:13Z</time>
      </trkpt>
      <trkpt lat="49.69353" lon="-1.37566">
        <ele>16.8</ele>
        <time>2020-06-15T09:10:14Z</time>
      </trkpt>
      <trkpt lat="49.69353" lon="-1.37556">
        <ele>16.6</ele>
        <time>2020-06-15T09:10:15Z</time>
      </trkpt>
      <trkpt lat="49.69353" lon="-1.37545">
        <ele>16.5</ele>
        <time>2020-06-15T09:10:16Z</time>
      </trkpt>
      <trkpt lat="49.69353" lon="-1.37535">
        <ele>16.3</ele>
        <time>2020-06-15T09:10:17Z</time>
      </trkpt>
      <trkpt lat="49.69353" lon="-1.37526">
        <ele>16.1</ele>
        <time>2020-06-15T09:10:18Z</time>
      </trkpt>
      <trkpt lat="49.69353" lon="-1.37515">
        <ele>15.9</ele>
        <time>2020-06-15T09:10:19Z</time>
      </trkpt>
      <trkpt lat="49.69353" lon="-1.37505">
        <ele>15.8</ele>
        <time>2020-06-15T09:10:20Z</time>
      </trkpt>
      <trkpt lat="49.69353" lon="-1.37495">
        <ele>15.6</ele>
        <time>2020-06-15T09:10:21Z</time>
      </trkpt>
      <trkpt lat="49.69352" lon="-1.37484">
        <ele>15.4</ele>
        <time>2020-06-15T09:10:22Z</time>
      </trkpt>
      <trkpt lat="49.69352" lon="-1.37473">
        <ele>15.1</ele>
        <time>2020-06-15T09:10:23Z</time>
      </trkpt>
      <trkpt lat="49.69352" lon="-1.37463">
        <ele>14.9</ele>
        <time>2020-06-15T09:10:24Z</time>
      </trkpt>
      <trkpt lat="49.69352" lon="-1.37452">
        <ele>14.6</ele>
        <time>2020-06-15T09:10:25Z</time>
      </trkpt>
      <trkpt lat="49.69351" lon="-1.37441">
        <ele>14.4</ele>
        <time>2020-06-15T09:10:26Z</time>
      </trkpt>
      <trkpt lat="49.69351" lon="-1.3743">
        <ele>14</ele>
        <time>2020-06-15T09:10:27Z</time>
      </trkpt>
      <trkpt lat="49.69351" lon="-1.37419">
        <ele>13.7</ele>
        <time>2020-06-15T09:10:28Z</time>
      </trkpt>
      <trkpt lat="49.69351" lon="-1.37407">
        <ele>13.4</ele>
        <time>2020-06-15T09:10:29Z</time>
      </trkpt>
      <trkpt lat="49.69351" lon="-1.37396">
        <ele>13.2</ele>
        <time>2020-06-15T09:10:30Z</time>
      </trkpt>
      <trkpt lat="49.69351" lon="-1.37384">
        <ele>12.9</ele>
        <time>2020-06-15T09:10:31Z</time>
      </trkpt>
      <trkpt lat="49.69351" lon="-1.37372">
        <ele>12.6</ele>
        <time>2020-06-15T09:10:32Z</time>
      </trkpt>
      <trkpt lat="49.69352" lon="-1.3736">
        <ele>12.3</ele>
        <time>2020-06-15T09:10:33Z</time>
      </trkpt>
      <trkpt lat="49.69352" lon="-1.37349">
        <ele>12</ele>
        <time>2020-06-15T09:10:34Z</time>
      </trkpt>
      <trkpt lat="49.69353" lon="-1.37337">
        <ele>11.7</ele>
        <time>2020-06-15T09:10:35Z</time>
      </trkpt>
      <trkpt lat="49.69353" lon="-1.37325">
        <ele>11.5</ele>
        <time>2020-06-15T09:10:36Z</time>
      </trkpt>
      <trkpt lat="49.69354" lon="-1.37313">
        <ele>11.2</ele>
        <time>2020-06-15T09:10:37Z</time>
      </trkpt>
      <trkpt lat="49.69355" lon="-1.37301">
        <ele>10.9</ele>
        <time>2020-06-15T09:10:38Z</time>
      </trkpt>
      <trkpt lat="49.69355" lon="-1.37289">
        <ele>10.6</ele>
        <time>2020-06-15T09:10:39Z</time>
      </trkpt>
      <trkpt lat="49.69355" lon="-1.37277">
        <ele>10.2</ele>
        <time>2020-06-15T09:10:40Z</time>
      </trkpt>
      <trkpt lat="49.69355" lon="-1.37265">
        <ele>9.9</ele>
        <time>2020-06-15T09:10:41Z</time>
      </trkpt>
      <trkpt lat="49.69355" lon="-1.37253">
        <ele>9.5</ele>
        <time>2020-06-15T09:10:42Z</time>
      </trkpt>
      <trkpt lat="49.69355" lon="-1.37241">
        <ele>9.2</ele>
        <time>2020-06-15T09:10:43Z</time>
      </trkpt>
      <trkpt lat="49.69356" lon="-1.37228">
        <ele>9</ele>
        <time>2020-06-15T09:10:44Z</time>
      </trkpt>
      <trkpt lat="49.69357" lon="-1.37216">
        <ele>8.7</ele>
        <time>2020-06-15T09:10:45Z</time>
      </trkpt>
      <trkpt lat="49.69357" lon="-1.37204">
        <ele>8.5</ele>
        <time>2020-06-15T09:10:46Z</time>
      </trkpt>
      <trkpt lat="49.69358" lon="-1.37191">
        <ele>8.4</ele>
        <time>2020-06-15T09:10:47Z</time>
      </trkpt>
      <trkpt lat="49.69357" lon="-1.37179">
        <ele>8.1</ele>
        <time>2020-06-15T09:10:48Z</time>
      </trkpt>
      <trkpt lat="49.69358" lon="-1.37166">
        <ele>7.8</ele>
        <time>2020-06-15T09:10:49Z</time>
      </trkpt>
      <trkpt lat="49.69357" lon="-1.37154">
        <ele>7.6</ele>
        <time>2020-06-15T09:10:50Z</time>
      </trkpt>
      <trkpt lat="49.69357" lon="-1.37142">
        <ele>7.4</ele>
        <time>2020-06-15T09:10:51Z</time>
      </trkpt>
      <trkpt lat="49.69356" lon="-1.3713">
        <ele>7.3</ele>
        <time>2020-06-15T09:10:52Z</time>
      </trkpt>
      <trkpt lat="49.69356" lon="-1.37118">
        <ele>7.1</ele>
        <time>2020-06-15T09:10:53Z</time>
      </trkpt>
      <trkpt lat="49.69355" lon="-1.37106">
        <ele>7</ele>
        <time>2020-06-15T09:10:54Z</time>
      </trkpt>
      <trkpt lat="49.69355" lon="-1.37094">
        <ele>6.8</ele>
        <time>2020-06-15T09:10:55Z</time>
      </trkpt>
      <trkpt lat="49.69354" lon="-1.37083">
        <ele>6.7</ele>
        <time>2020-06-15T09:10:56Z</time>
      </trkpt>
      <trkpt lat="49.69354" lon="-1.37071">
        <ele>6.7</ele>
        <time>2020-06-15T09:10:57Z</time>
      </trkpt>
      <trkpt lat="49.69352" lon="-1.3706">
        <ele>6.6</ele>
        <time>2020-06-15T09:10:58Z</time>
      </trkpt>
      <trkpt lat="49.69352" lon="-1.37048">
        <ele>6.6</ele>
        <time>2020-06-15T09:10:59Z</time>
      </trkpt>
      <trkpt lat="49.6935" lon="-1.37038">
        <ele>6.7</ele>
        <time>2020-06-15T09:11:00Z</time>
      </trkpt>
      <trkpt lat="49.69349" lon="-1.37027">
        <ele>6.8</ele>
        <time>2020-06-15T09:11:01Z</time>
      </trkpt>
      <trkpt lat="49.69347" lon="-1.37017">
        <ele>7</ele>
        <time>2020-06-15T09:11:02Z</time>
      </trkpt>
      <trkpt lat="49.69345" lon="-1.37007">
        <ele>7.1</ele>
        <time>2020-06-15T09:11:03Z</time>
      </trkpt>
      <trkpt lat="49.69342" lon="-1.36997">
        <ele>7.3</ele>
        <time>2020-06-15T09:11:04Z</time>
      </trkpt>
      <trkpt lat="49.6934" lon="-1.36988">
        <ele>7.5</ele>
        <time>2020-06-15T09:11:05Z</time>
      </trkpt>
      <trkpt lat="49.69338" lon="-1.3698">
        <ele>7.8</ele>
        <time>2020-06-15T09:11:06Z</time>
      </trkpt>
      <trkpt lat="49.69336" lon="-1.36971">
        <ele>8</ele>
        <time>2020-06-15T09:11:07Z</time>
      </trkpt>
      <trkpt lat="49.69333" lon="-1.36962">
        <ele>8.3</ele>
        <time>2020-06-15T09:11:08Z</time>
      </trkpt>
      <trkpt lat="49.6933" lon="-1.36955">
        <ele>8.7</ele>
        <time>2020-06-15T09:11:09Z</time>
      </trkpt>
      <trkpt lat="49.69328" lon="-1.36946">
        <ele>9</ele>
        <time>2020-06-15T09:11:10Z</time>
      </trkpt>
      <trkpt lat="49.69325" lon="-1.36939">
        <ele>9.4</ele>
        <time>2020-06-15T09:11:11Z</time>
      </trkpt>
      <trkpt lat="49.69322" lon="-1.36931">
        <ele>9.7</ele>
        <time>2020-06-15T09:11:12Z</time>
      </trkpt>
      <trkpt lat="49.6932" lon="-1.36924">
        <ele>10.1</ele>
        <time>2020-06-15T09:11:13Z</time>
      </trkpt>
      <trkpt lat="49.69318" lon="-1.36916">
        <ele>10.5</ele>
        <time>2020-06-15T09:11:14Z</time>
      </trkpt>
      <trkpt lat="49.69316" lon="-1.36909">
        <ele>10.9</ele>
        <time>2020-06-15T09:11:15Z</time>
      </trkpt>
      <trkpt lat="49.69314" lon="-1.36903">
        <ele>11.2</ele>
        <time>2020-06-15T09:11:16Z</time>
      </trkpt>
      <trkpt lat="49.69312" lon="-1.36896">
        <ele>11.6</ele>
        <time>2020-06-15T09:11:17Z</time>
      </trkpt>
      <trkpt lat="49.69311" lon="-1.3689">
        <ele>11.9</ele>
        <time>2020-06-15T09:11:18Z</time>
      </trkpt>
      <trkpt lat="49.69309" lon="-1.36884">
        <ele>12.3</ele>
        <time>2020-06-15T09:11:19Z</time>
      </trkpt>
      <trkpt lat="49.69308" lon="-1.36878">
        <ele>12.6</ele>
        <time>2020-06-15T09:11:20Z</time>
      </trkpt>
      <trkpt lat="49.69306" lon="-1.36872">
        <ele>12.9</ele>
        <time>2020-06-15T09:11:21Z</time>
      </trkpt>
      <trkpt lat="49.69304" lon="-1.36867">
        <ele>13.3</ele>
        <time>2020-06-15T09:11:22Z</time>
      </trkpt>
      <trkpt lat="49.69303" lon="-1.36862">
        <ele>13.6</ele>
        <time>2020-06-15T09:11:23Z</time>
      </trkpt>
      <trkpt lat="49.69301" lon="-1.36857">
        <ele>13.9</ele>
        <time>2020-06-15T09:11:24Z</time>
      </trkpt>
      <trkpt lat="49.693" lon="-1.36851">
        <ele>14.2</ele>
        <time>2020-06-15T09:11:25Z</time>
      </trkpt>
      <trkpt lat="49.69298" lon="-1.36846">
        <ele>14.5</ele>
        <time>2020-06-15T09:11:26Z</time>
      </trkpt>
      <trkpt lat="49.69297" lon="-1.3684">
        <ele>14.8</ele>
        <time>2020-06-15T09:11:27Z</time>
      </trkpt>
      <trkpt lat="49.69296" lon="-1.36834">
        <ele>15.1</ele>
        <time>2020-06-15T09:11:28Z</time>
      </trkpt>
      <trkpt lat="49.69295" lon="-1.36829">
        <ele>15.3</ele>
        <time>2020-06-15T09:11:29Z</time>
      </trkpt>
      <trkpt lat="49.69294" lon="-1.36824">
        <ele>15.6</ele>
        <time>2020-06-15T09:11:30Z</time>
      </trkpt>
      <trkpt lat="49.69293" lon="-1.3682">
        <ele>15.8</ele>
        <time>2020-06-15T09:11:31Z</time>
      </trkpt>
      <trkpt lat="49.69293" lon="-1.36813">
        <ele>16.1</ele>
        <time>2020-06-15T09:11:32Z</time>
      </trkpt>
      <trkpt lat="49.69292" lon="-1.36811">
        <ele>16.2</ele>
        <time>2020-06-15T09:11:33Z</time>
      </trkpt>
      <trkpt lat="49.69291" lon="-1.36806">
        <ele>16.4</ele>
        <time>2020-06-15T09:11:34Z</time>
      </trkpt>
      <trkpt lat="49.6929" lon="-1.36801">
        <ele>16.6</ele>
        <time>2020-06-15T09:11:35Z</time>
      </trkpt>
      <trkpt lat="49.6929" lon="-1.36795">
        <ele>16.9</ele>
        <time>2020-06-15T09:11:36Z</time>
      </trkpt>
      <trkpt lat="49.6929" lon="-1.3679">
        <ele>17.1</ele>
        <time>2020-06-15T09:11:37Z</time>
      </trkpt>
      <trkpt lat="49.69289" lon="-1.36785">
        <ele>17.3</ele>
        <time>2020-06-15T09:11:38Z</time>
      </trkpt>
      <trkpt lat="49.69288" lon="-1.3678">
        <ele>17.6</ele>
        <time>2020-06-15T09:11:39Z</time>
      </trkpt>
      <trkpt lat="49.69287" lon="-1.36774">
        <ele>17.9</ele>
        <time>2020-06-15T09:11:40Z</time>
      </trkpt>
      <trkpt lat="49.69286" lon="-1.36772">
        <ele>18</ele>
        <time>2020-06-15T09:11:41Z</time>
      </trkpt>
      <trkpt lat="49.69286" lon="-1.36767">
        <ele>18.3</ele>
        <time>2020-06-15T09:11:42Z</time>
      </trkpt>
      <trkpt lat="49.69285" lon="-1.3676">
        <ele>18.6</ele>
        <time>2020-06-15T09:11:43Z</time>
      </trkpt>
      <trkpt lat="49.69285" lon="-1.36755">
        <ele>18.8</ele>
        <time>2020-06-15T09:11:44Z</time>
      </trkpt>
      <trkpt lat="49.69285" lon="-1.3675">
        <ele>19.1</ele>
        <time>2020-06-15T09:11:45Z</time>
      </trkpt>
      <trkpt lat="49.69285" lon="-1.36748">
        <ele>19.1</ele>
        <time>2020-06-15T09:11:46Z</time>
      </trkpt>
      <trkpt lat="49.69283" lon="-1.36741">
        <ele>19.4</ele>
        <time>2020-06-15T09:11:47Z</time>
      </trkpt>
      <trkpt lat="49.69283" lon="-1.36739">
        <ele>19.5</ele>
        <time>2020-06-15T09:11:48Z</time>
      </trkpt>
      <trkpt lat="49.69283" lon="-1.36734">
        <ele>19.7</ele>
        <time>2020-06-15T09:11:49Z</time>
      </trkpt>
      <trkpt lat="49.69282" lon="-1.36729">
        <ele>19.9</ele>
        <time>2020-06-15T09:11:50Z</time>
      </trkpt>
      <trkpt lat="49.69282" lon="-1.36724">
        <ele>20</ele>
        <time>2020-06-15T09:11:51Z</time>
      </trkpt>
      <trkpt lat="49.6928" lon="-1.36719">
        <ele>20.1</ele>
        <time>2020-06-15T09:11:52Z</time>
      </trkpt>
      <trkpt lat="49.69279" lon="-1.36714">
        <ele>20.3</ele>
        <time>2020-06-15T09:11:53Z</time>
      </trkpt>
      <trkpt lat="49.69278" lon="-1.36709">
        <ele>20.4</ele>
        <time>2020-06-15T09:11:54Z</time>
      </trkpt>
      <trkpt lat="49.69278" lon="-1.36704">
        <ele>20.5</ele>
        <time>2020-06-15T09:11:55Z</time>
      </trkpt>
      <trkpt lat="49.69277" lon="-1.36698">
        <ele>20.7</ele>
        <time>2020-06-15T09:11:56Z</time>
      </trkpt>
      <trkpt lat="49.69276" lon="-1.36691">
        <ele>20.9</ele>
        <time>2020-06-15T09:11:57Z</time>
      </trkpt>
      <trkpt lat="49.69274" lon="-1.36685">
        <ele>21</ele>
        <time>2020-06-15T09:11:58Z</time>
      </trkpt>
      <trkpt lat="49.69273" lon="-1.36679">
        <ele>21.2</ele>
        <time>2020-06-15T09:11:59Z</time>
      </trkpt>
      <trkpt lat="49.69272" lon="-1.36672">
        <ele>21.3</ele>
        <time>2020-06-15T09:12:00Z</time>
      </trkpt>
      <trkpt lat="49.6927" lon="-1.36666">
        <ele>21.4</ele>
        <time>2020-06-15T09:12:01Z</time>
      </trkpt>
      <trkpt lat="49.69269" lon="-1.36658">
        <ele>21.6</ele>
        <time>2020-06-15T09:12:02Z</time>
      </trkpt>
      <trkpt lat="49.69268" lon="-1.36651">
        <ele>21.7</ele>
        <time>2020-06-15T09:12:03Z</time>
      </trkpt>
      <trkpt lat="49.69266" lon="-1.36644">
        <ele>21.8</ele>
        <time>2020-06-15T09:12:04Z</time>
      </trkpt>
      <trkpt lat="49.69265" lon="-1.36636">
        <ele>22</ele>
        <time>2020-06-15T09:12:05Z</time>
      </trkpt>
      <trkpt lat="49.69264" lon="-1.36627">
        <ele>22.1</ele>
        <time>2020-06-15T09:12:06Z</time>
      </trkpt>
      <trkpt lat="49.69262" lon="-1.36619">
        <ele>22.2</ele>
        <time>2020-06-15T09:12:07Z</time>
      </trkpt>
      <trkpt lat="49.69261" lon="-1.36611">
        <ele>22.4</ele>
        <time>2020-06-15T09:12:08Z</time>
      </trkpt>
      <trkpt lat="49.6926" lon="-1.36602">
        <ele>22.5</ele>
        <time>2020-06-15T09:12:09Z</time>
      </trkpt>
      <trkpt lat="49.69259" lon="-1.36595">
        <ele>22.7</ele>
        <time>2020-06-15T09:12:10Z</time>
      </trkpt>
      <trkpt lat="49.69257" lon="-1.36587">
        <ele>22.8</ele>
        <time>2020-06-15T09:12:11Z</time>
      </trkpt>
      <trkpt lat="49.69255" lon="-1.36579">
        <ele>23</ele>
        <time>2020-06-15T09:12:12Z</time>
      </trkpt>
      <trkpt lat="49.69254" lon="-1.36572">
        <ele>23.1</ele>
        <time>2020-06-15T09:12:13Z</time>
      </trkpt>
      <trkpt lat="49.69253" lon="-1.36564">
        <ele>23.2</ele>
        <time>2020-06-15T09:12:14Z</time>
      </trkpt>
      <trkpt lat="49.69251" lon="-1.36556">
        <ele>23.3</ele>
        <time>2020-06-15T09:12:15Z</time>
      </trkpt>
      <trkpt lat="49.69249" lon="-1.36548">
        <ele>23.5</ele>
        <time>2020-06-15T09:12:16Z</time>
      </trkpt>
      <trkpt lat="49.69248" lon="-1.3654">
        <ele>23.6</ele>
        <time>2020-06-15T09:12:17Z</time>
      </trkpt>
      <trkpt lat="49.69246" lon="-1.36533">
        <ele>23.7</ele>
        <time>2020-06-15T09:12:18Z</time>
      </trkpt>
      <trkpt lat="49.69245" lon="-1.36525">
        <ele>23.8</ele>
        <time>2020-06-15T09:12:19Z</time>
      </trkpt>
      <trkpt lat="49.69244" lon="-1.36517">
        <ele>24</ele>
        <time>2020-06-15T09:12:20Z</time>
      </trkpt>
      <trkpt lat="49.69243" lon="-1.36509">
        <ele>24.1</ele>
        <time>2020-06-15T09:12:21Z</time>
      </trkpt>
      <trkpt lat="49.69242" lon="-1.36501">
        <ele>24.2</ele>
        <time>2020-06-15T09:12:22Z</time>
      </trkpt>
      <trkpt lat="49.69241" lon="-1.36494">
        <ele>24.3</ele>
        <time>2020-06-15T09:12:23Z</time>
      </trkpt>
      <trkpt lat="49.69239" lon="-1.36486">
        <ele>24.3</ele>
        <time>2020-06-15T09:12:24Z</time>
      </trkpt>
      <trkpt lat="49.69238" lon="-1.36479">
        <ele>24.3</ele>
        <time>2020-06-15T09:12:25Z</time>
      </trkpt>
      <trkpt lat="49.69236" lon="-1.36471">
        <ele>24.3</ele>
        <time>2020-06-15T09:12:26Z</time>
      </trkpt>
      <trkpt lat="49.69234" lon="-1.36462">
        <ele>24.4</ele>
        <time>2020-06-15T09:12:27Z</time>
      </trkpt>
      <trkpt lat="49.69232" lon="-1.36455">
        <ele>24.4</ele>
        <time>2020-06-15T09:12:28Z</time>
      </trkpt>
      <trkpt lat="49.6923" lon="-1.36447">
        <ele>24.5</ele>
        <time>2020-06-15T09:12:29Z</time>
      </trkpt>
      <trkpt lat="49.69228" lon="-1.36439">
        <ele>24.5</ele>
        <time>2020-06-15T09:12:30Z</time>
      </trkpt>
      <trkpt lat="49.69227" lon="-1.3643">
        <ele>24.5</ele>
        <time>2020-06-15T09:12:31Z</time>
      </trkpt>
      <trkpt lat="49.69224" lon="-1.36421">
        <ele>24.6</ele>
        <time>2020-06-15T09:12:32Z</time>
      </trkpt>
      <trkpt lat="49.69222" lon="-1.36413">
        <ele>24.6</ele>
        <time>2020-06-15T09:12:33Z</time>
      </trkpt>
      <trkpt lat="49.6922" lon="-1.36406">
        <ele>24.6</ele>
        <time>2020-06-15T09:12:34Z</time>
      </trkpt>
      <trkpt lat="49.69217" lon="-1.36398">
        <ele>24.7</ele>
        <time>2020-06-15T09:12:35Z</time>
      </trkpt>
      <trkpt lat="49.69214" lon="-1.3639">
        <ele>24.8</ele>
        <time>2020-06-15T09:12:36Z</time>
      </trkpt>
      <trkpt lat="49.69212" lon="-1.36382">
        <ele>24.8</ele>
        <time>2020-06-15T09:12:37Z</time>
      </trkpt>
      <trkpt lat="49.69209" lon="-1.36373">
        <ele>24.9</ele>
        <time>2020-06-15T09:12:38Z</time>
      </trkpt>
      <trkpt lat="49.69207" lon="-1.36365">
        <ele>24.9</ele>
        <time>2020-06-15T09:12:39Z</time>
      </trkpt>
      <trkpt lat="49.69205" lon="-1.36357">
        <ele>24.9</ele>
        <time>2020-06-15T09:12:40Z</time>
      </trkpt>
      <trkpt lat="49.69203" lon="-1.36349">
        <ele>25</ele>
        <time>2020-06-15T09:12:41Z</time>
      </trkpt>
      <trkpt lat="49.692" lon="-1.36341">
        <ele>25</ele>
        <time>2020-06-15T09:12:42Z</time>
      </trkpt>
      <trkpt lat="49.69198" lon="-1.36334">
        <ele>25</ele>
        <time>2020-06-15T09:12:43Z</time>
      </trkpt>
      <trkpt lat="49.69195" lon="-1.36327">
        <ele>25</ele>
        <time>2020-06-15T09:12:44Z</time>
      </trkpt>
      <trkpt lat="49.69192" lon="-1.3632">
        <ele>25</ele>
        <time>2020-06-15T09:12:45Z</time>
      </trkpt>
      <trkpt lat="49.69189" lon="-1.36311">
        <ele>25</ele>
        <time>2020-06-15T09:12:46Z</time>
      </trkpt>
      <trkpt lat="49.69186" lon="-1.36302">
        <ele>25</ele>
        <time>2020-06-15T09:12:47Z</time>
      </trkpt>
      <trkpt lat="49.69183" lon="-1.36293">
        <ele>24.9</ele>
        <time>2020-06-15T09:12:48Z</time>
      </trkpt>
      <trkpt lat="49.69179" lon="-1.36283">
        <ele>24.9</ele>
        <time>2020-06-15T09:12:49Z</time>
      </trkpt>
      <trkpt lat="49.69176" lon="-1.36276">
        <ele>25</ele>
        <time>2020-06-15T09:12:50Z</time>
      </trkpt>
      <trkpt lat="49.69173" lon="-1.36268">
        <ele>25</ele>
        <time>2020-06-15T09:12:51Z</time>
      </trkpt>
      <trkpt lat="49.69169" lon="-1.3626">
        <ele>25</ele>
        <time>2020-06-15T09:12:52Z</time>
      </trkpt>
      <trkpt lat="49.69166" lon="-1.36253">
        <ele>25.1</ele>
        <time>2020-06-15T09:12:53Z</time>
      </trkpt>
      <trkpt lat="49.69163" lon="-1.36244">
        <ele>25.2</ele>
        <time>2020-06-15T09:12:54Z</time>
      </trkpt>
      <trkpt lat="49.69161" lon="-1.36236">
        <ele>25.2</ele>
        <time>2020-06-15T09:12:55Z</time>
      </trkpt>
      <trkpt lat="49.69158" lon="-1.36228">
        <ele>25.3</ele>
        <time>2020-06-15T09:12:56Z</time>
      </trkpt>
      <trkpt lat="49.69156" lon="-1.36221">
        <ele>25.3</ele>
        <time>2020-06-15T09:12:57Z</time>
      </trkpt>
      <trkpt lat="49.69153" lon="-1.36213">
        <ele>25.3</ele>
        <time>2020-06-15T09:12:58Z</time>
      </trkpt>
      <trkpt lat="49.6915" lon="-1.36206">
        <ele>25.4</ele>
        <time>2020-06-15T09:12:59Z</time>
      </trkpt>
      <trkpt lat="49.69148" lon="-1.36199">
        <ele>25.4</ele>
        <time>2020-06-15T09:13:00Z</time>
      </trkpt>
      <trkpt lat="49.69146" lon="-1.36192">
        <ele>25.4</ele>
        <time>2020-06-15T09:13:01Z</time>
      </trkpt>
      <trkpt lat="49.69143" lon="-1.36184">
        <ele>25.5</ele>
        <time>2020-06-15T09:13:02Z</time>
      </trkpt>
      <trkpt lat="49.6914" lon="-1.36178">
        <ele>25.5</ele>
        <time>2020-06-15T09:13:03Z</time>
      </trkpt>
      <trkpt lat="49.69138" lon="-1.36172">
        <ele>25.6</ele>
        <time>2020-06-15T09:13:04Z</time>
      </trkpt>
      <trkpt lat="49.69135" lon="-1.36165">
        <ele>25.6</ele>
        <time>2020-06-15T09:13:05Z</time>
      </trkpt>
      <trkpt lat="49.69132" lon="-1.36157">
        <ele>25.7</ele>
        <time>2020-06-15T09:13:06Z</time>
      </trkpt>
      <trkpt lat="49.6913" lon="-1.3615">
        <ele>25.7</ele>
        <time>2020-06-15T09:13:07Z</time>
      </trkpt>
      <trkpt lat="49.69127" lon="-1.36144">
        <ele>25.8</ele>
        <time>2020-06-15T09:13:08Z</time>
      </trkpt>
      <trkpt lat="49.69125" lon="-1.36137">
        <ele>25.8</ele>
        <time>2020-06-15T09:13:09Z</time>
      </trkpt>
      <trkpt lat="49.69121" lon="-1.36128">
        <ele>25.9</ele>
        <time>2020-06-15T09:13:10Z</time>
      </trkpt>
      <trkpt lat="49.69118" lon="-1.3612">
        <ele>25.9</ele>
        <time>2020-06-15T09:13:11Z</time>
      </trkpt>
      <trkpt lat="49.69116" lon="-1.36113">
        <ele>26</ele>
        <time>2020-06-15T09:13:12Z</time>
      </trkpt>
      <trkpt lat="49.69113" lon="-1.36104">
        <ele>26.1</ele>
        <time>2020-06-15T09:13:13Z</time>
      </trkpt>
      <trkpt lat="49.69111" lon="-1.36097">
        <ele>26.2</ele>
        <time>2020-06-15T09:13:14Z</time>
      </trkpt>
      <trkpt lat="49.69108" lon="-1.3609">
        <ele>26.3</ele>
        <time>2020-06-15T09:13:15Z</time>
      </trkpt>
      <trkpt lat="49.69106" lon="-1.36083">
        <ele>26.4</ele>
        <time>2020-06-15T09:13:16Z</time>
      </trkpt>
      <trkpt lat="49.69104" lon="-1.36077">
        <ele>26.4</ele>
        <time>2020-06-15T09:13:17Z</time>
      </trkpt>
      <trkpt lat="49.69101" lon="-1.36069">
        <ele>26.5</ele>
        <time>2020-06-15T09:13:18Z</time>
      </trkpt>
      <trkpt lat="49.69099" lon="-1.36064">
        <ele>26.5</ele>
        <time>2020-06-15T09:13:19Z</time>
      </trkpt>
      <trkpt lat="49.69097" lon="-1.36057">
        <ele>26.5</ele>
        <time>2020-06-15T09:13:20Z</time>
      </trkpt>
      <trkpt lat="49.69095" lon="-1.3605">
        <ele>26.5</ele>
        <time>2020-06-15T09:13:21Z</time>
      </trkpt>
      <trkpt lat="49.69093" lon="-1.36041">
        <ele>26.6</ele>
        <time>2020-06-15T09:13:22Z</time>
      </trkpt>
      <trkpt lat="49.69091" lon="-1.36033">
        <ele>26.6</ele>
        <time>2020-06-15T09:13:23Z</time>
      </trkpt>
      <trkpt lat="49.69089" lon="-1.36025">
        <ele>26.6</ele>
        <time>2020-06-15T09:13:24Z</time>
      </trkpt>
      <trkpt lat="49.69087" lon="-1.36018">
        <ele>26.6</ele>
        <time>2020-06-15T09:13:25Z</time>
      </trkpt>
      <trkpt lat="49.69084" lon="-1.36008">
        <ele>26.6</ele>
        <time>2020-06-15T09:13:26Z</time>
      </trkpt>
      <trkpt lat="49.69082" lon="-1.35999">
        <ele>26.5</ele>
        <time>2020-06-15T09:13:27Z</time>
      </trkpt>
      <trkpt lat="49.6908" lon="-1.3599">
        <ele>26.5</ele>
        <time>2020-06-15T09:13:28Z</time>
      </trkpt>
      <trkpt lat="49.69078" lon="-1.35983">
        <ele>26.4</ele>
        <time>2020-06-15T09:13:29Z</time>
      </trkpt>
      <trkpt lat="49.69077" lon="-1.35975">
        <ele>26.4</ele>
        <time>2020-06-15T09:13:30Z</time>
      </trkpt>
      <trkpt lat="49.69075" lon="-1.35967">
        <ele>26.3</ele>
        <time>2020-06-15T09:13:31Z</time>
      </trkpt>
      <trkpt lat="49.69073" lon="-1.35958">
        <ele>26.3</ele>
        <time>2020-06-15T09:13:32Z</time>
      </trkpt>
      <trkpt lat="49.69071" lon="-1.35949">
        <ele>26.2</ele>
        <time>2020-06-15T09:13:33Z</time>
      </trkpt>
      <trkpt lat="49.69069" lon="-1.35939">
        <ele>26.1</ele>
        <time>2020-06-15T09:13:34Z</time>
      </trkpt>
      <trkpt lat="49.69068" lon="-1.3593">
        <ele>26.1</ele>
        <time>2020-06-15T09:13:35Z</time>
      </trkpt>
      <trkpt lat="49.69067" lon="-1.35921">
        <ele>26</ele>
        <time>2020-06-15T09:13:36Z</time>
      </trkpt>
      <trkpt lat="49.69066" lon="-1.35911">
        <ele>25.8</ele>
        <time>2020-06-15T09:13:37Z</time>
      </trkpt>
      <trkpt lat="49.69066" lon="-1.35901">
        <ele>25.8</ele>
        <time>2020-06-15T09:13:38Z</time>
      </trkpt>
      <trkpt lat="49.69065" lon="-1.3589">
        <ele>25.8</ele>
        <time>2020-06-15T09:13:39Z</time>
      </trkpt>
      <trkpt lat="49.69065" lon="-1.3588">
        <ele>25.8</ele>
        <time>2020-06-15T09:13:40Z</time>
      </trkpt>
      <trkpt lat="49.69065" lon="-1.35869">
        <ele>25.8</ele>
        <time>2020-06-15T09:13:41Z</time>
      </trkpt>
      <trkpt lat="49.69065" lon="-1.35859">
        <ele>25.8</ele>
        <time>2020-06-15T09:13:42Z</time>
      </trkpt>
      <trkpt lat="49.69066" lon="-1.35848">
        <ele>25.8</ele>
        <time>2020-06-15T09:13:43Z</time>
      </trkpt>
      <trkpt lat="49.69067" lon="-1.35839">
        <ele>25.9</ele>
        <time>2020-06-15T09:13:44Z</time>
      </trkpt>
      <trkpt lat="49.69068" lon="-1.35831">
        <ele>25.9</ele>
        <time>2020-06-15T09:13:45Z</time>
      </trkpt>
      <trkpt lat="49.69068" lon="-1.35821">
        <ele>26</ele>
        <time>2020-06-15T09:13:46Z</time>
      </trkpt>
      <trkpt lat="49.69068" lon="-1.35814">
        <ele>26</ele>
        <time>2020-06-15T09:13:47Z</time>
      </trkpt>
      <trkpt lat="49.6907" lon="-1.35805">
        <ele>26.1</ele>
        <time>2020-06-15T09:13:48Z</time>
      </trkpt>
      <trkpt lat="49.69071" lon="-1.35797">
        <ele>26.1</ele>
        <time>2020-06-15T09:13:49Z</time>
      </trkpt>
      <trkpt lat="49.69072" lon="-1.3579">
        <ele>26.1</ele>
        <time>2020-06-15T09:13:50Z</time>
      </trkpt>
      <trkpt lat="49.69073" lon="-1.35784">
        <ele>26.1</ele>
        <time>2020-06-15T09:13:51Z</time>
      </trkpt>
      <trkpt lat="49.69075" lon="-1.35775">
        <ele>26.1</ele>
        <time>2020-06-15T09:13:52Z</time>
      </trkpt>
      <trkpt lat="49.69078" lon="-1.35767">
        <ele>26.2</ele>
        <time>2020-06-15T09:13:53Z</time>
      </trkpt>
      <trkpt lat="49.6908" lon="-1.35757">
        <ele>26.2</ele>
        <time>2020-06-15T09:13:54Z</time>
      </trkpt>
      <trkpt lat="49.69082" lon="-1.35749">
        <ele>26.2</ele>
        <time>2020-06-15T09:13:55Z</time>
      </trkpt>
      <trkpt lat="49.69084" lon="-1.35741">
        <ele>26.3</ele>
        <time>2020-06-15T09:13:56Z</time>
      </trkpt>
      <trkpt lat="49.69086" lon="-1.35732">
        <ele>26.3</ele>
        <time>2020-06-15T09:13:57Z</time>
      </trkpt>
      <trkpt lat="49.69088" lon="-1.35725">
        <ele>26.4</ele>
        <time>2020-06-15T09:13:58Z</time>
      </trkpt>
      <trkpt lat="49.69091" lon="-1.35712">
        <ele>26.4</ele>
        <time>2020-06-15T09:13:59Z</time>
      </trkpt>
      <trkpt lat="49.69094" lon="-1.357">
        <ele>26.4</ele>
        <time>2020-06-15T09:14:00Z</time>
      </trkpt>
      <trkpt lat="49.69095" lon="-1.35692">
        <ele>26.5</ele>
        <time>2020-06-15T09:14:01Z</time>
      </trkpt>
      <trkpt lat="49.69096" lon="-1.35683">
        <ele>26.5</ele>
        <time>2020-06-15T09:14:02Z</time>
      </trkpt>
      <trkpt lat="49.69096" lon="-1.35673">
        <ele>26.5</ele>
        <time>2020-06-15T09:14:03Z</time>
      </trkpt>
      <trkpt lat="49.69097" lon="-1.35663">
        <ele>26.5</ele>
        <time>2020-06-15T09:14:04Z</time>
      </trkpt>
      <trkpt lat="49.69097" lon="-1.35652">
        <ele>26.4</ele>
        <time>2020-06-15T09:14:05Z</time>
      </trkpt>
      <trkpt lat="49.69098" lon="-1.35642">
        <ele>26.4</ele>
        <time>2020-06-15T09:14:06Z</time>
      </trkpt>
      <trkpt lat="49.69098" lon="-1.35632">
        <ele>26.3</ele>
        <time>2020-06-15T09:14:07Z</time>
      </trkpt>
      <trkpt lat="49.69099" lon="-1.35622">
        <ele>26.3</ele>
        <time>2020-06-15T09:14:08Z</time>
      </trkpt>
      <trkpt lat="49.69099" lon="-1.35612">
        <ele>26.2</ele>
        <time>2020-06-15T09:14:09Z</time>
      </trkpt>
      <trkpt lat="49.69099" lon="-1.35602">
        <ele>26.1</ele>
        <time>2020-06-15T09:14:10Z</time>
      </trkpt>
      <trkpt lat="49.69099" lon="-1.35591">
        <ele>26.1</ele>
        <time>2020-06-15T09:14:11Z</time>
      </trkpt>
      <trkpt lat="49.69099" lon="-1.3558">
        <ele>26</ele>
        <time>2020-06-15T09:14:12Z</time>
      </trkpt>
      <trkpt lat="49.69099" lon="-1.35571">
        <ele>25.9</ele>
        <time>2020-06-15T09:14:13Z</time>
      </trkpt>
      <trkpt lat="49.69099" lon="-1.3556">
        <ele>25.9</ele>
        <time>2020-06-15T09:14:14Z</time>
      </trkpt>
      <trkpt lat="49.69099" lon="-1.3555">
        <ele>25.8</ele>
        <time>2020-06-15T09:14:15Z</time>
      </trkpt>
      <trkpt lat="49.691" lon="-1.3554">
        <ele>25.7</ele>
        <time>2020-06-15T09:14:16Z</time>
      </trkpt>
      <trkpt lat="49.69101" lon="-1.3553">
        <ele>25.7</ele>
        <time>2020-06-15T09:14:17Z</time>
      </trkpt>
      <trkpt lat="49.691" lon="-1.3552">
        <ele>25.6</ele>
        <time>2020-06-15T09:14:18Z</time>
      </trkpt>
      <trkpt lat="49.69101" lon="-1.3551">
        <ele>25.5</ele>
        <time>2020-06-15T09:14:19Z</time>
      </trkpt>
      <trkpt lat="49.691" lon="-1.355">
        <ele>25.4</ele>
        <time>2020-06-15T09:14:20Z</time>
      </trkpt>
      <trkpt lat="49.691" lon="-1.3549">
        <ele>25.3</ele>
        <time>2020-06-15T09:14:21Z</time>
      </trkpt>
      <trkpt lat="49.691" lon="-1.35481">
        <ele>25.2</ele>
        <time>2020-06-15T09:14:22Z</time>
      </trkpt>
      <trkpt lat="49.691" lon="-1.35471">
        <ele>25.1</ele>
        <time>2020-06-15T09:14:23Z</time>
      </trkpt>
      <trkpt lat="49.691" lon="-1.35461">
        <ele>25</ele>
        <time>2020-06-15T09:14:24Z</time>
      </trkpt>
      <trkpt lat="49.691" lon="-1.35451">
        <ele>25</ele>
        <time>2020-06-15T09:14:25Z</time>
      </trkpt>
      <trkpt lat="49.691" lon="-1.3544">
        <ele>24.9</ele>
        <time>2020-06-15T09:14:26Z</time>
      </trkpt>
      <trkpt lat="49.691" lon="-1.35429">
        <ele>24.8</ele>
        <time>2020-06-15T09:14:27Z</time>
      </trkpt>
      <trkpt lat="49.69099" lon="-1.35418">
        <ele>24.8</ele>
        <time>2020-06-15T09:14:28Z</time>
      </trkpt>
      <trkpt lat="49.691" lon="-1.35408">
        <ele>24.7</ele>
        <time>2020-06-15T09:14:29Z</time>
      </trkpt>
      <trkpt lat="49.691" lon="-1.35397">
        <ele>24.6</ele>
        <time>2020-06-15T09:14:30Z</time>
      </trkpt>
      <trkpt lat="49.691" lon="-1.35387">
        <ele>24.5</ele>
        <time>2020-06-15T09:14:31Z</time>
      </trkpt>
      <trkpt lat="49.691" lon="-1.35377">
        <ele>24.5</ele>
        <time>2020-06-15T09:14:32Z</time>
      </trkpt>
      <trkpt lat="49.691" lon="-1.35366">
        <ele>24.4</ele>
        <time>2020-06-15T09:14:33Z</time>
      </trkpt>
      <trkpt lat="49.691" lon="-1.35356">
        <ele>24.3</ele>
        <time>2020-06-15T09:14:34Z</time>
      </trkpt>
      <trkpt lat="49.691" lon="-1.35345">
        <ele>24.3</ele>
        <time>2020-06-15T09:14:35Z</time>
      </trkpt>
      <trkpt lat="49.691" lon="-1.35335">
        <ele>24.2</ele>
        <time>2020-06-15T09:14:36Z</time>
      </trkpt>
      <trkpt lat="49.69101" lon="-1.35324">
        <ele>24</ele>
        <time>2020-06-15T09:14:37Z</time>
      </trkpt>
      <trkpt lat="49.69101" lon="-1.35313">
        <ele>23.9</ele>
        <time>2020-06-15T09:14:38Z</time>
      </trkpt>
      <trkpt lat="49.69102" lon="-1.35302">
        <ele>23.8</ele>
        <time>2020-06-15T09:14:39Z</time>
      </trkpt>
      <trkpt lat="49.69103" lon="-1.35291">
        <ele>23.8</ele>
        <time>2020-06-15T09:14:40Z</time>
      </trkpt>
      <trkpt lat="49.69103" lon="-1.3528">
        <ele>23.7</ele>
        <time>2020-06-15T09:14:41Z</time>
      </trkpt>
      <trkpt lat="49.69104" lon="-1.35269">
        <ele>23.7</ele>
        <time>2020-06-15T09:14:42Z</time>
      </trkpt>
      <trkpt lat="49.69105" lon="-1.35257">
        <ele>23.6</ele>
        <time>2020-06-15T09:14:43Z</time>
      </trkpt>
      <trkpt lat="49.69106" lon="-1.35246">
        <ele>23.5</ele>
        <time>2020-06-15T09:14:44Z</time>
      </trkpt>
      <trkpt lat="49.69107" lon="-1.35235">
        <ele>23.5</ele>
        <time>2020-06-15T09:14:45Z</time>
      </trkpt>
      <trkpt lat="49.69108" lon="-1.35224">
        <ele>23.4</ele>
        <time>2020-06-15T09:14:46Z</time>
      </trkpt>
      <trkpt lat="49.69108" lon="-1.35213">
        <ele>23.3</ele>
        <time>2020-06-15T09:14:47Z</time>
      </trkpt>
      <trkpt lat="49.69109" lon="-1.35202">
        <ele>23.3</ele>
        <time>2020-06-15T09:14:48Z</time>
      </trkpt>
      <trkpt lat="49.6911" lon="-1.35191">
        <ele>23.3</ele>
        <time>2020-06-15T09:14:49Z</time>
      </trkpt>
      <trkpt lat="49.69111" lon="-1.3518">
        <ele>23.2</ele>
        <time>2020-06-15T09:14:50Z</time>
      </trkpt>
      <trkpt lat="49.69113" lon="-1.35169">
        <ele>23.2</ele>
        <time>2020-06-15T09:14:51Z</time>
      </trkpt>
      <trkpt lat="49.69114" lon="-1.35158">
        <ele>23.2</ele>
        <time>2020-06-15T09:14:52Z</time>
      </trkpt>
      <trkpt lat="49.69115" lon="-1.35146">
        <ele>23.2</ele>
        <time>2020-06-15T09:14:53Z</time>
      </trkpt>
      <trkpt lat="49.69117" lon="-1.35135">
        <ele>23.2</ele>
        <time>2020-06-15T09:14:54Z</time>
      </trkpt>
      <trkpt lat="49.69118" lon="-1.35124">
        <ele>23.2</ele>
        <time>2020-06-15T09:14:55Z</time>
      </trkpt>
      <trkpt lat="49.6912" lon="-1.35113">
        <ele>23.2</ele>
        <time>2020-06-15T09:14:56Z</time>
      </trkpt>
      <trkpt lat="49.69121" lon="-1.35102">
        <ele>23.1</ele>
        <time>2020-06-15T09:14:57Z</time>
      </trkpt>
      <trkpt lat="49.69123" lon="-1.35091">
        <ele>23.1</ele>
        <time>2020-06-15T09:14:58Z</time>
      </trkpt>
      <trkpt lat="49.69124" lon="-1.3508">
        <ele>23.1</ele>
        <time>2020-06-15T09:14:59Z</time>
      </trkpt>
      <trkpt lat="49.69126" lon="-1.35069">
        <ele>23.1</ele>
        <time>2020-06-15T09:15:00Z</time>
      </trkpt>
      <trkpt lat="49.69127" lon="-1.35059">
        <ele>23</ele>
        <time>2020-06-15T09:15:01Z</time>
      </trkpt>
      <trkpt lat="49.69128" lon="-1.35048">
        <ele>23</ele>
        <time>2020-06-15T09:15:02Z</time>
      </trkpt>
      <trkpt lat="49.69129" lon="-1.35038">
        <ele>23</ele>
        <time>2020-06-15T09:15:03Z</time>
      </trkpt>
      <trkpt lat="49.69131" lon="-1.35028">
        <ele>22.9</ele>
        <time>2020-06-15T09:15:04Z</time>
      </trkpt>
      <trkpt lat="49.69133" lon="-1.35018">
        <ele>22.9</ele>
        <time>2020-06-15T09:15:05Z</time>
      </trkpt>
      <trkpt lat="49.69134" lon="-1.35008">
        <ele>22.8</ele>
        <time>2020-06-15T09:15:06Z</time>
      </trkpt>
      <trkpt lat="49.69135" lon="-1.34998">
        <ele>22.7</ele>
        <time>2020-06-15T09:15:07Z</time>
      </trkpt>
      <trkpt lat="49.69136" lon="-1.34988">
        <ele>22.7</ele>
        <time>2020-06-15T09:15:08Z</time>
      </trkpt>
      <trkpt lat="49.69138" lon="-1.34978">
        <ele>22.6</ele>
        <time>2020-06-15T09:15:09Z</time>
      </trkpt>
      <trkpt lat="49.69139" lon="-1.34968">
        <ele>22.6</ele>
        <time>2020-06-15T09:15:10Z</time>
      </trkpt>
      <trkpt lat="49.6914" lon="-1.34957">
        <ele>22.5</ele>
        <time>2020-06-15T09:15:11Z</time>
      </trkpt>
      <trkpt lat="49.69141" lon="-1.34947">
        <ele>22.4</ele>
        <time>2020-06-15T09:15:12Z</time>
      </trkpt>
      <trkpt lat="49.69143" lon="-1.34936">
        <ele>22.4</ele>
        <time>2020-06-15T09:15:13Z</time>
      </trkpt>
      <trkpt lat="49.69143" lon="-1.34926">
        <ele>22.3</ele>
        <time>2020-06-15T09:15:14Z</time>
      </trkpt>
      <trkpt lat="49.69143" lon="-1.34915">
        <ele>22.2</ele>
        <time>2020-06-15T09:15:15Z</time>
      </trkpt>
      <trkpt lat="49.69143" lon="-1.34904">
        <ele>22.2</ele>
        <time>2020-06-15T09:15:16Z</time>
      </trkpt>
      <trkpt lat="49.69143" lon="-1.34893">
        <ele>22.1</ele>
        <time>2020-06-15T09:15:17Z</time>
      </trkpt>
      <trkpt lat="49.69143" lon="-1.34882">
        <ele>22</ele>
        <time>2020-06-15T09:15:18Z</time>
      </trkpt>
      <trkpt lat="49.69142" lon="-1.34872">
        <ele>22</ele>
        <time>2020-06-15T09:15:19Z</time>
      </trkpt>
      <trkpt lat="49.69142" lon="-1.34861">
        <ele>21.9</ele>
        <time>2020-06-15T09:15:20Z</time>
      </trkpt>
      <trkpt lat="49.69141" lon="-1.3485">
        <ele>21.9</ele>
        <time>2020-06-15T09:15:21Z</time>
      </trkpt>
      <trkpt lat="49.6914" lon="-1.3484">
        <ele>21.9</ele>
        <time>2020-06-15T09:15:22Z</time>
      </trkpt>
      <trkpt lat="49.69138" lon="-1.34829">
        <ele>21.9</ele>
        <time>2020-06-15T09:15:23Z</time>
      </trkpt>
      <trkpt lat="49.69138" lon="-1.34819">
        <ele>21.9</ele>
        <time>2020-06-15T09:15:24Z</time>
      </trkpt>
      <trkpt lat="49.69137" lon="-1.34809">
        <ele>21.9</ele>
        <time>2020-06-15T09:15:25Z</time>
      </trkpt>
      <trkpt lat="49.69136" lon="-1.34798">
        <ele>21.9</ele>
        <time>2020-06-15T09:15:26Z</time>
      </trkpt>
      <trkpt lat="49.69135" lon="-1.34788">
        <ele>22</ele>
        <time>2020-06-15T09:15:27Z</time>
      </trkpt>
      <trkpt lat="49.69134" lon="-1.34778">
        <ele>22</ele>
        <time>2020-06-15T09:15:28Z</time>
      </trkpt>
      <trkpt lat="49.69133" lon="-1.34768">
        <ele>22.1</ele>
        <time>2020-06-15T09:15:29Z</time>
      </trkpt>
      <trkpt lat="49.69133" lon="-1.34759">
        <ele>22.1</ele>
        <time>2020-06-15T09:15:30Z</time>
      </trkpt>
      <trkpt lat="49.69132" lon="-1.34749">
        <ele>22.2</ele>
        <time>2020-06-15T09:15:31Z</time>
      </trkpt>
      <trkpt lat="49.69132" lon="-1.34739">
        <ele>22.2</ele>
        <time>2020-06-15T09:15:32Z</time>
      </trkpt>
      <trkpt lat="49.69131" lon="-1.34729">
        <ele>22.2</ele>
        <time>2020-06-15T09:15:33Z</time>
      </trkpt>
      <trkpt lat="49.6913" lon="-1.3472">
        <ele>22.2</ele>
        <time>2020-06-15T09:15:34Z</time>
      </trkpt>
      <trkpt lat="49.69129" lon="-1.3471">
        <ele>22.2</ele>
        <time>2020-06-15T09:15:35Z</time>
      </trkpt>
      <trkpt lat="49.69129" lon="-1.347">
        <ele>22.3</ele>
        <time>2020-06-15T09:15:36Z</time>
      </trkpt>
      <trkpt lat="49.69129" lon="-1.34691">
        <ele>22.3</ele>
        <time>2020-06-15T09:15:37Z</time>
      </trkpt>
      <trkpt lat="49.69128" lon="-1.34681">
        <ele>22.3</ele>
        <time>2020-06-15T09:15:38Z</time>
      </trkpt>
      <trkpt lat="49.69128" lon="-1.34671">
        <ele>22.3</ele>
        <time>2020-06-15T09:15:39Z</time>
      </trkpt>
      <trkpt lat="49.69127" lon="-1.34662">
        <ele>22.3</ele>
        <time>2020-06-15T09:15:40Z</time>
      </trkpt>
      <trkpt lat="49.69127" lon="-1.34653">
        <ele>22.4</ele>
        <time>2020-06-15T09:15:41Z</time>
      </trkpt>
      <trkpt lat="49.69127" lon="-1.34643">
        <ele>22.4</ele>
        <time>2020-06-15T09:15:42Z</time>
      </trkpt>
      <trkpt lat="49.69126" lon="-1.34634">
        <ele>22.5</ele>
        <time>2020-06-15T09:15:43Z</time>
      </trkpt>
      <trkpt lat="49.69126" lon="-1.34625">
        <ele>22.6</ele>
        <time>2020-06-15T09:15:44Z</time>
      </trkpt>
      <trkpt lat="49.69126" lon="-1.34616">
        <ele>22.7</ele>
        <time>2020-06-15T09:15:45Z</time>
      </trkpt>
      <trkpt lat="49.69127" lon="-1.34608">
        <ele>22.7</ele>
        <time>2020-06-15T09:15:46Z</time>
      </trkpt>
      <trkpt lat="49.69127" lon="-1.34599">
        <ele>22.8</ele>
        <time>2020-06-15T09:15:47Z</time>
      </trkpt>
      <trkpt lat="49.69127" lon="-1.3459">
        <ele>22.8</ele>
        <time>2020-06-15T09:15:48Z</time>
      </trkpt>
      <trkpt lat="49.69127" lon="-1.34581">
        <ele>22.8</ele>
        <time>2020-06-15T09:15:49Z</time>
      </trkpt>
      <trkpt lat="49.69128" lon="-1.34572">
        <ele>22.8</ele>
        <time>2020-06-15T09:15:50Z</time>
      </trkpt>
      <trkpt lat="49.69129" lon="-1.34563">
        <ele>22.8</ele>
        <time>2020-06-15T09:15:51Z</time>
      </trkpt>
      <trkpt lat="49.6913" lon="-1.34555">
        <ele>22.8</ele>
        <time>2020-06-15T09:15:52Z</time>
      </trkpt>
      <trkpt lat="49.6913" lon="-1.34547">
        <ele>22.8</ele>
        <time>2020-06-15T09:15:53Z</time>
      </trkpt>
      <trkpt lat="49.69132" lon="-1.34537">
        <ele>22.9</ele>
        <time>2020-06-15T09:15:54Z</time>
      </trkpt>
      <trkpt lat="49.69133" lon="-1.34527">
        <ele>22.9</ele>
        <time>2020-06-15T09:15:55Z</time>
      </trkpt>
      <trkpt lat="49.69134" lon="-1.34519">
        <ele>22.9</ele>
        <time>2020-06-15T09:15:56Z</time>
      </trkpt>
      <trkpt lat="49.69135" lon="-1.34511">
        <ele>22.9</ele>
        <time>2020-06-15T09:15:57Z</time>
      </trkpt>
      <trkpt lat="49.69137" lon="-1.34502">
        <ele>22.8</ele>
        <time>2020-06-15T09:15:58Z</time>
      </trkpt>
      <trkpt lat="49.6914" lon="-1.34493">
        <ele>22.8</ele>
        <time>2020-06-15T09:15:59Z</time>
      </trkpt>
      <trkpt lat="49.69143" lon="-1.34485">
        <ele>22.8</ele>
        <time>2020-06-15T09:16:00Z</time>
      </trkpt>
      <trkpt lat="49.69145" lon="-1.34478">
        <ele>22.7</ele>
        <time>2020-06-15T09:16:01Z</time>
      </trkpt>
      <trkpt lat="49.69147" lon="-1.34469">
        <ele>22.7</ele>
        <time>2020-06-15T09:16:02Z</time>
      </trkpt>
      <trkpt lat="49.6915" lon="-1.34458">
        <ele>22.7</ele>
        <time>2020-06-15T09:16:03Z</time>
      </trkpt>
      <trkpt lat="49.69152" lon="-1.34448">
        <ele>22.7</ele>
        <time>2020-06-15T09:16:04Z</time>
      </trkpt>
      <trkpt lat="49.69155" lon="-1.34438">
        <ele>22.7</ele>
        <time>2020-06-15T09:16:05Z</time>
      </trkpt>
      <trkpt lat="49.69157" lon="-1.34427">
        <ele>22.6</ele>
        <time>2020-06-15T09:16:06Z</time>
      </trkpt>
      <trkpt lat="49.6916" lon="-1.34419">
        <ele>22.6</ele>
        <time>2020-06-15T09:16:07Z</time>
      </trkpt>
      <trkpt lat="49.69163" lon="-1.34411">
        <ele>22.5</ele>
        <time>2020-06-15T09:16:08Z</time>
      </trkpt>
      <trkpt lat="49.69166" lon="-1.34403">
        <ele>22.5</ele>
        <time>2020-06-15T09:16:09Z</time>
      </trkpt>
      <trkpt lat="49.69168" lon="-1.34395">
        <ele>22.5</ele>
        <time>2020-06-15T09:16:10Z</time>
      </trkpt>
      <trkpt lat="49.6917" lon="-1.34385">
        <ele>22.5</ele>
        <time>2020-06-15T09:16:11Z</time>
      </trkpt>
      <trkpt lat="49.69172" lon="-1.34375">
        <ele>22.5</ele>
        <time>2020-06-15T09:16:12Z</time>
      </trkpt>
      <trkpt lat="49.69174" lon="-1.34365">
        <ele>22.5</ele>
        <time>2020-06-15T09:16:13Z</time>
      </trkpt>
      <trkpt lat="49.69175" lon="-1.34355">
        <ele>22.4</ele>
        <time>2020-06-15T09:16:14Z</time>
      </trkpt>
      <trkpt lat="49.69176" lon="-1.34345">
        <ele>22.4</ele>
        <time>2020-06-15T09:16:15Z</time>
      </trkpt>
      <trkpt lat="49.69176" lon="-1.34336">
        <ele>22.4</ele>
        <time>2020-06-15T09:16:16Z</time>
      </trkpt>
      <trkpt lat="49.69176" lon="-1.34328">
        <ele>22.4</ele>
        <time>2020-06-15T09:16:17Z</time>
      </trkpt>
      <trkpt lat="49.69177" lon="-1.34318">
        <ele>22.4</ele>
        <time>2020-06-15T09:16:18Z</time>
      </trkpt>
      <trkpt lat="49.69177" lon="-1.34311">
        <ele>22.4</ele>
        <time>2020-06-15T09:16:19Z</time>
      </trkpt>
      <trkpt lat="49.69178" lon="-1.34302">
        <ele>22.4</ele>
        <time>2020-06-15T09:16:20Z</time>
      </trkpt>
      <trkpt lat="49.69178" lon="-1.34292">
        <ele>22.4</ele>
        <time>2020-06-15T09:16:21Z</time>
      </trkpt>
      <trkpt lat="49.69179" lon="-1.34284">
        <ele>22.3</ele>
        <time>2020-06-15T09:16:22Z</time>
      </trkpt>
      <trkpt lat="49.69179" lon="-1.34273">
        <ele>22.4</ele>
        <time>2020-06-15T09:16:23Z</time>
      </trkpt>
      <trkpt lat="49.69179" lon="-1.34264">
        <ele>22.4</ele>
        <time>2020-06-15T09:16:24Z</time>
      </trkpt>
      <trkpt lat="49.69179" lon="-1.34255">
        <ele>22.4</ele>
        <time>2020-06-15T09:16:25Z</time>
      </trkpt>
      <trkpt lat="49.69178" lon="-1.34245">
        <ele>22.4</ele>
        <time>2020-06-15T09:16:26Z</time>
      </trkpt>
      <trkpt lat="49.69178" lon="-1.34234">
        <ele>22.3</ele>
        <time>2020-06-15T09:16:27Z</time>
      </trkpt>
      <trkpt lat="49.69178" lon="-1.34225">
        <ele>22.3</ele>
        <time>2020-06-15T09:16:28Z</time>
      </trkpt>
      <trkpt lat="49.69178" lon="-1.34215">
        <ele>22.2</ele>
        <time>2020-06-15T09:16:29Z</time>
      </trkpt>
      <trkpt lat="49.69177" lon="-1.34206">
        <ele>22.2</ele>
        <time>2020-06-15T09:16:30Z</time>
      </trkpt>
      <trkpt lat="49.69175" lon="-1.34197">
        <ele>22.1</ele>
        <time>2020-06-15T09:16:31Z</time>
      </trkpt>
      <trkpt lat="49.69173" lon="-1.34187">
        <ele>22.1</ele>
        <time>2020-06-15T09:16:32Z</time>
      </trkpt>
      <trkpt lat="49.69172" lon="-1.34177">
        <ele>22</ele>
        <time>2020-06-15T09:16:33Z</time>
      </trkpt>
      <trkpt lat="49.6917" lon="-1.34167">
        <ele>22</ele>
        <time>2020-06-15T09:16:34Z</time>
      </trkpt>
      <trkpt lat="49.69169" lon="-1.34158">
        <ele>21.9</ele>
        <time>2020-06-15T09:16:35Z</time>
      </trkpt>
      <trkpt lat="49.69167" lon="-1.34149">
        <ele>21.9</ele>
        <time>2020-06-15T09:16:36Z</time>
      </trkpt>
      <trkpt lat="49.69164" lon="-1.3414">
        <ele>21.8</ele>
        <time>2020-06-15T09:16:37Z</time>
      </trkpt>
      <trkpt lat="49.69162" lon="-1.34131">
        <ele>21.8</ele>
        <time>2020-06-15T09:16:38Z</time>
      </trkpt>
      <trkpt lat="49.6916" lon="-1.34124">
        <ele>21.7</ele>
        <time>2020-06-15T09:16:39Z</time>
      </trkpt>
      <trkpt lat="49.69158" lon="-1.34115">
        <ele>21.6</ele>
        <time>2020-06-15T09:16:40Z</time>
      </trkpt>
      <trkpt lat="49.69155" lon="-1.34106">
        <ele>21.6</ele>
        <time>2020-06-15T09:16:41Z</time>
      </trkpt>
      <trkpt lat="49.69153" lon="-1.34097">
        <ele>21.5</ele>
        <time>2020-06-15T09:16:42Z</time>
      </trkpt>
      <trkpt lat="49.6915" lon="-1.34088">
        <ele>21.4</ele>
        <time>2020-06-15T09:16:43Z</time>
      </trkpt>
      <trkpt lat="49.69147" lon="-1.34079">
        <ele>21.4</ele>
        <time>2020-06-15T09:16:44Z</time>
      </trkpt>
      <trkpt lat="49.69145" lon="-1.34069">
        <ele>21.3</ele>
        <time>2020-06-15T09:16:45Z</time>
      </trkpt>
      <trkpt lat="49.69142" lon="-1.34061">
        <ele>21.2</ele>
        <time>2020-06-15T09:16:46Z</time>
      </trkpt>
      <trkpt lat="49.69139" lon="-1.34052">
        <ele>21.2</ele>
        <time>2020-06-15T09:16:47Z</time>
      </trkpt>
      <trkpt lat="49.69138" lon="-1.34043">
        <ele>21.1</ele>
        <time>2020-06-15T09:16:48Z</time>
      </trkpt>
      <trkpt lat="49.69136" lon="-1.34034">
        <ele>21.1</ele>
        <time>2020-06-15T09:16:49Z</time>
      </trkpt>
      <trkpt lat="49.69135" lon="-1.34026">
        <ele>21</ele>
        <time>2020-06-15T09:16:50Z</time>
      </trkpt>
      <trkpt lat="49.69133" lon="-1.34018">
        <ele>21</ele>
        <time>2020-06-15T09:16:51Z</time>
      </trkpt>
      <trkpt lat="49.69133" lon="-1.34009">
        <ele>21</ele>
        <time>2020-06-15T09:16:52Z</time>
      </trkpt>
      <trkpt lat="49.69132" lon="-1.34">
        <ele>21</ele>
        <time>2020-06-15T09:16:53Z</time>
      </trkpt>
      <trkpt lat="49.69132" lon="-1.3399">
        <ele>20.9</ele>
        <time>2020-06-15T09:16:54Z</time>
      </trkpt>
      <trkpt lat="49.69132" lon="-1.33981">
        <ele>20.9</ele>
        <time>2020-06-15T09:16:55Z</time>
      </trkpt>
      <trkpt lat="49.69132" lon="-1.33972">
        <ele>20.9</ele>
        <time>2020-06-15T09:16:56Z</time>
      </trkpt>
      <trkpt lat="49.69132" lon="-1.33963">
        <ele>20.9</ele>
        <time>2020-06-15T09:16:57Z</time>
      </trkpt>
      <trkpt lat="49.69131" lon="-1.33955">
        <ele>20.9</ele>
        <time>2020-06-15T09:16:58Z</time>
      </trkpt>
      <trkpt lat="49.69132" lon="-1.33947">
        <ele>20.8</ele>
        <time>2020-06-15T09:16:59Z</time>
      </trkpt>
      <trkpt lat="49.69132" lon="-1.3394">
        <ele>20.6</ele>
        <time>2020-06-15T09:17:00Z</time>
      </trkpt>
      <trkpt lat="49.69132" lon="-1.33932">
        <ele>20.4</ele>
        <time>2020-06-15T09:17:01Z</time>
      </trkpt>
      <trkpt lat="49.69133" lon="-1.33923">
        <ele>20.2</ele>
        <time>2020-06-15T09:17:02Z</time>
      </trkpt>
      <trkpt lat="49.69133" lon="-1.33913">
        <ele>20</ele>
        <time>2020-06-15T09:17:03Z</time>
      </trkpt>
      <trkpt lat="49.69132" lon="-1.33905">
        <ele>19.8</ele>
        <time>2020-06-15T09:17:04Z</time>
      </trkpt>
      <trkpt lat="49.69134" lon="-1.33895">
        <ele>19.5</ele>
        <time>2020-06-15T09:17:05Z</time>
      </trkpt>
      <trkpt lat="49.69134" lon="-1.33886">
        <ele>19.2</ele>
        <time>2020-06-15T09:17:06Z</time>
      </trkpt>
      <trkpt lat="49.69133" lon="-1.33878">
        <ele>18.9</ele>
        <time>2020-06-15T09:17:07Z</time>
      </trkpt>
      <trkpt lat="49.69132" lon="-1.3387">
        <ele>18.6</ele>
        <time>2020-06-15T09:17:08Z</time>
      </trkpt>
      <trkpt lat="49.69132" lon="-1.3386">
        <ele>18.2</ele>
        <time>2020-06-15T09:17:09Z</time>
      </trkpt>
      <trkpt lat="49.69132" lon="-1.3385">
        <ele>17.8</ele>
        <time>2020-06-15T09:17:10Z</time>
      </trkpt>
      <trkpt lat="49.6913" lon="-1.33841">
        <ele>17.4</ele>
        <time>2020-06-15T09:17:11Z</time>
      </trkpt>
      <trkpt lat="49.69129" lon="-1.33831">
        <ele>17</ele>
        <time>2020-06-15T09:17:12Z</time>
      </trkpt>
      <trkpt lat="49.69128" lon="-1.33821">
        <ele>16.6</ele>
        <time>2020-06-15T09:17:13Z</time>
      </trkpt>
      <trkpt lat="49.69125" lon="-1.33811">
        <ele>16.2</ele>
        <time>2020-06-15T09:17:14Z</time>
      </trkpt>
      <trkpt lat="49.69122" lon="-1.338">
        <ele>15.9</ele>
        <time>2020-06-15T09:17:15Z</time>
      </trkpt>
      <trkpt lat="49.69117" lon="-1.3379">
        <ele>15.6</ele>
        <time>2020-06-15T09:17:16Z</time>
      </trkpt>
      <trkpt lat="49.69112" lon="-1.33781">
        <ele>15.3</ele>
        <time>2020-06-15T09:17:17Z</time>
      </trkpt>
      <trkpt lat="49.69107" lon="-1.33772">
        <ele>15.1</ele>
        <time>2020-06-15T09:17:18Z</time>
      </trkpt>
      <trkpt lat="49.69102" lon="-1.33762">
        <ele>15</ele>
        <time>2020-06-15T09:17:19Z</time>
      </trkpt>
      <trkpt lat="49.69097" lon="-1.33753">
        <ele>15.1</ele>
        <time>2020-06-15T09:17:20Z</time>
      </trkpt>
      <trkpt lat="49.69092" lon="-1.33745">
        <ele>15.1</ele>
        <time>2020-06-15T09:17:21Z</time>
      </trkpt>
      <trkpt lat="49.69089" lon="-1.33737">
        <ele>15.2</ele>
        <time>2020-06-15T09:17:22Z</time>
      </trkpt>
      <trkpt lat="49.69085" lon="-1.33729">
        <ele>15.3</ele>
        <time>2020-06-15T09:17:23Z</time>
      </trkpt>
      <trkpt lat="49.69081" lon="-1.33722">
        <ele>15.4</ele>
        <time>2020-06-15T09:17:24Z</time>
      </trkpt>
      <trkpt lat="49.69077" lon="-1.33716">
        <ele>15.6</ele>
        <time>2020-06-15T09:17:25Z</time>
      </trkpt>
      <trkpt lat="49.69074" lon="-1.3371">
        <ele>15.7</ele>
        <time>2020-06-15T09:17:26Z</time>
      </trkpt>
      <trkpt lat="49.69071" lon="-1.33704">
        <ele>15.8</ele>
        <time>2020-06-15T09:17:27Z</time>
      </trkpt>
      <trkpt lat="49.69068" lon="-1.33697">
        <ele>15.9</ele>
        <time>2020-06-15T09:17:28Z</time>
      </trkpt>
      <trkpt lat="49.69066" lon="-1.33691">
        <ele>16</ele>
        <time>2020-06-15T09:17:29Z</time>
      </trkpt>
      <trkpt lat="49.69064" lon="-1.33686">
        <ele>16.1</ele>
        <time>2020-06-15T09:17:30Z</time>
      </trkpt>
      <trkpt lat="49.69062" lon="-1.33681">
        <ele>16.2</ele>
        <time>2020-06-15T09:17:31Z</time>
      </trkpt>
      <trkpt lat="49.6906" lon="-1.33677">
        <ele>16.2</ele>
        <time>2020-06-15T09:17:32Z</time>
      </trkpt>
      <trkpt lat="49.69059" lon="-1.33675">
        <ele>16.2</ele>
        <time>2020-06-15T09:17:33Z</time>
      </trkpt>
      <trkpt lat="49.69058" lon="-1.33673">
        <ele>16.3</ele>
        <time>2020-06-15T09:17:34Z</time>
      </trkpt>
      <trkpt lat="49.69057" lon="-1.33671">
        <ele>16.3</ele>
        <time>2020-06-15T09:17:35Z</time>
      </trkpt>
      <trkpt lat="49.69056" lon="-1.3367">
        <ele>16.3</ele>
        <time>2020-06-15T09:17:36Z</time>
      </trkpt>
      <trkpt lat="49.69055" lon="-1.33668">
        <ele>16.3</ele>
        <time>2020-06-15T09:17:37Z</time>
      </trkpt>
      <trkpt lat="49.69055" lon="-1.33668">
        <ele>16.3</ele>
        <time>2020-06-15T09:17:38Z</time>
      </trkpt>
      <trkpt lat="49.69056" lon="-1.33669">
        <ele>16.3</ele>
        <time>2020-06-15T09:17:39Z</time>
      </trkpt>
      <trkpt lat="49.69056" lon="-1.3367">
        <ele>16.3</ele>
        <time>2020-06-15T09:17:40Z</time>
      </trkpt>
      <trkpt lat="49.69056" lon="-1.33669">
        <ele>16.3</ele>
        <time>2020-06-15T09:17:41Z</time>
      </trkpt>
      <trkpt lat="49.69057" lon="-1.3367">
        <ele>16.3</ele>
        <time>2020-06-15T09:17:42Z</time>
      </trkpt>
      <trkpt lat="49.69056" lon="-1.33668">
        <ele>16.3</ele>
        <time>2020-06-15T09:17:43Z</time>
      </trkpt>
      <trkpt lat="49.69055" lon="-1.33668">
        <ele>16.3</ele>
        <time>2020-06-15T09:17:44Z</time>
      </trkpt>
      <trkpt lat="49.69055" lon="-1.33668">
        <ele>16.3</ele>
        <time>2020-06-15T09:17:45Z</time>
      </trkpt>
      <trkpt lat="49.69056" lon="-1.33668">
        <ele>16.3</ele>
        <time>2020-06-15T09:17:46Z</time>
      </trkpt>
      <trkpt lat="49.69056" lon="-1.33668">
        <ele>16.3</ele>
        <time>2020-06-15T09:17:47Z</time>
      </trkpt>
      <trkpt lat="49.69056" lon="-1.33669">
        <ele>16.3</ele>
        <time>2020-06-15T09:17:48Z</time>
      </trkpt>
      <trkpt lat="49.69057" lon="-1.33662">
        <ele>16.3</ele>
        <time>2020-06-15T09:21:51Z</time>
      </trkpt>
      <trkpt lat="49.69057" lon="-1.3366">
        <ele>16.3</ele>
        <time>2020-06-15T09:21:52Z</time>
      </trkpt>
      <trkpt lat="49.69056" lon="-1.33658">
        <ele>16.3</ele>
        <time>2020-06-15T09:21:53Z</time>
      </trkpt>
      <trkpt lat="49.69056" lon="-1.33656">
        <ele>16.3</ele>
        <time>2020-06-15T09:21:54Z</time>
      </trkpt>
      <trkpt lat="49.69056" lon="-1.33654">
        <ele>16.3</ele>
        <time>2020-06-15T09:21:55Z</time>
      </trkpt>
      <trkpt lat="49.69055" lon="-1.33651">
        <ele>16.3</ele>
        <time>2020-06-15T09:21:56Z</time>
      </trkpt>
      <trkpt lat="49.69054" lon="-1.33651">
        <ele>16.3</ele>
        <time>2020-06-15T09:21:57Z</time>
      </trkpt>
      <trkpt lat="49.69054" lon="-1.3365">
        <ele>16.3</ele>
        <time>2020-06-15T09:21:58Z</time>
      </trkpt>
      <trkpt lat="49.69053" lon="-1.33648">
        <ele>16.3</ele>
        <time>2020-06-15T09:21:59Z</time>
      </trkpt>
      <trkpt lat="49.69053" lon="-1.33645">
        <ele>16.3</ele>
        <time>2020-06-15T09:22:00Z</time>
      </trkpt>
      <trkpt lat="49.69052" lon="-1.33644">
        <ele>16.3</ele>
        <time>2020-06-15T09:22:01Z</time>
      </trkpt>
      <trkpt lat="49.69052" lon="-1.33642">
        <ele>16.3</ele>
        <time>2020-06-15T09:22:02Z</time>
      </trkpt>
      <trkpt lat="49.69051" lon="-1.3364">
        <ele>16.3</ele>
        <time>2020-06-15T09:22:03Z</time>
      </trkpt>
      <trkpt lat="49.6905" lon="-1.33638">
        <ele>16.3</ele>
        <time>2020-06-15T09:22:04Z</time>
      </trkpt>
      <trkpt lat="49.69049" lon="-1.33636">
        <ele>16.3</ele>
        <time>2020-06-15T09:22:05Z</time>
      </trkpt>
      <trkpt lat="49.69049" lon="-1.33634">
        <ele>16.3</ele>
        <time>2020-06-15T09:22:06Z</time>
      </trkpt>
      <trkpt lat="49.69048" lon="-1.33632">
        <ele>16.2</ele>
        <time>2020-06-15T09:22:07Z</time>
      </trkpt>
      <trkpt lat="49.69049" lon="-1.33629">
        <ele>16.2</ele>
        <time>2020-06-15T09:22:08Z</time>
      </trkpt>
      <trkpt lat="49.69048" lon="-1.33628">
        <ele>16.2</ele>
        <time>2020-06-15T09:22:09Z</time>
      </trkpt>
      <trkpt lat="49.69048" lon="-1.33627">
        <ele>16.2</ele>
        <time>2020-06-15T09:22:10Z</time>
      </trkpt>
      <trkpt lat="49.69047" lon="-1.33624">
        <ele>16.2</ele>
        <time>2020-06-15T09:22:11Z</time>
      </trkpt>
      <trkpt lat="49.69047" lon="-1.33621">
        <ele>16.2</ele>
        <time>2020-06-15T09:22:12Z</time>
      </trkpt>
      <trkpt lat="49.69046" lon="-1.3362">
        <ele>16.2</ele>
        <time>2020-06-15T09:22:13Z</time>
      </trkpt>
      <trkpt lat="49.69046" lon="-1.33618">
        <ele>16.2</ele>
        <time>2020-06-15T09:22:14Z</time>
      </trkpt>
      <trkpt lat="49.69046" lon="-1.33616">
        <ele>16.1</ele>
        <time>2020-06-15T09:22:15Z</time>
      </trkpt>
      <trkpt lat="49.69046" lon="-1.33615">
        <ele>16.1</ele>
        <time>2020-06-15T09:22:16Z</time>
      </trkpt>
      <trkpt lat="49.69046" lon="-1.33613">
        <ele>16.1</ele>
        <time>2020-06-15T09:22:17Z</time>
      </trkpt>
      <trkpt lat="49.69045" lon="-1.33611">
        <ele>16.1</ele>
        <time>2020-06-15T09:22:18Z</time>
      </trkpt>
      <trkpt lat="49.69044" lon="-1.33609">
        <ele>16.1</ele>
        <time>2020-06-15T09:22:19Z</time>
      </trkpt>
      <trkpt lat="49.69044" lon="-1.33608">
        <ele>16.1</ele>
        <time>2020-06-15T09:22:20Z</time>
      </trkpt>
      <trkpt lat="49.69043" lon="-1.33605">
        <ele>16.1</ele>
        <time>2020-06-15T09:22:21Z</time>
      </trkpt>
      <trkpt lat="49.69043" lon="-1.33603">
        <ele>16</ele>
        <time>2020-06-15T09:22:22Z</time>
      </trkpt>
      <trkpt lat="49.69041" lon="-1.33598">
        <ele>16</ele>
        <time>2020-06-15T09:22:23Z</time>
      </trkpt>
      <trkpt lat="49.69041" lon="-1.33597">
        <ele>16</ele>
        <time>2020-06-15T09:22:24Z</time>
      </trkpt>
      <trkpt lat="49.6904" lon="-1.33592">
        <ele>15.9</ele>
        <time>2020-06-15T09:22:25Z</time>
      </trkpt>
      <trkpt lat="49.69039" lon="-1.33587">
        <ele>15.9</ele>
        <time>2020-06-15T09:22:26Z</time>
      </trkpt>
      <trkpt lat="49.69038" lon="-1.33581">
        <ele>15.8</ele>
        <time>2020-06-15T09:22:27Z</time>
      </trkpt>
      <trkpt lat="49.69037" lon="-1.33575">
        <ele>15.8</ele>
        <time>2020-06-15T09:22:28Z</time>
      </trkpt>
      <trkpt lat="49.69036" lon="-1.33568">
        <ele>15.7</ele>
        <time>2020-06-15T09:22:29Z</time>
      </trkpt>
      <trkpt lat="49.69035" lon="-1.33563">
        <ele>15.6</ele>
        <time>2020-06-15T09:22:30Z</time>
      </trkpt>
      <trkpt lat="49.69033" lon="-1.33557">
        <ele>15.5</ele>
        <time>2020-06-15T09:22:31Z</time>
      </trkpt>
      <trkpt lat="49.69032" lon="-1.33552">
        <ele>15.4</ele>
        <time>2020-06-15T09:22:32Z</time>
      </trkpt>
      <trkpt lat="49.6903" lon="-1.33546">
        <ele>15.4</ele>
        <time>2020-06-15T09:22:33Z</time>
      </trkpt>
      <trkpt lat="49.69028" lon="-1.33541">
        <ele>15.3</ele>
        <time>2020-06-15T09:22:34Z</time>
      </trkpt>
      <trkpt lat="49.69026" lon="-1.33536">
        <ele>15.3</ele>
        <time>2020-06-15T09:22:35Z</time>
      </trkpt>
      <trkpt lat="49.69025" lon="-1.33532">
        <ele>15.2</ele>
        <time>2020-06-15T09:22:36Z</time>
      </trkpt>
      <trkpt lat="49.69023" lon="-1.33527">
        <ele>15.2</ele>
        <time>2020-06-15T09:22:37Z</time>
      </trkpt>
      <trkpt lat="49.69022" lon="-1.33521">
        <ele>15.1</ele>
        <time>2020-06-15T09:22:38Z</time>
      </trkpt>
      <trkpt lat="49.6902" lon="-1.33516">
        <ele>15</ele>
        <time>2020-06-15T09:22:39Z</time>
      </trkpt>
      <trkpt lat="49.69018" lon="-1.33511">
        <ele>15</ele>
        <time>2020-06-15T09:22:40Z</time>
      </trkpt>
      <trkpt lat="49.69017" lon="-1.33506">
        <ele>14.9</ele>
        <time>2020-06-15T09:22:41Z</time>
      </trkpt>
      <trkpt lat="49.69015" lon="-1.33501">
        <ele>14.8</ele>
        <time>2020-06-15T09:22:42Z</time>
      </trkpt>
      <trkpt lat="49.69014" lon="-1.33497">
        <ele>14.8</ele>
        <time>2020-06-15T09:22:43Z</time>
      </trkpt>
      <trkpt lat="49.69012" lon="-1.33491">
        <ele>14.7</ele>
        <time>2020-06-15T09:22:44Z</time>
      </trkpt>
      <trkpt lat="49.69009" lon="-1.33488">
        <ele>14.6</ele>
        <time>2020-06-15T09:22:45Z</time>
      </trkpt>
      <trkpt lat="49.69007" lon="-1.33484">
        <ele>14.5</ele>
        <time>2020-06-15T09:22:46Z</time>
      </trkpt>
      <trkpt lat="49.69005" lon="-1.3348">
        <ele>14.4</ele>
        <time>2020-06-15T09:22:47Z</time>
      </trkpt>
      <trkpt lat="49.69002" lon="-1.33474">
        <ele>14.3</ele>
        <time>2020-06-15T09:22:48Z</time>
      </trkpt>
      <trkpt lat="49.68999" lon="-1.33468">
        <ele>14.2</ele>
        <time>2020-06-15T09:22:49Z</time>
      </trkpt>
      <trkpt lat="49.68997" lon="-1.33463">
        <ele>14.1</ele>
        <time>2020-06-15T09:22:50Z</time>
      </trkpt>
      <trkpt lat="49.68994" lon="-1.33457">
        <ele>14</ele>
        <time>2020-06-15T09:22:51Z</time>
      </trkpt>
      <trkpt lat="49.68992" lon="-1.33452">
        <ele>13.9</ele>
        <time>2020-06-15T09:22:52Z</time>
      </trkpt>
      <trkpt lat="49.6899" lon="-1.33445">
        <ele>13.8</ele>
        <time>2020-06-15T09:22:53Z</time>
      </trkpt>
      <trkpt lat="49.68987" lon="-1.33439">
        <ele>13.6</ele>
        <time>2020-06-15T09:22:54Z</time>
      </trkpt>
      <trkpt lat="49.68985" lon="-1.33432">
        <ele>13.5</ele>
        <time>2020-06-15T09:22:55Z</time>
      </trkpt>
      <trkpt lat="49.68981" lon="-1.33426">
        <ele>13.3</ele>
        <time>2020-06-15T09:22:56Z</time>
      </trkpt>
      <trkpt lat="49.68979" lon="-1.33419">
        <ele>13.2</ele>
        <time>2020-06-15T09:22:57Z</time>
      </trkpt>
      <trkpt lat="49.68976" lon="-1.33412">
        <ele>13.1</ele>
        <time>2020-06-15T09:22:58Z</time>
      </trkpt>
      <trkpt lat="49.68973" lon="-1.33406">
        <ele>12.9</ele>
        <time>2020-06-15T09:22:59Z</time>
      </trkpt>
      <trkpt lat="49.68971" lon="-1.33398">
        <ele>12.8</ele>
        <time>2020-06-15T09:23:00Z</time>
      </trkpt>
      <trkpt lat="49.68968" lon="-1.33389">
        <ele>12.6</ele>
        <time>2020-06-15T09:23:01Z</time>
      </trkpt>
      <trkpt lat="49.68966" lon="-1.33381">
        <ele>12.5</ele>
        <time>2020-06-15T09:23:02Z</time>
      </trkpt>
      <trkpt lat="49.68964" lon="-1.33372">
        <ele>12.4</ele>
        <time>2020-06-15T09:23:03Z</time>
      </trkpt>
      <trkpt lat="49.68962" lon="-1.33364">
        <ele>12.3</ele>
        <time>2020-06-15T09:23:04Z</time>
      </trkpt>
      <trkpt lat="49.6896" lon="-1.33356">
        <ele>12.2</ele>
        <time>2020-06-15T09:23:05Z</time>
      </trkpt>
      <trkpt lat="49.68957" lon="-1.33349">
        <ele>12.1</ele>
        <time>2020-06-15T09:23:06Z</time>
      </trkpt>
      <trkpt lat="49.68955" lon="-1.3334">
        <ele>12</ele>
        <time>2020-06-15T09:23:07Z</time>
      </trkpt>
      <trkpt lat="49.68952" lon="-1.33331">
        <ele>11.9</ele>
        <time>2020-06-15T09:23:08Z</time>
      </trkpt>
      <trkpt lat="49.68949" lon="-1.33324">
        <ele>11.9</ele>
        <time>2020-06-15T09:23:09Z</time>
      </trkpt>
      <trkpt lat="49.68947" lon="-1.33316">
        <ele>11.8</ele>
        <time>2020-06-15T09:23:10Z</time>
      </trkpt>
      <trkpt lat="49.68944" lon="-1.33305">
        <ele>11.7</ele>
        <time>2020-06-15T09:23:11Z</time>
      </trkpt>
      <trkpt lat="49.68941" lon="-1.33296">
        <ele>11.6</ele>
        <time>2020-06-15T09:23:12Z</time>
      </trkpt>
      <trkpt lat="49.68938" lon="-1.33286">
        <ele>11.5</ele>
        <time>2020-06-15T09:23:13Z</time>
      </trkpt>
      <trkpt lat="49.68935" lon="-1.33278">
        <ele>11.4</ele>
        <time>2020-06-15T09:23:14Z</time>
      </trkpt>
      <trkpt lat="49.68933" lon="-1.33269">
        <ele>11.3</ele>
        <time>2020-06-15T09:23:15Z</time>
      </trkpt>
      <trkpt lat="49.68929" lon="-1.33261">
        <ele>11.3</ele>
        <time>2020-06-15T09:23:16Z</time>
      </trkpt>
      <trkpt lat="49.68927" lon="-1.33252">
        <ele>11.2</ele>
        <time>2020-06-15T09:23:17Z</time>
      </trkpt>
      <trkpt lat="49.68925" lon="-1.33243">
        <ele>11.1</ele>
        <time>2020-06-15T09:23:18Z</time>
      </trkpt>
      <trkpt lat="49.68922" lon="-1.33234">
        <ele>11.1</ele>
        <time>2020-06-15T09:23:19Z</time>
      </trkpt>
      <trkpt lat="49.6892" lon="-1.33225">
        <ele>11</ele>
        <time>2020-06-15T09:23:20Z</time>
      </trkpt>
      <trkpt lat="49.68916" lon="-1.33217">
        <ele>10.9</ele>
        <time>2020-06-15T09:23:21Z</time>
      </trkpt>
      <trkpt lat="49.68914" lon="-1.33208">
        <ele>10.9</ele>
        <time>2020-06-15T09:23:22Z</time>
      </trkpt>
      <trkpt lat="49.68911" lon="-1.332">
        <ele>10.8</ele>
        <time>2020-06-15T09:23:23Z</time>
      </trkpt>
      <trkpt lat="49.68909" lon="-1.3319">
        <ele>10.7</ele>
        <time>2020-06-15T09:23:24Z</time>
      </trkpt>
      <trkpt lat="49.68908" lon="-1.3318">
        <ele>10.7</ele>
        <time>2020-06-15T09:23:25Z</time>
      </trkpt>
      <trkpt lat="49.68906" lon="-1.33172">
        <ele>10.6</ele>
        <time>2020-06-15T09:23:26Z</time>
      </trkpt>
      <trkpt lat="49.68904" lon="-1.33164">
        <ele>10.6</ele>
        <time>2020-06-15T09:23:27Z</time>
      </trkpt>
      <trkpt lat="49.68902" lon="-1.33154">
        <ele>10.5</ele>
        <time>2020-06-15T09:23:28Z</time>
      </trkpt>
      <trkpt lat="49.68901" lon="-1.33144">
        <ele>10.4</ele>
        <time>2020-06-15T09:23:29Z</time>
      </trkpt>
      <trkpt lat="49.68899" lon="-1.33136">
        <ele>10.4</ele>
        <time>2020-06-15T09:23:30Z</time>
      </trkpt>
      <trkpt lat="49.68898" lon="-1.33126">
        <ele>10.3</ele>
        <time>2020-06-15T09:23:31Z</time>
      </trkpt>
      <trkpt lat="49.68897" lon="-1.33116">
        <ele>10.3</ele>
        <time>2020-06-15T09:23:32Z</time>
      </trkpt>
      <trkpt lat="49.68895" lon="-1.33106">
        <ele>10.2</ele>
        <time>2020-06-15T09:23:33Z</time>
      </trkpt>
      <trkpt lat="49.68893" lon="-1.33096">
        <ele>10.1</ele>
        <time>2020-06-15T09:23:34Z</time>
      </trkpt>
      <trkpt lat="49.68892" lon="-1.33087">
        <ele>10.1</ele>
        <time>2020-06-15T09:23:35Z</time>
      </trkpt>
      <trkpt lat="49.68891" lon="-1.3308">
        <ele>10.1</ele>
        <time>2020-06-15T09:23:36Z</time>
      </trkpt>
      <trkpt lat="49.68889" lon="-1.33073">
        <ele>10</ele>
        <time>2020-06-15T09:23:37Z</time>
      </trkpt>
      <trkpt lat="49.68888" lon="-1.33063">
        <ele>10</ele>
        <time>2020-06-15T09:23:38Z</time>
      </trkpt>
      <trkpt lat="49.68886" lon="-1.33052">
        <ele>9.9</ele>
        <time>2020-06-15T09:23:39Z</time>
      </trkpt>
      <trkpt lat="49.68884" lon="-1.33043">
        <ele>9.9</ele>
        <time>2020-06-15T09:23:40Z</time>
      </trkpt>
      <trkpt lat="49.68883" lon="-1.33034">
        <ele>9.8</ele>
        <time>2020-06-15T09:23:41Z</time>
      </trkpt>
      <trkpt lat="49.68882" lon="-1.33024">
        <ele>9.8</ele>
        <time>2020-06-15T09:23:42Z</time>
      </trkpt>
      <trkpt lat="49.6888" lon="-1.33012">
        <ele>9.7</ele>
        <time>2020-06-15T09:23:43Z</time>
      </trkpt>
      <trkpt lat="49.68878" lon="-1.33003">
        <ele>9.6</ele>
        <time>2020-06-15T09:23:44Z</time>
      </trkpt>
      <trkpt lat="49.68878" lon="-1.32991">
        <ele>9.5</ele>
        <time>2020-06-15T09:23:45Z</time>
      </trkpt>
      <trkpt lat="49.68876" lon="-1.32981">
        <ele>9.4</ele>
        <time>2020-06-15T09:23:46Z</time>
      </trkpt>
      <trkpt lat="49.68874" lon="-1.32971">
        <ele>9.4</ele>
        <time>2020-06-15T09:23:47Z</time>
      </trkpt>
      <trkpt lat="49.68873" lon="-1.32963">
        <ele>9.3</ele>
        <time>2020-06-15T09:23:48Z</time>
      </trkpt>
      <trkpt lat="49.68872" lon="-1.32952">
        <ele>9.2</ele>
        <time>2020-06-15T09:23:49Z</time>
      </trkpt>
      <trkpt lat="49.68871" lon="-1.32942">
        <ele>9.1</ele>
        <time>2020-06-15T09:23:50Z</time>
      </trkpt>
      <trkpt lat="49.68869" lon="-1.32933">
        <ele>9</ele>
        <time>2020-06-15T09:23:51Z</time>
      </trkpt>
      <trkpt lat="49.68867" lon="-1.32924">
        <ele>8.9</ele>
        <time>2020-06-15T09:23:52Z</time>
      </trkpt>
      <trkpt lat="49.68866" lon="-1.32914">
        <ele>8.9</ele>
        <time>2020-06-15T09:23:53Z</time>
      </trkpt>
      <trkpt lat="49.68864" lon="-1.32905">
        <ele>8.8</ele>
        <time>2020-06-15T09:23:54Z</time>
      </trkpt>
      <trkpt lat="49.68863" lon="-1.32895">
        <ele>8.7</ele>
        <time>2020-06-15T09:23:55Z</time>
      </trkpt>
      <trkpt lat="49.68861" lon="-1.32884">
        <ele>8.6</ele>
        <time>2020-06-15T09:23:56Z</time>
      </trkpt>
      <trkpt lat="49.6886" lon="-1.32875">
        <ele>8.6</ele>
        <time>2020-06-15T09:23:57Z</time>
      </trkpt>
      <trkpt lat="49.68858" lon="-1.32866">
        <ele>8.5</ele>
        <time>2020-06-15T09:23:58Z</time>
      </trkpt>
      <trkpt lat="49.68857" lon="-1.3286">
        <ele>8.4</ele>
        <time>2020-06-15T09:23:59Z</time>
      </trkpt>
      <trkpt lat="49.68856" lon="-1.3285">
        <ele>8.4</ele>
        <time>2020-06-15T09:24:00Z</time>
      </trkpt>
      <trkpt lat="49.68854" lon="-1.32841">
        <ele>8.3</ele>
        <time>2020-06-15T09:24:01Z</time>
      </trkpt>
      <trkpt lat="49.68852" lon="-1.32833">
        <ele>8.2</ele>
        <time>2020-06-15T09:24:02Z</time>
      </trkpt>
      <trkpt lat="49.68851" lon="-1.32823">
        <ele>8.1</ele>
        <time>2020-06-15T09:24:03Z</time>
      </trkpt>
      <trkpt lat="49.68849" lon="-1.32813">
        <ele>8.1</ele>
        <time>2020-06-15T09:24:04Z</time>
      </trkpt>
      <trkpt lat="49.68848" lon="-1.32806">
        <ele>8</ele>
        <time>2020-06-15T09:24:05Z</time>
      </trkpt>
      <trkpt lat="49.68846" lon="-1.32795">
        <ele>8</ele>
        <time>2020-06-15T09:24:06Z</time>
      </trkpt>
      <trkpt lat="49.68844" lon="-1.32786">
        <ele>7.9</ele>
        <time>2020-06-15T09:24:07Z</time>
      </trkpt>
      <trkpt lat="49.68843" lon="-1.32776">
        <ele>7.9</ele>
        <time>2020-06-15T09:24:08Z</time>
      </trkpt>
      <trkpt lat="49.68842" lon="-1.32765">
        <ele>7.9</ele>
        <time>2020-06-15T09:24:09Z</time>
      </trkpt>
      <trkpt lat="49.6884" lon="-1.32756">
        <ele>7.9</ele>
        <time>2020-06-15T09:24:10Z</time>
      </trkpt>
      <trkpt lat="49.68839" lon="-1.32747">
        <ele>7.9</ele>
        <time>2020-06-15T09:24:11Z</time>
      </trkpt>
      <trkpt lat="49.68838" lon="-1.3274">
        <ele>7.9</ele>
        <time>2020-06-15T09:24:12Z</time>
      </trkpt>
      <trkpt lat="49.68836" lon="-1.3273">
        <ele>7.9</ele>
        <time>2020-06-15T09:24:13Z</time>
      </trkpt>
      <trkpt lat="49.68835" lon="-1.32721">
        <ele>8</ele>
        <time>2020-06-15T09:24:14Z</time>
      </trkpt>
      <trkpt lat="49.68834" lon="-1.3271">
        <ele>8.1</ele>
        <time>2020-06-15T09:24:15Z</time>
      </trkpt>
      <trkpt lat="49.68832" lon="-1.32702">
        <ele>8.1</ele>
        <time>2020-06-15T09:24:16Z</time>
      </trkpt>
      <trkpt lat="49.68831" lon="-1.32694">
        <ele>8.2</ele>
        <time>2020-06-15T09:24:17Z</time>
      </trkpt>
      <trkpt lat="49.6883" lon="-1.32685">
        <ele>8.4</ele>
        <time>2020-06-15T09:24:18Z</time>
      </trkpt>
      <trkpt lat="49.68828" lon="-1.32678">
        <ele>8.5</ele>
        <time>2020-06-15T09:24:19Z</time>
      </trkpt>
      <trkpt lat="49.68826" lon="-1.32671">
        <ele>8.6</ele>
        <time>2020-06-15T09:24:20Z</time>
      </trkpt>
      <trkpt lat="49.68824" lon="-1.32664">
        <ele>8.7</ele>
        <time>2020-06-15T09:24:21Z</time>
      </trkpt>
      <trkpt lat="49.68822" lon="-1.32656">
        <ele>8.9</ele>
        <time>2020-06-15T09:24:22Z</time>
      </trkpt>
      <trkpt lat="49.6882" lon="-1.3265">
        <ele>9</ele>
        <time>2020-06-15T09:24:23Z</time>
      </trkpt>
      <trkpt lat="49.68818" lon="-1.32642">
        <ele>9.1</ele>
        <time>2020-06-15T09:24:24Z</time>
      </trkpt>
      <trkpt lat="49.68816" lon="-1.32634">
        <ele>9.3</ele>
        <time>2020-06-15T09:24:25Z</time>
      </trkpt>
      <trkpt lat="49.68814" lon="-1.32626">
        <ele>9.4</ele>
        <time>2020-06-15T09:24:26Z</time>
      </trkpt>
      <trkpt lat="49.68812" lon="-1.32618">
        <ele>9.6</ele>
        <time>2020-06-15T09:24:27Z</time>
      </trkpt>
      <trkpt lat="49.68809" lon="-1.3261">
        <ele>9.7</ele>
        <time>2020-06-15T09:24:28Z</time>
      </trkpt>
      <trkpt lat="49.68807" lon="-1.32603">
        <ele>9.9</ele>
        <time>2020-06-15T09:24:29Z</time>
      </trkpt>
      <trkpt lat="49.68805" lon="-1.32596">
        <ele>10.1</ele>
        <time>2020-06-15T09:24:30Z</time>
      </trkpt>
      <trkpt lat="49.68804" lon="-1.32592">
        <ele>10.2</ele>
        <time>2020-06-15T09:24:31Z</time>
      </trkpt>
      <trkpt lat="49.68802" lon="-1.32586">
        <ele>10.4</ele>
        <time>2020-06-15T09:24:32Z</time>
      </trkpt>
      <trkpt lat="49.688" lon="-1.32581">
        <ele>10.6</ele>
        <time>2020-06-15T09:24:33Z</time>
      </trkpt>
      <trkpt lat="49.68798" lon="-1.32576">
        <ele>10.8</ele>
        <time>2020-06-15T09:24:34Z</time>
      </trkpt>
      <trkpt lat="49.68795" lon="-1.32571">
        <ele>10.9</ele>
        <time>2020-06-15T09:24:35Z</time>
      </trkpt>
      <trkpt lat="49.68792" lon="-1.32566">
        <ele>11</ele>
        <time>2020-06-15T09:24:36Z</time>
      </trkpt>
      <trkpt lat="49.6879" lon="-1.32561">
        <ele>11.1</ele>
        <time>2020-06-15T09:24:37Z</time>
      </trkpt>
      <trkpt lat="49.68787" lon="-1.32558">
        <ele>11.2</ele>
        <time>2020-06-15T09:24:38Z</time>
      </trkpt>
      <trkpt lat="49.68785" lon="-1.32555">
        <ele>11.3</ele>
        <time>2020-06-15T09:24:39Z</time>
      </trkpt>
      <trkpt lat="49.68783" lon="-1.32551">
        <ele>11.3</ele>
        <time>2020-06-15T09:24:40Z</time>
      </trkpt>
      <trkpt lat="49.68781" lon="-1.32547">
        <ele>11.4</ele>
        <time>2020-06-15T09:24:41Z</time>
      </trkpt>
      <trkpt lat="49.68779" lon="-1.32543">
        <ele>11.5</ele>
        <time>2020-06-15T09:24:42Z</time>
      </trkpt>
      <trkpt lat="49.68776" lon="-1.32537">
        <ele>11.5</ele>
        <time>2020-06-15T09:24:43Z</time>
      </trkpt>
      <trkpt lat="49.68774" lon="-1.32533">
        <ele>11.6</ele>
        <time>2020-06-15T09:24:44Z</time>
      </trkpt>
      <trkpt lat="49.68771" lon="-1.32528">
        <ele>11.6</ele>
        <time>2020-06-15T09:24:45Z</time>
      </trkpt>
      <trkpt lat="49.68768" lon="-1.32523">
        <ele>11.7</ele>
        <time>2020-06-15T09:24:46Z</time>
      </trkpt>
      <trkpt lat="49.68765" lon="-1.32517">
        <ele>11.8</ele>
        <time>2020-06-15T09:24:47Z</time>
      </trkpt>
      <trkpt lat="49.68762" lon="-1.32512">
        <ele>11.8</ele>
        <time>2020-06-15T09:24:48Z</time>
      </trkpt>
      <trkpt lat="49.68759" lon="-1.32507">
        <ele>11.9</ele>
        <time>2020-06-15T09:24:49Z</time>
      </trkpt>
      <trkpt lat="49.68756" lon="-1.32501">
        <ele>11.9</ele>
        <time>2020-06-15T09:24:50Z</time>
      </trkpt>
      <trkpt lat="49.68753" lon="-1.32495">
        <ele>11.9</ele>
        <time>2020-06-15T09:24:51Z</time>
      </trkpt>
      <trkpt lat="49.6875" lon="-1.32489">
        <ele>12</ele>
        <time>2020-06-15T09:24:52Z</time>
      </trkpt>
      <trkpt lat="49.68747" lon="-1.32486">
        <ele>12</ele>
        <time>2020-06-15T09:24:53Z</time>
      </trkpt>
      <trkpt lat="49.68743" lon="-1.32481">
        <ele>12.1</ele>
        <time>2020-06-15T09:24:54Z</time>
      </trkpt>
      <trkpt lat="49.6874" lon="-1.32475">
        <ele>12.2</ele>
        <time>2020-06-15T09:24:55Z</time>
      </trkpt>
      <trkpt lat="49.68736" lon="-1.32469">
        <ele>12.2</ele>
        <time>2020-06-15T09:24:56Z</time>
      </trkpt>
      <trkpt lat="49.68733" lon="-1.32463">
        <ele>12.3</ele>
        <time>2020-06-15T09:24:57Z</time>
      </trkpt>
      <trkpt lat="49.6873" lon="-1.32457">
        <ele>12.4</ele>
        <time>2020-06-15T09:24:58Z</time>
      </trkpt>
      <trkpt lat="49.68726" lon="-1.32452">
        <ele>12.4</ele>
        <time>2020-06-15T09:24:59Z</time>
      </trkpt>
      <trkpt lat="49.68723" lon="-1.32447">
        <ele>12.5</ele>
        <time>2020-06-15T09:25:00Z</time>
      </trkpt>
      <trkpt lat="49.6872" lon="-1.32441">
        <ele>12.5</ele>
        <time>2020-06-15T09:25:01Z</time>
      </trkpt>
      <trkpt lat="49.68717" lon="-1.32436">
        <ele>12.6</ele>
        <time>2020-06-15T09:25:02Z</time>
      </trkpt>
      <trkpt lat="49.68713" lon="-1.32429">
        <ele>12.6</ele>
        <time>2020-06-15T09:25:03Z</time>
      </trkpt>
      <trkpt lat="49.6871" lon="-1.32422">
        <ele>12.7</ele>
        <time>2020-06-15T09:25:04Z</time>
      </trkpt>
      <trkpt lat="49.68707" lon="-1.32417">
        <ele>12.8</ele>
        <time>2020-06-15T09:25:05Z</time>
      </trkpt>
      <trkpt lat="49.68703" lon="-1.32411">
        <ele>12.8</ele>
        <time>2020-06-15T09:25:06Z</time>
      </trkpt>
      <trkpt lat="49.687" lon="-1.32404">
        <ele>12.9</ele>
        <time>2020-06-15T09:25:07Z</time>
      </trkpt>
      <trkpt lat="49.68696" lon="-1.32397">
        <ele>13</ele>
        <time>2020-06-15T09:25:08Z</time>
      </trkpt>
      <trkpt lat="49.68693" lon="-1.32391">
        <ele>13</ele>
        <time>2020-06-15T09:25:09Z</time>
      </trkpt>
      <trkpt lat="49.6869" lon="-1.32384">
        <ele>13</ele>
        <time>2020-06-15T09:25:10Z</time>
      </trkpt>
      <trkpt lat="49.68687" lon="-1.32377">
        <ele>13</ele>
        <time>2020-06-15T09:25:11Z</time>
      </trkpt>
      <trkpt lat="49.68684" lon="-1.32371">
        <ele>13.1</ele>
        <time>2020-06-15T09:25:12Z</time>
      </trkpt>
      <trkpt lat="49.6868" lon="-1.32365">
        <ele>13.1</ele>
        <time>2020-06-15T09:25:13Z</time>
      </trkpt>
      <trkpt lat="49.68677" lon="-1.32358">
        <ele>13.1</ele>
        <time>2020-06-15T09:25:14Z</time>
      </trkpt>
      <trkpt lat="49.68674" lon="-1.32351">
        <ele>13.1</ele>
        <time>2020-06-15T09:25:15Z</time>
      </trkpt>
      <trkpt lat="49.68672" lon="-1.32345">
        <ele>13.2</ele>
        <time>2020-06-15T09:25:16Z</time>
      </trkpt>
      <trkpt lat="49.6867" lon="-1.32338">
        <ele>13.2</ele>
        <time>2020-06-15T09:25:17Z</time>
      </trkpt>
      <trkpt lat="49.68668" lon="-1.3233">
        <ele>13.3</ele>
        <time>2020-06-15T09:25:18Z</time>
      </trkpt>
      <trkpt lat="49.68665" lon="-1.32323">
        <ele>13.3</ele>
        <time>2020-06-15T09:25:19Z</time>
      </trkpt>
      <trkpt lat="49.68663" lon="-1.32314">
        <ele>13.4</ele>
        <time>2020-06-15T09:25:20Z</time>
      </trkpt>
      <trkpt lat="49.6866" lon="-1.32307">
        <ele>13.4</ele>
        <time>2020-06-15T09:25:21Z</time>
      </trkpt>
      <trkpt lat="49.68658" lon="-1.32299">
        <ele>13.4</ele>
        <time>2020-06-15T09:25:22Z</time>
      </trkpt>
      <trkpt lat="49.68656" lon="-1.32291">
        <ele>13.3</ele>
        <time>2020-06-15T09:25:23Z</time>
      </trkpt>
      <trkpt lat="49.68654" lon="-1.32283">
        <ele>13.3</ele>
        <time>2020-06-15T09:25:24Z</time>
      </trkpt>
      <trkpt lat="49.68652" lon="-1.32275">
        <ele>13.3</ele>
        <time>2020-06-15T09:25:25Z</time>
      </trkpt>
      <trkpt lat="49.68651" lon="-1.32266">
        <ele>13.2</ele>
        <time>2020-06-15T09:25:26Z</time>
      </trkpt>
      <trkpt lat="49.6865" lon="-1.32258">
        <ele>13.2</ele>
        <time>2020-06-15T09:25:27Z</time>
      </trkpt>
      <trkpt lat="49.68649" lon="-1.32249">
        <ele>13.1</ele>
        <time>2020-06-15T09:25:28Z</time>
      </trkpt>
      <trkpt lat="49.68647" lon="-1.3224">
        <ele>13.1</ele>
        <time>2020-06-15T09:25:29Z</time>
      </trkpt>
      <trkpt lat="49.68646" lon="-1.32232">
        <ele>13.1</ele>
        <time>2020-06-15T09:25:30Z</time>
      </trkpt>
      <trkpt lat="49.68644" lon="-1.32223">
        <ele>13</ele>
        <time>2020-06-15T09:25:31Z</time>
      </trkpt>
      <trkpt lat="49.68642" lon="-1.32215">
        <ele>12.9</ele>
        <time>2020-06-15T09:25:32Z</time>
      </trkpt>
      <trkpt lat="49.68641" lon="-1.32206">
        <ele>12.8</ele>
        <time>2020-06-15T09:25:33Z</time>
      </trkpt>
      <trkpt lat="49.68638" lon="-1.32198">
        <ele>12.7</ele>
        <time>2020-06-15T09:25:34Z</time>
      </trkpt>
      <trkpt lat="49.68636" lon="-1.3219">
        <ele>12.5</ele>
        <time>2020-06-15T09:25:35Z</time>
      </trkpt>
      <trkpt lat="49.68634" lon="-1.32181">
        <ele>12.4</ele>
        <time>2020-06-15T09:25:36Z</time>
      </trkpt>
      <trkpt lat="49.68632" lon="-1.32173">
        <ele>12.2</ele>
        <time>2020-06-15T09:25:37Z</time>
      </trkpt>
      <trkpt lat="49.6863" lon="-1.32165">
        <ele>12</ele>
        <time>2020-06-15T09:25:38Z</time>
      </trkpt>
      <trkpt lat="49.68628" lon="-1.32157">
        <ele>11.9</ele>
        <time>2020-06-15T09:25:39Z</time>
      </trkpt>
      <trkpt lat="49.68626" lon="-1.32147">
        <ele>11.7</ele>
        <time>2020-06-15T09:25:40Z</time>
      </trkpt>
      <trkpt lat="49.68624" lon="-1.3214">
        <ele>11.6</ele>
        <time>2020-06-15T09:25:41Z</time>
      </trkpt>
      <trkpt lat="49.68622" lon="-1.3213">
        <ele>11.5</ele>
        <time>2020-06-15T09:25:42Z</time>
      </trkpt>
      <trkpt lat="49.6862" lon="-1.32124">
        <ele>11.3</ele>
        <time>2020-06-15T09:25:43Z</time>
      </trkpt>
      <trkpt lat="49.68619" lon="-1.32115">
        <ele>11.2</ele>
        <time>2020-06-15T09:25:44Z</time>
      </trkpt>
      <trkpt lat="49.68617" lon="-1.32108">
        <ele>11</ele>
        <time>2020-06-15T09:25:45Z</time>
      </trkpt>
      <trkpt lat="49.68615" lon="-1.32099">
        <ele>10.9</ele>
        <time>2020-06-15T09:25:46Z</time>
      </trkpt>
      <trkpt lat="49.68613" lon="-1.32093">
        <ele>10.7</ele>
        <time>2020-06-15T09:25:47Z</time>
      </trkpt>
      <trkpt lat="49.68611" lon="-1.32084">
        <ele>10.6</ele>
        <time>2020-06-15T09:25:48Z</time>
      </trkpt>
      <trkpt lat="49.68608" lon="-1.32077">
        <ele>10.4</ele>
        <time>2020-06-15T09:25:49Z</time>
      </trkpt>
      <trkpt lat="49.68606" lon="-1.32068">
        <ele>10.3</ele>
        <time>2020-06-15T09:25:50Z</time>
      </trkpt>
      <trkpt lat="49.68604" lon="-1.32059">
        <ele>10.2</ele>
        <time>2020-06-15T09:25:51Z</time>
      </trkpt>
      <trkpt lat="49.68602" lon="-1.32048">
        <ele>10</ele>
        <time>2020-06-15T09:25:52Z</time>
      </trkpt>
      <trkpt lat="49.68599" lon="-1.32039">
        <ele>9.8</ele>
        <time>2020-06-15T09:25:53Z</time>
      </trkpt>
      <trkpt lat="49.68597" lon="-1.32029">
        <ele>9.6</ele>
        <time>2020-06-15T09:25:54Z</time>
      </trkpt>
      <trkpt lat="49.68595" lon="-1.3202">
        <ele>9.5</ele>
        <time>2020-06-15T09:25:55Z</time>
      </trkpt>
      <trkpt lat="49.68593" lon="-1.3201">
        <ele>9.3</ele>
        <time>2020-06-15T09:25:56Z</time>
      </trkpt>
      <trkpt lat="49.68591" lon="-1.31999">
        <ele>9.1</ele>
        <time>2020-06-15T09:25:57Z</time>
      </trkpt>
      <trkpt lat="49.68589" lon="-1.31991">
        <ele>9</ele>
        <time>2020-06-15T09:25:58Z</time>
      </trkpt>
      <trkpt lat="49.68587" lon="-1.31982">
        <ele>8.9</ele>
        <time>2020-06-15T09:25:59Z</time>
      </trkpt>
      <trkpt lat="49.68586" lon="-1.31971">
        <ele>8.7</ele>
        <time>2020-06-15T09:26:00Z</time>
      </trkpt>
      <trkpt lat="49.68585" lon="-1.31961">
        <ele>8.6</ele>
        <time>2020-06-15T09:26:01Z</time>
      </trkpt>
      <trkpt lat="49.68583" lon="-1.31948">
        <ele>8.4</ele>
        <time>2020-06-15T09:26:02Z</time>
      </trkpt>
      <trkpt lat="49.68583" lon="-1.31937">
        <ele>8.3</ele>
        <time>2020-06-15T09:26:03Z</time>
      </trkpt>
      <trkpt lat="49.68582" lon="-1.31926">
        <ele>8</ele>
        <time>2020-06-15T09:26:04Z</time>
      </trkpt>
      <trkpt lat="49.68581" lon="-1.31918">
        <ele>7.9</ele>
        <time>2020-06-15T09:26:05Z</time>
      </trkpt>
      <trkpt lat="49.68581" lon="-1.31908">
        <ele>7.7</ele>
        <time>2020-06-15T09:26:06Z</time>
      </trkpt>
      <trkpt lat="49.68581" lon="-1.31899">
        <ele>7.5</ele>
        <time>2020-06-15T09:26:07Z</time>
      </trkpt>
      <trkpt lat="49.68581" lon="-1.31889">
        <ele>7.3</ele>
        <time>2020-06-15T09:26:08Z</time>
      </trkpt>
      <trkpt lat="49.68582" lon="-1.3188">
        <ele>7.1</ele>
        <time>2020-06-15T09:26:09Z</time>
      </trkpt>
      <trkpt lat="49.68583" lon="-1.31868">
        <ele>6.9</ele>
        <time>2020-06-15T09:26:10Z</time>
      </trkpt>
      <trkpt lat="49.68583" lon="-1.31858">
        <ele>6.6</ele>
        <time>2020-06-15T09:26:11Z</time>
      </trkpt>
      <trkpt lat="49.68584" lon="-1.31847">
        <ele>6.3</ele>
        <time>2020-06-15T09:26:12Z</time>
      </trkpt>
      <trkpt lat="49.68584" lon="-1.31837">
        <ele>6.1</ele>
        <time>2020-06-15T09:26:13Z</time>
      </trkpt>
      <trkpt lat="49.68584" lon="-1.31826">
        <ele>5.9</ele>
        <time>2020-06-15T09:26:14Z</time>
      </trkpt>
      <trkpt lat="49.68585" lon="-1.31816">
        <ele>5.7</ele>
        <time>2020-06-15T09:26:15Z</time>
      </trkpt>
      <trkpt lat="49.68586" lon="-1.31805">
        <ele>5.5</ele>
        <time>2020-06-15T09:26:16Z</time>
      </trkpt>
      <trkpt lat="49.68587" lon="-1.31794">
        <ele>5.3</ele>
        <time>2020-06-15T09:26:17Z</time>
      </trkpt>
      <trkpt lat="49.68588" lon="-1.31783">
        <ele>5.2</ele>
        <time>2020-06-15T09:26:18Z</time>
      </trkpt>
      <trkpt lat="49.68589" lon="-1.31774">
        <ele>5</ele>
        <time>2020-06-15T09:26:19Z</time>
      </trkpt>
      <trkpt lat="49.6859" lon="-1.31762">
        <ele>4.8</ele>
        <time>2020-06-15T09:26:20Z</time>
      </trkpt>
      <trkpt lat="49.6859" lon="-1.31751">
        <ele>4.6</ele>
        <time>2020-06-15T09:26:21Z</time>
      </trkpt>
      <trkpt lat="49.68591" lon="-1.31742">
        <ele>4.5</ele>
        <time>2020-06-15T09:26:22Z</time>
      </trkpt>
      <trkpt lat="49.68592" lon="-1.31731">
        <ele>4.4</ele>
        <time>2020-06-15T09:26:23Z</time>
      </trkpt>
      <trkpt lat="49.68593" lon="-1.31719">
        <ele>4.3</ele>
        <time>2020-06-15T09:26:24Z</time>
      </trkpt>
      <trkpt lat="49.68595" lon="-1.31707">
        <ele>4.3</ele>
        <time>2020-06-15T09:26:25Z</time>
      </trkpt>
      <trkpt lat="49.68595" lon="-1.31695">
        <ele>4.3</ele>
        <time>2020-06-15T09:26:26Z</time>
      </trkpt>
      <trkpt lat="49.68595" lon="-1.31685">
        <ele>4.3</ele>
        <time>2020-06-15T09:26:27Z</time>
      </trkpt>
      <trkpt lat="49.68594" lon="-1.31676">
        <ele>4.3</ele>
        <time>2020-06-15T09:26:28Z</time>
      </trkpt>
      <trkpt lat="49.68593" lon="-1.31665">
        <ele>4.3</ele>
        <time>2020-06-15T09:26:29Z</time>
      </trkpt>
      <trkpt lat="49.68591" lon="-1.31654">
        <ele>4.3</ele>
        <time>2020-06-15T09:26:30Z</time>
      </trkpt>
      <trkpt lat="49.6859" lon="-1.31645">
        <ele>4.3</ele>
        <time>2020-06-15T09:26:31Z</time>
      </trkpt>
      <trkpt lat="49.68588" lon="-1.31635">
        <ele>4.3</ele>
        <time>2020-06-15T09:26:32Z</time>
      </trkpt>
      <trkpt lat="49.68587" lon="-1.31627">
        <ele>4.3</ele>
        <time>2020-06-15T09:26:33Z</time>
      </trkpt>
      <trkpt lat="49.68586" lon="-1.31619">
        <ele>4.3</ele>
        <time>2020-06-15T09:26:34Z</time>
      </trkpt>
      <trkpt lat="49.68584" lon="-1.31612">
        <ele>4.3</ele>
        <time>2020-06-15T09:26:35Z</time>
      </trkpt>
      <trkpt lat="49.68583" lon="-1.31605">
        <ele>4.4</ele>
        <time>2020-06-15T09:26:36Z</time>
      </trkpt>
      <trkpt lat="49.6858" lon="-1.31598">
        <ele>4.4</ele>
        <time>2020-06-15T09:26:37Z</time>
      </trkpt>
      <trkpt lat="49.68576" lon="-1.31591">
        <ele>4.4</ele>
        <time>2020-06-15T09:26:38Z</time>
      </trkpt>
      <trkpt lat="49.68572" lon="-1.31584">
        <ele>4.4</ele>
        <time>2020-06-15T09:26:39Z</time>
      </trkpt>
      <trkpt lat="49.68568" lon="-1.31577">
        <ele>4.5</ele>
        <time>2020-06-15T09:26:40Z</time>
      </trkpt>
      <trkpt lat="49.68564" lon="-1.31571">
        <ele>4.5</ele>
        <time>2020-06-15T09:26:41Z</time>
      </trkpt>
      <trkpt lat="49.68561" lon="-1.31564">
        <ele>4.5</ele>
        <time>2020-06-15T09:26:42Z</time>
      </trkpt>
      <trkpt lat="49.68558" lon="-1.31558">
        <ele>4.5</ele>
        <time>2020-06-15T09:26:43Z</time>
      </trkpt>
      <trkpt lat="49.68554" lon="-1.31552">
        <ele>4.5</ele>
        <time>2020-06-15T09:26:44Z</time>
      </trkpt>
      <trkpt lat="49.6855" lon="-1.31543">
        <ele>4.5</ele>
        <time>2020-06-15T09:26:45Z</time>
      </trkpt>
      <trkpt lat="49.68547" lon="-1.31537">
        <ele>4.5</ele>
        <time>2020-06-15T09:26:46Z</time>
      </trkpt>
      <trkpt lat="49.68543" lon="-1.31529">
        <ele>4.6</ele>
        <time>2020-06-15T09:26:47Z</time>
      </trkpt>
      <trkpt lat="49.68541" lon="-1.31522">
        <ele>4.6</ele>
        <time>2020-06-15T09:26:48Z</time>
      </trkpt>
      <trkpt lat="49.68538" lon="-1.31515">
        <ele>4.7</ele>
        <time>2020-06-15T09:26:49Z</time>
      </trkpt>
      <trkpt lat="49.68534" lon="-1.3151">
        <ele>4.7</ele>
        <time>2020-06-15T09:26:50Z</time>
      </trkpt>
      <trkpt lat="49.6853" lon="-1.31503">
        <ele>4.8</ele>
        <time>2020-06-15T09:26:51Z</time>
      </trkpt>
      <trkpt lat="49.68527" lon="-1.31496">
        <ele>4.9</ele>
        <time>2020-06-15T09:26:52Z</time>
      </trkpt>
      <trkpt lat="49.68524" lon="-1.3149">
        <ele>4.9</ele>
        <time>2020-06-15T09:26:53Z</time>
      </trkpt>
      <trkpt lat="49.6852" lon="-1.31484">
        <ele>5</ele>
        <time>2020-06-15T09:26:54Z</time>
      </trkpt>
      <trkpt lat="49.68517" lon="-1.31477">
        <ele>5</ele>
        <time>2020-06-15T09:26:55Z</time>
      </trkpt>
      <trkpt lat="49.68513" lon="-1.31471">
        <ele>5.1</ele>
        <time>2020-06-15T09:26:56Z</time>
      </trkpt>
      <trkpt lat="49.6851" lon="-1.31464">
        <ele>5.1</ele>
        <time>2020-06-15T09:26:57Z</time>
      </trkpt>
      <trkpt lat="49.68507" lon="-1.31458">
        <ele>5.1</ele>
        <time>2020-06-15T09:26:58Z</time>
      </trkpt>
      <trkpt lat="49.68504" lon="-1.3145">
        <ele>5.1</ele>
        <time>2020-06-15T09:26:59Z</time>
      </trkpt>
      <trkpt lat="49.68501" lon="-1.31443">
        <ele>5.2</ele>
        <time>2020-06-15T09:27:00Z</time>
      </trkpt>
      <trkpt lat="49.68498" lon="-1.31437">
        <ele>5.2</ele>
        <time>2020-06-15T09:27:01Z</time>
      </trkpt>
      <trkpt lat="49.68495" lon="-1.31431">
        <ele>5.2</ele>
        <time>2020-06-15T09:27:02Z</time>
      </trkpt>
      <trkpt lat="49.68492" lon="-1.31425">
        <ele>5.2</ele>
        <time>2020-06-15T09:27:03Z</time>
      </trkpt>
      <trkpt lat="49.68489" lon="-1.31419">
        <ele>5.2</ele>
        <time>2020-06-15T09:27:04Z</time>
      </trkpt>
      <trkpt lat="49.68486" lon="-1.31413">
        <ele>5.3</ele>
        <time>2020-06-15T09:27:05Z</time>
      </trkpt>
      <trkpt lat="49.68482" lon="-1.31406">
        <ele>5.3</ele>
        <time>2020-06-15T09:27:06Z</time>
      </trkpt>
      <trkpt lat="49.68479" lon="-1.31401">
        <ele>5.3</ele>
        <time>2020-06-15T09:27:07Z</time>
      </trkpt>
      <trkpt lat="49.68475" lon="-1.31394">
        <ele>5.4</ele>
        <time>2020-06-15T09:27:08Z</time>
      </trkpt>
      <trkpt lat="49.68472" lon="-1.31387">
        <ele>5.4</ele>
        <time>2020-06-15T09:27:09Z</time>
      </trkpt>
      <trkpt lat="49.68469" lon="-1.31381">
        <ele>5.4</ele>
        <time>2020-06-15T09:27:10Z</time>
      </trkpt>
      <trkpt lat="49.68466" lon="-1.31376">
        <ele>5.4</ele>
        <time>2020-06-15T09:27:11Z</time>
      </trkpt>
      <trkpt lat="49.68464" lon="-1.3137">
        <ele>5.4</ele>
        <time>2020-06-15T09:27:12Z</time>
      </trkpt>
      <trkpt lat="49.68461" lon="-1.31365">
        <ele>5.3</ele>
        <time>2020-06-15T09:27:13Z</time>
      </trkpt>
      <trkpt lat="49.68458" lon="-1.31358">
        <ele>5.3</ele>
        <time>2020-06-15T09:27:14Z</time>
      </trkpt>
      <trkpt lat="49.68455" lon="-1.31352">
        <ele>5.3</ele>
        <time>2020-06-15T09:27:15Z</time>
      </trkpt>
      <trkpt lat="49.68452" lon="-1.31346">
        <ele>5.2</ele>
        <time>2020-06-15T09:27:16Z</time>
      </trkpt>
      <trkpt lat="49.68449" lon="-1.3134">
        <ele>5.2</ele>
        <time>2020-06-15T09:27:17Z</time>
      </trkpt>
      <trkpt lat="49.68446" lon="-1.31334">
        <ele>5.2</ele>
        <time>2020-06-15T09:27:18Z</time>
      </trkpt>
      <trkpt lat="49.68443" lon="-1.31328">
        <ele>5.1</ele>
        <time>2020-06-15T09:27:19Z</time>
      </trkpt>
      <trkpt lat="49.68439" lon="-1.31322">
        <ele>5.1</ele>
        <time>2020-06-15T09:27:20Z</time>
      </trkpt>
      <trkpt lat="49.68436" lon="-1.31317">
        <ele>5</ele>
        <time>2020-06-15T09:27:21Z</time>
      </trkpt>
      <trkpt lat="49.68433" lon="-1.31311">
        <ele>4.9</ele>
        <time>2020-06-15T09:27:22Z</time>
      </trkpt>
      <trkpt lat="49.68431" lon="-1.31305">
        <ele>4.8</ele>
        <time>2020-06-15T09:27:23Z</time>
      </trkpt>
      <trkpt lat="49.68427" lon="-1.31299">
        <ele>4.7</ele>
        <time>2020-06-15T09:27:24Z</time>
      </trkpt>
      <trkpt lat="49.68424" lon="-1.31292">
        <ele>4.6</ele>
        <time>2020-06-15T09:27:25Z</time>
      </trkpt>
      <trkpt lat="49.68421" lon="-1.31285">
        <ele>4.5</ele>
        <time>2020-06-15T09:27:26Z</time>
      </trkpt>
      <trkpt lat="49.68417" lon="-1.31276">
        <ele>4.5</ele>
        <time>2020-06-15T09:27:27Z</time>
      </trkpt>
      <trkpt lat="49.68415" lon="-1.31268">
        <ele>4.5</ele>
        <time>2020-06-15T09:27:28Z</time>
      </trkpt>
      <trkpt lat="49.68411" lon="-1.31261">
        <ele>4.5</ele>
        <time>2020-06-15T09:27:29Z</time>
      </trkpt>
      <trkpt lat="49.68408" lon="-1.31252">
        <ele>4.5</ele>
        <time>2020-06-15T09:27:30Z</time>
      </trkpt>
      <trkpt lat="49.68405" lon="-1.31245">
        <ele>4.6</ele>
        <time>2020-06-15T09:27:31Z</time>
      </trkpt>
      <trkpt lat="49.68402" lon="-1.31237">
        <ele>4.8</ele>
        <time>2020-06-15T09:27:32Z</time>
      </trkpt>
      <trkpt lat="49.68398" lon="-1.31229">
        <ele>5</ele>
        <time>2020-06-15T09:27:33Z</time>
      </trkpt>
      <trkpt lat="49.68395" lon="-1.3122">
        <ele>5.3</ele>
        <time>2020-06-15T09:27:34Z</time>
      </trkpt>
      <trkpt lat="49.68392" lon="-1.31213">
        <ele>5.6</ele>
        <time>2020-06-15T09:27:35Z</time>
      </trkpt>
      <trkpt lat="49.68389" lon="-1.31204">
        <ele>6</ele>
        <time>2020-06-15T09:27:36Z</time>
      </trkpt>
      <trkpt lat="49.68386" lon="-1.31197">
        <ele>6.3</ele>
        <time>2020-06-15T09:27:37Z</time>
      </trkpt>
      <trkpt lat="49.68383" lon="-1.3119">
        <ele>6.7</ele>
        <time>2020-06-15T09:27:38Z</time>
      </trkpt>
      <trkpt lat="49.6838" lon="-1.31184">
        <ele>7.1</ele>
        <time>2020-06-15T09:27:39Z</time>
      </trkpt>
      <trkpt lat="49.68377" lon="-1.31176">
        <ele>7.5</ele>
        <time>2020-06-15T09:27:40Z</time>
      </trkpt>
      <trkpt lat="49.68375" lon="-1.31171">
        <ele>7.8</ele>
        <time>2020-06-15T09:27:41Z</time>
      </trkpt>
      <trkpt lat="49.68372" lon="-1.31167">
        <ele>8.1</ele>
        <time>2020-06-15T09:27:42Z</time>
      </trkpt>
      <trkpt lat="49.68371" lon="-1.31161">
        <ele>8.4</ele>
        <time>2020-06-15T09:27:43Z</time>
      </trkpt>
      <trkpt lat="49.68369" lon="-1.31156">
        <ele>8.7</ele>
        <time>2020-06-15T09:27:44Z</time>
      </trkpt>
      <trkpt lat="49.68367" lon="-1.31151">
        <ele>9.1</ele>
        <time>2020-06-15T09:27:45Z</time>
      </trkpt>
      <trkpt lat="49.68367" lon="-1.31149">
        <ele>9.2</ele>
        <time>2020-06-15T09:27:46Z</time>
      </trkpt>
      <trkpt lat="49.68365" lon="-1.31146">
        <ele>9.4</ele>
        <time>2020-06-15T09:27:47Z</time>
      </trkpt>
      <trkpt lat="49.68363" lon="-1.3114">
        <ele>9.8</ele>
        <time>2020-06-15T09:27:48Z</time>
      </trkpt>
      <trkpt lat="49.68363" lon="-1.31138">
        <ele>9.9</ele>
        <time>2020-06-15T09:27:49Z</time>
      </trkpt>
      <trkpt lat="49.68361" lon="-1.31134">
        <ele>10.2</ele>
        <time>2020-06-15T09:27:50Z</time>
      </trkpt>
      <trkpt lat="49.6836" lon="-1.31133">
        <ele>10.3</ele>
        <time>2020-06-15T09:27:51Z</time>
      </trkpt>
      <trkpt lat="49.68359" lon="-1.31128">
        <ele>10.5</ele>
        <time>2020-06-15T09:27:52Z</time>
      </trkpt>
      <trkpt lat="49.68358" lon="-1.31126">
        <ele>10.6</ele>
        <time>2020-06-15T09:27:53Z</time>
      </trkpt>
      <trkpt lat="49.68358" lon="-1.31119">
        <ele>11</ele>
        <time>2020-06-15T09:27:54Z</time>
      </trkpt>
      <trkpt lat="49.68357" lon="-1.31115">
        <ele>11.2</ele>
        <time>2020-06-15T09:27:55Z</time>
      </trkpt>
      <trkpt lat="49.68355" lon="-1.3111">
        <ele>11.5</ele>
        <time>2020-06-15T09:27:56Z</time>
      </trkpt>
      <trkpt lat="49.68354" lon="-1.31106">
        <ele>11.7</ele>
        <time>2020-06-15T09:27:57Z</time>
      </trkpt>
      <trkpt lat="49.68353" lon="-1.31098">
        <ele>12.3</ele>
        <time>2020-06-15T09:27:58Z</time>
      </trkpt>
      <trkpt lat="49.68352" lon="-1.31093">
        <ele>12.3</ele>
        <time>2020-06-15T09:27:59Z</time>
      </trkpt>
      <trkpt lat="49.68351" lon="-1.31088">
        <ele>12.3</ele>
        <time>2020-06-15T09:28:00Z</time>
      </trkpt>
      <trkpt lat="49.6835" lon="-1.31083">
        <ele>12.5</ele>
        <time>2020-06-15T09:28:01Z</time>
      </trkpt>
      <trkpt lat="49.68348" lon="-1.31077">
        <ele>12.8</ele>
        <time>2020-06-15T09:28:02Z</time>
      </trkpt>
      <trkpt lat="49.68347" lon="-1.31072">
        <ele>13.1</ele>
        <time>2020-06-15T09:28:03Z</time>
      </trkpt>
      <trkpt lat="49.68346" lon="-1.31066">
        <ele>13.4</ele>
        <time>2020-06-15T09:28:04Z</time>
      </trkpt>
      <trkpt lat="49.68345" lon="-1.31062">
        <ele>13.6</ele>
        <time>2020-06-15T09:28:05Z</time>
      </trkpt>
      <trkpt lat="49.68344" lon="-1.31058">
        <ele>13.8</ele>
        <time>2020-06-15T09:28:06Z</time>
      </trkpt>
      <trkpt lat="49.68343" lon="-1.31054">
        <ele>14.1</ele>
        <time>2020-06-15T09:28:07Z</time>
      </trkpt>
      <trkpt lat="49.68342" lon="-1.31049">
        <ele>14.4</ele>
        <time>2020-06-15T09:28:08Z</time>
      </trkpt>
      <trkpt lat="49.68341" lon="-1.31043">
        <ele>14.6</ele>
        <time>2020-06-15T09:28:09Z</time>
      </trkpt>
      <trkpt lat="49.68341" lon="-1.31037">
        <ele>14.9</ele>
        <time>2020-06-15T09:28:10Z</time>
      </trkpt>
      <trkpt lat="49.68341" lon="-1.31032">
        <ele>15.2</ele>
        <time>2020-06-15T09:28:11Z</time>
      </trkpt>
      <trkpt lat="49.68341" lon="-1.31026">
        <ele>15.5</ele>
        <time>2020-06-15T09:28:12Z</time>
      </trkpt>
      <trkpt lat="49.68341" lon="-1.31021">
        <ele>15.8</ele>
        <time>2020-06-15T09:28:13Z</time>
      </trkpt>
      <trkpt lat="49.68341" lon="-1.31015">
        <ele>16.1</ele>
        <time>2020-06-15T09:28:14Z</time>
      </trkpt>
      <trkpt lat="49.6834" lon="-1.31009">
        <ele>16.4</ele>
        <time>2020-06-15T09:28:15Z</time>
      </trkpt>
      <trkpt lat="49.6834" lon="-1.31004">
        <ele>16.6</ele>
        <time>2020-06-15T09:28:16Z</time>
      </trkpt>
      <trkpt lat="49.6834" lon="-1.30999">
        <ele>16.9</ele>
        <time>2020-06-15T09:28:17Z</time>
      </trkpt>
      <trkpt lat="49.6834" lon="-1.30993">
        <ele>17.1</ele>
        <time>2020-06-15T09:28:18Z</time>
      </trkpt>
      <trkpt lat="49.68341" lon="-1.30988">
        <ele>17.3</ele>
        <time>2020-06-15T09:28:19Z</time>
      </trkpt>
      <trkpt lat="49.68342" lon="-1.30981">
        <ele>17.6</ele>
        <time>2020-06-15T09:28:20Z</time>
      </trkpt>
      <trkpt lat="49.68342" lon="-1.30978">
        <ele>17.7</ele>
        <time>2020-06-15T09:28:21Z</time>
      </trkpt>
      <trkpt lat="49.68343" lon="-1.30972">
        <ele>17.9</ele>
        <time>2020-06-15T09:28:22Z</time>
      </trkpt>
      <trkpt lat="49.68343" lon="-1.30966">
        <ele>18.1</ele>
        <time>2020-06-15T09:28:23Z</time>
      </trkpt>
      <trkpt lat="49.68343" lon="-1.30961">
        <ele>18.3</ele>
        <time>2020-06-15T09:28:24Z</time>
      </trkpt>
      <trkpt lat="49.68343" lon="-1.30955">
        <ele>18.4</ele>
        <time>2020-06-15T09:28:25Z</time>
      </trkpt>
      <trkpt lat="49.68343" lon="-1.3095">
        <ele>18.6</ele>
        <time>2020-06-15T09:28:26Z</time>
      </trkpt>
      <trkpt lat="49.68343" lon="-1.30945">
        <ele>18.7</ele>
        <time>2020-06-15T09:28:27Z</time>
      </trkpt>
      <trkpt lat="49.68343" lon="-1.3094">
        <ele>18.8</ele>
        <time>2020-06-15T09:28:28Z</time>
      </trkpt>
      <trkpt lat="49.68344" lon="-1.30935">
        <ele>19</ele>
        <time>2020-06-15T09:28:29Z</time>
      </trkpt>
      <trkpt lat="49.68344" lon="-1.30929">
        <ele>19.1</ele>
        <time>2020-06-15T09:28:30Z</time>
      </trkpt>
      <trkpt lat="49.68345" lon="-1.30923">
        <ele>19.2</ele>
        <time>2020-06-15T09:28:31Z</time>
      </trkpt>
      <trkpt lat="49.68345" lon="-1.30917">
        <ele>19.3</ele>
        <time>2020-06-15T09:28:32Z</time>
      </trkpt>
      <trkpt lat="49.68346" lon="-1.30911">
        <ele>19.4</ele>
        <time>2020-06-15T09:28:33Z</time>
      </trkpt>
      <trkpt lat="49.68346" lon="-1.30905">
        <ele>19.5</ele>
        <time>2020-06-15T09:28:34Z</time>
      </trkpt>
      <trkpt lat="49.68347" lon="-1.30897">
        <ele>19.6</ele>
        <time>2020-06-15T09:28:35Z</time>
      </trkpt>
      <trkpt lat="49.68348" lon="-1.3089">
        <ele>19.7</ele>
        <time>2020-06-15T09:28:36Z</time>
      </trkpt>
      <trkpt lat="49.68348" lon="-1.30883">
        <ele>19.8</ele>
        <time>2020-06-15T09:28:37Z</time>
      </trkpt>
      <trkpt lat="49.68349" lon="-1.30877">
        <ele>19.8</ele>
        <time>2020-06-15T09:28:38Z</time>
      </trkpt>
      <trkpt lat="49.68349" lon="-1.3087">
        <ele>19.9</ele>
        <time>2020-06-15T09:28:39Z</time>
      </trkpt>
      <trkpt lat="49.68349" lon="-1.30864">
        <ele>20</ele>
        <time>2020-06-15T09:28:40Z</time>
      </trkpt>
      <trkpt lat="49.68349" lon="-1.30857">
        <ele>20</ele>
        <time>2020-06-15T09:28:41Z</time>
      </trkpt>
      <trkpt lat="49.68349" lon="-1.30851">
        <ele>20.1</ele>
        <time>2020-06-15T09:28:42Z</time>
      </trkpt>
      <trkpt lat="49.6835" lon="-1.30843">
        <ele>20.1</ele>
        <time>2020-06-15T09:28:43Z</time>
      </trkpt>
      <trkpt lat="49.68351" lon="-1.30836">
        <ele>20.2</ele>
        <time>2020-06-15T09:28:44Z</time>
      </trkpt>
      <trkpt lat="49.68351" lon="-1.30829">
        <ele>20.2</ele>
        <time>2020-06-15T09:28:45Z</time>
      </trkpt>
      <trkpt lat="49.68352" lon="-1.30823">
        <ele>20.3</ele>
        <time>2020-06-15T09:28:46Z</time>
      </trkpt>
      <trkpt lat="49.68352" lon="-1.30816">
        <ele>20.3</ele>
        <time>2020-06-15T09:28:47Z</time>
      </trkpt>
      <trkpt lat="49.68353" lon="-1.30808">
        <ele>20.4</ele>
        <time>2020-06-15T09:28:48Z</time>
      </trkpt>
      <trkpt lat="49.68353" lon="-1.30801">
        <ele>20.4</ele>
        <time>2020-06-15T09:28:49Z</time>
      </trkpt>
      <trkpt lat="49.68354" lon="-1.30794">
        <ele>20.5</ele>
        <time>2020-06-15T09:28:50Z</time>
      </trkpt>
      <trkpt lat="49.68354" lon="-1.30787">
        <ele>20.5</ele>
        <time>2020-06-15T09:28:51Z</time>
      </trkpt>
      <trkpt lat="49.68354" lon="-1.3078">
        <ele>20.6</ele>
        <time>2020-06-15T09:28:52Z</time>
      </trkpt>
      <trkpt lat="49.68355" lon="-1.30773">
        <ele>20.6</ele>
        <time>2020-06-15T09:28:53Z</time>
      </trkpt>
      <trkpt lat="49.68356" lon="-1.30768">
        <ele>20.7</ele>
        <time>2020-06-15T09:28:54Z</time>
      </trkpt>
      <trkpt lat="49.68357" lon="-1.30761">
        <ele>20.7</ele>
        <time>2020-06-15T09:28:55Z</time>
      </trkpt>
      <trkpt lat="49.68358" lon="-1.30753">
        <ele>20.8</ele>
        <time>2020-06-15T09:28:56Z</time>
      </trkpt>
      <trkpt lat="49.68358" lon="-1.30746">
        <ele>20.8</ele>
        <time>2020-06-15T09:28:57Z</time>
      </trkpt>
      <trkpt lat="49.68359" lon="-1.30739">
        <ele>20.8</ele>
        <time>2020-06-15T09:28:58Z</time>
      </trkpt>
      <trkpt lat="49.6836" lon="-1.30733">
        <ele>20.8</ele>
        <time>2020-06-15T09:28:59Z</time>
      </trkpt>
      <trkpt lat="49.68361" lon="-1.30726">
        <ele>20.7</ele>
        <time>2020-06-15T09:29:00Z</time>
      </trkpt>
      <trkpt lat="49.68362" lon="-1.30719">
        <ele>20.6</ele>
        <time>2020-06-15T09:29:01Z</time>
      </trkpt>
      <trkpt lat="49.68363" lon="-1.30713">
        <ele>20.5</ele>
        <time>2020-06-15T09:29:02Z</time>
      </trkpt>
      <trkpt lat="49.68364" lon="-1.30706">
        <ele>20.5</ele>
        <time>2020-06-15T09:29:03Z</time>
      </trkpt>
      <trkpt lat="49.68366" lon="-1.307">
        <ele>20.4</ele>
        <time>2020-06-15T09:29:04Z</time>
      </trkpt>
      <trkpt lat="49.68367" lon="-1.30694">
        <ele>20.3</ele>
        <time>2020-06-15T09:29:05Z</time>
      </trkpt>
      <trkpt lat="49.68368" lon="-1.30688">
        <ele>20.2</ele>
        <time>2020-06-15T09:29:06Z</time>
      </trkpt>
      <trkpt lat="49.68369" lon="-1.30681">
        <ele>20.1</ele>
        <time>2020-06-15T09:29:07Z</time>
      </trkpt>
      <trkpt lat="49.6837" lon="-1.30675">
        <ele>20</ele>
        <time>2020-06-15T09:29:08Z</time>
      </trkpt>
      <trkpt lat="49.68371" lon="-1.30669">
        <ele>19.9</ele>
        <time>2020-06-15T09:29:09Z</time>
      </trkpt>
      <trkpt lat="49.68372" lon="-1.30663">
        <ele>19.8</ele>
        <time>2020-06-15T09:29:10Z</time>
      </trkpt>
      <trkpt lat="49.68374" lon="-1.30657">
        <ele>19.6</ele>
        <time>2020-06-15T09:29:11Z</time>
      </trkpt>
      <trkpt lat="49.68376" lon="-1.3065">
        <ele>19.5</ele>
        <time>2020-06-15T09:29:12Z</time>
      </trkpt>
      <trkpt lat="49.68379" lon="-1.30643">
        <ele>19.2</ele>
        <time>2020-06-15T09:29:13Z</time>
      </trkpt>
      <trkpt lat="49.68382" lon="-1.30636">
        <ele>19</ele>
        <time>2020-06-15T09:29:14Z</time>
      </trkpt>
      <trkpt lat="49.68384" lon="-1.30629">
        <ele>18.7</ele>
        <time>2020-06-15T09:29:15Z</time>
      </trkpt>
      <trkpt lat="49.68387" lon="-1.30622">
        <ele>18.5</ele>
        <time>2020-06-15T09:29:16Z</time>
      </trkpt>
      <trkpt lat="49.6839" lon="-1.30614">
        <ele>18.2</ele>
        <time>2020-06-15T09:29:17Z</time>
      </trkpt>
      <trkpt lat="49.68393" lon="-1.30606">
        <ele>17.8</ele>
        <time>2020-06-15T09:29:18Z</time>
      </trkpt>
      <trkpt lat="49.68396" lon="-1.30597">
        <ele>17.5</ele>
        <time>2020-06-15T09:29:19Z</time>
      </trkpt>
      <trkpt lat="49.68399" lon="-1.30589">
        <ele>17.1</ele>
        <time>2020-06-15T09:29:20Z</time>
      </trkpt>
      <trkpt lat="49.68402" lon="-1.3058">
        <ele>16.7</ele>
        <time>2020-06-15T09:29:21Z</time>
      </trkpt>
      <trkpt lat="49.68405" lon="-1.30572">
        <ele>16.3</ele>
        <time>2020-06-15T09:29:22Z</time>
      </trkpt>
      <trkpt lat="49.68408" lon="-1.30562">
        <ele>15.9</ele>
        <time>2020-06-15T09:29:23Z</time>
      </trkpt>
      <trkpt lat="49.68411" lon="-1.30551">
        <ele>15.4</ele>
        <time>2020-06-15T09:29:24Z</time>
      </trkpt>
      <trkpt lat="49.68414" lon="-1.30541">
        <ele>14.9</ele>
        <time>2020-06-15T09:29:25Z</time>
      </trkpt>
      <trkpt lat="49.68417" lon="-1.30531">
        <ele>14.4</ele>
        <time>2020-06-15T09:29:26Z</time>
      </trkpt>
      <trkpt lat="49.68419" lon="-1.30517">
        <ele>13.8</ele>
        <time>2020-06-15T09:29:27Z</time>
      </trkpt>
      <trkpt lat="49.68422" lon="-1.30504">
        <ele>13.2</ele>
        <time>2020-06-15T09:29:28Z</time>
      </trkpt>
      <trkpt lat="49.68424" lon="-1.30489">
        <ele>12.5</ele>
        <time>2020-06-15T09:29:29Z</time>
      </trkpt>
      <trkpt lat="49.68426" lon="-1.30475">
        <ele>11.8</ele>
        <time>2020-06-15T09:29:30Z</time>
      </trkpt>
      <trkpt lat="49.68427" lon="-1.30461">
        <ele>11.1</ele>
        <time>2020-06-15T09:29:31Z</time>
      </trkpt>
      <trkpt lat="49.68429" lon="-1.30448">
        <ele>10.5</ele>
        <time>2020-06-15T09:29:32Z</time>
      </trkpt>
      <trkpt lat="49.68431" lon="-1.30434">
        <ele>10.1</ele>
        <time>2020-06-15T09:29:33Z</time>
      </trkpt>
      <trkpt lat="49.68432" lon="-1.30421">
        <ele>9.7</ele>
        <time>2020-06-15T09:29:34Z</time>
      </trkpt>
      <trkpt lat="49.68433" lon="-1.30407">
        <ele>9.4</ele>
        <time>2020-06-15T09:29:35Z</time>
      </trkpt>
      <trkpt lat="49.68434" lon="-1.30394">
        <ele>9.1</ele>
        <time>2020-06-15T09:29:36Z</time>
      </trkpt>
      <trkpt lat="49.68434" lon="-1.30382">
        <ele>8.9</ele>
        <time>2020-06-15T09:29:37Z</time>
      </trkpt>
      <trkpt lat="49.68435" lon="-1.30369">
        <ele>8.7</ele>
        <time>2020-06-15T09:29:38Z</time>
      </trkpt>
      <trkpt lat="49.68435" lon="-1.30357">
        <ele>8.5</ele>
        <time>2020-06-15T09:29:39Z</time>
      </trkpt>
      <trkpt lat="49.68435" lon="-1.30346">
        <ele>8.5</ele>
        <time>2020-06-15T09:29:40Z</time>
      </trkpt>
      <trkpt lat="49.68435" lon="-1.30335">
        <ele>8.4</ele>
        <time>2020-06-15T09:29:41Z</time>
      </trkpt>
      <trkpt lat="49.68435" lon="-1.30324">
        <ele>8.4</ele>
        <time>2020-06-15T09:29:42Z</time>
      </trkpt>
      <trkpt lat="49.68436" lon="-1.30313">
        <ele>8.4</ele>
        <time>2020-06-15T09:29:43Z</time>
      </trkpt>
      <trkpt lat="49.68436" lon="-1.30303">
        <ele>8.4</ele>
        <time>2020-06-15T09:29:44Z</time>
      </trkpt>
      <trkpt lat="49.68436" lon="-1.30293">
        <ele>8.4</ele>
        <time>2020-06-15T09:29:45Z</time>
      </trkpt>
      <trkpt lat="49.68435" lon="-1.30283">
        <ele>8.5</ele>
        <time>2020-06-15T09:29:46Z</time>
      </trkpt>
      <trkpt lat="49.68435" lon="-1.30273">
        <ele>8.5</ele>
        <time>2020-06-15T09:29:47Z</time>
      </trkpt>
      <trkpt lat="49.68435" lon="-1.30263">
        <ele>8.6</ele>
        <time>2020-06-15T09:29:48Z</time>
      </trkpt>
      <trkpt lat="49.68435" lon="-1.30252">
        <ele>8.7</ele>
        <time>2020-06-15T09:29:49Z</time>
      </trkpt>
      <trkpt lat="49.68435" lon="-1.30243">
        <ele>8.7</ele>
        <time>2020-06-15T09:29:50Z</time>
      </trkpt>
      <trkpt lat="49.68434" lon="-1.30233">
        <ele>8.8</ele>
        <time>2020-06-15T09:29:51Z</time>
      </trkpt>
      <trkpt lat="49.68434" lon="-1.30224">
        <ele>8.8</ele>
        <time>2020-06-15T09:29:52Z</time>
      </trkpt>
      <trkpt lat="49.68434" lon="-1.30216">
        <ele>8.9</ele>
        <time>2020-06-15T09:29:53Z</time>
      </trkpt>
      <trkpt lat="49.68434" lon="-1.30207">
        <ele>8.9</ele>
        <time>2020-06-15T09:29:54Z</time>
      </trkpt>
      <trkpt lat="49.68434" lon="-1.30199">
        <ele>8.9</ele>
        <time>2020-06-15T09:29:55Z</time>
      </trkpt>
      <trkpt lat="49.68434" lon="-1.30191">
        <ele>9</ele>
        <time>2020-06-15T09:29:56Z</time>
      </trkpt>
      <trkpt lat="49.68434" lon="-1.30183">
        <ele>9</ele>
        <time>2020-06-15T09:29:57Z</time>
      </trkpt>
      <trkpt lat="49.68434" lon="-1.30175">
        <ele>9.1</ele>
        <time>2020-06-15T09:29:58Z</time>
      </trkpt>
      <trkpt lat="49.68433" lon="-1.30167">
        <ele>9.1</ele>
        <time>2020-06-15T09:29:59Z</time>
      </trkpt>
      <trkpt lat="49.68433" lon="-1.30161">
        <ele>9.2</ele>
        <time>2020-06-15T09:30:00Z</time>
      </trkpt>
      <trkpt lat="49.68433" lon="-1.30153">
        <ele>9.2</ele>
        <time>2020-06-15T09:30:01Z</time>
      </trkpt>
      <trkpt lat="49.68433" lon="-1.30145">
        <ele>9.3</ele>
        <time>2020-06-15T09:30:02Z</time>
      </trkpt>
      <trkpt lat="49.68433" lon="-1.30137">
        <ele>9.4</ele>
        <time>2020-06-15T09:30:03Z</time>
      </trkpt>
      <trkpt lat="49.68433" lon="-1.30128">
        <ele>9.4</ele>
        <time>2020-06-15T09:30:04Z</time>
      </trkpt>
      <trkpt lat="49.68433" lon="-1.3012">
        <ele>9.5</ele>
        <time>2020-06-15T09:30:05Z</time>
      </trkpt>
      <trkpt lat="49.68433" lon="-1.30112">
        <ele>9.5</ele>
        <time>2020-06-15T09:30:06Z</time>
      </trkpt>
      <trkpt lat="49.68433" lon="-1.30105">
        <ele>9.5</ele>
        <time>2020-06-15T09:30:07Z</time>
      </trkpt>
      <trkpt lat="49.68433" lon="-1.30097">
        <ele>9.6</ele>
        <time>2020-06-15T09:30:08Z</time>
      </trkpt>
      <trkpt lat="49.68432" lon="-1.30088">
        <ele>9.6</ele>
        <time>2020-06-15T09:30:09Z</time>
      </trkpt>
      <trkpt lat="49.68432" lon="-1.3008">
        <ele>9.7</ele>
        <time>2020-06-15T09:30:10Z</time>
      </trkpt>
      <trkpt lat="49.68432" lon="-1.30073">
        <ele>9.7</ele>
        <time>2020-06-15T09:30:11Z</time>
      </trkpt>
      <trkpt lat="49.68433" lon="-1.30064">
        <ele>9.7</ele>
        <time>2020-06-15T09:30:12Z</time>
      </trkpt>
      <trkpt lat="49.68433" lon="-1.30056">
        <ele>9.8</ele>
        <time>2020-06-15T09:30:13Z</time>
      </trkpt>
      <trkpt lat="49.68433" lon="-1.30047">
        <ele>9.8</ele>
        <time>2020-06-15T09:30:14Z</time>
      </trkpt>
      <trkpt lat="49.68433" lon="-1.30039">
        <ele>9.8</ele>
        <time>2020-06-15T09:30:15Z</time>
      </trkpt>
      <trkpt lat="49.68433" lon="-1.3003">
        <ele>9.7</ele>
        <time>2020-06-15T09:30:16Z</time>
      </trkpt>
      <trkpt lat="49.68433" lon="-1.30021">
        <ele>9.7</ele>
        <time>2020-06-15T09:30:17Z</time>
      </trkpt>
      <trkpt lat="49.68433" lon="-1.30012">
        <ele>9.7</ele>
        <time>2020-06-15T09:30:18Z</time>
      </trkpt>
      <trkpt lat="49.68434" lon="-1.30004">
        <ele>9.7</ele>
        <time>2020-06-15T09:30:19Z</time>
      </trkpt>
      <trkpt lat="49.68434" lon="-1.29994">
        <ele>9.7</ele>
        <time>2020-06-15T09:30:20Z</time>
      </trkpt>
      <trkpt lat="49.68435" lon="-1.29986">
        <ele>9.7</ele>
        <time>2020-06-15T09:30:21Z</time>
      </trkpt>
      <trkpt lat="49.68435" lon="-1.29977">
        <ele>9.6</ele>
        <time>2020-06-15T09:30:22Z</time>
      </trkpt>
      <trkpt lat="49.68435" lon="-1.29969">
        <ele>9.6</ele>
        <time>2020-06-15T09:30:23Z</time>
      </trkpt>
      <trkpt lat="49.68435" lon="-1.29961">
        <ele>9.6</ele>
        <time>2020-06-15T09:30:24Z</time>
      </trkpt>
      <trkpt lat="49.68437" lon="-1.29951">
        <ele>9.5</ele>
        <time>2020-06-15T09:30:25Z</time>
      </trkpt>
      <trkpt lat="49.68437" lon="-1.29942">
        <ele>9.4</ele>
        <time>2020-06-15T09:30:26Z</time>
      </trkpt>
      <trkpt lat="49.68437" lon="-1.29934">
        <ele>9.4</ele>
        <time>2020-06-15T09:30:27Z</time>
      </trkpt>
      <trkpt lat="49.68438" lon="-1.29924">
        <ele>9.3</ele>
        <time>2020-06-15T09:30:28Z</time>
      </trkpt>
      <trkpt lat="49.68439" lon="-1.29914">
        <ele>9.3</ele>
        <time>2020-06-15T09:30:29Z</time>
      </trkpt>
      <trkpt lat="49.68439" lon="-1.29906">
        <ele>9.3</ele>
        <time>2020-06-15T09:30:30Z</time>
      </trkpt>
      <trkpt lat="49.68439" lon="-1.29897">
        <ele>9.2</ele>
        <time>2020-06-15T09:30:31Z</time>
      </trkpt>
      <trkpt lat="49.68439" lon="-1.29889">
        <ele>9.2</ele>
        <time>2020-06-15T09:30:32Z</time>
      </trkpt>
      <trkpt lat="49.6844" lon="-1.2988">
        <ele>9.2</ele>
        <time>2020-06-15T09:30:33Z</time>
      </trkpt>
      <trkpt lat="49.6844" lon="-1.29871">
        <ele>9.1</ele>
        <time>2020-06-15T09:30:34Z</time>
      </trkpt>
      <trkpt lat="49.68441" lon="-1.29862">
        <ele>9</ele>
        <time>2020-06-15T09:30:35Z</time>
      </trkpt>
      <trkpt lat="49.68441" lon="-1.29853">
        <ele>8.9</ele>
        <time>2020-06-15T09:30:36Z</time>
      </trkpt>
      <trkpt lat="49.68441" lon="-1.29843">
        <ele>8.9</ele>
        <time>2020-06-15T09:30:37Z</time>
      </trkpt>
      <trkpt lat="49.68442" lon="-1.29834">
        <ele>8.8</ele>
        <time>2020-06-15T09:30:38Z</time>
      </trkpt>
      <trkpt lat="49.68442" lon="-1.29825">
        <ele>8.8</ele>
        <time>2020-06-15T09:30:39Z</time>
      </trkpt>
      <trkpt lat="49.68443" lon="-1.29816">
        <ele>8.8</ele>
        <time>2020-06-15T09:30:40Z</time>
      </trkpt>
      <trkpt lat="49.68444" lon="-1.29807">
        <ele>8.7</ele>
        <time>2020-06-15T09:30:41Z</time>
      </trkpt>
      <trkpt lat="49.68444" lon="-1.29799">
        <ele>8.7</ele>
        <time>2020-06-15T09:30:42Z</time>
      </trkpt>
      <trkpt lat="49.68445" lon="-1.29789">
        <ele>8.7</ele>
        <time>2020-06-15T09:30:43Z</time>
      </trkpt>
      <trkpt lat="49.68445" lon="-1.29779">
        <ele>8.7</ele>
        <time>2020-06-15T09:30:44Z</time>
      </trkpt>
      <trkpt lat="49.68445" lon="-1.29771">
        <ele>8.6</ele>
        <time>2020-06-15T09:30:45Z</time>
      </trkpt>
      <trkpt lat="49.68445" lon="-1.29762">
        <ele>8.6</ele>
        <time>2020-06-15T09:30:46Z</time>
      </trkpt>
      <trkpt lat="49.68445" lon="-1.29753">
        <ele>8.6</ele>
        <time>2020-06-15T09:30:47Z</time>
      </trkpt>
      <trkpt lat="49.68446" lon="-1.29744">
        <ele>8.6</ele>
        <time>2020-06-15T09:30:48Z</time>
      </trkpt>
      <trkpt lat="49.68446" lon="-1.29735">
        <ele>8.5</ele>
        <time>2020-06-15T09:30:49Z</time>
      </trkpt>
      <trkpt lat="49.68447" lon="-1.29726">
        <ele>8.6</ele>
        <time>2020-06-15T09:30:50Z</time>
      </trkpt>
      <trkpt lat="49.68447" lon="-1.29717">
        <ele>8.6</ele>
        <time>2020-06-15T09:30:51Z</time>
      </trkpt>
      <trkpt lat="49.68448" lon="-1.29707">
        <ele>8.6</ele>
        <time>2020-06-15T09:30:52Z</time>
      </trkpt>
      <trkpt lat="49.68448" lon="-1.29698">
        <ele>8.7</ele>
        <time>2020-06-15T09:30:53Z</time>
      </trkpt>
      <trkpt lat="49.68448" lon="-1.29689">
        <ele>8.8</ele>
        <time>2020-06-15T09:30:54Z</time>
      </trkpt>
      <trkpt lat="49.6845" lon="-1.29678">
        <ele>8.8</ele>
        <time>2020-06-15T09:30:55Z</time>
      </trkpt>
      <trkpt lat="49.6845" lon="-1.29668">
        <ele>8.9</ele>
        <time>2020-06-15T09:30:56Z</time>
      </trkpt>
      <trkpt lat="49.68451" lon="-1.29658">
        <ele>8.9</ele>
        <time>2020-06-15T09:30:57Z</time>
      </trkpt>
      <trkpt lat="49.68451" lon="-1.29649">
        <ele>9</ele>
        <time>2020-06-15T09:30:58Z</time>
      </trkpt>
      <trkpt lat="49.68451" lon="-1.2964">
        <ele>9</ele>
        <time>2020-06-15T09:30:59Z</time>
      </trkpt>
      <trkpt lat="49.68451" lon="-1.29631">
        <ele>9.1</ele>
        <time>2020-06-15T09:31:00Z</time>
      </trkpt>
      <trkpt lat="49.6845" lon="-1.2962">
        <ele>9.2</ele>
        <time>2020-06-15T09:31:01Z</time>
      </trkpt>
      <trkpt lat="49.6845" lon="-1.29609">
        <ele>9.3</ele>
        <time>2020-06-15T09:31:02Z</time>
      </trkpt>
      <trkpt lat="49.6845" lon="-1.29598">
        <ele>9.3</ele>
        <time>2020-06-15T09:31:03Z</time>
      </trkpt>
      <trkpt lat="49.6845" lon="-1.29588">
        <ele>9.4</ele>
        <time>2020-06-15T09:31:04Z</time>
      </trkpt>
      <trkpt lat="49.6845" lon="-1.29579">
        <ele>9.4</ele>
        <time>2020-06-15T09:31:05Z</time>
      </trkpt>
      <trkpt lat="49.68449" lon="-1.29571">
        <ele>9.5</ele>
        <time>2020-06-15T09:31:06Z</time>
      </trkpt>
      <trkpt lat="49.68448" lon="-1.29562">
        <ele>9.6</ele>
        <time>2020-06-15T09:31:07Z</time>
      </trkpt>
      <trkpt lat="49.68448" lon="-1.29553">
        <ele>9.7</ele>
        <time>2020-06-15T09:31:08Z</time>
      </trkpt>
      <trkpt lat="49.68447" lon="-1.29546">
        <ele>9.8</ele>
        <time>2020-06-15T09:31:09Z</time>
      </trkpt>
      <trkpt lat="49.68447" lon="-1.29537">
        <ele>9.9</ele>
        <time>2020-06-15T09:31:10Z</time>
      </trkpt>
      <trkpt lat="49.68447" lon="-1.29528">
        <ele>10.1</ele>
        <time>2020-06-15T09:31:11Z</time>
      </trkpt>
      <trkpt lat="49.68447" lon="-1.29519">
        <ele>10.2</ele>
        <time>2020-06-15T09:31:12Z</time>
      </trkpt>
      <trkpt lat="49.68446" lon="-1.2951">
        <ele>10.5</ele>
        <time>2020-06-15T09:31:13Z</time>
      </trkpt>
      <trkpt lat="49.68446" lon="-1.29501">
        <ele>10.6</ele>
        <time>2020-06-15T09:31:14Z</time>
      </trkpt>
      <trkpt lat="49.68445" lon="-1.29494">
        <ele>10.8</ele>
        <time>2020-06-15T09:31:15Z</time>
      </trkpt>
      <trkpt lat="49.68445" lon="-1.29486">
        <ele>11</ele>
        <time>2020-06-15T09:31:16Z</time>
      </trkpt>
      <trkpt lat="49.68446" lon="-1.29479">
        <ele>11.2</ele>
        <time>2020-06-15T09:31:17Z</time>
      </trkpt>
      <trkpt lat="49.68446" lon="-1.2947">
        <ele>11.4</ele>
        <time>2020-06-15T09:31:18Z</time>
      </trkpt>
      <trkpt lat="49.68447" lon="-1.29462">
        <ele>11.7</ele>
        <time>2020-06-15T09:31:19Z</time>
      </trkpt>
      <trkpt lat="49.68448" lon="-1.29455">
        <ele>12</ele>
        <time>2020-06-15T09:31:20Z</time>
      </trkpt>
      <trkpt lat="49.68448" lon="-1.29448">
        <ele>12.3</ele>
        <time>2020-06-15T09:31:21Z</time>
      </trkpt>
      <trkpt lat="49.68449" lon="-1.29442">
        <ele>12.4</ele>
        <time>2020-06-15T09:31:22Z</time>
      </trkpt>
      <trkpt lat="49.6845" lon="-1.29435">
        <ele>12.6</ele>
        <time>2020-06-15T09:31:23Z</time>
      </trkpt>
      <trkpt lat="49.68451" lon="-1.29428">
        <ele>12.8</ele>
        <time>2020-06-15T09:31:24Z</time>
      </trkpt>
      <trkpt lat="49.68452" lon="-1.29421">
        <ele>13</ele>
        <time>2020-06-15T09:31:25Z</time>
      </trkpt>
      <trkpt lat="49.68453" lon="-1.29415">
        <ele>13.1</ele>
        <time>2020-06-15T09:31:26Z</time>
      </trkpt>
      <trkpt lat="49.68453" lon="-1.29409">
        <ele>13.3</ele>
        <time>2020-06-15T09:31:27Z</time>
      </trkpt>
      <trkpt lat="49.68455" lon="-1.29402">
        <ele>13.5</ele>
        <time>2020-06-15T09:31:28Z</time>
      </trkpt>
      <trkpt lat="49.68456" lon="-1.29396">
        <ele>13.7</ele>
        <time>2020-06-15T09:31:29Z</time>
      </trkpt>
      <trkpt lat="49.68457" lon="-1.29391">
        <ele>13.9</ele>
        <time>2020-06-15T09:31:30Z</time>
      </trkpt>
      <trkpt lat="49.68458" lon="-1.29385">
        <ele>14</ele>
        <time>2020-06-15T09:31:31Z</time>
      </trkpt>
      <trkpt lat="49.6846" lon="-1.29381">
        <ele>14.2</ele>
        <time>2020-06-15T09:31:32Z</time>
      </trkpt>
      <trkpt lat="49.68461" lon="-1.29375">
        <ele>14.4</ele>
        <time>2020-06-15T09:31:33Z</time>
      </trkpt>
      <trkpt lat="49.68463" lon="-1.29371">
        <ele>14.6</ele>
        <time>2020-06-15T09:31:34Z</time>
      </trkpt>
      <trkpt lat="49.68464" lon="-1.29367">
        <ele>14.5</ele>
        <time>2020-06-15T09:31:35Z</time>
      </trkpt>
      <trkpt lat="49.68465" lon="-1.29362">
        <ele>14.5</ele>
        <time>2020-06-15T09:31:36Z</time>
      </trkpt>
      <trkpt lat="49.68466" lon="-1.29359">
        <ele>14.5</ele>
        <time>2020-06-15T09:31:37Z</time>
      </trkpt>
      <trkpt lat="49.68468" lon="-1.29354">
        <ele>14.5</ele>
        <time>2020-06-15T09:31:38Z</time>
      </trkpt>
      <trkpt lat="49.68469" lon="-1.29353">
        <ele>14.5</ele>
        <time>2020-06-15T09:31:39Z</time>
      </trkpt>
      <trkpt lat="49.68473" lon="-1.29351">
        <ele>14.4</ele>
        <time>2020-06-15T09:31:40Z</time>
      </trkpt>
      <trkpt lat="49.68474" lon="-1.2935">
        <ele>14.4</ele>
        <time>2020-06-15T09:31:41Z</time>
      </trkpt>
      <trkpt lat="49.68478" lon="-1.29351">
        <ele>14.3</ele>
        <time>2020-06-15T09:31:42Z</time>
      </trkpt>
      <trkpt lat="49.68479" lon="-1.29352">
        <ele>14.3</ele>
        <time>2020-06-15T09:31:43Z</time>
      </trkpt>
      <trkpt lat="49.68483" lon="-1.29353">
        <ele>14.2</ele>
        <time>2020-06-15T09:31:44Z</time>
      </trkpt>
      <trkpt lat="49.68487" lon="-1.29353">
        <ele>14</ele>
        <time>2020-06-15T09:31:45Z</time>
      </trkpt>
      <trkpt lat="49.68492" lon="-1.29352">
        <ele>13.9</ele>
        <time>2020-06-15T09:31:46Z</time>
      </trkpt>
      <trkpt lat="49.68497" lon="-1.2935">
        <ele>13.8</ele>
        <time>2020-06-15T09:31:47Z</time>
      </trkpt>
      <trkpt lat="49.68501" lon="-1.29346">
        <ele>13.6</ele>
        <time>2020-06-15T09:31:48Z</time>
      </trkpt>
      <trkpt lat="49.68506" lon="-1.29342">
        <ele>13.5</ele>
        <time>2020-06-15T09:31:49Z</time>
      </trkpt>
      <trkpt lat="49.6851" lon="-1.29339">
        <ele>13.3</ele>
        <time>2020-06-15T09:31:50Z</time>
      </trkpt>
      <trkpt lat="49.68513" lon="-1.29335">
        <ele>13.2</ele>
        <time>2020-06-15T09:31:51Z</time>
      </trkpt>
      <trkpt lat="49.68517" lon="-1.29332">
        <ele>13.1</ele>
        <time>2020-06-15T09:31:52Z</time>
      </trkpt>
      <trkpt lat="49.68522" lon="-1.29329">
        <ele>12.9</ele>
        <time>2020-06-15T09:31:53Z</time>
      </trkpt>
      <trkpt lat="49.68528" lon="-1.29325">
        <ele>12.7</ele>
        <time>2020-06-15T09:31:54Z</time>
      </trkpt>
      <trkpt lat="49.68533" lon="-1.29321">
        <ele>12.6</ele>
        <time>2020-06-15T09:31:55Z</time>
      </trkpt>
      <trkpt lat="49.68538" lon="-1.29317">
        <ele>12.4</ele>
        <time>2020-06-15T09:31:56Z</time>
      </trkpt>
      <trkpt lat="49.68543" lon="-1.29312">
        <ele>12.3</ele>
        <time>2020-06-15T09:31:57Z</time>
      </trkpt>
      <trkpt lat="49.68547" lon="-1.29306">
        <ele>12.2</ele>
        <time>2020-06-15T09:31:58Z</time>
      </trkpt>
      <trkpt lat="49.68551" lon="-1.293">
        <ele>12</ele>
        <time>2020-06-15T09:31:59Z</time>
      </trkpt>
      <trkpt lat="49.68556" lon="-1.29294">
        <ele>11.9</ele>
        <time>2020-06-15T09:32:00Z</time>
      </trkpt>
      <trkpt lat="49.6856" lon="-1.29288">
        <ele>11.7</ele>
        <time>2020-06-15T09:32:01Z</time>
      </trkpt>
      <trkpt lat="49.68565" lon="-1.29283">
        <ele>11.6</ele>
        <time>2020-06-15T09:32:02Z</time>
      </trkpt>
      <trkpt lat="49.68571" lon="-1.29279">
        <ele>11.4</ele>
        <time>2020-06-15T09:32:03Z</time>
      </trkpt>
      <trkpt lat="49.68577" lon="-1.29271">
        <ele>11.2</ele>
        <time>2020-06-15T09:32:04Z</time>
      </trkpt>
      <trkpt lat="49.68583" lon="-1.29265">
        <ele>11</ele>
        <time>2020-06-15T09:32:05Z</time>
      </trkpt>
      <trkpt lat="49.68588" lon="-1.29257">
        <ele>10.9</ele>
        <time>2020-06-15T09:32:06Z</time>
      </trkpt>
      <trkpt lat="49.68593" lon="-1.29251">
        <ele>10.8</ele>
        <time>2020-06-15T09:32:07Z</time>
      </trkpt>
      <trkpt lat="49.68598" lon="-1.29243">
        <ele>10.8</ele>
        <time>2020-06-15T09:32:08Z</time>
      </trkpt>
      <trkpt lat="49.68603" lon="-1.29235">
        <ele>10.7</ele>
        <time>2020-06-15T09:32:09Z</time>
      </trkpt>
      <trkpt lat="49.68609" lon="-1.29227">
        <ele>10.8</ele>
        <time>2020-06-15T09:32:10Z</time>
      </trkpt>
      <trkpt lat="49.68615" lon="-1.29221">
        <ele>10.8</ele>
        <time>2020-06-15T09:32:11Z</time>
      </trkpt>
      <trkpt lat="49.6862" lon="-1.29214">
        <ele>10.9</ele>
        <time>2020-06-15T09:32:12Z</time>
      </trkpt>
      <trkpt lat="49.68625" lon="-1.29207">
        <ele>11</ele>
        <time>2020-06-15T09:32:13Z</time>
      </trkpt>
      <trkpt lat="49.68631" lon="-1.292">
        <ele>11.1</ele>
        <time>2020-06-15T09:32:14Z</time>
      </trkpt>
      <trkpt lat="49.68637" lon="-1.29195">
        <ele>11.2</ele>
        <time>2020-06-15T09:32:15Z</time>
      </trkpt>
      <trkpt lat="49.68643" lon="-1.29189">
        <ele>11.3</ele>
        <time>2020-06-15T09:32:16Z</time>
      </trkpt>
      <trkpt lat="49.6865" lon="-1.29184">
        <ele>11.4</ele>
        <time>2020-06-15T09:32:17Z</time>
      </trkpt>
      <trkpt lat="49.68656" lon="-1.29178">
        <ele>11.4</ele>
        <time>2020-06-15T09:32:18Z</time>
      </trkpt>
      <trkpt lat="49.68661" lon="-1.29172">
        <ele>11.5</ele>
        <time>2020-06-15T09:32:19Z</time>
      </trkpt>
      <trkpt lat="49.68665" lon="-1.29165">
        <ele>11.6</ele>
        <time>2020-06-15T09:32:20Z</time>
      </trkpt>
      <trkpt lat="49.6867" lon="-1.29161">
        <ele>11.6</ele>
        <time>2020-06-15T09:32:21Z</time>
      </trkpt>
      <trkpt lat="49.68675" lon="-1.29156">
        <ele>11.7</ele>
        <time>2020-06-15T09:32:22Z</time>
      </trkpt>
      <trkpt lat="49.6868" lon="-1.29149">
        <ele>11.8</ele>
        <time>2020-06-15T09:32:23Z</time>
      </trkpt>
      <trkpt lat="49.68684" lon="-1.29144">
        <ele>11.9</ele>
        <time>2020-06-15T09:32:24Z</time>
      </trkpt>
      <trkpt lat="49.68688" lon="-1.29137">
        <ele>12.1</ele>
        <time>2020-06-15T09:32:25Z</time>
      </trkpt>
      <trkpt lat="49.68693" lon="-1.29132">
        <ele>12.3</ele>
        <time>2020-06-15T09:32:26Z</time>
      </trkpt>
      <trkpt lat="49.68697" lon="-1.29125">
        <ele>12.4</ele>
        <time>2020-06-15T09:32:27Z</time>
      </trkpt>
      <trkpt lat="49.687" lon="-1.29119">
        <ele>12.6</ele>
        <time>2020-06-15T09:32:28Z</time>
      </trkpt>
      <trkpt lat="49.68704" lon="-1.29113">
        <ele>12.8</ele>
        <time>2020-06-15T09:32:29Z</time>
      </trkpt>
      <trkpt lat="49.68708" lon="-1.29106">
        <ele>12.9</ele>
        <time>2020-06-15T09:32:30Z</time>
      </trkpt>
      <trkpt lat="49.68714" lon="-1.29099">
        <ele>13.1</ele>
        <time>2020-06-15T09:32:31Z</time>
      </trkpt>
      <trkpt lat="49.68717" lon="-1.29094">
        <ele>13.3</ele>
        <time>2020-06-15T09:32:32Z</time>
      </trkpt>
      <trkpt lat="49.68722" lon="-1.29087">
        <ele>13.4</ele>
        <time>2020-06-15T09:32:33Z</time>
      </trkpt>
      <trkpt lat="49.68726" lon="-1.29081">
        <ele>13.6</ele>
        <time>2020-06-15T09:32:34Z</time>
      </trkpt>
      <trkpt lat="49.68729" lon="-1.29076">
        <ele>13.7</ele>
        <time>2020-06-15T09:32:35Z</time>
      </trkpt>
      <trkpt lat="49.68733" lon="-1.29071">
        <ele>13.8</ele>
        <time>2020-06-15T09:32:36Z</time>
      </trkpt>
      <trkpt lat="49.68737" lon="-1.29065">
        <ele>13.8</ele>
        <time>2020-06-15T09:32:37Z</time>
      </trkpt>
      <trkpt lat="49.68741" lon="-1.2906">
        <ele>13.9</ele>
        <time>2020-06-15T09:32:38Z</time>
      </trkpt>
      <trkpt lat="49.68744" lon="-1.29055">
        <ele>14</ele>
        <time>2020-06-15T09:32:39Z</time>
      </trkpt>
      <trkpt lat="49.68748" lon="-1.29049">
        <ele>14.1</ele>
        <time>2020-06-15T09:32:40Z</time>
      </trkpt>
      <trkpt lat="49.68751" lon="-1.29045">
        <ele>14.1</ele>
        <time>2020-06-15T09:32:41Z</time>
      </trkpt>
      <trkpt lat="49.68753" lon="-1.29039">
        <ele>14.2</ele>
        <time>2020-06-15T09:32:42Z</time>
      </trkpt>
      <trkpt lat="49.68756" lon="-1.29035">
        <ele>14.2</ele>
        <time>2020-06-15T09:32:43Z</time>
      </trkpt>
      <trkpt lat="49.6876" lon="-1.2903">
        <ele>14.3</ele>
        <time>2020-06-15T09:32:44Z</time>
      </trkpt>
      <trkpt lat="49.68762" lon="-1.29025">
        <ele>14.3</ele>
        <time>2020-06-15T09:32:45Z</time>
      </trkpt>
      <trkpt lat="49.68766" lon="-1.29019">
        <ele>14.4</ele>
        <time>2020-06-15T09:32:46Z</time>
      </trkpt>
      <trkpt lat="49.6877" lon="-1.29014">
        <ele>14.4</ele>
        <time>2020-06-15T09:32:47Z</time>
      </trkpt>
      <trkpt lat="49.68774" lon="-1.29008">
        <ele>14.3</ele>
        <time>2020-06-15T09:32:48Z</time>
      </trkpt>
      <trkpt lat="49.68777" lon="-1.29004">
        <ele>14.3</ele>
        <time>2020-06-15T09:32:49Z</time>
      </trkpt>
      <trkpt lat="49.68782" lon="-1.28999">
        <ele>14.3</ele>
        <time>2020-06-15T09:32:50Z</time>
      </trkpt>
      <trkpt lat="49.68785" lon="-1.28994">
        <ele>14.2</ele>
        <time>2020-06-15T09:32:51Z</time>
      </trkpt>
      <trkpt lat="49.68788" lon="-1.2899">
        <ele>14.2</ele>
        <time>2020-06-15T09:32:52Z</time>
      </trkpt>
      <trkpt lat="49.68794" lon="-1.28984">
        <ele>14.1</ele>
        <time>2020-06-15T09:32:53Z</time>
      </trkpt>
      <trkpt lat="49.68798" lon="-1.2898">
        <ele>14.1</ele>
        <time>2020-06-15T09:32:54Z</time>
      </trkpt>
      <trkpt lat="49.68801" lon="-1.28976">
        <ele>14</ele>
        <time>2020-06-15T09:32:55Z</time>
      </trkpt>
      <trkpt lat="49.68805" lon="-1.28971">
        <ele>14</ele>
        <time>2020-06-15T09:32:56Z</time>
      </trkpt>
      <trkpt lat="49.68808" lon="-1.28968">
        <ele>13.9</ele>
        <time>2020-06-15T09:32:57Z</time>
      </trkpt>
      <trkpt lat="49.68812" lon="-1.28963">
        <ele>13.9</ele>
        <time>2020-06-15T09:32:58Z</time>
      </trkpt>
      <trkpt lat="49.68814" lon="-1.28958">
        <ele>13.8</ele>
        <time>2020-06-15T09:32:59Z</time>
      </trkpt>
      <trkpt lat="49.68817" lon="-1.28955">
        <ele>13.7</ele>
        <time>2020-06-15T09:33:00Z</time>
      </trkpt>
      <trkpt lat="49.68821" lon="-1.28949">
        <ele>13.7</ele>
        <time>2020-06-15T09:33:01Z</time>
      </trkpt>
      <trkpt lat="49.68825" lon="-1.28943">
        <ele>13.6</ele>
        <time>2020-06-15T09:33:02Z</time>
      </trkpt>
      <trkpt lat="49.68829" lon="-1.2894">
        <ele>13.5</ele>
        <time>2020-06-15T09:33:03Z</time>
      </trkpt>
      <trkpt lat="49.68833" lon="-1.28936">
        <ele>13.4</ele>
        <time>2020-06-15T09:33:04Z</time>
      </trkpt>
      <trkpt lat="49.68836" lon="-1.28932">
        <ele>13.3</ele>
        <time>2020-06-15T09:33:05Z</time>
      </trkpt>
      <trkpt lat="49.68841" lon="-1.28927">
        <ele>13.2</ele>
        <time>2020-06-15T09:33:06Z</time>
      </trkpt>
      <trkpt lat="49.68844" lon="-1.28924">
        <ele>13.1</ele>
        <time>2020-06-15T09:33:07Z</time>
      </trkpt>
      <trkpt lat="49.68848" lon="-1.2892">
        <ele>13.1</ele>
        <time>2020-06-15T09:33:08Z</time>
      </trkpt>
      <trkpt lat="49.68853" lon="-1.28916">
        <ele>12.9</ele>
        <time>2020-06-15T09:33:09Z</time>
      </trkpt>
      <trkpt lat="49.68857" lon="-1.28911">
        <ele>12.7</ele>
        <time>2020-06-15T09:33:10Z</time>
      </trkpt>
      <trkpt lat="49.68861" lon="-1.28905">
        <ele>12.6</ele>
        <time>2020-06-15T09:33:11Z</time>
      </trkpt>
      <trkpt lat="49.68866" lon="-1.28898">
        <ele>12.2</ele>
        <time>2020-06-15T09:33:12Z</time>
      </trkpt>
      <trkpt lat="49.68869" lon="-1.28891">
        <ele>12</ele>
        <time>2020-06-15T09:33:13Z</time>
      </trkpt>
      <trkpt lat="49.68871" lon="-1.28884">
        <ele>11.7</ele>
        <time>2020-06-15T09:33:14Z</time>
      </trkpt>
      <trkpt lat="49.68875" lon="-1.28878">
        <ele>11.4</ele>
        <time>2020-06-15T09:33:15Z</time>
      </trkpt>
      <trkpt lat="49.68879" lon="-1.28873">
        <ele>11.2</ele>
        <time>2020-06-15T09:33:16Z</time>
      </trkpt>
      <trkpt lat="49.68884" lon="-1.28869">
        <ele>10.9</ele>
        <time>2020-06-15T09:33:17Z</time>
      </trkpt>
      <trkpt lat="49.68889" lon="-1.28864">
        <ele>10.8</ele>
        <time>2020-06-15T09:33:18Z</time>
      </trkpt>
      <trkpt lat="49.68894" lon="-1.28859">
        <ele>10.8</ele>
        <time>2020-06-15T09:33:19Z</time>
      </trkpt>
      <trkpt lat="49.68899" lon="-1.28852">
        <ele>10.6</ele>
        <time>2020-06-15T09:33:20Z</time>
      </trkpt>
      <trkpt lat="49.68905" lon="-1.28846">
        <ele>10.5</ele>
        <time>2020-06-15T09:33:21Z</time>
      </trkpt>
      <trkpt lat="49.68911" lon="-1.28841">
        <ele>10.3</ele>
        <time>2020-06-15T09:33:22Z</time>
      </trkpt>
      <trkpt lat="49.68916" lon="-1.28835">
        <ele>10.2</ele>
        <time>2020-06-15T09:33:23Z</time>
      </trkpt>
      <trkpt lat="49.68922" lon="-1.28829">
        <ele>10.1</ele>
        <time>2020-06-15T09:33:24Z</time>
      </trkpt>
      <trkpt lat="49.68928" lon="-1.28823">
        <ele>10</ele>
        <time>2020-06-15T09:33:25Z</time>
      </trkpt>
      <trkpt lat="49.68934" lon="-1.28818">
        <ele>10</ele>
        <time>2020-06-15T09:33:26Z</time>
      </trkpt>
      <trkpt lat="49.6894" lon="-1.28813">
        <ele>9.9</ele>
        <time>2020-06-15T09:33:27Z</time>
      </trkpt>
      <trkpt lat="49.68945" lon="-1.28808">
        <ele>9.9</ele>
        <time>2020-06-15T09:33:28Z</time>
      </trkpt>
      <trkpt lat="49.6895" lon="-1.28802">
        <ele>9.9</ele>
        <time>2020-06-15T09:33:29Z</time>
      </trkpt>
      <trkpt lat="49.68954" lon="-1.28798">
        <ele>9.8</ele>
        <time>2020-06-15T09:33:30Z</time>
      </trkpt>
      <trkpt lat="49.68959" lon="-1.28795">
        <ele>9.8</ele>
        <time>2020-06-15T09:33:31Z</time>
      </trkpt>
      <trkpt lat="49.68962" lon="-1.28791">
        <ele>9.8</ele>
        <time>2020-06-15T09:33:32Z</time>
      </trkpt>
      <trkpt lat="49.68966" lon="-1.28787">
        <ele>9.8</ele>
        <time>2020-06-15T09:33:33Z</time>
      </trkpt>
      <trkpt lat="49.68972" lon="-1.28783">
        <ele>9.9</ele>
        <time>2020-06-15T09:33:34Z</time>
      </trkpt>
      <trkpt lat="49.68976" lon="-1.2878">
        <ele>9.9</ele>
        <time>2020-06-15T09:33:35Z</time>
      </trkpt>
      <trkpt lat="49.68979" lon="-1.28778">
        <ele>9.9</ele>
        <time>2020-06-15T09:33:36Z</time>
      </trkpt>
      <trkpt lat="49.68983" lon="-1.28777">
        <ele>9.9</ele>
        <time>2020-06-15T09:33:37Z</time>
      </trkpt>
      <trkpt lat="49.68989" lon="-1.28778">
        <ele>9.8</ele>
        <time>2020-06-15T09:33:38Z</time>
      </trkpt>
      <trkpt lat="49.68992" lon="-1.28785">
        <ele>9.7</ele>
        <time>2020-06-15T09:33:39Z</time>
      </trkpt>
      <trkpt lat="49.68996" lon="-1.2879">
        <ele>9.6</ele>
        <time>2020-06-15T09:33:40Z</time>
      </trkpt>
      <trkpt lat="49.68999" lon="-1.28797">
        <ele>9.5</ele>
        <time>2020-06-15T09:33:41Z</time>
      </trkpt>
      <trkpt lat="49.69002" lon="-1.28803">
        <ele>9.3</ele>
        <time>2020-06-15T09:33:42Z</time>
      </trkpt>
      <trkpt lat="49.69005" lon="-1.28807">
        <ele>9.1</ele>
        <time>2020-06-15T09:33:43Z</time>
      </trkpt>
      <trkpt lat="49.69007" lon="-1.28813">
        <ele>8.8</ele>
        <time>2020-06-15T09:33:44Z</time>
      </trkpt>
      <trkpt lat="49.6901" lon="-1.28818">
        <ele>8.6</ele>
        <time>2020-06-15T09:33:45Z</time>
      </trkpt>
      <trkpt lat="49.69012" lon="-1.28823">
        <ele>8.4</ele>
        <time>2020-06-15T09:33:46Z</time>
      </trkpt>
      <trkpt lat="49.69017" lon="-1.2883">
        <ele>8</ele>
        <time>2020-06-15T09:33:47Z</time>
      </trkpt>
      <trkpt lat="49.69021" lon="-1.28834">
        <ele>7.7</ele>
        <time>2020-06-15T09:33:48Z</time>
      </trkpt>
      <trkpt lat="49.69025" lon="-1.2884">
        <ele>7.3</ele>
        <time>2020-06-15T09:33:49Z</time>
      </trkpt>
      <trkpt lat="49.69028" lon="-1.28843">
        <ele>7.1</ele>
        <time>2020-06-15T09:33:50Z</time>
      </trkpt>
      <trkpt lat="49.69033" lon="-1.28846">
        <ele>6.8</ele>
        <time>2020-06-15T09:33:51Z</time>
      </trkpt>
      <trkpt lat="49.69038" lon="-1.2885">
        <ele>6.5</ele>
        <time>2020-06-15T09:33:52Z</time>
      </trkpt>
      <trkpt lat="49.69043" lon="-1.28854">
        <ele>6.2</ele>
        <time>2020-06-15T09:33:53Z</time>
      </trkpt>
      <trkpt lat="49.69049" lon="-1.28859">
        <ele>5.7</ele>
        <time>2020-06-15T09:33:54Z</time>
      </trkpt>
      <trkpt lat="49.69057" lon="-1.28867">
        <ele>5</ele>
        <time>2020-06-15T09:33:55Z</time>
      </trkpt>
      <trkpt lat="49.69063" lon="-1.28874">
        <ele>4.4</ele>
        <time>2020-06-15T09:33:56Z</time>
      </trkpt>
      <trkpt lat="49.69069" lon="-1.2888">
        <ele>4</ele>
        <time>2020-06-15T09:33:57Z</time>
      </trkpt>
      <trkpt lat="49.69075" lon="-1.28885">
        <ele>3.5</ele>
        <time>2020-06-15T09:33:58Z</time>
      </trkpt>
      <trkpt lat="49.69081" lon="-1.2889">
        <ele>3.2</ele>
        <time>2020-06-15T09:33:59Z</time>
      </trkpt>
      <trkpt lat="49.69088" lon="-1.28895">
        <ele>3</ele>
        <time>2020-06-15T09:34:00Z</time>
      </trkpt>
      <trkpt lat="49.69094" lon="-1.28901">
        <ele>2.8</ele>
        <time>2020-06-15T09:34:01Z</time>
      </trkpt>
      <trkpt lat="49.69101" lon="-1.28907">
        <ele>2.7</ele>
        <time>2020-06-15T09:34:02Z</time>
      </trkpt>
      <trkpt lat="49.69107" lon="-1.28912">
        <ele>2.5</ele>
        <time>2020-06-15T09:34:03Z</time>
      </trkpt>
      <trkpt lat="49.69112" lon="-1.28917">
        <ele>2.5</ele>
        <time>2020-06-15T09:34:04Z</time>
      </trkpt>
      <trkpt lat="49.69116" lon="-1.28922">
        <ele>2.4</ele>
        <time>2020-06-15T09:34:05Z</time>
      </trkpt>
      <trkpt lat="49.6912" lon="-1.28927">
        <ele>2.4</ele>
        <time>2020-06-15T09:34:06Z</time>
      </trkpt>
      <trkpt lat="49.69124" lon="-1.28933">
        <ele>2.4</ele>
        <time>2020-06-15T09:34:07Z</time>
      </trkpt>
      <trkpt lat="49.69127" lon="-1.28938">
        <ele>2.5</ele>
        <time>2020-06-15T09:34:08Z</time>
      </trkpt>
      <trkpt lat="49.69129" lon="-1.28941">
        <ele>2.5</ele>
        <time>2020-06-15T09:34:09Z</time>
      </trkpt>
      <trkpt lat="49.69132" lon="-1.28941">
        <ele>2.5</ele>
        <time>2020-06-15T09:34:10Z</time>
      </trkpt>
      <trkpt lat="49.69134" lon="-1.28939">
        <ele>2.6</ele>
        <time>2020-06-15T09:34:11Z</time>
      </trkpt>
      <trkpt lat="49.69135" lon="-1.28933">
        <ele>2.6</ele>
        <time>2020-06-15T09:34:12Z</time>
      </trkpt>
      <trkpt lat="49.69135" lon="-1.28931">
        <ele>2.6</ele>
        <time>2020-06-15T09:34:13Z</time>
      </trkpt>
      <trkpt lat="49.69135" lon="-1.28926">
        <ele>2.7</ele>
        <time>2020-06-15T09:34:14Z</time>
      </trkpt>
      <trkpt lat="49.69135" lon="-1.28924">
        <ele>2.7</ele>
        <time>2020-06-15T09:34:15Z</time>
      </trkpt>
      <trkpt lat="49.69137" lon="-1.28919">
        <ele>2.8</ele>
        <time>2020-06-15T09:34:16Z</time>
      </trkpt>
      <trkpt lat="49.69138" lon="-1.28918">
        <ele>2.8</ele>
        <time>2020-06-15T09:34:17Z</time>
      </trkpt>
      <trkpt lat="49.6914" lon="-1.28913">
        <ele>2.9</ele>
        <time>2020-06-15T09:34:18Z</time>
      </trkpt>
      <trkpt lat="49.69142" lon="-1.2891">
        <ele>2.9</ele>
        <time>2020-06-15T09:34:19Z</time>
      </trkpt>
      <trkpt lat="49.69145" lon="-1.28906">
        <ele>3</ele>
        <time>2020-06-15T09:34:20Z</time>
      </trkpt>
      <trkpt lat="49.69147" lon="-1.28901">
        <ele>3.1</ele>
        <time>2020-06-15T09:34:21Z</time>
      </trkpt>
      <trkpt lat="49.6915" lon="-1.28896">
        <ele>3.2</ele>
        <time>2020-06-15T09:34:22Z</time>
      </trkpt>
      <trkpt lat="49.69153" lon="-1.28892">
        <ele>3.3</ele>
        <time>2020-06-15T09:34:23Z</time>
      </trkpt>
      <trkpt lat="49.69155" lon="-1.28886">
        <ele>3.4</ele>
        <time>2020-06-15T09:34:24Z</time>
      </trkpt>
      <trkpt lat="49.69157" lon="-1.28881">
        <ele>3.5</ele>
        <time>2020-06-15T09:34:25Z</time>
      </trkpt>
      <trkpt lat="49.69159" lon="-1.28875">
        <ele>3.7</ele>
        <time>2020-06-15T09:34:26Z</time>
      </trkpt>
      <trkpt lat="49.69161" lon="-1.2887">
        <ele>3.8</ele>
        <time>2020-06-15T09:34:27Z</time>
      </trkpt>
      <trkpt lat="49.69163" lon="-1.28866">
        <ele>4</ele>
        <time>2020-06-15T09:34:28Z</time>
      </trkpt>
      <trkpt lat="49.69165" lon="-1.28862">
        <ele>4.1</ele>
        <time>2020-06-15T09:34:29Z</time>
      </trkpt>
      <trkpt lat="49.69167" lon="-1.28856">
        <ele>4.3</ele>
        <time>2020-06-15T09:34:30Z</time>
      </trkpt>
      <trkpt lat="49.69169" lon="-1.28852">
        <ele>4.5</ele>
        <time>2020-06-15T09:34:31Z</time>
      </trkpt>
      <trkpt lat="49.69172" lon="-1.28847">
        <ele>4.7</ele>
        <time>2020-06-15T09:34:32Z</time>
      </trkpt>
      <trkpt lat="49.69173" lon="-1.28843">
        <ele>4.8</ele>
        <time>2020-06-15T09:34:33Z</time>
      </trkpt>
      <trkpt lat="49.69175" lon="-1.28838">
        <ele>5</ele>
        <time>2020-06-15T09:34:34Z</time>
      </trkpt>
      <trkpt lat="49.69177" lon="-1.28832">
        <ele>5.1</ele>
        <time>2020-06-15T09:34:35Z</time>
      </trkpt>
      <trkpt lat="49.6918" lon="-1.28826">
        <ele>5.3</ele>
        <time>2020-06-15T09:34:36Z</time>
      </trkpt>
      <trkpt lat="49.69182" lon="-1.2882">
        <ele>5.4</ele>
        <time>2020-06-15T09:34:37Z</time>
      </trkpt>
      <trkpt lat="49.69184" lon="-1.28814">
        <ele>5.5</ele>
        <time>2020-06-15T09:34:38Z</time>
      </trkpt>
      <trkpt lat="49.69187" lon="-1.2881">
        <ele>5.6</ele>
        <time>2020-06-15T09:34:39Z</time>
      </trkpt>
      <trkpt lat="49.69189" lon="-1.28805">
        <ele>5.7</ele>
        <time>2020-06-15T09:34:40Z</time>
      </trkpt>
      <trkpt lat="49.69192" lon="-1.288">
        <ele>5.8</ele>
        <time>2020-06-15T09:34:41Z</time>
      </trkpt>
      <trkpt lat="49.69195" lon="-1.28796">
        <ele>5.8</ele>
        <time>2020-06-15T09:34:42Z</time>
      </trkpt>
      <trkpt lat="49.69198" lon="-1.28791">
        <ele>5.9</ele>
        <time>2020-06-15T09:34:43Z</time>
      </trkpt>
      <trkpt lat="49.69201" lon="-1.28786">
        <ele>5.9</ele>
        <time>2020-06-15T09:34:44Z</time>
      </trkpt>
      <trkpt lat="49.69205" lon="-1.28781">
        <ele>6</ele>
        <time>2020-06-15T09:34:45Z</time>
      </trkpt>
      <trkpt lat="49.69207" lon="-1.28777">
        <ele>6</ele>
        <time>2020-06-15T09:34:46Z</time>
      </trkpt>
      <trkpt lat="49.6921" lon="-1.28772">
        <ele>6.1</ele>
        <time>2020-06-15T09:34:47Z</time>
      </trkpt>
      <trkpt lat="49.69214" lon="-1.28767">
        <ele>6.2</ele>
        <time>2020-06-15T09:34:48Z</time>
      </trkpt>
      <trkpt lat="49.69217" lon="-1.28761">
        <ele>6.3</ele>
        <time>2020-06-15T09:34:49Z</time>
      </trkpt>
      <trkpt lat="49.6922" lon="-1.28755">
        <ele>6.4</ele>
        <time>2020-06-15T09:34:50Z</time>
      </trkpt>
      <trkpt lat="49.69223" lon="-1.28751">
        <ele>6.4</ele>
        <time>2020-06-15T09:34:51Z</time>
      </trkpt>
      <trkpt lat="49.69226" lon="-1.28746">
        <ele>6.5</ele>
        <time>2020-06-15T09:34:52Z</time>
      </trkpt>
      <trkpt lat="49.6923" lon="-1.28741">
        <ele>6.6</ele>
        <time>2020-06-15T09:34:53Z</time>
      </trkpt>
      <trkpt lat="49.69232" lon="-1.28738">
        <ele>6.7</ele>
        <time>2020-06-15T09:34:54Z</time>
      </trkpt>
      <trkpt lat="49.69235" lon="-1.28732">
        <ele>6.7</ele>
        <time>2020-06-15T09:34:55Z</time>
      </trkpt>
      <trkpt lat="49.69238" lon="-1.28728">
        <ele>6.8</ele>
        <time>2020-06-15T09:34:56Z</time>
      </trkpt>
      <trkpt lat="49.69241" lon="-1.28722">
        <ele>6.9</ele>
        <time>2020-06-15T09:34:57Z</time>
      </trkpt>
      <trkpt lat="49.69244" lon="-1.28715">
        <ele>7</ele>
        <time>2020-06-15T09:34:58Z</time>
      </trkpt>
      <trkpt lat="49.69247" lon="-1.28707">
        <ele>7.1</ele>
        <time>2020-06-15T09:34:59Z</time>
      </trkpt>
      <trkpt lat="49.69249" lon="-1.28698">
        <ele>7.3</ele>
        <time>2020-06-15T09:35:00Z</time>
      </trkpt>
      <trkpt lat="49.69251" lon="-1.28691">
        <ele>7.4</ele>
        <time>2020-06-15T09:35:01Z</time>
      </trkpt>
      <trkpt lat="49.69253" lon="-1.28684">
        <ele>7.6</ele>
        <time>2020-06-15T09:35:02Z</time>
      </trkpt>
      <trkpt lat="49.69255" lon="-1.28677">
        <ele>7.7</ele>
        <time>2020-06-15T09:35:03Z</time>
      </trkpt>
      <trkpt lat="49.69256" lon="-1.28672">
        <ele>7.8</ele>
        <time>2020-06-15T09:35:04Z</time>
      </trkpt>
      <trkpt lat="49.69259" lon="-1.28668">
        <ele>7.9</ele>
        <time>2020-06-15T09:35:05Z</time>
      </trkpt>
      <trkpt lat="49.69261" lon="-1.28663">
        <ele>8</ele>
        <time>2020-06-15T09:35:06Z</time>
      </trkpt>
      <trkpt lat="49.69264" lon="-1.2866">
        <ele>8</ele>
        <time>2020-06-15T09:35:07Z</time>
      </trkpt>
      <trkpt lat="49.69267" lon="-1.28657">
        <ele>8</ele>
        <time>2020-06-15T09:35:08Z</time>
      </trkpt>
      <trkpt lat="49.6927" lon="-1.28654">
        <ele>8</ele>
        <time>2020-06-15T09:35:09Z</time>
      </trkpt>
      <trkpt lat="49.69274" lon="-1.28652">
        <ele>7.9</ele>
        <time>2020-06-15T09:35:10Z</time>
      </trkpt>
      <trkpt lat="49.69278" lon="-1.2865">
        <ele>7.8</ele>
        <time>2020-06-15T09:35:11Z</time>
      </trkpt>
      <trkpt lat="49.69282" lon="-1.28646">
        <ele>7.7</ele>
        <time>2020-06-15T09:35:12Z</time>
      </trkpt>
      <trkpt lat="49.69286" lon="-1.28643">
        <ele>7.6</ele>
        <time>2020-06-15T09:35:13Z</time>
      </trkpt>
      <trkpt lat="49.69291" lon="-1.28639">
        <ele>7.4</ele>
        <time>2020-06-15T09:35:14Z</time>
      </trkpt>
      <trkpt lat="49.69295" lon="-1.28635">
        <ele>7.2</ele>
        <time>2020-06-15T09:35:15Z</time>
      </trkpt>
      <trkpt lat="49.69298" lon="-1.28631">
        <ele>7.1</ele>
        <time>2020-06-15T09:35:16Z</time>
      </trkpt>
      <trkpt lat="49.69302" lon="-1.28626">
        <ele>6.9</ele>
        <time>2020-06-15T09:35:17Z</time>
      </trkpt>
      <trkpt lat="49.69305" lon="-1.2862">
        <ele>6.8</ele>
        <time>2020-06-15T09:35:18Z</time>
      </trkpt>
      <trkpt lat="49.69309" lon="-1.28614">
        <ele>6.6</ele>
        <time>2020-06-15T09:35:19Z</time>
      </trkpt>
      <trkpt lat="49.69312" lon="-1.28609">
        <ele>6.4</ele>
        <time>2020-06-15T09:35:20Z</time>
      </trkpt>
      <trkpt lat="49.69316" lon="-1.28603">
        <ele>6.3</ele>
        <time>2020-06-15T09:35:21Z</time>
      </trkpt>
      <trkpt lat="49.69319" lon="-1.28595">
        <ele>6.1</ele>
        <time>2020-06-15T09:35:22Z</time>
      </trkpt>
      <trkpt lat="49.69322" lon="-1.28589">
        <ele>5.9</ele>
        <time>2020-06-15T09:35:23Z</time>
      </trkpt>
      <trkpt lat="49.69325" lon="-1.2858">
        <ele>5.7</ele>
        <time>2020-06-15T09:35:24Z</time>
      </trkpt>
      <trkpt lat="49.69328" lon="-1.28571">
        <ele>5.4</ele>
        <time>2020-06-15T09:35:25Z</time>
      </trkpt>
      <trkpt lat="49.6933" lon="-1.28563">
        <ele>5.3</ele>
        <time>2020-06-15T09:35:26Z</time>
      </trkpt>
      <trkpt lat="49.69332" lon="-1.28553">
        <ele>5.1</ele>
        <time>2020-06-15T09:35:27Z</time>
      </trkpt>
      <trkpt lat="49.69334" lon="-1.28544">
        <ele>4.9</ele>
        <time>2020-06-15T09:35:28Z</time>
      </trkpt>
      <trkpt lat="49.69334" lon="-1.28533">
        <ele>4.8</ele>
        <time>2020-06-15T09:35:29Z</time>
      </trkpt>
      <trkpt lat="49.69334" lon="-1.28523">
        <ele>4.7</ele>
        <time>2020-06-15T09:35:30Z</time>
      </trkpt>
      <trkpt lat="49.69334" lon="-1.28512">
        <ele>4.6</ele>
        <time>2020-06-15T09:35:31Z</time>
      </trkpt>
      <trkpt lat="49.69334" lon="-1.28503">
        <ele>4.5</ele>
        <time>2020-06-15T09:35:32Z</time>
      </trkpt>
      <trkpt lat="49.69334" lon="-1.28493">
        <ele>4.4</ele>
        <time>2020-06-15T09:35:33Z</time>
      </trkpt>
      <trkpt lat="49.69334" lon="-1.28482">
        <ele>4.3</ele>
        <time>2020-06-15T09:35:34Z</time>
      </trkpt>
      <trkpt lat="49.69333" lon="-1.28473">
        <ele>4.2</ele>
        <time>2020-06-15T09:35:35Z</time>
      </trkpt>
      <trkpt lat="49.69334" lon="-1.28463">
        <ele>4.2</ele>
        <time>2020-06-15T09:35:36Z</time>
      </trkpt>
      <trkpt lat="49.69334" lon="-1.28453">
        <ele>4.1</ele>
        <time>2020-06-15T09:35:37Z</time>
      </trkpt>
      <trkpt lat="49.69334" lon="-1.28443">
        <ele>4.1</ele>
        <time>2020-06-15T09:35:38Z</time>
      </trkpt>
      <trkpt lat="49.69335" lon="-1.28435">
        <ele>4.1</ele>
        <time>2020-06-15T09:35:39Z</time>
      </trkpt>
      <trkpt lat="49.69336" lon="-1.28426">
        <ele>4.1</ele>
        <time>2020-06-15T09:35:40Z</time>
      </trkpt>
      <trkpt lat="49.69337" lon="-1.28418">
        <ele>4</ele>
        <time>2020-06-15T09:35:41Z</time>
      </trkpt>
      <trkpt lat="49.69338" lon="-1.28411">
        <ele>4</ele>
        <time>2020-06-15T09:35:42Z</time>
      </trkpt>
      <trkpt lat="49.69339" lon="-1.28404">
        <ele>4</ele>
        <time>2020-06-15T09:35:43Z</time>
      </trkpt>
      <trkpt lat="49.6934" lon="-1.28395">
        <ele>4</ele>
        <time>2020-06-15T09:35:44Z</time>
      </trkpt>
      <trkpt lat="49.69342" lon="-1.28387">
        <ele>4</ele>
        <time>2020-06-15T09:35:45Z</time>
      </trkpt>
      <trkpt lat="49.69343" lon="-1.28378">
        <ele>4</ele>
        <time>2020-06-15T09:35:46Z</time>
      </trkpt>
      <trkpt lat="49.69345" lon="-1.28372">
        <ele>4</ele>
        <time>2020-06-15T09:35:47Z</time>
      </trkpt>
      <trkpt lat="49.69347" lon="-1.28364">
        <ele>4</ele>
        <time>2020-06-15T09:35:48Z</time>
      </trkpt>
      <trkpt lat="49.6935" lon="-1.28355">
        <ele>4</ele>
        <time>2020-06-15T09:35:49Z</time>
      </trkpt>
      <trkpt lat="49.69352" lon="-1.28349">
        <ele>3.9</ele>
        <time>2020-06-15T09:35:50Z</time>
      </trkpt>
      <trkpt lat="49.69354" lon="-1.28341">
        <ele>3.9</ele>
        <time>2020-06-15T09:35:51Z</time>
      </trkpt>
      <trkpt lat="49.69356" lon="-1.28333">
        <ele>3.8</ele>
        <time>2020-06-15T09:35:52Z</time>
      </trkpt>
      <trkpt lat="49.69359" lon="-1.28325">
        <ele>3.8</ele>
        <time>2020-06-15T09:35:53Z</time>
      </trkpt>
      <trkpt lat="49.69361" lon="-1.28318">
        <ele>3.7</ele>
        <time>2020-06-15T09:35:54Z</time>
      </trkpt>
      <trkpt lat="49.69364" lon="-1.28311">
        <ele>3.7</ele>
        <time>2020-06-15T09:35:55Z</time>
      </trkpt>
      <trkpt lat="49.69367" lon="-1.28301">
        <ele>3.7</ele>
        <time>2020-06-15T09:35:56Z</time>
      </trkpt>
      <trkpt lat="49.6937" lon="-1.28293">
        <ele>3.6</ele>
        <time>2020-06-15T09:35:57Z</time>
      </trkpt>
      <trkpt lat="49.69373" lon="-1.28284">
        <ele>3.6</ele>
        <time>2020-06-15T09:35:58Z</time>
      </trkpt>
      <trkpt lat="49.69376" lon="-1.28276">
        <ele>3.5</ele>
        <time>2020-06-15T09:35:59Z</time>
      </trkpt>
      <trkpt lat="49.69379" lon="-1.28267">
        <ele>3.5</ele>
        <time>2020-06-15T09:36:00Z</time>
      </trkpt>
      <trkpt lat="49.69382" lon="-1.28259">
        <ele>3.5</ele>
        <time>2020-06-15T09:36:01Z</time>
      </trkpt>
      <trkpt lat="49.69384" lon="-1.2825">
        <ele>3.5</ele>
        <time>2020-06-15T09:36:02Z</time>
      </trkpt>
      <trkpt lat="49.69387" lon="-1.28241">
        <ele>3.5</ele>
        <time>2020-06-15T09:36:03Z</time>
      </trkpt>
      <trkpt lat="49.69389" lon="-1.28233">
        <ele>3.5</ele>
        <time>2020-06-15T09:36:04Z</time>
      </trkpt>
      <trkpt lat="49.69391" lon="-1.28225">
        <ele>3.5</ele>
        <time>2020-06-15T09:36:05Z</time>
      </trkpt>
      <trkpt lat="49.69394" lon="-1.28216">
        <ele>3.5</ele>
        <time>2020-06-15T09:36:06Z</time>
      </trkpt>
      <trkpt lat="49.69396" lon="-1.28208">
        <ele>3.5</ele>
        <time>2020-06-15T09:36:07Z</time>
      </trkpt>
      <trkpt lat="49.69398" lon="-1.28199">
        <ele>3.6</ele>
        <time>2020-06-15T09:36:08Z</time>
      </trkpt>
      <trkpt lat="49.694" lon="-1.28191">
        <ele>3.6</ele>
        <time>2020-06-15T09:36:09Z</time>
      </trkpt>
      <trkpt lat="49.69402" lon="-1.28184">
        <ele>3.6</ele>
        <time>2020-06-15T09:36:10Z</time>
      </trkpt>
      <trkpt lat="49.69404" lon="-1.28176">
        <ele>3.5</ele>
        <time>2020-06-15T09:36:11Z</time>
      </trkpt>
      <trkpt lat="49.69406" lon="-1.28168">
        <ele>3.5</ele>
        <time>2020-06-15T09:36:12Z</time>
      </trkpt>
      <trkpt lat="49.69408" lon="-1.28159">
        <ele>3.5</ele>
        <time>2020-06-15T09:36:13Z</time>
      </trkpt>
      <trkpt lat="49.6941" lon="-1.28152">
        <ele>3.4</ele>
        <time>2020-06-15T09:36:14Z</time>
      </trkpt>
      <trkpt lat="49.69412" lon="-1.28142">
        <ele>3.4</ele>
        <time>2020-06-15T09:36:15Z</time>
      </trkpt>
      <trkpt lat="49.69414" lon="-1.28134">
        <ele>3.3</ele>
        <time>2020-06-15T09:36:16Z</time>
      </trkpt>
      <trkpt lat="49.69415" lon="-1.28126">
        <ele>3.3</ele>
        <time>2020-06-15T09:36:17Z</time>
      </trkpt>
      <trkpt lat="49.69415" lon="-1.28119">
        <ele>3.2</ele>
        <time>2020-06-15T09:36:18Z</time>
      </trkpt>
      <trkpt lat="49.69414" lon="-1.28112">
        <ele>3.2</ele>
        <time>2020-06-15T09:36:19Z</time>
      </trkpt>
      <trkpt lat="49.69413" lon="-1.28103">
        <ele>3.1</ele>
        <time>2020-06-15T09:36:20Z</time>
      </trkpt>
      <trkpt lat="49.69413" lon="-1.28094">
        <ele>3.1</ele>
        <time>2020-06-15T09:36:21Z</time>
      </trkpt>
      <trkpt lat="49.69411" lon="-1.28086">
        <ele>3.1</ele>
        <time>2020-06-15T09:36:22Z</time>
      </trkpt>
      <trkpt lat="49.6941" lon="-1.28076">
        <ele>3.1</ele>
        <time>2020-06-15T09:36:23Z</time>
      </trkpt>
      <trkpt lat="49.6941" lon="-1.28067">
        <ele>3.1</ele>
        <time>2020-06-15T09:36:24Z</time>
      </trkpt>
      <trkpt lat="49.6941" lon="-1.28058">
        <ele>3</ele>
        <time>2020-06-15T09:36:25Z</time>
      </trkpt>
      <trkpt lat="49.6941" lon="-1.28049">
        <ele>3</ele>
        <time>2020-06-15T09:36:26Z</time>
      </trkpt>
      <trkpt lat="49.6941" lon="-1.28039">
        <ele>3</ele>
        <time>2020-06-15T09:36:27Z</time>
      </trkpt>
      <trkpt lat="49.6941" lon="-1.28032">
        <ele>2.9</ele>
        <time>2020-06-15T09:36:28Z</time>
      </trkpt>
      <trkpt lat="49.6941" lon="-1.28024">
        <ele>2.9</ele>
        <time>2020-06-15T09:36:29Z</time>
      </trkpt>
      <trkpt lat="49.6941" lon="-1.28017">
        <ele>2.9</ele>
        <time>2020-06-15T09:36:30Z</time>
      </trkpt>
      <trkpt lat="49.6941" lon="-1.28009">
        <ele>2.8</ele>
        <time>2020-06-15T09:36:31Z</time>
      </trkpt>
      <trkpt lat="49.6941" lon="-1.27999">
        <ele>2.8</ele>
        <time>2020-06-15T09:36:32Z</time>
      </trkpt>
      <trkpt lat="49.6941" lon="-1.2799">
        <ele>2.8</ele>
        <time>2020-06-15T09:36:33Z</time>
      </trkpt>
      <trkpt lat="49.6941" lon="-1.27982">
        <ele>2.8</ele>
        <time>2020-06-15T09:36:34Z</time>
      </trkpt>
      <trkpt lat="49.69411" lon="-1.27974">
        <ele>2.7</ele>
        <time>2020-06-15T09:36:35Z</time>
      </trkpt>
      <trkpt lat="49.69411" lon="-1.27965">
        <ele>2.6</ele>
        <time>2020-06-15T09:36:36Z</time>
      </trkpt>
      <trkpt lat="49.69411" lon="-1.27957">
        <ele>2.5</ele>
        <time>2020-06-15T09:36:37Z</time>
      </trkpt>
      <trkpt lat="49.69412" lon="-1.27949">
        <ele>2.5</ele>
        <time>2020-06-15T09:36:38Z</time>
      </trkpt>
      <trkpt lat="49.69412" lon="-1.27942">
        <ele>2.4</ele>
        <time>2020-06-15T09:36:39Z</time>
      </trkpt>
      <trkpt lat="49.6941" lon="-1.27937">
        <ele>2.3</ele>
        <time>2020-06-15T09:36:40Z</time>
      </trkpt>
      <trkpt lat="49.69407" lon="-1.27933">
        <ele>2.2</ele>
        <time>2020-06-15T09:36:41Z</time>
      </trkpt>
      <trkpt lat="49.69403" lon="-1.27932">
        <ele>2.1</ele>
        <time>2020-06-15T09:36:42Z</time>
      </trkpt>
      <trkpt lat="49.69397" lon="-1.27932">
        <ele>2</ele>
        <time>2020-06-15T09:36:43Z</time>
      </trkpt>
      <trkpt lat="49.69391" lon="-1.27931">
        <ele>2</ele>
        <time>2020-06-15T09:36:44Z</time>
      </trkpt>
      <trkpt lat="49.69385" lon="-1.27929">
        <ele>2</ele>
        <time>2020-06-15T09:36:45Z</time>
      </trkpt>
      <trkpt lat="49.69379" lon="-1.27927">
        <ele>2</ele>
        <time>2020-06-15T09:36:46Z</time>
      </trkpt>
      <trkpt lat="49.69373" lon="-1.27927">
        <ele>2</ele>
        <time>2020-06-15T09:36:47Z</time>
      </trkpt>
      <trkpt lat="49.69368" lon="-1.27927">
        <ele>2</ele>
        <time>2020-06-15T09:36:48Z</time>
      </trkpt>
      <trkpt lat="49.69363" lon="-1.27927">
        <ele>2</ele>
        <time>2020-06-15T09:36:49Z</time>
      </trkpt>
      <trkpt lat="49.69358" lon="-1.27926">
        <ele>2</ele>
        <time>2020-06-15T09:36:50Z</time>
      </trkpt>
      <trkpt lat="49.69353" lon="-1.27924">
        <ele>2.1</ele>
        <time>2020-06-15T09:36:51Z</time>
      </trkpt>
      <trkpt lat="49.69348" lon="-1.27923">
        <ele>2.1</ele>
        <time>2020-06-15T09:36:52Z</time>
      </trkpt>
      <trkpt lat="49.69344" lon="-1.27924">
        <ele>2.2</ele>
        <time>2020-06-15T09:36:53Z</time>
      </trkpt>
      <trkpt lat="49.69338" lon="-1.27926">
        <ele>2.3</ele>
        <time>2020-06-15T09:36:54Z</time>
      </trkpt>
      <trkpt lat="49.69333" lon="-1.27928">
        <ele>2.4</ele>
        <time>2020-06-15T09:36:55Z</time>
      </trkpt>
      <trkpt lat="49.69329" lon="-1.2793">
        <ele>2.4</ele>
        <time>2020-06-15T09:36:56Z</time>
      </trkpt>
      <trkpt lat="49.69324" lon="-1.27932">
        <ele>2.5</ele>
        <time>2020-06-15T09:36:57Z</time>
      </trkpt>
      <trkpt lat="49.6932" lon="-1.27932">
        <ele>2.6</ele>
        <time>2020-06-15T09:36:58Z</time>
      </trkpt>
      <trkpt lat="49.69316" lon="-1.27933">
        <ele>2.6</ele>
        <time>2020-06-15T09:36:59Z</time>
      </trkpt>
      <trkpt lat="49.69312" lon="-1.27934">
        <ele>2.6</ele>
        <time>2020-06-15T09:37:00Z</time>
      </trkpt>
      <trkpt lat="49.69308" lon="-1.27936">
        <ele>2.6</ele>
        <time>2020-06-15T09:37:01Z</time>
      </trkpt>
      <trkpt lat="49.69304" lon="-1.27936">
        <ele>2.6</ele>
        <time>2020-06-15T09:37:02Z</time>
      </trkpt>
      <trkpt lat="49.693" lon="-1.27937">
        <ele>2.6</ele>
        <time>2020-06-15T09:37:03Z</time>
      </trkpt>
      <trkpt lat="49.69296" lon="-1.27936">
        <ele>2.5</ele>
        <time>2020-06-15T09:37:04Z</time>
      </trkpt>
      <trkpt lat="49.69291" lon="-1.27937">
        <ele>2.3</ele>
        <time>2020-06-15T09:37:05Z</time>
      </trkpt>
      <trkpt lat="49.69285" lon="-1.27936">
        <ele>2.1</ele>
        <time>2020-06-15T09:37:06Z</time>
      </trkpt>
      <trkpt lat="49.69279" lon="-1.27937">
        <ele>1.8</ele>
        <time>2020-06-15T09:37:07Z</time>
      </trkpt>
      <trkpt lat="49.69273" lon="-1.27938">
        <ele>1.2</ele>
        <time>2020-06-15T09:37:08Z</time>
      </trkpt>
      <trkpt lat="49.69268" lon="-1.27937">
        <ele>1.2</ele>
        <time>2020-06-15T09:37:09Z</time>
      </trkpt>
      <trkpt lat="49.69262" lon="-1.27937">
        <ele>1.2</ele>
        <time>2020-06-15T09:37:10Z</time>
      </trkpt>
      <trkpt lat="49.69258" lon="-1.27937">
        <ele>1.2</ele>
        <time>2020-06-15T09:37:11Z</time>
      </trkpt>
      <trkpt lat="49.69254" lon="-1.27935">
        <ele>1.3</ele>
        <time>2020-06-15T09:37:12Z</time>
      </trkpt>
      <trkpt lat="49.6925" lon="-1.27929">
        <ele>1.3</ele>
        <time>2020-06-15T09:37:13Z</time>
      </trkpt>
      <trkpt lat="49.69247" lon="-1.27924">
        <ele>1.3</ele>
        <time>2020-06-15T09:37:14Z</time>
      </trkpt>
      <trkpt lat="49.69244" lon="-1.27917">
        <ele>1.3</ele>
        <time>2020-06-15T09:37:15Z</time>
      </trkpt>
      <trkpt lat="49.69242" lon="-1.2791">
        <ele>1.4</ele>
        <time>2020-06-15T09:37:16Z</time>
      </trkpt>
      <trkpt lat="49.6924" lon="-1.27903">
        <ele>1.4</ele>
        <time>2020-06-15T09:37:17Z</time>
      </trkpt>
      <trkpt lat="49.69238" lon="-1.27895">
        <ele>1.5</ele>
        <time>2020-06-15T09:37:18Z</time>
      </trkpt>
      <trkpt lat="49.69236" lon="-1.27889">
        <ele>1.5</ele>
        <time>2020-06-15T09:37:19Z</time>
      </trkpt>
      <trkpt lat="49.69234" lon="-1.27882">
        <ele>1.5</ele>
        <time>2020-06-15T09:37:20Z</time>
      </trkpt>
      <trkpt lat="49.69233" lon="-1.27875">
        <ele>1.6</ele>
        <time>2020-06-15T09:37:21Z</time>
      </trkpt>
      <trkpt lat="49.69231" lon="-1.27868">
        <ele>1.6</ele>
        <time>2020-06-15T09:37:22Z</time>
      </trkpt>
      <trkpt lat="49.6923" lon="-1.27861">
        <ele>1.7</ele>
        <time>2020-06-15T09:37:23Z</time>
      </trkpt>
      <trkpt lat="49.6923" lon="-1.27854">
        <ele>1.7</ele>
        <time>2020-06-15T09:37:24Z</time>
      </trkpt>
      <trkpt lat="49.69228" lon="-1.27847">
        <ele>1.8</ele>
        <time>2020-06-15T09:37:25Z</time>
      </trkpt>
      <trkpt lat="49.69226" lon="-1.27841">
        <ele>1.8</ele>
        <time>2020-06-15T09:37:26Z</time>
      </trkpt>
      <trkpt lat="49.69224" lon="-1.27835">
        <ele>1.9</ele>
        <time>2020-06-15T09:37:27Z</time>
      </trkpt>
      <trkpt lat="49.69223" lon="-1.27829">
        <ele>2</ele>
        <time>2020-06-15T09:37:28Z</time>
      </trkpt>
      <trkpt lat="49.69221" lon="-1.27823">
        <ele>2</ele>
        <time>2020-06-15T09:37:29Z</time>
      </trkpt>
      <trkpt lat="49.6922" lon="-1.27815">
        <ele>2.1</ele>
        <time>2020-06-15T09:37:30Z</time>
      </trkpt>
      <trkpt lat="49.69218" lon="-1.27809">
        <ele>2.2</ele>
        <time>2020-06-15T09:37:31Z</time>
      </trkpt>
      <trkpt lat="49.69217" lon="-1.27802">
        <ele>2.3</ele>
        <time>2020-06-15T09:37:32Z</time>
      </trkpt>
      <trkpt lat="49.69215" lon="-1.27795">
        <ele>2.4</ele>
        <time>2020-06-15T09:37:33Z</time>
      </trkpt>
      <trkpt lat="49.69214" lon="-1.27788">
        <ele>2.5</ele>
        <time>2020-06-15T09:37:34Z</time>
      </trkpt>
      <trkpt lat="49.69212" lon="-1.27782">
        <ele>2.6</ele>
        <time>2020-06-15T09:37:35Z</time>
      </trkpt>
      <trkpt lat="49.69211" lon="-1.27776">
        <ele>2.7</ele>
        <time>2020-06-15T09:37:36Z</time>
      </trkpt>
      <trkpt lat="49.6921" lon="-1.2777">
        <ele>2.8</ele>
        <time>2020-06-15T09:37:37Z</time>
      </trkpt>
      <trkpt lat="49.6921" lon="-1.27766">
        <ele>2.9</ele>
        <time>2020-06-15T09:37:38Z</time>
      </trkpt>
      <trkpt lat="49.69209" lon="-1.27762">
        <ele>3</ele>
        <time>2020-06-15T09:37:39Z</time>
      </trkpt>
      <trkpt lat="49.69208" lon="-1.27757">
        <ele>3.1</ele>
        <time>2020-06-15T09:37:40Z</time>
      </trkpt>
      <trkpt lat="49.69208" lon="-1.27754">
        <ele>3</ele>
        <time>2020-06-15T09:37:41Z</time>
      </trkpt>
      <trkpt lat="49.69209" lon="-1.27752">
        <ele>3</ele>
        <time>2020-06-15T09:37:42Z</time>
      </trkpt>
      <trkpt lat="49.69212" lon="-1.27748">
        <ele>2.9</ele>
        <time>2020-06-15T09:37:43Z</time>
      </trkpt>
      <trkpt lat="49.69213" lon="-1.27748">
        <ele>2.9</ele>
        <time>2020-06-15T09:37:44Z</time>
      </trkpt>
      <trkpt lat="49.69218" lon="-1.27746">
        <ele>2.8</ele>
        <time>2020-06-15T09:37:45Z</time>
      </trkpt>
      <trkpt lat="49.69222" lon="-1.27743">
        <ele>2.6</ele>
        <time>2020-06-15T09:37:46Z</time>
      </trkpt>
      <trkpt lat="49.69227" lon="-1.27741">
        <ele>2.5</ele>
        <time>2020-06-15T09:37:47Z</time>
      </trkpt>
      <trkpt lat="49.69232" lon="-1.2774">
        <ele>2.4</ele>
        <time>2020-06-15T09:37:48Z</time>
      </trkpt>
      <trkpt lat="49.69236" lon="-1.27738">
        <ele>2.3</ele>
        <time>2020-06-15T09:37:49Z</time>
      </trkpt>
      <trkpt lat="49.6924" lon="-1.27736">
        <ele>2.2</ele>
        <time>2020-06-15T09:37:50Z</time>
      </trkpt>
      <trkpt lat="49.69245" lon="-1.27735">
        <ele>2.2</ele>
        <time>2020-06-15T09:37:51Z</time>
      </trkpt>
      <trkpt lat="49.69249" lon="-1.27736">
        <ele>2.1</ele>
        <time>2020-06-15T09:37:52Z</time>
      </trkpt>
      <trkpt lat="49.69254" lon="-1.27736">
        <ele>2</ele>
        <time>2020-06-15T09:37:53Z</time>
      </trkpt>
      <trkpt lat="49.69259" lon="-1.27738">
        <ele>1.9</ele>
        <time>2020-06-15T09:37:54Z</time>
      </trkpt>
      <trkpt lat="49.69264" lon="-1.27739">
        <ele>1.9</ele>
        <time>2020-06-15T09:37:55Z</time>
      </trkpt>
      <trkpt lat="49.6927" lon="-1.27739">
        <ele>1.8</ele>
        <time>2020-06-15T09:37:56Z</time>
      </trkpt>
      <trkpt lat="49.69275" lon="-1.27739">
        <ele>1.8</ele>
        <time>2020-06-15T09:37:57Z</time>
      </trkpt>
      <trkpt lat="49.6928" lon="-1.27737">
        <ele>1.8</ele>
        <time>2020-06-15T09:37:58Z</time>
      </trkpt>
      <trkpt lat="49.69285" lon="-1.27735">
        <ele>1.8</ele>
        <time>2020-06-15T09:37:59Z</time>
      </trkpt>
      <trkpt lat="49.6929" lon="-1.27734">
        <ele>1.8</ele>
        <time>2020-06-15T09:38:00Z</time>
      </trkpt>
      <trkpt lat="49.69295" lon="-1.27732">
        <ele>1.8</ele>
        <time>2020-06-15T09:38:01Z</time>
      </trkpt>
      <trkpt lat="49.693" lon="-1.2773">
        <ele>1.8</ele>
        <time>2020-06-15T09:38:02Z</time>
      </trkpt>
      <trkpt lat="49.69305" lon="-1.27727">
        <ele>1.8</ele>
        <time>2020-06-15T09:38:03Z</time>
      </trkpt>
      <trkpt lat="49.6931" lon="-1.27724">
        <ele>1.8</ele>
        <time>2020-06-15T09:38:04Z</time>
      </trkpt>
      <trkpt lat="49.69314" lon="-1.27721">
        <ele>1.8</ele>
        <time>2020-06-15T09:38:05Z</time>
      </trkpt>
      <trkpt lat="49.69319" lon="-1.27718">
        <ele>1.8</ele>
        <time>2020-06-15T09:38:06Z</time>
      </trkpt>
      <trkpt lat="49.69324" lon="-1.27714">
        <ele>1.8</ele>
        <time>2020-06-15T09:38:07Z</time>
      </trkpt>
      <trkpt lat="49.69328" lon="-1.2771">
        <ele>1.8</ele>
        <time>2020-06-15T09:38:08Z</time>
      </trkpt>
      <trkpt lat="49.69333" lon="-1.27705">
        <ele>1.8</ele>
        <time>2020-06-15T09:38:09Z</time>
      </trkpt>
      <trkpt lat="49.69338" lon="-1.277">
        <ele>1.8</ele>
        <time>2020-06-15T09:38:10Z</time>
      </trkpt>
      <trkpt lat="49.69342" lon="-1.27696">
        <ele>1.9</ele>
        <time>2020-06-15T09:38:11Z</time>
      </trkpt>
      <trkpt lat="49.69347" lon="-1.27691">
        <ele>1.9</ele>
        <time>2020-06-15T09:38:12Z</time>
      </trkpt>
      <trkpt lat="49.69352" lon="-1.27687">
        <ele>1.8</ele>
        <time>2020-06-15T09:38:13Z</time>
      </trkpt>
      <trkpt lat="49.69357" lon="-1.27681">
        <ele>1.8</ele>
        <time>2020-06-15T09:38:14Z</time>
      </trkpt>
      <trkpt lat="49.69362" lon="-1.27678">
        <ele>1.8</ele>
        <time>2020-06-15T09:38:15Z</time>
      </trkpt>
      <trkpt lat="49.69366" lon="-1.27673">
        <ele>1.8</ele>
        <time>2020-06-15T09:38:16Z</time>
      </trkpt>
      <trkpt lat="49.69371" lon="-1.27669">
        <ele>1.7</ele>
        <time>2020-06-15T09:38:17Z</time>
      </trkpt>
      <trkpt lat="49.69375" lon="-1.27663">
        <ele>1.7</ele>
        <time>2020-06-15T09:38:18Z</time>
      </trkpt>
      <trkpt lat="49.6938" lon="-1.27658">
        <ele>1.7</ele>
        <time>2020-06-15T09:38:19Z</time>
      </trkpt>
      <trkpt lat="49.69385" lon="-1.27652">
        <ele>1.6</ele>
        <time>2020-06-15T09:38:20Z</time>
      </trkpt>
      <trkpt lat="49.6939" lon="-1.27646">
        <ele>1.5</ele>
        <time>2020-06-15T09:38:21Z</time>
      </trkpt>
      <trkpt lat="49.69394" lon="-1.27641">
        <ele>1.5</ele>
        <time>2020-06-15T09:38:22Z</time>
      </trkpt>
      <trkpt lat="49.69399" lon="-1.27636">
        <ele>1.4</ele>
        <time>2020-06-15T09:38:23Z</time>
      </trkpt>
      <trkpt lat="49.69403" lon="-1.27629">
        <ele>1.4</ele>
        <time>2020-06-15T09:38:24Z</time>
      </trkpt>
      <trkpt lat="49.69407" lon="-1.27622">
        <ele>1.3</ele>
        <time>2020-06-15T09:38:25Z</time>
      </trkpt>
      <trkpt lat="49.69411" lon="-1.27614">
        <ele>1.3</ele>
        <time>2020-06-15T09:38:26Z</time>
      </trkpt>
      <trkpt lat="49.69413" lon="-1.27605">
        <ele>1.3</ele>
        <time>2020-06-15T09:38:27Z</time>
      </trkpt>
      <trkpt lat="49.69414" lon="-1.27595">
        <ele>1.2</ele>
        <time>2020-06-15T09:38:28Z</time>
      </trkpt>
      <trkpt lat="49.69414" lon="-1.27585">
        <ele>1.2</ele>
        <time>2020-06-15T09:38:29Z</time>
      </trkpt>
      <trkpt lat="49.69413" lon="-1.27576">
        <ele>1.2</ele>
        <time>2020-06-15T09:38:30Z</time>
      </trkpt>
      <trkpt lat="49.69412" lon="-1.27567">
        <ele>1.2</ele>
        <time>2020-06-15T09:38:31Z</time>
      </trkpt>
      <trkpt lat="49.6941" lon="-1.27559">
        <ele>1.2</ele>
        <time>2020-06-15T09:38:32Z</time>
      </trkpt>
      <trkpt lat="49.69407" lon="-1.27553">
        <ele>1.2</ele>
        <time>2020-06-15T09:38:33Z</time>
      </trkpt>
      <trkpt lat="49.69405" lon="-1.27545">
        <ele>1.2</ele>
        <time>2020-06-15T09:38:34Z</time>
      </trkpt>
      <trkpt lat="49.69402" lon="-1.27538">
        <ele>1.2</ele>
        <time>2020-06-15T09:38:35Z</time>
      </trkpt>
      <trkpt lat="49.69399" lon="-1.2753">
        <ele>1.2</ele>
        <time>2020-06-15T09:38:36Z</time>
      </trkpt>
      <trkpt lat="49.69396" lon="-1.27522">
        <ele>1.2</ele>
        <time>2020-06-15T09:38:37Z</time>
      </trkpt>
      <trkpt lat="49.69394" lon="-1.27515">
        <ele>1.2</ele>
        <time>2020-06-15T09:38:38Z</time>
      </trkpt>
      <trkpt lat="49.69391" lon="-1.27508">
        <ele>1.3</ele>
        <time>2020-06-15T09:38:39Z</time>
      </trkpt>
      <trkpt lat="49.69389" lon="-1.27501">
        <ele>1.3</ele>
        <time>2020-06-15T09:38:40Z</time>
      </trkpt>
      <trkpt lat="49.69386" lon="-1.27494">
        <ele>1.3</ele>
        <time>2020-06-15T09:38:41Z</time>
      </trkpt>
      <trkpt lat="49.69384" lon="-1.27486">
        <ele>1.2</ele>
        <time>2020-06-15T09:38:42Z</time>
      </trkpt>
      <trkpt lat="49.69381" lon="-1.27479">
        <ele>1.2</ele>
        <time>2020-06-15T09:38:43Z</time>
      </trkpt>
      <trkpt lat="49.69379" lon="-1.27472">
        <ele>1.2</ele>
        <time>2020-06-15T09:38:44Z</time>
      </trkpt>
      <trkpt lat="49.69377" lon="-1.27465">
        <ele>1.2</ele>
        <time>2020-06-15T09:38:45Z</time>
      </trkpt>
      <trkpt lat="49.69375" lon="-1.27458">
        <ele>1.1</ele>
        <time>2020-06-15T09:38:46Z</time>
      </trkpt>
      <trkpt lat="49.69373" lon="-1.27451">
        <ele>1.1</ele>
        <time>2020-06-15T09:38:47Z</time>
      </trkpt>
      <trkpt lat="49.69371" lon="-1.27445">
        <ele>1.1</ele>
        <time>2020-06-15T09:38:48Z</time>
      </trkpt>
      <trkpt lat="49.6937" lon="-1.27438">
        <ele>1.1</ele>
        <time>2020-06-15T09:38:49Z</time>
      </trkpt>
      <trkpt lat="49.69368" lon="-1.27429">
        <ele>1.1</ele>
        <time>2020-06-15T09:38:50Z</time>
      </trkpt>
      <trkpt lat="49.69367" lon="-1.27421">
        <ele>1.1</ele>
        <time>2020-06-15T09:38:51Z</time>
      </trkpt>
      <trkpt lat="49.69366" lon="-1.27413">
        <ele>1.1</ele>
        <time>2020-06-15T09:38:52Z</time>
      </trkpt>
      <trkpt lat="49.69365" lon="-1.27405">
        <ele>1.2</ele>
        <time>2020-06-15T09:38:53Z</time>
      </trkpt>
      <trkpt lat="49.69364" lon="-1.27398">
        <ele>1.2</ele>
        <time>2020-06-15T09:38:54Z</time>
      </trkpt>
      <trkpt lat="49.69364" lon="-1.2739">
        <ele>1.2</ele>
        <time>2020-06-15T09:38:55Z</time>
      </trkpt>
      <trkpt lat="49.69364" lon="-1.27381">
        <ele>1.3</ele>
        <time>2020-06-15T09:38:56Z</time>
      </trkpt>
      <trkpt lat="49.69364" lon="-1.27373">
        <ele>1.3</ele>
        <time>2020-06-15T09:38:57Z</time>
      </trkpt>
      <trkpt lat="49.69364" lon="-1.27364">
        <ele>1.4</ele>
        <time>2020-06-15T09:38:58Z</time>
      </trkpt>
      <trkpt lat="49.69364" lon="-1.27356">
        <ele>1.4</ele>
        <time>2020-06-15T09:38:59Z</time>
      </trkpt>
      <trkpt lat="49.69364" lon="-1.27348">
        <ele>1.5</ele>
        <time>2020-06-15T09:39:00Z</time>
      </trkpt>
      <trkpt lat="49.69363" lon="-1.2734">
        <ele>1.5</ele>
        <time>2020-06-15T09:39:01Z</time>
      </trkpt>
      <trkpt lat="49.69363" lon="-1.27334">
        <ele>1.6</ele>
        <time>2020-06-15T09:39:02Z</time>
      </trkpt>
      <trkpt lat="49.69364" lon="-1.27325">
        <ele>1.6</ele>
        <time>2020-06-15T09:39:03Z</time>
      </trkpt>
      <trkpt lat="49.69364" lon="-1.27318">
        <ele>1.6</ele>
        <time>2020-06-15T09:39:04Z</time>
      </trkpt>
      <trkpt lat="49.69365" lon="-1.27311">
        <ele>1.7</ele>
        <time>2020-06-15T09:39:05Z</time>
      </trkpt>
      <trkpt lat="49.69366" lon="-1.27304">
        <ele>1.7</ele>
        <time>2020-06-15T09:39:06Z</time>
      </trkpt>
      <trkpt lat="49.69366" lon="-1.27296">
        <ele>1.7</ele>
        <time>2020-06-15T09:39:07Z</time>
      </trkpt>
      <trkpt lat="49.69367" lon="-1.27289">
        <ele>1.8</ele>
        <time>2020-06-15T09:39:08Z</time>
      </trkpt>
      <trkpt lat="49.69368" lon="-1.27281">
        <ele>1.8</ele>
        <time>2020-06-15T09:39:09Z</time>
      </trkpt>
      <trkpt lat="49.6937" lon="-1.27274">
        <ele>1.8</ele>
        <time>2020-06-15T09:39:10Z</time>
      </trkpt>
      <trkpt lat="49.69372" lon="-1.27266">
        <ele>1.9</ele>
        <time>2020-06-15T09:39:11Z</time>
      </trkpt>
      <trkpt lat="49.69374" lon="-1.27258">
        <ele>1.9</ele>
        <time>2020-06-15T09:39:12Z</time>
      </trkpt>
      <trkpt lat="49.69377" lon="-1.27252">
        <ele>1.9</ele>
        <time>2020-06-15T09:39:13Z</time>
      </trkpt>
      <trkpt lat="49.6938" lon="-1.27245">
        <ele>1.9</ele>
        <time>2020-06-15T09:39:14Z</time>
      </trkpt>
      <trkpt lat="49.69383" lon="-1.2724">
        <ele>1.9</ele>
        <time>2020-06-15T09:39:15Z</time>
      </trkpt>
      <trkpt lat="49.69387" lon="-1.27233">
        <ele>1.9</ele>
        <time>2020-06-15T09:39:16Z</time>
      </trkpt>
      <trkpt lat="49.69391" lon="-1.27228">
        <ele>1.9</ele>
        <time>2020-06-15T09:39:17Z</time>
      </trkpt>
      <trkpt lat="49.69396" lon="-1.27223">
        <ele>2</ele>
        <time>2020-06-15T09:39:18Z</time>
      </trkpt>
      <trkpt lat="49.69402" lon="-1.27218">
        <ele>2</ele>
        <time>2020-06-15T09:39:19Z</time>
      </trkpt>
      <trkpt lat="49.69407" lon="-1.27214">
        <ele>2</ele>
        <time>2020-06-15T09:39:20Z</time>
      </trkpt>
      <trkpt lat="49.69411" lon="-1.2721">
        <ele>2</ele>
        <time>2020-06-15T09:39:21Z</time>
      </trkpt>
      <trkpt lat="49.69416" lon="-1.27206">
        <ele>2</ele>
        <time>2020-06-15T09:39:22Z</time>
      </trkpt>
      <trkpt lat="49.6942" lon="-1.27201">
        <ele>2</ele>
        <time>2020-06-15T09:39:23Z</time>
      </trkpt>
      <trkpt lat="49.69425" lon="-1.27196">
        <ele>2.1</ele>
        <time>2020-06-15T09:39:24Z</time>
      </trkpt>
      <trkpt lat="49.69429" lon="-1.27192">
        <ele>2.1</ele>
        <time>2020-06-15T09:39:25Z</time>
      </trkpt>
      <trkpt lat="49.69434" lon="-1.27187">
        <ele>2.2</ele>
        <time>2020-06-15T09:39:26Z</time>
      </trkpt>
      <trkpt lat="49.69439" lon="-1.27183">
        <ele>2.3</ele>
        <time>2020-06-15T09:39:27Z</time>
      </trkpt>
      <trkpt lat="49.69444" lon="-1.27178">
        <ele>2.3</ele>
        <time>2020-06-15T09:39:28Z</time>
      </trkpt>
      <trkpt lat="49.69449" lon="-1.27175">
        <ele>2.4</ele>
        <time>2020-06-15T09:39:29Z</time>
      </trkpt>
      <trkpt lat="49.69453" lon="-1.27171">
        <ele>2.4</ele>
        <time>2020-06-15T09:39:30Z</time>
      </trkpt>
      <trkpt lat="49.69458" lon="-1.27166">
        <ele>2.4</ele>
        <time>2020-06-15T09:39:31Z</time>
      </trkpt>
      <trkpt lat="49.69462" lon="-1.27161">
        <ele>2.4</ele>
        <time>2020-06-15T09:39:32Z</time>
      </trkpt>
      <trkpt lat="49.69465" lon="-1.27155">
        <ele>2.4</ele>
        <time>2020-06-15T09:39:33Z</time>
      </trkpt>
      <trkpt lat="49.69468" lon="-1.27148">
        <ele>2.4</ele>
        <time>2020-06-15T09:39:34Z</time>
      </trkpt>
      <trkpt lat="49.6947" lon="-1.2714">
        <ele>2.4</ele>
        <time>2020-06-15T09:39:35Z</time>
      </trkpt>
      <trkpt lat="49.69472" lon="-1.27134">
        <ele>2.4</ele>
        <time>2020-06-15T09:39:36Z</time>
      </trkpt>
      <trkpt lat="49.69474" lon="-1.27127">
        <ele>2.5</ele>
        <time>2020-06-15T09:39:37Z</time>
      </trkpt>
      <trkpt lat="49.69476" lon="-1.2712">
        <ele>2.6</ele>
        <time>2020-06-15T09:39:38Z</time>
      </trkpt>
      <trkpt lat="49.69479" lon="-1.27114">
        <ele>2.6</ele>
        <time>2020-06-15T09:39:39Z</time>
      </trkpt>
      <trkpt lat="49.69481" lon="-1.27108">
        <ele>2.6</ele>
        <time>2020-06-15T09:39:40Z</time>
      </trkpt>
      <trkpt lat="49.69485" lon="-1.27104">
        <ele>2.6</ele>
        <time>2020-06-15T09:39:41Z</time>
      </trkpt>
      <trkpt lat="49.69489" lon="-1.27099">
        <ele>2.6</ele>
        <time>2020-06-15T09:39:42Z</time>
      </trkpt>
      <trkpt lat="49.69493" lon="-1.27094">
        <ele>2.5</ele>
        <time>2020-06-15T09:39:43Z</time>
      </trkpt>
      <trkpt lat="49.69497" lon="-1.27088">
        <ele>2.4</ele>
        <time>2020-06-15T09:39:44Z</time>
      </trkpt>
      <trkpt lat="49.69501" lon="-1.27081">
        <ele>2.3</ele>
        <time>2020-06-15T09:39:45Z</time>
      </trkpt>
      <trkpt lat="49.69504" lon="-1.27073">
        <ele>2.2</ele>
        <time>2020-06-15T09:39:46Z</time>
      </trkpt>
      <trkpt lat="49.69506" lon="-1.27063">
        <ele>2.2</ele>
        <time>2020-06-15T09:39:47Z</time>
      </trkpt>
      <trkpt lat="49.69507" lon="-1.27052">
        <ele>2.1</ele>
        <time>2020-06-15T09:39:48Z</time>
      </trkpt>
      <trkpt lat="49.69507" lon="-1.27043">
        <ele>2.1</ele>
        <time>2020-06-15T09:39:49Z</time>
      </trkpt>
      <trkpt lat="49.69507" lon="-1.27034">
        <ele>2</ele>
        <time>2020-06-15T09:39:50Z</time>
      </trkpt>
      <trkpt lat="49.69507" lon="-1.27026">
        <ele>2</ele>
        <time>2020-06-15T09:39:51Z</time>
      </trkpt>
      <trkpt lat="49.69507" lon="-1.27019">
        <ele>2</ele>
        <time>2020-06-15T09:39:52Z</time>
      </trkpt>
      <trkpt lat="49.69507" lon="-1.2701">
        <ele>2.1</ele>
        <time>2020-06-15T09:39:53Z</time>
      </trkpt>
      <trkpt lat="49.69506" lon="-1.27002">
        <ele>2.1</ele>
        <time>2020-06-15T09:39:54Z</time>
      </trkpt>
      <trkpt lat="49.69507" lon="-1.26995">
        <ele>2.1</ele>
        <time>2020-06-15T09:39:55Z</time>
      </trkpt>
      <trkpt lat="49.69506" lon="-1.26988">
        <ele>2.1</ele>
        <time>2020-06-15T09:39:56Z</time>
      </trkpt>
      <trkpt lat="49.69506" lon="-1.26981">
        <ele>2.1</ele>
        <time>2020-06-15T09:39:57Z</time>
      </trkpt>
      <trkpt lat="49.69507" lon="-1.26974">
        <ele>2.2</ele>
        <time>2020-06-15T09:39:58Z</time>
      </trkpt>
      <trkpt lat="49.69507" lon="-1.26965">
        <ele>2.2</ele>
        <time>2020-06-15T09:39:59Z</time>
      </trkpt>
      <trkpt lat="49.69507" lon="-1.26956">
        <ele>2.2</ele>
        <time>2020-06-15T09:40:00Z</time>
      </trkpt>
      <trkpt lat="49.69507" lon="-1.26947">
        <ele>2.2</ele>
        <time>2020-06-15T09:40:01Z</time>
      </trkpt>
      <trkpt lat="49.69507" lon="-1.26939">
        <ele>2.3</ele>
        <time>2020-06-15T09:40:02Z</time>
      </trkpt>
      <trkpt lat="49.69508" lon="-1.26932">
        <ele>2.3</ele>
        <time>2020-06-15T09:40:03Z</time>
      </trkpt>
      <trkpt lat="49.69508" lon="-1.26924">
        <ele>2.3</ele>
        <time>2020-06-15T09:40:04Z</time>
      </trkpt>
      <trkpt lat="49.69508" lon="-1.26917">
        <ele>2.3</ele>
        <time>2020-06-15T09:40:05Z</time>
      </trkpt>
      <trkpt lat="49.69508" lon="-1.2691">
        <ele>2.3</ele>
        <time>2020-06-15T09:40:06Z</time>
      </trkpt>
      <trkpt lat="49.69508" lon="-1.26902">
        <ele>2.3</ele>
        <time>2020-06-15T09:40:07Z</time>
      </trkpt>
      <trkpt lat="49.69507" lon="-1.26895">
        <ele>2.3</ele>
        <time>2020-06-15T09:40:08Z</time>
      </trkpt>
      <trkpt lat="49.69507" lon="-1.26888">
        <ele>2.3</ele>
        <time>2020-06-15T09:40:09Z</time>
      </trkpt>
      <trkpt lat="49.69507" lon="-1.2688">
        <ele>2.3</ele>
        <time>2020-06-15T09:40:10Z</time>
      </trkpt>
      <trkpt lat="49.69507" lon="-1.26874">
        <ele>2.3</ele>
        <time>2020-06-15T09:40:11Z</time>
      </trkpt>
      <trkpt lat="49.69507" lon="-1.26866">
        <ele>2.3</ele>
        <time>2020-06-15T09:40:12Z</time>
      </trkpt>
      <trkpt lat="49.69507" lon="-1.26859">
        <ele>2.3</ele>
        <time>2020-06-15T09:40:13Z</time>
      </trkpt>
      <trkpt lat="49.69507" lon="-1.26851">
        <ele>2.4</ele>
        <time>2020-06-15T09:40:14Z</time>
      </trkpt>
      <trkpt lat="49.69508" lon="-1.26843">
        <ele>2.4</ele>
        <time>2020-06-15T09:40:15Z</time>
      </trkpt>
      <trkpt lat="49.69508" lon="-1.26835">
        <ele>2.4</ele>
        <time>2020-06-15T09:40:16Z</time>
      </trkpt>
      <trkpt lat="49.69508" lon="-1.26828">
        <ele>2.4</ele>
        <time>2020-06-15T09:40:17Z</time>
      </trkpt>
      <trkpt lat="49.69508" lon="-1.26821">
        <ele>2.4</ele>
        <time>2020-06-15T09:40:18Z</time>
      </trkpt>
      <trkpt lat="49.69507" lon="-1.26813">
        <ele>2.4</ele>
        <time>2020-06-15T09:40:19Z</time>
      </trkpt>
      <trkpt lat="49.69505" lon="-1.26805">
        <ele>2.4</ele>
        <time>2020-06-15T09:40:20Z</time>
      </trkpt>
      <trkpt lat="49.69504" lon="-1.26798">
        <ele>2.5</ele>
        <time>2020-06-15T09:40:21Z</time>
      </trkpt>
      <trkpt lat="49.69502" lon="-1.26791">
        <ele>2.5</ele>
        <time>2020-06-15T09:40:22Z</time>
      </trkpt>
      <trkpt lat="49.69501" lon="-1.26784">
        <ele>2.5</ele>
        <time>2020-06-15T09:40:23Z</time>
      </trkpt>
      <trkpt lat="49.69499" lon="-1.26778">
        <ele>2.5</ele>
        <time>2020-06-15T09:40:24Z</time>
      </trkpt>
      <trkpt lat="49.69496" lon="-1.26774">
        <ele>2.5</ele>
        <time>2020-06-15T09:40:25Z</time>
      </trkpt>
      <trkpt lat="49.69492" lon="-1.26769">
        <ele>2.5</ele>
        <time>2020-06-15T09:40:26Z</time>
      </trkpt>
      <trkpt lat="49.69488" lon="-1.26765">
        <ele>2.6</ele>
        <time>2020-06-15T09:40:27Z</time>
      </trkpt>
      <trkpt lat="49.69483" lon="-1.26762">
        <ele>2.6</ele>
        <time>2020-06-15T09:40:28Z</time>
      </trkpt>
      <trkpt lat="49.69478" lon="-1.26759">
        <ele>2.6</ele>
        <time>2020-06-15T09:40:29Z</time>
      </trkpt>
      <trkpt lat="49.69474" lon="-1.26755">
        <ele>2.6</ele>
        <time>2020-06-15T09:40:30Z</time>
      </trkpt>
      <trkpt lat="49.69468" lon="-1.26751">
        <ele>2.6</ele>
        <time>2020-06-15T09:40:31Z</time>
      </trkpt>
      <trkpt lat="49.69464" lon="-1.26746">
        <ele>2.6</ele>
        <time>2020-06-15T09:40:32Z</time>
      </trkpt>
      <trkpt lat="49.6946" lon="-1.26742">
        <ele>2.6</ele>
        <time>2020-06-15T09:40:33Z</time>
      </trkpt>
      <trkpt lat="49.69457" lon="-1.26738">
        <ele>2.5</ele>
        <time>2020-06-15T09:40:34Z</time>
      </trkpt>
      <trkpt lat="49.69455" lon="-1.26734">
        <ele>2.5</ele>
        <time>2020-06-15T09:40:35Z</time>
      </trkpt>
      <trkpt lat="49.69451" lon="-1.26731">
        <ele>2.5</ele>
        <time>2020-06-15T09:40:36Z</time>
      </trkpt>
      <trkpt lat="49.69448" lon="-1.26729">
        <ele>2.5</ele>
        <time>2020-06-15T09:40:37Z</time>
      </trkpt>
      <trkpt lat="49.69445" lon="-1.26727">
        <ele>2.4</ele>
        <time>2020-06-15T09:40:38Z</time>
      </trkpt>
      <trkpt lat="49.69443" lon="-1.26722">
        <ele>2.4</ele>
        <time>2020-06-15T09:40:39Z</time>
      </trkpt>
      <trkpt lat="49.69443" lon="-1.26717">
        <ele>2.4</ele>
        <time>2020-06-15T09:40:40Z</time>
      </trkpt>
      <trkpt lat="49.69443" lon="-1.26716">
        <ele>2.4</ele>
        <time>2020-06-15T09:40:41Z</time>
      </trkpt>
      <trkpt lat="49.69447" lon="-1.26713">
        <ele>2.2</ele>
        <time>2020-06-15T09:40:42Z</time>
      </trkpt>
      <trkpt lat="49.69448" lon="-1.26712">
        <ele>2.2</ele>
        <time>2020-06-15T09:40:43Z</time>
      </trkpt>
      <trkpt lat="49.6945" lon="-1.26711">
        <ele>2.2</ele>
        <time>2020-06-15T09:40:44Z</time>
      </trkpt>
      <trkpt lat="49.69453" lon="-1.26709">
        <ele>2.2</ele>
        <time>2020-06-15T09:40:45Z</time>
      </trkpt>
      <trkpt lat="49.69456" lon="-1.26707">
        <ele>2.2</ele>
        <time>2020-06-15T09:40:46Z</time>
      </trkpt>
      <trkpt lat="49.69459" lon="-1.26704">
        <ele>2.1</ele>
        <time>2020-06-15T09:40:47Z</time>
      </trkpt>
      <trkpt lat="49.69462" lon="-1.26702">
        <ele>2.1</ele>
        <time>2020-06-15T09:40:48Z</time>
      </trkpt>
      <trkpt lat="49.69465" lon="-1.267">
        <ele>2.1</ele>
        <time>2020-06-15T09:40:49Z</time>
      </trkpt>
      <trkpt lat="49.69469" lon="-1.26698">
        <ele>2</ele>
        <time>2020-06-15T09:40:50Z</time>
      </trkpt>
      <trkpt lat="49.69472" lon="-1.26697">
        <ele>2</ele>
        <time>2020-06-15T09:40:51Z</time>
      </trkpt>
      <trkpt lat="49.69475" lon="-1.26695">
        <ele>1.9</ele>
        <time>2020-06-15T09:40:52Z</time>
      </trkpt>
      <trkpt lat="49.69479" lon="-1.26694">
        <ele>1.9</ele>
        <time>2020-06-15T09:40:53Z</time>
      </trkpt>
      <trkpt lat="49.69482" lon="-1.26691">
        <ele>1.9</ele>
        <time>2020-06-15T09:40:54Z</time>
      </trkpt>
      <trkpt lat="49.69486" lon="-1.26688">
        <ele>1.8</ele>
        <time>2020-06-15T09:40:55Z</time>
      </trkpt>
      <trkpt lat="49.6949" lon="-1.26687">
        <ele>1.8</ele>
        <time>2020-06-15T09:40:56Z</time>
      </trkpt>
      <trkpt lat="49.69493" lon="-1.26683">
        <ele>1.7</ele>
        <time>2020-06-15T09:40:57Z</time>
      </trkpt>
      <trkpt lat="49.69497" lon="-1.26681">
        <ele>1.7</ele>
        <time>2020-06-15T09:40:58Z</time>
      </trkpt>
      <trkpt lat="49.69502" lon="-1.26679">
        <ele>1.7</ele>
        <time>2020-06-15T09:40:59Z</time>
      </trkpt>
      <trkpt lat="49.69506" lon="-1.26678">
        <ele>1.6</ele>
        <time>2020-06-15T09:41:00Z</time>
      </trkpt>
      <trkpt lat="49.6951" lon="-1.26676">
        <ele>1.6</ele>
        <time>2020-06-15T09:41:01Z</time>
      </trkpt>
      <trkpt lat="49.69514" lon="-1.26675">
        <ele>1.6</ele>
        <time>2020-06-15T09:41:02Z</time>
      </trkpt>
      <trkpt lat="49.69519" lon="-1.26672">
        <ele>1.5</ele>
        <time>2020-06-15T09:41:03Z</time>
      </trkpt>
      <trkpt lat="49.69523" lon="-1.26669">
        <ele>1.5</ele>
        <time>2020-06-15T09:41:04Z</time>
      </trkpt>
      <trkpt lat="49.69527" lon="-1.26665">
        <ele>1.5</ele>
        <time>2020-06-15T09:41:05Z</time>
      </trkpt>
      <trkpt lat="49.69531" lon="-1.26661">
        <ele>1.4</ele>
        <time>2020-06-15T09:41:06Z</time>
      </trkpt>
      <trkpt lat="49.69535" lon="-1.26659">
        <ele>1.4</ele>
        <time>2020-06-15T09:41:07Z</time>
      </trkpt>
      <trkpt lat="49.69539" lon="-1.26657">
        <ele>1.4</ele>
        <time>2020-06-15T09:41:08Z</time>
      </trkpt>
      <trkpt lat="49.69541" lon="-1.26653">
        <ele>1.4</ele>
        <time>2020-06-15T09:41:09Z</time>
      </trkpt>
      <trkpt lat="49.69545" lon="-1.2665">
        <ele>1.4</ele>
        <time>2020-06-15T09:41:10Z</time>
      </trkpt>
      <trkpt lat="49.69549" lon="-1.26648">
        <ele>1.3</ele>
        <time>2020-06-15T09:41:11Z</time>
      </trkpt>
      <trkpt lat="49.69552" lon="-1.26647">
        <ele>1.3</ele>
        <time>2020-06-15T09:41:12Z</time>
      </trkpt>
      <trkpt lat="49.69556" lon="-1.26645">
        <ele>1.3</ele>
        <time>2020-06-15T09:41:13Z</time>
      </trkpt>
      <trkpt lat="49.6956" lon="-1.26643">
        <ele>1.2</ele>
        <time>2020-06-15T09:41:14Z</time>
      </trkpt>
      <trkpt lat="49.69562" lon="-1.26641">
        <ele>1.2</ele>
        <time>2020-06-15T09:41:15Z</time>
      </trkpt>
      <trkpt lat="49.69566" lon="-1.26639">
        <ele>1.1</ele>
        <time>2020-06-15T09:41:16Z</time>
      </trkpt>
      <trkpt lat="49.69567" lon="-1.26638">
        <ele>1.1</ele>
        <time>2020-06-15T09:41:17Z</time>
      </trkpt>
      <trkpt lat="49.6957" lon="-1.26636">
        <ele>1</ele>
        <time>2020-06-15T09:41:18Z</time>
      </trkpt>
      <trkpt lat="49.69573" lon="-1.26632">
        <ele>1</ele>
        <time>2020-06-15T09:41:19Z</time>
      </trkpt>
      <trkpt lat="49.69575" lon="-1.26631">
        <ele>0.9</ele>
        <time>2020-06-15T09:41:20Z</time>
      </trkpt>
      <trkpt lat="49.69577" lon="-1.26628">
        <ele>0.9</ele>
        <time>2020-06-15T09:41:21Z</time>
      </trkpt>
      <trkpt lat="49.6958" lon="-1.26624">
        <ele>0.9</ele>
        <time>2020-06-15T09:41:22Z</time>
      </trkpt>
      <trkpt lat="49.69583" lon="-1.26622">
        <ele>0.8</ele>
        <time>2020-06-15T09:41:23Z</time>
      </trkpt>
      <trkpt lat="49.69586" lon="-1.2662">
        <ele>0.8</ele>
        <time>2020-06-15T09:41:24Z</time>
      </trkpt>
      <trkpt lat="49.69589" lon="-1.26618">
        <ele>0.7</ele>
        <time>2020-06-15T09:41:25Z</time>
      </trkpt>
      <trkpt lat="49.69592" lon="-1.26617">
        <ele>0.7</ele>
        <time>2020-06-15T09:41:26Z</time>
      </trkpt>
      <trkpt lat="49.69595" lon="-1.26615">
        <ele>0.7</ele>
        <time>2020-06-15T09:41:27Z</time>
      </trkpt>
      <trkpt lat="49.69598" lon="-1.26614">
        <ele>0.7</ele>
        <time>2020-06-15T09:41:28Z</time>
      </trkpt>
      <trkpt lat="49.69601" lon="-1.26612">
        <ele>0.7</ele>
        <time>2020-06-15T09:41:29Z</time>
      </trkpt>
      <trkpt lat="49.69603" lon="-1.26609">
        <ele>0.6</ele>
        <time>2020-06-15T09:41:30Z</time>
      </trkpt>
      <trkpt lat="49.69606" lon="-1.26604">
        <ele>0.6</ele>
        <time>2020-06-15T09:41:31Z</time>
      </trkpt>
      <trkpt lat="49.69608" lon="-1.26599">
        <ele>0.6</ele>
        <time>2020-06-15T09:41:32Z</time>
      </trkpt>
      <trkpt lat="49.69609" lon="-1.26595">
        <ele>0.6</ele>
        <time>2020-06-15T09:41:33Z</time>
      </trkpt>
      <trkpt lat="49.69611" lon="-1.26591">
        <ele>0.6</ele>
        <time>2020-06-15T09:41:34Z</time>
      </trkpt>
      <trkpt lat="49.69613" lon="-1.26587">
        <ele>0.6</ele>
        <time>2020-06-15T09:41:35Z</time>
      </trkpt>
      <trkpt lat="49.69615" lon="-1.26582">
        <ele>0.5</ele>
        <time>2020-06-15T09:41:36Z</time>
      </trkpt>
      <trkpt lat="49.69615" lon="-1.2658">
        <ele>0.5</ele>
        <time>2020-06-15T09:41:37Z</time>
      </trkpt>
      <trkpt lat="49.69618" lon="-1.26575">
        <ele>0.4</ele>
        <time>2020-06-15T09:41:38Z</time>
      </trkpt>
      <trkpt lat="49.69618" lon="-1.26573">
        <ele>0.4</ele>
        <time>2020-06-15T09:41:39Z</time>
      </trkpt>
      <trkpt lat="49.6962" lon="-1.2657">
        <ele>0.3</ele>
        <time>2020-06-15T09:41:40Z</time>
      </trkpt>
      <trkpt lat="49.69621" lon="-1.26569">
        <ele>0.3</ele>
        <time>2020-06-15T09:41:41Z</time>
      </trkpt>
      <trkpt lat="49.69623" lon="-1.26568">
        <ele>0.3</ele>
        <time>2020-06-15T09:41:42Z</time>
      </trkpt>
      <trkpt lat="49.69624" lon="-1.26568">
        <ele>0.3</ele>
        <time>2020-06-15T09:41:43Z</time>
      </trkpt>
      <trkpt lat="49.69627" lon="-1.26566">
        <ele>0.2</ele>
        <time>2020-06-15T09:41:44Z</time>
      </trkpt>
      <trkpt lat="49.69628" lon="-1.26565">
        <ele>0.2</ele>
        <time>2020-06-15T09:41:45Z</time>
      </trkpt>
      <trkpt lat="49.69631" lon="-1.26563">
        <ele>0.2</ele>
        <time>2020-06-15T09:41:46Z</time>
      </trkpt>
      <trkpt lat="49.69634" lon="-1.2656">
        <ele>0.2</ele>
        <time>2020-06-15T09:41:47Z</time>
      </trkpt>
      <trkpt lat="49.69635" lon="-1.2656">
        <ele>0.2</ele>
        <time>2020-06-15T09:41:48Z</time>
      </trkpt>
      <trkpt lat="49.69638" lon="-1.26559">
        <ele>0.2</ele>
        <time>2020-06-15T09:41:49Z</time>
      </trkpt>
      <trkpt lat="49.69639" lon="-1.26558">
        <ele>0.2</ele>
        <time>2020-06-15T09:41:50Z</time>
      </trkpt>
      <trkpt lat="49.69642" lon="-1.26557">
        <ele>0.2</ele>
        <time>2020-06-15T09:41:51Z</time>
      </trkpt>
      <trkpt lat="49.69643" lon="-1.26556">
        <ele>0.2</ele>
        <time>2020-06-15T09:41:52Z</time>
      </trkpt>
      <trkpt lat="49.69645" lon="-1.26557">
        <ele>0.2</ele>
        <time>2020-06-15T09:41:53Z</time>
      </trkpt>
      <trkpt lat="49.69647" lon="-1.26557">
        <ele>0.2</ele>
        <time>2020-06-15T09:41:54Z</time>
      </trkpt>
      <trkpt lat="49.6965" lon="-1.26557">
        <ele>0.2</ele>
        <time>2020-06-15T09:41:55Z</time>
      </trkpt>
      <trkpt lat="49.69651" lon="-1.26557">
        <ele>0.2</ele>
        <time>2020-06-15T09:41:56Z</time>
      </trkpt>
      <trkpt lat="49.69652" lon="-1.26556">
        <ele>0.2</ele>
        <time>2020-06-15T09:41:57Z</time>
      </trkpt>
      <trkpt lat="49.69653" lon="-1.26556">
        <ele>0.2</ele>
        <time>2020-06-15T09:41:58Z</time>
      </trkpt>
      <trkpt lat="49.69653" lon="-1.26556">
        <ele>0.2</ele>
        <time>2020-06-15T09:41:59Z</time>
      </trkpt>
      <trkpt lat="49.69655" lon="-1.26558">
        <ele>0.2</ele>
        <time>2020-06-15T09:42:00Z</time>
      </trkpt>
      <trkpt lat="49.69656" lon="-1.26558">
        <ele>0.2</ele>
        <time>2020-06-15T09:42:01Z</time>
      </trkpt>
      <trkpt lat="49.69659" lon="-1.26561">
        <ele>0.2</ele>
        <time>2020-06-15T09:42:02Z</time>
      </trkpt>
      <trkpt lat="49.6966" lon="-1.26561">
        <ele>0.2</ele>
        <time>2020-06-15T09:42:03Z</time>
      </trkpt>
      <trkpt lat="49.69664" lon="-1.26562">
        <ele>0.2</ele>
        <time>2020-06-15T09:42:04Z</time>
      </trkpt>
      <trkpt lat="49.69665" lon="-1.26563">
        <ele>0.2</ele>
        <time>2020-06-15T09:42:05Z</time>
      </trkpt>
      <trkpt lat="49.69667" lon="-1.26565">
        <ele>0.2</ele>
        <time>2020-06-15T09:42:06Z</time>
      </trkpt>
      <trkpt lat="49.69668" lon="-1.26566">
        <ele>0.2</ele>
        <time>2020-06-15T09:42:07Z</time>
      </trkpt>
      <trkpt lat="49.69669" lon="-1.26567">
        <ele>0.2</ele>
        <time>2020-06-15T09:42:08Z</time>
      </trkpt>
      <trkpt lat="49.69671" lon="-1.2657">
        <ele>0.2</ele>
        <time>2020-06-15T09:42:09Z</time>
      </trkpt>
      <trkpt lat="49.69672" lon="-1.2657">
        <ele>0.2</ele>
        <time>2020-06-15T09:42:10Z</time>
      </trkpt>
      <trkpt lat="49.69673" lon="-1.26572">
        <ele>0.2</ele>
        <time>2020-06-15T09:42:11Z</time>
      </trkpt>
      <trkpt lat="49.69674" lon="-1.26574">
        <ele>0.2</ele>
        <time>2020-06-15T09:42:12Z</time>
      </trkpt>
      <trkpt lat="49.69677" lon="-1.26576">
        <ele>0.2</ele>
        <time>2020-06-15T09:42:13Z</time>
      </trkpt>
      <trkpt lat="49.69677" lon="-1.26577">
        <ele>0.2</ele>
        <time>2020-06-15T09:42:14Z</time>
      </trkpt>
      <trkpt lat="49.69678" lon="-1.26579">
        <ele>0.2</ele>
        <time>2020-06-15T09:42:15Z</time>
      </trkpt>
      <trkpt lat="49.69679" lon="-1.26581">
        <ele>0.2</ele>
        <time>2020-06-15T09:42:16Z</time>
      </trkpt>
      <trkpt lat="49.69679" lon="-1.26582">
        <ele>0.2</ele>
        <time>2020-06-15T09:42:17Z</time>
      </trkpt>
      <trkpt lat="49.69677" lon="-1.26583">
        <ele>0.2</ele>
        <time>2020-06-15T09:42:18Z</time>
      </trkpt>
      <trkpt lat="49.69675" lon="-1.26582">
        <ele>0.2</ele>
        <time>2020-06-15T09:42:19Z</time>
      </trkpt>
      <trkpt lat="49.69674" lon="-1.26585">
        <ele>0.2</ele>
        <time>2020-06-15T09:42:20Z</time>
      </trkpt>
      <trkpt lat="49.69673" lon="-1.26587">
        <ele>0.2</ele>
        <time>2020-06-15T09:42:21Z</time>
      </trkpt>
      <trkpt lat="49.69673" lon="-1.26588">
        <ele>0.2</ele>
        <time>2020-06-15T09:42:22Z</time>
      </trkpt>
      <trkpt lat="49.69672" lon="-1.26591">
        <ele>0.2</ele>
        <time>2020-06-15T09:42:23Z</time>
      </trkpt>
      <trkpt lat="49.69671" lon="-1.26592">
        <ele>0.2</ele>
        <time>2020-06-15T09:42:24Z</time>
      </trkpt>
      <trkpt lat="49.6967" lon="-1.26593">
        <ele>0.2</ele>
        <time>2020-06-15T09:42:25Z</time>
      </trkpt>
      <trkpt lat="49.69669" lon="-1.26596">
        <ele>0.2</ele>
        <time>2020-06-15T09:42:26Z</time>
      </trkpt>
      <trkpt lat="49.69668" lon="-1.266">
        <ele>0.2</ele>
        <time>2020-06-15T09:42:27Z</time>
      </trkpt>
      <trkpt lat="49.69667" lon="-1.26602">
        <ele>0.2</ele>
        <time>2020-06-15T09:42:28Z</time>
      </trkpt>
      <trkpt lat="49.69667" lon="-1.26604">
        <ele>0.2</ele>
        <time>2020-06-15T09:42:29Z</time>
      </trkpt>
      <trkpt lat="49.69667" lon="-1.26604">
        <ele>0.2</ele>
        <time>2020-06-15T09:42:30Z</time>
      </trkpt>
      <trkpt lat="49.69666" lon="-1.26606">
        <ele>0.2</ele>
        <time>2020-06-15T09:42:31Z</time>
      </trkpt>
      <trkpt lat="49.69665" lon="-1.26606">
        <ele>0.2</ele>
        <time>2020-06-15T09:42:32Z</time>
      </trkpt>
      <trkpt lat="49.69666" lon="-1.26607">
        <ele>0.2</ele>
        <time>2020-06-15T09:42:33Z</time>
      </trkpt>
      <trkpt lat="49.69667" lon="-1.26606">
        <ele>0.2</ele>
        <time>2020-06-15T09:42:34Z</time>
      </trkpt>
      <trkpt lat="49.69667" lon="-1.26603">
        <ele>0.2</ele>
        <time>2020-06-15T09:42:35Z</time>
      </trkpt>
      <trkpt lat="49.69668" lon="-1.26603">
        <ele>0.2</ele>
        <time>2020-06-15T09:42:36Z</time>
      </trkpt>
      <trkpt lat="49.69668" lon="-1.26603">
        <ele>0.2</ele>
        <time>2020-06-15T09:42:37Z</time>
      </trkpt>
      <trkpt lat="49.69668" lon="-1.26603">
        <ele>0.2</ele>
        <time>2020-06-15T09:42:38Z</time>
      </trkpt>
      <trkpt lat="49.69668" lon="-1.26603">
        <ele>0.2</ele>
        <time>2020-06-15T09:42:39Z</time>
      </trkpt>
      <trkpt lat="49.69669" lon="-1.26604">
        <ele>0.2</ele>
        <time>2020-06-15T09:42:40Z</time>
      </trkpt>
      <trkpt lat="49.69669" lon="-1.26604">
        <ele>0.2</ele>
        <time>2020-06-15T09:42:41Z</time>
      </trkpt>
      <trkpt lat="49.69669" lon="-1.26605">
        <ele>0.2</ele>
        <time>2020-06-15T09:42:42Z</time>
      </trkpt>
      <trkpt lat="49.69668" lon="-1.26615">
        <ele>0.2</ele>
        <time>2020-06-15T09:43:49Z</time>
      </trkpt>
      <trkpt lat="49.69667" lon="-1.26617">
        <ele>0.2</ele>
        <time>2020-06-15T09:43:50Z</time>
      </trkpt>
      <trkpt lat="49.69667" lon="-1.26619">
        <ele>0.2</ele>
        <time>2020-06-15T09:43:51Z</time>
      </trkpt>
      <trkpt lat="49.69666" lon="-1.26621">
        <ele>0.2</ele>
        <time>2020-06-15T09:43:52Z</time>
      </trkpt>
      <trkpt lat="49.69665" lon="-1.26621">
        <ele>0.2</ele>
        <time>2020-06-15T09:43:53Z</time>
      </trkpt>
      <trkpt lat="49.69665" lon="-1.26623">
        <ele>0.2</ele>
        <time>2020-06-15T09:43:54Z</time>
      </trkpt>
      <trkpt lat="49.69664" lon="-1.26624">
        <ele>0.2</ele>
        <time>2020-06-15T09:43:55Z</time>
      </trkpt>
      <trkpt lat="49.69664" lon="-1.26624">
        <ele>0.2</ele>
        <time>2020-06-15T09:43:56Z</time>
      </trkpt>
      <trkpt lat="49.69664" lon="-1.26625">
        <ele>0.2</ele>
        <time>2020-06-15T09:43:57Z</time>
      </trkpt>
      <trkpt lat="49.69664" lon="-1.26626">
        <ele>0.2</ele>
        <time>2020-06-15T09:43:58Z</time>
      </trkpt>
      <trkpt lat="49.69664" lon="-1.26627">
        <ele>0.2</ele>
        <time>2020-06-15T09:43:59Z</time>
      </trkpt>
      <trkpt lat="49.69665" lon="-1.26628">
        <ele>0.2</ele>
        <time>2020-06-15T09:44:00Z</time>
      </trkpt>
      <trkpt lat="49.69665" lon="-1.2663">
        <ele>0.2</ele>
        <time>2020-06-15T09:44:01Z</time>
      </trkpt>
      <trkpt lat="49.69665" lon="-1.26633">
        <ele>0.2</ele>
        <time>2020-06-15T09:44:02Z</time>
      </trkpt>
      <trkpt lat="49.69665" lon="-1.26634">
        <ele>0.2</ele>
        <time>2020-06-15T09:44:03Z</time>
      </trkpt>
      <trkpt lat="49.69665" lon="-1.26635">
        <ele>0.2</ele>
        <time>2020-06-15T09:44:04Z</time>
      </trkpt>
      <trkpt lat="49.69664" lon="-1.26635">
        <ele>0.2</ele>
        <time>2020-06-15T09:44:05Z</time>
      </trkpt>
      <trkpt lat="49.69664" lon="-1.26635">
        <ele>0.2</ele>
        <time>2020-06-15T09:44:06Z</time>
      </trkpt>
      <trkpt lat="49.69664" lon="-1.26635">
        <ele>0.2</ele>
        <time>2020-06-15T09:44:07Z</time>
      </trkpt>
      <trkpt lat="49.69664" lon="-1.26635">
        <ele>0.2</ele>
        <time>2020-06-15T09:44:08Z</time>
      </trkpt>
      <trkpt lat="49.69664" lon="-1.26635">
        <ele>0.2</ele>
        <time>2020-06-15T09:44:09Z</time>
      </trkpt>
      <trkpt lat="49.69664" lon="-1.26635">
        <ele>0.2</ele>
        <time>2020-06-15T09:44:10Z</time>
      </trkpt>
      <trkpt lat="49.69664" lon="-1.26635">
        <ele>0.2</ele>
        <time>2020-06-15T09:44:11Z</time>
      </trkpt>
      <trkpt lat="49.69664" lon="-1.26635">
        <ele>0.2</ele>
        <time>2020-06-15T09:44:12Z</time>
      </trkpt>
      <trkpt lat="49.69664" lon="-1.26635">
        <ele>0.2</ele>
        <time>2020-06-15T09:44:13Z</time>
      </trkpt>
      <trkpt lat="49.69664" lon="-1.26635">
        <ele>0.2</ele>
        <time>2020-06-15T09:44:14Z</time>
      </trkpt>
      <trkpt lat="49.69669" lon="-1.26624">
        <ele>0.2</ele>
        <time>2020-06-15T09:50:04Z</time>
      </trkpt>
      <trkpt lat="49.6967" lon="-1.26623">
        <ele>0.2</ele>
        <time>2020-06-15T09:50:05Z</time>
      </trkpt>
      <trkpt lat="49.69671" lon="-1.26621">
        <ele>0.2</ele>
        <time>2020-06-15T09:50:06Z</time>
      </trkpt>
      <trkpt lat="49.69672" lon="-1.2662">
        <ele>0.2</ele>
        <time>2020-06-15T09:50:07Z</time>
      </trkpt>
      <trkpt lat="49.69673" lon="-1.2662">
        <ele>0.2</ele>
        <time>2020-06-15T09:50:08Z</time>
      </trkpt>
      <trkpt lat="49.69674" lon="-1.2662">
        <ele>0.2</ele>
        <time>2020-06-15T09:50:09Z</time>
      </trkpt>
      <trkpt lat="49.69675" lon="-1.26621">
        <ele>0.2</ele>
        <time>2020-06-15T09:50:10Z</time>
      </trkpt>
      <trkpt lat="49.69675" lon="-1.2662">
        <ele>0.2</ele>
        <time>2020-06-15T09:50:11Z</time>
      </trkpt>
      <trkpt lat="49.69676" lon="-1.2662">
        <ele>0.2</ele>
        <time>2020-06-15T09:50:12Z</time>
      </trkpt>
      <trkpt lat="49.69677" lon="-1.26621">
        <ele>0.2</ele>
        <time>2020-06-15T09:50:13Z</time>
      </trkpt>
      <trkpt lat="49.69678" lon="-1.2662">
        <ele>0.2</ele>
        <time>2020-06-15T09:50:14Z</time>
      </trkpt>
      <trkpt lat="49.69679" lon="-1.2662">
        <ele>0.2</ele>
        <time>2020-06-15T09:50:15Z</time>
      </trkpt>
      <trkpt lat="49.69679" lon="-1.2662">
        <ele>0.2</ele>
        <time>2020-06-15T09:50:16Z</time>
      </trkpt>
      <trkpt lat="49.6968" lon="-1.2662">
        <ele>0.2</ele>
        <time>2020-06-15T09:50:17Z</time>
      </trkpt>
      <trkpt lat="49.69681" lon="-1.2662">
        <ele>0.2</ele>
        <time>2020-06-15T09:50:18Z</time>
      </trkpt>
      <trkpt lat="49.69682" lon="-1.26621">
        <ele>0.2</ele>
        <time>2020-06-15T09:50:19Z</time>
      </trkpt>
      <trkpt lat="49.69682" lon="-1.2662">
        <ele>0.2</ele>
        <time>2020-06-15T09:50:20Z</time>
      </trkpt>
      <trkpt lat="49.69683" lon="-1.2662">
        <ele>0.2</ele>
        <time>2020-06-15T09:50:21Z</time>
      </trkpt>
      <trkpt lat="49.69683" lon="-1.2662">
        <ele>0.2</ele>
        <time>2020-06-15T09:50:22Z</time>
      </trkpt>
      <trkpt lat="49.69683" lon="-1.2662">
        <ele>0.2</ele>
        <time>2020-06-15T09:50:23Z</time>
      </trkpt>
      <trkpt lat="49.69683" lon="-1.2662">
        <ele>0.2</ele>
        <time>2020-06-15T09:50:24Z</time>
      </trkpt>
      <trkpt lat="49.69683" lon="-1.2662">
        <ele>0.2</ele>
        <time>2020-06-15T09:50:25Z</time>
      </trkpt>
      <trkpt lat="49.69683" lon="-1.2662">
        <ele>0.2</ele>
        <time>2020-06-15T09:50:26Z</time>
      </trkpt>
      <trkpt lat="49.69684" lon="-1.26618">
        <ele>0.2</ele>
        <time>2020-06-15T09:50:27Z</time>
      </trkpt>
      <trkpt lat="49.69685" lon="-1.26618">
        <ele>0.2</ele>
        <time>2020-06-15T09:50:28Z</time>
      </trkpt>
      <trkpt lat="49.69686" lon="-1.26618">
        <ele>0.2</ele>
        <time>2020-06-15T09:50:29Z</time>
      </trkpt>
      <trkpt lat="49.69688" lon="-1.26618">
        <ele>0.2</ele>
        <time>2020-06-15T09:50:30Z</time>
      </trkpt>
      <trkpt lat="49.69689" lon="-1.26617">
        <ele>0.2</ele>
        <time>2020-06-15T09:50:31Z</time>
      </trkpt>
      <trkpt lat="49.6969" lon="-1.26616">
        <ele>0.2</ele>
        <time>2020-06-15T09:50:32Z</time>
      </trkpt>
      <trkpt lat="49.69691" lon="-1.26616">
        <ele>0.2</ele>
        <time>2020-06-15T09:50:33Z</time>
      </trkpt>
      <trkpt lat="49.69692" lon="-1.26616">
        <ele>0.2</ele>
        <time>2020-06-15T09:50:34Z</time>
      </trkpt>
      <trkpt lat="49.69693" lon="-1.26616">
        <ele>0.2</ele>
        <time>2020-06-15T09:50:35Z</time>
      </trkpt>
      <trkpt lat="49.69694" lon="-1.26615">
        <ele>0.2</ele>
        <time>2020-06-15T09:50:36Z</time>
      </trkpt>
      <trkpt lat="49.69695" lon="-1.26615">
        <ele>0.2</ele>
        <time>2020-06-15T09:50:37Z</time>
      </trkpt>
      <trkpt lat="49.69696" lon="-1.26615">
        <ele>0.2</ele>
        <time>2020-06-15T09:50:38Z</time>
      </trkpt>
      <trkpt lat="49.69697" lon="-1.26616">
        <ele>0.2</ele>
        <time>2020-06-15T09:50:39Z</time>
      </trkpt>
      <trkpt lat="49.69698" lon="-1.26616">
        <ele>0.2</ele>
        <time>2020-06-15T09:50:40Z</time>
      </trkpt>
      <trkpt lat="49.69699" lon="-1.26617">
        <ele>0.2</ele>
        <time>2020-06-15T09:50:41Z</time>
      </trkpt>
      <trkpt lat="49.69701" lon="-1.26617">
        <ele>0.2</ele>
        <time>2020-06-15T09:50:42Z</time>
      </trkpt>
      <trkpt lat="49.69701" lon="-1.26617">
        <ele>0.2</ele>
        <time>2020-06-15T09:50:43Z</time>
      </trkpt>
      <trkpt lat="49.69701" lon="-1.26617">
        <ele>0.2</ele>
        <time>2020-06-15T09:50:44Z</time>
      </trkpt>
      <trkpt lat="49.69701" lon="-1.26617">
        <ele>0.2</ele>
        <time>2020-06-15T09:50:45Z</time>
      </trkpt>
      <trkpt lat="49.69701" lon="-1.26617">
        <ele>0.2</ele>
        <time>2020-06-15T09:50:46Z</time>
      </trkpt>
      <trkpt lat="49.69701" lon="-1.26617">
        <ele>0.2</ele>
        <time>2020-06-15T09:50:47Z</time>
      </trkpt>
      <trkpt lat="49.69701" lon="-1.26617">
        <ele>0.2</ele>
        <time>2020-06-15T09:50:48Z</time>
      </trkpt>
      <trkpt lat="49.69701" lon="-1.26617">
        <ele>0.2</ele>
        <time>2020-06-15T09:50:49Z</time>
      </trkpt>
      <trkpt lat="49.69701" lon="-1.26617">
        <ele>0.2</ele>
        <time>2020-06-15T09:50:50Z</time>
      </trkpt>
      <trkpt lat="49.69701" lon="-1.26617">
        <ele>0.2</ele>
        <time>2020-06-15T09:50:51Z</time>
      </trkpt>
      <trkpt lat="49.69705" lon="-1.26617">
        <ele>0.2</ele>
        <time>2020-06-15T09:50:58Z</time>
      </trkpt>
      <trkpt lat="49.69706" lon="-1.26617">
        <ele>0.2</ele>
        <time>2020-06-15T09:50:59Z</time>
      </trkpt>
      <trkpt lat="49.69707" lon="-1.26617">
        <ele>0.2</ele>
        <time>2020-06-15T09:51:00Z</time>
      </trkpt>
      <trkpt lat="49.69708" lon="-1.26616">
        <ele>0.2</ele>
        <time>2020-06-15T09:51:01Z</time>
      </trkpt>
      <trkpt lat="49.69709" lon="-1.26616">
        <ele>0.2</ele>
        <time>2020-06-15T09:51:02Z</time>
      </trkpt>
      <trkpt lat="49.6971" lon="-1.26615">
        <ele>0.2</ele>
        <time>2020-06-15T09:51:03Z</time>
      </trkpt>
      <trkpt lat="49.69711" lon="-1.26616">
        <ele>0.2</ele>
        <time>2020-06-15T09:51:04Z</time>
      </trkpt>
      <trkpt lat="49.69713" lon="-1.26617">
        <ele>0.2</ele>
        <time>2020-06-15T09:51:05Z</time>
      </trkpt>
      <trkpt lat="49.69714" lon="-1.26617">
        <ele>0.2</ele>
        <time>2020-06-15T09:51:06Z</time>
      </trkpt>
      <trkpt lat="49.69715" lon="-1.26617">
        <ele>0.2</ele>
        <time>2020-06-15T09:51:07Z</time>
      </trkpt>
      <trkpt lat="49.69716" lon="-1.26618">
        <ele>0.2</ele>
        <time>2020-06-15T09:51:08Z</time>
      </trkpt>
      <trkpt lat="49.69717" lon="-1.26618">
        <ele>0.2</ele>
        <time>2020-06-15T09:51:09Z</time>
      </trkpt>
      <trkpt lat="49.69718" lon="-1.26617">
        <ele>0.2</ele>
        <time>2020-06-15T09:51:10Z</time>
      </trkpt>
      <trkpt lat="49.69718" lon="-1.26617">
        <ele>0.2</ele>
        <time>2020-06-15T09:51:11Z</time>
      </trkpt>
      <trkpt lat="49.69719" lon="-1.26617">
        <ele>0.2</ele>
        <time>2020-06-15T09:51:12Z</time>
      </trkpt>
      <trkpt lat="49.69719" lon="-1.26616">
        <ele>0.2</ele>
        <time>2020-06-15T09:51:13Z</time>
      </trkpt>
      <trkpt lat="49.69719" lon="-1.26615">
        <ele>0.2</ele>
        <time>2020-06-15T09:51:14Z</time>
      </trkpt>
      <trkpt lat="49.69719" lon="-1.26615">
        <ele>0.2</ele>
        <time>2020-06-15T09:51:15Z</time>
      </trkpt>
      <trkpt lat="49.69719" lon="-1.26614">
        <ele>0.2</ele>
        <time>2020-06-15T09:51:16Z</time>
      </trkpt>
      <trkpt lat="49.6972" lon="-1.26613">
        <ele>0.2</ele>
        <time>2020-06-15T09:51:17Z</time>
      </trkpt>
      <trkpt lat="49.6972" lon="-1.26612">
        <ele>0.2</ele>
        <time>2020-06-15T09:51:18Z</time>
      </trkpt>
      <trkpt lat="49.69721" lon="-1.26611">
        <ele>0.2</ele>
        <time>2020-06-15T09:51:19Z</time>
      </trkpt>
      <trkpt lat="49.69722" lon="-1.26611">
        <ele>0.2</ele>
        <time>2020-06-15T09:51:20Z</time>
      </trkpt>
      <trkpt lat="49.69722" lon="-1.26611">
        <ele>0.2</ele>
        <time>2020-06-15T09:51:21Z</time>
      </trkpt>
      <trkpt lat="49.69723" lon="-1.2661">
        <ele>0.2</ele>
        <time>2020-06-15T09:51:22Z</time>
      </trkpt>
      <trkpt lat="49.69724" lon="-1.26609">
        <ele>0.2</ele>
        <time>2020-06-15T09:51:23Z</time>
      </trkpt>
      <trkpt lat="49.69725" lon="-1.26608">
        <ele>0.2</ele>
        <time>2020-06-15T09:51:24Z</time>
      </trkpt>
      <trkpt lat="49.69726" lon="-1.26607">
        <ele>0.2</ele>
        <time>2020-06-15T09:51:25Z</time>
      </trkpt>
      <trkpt lat="49.69727" lon="-1.26607">
        <ele>0.2</ele>
        <time>2020-06-15T09:51:26Z</time>
      </trkpt>
      <trkpt lat="49.69727" lon="-1.26606">
        <ele>0.2</ele>
        <time>2020-06-15T09:51:27Z</time>
      </trkpt>
      <trkpt lat="49.69727" lon="-1.26606">
        <ele>0.2</ele>
        <time>2020-06-15T09:51:28Z</time>
      </trkpt>
      <trkpt lat="49.69728" lon="-1.26606">
        <ele>0.2</ele>
        <time>2020-06-15T09:51:29Z</time>
      </trkpt>
      <trkpt lat="49.69728" lon="-1.26606">
        <ele>0.2</ele>
        <time>2020-06-15T09:51:30Z</time>
      </trkpt>
      <trkpt lat="49.69729" lon="-1.26607">
        <ele>0.2</ele>
        <time>2020-06-15T09:51:31Z</time>
      </trkpt>
      <trkpt lat="49.69729" lon="-1.26606">
        <ele>0.2</ele>
        <time>2020-06-15T09:51:32Z</time>
      </trkpt>
      <trkpt lat="49.6973" lon="-1.26607">
        <ele>0.2</ele>
        <time>2020-06-15T09:51:33Z</time>
      </trkpt>
      <trkpt lat="49.6973" lon="-1.26608">
        <ele>0.2</ele>
        <time>2020-06-15T09:51:34Z</time>
      </trkpt>
      <trkpt lat="49.69731" lon="-1.26609">
        <ele>0.2</ele>
        <time>2020-06-15T09:51:35Z</time>
      </trkpt>
      <trkpt lat="49.69731" lon="-1.2661">
        <ele>0.2</ele>
        <time>2020-06-15T09:51:36Z</time>
      </trkpt>
      <trkpt lat="49.69731" lon="-1.26611">
        <ele>0.2</ele>
        <time>2020-06-15T09:51:37Z</time>
      </trkpt>
      <trkpt lat="49.69732" lon="-1.26611">
        <ele>0.2</ele>
        <time>2020-06-15T09:51:38Z</time>
      </trkpt>
      <trkpt lat="49.69732" lon="-1.26612">
        <ele>0.2</ele>
        <time>2020-06-15T09:51:39Z</time>
      </trkpt>
      <trkpt lat="49.69733" lon="-1.26613">
        <ele>0.2</ele>
        <time>2020-06-15T09:51:40Z</time>
      </trkpt>
      <trkpt lat="49.69733" lon="-1.26615">
        <ele>0.2</ele>
        <time>2020-06-15T09:51:41Z</time>
      </trkpt>
      <trkpt lat="49.69732" lon="-1.26616">
        <ele>0.2</ele>
        <time>2020-06-15T09:51:42Z</time>
      </trkpt>
      <trkpt lat="49.69733" lon="-1.26618">
        <ele>0.2</ele>
        <time>2020-06-15T09:51:43Z</time>
      </trkpt>
      <trkpt lat="49.69733" lon="-1.2662">
        <ele>0.2</ele>
        <time>2020-06-15T09:51:44Z</time>
      </trkpt>
      <trkpt lat="49.69733" lon="-1.26621">
        <ele>0.2</ele>
        <time>2020-06-15T09:51:45Z</time>
      </trkpt>
      <trkpt lat="49.69734" lon="-1.26622">
        <ele>0.2</ele>
        <time>2020-06-15T09:51:46Z</time>
      </trkpt>
      <trkpt lat="49.69734" lon="-1.26623">
        <ele>0.2</ele>
        <time>2020-06-15T09:51:47Z</time>
      </trkpt>
      <trkpt lat="49.69734" lon="-1.26625">
        <ele>0.2</ele>
        <time>2020-06-15T09:51:48Z</time>
      </trkpt>
      <trkpt lat="49.69735" lon="-1.26625">
        <ele>0.2</ele>
        <time>2020-06-15T09:51:49Z</time>
      </trkpt>
      <trkpt lat="49.69735" lon="-1.26626">
        <ele>0.2</ele>
        <time>2020-06-15T09:51:50Z</time>
      </trkpt>
      <trkpt lat="49.69735" lon="-1.26627">
        <ele>0.2</ele>
        <time>2020-06-15T09:51:51Z</time>
      </trkpt>
      <trkpt lat="49.69735" lon="-1.26627">
        <ele>0.2</ele>
        <time>2020-06-15T09:51:52Z</time>
      </trkpt>
      <trkpt lat="49.69735" lon="-1.26628">
        <ele>0.2</ele>
        <time>2020-06-15T09:51:53Z</time>
      </trkpt>
      <trkpt lat="49.69735" lon="-1.26629">
        <ele>0.2</ele>
        <time>2020-06-15T09:51:54Z</time>
      </trkpt>
      <trkpt lat="49.69735" lon="-1.2663">
        <ele>0.2</ele>
        <time>2020-06-15T09:51:55Z</time>
      </trkpt>
      <trkpt lat="49.69735" lon="-1.2663">
        <ele>0.2</ele>
        <time>2020-06-15T09:51:56Z</time>
      </trkpt>
      <trkpt lat="49.69735" lon="-1.2663">
        <ele>0.2</ele>
        <time>2020-06-15T09:51:57Z</time>
      </trkpt>
      <trkpt lat="49.69735" lon="-1.2663">
        <ele>0.2</ele>
        <time>2020-06-15T09:51:58Z</time>
      </trkpt>
      <trkpt lat="49.69735" lon="-1.2663">
        <ele>0.2</ele>
        <time>2020-06-15T09:51:59Z</time>
      </trkpt>
      <trkpt lat="49.69735" lon="-1.26631">
        <ele>0.2</ele>
        <time>2020-06-15T09:52:00Z</time>
      </trkpt>
      <trkpt lat="49.69735" lon="-1.26631">
        <ele>0.2</ele>
        <time>2020-06-15T09:52:01Z</time>
      </trkpt>
      <trkpt lat="49.69735" lon="-1.26631">
        <ele>0.2</ele>
        <time>2020-06-15T09:52:02Z</time>
      </trkpt>
      <trkpt lat="49.69735" lon="-1.26631">
        <ele>0.2</ele>
        <time>2020-06-15T09:52:03Z</time>
      </trkpt>
      <trkpt lat="49.69735" lon="-1.26631">
        <ele>0.2</ele>
        <time>2020-06-15T09:52:04Z</time>
      </trkpt>
      <trkpt lat="49.69736" lon="-1.26631">
        <ele>0.2</ele>
        <time>2020-06-15T09:52:05Z</time>
      </trkpt>
      <trkpt lat="49.6974" lon="-1.26649">
        <ele>0.2</ele>
        <time>2020-06-15T09:53:10Z</time>
      </trkpt>
      <trkpt lat="49.6974" lon="-1.2665">
        <ele>0.2</ele>
        <time>2020-06-15T09:53:11Z</time>
      </trkpt>
      <trkpt lat="49.69741" lon="-1.26652">
        <ele>0.2</ele>
        <time>2020-06-15T09:53:12Z</time>
      </trkpt>
      <trkpt lat="49.6974" lon="-1.26654">
        <ele>0.2</ele>
        <time>2020-06-15T09:53:13Z</time>
      </trkpt>
      <trkpt lat="49.6974" lon="-1.26655">
        <ele>0.2</ele>
        <time>2020-06-15T09:53:14Z</time>
      </trkpt>
      <trkpt lat="49.6974" lon="-1.26655">
        <ele>0.2</ele>
        <time>2020-06-15T09:53:15Z</time>
      </trkpt>
      <trkpt lat="49.69739" lon="-1.26656">
        <ele>0.2</ele>
        <time>2020-06-15T09:53:16Z</time>
      </trkpt>
      <trkpt lat="49.69739" lon="-1.26657">
        <ele>0.2</ele>
        <time>2020-06-15T09:53:17Z</time>
      </trkpt>
      <trkpt lat="49.69739" lon="-1.26658">
        <ele>0.2</ele>
        <time>2020-06-15T09:53:18Z</time>
      </trkpt>
      <trkpt lat="49.69738" lon="-1.26659">
        <ele>0.2</ele>
        <time>2020-06-15T09:53:19Z</time>
      </trkpt>
      <trkpt lat="49.69738" lon="-1.26659">
        <ele>0.2</ele>
        <time>2020-06-15T09:53:20Z</time>
      </trkpt>
      <trkpt lat="49.69738" lon="-1.2666">
        <ele>0.2</ele>
        <time>2020-06-15T09:53:21Z</time>
      </trkpt>
      <trkpt lat="49.69738" lon="-1.26661">
        <ele>0.2</ele>
        <time>2020-06-15T09:53:22Z</time>
      </trkpt>
      <trkpt lat="49.69737" lon="-1.26662">
        <ele>0.2</ele>
        <time>2020-06-15T09:53:23Z</time>
      </trkpt>
      <trkpt lat="49.69737" lon="-1.26662">
        <ele>0.2</ele>
        <time>2020-06-15T09:53:24Z</time>
      </trkpt>
      <trkpt lat="49.69737" lon="-1.26663">
        <ele>0.2</ele>
        <time>2020-06-15T09:53:25Z</time>
      </trkpt>
      <trkpt lat="49.69736" lon="-1.26664">
        <ele>0.2</ele>
        <time>2020-06-15T09:53:26Z</time>
      </trkpt>
      <trkpt lat="49.69736" lon="-1.26665">
        <ele>0.2</ele>
        <time>2020-06-15T09:57:21Z</time>
      </trkpt>
      <trkpt lat="49.69736" lon="-1.26666">
        <ele>0.2</ele>
        <time>2020-06-15T09:57:22Z</time>
      </trkpt>
      <trkpt lat="49.69736" lon="-1.26666">
        <ele>0.2</ele>
        <time>2020-06-15T09:57:23Z</time>
      </trkpt>
      <trkpt lat="49.69735" lon="-1.26667">
        <ele>0.2</ele>
        <time>2020-06-15T09:57:24Z</time>
      </trkpt>
      <trkpt lat="49.69735" lon="-1.26668">
        <ele>0.2</ele>
        <time>2020-06-15T09:57:25Z</time>
      </trkpt>
      <trkpt lat="49.69735" lon="-1.26669">
        <ele>0.2</ele>
        <time>2020-06-15T09:57:26Z</time>
      </trkpt>
      <trkpt lat="49.69735" lon="-1.26669">
        <ele>0.2</ele>
        <time>2020-06-15T09:57:27Z</time>
      </trkpt>
      <trkpt lat="49.69735" lon="-1.26669">
        <ele>0.2</ele>
        <time>2020-06-15T09:57:28Z</time>
      </trkpt>
      <trkpt lat="49.69735" lon="-1.26669">
        <ele>0.2</ele>
        <time>2020-06-15T09:57:29Z</time>
      </trkpt>
      <trkpt lat="49.69735" lon="-1.26668">
        <ele>0.2</ele>
        <time>2020-06-15T09:57:30Z</time>
      </trkpt>
      <trkpt lat="49.69735" lon="-1.26669">
        <ele>0.2</ele>
        <time>2020-06-15T09:57:31Z</time>
      </trkpt>
      <trkpt lat="49.69735" lon="-1.26669">
        <ele>0.2</ele>
        <time>2020-06-15T09:57:32Z</time>
      </trkpt>
      <trkpt lat="49.69735" lon="-1.26669">
        <ele>0.2</ele>
        <time>2020-06-15T09:57:33Z</time>
      </trkpt>
      <trkpt lat="49.69735" lon="-1.26669">
        <ele>0.2</ele>
        <time>2020-06-15T09:57:34Z</time>
      </trkpt>
      <trkpt lat="49.69735" lon="-1.26669">
        <ele>0.2</ele>
        <time>2020-06-15T09:57:35Z</time>
      </trkpt>
      <trkpt lat="49.69735" lon="-1.26669">
        <ele>0.2</ele>
        <time>2020-06-15T09:57:36Z</time>
      </trkpt>
      <trkpt lat="49.69728" lon="-1.26665">
        <ele>0.2</ele>
        <time>2020-06-15T09:57:47Z</time>
      </trkpt>
      <trkpt lat="49.69728" lon="-1.26664">
        <ele>0.2</ele>
        <time>2020-06-15T09:57:48Z</time>
      </trkpt>
      <trkpt lat="49.69727" lon="-1.26665">
        <ele>0.2</ele>
        <time>2020-06-15T09:57:49Z</time>
      </trkpt>
      <trkpt lat="49.69726" lon="-1.26665">
        <ele>0.2</ele>
        <time>2020-06-15T09:57:50Z</time>
      </trkpt>
      <trkpt lat="49.69726" lon="-1.26666">
        <ele>0.2</ele>
        <time>2020-06-15T09:57:51Z</time>
      </trkpt>
      <trkpt lat="49.69725" lon="-1.26666">
        <ele>0.2</ele>
        <time>2020-06-15T09:57:52Z</time>
      </trkpt>
      <trkpt lat="49.69725" lon="-1.26666">
        <ele>0.2</ele>
        <time>2020-06-15T09:57:53Z</time>
      </trkpt>
      <trkpt lat="49.69725" lon="-1.26664">
        <ele>0.2</ele>
        <time>2020-06-15T09:57:54Z</time>
      </trkpt>
      <trkpt lat="49.69723" lon="-1.26663">
        <ele>0.2</ele>
        <time>2020-06-15T09:57:55Z</time>
      </trkpt>
      <trkpt lat="49.69722" lon="-1.26662">
        <ele>0.2</ele>
        <time>2020-06-15T09:57:56Z</time>
      </trkpt>
      <trkpt lat="49.69721" lon="-1.26661">
        <ele>0.2</ele>
        <time>2020-06-15T09:57:57Z</time>
      </trkpt>
      <trkpt lat="49.69721" lon="-1.2666">
        <ele>0.2</ele>
        <time>2020-06-15T09:57:58Z</time>
      </trkpt>
      <trkpt lat="49.6972" lon="-1.26659">
        <ele>0.2</ele>
        <time>2020-06-15T09:57:59Z</time>
      </trkpt>
      <trkpt lat="49.69719" lon="-1.26659">
        <ele>0.2</ele>
        <time>2020-06-15T09:58:00Z</time>
      </trkpt>
      <trkpt lat="49.69718" lon="-1.26658">
        <ele>0.2</ele>
        <time>2020-06-15T09:58:01Z</time>
      </trkpt>
      <trkpt lat="49.69718" lon="-1.26657">
        <ele>0.2</ele>
        <time>2020-06-15T09:58:02Z</time>
      </trkpt>
      <trkpt lat="49.69717" lon="-1.26656">
        <ele>0.2</ele>
        <time>2020-06-15T09:58:03Z</time>
      </trkpt>
      <trkpt lat="49.69715" lon="-1.26655">
        <ele>0.2</ele>
        <time>2020-06-15T09:58:04Z</time>
      </trkpt>
      <trkpt lat="49.69714" lon="-1.26655">
        <ele>0.2</ele>
        <time>2020-06-15T09:58:05Z</time>
      </trkpt>
      <trkpt lat="49.69713" lon="-1.26655">
        <ele>0.2</ele>
        <time>2020-06-15T09:58:06Z</time>
      </trkpt>
      <trkpt lat="49.69713" lon="-1.26654">
        <ele>0.2</ele>
        <time>2020-06-15T09:58:07Z</time>
      </trkpt>
      <trkpt lat="49.69713" lon="-1.26653">
        <ele>0.2</ele>
        <time>2020-06-15T09:58:08Z</time>
      </trkpt>
      <trkpt lat="49.69713" lon="-1.26651">
        <ele>0.2</ele>
        <time>2020-06-15T09:58:09Z</time>
      </trkpt>
      <trkpt lat="49.69712" lon="-1.2665">
        <ele>0.2</ele>
        <time>2020-06-15T09:58:10Z</time>
      </trkpt>
      <trkpt lat="49.69712" lon="-1.26649">
        <ele>0.2</ele>
        <time>2020-06-15T09:58:11Z</time>
      </trkpt>
      <trkpt lat="49.69711" lon="-1.26648">
        <ele>0.2</ele>
        <time>2020-06-15T09:58:12Z</time>
      </trkpt>
      <trkpt lat="49.6971" lon="-1.26647">
        <ele>0.2</ele>
        <time>2020-06-15T09:58:13Z</time>
      </trkpt>
      <trkpt lat="49.6971" lon="-1.26646">
        <ele>0.2</ele>
        <time>2020-06-15T09:58:14Z</time>
      </trkpt>
      <trkpt lat="49.69709" lon="-1.26645">
        <ele>0.2</ele>
        <time>2020-06-15T09:58:15Z</time>
      </trkpt>
      <trkpt lat="49.69707" lon="-1.26644">
        <ele>0.2</ele>
        <time>2020-06-15T09:58:16Z</time>
      </trkpt>
      <trkpt lat="49.69706" lon="-1.26644">
        <ele>0.2</ele>
        <time>2020-06-15T09:58:17Z</time>
      </trkpt>
      <trkpt lat="49.69706" lon="-1.26643">
        <ele>0.2</ele>
        <time>2020-06-15T09:58:18Z</time>
      </trkpt>
      <trkpt lat="49.69705" lon="-1.26643">
        <ele>0.2</ele>
        <time>2020-06-15T09:58:19Z</time>
      </trkpt>
      <trkpt lat="49.69705" lon="-1.26643">
        <ele>0.2</ele>
        <time>2020-06-15T09:58:20Z</time>
      </trkpt>
      <trkpt lat="49.69704" lon="-1.26643">
        <ele>0.2</ele>
        <time>2020-06-15T09:58:21Z</time>
      </trkpt>
      <trkpt lat="49.69704" lon="-1.26643">
        <ele>0.2</ele>
        <time>2020-06-15T09:58:22Z</time>
      </trkpt>
      <trkpt lat="49.69703" lon="-1.26641">
        <ele>0.2</ele>
        <time>2020-06-15T09:58:23Z</time>
      </trkpt>
      <trkpt lat="49.69702" lon="-1.2664">
        <ele>0.2</ele>
        <time>2020-06-15T09:58:24Z</time>
      </trkpt>
      <trkpt lat="49.69701" lon="-1.26639">
        <ele>0.2</ele>
        <time>2020-06-15T09:58:25Z</time>
      </trkpt>
      <trkpt lat="49.697" lon="-1.26638">
        <ele>0.2</ele>
        <time>2020-06-15T09:58:26Z</time>
      </trkpt>
      <trkpt lat="49.697" lon="-1.26637">
        <ele>0.2</ele>
        <time>2020-06-15T09:58:27Z</time>
      </trkpt>
      <trkpt lat="49.69699" lon="-1.26637">
        <ele>0.2</ele>
        <time>2020-06-15T09:58:28Z</time>
      </trkpt>
      <trkpt lat="49.697" lon="-1.26637">
        <ele>0.2</ele>
        <time>2020-06-15T09:58:29Z</time>
      </trkpt>
      <trkpt lat="49.69699" lon="-1.26637">
        <ele>0.2</ele>
        <time>2020-06-15T09:58:30Z</time>
      </trkpt>
      <trkpt lat="49.69699" lon="-1.26636">
        <ele>0.2</ele>
        <time>2020-06-15T09:58:31Z</time>
      </trkpt>
      <trkpt lat="49.69699" lon="-1.26636">
        <ele>0.2</ele>
        <time>2020-06-15T09:58:32Z</time>
      </trkpt>
      <trkpt lat="49.69699" lon="-1.26636">
        <ele>0.2</ele>
        <time>2020-06-15T09:58:33Z</time>
      </trkpt>
      <trkpt lat="49.69699" lon="-1.26636">
        <ele>0.2</ele>
        <time>2020-06-15T09:58:34Z</time>
      </trkpt>
      <trkpt lat="49.69699" lon="-1.26636">
        <ele>0.2</ele>
        <time>2020-06-15T09:58:35Z</time>
      </trkpt>
      <trkpt lat="49.69698" lon="-1.26635">
        <ele>0.2</ele>
        <time>2020-06-15T09:58:36Z</time>
      </trkpt>
      <trkpt lat="49.69698" lon="-1.26635">
        <ele>0.2</ele>
        <time>2020-06-15T09:58:37Z</time>
      </trkpt>
      <trkpt lat="49.69692" lon="-1.26628">
        <ele>0.2</ele>
        <time>2020-06-15T09:58:45Z</time>
      </trkpt>
      <trkpt lat="49.69691" lon="-1.26626">
        <ele>0.2</ele>
        <time>2020-06-15T09:58:46Z</time>
      </trkpt>
      <trkpt lat="49.69689" lon="-1.26626">
        <ele>0.2</ele>
        <time>2020-06-15T09:58:47Z</time>
      </trkpt>
      <trkpt lat="49.69688" lon="-1.26625">
        <ele>0.2</ele>
        <time>2020-06-15T09:58:48Z</time>
      </trkpt>
      <trkpt lat="49.69687" lon="-1.26624">
        <ele>0.2</ele>
        <time>2020-06-15T09:58:49Z</time>
      </trkpt>
      <trkpt lat="49.69686" lon="-1.26624">
        <ele>0.2</ele>
        <time>2020-06-15T09:58:50Z</time>
      </trkpt>
      <trkpt lat="49.69684" lon="-1.26625">
        <ele>0.2</ele>
        <time>2020-06-15T09:58:51Z</time>
      </trkpt>
      <trkpt lat="49.69682" lon="-1.26626">
        <ele>0.2</ele>
        <time>2020-06-15T09:58:52Z</time>
      </trkpt>
      <trkpt lat="49.69681" lon="-1.26626">
        <ele>0.2</ele>
        <time>2020-06-15T09:58:53Z</time>
      </trkpt>
      <trkpt lat="49.6968" lon="-1.26626">
        <ele>0.2</ele>
        <time>2020-06-15T09:58:54Z</time>
      </trkpt>
      <trkpt lat="49.69679" lon="-1.26626">
        <ele>0.2</ele>
        <time>2020-06-15T09:58:55Z</time>
      </trkpt>
      <trkpt lat="49.69678" lon="-1.26627">
        <ele>0.2</ele>
        <time>2020-06-15T09:58:56Z</time>
      </trkpt>
      <trkpt lat="49.69677" lon="-1.26627">
        <ele>0.2</ele>
        <time>2020-06-15T09:58:57Z</time>
      </trkpt>
      <trkpt lat="49.69677" lon="-1.26628">
        <ele>0.2</ele>
        <time>2020-06-15T09:58:58Z</time>
      </trkpt>
      <trkpt lat="49.69676" lon="-1.26629">
        <ele>0.2</ele>
        <time>2020-06-15T09:58:59Z</time>
      </trkpt>
      <trkpt lat="49.69676" lon="-1.26629">
        <ele>0.2</ele>
        <time>2020-06-15T09:59:00Z</time>
      </trkpt>
      <trkpt lat="49.69675" lon="-1.26628">
        <ele>0.2</ele>
        <time>2020-06-15T09:59:01Z</time>
      </trkpt>
      <trkpt lat="49.69674" lon="-1.26629">
        <ele>0.2</ele>
        <time>2020-06-15T09:59:02Z</time>
      </trkpt>
      <trkpt lat="49.69674" lon="-1.26628">
        <ele>0.2</ele>
        <time>2020-06-15T09:59:03Z</time>
      </trkpt>
      <trkpt lat="49.69674" lon="-1.26628">
        <ele>0.2</ele>
        <time>2020-06-15T09:59:04Z</time>
      </trkpt>
      <trkpt lat="49.69674" lon="-1.26627">
        <ele>0.2</ele>
        <time>2020-06-15T09:59:05Z</time>
      </trkpt>
      <trkpt lat="49.69674" lon="-1.26627">
        <ele>0.2</ele>
        <time>2020-06-15T09:59:06Z</time>
      </trkpt>
      <trkpt lat="49.69674" lon="-1.26627">
        <ele>0.2</ele>
        <time>2020-06-15T09:59:07Z</time>
      </trkpt>
      <trkpt lat="49.69674" lon="-1.26626">
        <ele>0.2</ele>
        <time>2020-06-15T09:59:08Z</time>
      </trkpt>
      <trkpt lat="49.69673" lon="-1.26626">
        <ele>0.2</ele>
        <time>2020-06-15T09:59:09Z</time>
      </trkpt>
      <trkpt lat="49.69672" lon="-1.26625">
        <ele>0.2</ele>
        <time>2020-06-15T09:59:10Z</time>
      </trkpt>
      <trkpt lat="49.69671" lon="-1.26623">
        <ele>0.2</ele>
        <time>2020-06-15T09:59:11Z</time>
      </trkpt>
      <trkpt lat="49.69671" lon="-1.26622">
        <ele>0.2</ele>
        <time>2020-06-15T09:59:12Z</time>
      </trkpt>
      <trkpt lat="49.69671" lon="-1.26621">
        <ele>0.2</ele>
        <time>2020-06-15T09:59:13Z</time>
      </trkpt>
      <trkpt lat="49.69671" lon="-1.2662">
        <ele>0.2</ele>
        <time>2020-06-15T09:59:14Z</time>
      </trkpt>
      <trkpt lat="49.69671" lon="-1.26619">
        <ele>0.2</ele>
        <time>2020-06-15T09:59:15Z</time>
      </trkpt>
      <trkpt lat="49.69671" lon="-1.26618">
        <ele>0.2</ele>
        <time>2020-06-15T09:59:16Z</time>
      </trkpt>
      <trkpt lat="49.69671" lon="-1.26618">
        <ele>0.2</ele>
        <time>2020-06-15T09:59:17Z</time>
      </trkpt>
      <trkpt lat="49.69671" lon="-1.26618">
        <ele>0.2</ele>
        <time>2020-06-15T09:59:18Z</time>
      </trkpt>
      <trkpt lat="49.6967" lon="-1.26617">
        <ele>0.2</ele>
        <time>2020-06-15T09:59:19Z</time>
      </trkpt>
      <trkpt lat="49.6967" lon="-1.26616">
        <ele>0.2</ele>
        <time>2020-06-15T09:59:20Z</time>
      </trkpt>
      <trkpt lat="49.6967" lon="-1.26615">
        <ele>0.2</ele>
        <time>2020-06-15T09:59:21Z</time>
      </trkpt>
      <trkpt lat="49.6967" lon="-1.26615">
        <ele>0.2</ele>
        <time>2020-06-15T09:59:22Z</time>
      </trkpt>
      <trkpt lat="49.69669" lon="-1.26615">
        <ele>0.2</ele>
        <time>2020-06-15T09:59:23Z</time>
      </trkpt>
      <trkpt lat="49.69669" lon="-1.26613">
        <ele>0.2</ele>
        <time>2020-06-15T09:59:24Z</time>
      </trkpt>
      <trkpt lat="49.6967" lon="-1.26611">
        <ele>0.2</ele>
        <time>2020-06-15T09:59:25Z</time>
      </trkpt>
      <trkpt lat="49.6967" lon="-1.26611">
        <ele>0.2</ele>
        <time>2020-06-15T09:59:26Z</time>
      </trkpt>
      <trkpt lat="49.6967" lon="-1.2661">
        <ele>0.2</ele>
        <time>2020-06-15T09:59:27Z</time>
      </trkpt>
      <trkpt lat="49.6967" lon="-1.2661">
        <ele>0.2</ele>
        <time>2020-06-15T09:59:28Z</time>
      </trkpt>
      <trkpt lat="49.6967" lon="-1.26609">
        <ele>0.2</ele>
        <time>2020-06-15T09:59:29Z</time>
      </trkpt>
      <trkpt lat="49.6967" lon="-1.26609">
        <ele>0.2</ele>
        <time>2020-06-15T09:59:30Z</time>
      </trkpt>
      <trkpt lat="49.6967" lon="-1.26609">
        <ele>0.2</ele>
        <time>2020-06-15T09:59:31Z</time>
      </trkpt>
      <trkpt lat="49.6967" lon="-1.26609">
        <ele>0.2</ele>
        <time>2020-06-15T09:59:32Z</time>
      </trkpt>
      <trkpt lat="49.69669" lon="-1.26609">
        <ele>0.2</ele>
        <time>2020-06-15T09:59:33Z</time>
      </trkpt>
      <trkpt lat="49.69669" lon="-1.26609">
        <ele>0.2</ele>
        <time>2020-06-15T09:59:34Z</time>
      </trkpt>
      <trkpt lat="49.69669" lon="-1.26609">
        <ele>0.2</ele>
        <time>2020-06-15T09:59:35Z</time>
      </trkpt>
      <trkpt lat="49.69669" lon="-1.26608">
        <ele>0.2</ele>
        <time>2020-06-15T09:59:36Z</time>
      </trkpt>
      <trkpt lat="49.69669" lon="-1.26608">
        <ele>0.2</ele>
        <time>2020-06-15T09:59:37Z</time>
      </trkpt>
      <trkpt lat="49.69668" lon="-1.26608">
        <ele>0.2</ele>
        <time>2020-06-15T09:59:38Z</time>
      </trkpt>
      <trkpt lat="49.69664" lon="-1.26608">
        <ele>0.2</ele>
        <time>2020-06-15T09:59:44Z</time>
      </trkpt>
      <trkpt lat="49.69663" lon="-1.26608">
        <ele>0.2</ele>
        <time>2020-06-15T09:59:45Z</time>
      </trkpt>
      <trkpt lat="49.69663" lon="-1.26608">
        <ele>0.2</ele>
        <time>2020-06-15T09:59:46Z</time>
      </trkpt>
      <trkpt lat="49.69661" lon="-1.26609">
        <ele>0.2</ele>
        <time>2020-06-15T09:59:47Z</time>
      </trkpt>
      <trkpt lat="49.69661" lon="-1.26609">
        <ele>0.2</ele>
        <time>2020-06-15T09:59:48Z</time>
      </trkpt>
      <trkpt lat="49.6966" lon="-1.26609">
        <ele>0.2</ele>
        <time>2020-06-15T09:59:49Z</time>
      </trkpt>
      <trkpt lat="49.69659" lon="-1.26609">
        <ele>0.2</ele>
        <time>2020-06-15T09:59:50Z</time>
      </trkpt>
      <trkpt lat="49.69657" lon="-1.26609">
        <ele>0.2</ele>
        <time>2020-06-15T09:59:51Z</time>
      </trkpt>
      <trkpt lat="49.69656" lon="-1.2661">
        <ele>0.2</ele>
        <time>2020-06-15T09:59:52Z</time>
      </trkpt>
      <trkpt lat="49.69654" lon="-1.26611">
        <ele>0.2</ele>
        <time>2020-06-15T09:59:53Z</time>
      </trkpt>
      <trkpt lat="49.69653" lon="-1.26611">
        <ele>0.2</ele>
        <time>2020-06-15T09:59:54Z</time>
      </trkpt>
      <trkpt lat="49.69652" lon="-1.26612">
        <ele>0.2</ele>
        <time>2020-06-15T09:59:55Z</time>
      </trkpt>
      <trkpt lat="49.69651" lon="-1.26612">
        <ele>0.2</ele>
        <time>2020-06-15T09:59:56Z</time>
      </trkpt>
      <trkpt lat="49.69649" lon="-1.26612">
        <ele>0.2</ele>
        <time>2020-06-15T09:59:57Z</time>
      </trkpt>
      <trkpt lat="49.69648" lon="-1.26613">
        <ele>0.2</ele>
        <time>2020-06-15T09:59:58Z</time>
      </trkpt>
      <trkpt lat="49.69646" lon="-1.26614">
        <ele>0.2</ele>
        <time>2020-06-15T09:59:59Z</time>
      </trkpt>
      <trkpt lat="49.69645" lon="-1.26614">
        <ele>0.2</ele>
        <time>2020-06-15T10:00:00Z</time>
      </trkpt>
      <trkpt lat="49.69643" lon="-1.26614">
        <ele>0.2</ele>
        <time>2020-06-15T10:00:01Z</time>
      </trkpt>
      <trkpt lat="49.69642" lon="-1.26614">
        <ele>0.2</ele>
        <time>2020-06-15T10:00:02Z</time>
      </trkpt>
      <trkpt lat="49.6964" lon="-1.26613">
        <ele>0.2</ele>
        <time>2020-06-15T10:00:03Z</time>
      </trkpt>
      <trkpt lat="49.69637" lon="-1.26611">
        <ele>0.2</ele>
        <time>2020-06-15T10:00:04Z</time>
      </trkpt>
      <trkpt lat="49.69636" lon="-1.26611">
        <ele>0.3</ele>
        <time>2020-06-15T10:00:05Z</time>
      </trkpt>
      <trkpt lat="49.69633" lon="-1.26609">
        <ele>0.3</ele>
        <time>2020-06-15T10:00:06Z</time>
      </trkpt>
      <trkpt lat="49.69631" lon="-1.26609">
        <ele>0.4</ele>
        <time>2020-06-15T10:00:07Z</time>
      </trkpt>
      <trkpt lat="49.69629" lon="-1.26606">
        <ele>0.4</ele>
        <time>2020-06-15T10:00:08Z</time>
      </trkpt>
      <trkpt lat="49.69628" lon="-1.26606">
        <ele>0.4</ele>
        <time>2020-06-15T10:00:09Z</time>
      </trkpt>
      <trkpt lat="49.69625" lon="-1.26605">
        <ele>0.5</ele>
        <time>2020-06-15T10:00:10Z</time>
      </trkpt>
      <trkpt lat="49.69624" lon="-1.26604">
        <ele>0.5</ele>
        <time>2020-06-15T10:00:11Z</time>
      </trkpt>
      <trkpt lat="49.69622" lon="-1.26604">
        <ele>0.5</ele>
        <time>2020-06-15T10:00:12Z</time>
      </trkpt>
      <trkpt lat="49.69621" lon="-1.26604">
        <ele>0.5</ele>
        <time>2020-06-15T10:00:13Z</time>
      </trkpt>
      <trkpt lat="49.69618" lon="-1.26605">
        <ele>0.6</ele>
        <time>2020-06-15T10:00:14Z</time>
      </trkpt>
      <trkpt lat="49.69617" lon="-1.26606">
        <ele>0.6</ele>
        <time>2020-06-15T10:00:15Z</time>
      </trkpt>
      <trkpt lat="49.69614" lon="-1.26606">
        <ele>0.6</ele>
        <time>2020-06-15T10:00:16Z</time>
      </trkpt>
      <trkpt lat="49.69613" lon="-1.26607">
        <ele>0.6</ele>
        <time>2020-06-15T10:00:17Z</time>
      </trkpt>
      <trkpt lat="49.69609" lon="-1.26607">
        <ele>0.6</ele>
        <time>2020-06-15T10:00:18Z</time>
      </trkpt>
      <trkpt lat="49.69608" lon="-1.26608">
        <ele>0.6</ele>
        <time>2020-06-15T10:00:19Z</time>
      </trkpt>
      <trkpt lat="49.69605" lon="-1.26609">
        <ele>0.6</ele>
        <time>2020-06-15T10:00:20Z</time>
      </trkpt>
      <trkpt lat="49.69604" lon="-1.26609">
        <ele>0.6</ele>
        <time>2020-06-15T10:00:21Z</time>
      </trkpt>
      <trkpt lat="49.69603" lon="-1.26609">
        <ele>0.6</ele>
        <time>2020-06-15T10:00:22Z</time>
      </trkpt>
      <trkpt lat="49.69601" lon="-1.26609">
        <ele>0.7</ele>
        <time>2020-06-15T10:00:23Z</time>
      </trkpt>
      <trkpt lat="49.69598" lon="-1.2661">
        <ele>0.7</ele>
        <time>2020-06-15T10:00:24Z</time>
      </trkpt>
      <trkpt lat="49.69597" lon="-1.2661">
        <ele>0.7</ele>
        <time>2020-06-15T10:00:25Z</time>
      </trkpt>
      <trkpt lat="49.69594" lon="-1.26611">
        <ele>0.7</ele>
        <time>2020-06-15T10:00:26Z</time>
      </trkpt>
      <trkpt lat="49.69592" lon="-1.26612">
        <ele>0.7</ele>
        <time>2020-06-15T10:00:27Z</time>
      </trkpt>
      <trkpt lat="49.6959" lon="-1.26614">
        <ele>0.7</ele>
        <time>2020-06-15T10:00:28Z</time>
      </trkpt>
      <trkpt lat="49.69587" lon="-1.26616">
        <ele>0.8</ele>
        <time>2020-06-15T10:00:29Z</time>
      </trkpt>
      <trkpt lat="49.69586" lon="-1.26617">
        <ele>0.8</ele>
        <time>2020-06-15T10:00:30Z</time>
      </trkpt>
      <trkpt lat="49.69583" lon="-1.26619">
        <ele>0.8</ele>
        <time>2020-06-15T10:00:31Z</time>
      </trkpt>
      <trkpt lat="49.69582" lon="-1.2662">
        <ele>0.8</ele>
        <time>2020-06-15T10:00:32Z</time>
      </trkpt>
      <trkpt lat="49.69579" lon="-1.26621">
        <ele>0.9</ele>
        <time>2020-06-15T10:00:33Z</time>
      </trkpt>
      <trkpt lat="49.69576" lon="-1.26623">
        <ele>0.9</ele>
        <time>2020-06-15T10:00:34Z</time>
      </trkpt>
      <trkpt lat="49.69573" lon="-1.26626">
        <ele>0.9</ele>
        <time>2020-06-15T10:00:35Z</time>
      </trkpt>
      <trkpt lat="49.69572" lon="-1.26627">
        <ele>1</ele>
        <time>2020-06-15T10:00:36Z</time>
      </trkpt>
      <trkpt lat="49.69569" lon="-1.26629">
        <ele>1</ele>
        <time>2020-06-15T10:00:37Z</time>
      </trkpt>
      <trkpt lat="49.69568" lon="-1.2663">
        <ele>1.1</ele>
        <time>2020-06-15T10:00:38Z</time>
      </trkpt>
      <trkpt lat="49.69564" lon="-1.26632">
        <ele>1.1</ele>
        <time>2020-06-15T10:00:39Z</time>
      </trkpt>
      <trkpt lat="49.69563" lon="-1.26633">
        <ele>1.1</ele>
        <time>2020-06-15T10:00:40Z</time>
      </trkpt>
      <trkpt lat="49.6956" lon="-1.26635">
        <ele>1.2</ele>
        <time>2020-06-15T10:00:41Z</time>
      </trkpt>
      <trkpt lat="49.69557" lon="-1.26637">
        <ele>1.2</ele>
        <time>2020-06-15T10:00:42Z</time>
      </trkpt>
      <trkpt lat="49.69554" lon="-1.26639">
        <ele>1.3</ele>
        <time>2020-06-15T10:00:43Z</time>
      </trkpt>
      <trkpt lat="49.69552" lon="-1.26643">
        <ele>1.3</ele>
        <time>2020-06-15T10:00:44Z</time>
      </trkpt>
      <trkpt lat="49.69549" lon="-1.26646">
        <ele>1.3</ele>
        <time>2020-06-15T10:00:45Z</time>
      </trkpt>
      <trkpt lat="49.69546" lon="-1.26648">
        <ele>1.3</ele>
        <time>2020-06-15T10:00:46Z</time>
      </trkpt>
      <trkpt lat="49.69543" lon="-1.2665">
        <ele>1.4</ele>
        <time>2020-06-15T10:00:47Z</time>
      </trkpt>
      <trkpt lat="49.6954" lon="-1.26651">
        <ele>1.4</ele>
        <time>2020-06-15T10:00:48Z</time>
      </trkpt>
      <trkpt lat="49.69538" lon="-1.26654">
        <ele>1.4</ele>
        <time>2020-06-15T10:00:49Z</time>
      </trkpt>
      <trkpt lat="49.69535" lon="-1.26656">
        <ele>1.4</ele>
        <time>2020-06-15T10:00:50Z</time>
      </trkpt>
      <trkpt lat="49.69532" lon="-1.26658">
        <ele>1.4</ele>
        <time>2020-06-15T10:00:51Z</time>
      </trkpt>
      <trkpt lat="49.69529" lon="-1.2666">
        <ele>1.5</ele>
        <time>2020-06-15T10:00:52Z</time>
      </trkpt>
      <trkpt lat="49.69527" lon="-1.26663">
        <ele>1.5</ele>
        <time>2020-06-15T10:00:53Z</time>
      </trkpt>
      <trkpt lat="49.69524" lon="-1.26665">
        <ele>1.5</ele>
        <time>2020-06-15T10:00:54Z</time>
      </trkpt>
      <trkpt lat="49.6952" lon="-1.26667">
        <ele>1.5</ele>
        <time>2020-06-15T10:00:55Z</time>
      </trkpt>
      <trkpt lat="49.69517" lon="-1.26668">
        <ele>1.5</ele>
        <time>2020-06-15T10:00:56Z</time>
      </trkpt>
      <trkpt lat="49.69514" lon="-1.2667">
        <ele>1.6</ele>
        <time>2020-06-15T10:00:57Z</time>
      </trkpt>
      <trkpt lat="49.69511" lon="-1.26671">
        <ele>1.6</ele>
        <time>2020-06-15T10:00:58Z</time>
      </trkpt>
      <trkpt lat="49.69508" lon="-1.26673">
        <ele>1.6</ele>
        <time>2020-06-15T10:00:59Z</time>
      </trkpt>
      <trkpt lat="49.69506" lon="-1.26674">
        <ele>1.6</ele>
        <time>2020-06-15T10:01:00Z</time>
      </trkpt>
      <trkpt lat="49.69502" lon="-1.26676">
        <ele>1.7</ele>
        <time>2020-06-15T10:01:01Z</time>
      </trkpt>
      <trkpt lat="49.695" lon="-1.26678">
        <ele>1.7</ele>
        <time>2020-06-15T10:01:02Z</time>
      </trkpt>
      <trkpt lat="49.69497" lon="-1.2668">
        <ele>1.7</ele>
        <time>2020-06-15T10:01:03Z</time>
      </trkpt>
      <trkpt lat="49.69493" lon="-1.26681">
        <ele>1.7</ele>
        <time>2020-06-15T10:01:04Z</time>
      </trkpt>
      <trkpt lat="49.69491" lon="-1.26685">
        <ele>1.8</ele>
        <time>2020-06-15T10:01:05Z</time>
      </trkpt>
      <trkpt lat="49.69488" lon="-1.26687">
        <ele>1.8</ele>
        <time>2020-06-15T10:01:06Z</time>
      </trkpt>
      <trkpt lat="49.69484" lon="-1.26689">
        <ele>1.8</ele>
        <time>2020-06-15T10:01:07Z</time>
      </trkpt>
      <trkpt lat="49.69481" lon="-1.26691">
        <ele>1.9</ele>
        <time>2020-06-15T10:01:08Z</time>
      </trkpt>
      <trkpt lat="49.69477" lon="-1.26693">
        <ele>1.9</ele>
        <time>2020-06-15T10:01:09Z</time>
      </trkpt>
      <trkpt lat="49.69473" lon="-1.26695">
        <ele>1.9</ele>
        <time>2020-06-15T10:01:10Z</time>
      </trkpt>
      <trkpt lat="49.6947" lon="-1.26696">
        <ele>2</ele>
        <time>2020-06-15T10:01:11Z</time>
      </trkpt>
      <trkpt lat="49.69467" lon="-1.26697">
        <ele>2</ele>
        <time>2020-06-15T10:01:12Z</time>
      </trkpt>
      <trkpt lat="49.69465" lon="-1.26699">
        <ele>2.1</ele>
        <time>2020-06-15T10:01:13Z</time>
      </trkpt>
      <trkpt lat="49.69461" lon="-1.26701">
        <ele>2.1</ele>
        <time>2020-06-15T10:01:14Z</time>
      </trkpt>
      <trkpt lat="49.69459" lon="-1.26702">
        <ele>2.1</ele>
        <time>2020-06-15T10:01:15Z</time>
      </trkpt>
      <trkpt lat="49.69457" lon="-1.26704">
        <ele>2.2</ele>
        <time>2020-06-15T10:01:16Z</time>
      </trkpt>
      <trkpt lat="49.69453" lon="-1.26706">
        <ele>2.2</ele>
        <time>2020-06-15T10:01:17Z</time>
      </trkpt>
      <trkpt lat="49.69452" lon="-1.26706">
        <ele>2.2</ele>
        <time>2020-06-15T10:01:18Z</time>
      </trkpt>
      <trkpt lat="49.69449" lon="-1.26709">
        <ele>2.2</ele>
        <time>2020-06-15T10:01:19Z</time>
      </trkpt>
      <trkpt lat="49.69448" lon="-1.2671">
        <ele>2.2</ele>
        <time>2020-06-15T10:01:20Z</time>
      </trkpt>
      <trkpt lat="49.69445" lon="-1.26712">
        <ele>2.2</ele>
        <time>2020-06-15T10:01:21Z</time>
      </trkpt>
      <trkpt lat="49.69444" lon="-1.26713">
        <ele>2.2</ele>
        <time>2020-06-15T10:01:22Z</time>
      </trkpt>
      <trkpt lat="49.69441" lon="-1.26715">
        <ele>2.3</ele>
        <time>2020-06-15T10:01:23Z</time>
      </trkpt>
      <trkpt lat="49.6944" lon="-1.26715">
        <ele>2.3</ele>
        <time>2020-06-15T10:01:24Z</time>
      </trkpt>
      <trkpt lat="49.69437" lon="-1.26717">
        <ele>2.3</ele>
        <time>2020-06-15T10:01:25Z</time>
      </trkpt>
      <trkpt lat="49.69436" lon="-1.26718">
        <ele>2.3</ele>
        <time>2020-06-15T10:01:26Z</time>
      </trkpt>
      <trkpt lat="49.69432" lon="-1.26718">
        <ele>2.3</ele>
        <time>2020-06-15T10:01:27Z</time>
      </trkpt>
      <trkpt lat="49.69431" lon="-1.26717">
        <ele>2.3</ele>
        <time>2020-06-15T10:01:28Z</time>
      </trkpt>
      <trkpt lat="49.6943" lon="-1.26718">
        <ele>2.3</ele>
        <time>2020-06-15T10:01:29Z</time>
      </trkpt>
      <trkpt lat="49.69429" lon="-1.26718">
        <ele>2.3</ele>
        <time>2020-06-15T10:01:30Z</time>
      </trkpt>
      <trkpt lat="49.6943" lon="-1.26717">
        <ele>2.2</ele>
        <time>2020-06-15T10:01:31Z</time>
      </trkpt>
      <trkpt lat="49.6943" lon="-1.26717">
        <ele>2.2</ele>
        <time>2020-06-15T10:01:32Z</time>
      </trkpt>
      <trkpt lat="49.69429" lon="-1.26717">
        <ele>2.2</ele>
        <time>2020-06-15T10:01:33Z</time>
      </trkpt>
      <trkpt lat="49.69429" lon="-1.26717">
        <ele>2.2</ele>
        <time>2020-06-15T10:01:34Z</time>
      </trkpt>
      <trkpt lat="49.69428" lon="-1.26718">
        <ele>2.2</ele>
        <time>2020-06-15T10:01:35Z</time>
      </trkpt>
      <trkpt lat="49.69428" lon="-1.26717">
        <ele>2.2</ele>
        <time>2020-06-15T10:01:36Z</time>
      </trkpt>
      <trkpt lat="49.69427" lon="-1.26717">
        <ele>2.2</ele>
        <time>2020-06-15T10:01:37Z</time>
      </trkpt>
      <trkpt lat="49.69426" lon="-1.26717">
        <ele>2.2</ele>
        <time>2020-06-15T10:01:38Z</time>
      </trkpt>
      <trkpt lat="49.69424" lon="-1.26717">
        <ele>2.2</ele>
        <time>2020-06-15T10:01:39Z</time>
      </trkpt>
      <trkpt lat="49.69423" lon="-1.26717">
        <ele>2.2</ele>
        <time>2020-06-15T10:01:40Z</time>
      </trkpt>
      <trkpt lat="49.69422" lon="-1.26717">
        <ele>2.2</ele>
        <time>2020-06-15T10:01:53Z</time>
      </trkpt>
      <trkpt lat="49.6942" lon="-1.26717">
        <ele>2.2</ele>
        <time>2020-06-15T10:01:54Z</time>
      </trkpt>
      <trkpt lat="49.69418" lon="-1.26714">
        <ele>2.2</ele>
        <time>2020-06-15T10:01:55Z</time>
      </trkpt>
      <trkpt lat="49.69416" lon="-1.26711">
        <ele>2.2</ele>
        <time>2020-06-15T10:01:56Z</time>
      </trkpt>
      <trkpt lat="49.69414" lon="-1.26708">
        <ele>2.2</ele>
        <time>2020-06-15T10:01:57Z</time>
      </trkpt>
      <trkpt lat="49.69411" lon="-1.26704">
        <ele>2.1</ele>
        <time>2020-06-15T10:01:58Z</time>
      </trkpt>
      <trkpt lat="49.6941" lon="-1.26701">
        <ele>2.1</ele>
        <time>2020-06-15T10:01:59Z</time>
      </trkpt>
      <trkpt lat="49.69407" lon="-1.26697">
        <ele>2.1</ele>
        <time>2020-06-15T10:02:00Z</time>
      </trkpt>
      <trkpt lat="49.69403" lon="-1.26694">
        <ele>2.1</ele>
        <time>2020-06-15T10:02:01Z</time>
      </trkpt>
      <trkpt lat="49.69399" lon="-1.26692">
        <ele>2</ele>
        <time>2020-06-15T10:02:02Z</time>
      </trkpt>
      <trkpt lat="49.69396" lon="-1.26691">
        <ele>2</ele>
        <time>2020-06-15T10:02:03Z</time>
      </trkpt>
      <trkpt lat="49.69392" lon="-1.2669">
        <ele>2</ele>
        <time>2020-06-15T10:02:04Z</time>
      </trkpt>
      <trkpt lat="49.69389" lon="-1.2669">
        <ele>1.9</ele>
        <time>2020-06-15T10:02:05Z</time>
      </trkpt>
      <trkpt lat="49.69386" lon="-1.2669">
        <ele>1.9</ele>
        <time>2020-06-15T10:02:06Z</time>
      </trkpt>
      <trkpt lat="49.69381" lon="-1.2669">
        <ele>1.9</ele>
        <time>2020-06-15T10:02:07Z</time>
      </trkpt>
      <trkpt lat="49.69378" lon="-1.2669">
        <ele>1.8</ele>
        <time>2020-06-15T10:02:08Z</time>
      </trkpt>
      <trkpt lat="49.69374" lon="-1.2669">
        <ele>1.8</ele>
        <time>2020-06-15T10:02:09Z</time>
      </trkpt>
      <trkpt lat="49.6937" lon="-1.26691">
        <ele>1.8</ele>
        <time>2020-06-15T10:02:10Z</time>
      </trkpt>
      <trkpt lat="49.69366" lon="-1.26691">
        <ele>1.8</ele>
        <time>2020-06-15T10:02:11Z</time>
      </trkpt>
      <trkpt lat="49.69362" lon="-1.26691">
        <ele>1.7</ele>
        <time>2020-06-15T10:02:12Z</time>
      </trkpt>
      <trkpt lat="49.69358" lon="-1.26692">
        <ele>1.7</ele>
        <time>2020-06-15T10:02:13Z</time>
      </trkpt>
      <trkpt lat="49.69355" lon="-1.26693">
        <ele>1.7</ele>
        <time>2020-06-15T10:02:14Z</time>
      </trkpt>
      <trkpt lat="49.69352" lon="-1.26695">
        <ele>1.7</ele>
        <time>2020-06-15T10:02:15Z</time>
      </trkpt>
      <trkpt lat="49.69351" lon="-1.26696">
        <ele>1.8</ele>
        <time>2020-06-15T10:02:16Z</time>
      </trkpt>
      <trkpt lat="49.6935" lon="-1.26697">
        <ele>1.8</ele>
        <time>2020-06-15T10:02:17Z</time>
      </trkpt>
      <trkpt lat="49.6935" lon="-1.26697">
        <ele>1.8</ele>
        <time>2020-06-15T10:02:18Z</time>
      </trkpt>
      <trkpt lat="49.6935" lon="-1.26696">
        <ele>1.8</ele>
        <time>2020-06-15T10:02:19Z</time>
      </trkpt>
      <trkpt lat="49.6935" lon="-1.26696">
        <ele>1.8</ele>
        <time>2020-06-15T10:02:20Z</time>
      </trkpt>
      <trkpt lat="49.6935" lon="-1.26696">
        <ele>1.8</ele>
        <time>2020-06-15T10:02:21Z</time>
      </trkpt>
      <trkpt lat="49.6935" lon="-1.26696">
        <ele>1.8</ele>
        <time>2020-06-15T10:02:22Z</time>
      </trkpt>
      <trkpt lat="49.6935" lon="-1.26695">
        <ele>1.8</ele>
        <time>2020-06-15T10:02:23Z</time>
      </trkpt>
      <trkpt lat="49.69349" lon="-1.26695">
        <ele>1.8</ele>
        <time>2020-06-15T10:02:24Z</time>
      </trkpt>
      <trkpt lat="49.69349" lon="-1.26695">
        <ele>1.8</ele>
        <time>2020-06-15T10:02:25Z</time>
      </trkpt>
      <trkpt lat="49.69349" lon="-1.26695">
        <ele>1.8</ele>
        <time>2020-06-15T10:02:26Z</time>
      </trkpt>
      <trkpt lat="49.69349" lon="-1.26694">
        <ele>1.8</ele>
        <time>2020-06-15T10:02:27Z</time>
      </trkpt>
      <trkpt lat="49.69349" lon="-1.26694">
        <ele>1.8</ele>
        <time>2020-06-15T10:02:28Z</time>
      </trkpt>
      <trkpt lat="49.69349" lon="-1.26694">
        <ele>1.8</ele>
        <time>2020-06-15T10:02:29Z</time>
      </trkpt>
      <trkpt lat="49.69348" lon="-1.26694">
        <ele>1.8</ele>
        <time>2020-06-15T10:02:49Z</time>
      </trkpt>
      <trkpt lat="49.69348" lon="-1.26694">
        <ele>1.8</ele>
        <time>2020-06-15T10:02:50Z</time>
      </trkpt>
      <trkpt lat="49.69348" lon="-1.26693">
        <ele>1.8</ele>
        <time>2020-06-15T10:02:51Z</time>
      </trkpt>
      <trkpt lat="49.69348" lon="-1.26693">
        <ele>1.8</ele>
        <time>2020-06-15T10:02:52Z</time>
      </trkpt>
      <trkpt lat="49.69348" lon="-1.26693">
        <ele>1.8</ele>
        <time>2020-06-15T10:02:53Z</time>
      </trkpt>
      <trkpt lat="49.69348" lon="-1.26693">
        <ele>1.8</ele>
        <time>2020-06-15T10:02:54Z</time>
      </trkpt>
      <trkpt lat="49.69347" lon="-1.26692">
        <ele>1.8</ele>
        <time>2020-06-15T10:02:55Z</time>
      </trkpt>
      <trkpt lat="49.69347" lon="-1.26692">
        <ele>1.8</ele>
        <time>2020-06-15T10:02:56Z</time>
      </trkpt>
      <trkpt lat="49.69347" lon="-1.26692">
        <ele>1.8</ele>
        <time>2020-06-15T10:02:57Z</time>
      </trkpt>
      <trkpt lat="49.69347" lon="-1.26692">
        <ele>1.8</ele>
        <time>2020-06-15T10:02:58Z</time>
      </trkpt>
      <trkpt lat="49.69347" lon="-1.26692">
        <ele>1.8</ele>
        <time>2020-06-15T10:02:59Z</time>
      </trkpt>
      <trkpt lat="49.69347" lon="-1.26691">
        <ele>1.8</ele>
        <time>2020-06-15T10:03:00Z</time>
      </trkpt>
      <trkpt lat="49.69345" lon="-1.26689">
        <ele>1.8</ele>
        <time>2020-06-15T10:03:01Z</time>
      </trkpt>
      <trkpt lat="49.69345" lon="-1.26688">
        <ele>1.8</ele>
        <time>2020-06-15T10:03:02Z</time>
      </trkpt>
      <trkpt lat="49.69344" lon="-1.26686">
        <ele>1.8</ele>
        <time>2020-06-15T10:03:03Z</time>
      </trkpt>
      <trkpt lat="49.69344" lon="-1.26685">
        <ele>1.8</ele>
        <time>2020-06-15T10:03:04Z</time>
      </trkpt>
      <trkpt lat="49.69344" lon="-1.26683">
        <ele>1.8</ele>
        <time>2020-06-15T10:03:05Z</time>
      </trkpt>
      <trkpt lat="49.69344" lon="-1.26681">
        <ele>1.8</ele>
        <time>2020-06-15T10:03:06Z</time>
      </trkpt>
      <trkpt lat="49.69343" lon="-1.26679">
        <ele>1.8</ele>
        <time>2020-06-15T10:03:07Z</time>
      </trkpt>
      <trkpt lat="49.69344" lon="-1.26677">
        <ele>1.8</ele>
        <time>2020-06-15T10:03:08Z</time>
      </trkpt>
      <trkpt lat="49.69344" lon="-1.26675">
        <ele>1.8</ele>
        <time>2020-06-15T10:03:09Z</time>
      </trkpt>
      <trkpt lat="49.69344" lon="-1.26673">
        <ele>1.8</ele>
        <time>2020-06-15T10:03:10Z</time>
      </trkpt>
      <trkpt lat="49.69344" lon="-1.26671">
        <ele>1.8</ele>
        <time>2020-06-15T10:03:11Z</time>
      </trkpt>
      <trkpt lat="49.69344" lon="-1.26669">
        <ele>1.8</ele>
        <time>2020-06-15T10:03:12Z</time>
      </trkpt>
      <trkpt lat="49.69345" lon="-1.26667">
        <ele>1.8</ele>
        <time>2020-06-15T10:03:13Z</time>
      </trkpt>
      <trkpt lat="49.69344" lon="-1.26666">
        <ele>1.8</ele>
        <time>2020-06-15T10:03:14Z</time>
      </trkpt>
      <trkpt lat="49.69344" lon="-1.26664">
        <ele>1.8</ele>
        <time>2020-06-15T10:03:15Z</time>
      </trkpt>
      <trkpt lat="49.69344" lon="-1.26663">
        <ele>1.8</ele>
        <time>2020-06-15T10:03:16Z</time>
      </trkpt>
      <trkpt lat="49.69344" lon="-1.26662">
        <ele>1.8</ele>
        <time>2020-06-15T10:03:17Z</time>
      </trkpt>
      <trkpt lat="49.69344" lon="-1.26662">
        <ele>1.8</ele>
        <time>2020-06-15T10:03:18Z</time>
      </trkpt>
      <trkpt lat="49.69344" lon="-1.26662">
        <ele>1.8</ele>
        <time>2020-06-15T10:03:19Z</time>
      </trkpt>
      <trkpt lat="49.69344" lon="-1.26662">
        <ele>1.8</ele>
        <time>2020-06-15T10:03:20Z</time>
      </trkpt>
      <trkpt lat="49.69344" lon="-1.26662">
        <ele>1.8</ele>
        <time>2020-06-15T10:03:21Z</time>
      </trkpt>
      <trkpt lat="49.69344" lon="-1.26662">
        <ele>1.8</ele>
        <time>2020-06-15T10:03:22Z</time>
      </trkpt>
      <trkpt lat="49.69344" lon="-1.26662">
        <ele>1.8</ele>
        <time>2020-06-15T10:03:23Z</time>
      </trkpt>
      <trkpt lat="49.69344" lon="-1.26662">
        <ele>1.8</ele>
        <time>2020-06-15T10:03:24Z</time>
      </trkpt>
      <trkpt lat="49.69344" lon="-1.26662">
        <ele>1.8</ele>
        <time>2020-06-15T10:03:25Z</time>
      </trkpt>
      <trkpt lat="49.69344" lon="-1.26661">
        <ele>1.8</ele>
        <time>2020-06-15T10:03:26Z</time>
      </trkpt>
      <trkpt lat="49.69352" lon="-1.26663">
        <ele>1.8</ele>
        <time>2020-06-15T10:04:26Z</time>
      </trkpt>
      <trkpt lat="49.69353" lon="-1.26665">
        <ele>1.8</ele>
        <time>2020-06-15T10:04:27Z</time>
      </trkpt>
      <trkpt lat="49.69353" lon="-1.26668">
        <ele>1.8</ele>
        <time>2020-06-15T10:04:28Z</time>
      </trkpt>
      <trkpt lat="49.69353" lon="-1.2667">
        <ele>1.8</ele>
        <time>2020-06-15T10:04:29Z</time>
      </trkpt>
      <trkpt lat="49.69353" lon="-1.26673">
        <ele>1.8</ele>
        <time>2020-06-15T10:04:30Z</time>
      </trkpt>
      <trkpt lat="49.69352" lon="-1.26675">
        <ele>1.8</ele>
        <time>2020-06-15T10:04:31Z</time>
      </trkpt>
      <trkpt lat="49.69352" lon="-1.26677">
        <ele>1.7</ele>
        <time>2020-06-15T10:04:32Z</time>
      </trkpt>
      <trkpt lat="49.69351" lon="-1.2668">
        <ele>1.7</ele>
        <time>2020-06-15T10:04:33Z</time>
      </trkpt>
      <trkpt lat="49.69351" lon="-1.26683">
        <ele>1.7</ele>
        <time>2020-06-15T10:04:34Z</time>
      </trkpt>
      <trkpt lat="49.69351" lon="-1.26684">
        <ele>1.7</ele>
        <time>2020-06-15T10:04:35Z</time>
      </trkpt>
      <trkpt lat="49.69352" lon="-1.26687">
        <ele>1.7</ele>
        <time>2020-06-15T10:04:36Z</time>
      </trkpt>
      <trkpt lat="49.69352" lon="-1.26689">
        <ele>1.7</ele>
        <time>2020-06-15T10:04:37Z</time>
      </trkpt>
      <trkpt lat="49.69352" lon="-1.2669">
        <ele>1.7</ele>
        <time>2020-06-15T10:04:38Z</time>
      </trkpt>
      <trkpt lat="49.69352" lon="-1.26693">
        <ele>1.7</ele>
        <time>2020-06-15T10:04:39Z</time>
      </trkpt>
      <trkpt lat="49.69352" lon="-1.26695">
        <ele>1.7</ele>
        <time>2020-06-15T10:04:40Z</time>
      </trkpt>
      <trkpt lat="49.69352" lon="-1.26696">
        <ele>1.7</ele>
        <time>2020-06-15T10:04:41Z</time>
      </trkpt>
      <trkpt lat="49.69351" lon="-1.26697">
        <ele>1.7</ele>
        <time>2020-06-15T10:04:42Z</time>
      </trkpt>
      <trkpt lat="49.69351" lon="-1.26697">
        <ele>1.7</ele>
        <time>2020-06-15T10:04:43Z</time>
      </trkpt>
      <trkpt lat="49.69351" lon="-1.26697">
        <ele>1.7</ele>
        <time>2020-06-15T10:04:44Z</time>
      </trkpt>
      <trkpt lat="49.69351" lon="-1.26697">
        <ele>1.7</ele>
        <time>2020-06-15T10:04:45Z</time>
      </trkpt>
      <trkpt lat="49.69351" lon="-1.26697">
        <ele>1.7</ele>
        <time>2020-06-15T10:04:46Z</time>
      </trkpt>
      <trkpt lat="49.69351" lon="-1.26697">
        <ele>1.7</ele>
        <time>2020-06-15T10:04:47Z</time>
      </trkpt>
      <trkpt lat="49.6935" lon="-1.26698">
        <ele>1.7</ele>
        <time>2020-06-15T10:04:48Z</time>
      </trkpt>
      <trkpt lat="49.6935" lon="-1.26698">
        <ele>1.7</ele>
        <time>2020-06-15T10:04:49Z</time>
      </trkpt>
      <trkpt lat="49.6935" lon="-1.26697">
        <ele>1.7</ele>
        <time>2020-06-15T10:04:50Z</time>
      </trkpt>
      <trkpt lat="49.6935" lon="-1.26697">
        <ele>1.7</ele>
        <time>2020-06-15T10:04:51Z</time>
      </trkpt>
      <trkpt lat="49.6935" lon="-1.26697">
        <ele>1.7</ele>
        <time>2020-06-15T10:04:52Z</time>
      </trkpt>
      <trkpt lat="49.6935" lon="-1.26698">
        <ele>1.7</ele>
        <time>2020-06-15T10:04:53Z</time>
      </trkpt>
      <trkpt lat="49.6935" lon="-1.26698">
        <ele>1.7</ele>
        <time>2020-06-15T10:04:54Z</time>
      </trkpt>
      <trkpt lat="49.6935" lon="-1.26698">
        <ele>1.7</ele>
        <time>2020-06-15T10:04:55Z</time>
      </trkpt>
      <trkpt lat="49.6935" lon="-1.26698">
        <ele>1.7</ele>
        <time>2020-06-15T10:04:56Z</time>
      </trkpt>
      <trkpt lat="49.6935" lon="-1.26698">
        <ele>1.7</ele>
        <time>2020-06-15T10:04:57Z</time>
      </trkpt>
      <trkpt lat="49.6935" lon="-1.26698">
        <ele>1.7</ele>
        <time>2020-06-15T10:04:58Z</time>
      </trkpt>
      <trkpt lat="49.6935" lon="-1.26698">
        <ele>1.7</ele>
        <time>2020-06-15T10:04:59Z</time>
      </trkpt>
      <trkpt lat="49.69349" lon="-1.26689">
        <ele>1.8</ele>
        <time>2020-06-15T10:06:04Z</time>
      </trkpt>
      <trkpt lat="49.69349" lon="-1.26687">
        <ele>1.8</ele>
        <time>2020-06-15T10:06:05Z</time>
      </trkpt>
      <trkpt lat="49.6935" lon="-1.26684">
        <ele>1.8</ele>
        <time>2020-06-15T10:06:06Z</time>
      </trkpt>
      <trkpt lat="49.6935" lon="-1.26684">
        <ele>1.8</ele>
        <time>2020-06-15T10:06:07Z</time>
      </trkpt>
      <trkpt lat="49.69351" lon="-1.26683">
        <ele>1.8</ele>
        <time>2020-06-15T10:06:08Z</time>
      </trkpt>
      <trkpt lat="49.69351" lon="-1.26685">
        <ele>1.8</ele>
        <time>2020-06-15T10:06:09Z</time>
      </trkpt>
      <trkpt lat="49.69351" lon="-1.26684">
        <ele>1.8</ele>
        <time>2020-06-15T10:06:10Z</time>
      </trkpt>
      <trkpt lat="49.69352" lon="-1.26686">
        <ele>1.8</ele>
        <time>2020-06-15T10:06:11Z</time>
      </trkpt>
      <trkpt lat="49.69353" lon="-1.26687">
        <ele>1.8</ele>
        <time>2020-06-15T10:06:12Z</time>
      </trkpt>
      <trkpt lat="49.69355" lon="-1.26687">
        <ele>1.8</ele>
        <time>2020-06-15T10:06:13Z</time>
      </trkpt>
      <trkpt lat="49.69356" lon="-1.26687">
        <ele>1.8</ele>
        <time>2020-06-15T10:06:14Z</time>
      </trkpt>
      <trkpt lat="49.69357" lon="-1.26687">
        <ele>1.8</ele>
        <time>2020-06-15T10:06:15Z</time>
      </trkpt>
      <trkpt lat="49.6936" lon="-1.26687">
        <ele>1.9</ele>
        <time>2020-06-15T10:06:16Z</time>
      </trkpt>
      <trkpt lat="49.69361" lon="-1.26687">
        <ele>1.9</ele>
        <time>2020-06-15T10:06:17Z</time>
      </trkpt>
      <trkpt lat="49.69363" lon="-1.26686">
        <ele>1.9</ele>
        <time>2020-06-15T10:06:18Z</time>
      </trkpt>
      <trkpt lat="49.69364" lon="-1.26686">
        <ele>1.9</ele>
        <time>2020-06-15T10:06:19Z</time>
      </trkpt>
      <trkpt lat="49.69365" lon="-1.26685">
        <ele>1.9</ele>
        <time>2020-06-15T10:06:20Z</time>
      </trkpt>
      <trkpt lat="49.69368" lon="-1.26684">
        <ele>1.9</ele>
        <time>2020-06-15T10:06:21Z</time>
      </trkpt>
      <trkpt lat="49.6937" lon="-1.26684">
        <ele>1.9</ele>
        <time>2020-06-15T10:06:22Z</time>
      </trkpt>
      <trkpt lat="49.69373" lon="-1.26682">
        <ele>1.9</ele>
        <time>2020-06-15T10:06:23Z</time>
      </trkpt>
      <trkpt lat="49.69375" lon="-1.26682">
        <ele>2</ele>
        <time>2020-06-15T10:06:24Z</time>
      </trkpt>
      <trkpt lat="49.69378" lon="-1.26683">
        <ele>2</ele>
        <time>2020-06-15T10:06:25Z</time>
      </trkpt>
      <trkpt lat="49.69381" lon="-1.26683">
        <ele>2</ele>
        <time>2020-06-15T10:06:26Z</time>
      </trkpt>
      <trkpt lat="49.69384" lon="-1.26683">
        <ele>2</ele>
        <time>2020-06-15T10:06:27Z</time>
      </trkpt>
      <trkpt lat="49.69388" lon="-1.26683">
        <ele>2</ele>
        <time>2020-06-15T10:06:28Z</time>
      </trkpt>
      <trkpt lat="49.69389" lon="-1.26683">
        <ele>2.1</ele>
        <time>2020-06-15T10:06:29Z</time>
      </trkpt>
      <trkpt lat="49.69392" lon="-1.26684">
        <ele>2.1</ele>
        <time>2020-06-15T10:06:30Z</time>
      </trkpt>
      <trkpt lat="49.69397" lon="-1.26686">
        <ele>2.1</ele>
        <time>2020-06-15T10:06:31Z</time>
      </trkpt>
      <trkpt lat="49.694" lon="-1.26689">
        <ele>2.1</ele>
        <time>2020-06-15T10:06:32Z</time>
      </trkpt>
      <trkpt lat="49.69404" lon="-1.26692">
        <ele>2.2</ele>
        <time>2020-06-15T10:06:33Z</time>
      </trkpt>
      <trkpt lat="49.69406" lon="-1.26695">
        <ele>2.2</ele>
        <time>2020-06-15T10:06:34Z</time>
      </trkpt>
      <trkpt lat="49.69409" lon="-1.26699">
        <ele>2.2</ele>
        <time>2020-06-15T10:06:35Z</time>
      </trkpt>
      <trkpt lat="49.69412" lon="-1.26702">
        <ele>2.2</ele>
        <time>2020-06-15T10:06:36Z</time>
      </trkpt>
      <trkpt lat="49.69414" lon="-1.26706">
        <ele>2.2</ele>
        <time>2020-06-15T10:06:37Z</time>
      </trkpt>
      <trkpt lat="49.69416" lon="-1.26709">
        <ele>2.2</ele>
        <time>2020-06-15T10:06:38Z</time>
      </trkpt>
      <trkpt lat="49.69419" lon="-1.26713">
        <ele>2.2</ele>
        <time>2020-06-15T10:06:39Z</time>
      </trkpt>
      <trkpt lat="49.69419" lon="-1.26714">
        <ele>2.2</ele>
        <time>2020-06-15T10:06:40Z</time>
      </trkpt>
      <trkpt lat="49.69422" lon="-1.26716">
        <ele>2.2</ele>
        <time>2020-06-15T10:06:41Z</time>
      </trkpt>
      <trkpt lat="49.69422" lon="-1.26717">
        <ele>2.2</ele>
        <time>2020-06-15T10:06:42Z</time>
      </trkpt>
      <trkpt lat="49.69426" lon="-1.26719">
        <ele>2.3</ele>
        <time>2020-06-15T10:06:43Z</time>
      </trkpt>
      <trkpt lat="49.69427" lon="-1.2672">
        <ele>2.3</ele>
        <time>2020-06-15T10:06:44Z</time>
      </trkpt>
      <trkpt lat="49.69429" lon="-1.26721">
        <ele>2.3</ele>
        <time>2020-06-15T10:06:45Z</time>
      </trkpt>
      <trkpt lat="49.69433" lon="-1.26722">
        <ele>2.3</ele>
        <time>2020-06-15T10:06:46Z</time>
      </trkpt>
      <trkpt lat="49.69435" lon="-1.26723">
        <ele>2.3</ele>
        <time>2020-06-15T10:06:47Z</time>
      </trkpt>
      <trkpt lat="49.69438" lon="-1.26725">
        <ele>2.3</ele>
        <time>2020-06-15T10:06:48Z</time>
      </trkpt>
      <trkpt lat="49.69442" lon="-1.26727">
        <ele>2.4</ele>
        <time>2020-06-15T10:06:49Z</time>
      </trkpt>
      <trkpt lat="49.69444" lon="-1.26729">
        <ele>2.5</ele>
        <time>2020-06-15T10:06:50Z</time>
      </trkpt>
      <trkpt lat="49.69448" lon="-1.26732">
        <ele>2.5</ele>
        <time>2020-06-15T10:06:51Z</time>
      </trkpt>
      <trkpt lat="49.69449" lon="-1.26733">
        <ele>2.5</ele>
        <time>2020-06-15T10:06:52Z</time>
      </trkpt>
      <trkpt lat="49.69453" lon="-1.26736">
        <ele>2.5</ele>
        <time>2020-06-15T10:06:53Z</time>
      </trkpt>
      <trkpt lat="49.69454" lon="-1.26737">
        <ele>2.5</ele>
        <time>2020-06-15T10:06:54Z</time>
      </trkpt>
      <trkpt lat="49.69457" lon="-1.2674">
        <ele>2.5</ele>
        <time>2020-06-15T10:06:55Z</time>
      </trkpt>
      <trkpt lat="49.69458" lon="-1.26741">
        <ele>2.5</ele>
        <time>2020-06-15T10:06:56Z</time>
      </trkpt>
      <trkpt lat="49.69461" lon="-1.26743">
        <ele>2.6</ele>
        <time>2020-06-15T10:06:57Z</time>
      </trkpt>
      <trkpt lat="49.69462" lon="-1.26743">
        <ele>2.6</ele>
        <time>2020-06-15T10:06:58Z</time>
      </trkpt>
      <trkpt lat="49.69464" lon="-1.26747">
        <ele>2.6</ele>
        <time>2020-06-15T10:06:59Z</time>
      </trkpt>
      <trkpt lat="49.69465" lon="-1.26749">
        <ele>2.6</ele>
        <time>2020-06-15T10:07:00Z</time>
      </trkpt>
      <trkpt lat="49.69466" lon="-1.26752">
        <ele>2.6</ele>
        <time>2020-06-15T10:07:01Z</time>
      </trkpt>
      <trkpt lat="49.69468" lon="-1.26757">
        <ele>2.6</ele>
        <time>2020-06-15T10:07:02Z</time>
      </trkpt>
      <trkpt lat="49.69468" lon="-1.26763">
        <ele>2.7</ele>
        <time>2020-06-15T10:07:03Z</time>
      </trkpt>
      <trkpt lat="49.69468" lon="-1.26766">
        <ele>2.6</ele>
        <time>2020-06-15T10:07:04Z</time>
      </trkpt>
      <trkpt lat="49.69468" lon="-1.26771">
        <ele>2.6</ele>
        <time>2020-06-15T10:07:05Z</time>
      </trkpt>
      <trkpt lat="49.69468" lon="-1.26778">
        <ele>2.5</ele>
        <time>2020-06-15T10:07:06Z</time>
      </trkpt>
      <trkpt lat="49.69469" lon="-1.26783">
        <ele>2.5</ele>
        <time>2020-06-15T10:07:07Z</time>
      </trkpt>
      <trkpt lat="49.69469" lon="-1.26789">
        <ele>2.4</ele>
        <time>2020-06-15T10:07:08Z</time>
      </trkpt>
      <trkpt lat="49.69471" lon="-1.26794">
        <ele>2.4</ele>
        <time>2020-06-15T10:07:09Z</time>
      </trkpt>
      <trkpt lat="49.69473" lon="-1.26799">
        <ele>2.4</ele>
        <time>2020-06-15T10:07:10Z</time>
      </trkpt>
      <trkpt lat="49.69475" lon="-1.26803">
        <ele>2.4</ele>
        <time>2020-06-15T10:07:11Z</time>
      </trkpt>
      <trkpt lat="49.69477" lon="-1.26808">
        <ele>2.4</ele>
        <time>2020-06-15T10:07:12Z</time>
      </trkpt>
      <trkpt lat="49.69479" lon="-1.26812">
        <ele>2.4</ele>
        <time>2020-06-15T10:07:13Z</time>
      </trkpt>
      <trkpt lat="49.69481" lon="-1.26817">
        <ele>2.4</ele>
        <time>2020-06-15T10:07:14Z</time>
      </trkpt>
      <trkpt lat="49.69483" lon="-1.26822">
        <ele>2.4</ele>
        <time>2020-06-15T10:07:15Z</time>
      </trkpt>
      <trkpt lat="49.69485" lon="-1.26827">
        <ele>2.4</ele>
        <time>2020-06-15T10:07:16Z</time>
      </trkpt>
      <trkpt lat="49.69487" lon="-1.26833">
        <ele>2.4</ele>
        <time>2020-06-15T10:07:17Z</time>
      </trkpt>
      <trkpt lat="49.6949" lon="-1.26839">
        <ele>2.4</ele>
        <time>2020-06-15T10:07:18Z</time>
      </trkpt>
      <trkpt lat="49.69492" lon="-1.26845">
        <ele>2.4</ele>
        <time>2020-06-15T10:07:19Z</time>
      </trkpt>
      <trkpt lat="49.69494" lon="-1.26851">
        <ele>2.3</ele>
        <time>2020-06-15T10:07:20Z</time>
      </trkpt>
      <trkpt lat="49.69496" lon="-1.26856">
        <ele>2.3</ele>
        <time>2020-06-15T10:07:21Z</time>
      </trkpt>
      <trkpt lat="49.69498" lon="-1.26862">
        <ele>2.2</ele>
        <time>2020-06-15T10:07:22Z</time>
      </trkpt>
      <trkpt lat="49.69499" lon="-1.26868">
        <ele>2.2</ele>
        <time>2020-06-15T10:07:23Z</time>
      </trkpt>
      <trkpt lat="49.69501" lon="-1.26874">
        <ele>2.2</ele>
        <time>2020-06-15T10:07:24Z</time>
      </trkpt>
      <trkpt lat="49.69503" lon="-1.2688">
        <ele>2.2</ele>
        <time>2020-06-15T10:07:25Z</time>
      </trkpt>
      <trkpt lat="49.69504" lon="-1.26885">
        <ele>2.2</ele>
        <time>2020-06-15T10:07:26Z</time>
      </trkpt>
      <trkpt lat="49.69505" lon="-1.26892">
        <ele>2.3</ele>
        <time>2020-06-15T10:07:27Z</time>
      </trkpt>
      <trkpt lat="49.69507" lon="-1.26898">
        <ele>2.3</ele>
        <time>2020-06-15T10:07:28Z</time>
      </trkpt>
      <trkpt lat="49.69507" lon="-1.26905">
        <ele>2.3</ele>
        <time>2020-06-15T10:07:29Z</time>
      </trkpt>
      <trkpt lat="49.69508" lon="-1.26911">
        <ele>2.3</ele>
        <time>2020-06-15T10:07:30Z</time>
      </trkpt>
      <trkpt lat="49.69508" lon="-1.26917">
        <ele>2.3</ele>
        <time>2020-06-15T10:07:31Z</time>
      </trkpt>
      <trkpt lat="49.69507" lon="-1.26924">
        <ele>2.3</ele>
        <time>2020-06-15T10:07:32Z</time>
      </trkpt>
      <trkpt lat="49.69506" lon="-1.26932">
        <ele>2.3</ele>
        <time>2020-06-15T10:07:33Z</time>
      </trkpt>
      <trkpt lat="49.69506" lon="-1.26939">
        <ele>2.3</ele>
        <time>2020-06-15T10:07:34Z</time>
      </trkpt>
      <trkpt lat="49.69506" lon="-1.26946">
        <ele>2.2</ele>
        <time>2020-06-15T10:07:35Z</time>
      </trkpt>
      <trkpt lat="49.69506" lon="-1.26952">
        <ele>2.2</ele>
        <time>2020-06-15T10:07:36Z</time>
      </trkpt>
      <trkpt lat="49.69506" lon="-1.26959">
        <ele>2.2</ele>
        <time>2020-06-15T10:07:37Z</time>
      </trkpt>
      <trkpt lat="49.69505" lon="-1.26967">
        <ele>2.2</ele>
        <time>2020-06-15T10:07:38Z</time>
      </trkpt>
      <trkpt lat="49.69505" lon="-1.26975">
        <ele>2.1</ele>
        <time>2020-06-15T10:07:39Z</time>
      </trkpt>
      <trkpt lat="49.69505" lon="-1.26984">
        <ele>2.1</ele>
        <time>2020-06-15T10:07:40Z</time>
      </trkpt>
      <trkpt lat="49.69505" lon="-1.26992">
        <ele>2.1</ele>
        <time>2020-06-15T10:07:41Z</time>
      </trkpt>
      <trkpt lat="49.69505" lon="-1.27">
        <ele>2.1</ele>
        <time>2020-06-15T10:07:42Z</time>
      </trkpt>
      <trkpt lat="49.69504" lon="-1.27008">
        <ele>2.1</ele>
        <time>2020-06-15T10:07:43Z</time>
      </trkpt>
      <trkpt lat="49.69504" lon="-1.27017">
        <ele>2</ele>
        <time>2020-06-15T10:07:44Z</time>
      </trkpt>
      <trkpt lat="49.69505" lon="-1.27026">
        <ele>2</ele>
        <time>2020-06-15T10:07:45Z</time>
      </trkpt>
      <trkpt lat="49.69506" lon="-1.27035">
        <ele>2.1</ele>
        <time>2020-06-15T10:07:46Z</time>
      </trkpt>
      <trkpt lat="49.69506" lon="-1.27044">
        <ele>2.1</ele>
        <time>2020-06-15T10:07:47Z</time>
      </trkpt>
      <trkpt lat="49.69507" lon="-1.27053">
        <ele>2.1</ele>
        <time>2020-06-15T10:07:48Z</time>
      </trkpt>
      <trkpt lat="49.69506" lon="-1.27061">
        <ele>2.2</ele>
        <time>2020-06-15T10:07:49Z</time>
      </trkpt>
      <trkpt lat="49.69505" lon="-1.27069">
        <ele>2.2</ele>
        <time>2020-06-15T10:07:50Z</time>
      </trkpt>
      <trkpt lat="49.69504" lon="-1.27077">
        <ele>2.3</ele>
        <time>2020-06-15T10:07:51Z</time>
      </trkpt>
      <trkpt lat="49.69502" lon="-1.27084">
        <ele>2.4</ele>
        <time>2020-06-15T10:07:52Z</time>
      </trkpt>
      <trkpt lat="49.69499" lon="-1.27092">
        <ele>2.5</ele>
        <time>2020-06-15T10:07:53Z</time>
      </trkpt>
      <trkpt lat="49.69496" lon="-1.27098">
        <ele>2.5</ele>
        <time>2020-06-15T10:07:54Z</time>
      </trkpt>
      <trkpt lat="49.69492" lon="-1.27104">
        <ele>2.6</ele>
        <time>2020-06-15T10:07:55Z</time>
      </trkpt>
      <trkpt lat="49.69488" lon="-1.2711">
        <ele>2.6</ele>
        <time>2020-06-15T10:07:56Z</time>
      </trkpt>
      <trkpt lat="49.69484" lon="-1.27115">
        <ele>2.6</ele>
        <time>2020-06-15T10:07:57Z</time>
      </trkpt>
      <trkpt lat="49.69481" lon="-1.27121">
        <ele>2.6</ele>
        <time>2020-06-15T10:07:58Z</time>
      </trkpt>
      <trkpt lat="49.69478" lon="-1.27128">
        <ele>2.5</ele>
        <time>2020-06-15T10:07:59Z</time>
      </trkpt>
      <trkpt lat="49.69475" lon="-1.27134">
        <ele>2.4</ele>
        <time>2020-06-15T10:08:00Z</time>
      </trkpt>
      <trkpt lat="49.69472" lon="-1.2714">
        <ele>2.4</ele>
        <time>2020-06-15T10:08:01Z</time>
      </trkpt>
      <trkpt lat="49.69469" lon="-1.27146">
        <ele>2.4</ele>
        <time>2020-06-15T10:08:02Z</time>
      </trkpt>
      <trkpt lat="49.69467" lon="-1.27153">
        <ele>2.4</ele>
        <time>2020-06-15T10:08:03Z</time>
      </trkpt>
      <trkpt lat="49.69464" lon="-1.27159">
        <ele>2.4</ele>
        <time>2020-06-15T10:08:04Z</time>
      </trkpt>
      <trkpt lat="49.69461" lon="-1.27165">
        <ele>2.4</ele>
        <time>2020-06-15T10:08:05Z</time>
      </trkpt>
      <trkpt lat="49.69457" lon="-1.27171">
        <ele>2.4</ele>
        <time>2020-06-15T10:08:06Z</time>
      </trkpt>
      <trkpt lat="49.69453" lon="-1.27177">
        <ele>2.4</ele>
        <time>2020-06-15T10:08:07Z</time>
      </trkpt>
      <trkpt lat="49.6945" lon="-1.27183">
        <ele>2.3</ele>
        <time>2020-06-15T10:08:08Z</time>
      </trkpt>
      <trkpt lat="49.69445" lon="-1.27187">
        <ele>2.3</ele>
        <time>2020-06-15T10:08:09Z</time>
      </trkpt>
      <trkpt lat="49.69441" lon="-1.27192">
        <ele>2.2</ele>
        <time>2020-06-15T10:08:10Z</time>
      </trkpt>
      <trkpt lat="49.69436" lon="-1.27196">
        <ele>2.2</ele>
        <time>2020-06-15T10:08:11Z</time>
      </trkpt>
      <trkpt lat="49.69432" lon="-1.27202">
        <ele>2.1</ele>
        <time>2020-06-15T10:08:12Z</time>
      </trkpt>
      <trkpt lat="49.69427" lon="-1.27206">
        <ele>2</ele>
        <time>2020-06-15T10:08:13Z</time>
      </trkpt>
      <trkpt lat="49.69422" lon="-1.27209">
        <ele>2</ele>
        <time>2020-06-15T10:08:14Z</time>
      </trkpt>
      <trkpt lat="49.69417" lon="-1.27214">
        <ele>2</ele>
        <time>2020-06-15T10:08:15Z</time>
      </trkpt>
      <trkpt lat="49.69412" lon="-1.27218">
        <ele>2</ele>
        <time>2020-06-15T10:08:16Z</time>
      </trkpt>
      <trkpt lat="49.69406" lon="-1.27222">
        <ele>2</ele>
        <time>2020-06-15T10:08:17Z</time>
      </trkpt>
      <trkpt lat="49.69402" lon="-1.27226">
        <ele>2</ele>
        <time>2020-06-15T10:08:18Z</time>
      </trkpt>
      <trkpt lat="49.69397" lon="-1.27229">
        <ele>2</ele>
        <time>2020-06-15T10:08:19Z</time>
      </trkpt>
      <trkpt lat="49.69392" lon="-1.27235">
        <ele>1.9</ele>
        <time>2020-06-15T10:08:20Z</time>
      </trkpt>
      <trkpt lat="49.69388" lon="-1.2724">
        <ele>1.9</ele>
        <time>2020-06-15T10:08:21Z</time>
      </trkpt>
      <trkpt lat="49.69384" lon="-1.27245">
        <ele>1.9</ele>
        <time>2020-06-15T10:08:22Z</time>
      </trkpt>
      <trkpt lat="49.69381" lon="-1.27252">
        <ele>1.9</ele>
        <time>2020-06-15T10:08:23Z</time>
      </trkpt>
      <trkpt lat="49.69378" lon="-1.2726">
        <ele>1.9</ele>
        <time>2020-06-15T10:08:24Z</time>
      </trkpt>
      <trkpt lat="49.69376" lon="-1.27267">
        <ele>1.9</ele>
        <time>2020-06-15T10:08:25Z</time>
      </trkpt>
      <trkpt lat="49.69373" lon="-1.27275">
        <ele>1.9</ele>
        <time>2020-06-15T10:08:26Z</time>
      </trkpt>
      <trkpt lat="49.6937" lon="-1.27281">
        <ele>1.8</ele>
        <time>2020-06-15T10:08:27Z</time>
      </trkpt>
      <trkpt lat="49.69368" lon="-1.27288">
        <ele>1.8</ele>
        <time>2020-06-15T10:08:28Z</time>
      </trkpt>
      <trkpt lat="49.69367" lon="-1.27296">
        <ele>1.8</ele>
        <time>2020-06-15T10:08:29Z</time>
      </trkpt>
      <trkpt lat="49.69365" lon="-1.27305">
        <ele>1.7</ele>
        <time>2020-06-15T10:08:30Z</time>
      </trkpt>
      <trkpt lat="49.69364" lon="-1.27314">
        <ele>1.7</ele>
        <time>2020-06-15T10:08:31Z</time>
      </trkpt>
      <trkpt lat="49.69364" lon="-1.27323">
        <ele>1.6</ele>
        <time>2020-06-15T10:08:32Z</time>
      </trkpt>
      <trkpt lat="49.69364" lon="-1.27333">
        <ele>1.6</ele>
        <time>2020-06-15T10:08:33Z</time>
      </trkpt>
      <trkpt lat="49.69364" lon="-1.27342">
        <ele>1.5</ele>
        <time>2020-06-15T10:08:34Z</time>
      </trkpt>
      <trkpt lat="49.69364" lon="-1.2735">
        <ele>1.5</ele>
        <time>2020-06-15T10:08:35Z</time>
      </trkpt>
      <trkpt lat="49.69364" lon="-1.27359">
        <ele>1.4</ele>
        <time>2020-06-15T10:08:36Z</time>
      </trkpt>
      <trkpt lat="49.69364" lon="-1.27368">
        <ele>1.4</ele>
        <time>2020-06-15T10:08:37Z</time>
      </trkpt>
      <trkpt lat="49.69364" lon="-1.27378">
        <ele>1.3</ele>
        <time>2020-06-15T10:08:38Z</time>
      </trkpt>
      <trkpt lat="49.69365" lon="-1.27388">
        <ele>1.3</ele>
        <time>2020-06-15T10:08:39Z</time>
      </trkpt>
      <trkpt lat="49.69366" lon="-1.27398">
        <ele>1.2</ele>
        <time>2020-06-15T10:08:40Z</time>
      </trkpt>
      <trkpt lat="49.69367" lon="-1.27408">
        <ele>1.2</ele>
        <time>2020-06-15T10:08:41Z</time>
      </trkpt>
      <trkpt lat="49.69368" lon="-1.27417">
        <ele>1.1</ele>
        <time>2020-06-15T10:08:42Z</time>
      </trkpt>
      <trkpt lat="49.69369" lon="-1.27425">
        <ele>1.1</ele>
        <time>2020-06-15T10:08:43Z</time>
      </trkpt>
      <trkpt lat="49.6937" lon="-1.27434">
        <ele>1.1</ele>
        <time>2020-06-15T10:08:44Z</time>
      </trkpt>
      <trkpt lat="49.69372" lon="-1.27443">
        <ele>1.1</ele>
        <time>2020-06-15T10:08:45Z</time>
      </trkpt>
      <trkpt lat="49.69373" lon="-1.27451">
        <ele>1.1</ele>
        <time>2020-06-15T10:08:46Z</time>
      </trkpt>
      <trkpt lat="49.69374" lon="-1.27459">
        <ele>1.1</ele>
        <time>2020-06-15T10:08:47Z</time>
      </trkpt>
      <trkpt lat="49.69376" lon="-1.27468">
        <ele>1.2</ele>
        <time>2020-06-15T10:08:48Z</time>
      </trkpt>
      <trkpt lat="49.69379" lon="-1.27476">
        <ele>1.2</ele>
        <time>2020-06-15T10:08:49Z</time>
      </trkpt>
      <trkpt lat="49.69382" lon="-1.27484">
        <ele>1.2</ele>
        <time>2020-06-15T10:08:50Z</time>
      </trkpt>
      <trkpt lat="49.69385" lon="-1.27492">
        <ele>1.3</ele>
        <time>2020-06-15T10:08:51Z</time>
      </trkpt>
      <trkpt lat="49.69387" lon="-1.27499">
        <ele>1.3</ele>
        <time>2020-06-15T10:08:52Z</time>
      </trkpt>
      <trkpt lat="49.69389" lon="-1.27506">
        <ele>1.3</ele>
        <time>2020-06-15T10:08:53Z</time>
      </trkpt>
      <trkpt lat="49.69392" lon="-1.27514">
        <ele>1.2</ele>
        <time>2020-06-15T10:08:54Z</time>
      </trkpt>
      <trkpt lat="49.69394" lon="-1.27523">
        <ele>1.2</ele>
        <time>2020-06-15T10:08:55Z</time>
      </trkpt>
      <trkpt lat="49.69397" lon="-1.2753">
        <ele>1.2</ele>
        <time>2020-06-15T10:08:56Z</time>
      </trkpt>
      <trkpt lat="49.69399" lon="-1.27538">
        <ele>1.2</ele>
        <time>2020-06-15T10:08:57Z</time>
      </trkpt>
      <trkpt lat="49.69402" lon="-1.27546">
        <ele>1.2</ele>
        <time>2020-06-15T10:08:58Z</time>
      </trkpt>
      <trkpt lat="49.69404" lon="-1.27554">
        <ele>1.2</ele>
        <time>2020-06-15T10:08:59Z</time>
      </trkpt>
      <trkpt lat="49.69407" lon="-1.27563">
        <ele>1.2</ele>
        <time>2020-06-15T10:09:00Z</time>
      </trkpt>
      <trkpt lat="49.6941" lon="-1.27572">
        <ele>1.2</ele>
        <time>2020-06-15T10:09:01Z</time>
      </trkpt>
      <trkpt lat="49.69412" lon="-1.27581">
        <ele>1.2</ele>
        <time>2020-06-15T10:09:02Z</time>
      </trkpt>
      <trkpt lat="49.69413" lon="-1.27592">
        <ele>1.2</ele>
        <time>2020-06-15T10:09:03Z</time>
      </trkpt>
      <trkpt lat="49.69412" lon="-1.27601">
        <ele>1.3</ele>
        <time>2020-06-15T10:09:04Z</time>
      </trkpt>
      <trkpt lat="49.69411" lon="-1.27609">
        <ele>1.3</ele>
        <time>2020-06-15T10:09:05Z</time>
      </trkpt>
      <trkpt lat="49.69408" lon="-1.27619">
        <ele>1.3</ele>
        <time>2020-06-15T10:09:06Z</time>
      </trkpt>
      <trkpt lat="49.69406" lon="-1.27628">
        <ele>1.4</ele>
        <time>2020-06-15T10:09:07Z</time>
      </trkpt>
      <trkpt lat="49.69403" lon="-1.27636">
        <ele>1.4</ele>
        <time>2020-06-15T10:09:08Z</time>
      </trkpt>
      <trkpt lat="49.694" lon="-1.27643">
        <ele>1.4</ele>
        <time>2020-06-15T10:09:09Z</time>
      </trkpt>
      <trkpt lat="49.69395" lon="-1.27649">
        <ele>1.5</ele>
        <time>2020-06-15T10:09:10Z</time>
      </trkpt>
      <trkpt lat="49.69389" lon="-1.27656">
        <ele>1.6</ele>
        <time>2020-06-15T10:09:11Z</time>
      </trkpt>
      <trkpt lat="49.69384" lon="-1.27661">
        <ele>1.6</ele>
        <time>2020-06-15T10:09:12Z</time>
      </trkpt>
      <trkpt lat="49.69378" lon="-1.27666">
        <ele>1.7</ele>
        <time>2020-06-15T10:09:13Z</time>
      </trkpt>
      <trkpt lat="49.69372" lon="-1.27672">
        <ele>1.7</ele>
        <time>2020-06-15T10:09:14Z</time>
      </trkpt>
      <trkpt lat="49.69367" lon="-1.27677">
        <ele>1.8</ele>
        <time>2020-06-15T10:09:15Z</time>
      </trkpt>
      <trkpt lat="49.69363" lon="-1.27682">
        <ele>1.8</ele>
        <time>2020-06-15T10:09:16Z</time>
      </trkpt>
      <trkpt lat="49.69359" lon="-1.27686">
        <ele>1.8</ele>
        <time>2020-06-15T10:09:17Z</time>
      </trkpt>
      <trkpt lat="49.69355" lon="-1.2769">
        <ele>1.8</ele>
        <time>2020-06-15T10:09:18Z</time>
      </trkpt>
      <trkpt lat="49.69349" lon="-1.27696">
        <ele>1.9</ele>
        <time>2020-06-15T10:09:19Z</time>
      </trkpt>
      <trkpt lat="49.69345" lon="-1.277">
        <ele>1.9</ele>
        <time>2020-06-15T10:09:20Z</time>
      </trkpt>
      <trkpt lat="49.6934" lon="-1.27704">
        <ele>1.8</ele>
        <time>2020-06-15T10:09:21Z</time>
      </trkpt>
      <trkpt lat="49.69335" lon="-1.27709">
        <ele>1.8</ele>
        <time>2020-06-15T10:09:22Z</time>
      </trkpt>
      <trkpt lat="49.6933" lon="-1.27713">
        <ele>1.8</ele>
        <time>2020-06-15T10:09:23Z</time>
      </trkpt>
      <trkpt lat="49.69326" lon="-1.27717">
        <ele>1.8</ele>
        <time>2020-06-15T10:09:24Z</time>
      </trkpt>
      <trkpt lat="49.69321" lon="-1.27721">
        <ele>1.8</ele>
        <time>2020-06-15T10:09:25Z</time>
      </trkpt>
      <trkpt lat="49.69316" lon="-1.27724">
        <ele>1.8</ele>
        <time>2020-06-15T10:09:26Z</time>
      </trkpt>
      <trkpt lat="49.69312" lon="-1.27728">
        <ele>1.8</ele>
        <time>2020-06-15T10:09:27Z</time>
      </trkpt>
      <trkpt lat="49.69307" lon="-1.27731">
        <ele>1.8</ele>
        <time>2020-06-15T10:09:28Z</time>
      </trkpt>
      <trkpt lat="49.69302" lon="-1.27734">
        <ele>1.8</ele>
        <time>2020-06-15T10:09:29Z</time>
      </trkpt>
      <trkpt lat="49.69297" lon="-1.27736">
        <ele>1.8</ele>
        <time>2020-06-15T10:09:30Z</time>
      </trkpt>
      <trkpt lat="49.69291" lon="-1.27737">
        <ele>1.8</ele>
        <time>2020-06-15T10:09:31Z</time>
      </trkpt>
      <trkpt lat="49.69285" lon="-1.27738">
        <ele>1.8</ele>
        <time>2020-06-15T10:09:32Z</time>
      </trkpt>
      <trkpt lat="49.69279" lon="-1.2774">
        <ele>1.8</ele>
        <time>2020-06-15T10:09:33Z</time>
      </trkpt>
      <trkpt lat="49.69273" lon="-1.27741">
        <ele>1.8</ele>
        <time>2020-06-15T10:09:34Z</time>
      </trkpt>
      <trkpt lat="49.69267" lon="-1.27743">
        <ele>1.9</ele>
        <time>2020-06-15T10:09:35Z</time>
      </trkpt>
      <trkpt lat="49.69262" lon="-1.27743">
        <ele>1.9</ele>
        <time>2020-06-15T10:09:36Z</time>
      </trkpt>
      <trkpt lat="49.69257" lon="-1.27742">
        <ele>2</ele>
        <time>2020-06-15T10:09:37Z</time>
      </trkpt>
      <trkpt lat="49.69251" lon="-1.27741">
        <ele>2.1</ele>
        <time>2020-06-15T10:09:38Z</time>
      </trkpt>
      <trkpt lat="49.69247" lon="-1.27742">
        <ele>2.1</ele>
        <time>2020-06-15T10:09:39Z</time>
      </trkpt>
      <trkpt lat="49.69242" lon="-1.27742">
        <ele>2.2</ele>
        <time>2020-06-15T10:09:40Z</time>
      </trkpt>
      <trkpt lat="49.69237" lon="-1.27743">
        <ele>2.3</ele>
        <time>2020-06-15T10:09:41Z</time>
      </trkpt>
      <trkpt lat="49.69232" lon="-1.27744">
        <ele>2.4</ele>
        <time>2020-06-15T10:09:42Z</time>
      </trkpt>
      <trkpt lat="49.69227" lon="-1.27747">
        <ele>2.6</ele>
        <time>2020-06-15T10:09:43Z</time>
      </trkpt>
      <trkpt lat="49.69222" lon="-1.27749">
        <ele>2.7</ele>
        <time>2020-06-15T10:09:44Z</time>
      </trkpt>
      <trkpt lat="49.69218" lon="-1.2775">
        <ele>2.8</ele>
        <time>2020-06-15T10:09:45Z</time>
      </trkpt>
      <trkpt lat="49.69214" lon="-1.27752">
        <ele>2.9</ele>
        <time>2020-06-15T10:09:46Z</time>
      </trkpt>
      <trkpt lat="49.6921" lon="-1.27754">
        <ele>3</ele>
        <time>2020-06-15T10:09:47Z</time>
      </trkpt>
      <trkpt lat="49.69205" lon="-1.27757">
        <ele>3.1</ele>
        <time>2020-06-15T10:09:48Z</time>
      </trkpt>
      <trkpt lat="49.69201" lon="-1.2776">
        <ele>3.2</ele>
        <time>2020-06-15T10:09:49Z</time>
      </trkpt>
      <trkpt lat="49.69197" lon="-1.27763">
        <ele>3.3</ele>
        <time>2020-06-15T10:09:50Z</time>
      </trkpt>
      <trkpt lat="49.69193" lon="-1.27765">
        <ele>3.5</ele>
        <time>2020-06-15T10:09:51Z</time>
      </trkpt>
      <trkpt lat="49.69188" lon="-1.27767">
        <ele>3.6</ele>
        <time>2020-06-15T10:09:52Z</time>
      </trkpt>
      <trkpt lat="49.69184" lon="-1.27771">
        <ele>3.7</ele>
        <time>2020-06-15T10:09:53Z</time>
      </trkpt>
      <trkpt lat="49.6918" lon="-1.27772">
        <ele>3.8</ele>
        <time>2020-06-15T10:09:54Z</time>
      </trkpt>
      <trkpt lat="49.69176" lon="-1.27774">
        <ele>3.9</ele>
        <time>2020-06-15T10:09:55Z</time>
      </trkpt>
      <trkpt lat="49.69172" lon="-1.27775">
        <ele>4</ele>
        <time>2020-06-15T10:09:56Z</time>
      </trkpt>
      <trkpt lat="49.69168" lon="-1.27775">
        <ele>4.1</ele>
        <time>2020-06-15T10:09:57Z</time>
      </trkpt>
      <trkpt lat="49.69163" lon="-1.27777">
        <ele>4.2</ele>
        <time>2020-06-15T10:09:58Z</time>
      </trkpt>
      <trkpt lat="49.69159" lon="-1.27777">
        <ele>4.3</ele>
        <time>2020-06-15T10:09:59Z</time>
      </trkpt>
      <trkpt lat="49.69155" lon="-1.27777">
        <ele>4.4</ele>
        <time>2020-06-15T10:10:00Z</time>
      </trkpt>
      <trkpt lat="49.69151" lon="-1.27778">
        <ele>4.5</ele>
        <time>2020-06-15T10:10:01Z</time>
      </trkpt>
      <trkpt lat="49.69146" lon="-1.27777">
        <ele>4.6</ele>
        <time>2020-06-15T10:10:02Z</time>
      </trkpt>
      <trkpt lat="49.69141" lon="-1.27777">
        <ele>4.7</ele>
        <time>2020-06-15T10:10:03Z</time>
      </trkpt>
      <trkpt lat="49.69137" lon="-1.27776">
        <ele>4.8</ele>
        <time>2020-06-15T10:10:04Z</time>
      </trkpt>
      <trkpt lat="49.69132" lon="-1.27776">
        <ele>4.8</ele>
        <time>2020-06-15T10:10:05Z</time>
      </trkpt>
      <trkpt lat="49.69128" lon="-1.27776">
        <ele>4.9</ele>
        <time>2020-06-15T10:10:06Z</time>
      </trkpt>
      <trkpt lat="49.69124" lon="-1.27774">
        <ele>4.9</ele>
        <time>2020-06-15T10:10:07Z</time>
      </trkpt>
      <trkpt lat="49.6912" lon="-1.27776">
        <ele>4.9</ele>
        <time>2020-06-15T10:10:08Z</time>
      </trkpt>
      <trkpt lat="49.69116" lon="-1.27776">
        <ele>5</ele>
        <time>2020-06-15T10:10:09Z</time>
      </trkpt>
      <trkpt lat="49.69112" lon="-1.27776">
        <ele>5</ele>
        <time>2020-06-15T10:10:10Z</time>
      </trkpt>
      <trkpt lat="49.69107" lon="-1.27775">
        <ele>5</ele>
        <time>2020-06-15T10:10:11Z</time>
      </trkpt>
      <trkpt lat="49.69102" lon="-1.27775">
        <ele>5.1</ele>
        <time>2020-06-15T10:10:12Z</time>
      </trkpt>
      <trkpt lat="49.69098" lon="-1.27777">
        <ele>5.1</ele>
        <time>2020-06-15T10:10:13Z</time>
      </trkpt>
      <trkpt lat="49.69093" lon="-1.27777">
        <ele>5.1</ele>
        <time>2020-06-15T10:10:14Z</time>
      </trkpt>
      <trkpt lat="49.69089" lon="-1.27779">
        <ele>5.1</ele>
        <time>2020-06-15T10:10:15Z</time>
      </trkpt>
      <trkpt lat="49.69085" lon="-1.27782">
        <ele>5.1</ele>
        <time>2020-06-15T10:10:16Z</time>
      </trkpt>
      <trkpt lat="49.6908" lon="-1.27785">
        <ele>5.1</ele>
        <time>2020-06-15T10:10:17Z</time>
      </trkpt>
      <trkpt lat="49.69075" lon="-1.27787">
        <ele>5.1</ele>
        <time>2020-06-15T10:10:18Z</time>
      </trkpt>
      <trkpt lat="49.69069" lon="-1.27791">
        <ele>5.1</ele>
        <time>2020-06-15T10:10:19Z</time>
      </trkpt>
      <trkpt lat="49.69064" lon="-1.27793">
        <ele>5</ele>
        <time>2020-06-15T10:10:20Z</time>
      </trkpt>
      <trkpt lat="49.69059" lon="-1.27796">
        <ele>4.9</ele>
        <time>2020-06-15T10:10:21Z</time>
      </trkpt>
      <trkpt lat="49.69054" lon="-1.27799">
        <ele>4.9</ele>
        <time>2020-06-15T10:10:22Z</time>
      </trkpt>
      <trkpt lat="49.6905" lon="-1.27801">
        <ele>4.9</ele>
        <time>2020-06-15T10:10:23Z</time>
      </trkpt>
      <trkpt lat="49.69045" lon="-1.27804">
        <ele>4.9</ele>
        <time>2020-06-15T10:10:24Z</time>
      </trkpt>
      <trkpt lat="49.6904" lon="-1.27808">
        <ele>4.9</ele>
        <time>2020-06-15T10:10:25Z</time>
      </trkpt>
      <trkpt lat="49.69036" lon="-1.27812">
        <ele>4.9</ele>
        <time>2020-06-15T10:10:26Z</time>
      </trkpt>
      <trkpt lat="49.69031" lon="-1.27815">
        <ele>4.9</ele>
        <time>2020-06-15T10:10:27Z</time>
      </trkpt>
      <trkpt lat="49.69026" lon="-1.2782">
        <ele>4.9</ele>
        <time>2020-06-15T10:10:28Z</time>
      </trkpt>
      <trkpt lat="49.69022" lon="-1.27823">
        <ele>5</ele>
        <time>2020-06-15T10:10:29Z</time>
      </trkpt>
      <trkpt lat="49.69017" lon="-1.27826">
        <ele>5</ele>
        <time>2020-06-15T10:10:30Z</time>
      </trkpt>
      <trkpt lat="49.69012" lon="-1.2783">
        <ele>5</ele>
        <time>2020-06-15T10:10:31Z</time>
      </trkpt>
      <trkpt lat="49.69007" lon="-1.27833">
        <ele>5</ele>
        <time>2020-06-15T10:10:32Z</time>
      </trkpt>
      <trkpt lat="49.69003" lon="-1.27836">
        <ele>4.9</ele>
        <time>2020-06-15T10:10:33Z</time>
      </trkpt>
      <trkpt lat="49.68998" lon="-1.27839">
        <ele>4.9</ele>
        <time>2020-06-15T10:10:34Z</time>
      </trkpt>
      <trkpt lat="49.68994" lon="-1.27842">
        <ele>4.9</ele>
        <time>2020-06-15T10:10:35Z</time>
      </trkpt>
      <trkpt lat="49.68989" lon="-1.27845">
        <ele>4.9</ele>
        <time>2020-06-15T10:10:36Z</time>
      </trkpt>
      <trkpt lat="49.68985" lon="-1.27849">
        <ele>4.9</ele>
        <time>2020-06-15T10:10:37Z</time>
      </trkpt>
      <trkpt lat="49.68981" lon="-1.27853">
        <ele>4.9</ele>
        <time>2020-06-15T10:10:38Z</time>
      </trkpt>
      <trkpt lat="49.68977" lon="-1.27856">
        <ele>4.9</ele>
        <time>2020-06-15T10:10:39Z</time>
      </trkpt>
      <trkpt lat="49.68972" lon="-1.2786">
        <ele>4.9</ele>
        <time>2020-06-15T10:10:40Z</time>
      </trkpt>
      <trkpt lat="49.68968" lon="-1.27864">
        <ele>4.9</ele>
        <time>2020-06-15T10:10:41Z</time>
      </trkpt>
      <trkpt lat="49.68964" lon="-1.27868">
        <ele>4.9</ele>
        <time>2020-06-15T10:10:42Z</time>
      </trkpt>
      <trkpt lat="49.6896" lon="-1.27873">
        <ele>4.9</ele>
        <time>2020-06-15T10:10:43Z</time>
      </trkpt>
      <trkpt lat="49.68957" lon="-1.27879">
        <ele>4.9</ele>
        <time>2020-06-15T10:10:44Z</time>
      </trkpt>
      <trkpt lat="49.68953" lon="-1.27885">
        <ele>4.8</ele>
        <time>2020-06-15T10:10:45Z</time>
      </trkpt>
      <trkpt lat="49.68949" lon="-1.27893">
        <ele>4.8</ele>
        <time>2020-06-15T10:10:46Z</time>
      </trkpt>
      <trkpt lat="49.68945" lon="-1.279">
        <ele>4.7</ele>
        <time>2020-06-15T10:10:47Z</time>
      </trkpt>
      <trkpt lat="49.68942" lon="-1.27907">
        <ele>4.6</ele>
        <time>2020-06-15T10:10:48Z</time>
      </trkpt>
      <trkpt lat="49.68939" lon="-1.27915">
        <ele>4.6</ele>
        <time>2020-06-15T10:10:49Z</time>
      </trkpt>
      <trkpt lat="49.68937" lon="-1.27923">
        <ele>4.5</ele>
        <time>2020-06-15T10:10:50Z</time>
      </trkpt>
      <trkpt lat="49.68935" lon="-1.2793">
        <ele>4.5</ele>
        <time>2020-06-15T10:10:51Z</time>
      </trkpt>
      <trkpt lat="49.68931" lon="-1.27937">
        <ele>4.5</ele>
        <time>2020-06-15T10:10:52Z</time>
      </trkpt>
      <trkpt lat="49.68929" lon="-1.27943">
        <ele>4.5</ele>
        <time>2020-06-15T10:10:53Z</time>
      </trkpt>
      <trkpt lat="49.68927" lon="-1.2795">
        <ele>4.4</ele>
        <time>2020-06-15T10:10:54Z</time>
      </trkpt>
      <trkpt lat="49.68925" lon="-1.27957">
        <ele>4.4</ele>
        <time>2020-06-15T10:10:55Z</time>
      </trkpt>
      <trkpt lat="49.68922" lon="-1.27964">
        <ele>4.4</ele>
        <time>2020-06-15T10:10:56Z</time>
      </trkpt>
      <trkpt lat="49.6892" lon="-1.27973">
        <ele>4.4</ele>
        <time>2020-06-15T10:10:57Z</time>
      </trkpt>
      <trkpt lat="49.68917" lon="-1.2798">
        <ele>4.4</ele>
        <time>2020-06-15T10:10:58Z</time>
      </trkpt>
      <trkpt lat="49.68914" lon="-1.27987">
        <ele>4.4</ele>
        <time>2020-06-15T10:10:59Z</time>
      </trkpt>
      <trkpt lat="49.68912" lon="-1.27995">
        <ele>4.5</ele>
        <time>2020-06-15T10:11:00Z</time>
      </trkpt>
      <trkpt lat="49.68909" lon="-1.28002">
        <ele>4.5</ele>
        <time>2020-06-15T10:11:01Z</time>
      </trkpt>
      <trkpt lat="49.68906" lon="-1.2801">
        <ele>4.6</ele>
        <time>2020-06-15T10:11:02Z</time>
      </trkpt>
      <trkpt lat="49.68904" lon="-1.28017">
        <ele>4.6</ele>
        <time>2020-06-15T10:11:03Z</time>
      </trkpt>
      <trkpt lat="49.68901" lon="-1.28025">
        <ele>4.7</ele>
        <time>2020-06-15T10:11:04Z</time>
      </trkpt>
      <trkpt lat="49.68899" lon="-1.28032">
        <ele>4.8</ele>
        <time>2020-06-15T10:11:05Z</time>
      </trkpt>
      <trkpt lat="49.68896" lon="-1.28039">
        <ele>4.9</ele>
        <time>2020-06-15T10:11:06Z</time>
      </trkpt>
      <trkpt lat="49.68893" lon="-1.28045">
        <ele>5</ele>
        <time>2020-06-15T10:11:07Z</time>
      </trkpt>
      <trkpt lat="49.68889" lon="-1.28053">
        <ele>5.1</ele>
        <time>2020-06-15T10:11:08Z</time>
      </trkpt>
      <trkpt lat="49.68886" lon="-1.28059">
        <ele>5.2</ele>
        <time>2020-06-15T10:11:09Z</time>
      </trkpt>
      <trkpt lat="49.68883" lon="-1.28067">
        <ele>5.4</ele>
        <time>2020-06-15T10:11:10Z</time>
      </trkpt>
      <trkpt lat="49.68881" lon="-1.28074">
        <ele>5.5</ele>
        <time>2020-06-15T10:11:11Z</time>
      </trkpt>
      <trkpt lat="49.68879" lon="-1.28081">
        <ele>5.6</ele>
        <time>2020-06-15T10:11:12Z</time>
      </trkpt>
      <trkpt lat="49.68877" lon="-1.28087">
        <ele>5.8</ele>
        <time>2020-06-15T10:11:13Z</time>
      </trkpt>
      <trkpt lat="49.68875" lon="-1.28094">
        <ele>6</ele>
        <time>2020-06-15T10:11:14Z</time>
      </trkpt>
      <trkpt lat="49.68873" lon="-1.281">
        <ele>6.1</ele>
        <time>2020-06-15T10:11:15Z</time>
      </trkpt>
      <trkpt lat="49.6887" lon="-1.28106">
        <ele>6.3</ele>
        <time>2020-06-15T10:11:16Z</time>
      </trkpt>
      <trkpt lat="49.68868" lon="-1.28113">
        <ele>6.4</ele>
        <time>2020-06-15T10:11:17Z</time>
      </trkpt>
      <trkpt lat="49.68867" lon="-1.28121">
        <ele>6.6</ele>
        <time>2020-06-15T10:11:18Z</time>
      </trkpt>
      <trkpt lat="49.68866" lon="-1.28129">
        <ele>6.8</ele>
        <time>2020-06-15T10:11:19Z</time>
      </trkpt>
      <trkpt lat="49.68866" lon="-1.28136">
        <ele>7</ele>
        <time>2020-06-15T10:11:20Z</time>
      </trkpt>
      <trkpt lat="49.68865" lon="-1.28143">
        <ele>7.1</ele>
        <time>2020-06-15T10:11:21Z</time>
      </trkpt>
      <trkpt lat="49.68864" lon="-1.2815">
        <ele>7.3</ele>
        <time>2020-06-15T10:11:22Z</time>
      </trkpt>
      <trkpt lat="49.68864" lon="-1.28156">
        <ele>7.5</ele>
        <time>2020-06-15T10:11:23Z</time>
      </trkpt>
      <trkpt lat="49.68863" lon="-1.28163">
        <ele>7.6</ele>
        <time>2020-06-15T10:11:24Z</time>
      </trkpt>
      <trkpt lat="49.68863" lon="-1.28169">
        <ele>7.8</ele>
        <time>2020-06-15T10:11:25Z</time>
      </trkpt>
      <trkpt lat="49.68862" lon="-1.28175">
        <ele>7.9</ele>
        <time>2020-06-15T10:11:26Z</time>
      </trkpt>
      <trkpt lat="49.68862" lon="-1.28181">
        <ele>8</ele>
        <time>2020-06-15T10:11:27Z</time>
      </trkpt>
      <trkpt lat="49.68861" lon="-1.28186">
        <ele>8.1</ele>
        <time>2020-06-15T10:11:28Z</time>
      </trkpt>
      <trkpt lat="49.68861" lon="-1.28191">
        <ele>8.2</ele>
        <time>2020-06-15T10:11:29Z</time>
      </trkpt>
      <trkpt lat="49.68861" lon="-1.28196">
        <ele>8.3</ele>
        <time>2020-06-15T10:11:30Z</time>
      </trkpt>
      <trkpt lat="49.6886" lon="-1.28201">
        <ele>8.4</ele>
        <time>2020-06-15T10:11:31Z</time>
      </trkpt>
      <trkpt lat="49.6886" lon="-1.28203">
        <ele>8.4</ele>
        <time>2020-06-15T10:11:32Z</time>
      </trkpt>
      <trkpt lat="49.68857" lon="-1.28207">
        <ele>8.5</ele>
        <time>2020-06-15T10:11:33Z</time>
      </trkpt>
      <trkpt lat="49.68855" lon="-1.28208">
        <ele>8.6</ele>
        <time>2020-06-15T10:11:34Z</time>
      </trkpt>
      <trkpt lat="49.68851" lon="-1.28211">
        <ele>8.4</ele>
        <time>2020-06-15T10:11:35Z</time>
      </trkpt>
      <trkpt lat="49.68846" lon="-1.28213">
        <ele>8.3</ele>
        <time>2020-06-15T10:11:36Z</time>
      </trkpt>
      <trkpt lat="49.68841" lon="-1.28215">
        <ele>8.1</ele>
        <time>2020-06-15T10:11:37Z</time>
      </trkpt>
      <trkpt lat="49.68836" lon="-1.28216">
        <ele>8</ele>
        <time>2020-06-15T10:11:38Z</time>
      </trkpt>
      <trkpt lat="49.6883" lon="-1.28216">
        <ele>7.9</ele>
        <time>2020-06-15T10:11:39Z</time>
      </trkpt>
      <trkpt lat="49.68825" lon="-1.28217">
        <ele>7.8</ele>
        <time>2020-06-15T10:11:40Z</time>
      </trkpt>
      <trkpt lat="49.68819" lon="-1.28216">
        <ele>7.7</ele>
        <time>2020-06-15T10:11:41Z</time>
      </trkpt>
      <trkpt lat="49.68814" lon="-1.28215">
        <ele>7.7</ele>
        <time>2020-06-15T10:11:42Z</time>
      </trkpt>
      <trkpt lat="49.68809" lon="-1.28215">
        <ele>7.6</ele>
        <time>2020-06-15T10:11:43Z</time>
      </trkpt>
      <trkpt lat="49.68805" lon="-1.28217">
        <ele>7.6</ele>
        <time>2020-06-15T10:11:44Z</time>
      </trkpt>
      <trkpt lat="49.688" lon="-1.28217">
        <ele>7.6</ele>
        <time>2020-06-15T10:11:45Z</time>
      </trkpt>
      <trkpt lat="49.68795" lon="-1.28218">
        <ele>7.6</ele>
        <time>2020-06-15T10:11:46Z</time>
      </trkpt>
      <trkpt lat="49.6879" lon="-1.2822">
        <ele>7.6</ele>
        <time>2020-06-15T10:11:47Z</time>
      </trkpt>
      <trkpt lat="49.68785" lon="-1.28222">
        <ele>7.6</ele>
        <time>2020-06-15T10:11:48Z</time>
      </trkpt>
      <trkpt lat="49.6878" lon="-1.28224">
        <ele>7.6</ele>
        <time>2020-06-15T10:11:49Z</time>
      </trkpt>
      <trkpt lat="49.68775" lon="-1.28226">
        <ele>7.7</ele>
        <time>2020-06-15T10:11:50Z</time>
      </trkpt>
      <trkpt lat="49.6877" lon="-1.28228">
        <ele>7.8</ele>
        <time>2020-06-15T10:11:51Z</time>
      </trkpt>
      <trkpt lat="49.68765" lon="-1.2823">
        <ele>8</ele>
        <time>2020-06-15T10:11:52Z</time>
      </trkpt>
      <trkpt lat="49.6876" lon="-1.28232">
        <ele>8.2</ele>
        <time>2020-06-15T10:11:53Z</time>
      </trkpt>
      <trkpt lat="49.68756" lon="-1.28233">
        <ele>8.4</ele>
        <time>2020-06-15T10:11:54Z</time>
      </trkpt>
      <trkpt lat="49.68751" lon="-1.28235">
        <ele>8.7</ele>
        <time>2020-06-15T10:11:55Z</time>
      </trkpt>
      <trkpt lat="49.68746" lon="-1.28236">
        <ele>8.9</ele>
        <time>2020-06-15T10:11:56Z</time>
      </trkpt>
      <trkpt lat="49.68743" lon="-1.28238">
        <ele>9.1</ele>
        <time>2020-06-15T10:11:57Z</time>
      </trkpt>
      <trkpt lat="49.68738" lon="-1.2824">
        <ele>9.4</ele>
        <time>2020-06-15T10:11:58Z</time>
      </trkpt>
      <trkpt lat="49.68734" lon="-1.2824">
        <ele>9.6</ele>
        <time>2020-06-15T10:11:59Z</time>
      </trkpt>
      <trkpt lat="49.6873" lon="-1.28241">
        <ele>9.9</ele>
        <time>2020-06-15T10:12:00Z</time>
      </trkpt>
      <trkpt lat="49.68726" lon="-1.28241">
        <ele>10.1</ele>
        <time>2020-06-15T10:12:01Z</time>
      </trkpt>
      <trkpt lat="49.68722" lon="-1.28243">
        <ele>10.3</ele>
        <time>2020-06-15T10:12:02Z</time>
      </trkpt>
      <trkpt lat="49.68718" lon="-1.28244">
        <ele>10.5</ele>
        <time>2020-06-15T10:12:03Z</time>
      </trkpt>
      <trkpt lat="49.68714" lon="-1.28245">
        <ele>10.7</ele>
        <time>2020-06-15T10:12:04Z</time>
      </trkpt>
      <trkpt lat="49.6871" lon="-1.28246">
        <ele>10.9</ele>
        <time>2020-06-15T10:12:05Z</time>
      </trkpt>
      <trkpt lat="49.68705" lon="-1.28248">
        <ele>11.1</ele>
        <time>2020-06-15T10:12:06Z</time>
      </trkpt>
      <trkpt lat="49.68701" lon="-1.28248">
        <ele>11.3</ele>
        <time>2020-06-15T10:12:07Z</time>
      </trkpt>
      <trkpt lat="49.68696" lon="-1.28247">
        <ele>11.4</ele>
        <time>2020-06-15T10:12:08Z</time>
      </trkpt>
      <trkpt lat="49.68691" lon="-1.28245">
        <ele>11.6</ele>
        <time>2020-06-15T10:12:09Z</time>
      </trkpt>
      <trkpt lat="49.68687" lon="-1.28244">
        <ele>11.6</ele>
        <time>2020-06-15T10:12:10Z</time>
      </trkpt>
      <trkpt lat="49.68683" lon="-1.28243">
        <ele>11.7</ele>
        <time>2020-06-15T10:12:11Z</time>
      </trkpt>
      <trkpt lat="49.68679" lon="-1.28244">
        <ele>11.8</ele>
        <time>2020-06-15T10:12:12Z</time>
      </trkpt>
      <trkpt lat="49.68676" lon="-1.28244">
        <ele>11.9</ele>
        <time>2020-06-15T10:12:13Z</time>
      </trkpt>
      <trkpt lat="49.68671" lon="-1.28246">
        <ele>11.9</ele>
        <time>2020-06-15T10:12:14Z</time>
      </trkpt>
      <trkpt lat="49.68668" lon="-1.28249">
        <ele>12</ele>
        <time>2020-06-15T10:12:15Z</time>
      </trkpt>
      <trkpt lat="49.68665" lon="-1.28254">
        <ele>12</ele>
        <time>2020-06-15T10:12:16Z</time>
      </trkpt>
      <trkpt lat="49.68664" lon="-1.28261">
        <ele>12.1</ele>
        <time>2020-06-15T10:12:17Z</time>
      </trkpt>
      <trkpt lat="49.68665" lon="-1.28267">
        <ele>12.1</ele>
        <time>2020-06-15T10:12:18Z</time>
      </trkpt>
      <trkpt lat="49.68665" lon="-1.28274">
        <ele>12.2</ele>
        <time>2020-06-15T10:12:19Z</time>
      </trkpt>
      <trkpt lat="49.68666" lon="-1.28281">
        <ele>12.2</ele>
        <time>2020-06-15T10:12:20Z</time>
      </trkpt>
      <trkpt lat="49.68665" lon="-1.28288">
        <ele>12.2</ele>
        <time>2020-06-15T10:12:21Z</time>
      </trkpt>
      <trkpt lat="49.68664" lon="-1.28293">
        <ele>12.3</ele>
        <time>2020-06-15T10:12:22Z</time>
      </trkpt>
      <trkpt lat="49.6866" lon="-1.28298">
        <ele>12.3</ele>
        <time>2020-06-15T10:12:23Z</time>
      </trkpt>
      <trkpt lat="49.68657" lon="-1.28301">
        <ele>12.4</ele>
        <time>2020-06-15T10:12:24Z</time>
      </trkpt>
      <trkpt lat="49.68653" lon="-1.28303">
        <ele>12.4</ele>
        <time>2020-06-15T10:12:25Z</time>
      </trkpt>
      <trkpt lat="49.6865" lon="-1.28305">
        <ele>12.4</ele>
        <time>2020-06-15T10:12:26Z</time>
      </trkpt>
      <trkpt lat="49.68645" lon="-1.28308">
        <ele>12.3</ele>
        <time>2020-06-15T10:12:27Z</time>
      </trkpt>
      <trkpt lat="49.68641" lon="-1.28309">
        <ele>12.3</ele>
        <time>2020-06-15T10:12:28Z</time>
      </trkpt>
      <trkpt lat="49.68638" lon="-1.2831">
        <ele>12.2</ele>
        <time>2020-06-15T10:12:29Z</time>
      </trkpt>
      <trkpt lat="49.68633" lon="-1.28313">
        <ele>12.2</ele>
        <time>2020-06-15T10:12:30Z</time>
      </trkpt>
      <trkpt lat="49.68628" lon="-1.28314">
        <ele>12.1</ele>
        <time>2020-06-15T10:12:31Z</time>
      </trkpt>
      <trkpt lat="49.68622" lon="-1.28313">
        <ele>11.9</ele>
        <time>2020-06-15T10:12:32Z</time>
      </trkpt>
      <trkpt lat="49.68618" lon="-1.28315">
        <ele>11.9</ele>
        <time>2020-06-15T10:12:33Z</time>
      </trkpt>
      <trkpt lat="49.68614" lon="-1.28317">
        <ele>11.8</ele>
        <time>2020-06-15T10:12:34Z</time>
      </trkpt>
      <trkpt lat="49.68609" lon="-1.28318">
        <ele>11.7</ele>
        <time>2020-06-15T10:12:35Z</time>
      </trkpt>
      <trkpt lat="49.68604" lon="-1.28317">
        <ele>11.6</ele>
        <time>2020-06-15T10:12:36Z</time>
      </trkpt>
      <trkpt lat="49.686" lon="-1.28316">
        <ele>11.5</ele>
        <time>2020-06-15T10:12:37Z</time>
      </trkpt>
      <trkpt lat="49.68595" lon="-1.28313">
        <ele>11.4</ele>
        <time>2020-06-15T10:12:38Z</time>
      </trkpt>
      <trkpt lat="49.68592" lon="-1.28312">
        <ele>11.2</ele>
        <time>2020-06-15T10:12:39Z</time>
      </trkpt>
      <trkpt lat="49.68591" lon="-1.2831">
        <ele>11.1</ele>
        <time>2020-06-15T10:12:40Z</time>
      </trkpt>
      <trkpt lat="49.6859" lon="-1.28311">
        <ele>11.1</ele>
        <time>2020-06-15T10:12:41Z</time>
      </trkpt>
      <trkpt lat="49.68589" lon="-1.28314">
        <ele>11</ele>
        <time>2020-06-15T10:12:42Z</time>
      </trkpt>
      <trkpt lat="49.68589" lon="-1.28317">
        <ele>10.9</ele>
        <time>2020-06-15T10:12:43Z</time>
      </trkpt>
      <trkpt lat="49.68588" lon="-1.28319">
        <ele>10.9</ele>
        <time>2020-06-15T10:12:44Z</time>
      </trkpt>
      <trkpt lat="49.68588" lon="-1.28322">
        <ele>10.8</ele>
        <time>2020-06-15T10:12:45Z</time>
      </trkpt>
      <trkpt lat="49.68587" lon="-1.28327">
        <ele>10.7</ele>
        <time>2020-06-15T10:12:46Z</time>
      </trkpt>
      <trkpt lat="49.68587" lon="-1.28329">
        <ele>10.6</ele>
        <time>2020-06-15T10:12:47Z</time>
      </trkpt>
      <trkpt lat="49.68585" lon="-1.28333">
        <ele>10.5</ele>
        <time>2020-06-15T10:12:48Z</time>
      </trkpt>
      <trkpt lat="49.68583" lon="-1.28336">
        <ele>10.4</ele>
        <time>2020-06-15T10:12:49Z</time>
      </trkpt>
      <trkpt lat="49.68581" lon="-1.2834">
        <ele>10.2</ele>
        <time>2020-06-15T10:12:50Z</time>
      </trkpt>
      <trkpt lat="49.68577" lon="-1.28344">
        <ele>10</ele>
        <time>2020-06-15T10:12:51Z</time>
      </trkpt>
      <trkpt lat="49.68572" lon="-1.28348">
        <ele>9.8</ele>
        <time>2020-06-15T10:12:52Z</time>
      </trkpt>
      <trkpt lat="49.68568" lon="-1.28352">
        <ele>9.7</ele>
        <time>2020-06-15T10:12:53Z</time>
      </trkpt>
      <trkpt lat="49.68564" lon="-1.28356">
        <ele>9.6</ele>
        <time>2020-06-15T10:12:54Z</time>
      </trkpt>
      <trkpt lat="49.6856" lon="-1.28362">
        <ele>9.4</ele>
        <time>2020-06-15T10:12:55Z</time>
      </trkpt>
      <trkpt lat="49.68556" lon="-1.28366">
        <ele>9.4</ele>
        <time>2020-06-15T10:12:56Z</time>
      </trkpt>
      <trkpt lat="49.68551" lon="-1.2837">
        <ele>9.3</ele>
        <time>2020-06-15T10:12:57Z</time>
      </trkpt>
      <trkpt lat="49.68546" lon="-1.28374">
        <ele>9.3</ele>
        <time>2020-06-15T10:12:58Z</time>
      </trkpt>
      <trkpt lat="49.68541" lon="-1.28376">
        <ele>9.4</ele>
        <time>2020-06-15T10:12:59Z</time>
      </trkpt>
      <trkpt lat="49.68537" lon="-1.28379">
        <ele>9.4</ele>
        <time>2020-06-15T10:13:00Z</time>
      </trkpt>
      <trkpt lat="49.68533" lon="-1.28381">
        <ele>9.4</ele>
        <time>2020-06-15T10:13:01Z</time>
      </trkpt>
      <trkpt lat="49.68531" lon="-1.28385">
        <ele>9.4</ele>
        <time>2020-06-15T10:13:02Z</time>
      </trkpt>
      <trkpt lat="49.6853" lon="-1.28386">
        <ele>9.4</ele>
        <time>2020-06-15T10:13:03Z</time>
      </trkpt>
      <trkpt lat="49.68528" lon="-1.28386">
        <ele>9.4</ele>
        <time>2020-06-15T10:13:04Z</time>
      </trkpt>
      <trkpt lat="49.68527" lon="-1.28387">
        <ele>9.4</ele>
        <time>2020-06-15T10:13:05Z</time>
      </trkpt>
      <trkpt lat="49.68525" lon="-1.28385">
        <ele>9.4</ele>
        <time>2020-06-15T10:13:06Z</time>
      </trkpt>
      <trkpt lat="49.68524" lon="-1.28383">
        <ele>9.4</ele>
        <time>2020-06-15T10:13:07Z</time>
      </trkpt>
      <trkpt lat="49.68524" lon="-1.28382">
        <ele>9.4</ele>
        <time>2020-06-15T10:13:08Z</time>
      </trkpt>
      <trkpt lat="49.68522" lon="-1.28377">
        <ele>9.3</ele>
        <time>2020-06-15T10:13:09Z</time>
      </trkpt>
      <trkpt lat="49.68522" lon="-1.28372">
        <ele>9.3</ele>
        <time>2020-06-15T10:13:10Z</time>
      </trkpt>
      <trkpt lat="49.68521" lon="-1.28366">
        <ele>9.3</ele>
        <time>2020-06-15T10:13:11Z</time>
      </trkpt>
      <trkpt lat="49.6852" lon="-1.28359">
        <ele>9.2</ele>
        <time>2020-06-15T10:13:12Z</time>
      </trkpt>
      <trkpt lat="49.68519" lon="-1.28352">
        <ele>9.1</ele>
        <time>2020-06-15T10:13:13Z</time>
      </trkpt>
      <trkpt lat="49.68517" lon="-1.28344">
        <ele>9</ele>
        <time>2020-06-15T10:13:14Z</time>
      </trkpt>
      <trkpt lat="49.68516" lon="-1.28337">
        <ele>8.9</ele>
        <time>2020-06-15T10:13:15Z</time>
      </trkpt>
      <trkpt lat="49.68514" lon="-1.2833">
        <ele>8.8</ele>
        <time>2020-06-15T10:13:16Z</time>
      </trkpt>
      <trkpt lat="49.68512" lon="-1.28323">
        <ele>8.7</ele>
        <time>2020-06-15T10:13:17Z</time>
      </trkpt>
      <trkpt lat="49.68511" lon="-1.28316">
        <ele>8.5</ele>
        <time>2020-06-15T10:13:18Z</time>
      </trkpt>
      <trkpt lat="49.68508" lon="-1.28309">
        <ele>8.4</ele>
        <time>2020-06-15T10:13:19Z</time>
      </trkpt>
      <trkpt lat="49.68506" lon="-1.28302">
        <ele>8.2</ele>
        <time>2020-06-15T10:13:20Z</time>
      </trkpt>
      <trkpt lat="49.68504" lon="-1.28294">
        <ele>8</ele>
        <time>2020-06-15T10:13:21Z</time>
      </trkpt>
      <trkpt lat="49.68502" lon="-1.28286">
        <ele>7.8</ele>
        <time>2020-06-15T10:13:22Z</time>
      </trkpt>
      <trkpt lat="49.68499" lon="-1.28278">
        <ele>7.5</ele>
        <time>2020-06-15T10:13:23Z</time>
      </trkpt>
      <trkpt lat="49.68496" lon="-1.2827">
        <ele>7.3</ele>
        <time>2020-06-15T10:13:24Z</time>
      </trkpt>
      <trkpt lat="49.68494" lon="-1.28261">
        <ele>7.1</ele>
        <time>2020-06-15T10:13:25Z</time>
      </trkpt>
      <trkpt lat="49.68491" lon="-1.28252">
        <ele>6.9</ele>
        <time>2020-06-15T10:13:26Z</time>
      </trkpt>
      <trkpt lat="49.68488" lon="-1.28243">
        <ele>6.7</ele>
        <time>2020-06-15T10:13:27Z</time>
      </trkpt>
      <trkpt lat="49.68485" lon="-1.28234">
        <ele>6.5</ele>
        <time>2020-06-15T10:13:28Z</time>
      </trkpt>
      <trkpt lat="49.68482" lon="-1.28225">
        <ele>6.3</ele>
        <time>2020-06-15T10:13:29Z</time>
      </trkpt>
      <trkpt lat="49.68478" lon="-1.28216">
        <ele>6.1</ele>
        <time>2020-06-15T10:13:30Z</time>
      </trkpt>
      <trkpt lat="49.68475" lon="-1.28206">
        <ele>6</ele>
        <time>2020-06-15T10:13:31Z</time>
      </trkpt>
      <trkpt lat="49.68471" lon="-1.28196">
        <ele>5.9</ele>
        <time>2020-06-15T10:13:32Z</time>
      </trkpt>
      <trkpt lat="49.68468" lon="-1.28187">
        <ele>5.8</ele>
        <time>2020-06-15T10:13:33Z</time>
      </trkpt>
      <trkpt lat="49.68465" lon="-1.28179">
        <ele>5.7</ele>
        <time>2020-06-15T10:13:34Z</time>
      </trkpt>
      <trkpt lat="49.68462" lon="-1.28171">
        <ele>5.7</ele>
        <time>2020-06-15T10:13:35Z</time>
      </trkpt>
      <trkpt lat="49.68459" lon="-1.28162">
        <ele>5.6</ele>
        <time>2020-06-15T10:13:36Z</time>
      </trkpt>
      <trkpt lat="49.68456" lon="-1.28154">
        <ele>5.6</ele>
        <time>2020-06-15T10:13:37Z</time>
      </trkpt>
      <trkpt lat="49.68453" lon="-1.28147">
        <ele>5.6</ele>
        <time>2020-06-15T10:13:38Z</time>
      </trkpt>
      <trkpt lat="49.6845" lon="-1.2814">
        <ele>5.6</ele>
        <time>2020-06-15T10:13:39Z</time>
      </trkpt>
      <trkpt lat="49.68447" lon="-1.28131">
        <ele>5.6</ele>
        <time>2020-06-15T10:13:40Z</time>
      </trkpt>
      <trkpt lat="49.68444" lon="-1.28123">
        <ele>5.6</ele>
        <time>2020-06-15T10:13:41Z</time>
      </trkpt>
      <trkpt lat="49.68441" lon="-1.28116">
        <ele>5.6</ele>
        <time>2020-06-15T10:13:42Z</time>
      </trkpt>
      <trkpt lat="49.68438" lon="-1.28106">
        <ele>5.7</ele>
        <time>2020-06-15T10:13:43Z</time>
      </trkpt>
      <trkpt lat="49.68434" lon="-1.28099">
        <ele>5.7</ele>
        <time>2020-06-15T10:13:44Z</time>
      </trkpt>
      <trkpt lat="49.68431" lon="-1.2809">
        <ele>5.8</ele>
        <time>2020-06-15T10:13:45Z</time>
      </trkpt>
      <trkpt lat="49.68428" lon="-1.28083">
        <ele>5.9</ele>
        <time>2020-06-15T10:13:46Z</time>
      </trkpt>
      <trkpt lat="49.68425" lon="-1.28077">
        <ele>6</ele>
        <time>2020-06-15T10:13:47Z</time>
      </trkpt>
      <trkpt lat="49.68421" lon="-1.28069">
        <ele>6.2</ele>
        <time>2020-06-15T10:13:48Z</time>
      </trkpt>
      <trkpt lat="49.68418" lon="-1.28061">
        <ele>6.3</ele>
        <time>2020-06-15T10:13:49Z</time>
      </trkpt>
      <trkpt lat="49.68414" lon="-1.28054">
        <ele>6.4</ele>
        <time>2020-06-15T10:13:50Z</time>
      </trkpt>
      <trkpt lat="49.68411" lon="-1.28049">
        <ele>6.5</ele>
        <time>2020-06-15T10:13:51Z</time>
      </trkpt>
      <trkpt lat="49.68408" lon="-1.28041">
        <ele>6.6</ele>
        <time>2020-06-15T10:13:52Z</time>
      </trkpt>
      <trkpt lat="49.68404" lon="-1.28035">
        <ele>6.7</ele>
        <time>2020-06-15T10:13:53Z</time>
      </trkpt>
      <trkpt lat="49.684" lon="-1.2803">
        <ele>6.8</ele>
        <time>2020-06-15T10:13:54Z</time>
      </trkpt>
      <trkpt lat="49.68396" lon="-1.28025">
        <ele>6.9</ele>
        <time>2020-06-15T10:13:55Z</time>
      </trkpt>
      <trkpt lat="49.68393" lon="-1.28019">
        <ele>7</ele>
        <time>2020-06-15T10:13:56Z</time>
      </trkpt>
      <trkpt lat="49.6839" lon="-1.28014">
        <ele>7</ele>
        <time>2020-06-15T10:13:57Z</time>
      </trkpt>
      <trkpt lat="49.68387" lon="-1.2801">
        <ele>7</ele>
        <time>2020-06-15T10:13:58Z</time>
      </trkpt>
      <trkpt lat="49.68385" lon="-1.28003">
        <ele>7.1</ele>
        <time>2020-06-15T10:13:59Z</time>
      </trkpt>
      <trkpt lat="49.68382" lon="-1.27998">
        <ele>7.1</ele>
        <time>2020-06-15T10:14:00Z</time>
      </trkpt>
      <trkpt lat="49.68379" lon="-1.27993">
        <ele>7.1</ele>
        <time>2020-06-15T10:14:01Z</time>
      </trkpt>
      <trkpt lat="49.68377" lon="-1.27988">
        <ele>7.1</ele>
        <time>2020-06-15T10:14:02Z</time>
      </trkpt>
      <trkpt lat="49.68374" lon="-1.27982">
        <ele>7.1</ele>
        <time>2020-06-15T10:14:03Z</time>
      </trkpt>
      <trkpt lat="49.68371" lon="-1.27976">
        <ele>7.1</ele>
        <time>2020-06-15T10:14:04Z</time>
      </trkpt>
      <trkpt lat="49.68368" lon="-1.27971">
        <ele>7.1</ele>
        <time>2020-06-15T10:14:05Z</time>
      </trkpt>
      <trkpt lat="49.68365" lon="-1.27964">
        <ele>7.1</ele>
        <time>2020-06-15T10:14:06Z</time>
      </trkpt>
      <trkpt lat="49.68363" lon="-1.2796">
        <ele>7</ele>
        <time>2020-06-15T10:14:07Z</time>
      </trkpt>
      <trkpt lat="49.6836" lon="-1.27955">
        <ele>6.9</ele>
        <time>2020-06-15T10:14:08Z</time>
      </trkpt>
      <trkpt lat="49.68356" lon="-1.27949">
        <ele>6.8</ele>
        <time>2020-06-15T10:14:09Z</time>
      </trkpt>
      <trkpt lat="49.68353" lon="-1.27943">
        <ele>6.7</ele>
        <time>2020-06-15T10:14:10Z</time>
      </trkpt>
      <trkpt lat="49.6835" lon="-1.27936">
        <ele>6.5</ele>
        <time>2020-06-15T10:14:11Z</time>
      </trkpt>
      <trkpt lat="49.68346" lon="-1.27928">
        <ele>6.3</ele>
        <time>2020-06-15T10:14:12Z</time>
      </trkpt>
      <trkpt lat="49.68342" lon="-1.27921">
        <ele>6.1</ele>
        <time>2020-06-15T10:14:13Z</time>
      </trkpt>
      <trkpt lat="49.68338" lon="-1.27915">
        <ele>6</ele>
        <time>2020-06-15T10:14:14Z</time>
      </trkpt>
      <trkpt lat="49.68334" lon="-1.2791">
        <ele>5.8</ele>
        <time>2020-06-15T10:14:15Z</time>
      </trkpt>
      <trkpt lat="49.6833" lon="-1.27902">
        <ele>5.7</ele>
        <time>2020-06-15T10:14:16Z</time>
      </trkpt>
      <trkpt lat="49.68326" lon="-1.27894">
        <ele>5.5</ele>
        <time>2020-06-15T10:14:17Z</time>
      </trkpt>
      <trkpt lat="49.68322" lon="-1.27887">
        <ele>5.4</ele>
        <time>2020-06-15T10:14:18Z</time>
      </trkpt>
      <trkpt lat="49.68318" lon="-1.27879">
        <ele>5.3</ele>
        <time>2020-06-15T10:14:19Z</time>
      </trkpt>
      <trkpt lat="49.68313" lon="-1.2787">
        <ele>5.2</ele>
        <time>2020-06-15T10:14:20Z</time>
      </trkpt>
      <trkpt lat="49.68309" lon="-1.27862">
        <ele>5.1</ele>
        <time>2020-06-15T10:14:21Z</time>
      </trkpt>
      <trkpt lat="49.68305" lon="-1.27854">
        <ele>5</ele>
        <time>2020-06-15T10:14:22Z</time>
      </trkpt>
      <trkpt lat="49.68301" lon="-1.27846">
        <ele>4.9</ele>
        <time>2020-06-15T10:14:23Z</time>
      </trkpt>
      <trkpt lat="49.68296" lon="-1.27838">
        <ele>4.8</ele>
        <time>2020-06-15T10:14:24Z</time>
      </trkpt>
      <trkpt lat="49.68292" lon="-1.2783">
        <ele>4.7</ele>
        <time>2020-06-15T10:14:25Z</time>
      </trkpt>
      <trkpt lat="49.68287" lon="-1.27822">
        <ele>4.6</ele>
        <time>2020-06-15T10:14:26Z</time>
      </trkpt>
      <trkpt lat="49.68283" lon="-1.27814">
        <ele>4.5</ele>
        <time>2020-06-15T10:14:27Z</time>
      </trkpt>
      <trkpt lat="49.68279" lon="-1.27806">
        <ele>4.5</ele>
        <time>2020-06-15T10:14:28Z</time>
      </trkpt>
      <trkpt lat="49.68274" lon="-1.27798">
        <ele>4.4</ele>
        <time>2020-06-15T10:14:29Z</time>
      </trkpt>
      <trkpt lat="49.6827" lon="-1.2779">
        <ele>4.4</ele>
        <time>2020-06-15T10:14:30Z</time>
      </trkpt>
      <trkpt lat="49.68266" lon="-1.27782">
        <ele>4.4</ele>
        <time>2020-06-15T10:14:31Z</time>
      </trkpt>
      <trkpt lat="49.68262" lon="-1.27774">
        <ele>4.3</ele>
        <time>2020-06-15T10:14:32Z</time>
      </trkpt>
      <trkpt lat="49.68257" lon="-1.27766">
        <ele>4.3</ele>
        <time>2020-06-15T10:14:33Z</time>
      </trkpt>
      <trkpt lat="49.68253" lon="-1.27759">
        <ele>4.3</ele>
        <time>2020-06-15T10:14:34Z</time>
      </trkpt>
      <trkpt lat="49.68249" lon="-1.27751">
        <ele>4.2</ele>
        <time>2020-06-15T10:14:35Z</time>
      </trkpt>
      <trkpt lat="49.68244" lon="-1.27744">
        <ele>4.2</ele>
        <time>2020-06-15T10:14:36Z</time>
      </trkpt>
      <trkpt lat="49.6824" lon="-1.27737">
        <ele>4.1</ele>
        <time>2020-06-15T10:14:37Z</time>
      </trkpt>
      <trkpt lat="49.68235" lon="-1.2773">
        <ele>4.1</ele>
        <time>2020-06-15T10:14:38Z</time>
      </trkpt>
      <trkpt lat="49.68231" lon="-1.27723">
        <ele>4.1</ele>
        <time>2020-06-15T10:14:39Z</time>
      </trkpt>
      <trkpt lat="49.68226" lon="-1.27716">
        <ele>4.1</ele>
        <time>2020-06-15T10:14:40Z</time>
      </trkpt>
      <trkpt lat="49.68221" lon="-1.27709">
        <ele>4.1</ele>
        <time>2020-06-15T10:14:41Z</time>
      </trkpt>
      <trkpt lat="49.68216" lon="-1.27702">
        <ele>4.1</ele>
        <time>2020-06-15T10:14:42Z</time>
      </trkpt>
      <trkpt lat="49.68211" lon="-1.27696">
        <ele>4.1</ele>
        <time>2020-06-15T10:14:43Z</time>
      </trkpt>
      <trkpt lat="49.68207" lon="-1.27689">
        <ele>4.1</ele>
        <time>2020-06-15T10:14:44Z</time>
      </trkpt>
      <trkpt lat="49.68202" lon="-1.27682">
        <ele>4.1</ele>
        <time>2020-06-15T10:14:45Z</time>
      </trkpt>
      <trkpt lat="49.68197" lon="-1.27675">
        <ele>4.1</ele>
        <time>2020-06-15T10:14:46Z</time>
      </trkpt>
      <trkpt lat="49.68193" lon="-1.27669">
        <ele>4.1</ele>
        <time>2020-06-15T10:14:47Z</time>
      </trkpt>
      <trkpt lat="49.68188" lon="-1.27662">
        <ele>4.1</ele>
        <time>2020-06-15T10:14:48Z</time>
      </trkpt>
      <trkpt lat="49.68183" lon="-1.27655">
        <ele>4.2</ele>
        <time>2020-06-15T10:14:49Z</time>
      </trkpt>
      <trkpt lat="49.68179" lon="-1.27649">
        <ele>4.2</ele>
        <time>2020-06-15T10:14:50Z</time>
      </trkpt>
      <trkpt lat="49.68175" lon="-1.27642">
        <ele>4.2</ele>
        <time>2020-06-15T10:14:51Z</time>
      </trkpt>
      <trkpt lat="49.6817" lon="-1.27636">
        <ele>4.2</ele>
        <time>2020-06-15T10:14:52Z</time>
      </trkpt>
      <trkpt lat="49.68165" lon="-1.27629">
        <ele>4.3</ele>
        <time>2020-06-15T10:14:53Z</time>
      </trkpt>
      <trkpt lat="49.68161" lon="-1.27621">
        <ele>4.3</ele>
        <time>2020-06-15T10:14:54Z</time>
      </trkpt>
      <trkpt lat="49.68156" lon="-1.27615">
        <ele>4.3</ele>
        <time>2020-06-15T10:14:55Z</time>
      </trkpt>
      <trkpt lat="49.68152" lon="-1.27609">
        <ele>4.3</ele>
        <time>2020-06-15T10:14:56Z</time>
      </trkpt>
      <trkpt lat="49.68148" lon="-1.27603">
        <ele>4.3</ele>
        <time>2020-06-15T10:14:57Z</time>
      </trkpt>
      <trkpt lat="49.68143" lon="-1.27598">
        <ele>4.3</ele>
        <time>2020-06-15T10:14:58Z</time>
      </trkpt>
      <trkpt lat="49.68138" lon="-1.27591">
        <ele>4.3</ele>
        <time>2020-06-15T10:14:59Z</time>
      </trkpt>
      <trkpt lat="49.68134" lon="-1.27586">
        <ele>4.3</ele>
        <time>2020-06-15T10:15:00Z</time>
      </trkpt>
      <trkpt lat="49.6813" lon="-1.27581">
        <ele>4.3</ele>
        <time>2020-06-15T10:15:01Z</time>
      </trkpt>
      <trkpt lat="49.68125" lon="-1.27575">
        <ele>4.3</ele>
        <time>2020-06-15T10:15:02Z</time>
      </trkpt>
      <trkpt lat="49.68121" lon="-1.27568">
        <ele>4.2</ele>
        <time>2020-06-15T10:15:03Z</time>
      </trkpt>
      <trkpt lat="49.68117" lon="-1.27563">
        <ele>4.2</ele>
        <time>2020-06-15T10:15:04Z</time>
      </trkpt>
      <trkpt lat="49.68112" lon="-1.27558">
        <ele>4.1</ele>
        <time>2020-06-15T10:15:05Z</time>
      </trkpt>
      <trkpt lat="49.68108" lon="-1.27553">
        <ele>4.1</ele>
        <time>2020-06-15T10:15:06Z</time>
      </trkpt>
      <trkpt lat="49.68103" lon="-1.27545">
        <ele>4</ele>
        <time>2020-06-15T10:15:07Z</time>
      </trkpt>
      <trkpt lat="49.68099" lon="-1.27539">
        <ele>4</ele>
        <time>2020-06-15T10:15:08Z</time>
      </trkpt>
      <trkpt lat="49.68094" lon="-1.27531">
        <ele>3.9</ele>
        <time>2020-06-15T10:15:09Z</time>
      </trkpt>
      <trkpt lat="49.68089" lon="-1.27525">
        <ele>3.8</ele>
        <time>2020-06-15T10:15:10Z</time>
      </trkpt>
      <trkpt lat="49.68085" lon="-1.27518">
        <ele>3.7</ele>
        <time>2020-06-15T10:15:11Z</time>
      </trkpt>
      <trkpt lat="49.6808" lon="-1.27511">
        <ele>3.6</ele>
        <time>2020-06-15T10:15:12Z</time>
      </trkpt>
      <trkpt lat="49.68076" lon="-1.27505">
        <ele>3.5</ele>
        <time>2020-06-15T10:15:13Z</time>
      </trkpt>
      <trkpt lat="49.68071" lon="-1.27498">
        <ele>3.4</ele>
        <time>2020-06-15T10:15:14Z</time>
      </trkpt>
      <trkpt lat="49.68067" lon="-1.27492">
        <ele>3.3</ele>
        <time>2020-06-15T10:15:15Z</time>
      </trkpt>
      <trkpt lat="49.68063" lon="-1.27488">
        <ele>3.2</ele>
        <time>2020-06-15T10:15:16Z</time>
      </trkpt>
      <trkpt lat="49.68058" lon="-1.27482">
        <ele>3.1</ele>
        <time>2020-06-15T10:15:17Z</time>
      </trkpt>
      <trkpt lat="49.68053" lon="-1.27476">
        <ele>3</ele>
        <time>2020-06-15T10:15:18Z</time>
      </trkpt>
      <trkpt lat="49.68048" lon="-1.27471">
        <ele>3</ele>
        <time>2020-06-15T10:15:19Z</time>
      </trkpt>
      <trkpt lat="49.68044" lon="-1.27465">
        <ele>3</ele>
        <time>2020-06-15T10:15:20Z</time>
      </trkpt>
      <trkpt lat="49.68039" lon="-1.27459">
        <ele>3</ele>
        <time>2020-06-15T10:15:21Z</time>
      </trkpt>
      <trkpt lat="49.68034" lon="-1.27453">
        <ele>2.9</ele>
        <time>2020-06-15T10:15:22Z</time>
      </trkpt>
      <trkpt lat="49.68029" lon="-1.27448">
        <ele>2.8</ele>
        <time>2020-06-15T10:15:23Z</time>
      </trkpt>
      <trkpt lat="49.68024" lon="-1.27443">
        <ele>2.8</ele>
        <time>2020-06-15T10:15:24Z</time>
      </trkpt>
      <trkpt lat="49.68019" lon="-1.27438">
        <ele>2.7</ele>
        <time>2020-06-15T10:15:25Z</time>
      </trkpt>
      <trkpt lat="49.68013" lon="-1.27432">
        <ele>2.6</ele>
        <time>2020-06-15T10:15:26Z</time>
      </trkpt>
      <trkpt lat="49.68008" lon="-1.27424">
        <ele>2.5</ele>
        <time>2020-06-15T10:15:27Z</time>
      </trkpt>
      <trkpt lat="49.68003" lon="-1.27416">
        <ele>2.4</ele>
        <time>2020-06-15T10:15:28Z</time>
      </trkpt>
      <trkpt lat="49.67999" lon="-1.27409">
        <ele>2.3</ele>
        <time>2020-06-15T10:15:29Z</time>
      </trkpt>
      <trkpt lat="49.67993" lon="-1.27402">
        <ele>2.2</ele>
        <time>2020-06-15T10:15:30Z</time>
      </trkpt>
      <trkpt lat="49.67987" lon="-1.27396">
        <ele>2.1</ele>
        <time>2020-06-15T10:15:31Z</time>
      </trkpt>
      <trkpt lat="49.67982" lon="-1.27389">
        <ele>2</ele>
        <time>2020-06-15T10:15:32Z</time>
      </trkpt>
      <trkpt lat="49.67977" lon="-1.27382">
        <ele>1.9</ele>
        <time>2020-06-15T10:15:33Z</time>
      </trkpt>
      <trkpt lat="49.67972" lon="-1.27376">
        <ele>1.9</ele>
        <time>2020-06-15T10:15:34Z</time>
      </trkpt>
      <trkpt lat="49.67967" lon="-1.27371">
        <ele>1.8</ele>
        <time>2020-06-15T10:15:35Z</time>
      </trkpt>
      <trkpt lat="49.67962" lon="-1.27365">
        <ele>1.7</ele>
        <time>2020-06-15T10:15:36Z</time>
      </trkpt>
      <trkpt lat="49.67956" lon="-1.27359">
        <ele>1.7</ele>
        <time>2020-06-15T10:15:37Z</time>
      </trkpt>
      <trkpt lat="49.67951" lon="-1.27354">
        <ele>1.6</ele>
        <time>2020-06-15T10:15:38Z</time>
      </trkpt>
      <trkpt lat="49.67945" lon="-1.27348">
        <ele>1.7</ele>
        <time>2020-06-15T10:15:39Z</time>
      </trkpt>
      <trkpt lat="49.67939" lon="-1.27342">
        <ele>1.7</ele>
        <time>2020-06-15T10:15:40Z</time>
      </trkpt>
      <trkpt lat="49.67933" lon="-1.27337">
        <ele>1.7</ele>
        <time>2020-06-15T10:15:41Z</time>
      </trkpt>
      <trkpt lat="49.67929" lon="-1.27333">
        <ele>1.7</ele>
        <time>2020-06-15T10:15:42Z</time>
      </trkpt>
      <trkpt lat="49.67924" lon="-1.27329">
        <ele>1.8</ele>
        <time>2020-06-15T10:15:43Z</time>
      </trkpt>
      <trkpt lat="49.67919" lon="-1.27325">
        <ele>1.8</ele>
        <time>2020-06-15T10:15:44Z</time>
      </trkpt>
      <trkpt lat="49.67914" lon="-1.27319">
        <ele>1.9</ele>
        <time>2020-06-15T10:15:45Z</time>
      </trkpt>
      <trkpt lat="49.6791" lon="-1.27315">
        <ele>1.9</ele>
        <time>2020-06-15T10:15:46Z</time>
      </trkpt>
      <trkpt lat="49.67905" lon="-1.27311">
        <ele>2</ele>
        <time>2020-06-15T10:15:47Z</time>
      </trkpt>
      <trkpt lat="49.67901" lon="-1.27305">
        <ele>2</ele>
        <time>2020-06-15T10:15:48Z</time>
      </trkpt>
      <trkpt lat="49.67896" lon="-1.27301">
        <ele>2</ele>
        <time>2020-06-15T10:15:49Z</time>
      </trkpt>
      <trkpt lat="49.67891" lon="-1.27296">
        <ele>2</ele>
        <time>2020-06-15T10:15:50Z</time>
      </trkpt>
      <trkpt lat="49.67886" lon="-1.27294">
        <ele>2.1</ele>
        <time>2020-06-15T10:15:51Z</time>
      </trkpt>
      <trkpt lat="49.67882" lon="-1.2729">
        <ele>2.1</ele>
        <time>2020-06-15T10:15:52Z</time>
      </trkpt>
      <trkpt lat="49.67879" lon="-1.2729">
        <ele>2.1</ele>
        <time>2020-06-15T10:15:53Z</time>
      </trkpt>
      <trkpt lat="49.67874" lon="-1.27285">
        <ele>2.2</ele>
        <time>2020-06-15T10:15:54Z</time>
      </trkpt>
      <trkpt lat="49.6787" lon="-1.27281">
        <ele>2.2</ele>
        <time>2020-06-15T10:15:55Z</time>
      </trkpt>
      <trkpt lat="49.67865" lon="-1.27277">
        <ele>2.2</ele>
        <time>2020-06-15T10:15:56Z</time>
      </trkpt>
      <trkpt lat="49.67862" lon="-1.27275">
        <ele>2.3</ele>
        <time>2020-06-15T10:15:57Z</time>
      </trkpt>
      <trkpt lat="49.67858" lon="-1.27272">
        <ele>2.3</ele>
        <time>2020-06-15T10:15:58Z</time>
      </trkpt>
      <trkpt lat="49.67853" lon="-1.27269">
        <ele>2.3</ele>
        <time>2020-06-15T10:15:59Z</time>
      </trkpt>
      <trkpt lat="49.67848" lon="-1.27265">
        <ele>2.4</ele>
        <time>2020-06-15T10:16:00Z</time>
      </trkpt>
      <trkpt lat="49.67843" lon="-1.27262">
        <ele>2.4</ele>
        <time>2020-06-15T10:16:01Z</time>
      </trkpt>
      <trkpt lat="49.67838" lon="-1.27258">
        <ele>2.4</ele>
        <time>2020-06-15T10:16:02Z</time>
      </trkpt>
      <trkpt lat="49.67832" lon="-1.27254">
        <ele>2.5</ele>
        <time>2020-06-15T10:16:03Z</time>
      </trkpt>
      <trkpt lat="49.67827" lon="-1.2725">
        <ele>2.6</ele>
        <time>2020-06-15T10:16:04Z</time>
      </trkpt>
      <trkpt lat="49.67821" lon="-1.27246">
        <ele>2.6</ele>
        <time>2020-06-15T10:16:05Z</time>
      </trkpt>
      <trkpt lat="49.67816" lon="-1.27242">
        <ele>2.7</ele>
        <time>2020-06-15T10:16:06Z</time>
      </trkpt>
      <trkpt lat="49.6781" lon="-1.27237">
        <ele>2.8</ele>
        <time>2020-06-15T10:16:07Z</time>
      </trkpt>
      <trkpt lat="49.67805" lon="-1.27234">
        <ele>2.9</ele>
        <time>2020-06-15T10:16:08Z</time>
      </trkpt>
      <trkpt lat="49.678" lon="-1.27231">
        <ele>2.9</ele>
        <time>2020-06-15T10:16:09Z</time>
      </trkpt>
      <trkpt lat="49.67795" lon="-1.27229">
        <ele>3</ele>
        <time>2020-06-15T10:16:10Z</time>
      </trkpt>
      <trkpt lat="49.6779" lon="-1.27227">
        <ele>3</ele>
        <time>2020-06-15T10:16:11Z</time>
      </trkpt>
      <trkpt lat="49.67784" lon="-1.27226">
        <ele>3.1</ele>
        <time>2020-06-15T10:16:12Z</time>
      </trkpt>
      <trkpt lat="49.6778" lon="-1.27224">
        <ele>3.1</ele>
        <time>2020-06-15T10:16:13Z</time>
      </trkpt>
      <trkpt lat="49.67775" lon="-1.27224">
        <ele>3.1</ele>
        <time>2020-06-15T10:16:14Z</time>
      </trkpt>
      <trkpt lat="49.67769" lon="-1.27223">
        <ele>3.1</ele>
        <time>2020-06-15T10:16:15Z</time>
      </trkpt>
      <trkpt lat="49.67764" lon="-1.27223">
        <ele>3.2</ele>
        <time>2020-06-15T10:16:16Z</time>
      </trkpt>
      <trkpt lat="49.67759" lon="-1.27223">
        <ele>3.2</ele>
        <time>2020-06-15T10:16:17Z</time>
      </trkpt>
      <trkpt lat="49.67754" lon="-1.27221">
        <ele>3.2</ele>
        <time>2020-06-15T10:16:18Z</time>
      </trkpt>
      <trkpt lat="49.67749" lon="-1.27222">
        <ele>3.3</ele>
        <time>2020-06-15T10:16:19Z</time>
      </trkpt>
      <trkpt lat="49.67744" lon="-1.27222">
        <ele>3.3</ele>
        <time>2020-06-15T10:16:20Z</time>
      </trkpt>
      <trkpt lat="49.67739" lon="-1.27222">
        <ele>3.4</ele>
        <time>2020-06-15T10:16:21Z</time>
      </trkpt>
      <trkpt lat="49.67734" lon="-1.27222">
        <ele>3.4</ele>
        <time>2020-06-15T10:16:22Z</time>
      </trkpt>
      <trkpt lat="49.67728" lon="-1.27221">
        <ele>3.5</ele>
        <time>2020-06-15T10:16:23Z</time>
      </trkpt>
      <trkpt lat="49.67723" lon="-1.27221">
        <ele>3.5</ele>
        <time>2020-06-15T10:16:24Z</time>
      </trkpt>
      <trkpt lat="49.67718" lon="-1.27221">
        <ele>3.6</ele>
        <time>2020-06-15T10:16:25Z</time>
      </trkpt>
      <trkpt lat="49.67713" lon="-1.27221">
        <ele>3.6</ele>
        <time>2020-06-15T10:16:26Z</time>
      </trkpt>
      <trkpt lat="49.67708" lon="-1.27221">
        <ele>3.7</ele>
        <time>2020-06-15T10:16:27Z</time>
      </trkpt>
      <trkpt lat="49.67703" lon="-1.27221">
        <ele>3.8</ele>
        <time>2020-06-15T10:16:28Z</time>
      </trkpt>
      <trkpt lat="49.67698" lon="-1.27221">
        <ele>3.9</ele>
        <time>2020-06-15T10:16:29Z</time>
      </trkpt>
      <trkpt lat="49.67693" lon="-1.27223">
        <ele>4</ele>
        <time>2020-06-15T10:16:30Z</time>
      </trkpt>
      <trkpt lat="49.67687" lon="-1.27223">
        <ele>4</ele>
        <time>2020-06-15T10:16:31Z</time>
      </trkpt>
      <trkpt lat="49.67682" lon="-1.27224">
        <ele>4.1</ele>
        <time>2020-06-15T10:16:32Z</time>
      </trkpt>
      <trkpt lat="49.67677" lon="-1.27224">
        <ele>4.2</ele>
        <time>2020-06-15T10:16:33Z</time>
      </trkpt>
      <trkpt lat="49.67672" lon="-1.27224">
        <ele>4.3</ele>
        <time>2020-06-15T10:16:34Z</time>
      </trkpt>
      <trkpt lat="49.67667" lon="-1.27223">
        <ele>4.4</ele>
        <time>2020-06-15T10:16:35Z</time>
      </trkpt>
      <trkpt lat="49.67662" lon="-1.27223">
        <ele>4.5</ele>
        <time>2020-06-15T10:16:36Z</time>
      </trkpt>
      <trkpt lat="49.67657" lon="-1.27223">
        <ele>4.5</ele>
        <time>2020-06-15T10:16:37Z</time>
      </trkpt>
      <trkpt lat="49.67651" lon="-1.27224">
        <ele>4.6</ele>
        <time>2020-06-15T10:16:38Z</time>
      </trkpt>
      <trkpt lat="49.67647" lon="-1.27223">
        <ele>4.6</ele>
        <time>2020-06-15T10:16:39Z</time>
      </trkpt>
      <trkpt lat="49.67642" lon="-1.27223">
        <ele>4.7</ele>
        <time>2020-06-15T10:16:40Z</time>
      </trkpt>
      <trkpt lat="49.67638" lon="-1.27222">
        <ele>4.9</ele>
        <time>2020-06-15T10:16:41Z</time>
      </trkpt>
      <trkpt lat="49.67633" lon="-1.27221">
        <ele>4.9</ele>
        <time>2020-06-15T10:16:42Z</time>
      </trkpt>
      <trkpt lat="49.67627" lon="-1.27221">
        <ele>5</ele>
        <time>2020-06-15T10:16:43Z</time>
      </trkpt>
      <trkpt lat="49.67622" lon="-1.27221">
        <ele>5.1</ele>
        <time>2020-06-15T10:16:44Z</time>
      </trkpt>
      <trkpt lat="49.67617" lon="-1.27218">
        <ele>5.2</ele>
        <time>2020-06-15T10:16:45Z</time>
      </trkpt>
      <trkpt lat="49.67611" lon="-1.27217">
        <ele>5.3</ele>
        <time>2020-06-15T10:16:46Z</time>
      </trkpt>
      <trkpt lat="49.67607" lon="-1.27217">
        <ele>5.4</ele>
        <time>2020-06-15T10:16:47Z</time>
      </trkpt>
      <trkpt lat="49.67601" lon="-1.27214">
        <ele>5.5</ele>
        <time>2020-06-15T10:16:48Z</time>
      </trkpt>
      <trkpt lat="49.67597" lon="-1.27211">
        <ele>5.6</ele>
        <time>2020-06-15T10:16:49Z</time>
      </trkpt>
      <trkpt lat="49.67592" lon="-1.27209">
        <ele>5.7</ele>
        <time>2020-06-15T10:16:50Z</time>
      </trkpt>
      <trkpt lat="49.67587" lon="-1.27207">
        <ele>5.8</ele>
        <time>2020-06-15T10:16:51Z</time>
      </trkpt>
      <trkpt lat="49.67583" lon="-1.27205">
        <ele>5.9</ele>
        <time>2020-06-15T10:16:52Z</time>
      </trkpt>
      <trkpt lat="49.67577" lon="-1.27201">
        <ele>6.1</ele>
        <time>2020-06-15T10:16:53Z</time>
      </trkpt>
      <trkpt lat="49.67572" lon="-1.27198">
        <ele>6.2</ele>
        <time>2020-06-15T10:16:54Z</time>
      </trkpt>
      <trkpt lat="49.67568" lon="-1.27193">
        <ele>6.4</ele>
        <time>2020-06-15T10:16:55Z</time>
      </trkpt>
      <trkpt lat="49.67564" lon="-1.2719">
        <ele>6.5</ele>
        <time>2020-06-15T10:16:56Z</time>
      </trkpt>
      <trkpt lat="49.6756" lon="-1.27187">
        <ele>6.6</ele>
        <time>2020-06-15T10:16:57Z</time>
      </trkpt>
      <trkpt lat="49.67556" lon="-1.27184">
        <ele>6.7</ele>
        <time>2020-06-15T10:16:58Z</time>
      </trkpt>
      <trkpt lat="49.67552" lon="-1.27181">
        <ele>6.8</ele>
        <time>2020-06-15T10:16:59Z</time>
      </trkpt>
      <trkpt lat="49.67548" lon="-1.27179">
        <ele>6.9</ele>
        <time>2020-06-15T10:17:00Z</time>
      </trkpt>
      <trkpt lat="49.67544" lon="-1.27175">
        <ele>7</ele>
        <time>2020-06-15T10:17:01Z</time>
      </trkpt>
      <trkpt lat="49.67539" lon="-1.27171">
        <ele>7.1</ele>
        <time>2020-06-15T10:17:02Z</time>
      </trkpt>
      <trkpt lat="49.67535" lon="-1.27167">
        <ele>7.2</ele>
        <time>2020-06-15T10:17:03Z</time>
      </trkpt>
      <trkpt lat="49.6753" lon="-1.27164">
        <ele>7.3</ele>
        <time>2020-06-15T10:17:04Z</time>
      </trkpt>
      <trkpt lat="49.67526" lon="-1.27161">
        <ele>7.4</ele>
        <time>2020-06-15T10:17:05Z</time>
      </trkpt>
      <trkpt lat="49.67522" lon="-1.27158">
        <ele>7.5</ele>
        <time>2020-06-15T10:17:06Z</time>
      </trkpt>
      <trkpt lat="49.67518" lon="-1.27156">
        <ele>7.6</ele>
        <time>2020-06-15T10:17:07Z</time>
      </trkpt>
      <trkpt lat="49.67513" lon="-1.27153">
        <ele>7.6</ele>
        <time>2020-06-15T10:17:08Z</time>
      </trkpt>
      <trkpt lat="49.67509" lon="-1.27152">
        <ele>7.7</ele>
        <time>2020-06-15T10:17:09Z</time>
      </trkpt>
      <trkpt lat="49.67505" lon="-1.27149">
        <ele>7.8</ele>
        <time>2020-06-15T10:17:10Z</time>
      </trkpt>
      <trkpt lat="49.67501" lon="-1.27146">
        <ele>7.8</ele>
        <time>2020-06-15T10:17:11Z</time>
      </trkpt>
      <trkpt lat="49.67497" lon="-1.27143">
        <ele>7.9</ele>
        <time>2020-06-15T10:17:12Z</time>
      </trkpt>
      <trkpt lat="49.67493" lon="-1.2714">
        <ele>7.9</ele>
        <time>2020-06-15T10:17:13Z</time>
      </trkpt>
      <trkpt lat="49.67489" lon="-1.27137">
        <ele>8</ele>
        <time>2020-06-15T10:17:14Z</time>
      </trkpt>
      <trkpt lat="49.67484" lon="-1.27134">
        <ele>8.1</ele>
        <time>2020-06-15T10:17:15Z</time>
      </trkpt>
      <trkpt lat="49.67479" lon="-1.27131">
        <ele>8.1</ele>
        <time>2020-06-15T10:17:16Z</time>
      </trkpt>
      <trkpt lat="49.67474" lon="-1.27129">
        <ele>8.2</ele>
        <time>2020-06-15T10:17:17Z</time>
      </trkpt>
      <trkpt lat="49.6747" lon="-1.27126">
        <ele>8.2</ele>
        <time>2020-06-15T10:17:18Z</time>
      </trkpt>
      <trkpt lat="49.67466" lon="-1.27124">
        <ele>8.3</ele>
        <time>2020-06-15T10:17:19Z</time>
      </trkpt>
      <trkpt lat="49.67461" lon="-1.27122">
        <ele>8.3</ele>
        <time>2020-06-15T10:17:20Z</time>
      </trkpt>
      <trkpt lat="49.67456" lon="-1.2712">
        <ele>8.3</ele>
        <time>2020-06-15T10:17:21Z</time>
      </trkpt>
      <trkpt lat="49.67451" lon="-1.27119">
        <ele>8.3</ele>
        <time>2020-06-15T10:17:22Z</time>
      </trkpt>
      <trkpt lat="49.67446" lon="-1.27117">
        <ele>8.3</ele>
        <time>2020-06-15T10:17:23Z</time>
      </trkpt>
      <trkpt lat="49.67441" lon="-1.27113">
        <ele>8.2</ele>
        <time>2020-06-15T10:17:24Z</time>
      </trkpt>
      <trkpt lat="49.67436" lon="-1.2711">
        <ele>8.2</ele>
        <time>2020-06-15T10:17:25Z</time>
      </trkpt>
      <trkpt lat="49.67431" lon="-1.27107">
        <ele>8.1</ele>
        <time>2020-06-15T10:17:26Z</time>
      </trkpt>
      <trkpt lat="49.67426" lon="-1.27103">
        <ele>8.1</ele>
        <time>2020-06-15T10:17:27Z</time>
      </trkpt>
      <trkpt lat="49.6742" lon="-1.27101">
        <ele>8</ele>
        <time>2020-06-15T10:17:28Z</time>
      </trkpt>
      <trkpt lat="49.67415" lon="-1.27099">
        <ele>8</ele>
        <time>2020-06-15T10:17:29Z</time>
      </trkpt>
      <trkpt lat="49.67409" lon="-1.27098">
        <ele>8</ele>
        <time>2020-06-15T10:17:30Z</time>
      </trkpt>
      <trkpt lat="49.67403" lon="-1.27096">
        <ele>7.9</ele>
        <time>2020-06-15T10:17:31Z</time>
      </trkpt>
      <trkpt lat="49.67397" lon="-1.27095">
        <ele>7.9</ele>
        <time>2020-06-15T10:17:32Z</time>
      </trkpt>
      <trkpt lat="49.67391" lon="-1.27094">
        <ele>7.9</ele>
        <time>2020-06-15T10:17:33Z</time>
      </trkpt>
      <trkpt lat="49.67385" lon="-1.27093">
        <ele>7.9</ele>
        <time>2020-06-15T10:17:34Z</time>
      </trkpt>
      <trkpt lat="49.67379" lon="-1.27091">
        <ele>7.9</ele>
        <time>2020-06-15T10:17:35Z</time>
      </trkpt>
      <trkpt lat="49.67374" lon="-1.27089">
        <ele>7.9</ele>
        <time>2020-06-15T10:17:36Z</time>
      </trkpt>
      <trkpt lat="49.67369" lon="-1.27087">
        <ele>8</ele>
        <time>2020-06-15T10:17:37Z</time>
      </trkpt>
      <trkpt lat="49.67364" lon="-1.27086">
        <ele>8</ele>
        <time>2020-06-15T10:17:38Z</time>
      </trkpt>
      <trkpt lat="49.67358" lon="-1.27085">
        <ele>8</ele>
        <time>2020-06-15T10:17:39Z</time>
      </trkpt>
      <trkpt lat="49.67353" lon="-1.27084">
        <ele>7.9</ele>
        <time>2020-06-15T10:17:40Z</time>
      </trkpt>
      <trkpt lat="49.67348" lon="-1.27083">
        <ele>7.9</ele>
        <time>2020-06-15T10:17:41Z</time>
      </trkpt>
      <trkpt lat="49.67343" lon="-1.27083">
        <ele>7.8</ele>
        <time>2020-06-15T10:17:42Z</time>
      </trkpt>
      <trkpt lat="49.67338" lon="-1.27082">
        <ele>7.6</ele>
        <time>2020-06-15T10:17:43Z</time>
      </trkpt>
      <trkpt lat="49.67333" lon="-1.27081">
        <ele>7.5</ele>
        <time>2020-06-15T10:17:44Z</time>
      </trkpt>
      <trkpt lat="49.67328" lon="-1.27079">
        <ele>7.2</ele>
        <time>2020-06-15T10:17:45Z</time>
      </trkpt>
      <trkpt lat="49.67323" lon="-1.27076">
        <ele>7</ele>
        <time>2020-06-15T10:17:46Z</time>
      </trkpt>
      <trkpt lat="49.67317" lon="-1.27073">
        <ele>6.7</ele>
        <time>2020-06-15T10:17:47Z</time>
      </trkpt>
      <trkpt lat="49.67312" lon="-1.27068">
        <ele>6.4</ele>
        <time>2020-06-15T10:17:48Z</time>
      </trkpt>
      <trkpt lat="49.67307" lon="-1.27063">
        <ele>6.1</ele>
        <time>2020-06-15T10:17:49Z</time>
      </trkpt>
      <trkpt lat="49.67302" lon="-1.27057">
        <ele>5.8</ele>
        <time>2020-06-15T10:17:50Z</time>
      </trkpt>
      <trkpt lat="49.67297" lon="-1.27049">
        <ele>5.5</ele>
        <time>2020-06-15T10:17:51Z</time>
      </trkpt>
      <trkpt lat="49.67292" lon="-1.2704">
        <ele>5.1</ele>
        <time>2020-06-15T10:17:52Z</time>
      </trkpt>
      <trkpt lat="49.67287" lon="-1.2703">
        <ele>4.8</ele>
        <time>2020-06-15T10:17:53Z</time>
      </trkpt>
      <trkpt lat="49.67282" lon="-1.27021">
        <ele>4.5</ele>
        <time>2020-06-15T10:17:54Z</time>
      </trkpt>
      <trkpt lat="49.67277" lon="-1.2701">
        <ele>4.2</ele>
        <time>2020-06-15T10:17:55Z</time>
      </trkpt>
      <trkpt lat="49.67272" lon="-1.26999">
        <ele>4</ele>
        <time>2020-06-15T10:17:56Z</time>
      </trkpt>
      <trkpt lat="49.67268" lon="-1.26991">
        <ele>3.8</ele>
        <time>2020-06-15T10:17:57Z</time>
      </trkpt>
      <trkpt lat="49.67263" lon="-1.26981">
        <ele>3.6</ele>
        <time>2020-06-15T10:17:58Z</time>
      </trkpt>
      <trkpt lat="49.67258" lon="-1.26971">
        <ele>3.5</ele>
        <time>2020-06-15T10:17:59Z</time>
      </trkpt>
      <trkpt lat="49.67254" lon="-1.26962">
        <ele>3.4</ele>
        <time>2020-06-15T10:18:00Z</time>
      </trkpt>
      <trkpt lat="49.6725" lon="-1.26952">
        <ele>3.4</ele>
        <time>2020-06-15T10:18:01Z</time>
      </trkpt>
      <trkpt lat="49.67246" lon="-1.26942">
        <ele>3.5</ele>
        <time>2020-06-15T10:18:02Z</time>
      </trkpt>
      <trkpt lat="49.67242" lon="-1.26934">
        <ele>3.6</ele>
        <time>2020-06-15T10:18:03Z</time>
      </trkpt>
      <trkpt lat="49.67238" lon="-1.26925">
        <ele>3.6</ele>
        <time>2020-06-15T10:18:04Z</time>
      </trkpt>
      <trkpt lat="49.67233" lon="-1.26916">
        <ele>3.7</ele>
        <time>2020-06-15T10:18:05Z</time>
      </trkpt>
      <trkpt lat="49.67229" lon="-1.26906">
        <ele>3.6</ele>
        <time>2020-06-15T10:18:06Z</time>
      </trkpt>
      <trkpt lat="49.67225" lon="-1.26897">
        <ele>3.5</ele>
        <time>2020-06-15T10:18:07Z</time>
      </trkpt>
      <trkpt lat="49.6722" lon="-1.26888">
        <ele>3.5</ele>
        <time>2020-06-15T10:18:08Z</time>
      </trkpt>
      <trkpt lat="49.67216" lon="-1.26881">
        <ele>3.5</ele>
        <time>2020-06-15T10:18:09Z</time>
      </trkpt>
      <trkpt lat="49.67211" lon="-1.26874">
        <ele>3.6</ele>
        <time>2020-06-15T10:18:10Z</time>
      </trkpt>
      <trkpt lat="49.67206" lon="-1.26867">
        <ele>3.6</ele>
        <time>2020-06-15T10:18:11Z</time>
      </trkpt>
      <trkpt lat="49.67201" lon="-1.26861">
        <ele>3.7</ele>
        <time>2020-06-15T10:18:12Z</time>
      </trkpt>
      <trkpt lat="49.67196" lon="-1.26856">
        <ele>3.7</ele>
        <time>2020-06-15T10:18:13Z</time>
      </trkpt>
      <trkpt lat="49.6719" lon="-1.26851">
        <ele>3.7</ele>
        <time>2020-06-15T10:18:14Z</time>
      </trkpt>
      <trkpt lat="49.67185" lon="-1.26846">
        <ele>3.8</ele>
        <time>2020-06-15T10:18:15Z</time>
      </trkpt>
      <trkpt lat="49.6718" lon="-1.26841">
        <ele>3.8</ele>
        <time>2020-06-15T10:18:16Z</time>
      </trkpt>
      <trkpt lat="49.67174" lon="-1.26837">
        <ele>3.9</ele>
        <time>2020-06-15T10:18:17Z</time>
      </trkpt>
      <trkpt lat="49.67169" lon="-1.26832">
        <ele>3.9</ele>
        <time>2020-06-15T10:18:18Z</time>
      </trkpt>
      <trkpt lat="49.67164" lon="-1.26828">
        <ele>4</ele>
        <time>2020-06-15T10:18:19Z</time>
      </trkpt>
      <trkpt lat="49.67159" lon="-1.26824">
        <ele>4</ele>
        <time>2020-06-15T10:18:20Z</time>
      </trkpt>
      <trkpt lat="49.67154" lon="-1.26818">
        <ele>4</ele>
        <time>2020-06-15T10:18:21Z</time>
      </trkpt>
      <trkpt lat="49.67149" lon="-1.26813">
        <ele>4.1</ele>
        <time>2020-06-15T10:18:22Z</time>
      </trkpt>
      <trkpt lat="49.67144" lon="-1.26807">
        <ele>4</ele>
        <time>2020-06-15T10:18:23Z</time>
      </trkpt>
      <trkpt lat="49.67139" lon="-1.26803">
        <ele>4</ele>
        <time>2020-06-15T10:18:24Z</time>
      </trkpt>
      <trkpt lat="49.67135" lon="-1.26797">
        <ele>4</ele>
        <time>2020-06-15T10:18:25Z</time>
      </trkpt>
      <trkpt lat="49.6713" lon="-1.26792">
        <ele>4</ele>
        <time>2020-06-15T10:18:26Z</time>
      </trkpt>
      <trkpt lat="49.67125" lon="-1.26789">
        <ele>4</ele>
        <time>2020-06-15T10:18:27Z</time>
      </trkpt>
      <trkpt lat="49.6712" lon="-1.26785">
        <ele>4</ele>
        <time>2020-06-15T10:18:28Z</time>
      </trkpt>
      <trkpt lat="49.67115" lon="-1.26781">
        <ele>4</ele>
        <time>2020-06-15T10:18:29Z</time>
      </trkpt>
      <trkpt lat="49.6711" lon="-1.26777">
        <ele>4</ele>
        <time>2020-06-15T10:18:30Z</time>
      </trkpt>
      <trkpt lat="49.67106" lon="-1.26771">
        <ele>4</ele>
        <time>2020-06-15T10:18:31Z</time>
      </trkpt>
      <trkpt lat="49.67102" lon="-1.26766">
        <ele>3.9</ele>
        <time>2020-06-15T10:18:32Z</time>
      </trkpt>
      <trkpt lat="49.67097" lon="-1.26761">
        <ele>3.9</ele>
        <time>2020-06-15T10:18:33Z</time>
      </trkpt>
      <trkpt lat="49.67092" lon="-1.26757">
        <ele>3.9</ele>
        <time>2020-06-15T10:18:34Z</time>
      </trkpt>
      <trkpt lat="49.67088" lon="-1.26752">
        <ele>3.8</ele>
        <time>2020-06-15T10:18:35Z</time>
      </trkpt>
      <trkpt lat="49.67084" lon="-1.26748">
        <ele>3.8</ele>
        <time>2020-06-15T10:18:36Z</time>
      </trkpt>
      <trkpt lat="49.6708" lon="-1.26743">
        <ele>3.7</ele>
        <time>2020-06-15T10:18:37Z</time>
      </trkpt>
      <trkpt lat="49.67076" lon="-1.26738">
        <ele>3.7</ele>
        <time>2020-06-15T10:18:38Z</time>
      </trkpt>
      <trkpt lat="49.67072" lon="-1.26731">
        <ele>3.7</ele>
        <time>2020-06-15T10:18:39Z</time>
      </trkpt>
      <trkpt lat="49.67069" lon="-1.26724">
        <ele>3.7</ele>
        <time>2020-06-15T10:18:40Z</time>
      </trkpt>
      <trkpt lat="49.67066" lon="-1.26718">
        <ele>3.6</ele>
        <time>2020-06-15T10:18:41Z</time>
      </trkpt>
      <trkpt lat="49.67063" lon="-1.26711">
        <ele>3.7</ele>
        <time>2020-06-15T10:18:42Z</time>
      </trkpt>
      <trkpt lat="49.6706" lon="-1.26705">
        <ele>3.8</ele>
        <time>2020-06-15T10:18:43Z</time>
      </trkpt>
      <trkpt lat="49.67057" lon="-1.26702">
        <ele>3.8</ele>
        <time>2020-06-15T10:18:44Z</time>
      </trkpt>
      <trkpt lat="49.67055" lon="-1.26699">
        <ele>3.8</ele>
        <time>2020-06-15T10:18:45Z</time>
      </trkpt>
      <trkpt lat="49.67055" lon="-1.26697">
        <ele>3.8</ele>
        <time>2020-06-15T10:18:46Z</time>
      </trkpt>
      <trkpt lat="49.67052" lon="-1.26694">
        <ele>3.9</ele>
        <time>2020-06-15T10:18:47Z</time>
      </trkpt>
      <trkpt lat="49.67051" lon="-1.26694">
        <ele>3.9</ele>
        <time>2020-06-15T10:18:48Z</time>
      </trkpt>
      <trkpt lat="49.6705" lon="-1.26693">
        <ele>4</ele>
        <time>2020-06-15T10:18:49Z</time>
      </trkpt>
      <trkpt lat="49.67048" lon="-1.26692">
        <ele>3.9</ele>
        <time>2020-06-15T10:18:50Z</time>
      </trkpt>
      <trkpt lat="49.67045" lon="-1.26689">
        <ele>3.9</ele>
        <time>2020-06-15T10:18:51Z</time>
      </trkpt>
      <trkpt lat="49.67044" lon="-1.26689">
        <ele>3.8</ele>
        <time>2020-06-15T10:18:52Z</time>
      </trkpt>
      <trkpt lat="49.67042" lon="-1.26684">
        <ele>3.8</ele>
        <time>2020-06-15T10:18:53Z</time>
      </trkpt>
      <trkpt lat="49.67041" lon="-1.26683">
        <ele>3.8</ele>
        <time>2020-06-15T10:18:54Z</time>
      </trkpt>
      <trkpt lat="49.67039" lon="-1.26678">
        <ele>3.7</ele>
        <time>2020-06-15T10:18:55Z</time>
      </trkpt>
      <trkpt lat="49.67036" lon="-1.26672">
        <ele>3.7</ele>
        <time>2020-06-15T10:18:56Z</time>
      </trkpt>
      <trkpt lat="49.67033" lon="-1.26667">
        <ele>3.6</ele>
        <time>2020-06-15T10:18:57Z</time>
      </trkpt>
      <trkpt lat="49.6703" lon="-1.26662">
        <ele>3.6</ele>
        <time>2020-06-15T10:18:58Z</time>
      </trkpt>
      <trkpt lat="49.67027" lon="-1.26656">
        <ele>3.5</ele>
        <time>2020-06-15T10:18:59Z</time>
      </trkpt>
      <trkpt lat="49.67024" lon="-1.26651">
        <ele>3.5</ele>
        <time>2020-06-15T10:19:00Z</time>
      </trkpt>
      <trkpt lat="49.67021" lon="-1.26646">
        <ele>3.5</ele>
        <time>2020-06-15T10:19:01Z</time>
      </trkpt>
      <trkpt lat="49.67018" lon="-1.26641">
        <ele>3.5</ele>
        <time>2020-06-15T10:19:02Z</time>
      </trkpt>
      <trkpt lat="49.67015" lon="-1.26636">
        <ele>3.5</ele>
        <time>2020-06-15T10:19:03Z</time>
      </trkpt>
      <trkpt lat="49.67013" lon="-1.26631">
        <ele>3.5</ele>
        <time>2020-06-15T10:19:04Z</time>
      </trkpt>
      <trkpt lat="49.67009" lon="-1.26626">
        <ele>3.5</ele>
        <time>2020-06-15T10:19:05Z</time>
      </trkpt>
      <trkpt lat="49.67007" lon="-1.2662">
        <ele>3.5</ele>
        <time>2020-06-15T10:19:06Z</time>
      </trkpt>
      <trkpt lat="49.67004" lon="-1.26616">
        <ele>3.6</ele>
        <time>2020-06-15T10:19:07Z</time>
      </trkpt>
      <trkpt lat="49.67001" lon="-1.2661">
        <ele>3.7</ele>
        <time>2020-06-15T10:19:08Z</time>
      </trkpt>
      <trkpt lat="49.66997" lon="-1.26604">
        <ele>3.7</ele>
        <time>2020-06-15T10:19:09Z</time>
      </trkpt>
      <trkpt lat="49.66995" lon="-1.26598">
        <ele>3.9</ele>
        <time>2020-06-15T10:19:10Z</time>
      </trkpt>
      <trkpt lat="49.66992" lon="-1.26593">
        <ele>4</ele>
        <time>2020-06-15T10:19:11Z</time>
      </trkpt>
      <trkpt lat="49.66989" lon="-1.26588">
        <ele>4.1</ele>
        <time>2020-06-15T10:19:12Z</time>
      </trkpt>
      <trkpt lat="49.66987" lon="-1.26584">
        <ele>4.2</ele>
        <time>2020-06-15T10:19:13Z</time>
      </trkpt>
      <trkpt lat="49.66985" lon="-1.2658">
        <ele>4.3</ele>
        <time>2020-06-15T10:19:14Z</time>
      </trkpt>
      <trkpt lat="49.66982" lon="-1.26575">
        <ele>4.4</ele>
        <time>2020-06-15T10:19:15Z</time>
      </trkpt>
      <trkpt lat="49.6698" lon="-1.26571">
        <ele>4.5</ele>
        <time>2020-06-15T10:19:16Z</time>
      </trkpt>
      <trkpt lat="49.66977" lon="-1.26568">
        <ele>4.6</ele>
        <time>2020-06-15T10:19:17Z</time>
      </trkpt>
      <trkpt lat="49.66975" lon="-1.26565">
        <ele>4.6</ele>
        <time>2020-06-15T10:19:18Z</time>
      </trkpt>
      <trkpt lat="49.66974" lon="-1.26563">
        <ele>4.6</ele>
        <time>2020-06-15T10:19:19Z</time>
      </trkpt>
      <trkpt lat="49.66973" lon="-1.26562">
        <ele>4.7</ele>
        <time>2020-06-15T10:19:20Z</time>
      </trkpt>
      <trkpt lat="49.66972" lon="-1.26559">
        <ele>4.7</ele>
        <time>2020-06-15T10:19:21Z</time>
      </trkpt>
      <trkpt lat="49.66972" lon="-1.26557">
        <ele>4.7</ele>
        <time>2020-06-15T10:19:22Z</time>
      </trkpt>
      <trkpt lat="49.66971" lon="-1.26556">
        <ele>4.7</ele>
        <time>2020-06-15T10:19:23Z</time>
      </trkpt>
      <trkpt lat="49.66971" lon="-1.26552">
        <ele>4.7</ele>
        <time>2020-06-15T10:19:24Z</time>
      </trkpt>
      <trkpt lat="49.66971" lon="-1.2655">
        <ele>4.6</ele>
        <time>2020-06-15T10:19:25Z</time>
      </trkpt>
      <trkpt lat="49.66973" lon="-1.26546">
        <ele>4.6</ele>
        <time>2020-06-15T10:19:26Z</time>
      </trkpt>
      <trkpt lat="49.66977" lon="-1.26544">
        <ele>4.6</ele>
        <time>2020-06-15T10:19:27Z</time>
      </trkpt>
      <trkpt lat="49.6698" lon="-1.2654">
        <ele>4.5</ele>
        <time>2020-06-15T10:19:28Z</time>
      </trkpt>
      <trkpt lat="49.66983" lon="-1.26535">
        <ele>4.5</ele>
        <time>2020-06-15T10:19:29Z</time>
      </trkpt>
      <trkpt lat="49.66986" lon="-1.2653">
        <ele>4.4</ele>
        <time>2020-06-15T10:19:30Z</time>
      </trkpt>
      <trkpt lat="49.66988" lon="-1.26525">
        <ele>4.4</ele>
        <time>2020-06-15T10:19:31Z</time>
      </trkpt>
      <trkpt lat="49.6699" lon="-1.2652">
        <ele>4.4</ele>
        <time>2020-06-15T10:19:32Z</time>
      </trkpt>
      <trkpt lat="49.66993" lon="-1.26515">
        <ele>4.3</ele>
        <time>2020-06-15T10:19:33Z</time>
      </trkpt>
      <trkpt lat="49.66996" lon="-1.2651">
        <ele>4.3</ele>
        <time>2020-06-15T10:19:34Z</time>
      </trkpt>
      <trkpt lat="49.66998" lon="-1.26504">
        <ele>4.3</ele>
        <time>2020-06-15T10:19:35Z</time>
      </trkpt>
      <trkpt lat="49.67001" lon="-1.26498">
        <ele>4.2</ele>
        <time>2020-06-15T10:19:36Z</time>
      </trkpt>
      <trkpt lat="49.67005" lon="-1.26491">
        <ele>4.2</ele>
        <time>2020-06-15T10:19:37Z</time>
      </trkpt>
      <trkpt lat="49.67007" lon="-1.26485">
        <ele>4.2</ele>
        <time>2020-06-15T10:19:38Z</time>
      </trkpt>
      <trkpt lat="49.6701" lon="-1.26479">
        <ele>4.2</ele>
        <time>2020-06-15T10:19:39Z</time>
      </trkpt>
      <trkpt lat="49.67013" lon="-1.26472">
        <ele>4.2</ele>
        <time>2020-06-15T10:19:40Z</time>
      </trkpt>
      <trkpt lat="49.67014" lon="-1.26465">
        <ele>4.2</ele>
        <time>2020-06-15T10:19:41Z</time>
      </trkpt>
      <trkpt lat="49.67017" lon="-1.26458">
        <ele>4.2</ele>
        <time>2020-06-15T10:19:42Z</time>
      </trkpt>
      <trkpt lat="49.6702" lon="-1.26452">
        <ele>4.2</ele>
        <time>2020-06-15T10:19:43Z</time>
      </trkpt>
      <trkpt lat="49.67023" lon="-1.26448">
        <ele>4.2</ele>
        <time>2020-06-15T10:19:44Z</time>
      </trkpt>
      <trkpt lat="49.67026" lon="-1.26443">
        <ele>4.2</ele>
        <time>2020-06-15T10:19:45Z</time>
      </trkpt>
      <trkpt lat="49.67029" lon="-1.26436">
        <ele>4.2</ele>
        <time>2020-06-15T10:19:46Z</time>
      </trkpt>
      <trkpt lat="49.67031" lon="-1.2643">
        <ele>4.2</ele>
        <time>2020-06-15T10:19:47Z</time>
      </trkpt>
      <trkpt lat="49.67034" lon="-1.26424">
        <ele>4</ele>
        <time>2020-06-15T10:19:48Z</time>
      </trkpt>
      <trkpt lat="49.67036" lon="-1.26418">
        <ele>3.9</ele>
        <time>2020-06-15T10:19:49Z</time>
      </trkpt>
      <trkpt lat="49.67038" lon="-1.26413">
        <ele>3.7</ele>
        <time>2020-06-15T10:19:50Z</time>
      </trkpt>
      <trkpt lat="49.6704" lon="-1.26408">
        <ele>3.6</ele>
        <time>2020-06-15T10:19:51Z</time>
      </trkpt>
      <trkpt lat="49.67042" lon="-1.26402">
        <ele>3.4</ele>
        <time>2020-06-15T10:19:52Z</time>
      </trkpt>
      <trkpt lat="49.67045" lon="-1.26395">
        <ele>3.2</ele>
        <time>2020-06-15T10:19:53Z</time>
      </trkpt>
      <trkpt lat="49.67048" lon="-1.26388">
        <ele>3</ele>
        <time>2020-06-15T10:19:54Z</time>
      </trkpt>
      <trkpt lat="49.67051" lon="-1.26381">
        <ele>2.9</ele>
        <time>2020-06-15T10:19:55Z</time>
      </trkpt>
      <trkpt lat="49.67055" lon="-1.26373">
        <ele>2.8</ele>
        <time>2020-06-15T10:19:56Z</time>
      </trkpt>
      <trkpt lat="49.67057" lon="-1.26368">
        <ele>2.8</ele>
        <time>2020-06-15T10:19:57Z</time>
      </trkpt>
      <trkpt lat="49.67057" lon="-1.26361">
        <ele>2.7</ele>
        <time>2020-06-15T10:19:58Z</time>
      </trkpt>
      <trkpt lat="49.67055" lon="-1.26356">
        <ele>2.7</ele>
        <time>2020-06-15T10:19:59Z</time>
      </trkpt>
      <trkpt lat="49.67052" lon="-1.26351">
        <ele>2.6</ele>
        <time>2020-06-15T10:20:00Z</time>
      </trkpt>
      <trkpt lat="49.67048" lon="-1.2635">
        <ele>2.5</ele>
        <time>2020-06-15T10:20:01Z</time>
      </trkpt>
      <trkpt lat="49.67043" lon="-1.2635">
        <ele>2.5</ele>
        <time>2020-06-15T10:20:02Z</time>
      </trkpt>
      <trkpt lat="49.67037" lon="-1.26349">
        <ele>2.4</ele>
        <time>2020-06-15T10:20:03Z</time>
      </trkpt>
      <trkpt lat="49.67032" lon="-1.26348">
        <ele>2.3</ele>
        <time>2020-06-15T10:20:04Z</time>
      </trkpt>
      <trkpt lat="49.67028" lon="-1.26348">
        <ele>2.3</ele>
        <time>2020-06-15T10:20:05Z</time>
      </trkpt>
      <trkpt lat="49.67023" lon="-1.26346">
        <ele>2.2</ele>
        <time>2020-06-15T10:20:06Z</time>
      </trkpt>
      <trkpt lat="49.67018" lon="-1.26346">
        <ele>2.2</ele>
        <time>2020-06-15T10:20:07Z</time>
      </trkpt>
      <trkpt lat="49.67014" lon="-1.26346">
        <ele>2.1</ele>
        <time>2020-06-15T10:20:08Z</time>
      </trkpt>
      <trkpt lat="49.67009" lon="-1.26347">
        <ele>2.1</ele>
        <time>2020-06-15T10:20:09Z</time>
      </trkpt>
      <trkpt lat="49.67005" lon="-1.26346">
        <ele>2</ele>
        <time>2020-06-15T10:20:10Z</time>
      </trkpt>
      <trkpt lat="49.67" lon="-1.26346">
        <ele>2</ele>
        <time>2020-06-15T10:20:11Z</time>
      </trkpt>
      <trkpt lat="49.66996" lon="-1.26345">
        <ele>1.9</ele>
        <time>2020-06-15T10:20:12Z</time>
      </trkpt>
      <trkpt lat="49.66991" lon="-1.26346">
        <ele>1.9</ele>
        <time>2020-06-15T10:20:13Z</time>
      </trkpt>
      <trkpt lat="49.66987" lon="-1.26346">
        <ele>1.9</ele>
        <time>2020-06-15T10:20:14Z</time>
      </trkpt>
      <trkpt lat="49.66982" lon="-1.26347">
        <ele>1.9</ele>
        <time>2020-06-15T10:20:15Z</time>
      </trkpt>
      <trkpt lat="49.66978" lon="-1.26345">
        <ele>1.9</ele>
        <time>2020-06-15T10:20:16Z</time>
      </trkpt>
      <trkpt lat="49.66974" lon="-1.26344">
        <ele>1.9</ele>
        <time>2020-06-15T10:20:17Z</time>
      </trkpt>
      <trkpt lat="49.66969" lon="-1.26344">
        <ele>1.9</ele>
        <time>2020-06-15T10:20:18Z</time>
      </trkpt>
      <trkpt lat="49.66965" lon="-1.26344">
        <ele>1.9</ele>
        <time>2020-06-15T10:20:19Z</time>
      </trkpt>
      <trkpt lat="49.6696" lon="-1.26344">
        <ele>1.9</ele>
        <time>2020-06-15T10:20:20Z</time>
      </trkpt>
      <trkpt lat="49.66955" lon="-1.26345">
        <ele>1.8</ele>
        <time>2020-06-15T10:20:21Z</time>
      </trkpt>
      <trkpt lat="49.6695" lon="-1.26346">
        <ele>1.8</ele>
        <time>2020-06-15T10:20:22Z</time>
      </trkpt>
      <trkpt lat="49.66946" lon="-1.26345">
        <ele>1.8</ele>
        <time>2020-06-15T10:20:23Z</time>
      </trkpt>
      <trkpt lat="49.66941" lon="-1.26345">
        <ele>1.8</ele>
        <time>2020-06-15T10:20:24Z</time>
      </trkpt>
      <trkpt lat="49.66936" lon="-1.26344">
        <ele>1.8</ele>
        <time>2020-06-15T10:20:25Z</time>
      </trkpt>
      <trkpt lat="49.66931" lon="-1.26343">
        <ele>1.7</ele>
        <time>2020-06-15T10:20:26Z</time>
      </trkpt>
      <trkpt lat="49.66927" lon="-1.26342">
        <ele>1.7</ele>
        <time>2020-06-15T10:20:27Z</time>
      </trkpt>
      <trkpt lat="49.66922" lon="-1.26342">
        <ele>1.7</ele>
        <time>2020-06-15T10:20:28Z</time>
      </trkpt>
      <trkpt lat="49.66917" lon="-1.26343">
        <ele>1.7</ele>
        <time>2020-06-15T10:20:29Z</time>
      </trkpt>
      <trkpt lat="49.66912" lon="-1.26342">
        <ele>1.6</ele>
        <time>2020-06-15T10:20:30Z</time>
      </trkpt>
      <trkpt lat="49.66907" lon="-1.26342">
        <ele>1.6</ele>
        <time>2020-06-15T10:20:31Z</time>
      </trkpt>
      <trkpt lat="49.66902" lon="-1.26343">
        <ele>1.6</ele>
        <time>2020-06-15T10:20:32Z</time>
      </trkpt>
      <trkpt lat="49.66897" lon="-1.26345">
        <ele>1.6</ele>
        <time>2020-06-15T10:20:33Z</time>
      </trkpt>
      <trkpt lat="49.66893" lon="-1.26347">
        <ele>1.5</ele>
        <time>2020-06-15T10:20:34Z</time>
      </trkpt>
      <trkpt lat="49.66889" lon="-1.26348">
        <ele>1.5</ele>
        <time>2020-06-15T10:20:35Z</time>
      </trkpt>
      <trkpt lat="49.66885" lon="-1.2635">
        <ele>1.5</ele>
        <time>2020-06-15T10:20:36Z</time>
      </trkpt>
      <trkpt lat="49.66881" lon="-1.26354">
        <ele>1.4</ele>
        <time>2020-06-15T10:20:37Z</time>
      </trkpt>
      <trkpt lat="49.66878" lon="-1.26357">
        <ele>1.4</ele>
        <time>2020-06-15T10:20:38Z</time>
      </trkpt>
      <trkpt lat="49.66874" lon="-1.26361">
        <ele>1.4</ele>
        <time>2020-06-15T10:20:39Z</time>
      </trkpt>
      <trkpt lat="49.66871" lon="-1.26362">
        <ele>1.5</ele>
        <time>2020-06-15T10:20:40Z</time>
      </trkpt>
      <trkpt lat="49.66867" lon="-1.26364">
        <ele>1.5</ele>
        <time>2020-06-15T10:20:41Z</time>
      </trkpt>
      <trkpt lat="49.66863" lon="-1.26366">
        <ele>1.5</ele>
        <time>2020-06-15T10:20:42Z</time>
      </trkpt>
      <trkpt lat="49.6686" lon="-1.26368">
        <ele>1.5</ele>
        <time>2020-06-15T10:20:43Z</time>
      </trkpt>
      <trkpt lat="49.66857" lon="-1.2637">
        <ele>1.6</ele>
        <time>2020-06-15T10:20:44Z</time>
      </trkpt>
      <trkpt lat="49.66853" lon="-1.26373">
        <ele>1.6</ele>
        <time>2020-06-15T10:20:45Z</time>
      </trkpt>
      <trkpt lat="49.66849" lon="-1.26375">
        <ele>1.6</ele>
        <time>2020-06-15T10:20:46Z</time>
      </trkpt>
      <trkpt lat="49.66846" lon="-1.26378">
        <ele>1.6</ele>
        <time>2020-06-15T10:20:47Z</time>
      </trkpt>
      <trkpt lat="49.66843" lon="-1.26381">
        <ele>1.6</ele>
        <time>2020-06-15T10:20:48Z</time>
      </trkpt>
      <trkpt lat="49.66839" lon="-1.26383">
        <ele>1.7</ele>
        <time>2020-06-15T10:20:49Z</time>
      </trkpt>
      <trkpt lat="49.66834" lon="-1.26385">
        <ele>1.7</ele>
        <time>2020-06-15T10:20:50Z</time>
      </trkpt>
      <trkpt lat="49.66829" lon="-1.26386">
        <ele>1.7</ele>
        <time>2020-06-15T10:20:51Z</time>
      </trkpt>
      <trkpt lat="49.66825" lon="-1.26385">
        <ele>1.7</ele>
        <time>2020-06-15T10:20:52Z</time>
      </trkpt>
      <trkpt lat="49.66822" lon="-1.26381">
        <ele>1.7</ele>
        <time>2020-06-15T10:20:53Z</time>
      </trkpt>
      <trkpt lat="49.66819" lon="-1.26376">
        <ele>1.6</ele>
        <time>2020-06-15T10:20:54Z</time>
      </trkpt>
      <trkpt lat="49.66816" lon="-1.26369">
        <ele>1.5</ele>
        <time>2020-06-15T10:20:55Z</time>
      </trkpt>
      <trkpt lat="49.66814" lon="-1.26359">
        <ele>1.4</ele>
        <time>2020-06-15T10:20:56Z</time>
      </trkpt>
      <trkpt lat="49.66812" lon="-1.26349">
        <ele>1.3</ele>
        <time>2020-06-15T10:20:57Z</time>
      </trkpt>
      <trkpt lat="49.66809" lon="-1.26339">
        <ele>1.2</ele>
        <time>2020-06-15T10:20:58Z</time>
      </trkpt>
      <trkpt lat="49.66807" lon="-1.2633">
        <ele>1.2</ele>
        <time>2020-06-15T10:20:59Z</time>
      </trkpt>
      <trkpt lat="49.66804" lon="-1.2632">
        <ele>1.2</ele>
        <time>2020-06-15T10:21:00Z</time>
      </trkpt>
      <trkpt lat="49.66803" lon="-1.26309">
        <ele>1.1</ele>
        <time>2020-06-15T10:21:01Z</time>
      </trkpt>
      <trkpt lat="49.66801" lon="-1.26299">
        <ele>1.1</ele>
        <time>2020-06-15T10:21:02Z</time>
      </trkpt>
      <trkpt lat="49.66799" lon="-1.26289">
        <ele>1.2</ele>
        <time>2020-06-15T10:21:03Z</time>
      </trkpt>
      <trkpt lat="49.66797" lon="-1.26281">
        <ele>1.2</ele>
        <time>2020-06-15T10:21:04Z</time>
      </trkpt>
      <trkpt lat="49.66795" lon="-1.26274">
        <ele>1.2</ele>
        <time>2020-06-15T10:21:05Z</time>
      </trkpt>
      <trkpt lat="49.66793" lon="-1.26266">
        <ele>1.3</ele>
        <time>2020-06-15T10:21:06Z</time>
      </trkpt>
      <trkpt lat="49.66792" lon="-1.26257">
        <ele>1.3</ele>
        <time>2020-06-15T10:21:07Z</time>
      </trkpt>
      <trkpt lat="49.66789" lon="-1.26251">
        <ele>1.4</ele>
        <time>2020-06-15T10:21:08Z</time>
      </trkpt>
      <trkpt lat="49.66788" lon="-1.26244">
        <ele>1.4</ele>
        <time>2020-06-15T10:21:09Z</time>
      </trkpt>
      <trkpt lat="49.66787" lon="-1.26236">
        <ele>1.4</ele>
        <time>2020-06-15T10:21:10Z</time>
      </trkpt>
      <trkpt lat="49.66785" lon="-1.26228">
        <ele>1.4</ele>
        <time>2020-06-15T10:21:11Z</time>
      </trkpt>
      <trkpt lat="49.66784" lon="-1.2622">
        <ele>1.5</ele>
        <time>2020-06-15T10:21:12Z</time>
      </trkpt>
      <trkpt lat="49.66783" lon="-1.26212">
        <ele>1.5</ele>
        <time>2020-06-15T10:21:13Z</time>
      </trkpt>
      <trkpt lat="49.66783" lon="-1.26204">
        <ele>1.5</ele>
        <time>2020-06-15T10:21:14Z</time>
      </trkpt>
      <trkpt lat="49.66783" lon="-1.26195">
        <ele>1.6</ele>
        <time>2020-06-15T10:21:15Z</time>
      </trkpt>
      <trkpt lat="49.66783" lon="-1.26186">
        <ele>1.6</ele>
        <time>2020-06-15T10:21:16Z</time>
      </trkpt>
      <trkpt lat="49.66782" lon="-1.26178">
        <ele>1.7</ele>
        <time>2020-06-15T10:21:17Z</time>
      </trkpt>
      <trkpt lat="49.66782" lon="-1.26171">
        <ele>1.7</ele>
        <time>2020-06-15T10:21:18Z</time>
      </trkpt>
      <trkpt lat="49.66782" lon="-1.26163">
        <ele>1.7</ele>
        <time>2020-06-15T10:21:19Z</time>
      </trkpt>
      <trkpt lat="49.66782" lon="-1.26155">
        <ele>1.8</ele>
        <time>2020-06-15T10:21:20Z</time>
      </trkpt>
      <trkpt lat="49.66782" lon="-1.26145">
        <ele>1.8</ele>
        <time>2020-06-15T10:21:21Z</time>
      </trkpt>
      <trkpt lat="49.66782" lon="-1.26136">
        <ele>1.9</ele>
        <time>2020-06-15T10:21:22Z</time>
      </trkpt>
      <trkpt lat="49.66782" lon="-1.26127">
        <ele>2</ele>
        <time>2020-06-15T10:21:23Z</time>
      </trkpt>
      <trkpt lat="49.66782" lon="-1.26119">
        <ele>2.1</ele>
        <time>2020-06-15T10:21:24Z</time>
      </trkpt>
      <trkpt lat="49.66782" lon="-1.26111">
        <ele>2.2</ele>
        <time>2020-06-15T10:21:25Z</time>
      </trkpt>
      <trkpt lat="49.66783" lon="-1.26103">
        <ele>2.2</ele>
        <time>2020-06-15T10:21:26Z</time>
      </trkpt>
      <trkpt lat="49.66783" lon="-1.26095">
        <ele>2.3</ele>
        <time>2020-06-15T10:21:27Z</time>
      </trkpt>
      <trkpt lat="49.66783" lon="-1.26088">
        <ele>2.4</ele>
        <time>2020-06-15T10:21:28Z</time>
      </trkpt>
      <trkpt lat="49.66783" lon="-1.2608">
        <ele>2.4</ele>
        <time>2020-06-15T10:21:29Z</time>
      </trkpt>
      <trkpt lat="49.66781" lon="-1.26072">
        <ele>2.4</ele>
        <time>2020-06-15T10:21:30Z</time>
      </trkpt>
      <trkpt lat="49.6678" lon="-1.26063">
        <ele>2.5</ele>
        <time>2020-06-15T10:21:31Z</time>
      </trkpt>
      <trkpt lat="49.66777" lon="-1.26056">
        <ele>2.5</ele>
        <time>2020-06-15T10:21:32Z</time>
      </trkpt>
      <trkpt lat="49.66771" lon="-1.26053">
        <ele>2.5</ele>
        <time>2020-06-15T10:21:33Z</time>
      </trkpt>
      <trkpt lat="49.66766" lon="-1.26051">
        <ele>2.5</ele>
        <time>2020-06-15T10:21:34Z</time>
      </trkpt>
      <trkpt lat="49.6676" lon="-1.2605">
        <ele>2.5</ele>
        <time>2020-06-15T10:21:35Z</time>
      </trkpt>
      <trkpt lat="49.66755" lon="-1.26049">
        <ele>2.5</ele>
        <time>2020-06-15T10:21:36Z</time>
      </trkpt>
      <trkpt lat="49.6675" lon="-1.26049">
        <ele>2.5</ele>
        <time>2020-06-15T10:21:37Z</time>
      </trkpt>
      <trkpt lat="49.66744" lon="-1.26048">
        <ele>2.5</ele>
        <time>2020-06-15T10:21:38Z</time>
      </trkpt>
      <trkpt lat="49.66739" lon="-1.26048">
        <ele>2.6</ele>
        <time>2020-06-15T10:21:39Z</time>
      </trkpt>
      <trkpt lat="49.66733" lon="-1.26047">
        <ele>2.6</ele>
        <time>2020-06-15T10:21:40Z</time>
      </trkpt>
      <trkpt lat="49.66728" lon="-1.26046">
        <ele>2.6</ele>
        <time>2020-06-15T10:21:41Z</time>
      </trkpt>
      <trkpt lat="49.66724" lon="-1.26046">
        <ele>2.7</ele>
        <time>2020-06-15T10:21:42Z</time>
      </trkpt>
      <trkpt lat="49.66719" lon="-1.26044">
        <ele>2.7</ele>
        <time>2020-06-15T10:21:43Z</time>
      </trkpt>
      <trkpt lat="49.66716" lon="-1.26038">
        <ele>2.7</ele>
        <time>2020-06-15T10:21:44Z</time>
      </trkpt>
      <trkpt lat="49.66715" lon="-1.26031">
        <ele>2.7</ele>
        <time>2020-06-15T10:21:45Z</time>
      </trkpt>
      <trkpt lat="49.66713" lon="-1.26022">
        <ele>2.7</ele>
        <time>2020-06-15T10:21:46Z</time>
      </trkpt>
      <trkpt lat="49.66711" lon="-1.26013">
        <ele>2.8</ele>
        <time>2020-06-15T10:21:47Z</time>
      </trkpt>
      <trkpt lat="49.66709" lon="-1.26005">
        <ele>2.8</ele>
        <time>2020-06-15T10:21:48Z</time>
      </trkpt>
      <trkpt lat="49.66706" lon="-1.25997">
        <ele>2.9</ele>
        <time>2020-06-15T10:21:49Z</time>
      </trkpt>
      <trkpt lat="49.66703" lon="-1.25991">
        <ele>3</ele>
        <time>2020-06-15T10:21:50Z</time>
      </trkpt>
      <trkpt lat="49.66699" lon="-1.25985">
        <ele>3.1</ele>
        <time>2020-06-15T10:21:51Z</time>
      </trkpt>
      <trkpt lat="49.66696" lon="-1.25979">
        <ele>3.1</ele>
        <time>2020-06-15T10:21:52Z</time>
      </trkpt>
      <trkpt lat="49.66692" lon="-1.25973">
        <ele>3.2</ele>
        <time>2020-06-15T10:21:53Z</time>
      </trkpt>
      <trkpt lat="49.66688" lon="-1.25967">
        <ele>3.2</ele>
        <time>2020-06-15T10:21:54Z</time>
      </trkpt>
      <trkpt lat="49.66685" lon="-1.25961">
        <ele>3.3</ele>
        <time>2020-06-15T10:21:55Z</time>
      </trkpt>
      <trkpt lat="49.6668" lon="-1.25956">
        <ele>3.3</ele>
        <time>2020-06-15T10:21:56Z</time>
      </trkpt>
      <trkpt lat="49.66676" lon="-1.2595">
        <ele>3.3</ele>
        <time>2020-06-15T10:21:57Z</time>
      </trkpt>
      <trkpt lat="49.66672" lon="-1.25945">
        <ele>3.4</ele>
        <time>2020-06-15T10:21:58Z</time>
      </trkpt>
      <trkpt lat="49.66668" lon="-1.25941">
        <ele>3.5</ele>
        <time>2020-06-15T10:21:59Z</time>
      </trkpt>
      <trkpt lat="49.66663" lon="-1.25937">
        <ele>3.5</ele>
        <time>2020-06-15T10:22:00Z</time>
      </trkpt>
      <trkpt lat="49.66659" lon="-1.25931">
        <ele>3.5</ele>
        <time>2020-06-15T10:22:01Z</time>
      </trkpt>
      <trkpt lat="49.66655" lon="-1.25926">
        <ele>3.6</ele>
        <time>2020-06-15T10:22:02Z</time>
      </trkpt>
      <trkpt lat="49.66651" lon="-1.25921">
        <ele>3.6</ele>
        <time>2020-06-15T10:22:03Z</time>
      </trkpt>
      <trkpt lat="49.66647" lon="-1.25917">
        <ele>3.7</ele>
        <time>2020-06-15T10:22:04Z</time>
      </trkpt>
      <trkpt lat="49.66643" lon="-1.25914">
        <ele>3.7</ele>
        <time>2020-06-15T10:22:05Z</time>
      </trkpt>
      <trkpt lat="49.6664" lon="-1.25909">
        <ele>3.7</ele>
        <time>2020-06-15T10:22:06Z</time>
      </trkpt>
      <trkpt lat="49.66635" lon="-1.25906">
        <ele>3.8</ele>
        <time>2020-06-15T10:22:07Z</time>
      </trkpt>
      <trkpt lat="49.66631" lon="-1.25902">
        <ele>3.8</ele>
        <time>2020-06-15T10:22:08Z</time>
      </trkpt>
      <trkpt lat="49.66627" lon="-1.25897">
        <ele>3.9</ele>
        <time>2020-06-15T10:22:09Z</time>
      </trkpt>
      <trkpt lat="49.66623" lon="-1.25893">
        <ele>3.9</ele>
        <time>2020-06-15T10:22:10Z</time>
      </trkpt>
      <trkpt lat="49.66619" lon="-1.25886">
        <ele>3.9</ele>
        <time>2020-06-15T10:22:11Z</time>
      </trkpt>
      <trkpt lat="49.66614" lon="-1.25881">
        <ele>4</ele>
        <time>2020-06-15T10:22:12Z</time>
      </trkpt>
      <trkpt lat="49.66609" lon="-1.25877">
        <ele>4</ele>
        <time>2020-06-15T10:22:13Z</time>
      </trkpt>
      <trkpt lat="49.66605" lon="-1.25872">
        <ele>4</ele>
        <time>2020-06-15T10:22:14Z</time>
      </trkpt>
      <trkpt lat="49.66599" lon="-1.25868">
        <ele>4.1</ele>
        <time>2020-06-15T10:22:15Z</time>
      </trkpt>
      <trkpt lat="49.66595" lon="-1.25864">
        <ele>4.1</ele>
        <time>2020-06-15T10:22:16Z</time>
      </trkpt>
      <trkpt lat="49.6659" lon="-1.25861">
        <ele>4.2</ele>
        <time>2020-06-15T10:22:17Z</time>
      </trkpt>
      <trkpt lat="49.66585" lon="-1.25858">
        <ele>4.2</ele>
        <time>2020-06-15T10:22:18Z</time>
      </trkpt>
      <trkpt lat="49.6658" lon="-1.25856">
        <ele>4.3</ele>
        <time>2020-06-15T10:22:19Z</time>
      </trkpt>
      <trkpt lat="49.66575" lon="-1.25853">
        <ele>4.3</ele>
        <time>2020-06-15T10:22:20Z</time>
      </trkpt>
      <trkpt lat="49.66569" lon="-1.25851">
        <ele>4.4</ele>
        <time>2020-06-15T10:22:21Z</time>
      </trkpt>
      <trkpt lat="49.66564" lon="-1.25848">
        <ele>4.4</ele>
        <time>2020-06-15T10:22:22Z</time>
      </trkpt>
      <trkpt lat="49.66559" lon="-1.25843">
        <ele>4.5</ele>
        <time>2020-06-15T10:22:23Z</time>
      </trkpt>
      <trkpt lat="49.66554" lon="-1.2584">
        <ele>4.6</ele>
        <time>2020-06-15T10:22:24Z</time>
      </trkpt>
      <trkpt lat="49.66549" lon="-1.25836">
        <ele>4.8</ele>
        <time>2020-06-15T10:22:25Z</time>
      </trkpt>
      <trkpt lat="49.66545" lon="-1.25835">
        <ele>4.8</ele>
        <time>2020-06-15T10:22:26Z</time>
      </trkpt>
      <trkpt lat="49.6654" lon="-1.25833">
        <ele>4.9</ele>
        <time>2020-06-15T10:22:27Z</time>
      </trkpt>
      <trkpt lat="49.66535" lon="-1.25831">
        <ele>4.8</ele>
        <time>2020-06-15T10:22:28Z</time>
      </trkpt>
      <trkpt lat="49.66529" lon="-1.25829">
        <ele>4.8</ele>
        <time>2020-06-15T10:22:29Z</time>
      </trkpt>
      <trkpt lat="49.66523" lon="-1.25827">
        <ele>4.8</ele>
        <time>2020-06-15T10:22:30Z</time>
      </trkpt>
      <trkpt lat="49.66517" lon="-1.25824">
        <ele>4.8</ele>
        <time>2020-06-15T10:22:31Z</time>
      </trkpt>
      <trkpt lat="49.66511" lon="-1.25822">
        <ele>4.8</ele>
        <time>2020-06-15T10:22:32Z</time>
      </trkpt>
      <trkpt lat="49.66506" lon="-1.25818">
        <ele>4.9</ele>
        <time>2020-06-15T10:22:33Z</time>
      </trkpt>
      <trkpt lat="49.665" lon="-1.25815">
        <ele>4.9</ele>
        <time>2020-06-15T10:22:34Z</time>
      </trkpt>
      <trkpt lat="49.66495" lon="-1.25812">
        <ele>4.9</ele>
        <time>2020-06-15T10:22:35Z</time>
      </trkpt>
      <trkpt lat="49.66489" lon="-1.25808">
        <ele>5</ele>
        <time>2020-06-15T10:22:36Z</time>
      </trkpt>
      <trkpt lat="49.66483" lon="-1.25806">
        <ele>5</ele>
        <time>2020-06-15T10:22:37Z</time>
      </trkpt>
      <trkpt lat="49.66478" lon="-1.25803">
        <ele>5.1</ele>
        <time>2020-06-15T10:22:38Z</time>
      </trkpt>
      <trkpt lat="49.66473" lon="-1.25799">
        <ele>5.1</ele>
        <time>2020-06-15T10:22:39Z</time>
      </trkpt>
      <trkpt lat="49.66468" lon="-1.25796">
        <ele>5.2</ele>
        <time>2020-06-15T10:22:40Z</time>
      </trkpt>
      <trkpt lat="49.66462" lon="-1.25792">
        <ele>5.2</ele>
        <time>2020-06-15T10:22:41Z</time>
      </trkpt>
      <trkpt lat="49.66457" lon="-1.25789">
        <ele>5.2</ele>
        <time>2020-06-15T10:22:42Z</time>
      </trkpt>
      <trkpt lat="49.66451" lon="-1.25785">
        <ele>5.3</ele>
        <time>2020-06-15T10:22:43Z</time>
      </trkpt>
      <trkpt lat="49.66446" lon="-1.25781">
        <ele>5.3</ele>
        <time>2020-06-15T10:22:44Z</time>
      </trkpt>
      <trkpt lat="49.66441" lon="-1.25777">
        <ele>5.4</ele>
        <time>2020-06-15T10:22:45Z</time>
      </trkpt>
      <trkpt lat="49.66435" lon="-1.25773">
        <ele>5.4</ele>
        <time>2020-06-15T10:22:46Z</time>
      </trkpt>
      <trkpt lat="49.6643" lon="-1.25768">
        <ele>5.4</ele>
        <time>2020-06-15T10:22:47Z</time>
      </trkpt>
      <trkpt lat="49.66425" lon="-1.25764">
        <ele>5.5</ele>
        <time>2020-06-15T10:22:48Z</time>
      </trkpt>
      <trkpt lat="49.66419" lon="-1.25759">
        <ele>5.5</ele>
        <time>2020-06-15T10:22:49Z</time>
      </trkpt>
      <trkpt lat="49.66414" lon="-1.25755">
        <ele>5.5</ele>
        <time>2020-06-15T10:22:50Z</time>
      </trkpt>
      <trkpt lat="49.66409" lon="-1.25752">
        <ele>5.5</ele>
        <time>2020-06-15T10:22:51Z</time>
      </trkpt>
      <trkpt lat="49.66404" lon="-1.25747">
        <ele>5.5</ele>
        <time>2020-06-15T10:22:52Z</time>
      </trkpt>
      <trkpt lat="49.66399" lon="-1.25744">
        <ele>5.6</ele>
        <time>2020-06-15T10:22:53Z</time>
      </trkpt>
      <trkpt lat="49.66393" lon="-1.25741">
        <ele>5.6</ele>
        <time>2020-06-15T10:22:54Z</time>
      </trkpt>
      <trkpt lat="49.66388" lon="-1.25735">
        <ele>5.6</ele>
        <time>2020-06-15T10:22:55Z</time>
      </trkpt>
      <trkpt lat="49.66383" lon="-1.25731">
        <ele>5.7</ele>
        <time>2020-06-15T10:22:56Z</time>
      </trkpt>
      <trkpt lat="49.66378" lon="-1.25726">
        <ele>5.7</ele>
        <time>2020-06-15T10:22:57Z</time>
      </trkpt>
      <trkpt lat="49.66372" lon="-1.25722">
        <ele>5.8</ele>
        <time>2020-06-15T10:22:58Z</time>
      </trkpt>
      <trkpt lat="49.66367" lon="-1.25716">
        <ele>5.8</ele>
        <time>2020-06-15T10:22:59Z</time>
      </trkpt>
      <trkpt lat="49.66362" lon="-1.25712">
        <ele>5.8</ele>
        <time>2020-06-15T10:23:00Z</time>
      </trkpt>
      <trkpt lat="49.66357" lon="-1.25707">
        <ele>5.8</ele>
        <time>2020-06-15T10:23:01Z</time>
      </trkpt>
      <trkpt lat="49.66351" lon="-1.25702">
        <ele>5.8</ele>
        <time>2020-06-15T10:23:02Z</time>
      </trkpt>
      <trkpt lat="49.66346" lon="-1.257">
        <ele>5.8</ele>
        <time>2020-06-15T10:23:03Z</time>
      </trkpt>
      <trkpt lat="49.66341" lon="-1.25697">
        <ele>5.8</ele>
        <time>2020-06-15T10:23:04Z</time>
      </trkpt>
      <trkpt lat="49.66335" lon="-1.25691">
        <ele>5.8</ele>
        <time>2020-06-15T10:23:05Z</time>
      </trkpt>
      <trkpt lat="49.66331" lon="-1.25688">
        <ele>5.8</ele>
        <time>2020-06-15T10:23:06Z</time>
      </trkpt>
      <trkpt lat="49.66325" lon="-1.25684">
        <ele>5.8</ele>
        <time>2020-06-15T10:23:07Z</time>
      </trkpt>
      <trkpt lat="49.66319" lon="-1.25682">
        <ele>5.8</ele>
        <time>2020-06-15T10:23:08Z</time>
      </trkpt>
      <trkpt lat="49.66313" lon="-1.25679">
        <ele>5.8</ele>
        <time>2020-06-15T10:23:09Z</time>
      </trkpt>
      <trkpt lat="49.66308" lon="-1.25678">
        <ele>5.7</ele>
        <time>2020-06-15T10:23:10Z</time>
      </trkpt>
      <trkpt lat="49.66302" lon="-1.25674">
        <ele>5.7</ele>
        <time>2020-06-15T10:23:11Z</time>
      </trkpt>
      <trkpt lat="49.66298" lon="-1.25672">
        <ele>5.7</ele>
        <time>2020-06-15T10:23:12Z</time>
      </trkpt>
      <trkpt lat="49.66292" lon="-1.25669">
        <ele>5.6</ele>
        <time>2020-06-15T10:23:13Z</time>
      </trkpt>
      <trkpt lat="49.66286" lon="-1.25664">
        <ele>5.5</ele>
        <time>2020-06-15T10:23:14Z</time>
      </trkpt>
      <trkpt lat="49.66281" lon="-1.25661">
        <ele>5.5</ele>
        <time>2020-06-15T10:23:15Z</time>
      </trkpt>
      <trkpt lat="49.66274" lon="-1.25657">
        <ele>5.4</ele>
        <time>2020-06-15T10:23:16Z</time>
      </trkpt>
      <trkpt lat="49.66268" lon="-1.25653">
        <ele>5.4</ele>
        <time>2020-06-15T10:23:17Z</time>
      </trkpt>
      <trkpt lat="49.66262" lon="-1.2565">
        <ele>5.3</ele>
        <time>2020-06-15T10:23:18Z</time>
      </trkpt>
      <trkpt lat="49.66257" lon="-1.25647">
        <ele>5.3</ele>
        <time>2020-06-15T10:23:19Z</time>
      </trkpt>
      <trkpt lat="49.66251" lon="-1.25644">
        <ele>5.2</ele>
        <time>2020-06-15T10:23:20Z</time>
      </trkpt>
      <trkpt lat="49.66246" lon="-1.25642">
        <ele>5.1</ele>
        <time>2020-06-15T10:23:21Z</time>
      </trkpt>
      <trkpt lat="49.6624" lon="-1.25638">
        <ele>5</ele>
        <time>2020-06-15T10:23:22Z</time>
      </trkpt>
      <trkpt lat="49.66233" lon="-1.25633">
        <ele>4.9</ele>
        <time>2020-06-15T10:23:23Z</time>
      </trkpt>
      <trkpt lat="49.66227" lon="-1.25629">
        <ele>4.8</ele>
        <time>2020-06-15T10:23:24Z</time>
      </trkpt>
      <trkpt lat="49.6622" lon="-1.25625">
        <ele>4.6</ele>
        <time>2020-06-15T10:23:25Z</time>
      </trkpt>
      <trkpt lat="49.66213" lon="-1.2562">
        <ele>4.5</ele>
        <time>2020-06-15T10:23:26Z</time>
      </trkpt>
      <trkpt lat="49.66206" lon="-1.25616">
        <ele>4.3</ele>
        <time>2020-06-15T10:23:27Z</time>
      </trkpt>
      <trkpt lat="49.66199" lon="-1.25612">
        <ele>4.1</ele>
        <time>2020-06-15T10:23:28Z</time>
      </trkpt>
      <trkpt lat="49.66192" lon="-1.25609">
        <ele>4</ele>
        <time>2020-06-15T10:23:29Z</time>
      </trkpt>
      <trkpt lat="49.66185" lon="-1.25606">
        <ele>3.9</ele>
        <time>2020-06-15T10:23:30Z</time>
      </trkpt>
      <trkpt lat="49.66178" lon="-1.25603">
        <ele>3.7</ele>
        <time>2020-06-15T10:23:31Z</time>
      </trkpt>
      <trkpt lat="49.66172" lon="-1.256">
        <ele>3.7</ele>
        <time>2020-06-15T10:23:32Z</time>
      </trkpt>
      <trkpt lat="49.66165" lon="-1.25597">
        <ele>3.6</ele>
        <time>2020-06-15T10:23:33Z</time>
      </trkpt>
      <trkpt lat="49.66157" lon="-1.25594">
        <ele>3.7</ele>
        <time>2020-06-15T10:23:34Z</time>
      </trkpt>
      <trkpt lat="49.6615" lon="-1.25591">
        <ele>3.7</ele>
        <time>2020-06-15T10:23:35Z</time>
      </trkpt>
      <trkpt lat="49.66143" lon="-1.25588">
        <ele>3.6</ele>
        <time>2020-06-15T10:23:36Z</time>
      </trkpt>
      <trkpt lat="49.66136" lon="-1.25586">
        <ele>3.6</ele>
        <time>2020-06-15T10:23:37Z</time>
      </trkpt>
      <trkpt lat="49.6613" lon="-1.25583">
        <ele>3.6</ele>
        <time>2020-06-15T10:23:38Z</time>
      </trkpt>
      <trkpt lat="49.66123" lon="-1.25581">
        <ele>3.7</ele>
        <time>2020-06-15T10:23:39Z</time>
      </trkpt>
      <trkpt lat="49.66117" lon="-1.25578">
        <ele>3.7</ele>
        <time>2020-06-15T10:23:40Z</time>
      </trkpt>
      <trkpt lat="49.6611" lon="-1.25576">
        <ele>3.8</ele>
        <time>2020-06-15T10:23:41Z</time>
      </trkpt>
      <trkpt lat="49.66104" lon="-1.25573">
        <ele>3.8</ele>
        <time>2020-06-15T10:23:42Z</time>
      </trkpt>
      <trkpt lat="49.66097" lon="-1.25571">
        <ele>3.9</ele>
        <time>2020-06-15T10:23:43Z</time>
      </trkpt>
      <trkpt lat="49.66091" lon="-1.25568">
        <ele>3.9</ele>
        <time>2020-06-15T10:23:44Z</time>
      </trkpt>
      <trkpt lat="49.66085" lon="-1.25564">
        <ele>4</ele>
        <time>2020-06-15T10:23:45Z</time>
      </trkpt>
      <trkpt lat="49.66079" lon="-1.25561">
        <ele>4</ele>
        <time>2020-06-15T10:23:46Z</time>
      </trkpt>
      <trkpt lat="49.66074" lon="-1.25559">
        <ele>4.1</ele>
        <time>2020-06-15T10:23:47Z</time>
      </trkpt>
      <trkpt lat="49.66068" lon="-1.25554">
        <ele>4.1</ele>
        <time>2020-06-15T10:23:48Z</time>
      </trkpt>
      <trkpt lat="49.66062" lon="-1.25552">
        <ele>4.2</ele>
        <time>2020-06-15T10:23:49Z</time>
      </trkpt>
      <trkpt lat="49.66056" lon="-1.25546">
        <ele>4.2</ele>
        <time>2020-06-15T10:23:50Z</time>
      </trkpt>
      <trkpt lat="49.66049" lon="-1.25542">
        <ele>4.3</ele>
        <time>2020-06-15T10:23:51Z</time>
      </trkpt>
      <trkpt lat="49.66043" lon="-1.25538">
        <ele>4.3</ele>
        <time>2020-06-15T10:23:52Z</time>
      </trkpt>
      <trkpt lat="49.66038" lon="-1.25533">
        <ele>4.3</ele>
        <time>2020-06-15T10:23:53Z</time>
      </trkpt>
      <trkpt lat="49.66032" lon="-1.2553">
        <ele>4.3</ele>
        <time>2020-06-15T10:23:54Z</time>
      </trkpt>
      <trkpt lat="49.66026" lon="-1.25526">
        <ele>4.4</ele>
        <time>2020-06-15T10:23:55Z</time>
      </trkpt>
      <trkpt lat="49.6602" lon="-1.25522">
        <ele>4.4</ele>
        <time>2020-06-15T10:23:56Z</time>
      </trkpt>
      <trkpt lat="49.66014" lon="-1.25518">
        <ele>4.5</ele>
        <time>2020-06-15T10:23:57Z</time>
      </trkpt>
      <trkpt lat="49.66009" lon="-1.25513">
        <ele>4.6</ele>
        <time>2020-06-15T10:23:58Z</time>
      </trkpt>
      <trkpt lat="49.66003" lon="-1.25508">
        <ele>4.7</ele>
        <time>2020-06-15T10:23:59Z</time>
      </trkpt>
      <trkpt lat="49.65998" lon="-1.25504">
        <ele>4.8</ele>
        <time>2020-06-15T10:24:00Z</time>
      </trkpt>
      <trkpt lat="49.65992" lon="-1.255">
        <ele>4.8</ele>
        <time>2020-06-15T10:24:01Z</time>
      </trkpt>
      <trkpt lat="49.65986" lon="-1.25496">
        <ele>4.8</ele>
        <time>2020-06-15T10:24:02Z</time>
      </trkpt>
      <trkpt lat="49.6598" lon="-1.25491">
        <ele>4.9</ele>
        <time>2020-06-15T10:24:03Z</time>
      </trkpt>
      <trkpt lat="49.65974" lon="-1.25486">
        <ele>4.9</ele>
        <time>2020-06-15T10:24:04Z</time>
      </trkpt>
      <trkpt lat="49.65969" lon="-1.25481">
        <ele>4.9</ele>
        <time>2020-06-15T10:24:05Z</time>
      </trkpt>
      <trkpt lat="49.65963" lon="-1.25476">
        <ele>5</ele>
        <time>2020-06-15T10:24:06Z</time>
      </trkpt>
      <trkpt lat="49.65958" lon="-1.25471">
        <ele>5.1</ele>
        <time>2020-06-15T10:24:07Z</time>
      </trkpt>
      <trkpt lat="49.65953" lon="-1.25465">
        <ele>5.1</ele>
        <time>2020-06-15T10:24:08Z</time>
      </trkpt>
      <trkpt lat="49.65948" lon="-1.25458">
        <ele>5.1</ele>
        <time>2020-06-15T10:24:09Z</time>
      </trkpt>
      <trkpt lat="49.65942" lon="-1.25452">
        <ele>5.2</ele>
        <time>2020-06-15T10:24:10Z</time>
      </trkpt>
      <trkpt lat="49.65937" lon="-1.25445">
        <ele>5.3</ele>
        <time>2020-06-15T10:24:11Z</time>
      </trkpt>
      <trkpt lat="49.65932" lon="-1.25439">
        <ele>5.4</ele>
        <time>2020-06-15T10:24:12Z</time>
      </trkpt>
      <trkpt lat="49.65927" lon="-1.25432">
        <ele>5.5</ele>
        <time>2020-06-15T10:24:13Z</time>
      </trkpt>
      <trkpt lat="49.65923" lon="-1.25424">
        <ele>5.6</ele>
        <time>2020-06-15T10:24:14Z</time>
      </trkpt>
      <trkpt lat="49.65918" lon="-1.25418">
        <ele>5.6</ele>
        <time>2020-06-15T10:24:15Z</time>
      </trkpt>
      <trkpt lat="49.65914" lon="-1.25411">
        <ele>5.6</ele>
        <time>2020-06-15T10:24:16Z</time>
      </trkpt>
      <trkpt lat="49.6591" lon="-1.25403">
        <ele>5.7</ele>
        <time>2020-06-15T10:24:17Z</time>
      </trkpt>
      <trkpt lat="49.65905" lon="-1.25395">
        <ele>5.7</ele>
        <time>2020-06-15T10:24:18Z</time>
      </trkpt>
      <trkpt lat="49.65901" lon="-1.25387">
        <ele>5.7</ele>
        <time>2020-06-15T10:24:19Z</time>
      </trkpt>
      <trkpt lat="49.65898" lon="-1.2538">
        <ele>5.8</ele>
        <time>2020-06-15T10:24:20Z</time>
      </trkpt>
      <trkpt lat="49.65895" lon="-1.25371">
        <ele>5.8</ele>
        <time>2020-06-15T10:24:21Z</time>
      </trkpt>
      <trkpt lat="49.65891" lon="-1.25363">
        <ele>5.8</ele>
        <time>2020-06-15T10:24:22Z</time>
      </trkpt>
      <trkpt lat="49.65888" lon="-1.25355">
        <ele>5.8</ele>
        <time>2020-06-15T10:24:23Z</time>
      </trkpt>
      <trkpt lat="49.65885" lon="-1.25345">
        <ele>5.9</ele>
        <time>2020-06-15T10:24:24Z</time>
      </trkpt>
      <trkpt lat="49.65882" lon="-1.25335">
        <ele>5.9</ele>
        <time>2020-06-15T10:24:25Z</time>
      </trkpt>
      <trkpt lat="49.6588" lon="-1.25326">
        <ele>5.9</ele>
        <time>2020-06-15T10:24:26Z</time>
      </trkpt>
      <trkpt lat="49.65877" lon="-1.25317">
        <ele>5.9</ele>
        <time>2020-06-15T10:24:27Z</time>
      </trkpt>
      <trkpt lat="49.65875" lon="-1.25307">
        <ele>5.9</ele>
        <time>2020-06-15T10:24:28Z</time>
      </trkpt>
      <trkpt lat="49.65873" lon="-1.25298">
        <ele>5.9</ele>
        <time>2020-06-15T10:24:29Z</time>
      </trkpt>
      <trkpt lat="49.6587" lon="-1.25289">
        <ele>5.8</ele>
        <time>2020-06-15T10:24:30Z</time>
      </trkpt>
      <trkpt lat="49.65868" lon="-1.2528">
        <ele>5.8</ele>
        <time>2020-06-15T10:24:31Z</time>
      </trkpt>
      <trkpt lat="49.65866" lon="-1.2527">
        <ele>5.7</ele>
        <time>2020-06-15T10:24:32Z</time>
      </trkpt>
      <trkpt lat="49.65863" lon="-1.25261">
        <ele>5.7</ele>
        <time>2020-06-15T10:24:33Z</time>
      </trkpt>
      <trkpt lat="49.6586" lon="-1.2525">
        <ele>5.6</ele>
        <time>2020-06-15T10:24:34Z</time>
      </trkpt>
      <trkpt lat="49.65858" lon="-1.2524">
        <ele>5.6</ele>
        <time>2020-06-15T10:24:35Z</time>
      </trkpt>
      <trkpt lat="49.65855" lon="-1.2523">
        <ele>5.5</ele>
        <time>2020-06-15T10:24:36Z</time>
      </trkpt>
      <trkpt lat="49.65853" lon="-1.2522">
        <ele>5.5</ele>
        <time>2020-06-15T10:24:37Z</time>
      </trkpt>
      <trkpt lat="49.65851" lon="-1.25211">
        <ele>5.5</ele>
        <time>2020-06-15T10:24:38Z</time>
      </trkpt>
      <trkpt lat="49.65849" lon="-1.25201">
        <ele>5.5</ele>
        <time>2020-06-15T10:24:39Z</time>
      </trkpt>
      <trkpt lat="49.65846" lon="-1.25191">
        <ele>5.4</ele>
        <time>2020-06-15T10:24:40Z</time>
      </trkpt>
      <trkpt lat="49.65844" lon="-1.25181">
        <ele>5.3</ele>
        <time>2020-06-15T10:24:41Z</time>
      </trkpt>
      <trkpt lat="49.65841" lon="-1.25172">
        <ele>5.2</ele>
        <time>2020-06-15T10:24:42Z</time>
      </trkpt>
      <trkpt lat="49.65838" lon="-1.25162">
        <ele>5.1</ele>
        <time>2020-06-15T10:24:43Z</time>
      </trkpt>
      <trkpt lat="49.65836" lon="-1.25153">
        <ele>5</ele>
        <time>2020-06-15T10:24:44Z</time>
      </trkpt>
      <trkpt lat="49.65833" lon="-1.25142">
        <ele>4.9</ele>
        <time>2020-06-15T10:24:45Z</time>
      </trkpt>
      <trkpt lat="49.65831" lon="-1.25133">
        <ele>4.8</ele>
        <time>2020-06-15T10:24:46Z</time>
      </trkpt>
      <trkpt lat="49.65829" lon="-1.25123">
        <ele>4.7</ele>
        <time>2020-06-15T10:24:47Z</time>
      </trkpt>
      <trkpt lat="49.65826" lon="-1.25114">
        <ele>4.6</ele>
        <time>2020-06-15T10:24:48Z</time>
      </trkpt>
      <trkpt lat="49.65824" lon="-1.25104">
        <ele>4.5</ele>
        <time>2020-06-15T10:24:49Z</time>
      </trkpt>
      <trkpt lat="49.65822" lon="-1.25094">
        <ele>4.4</ele>
        <time>2020-06-15T10:24:50Z</time>
      </trkpt>
      <trkpt lat="49.6582" lon="-1.25085">
        <ele>4.3</ele>
        <time>2020-06-15T10:24:51Z</time>
      </trkpt>
      <trkpt lat="49.65817" lon="-1.25077">
        <ele>4.2</ele>
        <time>2020-06-15T10:24:52Z</time>
      </trkpt>
      <trkpt lat="49.65814" lon="-1.25068">
        <ele>4.1</ele>
        <time>2020-06-15T10:24:53Z</time>
      </trkpt>
      <trkpt lat="49.65812" lon="-1.25058">
        <ele>4.1</ele>
        <time>2020-06-15T10:24:54Z</time>
      </trkpt>
      <trkpt lat="49.65808" lon="-1.25049">
        <ele>4</ele>
        <time>2020-06-15T10:24:55Z</time>
      </trkpt>
      <trkpt lat="49.65804" lon="-1.2504">
        <ele>4</ele>
        <time>2020-06-15T10:24:56Z</time>
      </trkpt>
      <trkpt lat="49.65799" lon="-1.25032">
        <ele>4</ele>
        <time>2020-06-15T10:24:57Z</time>
      </trkpt>
      <trkpt lat="49.65795" lon="-1.25024">
        <ele>3.9</ele>
        <time>2020-06-15T10:24:58Z</time>
      </trkpt>
      <trkpt lat="49.65791" lon="-1.25015">
        <ele>3.9</ele>
        <time>2020-06-15T10:24:59Z</time>
      </trkpt>
      <trkpt lat="49.65786" lon="-1.25007">
        <ele>4</ele>
        <time>2020-06-15T10:25:00Z</time>
      </trkpt>
      <trkpt lat="49.65782" lon="-1.25">
        <ele>4</ele>
        <time>2020-06-15T10:25:01Z</time>
      </trkpt>
      <trkpt lat="49.65777" lon="-1.24992">
        <ele>4</ele>
        <time>2020-06-15T10:25:02Z</time>
      </trkpt>
      <trkpt lat="49.65771" lon="-1.24984">
        <ele>4.1</ele>
        <time>2020-06-15T10:25:03Z</time>
      </trkpt>
      <trkpt lat="49.65766" lon="-1.24977">
        <ele>4.2</ele>
        <time>2020-06-15T10:25:04Z</time>
      </trkpt>
      <trkpt lat="49.65761" lon="-1.2497">
        <ele>4.3</ele>
        <time>2020-06-15T10:25:05Z</time>
      </trkpt>
      <trkpt lat="49.65756" lon="-1.24964">
        <ele>4.5</ele>
        <time>2020-06-15T10:25:06Z</time>
      </trkpt>
      <trkpt lat="49.6575" lon="-1.24958">
        <ele>4.7</ele>
        <time>2020-06-15T10:25:07Z</time>
      </trkpt>
      <trkpt lat="49.65744" lon="-1.24952">
        <ele>4.9</ele>
        <time>2020-06-15T10:25:08Z</time>
      </trkpt>
      <trkpt lat="49.65739" lon="-1.24946">
        <ele>5.1</ele>
        <time>2020-06-15T10:25:09Z</time>
      </trkpt>
      <trkpt lat="49.65734" lon="-1.24942">
        <ele>5.2</ele>
        <time>2020-06-15T10:25:10Z</time>
      </trkpt>
      <trkpt lat="49.65729" lon="-1.24937">
        <ele>5.2</ele>
        <time>2020-06-15T10:25:11Z</time>
      </trkpt>
      <trkpt lat="49.65724" lon="-1.24933">
        <ele>5.3</ele>
        <time>2020-06-15T10:25:12Z</time>
      </trkpt>
      <trkpt lat="49.65719" lon="-1.24929">
        <ele>5.4</ele>
        <time>2020-06-15T10:25:13Z</time>
      </trkpt>
      <trkpt lat="49.65714" lon="-1.24925">
        <ele>5.5</ele>
        <time>2020-06-15T10:25:14Z</time>
      </trkpt>
      <trkpt lat="49.65709" lon="-1.24921">
        <ele>5.6</ele>
        <time>2020-06-15T10:25:15Z</time>
      </trkpt>
      <trkpt lat="49.65703" lon="-1.24918">
        <ele>5.7</ele>
        <time>2020-06-15T10:25:16Z</time>
      </trkpt>
      <trkpt lat="49.65698" lon="-1.24916">
        <ele>5.8</ele>
        <time>2020-06-15T10:25:17Z</time>
      </trkpt>
      <trkpt lat="49.65693" lon="-1.24912">
        <ele>5.9</ele>
        <time>2020-06-15T10:25:18Z</time>
      </trkpt>
      <trkpt lat="49.65687" lon="-1.2491">
        <ele>5.9</ele>
        <time>2020-06-15T10:25:19Z</time>
      </trkpt>
      <trkpt lat="49.65681" lon="-1.24907">
        <ele>6</ele>
        <time>2020-06-15T10:25:20Z</time>
      </trkpt>
      <trkpt lat="49.65676" lon="-1.24905">
        <ele>6.1</ele>
        <time>2020-06-15T10:25:21Z</time>
      </trkpt>
      <trkpt lat="49.6567" lon="-1.24903">
        <ele>6.2</ele>
        <time>2020-06-15T10:25:22Z</time>
      </trkpt>
      <trkpt lat="49.65664" lon="-1.24903">
        <ele>6.2</ele>
        <time>2020-06-15T10:25:23Z</time>
      </trkpt>
      <trkpt lat="49.65658" lon="-1.24902">
        <ele>6.3</ele>
        <time>2020-06-15T10:25:24Z</time>
      </trkpt>
      <trkpt lat="49.65653" lon="-1.249">
        <ele>6.2</ele>
        <time>2020-06-15T10:25:25Z</time>
      </trkpt>
      <trkpt lat="49.65647" lon="-1.24898">
        <ele>6.2</ele>
        <time>2020-06-15T10:25:26Z</time>
      </trkpt>
      <trkpt lat="49.6564" lon="-1.24899">
        <ele>6.2</ele>
        <time>2020-06-15T10:25:27Z</time>
      </trkpt>
      <trkpt lat="49.65634" lon="-1.24898">
        <ele>6.1</ele>
        <time>2020-06-15T10:25:28Z</time>
      </trkpt>
      <trkpt lat="49.65627" lon="-1.24896">
        <ele>6</ele>
        <time>2020-06-15T10:25:29Z</time>
      </trkpt>
      <trkpt lat="49.65621" lon="-1.24894">
        <ele>5.9</ele>
        <time>2020-06-15T10:25:30Z</time>
      </trkpt>
      <trkpt lat="49.65615" lon="-1.24893">
        <ele>5.9</ele>
        <time>2020-06-15T10:25:31Z</time>
      </trkpt>
      <trkpt lat="49.65609" lon="-1.24891">
        <ele>5.9</ele>
        <time>2020-06-15T10:25:32Z</time>
      </trkpt>
      <trkpt lat="49.65602" lon="-1.24889">
        <ele>6</ele>
        <time>2020-06-15T10:25:33Z</time>
      </trkpt>
      <trkpt lat="49.65595" lon="-1.24886">
        <ele>6</ele>
        <time>2020-06-15T10:25:34Z</time>
      </trkpt>
      <trkpt lat="49.65589" lon="-1.24882">
        <ele>6</ele>
        <time>2020-06-15T10:25:35Z</time>
      </trkpt>
      <trkpt lat="49.65582" lon="-1.24879">
        <ele>5.8</ele>
        <time>2020-06-15T10:25:36Z</time>
      </trkpt>
      <trkpt lat="49.65575" lon="-1.24875">
        <ele>5.7</ele>
        <time>2020-06-15T10:25:37Z</time>
      </trkpt>
      <trkpt lat="49.65569" lon="-1.24873">
        <ele>5.5</ele>
        <time>2020-06-15T10:25:38Z</time>
      </trkpt>
      <trkpt lat="49.65563" lon="-1.2487">
        <ele>5.4</ele>
        <time>2020-06-15T10:25:39Z</time>
      </trkpt>
      <trkpt lat="49.65556" lon="-1.24866">
        <ele>5.2</ele>
        <time>2020-06-15T10:25:40Z</time>
      </trkpt>
      <trkpt lat="49.65549" lon="-1.24862">
        <ele>5.1</ele>
        <time>2020-06-15T10:25:41Z</time>
      </trkpt>
      <trkpt lat="49.65542" lon="-1.24858">
        <ele>5</ele>
        <time>2020-06-15T10:25:42Z</time>
      </trkpt>
      <trkpt lat="49.65535" lon="-1.24853">
        <ele>5</ele>
        <time>2020-06-15T10:25:43Z</time>
      </trkpt>
      <trkpt lat="49.65529" lon="-1.2485">
        <ele>5</ele>
        <time>2020-06-15T10:25:44Z</time>
      </trkpt>
      <trkpt lat="49.65522" lon="-1.24846">
        <ele>5</ele>
        <time>2020-06-15T10:25:45Z</time>
      </trkpt>
      <trkpt lat="49.65515" lon="-1.24842">
        <ele>5</ele>
        <time>2020-06-15T10:25:46Z</time>
      </trkpt>
      <trkpt lat="49.65508" lon="-1.24838">
        <ele>5</ele>
        <time>2020-06-15T10:25:47Z</time>
      </trkpt>
      <trkpt lat="49.65501" lon="-1.24835">
        <ele>5</ele>
        <time>2020-06-15T10:25:48Z</time>
      </trkpt>
      <trkpt lat="49.65495" lon="-1.24831">
        <ele>5</ele>
        <time>2020-06-15T10:25:49Z</time>
      </trkpt>
      <trkpt lat="49.65488" lon="-1.24828">
        <ele>5</ele>
        <time>2020-06-15T10:25:50Z</time>
      </trkpt>
      <trkpt lat="49.65481" lon="-1.24825">
        <ele>4.9</ele>
        <time>2020-06-15T10:25:51Z</time>
      </trkpt>
      <trkpt lat="49.65474" lon="-1.24823">
        <ele>4.9</ele>
        <time>2020-06-15T10:25:52Z</time>
      </trkpt>
      <trkpt lat="49.65467" lon="-1.24821">
        <ele>4.9</ele>
        <time>2020-06-15T10:25:53Z</time>
      </trkpt>
      <trkpt lat="49.65461" lon="-1.24819">
        <ele>4.9</ele>
        <time>2020-06-15T10:25:54Z</time>
      </trkpt>
      <trkpt lat="49.65454" lon="-1.24819">
        <ele>5</ele>
        <time>2020-06-15T10:25:55Z</time>
      </trkpt>
      <trkpt lat="49.65447" lon="-1.24816">
        <ele>5.1</ele>
        <time>2020-06-15T10:25:56Z</time>
      </trkpt>
      <trkpt lat="49.65441" lon="-1.24813">
        <ele>5.1</ele>
        <time>2020-06-15T10:25:57Z</time>
      </trkpt>
      <trkpt lat="49.65434" lon="-1.24811">
        <ele>5.2</ele>
        <time>2020-06-15T10:25:58Z</time>
      </trkpt>
      <trkpt lat="49.65428" lon="-1.24808">
        <ele>5.3</ele>
        <time>2020-06-15T10:25:59Z</time>
      </trkpt>
      <trkpt lat="49.65421" lon="-1.24806">
        <ele>5.4</ele>
        <time>2020-06-15T10:26:00Z</time>
      </trkpt>
      <trkpt lat="49.65416" lon="-1.24802">
        <ele>5.5</ele>
        <time>2020-06-15T10:26:01Z</time>
      </trkpt>
      <trkpt lat="49.6541" lon="-1.24798">
        <ele>5.6</ele>
        <time>2020-06-15T10:26:02Z</time>
      </trkpt>
      <trkpt lat="49.65404" lon="-1.24795">
        <ele>5.7</ele>
        <time>2020-06-15T10:26:03Z</time>
      </trkpt>
      <trkpt lat="49.65399" lon="-1.2479">
        <ele>5.8</ele>
        <time>2020-06-15T10:26:04Z</time>
      </trkpt>
      <trkpt lat="49.65393" lon="-1.24786">
        <ele>5.9</ele>
        <time>2020-06-15T10:26:05Z</time>
      </trkpt>
      <trkpt lat="49.65387" lon="-1.24782">
        <ele>5.9</ele>
        <time>2020-06-15T10:26:06Z</time>
      </trkpt>
      <trkpt lat="49.65381" lon="-1.24779">
        <ele>6</ele>
        <time>2020-06-15T10:26:07Z</time>
      </trkpt>
      <trkpt lat="49.65376" lon="-1.24774">
        <ele>6</ele>
        <time>2020-06-15T10:26:08Z</time>
      </trkpt>
      <trkpt lat="49.6537" lon="-1.24771">
        <ele>6</ele>
        <time>2020-06-15T10:26:09Z</time>
      </trkpt>
      <trkpt lat="49.65364" lon="-1.24767">
        <ele>6</ele>
        <time>2020-06-15T10:26:10Z</time>
      </trkpt>
      <trkpt lat="49.65358" lon="-1.24764">
        <ele>5.9</ele>
        <time>2020-06-15T10:26:11Z</time>
      </trkpt>
      <trkpt lat="49.65352" lon="-1.24761">
        <ele>5.9</ele>
        <time>2020-06-15T10:26:12Z</time>
      </trkpt>
      <trkpt lat="49.65346" lon="-1.24758">
        <ele>5.9</ele>
        <time>2020-06-15T10:26:13Z</time>
      </trkpt>
      <trkpt lat="49.6534" lon="-1.24754">
        <ele>5.8</ele>
        <time>2020-06-15T10:26:14Z</time>
      </trkpt>
      <trkpt lat="49.65334" lon="-1.2475">
        <ele>5.8</ele>
        <time>2020-06-15T10:26:15Z</time>
      </trkpt>
      <trkpt lat="49.65328" lon="-1.24746">
        <ele>5.7</ele>
        <time>2020-06-15T10:26:16Z</time>
      </trkpt>
      <trkpt lat="49.65322" lon="-1.24742">
        <ele>5.7</ele>
        <time>2020-06-15T10:26:17Z</time>
      </trkpt>
      <trkpt lat="49.65316" lon="-1.24738">
        <ele>5.6</ele>
        <time>2020-06-15T10:26:18Z</time>
      </trkpt>
      <trkpt lat="49.6531" lon="-1.24733">
        <ele>5.5</ele>
        <time>2020-06-15T10:26:19Z</time>
      </trkpt>
      <trkpt lat="49.65303" lon="-1.24728">
        <ele>5.4</ele>
        <time>2020-06-15T10:26:20Z</time>
      </trkpt>
      <trkpt lat="49.65297" lon="-1.24723">
        <ele>5.3</ele>
        <time>2020-06-15T10:26:21Z</time>
      </trkpt>
      <trkpt lat="49.6529" lon="-1.24718">
        <ele>5.2</ele>
        <time>2020-06-15T10:26:22Z</time>
      </trkpt>
      <trkpt lat="49.65283" lon="-1.24713">
        <ele>5.1</ele>
        <time>2020-06-15T10:26:23Z</time>
      </trkpt>
      <trkpt lat="49.65276" lon="-1.24708">
        <ele>5</ele>
        <time>2020-06-15T10:26:24Z</time>
      </trkpt>
      <trkpt lat="49.65269" lon="-1.24702">
        <ele>4.9</ele>
        <time>2020-06-15T10:26:25Z</time>
      </trkpt>
      <trkpt lat="49.65262" lon="-1.24697">
        <ele>4.8</ele>
        <time>2020-06-15T10:26:26Z</time>
      </trkpt>
      <trkpt lat="49.65255" lon="-1.24692">
        <ele>4.8</ele>
        <time>2020-06-15T10:26:27Z</time>
      </trkpt>
      <trkpt lat="49.65248" lon="-1.24687">
        <ele>4.7</ele>
        <time>2020-06-15T10:26:28Z</time>
      </trkpt>
      <trkpt lat="49.65241" lon="-1.24683">
        <ele>4.8</ele>
        <time>2020-06-15T10:26:29Z</time>
      </trkpt>
      <trkpt lat="49.65234" lon="-1.24678">
        <ele>4.8</ele>
        <time>2020-06-15T10:26:30Z</time>
      </trkpt>
      <trkpt lat="49.65227" lon="-1.24673">
        <ele>4.8</ele>
        <time>2020-06-15T10:26:31Z</time>
      </trkpt>
      <trkpt lat="49.6522" lon="-1.24669">
        <ele>4.8</ele>
        <time>2020-06-15T10:26:32Z</time>
      </trkpt>
      <trkpt lat="49.65212" lon="-1.24665">
        <ele>4.9</ele>
        <time>2020-06-15T10:26:33Z</time>
      </trkpt>
      <trkpt lat="49.65205" lon="-1.24661">
        <ele>4.9</ele>
        <time>2020-06-15T10:26:34Z</time>
      </trkpt>
      <trkpt lat="49.65199" lon="-1.24657">
        <ele>4.9</ele>
        <time>2020-06-15T10:26:35Z</time>
      </trkpt>
      <trkpt lat="49.65192" lon="-1.24652">
        <ele>5</ele>
        <time>2020-06-15T10:26:36Z</time>
      </trkpt>
      <trkpt lat="49.65186" lon="-1.24646">
        <ele>5</ele>
        <time>2020-06-15T10:26:37Z</time>
      </trkpt>
      <trkpt lat="49.6518" lon="-1.24641">
        <ele>5</ele>
        <time>2020-06-15T10:26:38Z</time>
      </trkpt>
      <trkpt lat="49.65174" lon="-1.24635">
        <ele>5</ele>
        <time>2020-06-15T10:26:39Z</time>
      </trkpt>
      <trkpt lat="49.65168" lon="-1.2463">
        <ele>5</ele>
        <time>2020-06-15T10:26:40Z</time>
      </trkpt>
      <trkpt lat="49.65162" lon="-1.24625">
        <ele>5</ele>
        <time>2020-06-15T10:26:41Z</time>
      </trkpt>
      <trkpt lat="49.65156" lon="-1.24619">
        <ele>4.9</ele>
        <time>2020-06-15T10:26:42Z</time>
      </trkpt>
      <trkpt lat="49.6515" lon="-1.24614">
        <ele>4.9</ele>
        <time>2020-06-15T10:26:43Z</time>
      </trkpt>
      <trkpt lat="49.65144" lon="-1.24608">
        <ele>4.9</ele>
        <time>2020-06-15T10:26:44Z</time>
      </trkpt>
      <trkpt lat="49.65139" lon="-1.24602">
        <ele>4.9</ele>
        <time>2020-06-15T10:26:45Z</time>
      </trkpt>
      <trkpt lat="49.65133" lon="-1.24598">
        <ele>4.8</ele>
        <time>2020-06-15T10:26:46Z</time>
      </trkpt>
      <trkpt lat="49.65127" lon="-1.24592">
        <ele>4.8</ele>
        <time>2020-06-15T10:26:47Z</time>
      </trkpt>
      <trkpt lat="49.65121" lon="-1.24585">
        <ele>4.7</ele>
        <time>2020-06-15T10:26:48Z</time>
      </trkpt>
      <trkpt lat="49.65115" lon="-1.2458">
        <ele>4.7</ele>
        <time>2020-06-15T10:26:49Z</time>
      </trkpt>
      <trkpt lat="49.65109" lon="-1.24574">
        <ele>4.6</ele>
        <time>2020-06-15T10:26:50Z</time>
      </trkpt>
      <trkpt lat="49.65103" lon="-1.24568">
        <ele>4.6</ele>
        <time>2020-06-15T10:26:51Z</time>
      </trkpt>
      <trkpt lat="49.65097" lon="-1.2456">
        <ele>4.5</ele>
        <time>2020-06-15T10:26:52Z</time>
      </trkpt>
      <trkpt lat="49.65091" lon="-1.24554">
        <ele>4.5</ele>
        <time>2020-06-15T10:26:53Z</time>
      </trkpt>
      <trkpt lat="49.65085" lon="-1.24548">
        <ele>4.5</ele>
        <time>2020-06-15T10:26:54Z</time>
      </trkpt>
      <trkpt lat="49.65079" lon="-1.24542">
        <ele>4.5</ele>
        <time>2020-06-15T10:26:55Z</time>
      </trkpt>
      <trkpt lat="49.65072" lon="-1.24536">
        <ele>4.5</ele>
        <time>2020-06-15T10:26:56Z</time>
      </trkpt>
      <trkpt lat="49.65065" lon="-1.24533">
        <ele>4.5</ele>
        <time>2020-06-15T10:26:57Z</time>
      </trkpt>
      <trkpt lat="49.65059" lon="-1.24528">
        <ele>4.5</ele>
        <time>2020-06-15T10:26:58Z</time>
      </trkpt>
      <trkpt lat="49.65053" lon="-1.24525">
        <ele>4.5</ele>
        <time>2020-06-15T10:26:59Z</time>
      </trkpt>
      <trkpt lat="49.65047" lon="-1.2452">
        <ele>4.6</ele>
        <time>2020-06-15T10:27:00Z</time>
      </trkpt>
      <trkpt lat="49.6504" lon="-1.24517">
        <ele>4.7</ele>
        <time>2020-06-15T10:27:01Z</time>
      </trkpt>
      <trkpt lat="49.65034" lon="-1.24514">
        <ele>4.8</ele>
        <time>2020-06-15T10:27:02Z</time>
      </trkpt>
      <trkpt lat="49.65029" lon="-1.24508">
        <ele>4.9</ele>
        <time>2020-06-15T10:27:03Z</time>
      </trkpt>
      <trkpt lat="49.65022" lon="-1.24507">
        <ele>5</ele>
        <time>2020-06-15T10:27:04Z</time>
      </trkpt>
      <trkpt lat="49.65016" lon="-1.24504">
        <ele>5.1</ele>
        <time>2020-06-15T10:27:05Z</time>
      </trkpt>
      <trkpt lat="49.6501" lon="-1.245">
        <ele>5.3</ele>
        <time>2020-06-15T10:27:06Z</time>
      </trkpt>
      <trkpt lat="49.65004" lon="-1.24497">
        <ele>5.5</ele>
        <time>2020-06-15T10:27:07Z</time>
      </trkpt>
      <trkpt lat="49.64999" lon="-1.24493">
        <ele>5.7</ele>
        <time>2020-06-15T10:27:08Z</time>
      </trkpt>
      <trkpt lat="49.64994" lon="-1.24489">
        <ele>5.9</ele>
        <time>2020-06-15T10:27:09Z</time>
      </trkpt>
      <trkpt lat="49.64987" lon="-1.24483">
        <ele>6.1</ele>
        <time>2020-06-15T10:27:10Z</time>
      </trkpt>
      <trkpt lat="49.64981" lon="-1.2448">
        <ele>6.3</ele>
        <time>2020-06-15T10:27:11Z</time>
      </trkpt>
      <trkpt lat="49.64975" lon="-1.24475">
        <ele>6.5</ele>
        <time>2020-06-15T10:27:12Z</time>
      </trkpt>
      <trkpt lat="49.64969" lon="-1.24471">
        <ele>6.7</ele>
        <time>2020-06-15T10:27:13Z</time>
      </trkpt>
      <trkpt lat="49.64964" lon="-1.24465">
        <ele>6.8</ele>
        <time>2020-06-15T10:27:14Z</time>
      </trkpt>
      <trkpt lat="49.64958" lon="-1.2446">
        <ele>7</ele>
        <time>2020-06-15T10:27:15Z</time>
      </trkpt>
      <trkpt lat="49.64953" lon="-1.24456">
        <ele>7.1</ele>
        <time>2020-06-15T10:27:16Z</time>
      </trkpt>
      <trkpt lat="49.64947" lon="-1.24453">
        <ele>7.2</ele>
        <time>2020-06-15T10:27:17Z</time>
      </trkpt>
      <trkpt lat="49.64942" lon="-1.24447">
        <ele>7.2</ele>
        <time>2020-06-15T10:27:18Z</time>
      </trkpt>
      <trkpt lat="49.64937" lon="-1.24445">
        <ele>7.3</ele>
        <time>2020-06-15T10:27:19Z</time>
      </trkpt>
      <trkpt lat="49.64932" lon="-1.24442">
        <ele>7.2</ele>
        <time>2020-06-15T10:27:20Z</time>
      </trkpt>
      <trkpt lat="49.64926" lon="-1.24439">
        <ele>7.1</ele>
        <time>2020-06-15T10:27:21Z</time>
      </trkpt>
      <trkpt lat="49.64923" lon="-1.24437">
        <ele>7</ele>
        <time>2020-06-15T10:27:22Z</time>
      </trkpt>
      <trkpt lat="49.64919" lon="-1.24432">
        <ele>6.9</ele>
        <time>2020-06-15T10:27:23Z</time>
      </trkpt>
      <trkpt lat="49.64914" lon="-1.24425">
        <ele>6.7</ele>
        <time>2020-06-15T10:27:24Z</time>
      </trkpt>
      <trkpt lat="49.64911" lon="-1.24417">
        <ele>6.4</ele>
        <time>2020-06-15T10:27:25Z</time>
      </trkpt>
      <trkpt lat="49.64907" lon="-1.24409">
        <ele>6.1</ele>
        <time>2020-06-15T10:27:26Z</time>
      </trkpt>
      <trkpt lat="49.64904" lon="-1.24402">
        <ele>5.8</ele>
        <time>2020-06-15T10:27:27Z</time>
      </trkpt>
      <trkpt lat="49.64901" lon="-1.24396">
        <ele>5.5</ele>
        <time>2020-06-15T10:27:28Z</time>
      </trkpt>
      <trkpt lat="49.64896" lon="-1.24389">
        <ele>5.2</ele>
        <time>2020-06-15T10:27:29Z</time>
      </trkpt>
      <trkpt lat="49.6489" lon="-1.24383">
        <ele>4.7</ele>
        <time>2020-06-15T10:27:30Z</time>
      </trkpt>
      <trkpt lat="49.64885" lon="-1.24379">
        <ele>4.4</ele>
        <time>2020-06-15T10:27:31Z</time>
      </trkpt>
      <trkpt lat="49.64879" lon="-1.24378">
        <ele>4</ele>
        <time>2020-06-15T10:27:32Z</time>
      </trkpt>
      <trkpt lat="49.64872" lon="-1.2438">
        <ele>3.6</ele>
        <time>2020-06-15T10:27:33Z</time>
      </trkpt>
      <trkpt lat="49.64865" lon="-1.24383">
        <ele>3.2</ele>
        <time>2020-06-15T10:27:34Z</time>
      </trkpt>
      <trkpt lat="49.64858" lon="-1.24385">
        <ele>2.8</ele>
        <time>2020-06-15T10:27:35Z</time>
      </trkpt>
      <trkpt lat="49.6485" lon="-1.24387">
        <ele>2.5</ele>
        <time>2020-06-15T10:27:36Z</time>
      </trkpt>
      <trkpt lat="49.64842" lon="-1.24388">
        <ele>2.2</ele>
        <time>2020-06-15T10:27:37Z</time>
      </trkpt>
      <trkpt lat="49.64835" lon="-1.24389">
        <ele>1.9</ele>
        <time>2020-06-15T10:27:38Z</time>
      </trkpt>
      <trkpt lat="49.64827" lon="-1.24389">
        <ele>1.6</ele>
        <time>2020-06-15T10:27:39Z</time>
      </trkpt>
      <trkpt lat="49.6482" lon="-1.24387">
        <ele>1.6</ele>
        <time>2020-06-15T10:27:40Z</time>
      </trkpt>
      <trkpt lat="49.64812" lon="-1.24383">
        <ele>1.6</ele>
        <time>2020-06-15T10:27:41Z</time>
      </trkpt>
      <trkpt lat="49.64806" lon="-1.24378">
        <ele>1.6</ele>
        <time>2020-06-15T10:27:42Z</time>
      </trkpt>
      <trkpt lat="49.64799" lon="-1.24374">
        <ele>1.6</ele>
        <time>2020-06-15T10:27:43Z</time>
      </trkpt>
      <trkpt lat="49.64792" lon="-1.2437">
        <ele>1.6</ele>
        <time>2020-06-15T10:27:44Z</time>
      </trkpt>
      <trkpt lat="49.64786" lon="-1.24366">
        <ele>1.6</ele>
        <time>2020-06-15T10:27:45Z</time>
      </trkpt>
      <trkpt lat="49.64779" lon="-1.24364">
        <ele>1.6</ele>
        <time>2020-06-15T10:27:46Z</time>
      </trkpt>
      <trkpt lat="49.64774" lon="-1.24363">
        <ele>1.6</ele>
        <time>2020-06-15T10:27:47Z</time>
      </trkpt>
      <trkpt lat="49.6477" lon="-1.24364">
        <ele>1.6</ele>
        <time>2020-06-15T10:27:48Z</time>
      </trkpt>
      <trkpt lat="49.64767" lon="-1.24365">
        <ele>1.6</ele>
        <time>2020-06-15T10:27:49Z</time>
      </trkpt>
      <trkpt lat="49.64764" lon="-1.24363">
        <ele>1.6</ele>
        <time>2020-06-15T10:27:50Z</time>
      </trkpt>
      <trkpt lat="49.64763" lon="-1.24362">
        <ele>1.6</ele>
        <time>2020-06-15T10:27:51Z</time>
      </trkpt>
      <trkpt lat="49.64761" lon="-1.24356">
        <ele>1.7</ele>
        <time>2020-06-15T10:27:52Z</time>
      </trkpt>
      <trkpt lat="49.64761" lon="-1.24355">
        <ele>1.7</ele>
        <time>2020-06-15T10:27:53Z</time>
      </trkpt>
      <trkpt lat="49.64758" lon="-1.2435">
        <ele>1.7</ele>
        <time>2020-06-15T10:27:54Z</time>
      </trkpt>
      <trkpt lat="49.64758" lon="-1.24348">
        <ele>1.7</ele>
        <time>2020-06-15T10:27:55Z</time>
      </trkpt>
      <trkpt lat="49.64758" lon="-1.24343">
        <ele>1.7</ele>
        <time>2020-06-15T10:27:56Z</time>
      </trkpt>
      <trkpt lat="49.64755" lon="-1.24341">
        <ele>1.7</ele>
        <time>2020-06-15T10:27:57Z</time>
      </trkpt>
      <trkpt lat="49.64753" lon="-1.24337">
        <ele>1.7</ele>
        <time>2020-06-15T10:27:58Z</time>
      </trkpt>
      <trkpt lat="49.64751" lon="-1.24335">
        <ele>1.7</ele>
        <time>2020-06-15T10:27:59Z</time>
      </trkpt>
      <trkpt lat="49.64747" lon="-1.24333">
        <ele>1.7</ele>
        <time>2020-06-15T10:28:00Z</time>
      </trkpt>
      <trkpt lat="49.64744" lon="-1.24331">
        <ele>1.7</ele>
        <time>2020-06-15T10:28:01Z</time>
      </trkpt>
      <trkpt lat="49.64741" lon="-1.24329">
        <ele>1.8</ele>
        <time>2020-06-15T10:28:02Z</time>
      </trkpt>
      <trkpt lat="49.64738" lon="-1.24326">
        <ele>1.8</ele>
        <time>2020-06-15T10:28:03Z</time>
      </trkpt>
      <trkpt lat="49.64736" lon="-1.24322">
        <ele>1.8</ele>
        <time>2020-06-15T10:28:04Z</time>
      </trkpt>
      <trkpt lat="49.64734" lon="-1.24319">
        <ele>1.8</ele>
        <time>2020-06-15T10:28:05Z</time>
      </trkpt>
      <trkpt lat="49.64731" lon="-1.24316">
        <ele>1.9</ele>
        <time>2020-06-15T10:28:06Z</time>
      </trkpt>
      <trkpt lat="49.64728" lon="-1.24314">
        <ele>1.9</ele>
        <time>2020-06-15T10:28:07Z</time>
      </trkpt>
      <trkpt lat="49.64726" lon="-1.2431">
        <ele>1.9</ele>
        <time>2020-06-15T10:28:08Z</time>
      </trkpt>
      <trkpt lat="49.64723" lon="-1.24307">
        <ele>2</ele>
        <time>2020-06-15T10:28:09Z</time>
      </trkpt>
      <trkpt lat="49.64719" lon="-1.24305">
        <ele>2</ele>
        <time>2020-06-15T10:28:10Z</time>
      </trkpt>
      <trkpt lat="49.64716" lon="-1.24302">
        <ele>2</ele>
        <time>2020-06-15T10:28:11Z</time>
      </trkpt>
      <trkpt lat="49.64712" lon="-1.24299">
        <ele>2.1</ele>
        <time>2020-06-15T10:28:12Z</time>
      </trkpt>
      <trkpt lat="49.64709" lon="-1.24296">
        <ele>2.1</ele>
        <time>2020-06-15T10:28:13Z</time>
      </trkpt>
      <trkpt lat="49.64705" lon="-1.24293">
        <ele>2.1</ele>
        <time>2020-06-15T10:28:14Z</time>
      </trkpt>
      <trkpt lat="49.64702" lon="-1.2429">
        <ele>2.1</ele>
        <time>2020-06-15T10:28:15Z</time>
      </trkpt>
      <trkpt lat="49.64698" lon="-1.24287">
        <ele>2.2</ele>
        <time>2020-06-15T10:28:16Z</time>
      </trkpt>
      <trkpt lat="49.64695" lon="-1.24283">
        <ele>2.2</ele>
        <time>2020-06-15T10:28:17Z</time>
      </trkpt>
      <trkpt lat="49.64691" lon="-1.24278">
        <ele>2.2</ele>
        <time>2020-06-15T10:28:18Z</time>
      </trkpt>
      <trkpt lat="49.64687" lon="-1.24273">
        <ele>2.3</ele>
        <time>2020-06-15T10:28:19Z</time>
      </trkpt>
      <trkpt lat="49.64684" lon="-1.24268">
        <ele>2.3</ele>
        <time>2020-06-15T10:28:20Z</time>
      </trkpt>
      <trkpt lat="49.64681" lon="-1.24265">
        <ele>2.3</ele>
        <time>2020-06-15T10:28:21Z</time>
      </trkpt>
      <trkpt lat="49.64679" lon="-1.24263">
        <ele>2.3</ele>
        <time>2020-06-15T10:28:22Z</time>
      </trkpt>
      <trkpt lat="49.64675" lon="-1.24259">
        <ele>2.4</ele>
        <time>2020-06-15T10:28:23Z</time>
      </trkpt>
      <trkpt lat="49.64672" lon="-1.24253">
        <ele>2.4</ele>
        <time>2020-06-15T10:28:24Z</time>
      </trkpt>
      <trkpt lat="49.64669" lon="-1.24249">
        <ele>2.4</ele>
        <time>2020-06-15T10:28:25Z</time>
      </trkpt>
      <trkpt lat="49.64666" lon="-1.24245">
        <ele>2.4</ele>
        <time>2020-06-15T10:28:26Z</time>
      </trkpt>
      <trkpt lat="49.64662" lon="-1.2424">
        <ele>2.4</ele>
        <time>2020-06-15T10:28:27Z</time>
      </trkpt>
      <trkpt lat="49.64659" lon="-1.24236">
        <ele>2.4</ele>
        <time>2020-06-15T10:28:28Z</time>
      </trkpt>
      <trkpt lat="49.64655" lon="-1.24231">
        <ele>2.4</ele>
        <time>2020-06-15T10:28:29Z</time>
      </trkpt>
      <trkpt lat="49.64652" lon="-1.24227">
        <ele>2.4</ele>
        <time>2020-06-15T10:28:30Z</time>
      </trkpt>
      <trkpt lat="49.64648" lon="-1.24222">
        <ele>2.3</ele>
        <time>2020-06-15T10:28:31Z</time>
      </trkpt>
      <trkpt lat="49.64644" lon="-1.24219">
        <ele>2.3</ele>
        <time>2020-06-15T10:28:32Z</time>
      </trkpt>
      <trkpt lat="49.64642" lon="-1.24216">
        <ele>2.3</ele>
        <time>2020-06-15T10:28:33Z</time>
      </trkpt>
      <trkpt lat="49.64638" lon="-1.24211">
        <ele>2.3</ele>
        <time>2020-06-15T10:28:34Z</time>
      </trkpt>
      <trkpt lat="49.64635" lon="-1.24207">
        <ele>2.2</ele>
        <time>2020-06-15T10:28:35Z</time>
      </trkpt>
      <trkpt lat="49.64631" lon="-1.24203">
        <ele>2.2</ele>
        <time>2020-06-15T10:28:36Z</time>
      </trkpt>
      <trkpt lat="49.64627" lon="-1.242">
        <ele>2.2</ele>
        <time>2020-06-15T10:28:37Z</time>
      </trkpt>
      <trkpt lat="49.64623" lon="-1.24196">
        <ele>2.3</ele>
        <time>2020-06-15T10:28:38Z</time>
      </trkpt>
      <trkpt lat="49.64618" lon="-1.24193">
        <ele>2.3</ele>
        <time>2020-06-15T10:28:39Z</time>
      </trkpt>
      <trkpt lat="49.64615" lon="-1.24192">
        <ele>2.3</ele>
        <time>2020-06-15T10:28:40Z</time>
      </trkpt>
      <trkpt lat="49.64612" lon="-1.24193">
        <ele>2.3</ele>
        <time>2020-06-15T10:28:41Z</time>
      </trkpt>
      <trkpt lat="49.64608" lon="-1.24194">
        <ele>2.3</ele>
        <time>2020-06-15T10:28:42Z</time>
      </trkpt>
      <trkpt lat="49.64603" lon="-1.24197">
        <ele>2.3</ele>
        <time>2020-06-15T10:28:43Z</time>
      </trkpt>
      <trkpt lat="49.64599" lon="-1.24198">
        <ele>2.3</ele>
        <time>2020-06-15T10:28:44Z</time>
      </trkpt>
      <trkpt lat="49.64596" lon="-1.24197">
        <ele>2.2</ele>
        <time>2020-06-15T10:28:45Z</time>
      </trkpt>
      <trkpt lat="49.64592" lon="-1.24196">
        <ele>2.2</ele>
        <time>2020-06-15T10:28:46Z</time>
      </trkpt>
      <trkpt lat="49.64589" lon="-1.24197">
        <ele>2.2</ele>
        <time>2020-06-15T10:28:47Z</time>
      </trkpt>
      <trkpt lat="49.64586" lon="-1.24199">
        <ele>2.2</ele>
        <time>2020-06-15T10:28:48Z</time>
      </trkpt>
      <trkpt lat="49.64583" lon="-1.242">
        <ele>2.2</ele>
        <time>2020-06-15T10:28:49Z</time>
      </trkpt>
      <trkpt lat="49.64579" lon="-1.24201">
        <ele>2.2</ele>
        <time>2020-06-15T10:28:50Z</time>
      </trkpt>
      <trkpt lat="49.64576" lon="-1.24201">
        <ele>2.1</ele>
        <time>2020-06-15T10:28:51Z</time>
      </trkpt>
      <trkpt lat="49.64573" lon="-1.24202">
        <ele>2.1</ele>
        <time>2020-06-15T10:28:52Z</time>
      </trkpt>
      <trkpt lat="49.64569" lon="-1.24202">
        <ele>2.1</ele>
        <time>2020-06-15T10:28:53Z</time>
      </trkpt>
      <trkpt lat="49.64566" lon="-1.24201">
        <ele>2.1</ele>
        <time>2020-06-15T10:28:54Z</time>
      </trkpt>
      <trkpt lat="49.64563" lon="-1.24201">
        <ele>2</ele>
        <time>2020-06-15T10:28:55Z</time>
      </trkpt>
      <trkpt lat="49.6456" lon="-1.24202">
        <ele>2</ele>
        <time>2020-06-15T10:28:56Z</time>
      </trkpt>
      <trkpt lat="49.64557" lon="-1.24203">
        <ele>2</ele>
        <time>2020-06-15T10:28:57Z</time>
      </trkpt>
      <trkpt lat="49.64554" lon="-1.24204">
        <ele>1.9</ele>
        <time>2020-06-15T10:28:58Z</time>
      </trkpt>
      <trkpt lat="49.6455" lon="-1.24204">
        <ele>1.9</ele>
        <time>2020-06-15T10:28:59Z</time>
      </trkpt>
      <trkpt lat="49.64547" lon="-1.24204">
        <ele>1.9</ele>
        <time>2020-06-15T10:29:00Z</time>
      </trkpt>
      <trkpt lat="49.64543" lon="-1.24203">
        <ele>1.9</ele>
        <time>2020-06-15T10:29:01Z</time>
      </trkpt>
      <trkpt lat="49.64539" lon="-1.24201">
        <ele>1.9</ele>
        <time>2020-06-15T10:29:02Z</time>
      </trkpt>
      <trkpt lat="49.64536" lon="-1.24201">
        <ele>1.9</ele>
        <time>2020-06-15T10:29:03Z</time>
      </trkpt>
      <trkpt lat="49.64532" lon="-1.24202">
        <ele>1.9</ele>
        <time>2020-06-15T10:29:04Z</time>
      </trkpt>
      <trkpt lat="49.64528" lon="-1.24202">
        <ele>1.9</ele>
        <time>2020-06-15T10:29:05Z</time>
      </trkpt>
      <trkpt lat="49.64524" lon="-1.24201">
        <ele>1.9</ele>
        <time>2020-06-15T10:29:06Z</time>
      </trkpt>
      <trkpt lat="49.64521" lon="-1.242">
        <ele>1.9</ele>
        <time>2020-06-15T10:29:07Z</time>
      </trkpt>
      <trkpt lat="49.64518" lon="-1.242">
        <ele>1.9</ele>
        <time>2020-06-15T10:29:08Z</time>
      </trkpt>
      <trkpt lat="49.64514" lon="-1.24199">
        <ele>1.9</ele>
        <time>2020-06-15T10:29:09Z</time>
      </trkpt>
      <trkpt lat="49.6451" lon="-1.24199">
        <ele>1.9</ele>
        <time>2020-06-15T10:29:10Z</time>
      </trkpt>
      <trkpt lat="49.64506" lon="-1.24197">
        <ele>1.9</ele>
        <time>2020-06-15T10:29:11Z</time>
      </trkpt>
      <trkpt lat="49.64503" lon="-1.24196">
        <ele>1.9</ele>
        <time>2020-06-15T10:29:12Z</time>
      </trkpt>
      <trkpt lat="49.64499" lon="-1.24196">
        <ele>1.9</ele>
        <time>2020-06-15T10:29:13Z</time>
      </trkpt>
      <trkpt lat="49.64495" lon="-1.24192">
        <ele>1.8</ele>
        <time>2020-06-15T10:29:14Z</time>
      </trkpt>
      <trkpt lat="49.64494" lon="-1.2419">
        <ele>1.8</ele>
        <time>2020-06-15T10:29:15Z</time>
      </trkpt>
      <trkpt lat="49.64491" lon="-1.24187">
        <ele>1.8</ele>
        <time>2020-06-15T10:29:16Z</time>
      </trkpt>
      <trkpt lat="49.64488" lon="-1.24184">
        <ele>1.8</ele>
        <time>2020-06-15T10:29:17Z</time>
      </trkpt>
      <trkpt lat="49.64485" lon="-1.24182">
        <ele>1.8</ele>
        <time>2020-06-15T10:29:18Z</time>
      </trkpt>
      <trkpt lat="49.64482" lon="-1.24181">
        <ele>1.8</ele>
        <time>2020-06-15T10:29:19Z</time>
      </trkpt>
      <trkpt lat="49.64478" lon="-1.24178">
        <ele>1.8</ele>
        <time>2020-06-15T10:29:20Z</time>
      </trkpt>
      <trkpt lat="49.64475" lon="-1.24177">
        <ele>1.8</ele>
        <time>2020-06-15T10:29:21Z</time>
      </trkpt>
      <trkpt lat="49.64471" lon="-1.24174">
        <ele>1.8</ele>
        <time>2020-06-15T10:29:22Z</time>
      </trkpt>
      <trkpt lat="49.64467" lon="-1.24173">
        <ele>1.7</ele>
        <time>2020-06-15T10:29:23Z</time>
      </trkpt>
      <trkpt lat="49.64464" lon="-1.24172">
        <ele>1.7</ele>
        <time>2020-06-15T10:29:24Z</time>
      </trkpt>
      <trkpt lat="49.6446" lon="-1.24171">
        <ele>1.7</ele>
        <time>2020-06-15T10:29:25Z</time>
      </trkpt>
      <trkpt lat="49.64457" lon="-1.24171">
        <ele>1.7</ele>
        <time>2020-06-15T10:29:26Z</time>
      </trkpt>
      <trkpt lat="49.64454" lon="-1.24171">
        <ele>1.7</ele>
        <time>2020-06-15T10:29:27Z</time>
      </trkpt>
      <trkpt lat="49.6445" lon="-1.2417">
        <ele>1.7</ele>
        <time>2020-06-15T10:29:28Z</time>
      </trkpt>
      <trkpt lat="49.64446" lon="-1.24171">
        <ele>1.7</ele>
        <time>2020-06-15T10:29:29Z</time>
      </trkpt>
      <trkpt lat="49.64443" lon="-1.24172">
        <ele>1.7</ele>
        <time>2020-06-15T10:29:30Z</time>
      </trkpt>
      <trkpt lat="49.6444" lon="-1.24173">
        <ele>1.8</ele>
        <time>2020-06-15T10:29:31Z</time>
      </trkpt>
      <trkpt lat="49.64435" lon="-1.24172">
        <ele>1.8</ele>
        <time>2020-06-15T10:29:32Z</time>
      </trkpt>
      <trkpt lat="49.64432" lon="-1.24174">
        <ele>1.8</ele>
        <time>2020-06-15T10:29:33Z</time>
      </trkpt>
      <trkpt lat="49.64429" lon="-1.24174">
        <ele>1.8</ele>
        <time>2020-06-15T10:29:34Z</time>
      </trkpt>
      <trkpt lat="49.64426" lon="-1.24175">
        <ele>1.8</ele>
        <time>2020-06-15T10:29:35Z</time>
      </trkpt>
      <trkpt lat="49.64422" lon="-1.24175">
        <ele>1.7</ele>
        <time>2020-06-15T10:29:36Z</time>
      </trkpt>
      <trkpt lat="49.6442" lon="-1.24174">
        <ele>1.7</ele>
        <time>2020-06-15T10:29:37Z</time>
      </trkpt>
      <trkpt lat="49.64416" lon="-1.24174">
        <ele>1.7</ele>
        <time>2020-06-15T10:29:38Z</time>
      </trkpt>
      <trkpt lat="49.64413" lon="-1.24171">
        <ele>1.8</ele>
        <time>2020-06-15T10:29:39Z</time>
      </trkpt>
      <trkpt lat="49.6441" lon="-1.24172">
        <ele>1.8</ele>
        <time>2020-06-15T10:29:40Z</time>
      </trkpt>
      <trkpt lat="49.64406" lon="-1.24172">
        <ele>1.8</ele>
        <time>2020-06-15T10:29:41Z</time>
      </trkpt>
      <trkpt lat="49.64401" lon="-1.24174">
        <ele>1.8</ele>
        <time>2020-06-15T10:29:42Z</time>
      </trkpt>
      <trkpt lat="49.64398" lon="-1.24175">
        <ele>1.9</ele>
        <time>2020-06-15T10:29:43Z</time>
      </trkpt>
      <trkpt lat="49.64394" lon="-1.24176">
        <ele>1.9</ele>
        <time>2020-06-15T10:29:44Z</time>
      </trkpt>
      <trkpt lat="49.6439" lon="-1.24177">
        <ele>1.9</ele>
        <time>2020-06-15T10:29:45Z</time>
      </trkpt>
      <trkpt lat="49.64387" lon="-1.24178">
        <ele>1.9</ele>
        <time>2020-06-15T10:29:46Z</time>
      </trkpt>
      <trkpt lat="49.64383" lon="-1.24179">
        <ele>1.9</ele>
        <time>2020-06-15T10:29:47Z</time>
      </trkpt>
      <trkpt lat="49.64379" lon="-1.24179">
        <ele>1.8</ele>
        <time>2020-06-15T10:29:48Z</time>
      </trkpt>
      <trkpt lat="49.64375" lon="-1.24181">
        <ele>1.8</ele>
        <time>2020-06-15T10:29:49Z</time>
      </trkpt>
      <trkpt lat="49.64371" lon="-1.24182">
        <ele>1.8</ele>
        <time>2020-06-15T10:29:50Z</time>
      </trkpt>
      <trkpt lat="49.64367" lon="-1.24183">
        <ele>1.9</ele>
        <time>2020-06-15T10:29:51Z</time>
      </trkpt>
      <trkpt lat="49.64363" lon="-1.24185">
        <ele>1.9</ele>
        <time>2020-06-15T10:29:52Z</time>
      </trkpt>
      <trkpt lat="49.64359" lon="-1.24187">
        <ele>1.9</ele>
        <time>2020-06-15T10:29:53Z</time>
      </trkpt>
      <trkpt lat="49.64355" lon="-1.24188">
        <ele>1.8</ele>
        <time>2020-06-15T10:29:54Z</time>
      </trkpt>
      <trkpt lat="49.64351" lon="-1.2419">
        <ele>1.8</ele>
        <time>2020-06-15T10:29:55Z</time>
      </trkpt>
      <trkpt lat="49.64347" lon="-1.24191">
        <ele>1.8</ele>
        <time>2020-06-15T10:29:56Z</time>
      </trkpt>
      <trkpt lat="49.64343" lon="-1.24193">
        <ele>1.8</ele>
        <time>2020-06-15T10:29:57Z</time>
      </trkpt>
      <trkpt lat="49.64338" lon="-1.24193">
        <ele>1.8</ele>
        <time>2020-06-15T10:29:58Z</time>
      </trkpt>
      <trkpt lat="49.64334" lon="-1.24194">
        <ele>1.9</ele>
        <time>2020-06-15T10:29:59Z</time>
      </trkpt>
      <trkpt lat="49.6433" lon="-1.24194">
        <ele>1.9</ele>
        <time>2020-06-15T10:30:00Z</time>
      </trkpt>
      <trkpt lat="49.64326" lon="-1.24194">
        <ele>1.9</ele>
        <time>2020-06-15T10:30:01Z</time>
      </trkpt>
      <trkpt lat="49.64321" lon="-1.24196">
        <ele>1.9</ele>
        <time>2020-06-15T10:30:02Z</time>
      </trkpt>
      <trkpt lat="49.64317" lon="-1.24198">
        <ele>2</ele>
        <time>2020-06-15T10:30:03Z</time>
      </trkpt>
      <trkpt lat="49.64313" lon="-1.24198">
        <ele>2</ele>
        <time>2020-06-15T10:30:04Z</time>
      </trkpt>
      <trkpt lat="49.64309" lon="-1.24199">
        <ele>2</ele>
        <time>2020-06-15T10:30:05Z</time>
      </trkpt>
      <trkpt lat="49.64305" lon="-1.242">
        <ele>2.1</ele>
        <time>2020-06-15T10:30:06Z</time>
      </trkpt>
      <trkpt lat="49.643" lon="-1.242">
        <ele>2.1</ele>
        <time>2020-06-15T10:30:07Z</time>
      </trkpt>
      <trkpt lat="49.64296" lon="-1.24202">
        <ele>2.2</ele>
        <time>2020-06-15T10:30:08Z</time>
      </trkpt>
      <trkpt lat="49.64292" lon="-1.24203">
        <ele>2.3</ele>
        <time>2020-06-15T10:30:09Z</time>
      </trkpt>
      <trkpt lat="49.64288" lon="-1.24206">
        <ele>2.3</ele>
        <time>2020-06-15T10:30:10Z</time>
      </trkpt>
      <trkpt lat="49.64284" lon="-1.24208">
        <ele>2.4</ele>
        <time>2020-06-15T10:30:11Z</time>
      </trkpt>
      <trkpt lat="49.6428" lon="-1.24208">
        <ele>2.4</ele>
        <time>2020-06-15T10:30:12Z</time>
      </trkpt>
      <trkpt lat="49.64276" lon="-1.24208">
        <ele>2.5</ele>
        <time>2020-06-15T10:30:13Z</time>
      </trkpt>
      <trkpt lat="49.64272" lon="-1.24209">
        <ele>2.5</ele>
        <time>2020-06-15T10:30:14Z</time>
      </trkpt>
      <trkpt lat="49.64268" lon="-1.24211">
        <ele>2.6</ele>
        <time>2020-06-15T10:30:15Z</time>
      </trkpt>
      <trkpt lat="49.64264" lon="-1.24212">
        <ele>2.6</ele>
        <time>2020-06-15T10:30:16Z</time>
      </trkpt>
      <trkpt lat="49.6426" lon="-1.24212">
        <ele>2.7</ele>
        <time>2020-06-15T10:30:17Z</time>
      </trkpt>
      <trkpt lat="49.64256" lon="-1.24212">
        <ele>2.7</ele>
        <time>2020-06-15T10:30:18Z</time>
      </trkpt>
      <trkpt lat="49.64253" lon="-1.24212">
        <ele>2.8</ele>
        <time>2020-06-15T10:30:19Z</time>
      </trkpt>
      <trkpt lat="49.64249" lon="-1.24213">
        <ele>2.8</ele>
        <time>2020-06-15T10:30:20Z</time>
      </trkpt>
      <trkpt lat="49.64245" lon="-1.24215">
        <ele>2.9</ele>
        <time>2020-06-15T10:30:21Z</time>
      </trkpt>
      <trkpt lat="49.6424" lon="-1.24215">
        <ele>3</ele>
        <time>2020-06-15T10:30:22Z</time>
      </trkpt>
      <trkpt lat="49.64235" lon="-1.24215">
        <ele>3.1</ele>
        <time>2020-06-15T10:30:23Z</time>
      </trkpt>
      <trkpt lat="49.64231" lon="-1.24218">
        <ele>3.2</ele>
        <time>2020-06-15T10:30:24Z</time>
      </trkpt>
      <trkpt lat="49.64227" lon="-1.24218">
        <ele>3.2</ele>
        <time>2020-06-15T10:30:25Z</time>
      </trkpt>
      <trkpt lat="49.64223" lon="-1.24219">
        <ele>3.3</ele>
        <time>2020-06-15T10:30:26Z</time>
      </trkpt>
      <trkpt lat="49.64218" lon="-1.2422">
        <ele>3.5</ele>
        <time>2020-06-15T10:30:27Z</time>
      </trkpt>
      <trkpt lat="49.64214" lon="-1.24221">
        <ele>3.6</ele>
        <time>2020-06-15T10:30:28Z</time>
      </trkpt>
      <trkpt lat="49.64211" lon="-1.24222">
        <ele>3.6</ele>
        <time>2020-06-15T10:30:29Z</time>
      </trkpt>
      <trkpt lat="49.64207" lon="-1.24223">
        <ele>3.7</ele>
        <time>2020-06-15T10:30:30Z</time>
      </trkpt>
      <trkpt lat="49.64204" lon="-1.24224">
        <ele>3.8</ele>
        <time>2020-06-15T10:30:31Z</time>
      </trkpt>
      <trkpt lat="49.642" lon="-1.24226">
        <ele>3.8</ele>
        <time>2020-06-15T10:30:32Z</time>
      </trkpt>
      <trkpt lat="49.64197" lon="-1.24226">
        <ele>3.8</ele>
        <time>2020-06-15T10:30:33Z</time>
      </trkpt>
      <trkpt lat="49.64194" lon="-1.24226">
        <ele>3.9</ele>
        <time>2020-06-15T10:30:34Z</time>
      </trkpt>
      <trkpt lat="49.64193" lon="-1.24226">
        <ele>3.9</ele>
        <time>2020-06-15T10:30:35Z</time>
      </trkpt>
      <trkpt lat="49.6419" lon="-1.24228">
        <ele>3.9</ele>
        <time>2020-06-15T10:30:36Z</time>
      </trkpt>
      <trkpt lat="49.64188" lon="-1.24228">
        <ele>3.9</ele>
        <time>2020-06-15T10:30:37Z</time>
      </trkpt>
      <trkpt lat="49.64186" lon="-1.24229">
        <ele>3.9</ele>
        <time>2020-06-15T10:30:38Z</time>
      </trkpt>
      <trkpt lat="49.64183" lon="-1.24231">
        <ele>4</ele>
        <time>2020-06-15T10:30:39Z</time>
      </trkpt>
      <trkpt lat="49.64179" lon="-1.24233">
        <ele>4</ele>
        <time>2020-06-15T10:30:40Z</time>
      </trkpt>
      <trkpt lat="49.64177" lon="-1.24234">
        <ele>4</ele>
        <time>2020-06-15T10:30:41Z</time>
      </trkpt>
      <trkpt lat="49.64174" lon="-1.24236">
        <ele>4</ele>
        <time>2020-06-15T10:30:42Z</time>
      </trkpt>
      <trkpt lat="49.64171" lon="-1.24238">
        <ele>4</ele>
        <time>2020-06-15T10:30:43Z</time>
      </trkpt>
      <trkpt lat="49.64167" lon="-1.2424">
        <ele>4</ele>
        <time>2020-06-15T10:30:44Z</time>
      </trkpt>
      <trkpt lat="49.64164" lon="-1.24242">
        <ele>4</ele>
        <time>2020-06-15T10:30:45Z</time>
      </trkpt>
      <trkpt lat="49.6416" lon="-1.24243">
        <ele>4</ele>
        <time>2020-06-15T10:30:46Z</time>
      </trkpt>
      <trkpt lat="49.64157" lon="-1.24245">
        <ele>4</ele>
        <time>2020-06-15T10:30:47Z</time>
      </trkpt>
      <trkpt lat="49.64153" lon="-1.24247">
        <ele>4</ele>
        <time>2020-06-15T10:30:48Z</time>
      </trkpt>
      <trkpt lat="49.64149" lon="-1.24248">
        <ele>4</ele>
        <time>2020-06-15T10:30:49Z</time>
      </trkpt>
      <trkpt lat="49.64146" lon="-1.2425">
        <ele>3.9</ele>
        <time>2020-06-15T10:30:50Z</time>
      </trkpt>
      <trkpt lat="49.64142" lon="-1.24251">
        <ele>3.9</ele>
        <time>2020-06-15T10:30:51Z</time>
      </trkpt>
      <trkpt lat="49.64138" lon="-1.24253">
        <ele>3.9</ele>
        <time>2020-06-15T10:30:52Z</time>
      </trkpt>
      <trkpt lat="49.64134" lon="-1.24255">
        <ele>3.9</ele>
        <time>2020-06-15T10:30:53Z</time>
      </trkpt>
      <trkpt lat="49.6413" lon="-1.24256">
        <ele>4</ele>
        <time>2020-06-15T10:30:54Z</time>
      </trkpt>
      <trkpt lat="49.64126" lon="-1.24257">
        <ele>4</ele>
        <time>2020-06-15T10:30:55Z</time>
      </trkpt>
      <trkpt lat="49.64122" lon="-1.24258">
        <ele>4</ele>
        <time>2020-06-15T10:30:56Z</time>
      </trkpt>
      <trkpt lat="49.64119" lon="-1.24258">
        <ele>4</ele>
        <time>2020-06-15T10:30:57Z</time>
      </trkpt>
      <trkpt lat="49.64115" lon="-1.24258">
        <ele>4</ele>
        <time>2020-06-15T10:30:58Z</time>
      </trkpt>
      <trkpt lat="49.64111" lon="-1.24258">
        <ele>4</ele>
        <time>2020-06-15T10:30:59Z</time>
      </trkpt>
      <trkpt lat="49.64107" lon="-1.24258">
        <ele>4</ele>
        <time>2020-06-15T10:31:00Z</time>
      </trkpt>
      <trkpt lat="49.64104" lon="-1.24257">
        <ele>4</ele>
        <time>2020-06-15T10:31:01Z</time>
      </trkpt>
      <trkpt lat="49.641" lon="-1.24255">
        <ele>4</ele>
        <time>2020-06-15T10:31:02Z</time>
      </trkpt>
      <trkpt lat="49.64097" lon="-1.24253">
        <ele>4</ele>
        <time>2020-06-15T10:31:03Z</time>
      </trkpt>
      <trkpt lat="49.64093" lon="-1.24251">
        <ele>4</ele>
        <time>2020-06-15T10:31:04Z</time>
      </trkpt>
      <trkpt lat="49.6409" lon="-1.24249">
        <ele>4.1</ele>
        <time>2020-06-15T10:31:05Z</time>
      </trkpt>
      <trkpt lat="49.64086" lon="-1.24247">
        <ele>4.1</ele>
        <time>2020-06-15T10:31:06Z</time>
      </trkpt>
      <trkpt lat="49.64083" lon="-1.24245">
        <ele>4.1</ele>
        <time>2020-06-15T10:31:07Z</time>
      </trkpt>
      <trkpt lat="49.64079" lon="-1.24244">
        <ele>4.1</ele>
        <time>2020-06-15T10:31:08Z</time>
      </trkpt>
      <trkpt lat="49.64075" lon="-1.24242">
        <ele>4</ele>
        <time>2020-06-15T10:31:09Z</time>
      </trkpt>
      <trkpt lat="49.64072" lon="-1.24242">
        <ele>4</ele>
        <time>2020-06-15T10:31:10Z</time>
      </trkpt>
      <trkpt lat="49.64066" lon="-1.2424">
        <ele>4</ele>
        <time>2020-06-15T10:31:11Z</time>
      </trkpt>
      <trkpt lat="49.64062" lon="-1.24238">
        <ele>4</ele>
        <time>2020-06-15T10:31:12Z</time>
      </trkpt>
      <trkpt lat="49.64057" lon="-1.24235">
        <ele>4</ele>
        <time>2020-06-15T10:31:13Z</time>
      </trkpt>
      <trkpt lat="49.64052" lon="-1.24233">
        <ele>4</ele>
        <time>2020-06-15T10:31:14Z</time>
      </trkpt>
      <trkpt lat="49.64047" lon="-1.24232">
        <ele>4</ele>
        <time>2020-06-15T10:31:15Z</time>
      </trkpt>
      <trkpt lat="49.64042" lon="-1.2423">
        <ele>4</ele>
        <time>2020-06-15T10:31:16Z</time>
      </trkpt>
      <trkpt lat="49.64037" lon="-1.24228">
        <ele>4</ele>
        <time>2020-06-15T10:31:17Z</time>
      </trkpt>
      <trkpt lat="49.64032" lon="-1.24226">
        <ele>4</ele>
        <time>2020-06-15T10:31:18Z</time>
      </trkpt>
      <trkpt lat="49.64027" lon="-1.24225">
        <ele>4.1</ele>
        <time>2020-06-15T10:31:19Z</time>
      </trkpt>
      <trkpt lat="49.64022" lon="-1.24223">
        <ele>4.1</ele>
        <time>2020-06-15T10:31:20Z</time>
      </trkpt>
      <trkpt lat="49.64017" lon="-1.24222">
        <ele>4.1</ele>
        <time>2020-06-15T10:31:21Z</time>
      </trkpt>
      <trkpt lat="49.64013" lon="-1.24221">
        <ele>4.2</ele>
        <time>2020-06-15T10:31:22Z</time>
      </trkpt>
      <trkpt lat="49.64007" lon="-1.2422">
        <ele>4.3</ele>
        <time>2020-06-15T10:31:23Z</time>
      </trkpt>
      <trkpt lat="49.64001" lon="-1.24219">
        <ele>4.3</ele>
        <time>2020-06-15T10:31:24Z</time>
      </trkpt>
      <trkpt lat="49.63996" lon="-1.24218">
        <ele>4.4</ele>
        <time>2020-06-15T10:31:25Z</time>
      </trkpt>
      <trkpt lat="49.63992" lon="-1.24217">
        <ele>4.4</ele>
        <time>2020-06-15T10:31:26Z</time>
      </trkpt>
      <trkpt lat="49.63988" lon="-1.24215">
        <ele>4.5</ele>
        <time>2020-06-15T10:31:27Z</time>
      </trkpt>
      <trkpt lat="49.63983" lon="-1.24215">
        <ele>4.5</ele>
        <time>2020-06-15T10:31:28Z</time>
      </trkpt>
      <trkpt lat="49.6398" lon="-1.24214">
        <ele>4.6</ele>
        <time>2020-06-15T10:31:29Z</time>
      </trkpt>
      <trkpt lat="49.63975" lon="-1.24212">
        <ele>4.6</ele>
        <time>2020-06-15T10:31:30Z</time>
      </trkpt>
      <trkpt lat="49.6397" lon="-1.24209">
        <ele>4.7</ele>
        <time>2020-06-15T10:31:31Z</time>
      </trkpt>
      <trkpt lat="49.63965" lon="-1.24207">
        <ele>4.8</ele>
        <time>2020-06-15T10:31:32Z</time>
      </trkpt>
      <trkpt lat="49.6396" lon="-1.24207">
        <ele>4.8</ele>
        <time>2020-06-15T10:31:33Z</time>
      </trkpt>
      <trkpt lat="49.63955" lon="-1.24205">
        <ele>4.9</ele>
        <time>2020-06-15T10:31:34Z</time>
      </trkpt>
      <trkpt lat="49.63949" lon="-1.24204">
        <ele>4.9</ele>
        <time>2020-06-15T10:31:35Z</time>
      </trkpt>
      <trkpt lat="49.63945" lon="-1.24202">
        <ele>4.9</ele>
        <time>2020-06-15T10:31:36Z</time>
      </trkpt>
      <trkpt lat="49.63939" lon="-1.24202">
        <ele>5</ele>
        <time>2020-06-15T10:31:37Z</time>
      </trkpt>
      <trkpt lat="49.63935" lon="-1.242">
        <ele>5</ele>
        <time>2020-06-15T10:31:38Z</time>
      </trkpt>
      <trkpt lat="49.6393" lon="-1.24199">
        <ele>5</ele>
        <time>2020-06-15T10:31:39Z</time>
      </trkpt>
      <trkpt lat="49.63925" lon="-1.24199">
        <ele>5.1</ele>
        <time>2020-06-15T10:31:40Z</time>
      </trkpt>
      <trkpt lat="49.63921" lon="-1.24198">
        <ele>5.2</ele>
        <time>2020-06-15T10:31:41Z</time>
      </trkpt>
      <trkpt lat="49.63917" lon="-1.24196">
        <ele>5.2</ele>
        <time>2020-06-15T10:31:42Z</time>
      </trkpt>
      <trkpt lat="49.63912" lon="-1.24196">
        <ele>5.3</ele>
        <time>2020-06-15T10:31:43Z</time>
      </trkpt>
      <trkpt lat="49.63907" lon="-1.24194">
        <ele>5.4</ele>
        <time>2020-06-15T10:31:44Z</time>
      </trkpt>
      <trkpt lat="49.63901" lon="-1.24192">
        <ele>5.4</ele>
        <time>2020-06-15T10:31:45Z</time>
      </trkpt>
      <trkpt lat="49.63896" lon="-1.24191">
        <ele>5.4</ele>
        <time>2020-06-15T10:31:46Z</time>
      </trkpt>
      <trkpt lat="49.6389" lon="-1.2419">
        <ele>5.4</ele>
        <time>2020-06-15T10:31:47Z</time>
      </trkpt>
      <trkpt lat="49.63885" lon="-1.24189">
        <ele>5.5</ele>
        <time>2020-06-15T10:31:48Z</time>
      </trkpt>
      <trkpt lat="49.6388" lon="-1.24187">
        <ele>5.5</ele>
        <time>2020-06-15T10:31:49Z</time>
      </trkpt>
      <trkpt lat="49.63875" lon="-1.24186">
        <ele>5.6</ele>
        <time>2020-06-15T10:31:50Z</time>
      </trkpt>
      <trkpt lat="49.63869" lon="-1.24185">
        <ele>5.6</ele>
        <time>2020-06-15T10:31:51Z</time>
      </trkpt>
      <trkpt lat="49.63863" lon="-1.24183">
        <ele>5.7</ele>
        <time>2020-06-15T10:31:52Z</time>
      </trkpt>
      <trkpt lat="49.63858" lon="-1.24181">
        <ele>5.8</ele>
        <time>2020-06-15T10:31:53Z</time>
      </trkpt>
      <trkpt lat="49.63853" lon="-1.2418">
        <ele>5.9</ele>
        <time>2020-06-15T10:31:54Z</time>
      </trkpt>
      <trkpt lat="49.63847" lon="-1.24179">
        <ele>5.9</ele>
        <time>2020-06-15T10:31:55Z</time>
      </trkpt>
      <trkpt lat="49.63842" lon="-1.24177">
        <ele>6</ele>
        <time>2020-06-15T10:31:56Z</time>
      </trkpt>
      <trkpt lat="49.63837" lon="-1.24176">
        <ele>6</ele>
        <time>2020-06-15T10:31:57Z</time>
      </trkpt>
      <trkpt lat="49.63832" lon="-1.24176">
        <ele>6.1</ele>
        <time>2020-06-15T10:31:58Z</time>
      </trkpt>
      <trkpt lat="49.63827" lon="-1.24175">
        <ele>6.2</ele>
        <time>2020-06-15T10:31:59Z</time>
      </trkpt>
      <trkpt lat="49.63822" lon="-1.24175">
        <ele>6.2</ele>
        <time>2020-06-15T10:32:00Z</time>
      </trkpt>
      <trkpt lat="49.63816" lon="-1.24175">
        <ele>6.3</ele>
        <time>2020-06-15T10:32:01Z</time>
      </trkpt>
      <trkpt lat="49.63812" lon="-1.24173">
        <ele>6.4</ele>
        <time>2020-06-15T10:32:02Z</time>
      </trkpt>
      <trkpt lat="49.63806" lon="-1.24173">
        <ele>6.5</ele>
        <time>2020-06-15T10:32:03Z</time>
      </trkpt>
      <trkpt lat="49.63801" lon="-1.24172">
        <ele>6.6</ele>
        <time>2020-06-15T10:32:04Z</time>
      </trkpt>
      <trkpt lat="49.63796" lon="-1.24171">
        <ele>6.7</ele>
        <time>2020-06-15T10:32:05Z</time>
      </trkpt>
      <trkpt lat="49.63791" lon="-1.2417">
        <ele>6.8</ele>
        <time>2020-06-15T10:32:06Z</time>
      </trkpt>
      <trkpt lat="49.63786" lon="-1.24169">
        <ele>6.8</ele>
        <time>2020-06-15T10:32:07Z</time>
      </trkpt>
      <trkpt lat="49.6378" lon="-1.24169">
        <ele>6.9</ele>
        <time>2020-06-15T10:32:08Z</time>
      </trkpt>
      <trkpt lat="49.63774" lon="-1.24169">
        <ele>7</ele>
        <time>2020-06-15T10:32:09Z</time>
      </trkpt>
      <trkpt lat="49.63769" lon="-1.24168">
        <ele>7.1</ele>
        <time>2020-06-15T10:32:10Z</time>
      </trkpt>
      <trkpt lat="49.63764" lon="-1.24168">
        <ele>7.2</ele>
        <time>2020-06-15T10:32:11Z</time>
      </trkpt>
      <trkpt lat="49.63759" lon="-1.24166">
        <ele>7.3</ele>
        <time>2020-06-15T10:32:12Z</time>
      </trkpt>
      <trkpt lat="49.63754" lon="-1.24165">
        <ele>7.4</ele>
        <time>2020-06-15T10:32:13Z</time>
      </trkpt>
      <trkpt lat="49.63749" lon="-1.24163">
        <ele>7.5</ele>
        <time>2020-06-15T10:32:14Z</time>
      </trkpt>
      <trkpt lat="49.63745" lon="-1.24162">
        <ele>7.6</ele>
        <time>2020-06-15T10:32:15Z</time>
      </trkpt>
      <trkpt lat="49.63739" lon="-1.24161">
        <ele>7.8</ele>
        <time>2020-06-15T10:32:16Z</time>
      </trkpt>
      <trkpt lat="49.63735" lon="-1.24158">
        <ele>8</ele>
        <time>2020-06-15T10:32:17Z</time>
      </trkpt>
      <trkpt lat="49.6373" lon="-1.24156">
        <ele>8.1</ele>
        <time>2020-06-15T10:32:18Z</time>
      </trkpt>
      <trkpt lat="49.63725" lon="-1.24154">
        <ele>8.2</ele>
        <time>2020-06-15T10:32:19Z</time>
      </trkpt>
      <trkpt lat="49.63721" lon="-1.24152">
        <ele>8.4</ele>
        <time>2020-06-15T10:32:20Z</time>
      </trkpt>
      <trkpt lat="49.63717" lon="-1.24149">
        <ele>8.5</ele>
        <time>2020-06-15T10:32:21Z</time>
      </trkpt>
      <trkpt lat="49.63712" lon="-1.24148">
        <ele>8.6</ele>
        <time>2020-06-15T10:32:22Z</time>
      </trkpt>
      <trkpt lat="49.63709" lon="-1.24145">
        <ele>8.7</ele>
        <time>2020-06-15T10:32:23Z</time>
      </trkpt>
      <trkpt lat="49.63705" lon="-1.24143">
        <ele>8.8</ele>
        <time>2020-06-15T10:32:24Z</time>
      </trkpt>
      <trkpt lat="49.63701" lon="-1.24143">
        <ele>8.9</ele>
        <time>2020-06-15T10:32:25Z</time>
      </trkpt>
      <trkpt lat="49.63698" lon="-1.24142">
        <ele>9</ele>
        <time>2020-06-15T10:32:26Z</time>
      </trkpt>
      <trkpt lat="49.63695" lon="-1.24141">
        <ele>9</ele>
        <time>2020-06-15T10:32:27Z</time>
      </trkpt>
      <trkpt lat="49.63692" lon="-1.2414">
        <ele>9</ele>
        <time>2020-06-15T10:32:28Z</time>
      </trkpt>
      <trkpt lat="49.63689" lon="-1.24139">
        <ele>9</ele>
        <time>2020-06-15T10:32:29Z</time>
      </trkpt>
      <trkpt lat="49.63686" lon="-1.24137">
        <ele>9</ele>
        <time>2020-06-15T10:32:30Z</time>
      </trkpt>
      <trkpt lat="49.63684" lon="-1.24132">
        <ele>8.9</ele>
        <time>2020-06-15T10:32:31Z</time>
      </trkpt>
      <trkpt lat="49.63684" lon="-1.2413">
        <ele>8.9</ele>
        <time>2020-06-15T10:32:32Z</time>
      </trkpt>
      <trkpt lat="49.63685" lon="-1.24124">
        <ele>8.8</ele>
        <time>2020-06-15T10:32:33Z</time>
      </trkpt>
      <trkpt lat="49.63685" lon="-1.24121">
        <ele>8.8</ele>
        <time>2020-06-15T10:32:34Z</time>
      </trkpt>
      <trkpt lat="49.63686" lon="-1.24116">
        <ele>8.8</ele>
        <time>2020-06-15T10:32:35Z</time>
      </trkpt>
      <trkpt lat="49.63688" lon="-1.24109">
        <ele>8.7</ele>
        <time>2020-06-15T10:32:36Z</time>
      </trkpt>
      <trkpt lat="49.63689" lon="-1.24103">
        <ele>8.7</ele>
        <time>2020-06-15T10:32:37Z</time>
      </trkpt>
      <trkpt lat="49.63691" lon="-1.24097">
        <ele>8.7</ele>
        <time>2020-06-15T10:32:38Z</time>
      </trkpt>
      <trkpt lat="49.63692" lon="-1.2409">
        <ele>8.6</ele>
        <time>2020-06-15T10:32:39Z</time>
      </trkpt>
      <trkpt lat="49.63694" lon="-1.24084">
        <ele>8.5</ele>
        <time>2020-06-15T10:32:40Z</time>
      </trkpt>
      <trkpt lat="49.63696" lon="-1.24078">
        <ele>8.4</ele>
        <time>2020-06-15T10:32:41Z</time>
      </trkpt>
      <trkpt lat="49.63698" lon="-1.24073">
        <ele>8.3</ele>
        <time>2020-06-15T10:32:42Z</time>
      </trkpt>
      <trkpt lat="49.637" lon="-1.24066">
        <ele>8.2</ele>
        <time>2020-06-15T10:32:43Z</time>
      </trkpt>
      <trkpt lat="49.63702" lon="-1.24059">
        <ele>8.1</ele>
        <time>2020-06-15T10:32:44Z</time>
      </trkpt>
      <trkpt lat="49.63705" lon="-1.24053">
        <ele>8</ele>
        <time>2020-06-15T10:32:45Z</time>
      </trkpt>
      <trkpt lat="49.63708" lon="-1.24045">
        <ele>7.9</ele>
        <time>2020-06-15T10:32:46Z</time>
      </trkpt>
      <trkpt lat="49.6371" lon="-1.24039">
        <ele>7.9</ele>
        <time>2020-06-15T10:32:47Z</time>
      </trkpt>
      <trkpt lat="49.63712" lon="-1.24033">
        <ele>7.9</ele>
        <time>2020-06-15T10:32:48Z</time>
      </trkpt>
      <trkpt lat="49.63714" lon="-1.24027">
        <ele>7.9</ele>
        <time>2020-06-15T10:32:49Z</time>
      </trkpt>
      <trkpt lat="49.63715" lon="-1.2402">
        <ele>7.8</ele>
        <time>2020-06-15T10:32:50Z</time>
      </trkpt>
      <trkpt lat="49.63717" lon="-1.24013">
        <ele>7.8</ele>
        <time>2020-06-15T10:32:51Z</time>
      </trkpt>
      <trkpt lat="49.63719" lon="-1.24006">
        <ele>7.8</ele>
        <time>2020-06-15T10:32:52Z</time>
      </trkpt>
      <trkpt lat="49.63721" lon="-1.24">
        <ele>7.8</ele>
        <time>2020-06-15T10:32:53Z</time>
      </trkpt>
      <trkpt lat="49.63723" lon="-1.23992">
        <ele>7.8</ele>
        <time>2020-06-15T10:32:54Z</time>
      </trkpt>
      <trkpt lat="49.63724" lon="-1.23985">
        <ele>7.8</ele>
        <time>2020-06-15T10:32:55Z</time>
      </trkpt>
      <trkpt lat="49.63726" lon="-1.23978">
        <ele>7.8</ele>
        <time>2020-06-15T10:32:56Z</time>
      </trkpt>
      <trkpt lat="49.63728" lon="-1.23971">
        <ele>7.8</ele>
        <time>2020-06-15T10:32:57Z</time>
      </trkpt>
      <trkpt lat="49.6373" lon="-1.23964">
        <ele>7.7</ele>
        <time>2020-06-15T10:32:58Z</time>
      </trkpt>
      <trkpt lat="49.63732" lon="-1.23957">
        <ele>7.7</ele>
        <time>2020-06-15T10:32:59Z</time>
      </trkpt>
      <trkpt lat="49.63733" lon="-1.23951">
        <ele>7.7</ele>
        <time>2020-06-15T10:33:00Z</time>
      </trkpt>
      <trkpt lat="49.63735" lon="-1.23944">
        <ele>7.6</ele>
        <time>2020-06-15T10:33:01Z</time>
      </trkpt>
      <trkpt lat="49.63737" lon="-1.23937">
        <ele>7.6</ele>
        <time>2020-06-15T10:33:02Z</time>
      </trkpt>
      <trkpt lat="49.63739" lon="-1.23929">
        <ele>7.6</ele>
        <time>2020-06-15T10:33:03Z</time>
      </trkpt>
      <trkpt lat="49.63741" lon="-1.23922">
        <ele>7.6</ele>
        <time>2020-06-15T10:33:04Z</time>
      </trkpt>
      <trkpt lat="49.63743" lon="-1.23915">
        <ele>7.6</ele>
        <time>2020-06-15T10:33:05Z</time>
      </trkpt>
      <trkpt lat="49.63744" lon="-1.23909">
        <ele>7.6</ele>
        <time>2020-06-15T10:33:06Z</time>
      </trkpt>
      <trkpt lat="49.63746" lon="-1.23902">
        <ele>7.7</ele>
        <time>2020-06-15T10:33:07Z</time>
      </trkpt>
      <trkpt lat="49.63748" lon="-1.23895">
        <ele>7.7</ele>
        <time>2020-06-15T10:33:08Z</time>
      </trkpt>
      <trkpt lat="49.6375" lon="-1.23889">
        <ele>7.7</ele>
        <time>2020-06-15T10:33:09Z</time>
      </trkpt>
      <trkpt lat="49.63751" lon="-1.23882">
        <ele>7.7</ele>
        <time>2020-06-15T10:33:10Z</time>
      </trkpt>
      <trkpt lat="49.63753" lon="-1.23875">
        <ele>7.7</ele>
        <time>2020-06-15T10:33:11Z</time>
      </trkpt>
      <trkpt lat="49.63754" lon="-1.23868">
        <ele>7.7</ele>
        <time>2020-06-15T10:33:12Z</time>
      </trkpt>
      <trkpt lat="49.63757" lon="-1.23862">
        <ele>7.7</ele>
        <time>2020-06-15T10:33:13Z</time>
      </trkpt>
      <trkpt lat="49.63759" lon="-1.23855">
        <ele>7.6</ele>
        <time>2020-06-15T10:33:14Z</time>
      </trkpt>
      <trkpt lat="49.63762" lon="-1.23849">
        <ele>7.6</ele>
        <time>2020-06-15T10:33:15Z</time>
      </trkpt>
      <trkpt lat="49.63763" lon="-1.23843">
        <ele>7.6</ele>
        <time>2020-06-15T10:33:16Z</time>
      </trkpt>
      <trkpt lat="49.63766" lon="-1.23837">
        <ele>7.6</ele>
        <time>2020-06-15T10:33:17Z</time>
      </trkpt>
      <trkpt lat="49.63767" lon="-1.23831">
        <ele>7.5</ele>
        <time>2020-06-15T10:33:18Z</time>
      </trkpt>
      <trkpt lat="49.63769" lon="-1.23824">
        <ele>7.5</ele>
        <time>2020-06-15T10:33:19Z</time>
      </trkpt>
      <trkpt lat="49.6377" lon="-1.23818">
        <ele>7.4</ele>
        <time>2020-06-15T10:33:20Z</time>
      </trkpt>
      <trkpt lat="49.63771" lon="-1.23812">
        <ele>7.3</ele>
        <time>2020-06-15T10:33:21Z</time>
      </trkpt>
      <trkpt lat="49.63773" lon="-1.23804">
        <ele>7.2</ele>
        <time>2020-06-15T10:33:22Z</time>
      </trkpt>
      <trkpt lat="49.63775" lon="-1.23798">
        <ele>7.1</ele>
        <time>2020-06-15T10:33:23Z</time>
      </trkpt>
      <trkpt lat="49.63777" lon="-1.23792">
        <ele>7</ele>
        <time>2020-06-15T10:33:24Z</time>
      </trkpt>
      <trkpt lat="49.6378" lon="-1.23785">
        <ele>6.9</ele>
        <time>2020-06-15T10:33:25Z</time>
      </trkpt>
      <trkpt lat="49.63782" lon="-1.23778">
        <ele>6.7</ele>
        <time>2020-06-15T10:33:26Z</time>
      </trkpt>
      <trkpt lat="49.63784" lon="-1.23772">
        <ele>6.6</ele>
        <time>2020-06-15T10:33:27Z</time>
      </trkpt>
      <trkpt lat="49.63786" lon="-1.23766">
        <ele>6.4</ele>
        <time>2020-06-15T10:33:28Z</time>
      </trkpt>
      <trkpt lat="49.63788" lon="-1.2376">
        <ele>6.2</ele>
        <time>2020-06-15T10:33:29Z</time>
      </trkpt>
      <trkpt lat="49.63789" lon="-1.23753">
        <ele>6.1</ele>
        <time>2020-06-15T10:33:30Z</time>
      </trkpt>
      <trkpt lat="49.63791" lon="-1.23745">
        <ele>5.9</ele>
        <time>2020-06-15T10:33:31Z</time>
      </trkpt>
      <trkpt lat="49.63793" lon="-1.23738">
        <ele>5.7</ele>
        <time>2020-06-15T10:33:32Z</time>
      </trkpt>
      <trkpt lat="49.63795" lon="-1.2373">
        <ele>5.5</ele>
        <time>2020-06-15T10:33:33Z</time>
      </trkpt>
      <trkpt lat="49.63797" lon="-1.23723">
        <ele>5.4</ele>
        <time>2020-06-15T10:33:34Z</time>
      </trkpt>
      <trkpt lat="49.63798" lon="-1.23715">
        <ele>5.2</ele>
        <time>2020-06-15T10:33:35Z</time>
      </trkpt>
      <trkpt lat="49.638" lon="-1.23706">
        <ele>5</ele>
        <time>2020-06-15T10:33:36Z</time>
      </trkpt>
      <trkpt lat="49.63801" lon="-1.237">
        <ele>4.8</ele>
        <time>2020-06-15T10:33:37Z</time>
      </trkpt>
      <trkpt lat="49.63803" lon="-1.23693">
        <ele>4.7</ele>
        <time>2020-06-15T10:33:38Z</time>
      </trkpt>
      <trkpt lat="49.63804" lon="-1.23688">
        <ele>4.6</ele>
        <time>2020-06-15T10:33:39Z</time>
      </trkpt>
      <trkpt lat="49.63805" lon="-1.23683">
        <ele>4.5</ele>
        <time>2020-06-15T10:33:40Z</time>
      </trkpt>
      <trkpt lat="49.63806" lon="-1.23678">
        <ele>4.4</ele>
        <time>2020-06-15T10:33:41Z</time>
      </trkpt>
      <trkpt lat="49.63806" lon="-1.23673">
        <ele>4.5</ele>
        <time>2020-06-15T10:33:42Z</time>
      </trkpt>
      <trkpt lat="49.63806" lon="-1.23668">
        <ele>4.5</ele>
        <time>2020-06-15T10:33:43Z</time>
      </trkpt>
      <trkpt lat="49.63806" lon="-1.23667">
        <ele>4.5</ele>
        <time>2020-06-15T10:33:44Z</time>
      </trkpt>
      <trkpt lat="49.63803" lon="-1.23662">
        <ele>4.5</ele>
        <time>2020-06-15T10:33:45Z</time>
      </trkpt>
      <trkpt lat="49.63802" lon="-1.23661">
        <ele>4.5</ele>
        <time>2020-06-15T10:33:46Z</time>
      </trkpt>
      <trkpt lat="49.63799" lon="-1.23658">
        <ele>4.5</ele>
        <time>2020-06-15T10:33:47Z</time>
      </trkpt>
      <trkpt lat="49.63798" lon="-1.23657">
        <ele>4.5</ele>
        <time>2020-06-15T10:33:48Z</time>
      </trkpt>
      <trkpt lat="49.63795" lon="-1.23653">
        <ele>4.5</ele>
        <time>2020-06-15T10:33:49Z</time>
      </trkpt>
      <trkpt lat="49.63793" lon="-1.23652">
        <ele>4.4</ele>
        <time>2020-06-15T10:33:50Z</time>
      </trkpt>
      <trkpt lat="49.63791" lon="-1.23649">
        <ele>4.4</ele>
        <time>2020-06-15T10:33:51Z</time>
      </trkpt>
      <trkpt lat="49.63788" lon="-1.23647">
        <ele>4.4</ele>
        <time>2020-06-15T10:33:52Z</time>
      </trkpt>
      <trkpt lat="49.63785" lon="-1.23646">
        <ele>4.3</ele>
        <time>2020-06-15T10:33:53Z</time>
      </trkpt>
      <trkpt lat="49.63782" lon="-1.23645">
        <ele>4.3</ele>
        <time>2020-06-15T10:33:54Z</time>
      </trkpt>
      <trkpt lat="49.63778" lon="-1.23644">
        <ele>4.2</ele>
        <time>2020-06-15T10:33:55Z</time>
      </trkpt>
      <trkpt lat="49.63774" lon="-1.23643">
        <ele>4.2</ele>
        <time>2020-06-15T10:33:56Z</time>
      </trkpt>
      <trkpt lat="49.63772" lon="-1.23643">
        <ele>4.2</ele>
        <time>2020-06-15T10:33:57Z</time>
      </trkpt>
      <trkpt lat="49.63769" lon="-1.23643">
        <ele>4.1</ele>
        <time>2020-06-15T10:33:58Z</time>
      </trkpt>
      <trkpt lat="49.63765" lon="-1.23643">
        <ele>4.1</ele>
        <time>2020-06-15T10:33:59Z</time>
      </trkpt>
      <trkpt lat="49.63762" lon="-1.23645">
        <ele>4</ele>
        <time>2020-06-15T10:34:00Z</time>
      </trkpt>
      <trkpt lat="49.63759" lon="-1.23646">
        <ele>4</ele>
        <time>2020-06-15T10:34:01Z</time>
      </trkpt>
      <trkpt lat="49.63755" lon="-1.23646">
        <ele>3.9</ele>
        <time>2020-06-15T10:34:02Z</time>
      </trkpt>
      <trkpt lat="49.63752" lon="-1.23646">
        <ele>3.8</ele>
        <time>2020-06-15T10:34:03Z</time>
      </trkpt>
      <trkpt lat="49.63749" lon="-1.23647">
        <ele>3.8</ele>
        <time>2020-06-15T10:34:04Z</time>
      </trkpt>
      <trkpt lat="49.63746" lon="-1.23648">
        <ele>3.7</ele>
        <time>2020-06-15T10:34:05Z</time>
      </trkpt>
      <trkpt lat="49.63743" lon="-1.2365">
        <ele>3.7</ele>
        <time>2020-06-15T10:34:06Z</time>
      </trkpt>
      <trkpt lat="49.63739" lon="-1.2365">
        <ele>3.6</ele>
        <time>2020-06-15T10:34:07Z</time>
      </trkpt>
      <trkpt lat="49.63736" lon="-1.2365">
        <ele>3.6</ele>
        <time>2020-06-15T10:34:08Z</time>
      </trkpt>
      <trkpt lat="49.63732" lon="-1.23649">
        <ele>3.5</ele>
        <time>2020-06-15T10:34:09Z</time>
      </trkpt>
      <trkpt lat="49.63729" lon="-1.2365">
        <ele>3.4</ele>
        <time>2020-06-15T10:34:10Z</time>
      </trkpt>
      <trkpt lat="49.63725" lon="-1.23649">
        <ele>3.3</ele>
        <time>2020-06-15T10:34:11Z</time>
      </trkpt>
      <trkpt lat="49.63722" lon="-1.23649">
        <ele>3.3</ele>
        <time>2020-06-15T10:34:12Z</time>
      </trkpt>
      <trkpt lat="49.63717" lon="-1.2365">
        <ele>3.2</ele>
        <time>2020-06-15T10:34:13Z</time>
      </trkpt>
      <trkpt lat="49.63713" lon="-1.2365">
        <ele>3.1</ele>
        <time>2020-06-15T10:34:14Z</time>
      </trkpt>
      <trkpt lat="49.63709" lon="-1.23648">
        <ele>3</ele>
        <time>2020-06-15T10:34:15Z</time>
      </trkpt>
      <trkpt lat="49.63703" lon="-1.23648">
        <ele>3</ele>
        <time>2020-06-15T10:34:16Z</time>
      </trkpt>
      <trkpt lat="49.63699" lon="-1.23646">
        <ele>2.9</ele>
        <time>2020-06-15T10:34:17Z</time>
      </trkpt>
      <trkpt lat="49.63693" lon="-1.23645">
        <ele>2.9</ele>
        <time>2020-06-15T10:34:18Z</time>
      </trkpt>
      <trkpt lat="49.63688" lon="-1.23645">
        <ele>2.8</ele>
        <time>2020-06-15T10:34:19Z</time>
      </trkpt>
      <trkpt lat="49.63683" lon="-1.23645">
        <ele>2.8</ele>
        <time>2020-06-15T10:34:20Z</time>
      </trkpt>
      <trkpt lat="49.63678" lon="-1.23643">
        <ele>2.8</ele>
        <time>2020-06-15T10:34:21Z</time>
      </trkpt>
      <trkpt lat="49.63673" lon="-1.23642">
        <ele>2.8</ele>
        <time>2020-06-15T10:34:22Z</time>
      </trkpt>
      <trkpt lat="49.63669" lon="-1.2364">
        <ele>2.9</ele>
        <time>2020-06-15T10:34:23Z</time>
      </trkpt>
      <trkpt lat="49.63664" lon="-1.23637">
        <ele>2.9</ele>
        <time>2020-06-15T10:34:24Z</time>
      </trkpt>
      <trkpt lat="49.6366" lon="-1.23634">
        <ele>3</ele>
        <time>2020-06-15T10:34:25Z</time>
      </trkpt>
      <trkpt lat="49.63654" lon="-1.23633">
        <ele>3.1</ele>
        <time>2020-06-15T10:34:26Z</time>
      </trkpt>
      <trkpt lat="49.63649" lon="-1.23632">
        <ele>3.2</ele>
        <time>2020-06-15T10:34:27Z</time>
      </trkpt>
      <trkpt lat="49.63644" lon="-1.2363">
        <ele>3.2</ele>
        <time>2020-06-15T10:34:28Z</time>
      </trkpt>
      <trkpt lat="49.63639" lon="-1.23628">
        <ele>3.3</ele>
        <time>2020-06-15T10:34:29Z</time>
      </trkpt>
      <trkpt lat="49.63634" lon="-1.23626">
        <ele>3.3</ele>
        <time>2020-06-15T10:34:30Z</time>
      </trkpt>
      <trkpt lat="49.6363" lon="-1.23623">
        <ele>3.4</ele>
        <time>2020-06-15T10:34:31Z</time>
      </trkpt>
      <trkpt lat="49.63626" lon="-1.23622">
        <ele>3.4</ele>
        <time>2020-06-15T10:34:32Z</time>
      </trkpt>
      <trkpt lat="49.63622" lon="-1.2362">
        <ele>3.5</ele>
        <time>2020-06-15T10:34:33Z</time>
      </trkpt>
      <trkpt lat="49.63619" lon="-1.23619">
        <ele>3.5</ele>
        <time>2020-06-15T10:34:34Z</time>
      </trkpt>
      <trkpt lat="49.63616" lon="-1.23617">
        <ele>3.5</ele>
        <time>2020-06-15T10:34:35Z</time>
      </trkpt>
      <trkpt lat="49.63613" lon="-1.23616">
        <ele>3.5</ele>
        <time>2020-06-15T10:34:36Z</time>
      </trkpt>
      <trkpt lat="49.63612" lon="-1.23615">
        <ele>3.5</ele>
        <time>2020-06-15T10:34:37Z</time>
      </trkpt>
      <trkpt lat="49.63609" lon="-1.23614">
        <ele>3.6</ele>
        <time>2020-06-15T10:34:38Z</time>
      </trkpt>
      <trkpt lat="49.63606" lon="-1.23612">
        <ele>3.6</ele>
        <time>2020-06-15T10:34:39Z</time>
      </trkpt>
      <trkpt lat="49.63604" lon="-1.23611">
        <ele>3.6</ele>
        <time>2020-06-15T10:34:40Z</time>
      </trkpt>
      <trkpt lat="49.63602" lon="-1.2361">
        <ele>3.6</ele>
        <time>2020-06-15T10:34:41Z</time>
      </trkpt>
      <trkpt lat="49.63598" lon="-1.23609">
        <ele>3.7</ele>
        <time>2020-06-15T10:34:42Z</time>
      </trkpt>
      <trkpt lat="49.63596" lon="-1.23609">
        <ele>3.7</ele>
        <time>2020-06-15T10:34:43Z</time>
      </trkpt>
      <trkpt lat="49.63593" lon="-1.23608">
        <ele>3.7</ele>
        <time>2020-06-15T10:34:44Z</time>
      </trkpt>
      <trkpt lat="49.6359" lon="-1.23606">
        <ele>3.6</ele>
        <time>2020-06-15T10:34:45Z</time>
      </trkpt>
      <trkpt lat="49.63586" lon="-1.23604">
        <ele>3.5</ele>
        <time>2020-06-15T10:34:46Z</time>
      </trkpt>
      <trkpt lat="49.63583" lon="-1.23602">
        <ele>3.4</ele>
        <time>2020-06-15T10:34:47Z</time>
      </trkpt>
      <trkpt lat="49.6358" lon="-1.23602">
        <ele>3.4</ele>
        <time>2020-06-15T10:34:48Z</time>
      </trkpt>
      <trkpt lat="49.63577" lon="-1.23601">
        <ele>3.4</ele>
        <time>2020-06-15T10:34:49Z</time>
      </trkpt>
      <trkpt lat="49.63573" lon="-1.236">
        <ele>3.4</ele>
        <time>2020-06-15T10:34:50Z</time>
      </trkpt>
      <trkpt lat="49.63572" lon="-1.23599">
        <ele>3.4</ele>
        <time>2020-06-15T10:34:51Z</time>
      </trkpt>
      <trkpt lat="49.63569" lon="-1.23598">
        <ele>3.4</ele>
        <time>2020-06-15T10:34:52Z</time>
      </trkpt>
      <trkpt lat="49.63567" lon="-1.23596">
        <ele>3.4</ele>
        <time>2020-06-15T10:34:53Z</time>
      </trkpt>
      <trkpt lat="49.63564" lon="-1.23595">
        <ele>3.4</ele>
        <time>2020-06-15T10:34:54Z</time>
      </trkpt>
      <trkpt lat="49.63562" lon="-1.23595">
        <ele>3.4</ele>
        <time>2020-06-15T10:34:55Z</time>
      </trkpt>
      <trkpt lat="49.6356" lon="-1.23595">
        <ele>3.4</ele>
        <time>2020-06-15T10:34:56Z</time>
      </trkpt>
      <trkpt lat="49.63559" lon="-1.23595">
        <ele>3.4</ele>
        <time>2020-06-15T10:34:57Z</time>
      </trkpt>
      <trkpt lat="49.63557" lon="-1.23594">
        <ele>3.4</ele>
        <time>2020-06-15T10:34:58Z</time>
      </trkpt>
      <trkpt lat="49.63553" lon="-1.23594">
        <ele>3.4</ele>
        <time>2020-06-15T10:34:59Z</time>
      </trkpt>
      <trkpt lat="49.63552" lon="-1.23594">
        <ele>3.4</ele>
        <time>2020-06-15T10:35:00Z</time>
      </trkpt>
      <trkpt lat="49.63549" lon="-1.23593">
        <ele>3.4</ele>
        <time>2020-06-15T10:35:01Z</time>
      </trkpt>
      <trkpt lat="49.63546" lon="-1.23593">
        <ele>3.4</ele>
        <time>2020-06-15T10:35:02Z</time>
      </trkpt>
      <trkpt lat="49.63543" lon="-1.23593">
        <ele>3.4</ele>
        <time>2020-06-15T10:35:03Z</time>
      </trkpt>
      <trkpt lat="49.6354" lon="-1.23593">
        <ele>3.4</ele>
        <time>2020-06-15T10:35:04Z</time>
      </trkpt>
      <trkpt lat="49.63537" lon="-1.23594">
        <ele>3.4</ele>
        <time>2020-06-15T10:35:05Z</time>
      </trkpt>
      <trkpt lat="49.63533" lon="-1.23595">
        <ele>3.4</ele>
        <time>2020-06-15T10:35:06Z</time>
      </trkpt>
      <trkpt lat="49.6353" lon="-1.23596">
        <ele>3.4</ele>
        <time>2020-06-15T10:35:07Z</time>
      </trkpt>
      <trkpt lat="49.63525" lon="-1.23597">
        <ele>3.4</ele>
        <time>2020-06-15T10:35:08Z</time>
      </trkpt>
      <trkpt lat="49.63521" lon="-1.23597">
        <ele>3.4</ele>
        <time>2020-06-15T10:35:09Z</time>
      </trkpt>
      <trkpt lat="49.63518" lon="-1.23598">
        <ele>3.4</ele>
        <time>2020-06-15T10:35:10Z</time>
      </trkpt>
      <trkpt lat="49.63514" lon="-1.23598">
        <ele>3.4</ele>
        <time>2020-06-15T10:35:11Z</time>
      </trkpt>
      <trkpt lat="49.63511" lon="-1.23599">
        <ele>3.4</ele>
        <time>2020-06-15T10:35:12Z</time>
      </trkpt>
      <trkpt lat="49.63507" lon="-1.236">
        <ele>3.4</ele>
        <time>2020-06-15T10:35:13Z</time>
      </trkpt>
      <trkpt lat="49.63504" lon="-1.23601">
        <ele>3.4</ele>
        <time>2020-06-15T10:35:14Z</time>
      </trkpt>
      <trkpt lat="49.63501" lon="-1.23602">
        <ele>3.5</ele>
        <time>2020-06-15T10:35:15Z</time>
      </trkpt>
      <trkpt lat="49.63498" lon="-1.23604">
        <ele>3.5</ele>
        <time>2020-06-15T10:35:16Z</time>
      </trkpt>
      <trkpt lat="49.63494" lon="-1.23604">
        <ele>3.6</ele>
        <time>2020-06-15T10:35:17Z</time>
      </trkpt>
      <trkpt lat="49.63489" lon="-1.23606">
        <ele>3.6</ele>
        <time>2020-06-15T10:35:18Z</time>
      </trkpt>
      <trkpt lat="49.63485" lon="-1.23607">
        <ele>3.7</ele>
        <time>2020-06-15T10:35:19Z</time>
      </trkpt>
      <trkpt lat="49.6348" lon="-1.23607">
        <ele>3.8</ele>
        <time>2020-06-15T10:35:20Z</time>
      </trkpt>
      <trkpt lat="49.63475" lon="-1.23608">
        <ele>3.9</ele>
        <time>2020-06-15T10:35:21Z</time>
      </trkpt>
      <trkpt lat="49.6347" lon="-1.23608">
        <ele>3.9</ele>
        <time>2020-06-15T10:35:22Z</time>
      </trkpt>
      <trkpt lat="49.63465" lon="-1.23608">
        <ele>4</ele>
        <time>2020-06-15T10:35:23Z</time>
      </trkpt>
      <trkpt lat="49.63461" lon="-1.23607">
        <ele>4</ele>
        <time>2020-06-15T10:35:24Z</time>
      </trkpt>
      <trkpt lat="49.63458" lon="-1.23607">
        <ele>4</ele>
        <time>2020-06-15T10:35:25Z</time>
      </trkpt>
      <trkpt lat="49.63454" lon="-1.23606">
        <ele>4</ele>
        <time>2020-06-15T10:35:26Z</time>
      </trkpt>
      <trkpt lat="49.63451" lon="-1.23605">
        <ele>3.9</ele>
        <time>2020-06-15T10:35:27Z</time>
      </trkpt>
      <trkpt lat="49.63447" lon="-1.23604">
        <ele>3.9</ele>
        <time>2020-06-15T10:35:28Z</time>
      </trkpt>
      <trkpt lat="49.63444" lon="-1.23603">
        <ele>3.8</ele>
        <time>2020-06-15T10:35:29Z</time>
      </trkpt>
      <trkpt lat="49.6344" lon="-1.23602">
        <ele>3.8</ele>
        <time>2020-06-15T10:35:30Z</time>
      </trkpt>
      <trkpt lat="49.63436" lon="-1.23601">
        <ele>3.7</ele>
        <time>2020-06-15T10:35:31Z</time>
      </trkpt>
      <trkpt lat="49.63432" lon="-1.236">
        <ele>3.7</ele>
        <time>2020-06-15T10:35:32Z</time>
      </trkpt>
      <trkpt lat="49.63429" lon="-1.23598">
        <ele>3.7</ele>
        <time>2020-06-15T10:35:33Z</time>
      </trkpt>
      <trkpt lat="49.63426" lon="-1.23597">
        <ele>3.7</ele>
        <time>2020-06-15T10:35:34Z</time>
      </trkpt>
      <trkpt lat="49.63423" lon="-1.23597">
        <ele>3.7</ele>
        <time>2020-06-15T10:35:35Z</time>
      </trkpt>
      <trkpt lat="49.6342" lon="-1.23597">
        <ele>3.7</ele>
        <time>2020-06-15T10:35:36Z</time>
      </trkpt>
      <trkpt lat="49.63417" lon="-1.23596">
        <ele>3.7</ele>
        <time>2020-06-15T10:35:37Z</time>
      </trkpt>
      <trkpt lat="49.63414" lon="-1.23595">
        <ele>3.6</ele>
        <time>2020-06-15T10:35:38Z</time>
      </trkpt>
      <trkpt lat="49.63411" lon="-1.23593">
        <ele>3.6</ele>
        <time>2020-06-15T10:35:39Z</time>
      </trkpt>
      <trkpt lat="49.63407" lon="-1.23595">
        <ele>3.6</ele>
        <time>2020-06-15T10:35:40Z</time>
      </trkpt>
      <trkpt lat="49.63403" lon="-1.23597">
        <ele>3.6</ele>
        <time>2020-06-15T10:35:41Z</time>
      </trkpt>
      <trkpt lat="49.63402" lon="-1.23599">
        <ele>3.6</ele>
        <time>2020-06-15T10:35:42Z</time>
      </trkpt>
      <trkpt lat="49.634" lon="-1.23602">
        <ele>3.6</ele>
        <time>2020-06-15T10:35:43Z</time>
      </trkpt>
      <trkpt lat="49.63398" lon="-1.23604">
        <ele>3.6</ele>
        <time>2020-06-15T10:35:44Z</time>
      </trkpt>
      <trkpt lat="49.63395" lon="-1.23607">
        <ele>3.6</ele>
        <time>2020-06-15T10:35:45Z</time>
      </trkpt>
      <trkpt lat="49.63393" lon="-1.23611">
        <ele>3.6</ele>
        <time>2020-06-15T10:35:46Z</time>
      </trkpt>
      <trkpt lat="49.6339" lon="-1.23616">
        <ele>3.6</ele>
        <time>2020-06-15T10:35:47Z</time>
      </trkpt>
      <trkpt lat="49.63388" lon="-1.23622">
        <ele>3.6</ele>
        <time>2020-06-15T10:35:48Z</time>
      </trkpt>
      <trkpt lat="49.63386" lon="-1.23627">
        <ele>3.6</ele>
        <time>2020-06-15T10:35:49Z</time>
      </trkpt>
      <trkpt lat="49.63384" lon="-1.23632">
        <ele>3.7</ele>
        <time>2020-06-15T10:35:50Z</time>
      </trkpt>
      <trkpt lat="49.63382" lon="-1.23637">
        <ele>3.7</ele>
        <time>2020-06-15T10:35:51Z</time>
      </trkpt>
      <trkpt lat="49.6338" lon="-1.23643">
        <ele>3.8</ele>
        <time>2020-06-15T10:35:52Z</time>
      </trkpt>
      <trkpt lat="49.63378" lon="-1.2365">
        <ele>3.9</ele>
        <time>2020-06-15T10:35:53Z</time>
      </trkpt>
      <trkpt lat="49.63376" lon="-1.23655">
        <ele>3.9</ele>
        <time>2020-06-15T10:35:54Z</time>
      </trkpt>
      <trkpt lat="49.63373" lon="-1.23658">
        <ele>4</ele>
        <time>2020-06-15T10:35:55Z</time>
      </trkpt>
      <trkpt lat="49.63372" lon="-1.23663">
        <ele>4</ele>
        <time>2020-06-15T10:35:56Z</time>
      </trkpt>
      <trkpt lat="49.6337" lon="-1.23667">
        <ele>4.1</ele>
        <time>2020-06-15T10:35:57Z</time>
      </trkpt>
      <trkpt lat="49.63368" lon="-1.23671">
        <ele>4.1</ele>
        <time>2020-06-15T10:35:58Z</time>
      </trkpt>
      <trkpt lat="49.63366" lon="-1.23676">
        <ele>4.2</ele>
        <time>2020-06-15T10:35:59Z</time>
      </trkpt>
      <trkpt lat="49.63364" lon="-1.23681">
        <ele>4.3</ele>
        <time>2020-06-15T10:36:00Z</time>
      </trkpt>
      <trkpt lat="49.63362" lon="-1.23686">
        <ele>4.3</ele>
        <time>2020-06-15T10:36:01Z</time>
      </trkpt>
      <trkpt lat="49.6336" lon="-1.2369">
        <ele>4.4</ele>
        <time>2020-06-15T10:36:02Z</time>
      </trkpt>
      <trkpt lat="49.63357" lon="-1.23694">
        <ele>4.5</ele>
        <time>2020-06-15T10:36:03Z</time>
      </trkpt>
      <trkpt lat="49.63355" lon="-1.23698">
        <ele>4.5</ele>
        <time>2020-06-15T10:36:04Z</time>
      </trkpt>
      <trkpt lat="49.63353" lon="-1.23701">
        <ele>4.6</ele>
        <time>2020-06-15T10:36:05Z</time>
      </trkpt>
      <trkpt lat="49.63351" lon="-1.23706">
        <ele>4.7</ele>
        <time>2020-06-15T10:36:06Z</time>
      </trkpt>
      <trkpt lat="49.63349" lon="-1.2371">
        <ele>4.8</ele>
        <time>2020-06-15T10:36:07Z</time>
      </trkpt>
      <trkpt lat="49.63348" lon="-1.23715">
        <ele>4.9</ele>
        <time>2020-06-15T10:36:08Z</time>
      </trkpt>
      <trkpt lat="49.63346" lon="-1.2372">
        <ele>4.9</ele>
        <time>2020-06-15T10:36:09Z</time>
      </trkpt>
      <trkpt lat="49.63344" lon="-1.23724">
        <ele>5</ele>
        <time>2020-06-15T10:36:10Z</time>
      </trkpt>
      <trkpt lat="49.63341" lon="-1.23728">
        <ele>5.1</ele>
        <time>2020-06-15T10:36:11Z</time>
      </trkpt>
      <trkpt lat="49.6334" lon="-1.2373">
        <ele>5.1</ele>
        <time>2020-06-15T10:36:12Z</time>
      </trkpt>
      <trkpt lat="49.63338" lon="-1.23734">
        <ele>5.2</ele>
        <time>2020-06-15T10:36:13Z</time>
      </trkpt>
      <trkpt lat="49.63336" lon="-1.23739">
        <ele>5.2</ele>
        <time>2020-06-15T10:36:14Z</time>
      </trkpt>
      <trkpt lat="49.63334" lon="-1.23743">
        <ele>5.3</ele>
        <time>2020-06-15T10:36:15Z</time>
      </trkpt>
      <trkpt lat="49.63332" lon="-1.23749">
        <ele>5.3</ele>
        <time>2020-06-15T10:36:16Z</time>
      </trkpt>
      <trkpt lat="49.6333" lon="-1.23753">
        <ele>5.3</ele>
        <time>2020-06-15T10:36:17Z</time>
      </trkpt>
      <trkpt lat="49.63329" lon="-1.23758">
        <ele>5.3</ele>
        <time>2020-06-15T10:36:18Z</time>
      </trkpt>
      <trkpt lat="49.63326" lon="-1.23764">
        <ele>5.4</ele>
        <time>2020-06-15T10:36:19Z</time>
      </trkpt>
      <trkpt lat="49.63325" lon="-1.23769">
        <ele>5.4</ele>
        <time>2020-06-15T10:36:20Z</time>
      </trkpt>
      <trkpt lat="49.63323" lon="-1.23775">
        <ele>5.4</ele>
        <time>2020-06-15T10:36:21Z</time>
      </trkpt>
      <trkpt lat="49.63321" lon="-1.2378">
        <ele>5.5</ele>
        <time>2020-06-15T10:36:22Z</time>
      </trkpt>
      <trkpt lat="49.6332" lon="-1.23785">
        <ele>5.6</ele>
        <time>2020-06-15T10:36:23Z</time>
      </trkpt>
      <trkpt lat="49.63318" lon="-1.2379">
        <ele>5.7</ele>
        <time>2020-06-15T10:36:24Z</time>
      </trkpt>
      <trkpt lat="49.63317" lon="-1.23795">
        <ele>5.8</ele>
        <time>2020-06-15T10:36:25Z</time>
      </trkpt>
      <trkpt lat="49.63315" lon="-1.23802">
        <ele>5.9</ele>
        <time>2020-06-15T10:36:26Z</time>
      </trkpt>
      <trkpt lat="49.63314" lon="-1.23807">
        <ele>6</ele>
        <time>2020-06-15T10:36:27Z</time>
      </trkpt>
      <trkpt lat="49.63313" lon="-1.23812">
        <ele>6.1</ele>
        <time>2020-06-15T10:36:28Z</time>
      </trkpt>
      <trkpt lat="49.63313" lon="-1.23819">
        <ele>6.2</ele>
        <time>2020-06-15T10:36:29Z</time>
      </trkpt>
      <trkpt lat="49.63312" lon="-1.23825">
        <ele>6.4</ele>
        <time>2020-06-15T10:36:30Z</time>
      </trkpt>
      <trkpt lat="49.63313" lon="-1.23831">
        <ele>6.5</ele>
        <time>2020-06-15T10:36:31Z</time>
      </trkpt>
      <trkpt lat="49.63312" lon="-1.23836">
        <ele>6.6</ele>
        <time>2020-06-15T10:36:32Z</time>
      </trkpt>
      <trkpt lat="49.63311" lon="-1.23841">
        <ele>6.7</ele>
        <time>2020-06-15T10:36:33Z</time>
      </trkpt>
      <trkpt lat="49.63311" lon="-1.23846">
        <ele>6.8</ele>
        <time>2020-06-15T10:36:34Z</time>
      </trkpt>
      <trkpt lat="49.6331" lon="-1.23851">
        <ele>6.9</ele>
        <time>2020-06-15T10:36:35Z</time>
      </trkpt>
      <trkpt lat="49.6331" lon="-1.23855">
        <ele>7</ele>
        <time>2020-06-15T10:36:36Z</time>
      </trkpt>
      <trkpt lat="49.63309" lon="-1.23861">
        <ele>7.1</ele>
        <time>2020-06-15T10:36:37Z</time>
      </trkpt>
      <trkpt lat="49.63309" lon="-1.23863">
        <ele>7.1</ele>
        <time>2020-06-15T10:36:38Z</time>
      </trkpt>
      <trkpt lat="49.63309" lon="-1.23868">
        <ele>7.2</ele>
        <time>2020-06-15T10:36:39Z</time>
      </trkpt>
      <trkpt lat="49.63309" lon="-1.23873">
        <ele>7.3</ele>
        <time>2020-06-15T10:36:40Z</time>
      </trkpt>
      <trkpt lat="49.63309" lon="-1.23878">
        <ele>7.4</ele>
        <time>2020-06-15T10:36:41Z</time>
      </trkpt>
      <trkpt lat="49.63309" lon="-1.23884">
        <ele>7.4</ele>
        <time>2020-06-15T10:36:42Z</time>
      </trkpt>
      <trkpt lat="49.6331" lon="-1.23889">
        <ele>7.5</ele>
        <time>2020-06-15T10:36:43Z</time>
      </trkpt>
      <trkpt lat="49.6331" lon="-1.23893">
        <ele>7.6</ele>
        <time>2020-06-15T10:36:44Z</time>
      </trkpt>
      <trkpt lat="49.6331" lon="-1.23898">
        <ele>7.6</ele>
        <time>2020-06-15T10:36:45Z</time>
      </trkpt>
      <trkpt lat="49.63309" lon="-1.23902">
        <ele>7.6</ele>
        <time>2020-06-15T10:36:46Z</time>
      </trkpt>
      <trkpt lat="49.63309" lon="-1.23906">
        <ele>7.7</ele>
        <time>2020-06-15T10:36:47Z</time>
      </trkpt>
      <trkpt lat="49.63308" lon="-1.23912">
        <ele>7.7</ele>
        <time>2020-06-15T10:36:48Z</time>
      </trkpt>
      <trkpt lat="49.63307" lon="-1.23914">
        <ele>7.7</ele>
        <time>2020-06-15T10:36:49Z</time>
      </trkpt>
      <trkpt lat="49.63306" lon="-1.23919">
        <ele>7.8</ele>
        <time>2020-06-15T10:36:50Z</time>
      </trkpt>
      <trkpt lat="49.63305" lon="-1.23924">
        <ele>7.8</ele>
        <time>2020-06-15T10:36:51Z</time>
      </trkpt>
      <trkpt lat="49.63303" lon="-1.23929">
        <ele>7.9</ele>
        <time>2020-06-15T10:36:52Z</time>
      </trkpt>
      <trkpt lat="49.63301" lon="-1.23933">
        <ele>7.9</ele>
        <time>2020-06-15T10:36:53Z</time>
      </trkpt>
      <trkpt lat="49.633" lon="-1.23938">
        <ele>7.9</ele>
        <time>2020-06-15T10:36:54Z</time>
      </trkpt>
      <trkpt lat="49.63297" lon="-1.23943">
        <ele>8</ele>
        <time>2020-06-15T10:36:55Z</time>
      </trkpt>
      <trkpt lat="49.63297" lon="-1.23946">
        <ele>8</ele>
        <time>2020-06-15T10:36:56Z</time>
      </trkpt>
      <trkpt lat="49.63296" lon="-1.23951">
        <ele>8.1</ele>
        <time>2020-06-15T10:36:57Z</time>
      </trkpt>
      <trkpt lat="49.63295" lon="-1.23957">
        <ele>8.2</ele>
        <time>2020-06-15T10:36:58Z</time>
      </trkpt>
      <trkpt lat="49.63294" lon="-1.23962">
        <ele>8.3</ele>
        <time>2020-06-15T10:36:59Z</time>
      </trkpt>
      <trkpt lat="49.63293" lon="-1.23967">
        <ele>8.4</ele>
        <time>2020-06-15T10:37:00Z</time>
      </trkpt>
      <trkpt lat="49.63291" lon="-1.23972">
        <ele>8.4</ele>
        <time>2020-06-15T10:37:01Z</time>
      </trkpt>
      <trkpt lat="49.6329" lon="-1.23977">
        <ele>8.5</ele>
        <time>2020-06-15T10:37:02Z</time>
      </trkpt>
      <trkpt lat="49.63288" lon="-1.23982">
        <ele>8.6</ele>
        <time>2020-06-15T10:37:03Z</time>
      </trkpt>
      <trkpt lat="49.63287" lon="-1.23986">
        <ele>8.7</ele>
        <time>2020-06-15T10:37:04Z</time>
      </trkpt>
      <trkpt lat="49.63286" lon="-1.23991">
        <ele>8.8</ele>
        <time>2020-06-15T10:37:05Z</time>
      </trkpt>
      <trkpt lat="49.63285" lon="-1.23997">
        <ele>8.9</ele>
        <time>2020-06-15T10:37:06Z</time>
      </trkpt>
      <trkpt lat="49.63283" lon="-1.24">
        <ele>8.9</ele>
        <time>2020-06-15T10:37:07Z</time>
      </trkpt>
      <trkpt lat="49.63282" lon="-1.24005">
        <ele>9</ele>
        <time>2020-06-15T10:37:08Z</time>
      </trkpt>
      <trkpt lat="49.63281" lon="-1.24009">
        <ele>9.1</ele>
        <time>2020-06-15T10:37:09Z</time>
      </trkpt>
      <trkpt lat="49.6328" lon="-1.24014">
        <ele>9.2</ele>
        <time>2020-06-15T10:37:10Z</time>
      </trkpt>
      <trkpt lat="49.63279" lon="-1.24019">
        <ele>9.3</ele>
        <time>2020-06-15T10:37:11Z</time>
      </trkpt>
      <trkpt lat="49.63278" lon="-1.24024">
        <ele>9.3</ele>
        <time>2020-06-15T10:37:12Z</time>
      </trkpt>
      <trkpt lat="49.63276" lon="-1.2403">
        <ele>9.4</ele>
        <time>2020-06-15T10:37:13Z</time>
      </trkpt>
      <trkpt lat="49.63275" lon="-1.24035">
        <ele>9.5</ele>
        <time>2020-06-15T10:37:14Z</time>
      </trkpt>
      <trkpt lat="49.63275" lon="-1.24041">
        <ele>9.5</ele>
        <time>2020-06-15T10:37:15Z</time>
      </trkpt>
      <trkpt lat="49.63274" lon="-1.24046">
        <ele>9.6</ele>
        <time>2020-06-15T10:37:16Z</time>
      </trkpt>
      <trkpt lat="49.63273" lon="-1.24051">
        <ele>9.7</ele>
        <time>2020-06-15T10:37:17Z</time>
      </trkpt>
      <trkpt lat="49.63273" lon="-1.24056">
        <ele>9.7</ele>
        <time>2020-06-15T10:37:18Z</time>
      </trkpt>
      <trkpt lat="49.63272" lon="-1.24061">
        <ele>9.8</ele>
        <time>2020-06-15T10:37:19Z</time>
      </trkpt>
      <trkpt lat="49.63271" lon="-1.24067">
        <ele>9.9</ele>
        <time>2020-06-15T10:37:20Z</time>
      </trkpt>
      <trkpt lat="49.6327" lon="-1.24072">
        <ele>9.9</ele>
        <time>2020-06-15T10:37:21Z</time>
      </trkpt>
      <trkpt lat="49.63271" lon="-1.24078">
        <ele>10</ele>
        <time>2020-06-15T10:37:22Z</time>
      </trkpt>
      <trkpt lat="49.6327" lon="-1.24083">
        <ele>10</ele>
        <time>2020-06-15T10:37:23Z</time>
      </trkpt>
      <trkpt lat="49.6327" lon="-1.24088">
        <ele>10</ele>
        <time>2020-06-15T10:37:24Z</time>
      </trkpt>
      <trkpt lat="49.63269" lon="-1.24093">
        <ele>10</ele>
        <time>2020-06-15T10:37:25Z</time>
      </trkpt>
      <trkpt lat="49.63268" lon="-1.24098">
        <ele>10</ele>
        <time>2020-06-15T10:37:26Z</time>
      </trkpt>
      <trkpt lat="49.63267" lon="-1.24102">
        <ele>9.9</ele>
        <time>2020-06-15T10:37:27Z</time>
      </trkpt>
      <trkpt lat="49.63266" lon="-1.24107">
        <ele>9.9</ele>
        <time>2020-06-15T10:37:28Z</time>
      </trkpt>
      <trkpt lat="49.63264" lon="-1.24112">
        <ele>9.9</ele>
        <time>2020-06-15T10:37:29Z</time>
      </trkpt>
      <trkpt lat="49.63264" lon="-1.24117">
        <ele>9.9</ele>
        <time>2020-06-15T10:37:30Z</time>
      </trkpt>
      <trkpt lat="49.63264" lon="-1.24119">
        <ele>9.9</ele>
        <time>2020-06-15T10:37:31Z</time>
      </trkpt>
      <trkpt lat="49.63264" lon="-1.24124">
        <ele>9.9</ele>
        <time>2020-06-15T10:37:32Z</time>
      </trkpt>
      <trkpt lat="49.63264" lon="-1.24126">
        <ele>9.9</ele>
        <time>2020-06-15T10:37:33Z</time>
      </trkpt>
      <trkpt lat="49.63264" lon="-1.24131">
        <ele>9.9</ele>
        <time>2020-06-15T10:37:34Z</time>
      </trkpt>
      <trkpt lat="49.63265" lon="-1.24137">
        <ele>9.9</ele>
        <time>2020-06-15T10:37:35Z</time>
      </trkpt>
      <trkpt lat="49.63265" lon="-1.24144">
        <ele>9.8</ele>
        <time>2020-06-15T10:37:36Z</time>
      </trkpt>
      <trkpt lat="49.63265" lon="-1.24152">
        <ele>9.8</ele>
        <time>2020-06-15T10:37:37Z</time>
      </trkpt>
      <trkpt lat="49.63266" lon="-1.24158">
        <ele>9.7</ele>
        <time>2020-06-15T10:37:38Z</time>
      </trkpt>
      <trkpt lat="49.63265" lon="-1.24165">
        <ele>9.6</ele>
        <time>2020-06-15T10:37:39Z</time>
      </trkpt>
      <trkpt lat="49.63265" lon="-1.24172">
        <ele>9.5</ele>
        <time>2020-06-15T10:37:40Z</time>
      </trkpt>
      <trkpt lat="49.63266" lon="-1.2418">
        <ele>9.4</ele>
        <time>2020-06-15T10:37:41Z</time>
      </trkpt>
      <trkpt lat="49.63266" lon="-1.24187">
        <ele>9.3</ele>
        <time>2020-06-15T10:37:42Z</time>
      </trkpt>
      <trkpt lat="49.63266" lon="-1.24194">
        <ele>9.3</ele>
        <time>2020-06-15T10:37:43Z</time>
      </trkpt>
      <trkpt lat="49.63265" lon="-1.24201">
        <ele>9.2</ele>
        <time>2020-06-15T10:37:44Z</time>
      </trkpt>
      <trkpt lat="49.63265" lon="-1.24208">
        <ele>9.2</ele>
        <time>2020-06-15T10:37:45Z</time>
      </trkpt>
      <trkpt lat="49.63263" lon="-1.24214">
        <ele>9.2</ele>
        <time>2020-06-15T10:37:46Z</time>
      </trkpt>
      <trkpt lat="49.63262" lon="-1.24221">
        <ele>9.2</ele>
        <time>2020-06-15T10:37:47Z</time>
      </trkpt>
      <trkpt lat="49.63262" lon="-1.24227">
        <ele>9.2</ele>
        <time>2020-06-15T10:37:48Z</time>
      </trkpt>
      <trkpt lat="49.63261" lon="-1.24234">
        <ele>9.2</ele>
        <time>2020-06-15T10:37:49Z</time>
      </trkpt>
      <trkpt lat="49.63261" lon="-1.2424">
        <ele>9.2</ele>
        <time>2020-06-15T10:37:50Z</time>
      </trkpt>
      <trkpt lat="49.6326" lon="-1.24245">
        <ele>9.2</ele>
        <time>2020-06-15T10:37:51Z</time>
      </trkpt>
      <trkpt lat="49.6326" lon="-1.24252">
        <ele>9.2</ele>
        <time>2020-06-15T10:37:52Z</time>
      </trkpt>
      <trkpt lat="49.63259" lon="-1.24257">
        <ele>9.2</ele>
        <time>2020-06-15T10:37:53Z</time>
      </trkpt>
      <trkpt lat="49.63257" lon="-1.24263">
        <ele>9.3</ele>
        <time>2020-06-15T10:37:54Z</time>
      </trkpt>
      <trkpt lat="49.63256" lon="-1.24268">
        <ele>9.3</ele>
        <time>2020-06-15T10:37:55Z</time>
      </trkpt>
      <trkpt lat="49.63256" lon="-1.24274">
        <ele>9.4</ele>
        <time>2020-06-15T10:37:56Z</time>
      </trkpt>
      <trkpt lat="49.63254" lon="-1.24278">
        <ele>9.4</ele>
        <time>2020-06-15T10:37:57Z</time>
      </trkpt>
      <trkpt lat="49.63254" lon="-1.24283">
        <ele>9.4</ele>
        <time>2020-06-15T10:37:58Z</time>
      </trkpt>
      <trkpt lat="49.63253" lon="-1.24288">
        <ele>9.5</ele>
        <time>2020-06-15T10:37:59Z</time>
      </trkpt>
      <trkpt lat="49.63253" lon="-1.24293">
        <ele>9.6</ele>
        <time>2020-06-15T10:38:00Z</time>
      </trkpt>
      <trkpt lat="49.63252" lon="-1.24299">
        <ele>9.5</ele>
        <time>2020-06-15T10:38:01Z</time>
      </trkpt>
      <trkpt lat="49.63252" lon="-1.243">
        <ele>9.4</ele>
        <time>2020-06-15T10:38:02Z</time>
      </trkpt>
      <trkpt lat="49.63251" lon="-1.24303">
        <ele>9.4</ele>
        <time>2020-06-15T10:38:03Z</time>
      </trkpt>
      <trkpt lat="49.6325" lon="-1.24305">
        <ele>9.3</ele>
        <time>2020-06-15T10:38:04Z</time>
      </trkpt>
      <trkpt lat="49.63247" lon="-1.24306">
        <ele>9.2</ele>
        <time>2020-06-15T10:38:05Z</time>
      </trkpt>
      <trkpt lat="49.63246" lon="-1.24306">
        <ele>9.2</ele>
        <time>2020-06-15T10:38:06Z</time>
      </trkpt>
      <trkpt lat="49.63243" lon="-1.24307">
        <ele>9.1</ele>
        <time>2020-06-15T10:38:07Z</time>
      </trkpt>
      <trkpt lat="49.6324" lon="-1.24307">
        <ele>9</ele>
        <time>2020-06-15T10:38:08Z</time>
      </trkpt>
      <trkpt lat="49.63235" lon="-1.24309">
        <ele>8.8</ele>
        <time>2020-06-15T10:38:09Z</time>
      </trkpt>
      <trkpt lat="49.63232" lon="-1.2431">
        <ele>8.6</ele>
        <time>2020-06-15T10:38:10Z</time>
      </trkpt>
      <trkpt lat="49.63228" lon="-1.24311">
        <ele>8.5</ele>
        <time>2020-06-15T10:38:11Z</time>
      </trkpt>
      <trkpt lat="49.63224" lon="-1.24313">
        <ele>8.3</ele>
        <time>2020-06-15T10:38:12Z</time>
      </trkpt>
      <trkpt lat="49.63219" lon="-1.24317">
        <ele>8.1</ele>
        <time>2020-06-15T10:38:13Z</time>
      </trkpt>
      <trkpt lat="49.63214" lon="-1.24319">
        <ele>7.9</ele>
        <time>2020-06-15T10:38:14Z</time>
      </trkpt>
      <trkpt lat="49.63208" lon="-1.24323">
        <ele>7.6</ele>
        <time>2020-06-15T10:38:15Z</time>
      </trkpt>
      <trkpt lat="49.63201" lon="-1.24327">
        <ele>7.4</ele>
        <time>2020-06-15T10:38:16Z</time>
      </trkpt>
      <trkpt lat="49.63194" lon="-1.2433">
        <ele>7.1</ele>
        <time>2020-06-15T10:38:17Z</time>
      </trkpt>
      <trkpt lat="49.63188" lon="-1.24333">
        <ele>6.9</ele>
        <time>2020-06-15T10:38:18Z</time>
      </trkpt>
      <trkpt lat="49.63181" lon="-1.24335">
        <ele>6.8</ele>
        <time>2020-06-15T10:38:19Z</time>
      </trkpt>
      <trkpt lat="49.63175" lon="-1.24338">
        <ele>6.7</ele>
        <time>2020-06-15T10:38:20Z</time>
      </trkpt>
      <trkpt lat="49.63169" lon="-1.24341">
        <ele>6.7</ele>
        <time>2020-06-15T10:38:21Z</time>
      </trkpt>
      <trkpt lat="49.63163" lon="-1.24343">
        <ele>6.6</ele>
        <time>2020-06-15T10:38:22Z</time>
      </trkpt>
      <trkpt lat="49.63156" lon="-1.24345">
        <ele>6.8</ele>
        <time>2020-06-15T10:38:23Z</time>
      </trkpt>
      <trkpt lat="49.6315" lon="-1.24347">
        <ele>6.9</ele>
        <time>2020-06-15T10:38:24Z</time>
      </trkpt>
      <trkpt lat="49.63144" lon="-1.2435">
        <ele>7</ele>
        <time>2020-06-15T10:38:25Z</time>
      </trkpt>
      <trkpt lat="49.63139" lon="-1.24353">
        <ele>7.1</ele>
        <time>2020-06-15T10:38:26Z</time>
      </trkpt>
      <trkpt lat="49.63134" lon="-1.24357">
        <ele>7.2</ele>
        <time>2020-06-15T10:38:27Z</time>
      </trkpt>
      <trkpt lat="49.63129" lon="-1.24361">
        <ele>7.4</ele>
        <time>2020-06-15T10:38:28Z</time>
      </trkpt>
      <trkpt lat="49.63127" lon="-1.24369">
        <ele>7.5</ele>
        <time>2020-06-15T10:38:29Z</time>
      </trkpt>
      <trkpt lat="49.63125" lon="-1.24377">
        <ele>7.7</ele>
        <time>2020-06-15T10:38:30Z</time>
      </trkpt>
      <trkpt lat="49.63123" lon="-1.24383">
        <ele>7.9</ele>
        <time>2020-06-15T10:38:31Z</time>
      </trkpt>
      <trkpt lat="49.6312" lon="-1.24388">
        <ele>8.1</ele>
        <time>2020-06-15T10:38:32Z</time>
      </trkpt>
      <trkpt lat="49.63117" lon="-1.24392">
        <ele>8.2</ele>
        <time>2020-06-15T10:38:33Z</time>
      </trkpt>
      <trkpt lat="49.63112" lon="-1.24394">
        <ele>8.3</ele>
        <time>2020-06-15T10:38:34Z</time>
      </trkpt>
      <trkpt lat="49.63109" lon="-1.24396">
        <ele>8.3</ele>
        <time>2020-06-15T10:38:35Z</time>
      </trkpt>
      <trkpt lat="49.63105" lon="-1.24397">
        <ele>8.4</ele>
        <time>2020-06-15T10:38:36Z</time>
      </trkpt>
      <trkpt lat="49.63102" lon="-1.24397">
        <ele>8.4</ele>
        <time>2020-06-15T10:38:37Z</time>
      </trkpt>
      <trkpt lat="49.63098" lon="-1.24396">
        <ele>8.4</ele>
        <time>2020-06-15T10:38:38Z</time>
      </trkpt>
      <trkpt lat="49.63095" lon="-1.24396">
        <ele>8.4</ele>
        <time>2020-06-15T10:38:39Z</time>
      </trkpt>
      <trkpt lat="49.63091" lon="-1.24394">
        <ele>8.4</ele>
        <time>2020-06-15T10:38:40Z</time>
      </trkpt>
      <trkpt lat="49.63087" lon="-1.24394">
        <ele>8.4</ele>
        <time>2020-06-15T10:38:41Z</time>
      </trkpt>
      <trkpt lat="49.63084" lon="-1.24393">
        <ele>8.3</ele>
        <time>2020-06-15T10:38:42Z</time>
      </trkpt>
      <trkpt lat="49.63079" lon="-1.24391">
        <ele>8.1</ele>
        <time>2020-06-15T10:38:43Z</time>
      </trkpt>
      <trkpt lat="49.63074" lon="-1.24389">
        <ele>7.9</ele>
        <time>2020-06-15T10:38:44Z</time>
      </trkpt>
      <trkpt lat="49.63068" lon="-1.24387">
        <ele>7.6</ele>
        <time>2020-06-15T10:38:45Z</time>
      </trkpt>
      <trkpt lat="49.63063" lon="-1.24385">
        <ele>7.4</ele>
        <time>2020-06-15T10:38:46Z</time>
      </trkpt>
      <trkpt lat="49.63058" lon="-1.24382">
        <ele>7.1</ele>
        <time>2020-06-15T10:38:47Z</time>
      </trkpt>
      <trkpt lat="49.63052" lon="-1.24378">
        <ele>6.9</ele>
        <time>2020-06-15T10:38:48Z</time>
      </trkpt>
      <trkpt lat="49.63045" lon="-1.24374">
        <ele>6.6</ele>
        <time>2020-06-15T10:38:49Z</time>
      </trkpt>
      <trkpt lat="49.63037" lon="-1.24372">
        <ele>6.5</ele>
        <time>2020-06-15T10:38:50Z</time>
      </trkpt>
      <trkpt lat="49.6303" lon="-1.2437">
        <ele>6.3</ele>
        <time>2020-06-15T10:38:51Z</time>
      </trkpt>
      <trkpt lat="49.63021" lon="-1.24368">
        <ele>6.1</ele>
        <time>2020-06-15T10:38:52Z</time>
      </trkpt>
      <trkpt lat="49.63013" lon="-1.24367">
        <ele>6</ele>
        <time>2020-06-15T10:38:53Z</time>
      </trkpt>
      <trkpt lat="49.63006" lon="-1.24366">
        <ele>5.9</ele>
        <time>2020-06-15T10:38:54Z</time>
      </trkpt>
      <trkpt lat="49.62999" lon="-1.24364">
        <ele>5.8</ele>
        <time>2020-06-15T10:38:55Z</time>
      </trkpt>
      <trkpt lat="49.62992" lon="-1.24362">
        <ele>5.8</ele>
        <time>2020-06-15T10:38:56Z</time>
      </trkpt>
      <trkpt lat="49.62985" lon="-1.24361">
        <ele>5.7</ele>
        <time>2020-06-15T10:38:57Z</time>
      </trkpt>
      <trkpt lat="49.62979" lon="-1.2436">
        <ele>5.7</ele>
        <time>2020-06-15T10:38:58Z</time>
      </trkpt>
      <trkpt lat="49.62972" lon="-1.24358">
        <ele>5.6</ele>
        <time>2020-06-15T10:38:59Z</time>
      </trkpt>
      <trkpt lat="49.62966" lon="-1.24357">
        <ele>5.6</ele>
        <time>2020-06-15T10:39:00Z</time>
      </trkpt>
      <trkpt lat="49.6296" lon="-1.24355">
        <ele>5.5</ele>
        <time>2020-06-15T10:39:01Z</time>
      </trkpt>
      <trkpt lat="49.62954" lon="-1.24352">
        <ele>5.5</ele>
        <time>2020-06-15T10:39:02Z</time>
      </trkpt>
      <trkpt lat="49.6295" lon="-1.24348">
        <ele>5.5</ele>
        <time>2020-06-15T10:39:03Z</time>
      </trkpt>
      <trkpt lat="49.62945" lon="-1.24347">
        <ele>5.5</ele>
        <time>2020-06-15T10:39:04Z</time>
      </trkpt>
      <trkpt lat="49.62939" lon="-1.24346">
        <ele>5.5</ele>
        <time>2020-06-15T10:39:05Z</time>
      </trkpt>
      <trkpt lat="49.62934" lon="-1.24345">
        <ele>5.5</ele>
        <time>2020-06-15T10:39:06Z</time>
      </trkpt>
      <trkpt lat="49.62929" lon="-1.24344">
        <ele>5.6</ele>
        <time>2020-06-15T10:39:07Z</time>
      </trkpt>
      <trkpt lat="49.62924" lon="-1.24343">
        <ele>5.6</ele>
        <time>2020-06-15T10:39:08Z</time>
      </trkpt>
      <trkpt lat="49.62919" lon="-1.24341">
        <ele>5.7</ele>
        <time>2020-06-15T10:39:09Z</time>
      </trkpt>
      <trkpt lat="49.62914" lon="-1.24341">
        <ele>5.7</ele>
        <time>2020-06-15T10:39:10Z</time>
      </trkpt>
      <trkpt lat="49.62909" lon="-1.24341">
        <ele>5.8</ele>
        <time>2020-06-15T10:39:11Z</time>
      </trkpt>
      <trkpt lat="49.62904" lon="-1.2434">
        <ele>5.8</ele>
        <time>2020-06-15T10:39:12Z</time>
      </trkpt>
      <trkpt lat="49.62899" lon="-1.24338">
        <ele>5.8</ele>
        <time>2020-06-15T10:39:13Z</time>
      </trkpt>
      <trkpt lat="49.62894" lon="-1.24337">
        <ele>5.8</ele>
        <time>2020-06-15T10:39:14Z</time>
      </trkpt>
      <trkpt lat="49.62889" lon="-1.24338">
        <ele>5.8</ele>
        <time>2020-06-15T10:39:15Z</time>
      </trkpt>
      <trkpt lat="49.62884" lon="-1.24341">
        <ele>5.9</ele>
        <time>2020-06-15T10:39:16Z</time>
      </trkpt>
      <trkpt lat="49.6288" lon="-1.24345">
        <ele>5.9</ele>
        <time>2020-06-15T10:39:17Z</time>
      </trkpt>
      <trkpt lat="49.62875" lon="-1.24351">
        <ele>6</ele>
        <time>2020-06-15T10:39:18Z</time>
      </trkpt>
      <trkpt lat="49.6287" lon="-1.24357">
        <ele>6.2</ele>
        <time>2020-06-15T10:39:19Z</time>
      </trkpt>
      <trkpt lat="49.62866" lon="-1.24361">
        <ele>6.3</ele>
        <time>2020-06-15T10:39:20Z</time>
      </trkpt>
      <trkpt lat="49.62862" lon="-1.24366">
        <ele>6.4</ele>
        <time>2020-06-15T10:39:21Z</time>
      </trkpt>
      <trkpt lat="49.62857" lon="-1.24368">
        <ele>6.6</ele>
        <time>2020-06-15T10:39:22Z</time>
      </trkpt>
      <trkpt lat="49.62852" lon="-1.2437">
        <ele>6.7</ele>
        <time>2020-06-15T10:39:23Z</time>
      </trkpt>
      <trkpt lat="49.62847" lon="-1.24372">
        <ele>6.9</ele>
        <time>2020-06-15T10:39:24Z</time>
      </trkpt>
      <trkpt lat="49.62843" lon="-1.24373">
        <ele>7</ele>
        <time>2020-06-15T10:39:25Z</time>
      </trkpt>
      <trkpt lat="49.62839" lon="-1.24374">
        <ele>7.1</ele>
        <time>2020-06-15T10:39:26Z</time>
      </trkpt>
      <trkpt lat="49.62834" lon="-1.24374">
        <ele>7.3</ele>
        <time>2020-06-15T10:39:27Z</time>
      </trkpt>
      <trkpt lat="49.62829" lon="-1.24375">
        <ele>7.4</ele>
        <time>2020-06-15T10:39:28Z</time>
      </trkpt>
      <trkpt lat="49.62825" lon="-1.24376">
        <ele>7.5</ele>
        <time>2020-06-15T10:39:29Z</time>
      </trkpt>
      <trkpt lat="49.6282" lon="-1.24377">
        <ele>7.6</ele>
        <time>2020-06-15T10:39:30Z</time>
      </trkpt>
      <trkpt lat="49.62816" lon="-1.24376">
        <ele>7.7</ele>
        <time>2020-06-15T10:39:31Z</time>
      </trkpt>
      <trkpt lat="49.62814" lon="-1.24376">
        <ele>7.7</ele>
        <time>2020-06-15T10:39:32Z</time>
      </trkpt>
      <trkpt lat="49.6281" lon="-1.24376">
        <ele>7.8</ele>
        <time>2020-06-15T10:39:33Z</time>
      </trkpt>
      <trkpt lat="49.62806" lon="-1.24376">
        <ele>7.8</ele>
        <time>2020-06-15T10:39:34Z</time>
      </trkpt>
      <trkpt lat="49.62802" lon="-1.24377">
        <ele>7.8</ele>
        <time>2020-06-15T10:39:35Z</time>
      </trkpt>
      <trkpt lat="49.62798" lon="-1.24377">
        <ele>7.8</ele>
        <time>2020-06-15T10:39:36Z</time>
      </trkpt>
      <trkpt lat="49.62793" lon="-1.24376">
        <ele>7.6</ele>
        <time>2020-06-15T10:39:37Z</time>
      </trkpt>
      <trkpt lat="49.62789" lon="-1.24375">
        <ele>7.6</ele>
        <time>2020-06-15T10:39:38Z</time>
      </trkpt>
      <trkpt lat="49.62784" lon="-1.24372">
        <ele>7.5</ele>
        <time>2020-06-15T10:39:39Z</time>
      </trkpt>
      <trkpt lat="49.62779" lon="-1.2437">
        <ele>7.4</ele>
        <time>2020-06-15T10:39:40Z</time>
      </trkpt>
      <trkpt lat="49.62773" lon="-1.24368">
        <ele>7.4</ele>
        <time>2020-06-15T10:39:41Z</time>
      </trkpt>
      <trkpt lat="49.62767" lon="-1.24366">
        <ele>7.3</ele>
        <time>2020-06-15T10:39:42Z</time>
      </trkpt>
      <trkpt lat="49.62762" lon="-1.24364">
        <ele>7.3</ele>
        <time>2020-06-15T10:39:43Z</time>
      </trkpt>
      <trkpt lat="49.62756" lon="-1.24361">
        <ele>7.3</ele>
        <time>2020-06-15T10:39:44Z</time>
      </trkpt>
      <trkpt lat="49.62751" lon="-1.24358">
        <ele>7.3</ele>
        <time>2020-06-15T10:39:45Z</time>
      </trkpt>
      <trkpt lat="49.62746" lon="-1.24356">
        <ele>7.3</ele>
        <time>2020-06-15T10:39:46Z</time>
      </trkpt>
      <trkpt lat="49.62742" lon="-1.24353">
        <ele>7.3</ele>
        <time>2020-06-15T10:39:47Z</time>
      </trkpt>
      <trkpt lat="49.62737" lon="-1.24351">
        <ele>7.4</ele>
        <time>2020-06-15T10:39:48Z</time>
      </trkpt>
      <trkpt lat="49.62732" lon="-1.2435">
        <ele>7.4</ele>
        <time>2020-06-15T10:39:49Z</time>
      </trkpt>
      <trkpt lat="49.62726" lon="-1.24349">
        <ele>7.5</ele>
        <time>2020-06-15T10:39:50Z</time>
      </trkpt>
      <trkpt lat="49.62721" lon="-1.24347">
        <ele>7.6</ele>
        <time>2020-06-15T10:39:51Z</time>
      </trkpt>
      <trkpt lat="49.62717" lon="-1.24346">
        <ele>7.7</ele>
        <time>2020-06-15T10:39:52Z</time>
      </trkpt>
      <trkpt lat="49.62711" lon="-1.24345">
        <ele>7.8</ele>
        <time>2020-06-15T10:39:53Z</time>
      </trkpt>
      <trkpt lat="49.62705" lon="-1.24344">
        <ele>7.8</ele>
        <time>2020-06-15T10:39:54Z</time>
      </trkpt>
      <trkpt lat="49.627" lon="-1.24342">
        <ele>7.8</ele>
        <time>2020-06-15T10:39:55Z</time>
      </trkpt>
      <trkpt lat="49.62696" lon="-1.2434">
        <ele>7.8</ele>
        <time>2020-06-15T10:39:56Z</time>
      </trkpt>
      <trkpt lat="49.62691" lon="-1.24337">
        <ele>7.8</ele>
        <time>2020-06-15T10:39:57Z</time>
      </trkpt>
      <trkpt lat="49.62686" lon="-1.24336">
        <ele>7.8</ele>
        <time>2020-06-15T10:39:58Z</time>
      </trkpt>
      <trkpt lat="49.62682" lon="-1.24332">
        <ele>7.8</ele>
        <time>2020-06-15T10:39:59Z</time>
      </trkpt>
      <trkpt lat="49.62677" lon="-1.2433">
        <ele>7.8</ele>
        <time>2020-06-15T10:40:00Z</time>
      </trkpt>
      <trkpt lat="49.62672" lon="-1.24328">
        <ele>7.8</ele>
        <time>2020-06-15T10:40:01Z</time>
      </trkpt>
      <trkpt lat="49.62667" lon="-1.24326">
        <ele>7.8</ele>
        <time>2020-06-15T10:40:02Z</time>
      </trkpt>
      <trkpt lat="49.62662" lon="-1.24322">
        <ele>7.8</ele>
        <time>2020-06-15T10:40:03Z</time>
      </trkpt>
      <trkpt lat="49.62656" lon="-1.2432">
        <ele>7.8</ele>
        <time>2020-06-15T10:40:04Z</time>
      </trkpt>
      <trkpt lat="49.62651" lon="-1.24317">
        <ele>7.8</ele>
        <time>2020-06-15T10:40:05Z</time>
      </trkpt>
      <trkpt lat="49.62646" lon="-1.24315">
        <ele>7.8</ele>
        <time>2020-06-15T10:40:06Z</time>
      </trkpt>
      <trkpt lat="49.62641" lon="-1.24312">
        <ele>7.8</ele>
        <time>2020-06-15T10:40:07Z</time>
      </trkpt>
      <trkpt lat="49.62637" lon="-1.24311">
        <ele>7.8</ele>
        <time>2020-06-15T10:40:08Z</time>
      </trkpt>
      <trkpt lat="49.62632" lon="-1.24308">
        <ele>7.7</ele>
        <time>2020-06-15T10:40:09Z</time>
      </trkpt>
      <trkpt lat="49.62628" lon="-1.24306">
        <ele>7.7</ele>
        <time>2020-06-15T10:40:10Z</time>
      </trkpt>
      <trkpt lat="49.62625" lon="-1.24304">
        <ele>7.6</ele>
        <time>2020-06-15T10:40:11Z</time>
      </trkpt>
      <trkpt lat="49.62621" lon="-1.243">
        <ele>7.5</ele>
        <time>2020-06-15T10:40:12Z</time>
      </trkpt>
      <trkpt lat="49.62618" lon="-1.24298">
        <ele>7.5</ele>
        <time>2020-06-15T10:40:13Z</time>
      </trkpt>
      <trkpt lat="49.62614" lon="-1.24297">
        <ele>7.4</ele>
        <time>2020-06-15T10:40:14Z</time>
      </trkpt>
      <trkpt lat="49.6261" lon="-1.24295">
        <ele>7.3</ele>
        <time>2020-06-15T10:40:15Z</time>
      </trkpt>
      <trkpt lat="49.62607" lon="-1.24292">
        <ele>7.2</ele>
        <time>2020-06-15T10:40:16Z</time>
      </trkpt>
      <trkpt lat="49.62603" lon="-1.2429">
        <ele>7.1</ele>
        <time>2020-06-15T10:40:17Z</time>
      </trkpt>
      <trkpt lat="49.62599" lon="-1.24287">
        <ele>7</ele>
        <time>2020-06-15T10:40:18Z</time>
      </trkpt>
      <trkpt lat="49.62596" lon="-1.24284">
        <ele>6.9</ele>
        <time>2020-06-15T10:40:19Z</time>
      </trkpt>
      <trkpt lat="49.62592" lon="-1.24282">
        <ele>6.8</ele>
        <time>2020-06-15T10:40:20Z</time>
      </trkpt>
      <trkpt lat="49.62587" lon="-1.2428">
        <ele>6.7</ele>
        <time>2020-06-15T10:40:21Z</time>
      </trkpt>
      <trkpt lat="49.62581" lon="-1.24279">
        <ele>6.7</ele>
        <time>2020-06-15T10:40:22Z</time>
      </trkpt>
      <trkpt lat="49.62575" lon="-1.24279">
        <ele>6.6</ele>
        <time>2020-06-15T10:40:23Z</time>
      </trkpt>
      <trkpt lat="49.62569" lon="-1.24281">
        <ele>6.6</ele>
        <time>2020-06-15T10:40:24Z</time>
      </trkpt>
      <trkpt lat="49.62564" lon="-1.24284">
        <ele>6.6</ele>
        <time>2020-06-15T10:40:25Z</time>
      </trkpt>
      <trkpt lat="49.6256" lon="-1.24287">
        <ele>6.5</ele>
        <time>2020-06-15T10:40:26Z</time>
      </trkpt>
      <trkpt lat="49.62556" lon="-1.2429">
        <ele>6.5</ele>
        <time>2020-06-15T10:40:27Z</time>
      </trkpt>
      <trkpt lat="49.62551" lon="-1.24291">
        <ele>6.4</ele>
        <time>2020-06-15T10:40:28Z</time>
      </trkpt>
      <trkpt lat="49.62547" lon="-1.24294">
        <ele>6.4</ele>
        <time>2020-06-15T10:40:29Z</time>
      </trkpt>
      <trkpt lat="49.62543" lon="-1.24296">
        <ele>6.3</ele>
        <time>2020-06-15T10:40:30Z</time>
      </trkpt>
      <trkpt lat="49.62539" lon="-1.24297">
        <ele>6.3</ele>
        <time>2020-06-15T10:40:31Z</time>
      </trkpt>
      <trkpt lat="49.62535" lon="-1.24299">
        <ele>6.2</ele>
        <time>2020-06-15T10:40:32Z</time>
      </trkpt>
      <trkpt lat="49.62531" lon="-1.24298">
        <ele>6.2</ele>
        <time>2020-06-15T10:40:33Z</time>
      </trkpt>
      <trkpt lat="49.62527" lon="-1.24297">
        <ele>6.1</ele>
        <time>2020-06-15T10:40:34Z</time>
      </trkpt>
      <trkpt lat="49.62524" lon="-1.24296">
        <ele>6.1</ele>
        <time>2020-06-15T10:40:35Z</time>
      </trkpt>
      <trkpt lat="49.62521" lon="-1.24296">
        <ele>6</ele>
        <time>2020-06-15T10:40:36Z</time>
      </trkpt>
      <trkpt lat="49.6252" lon="-1.24296">
        <ele>6</ele>
        <time>2020-06-15T10:40:37Z</time>
      </trkpt>
      <trkpt lat="49.6252" lon="-1.24295">
        <ele>6</ele>
        <time>2020-06-15T10:40:38Z</time>
      </trkpt>
      <trkpt lat="49.62519" lon="-1.24295">
        <ele>6</ele>
        <time>2020-06-15T10:40:39Z</time>
      </trkpt>
      <trkpt lat="49.62519" lon="-1.24294">
        <ele>5.9</ele>
        <time>2020-06-15T10:40:40Z</time>
      </trkpt>
      <trkpt lat="49.6252" lon="-1.24294">
        <ele>5.9</ele>
        <time>2020-06-15T10:40:41Z</time>
      </trkpt>
      <trkpt lat="49.6252" lon="-1.24294">
        <ele>5.9</ele>
        <time>2020-06-15T10:40:42Z</time>
      </trkpt>
      <trkpt lat="49.6252" lon="-1.24294">
        <ele>5.9</ele>
        <time>2020-06-15T10:40:43Z</time>
      </trkpt>
      <trkpt lat="49.62518" lon="-1.24295">
        <ele>5.9</ele>
        <time>2020-06-15T10:40:44Z</time>
      </trkpt>
      <trkpt lat="49.62517" lon="-1.24296">
        <ele>5.9</ele>
        <time>2020-06-15T10:40:45Z</time>
      </trkpt>
      <trkpt lat="49.62516" lon="-1.24299">
        <ele>5.8</ele>
        <time>2020-06-15T10:40:46Z</time>
      </trkpt>
      <trkpt lat="49.62515" lon="-1.24301">
        <ele>5.7</ele>
        <time>2020-06-15T10:40:47Z</time>
      </trkpt>
      <trkpt lat="49.62515" lon="-1.24303">
        <ele>5.6</ele>
        <time>2020-06-15T10:40:48Z</time>
      </trkpt>
      <trkpt lat="49.62513" lon="-1.24308">
        <ele>5.4</ele>
        <time>2020-06-15T10:40:49Z</time>
      </trkpt>
      <trkpt lat="49.62511" lon="-1.24313">
        <ele>5.1</ele>
        <time>2020-06-15T10:40:50Z</time>
      </trkpt>
      <trkpt lat="49.62508" lon="-1.24319">
        <ele>4.9</ele>
        <time>2020-06-15T10:40:51Z</time>
      </trkpt>
      <trkpt lat="49.62506" lon="-1.24326">
        <ele>4.6</ele>
        <time>2020-06-15T10:40:52Z</time>
      </trkpt>
      <trkpt lat="49.62503" lon="-1.24331">
        <ele>4.4</ele>
        <time>2020-06-15T10:40:53Z</time>
      </trkpt>
      <trkpt lat="49.625" lon="-1.24337">
        <ele>4.2</ele>
        <time>2020-06-15T10:40:54Z</time>
      </trkpt>
      <trkpt lat="49.62496" lon="-1.24343">
        <ele>4</ele>
        <time>2020-06-15T10:40:55Z</time>
      </trkpt>
      <trkpt lat="49.62491" lon="-1.24348">
        <ele>3.9</ele>
        <time>2020-06-15T10:40:56Z</time>
      </trkpt>
      <trkpt lat="49.62488" lon="-1.24355">
        <ele>3.7</ele>
        <time>2020-06-15T10:40:57Z</time>
      </trkpt>
      <trkpt lat="49.62486" lon="-1.24361">
        <ele>3.7</ele>
        <time>2020-06-15T10:40:58Z</time>
      </trkpt>
      <trkpt lat="49.62483" lon="-1.24367">
        <ele>3.6</ele>
        <time>2020-06-15T10:40:59Z</time>
      </trkpt>
      <trkpt lat="49.62482" lon="-1.24372">
        <ele>3.5</ele>
        <time>2020-06-15T10:41:00Z</time>
      </trkpt>
      <trkpt lat="49.6248" lon="-1.24377">
        <ele>3.5</ele>
        <time>2020-06-15T10:41:01Z</time>
      </trkpt>
      <trkpt lat="49.62478" lon="-1.24382">
        <ele>3.5</ele>
        <time>2020-06-15T10:41:02Z</time>
      </trkpt>
      <trkpt lat="49.62475" lon="-1.24385">
        <ele>3.4</ele>
        <time>2020-06-15T10:41:03Z</time>
      </trkpt>
      <trkpt lat="49.62472" lon="-1.24387">
        <ele>3.5</ele>
        <time>2020-06-15T10:41:04Z</time>
      </trkpt>
      <trkpt lat="49.62468" lon="-1.24388">
        <ele>3.5</ele>
        <time>2020-06-15T10:41:05Z</time>
      </trkpt>
      <trkpt lat="49.62464" lon="-1.24391">
        <ele>3.5</ele>
        <time>2020-06-15T10:41:06Z</time>
      </trkpt>
      <trkpt lat="49.6246" lon="-1.24393">
        <ele>3.5</ele>
        <time>2020-06-15T10:41:07Z</time>
      </trkpt>
      <trkpt lat="49.62457" lon="-1.24395">
        <ele>3.5</ele>
        <time>2020-06-15T10:41:08Z</time>
      </trkpt>
      <trkpt lat="49.62452" lon="-1.24398">
        <ele>3.6</ele>
        <time>2020-06-15T10:41:09Z</time>
      </trkpt>
      <trkpt lat="49.62447" lon="-1.24401">
        <ele>3.6</ele>
        <time>2020-06-15T10:41:10Z</time>
      </trkpt>
      <trkpt lat="49.62442" lon="-1.24405">
        <ele>3.7</ele>
        <time>2020-06-15T10:41:11Z</time>
      </trkpt>
      <trkpt lat="49.62437" lon="-1.24409">
        <ele>3.8</ele>
        <time>2020-06-15T10:41:12Z</time>
      </trkpt>
      <trkpt lat="49.62433" lon="-1.24412">
        <ele>3.9</ele>
        <time>2020-06-15T10:41:13Z</time>
      </trkpt>
      <trkpt lat="49.62429" lon="-1.24415">
        <ele>4.1</ele>
        <time>2020-06-15T10:41:14Z</time>
      </trkpt>
      <trkpt lat="49.62424" lon="-1.24419">
        <ele>4.2</ele>
        <time>2020-06-15T10:41:15Z</time>
      </trkpt>
      <trkpt lat="49.62419" lon="-1.24421">
        <ele>4.4</ele>
        <time>2020-06-15T10:41:16Z</time>
      </trkpt>
      <trkpt lat="49.62415" lon="-1.24423">
        <ele>4.6</ele>
        <time>2020-06-15T10:41:17Z</time>
      </trkpt>
      <trkpt lat="49.62411" lon="-1.24425">
        <ele>4.7</ele>
        <time>2020-06-15T10:41:18Z</time>
      </trkpt>
      <trkpt lat="49.62407" lon="-1.24427">
        <ele>4.8</ele>
        <time>2020-06-15T10:41:19Z</time>
      </trkpt>
      <trkpt lat="49.62405" lon="-1.24428">
        <ele>4.9</ele>
        <time>2020-06-15T10:41:20Z</time>
      </trkpt>
      <trkpt lat="49.62402" lon="-1.24431">
        <ele>5.1</ele>
        <time>2020-06-15T10:41:21Z</time>
      </trkpt>
      <trkpt lat="49.624" lon="-1.24432">
        <ele>5.2</ele>
        <time>2020-06-15T10:41:22Z</time>
      </trkpt>
      <trkpt lat="49.62398" lon="-1.24433">
        <ele>5.3</ele>
        <time>2020-06-15T10:41:23Z</time>
      </trkpt>
      <trkpt lat="49.62395" lon="-1.24436">
        <ele>5.5</ele>
        <time>2020-06-15T10:41:24Z</time>
      </trkpt>
      <trkpt lat="49.62393" lon="-1.24437">
        <ele>5.5</ele>
        <time>2020-06-15T10:41:25Z</time>
      </trkpt>
      <trkpt lat="49.62391" lon="-1.24439">
        <ele>5.7</ele>
        <time>2020-06-15T10:41:26Z</time>
      </trkpt>
      <trkpt lat="49.62388" lon="-1.24441">
        <ele>5.8</ele>
        <time>2020-06-15T10:41:27Z</time>
      </trkpt>
      <trkpt lat="49.62385" lon="-1.24443">
        <ele>6</ele>
        <time>2020-06-15T10:41:28Z</time>
      </trkpt>
      <trkpt lat="49.62381" lon="-1.24445">
        <ele>6.2</ele>
        <time>2020-06-15T10:41:29Z</time>
      </trkpt>
      <trkpt lat="49.62377" lon="-1.24446">
        <ele>6.4</ele>
        <time>2020-06-15T10:41:30Z</time>
      </trkpt>
      <trkpt lat="49.62374" lon="-1.24447">
        <ele>6.6</ele>
        <time>2020-06-15T10:41:31Z</time>
      </trkpt>
      <trkpt lat="49.62369" lon="-1.24446">
        <ele>6.9</ele>
        <time>2020-06-15T10:41:32Z</time>
      </trkpt>
      <trkpt lat="49.62364" lon="-1.24445">
        <ele>7.2</ele>
        <time>2020-06-15T10:41:33Z</time>
      </trkpt>
      <trkpt lat="49.62361" lon="-1.24444">
        <ele>7.4</ele>
        <time>2020-06-15T10:41:34Z</time>
      </trkpt>
      <trkpt lat="49.62357" lon="-1.24443">
        <ele>7.5</ele>
        <time>2020-06-15T10:41:35Z</time>
      </trkpt>
      <trkpt lat="49.62354" lon="-1.24442">
        <ele>7.5</ele>
        <time>2020-06-15T10:41:36Z</time>
      </trkpt>
      <trkpt lat="49.62351" lon="-1.24441">
        <ele>7.5</ele>
        <time>2020-06-15T10:41:37Z</time>
      </trkpt>
      <trkpt lat="49.62347" lon="-1.24441">
        <ele>7.7</ele>
        <time>2020-06-15T10:41:38Z</time>
      </trkpt>
      <trkpt lat="49.62343" lon="-1.24441">
        <ele>7.8</ele>
        <time>2020-06-15T10:41:39Z</time>
      </trkpt>
      <trkpt lat="49.6234" lon="-1.24443">
        <ele>7.8</ele>
        <time>2020-06-15T10:41:40Z</time>
      </trkpt>
      <trkpt lat="49.62336" lon="-1.24445">
        <ele>7.8</ele>
        <time>2020-06-15T10:41:41Z</time>
      </trkpt>
      <trkpt lat="49.62333" lon="-1.24447">
        <ele>7.9</ele>
        <time>2020-06-15T10:41:42Z</time>
      </trkpt>
      <trkpt lat="49.6233" lon="-1.24451">
        <ele>7.9</ele>
        <time>2020-06-15T10:41:43Z</time>
      </trkpt>
      <trkpt lat="49.62329" lon="-1.24453">
        <ele>7.9</ele>
        <time>2020-06-15T10:41:44Z</time>
      </trkpt>
      <trkpt lat="49.62326" lon="-1.24454">
        <ele>7.9</ele>
        <time>2020-06-15T10:41:45Z</time>
      </trkpt>
      <trkpt lat="49.62323" lon="-1.24458">
        <ele>7.8</ele>
        <time>2020-06-15T10:41:46Z</time>
      </trkpt>
      <trkpt lat="49.62321" lon="-1.24461">
        <ele>7.8</ele>
        <time>2020-06-15T10:41:47Z</time>
      </trkpt>
      <trkpt lat="49.62319" lon="-1.24463">
        <ele>7.8</ele>
        <time>2020-06-15T10:41:48Z</time>
      </trkpt>
      <trkpt lat="49.62317" lon="-1.24466">
        <ele>7.8</ele>
        <time>2020-06-15T10:41:49Z</time>
      </trkpt>
      <trkpt lat="49.62313" lon="-1.2447">
        <ele>7.8</ele>
        <time>2020-06-15T10:41:50Z</time>
      </trkpt>
      <trkpt lat="49.62312" lon="-1.24471">
        <ele>7.8</ele>
        <time>2020-06-15T10:41:51Z</time>
      </trkpt>
      <trkpt lat="49.62309" lon="-1.24473">
        <ele>7.3</ele>
        <time>2020-06-15T10:41:52Z</time>
      </trkpt>
      <trkpt lat="49.62305" lon="-1.24472">
        <ele>7.1</ele>
        <time>2020-06-15T10:41:53Z</time>
      </trkpt>
      <trkpt lat="49.62302" lon="-1.2447">
        <ele>6.9</ele>
        <time>2020-06-15T10:41:54Z</time>
      </trkpt>
      <trkpt lat="49.62298" lon="-1.24468">
        <ele>6.7</ele>
        <time>2020-06-15T10:41:55Z</time>
      </trkpt>
      <trkpt lat="49.62293" lon="-1.24464">
        <ele>6.4</ele>
        <time>2020-06-15T10:41:56Z</time>
      </trkpt>
      <trkpt lat="49.62287" lon="-1.2446">
        <ele>6.2</ele>
        <time>2020-06-15T10:41:57Z</time>
      </trkpt>
      <trkpt lat="49.62282" lon="-1.24454">
        <ele>5.9</ele>
        <time>2020-06-15T10:41:58Z</time>
      </trkpt>
      <trkpt lat="49.62277" lon="-1.2445">
        <ele>5.7</ele>
        <time>2020-06-15T10:41:59Z</time>
      </trkpt>
      <trkpt lat="49.62273" lon="-1.24445">
        <ele>5.5</ele>
        <time>2020-06-15T10:42:00Z</time>
      </trkpt>
      <trkpt lat="49.62268" lon="-1.24441">
        <ele>5.3</ele>
        <time>2020-06-15T10:42:01Z</time>
      </trkpt>
      <trkpt lat="49.62264" lon="-1.24438">
        <ele>5.2</ele>
        <time>2020-06-15T10:42:02Z</time>
      </trkpt>
      <trkpt lat="49.62259" lon="-1.24434">
        <ele>5.2</ele>
        <time>2020-06-15T10:42:03Z</time>
      </trkpt>
      <trkpt lat="49.62254" lon="-1.2443">
        <ele>5.1</ele>
        <time>2020-06-15T10:42:04Z</time>
      </trkpt>
      <trkpt lat="49.62249" lon="-1.24428">
        <ele>5.1</ele>
        <time>2020-06-15T10:42:05Z</time>
      </trkpt>
      <trkpt lat="49.62242" lon="-1.24427">
        <ele>5</ele>
        <time>2020-06-15T10:42:06Z</time>
      </trkpt>
      <trkpt lat="49.62235" lon="-1.24429">
        <ele>5</ele>
        <time>2020-06-15T10:42:07Z</time>
      </trkpt>
      <trkpt lat="49.62228" lon="-1.24434">
        <ele>4.9</ele>
        <time>2020-06-15T10:42:08Z</time>
      </trkpt>
      <trkpt lat="49.62222" lon="-1.24439">
        <ele>4.9</ele>
        <time>2020-06-15T10:42:09Z</time>
      </trkpt>
      <trkpt lat="49.62217" lon="-1.24445">
        <ele>4.8</ele>
        <time>2020-06-15T10:42:10Z</time>
      </trkpt>
      <trkpt lat="49.62212" lon="-1.24451">
        <ele>4.8</ele>
        <time>2020-06-15T10:42:11Z</time>
      </trkpt>
      <trkpt lat="49.62208" lon="-1.24457">
        <ele>4.8</ele>
        <time>2020-06-15T10:42:12Z</time>
      </trkpt>
      <trkpt lat="49.62203" lon="-1.24463">
        <ele>4.7</ele>
        <time>2020-06-15T10:42:13Z</time>
      </trkpt>
      <trkpt lat="49.62198" lon="-1.2447">
        <ele>4.7</ele>
        <time>2020-06-15T10:42:14Z</time>
      </trkpt>
      <trkpt lat="49.62194" lon="-1.24478">
        <ele>4.7</ele>
        <time>2020-06-15T10:42:15Z</time>
      </trkpt>
      <trkpt lat="49.6219" lon="-1.24485">
        <ele>4.7</ele>
        <time>2020-06-15T10:42:16Z</time>
      </trkpt>
      <trkpt lat="49.62186" lon="-1.24492">
        <ele>4.8</ele>
        <time>2020-06-15T10:42:17Z</time>
      </trkpt>
      <trkpt lat="49.62183" lon="-1.24499">
        <ele>4.8</ele>
        <time>2020-06-15T10:42:18Z</time>
      </trkpt>
      <trkpt lat="49.62178" lon="-1.24505">
        <ele>4.8</ele>
        <time>2020-06-15T10:42:19Z</time>
      </trkpt>
      <trkpt lat="49.62175" lon="-1.2451">
        <ele>4.9</ele>
        <time>2020-06-15T10:42:20Z</time>
      </trkpt>
      <trkpt lat="49.62171" lon="-1.24515">
        <ele>4.9</ele>
        <time>2020-06-15T10:42:21Z</time>
      </trkpt>
      <trkpt lat="49.62168" lon="-1.2452">
        <ele>5</ele>
        <time>2020-06-15T10:42:22Z</time>
      </trkpt>
      <trkpt lat="49.62164" lon="-1.24524">
        <ele>5</ele>
        <time>2020-06-15T10:42:23Z</time>
      </trkpt>
      <trkpt lat="49.62159" lon="-1.24528">
        <ele>5.1</ele>
        <time>2020-06-15T10:42:24Z</time>
      </trkpt>
      <trkpt lat="49.62155" lon="-1.24531">
        <ele>5.2</ele>
        <time>2020-06-15T10:42:25Z</time>
      </trkpt>
      <trkpt lat="49.62151" lon="-1.24534">
        <ele>5.2</ele>
        <time>2020-06-15T10:42:26Z</time>
      </trkpt>
      <trkpt lat="49.62146" lon="-1.24537">
        <ele>5.2</ele>
        <time>2020-06-15T10:42:27Z</time>
      </trkpt>
      <trkpt lat="49.62141" lon="-1.24539">
        <ele>5.3</ele>
        <time>2020-06-15T10:42:28Z</time>
      </trkpt>
      <trkpt lat="49.62135" lon="-1.24541">
        <ele>5.3</ele>
        <time>2020-06-15T10:42:29Z</time>
      </trkpt>
      <trkpt lat="49.62131" lon="-1.24544">
        <ele>5.3</ele>
        <time>2020-06-15T10:42:30Z</time>
      </trkpt>
      <trkpt lat="49.62126" lon="-1.24547">
        <ele>5.3</ele>
        <time>2020-06-15T10:42:31Z</time>
      </trkpt>
      <trkpt lat="49.62121" lon="-1.2455">
        <ele>5.4</ele>
        <time>2020-06-15T10:42:32Z</time>
      </trkpt>
      <trkpt lat="49.62117" lon="-1.24553">
        <ele>5.4</ele>
        <time>2020-06-15T10:42:33Z</time>
      </trkpt>
      <trkpt lat="49.62112" lon="-1.24556">
        <ele>5.4</ele>
        <time>2020-06-15T10:42:34Z</time>
      </trkpt>
      <trkpt lat="49.62107" lon="-1.24559">
        <ele>5.4</ele>
        <time>2020-06-15T10:42:35Z</time>
      </trkpt>
      <trkpt lat="49.62102" lon="-1.24562">
        <ele>5.4</ele>
        <time>2020-06-15T10:42:36Z</time>
      </trkpt>
      <trkpt lat="49.62098" lon="-1.24565">
        <ele>5.5</ele>
        <time>2020-06-15T10:42:37Z</time>
      </trkpt>
      <trkpt lat="49.62093" lon="-1.24567">
        <ele>5.5</ele>
        <time>2020-06-15T10:42:38Z</time>
      </trkpt>
      <trkpt lat="49.62088" lon="-1.24571">
        <ele>5.5</ele>
        <time>2020-06-15T10:42:39Z</time>
      </trkpt>
      <trkpt lat="49.62084" lon="-1.24573">
        <ele>5.5</ele>
        <time>2020-06-15T10:42:40Z</time>
      </trkpt>
      <trkpt lat="49.62078" lon="-1.24576">
        <ele>5.5</ele>
        <time>2020-06-15T10:42:41Z</time>
      </trkpt>
      <trkpt lat="49.62073" lon="-1.24579">
        <ele>5.5</ele>
        <time>2020-06-15T10:42:42Z</time>
      </trkpt>
      <trkpt lat="49.62068" lon="-1.24582">
        <ele>5.5</ele>
        <time>2020-06-15T10:42:43Z</time>
      </trkpt>
      <trkpt lat="49.62063" lon="-1.24584">
        <ele>5.5</ele>
        <time>2020-06-15T10:42:44Z</time>
      </trkpt>
      <trkpt lat="49.62058" lon="-1.24586">
        <ele>5.5</ele>
        <time>2020-06-15T10:42:45Z</time>
      </trkpt>
      <trkpt lat="49.62053" lon="-1.2459">
        <ele>5.5</ele>
        <time>2020-06-15T10:42:46Z</time>
      </trkpt>
      <trkpt lat="49.6205" lon="-1.24593">
        <ele>5.5</ele>
        <time>2020-06-15T10:42:47Z</time>
      </trkpt>
      <trkpt lat="49.62046" lon="-1.24597">
        <ele>5.5</ele>
        <time>2020-06-15T10:42:48Z</time>
      </trkpt>
      <trkpt lat="49.62042" lon="-1.24601">
        <ele>5.5</ele>
        <time>2020-06-15T10:42:49Z</time>
      </trkpt>
      <trkpt lat="49.62039" lon="-1.24605">
        <ele>5.5</ele>
        <time>2020-06-15T10:42:50Z</time>
      </trkpt>
      <trkpt lat="49.62034" lon="-1.24609">
        <ele>5.4</ele>
        <time>2020-06-15T10:42:51Z</time>
      </trkpt>
      <trkpt lat="49.6203" lon="-1.24614">
        <ele>5.3</ele>
        <time>2020-06-15T10:42:52Z</time>
      </trkpt>
      <trkpt lat="49.62026" lon="-1.24619">
        <ele>5.3</ele>
        <time>2020-06-15T10:42:53Z</time>
      </trkpt>
      <trkpt lat="49.62022" lon="-1.24624">
        <ele>5.2</ele>
        <time>2020-06-15T10:42:54Z</time>
      </trkpt>
      <trkpt lat="49.62018" lon="-1.24628">
        <ele>5.2</ele>
        <time>2020-06-15T10:42:55Z</time>
      </trkpt>
      <trkpt lat="49.62014" lon="-1.24633">
        <ele>5.1</ele>
        <time>2020-06-15T10:42:56Z</time>
      </trkpt>
      <trkpt lat="49.6201" lon="-1.24639">
        <ele>5.1</ele>
        <time>2020-06-15T10:42:57Z</time>
      </trkpt>
      <trkpt lat="49.62006" lon="-1.24644">
        <ele>5.1</ele>
        <time>2020-06-15T10:42:58Z</time>
      </trkpt>
      <trkpt lat="49.62002" lon="-1.24649">
        <ele>5</ele>
        <time>2020-06-15T10:42:59Z</time>
      </trkpt>
      <trkpt lat="49.61998" lon="-1.24653">
        <ele>5</ele>
        <time>2020-06-15T10:43:00Z</time>
      </trkpt>
      <trkpt lat="49.61995" lon="-1.24658">
        <ele>5</ele>
        <time>2020-06-15T10:43:01Z</time>
      </trkpt>
      <trkpt lat="49.6199" lon="-1.24663">
        <ele>5</ele>
        <time>2020-06-15T10:43:02Z</time>
      </trkpt>
      <trkpt lat="49.61986" lon="-1.24668">
        <ele>4.9</ele>
        <time>2020-06-15T10:43:03Z</time>
      </trkpt>
      <trkpt lat="49.61982" lon="-1.24673">
        <ele>4.9</ele>
        <time>2020-06-15T10:43:04Z</time>
      </trkpt>
      <trkpt lat="49.61977" lon="-1.24678">
        <ele>4.8</ele>
        <time>2020-06-15T10:43:05Z</time>
      </trkpt>
      <trkpt lat="49.61973" lon="-1.24683">
        <ele>4.8</ele>
        <time>2020-06-15T10:43:06Z</time>
      </trkpt>
      <trkpt lat="49.61968" lon="-1.24689">
        <ele>4.7</ele>
        <time>2020-06-15T10:43:07Z</time>
      </trkpt>
      <trkpt lat="49.61964" lon="-1.24693">
        <ele>4.7</ele>
        <time>2020-06-15T10:43:08Z</time>
      </trkpt>
      <trkpt lat="49.61959" lon="-1.24697">
        <ele>4.7</ele>
        <time>2020-06-15T10:43:09Z</time>
      </trkpt>
      <trkpt lat="49.61954" lon="-1.24702">
        <ele>4.7</ele>
        <time>2020-06-15T10:43:10Z</time>
      </trkpt>
      <trkpt lat="49.61949" lon="-1.24706">
        <ele>4.7</ele>
        <time>2020-06-15T10:43:11Z</time>
      </trkpt>
      <trkpt lat="49.61944" lon="-1.24711">
        <ele>4.7</ele>
        <time>2020-06-15T10:43:12Z</time>
      </trkpt>
      <trkpt lat="49.61939" lon="-1.24715">
        <ele>4.7</ele>
        <time>2020-06-15T10:43:13Z</time>
      </trkpt>
      <trkpt lat="49.61934" lon="-1.24719">
        <ele>4.7</ele>
        <time>2020-06-15T10:43:14Z</time>
      </trkpt>
      <trkpt lat="49.61929" lon="-1.24722">
        <ele>4.8</ele>
        <time>2020-06-15T10:43:15Z</time>
      </trkpt>
      <trkpt lat="49.61923" lon="-1.24726">
        <ele>4.8</ele>
        <time>2020-06-15T10:43:16Z</time>
      </trkpt>
      <trkpt lat="49.61917" lon="-1.24728">
        <ele>4.9</ele>
        <time>2020-06-15T10:43:17Z</time>
      </trkpt>
      <trkpt lat="49.61912" lon="-1.2473">
        <ele>4.9</ele>
        <time>2020-06-15T10:43:18Z</time>
      </trkpt>
      <trkpt lat="49.61906" lon="-1.24732">
        <ele>4.9</ele>
        <time>2020-06-15T10:43:19Z</time>
      </trkpt>
      <trkpt lat="49.61901" lon="-1.24735">
        <ele>4.9</ele>
        <time>2020-06-15T10:43:20Z</time>
      </trkpt>
      <trkpt lat="49.61895" lon="-1.24735">
        <ele>4.9</ele>
        <time>2020-06-15T10:43:21Z</time>
      </trkpt>
      <trkpt lat="49.61889" lon="-1.24736">
        <ele>4.9</ele>
        <time>2020-06-15T10:43:22Z</time>
      </trkpt>
      <trkpt lat="49.61883" lon="-1.24735">
        <ele>5</ele>
        <time>2020-06-15T10:43:23Z</time>
      </trkpt>
      <trkpt lat="49.61878" lon="-1.24735">
        <ele>5</ele>
        <time>2020-06-15T10:43:24Z</time>
      </trkpt>
      <trkpt lat="49.61872" lon="-1.24735">
        <ele>5</ele>
        <time>2020-06-15T10:43:25Z</time>
      </trkpt>
      <trkpt lat="49.61867" lon="-1.24734">
        <ele>5</ele>
        <time>2020-06-15T10:43:26Z</time>
      </trkpt>
      <trkpt lat="49.61861" lon="-1.24736">
        <ele>5.1</ele>
        <time>2020-06-15T10:43:27Z</time>
      </trkpt>
      <trkpt lat="49.61855" lon="-1.24736">
        <ele>5.1</ele>
        <time>2020-06-15T10:43:28Z</time>
      </trkpt>
      <trkpt lat="49.6185" lon="-1.24736">
        <ele>5.1</ele>
        <time>2020-06-15T10:43:29Z</time>
      </trkpt>
      <trkpt lat="49.61844" lon="-1.24735">
        <ele>5.1</ele>
        <time>2020-06-15T10:43:30Z</time>
      </trkpt>
      <trkpt lat="49.61838" lon="-1.24733">
        <ele>5.1</ele>
        <time>2020-06-15T10:43:31Z</time>
      </trkpt>
      <trkpt lat="49.61832" lon="-1.24733">
        <ele>5</ele>
        <time>2020-06-15T10:43:32Z</time>
      </trkpt>
      <trkpt lat="49.61826" lon="-1.24733">
        <ele>5</ele>
        <time>2020-06-15T10:43:33Z</time>
      </trkpt>
      <trkpt lat="49.6182" lon="-1.24732">
        <ele>5</ele>
        <time>2020-06-15T10:43:34Z</time>
      </trkpt>
      <trkpt lat="49.61814" lon="-1.24732">
        <ele>5</ele>
        <time>2020-06-15T10:43:35Z</time>
      </trkpt>
      <trkpt lat="49.61809" lon="-1.24731">
        <ele>5</ele>
        <time>2020-06-15T10:43:36Z</time>
      </trkpt>
      <trkpt lat="49.61803" lon="-1.2473">
        <ele>5</ele>
        <time>2020-06-15T10:43:37Z</time>
      </trkpt>
      <trkpt lat="49.61798" lon="-1.24729">
        <ele>5</ele>
        <time>2020-06-15T10:43:38Z</time>
      </trkpt>
      <trkpt lat="49.61794" lon="-1.24728">
        <ele>5</ele>
        <time>2020-06-15T10:43:39Z</time>
      </trkpt>
      <trkpt lat="49.61788" lon="-1.24726">
        <ele>5</ele>
        <time>2020-06-15T10:43:40Z</time>
      </trkpt>
      <trkpt lat="49.61782" lon="-1.24726">
        <ele>5</ele>
        <time>2020-06-15T10:43:41Z</time>
      </trkpt>
      <trkpt lat="49.61777" lon="-1.24725">
        <ele>4.9</ele>
        <time>2020-06-15T10:43:42Z</time>
      </trkpt>
      <trkpt lat="49.61771" lon="-1.24724">
        <ele>4.9</ele>
        <time>2020-06-15T10:43:43Z</time>
      </trkpt>
      <trkpt lat="49.61765" lon="-1.24723">
        <ele>4.9</ele>
        <time>2020-06-15T10:43:44Z</time>
      </trkpt>
      <trkpt lat="49.6176" lon="-1.24721">
        <ele>4.9</ele>
        <time>2020-06-15T10:43:45Z</time>
      </trkpt>
      <trkpt lat="49.61754" lon="-1.2472">
        <ele>4.8</ele>
        <time>2020-06-15T10:43:46Z</time>
      </trkpt>
      <trkpt lat="49.61748" lon="-1.2472">
        <ele>4.8</ele>
        <time>2020-06-15T10:43:47Z</time>
      </trkpt>
      <trkpt lat="49.61742" lon="-1.24718">
        <ele>4.9</ele>
        <time>2020-06-15T10:43:48Z</time>
      </trkpt>
      <trkpt lat="49.61735" lon="-1.24719">
        <ele>4.9</ele>
        <time>2020-06-15T10:43:49Z</time>
      </trkpt>
      <trkpt lat="49.61729" lon="-1.24717">
        <ele>4.9</ele>
        <time>2020-06-15T10:43:50Z</time>
      </trkpt>
      <trkpt lat="49.61723" lon="-1.24716">
        <ele>4.8</ele>
        <time>2020-06-15T10:43:51Z</time>
      </trkpt>
      <trkpt lat="49.61716" lon="-1.24714">
        <ele>4.8</ele>
        <time>2020-06-15T10:43:52Z</time>
      </trkpt>
      <trkpt lat="49.6171" lon="-1.24713">
        <ele>4.7</ele>
        <time>2020-06-15T10:43:53Z</time>
      </trkpt>
      <trkpt lat="49.61703" lon="-1.24712">
        <ele>4.7</ele>
        <time>2020-06-15T10:43:54Z</time>
      </trkpt>
      <trkpt lat="49.61697" lon="-1.24711">
        <ele>4.6</ele>
        <time>2020-06-15T10:43:55Z</time>
      </trkpt>
      <trkpt lat="49.61692" lon="-1.2471">
        <ele>4.5</ele>
        <time>2020-06-15T10:43:56Z</time>
      </trkpt>
      <trkpt lat="49.61686" lon="-1.24708">
        <ele>4.5</ele>
        <time>2020-06-15T10:43:57Z</time>
      </trkpt>
      <trkpt lat="49.6168" lon="-1.24707">
        <ele>4.4</ele>
        <time>2020-06-15T10:43:58Z</time>
      </trkpt>
      <trkpt lat="49.61673" lon="-1.24706">
        <ele>4.3</ele>
        <time>2020-06-15T10:43:59Z</time>
      </trkpt>
      <trkpt lat="49.61666" lon="-1.24705">
        <ele>4.2</ele>
        <time>2020-06-15T10:44:00Z</time>
      </trkpt>
      <trkpt lat="49.6166" lon="-1.24705">
        <ele>4.2</ele>
        <time>2020-06-15T10:44:01Z</time>
      </trkpt>
      <trkpt lat="49.61654" lon="-1.24703">
        <ele>4.2</ele>
        <time>2020-06-15T10:44:02Z</time>
      </trkpt>
      <trkpt lat="49.61648" lon="-1.24702">
        <ele>4.1</ele>
        <time>2020-06-15T10:44:03Z</time>
      </trkpt>
      <trkpt lat="49.61642" lon="-1.24701">
        <ele>4.1</ele>
        <time>2020-06-15T10:44:04Z</time>
      </trkpt>
      <trkpt lat="49.61635" lon="-1.247">
        <ele>4.2</ele>
        <time>2020-06-15T10:44:05Z</time>
      </trkpt>
      <trkpt lat="49.61629" lon="-1.247">
        <ele>4.2</ele>
        <time>2020-06-15T10:44:06Z</time>
      </trkpt>
      <trkpt lat="49.61624" lon="-1.24701">
        <ele>4.2</ele>
        <time>2020-06-15T10:44:07Z</time>
      </trkpt>
      <trkpt lat="49.61618" lon="-1.24703">
        <ele>4.2</ele>
        <time>2020-06-15T10:44:08Z</time>
      </trkpt>
      <trkpt lat="49.6161" lon="-1.24706">
        <ele>4.2</ele>
        <time>2020-06-15T10:44:09Z</time>
      </trkpt>
      <trkpt lat="49.61603" lon="-1.24708">
        <ele>4.2</ele>
        <time>2020-06-15T10:44:10Z</time>
      </trkpt>
      <trkpt lat="49.61597" lon="-1.24711">
        <ele>4.2</ele>
        <time>2020-06-15T10:44:11Z</time>
      </trkpt>
      <trkpt lat="49.61591" lon="-1.24713">
        <ele>4.2</ele>
        <time>2020-06-15T10:44:12Z</time>
      </trkpt>
      <trkpt lat="49.61585" lon="-1.24716">
        <ele>4.2</ele>
        <time>2020-06-15T10:44:13Z</time>
      </trkpt>
      <trkpt lat="49.61579" lon="-1.24718">
        <ele>4.2</ele>
        <time>2020-06-15T10:44:14Z</time>
      </trkpt>
      <trkpt lat="49.61573" lon="-1.24721">
        <ele>4.2</ele>
        <time>2020-06-15T10:44:15Z</time>
      </trkpt>
      <trkpt lat="49.61568" lon="-1.24723">
        <ele>4.2</ele>
        <time>2020-06-15T10:44:16Z</time>
      </trkpt>
      <trkpt lat="49.61562" lon="-1.24726">
        <ele>4.2</ele>
        <time>2020-06-15T10:44:17Z</time>
      </trkpt>
      <trkpt lat="49.61556" lon="-1.24729">
        <ele>4.2</ele>
        <time>2020-06-15T10:44:18Z</time>
      </trkpt>
      <trkpt lat="49.61551" lon="-1.24733">
        <ele>4.2</ele>
        <time>2020-06-15T10:44:19Z</time>
      </trkpt>
      <trkpt lat="49.61545" lon="-1.24736">
        <ele>4.2</ele>
        <time>2020-06-15T10:44:20Z</time>
      </trkpt>
      <trkpt lat="49.61539" lon="-1.24738">
        <ele>4.2</ele>
        <time>2020-06-15T10:44:21Z</time>
      </trkpt>
      <trkpt lat="49.61534" lon="-1.24741">
        <ele>4.2</ele>
        <time>2020-06-15T10:44:22Z</time>
      </trkpt>
      <trkpt lat="49.61528" lon="-1.24744">
        <ele>4.3</ele>
        <time>2020-06-15T10:44:23Z</time>
      </trkpt>
      <trkpt lat="49.61523" lon="-1.24747">
        <ele>4.3</ele>
        <time>2020-06-15T10:44:24Z</time>
      </trkpt>
      <trkpt lat="49.61518" lon="-1.2475">
        <ele>4.3</ele>
        <time>2020-06-15T10:44:25Z</time>
      </trkpt>
      <trkpt lat="49.61513" lon="-1.24753">
        <ele>4.3</ele>
        <time>2020-06-15T10:44:26Z</time>
      </trkpt>
      <trkpt lat="49.61508" lon="-1.24756">
        <ele>4.2</ele>
        <time>2020-06-15T10:44:27Z</time>
      </trkpt>
      <trkpt lat="49.61503" lon="-1.24759">
        <ele>4.2</ele>
        <time>2020-06-15T10:44:28Z</time>
      </trkpt>
      <trkpt lat="49.61498" lon="-1.24762">
        <ele>4.1</ele>
        <time>2020-06-15T10:44:29Z</time>
      </trkpt>
      <trkpt lat="49.61493" lon="-1.24764">
        <ele>4.1</ele>
        <time>2020-06-15T10:44:30Z</time>
      </trkpt>
      <trkpt lat="49.61487" lon="-1.24767">
        <ele>4</ele>
        <time>2020-06-15T10:44:31Z</time>
      </trkpt>
      <trkpt lat="49.61482" lon="-1.24769">
        <ele>3.9</ele>
        <time>2020-06-15T10:44:32Z</time>
      </trkpt>
      <trkpt lat="49.61478" lon="-1.24772">
        <ele>3.9</ele>
        <time>2020-06-15T10:44:33Z</time>
      </trkpt>
      <trkpt lat="49.61473" lon="-1.24774">
        <ele>3.8</ele>
        <time>2020-06-15T10:44:34Z</time>
      </trkpt>
      <trkpt lat="49.6147" lon="-1.24775">
        <ele>3.7</ele>
        <time>2020-06-15T10:44:35Z</time>
      </trkpt>
      <trkpt lat="49.61465" lon="-1.24777">
        <ele>3.7</ele>
        <time>2020-06-15T10:44:36Z</time>
      </trkpt>
      <trkpt lat="49.6146" lon="-1.24778">
        <ele>3.6</ele>
        <time>2020-06-15T10:44:37Z</time>
      </trkpt>
      <trkpt lat="49.61454" lon="-1.2478">
        <ele>3.5</ele>
        <time>2020-06-15T10:44:38Z</time>
      </trkpt>
      <trkpt lat="49.61448" lon="-1.24782">
        <ele>3.3</ele>
        <time>2020-06-15T10:44:39Z</time>
      </trkpt>
      <trkpt lat="49.61441" lon="-1.24784">
        <ele>3.2</ele>
        <time>2020-06-15T10:44:40Z</time>
      </trkpt>
      <trkpt lat="49.61437" lon="-1.24787">
        <ele>3.1</ele>
        <time>2020-06-15T10:44:41Z</time>
      </trkpt>
      <trkpt lat="49.61432" lon="-1.24789">
        <ele>3</ele>
        <time>2020-06-15T10:44:42Z</time>
      </trkpt>
      <trkpt lat="49.61427" lon="-1.24793">
        <ele>3</ele>
        <time>2020-06-15T10:44:43Z</time>
      </trkpt>
      <trkpt lat="49.61423" lon="-1.24797">
        <ele>3</ele>
        <time>2020-06-15T10:44:44Z</time>
      </trkpt>
      <trkpt lat="49.61417" lon="-1.24801">
        <ele>2.9</ele>
        <time>2020-06-15T10:44:45Z</time>
      </trkpt>
      <trkpt lat="49.61413" lon="-1.24805">
        <ele>2.9</ele>
        <time>2020-06-15T10:44:46Z</time>
      </trkpt>
      <trkpt lat="49.61409" lon="-1.24808">
        <ele>2.9</ele>
        <time>2020-06-15T10:44:47Z</time>
      </trkpt>
      <trkpt lat="49.61404" lon="-1.24811">
        <ele>2.7</ele>
        <time>2020-06-15T10:44:48Z</time>
      </trkpt>
      <trkpt lat="49.61398" lon="-1.24814">
        <ele>2.6</ele>
        <time>2020-06-15T10:44:49Z</time>
      </trkpt>
      <trkpt lat="49.61391" lon="-1.24816">
        <ele>2.4</ele>
        <time>2020-06-15T10:44:50Z</time>
      </trkpt>
      <trkpt lat="49.61385" lon="-1.24818">
        <ele>2.3</ele>
        <time>2020-06-15T10:44:51Z</time>
      </trkpt>
      <trkpt lat="49.6138" lon="-1.24821">
        <ele>2.2</ele>
        <time>2020-06-15T10:44:52Z</time>
      </trkpt>
      <trkpt lat="49.61374" lon="-1.24824">
        <ele>2.1</ele>
        <time>2020-06-15T10:44:53Z</time>
      </trkpt>
      <trkpt lat="49.61368" lon="-1.24827">
        <ele>2</ele>
        <time>2020-06-15T10:44:54Z</time>
      </trkpt>
      <trkpt lat="49.61362" lon="-1.24828">
        <ele>2</ele>
        <time>2020-06-15T10:44:55Z</time>
      </trkpt>
      <trkpt lat="49.61356" lon="-1.24829">
        <ele>1.9</ele>
        <time>2020-06-15T10:44:56Z</time>
      </trkpt>
      <trkpt lat="49.6135" lon="-1.24832">
        <ele>1.9</ele>
        <time>2020-06-15T10:44:57Z</time>
      </trkpt>
      <trkpt lat="49.61344" lon="-1.24834">
        <ele>1.8</ele>
        <time>2020-06-15T10:44:58Z</time>
      </trkpt>
      <trkpt lat="49.61338" lon="-1.24836">
        <ele>1.8</ele>
        <time>2020-06-15T10:44:59Z</time>
      </trkpt>
      <trkpt lat="49.6133" lon="-1.2484">
        <ele>1.7</ele>
        <time>2020-06-15T10:45:00Z</time>
      </trkpt>
      <trkpt lat="49.61323" lon="-1.24844">
        <ele>1.7</ele>
        <time>2020-06-15T10:45:01Z</time>
      </trkpt>
      <trkpt lat="49.61317" lon="-1.24848">
        <ele>1.6</ele>
        <time>2020-06-15T10:45:02Z</time>
      </trkpt>
      <trkpt lat="49.61311" lon="-1.24851">
        <ele>1.6</ele>
        <time>2020-06-15T10:45:03Z</time>
      </trkpt>
      <trkpt lat="49.61306" lon="-1.24855">
        <ele>1.6</ele>
        <time>2020-06-15T10:45:04Z</time>
      </trkpt>
      <trkpt lat="49.613" lon="-1.24859">
        <ele>1.5</ele>
        <time>2020-06-15T10:45:05Z</time>
      </trkpt>
      <trkpt lat="49.61295" lon="-1.24863">
        <ele>1.5</ele>
        <time>2020-06-15T10:45:06Z</time>
      </trkpt>
      <trkpt lat="49.61288" lon="-1.24868">
        <ele>1.5</ele>
        <time>2020-06-15T10:45:07Z</time>
      </trkpt>
      <trkpt lat="49.61282" lon="-1.24872">
        <ele>1.5</ele>
        <time>2020-06-15T10:45:08Z</time>
      </trkpt>
      <trkpt lat="49.61278" lon="-1.24876">
        <ele>1.5</ele>
        <time>2020-06-15T10:45:09Z</time>
      </trkpt>
      <trkpt lat="49.61273" lon="-1.24881">
        <ele>1.5</ele>
        <time>2020-06-15T10:45:10Z</time>
      </trkpt>
      <trkpt lat="49.61268" lon="-1.24888">
        <ele>1.5</ele>
        <time>2020-06-15T10:45:11Z</time>
      </trkpt>
      <trkpt lat="49.61266" lon="-1.24897">
        <ele>1.5</ele>
        <time>2020-06-15T10:45:12Z</time>
      </trkpt>
      <trkpt lat="49.61265" lon="-1.24908">
        <ele>1.5</ele>
        <time>2020-06-15T10:45:13Z</time>
      </trkpt>
      <trkpt lat="49.61265" lon="-1.24919">
        <ele>1.5</ele>
        <time>2020-06-15T10:45:14Z</time>
      </trkpt>
      <trkpt lat="49.61265" lon="-1.24929">
        <ele>1.5</ele>
        <time>2020-06-15T10:45:15Z</time>
      </trkpt>
      <trkpt lat="49.61266" lon="-1.24939">
        <ele>1.5</ele>
        <time>2020-06-15T10:45:16Z</time>
      </trkpt>
      <trkpt lat="49.61267" lon="-1.24948">
        <ele>1.5</ele>
        <time>2020-06-15T10:45:17Z</time>
      </trkpt>
      <trkpt lat="49.61268" lon="-1.24956">
        <ele>1.5</ele>
        <time>2020-06-15T10:45:18Z</time>
      </trkpt>
      <trkpt lat="49.61268" lon="-1.24966">
        <ele>1.5</ele>
        <time>2020-06-15T10:45:19Z</time>
      </trkpt>
      <trkpt lat="49.61268" lon="-1.24974">
        <ele>1.5</ele>
        <time>2020-06-15T10:45:20Z</time>
      </trkpt>
      <trkpt lat="49.61269" lon="-1.24981">
        <ele>1.5</ele>
        <time>2020-06-15T10:45:21Z</time>
      </trkpt>
      <trkpt lat="49.61268" lon="-1.24989">
        <ele>1.5</ele>
        <time>2020-06-15T10:45:22Z</time>
      </trkpt>
      <trkpt lat="49.61268" lon="-1.24996">
        <ele>1.5</ele>
        <time>2020-06-15T10:45:23Z</time>
      </trkpt>
      <trkpt lat="49.61267" lon="-1.25003">
        <ele>1.5</ele>
        <time>2020-06-15T10:45:24Z</time>
      </trkpt>
      <trkpt lat="49.61266" lon="-1.25011">
        <ele>1.5</ele>
        <time>2020-06-15T10:45:25Z</time>
      </trkpt>
      <trkpt lat="49.61265" lon="-1.25019">
        <ele>1.6</ele>
        <time>2020-06-15T10:45:26Z</time>
      </trkpt>
      <trkpt lat="49.61264" lon="-1.25027">
        <ele>1.6</ele>
        <time>2020-06-15T10:45:27Z</time>
      </trkpt>
      <trkpt lat="49.61262" lon="-1.25036">
        <ele>1.6</ele>
        <time>2020-06-15T10:45:28Z</time>
      </trkpt>
      <trkpt lat="49.61261" lon="-1.25046">
        <ele>1.6</ele>
        <time>2020-06-15T10:45:29Z</time>
      </trkpt>
      <trkpt lat="49.61261" lon="-1.25054">
        <ele>1.6</ele>
        <time>2020-06-15T10:45:30Z</time>
      </trkpt>
      <trkpt lat="49.61261" lon="-1.25062">
        <ele>1.6</ele>
        <time>2020-06-15T10:45:31Z</time>
      </trkpt>
      <trkpt lat="49.61261" lon="-1.25071">
        <ele>1.6</ele>
        <time>2020-06-15T10:45:32Z</time>
      </trkpt>
      <trkpt lat="49.61261" lon="-1.25079">
        <ele>1.6</ele>
        <time>2020-06-15T10:45:33Z</time>
      </trkpt>
      <trkpt lat="49.6126" lon="-1.25087">
        <ele>1.6</ele>
        <time>2020-06-15T10:45:34Z</time>
      </trkpt>
      <trkpt lat="49.6126" lon="-1.25095">
        <ele>1.7</ele>
        <time>2020-06-15T10:45:35Z</time>
      </trkpt>
      <trkpt lat="49.61259" lon="-1.25103">
        <ele>1.7</ele>
        <time>2020-06-15T10:45:36Z</time>
      </trkpt>
      <trkpt lat="49.61258" lon="-1.25111">
        <ele>1.7</ele>
        <time>2020-06-15T10:45:37Z</time>
      </trkpt>
      <trkpt lat="49.61257" lon="-1.25119">
        <ele>1.7</ele>
        <time>2020-06-15T10:45:38Z</time>
      </trkpt>
      <trkpt lat="49.61257" lon="-1.25127">
        <ele>1.7</ele>
        <time>2020-06-15T10:45:39Z</time>
      </trkpt>
      <trkpt lat="49.61257" lon="-1.25135">
        <ele>1.7</ele>
        <time>2020-06-15T10:45:40Z</time>
      </trkpt>
      <trkpt lat="49.61257" lon="-1.25144">
        <ele>1.7</ele>
        <time>2020-06-15T10:45:41Z</time>
      </trkpt>
      <trkpt lat="49.61257" lon="-1.25154">
        <ele>1.7</ele>
        <time>2020-06-15T10:45:42Z</time>
      </trkpt>
      <trkpt lat="49.61257" lon="-1.25162">
        <ele>1.7</ele>
        <time>2020-06-15T10:45:43Z</time>
      </trkpt>
      <trkpt lat="49.61257" lon="-1.25171">
        <ele>1.7</ele>
        <time>2020-06-15T10:45:44Z</time>
      </trkpt>
      <trkpt lat="49.61257" lon="-1.25181">
        <ele>1.7</ele>
        <time>2020-06-15T10:45:45Z</time>
      </trkpt>
      <trkpt lat="49.61256" lon="-1.25191">
        <ele>1.7</ele>
        <time>2020-06-15T10:45:46Z</time>
      </trkpt>
      <trkpt lat="49.61257" lon="-1.252">
        <ele>1.7</ele>
        <time>2020-06-15T10:45:47Z</time>
      </trkpt>
      <trkpt lat="49.61256" lon="-1.25209">
        <ele>1.7</ele>
        <time>2020-06-15T10:45:48Z</time>
      </trkpt>
      <trkpt lat="49.61256" lon="-1.25218">
        <ele>1.7</ele>
        <time>2020-06-15T10:45:49Z</time>
      </trkpt>
      <trkpt lat="49.61256" lon="-1.25227">
        <ele>1.7</ele>
        <time>2020-06-15T10:45:50Z</time>
      </trkpt>
      <trkpt lat="49.61257" lon="-1.25236">
        <ele>1.7</ele>
        <time>2020-06-15T10:45:51Z</time>
      </trkpt>
      <trkpt lat="49.61257" lon="-1.25246">
        <ele>1.8</ele>
        <time>2020-06-15T10:45:52Z</time>
      </trkpt>
      <trkpt lat="49.61257" lon="-1.25255">
        <ele>1.8</ele>
        <time>2020-06-15T10:45:53Z</time>
      </trkpt>
      <trkpt lat="49.61257" lon="-1.25264">
        <ele>1.7</ele>
        <time>2020-06-15T10:45:54Z</time>
      </trkpt>
      <trkpt lat="49.61257" lon="-1.25273">
        <ele>1.7</ele>
        <time>2020-06-15T10:45:55Z</time>
      </trkpt>
      <trkpt lat="49.61258" lon="-1.25281">
        <ele>1.7</ele>
        <time>2020-06-15T10:45:56Z</time>
      </trkpt>
      <trkpt lat="49.61259" lon="-1.2529">
        <ele>1.7</ele>
        <time>2020-06-15T10:45:57Z</time>
      </trkpt>
      <trkpt lat="49.6126" lon="-1.25297">
        <ele>1.7</ele>
        <time>2020-06-15T10:45:58Z</time>
      </trkpt>
      <trkpt lat="49.61261" lon="-1.25305">
        <ele>1.7</ele>
        <time>2020-06-15T10:45:59Z</time>
      </trkpt>
      <trkpt lat="49.61262" lon="-1.25313">
        <ele>1.7</ele>
        <time>2020-06-15T10:46:00Z</time>
      </trkpt>
      <trkpt lat="49.61262" lon="-1.25321">
        <ele>1.7</ele>
        <time>2020-06-15T10:46:01Z</time>
      </trkpt>
      <trkpt lat="49.61263" lon="-1.25329">
        <ele>1.7</ele>
        <time>2020-06-15T10:46:02Z</time>
      </trkpt>
      <trkpt lat="49.61264" lon="-1.25337">
        <ele>1.7</ele>
        <time>2020-06-15T10:46:03Z</time>
      </trkpt>
      <trkpt lat="49.61265" lon="-1.25346">
        <ele>1.7</ele>
        <time>2020-06-15T10:46:04Z</time>
      </trkpt>
      <trkpt lat="49.61266" lon="-1.25355">
        <ele>1.7</ele>
        <time>2020-06-15T10:46:05Z</time>
      </trkpt>
      <trkpt lat="49.61266" lon="-1.25364">
        <ele>1.7</ele>
        <time>2020-06-15T10:46:06Z</time>
      </trkpt>
      <trkpt lat="49.61267" lon="-1.25374">
        <ele>1.7</ele>
        <time>2020-06-15T10:46:07Z</time>
      </trkpt>
      <trkpt lat="49.61268" lon="-1.25383">
        <ele>1.7</ele>
        <time>2020-06-15T10:46:08Z</time>
      </trkpt>
      <trkpt lat="49.61269" lon="-1.25391">
        <ele>1.7</ele>
        <time>2020-06-15T10:46:09Z</time>
      </trkpt>
      <trkpt lat="49.6127" lon="-1.25399">
        <ele>1.7</ele>
        <time>2020-06-15T10:46:10Z</time>
      </trkpt>
      <trkpt lat="49.61272" lon="-1.25408">
        <ele>1.7</ele>
        <time>2020-06-15T10:46:11Z</time>
      </trkpt>
      <trkpt lat="49.61275" lon="-1.25414">
        <ele>1.8</ele>
        <time>2020-06-15T10:46:12Z</time>
      </trkpt>
      <trkpt lat="49.61276" lon="-1.25422">
        <ele>1.8</ele>
        <time>2020-06-15T10:46:13Z</time>
      </trkpt>
      <trkpt lat="49.61277" lon="-1.2543">
        <ele>1.8</ele>
        <time>2020-06-15T10:46:14Z</time>
      </trkpt>
      <trkpt lat="49.61279" lon="-1.25437">
        <ele>1.8</ele>
        <time>2020-06-15T10:46:15Z</time>
      </trkpt>
      <trkpt lat="49.6128" lon="-1.25444">
        <ele>1.8</ele>
        <time>2020-06-15T10:46:16Z</time>
      </trkpt>
      <trkpt lat="49.61282" lon="-1.25453">
        <ele>1.7</ele>
        <time>2020-06-15T10:46:17Z</time>
      </trkpt>
      <trkpt lat="49.61285" lon="-1.25462">
        <ele>1.7</ele>
        <time>2020-06-15T10:46:18Z</time>
      </trkpt>
      <trkpt lat="49.61287" lon="-1.25471">
        <ele>1.7</ele>
        <time>2020-06-15T10:46:19Z</time>
      </trkpt>
      <trkpt lat="49.61289" lon="-1.2548">
        <ele>1.6</ele>
        <time>2020-06-15T10:46:20Z</time>
      </trkpt>
      <trkpt lat="49.61293" lon="-1.25488">
        <ele>1.6</ele>
        <time>2020-06-15T10:46:21Z</time>
      </trkpt>
      <trkpt lat="49.61294" lon="-1.25496">
        <ele>1.6</ele>
        <time>2020-06-15T10:46:22Z</time>
      </trkpt>
      <trkpt lat="49.61297" lon="-1.25504">
        <ele>1.6</ele>
        <time>2020-06-15T10:46:23Z</time>
      </trkpt>
      <trkpt lat="49.61299" lon="-1.25512">
        <ele>1.6</ele>
        <time>2020-06-15T10:46:24Z</time>
      </trkpt>
      <trkpt lat="49.61301" lon="-1.2552">
        <ele>1.6</ele>
        <time>2020-06-15T10:46:25Z</time>
      </trkpt>
      <trkpt lat="49.61302" lon="-1.25529">
        <ele>1.6</ele>
        <time>2020-06-15T10:46:26Z</time>
      </trkpt>
      <trkpt lat="49.61304" lon="-1.25537">
        <ele>1.6</ele>
        <time>2020-06-15T10:46:27Z</time>
      </trkpt>
      <trkpt lat="49.61305" lon="-1.25544">
        <ele>1.7</ele>
        <time>2020-06-15T10:46:28Z</time>
      </trkpt>
      <trkpt lat="49.61307" lon="-1.25552">
        <ele>1.7</ele>
        <time>2020-06-15T10:46:29Z</time>
      </trkpt>
      <trkpt lat="49.61308" lon="-1.25559">
        <ele>1.7</ele>
        <time>2020-06-15T10:46:30Z</time>
      </trkpt>
      <trkpt lat="49.6131" lon="-1.25566">
        <ele>1.8</ele>
        <time>2020-06-15T10:46:31Z</time>
      </trkpt>
      <trkpt lat="49.6131" lon="-1.25573">
        <ele>1.8</ele>
        <time>2020-06-15T10:46:32Z</time>
      </trkpt>
      <trkpt lat="49.61312" lon="-1.25578">
        <ele>1.8</ele>
        <time>2020-06-15T10:46:33Z</time>
      </trkpt>
      <trkpt lat="49.61312" lon="-1.25582">
        <ele>1.8</ele>
        <time>2020-06-15T10:46:34Z</time>
      </trkpt>
      <trkpt lat="49.61313" lon="-1.25586">
        <ele>1.8</ele>
        <time>2020-06-15T10:46:35Z</time>
      </trkpt>
      <trkpt lat="49.61312" lon="-1.25591">
        <ele>1.9</ele>
        <time>2020-06-15T10:46:36Z</time>
      </trkpt>
      <trkpt lat="49.61312" lon="-1.25593">
        <ele>1.9</ele>
        <time>2020-06-15T10:46:37Z</time>
      </trkpt>
      <trkpt lat="49.61309" lon="-1.25596">
        <ele>1.9</ele>
        <time>2020-06-15T10:46:38Z</time>
      </trkpt>
      <trkpt lat="49.61305" lon="-1.25595">
        <ele>1.9</ele>
        <time>2020-06-15T10:46:39Z</time>
      </trkpt>
      <trkpt lat="49.61302" lon="-1.25594">
        <ele>1.9</ele>
        <time>2020-06-15T10:46:40Z</time>
      </trkpt>
      <trkpt lat="49.61298" lon="-1.25595">
        <ele>1.9</ele>
        <time>2020-06-15T10:46:41Z</time>
      </trkpt>
      <trkpt lat="49.61293" lon="-1.25597">
        <ele>2</ele>
        <time>2020-06-15T10:46:42Z</time>
      </trkpt>
      <trkpt lat="49.61288" lon="-1.25599">
        <ele>2</ele>
        <time>2020-06-15T10:46:43Z</time>
      </trkpt>
      <trkpt lat="49.61283" lon="-1.25601">
        <ele>2.1</ele>
        <time>2020-06-15T10:46:44Z</time>
      </trkpt>
      <trkpt lat="49.61279" lon="-1.25601">
        <ele>2.1</ele>
        <time>2020-06-15T10:46:45Z</time>
      </trkpt>
      <trkpt lat="49.61274" lon="-1.25603">
        <ele>2.1</ele>
        <time>2020-06-15T10:46:46Z</time>
      </trkpt>
      <trkpt lat="49.6127" lon="-1.25604">
        <ele>2.2</ele>
        <time>2020-06-15T10:46:47Z</time>
      </trkpt>
      <trkpt lat="49.61265" lon="-1.25605">
        <ele>2.2</ele>
        <time>2020-06-15T10:46:48Z</time>
      </trkpt>
      <trkpt lat="49.61261" lon="-1.25605">
        <ele>2.2</ele>
        <time>2020-06-15T10:46:49Z</time>
      </trkpt>
      <trkpt lat="49.61256" lon="-1.25606">
        <ele>2.3</ele>
        <time>2020-06-15T10:46:50Z</time>
      </trkpt>
      <trkpt lat="49.61251" lon="-1.25607">
        <ele>2.3</ele>
        <time>2020-06-15T10:46:51Z</time>
      </trkpt>
      <trkpt lat="49.61247" lon="-1.25607">
        <ele>2.4</ele>
        <time>2020-06-15T10:46:52Z</time>
      </trkpt>
      <trkpt lat="49.61242" lon="-1.25607">
        <ele>2.5</ele>
        <time>2020-06-15T10:46:53Z</time>
      </trkpt>
      <trkpt lat="49.61238" lon="-1.25608">
        <ele>2.5</ele>
        <time>2020-06-15T10:46:54Z</time>
      </trkpt>
      <trkpt lat="49.61234" lon="-1.25609">
        <ele>2.6</ele>
        <time>2020-06-15T10:46:55Z</time>
      </trkpt>
      <trkpt lat="49.61229" lon="-1.2561">
        <ele>2.6</ele>
        <time>2020-06-15T10:46:56Z</time>
      </trkpt>
      <trkpt lat="49.61224" lon="-1.25612">
        <ele>2.6</ele>
        <time>2020-06-15T10:46:57Z</time>
      </trkpt>
      <trkpt lat="49.61219" lon="-1.25613">
        <ele>2.6</ele>
        <time>2020-06-15T10:46:58Z</time>
      </trkpt>
      <trkpt lat="49.61215" lon="-1.25615">
        <ele>2.5</ele>
        <time>2020-06-15T10:46:59Z</time>
      </trkpt>
      <trkpt lat="49.61209" lon="-1.25617">
        <ele>2.5</ele>
        <time>2020-06-15T10:47:00Z</time>
      </trkpt>
      <trkpt lat="49.61205" lon="-1.25619">
        <ele>2.5</ele>
        <time>2020-06-15T10:47:01Z</time>
      </trkpt>
      <trkpt lat="49.612" lon="-1.25621">
        <ele>2.5</ele>
        <time>2020-06-15T10:47:02Z</time>
      </trkpt>
      <trkpt lat="49.61195" lon="-1.25623">
        <ele>2.4</ele>
        <time>2020-06-15T10:47:03Z</time>
      </trkpt>
      <trkpt lat="49.61191" lon="-1.25624">
        <ele>2.4</ele>
        <time>2020-06-15T10:47:04Z</time>
      </trkpt>
      <trkpt lat="49.61186" lon="-1.25625">
        <ele>2.3</ele>
        <time>2020-06-15T10:47:05Z</time>
      </trkpt>
      <trkpt lat="49.61181" lon="-1.25628">
        <ele>2.3</ele>
        <time>2020-06-15T10:47:06Z</time>
      </trkpt>
      <trkpt lat="49.61177" lon="-1.2563">
        <ele>2.2</ele>
        <time>2020-06-15T10:47:07Z</time>
      </trkpt>
      <trkpt lat="49.61172" lon="-1.25631">
        <ele>2.2</ele>
        <time>2020-06-15T10:47:08Z</time>
      </trkpt>
      <trkpt lat="49.61166" lon="-1.25633">
        <ele>2.1</ele>
        <time>2020-06-15T10:47:09Z</time>
      </trkpt>
      <trkpt lat="49.6116" lon="-1.25635">
        <ele>2.1</ele>
        <time>2020-06-15T10:47:10Z</time>
      </trkpt>
      <trkpt lat="49.61155" lon="-1.25637">
        <ele>2</ele>
        <time>2020-06-15T10:47:11Z</time>
      </trkpt>
      <trkpt lat="49.6115" lon="-1.25638">
        <ele>2</ele>
        <time>2020-06-15T10:47:12Z</time>
      </trkpt>
      <trkpt lat="49.61143" lon="-1.2564">
        <ele>1.9</ele>
        <time>2020-06-15T10:47:13Z</time>
      </trkpt>
      <trkpt lat="49.61137" lon="-1.25644">
        <ele>1.9</ele>
        <time>2020-06-15T10:47:14Z</time>
      </trkpt>
      <trkpt lat="49.6113" lon="-1.25647">
        <ele>1.8</ele>
        <time>2020-06-15T10:47:15Z</time>
      </trkpt>
      <trkpt lat="49.61123" lon="-1.25649">
        <ele>1.8</ele>
        <time>2020-06-15T10:47:16Z</time>
      </trkpt>
      <trkpt lat="49.61117" lon="-1.25651">
        <ele>1.8</ele>
        <time>2020-06-15T10:47:17Z</time>
      </trkpt>
      <trkpt lat="49.61111" lon="-1.25653">
        <ele>1.7</ele>
        <time>2020-06-15T10:47:18Z</time>
      </trkpt>
      <trkpt lat="49.61105" lon="-1.25654">
        <ele>1.7</ele>
        <time>2020-06-15T10:47:19Z</time>
      </trkpt>
      <trkpt lat="49.61098" lon="-1.25657">
        <ele>1.7</ele>
        <time>2020-06-15T10:47:20Z</time>
      </trkpt>
      <trkpt lat="49.61092" lon="-1.25659">
        <ele>1.6</ele>
        <time>2020-06-15T10:47:21Z</time>
      </trkpt>
      <trkpt lat="49.61086" lon="-1.25661">
        <ele>1.6</ele>
        <time>2020-06-15T10:47:22Z</time>
      </trkpt>
      <trkpt lat="49.61079" lon="-1.25663">
        <ele>1.6</ele>
        <time>2020-06-15T10:47:23Z</time>
      </trkpt>
      <trkpt lat="49.61073" lon="-1.25665">
        <ele>1.6</ele>
        <time>2020-06-15T10:47:24Z</time>
      </trkpt>
      <trkpt lat="49.61066" lon="-1.25667">
        <ele>1.7</ele>
        <time>2020-06-15T10:47:25Z</time>
      </trkpt>
      <trkpt lat="49.61059" lon="-1.25669">
        <ele>1.7</ele>
        <time>2020-06-15T10:47:26Z</time>
      </trkpt>
      <trkpt lat="49.61053" lon="-1.25672">
        <ele>1.7</ele>
        <time>2020-06-15T10:47:27Z</time>
      </trkpt>
      <trkpt lat="49.61047" lon="-1.25674">
        <ele>1.7</ele>
        <time>2020-06-15T10:47:28Z</time>
      </trkpt>
      <trkpt lat="49.6104" lon="-1.25677">
        <ele>1.7</ele>
        <time>2020-06-15T10:47:29Z</time>
      </trkpt>
      <trkpt lat="49.61034" lon="-1.25679">
        <ele>1.7</ele>
        <time>2020-06-15T10:47:30Z</time>
      </trkpt>
      <trkpt lat="49.61028" lon="-1.25682">
        <ele>1.7</ele>
        <time>2020-06-15T10:47:31Z</time>
      </trkpt>
      <trkpt lat="49.61021" lon="-1.25684">
        <ele>1.8</ele>
        <time>2020-06-15T10:47:32Z</time>
      </trkpt>
      <trkpt lat="49.61016" lon="-1.25687">
        <ele>1.8</ele>
        <time>2020-06-15T10:47:33Z</time>
      </trkpt>
      <trkpt lat="49.6101" lon="-1.2569">
        <ele>1.8</ele>
        <time>2020-06-15T10:47:34Z</time>
      </trkpt>
      <trkpt lat="49.61004" lon="-1.25693">
        <ele>1.9</ele>
        <time>2020-06-15T10:47:35Z</time>
      </trkpt>
      <trkpt lat="49.60998" lon="-1.25695">
        <ele>1.9</ele>
        <time>2020-06-15T10:47:36Z</time>
      </trkpt>
      <trkpt lat="49.60992" lon="-1.25697">
        <ele>2</ele>
        <time>2020-06-15T10:47:37Z</time>
      </trkpt>
      <trkpt lat="49.60986" lon="-1.257">
        <ele>2</ele>
        <time>2020-06-15T10:47:38Z</time>
      </trkpt>
      <trkpt lat="49.6098" lon="-1.25702">
        <ele>2.1</ele>
        <time>2020-06-15T10:47:39Z</time>
      </trkpt>
      <trkpt lat="49.60975" lon="-1.25704">
        <ele>2.1</ele>
        <time>2020-06-15T10:47:40Z</time>
      </trkpt>
      <trkpt lat="49.60969" lon="-1.25707">
        <ele>2.1</ele>
        <time>2020-06-15T10:47:41Z</time>
      </trkpt>
      <trkpt lat="49.60961" lon="-1.2571">
        <ele>2.2</ele>
        <time>2020-06-15T10:47:42Z</time>
      </trkpt>
      <trkpt lat="49.60955" lon="-1.25712">
        <ele>2.2</ele>
        <time>2020-06-15T10:47:43Z</time>
      </trkpt>
      <trkpt lat="49.60949" lon="-1.25714">
        <ele>2.2</ele>
        <time>2020-06-15T10:47:44Z</time>
      </trkpt>
      <trkpt lat="49.60943" lon="-1.25716">
        <ele>2.3</ele>
        <time>2020-06-15T10:47:45Z</time>
      </trkpt>
      <trkpt lat="49.60936" lon="-1.25718">
        <ele>2.3</ele>
        <time>2020-06-15T10:47:46Z</time>
      </trkpt>
      <trkpt lat="49.6093" lon="-1.25721">
        <ele>2.4</ele>
        <time>2020-06-15T10:47:47Z</time>
      </trkpt>
      <trkpt lat="49.60924" lon="-1.25723">
        <ele>2.4</ele>
        <time>2020-06-15T10:47:48Z</time>
      </trkpt>
      <trkpt lat="49.60918" lon="-1.25725">
        <ele>2.4</ele>
        <time>2020-06-15T10:47:49Z</time>
      </trkpt>
      <trkpt lat="49.60912" lon="-1.25728">
        <ele>2.5</ele>
        <time>2020-06-15T10:47:50Z</time>
      </trkpt>
      <trkpt lat="49.60906" lon="-1.2573">
        <ele>2.6</ele>
        <time>2020-06-15T10:47:51Z</time>
      </trkpt>
      <trkpt lat="49.60899" lon="-1.25732">
        <ele>2.8</ele>
        <time>2020-06-15T10:47:52Z</time>
      </trkpt>
      <trkpt lat="49.60893" lon="-1.25734">
        <ele>2.8</ele>
        <time>2020-06-15T10:47:53Z</time>
      </trkpt>
      <trkpt lat="49.60887" lon="-1.25737">
        <ele>2.8</ele>
        <time>2020-06-15T10:47:54Z</time>
      </trkpt>
      <trkpt lat="49.60882" lon="-1.25739">
        <ele>2.8</ele>
        <time>2020-06-15T10:47:55Z</time>
      </trkpt>
      <trkpt lat="49.60876" lon="-1.25742">
        <ele>2.8</ele>
        <time>2020-06-15T10:47:56Z</time>
      </trkpt>
      <trkpt lat="49.6087" lon="-1.25744">
        <ele>2.8</ele>
        <time>2020-06-15T10:47:57Z</time>
      </trkpt>
      <trkpt lat="49.60864" lon="-1.25747">
        <ele>2.8</ele>
        <time>2020-06-15T10:47:58Z</time>
      </trkpt>
      <trkpt lat="49.60858" lon="-1.2575">
        <ele>2.8</ele>
        <time>2020-06-15T10:47:59Z</time>
      </trkpt>
      <trkpt lat="49.60853" lon="-1.25752">
        <ele>2.8</ele>
        <time>2020-06-15T10:48:00Z</time>
      </trkpt>
      <trkpt lat="49.60847" lon="-1.25755">
        <ele>2.8</ele>
        <time>2020-06-15T10:48:01Z</time>
      </trkpt>
      <trkpt lat="49.60841" lon="-1.25757">
        <ele>2.8</ele>
        <time>2020-06-15T10:48:02Z</time>
      </trkpt>
      <trkpt lat="49.60835" lon="-1.2576">
        <ele>2.8</ele>
        <time>2020-06-15T10:48:03Z</time>
      </trkpt>
      <trkpt lat="49.60829" lon="-1.25763">
        <ele>2.9</ele>
        <time>2020-06-15T10:48:04Z</time>
      </trkpt>
      <trkpt lat="49.60822" lon="-1.25765">
        <ele>2.9</ele>
        <time>2020-06-15T10:48:05Z</time>
      </trkpt>
      <trkpt lat="49.60816" lon="-1.25768">
        <ele>2.9</ele>
        <time>2020-06-15T10:48:06Z</time>
      </trkpt>
      <trkpt lat="49.60811" lon="-1.2577">
        <ele>2.9</ele>
        <time>2020-06-15T10:48:07Z</time>
      </trkpt>
      <trkpt lat="49.60804" lon="-1.25773">
        <ele>2.9</ele>
        <time>2020-06-15T10:48:08Z</time>
      </trkpt>
      <trkpt lat="49.60798" lon="-1.25776">
        <ele>2.9</ele>
        <time>2020-06-15T10:48:09Z</time>
      </trkpt>
      <trkpt lat="49.60792" lon="-1.25777">
        <ele>2.8</ele>
        <time>2020-06-15T10:48:10Z</time>
      </trkpt>
      <trkpt lat="49.60785" lon="-1.2578">
        <ele>2.8</ele>
        <time>2020-06-15T10:48:11Z</time>
      </trkpt>
      <trkpt lat="49.60779" lon="-1.25783">
        <ele>2.7</ele>
        <time>2020-06-15T10:48:12Z</time>
      </trkpt>
      <trkpt lat="49.60772" lon="-1.25785">
        <ele>2.7</ele>
        <time>2020-06-15T10:48:13Z</time>
      </trkpt>
      <trkpt lat="49.60765" lon="-1.25788">
        <ele>2.6</ele>
        <time>2020-06-15T10:48:14Z</time>
      </trkpt>
      <trkpt lat="49.60759" lon="-1.2579">
        <ele>2.6</ele>
        <time>2020-06-15T10:48:15Z</time>
      </trkpt>
      <trkpt lat="49.60752" lon="-1.25793">
        <ele>2.5</ele>
        <time>2020-06-15T10:48:16Z</time>
      </trkpt>
      <trkpt lat="49.60746" lon="-1.25796">
        <ele>2.4</ele>
        <time>2020-06-15T10:48:17Z</time>
      </trkpt>
      <trkpt lat="49.60739" lon="-1.25798">
        <ele>2.4</ele>
        <time>2020-06-15T10:48:18Z</time>
      </trkpt>
      <trkpt lat="49.60733" lon="-1.25801">
        <ele>2.3</ele>
        <time>2020-06-15T10:48:19Z</time>
      </trkpt>
      <trkpt lat="49.60725" lon="-1.25803">
        <ele>2.3</ele>
        <time>2020-06-15T10:48:20Z</time>
      </trkpt>
      <trkpt lat="49.60719" lon="-1.25806">
        <ele>2.2</ele>
        <time>2020-06-15T10:48:21Z</time>
      </trkpt>
      <trkpt lat="49.60712" lon="-1.25808">
        <ele>2.1</ele>
        <time>2020-06-15T10:48:22Z</time>
      </trkpt>
      <trkpt lat="49.60706" lon="-1.2581">
        <ele>2.1</ele>
        <time>2020-06-15T10:48:23Z</time>
      </trkpt>
      <trkpt lat="49.60699" lon="-1.25813">
        <ele>2</ele>
        <time>2020-06-15T10:48:24Z</time>
      </trkpt>
      <trkpt lat="49.60692" lon="-1.25816">
        <ele>1.9</ele>
        <time>2020-06-15T10:48:25Z</time>
      </trkpt>
      <trkpt lat="49.60685" lon="-1.25819">
        <ele>1.9</ele>
        <time>2020-06-15T10:48:26Z</time>
      </trkpt>
      <trkpt lat="49.60678" lon="-1.25822">
        <ele>1.8</ele>
        <time>2020-06-15T10:48:27Z</time>
      </trkpt>
      <trkpt lat="49.60671" lon="-1.25824">
        <ele>1.8</ele>
        <time>2020-06-15T10:48:28Z</time>
      </trkpt>
      <trkpt lat="49.60664" lon="-1.25827">
        <ele>1.7</ele>
        <time>2020-06-15T10:48:29Z</time>
      </trkpt>
      <trkpt lat="49.60658" lon="-1.2583">
        <ele>1.6</ele>
        <time>2020-06-15T10:48:30Z</time>
      </trkpt>
      <trkpt lat="49.60651" lon="-1.25832">
        <ele>1.6</ele>
        <time>2020-06-15T10:48:31Z</time>
      </trkpt>
      <trkpt lat="49.60643" lon="-1.25834">
        <ele>1.5</ele>
        <time>2020-06-15T10:48:32Z</time>
      </trkpt>
      <trkpt lat="49.60637" lon="-1.25836">
        <ele>1.4</ele>
        <time>2020-06-15T10:48:33Z</time>
      </trkpt>
      <trkpt lat="49.60629" lon="-1.25838">
        <ele>1.3</ele>
        <time>2020-06-15T10:48:34Z</time>
      </trkpt>
      <trkpt lat="49.60623" lon="-1.25841">
        <ele>1.2</ele>
        <time>2020-06-15T10:48:35Z</time>
      </trkpt>
      <trkpt lat="49.60616" lon="-1.25843">
        <ele>1.2</ele>
        <time>2020-06-15T10:48:36Z</time>
      </trkpt>
      <trkpt lat="49.6061" lon="-1.25845">
        <ele>1.2</ele>
        <time>2020-06-15T10:48:37Z</time>
      </trkpt>
      <trkpt lat="49.60604" lon="-1.25847">
        <ele>1.1</ele>
        <time>2020-06-15T10:48:38Z</time>
      </trkpt>
      <trkpt lat="49.60597" lon="-1.25849">
        <ele>1.1</ele>
        <time>2020-06-15T10:48:39Z</time>
      </trkpt>
      <trkpt lat="49.6059" lon="-1.25852">
        <ele>1.1</ele>
        <time>2020-06-15T10:48:40Z</time>
      </trkpt>
      <trkpt lat="49.60583" lon="-1.25856">
        <ele>1.1</ele>
        <time>2020-06-15T10:48:41Z</time>
      </trkpt>
      <trkpt lat="49.60576" lon="-1.25858">
        <ele>1.1</ele>
        <time>2020-06-15T10:48:42Z</time>
      </trkpt>
      <trkpt lat="49.6057" lon="-1.2586">
        <ele>1.1</ele>
        <time>2020-06-15T10:48:43Z</time>
      </trkpt>
      <trkpt lat="49.60563" lon="-1.25863">
        <ele>1.1</ele>
        <time>2020-06-15T10:48:44Z</time>
      </trkpt>
      <trkpt lat="49.60557" lon="-1.25865">
        <ele>1.1</ele>
        <time>2020-06-15T10:48:45Z</time>
      </trkpt>
      <trkpt lat="49.6055" lon="-1.25868">
        <ele>1.1</ele>
        <time>2020-06-15T10:48:46Z</time>
      </trkpt>
      <trkpt lat="49.60543" lon="-1.2587">
        <ele>1.1</ele>
        <time>2020-06-15T10:48:47Z</time>
      </trkpt>
      <trkpt lat="49.60536" lon="-1.25873">
        <ele>1.1</ele>
        <time>2020-06-15T10:48:48Z</time>
      </trkpt>
      <trkpt lat="49.6053" lon="-1.25876">
        <ele>1.1</ele>
        <time>2020-06-15T10:48:49Z</time>
      </trkpt>
      <trkpt lat="49.60523" lon="-1.25878">
        <ele>1.1</ele>
        <time>2020-06-15T10:48:50Z</time>
      </trkpt>
      <trkpt lat="49.60516" lon="-1.25881">
        <ele>1</ele>
        <time>2020-06-15T10:48:51Z</time>
      </trkpt>
      <trkpt lat="49.60509" lon="-1.25885">
        <ele>1</ele>
        <time>2020-06-15T10:48:52Z</time>
      </trkpt>
      <trkpt lat="49.60503" lon="-1.25888">
        <ele>1</ele>
        <time>2020-06-15T10:48:53Z</time>
      </trkpt>
      <trkpt lat="49.60496" lon="-1.25891">
        <ele>1</ele>
        <time>2020-06-15T10:48:54Z</time>
      </trkpt>
      <trkpt lat="49.6049" lon="-1.25894">
        <ele>1</ele>
        <time>2020-06-15T10:48:55Z</time>
      </trkpt>
      <trkpt lat="49.60483" lon="-1.25897">
        <ele>1.1</ele>
        <time>2020-06-15T10:48:56Z</time>
      </trkpt>
      <trkpt lat="49.60476" lon="-1.25899">
        <ele>1.1</ele>
        <time>2020-06-15T10:48:57Z</time>
      </trkpt>
      <trkpt lat="49.60469" lon="-1.25902">
        <ele>1.1</ele>
        <time>2020-06-15T10:48:58Z</time>
      </trkpt>
      <trkpt lat="49.60463" lon="-1.25905">
        <ele>1.1</ele>
        <time>2020-06-15T10:48:59Z</time>
      </trkpt>
      <trkpt lat="49.60457" lon="-1.25908">
        <ele>1.1</ele>
        <time>2020-06-15T10:49:00Z</time>
      </trkpt>
      <trkpt lat="49.6045" lon="-1.2591">
        <ele>1.1</ele>
        <time>2020-06-15T10:49:01Z</time>
      </trkpt>
      <trkpt lat="49.60443" lon="-1.25913">
        <ele>1.1</ele>
        <time>2020-06-15T10:49:02Z</time>
      </trkpt>
      <trkpt lat="49.60436" lon="-1.25918">
        <ele>1.1</ele>
        <time>2020-06-15T10:49:03Z</time>
      </trkpt>
      <trkpt lat="49.60429" lon="-1.25922">
        <ele>1.1</ele>
        <time>2020-06-15T10:49:04Z</time>
      </trkpt>
      <trkpt lat="49.60423" lon="-1.25926">
        <ele>1.1</ele>
        <time>2020-06-15T10:49:05Z</time>
      </trkpt>
      <trkpt lat="49.60416" lon="-1.25929">
        <ele>1.1</ele>
        <time>2020-06-15T10:49:06Z</time>
      </trkpt>
      <trkpt lat="49.60409" lon="-1.25933">
        <ele>1.1</ele>
        <time>2020-06-15T10:49:07Z</time>
      </trkpt>
      <trkpt lat="49.60403" lon="-1.25937">
        <ele>1.1</ele>
        <time>2020-06-15T10:49:08Z</time>
      </trkpt>
      <trkpt lat="49.60396" lon="-1.25942">
        <ele>1.2</ele>
        <time>2020-06-15T10:49:09Z</time>
      </trkpt>
      <trkpt lat="49.6039" lon="-1.25946">
        <ele>1.2</ele>
        <time>2020-06-15T10:49:10Z</time>
      </trkpt>
      <trkpt lat="49.60383" lon="-1.25951">
        <ele>1.2</ele>
        <time>2020-06-15T10:49:11Z</time>
      </trkpt>
      <trkpt lat="49.60376" lon="-1.25956">
        <ele>1.2</ele>
        <time>2020-06-15T10:49:12Z</time>
      </trkpt>
      <trkpt lat="49.6037" lon="-1.2596">
        <ele>1.3</ele>
        <time>2020-06-15T10:49:13Z</time>
      </trkpt>
      <trkpt lat="49.60363" lon="-1.25964">
        <ele>1.3</ele>
        <time>2020-06-15T10:49:14Z</time>
      </trkpt>
      <trkpt lat="49.60356" lon="-1.25968">
        <ele>1.3</ele>
        <time>2020-06-15T10:49:15Z</time>
      </trkpt>
      <trkpt lat="49.6035" lon="-1.25972">
        <ele>1.3</ele>
        <time>2020-06-15T10:49:16Z</time>
      </trkpt>
      <trkpt lat="49.60344" lon="-1.25976">
        <ele>1.3</ele>
        <time>2020-06-15T10:49:17Z</time>
      </trkpt>
      <trkpt lat="49.60337" lon="-1.25981">
        <ele>1.3</ele>
        <time>2020-06-15T10:49:18Z</time>
      </trkpt>
      <trkpt lat="49.60331" lon="-1.25985">
        <ele>1.3</ele>
        <time>2020-06-15T10:49:19Z</time>
      </trkpt>
      <trkpt lat="49.60324" lon="-1.25989">
        <ele>1.3</ele>
        <time>2020-06-15T10:49:20Z</time>
      </trkpt>
      <trkpt lat="49.60318" lon="-1.25993">
        <ele>1.3</ele>
        <time>2020-06-15T10:49:21Z</time>
      </trkpt>
      <trkpt lat="49.60311" lon="-1.25997">
        <ele>1.3</ele>
        <time>2020-06-15T10:49:22Z</time>
      </trkpt>
      <trkpt lat="49.60305" lon="-1.26002">
        <ele>1.3</ele>
        <time>2020-06-15T10:49:23Z</time>
      </trkpt>
      <trkpt lat="49.60298" lon="-1.26006">
        <ele>1.3</ele>
        <time>2020-06-15T10:49:24Z</time>
      </trkpt>
      <trkpt lat="49.60291" lon="-1.2601">
        <ele>1.3</ele>
        <time>2020-06-15T10:49:25Z</time>
      </trkpt>
      <trkpt lat="49.60285" lon="-1.26015">
        <ele>1.3</ele>
        <time>2020-06-15T10:49:26Z</time>
      </trkpt>
      <trkpt lat="49.60278" lon="-1.2602">
        <ele>1.3</ele>
        <time>2020-06-15T10:49:27Z</time>
      </trkpt>
      <trkpt lat="49.60272" lon="-1.26025">
        <ele>1.4</ele>
        <time>2020-06-15T10:49:28Z</time>
      </trkpt>
      <trkpt lat="49.60266" lon="-1.26029">
        <ele>1.4</ele>
        <time>2020-06-15T10:49:29Z</time>
      </trkpt>
      <trkpt lat="49.6026" lon="-1.26034">
        <ele>1.4</ele>
        <time>2020-06-15T10:49:30Z</time>
      </trkpt>
      <trkpt lat="49.60254" lon="-1.26039">
        <ele>1.4</ele>
        <time>2020-06-15T10:49:31Z</time>
      </trkpt>
      <trkpt lat="49.60247" lon="-1.26043">
        <ele>1.4</ele>
        <time>2020-06-15T10:49:32Z</time>
      </trkpt>
      <trkpt lat="49.60241" lon="-1.26047">
        <ele>1.4</ele>
        <time>2020-06-15T10:49:33Z</time>
      </trkpt>
      <trkpt lat="49.60234" lon="-1.26051">
        <ele>1.4</ele>
        <time>2020-06-15T10:49:34Z</time>
      </trkpt>
      <trkpt lat="49.60226" lon="-1.26056">
        <ele>1.4</ele>
        <time>2020-06-15T10:49:35Z</time>
      </trkpt>
      <trkpt lat="49.60219" lon="-1.26061">
        <ele>1.4</ele>
        <time>2020-06-15T10:49:36Z</time>
      </trkpt>
      <trkpt lat="49.60212" lon="-1.26065">
        <ele>1.3</ele>
        <time>2020-06-15T10:49:37Z</time>
      </trkpt>
      <trkpt lat="49.60205" lon="-1.26069">
        <ele>1.3</ele>
        <time>2020-06-15T10:49:38Z</time>
      </trkpt>
      <trkpt lat="49.60198" lon="-1.26073">
        <ele>1.3</ele>
        <time>2020-06-15T10:49:39Z</time>
      </trkpt>
      <trkpt lat="49.60191" lon="-1.26078">
        <ele>1.3</ele>
        <time>2020-06-15T10:49:40Z</time>
      </trkpt>
      <trkpt lat="49.60184" lon="-1.26082">
        <ele>1.3</ele>
        <time>2020-06-15T10:49:41Z</time>
      </trkpt>
      <trkpt lat="49.60177" lon="-1.26086">
        <ele>1.3</ele>
        <time>2020-06-15T10:49:42Z</time>
      </trkpt>
      <trkpt lat="49.6017" lon="-1.26091">
        <ele>1.3</ele>
        <time>2020-06-15T10:49:43Z</time>
      </trkpt>
      <trkpt lat="49.60163" lon="-1.26096">
        <ele>1.2</ele>
        <time>2020-06-15T10:49:44Z</time>
      </trkpt>
      <trkpt lat="49.60156" lon="-1.261">
        <ele>1.2</ele>
        <time>2020-06-15T10:49:45Z</time>
      </trkpt>
      <trkpt lat="49.60149" lon="-1.26106">
        <ele>1.2</ele>
        <time>2020-06-15T10:49:46Z</time>
      </trkpt>
      <trkpt lat="49.60143" lon="-1.26111">
        <ele>1.1</ele>
        <time>2020-06-15T10:49:47Z</time>
      </trkpt>
      <trkpt lat="49.60136" lon="-1.26115">
        <ele>1.1</ele>
        <time>2020-06-15T10:49:48Z</time>
      </trkpt>
      <trkpt lat="49.6013" lon="-1.2612">
        <ele>1.1</ele>
        <time>2020-06-15T10:49:49Z</time>
      </trkpt>
      <trkpt lat="49.60123" lon="-1.26124">
        <ele>1.1</ele>
        <time>2020-06-15T10:49:50Z</time>
      </trkpt>
      <trkpt lat="49.60118" lon="-1.26128">
        <ele>1.1</ele>
        <time>2020-06-15T10:49:51Z</time>
      </trkpt>
      <trkpt lat="49.60112" lon="-1.26132">
        <ele>1.1</ele>
        <time>2020-06-15T10:49:52Z</time>
      </trkpt>
      <trkpt lat="49.60106" lon="-1.26137">
        <ele>1.1</ele>
        <time>2020-06-15T10:49:53Z</time>
      </trkpt>
      <trkpt lat="49.60099" lon="-1.26142">
        <ele>1.1</ele>
        <time>2020-06-15T10:49:54Z</time>
      </trkpt>
      <trkpt lat="49.60092" lon="-1.26147">
        <ele>1.1</ele>
        <time>2020-06-15T10:49:55Z</time>
      </trkpt>
      <trkpt lat="49.60085" lon="-1.26152">
        <ele>1.1</ele>
        <time>2020-06-15T10:49:56Z</time>
      </trkpt>
      <trkpt lat="49.60078" lon="-1.26157">
        <ele>1.1</ele>
        <time>2020-06-15T10:49:57Z</time>
      </trkpt>
      <trkpt lat="49.60072" lon="-1.26162">
        <ele>1.1</ele>
        <time>2020-06-15T10:49:58Z</time>
      </trkpt>
      <trkpt lat="49.60065" lon="-1.26167">
        <ele>1.1</ele>
        <time>2020-06-15T10:49:59Z</time>
      </trkpt>
      <trkpt lat="49.60059" lon="-1.26173">
        <ele>1.1</ele>
        <time>2020-06-15T10:50:00Z</time>
      </trkpt>
      <trkpt lat="49.60052" lon="-1.26179">
        <ele>1.1</ele>
        <time>2020-06-15T10:50:01Z</time>
      </trkpt>
      <trkpt lat="49.60046" lon="-1.26185">
        <ele>1.1</ele>
        <time>2020-06-15T10:50:02Z</time>
      </trkpt>
      <trkpt lat="49.60039" lon="-1.26192">
        <ele>1.1</ele>
        <time>2020-06-15T10:50:03Z</time>
      </trkpt>
      <trkpt lat="49.60032" lon="-1.26197">
        <ele>1.1</ele>
        <time>2020-06-15T10:50:04Z</time>
      </trkpt>
      <trkpt lat="49.60025" lon="-1.26202">
        <ele>1.1</ele>
        <time>2020-06-15T10:50:05Z</time>
      </trkpt>
      <trkpt lat="49.60019" lon="-1.26207">
        <ele>1.1</ele>
        <time>2020-06-15T10:50:06Z</time>
      </trkpt>
      <trkpt lat="49.60012" lon="-1.26212">
        <ele>1.1</ele>
        <time>2020-06-15T10:50:07Z</time>
      </trkpt>
      <trkpt lat="49.60006" lon="-1.26218">
        <ele>1.1</ele>
        <time>2020-06-15T10:50:08Z</time>
      </trkpt>
      <trkpt lat="49.6" lon="-1.26224">
        <ele>1.1</ele>
        <time>2020-06-15T10:50:09Z</time>
      </trkpt>
      <trkpt lat="49.59994" lon="-1.26229">
        <ele>1.1</ele>
        <time>2020-06-15T10:50:10Z</time>
      </trkpt>
      <trkpt lat="49.59987" lon="-1.26235">
        <ele>1.1</ele>
        <time>2020-06-15T10:50:11Z</time>
      </trkpt>
      <trkpt lat="49.59981" lon="-1.26241">
        <ele>1.1</ele>
        <time>2020-06-15T10:50:12Z</time>
      </trkpt>
      <trkpt lat="49.59975" lon="-1.26247">
        <ele>1</ele>
        <time>2020-06-15T10:50:13Z</time>
      </trkpt>
      <trkpt lat="49.59968" lon="-1.26251">
        <ele>1</ele>
        <time>2020-06-15T10:50:14Z</time>
      </trkpt>
      <trkpt lat="49.59962" lon="-1.26258">
        <ele>1</ele>
        <time>2020-06-15T10:50:15Z</time>
      </trkpt>
      <trkpt lat="49.59955" lon="-1.26264">
        <ele>1</ele>
        <time>2020-06-15T10:50:16Z</time>
      </trkpt>
      <trkpt lat="49.59948" lon="-1.2627">
        <ele>1.1</ele>
        <time>2020-06-15T10:50:17Z</time>
      </trkpt>
      <trkpt lat="49.59941" lon="-1.26275">
        <ele>1.1</ele>
        <time>2020-06-15T10:50:18Z</time>
      </trkpt>
      <trkpt lat="49.59935" lon="-1.2628">
        <ele>1.1</ele>
        <time>2020-06-15T10:50:19Z</time>
      </trkpt>
      <trkpt lat="49.59929" lon="-1.26284">
        <ele>1.1</ele>
        <time>2020-06-15T10:50:20Z</time>
      </trkpt>
      <trkpt lat="49.59922" lon="-1.26289">
        <ele>1.1</ele>
        <time>2020-06-15T10:50:21Z</time>
      </trkpt>
      <trkpt lat="49.59915" lon="-1.26294">
        <ele>1</ele>
        <time>2020-06-15T10:50:22Z</time>
      </trkpt>
      <trkpt lat="49.59908" lon="-1.26299">
        <ele>1</ele>
        <time>2020-06-15T10:50:23Z</time>
      </trkpt>
      <trkpt lat="49.59901" lon="-1.26304">
        <ele>1</ele>
        <time>2020-06-15T10:50:24Z</time>
      </trkpt>
      <trkpt lat="49.59894" lon="-1.26309">
        <ele>1</ele>
        <time>2020-06-15T10:50:25Z</time>
      </trkpt>
      <trkpt lat="49.59887" lon="-1.26313">
        <ele>1.1</ele>
        <time>2020-06-15T10:50:26Z</time>
      </trkpt>
      <trkpt lat="49.5988" lon="-1.26317">
        <ele>1.1</ele>
        <time>2020-06-15T10:50:27Z</time>
      </trkpt>
      <trkpt lat="49.59873" lon="-1.26321">
        <ele>1</ele>
        <time>2020-06-15T10:50:28Z</time>
      </trkpt>
      <trkpt lat="49.59866" lon="-1.26325">
        <ele>0.9</ele>
        <time>2020-06-15T10:50:29Z</time>
      </trkpt>
      <trkpt lat="49.5986" lon="-1.26328">
        <ele>0.9</ele>
        <time>2020-06-15T10:50:30Z</time>
      </trkpt>
      <trkpt lat="49.59854" lon="-1.26332">
        <ele>0.9</ele>
        <time>2020-06-15T10:50:31Z</time>
      </trkpt>
      <trkpt lat="49.59848" lon="-1.26336">
        <ele>0.8</ele>
        <time>2020-06-15T10:50:32Z</time>
      </trkpt>
      <trkpt lat="49.59842" lon="-1.2634">
        <ele>0.9</ele>
        <time>2020-06-15T10:50:33Z</time>
      </trkpt>
      <trkpt lat="49.59836" lon="-1.26343">
        <ele>0.9</ele>
        <time>2020-06-15T10:50:34Z</time>
      </trkpt>
      <trkpt lat="49.59831" lon="-1.26347">
        <ele>0.9</ele>
        <time>2020-06-15T10:50:35Z</time>
      </trkpt>
      <trkpt lat="49.59825" lon="-1.26351">
        <ele>0.9</ele>
        <time>2020-06-15T10:50:36Z</time>
      </trkpt>
      <trkpt lat="49.5982" lon="-1.26354">
        <ele>0.9</ele>
        <time>2020-06-15T10:50:37Z</time>
      </trkpt>
      <trkpt lat="49.59816" lon="-1.26357">
        <ele>0.9</ele>
        <time>2020-06-15T10:50:38Z</time>
      </trkpt>
      <trkpt lat="49.5981" lon="-1.2636">
        <ele>0.9</ele>
        <time>2020-06-15T10:50:39Z</time>
      </trkpt>
      <trkpt lat="49.59805" lon="-1.26363">
        <ele>0.9</ele>
        <time>2020-06-15T10:50:40Z</time>
      </trkpt>
      <trkpt lat="49.598" lon="-1.26365">
        <ele>0.9</ele>
        <time>2020-06-15T10:50:41Z</time>
      </trkpt>
      <trkpt lat="49.59794" lon="-1.26368">
        <ele>0.9</ele>
        <time>2020-06-15T10:50:42Z</time>
      </trkpt>
      <trkpt lat="49.59788" lon="-1.26371">
        <ele>0.9</ele>
        <time>2020-06-15T10:50:43Z</time>
      </trkpt>
      <trkpt lat="49.59782" lon="-1.26374">
        <ele>0.9</ele>
        <time>2020-06-15T10:50:44Z</time>
      </trkpt>
      <trkpt lat="49.59776" lon="-1.26378">
        <ele>0.9</ele>
        <time>2020-06-15T10:50:45Z</time>
      </trkpt>
      <trkpt lat="49.59771" lon="-1.26382">
        <ele>0.9</ele>
        <time>2020-06-15T10:50:46Z</time>
      </trkpt>
      <trkpt lat="49.59765" lon="-1.26386">
        <ele>0.9</ele>
        <time>2020-06-15T10:50:47Z</time>
      </trkpt>
      <trkpt lat="49.5976" lon="-1.2639">
        <ele>0.9</ele>
        <time>2020-06-15T10:50:48Z</time>
      </trkpt>
      <trkpt lat="49.59754" lon="-1.26394">
        <ele>0.9</ele>
        <time>2020-06-15T10:50:49Z</time>
      </trkpt>
      <trkpt lat="49.59749" lon="-1.26397">
        <ele>0.9</ele>
        <time>2020-06-15T10:50:50Z</time>
      </trkpt>
      <trkpt lat="49.59743" lon="-1.264">
        <ele>1</ele>
        <time>2020-06-15T10:50:51Z</time>
      </trkpt>
      <trkpt lat="49.59738" lon="-1.26404">
        <ele>1</ele>
        <time>2020-06-15T10:50:52Z</time>
      </trkpt>
      <trkpt lat="49.59733" lon="-1.26407">
        <ele>0.9</ele>
        <time>2020-06-15T10:50:53Z</time>
      </trkpt>
      <trkpt lat="49.59727" lon="-1.26411">
        <ele>0.9</ele>
        <time>2020-06-15T10:50:54Z</time>
      </trkpt>
      <trkpt lat="49.59723" lon="-1.26414">
        <ele>0.9</ele>
        <time>2020-06-15T10:50:55Z</time>
      </trkpt>
      <trkpt lat="49.59718" lon="-1.26417">
        <ele>0.9</ele>
        <time>2020-06-15T10:50:56Z</time>
      </trkpt>
      <trkpt lat="49.59713" lon="-1.26421">
        <ele>0.9</ele>
        <time>2020-06-15T10:50:57Z</time>
      </trkpt>
      <trkpt lat="49.59708" lon="-1.26424">
        <ele>0.8</ele>
        <time>2020-06-15T10:50:58Z</time>
      </trkpt>
      <trkpt lat="49.59703" lon="-1.26428">
        <ele>0.8</ele>
        <time>2020-06-15T10:50:59Z</time>
      </trkpt>
      <trkpt lat="49.59698" lon="-1.26431">
        <ele>0.8</ele>
        <time>2020-06-15T10:51:00Z</time>
      </trkpt>
      <trkpt lat="49.59694" lon="-1.26434">
        <ele>0.8</ele>
        <time>2020-06-15T10:51:01Z</time>
      </trkpt>
      <trkpt lat="49.5969" lon="-1.26436">
        <ele>0.8</ele>
        <time>2020-06-15T10:51:02Z</time>
      </trkpt>
      <trkpt lat="49.59687" lon="-1.26439">
        <ele>0.8</ele>
        <time>2020-06-15T10:51:03Z</time>
      </trkpt>
      <trkpt lat="49.59684" lon="-1.26441">
        <ele>0.8</ele>
        <time>2020-06-15T10:51:04Z</time>
      </trkpt>
      <trkpt lat="49.59682" lon="-1.26442">
        <ele>0.8</ele>
        <time>2020-06-15T10:51:05Z</time>
      </trkpt>
      <trkpt lat="49.5968" lon="-1.26441">
        <ele>0.8</ele>
        <time>2020-06-15T10:51:06Z</time>
      </trkpt>
      <trkpt lat="49.5968" lon="-1.26441">
        <ele>0.8</ele>
        <time>2020-06-15T10:51:07Z</time>
      </trkpt>
      <trkpt lat="49.5968" lon="-1.2644">
        <ele>0.8</ele>
        <time>2020-06-15T10:51:08Z</time>
      </trkpt>
      <trkpt lat="49.5968" lon="-1.2644">
        <ele>0.8</ele>
        <time>2020-06-15T10:51:09Z</time>
      </trkpt>
      <trkpt lat="49.59681" lon="-1.2644">
        <ele>0.8</ele>
        <time>2020-06-15T10:51:10Z</time>
      </trkpt>
      <trkpt lat="49.59681" lon="-1.2644">
        <ele>0.8</ele>
        <time>2020-06-15T10:51:11Z</time>
      </trkpt>
      <trkpt lat="49.59681" lon="-1.2644">
        <ele>0.8</ele>
        <time>2020-06-15T10:51:12Z</time>
      </trkpt>
      <trkpt lat="49.59681" lon="-1.26439">
        <ele>0.8</ele>
        <time>2020-06-15T10:51:13Z</time>
      </trkpt>
      <trkpt lat="49.59681" lon="-1.2644">
        <ele>0.8</ele>
        <time>2020-06-15T10:51:14Z</time>
      </trkpt>
      <trkpt lat="49.59681" lon="-1.26441">
        <ele>0.8</ele>
        <time>2020-06-15T10:51:15Z</time>
      </trkpt>
      <trkpt lat="49.59681" lon="-1.26441">
        <ele>0.8</ele>
        <time>2020-06-15T10:51:16Z</time>
      </trkpt>
      <trkpt lat="49.59681" lon="-1.26442">
        <ele>0.8</ele>
        <time>2020-06-15T10:51:17Z</time>
      </trkpt>
      <trkpt lat="49.59682" lon="-1.26443">
        <ele>0.8</ele>
        <time>2020-06-15T10:51:18Z</time>
      </trkpt>
      <trkpt lat="49.59682" lon="-1.26442">
        <ele>0.8</ele>
        <time>2020-06-15T10:51:19Z</time>
      </trkpt>
      <trkpt lat="49.59682" lon="-1.26441">
        <ele>0.8</ele>
        <time>2020-06-15T10:51:20Z</time>
      </trkpt>
      <trkpt lat="49.59682" lon="-1.26441">
        <ele>0.8</ele>
        <time>2020-06-15T10:51:21Z</time>
      </trkpt>
      <trkpt lat="49.59682" lon="-1.2644">
        <ele>0.8</ele>
        <time>2020-06-15T10:51:22Z</time>
      </trkpt>
      <trkpt lat="49.59682" lon="-1.26439">
        <ele>0.8</ele>
        <time>2020-06-15T10:51:23Z</time>
      </trkpt>
      <trkpt lat="49.59681" lon="-1.26439">
        <ele>0.8</ele>
        <time>2020-06-15T10:51:24Z</time>
      </trkpt>
      <trkpt lat="49.59681" lon="-1.26437">
        <ele>0.8</ele>
        <time>2020-06-15T10:51:25Z</time>
      </trkpt>
      <trkpt lat="49.5968" lon="-1.26436">
        <ele>0.8</ele>
        <time>2020-06-15T10:51:26Z</time>
      </trkpt>
      <trkpt lat="49.5968" lon="-1.26436">
        <ele>0.8</ele>
        <time>2020-06-15T10:51:27Z</time>
      </trkpt>
      <trkpt lat="49.5968" lon="-1.26437">
        <ele>0.8</ele>
        <time>2020-06-15T10:51:28Z</time>
      </trkpt>
      <trkpt lat="49.59679" lon="-1.26437">
        <ele>0.8</ele>
        <time>2020-06-15T10:51:29Z</time>
      </trkpt>
      <trkpt lat="49.59679" lon="-1.26437">
        <ele>0.8</ele>
        <time>2020-06-15T10:51:30Z</time>
      </trkpt>
      <trkpt lat="49.59679" lon="-1.26437">
        <ele>0.8</ele>
        <time>2020-06-15T10:51:31Z</time>
      </trkpt>
      <trkpt lat="49.59679" lon="-1.26437">
        <ele>0.8</ele>
        <time>2020-06-15T10:51:32Z</time>
      </trkpt>
      <trkpt lat="49.5968" lon="-1.26437">
        <ele>0.8</ele>
        <time>2020-06-15T10:51:33Z</time>
      </trkpt>
      <trkpt lat="49.5968" lon="-1.26437">
        <ele>0.8</ele>
        <time>2020-06-15T10:51:34Z</time>
      </trkpt>
      <trkpt lat="49.5968" lon="-1.26437">
        <ele>0.8</ele>
        <time>2020-06-15T10:51:35Z</time>
      </trkpt>
      <trkpt lat="49.5968" lon="-1.26437">
        <ele>0.8</ele>
        <time>2020-06-15T10:51:36Z</time>
      </trkpt>
      <trkpt lat="49.5968" lon="-1.26437">
        <ele>0.8</ele>
        <time>2020-06-15T10:51:37Z</time>
      </trkpt>
      <trkpt lat="49.5968" lon="-1.26437">
        <ele>0.8</ele>
        <time>2020-06-15T10:51:38Z</time>
      </trkpt>
      <trkpt lat="49.5968" lon="-1.26437">
        <ele>0.8</ele>
        <time>2020-06-15T10:51:39Z</time>
      </trkpt>
      <trkpt lat="49.59683" lon="-1.26435">
        <ele>0.8</ele>
        <time>2020-06-15T10:54:03Z</time>
      </trkpt>
      <trkpt lat="49.59683" lon="-1.26433">
        <ele>0.8</ele>
        <time>2020-06-15T10:54:04Z</time>
      </trkpt>
      <trkpt lat="49.59683" lon="-1.26432">
        <ele>0.8</ele>
        <time>2020-06-15T10:54:05Z</time>
      </trkpt>
      <trkpt lat="49.59683" lon="-1.26431">
        <ele>0.8</ele>
        <time>2020-06-15T10:54:06Z</time>
      </trkpt>
      <trkpt lat="49.59684" lon="-1.26431">
        <ele>0.8</ele>
        <time>2020-06-15T10:54:07Z</time>
      </trkpt>
      <trkpt lat="49.59684" lon="-1.26431">
        <ele>0.8</ele>
        <time>2020-06-15T10:54:08Z</time>
      </trkpt>
      <trkpt lat="49.59684" lon="-1.26431">
        <ele>0.8</ele>
        <time>2020-06-15T10:54:09Z</time>
      </trkpt>
      <trkpt lat="49.59684" lon="-1.2643">
        <ele>0.8</ele>
        <time>2020-06-15T10:54:10Z</time>
      </trkpt>
      <trkpt lat="49.59684" lon="-1.26429">
        <ele>0.8</ele>
        <time>2020-06-15T10:54:11Z</time>
      </trkpt>
      <trkpt lat="49.59684" lon="-1.26429">
        <ele>0.8</ele>
        <time>2020-06-15T10:54:12Z</time>
      </trkpt>
      <trkpt lat="49.59685" lon="-1.26429">
        <ele>0.8</ele>
        <time>2020-06-15T10:54:13Z</time>
      </trkpt>
      <trkpt lat="49.59685" lon="-1.26429">
        <ele>0.8</ele>
        <time>2020-06-15T10:54:14Z</time>
      </trkpt>
      <trkpt lat="49.59685" lon="-1.26429">
        <ele>0.8</ele>
        <time>2020-06-15T10:54:15Z</time>
      </trkpt>
      <trkpt lat="49.59685" lon="-1.26431">
        <ele>0.8</ele>
        <time>2020-06-15T10:54:16Z</time>
      </trkpt>
      <trkpt lat="49.59683" lon="-1.26433">
        <ele>0.8</ele>
        <time>2020-06-15T10:54:17Z</time>
      </trkpt>
      <trkpt lat="49.59681" lon="-1.26435">
        <ele>0.8</ele>
        <time>2020-06-15T10:54:18Z</time>
      </trkpt>
      <trkpt lat="49.5968" lon="-1.26437">
        <ele>0.8</ele>
        <time>2020-06-15T10:54:19Z</time>
      </trkpt>
      <trkpt lat="49.59678" lon="-1.26438">
        <ele>0.8</ele>
        <time>2020-06-15T10:54:20Z</time>
      </trkpt>
      <trkpt lat="49.59676" lon="-1.2644">
        <ele>0.8</ele>
        <time>2020-06-15T10:54:21Z</time>
      </trkpt>
      <trkpt lat="49.59675" lon="-1.26442">
        <ele>0.8</ele>
        <time>2020-06-15T10:55:01Z</time>
      </trkpt>
      <trkpt lat="49.59673" lon="-1.26444">
        <ele>0.8</ele>
        <time>2020-06-15T10:55:02Z</time>
      </trkpt>
      <trkpt lat="49.5967" lon="-1.26448">
        <ele>0.8</ele>
        <time>2020-06-15T10:55:03Z</time>
      </trkpt>
      <trkpt lat="49.59666" lon="-1.26451">
        <ele>0.8</ele>
        <time>2020-06-15T10:55:04Z</time>
      </trkpt>
      <trkpt lat="49.59662" lon="-1.26454">
        <ele>0.8</ele>
        <time>2020-06-15T10:55:05Z</time>
      </trkpt>
      <trkpt lat="49.59658" lon="-1.26457">
        <ele>0.9</ele>
        <time>2020-06-15T10:55:06Z</time>
      </trkpt>
      <trkpt lat="49.59654" lon="-1.26459">
        <ele>0.9</ele>
        <time>2020-06-15T10:55:07Z</time>
      </trkpt>
      <trkpt lat="49.59649" lon="-1.26463">
        <ele>0.9</ele>
        <time>2020-06-15T10:55:08Z</time>
      </trkpt>
      <trkpt lat="49.59644" lon="-1.26467">
        <ele>0.9</ele>
        <time>2020-06-15T10:55:09Z</time>
      </trkpt>
      <trkpt lat="49.59639" lon="-1.26471">
        <ele>0.8</ele>
        <time>2020-06-15T10:55:10Z</time>
      </trkpt>
      <trkpt lat="49.59634" lon="-1.26475">
        <ele>0.8</ele>
        <time>2020-06-15T10:55:11Z</time>
      </trkpt>
      <trkpt lat="49.59628" lon="-1.26479">
        <ele>0.8</ele>
        <time>2020-06-15T10:55:12Z</time>
      </trkpt>
      <trkpt lat="49.59623" lon="-1.26483">
        <ele>0.8</ele>
        <time>2020-06-15T10:55:13Z</time>
      </trkpt>
      <trkpt lat="49.59619" lon="-1.26487">
        <ele>0.9</ele>
        <time>2020-06-15T10:55:14Z</time>
      </trkpt>
      <trkpt lat="49.59613" lon="-1.26491">
        <ele>0.9</ele>
        <time>2020-06-15T10:55:15Z</time>
      </trkpt>
      <trkpt lat="49.59607" lon="-1.26495">
        <ele>0.9</ele>
        <time>2020-06-15T10:55:16Z</time>
      </trkpt>
      <trkpt lat="49.59602" lon="-1.26498">
        <ele>0.9</ele>
        <time>2020-06-15T10:55:17Z</time>
      </trkpt>
      <trkpt lat="49.59597" lon="-1.26502">
        <ele>0.9</ele>
        <time>2020-06-15T10:55:18Z</time>
      </trkpt>
      <trkpt lat="49.59592" lon="-1.26505">
        <ele>0.9</ele>
        <time>2020-06-15T10:55:19Z</time>
      </trkpt>
      <trkpt lat="49.59586" lon="-1.26508">
        <ele>0.9</ele>
        <time>2020-06-15T10:55:20Z</time>
      </trkpt>
      <trkpt lat="49.59581" lon="-1.26513">
        <ele>0.8</ele>
        <time>2020-06-15T10:55:21Z</time>
      </trkpt>
      <trkpt lat="49.59574" lon="-1.26517">
        <ele>0.8</ele>
        <time>2020-06-15T10:55:22Z</time>
      </trkpt>
      <trkpt lat="49.59568" lon="-1.2652">
        <ele>0.8</ele>
        <time>2020-06-15T10:55:23Z</time>
      </trkpt>
      <trkpt lat="49.59563" lon="-1.26523">
        <ele>0.8</ele>
        <time>2020-06-15T10:55:24Z</time>
      </trkpt>
      <trkpt lat="49.59557" lon="-1.26526">
        <ele>0.8</ele>
        <time>2020-06-15T10:55:25Z</time>
      </trkpt>
      <trkpt lat="49.5955" lon="-1.2653">
        <ele>0.7</ele>
        <time>2020-06-15T10:55:26Z</time>
      </trkpt>
      <trkpt lat="49.59544" lon="-1.26533">
        <ele>0.7</ele>
        <time>2020-06-15T10:55:27Z</time>
      </trkpt>
      <trkpt lat="49.59537" lon="-1.26537">
        <ele>0.7</ele>
        <time>2020-06-15T10:55:28Z</time>
      </trkpt>
      <trkpt lat="49.59531" lon="-1.26541">
        <ele>0.7</ele>
        <time>2020-06-15T10:55:29Z</time>
      </trkpt>
      <trkpt lat="49.59525" lon="-1.26545">
        <ele>0.7</ele>
        <time>2020-06-15T10:55:30Z</time>
      </trkpt>
      <trkpt lat="49.59518" lon="-1.26549">
        <ele>0.7</ele>
        <time>2020-06-15T10:55:31Z</time>
      </trkpt>
      <trkpt lat="49.5951" lon="-1.26553">
        <ele>0.7</ele>
        <time>2020-06-15T10:55:32Z</time>
      </trkpt>
      <trkpt lat="49.59504" lon="-1.26557">
        <ele>0.7</ele>
        <time>2020-06-15T10:55:33Z</time>
      </trkpt>
      <trkpt lat="49.59498" lon="-1.26561">
        <ele>0.7</ele>
        <time>2020-06-15T10:55:34Z</time>
      </trkpt>
      <trkpt lat="49.59491" lon="-1.26565">
        <ele>0.7</ele>
        <time>2020-06-15T10:55:35Z</time>
      </trkpt>
      <trkpt lat="49.59485" lon="-1.26569">
        <ele>0.7</ele>
        <time>2020-06-15T10:55:36Z</time>
      </trkpt>
      <trkpt lat="49.59478" lon="-1.26573">
        <ele>0.6</ele>
        <time>2020-06-15T10:55:37Z</time>
      </trkpt>
      <trkpt lat="49.59471" lon="-1.26577">
        <ele>0.6</ele>
        <time>2020-06-15T10:55:38Z</time>
      </trkpt>
      <trkpt lat="49.59464" lon="-1.2658">
        <ele>0.6</ele>
        <time>2020-06-15T10:55:39Z</time>
      </trkpt>
      <trkpt lat="49.59457" lon="-1.26584">
        <ele>0.6</ele>
        <time>2020-06-15T10:55:40Z</time>
      </trkpt>
      <trkpt lat="49.5945" lon="-1.26588">
        <ele>0.6</ele>
        <time>2020-06-15T10:55:41Z</time>
      </trkpt>
      <trkpt lat="49.59443" lon="-1.26592">
        <ele>0.6</ele>
        <time>2020-06-15T10:55:42Z</time>
      </trkpt>
      <trkpt lat="49.59436" lon="-1.26596">
        <ele>0.6</ele>
        <time>2020-06-15T10:55:43Z</time>
      </trkpt>
      <trkpt lat="49.59429" lon="-1.266">
        <ele>0.6</ele>
        <time>2020-06-15T10:55:44Z</time>
      </trkpt>
      <trkpt lat="49.59422" lon="-1.26604">
        <ele>0.6</ele>
        <time>2020-06-15T10:55:45Z</time>
      </trkpt>
      <trkpt lat="49.59415" lon="-1.26608">
        <ele>0.6</ele>
        <time>2020-06-15T10:55:46Z</time>
      </trkpt>
      <trkpt lat="49.59409" lon="-1.26612">
        <ele>0.6</ele>
        <time>2020-06-15T10:55:47Z</time>
      </trkpt>
      <trkpt lat="49.59402" lon="-1.26616">
        <ele>0.6</ele>
        <time>2020-06-15T10:55:48Z</time>
      </trkpt>
      <trkpt lat="49.59396" lon="-1.26619">
        <ele>0.7</ele>
        <time>2020-06-15T10:55:49Z</time>
      </trkpt>
      <trkpt lat="49.59389" lon="-1.26623">
        <ele>0.7</ele>
        <time>2020-06-15T10:55:50Z</time>
      </trkpt>
      <trkpt lat="49.59383" lon="-1.26626">
        <ele>0.7</ele>
        <time>2020-06-15T10:55:51Z</time>
      </trkpt>
      <trkpt lat="49.59376" lon="-1.26629">
        <ele>0.8</ele>
        <time>2020-06-15T10:55:52Z</time>
      </trkpt>
      <trkpt lat="49.59369" lon="-1.26633">
        <ele>0.8</ele>
        <time>2020-06-15T10:55:53Z</time>
      </trkpt>
      <trkpt lat="49.59363" lon="-1.26636">
        <ele>0.9</ele>
        <time>2020-06-15T10:55:54Z</time>
      </trkpt>
      <trkpt lat="49.59356" lon="-1.2664">
        <ele>1</ele>
        <time>2020-06-15T10:55:55Z</time>
      </trkpt>
      <trkpt lat="49.5935" lon="-1.26644">
        <ele>1.1</ele>
        <time>2020-06-15T10:55:56Z</time>
      </trkpt>
      <trkpt lat="49.59343" lon="-1.26648">
        <ele>1.2</ele>
        <time>2020-06-15T10:55:57Z</time>
      </trkpt>
      <trkpt lat="49.59336" lon="-1.26652">
        <ele>1.3</ele>
        <time>2020-06-15T10:55:58Z</time>
      </trkpt>
      <trkpt lat="49.5933" lon="-1.26656">
        <ele>1.3</ele>
        <time>2020-06-15T10:55:59Z</time>
      </trkpt>
      <trkpt lat="49.59323" lon="-1.2666">
        <ele>1.3</ele>
        <time>2020-06-15T10:56:00Z</time>
      </trkpt>
      <trkpt lat="49.59317" lon="-1.26665">
        <ele>1.2</ele>
        <time>2020-06-15T10:56:01Z</time>
      </trkpt>
      <trkpt lat="49.5931" lon="-1.26669">
        <ele>1.2</ele>
        <time>2020-06-15T10:56:02Z</time>
      </trkpt>
      <trkpt lat="49.59303" lon="-1.26673">
        <ele>1.2</ele>
        <time>2020-06-15T10:56:03Z</time>
      </trkpt>
      <trkpt lat="49.59297" lon="-1.26677">
        <ele>1.2</ele>
        <time>2020-06-15T10:56:04Z</time>
      </trkpt>
      <trkpt lat="49.5929" lon="-1.26679">
        <ele>1.3</ele>
        <time>2020-06-15T10:56:05Z</time>
      </trkpt>
      <trkpt lat="49.59283" lon="-1.26682">
        <ele>1.4</ele>
        <time>2020-06-15T10:56:06Z</time>
      </trkpt>
      <trkpt lat="49.59277" lon="-1.26685">
        <ele>1.4</ele>
        <time>2020-06-15T10:56:07Z</time>
      </trkpt>
      <trkpt lat="49.59271" lon="-1.26687">
        <ele>1.5</ele>
        <time>2020-06-15T10:56:08Z</time>
      </trkpt>
      <trkpt lat="49.59265" lon="-1.26689">
        <ele>1.5</ele>
        <time>2020-06-15T10:56:09Z</time>
      </trkpt>
      <trkpt lat="49.59259" lon="-1.26689">
        <ele>1.5</ele>
        <time>2020-06-15T10:56:10Z</time>
      </trkpt>
      <trkpt lat="49.59254" lon="-1.26689">
        <ele>1.6</ele>
        <time>2020-06-15T10:56:11Z</time>
      </trkpt>
      <trkpt lat="49.59248" lon="-1.26688">
        <ele>1.6</ele>
        <time>2020-06-15T10:56:12Z</time>
      </trkpt>
      <trkpt lat="49.59242" lon="-1.26687">
        <ele>1.6</ele>
        <time>2020-06-15T10:56:13Z</time>
      </trkpt>
      <trkpt lat="49.59236" lon="-1.26686">
        <ele>1.6</ele>
        <time>2020-06-15T10:56:14Z</time>
      </trkpt>
      <trkpt lat="49.5923" lon="-1.26686">
        <ele>1.7</ele>
        <time>2020-06-15T10:56:15Z</time>
      </trkpt>
      <trkpt lat="49.59225" lon="-1.26685">
        <ele>1.7</ele>
        <time>2020-06-15T10:56:16Z</time>
      </trkpt>
      <trkpt lat="49.59221" lon="-1.26685">
        <ele>1.6</ele>
        <time>2020-06-15T10:56:17Z</time>
      </trkpt>
      <trkpt lat="49.59216" lon="-1.26685">
        <ele>1.6</ele>
        <time>2020-06-15T10:56:18Z</time>
      </trkpt>
      <trkpt lat="49.59211" lon="-1.26685">
        <ele>1.6</ele>
        <time>2020-06-15T10:56:19Z</time>
      </trkpt>
      <trkpt lat="49.59204" lon="-1.26685">
        <ele>1.6</ele>
        <time>2020-06-15T10:56:20Z</time>
      </trkpt>
      <trkpt lat="49.59198" lon="-1.26685">
        <ele>1.7</ele>
        <time>2020-06-15T10:56:21Z</time>
      </trkpt>
      <trkpt lat="49.59192" lon="-1.26683">
        <ele>1.7</ele>
        <time>2020-06-15T10:56:22Z</time>
      </trkpt>
      <trkpt lat="49.59186" lon="-1.26681">
        <ele>1.7</ele>
        <time>2020-06-15T10:56:23Z</time>
      </trkpt>
      <trkpt lat="49.5918" lon="-1.2668">
        <ele>1.7</ele>
        <time>2020-06-15T10:56:24Z</time>
      </trkpt>
      <trkpt lat="49.59173" lon="-1.26679">
        <ele>1.7</ele>
        <time>2020-06-15T10:56:25Z</time>
      </trkpt>
      <trkpt lat="49.59167" lon="-1.26677">
        <ele>1.6</ele>
        <time>2020-06-15T10:56:26Z</time>
      </trkpt>
      <trkpt lat="49.5916" lon="-1.26674">
        <ele>1.6</ele>
        <time>2020-06-15T10:56:27Z</time>
      </trkpt>
      <trkpt lat="49.59155" lon="-1.26673">
        <ele>1.5</ele>
        <time>2020-06-15T10:56:28Z</time>
      </trkpt>
      <trkpt lat="49.59149" lon="-1.26671">
        <ele>1.5</ele>
        <time>2020-06-15T10:56:29Z</time>
      </trkpt>
      <trkpt lat="49.59143" lon="-1.2667">
        <ele>1.5</ele>
        <time>2020-06-15T10:56:30Z</time>
      </trkpt>
      <trkpt lat="49.59137" lon="-1.26669">
        <ele>1.4</ele>
        <time>2020-06-15T10:56:31Z</time>
      </trkpt>
      <trkpt lat="49.59131" lon="-1.26668">
        <ele>1.4</ele>
        <time>2020-06-15T10:56:32Z</time>
      </trkpt>
      <trkpt lat="49.59125" lon="-1.26666">
        <ele>1.5</ele>
        <time>2020-06-15T10:56:33Z</time>
      </trkpt>
      <trkpt lat="49.59119" lon="-1.26666">
        <ele>1.5</ele>
        <time>2020-06-15T10:56:34Z</time>
      </trkpt>
      <trkpt lat="49.59113" lon="-1.26664">
        <ele>1.6</ele>
        <time>2020-06-15T10:56:35Z</time>
      </trkpt>
      <trkpt lat="49.59106" lon="-1.26663">
        <ele>1.7</ele>
        <time>2020-06-15T10:56:36Z</time>
      </trkpt>
      <trkpt lat="49.59101" lon="-1.26662">
        <ele>1.7</ele>
        <time>2020-06-15T10:56:37Z</time>
      </trkpt>
      <trkpt lat="49.59094" lon="-1.26662">
        <ele>1.7</ele>
        <time>2020-06-15T10:56:38Z</time>
      </trkpt>
      <trkpt lat="49.59087" lon="-1.26662">
        <ele>1.8</ele>
        <time>2020-06-15T10:56:39Z</time>
      </trkpt>
      <trkpt lat="49.59082" lon="-1.26661">
        <ele>1.8</ele>
        <time>2020-06-15T10:56:40Z</time>
      </trkpt>
      <trkpt lat="49.59076" lon="-1.2666">
        <ele>1.8</ele>
        <time>2020-06-15T10:56:41Z</time>
      </trkpt>
      <trkpt lat="49.59069" lon="-1.26659">
        <ele>1.8</ele>
        <time>2020-06-15T10:56:42Z</time>
      </trkpt>
      <trkpt lat="49.59063" lon="-1.26658">
        <ele>1.8</ele>
        <time>2020-06-15T10:56:43Z</time>
      </trkpt>
      <trkpt lat="49.59058" lon="-1.26658">
        <ele>1.9</ele>
        <time>2020-06-15T10:56:44Z</time>
      </trkpt>
      <trkpt lat="49.59052" lon="-1.26657">
        <ele>1.9</ele>
        <time>2020-06-15T10:56:45Z</time>
      </trkpt>
      <trkpt lat="49.59046" lon="-1.26657">
        <ele>1.9</ele>
        <time>2020-06-15T10:56:46Z</time>
      </trkpt>
      <trkpt lat="49.5904" lon="-1.26658">
        <ele>1.9</ele>
        <time>2020-06-15T10:56:47Z</time>
      </trkpt>
      <trkpt lat="49.59035" lon="-1.26656">
        <ele>1.9</ele>
        <time>2020-06-15T10:56:48Z</time>
      </trkpt>
      <trkpt lat="49.59031" lon="-1.26654">
        <ele>1.9</ele>
        <time>2020-06-15T10:56:49Z</time>
      </trkpt>
      <trkpt lat="49.59025" lon="-1.26654">
        <ele>1.9</ele>
        <time>2020-06-15T10:56:50Z</time>
      </trkpt>
      <trkpt lat="49.5902" lon="-1.26654">
        <ele>1.9</ele>
        <time>2020-06-15T10:56:51Z</time>
      </trkpt>
      <trkpt lat="49.59013" lon="-1.26655">
        <ele>1.9</ele>
        <time>2020-06-15T10:56:52Z</time>
      </trkpt>
      <trkpt lat="49.59009" lon="-1.26653">
        <ele>1.9</ele>
        <time>2020-06-15T10:56:53Z</time>
      </trkpt>
      <trkpt lat="49.59003" lon="-1.26653">
        <ele>2</ele>
        <time>2020-06-15T10:56:54Z</time>
      </trkpt>
      <trkpt lat="49.58998" lon="-1.26652">
        <ele>2</ele>
        <time>2020-06-15T10:56:55Z</time>
      </trkpt>
      <trkpt lat="49.58993" lon="-1.2665">
        <ele>2</ele>
        <time>2020-06-15T10:56:56Z</time>
      </trkpt>
      <trkpt lat="49.58987" lon="-1.26646">
        <ele>2.1</ele>
        <time>2020-06-15T10:56:57Z</time>
      </trkpt>
      <trkpt lat="49.58982" lon="-1.26643">
        <ele>2.1</ele>
        <time>2020-06-15T10:56:58Z</time>
      </trkpt>
      <trkpt lat="49.58979" lon="-1.26637">
        <ele>2.2</ele>
        <time>2020-06-15T10:56:59Z</time>
      </trkpt>
      <trkpt lat="49.58974" lon="-1.26633">
        <ele>2.2</ele>
        <time>2020-06-15T10:57:00Z</time>
      </trkpt>
      <trkpt lat="49.5897" lon="-1.26627">
        <ele>2.3</ele>
        <time>2020-06-15T10:57:01Z</time>
      </trkpt>
      <trkpt lat="49.58965" lon="-1.26623">
        <ele>2.3</ele>
        <time>2020-06-15T10:57:02Z</time>
      </trkpt>
      <trkpt lat="49.58961" lon="-1.26619">
        <ele>2.4</ele>
        <time>2020-06-15T10:57:03Z</time>
      </trkpt>
      <trkpt lat="49.58958" lon="-1.26614">
        <ele>2.4</ele>
        <time>2020-06-15T10:57:04Z</time>
      </trkpt>
      <trkpt lat="49.58956" lon="-1.2661">
        <ele>2.3</ele>
        <time>2020-06-15T10:57:05Z</time>
      </trkpt>
      <trkpt lat="49.58952" lon="-1.26606">
        <ele>2.3</ele>
        <time>2020-06-15T10:57:06Z</time>
      </trkpt>
      <trkpt lat="49.5895" lon="-1.26605">
        <ele>2.3</ele>
        <time>2020-06-15T10:57:07Z</time>
      </trkpt>
      <trkpt lat="49.58946" lon="-1.26603">
        <ele>2.3</ele>
        <time>2020-06-15T10:57:08Z</time>
      </trkpt>
      <trkpt lat="49.58942" lon="-1.26603">
        <ele>2.2</ele>
        <time>2020-06-15T10:57:09Z</time>
      </trkpt>
      <trkpt lat="49.5894" lon="-1.26604">
        <ele>2.2</ele>
        <time>2020-06-15T10:57:10Z</time>
      </trkpt>
      <trkpt lat="49.58937" lon="-1.26607">
        <ele>2.2</ele>
        <time>2020-06-15T10:57:11Z</time>
      </trkpt>
      <trkpt lat="49.58936" lon="-1.26607">
        <ele>2.2</ele>
        <time>2020-06-15T10:57:12Z</time>
      </trkpt>
      <trkpt lat="49.58933" lon="-1.26608">
        <ele>2.1</ele>
        <time>2020-06-15T10:57:13Z</time>
      </trkpt>
      <trkpt lat="49.58931" lon="-1.26608">
        <ele>2.1</ele>
        <time>2020-06-15T10:57:14Z</time>
      </trkpt>
      <trkpt lat="49.58929" lon="-1.26607">
        <ele>2.1</ele>
        <time>2020-06-15T10:57:15Z</time>
      </trkpt>
      <trkpt lat="49.58928" lon="-1.26607">
        <ele>2.1</ele>
        <time>2020-06-15T10:57:16Z</time>
      </trkpt>
      <trkpt lat="49.58926" lon="-1.26607">
        <ele>2.1</ele>
        <time>2020-06-15T10:57:17Z</time>
      </trkpt>
      <trkpt lat="49.58925" lon="-1.26607">
        <ele>2.1</ele>
        <time>2020-06-15T10:57:18Z</time>
      </trkpt>
      <trkpt lat="49.58921" lon="-1.26608">
        <ele>2</ele>
        <time>2020-06-15T10:57:19Z</time>
      </trkpt>
      <trkpt lat="49.58918" lon="-1.26607">
        <ele>2</ele>
        <time>2020-06-15T10:57:20Z</time>
      </trkpt>
      <trkpt lat="49.58917" lon="-1.26607">
        <ele>2</ele>
        <time>2020-06-15T10:57:21Z</time>
      </trkpt>
      <trkpt lat="49.58916" lon="-1.26606">
        <ele>2</ele>
        <time>2020-06-15T10:57:22Z</time>
      </trkpt>
      <trkpt lat="49.58916" lon="-1.26606">
        <ele>2</ele>
        <time>2020-06-15T10:57:23Z</time>
      </trkpt>
      <trkpt lat="49.58916" lon="-1.26606">
        <ele>2</ele>
        <time>2020-06-15T10:57:24Z</time>
      </trkpt>
      <trkpt lat="49.58915" lon="-1.26606">
        <ele>2</ele>
        <time>2020-06-15T10:57:25Z</time>
      </trkpt>
      <trkpt lat="49.58915" lon="-1.26606">
        <ele>2</ele>
        <time>2020-06-15T10:57:26Z</time>
      </trkpt>
      <trkpt lat="49.58915" lon="-1.26606">
        <ele>2</ele>
        <time>2020-06-15T10:57:27Z</time>
      </trkpt>
      <trkpt lat="49.58914" lon="-1.26606">
        <ele>2</ele>
        <time>2020-06-15T10:57:28Z</time>
      </trkpt>
      <trkpt lat="49.58914" lon="-1.26606">
        <ele>2</ele>
        <time>2020-06-15T10:57:29Z</time>
      </trkpt>
      <trkpt lat="49.58914" lon="-1.26606">
        <ele>2</ele>
        <time>2020-06-15T10:57:30Z</time>
      </trkpt>
      <trkpt lat="49.58914" lon="-1.26606">
        <ele>2</ele>
        <time>2020-06-15T10:57:31Z</time>
      </trkpt>
      <trkpt lat="49.58913" lon="-1.26606">
        <ele>2</ele>
        <time>2020-06-15T10:57:32Z</time>
      </trkpt>
      <trkpt lat="49.58913" lon="-1.26606">
        <ele>2</ele>
        <time>2020-06-15T10:57:33Z</time>
      </trkpt>
      <trkpt lat="49.58913" lon="-1.26605">
        <ele>2</ele>
        <time>2020-06-15T10:57:34Z</time>
      </trkpt>
      <trkpt lat="49.58912" lon="-1.26605">
        <ele>2</ele>
        <time>2020-06-15T10:57:35Z</time>
      </trkpt>
      <trkpt lat="49.58912" lon="-1.26605">
        <ele>2</ele>
        <time>2020-06-15T10:57:36Z</time>
      </trkpt>
      <trkpt lat="49.58912" lon="-1.26605">
        <ele>2</ele>
        <time>2020-06-15T10:57:37Z</time>
      </trkpt>
      <trkpt lat="49.58912" lon="-1.26605">
        <ele>2</ele>
        <time>2020-06-15T10:57:38Z</time>
      </trkpt>
      <trkpt lat="49.58911" lon="-1.26605">
        <ele>2</ele>
        <time>2020-06-15T10:57:39Z</time>
      </trkpt>
      <trkpt lat="49.58911" lon="-1.26605">
        <ele>2</ele>
        <time>2020-06-15T10:57:40Z</time>
      </trkpt>
      <trkpt lat="49.58911" lon="-1.26605">
        <ele>2</ele>
        <time>2020-06-15T10:57:41Z</time>
      </trkpt>
      <trkpt lat="49.58911" lon="-1.26605">
        <ele>2</ele>
        <time>2020-06-15T10:57:42Z</time>
      </trkpt>
      <trkpt lat="49.5891" lon="-1.26605">
        <ele>2</ele>
        <time>2020-06-15T10:58:21Z</time>
      </trkpt>
      <trkpt lat="49.5891" lon="-1.26605">
        <ele>2</ele>
        <time>2020-06-15T10:58:22Z</time>
      </trkpt>
      <trkpt lat="49.58906" lon="-1.26604">
        <ele>2</ele>
        <time>2020-06-15T10:58:23Z</time>
      </trkpt>
      <trkpt lat="49.58905" lon="-1.26605">
        <ele>2</ele>
        <time>2020-06-15T10:58:24Z</time>
      </trkpt>
      <trkpt lat="49.58902" lon="-1.26604">
        <ele>2</ele>
        <time>2020-06-15T10:58:25Z</time>
      </trkpt>
      <trkpt lat="49.58901" lon="-1.26603">
        <ele>2</ele>
        <time>2020-06-15T10:58:26Z</time>
      </trkpt>
      <trkpt lat="49.58898" lon="-1.26602">
        <ele>2</ele>
        <time>2020-06-15T10:58:27Z</time>
      </trkpt>
      <trkpt lat="49.58897" lon="-1.26602">
        <ele>2</ele>
        <time>2020-06-15T10:58:28Z</time>
      </trkpt>
      <trkpt lat="49.58893" lon="-1.26602">
        <ele>2</ele>
        <time>2020-06-15T10:58:29Z</time>
      </trkpt>
      <trkpt lat="49.58891" lon="-1.26602">
        <ele>2</ele>
        <time>2020-06-15T10:58:30Z</time>
      </trkpt>
      <trkpt lat="49.58888" lon="-1.26602">
        <ele>2</ele>
        <time>2020-06-15T10:58:31Z</time>
      </trkpt>
      <trkpt lat="49.58885" lon="-1.266">
        <ele>1.9</ele>
        <time>2020-06-15T10:58:32Z</time>
      </trkpt>
      <trkpt lat="49.58883" lon="-1.266">
        <ele>1.9</ele>
        <time>2020-06-15T10:58:33Z</time>
      </trkpt>
      <trkpt lat="49.5888" lon="-1.266">
        <ele>1.9</ele>
        <time>2020-06-15T10:58:34Z</time>
      </trkpt>
      <trkpt lat="49.58878" lon="-1.26599">
        <ele>1.9</ele>
        <time>2020-06-15T10:58:35Z</time>
      </trkpt>
      <trkpt lat="49.58875" lon="-1.26599">
        <ele>1.9</ele>
        <time>2020-06-15T10:58:36Z</time>
      </trkpt>
      <trkpt lat="49.58873" lon="-1.26599">
        <ele>1.9</ele>
        <time>2020-06-15T10:58:37Z</time>
      </trkpt>
      <trkpt lat="49.5887" lon="-1.26598">
        <ele>1.9</ele>
        <time>2020-06-15T10:58:38Z</time>
      </trkpt>
      <trkpt lat="49.58869" lon="-1.26598">
        <ele>2</ele>
        <time>2020-06-15T10:58:39Z</time>
      </trkpt>
      <trkpt lat="49.58866" lon="-1.26597">
        <ele>2</ele>
        <time>2020-06-15T10:58:40Z</time>
      </trkpt>
      <trkpt lat="49.58865" lon="-1.26597">
        <ele>2</ele>
        <time>2020-06-15T10:58:41Z</time>
      </trkpt>
      <trkpt lat="49.58862" lon="-1.26596">
        <ele>2.1</ele>
        <time>2020-06-15T10:58:42Z</time>
      </trkpt>
      <trkpt lat="49.58861" lon="-1.26595">
        <ele>2.1</ele>
        <time>2020-06-15T10:58:43Z</time>
      </trkpt>
      <trkpt lat="49.58858" lon="-1.26596">
        <ele>2.1</ele>
        <time>2020-06-15T10:58:44Z</time>
      </trkpt>
      <trkpt lat="49.58857" lon="-1.26596">
        <ele>2.2</ele>
        <time>2020-06-15T10:58:45Z</time>
      </trkpt>
      <trkpt lat="49.58854" lon="-1.26595">
        <ele>2.2</ele>
        <time>2020-06-15T10:58:46Z</time>
      </trkpt>
      <trkpt lat="49.58853" lon="-1.26595">
        <ele>2.2</ele>
        <time>2020-06-15T10:58:47Z</time>
      </trkpt>
      <trkpt lat="49.5885" lon="-1.26593">
        <ele>2.2</ele>
        <time>2020-06-15T10:58:48Z</time>
      </trkpt>
      <trkpt lat="49.5885" lon="-1.26592">
        <ele>2.2</ele>
        <time>2020-06-15T10:58:49Z</time>
      </trkpt>
      <trkpt lat="49.58847" lon="-1.26591">
        <ele>2.3</ele>
        <time>2020-06-15T10:58:50Z</time>
      </trkpt>
      <trkpt lat="49.58845" lon="-1.26591">
        <ele>2.3</ele>
        <time>2020-06-15T10:58:51Z</time>
      </trkpt>
      <trkpt lat="49.58842" lon="-1.26593">
        <ele>2.3</ele>
        <time>2020-06-15T10:58:52Z</time>
      </trkpt>
      <trkpt lat="49.58842" lon="-1.26593">
        <ele>2.3</ele>
        <time>2020-06-15T10:58:53Z</time>
      </trkpt>
      <trkpt lat="49.58841" lon="-1.26597">
        <ele>2.3</ele>
        <time>2020-06-15T10:58:54Z</time>
      </trkpt>
      <trkpt lat="49.5884" lon="-1.26598">
        <ele>2.3</ele>
        <time>2020-06-15T10:58:55Z</time>
      </trkpt>
      <trkpt lat="49.5884" lon="-1.266">
        <ele>2.3</ele>
        <time>2020-06-15T10:58:56Z</time>
      </trkpt>
      <trkpt lat="49.58839" lon="-1.26604">
        <ele>2.3</ele>
        <time>2020-06-15T10:58:57Z</time>
      </trkpt>
      <trkpt lat="49.58838" lon="-1.26605">
        <ele>2.3</ele>
        <time>2020-06-15T10:58:58Z</time>
      </trkpt>
      <trkpt lat="49.58837" lon="-1.2661">
        <ele>2.3</ele>
        <time>2020-06-15T10:58:59Z</time>
      </trkpt>
      <trkpt lat="49.58836" lon="-1.26612">
        <ele>2.3</ele>
        <time>2020-06-15T10:59:00Z</time>
      </trkpt>
      <trkpt lat="49.58836" lon="-1.26617">
        <ele>2.4</ele>
        <time>2020-06-15T10:59:01Z</time>
      </trkpt>
      <trkpt lat="49.58836" lon="-1.26618">
        <ele>2.4</ele>
        <time>2020-06-15T10:59:02Z</time>
      </trkpt>
      <trkpt lat="49.58836" lon="-1.26621">
        <ele>2.4</ele>
        <time>2020-06-15T10:59:03Z</time>
      </trkpt>
      <trkpt lat="49.58836" lon="-1.26624">
        <ele>2.4</ele>
        <time>2020-06-15T10:59:04Z</time>
      </trkpt>
      <trkpt lat="49.58835" lon="-1.26626">
        <ele>2.4</ele>
        <time>2020-06-15T10:59:05Z</time>
      </trkpt>
      <trkpt lat="49.58836" lon="-1.26629">
        <ele>2.4</ele>
        <time>2020-06-15T10:59:06Z</time>
      </trkpt>
      <trkpt lat="49.58835" lon="-1.26632">
        <ele>2.4</ele>
        <time>2020-06-15T10:59:07Z</time>
      </trkpt>
      <trkpt lat="49.58835" lon="-1.26633">
        <ele>2.4</ele>
        <time>2020-06-15T10:59:08Z</time>
      </trkpt>
      <trkpt lat="49.58835" lon="-1.26634">
        <ele>2.4</ele>
        <time>2020-06-15T10:59:09Z</time>
      </trkpt>
      <trkpt lat="49.58835" lon="-1.26634">
        <ele>2.4</ele>
        <time>2020-06-15T10:59:10Z</time>
      </trkpt>
      <trkpt lat="49.58835" lon="-1.26634">
        <ele>2.4</ele>
        <time>2020-06-15T10:59:11Z</time>
      </trkpt>
      <trkpt lat="49.58835" lon="-1.26634">
        <ele>2.4</ele>
        <time>2020-06-15T10:59:12Z</time>
      </trkpt>
      <trkpt lat="49.58835" lon="-1.26634">
        <ele>2.4</ele>
        <time>2020-06-15T10:59:13Z</time>
      </trkpt>
      <trkpt lat="49.58835" lon="-1.26634">
        <ele>2.4</ele>
        <time>2020-06-15T10:59:14Z</time>
      </trkpt>
      <trkpt lat="49.58835" lon="-1.26634">
        <ele>2.4</ele>
        <time>2020-06-15T10:59:15Z</time>
      </trkpt>
      <trkpt lat="49.58835" lon="-1.26633">
        <ele>2.4</ele>
        <time>2020-06-15T10:59:16Z</time>
      </trkpt>
      <trkpt lat="49.58835" lon="-1.26632">
        <ele>2.4</ele>
        <time>2020-06-15T10:59:17Z</time>
      </trkpt>
      <trkpt lat="49.58836" lon="-1.2663">
        <ele>2.4</ele>
        <time>2020-06-15T10:59:18Z</time>
      </trkpt>
      <trkpt lat="49.58835" lon="-1.26627">
        <ele>2.4</ele>
        <time>2020-06-15T10:59:19Z</time>
      </trkpt>
      <trkpt lat="49.58836" lon="-1.26625">
        <ele>2.4</ele>
        <time>2020-06-15T10:59:20Z</time>
      </trkpt>
      <trkpt lat="49.58837" lon="-1.26624">
        <ele>2.4</ele>
        <time>2020-06-15T10:59:21Z</time>
      </trkpt>
      <trkpt lat="49.58837" lon="-1.26625">
        <ele>2.4</ele>
        <time>2020-06-15T10:59:22Z</time>
      </trkpt>
      <trkpt lat="49.58837" lon="-1.26624">
        <ele>2.4</ele>
        <time>2020-06-15T10:59:23Z</time>
      </trkpt>
      <trkpt lat="49.58837" lon="-1.26625">
        <ele>2.4</ele>
        <time>2020-06-15T10:59:24Z</time>
      </trkpt>
      <trkpt lat="49.58838" lon="-1.26625">
        <ele>2.4</ele>
        <time>2020-06-15T10:59:25Z</time>
      </trkpt>
      <trkpt lat="49.58838" lon="-1.26625">
        <ele>2.4</ele>
        <time>2020-06-15T10:59:26Z</time>
      </trkpt>
      <trkpt lat="49.58838" lon="-1.26624">
        <ele>2.5</ele>
        <time>2020-06-15T10:59:27Z</time>
      </trkpt>
      <trkpt lat="49.58839" lon="-1.26623">
        <ele>2.5</ele>
        <time>2020-06-15T10:59:28Z</time>
      </trkpt>
      <trkpt lat="49.58839" lon="-1.26623">
        <ele>2.5</ele>
        <time>2020-06-15T10:59:29Z</time>
      </trkpt>
      <trkpt lat="49.58839" lon="-1.26623">
        <ele>2.5</ele>
        <time>2020-06-15T10:59:30Z</time>
      </trkpt>
      <trkpt lat="49.58839" lon="-1.26623">
        <ele>2.5</ele>
        <time>2020-06-15T10:59:31Z</time>
      </trkpt>
      <trkpt lat="49.58839" lon="-1.26622">
        <ele>2.5</ele>
        <time>2020-06-15T10:59:32Z</time>
      </trkpt>
      <trkpt lat="49.58839" lon="-1.26621">
        <ele>2.5</ele>
        <time>2020-06-15T10:59:33Z</time>
      </trkpt>
      <trkpt lat="49.58839" lon="-1.26621">
        <ele>2.5</ele>
        <time>2020-06-15T10:59:34Z</time>
      </trkpt>
      <trkpt lat="49.58839" lon="-1.2662">
        <ele>2.5</ele>
        <time>2020-06-15T10:59:35Z</time>
      </trkpt>
      <trkpt lat="49.58839" lon="-1.2662">
        <ele>2.5</ele>
        <time>2020-06-15T10:59:36Z</time>
      </trkpt>
      <trkpt lat="49.58839" lon="-1.2662">
        <ele>2.5</ele>
        <time>2020-06-15T10:59:37Z</time>
      </trkpt>
      <trkpt lat="49.58839" lon="-1.2662">
        <ele>2.5</ele>
        <time>2020-06-15T10:59:38Z</time>
      </trkpt>
      <trkpt lat="49.58838" lon="-1.2664">
        <ele>2.8</ele>
        <time>2020-06-15T11:00:30Z</time>
      </trkpt>
      <trkpt lat="49.58838" lon="-1.26638">
        <ele>2.8</ele>
        <time>2020-06-15T11:00:31Z</time>
      </trkpt>
      <trkpt lat="49.58839" lon="-1.26638">
        <ele>2.8</ele>
        <time>2020-06-15T11:00:32Z</time>
      </trkpt>
      <trkpt lat="49.58839" lon="-1.26636">
        <ele>2.8</ele>
        <time>2020-06-15T11:00:33Z</time>
      </trkpt>
      <trkpt lat="49.58839" lon="-1.26635">
        <ele>2.7</ele>
        <time>2020-06-15T11:00:34Z</time>
      </trkpt>
      <trkpt lat="49.5884" lon="-1.26634">
        <ele>2.7</ele>
        <time>2020-06-15T11:00:35Z</time>
      </trkpt>
      <trkpt lat="49.5884" lon="-1.26634">
        <ele>2.7</ele>
        <time>2020-06-15T11:00:36Z</time>
      </trkpt>
      <trkpt lat="49.5884" lon="-1.26633">
        <ele>2.7</ele>
        <time>2020-06-15T11:00:37Z</time>
      </trkpt>
      <trkpt lat="49.5884" lon="-1.26632">
        <ele>2.6</ele>
        <time>2020-06-15T11:00:38Z</time>
      </trkpt>
      <trkpt lat="49.58841" lon="-1.26629">
        <ele>2.6</ele>
        <time>2020-06-15T11:00:39Z</time>
      </trkpt>
      <trkpt lat="49.58841" lon="-1.26628">
        <ele>2.6</ele>
        <time>2020-06-15T11:00:40Z</time>
      </trkpt>
      <trkpt lat="49.58842" lon="-1.26627">
        <ele>2.5</ele>
        <time>2020-06-15T11:00:41Z</time>
      </trkpt>
      <trkpt lat="49.58842" lon="-1.26625">
        <ele>2.2</ele>
        <time>2020-06-15T11:00:42Z</time>
      </trkpt>
      <trkpt lat="49.58842" lon="-1.26623">
        <ele>2.2</ele>
        <time>2020-06-15T11:00:43Z</time>
      </trkpt>
      <trkpt lat="49.58841" lon="-1.26622">
        <ele>2.2</ele>
        <time>2020-06-15T11:00:44Z</time>
      </trkpt>
      <trkpt lat="49.5884" lon="-1.26621">
        <ele>2.2</ele>
        <time>2020-06-15T11:00:45Z</time>
      </trkpt>
      <trkpt lat="49.5884" lon="-1.26621">
        <ele>2.2</ele>
        <time>2020-06-15T11:00:46Z</time>
      </trkpt>
      <trkpt lat="49.58839" lon="-1.26622">
        <ele>2.2</ele>
        <time>2020-06-15T11:00:47Z</time>
      </trkpt>
      <trkpt lat="49.58839" lon="-1.26621">
        <ele>2.3</ele>
        <time>2020-06-15T11:00:48Z</time>
      </trkpt>
      <trkpt lat="49.58839" lon="-1.26621">
        <ele>2.3</ele>
        <time>2020-06-15T11:00:49Z</time>
      </trkpt>
      <trkpt lat="49.58839" lon="-1.2662">
        <ele>2.3</ele>
        <time>2020-06-15T11:00:50Z</time>
      </trkpt>
      <trkpt lat="49.58838" lon="-1.26619">
        <ele>2.3</ele>
        <time>2020-06-15T11:00:51Z</time>
      </trkpt>
      <trkpt lat="49.58838" lon="-1.26616">
        <ele>2.3</ele>
        <time>2020-06-15T11:00:52Z</time>
      </trkpt>
      <trkpt lat="49.58838" lon="-1.26614">
        <ele>2.3</ele>
        <time>2020-06-15T11:00:53Z</time>
      </trkpt>
      <trkpt lat="49.58838" lon="-1.26612">
        <ele>2.3</ele>
        <time>2020-06-15T11:00:54Z</time>
      </trkpt>
      <trkpt lat="49.58836" lon="-1.26607">
        <ele>2.3</ele>
        <time>2020-06-15T11:00:55Z</time>
      </trkpt>
      <trkpt lat="49.58836" lon="-1.26605">
        <ele>2.3</ele>
        <time>2020-06-15T11:00:56Z</time>
      </trkpt>
      <trkpt lat="49.58834" lon="-1.26601">
        <ele>2.3</ele>
        <time>2020-06-15T11:00:57Z</time>
      </trkpt>
      <trkpt lat="49.58833" lon="-1.266">
        <ele>2.3</ele>
        <time>2020-06-15T11:00:58Z</time>
      </trkpt>
      <trkpt lat="49.58832" lon="-1.26599">
        <ele>2.3</ele>
        <time>2020-06-15T11:00:59Z</time>
      </trkpt>
      <trkpt lat="49.58831" lon="-1.26597">
        <ele>2.3</ele>
        <time>2020-06-15T11:01:00Z</time>
      </trkpt>
      <trkpt lat="49.58829" lon="-1.26593">
        <ele>2.3</ele>
        <time>2020-06-15T11:01:01Z</time>
      </trkpt>
      <trkpt lat="49.58828" lon="-1.26592">
        <ele>2.3</ele>
        <time>2020-06-15T11:01:02Z</time>
      </trkpt>
      <trkpt lat="49.58825" lon="-1.26589">
        <ele>2.4</ele>
        <time>2020-06-15T11:01:03Z</time>
      </trkpt>
      <trkpt lat="49.58824" lon="-1.26588">
        <ele>2.4</ele>
        <time>2020-06-15T11:01:04Z</time>
      </trkpt>
      <trkpt lat="49.58821" lon="-1.26586">
        <ele>2.4</ele>
        <time>2020-06-15T11:01:05Z</time>
      </trkpt>
      <trkpt lat="49.5882" lon="-1.26585">
        <ele>2.4</ele>
        <time>2020-06-15T11:01:06Z</time>
      </trkpt>
      <trkpt lat="49.58817" lon="-1.26583">
        <ele>2.4</ele>
        <time>2020-06-15T11:01:07Z</time>
      </trkpt>
      <trkpt lat="49.58816" lon="-1.26582">
        <ele>2.4</ele>
        <time>2020-06-15T11:01:08Z</time>
      </trkpt>
      <trkpt lat="49.58812" lon="-1.26579">
        <ele>2.4</ele>
        <time>2020-06-15T11:01:09Z</time>
      </trkpt>
      <trkpt lat="49.58811" lon="-1.26578">
        <ele>2.4</ele>
        <time>2020-06-15T11:01:10Z</time>
      </trkpt>
      <trkpt lat="49.58809" lon="-1.26576">
        <ele>2.4</ele>
        <time>2020-06-15T11:01:11Z</time>
      </trkpt>
      <trkpt lat="49.58805" lon="-1.26574">
        <ele>2.4</ele>
        <time>2020-06-15T11:01:12Z</time>
      </trkpt>
      <trkpt lat="49.58804" lon="-1.26573">
        <ele>2.5</ele>
        <time>2020-06-15T11:01:13Z</time>
      </trkpt>
      <trkpt lat="49.58802" lon="-1.26571">
        <ele>2.5</ele>
        <time>2020-06-15T11:01:14Z</time>
      </trkpt>
      <trkpt lat="49.58798" lon="-1.2657">
        <ele>2.5</ele>
        <time>2020-06-15T11:01:15Z</time>
      </trkpt>
      <trkpt lat="49.58797" lon="-1.26569">
        <ele>2.5</ele>
        <time>2020-06-15T11:01:16Z</time>
      </trkpt>
      <trkpt lat="49.58794" lon="-1.26567">
        <ele>2.5</ele>
        <time>2020-06-15T11:01:17Z</time>
      </trkpt>
      <trkpt lat="49.58793" lon="-1.26567">
        <ele>2.5</ele>
        <time>2020-06-15T11:01:18Z</time>
      </trkpt>
      <trkpt lat="49.5879" lon="-1.26565">
        <ele>2.5</ele>
        <time>2020-06-15T11:01:19Z</time>
      </trkpt>
      <trkpt lat="49.58789" lon="-1.26564">
        <ele>2.5</ele>
        <time>2020-06-15T11:01:20Z</time>
      </trkpt>
      <trkpt lat="49.58788" lon="-1.26563">
        <ele>2.5</ele>
        <time>2020-06-15T11:01:21Z</time>
      </trkpt>
      <trkpt lat="49.58787" lon="-1.26561">
        <ele>2.5</ele>
        <time>2020-06-15T11:01:22Z</time>
      </trkpt>
      <trkpt lat="49.58786" lon="-1.2656">
        <ele>2.5</ele>
        <time>2020-06-15T11:01:23Z</time>
      </trkpt>
      <trkpt lat="49.58785" lon="-1.26559">
        <ele>2.5</ele>
        <time>2020-06-15T11:01:24Z</time>
      </trkpt>
      <trkpt lat="49.58785" lon="-1.26558">
        <ele>2.5</ele>
        <time>2020-06-15T11:01:25Z</time>
      </trkpt>
      <trkpt lat="49.58785" lon="-1.26558">
        <ele>2.5</ele>
        <time>2020-06-15T11:01:26Z</time>
      </trkpt>
      <trkpt lat="49.58785" lon="-1.26558">
        <ele>2.5</ele>
        <time>2020-06-15T11:01:27Z</time>
      </trkpt>
      <trkpt lat="49.58785" lon="-1.26558">
        <ele>2.5</ele>
        <time>2020-06-15T11:01:28Z</time>
      </trkpt>
      <trkpt lat="49.58785" lon="-1.26558">
        <ele>2.5</ele>
        <time>2020-06-15T11:01:29Z</time>
      </trkpt>
      <trkpt lat="49.58785" lon="-1.26558">
        <ele>2.5</ele>
        <time>2020-06-15T11:01:30Z</time>
      </trkpt>
      <trkpt lat="49.58784" lon="-1.26558">
        <ele>2.5</ele>
        <time>2020-06-15T11:01:31Z</time>
      </trkpt>
      <trkpt lat="49.58783" lon="-1.26557">
        <ele>2.5</ele>
        <time>2020-06-15T11:01:32Z</time>
      </trkpt>
      <trkpt lat="49.58782" lon="-1.26556">
        <ele>2.5</ele>
        <time>2020-06-15T11:01:33Z</time>
      </trkpt>
      <trkpt lat="49.58781" lon="-1.26555">
        <ele>2.5</ele>
        <time>2020-06-15T11:01:34Z</time>
      </trkpt>
      <trkpt lat="49.58781" lon="-1.26554">
        <ele>2.5</ele>
        <time>2020-06-15T11:01:35Z</time>
      </trkpt>
      <trkpt lat="49.58779" lon="-1.26553">
        <ele>2.5</ele>
        <time>2020-06-15T11:01:36Z</time>
      </trkpt>
      <trkpt lat="49.58778" lon="-1.26553">
        <ele>2.5</ele>
        <time>2020-06-15T11:01:37Z</time>
      </trkpt>
      <trkpt lat="49.58775" lon="-1.26553">
        <ele>2.5</ele>
        <time>2020-06-15T11:01:38Z</time>
      </trkpt>
      <trkpt lat="49.58774" lon="-1.26552">
        <ele>2.6</ele>
        <time>2020-06-15T11:01:39Z</time>
      </trkpt>
      <trkpt lat="49.58771" lon="-1.26551">
        <ele>2.6</ele>
        <time>2020-06-15T11:01:40Z</time>
      </trkpt>
      <trkpt lat="49.58768" lon="-1.26549">
        <ele>2.6</ele>
        <time>2020-06-15T11:01:41Z</time>
      </trkpt>
      <trkpt lat="49.58767" lon="-1.26549">
        <ele>2.6</ele>
        <time>2020-06-15T11:01:42Z</time>
      </trkpt>
      <trkpt lat="49.58764" lon="-1.26547">
        <ele>2.6</ele>
        <time>2020-06-15T11:01:43Z</time>
      </trkpt>
      <trkpt lat="49.58763" lon="-1.26546">
        <ele>2.6</ele>
        <time>2020-06-15T11:01:44Z</time>
      </trkpt>
      <trkpt lat="49.5876" lon="-1.26544">
        <ele>2.6</ele>
        <time>2020-06-15T11:01:45Z</time>
      </trkpt>
      <trkpt lat="49.58759" lon="-1.26543">
        <ele>2.6</ele>
        <time>2020-06-15T11:01:46Z</time>
      </trkpt>
      <trkpt lat="49.58757" lon="-1.2654">
        <ele>2.6</ele>
        <time>2020-06-15T11:01:47Z</time>
      </trkpt>
      <trkpt lat="49.58756" lon="-1.26538">
        <ele>2.6</ele>
        <time>2020-06-15T11:01:48Z</time>
      </trkpt>
      <trkpt lat="49.58752" lon="-1.26536">
        <ele>2.7</ele>
        <time>2020-06-15T11:01:49Z</time>
      </trkpt>
      <trkpt lat="49.58751" lon="-1.26535">
        <ele>2.7</ele>
        <time>2020-06-15T11:01:50Z</time>
      </trkpt>
      <trkpt lat="49.58749" lon="-1.26532">
        <ele>2.7</ele>
        <time>2020-06-15T11:01:51Z</time>
      </trkpt>
      <trkpt lat="49.58746" lon="-1.2653">
        <ele>2.7</ele>
        <time>2020-06-15T11:01:52Z</time>
      </trkpt>
      <trkpt lat="49.58744" lon="-1.26529">
        <ele>2.7</ele>
        <time>2020-06-15T11:01:53Z</time>
      </trkpt>
      <trkpt lat="49.58741" lon="-1.26526">
        <ele>2.7</ele>
        <time>2020-06-15T11:01:54Z</time>
      </trkpt>
      <trkpt lat="49.5874" lon="-1.26524">
        <ele>2.7</ele>
        <time>2020-06-15T11:01:55Z</time>
      </trkpt>
      <trkpt lat="49.58738" lon="-1.26523">
        <ele>2.7</ele>
        <time>2020-06-15T11:01:56Z</time>
      </trkpt>
      <trkpt lat="49.58737" lon="-1.26522">
        <ele>2.7</ele>
        <time>2020-06-15T11:01:57Z</time>
      </trkpt>
      <trkpt lat="49.58734" lon="-1.2652">
        <ele>2.7</ele>
        <time>2020-06-15T11:01:58Z</time>
      </trkpt>
      <trkpt lat="49.58734" lon="-1.26519">
        <ele>2.7</ele>
        <time>2020-06-15T11:01:59Z</time>
      </trkpt>
      <trkpt lat="49.5873" lon="-1.26518">
        <ele>2.7</ele>
        <time>2020-06-15T11:02:00Z</time>
      </trkpt>
      <trkpt lat="49.58729" lon="-1.26517">
        <ele>2.7</ele>
        <time>2020-06-15T11:02:01Z</time>
      </trkpt>
      <trkpt lat="49.58726" lon="-1.26515">
        <ele>2.7</ele>
        <time>2020-06-15T11:02:02Z</time>
      </trkpt>
      <trkpt lat="49.58723" lon="-1.26513">
        <ele>2.7</ele>
        <time>2020-06-15T11:02:03Z</time>
      </trkpt>
      <trkpt lat="49.58721" lon="-1.26512">
        <ele>2.7</ele>
        <time>2020-06-15T11:02:04Z</time>
      </trkpt>
      <trkpt lat="49.58718" lon="-1.2651">
        <ele>2.8</ele>
        <time>2020-06-15T11:02:05Z</time>
      </trkpt>
      <trkpt lat="49.58715" lon="-1.26509">
        <ele>2.8</ele>
        <time>2020-06-15T11:02:06Z</time>
      </trkpt>
      <trkpt lat="49.58712" lon="-1.26507">
        <ele>2.8</ele>
        <time>2020-06-15T11:02:07Z</time>
      </trkpt>
      <trkpt lat="49.58711" lon="-1.26506">
        <ele>2.8</ele>
        <time>2020-06-15T11:02:08Z</time>
      </trkpt>
      <trkpt lat="49.58708" lon="-1.26504">
        <ele>2.8</ele>
        <time>2020-06-15T11:02:09Z</time>
      </trkpt>
      <trkpt lat="49.58705" lon="-1.26502">
        <ele>2.8</ele>
        <time>2020-06-15T11:02:10Z</time>
      </trkpt>
      <trkpt lat="49.58703" lon="-1.265">
        <ele>2.8</ele>
        <time>2020-06-15T11:02:11Z</time>
      </trkpt>
      <trkpt lat="49.58699" lon="-1.26498">
        <ele>2.8</ele>
        <time>2020-06-15T11:02:12Z</time>
      </trkpt>
      <trkpt lat="49.58698" lon="-1.26498">
        <ele>2.8</ele>
        <time>2020-06-15T11:02:13Z</time>
      </trkpt>
      <trkpt lat="49.58695" lon="-1.26496">
        <ele>2.8</ele>
        <time>2020-06-15T11:02:14Z</time>
      </trkpt>
      <trkpt lat="49.58693" lon="-1.26493">
        <ele>2.8</ele>
        <time>2020-06-15T11:02:15Z</time>
      </trkpt>
      <trkpt lat="49.58691" lon="-1.2649">
        <ele>2.8</ele>
        <time>2020-06-15T11:02:16Z</time>
      </trkpt>
      <trkpt lat="49.58688" lon="-1.26488">
        <ele>2.8</ele>
        <time>2020-06-15T11:02:17Z</time>
      </trkpt>
      <trkpt lat="49.58687" lon="-1.26488">
        <ele>2.8</ele>
        <time>2020-06-15T11:02:18Z</time>
      </trkpt>
      <trkpt lat="49.58684" lon="-1.26485">
        <ele>2.8</ele>
        <time>2020-06-15T11:02:19Z</time>
      </trkpt>
      <trkpt lat="49.58683" lon="-1.26484">
        <ele>2.8</ele>
        <time>2020-06-15T11:02:20Z</time>
      </trkpt>
      <trkpt lat="49.5868" lon="-1.26481">
        <ele>2.8</ele>
        <time>2020-06-15T11:02:21Z</time>
      </trkpt>
      <trkpt lat="49.58679" lon="-1.2648">
        <ele>2.8</ele>
        <time>2020-06-15T11:02:22Z</time>
      </trkpt>
      <trkpt lat="49.58675" lon="-1.26478">
        <ele>2.8</ele>
        <time>2020-06-15T11:02:23Z</time>
      </trkpt>
      <trkpt lat="49.58674" lon="-1.26477">
        <ele>2.7</ele>
        <time>2020-06-15T11:02:24Z</time>
      </trkpt>
      <trkpt lat="49.58671" lon="-1.26475">
        <ele>2.7</ele>
        <time>2020-06-15T11:02:25Z</time>
      </trkpt>
      <trkpt lat="49.58668" lon="-1.26473">
        <ele>2.7</ele>
        <time>2020-06-15T11:02:26Z</time>
      </trkpt>
      <trkpt lat="49.58666" lon="-1.26471">
        <ele>2.7</ele>
        <time>2020-06-15T11:02:27Z</time>
      </trkpt>
      <trkpt lat="49.58663" lon="-1.26469">
        <ele>2.7</ele>
        <time>2020-06-15T11:02:28Z</time>
      </trkpt>
      <trkpt lat="49.5866" lon="-1.26466">
        <ele>2.7</ele>
        <time>2020-06-15T11:02:29Z</time>
      </trkpt>
      <trkpt lat="49.58659" lon="-1.26464">
        <ele>2.7</ele>
        <time>2020-06-15T11:02:30Z</time>
      </trkpt>
      <trkpt lat="49.58656" lon="-1.26464">
        <ele>2.7</ele>
        <time>2020-06-15T11:02:31Z</time>
      </trkpt>
      <trkpt lat="49.58655" lon="-1.26462">
        <ele>2.7</ele>
        <time>2020-06-15T11:02:32Z</time>
      </trkpt>
      <trkpt lat="49.58653" lon="-1.26461">
        <ele>2.7</ele>
        <time>2020-06-15T11:02:33Z</time>
      </trkpt>
      <trkpt lat="49.58651" lon="-1.26459">
        <ele>2.7</ele>
        <time>2020-06-15T11:02:34Z</time>
      </trkpt>
      <trkpt lat="49.5865" lon="-1.26459">
        <ele>2.7</ele>
        <time>2020-06-15T11:02:35Z</time>
      </trkpt>
      <trkpt lat="49.58647" lon="-1.26455">
        <ele>2.7</ele>
        <time>2020-06-15T11:02:36Z</time>
      </trkpt>
      <trkpt lat="49.58646" lon="-1.26454">
        <ele>2.7</ele>
        <time>2020-06-15T11:02:37Z</time>
      </trkpt>
      <trkpt lat="49.58643" lon="-1.26451">
        <ele>2.7</ele>
        <time>2020-06-15T11:02:38Z</time>
      </trkpt>
      <trkpt lat="49.58642" lon="-1.2645">
        <ele>2.7</ele>
        <time>2020-06-15T11:02:39Z</time>
      </trkpt>
      <trkpt lat="49.58639" lon="-1.2645">
        <ele>2.7</ele>
        <time>2020-06-15T11:02:40Z</time>
      </trkpt>
      <trkpt lat="49.58638" lon="-1.2645">
        <ele>2.7</ele>
        <time>2020-06-15T11:02:41Z</time>
      </trkpt>
      <trkpt lat="49.58636" lon="-1.26448">
        <ele>2.8</ele>
        <time>2020-06-15T11:02:42Z</time>
      </trkpt>
      <trkpt lat="49.58635" lon="-1.26448">
        <ele>2.8</ele>
        <time>2020-06-15T11:02:43Z</time>
      </trkpt>
      <trkpt lat="49.58632" lon="-1.26447">
        <ele>2.8</ele>
        <time>2020-06-15T11:02:44Z</time>
      </trkpt>
      <trkpt lat="49.5863" lon="-1.26448">
        <ele>2.8</ele>
        <time>2020-06-15T11:02:45Z</time>
      </trkpt>
      <trkpt lat="49.58627" lon="-1.26449">
        <ele>2.9</ele>
        <time>2020-06-15T11:02:46Z</time>
      </trkpt>
      <trkpt lat="49.58626" lon="-1.2645">
        <ele>2.9</ele>
        <time>2020-06-15T11:02:47Z</time>
      </trkpt>
      <trkpt lat="49.58622" lon="-1.26452">
        <ele>2.9</ele>
        <time>2020-06-15T11:02:48Z</time>
      </trkpt>
      <trkpt lat="49.58621" lon="-1.26453">
        <ele>3</ele>
        <time>2020-06-15T11:02:49Z</time>
      </trkpt>
      <trkpt lat="49.58619" lon="-1.26454">
        <ele>3</ele>
        <time>2020-06-15T11:02:50Z</time>
      </trkpt>
      <trkpt lat="49.58615" lon="-1.26459">
        <ele>3</ele>
        <time>2020-06-15T11:02:51Z</time>
      </trkpt>
      <trkpt lat="49.58613" lon="-1.2646">
        <ele>3</ele>
        <time>2020-06-15T11:02:52Z</time>
      </trkpt>
      <trkpt lat="49.58613" lon="-1.26466">
        <ele>3</ele>
        <time>2020-06-15T11:02:53Z</time>
      </trkpt>
      <trkpt lat="49.58613" lon="-1.26468">
        <ele>3</ele>
        <time>2020-06-15T11:02:54Z</time>
      </trkpt>
      <trkpt lat="49.58614" lon="-1.26473">
        <ele>3</ele>
        <time>2020-06-15T11:02:55Z</time>
      </trkpt>
      <trkpt lat="49.58614" lon="-1.26475">
        <ele>3</ele>
        <time>2020-06-15T11:02:56Z</time>
      </trkpt>
      <trkpt lat="49.58615" lon="-1.26478">
        <ele>3</ele>
        <time>2020-06-15T11:02:57Z</time>
      </trkpt>
      <trkpt lat="49.58618" lon="-1.26482">
        <ele>3</ele>
        <time>2020-06-15T11:02:58Z</time>
      </trkpt>
      <trkpt lat="49.5862" lon="-1.26485">
        <ele>3</ele>
        <time>2020-06-15T11:02:59Z</time>
      </trkpt>
      <trkpt lat="49.58623" lon="-1.26489">
        <ele>3</ele>
        <time>2020-06-15T11:03:00Z</time>
      </trkpt>
      <trkpt lat="49.58626" lon="-1.26493">
        <ele>3</ele>
        <time>2020-06-15T11:03:01Z</time>
      </trkpt>
      <trkpt lat="49.58628" lon="-1.26496">
        <ele>3</ele>
        <time>2020-06-15T11:03:02Z</time>
      </trkpt>
      <trkpt lat="49.5863" lon="-1.265">
        <ele>3</ele>
        <time>2020-06-15T11:03:03Z</time>
      </trkpt>
      <trkpt lat="49.58632" lon="-1.26504">
        <ele>3</ele>
        <time>2020-06-15T11:03:04Z</time>
      </trkpt>
      <trkpt lat="49.58634" lon="-1.26508">
        <ele>3</ele>
        <time>2020-06-15T11:03:05Z</time>
      </trkpt>
      <trkpt lat="49.58636" lon="-1.26511">
        <ele>3</ele>
        <time>2020-06-15T11:03:06Z</time>
      </trkpt>
      <trkpt lat="49.58638" lon="-1.26514">
        <ele>3</ele>
        <time>2020-06-15T11:03:07Z</time>
      </trkpt>
      <trkpt lat="49.5864" lon="-1.26519">
        <ele>3</ele>
        <time>2020-06-15T11:03:08Z</time>
      </trkpt>
      <trkpt lat="49.58641" lon="-1.26521">
        <ele>3</ele>
        <time>2020-06-15T11:03:09Z</time>
      </trkpt>
      <trkpt lat="49.58644" lon="-1.26523">
        <ele>3</ele>
        <time>2020-06-15T11:03:10Z</time>
      </trkpt>
      <trkpt lat="49.58646" lon="-1.26526">
        <ele>3</ele>
        <time>2020-06-15T11:03:11Z</time>
      </trkpt>
      <trkpt lat="49.58647" lon="-1.26531">
        <ele>3</ele>
        <time>2020-06-15T11:03:12Z</time>
      </trkpt>
      <trkpt lat="49.58648" lon="-1.26535">
        <ele>3</ele>
        <time>2020-06-15T11:03:13Z</time>
      </trkpt>
      <trkpt lat="49.58649" lon="-1.2654">
        <ele>3</ele>
        <time>2020-06-15T11:03:14Z</time>
      </trkpt>
      <trkpt lat="49.58651" lon="-1.26544">
        <ele>3</ele>
        <time>2020-06-15T11:03:15Z</time>
      </trkpt>
      <trkpt lat="49.58651" lon="-1.26545">
        <ele>3</ele>
        <time>2020-06-15T11:03:16Z</time>
      </trkpt>
      <trkpt lat="49.58652" lon="-1.26547">
        <ele>3</ele>
        <time>2020-06-15T11:03:17Z</time>
      </trkpt>
      <trkpt lat="49.58653" lon="-1.26549">
        <ele>3</ele>
        <time>2020-06-15T11:03:18Z</time>
      </trkpt>
      <trkpt lat="49.58652" lon="-1.26552">
        <ele>3</ele>
        <time>2020-06-15T11:03:19Z</time>
      </trkpt>
      <trkpt lat="49.58652" lon="-1.26553">
        <ele>3</ele>
        <time>2020-06-15T11:03:20Z</time>
      </trkpt>
      <trkpt lat="49.58652" lon="-1.26554">
        <ele>3</ele>
        <time>2020-06-15T11:03:21Z</time>
      </trkpt>
      <trkpt lat="49.58652" lon="-1.26556">
        <ele>3</ele>
        <time>2020-06-15T11:03:22Z</time>
      </trkpt>
      <trkpt lat="49.58651" lon="-1.26559">
        <ele>2.9</ele>
        <time>2020-06-15T11:03:23Z</time>
      </trkpt>
      <trkpt lat="49.58651" lon="-1.26561">
        <ele>2.9</ele>
        <time>2020-06-15T11:03:24Z</time>
      </trkpt>
      <trkpt lat="49.5865" lon="-1.26564">
        <ele>2.9</ele>
        <time>2020-06-15T11:03:25Z</time>
      </trkpt>
      <trkpt lat="49.58649" lon="-1.26569">
        <ele>2.9</ele>
        <time>2020-06-15T11:03:26Z</time>
      </trkpt>
      <trkpt lat="49.58649" lon="-1.26571">
        <ele>2.9</ele>
        <time>2020-06-15T11:03:27Z</time>
      </trkpt>
      <trkpt lat="49.5865" lon="-1.26576">
        <ele>2.9</ele>
        <time>2020-06-15T11:03:28Z</time>
      </trkpt>
      <trkpt lat="49.58651" lon="-1.2658">
        <ele>2.9</ele>
        <time>2020-06-15T11:03:29Z</time>
      </trkpt>
      <trkpt lat="49.58652" lon="-1.26584">
        <ele>2.9</ele>
        <time>2020-06-15T11:03:30Z</time>
      </trkpt>
      <trkpt lat="49.58653" lon="-1.2659">
        <ele>2.9</ele>
        <time>2020-06-15T11:03:31Z</time>
      </trkpt>
      <trkpt lat="49.58653" lon="-1.26593">
        <ele>2.9</ele>
        <time>2020-06-15T11:03:32Z</time>
      </trkpt>
      <trkpt lat="49.58653" lon="-1.26597">
        <ele>2.8</ele>
        <time>2020-06-15T11:03:33Z</time>
      </trkpt>
      <trkpt lat="49.58653" lon="-1.26602">
        <ele>2.8</ele>
        <time>2020-06-15T11:03:34Z</time>
      </trkpt>
      <trkpt lat="49.58653" lon="-1.26606">
        <ele>2.8</ele>
        <time>2020-06-15T11:03:35Z</time>
      </trkpt>
      <trkpt lat="49.58654" lon="-1.26611">
        <ele>2.8</ele>
        <time>2020-06-15T11:03:36Z</time>
      </trkpt>
      <trkpt lat="49.58654" lon="-1.26614">
        <ele>2.8</ele>
        <time>2020-06-15T11:03:37Z</time>
      </trkpt>
      <trkpt lat="49.58655" lon="-1.26618">
        <ele>2.8</ele>
        <time>2020-06-15T11:03:38Z</time>
      </trkpt>
      <trkpt lat="49.58656" lon="-1.26624">
        <ele>2.8</ele>
        <time>2020-06-15T11:03:39Z</time>
      </trkpt>
      <trkpt lat="49.58656" lon="-1.26625">
        <ele>2.8</ele>
        <time>2020-06-15T11:03:40Z</time>
      </trkpt>
      <trkpt lat="49.58657" lon="-1.26631">
        <ele>2.8</ele>
        <time>2020-06-15T11:03:41Z</time>
      </trkpt>
      <trkpt lat="49.58658" lon="-1.26633">
        <ele>2.8</ele>
        <time>2020-06-15T11:03:42Z</time>
      </trkpt>
      <trkpt lat="49.58657" lon="-1.26639">
        <ele>2.7</ele>
        <time>2020-06-15T11:03:43Z</time>
      </trkpt>
      <trkpt lat="49.58658" lon="-1.26641">
        <ele>2.7</ele>
        <time>2020-06-15T11:03:44Z</time>
      </trkpt>
      <trkpt lat="49.58659" lon="-1.26646">
        <ele>2.7</ele>
        <time>2020-06-15T11:03:45Z</time>
      </trkpt>
      <trkpt lat="49.5866" lon="-1.26648">
        <ele>2.7</ele>
        <time>2020-06-15T11:03:46Z</time>
      </trkpt>
      <trkpt lat="49.58661" lon="-1.26649">
        <ele>2.7</ele>
        <time>2020-06-15T11:03:47Z</time>
      </trkpt>
      <trkpt lat="49.58662" lon="-1.26651">
        <ele>2.7</ele>
        <time>2020-06-15T11:03:48Z</time>
      </trkpt>
      <trkpt lat="49.58662" lon="-1.26655">
        <ele>2.7</ele>
        <time>2020-06-15T11:03:49Z</time>
      </trkpt>
      <trkpt lat="49.58662" lon="-1.26657">
        <ele>2.7</ele>
        <time>2020-06-15T11:03:50Z</time>
      </trkpt>
      <trkpt lat="49.58663" lon="-1.26663">
        <ele>2.7</ele>
        <time>2020-06-15T11:03:51Z</time>
      </trkpt>
      <trkpt lat="49.58663" lon="-1.26665">
        <ele>2.7</ele>
        <time>2020-06-15T11:03:52Z</time>
      </trkpt>
      <trkpt lat="49.58665" lon="-1.2667">
        <ele>2.7</ele>
        <time>2020-06-15T11:03:53Z</time>
      </trkpt>
      <trkpt lat="49.58666" lon="-1.26676">
        <ele>2.7</ele>
        <time>2020-06-15T11:03:54Z</time>
      </trkpt>
      <trkpt lat="49.58667" lon="-1.26677">
        <ele>2.7</ele>
        <time>2020-06-15T11:03:55Z</time>
      </trkpt>
      <trkpt lat="49.58668" lon="-1.26682">
        <ele>2.7</ele>
        <time>2020-06-15T11:03:56Z</time>
      </trkpt>
      <trkpt lat="49.58669" lon="-1.26687">
        <ele>2.8</ele>
        <time>2020-06-15T11:03:57Z</time>
      </trkpt>
      <trkpt lat="49.5867" lon="-1.26692">
        <ele>2.8</ele>
        <time>2020-06-15T11:03:58Z</time>
      </trkpt>
      <trkpt lat="49.58671" lon="-1.26698">
        <ele>2.8</ele>
        <time>2020-06-15T11:03:59Z</time>
      </trkpt>
      <trkpt lat="49.58671" lon="-1.267">
        <ele>2.9</ele>
        <time>2020-06-15T11:04:00Z</time>
      </trkpt>
      <trkpt lat="49.5867" lon="-1.26705">
        <ele>2.9</ele>
        <time>2020-06-15T11:04:01Z</time>
      </trkpt>
      <trkpt lat="49.5867" lon="-1.26707">
        <ele>2.9</ele>
        <time>2020-06-15T11:04:02Z</time>
      </trkpt>
      <trkpt lat="49.5867" lon="-1.26711">
        <ele>2.9</ele>
        <time>2020-06-15T11:04:03Z</time>
      </trkpt>
      <trkpt lat="49.58671" lon="-1.26716">
        <ele>3</ele>
        <time>2020-06-15T11:04:04Z</time>
      </trkpt>
      <trkpt lat="49.58671" lon="-1.26718">
        <ele>3</ele>
        <time>2020-06-15T11:04:05Z</time>
      </trkpt>
      <trkpt lat="49.58671" lon="-1.26722">
        <ele>3</ele>
        <time>2020-06-15T11:04:06Z</time>
      </trkpt>
      <trkpt lat="49.58671" lon="-1.26724">
        <ele>3</ele>
        <time>2020-06-15T11:04:07Z</time>
      </trkpt>
      <trkpt lat="49.58671" lon="-1.26728">
        <ele>3.1</ele>
        <time>2020-06-15T11:04:08Z</time>
      </trkpt>
      <trkpt lat="49.5867" lon="-1.26733">
        <ele>3.1</ele>
        <time>2020-06-15T11:04:09Z</time>
      </trkpt>
      <trkpt lat="49.58671" lon="-1.26738">
        <ele>3.2</ele>
        <time>2020-06-15T11:04:10Z</time>
      </trkpt>
      <trkpt lat="49.58674" lon="-1.26741">
        <ele>3.2</ele>
        <time>2020-06-15T11:04:11Z</time>
      </trkpt>
      <trkpt lat="49.58677" lon="-1.26742">
        <ele>3.2</ele>
        <time>2020-06-15T11:04:12Z</time>
      </trkpt>
      <trkpt lat="49.58681" lon="-1.2674">
        <ele>3.2</ele>
        <time>2020-06-15T11:04:13Z</time>
      </trkpt>
      <trkpt lat="49.58682" lon="-1.26739">
        <ele>3.2</ele>
        <time>2020-06-15T11:04:14Z</time>
      </trkpt>
      <trkpt lat="49.58685" lon="-1.26739">
        <ele>3.3</ele>
        <time>2020-06-15T11:04:15Z</time>
      </trkpt>
      <trkpt lat="49.58689" lon="-1.26738">
        <ele>3.4</ele>
        <time>2020-06-15T11:04:16Z</time>
      </trkpt>
      <trkpt lat="49.58691" lon="-1.26737">
        <ele>3.5</ele>
        <time>2020-06-15T11:04:17Z</time>
      </trkpt>
      <trkpt lat="49.58694" lon="-1.26735">
        <ele>3.6</ele>
        <time>2020-06-15T11:04:18Z</time>
      </trkpt>
      <trkpt lat="49.58697" lon="-1.26731">
        <ele>3.7</ele>
        <time>2020-06-15T11:04:19Z</time>
      </trkpt>
      <trkpt lat="49.58699" lon="-1.26726">
        <ele>3.7</ele>
        <time>2020-06-15T11:04:20Z</time>
      </trkpt>
      <trkpt lat="49.58701" lon="-1.26721">
        <ele>3.7</ele>
        <time>2020-06-15T11:04:21Z</time>
      </trkpt>
      <trkpt lat="49.58704" lon="-1.26717">
        <ele>3.7</ele>
        <time>2020-06-15T11:04:22Z</time>
      </trkpt>
      <trkpt lat="49.58706" lon="-1.26713">
        <ele>3.7</ele>
        <time>2020-06-15T11:04:23Z</time>
      </trkpt>
      <trkpt lat="49.58708" lon="-1.2671">
        <ele>3.7</ele>
        <time>2020-06-15T11:04:24Z</time>
      </trkpt>
      <trkpt lat="49.5871" lon="-1.26706">
        <ele>3.7</ele>
        <time>2020-06-15T11:04:25Z</time>
      </trkpt>
      <trkpt lat="49.58711" lon="-1.26705">
        <ele>3.7</ele>
        <time>2020-06-15T11:04:26Z</time>
      </trkpt>
      <trkpt lat="49.58713" lon="-1.26701">
        <ele>3.7</ele>
        <time>2020-06-15T11:04:27Z</time>
      </trkpt>
      <trkpt lat="49.58715" lon="-1.26697">
        <ele>3.7</ele>
        <time>2020-06-15T11:04:28Z</time>
      </trkpt>
      <trkpt lat="49.58718" lon="-1.26693">
        <ele>3.6</ele>
        <time>2020-06-15T11:04:29Z</time>
      </trkpt>
      <trkpt lat="49.58721" lon="-1.26689">
        <ele>3.6</ele>
        <time>2020-06-15T11:04:30Z</time>
      </trkpt>
      <trkpt lat="49.58722" lon="-1.26684">
        <ele>3.5</ele>
        <time>2020-06-15T11:04:31Z</time>
      </trkpt>
      <trkpt lat="49.58725" lon="-1.26679">
        <ele>3.5</ele>
        <time>2020-06-15T11:04:32Z</time>
      </trkpt>
      <trkpt lat="49.58726" lon="-1.26678">
        <ele>3.5</ele>
        <time>2020-06-15T11:04:33Z</time>
      </trkpt>
      <trkpt lat="49.58728" lon="-1.26674">
        <ele>3.5</ele>
        <time>2020-06-15T11:04:34Z</time>
      </trkpt>
      <trkpt lat="49.5873" lon="-1.2667">
        <ele>3.5</ele>
        <time>2020-06-15T11:04:35Z</time>
      </trkpt>
      <trkpt lat="49.58731" lon="-1.26669">
        <ele>3.5</ele>
        <time>2020-06-15T11:04:36Z</time>
      </trkpt>
      <trkpt lat="49.58734" lon="-1.26665">
        <ele>3.5</ele>
        <time>2020-06-15T11:04:37Z</time>
      </trkpt>
      <trkpt lat="49.58735" lon="-1.26664">
        <ele>3.5</ele>
        <time>2020-06-15T11:04:38Z</time>
      </trkpt>
      <trkpt lat="49.58738" lon="-1.26661">
        <ele>3.5</ele>
        <time>2020-06-15T11:04:39Z</time>
      </trkpt>
      <trkpt lat="49.58741" lon="-1.26657">
        <ele>3.5</ele>
        <time>2020-06-15T11:04:40Z</time>
      </trkpt>
      <trkpt lat="49.58745" lon="-1.26653">
        <ele>3.5</ele>
        <time>2020-06-15T11:04:41Z</time>
      </trkpt>
      <trkpt lat="49.58747" lon="-1.2665">
        <ele>3.5</ele>
        <time>2020-06-15T11:04:42Z</time>
      </trkpt>
      <trkpt lat="49.5875" lon="-1.26646">
        <ele>3.5</ele>
        <time>2020-06-15T11:04:43Z</time>
      </trkpt>
      <trkpt lat="49.58753" lon="-1.2664">
        <ele>3.5</ele>
        <time>2020-06-15T11:04:44Z</time>
      </trkpt>
      <trkpt lat="49.58755" lon="-1.26637">
        <ele>3.5</ele>
        <time>2020-06-15T11:04:45Z</time>
      </trkpt>
      <trkpt lat="49.58758" lon="-1.26633">
        <ele>3.5</ele>
        <time>2020-06-15T11:04:46Z</time>
      </trkpt>
      <trkpt lat="49.58759" lon="-1.26631">
        <ele>3.5</ele>
        <time>2020-06-15T11:04:47Z</time>
      </trkpt>
      <trkpt lat="49.5876" lon="-1.26628">
        <ele>3.4</ele>
        <time>2020-06-15T11:04:48Z</time>
      </trkpt>
      <trkpt lat="49.58761" lon="-1.26628">
        <ele>3.4</ele>
        <time>2020-06-15T11:04:49Z</time>
      </trkpt>
      <trkpt lat="49.58763" lon="-1.26626">
        <ele>3.4</ele>
        <time>2020-06-15T11:04:50Z</time>
      </trkpt>
      <trkpt lat="49.58764" lon="-1.26627">
        <ele>3.3</ele>
        <time>2020-06-15T11:04:51Z</time>
      </trkpt>
      <trkpt lat="49.58765" lon="-1.26627">
        <ele>3.3</ele>
        <time>2020-06-15T11:04:52Z</time>
      </trkpt>
      <trkpt lat="49.58767" lon="-1.26629">
        <ele>3.2</ele>
        <time>2020-06-15T11:04:53Z</time>
      </trkpt>
      <trkpt lat="49.58768" lon="-1.2663">
        <ele>3.3</ele>
        <time>2020-06-15T11:04:54Z</time>
      </trkpt>
      <trkpt lat="49.58769" lon="-1.26631">
        <ele>3.3</ele>
        <time>2020-06-15T11:04:55Z</time>
      </trkpt>
      <trkpt lat="49.5877" lon="-1.26632">
        <ele>3.3</ele>
        <time>2020-06-15T11:04:56Z</time>
      </trkpt>
      <trkpt lat="49.5877" lon="-1.2663">
        <ele>3.3</ele>
        <time>2020-06-15T11:04:57Z</time>
      </trkpt>
      <trkpt lat="49.58769" lon="-1.26631">
        <ele>3.3</ele>
        <time>2020-06-15T11:04:58Z</time>
      </trkpt>
      <trkpt lat="49.58769" lon="-1.2663">
        <ele>3.3</ele>
        <time>2020-06-15T11:04:59Z</time>
      </trkpt>
      <trkpt lat="49.58769" lon="-1.26631">
        <ele>3.3</ele>
        <time>2020-06-15T11:05:00Z</time>
      </trkpt>
      <trkpt lat="49.58768" lon="-1.2663">
        <ele>3.3</ele>
        <time>2020-06-15T11:05:01Z</time>
      </trkpt>
      <trkpt lat="49.58768" lon="-1.2663">
        <ele>3.3</ele>
        <time>2020-06-15T11:05:02Z</time>
      </trkpt>
      <trkpt lat="49.58769" lon="-1.26633">
        <ele>3.3</ele>
        <time>2020-06-15T11:05:03Z</time>
      </trkpt>
      <trkpt lat="49.58771" lon="-1.26634">
        <ele>3.3</ele>
        <time>2020-06-15T11:05:04Z</time>
      </trkpt>
      <trkpt lat="49.58772" lon="-1.26635">
        <ele>3.3</ele>
        <time>2020-06-15T11:05:05Z</time>
      </trkpt>
      <trkpt lat="49.58773" lon="-1.26638">
        <ele>3.3</ele>
        <time>2020-06-15T11:05:06Z</time>
      </trkpt>
      <trkpt lat="49.58775" lon="-1.26644">
        <ele>3.3</ele>
        <time>2020-06-15T11:05:07Z</time>
      </trkpt>
      <trkpt lat="49.58777" lon="-1.26646">
        <ele>3.3</ele>
        <time>2020-06-15T11:05:08Z</time>
      </trkpt>
      <trkpt lat="49.58779" lon="-1.2665">
        <ele>3.3</ele>
        <time>2020-06-15T11:05:09Z</time>
      </trkpt>
      <trkpt lat="49.58781" lon="-1.26655">
        <ele>3.3</ele>
        <time>2020-06-15T11:05:10Z</time>
      </trkpt>
      <trkpt lat="49.58782" lon="-1.26659">
        <ele>3.3</ele>
        <time>2020-06-15T11:05:11Z</time>
      </trkpt>
      <trkpt lat="49.58784" lon="-1.26664">
        <ele>3.3</ele>
        <time>2020-06-15T11:05:12Z</time>
      </trkpt>
      <trkpt lat="49.58785" lon="-1.26669">
        <ele>3.3</ele>
        <time>2020-06-15T11:05:13Z</time>
      </trkpt>
      <trkpt lat="49.58787" lon="-1.26675">
        <ele>3.3</ele>
        <time>2020-06-15T11:05:14Z</time>
      </trkpt>
      <trkpt lat="49.58789" lon="-1.2668">
        <ele>3.3</ele>
        <time>2020-06-15T11:05:15Z</time>
      </trkpt>
      <trkpt lat="49.58791" lon="-1.26684">
        <ele>3.3</ele>
        <time>2020-06-15T11:05:16Z</time>
      </trkpt>
      <trkpt lat="49.58794" lon="-1.26689">
        <ele>3.3</ele>
        <time>2020-06-15T11:05:17Z</time>
      </trkpt>
      <trkpt lat="49.58796" lon="-1.26694">
        <ele>3.3</ele>
        <time>2020-06-15T11:05:18Z</time>
      </trkpt>
      <trkpt lat="49.58798" lon="-1.26698">
        <ele>3.4</ele>
        <time>2020-06-15T11:05:19Z</time>
      </trkpt>
      <trkpt lat="49.58799" lon="-1.26703">
        <ele>3.4</ele>
        <time>2020-06-15T11:05:20Z</time>
      </trkpt>
      <trkpt lat="49.58801" lon="-1.26709">
        <ele>3.4</ele>
        <time>2020-06-15T11:05:21Z</time>
      </trkpt>
      <trkpt lat="49.58803" lon="-1.26713">
        <ele>3.4</ele>
        <time>2020-06-15T11:05:22Z</time>
      </trkpt>
      <trkpt lat="49.58805" lon="-1.26716">
        <ele>3.4</ele>
        <time>2020-06-15T11:05:23Z</time>
      </trkpt>
      <trkpt lat="49.58807" lon="-1.2672">
        <ele>3.4</ele>
        <time>2020-06-15T11:05:24Z</time>
      </trkpt>
      <trkpt lat="49.58807" lon="-1.26726">
        <ele>3.4</ele>
        <time>2020-06-15T11:05:25Z</time>
      </trkpt>
      <trkpt lat="49.58807" lon="-1.26729">
        <ele>3.4</ele>
        <time>2020-06-15T11:05:26Z</time>
      </trkpt>
      <trkpt lat="49.58808" lon="-1.26733">
        <ele>3.4</ele>
        <time>2020-06-15T11:05:27Z</time>
      </trkpt>
      <trkpt lat="49.58809" lon="-1.26739">
        <ele>3.4</ele>
        <time>2020-06-15T11:05:28Z</time>
      </trkpt>
      <trkpt lat="49.5881" lon="-1.26741">
        <ele>3.4</ele>
        <time>2020-06-15T11:05:29Z</time>
      </trkpt>
      <trkpt lat="49.58812" lon="-1.26744">
        <ele>3.4</ele>
        <time>2020-06-15T11:05:30Z</time>
      </trkpt>
      <trkpt lat="49.58812" lon="-1.26745">
        <ele>3.4</ele>
        <time>2020-06-15T11:05:31Z</time>
      </trkpt>
      <trkpt lat="49.58816" lon="-1.26742">
        <ele>3.3</ele>
        <time>2020-06-15T11:05:32Z</time>
      </trkpt>
      <trkpt lat="49.58818" lon="-1.26741">
        <ele>3.3</ele>
        <time>2020-06-15T11:05:33Z</time>
      </trkpt>
      <trkpt lat="49.58822" lon="-1.26739">
        <ele>3.2</ele>
        <time>2020-06-15T11:05:34Z</time>
      </trkpt>
      <trkpt lat="49.58825" lon="-1.26736">
        <ele>3.2</ele>
        <time>2020-06-15T11:05:35Z</time>
      </trkpt>
      <trkpt lat="49.5883" lon="-1.26735">
        <ele>3.1</ele>
        <time>2020-06-15T11:05:36Z</time>
      </trkpt>
      <trkpt lat="49.58834" lon="-1.26734">
        <ele>3</ele>
        <time>2020-06-15T11:05:37Z</time>
      </trkpt>
      <trkpt lat="49.58838" lon="-1.26731">
        <ele>3</ele>
        <time>2020-06-15T11:05:38Z</time>
      </trkpt>
      <trkpt lat="49.58842" lon="-1.26729">
        <ele>2.9</ele>
        <time>2020-06-15T11:05:39Z</time>
      </trkpt>
      <trkpt lat="49.58845" lon="-1.26726">
        <ele>2.8</ele>
        <time>2020-06-15T11:05:40Z</time>
      </trkpt>
      <trkpt lat="49.58847" lon="-1.26722">
        <ele>2.8</ele>
        <time>2020-06-15T11:05:41Z</time>
      </trkpt>
      <trkpt lat="49.58851" lon="-1.2672">
        <ele>2.8</ele>
        <time>2020-06-15T11:05:42Z</time>
      </trkpt>
      <trkpt lat="49.58855" lon="-1.26715">
        <ele>2.7</ele>
        <time>2020-06-15T11:05:43Z</time>
      </trkpt>
      <trkpt lat="49.58858" lon="-1.26714">
        <ele>2.7</ele>
        <time>2020-06-15T11:05:44Z</time>
      </trkpt>
      <trkpt lat="49.58862" lon="-1.26712">
        <ele>2.7</ele>
        <time>2020-06-15T11:05:45Z</time>
      </trkpt>
      <trkpt lat="49.58866" lon="-1.2671">
        <ele>2.7</ele>
        <time>2020-06-15T11:05:46Z</time>
      </trkpt>
      <trkpt lat="49.5887" lon="-1.26708">
        <ele>2.7</ele>
        <time>2020-06-15T11:05:47Z</time>
      </trkpt>
      <trkpt lat="49.58873" lon="-1.26704">
        <ele>2.7</ele>
        <time>2020-06-15T11:05:48Z</time>
      </trkpt>
      <trkpt lat="49.58876" lon="-1.26702">
        <ele>2.7</ele>
        <time>2020-06-15T11:05:49Z</time>
      </trkpt>
      <trkpt lat="49.5888" lon="-1.26701">
        <ele>2.7</ele>
        <time>2020-06-15T11:05:50Z</time>
      </trkpt>
      <trkpt lat="49.58883" lon="-1.267">
        <ele>2.7</ele>
        <time>2020-06-15T11:05:51Z</time>
      </trkpt>
      <trkpt lat="49.58887" lon="-1.26698">
        <ele>2.7</ele>
        <time>2020-06-15T11:05:52Z</time>
      </trkpt>
      <trkpt lat="49.58892" lon="-1.26695">
        <ele>2.7</ele>
        <time>2020-06-15T11:05:53Z</time>
      </trkpt>
      <trkpt lat="49.58896" lon="-1.26692">
        <ele>2.7</ele>
        <time>2020-06-15T11:05:54Z</time>
      </trkpt>
      <trkpt lat="49.58899" lon="-1.26689">
        <ele>2.7</ele>
        <time>2020-06-15T11:05:55Z</time>
      </trkpt>
      <trkpt lat="49.58902" lon="-1.26687">
        <ele>2.7</ele>
        <time>2020-06-15T11:05:56Z</time>
      </trkpt>
      <trkpt lat="49.58905" lon="-1.26685">
        <ele>2.7</ele>
        <time>2020-06-15T11:05:57Z</time>
      </trkpt>
      <trkpt lat="49.58908" lon="-1.26684">
        <ele>2.7</ele>
        <time>2020-06-15T11:05:58Z</time>
      </trkpt>
      <trkpt lat="49.58911" lon="-1.26681">
        <ele>2.6</ele>
        <time>2020-06-15T11:05:59Z</time>
      </trkpt>
      <trkpt lat="49.58913" lon="-1.26676">
        <ele>2.6</ele>
        <time>2020-06-15T11:06:00Z</time>
      </trkpt>
      <trkpt lat="49.58915" lon="-1.2667">
        <ele>2.1</ele>
        <time>2020-06-15T11:06:01Z</time>
      </trkpt>
      <trkpt lat="49.58916" lon="-1.26664">
        <ele>1.7</ele>
        <time>2020-06-15T11:06:02Z</time>
      </trkpt>
      <trkpt lat="49.58917" lon="-1.26659">
        <ele>1.3</ele>
        <time>2020-06-15T11:06:03Z</time>
      </trkpt>
      <trkpt lat="49.58917" lon="-1.26654">
        <ele>0.9</ele>
        <time>2020-06-15T11:06:04Z</time>
      </trkpt>
      <trkpt lat="49.58918" lon="-1.26649">
        <ele>0.4</ele>
        <time>2020-06-15T11:06:05Z</time>
      </trkpt>
      <trkpt lat="49.58918" lon="-1.26644">
        <ele>2.4</ele>
        <time>2020-06-15T11:06:06Z</time>
      </trkpt>
      <trkpt lat="49.58918" lon="-1.26639">
        <ele>-0.4</ele>
        <time>2020-06-15T11:06:07Z</time>
      </trkpt>
      <trkpt lat="49.58916" lon="-1.26637">
        <ele>-0.4</ele>
        <time>2020-06-15T11:06:08Z</time>
      </trkpt>
      <trkpt lat="49.58912" lon="-1.26637">
        <ele>-0.3</ele>
        <time>2020-06-15T11:06:09Z</time>
      </trkpt>
      <trkpt lat="49.58908" lon="-1.26638">
        <ele>-0.3</ele>
        <time>2020-06-15T11:06:10Z</time>
      </trkpt>
      <trkpt lat="49.58904" lon="-1.26638">
        <ele>-0.3</ele>
        <time>2020-06-15T11:06:11Z</time>
      </trkpt>
      <trkpt lat="49.58899" lon="-1.2664">
        <ele>-0.3</ele>
        <time>2020-06-15T11:06:12Z</time>
      </trkpt>
      <trkpt lat="49.58895" lon="-1.26641">
        <ele>-0.2</ele>
        <time>2020-06-15T11:06:13Z</time>
      </trkpt>
      <trkpt lat="49.58891" lon="-1.26641">
        <ele>-0.1</ele>
        <time>2020-06-15T11:06:14Z</time>
      </trkpt>
      <trkpt lat="49.58886" lon="-1.26641">
        <ele>-0.1</ele>
        <time>2020-06-15T11:06:15Z</time>
      </trkpt>
      <trkpt lat="49.58882" lon="-1.26641">
        <ele>2.2</ele>
        <time>2020-06-15T11:06:16Z</time>
      </trkpt>
      <trkpt lat="49.58878" lon="-1.26641">
        <ele>0.1</ele>
        <time>2020-06-15T11:06:17Z</time>
      </trkpt>
      <trkpt lat="49.58874" lon="-1.2664">
        <ele>0.1</ele>
        <time>2020-06-15T11:06:18Z</time>
      </trkpt>
      <trkpt lat="49.5887" lon="-1.26638">
        <ele>0.2</ele>
        <time>2020-06-15T11:06:19Z</time>
      </trkpt>
      <trkpt lat="49.58866" lon="-1.26638">
        <ele>0.2</ele>
        <time>2020-06-15T11:06:20Z</time>
      </trkpt>
      <trkpt lat="49.58862" lon="-1.26638">
        <ele>2.1</ele>
        <time>2020-06-15T11:06:21Z</time>
      </trkpt>
      <trkpt lat="49.58859" lon="-1.26638">
        <ele>2.1</ele>
        <time>2020-06-15T11:06:22Z</time>
      </trkpt>
      <trkpt lat="49.58855" lon="-1.26639">
        <ele>2.1</ele>
        <time>2020-06-15T11:06:23Z</time>
      </trkpt>
      <trkpt lat="49.58852" lon="-1.26639">
        <ele>2.1</ele>
        <time>2020-06-15T11:06:24Z</time>
      </trkpt>
      <trkpt lat="49.58848" lon="-1.26639">
        <ele>2.2</ele>
        <time>2020-06-15T11:06:25Z</time>
      </trkpt>
      <trkpt lat="49.58845" lon="-1.26638">
        <ele>2.2</ele>
        <time>2020-06-15T11:06:26Z</time>
      </trkpt>
      <trkpt lat="49.58842" lon="-1.26638">
        <ele>2.2</ele>
        <time>2020-06-15T11:06:27Z</time>
      </trkpt>
      <trkpt lat="49.58838" lon="-1.26638">
        <ele>2.8</ele>
        <time>2020-06-15T11:06:28Z</time>
      </trkpt>
      <trkpt lat="49.58835" lon="-1.26639">
        <ele>2.8</ele>
        <time>2020-06-15T11:06:29Z</time>
      </trkpt>
      <trkpt lat="49.58832" lon="-1.2664">
        <ele>2.9</ele>
        <time>2020-06-15T11:06:30Z</time>
      </trkpt>
      <trkpt lat="49.58828" lon="-1.26641">
        <ele>2.9</ele>
        <time>2020-06-15T11:06:31Z</time>
      </trkpt>
      <trkpt lat="49.58825" lon="-1.26639">
        <ele>2.9</ele>
        <time>2020-06-15T11:06:32Z</time>
      </trkpt>
      <trkpt lat="49.58821" lon="-1.26637">
        <ele>2.9</ele>
        <time>2020-06-15T11:06:33Z</time>
      </trkpt>
      <trkpt lat="49.58817" lon="-1.26633">
        <ele>2.9</ele>
        <time>2020-06-15T11:06:34Z</time>
      </trkpt>
      <trkpt lat="49.58812" lon="-1.26631">
        <ele>2.9</ele>
        <time>2020-06-15T11:06:35Z</time>
      </trkpt>
      <trkpt lat="49.58808" lon="-1.2663">
        <ele>2.9</ele>
        <time>2020-06-15T11:06:36Z</time>
      </trkpt>
      <trkpt lat="49.58803" lon="-1.26629">
        <ele>2.9</ele>
        <time>2020-06-15T11:06:37Z</time>
      </trkpt>
      <trkpt lat="49.588" lon="-1.26627">
        <ele>2.9</ele>
        <time>2020-06-15T11:06:38Z</time>
      </trkpt>
      <trkpt lat="49.58796" lon="-1.26626">
        <ele>2.9</ele>
        <time>2020-06-15T11:06:39Z</time>
      </trkpt>
      <trkpt lat="49.58792" lon="-1.26624">
        <ele>2.9</ele>
        <time>2020-06-15T11:06:40Z</time>
      </trkpt>
      <trkpt lat="49.58789" lon="-1.26623">
        <ele>2.9</ele>
        <time>2020-06-15T11:06:41Z</time>
      </trkpt>
      <trkpt lat="49.58785" lon="-1.26622">
        <ele>3</ele>
        <time>2020-06-15T11:06:42Z</time>
      </trkpt>
      <trkpt lat="49.58782" lon="-1.26622">
        <ele>3</ele>
        <time>2020-06-15T11:06:43Z</time>
      </trkpt>
      <trkpt lat="49.58778" lon="-1.2662">
        <ele>3</ele>
        <time>2020-06-15T11:06:44Z</time>
      </trkpt>
      <trkpt lat="49.58775" lon="-1.26619">
        <ele>3.1</ele>
        <time>2020-06-15T11:06:45Z</time>
      </trkpt>
      <trkpt lat="49.58772" lon="-1.26615">
        <ele>3.1</ele>
        <time>2020-06-15T11:06:46Z</time>
      </trkpt>
      <trkpt lat="49.58767" lon="-1.26614">
        <ele>3.1</ele>
        <time>2020-06-15T11:06:47Z</time>
      </trkpt>
      <trkpt lat="49.58763" lon="-1.26613">
        <ele>3.1</ele>
        <time>2020-06-15T11:06:48Z</time>
      </trkpt>
      <trkpt lat="49.5876" lon="-1.26612">
        <ele>3.2</ele>
        <time>2020-06-15T11:06:49Z</time>
      </trkpt>
      <trkpt lat="49.58757" lon="-1.2661">
        <ele>3.2</ele>
        <time>2020-06-15T11:06:50Z</time>
      </trkpt>
      <trkpt lat="49.58753" lon="-1.26606">
        <ele>3.2</ele>
        <time>2020-06-15T11:06:51Z</time>
      </trkpt>
      <trkpt lat="49.5875" lon="-1.26604">
        <ele>3.2</ele>
        <time>2020-06-15T11:06:52Z</time>
      </trkpt>
      <trkpt lat="49.58747" lon="-1.26601">
        <ele>3.2</ele>
        <time>2020-06-15T11:06:53Z</time>
      </trkpt>
      <trkpt lat="49.58746" lon="-1.26601">
        <ele>3.2</ele>
        <time>2020-06-15T11:06:54Z</time>
      </trkpt>
      <trkpt lat="49.58744" lon="-1.26598">
        <ele>3.2</ele>
        <time>2020-06-15T11:06:55Z</time>
      </trkpt>
      <trkpt lat="49.58743" lon="-1.26597">
        <ele>3.2</ele>
        <time>2020-06-15T11:06:56Z</time>
      </trkpt>
      <trkpt lat="49.5874" lon="-1.26593">
        <ele>3.2</ele>
        <time>2020-06-15T11:06:57Z</time>
      </trkpt>
      <trkpt lat="49.58739" lon="-1.26593">
        <ele>3.2</ele>
        <time>2020-06-15T11:06:58Z</time>
      </trkpt>
      <trkpt lat="49.58738" lon="-1.26589">
        <ele>3.1</ele>
        <time>2020-06-15T11:06:59Z</time>
      </trkpt>
      <trkpt lat="49.58737" lon="-1.26588">
        <ele>3.1</ele>
        <time>2020-06-15T11:07:00Z</time>
      </trkpt>
      <trkpt lat="49.58734" lon="-1.26585">
        <ele>3.1</ele>
        <time>2020-06-15T11:07:01Z</time>
      </trkpt>
      <trkpt lat="49.58733" lon="-1.26584">
        <ele>3.1</ele>
        <time>2020-06-15T11:07:02Z</time>
      </trkpt>
      <trkpt lat="49.58729" lon="-1.26582">
        <ele>3.1</ele>
        <time>2020-06-15T11:07:03Z</time>
      </trkpt>
      <trkpt lat="49.58728" lon="-1.26581">
        <ele>3.1</ele>
        <time>2020-06-15T11:07:04Z</time>
      </trkpt>
      <trkpt lat="49.58724" lon="-1.26578">
        <ele>3.1</ele>
        <time>2020-06-15T11:07:05Z</time>
      </trkpt>
      <trkpt lat="49.58722" lon="-1.26577">
        <ele>3.1</ele>
        <time>2020-06-15T11:07:06Z</time>
      </trkpt>
      <trkpt lat="49.58719" lon="-1.26577">
        <ele>3.1</ele>
        <time>2020-06-15T11:07:07Z</time>
      </trkpt>
      <trkpt lat="49.58718" lon="-1.26576">
        <ele>3.1</ele>
        <time>2020-06-15T11:07:08Z</time>
      </trkpt>
      <trkpt lat="49.58714" lon="-1.26573">
        <ele>3.1</ele>
        <time>2020-06-15T11:07:09Z</time>
      </trkpt>
      <trkpt lat="49.58713" lon="-1.26572">
        <ele>3.1</ele>
        <time>2020-06-15T11:07:10Z</time>
      </trkpt>
      <trkpt lat="49.5871" lon="-1.26569">
        <ele>3.1</ele>
        <time>2020-06-15T11:07:11Z</time>
      </trkpt>
      <trkpt lat="49.58708" lon="-1.26566">
        <ele>3.1</ele>
        <time>2020-06-15T11:07:12Z</time>
      </trkpt>
      <trkpt lat="49.58706" lon="-1.26564">
        <ele>3.1</ele>
        <time>2020-06-15T11:07:13Z</time>
      </trkpt>
      <trkpt lat="49.58705" lon="-1.26563">
        <ele>3.1</ele>
        <time>2020-06-15T11:07:14Z</time>
      </trkpt>
      <trkpt lat="49.58704" lon="-1.26561">
        <ele>3.2</ele>
        <time>2020-06-15T11:07:15Z</time>
      </trkpt>
      <trkpt lat="49.58703" lon="-1.26559">
        <ele>3.2</ele>
        <time>2020-06-15T11:07:16Z</time>
      </trkpt>
      <trkpt lat="49.58701" lon="-1.26554">
        <ele>3.2</ele>
        <time>2020-06-15T11:07:17Z</time>
      </trkpt>
      <trkpt lat="49.58701" lon="-1.26552">
        <ele>3.2</ele>
        <time>2020-06-15T11:07:18Z</time>
      </trkpt>
      <trkpt lat="49.58699" lon="-1.26549">
        <ele>3.3</ele>
        <time>2020-06-15T11:07:19Z</time>
      </trkpt>
      <trkpt lat="49.58699" lon="-1.26547">
        <ele>3.3</ele>
        <time>2020-06-15T11:07:20Z</time>
      </trkpt>
      <trkpt lat="49.58696" lon="-1.26545">
        <ele>3.3</ele>
        <time>2020-06-15T11:07:21Z</time>
      </trkpt>
      <trkpt lat="49.58695" lon="-1.26544">
        <ele>3.3</ele>
        <time>2020-06-15T11:07:22Z</time>
      </trkpt>
      <trkpt lat="49.58693" lon="-1.26543">
        <ele>3.4</ele>
        <time>2020-06-15T11:07:23Z</time>
      </trkpt>
      <trkpt lat="49.58692" lon="-1.26543">
        <ele>3.4</ele>
        <time>2020-06-15T11:07:24Z</time>
      </trkpt>
      <trkpt lat="49.58687" lon="-1.26547">
        <ele>3.4</ele>
        <time>2020-06-15T11:07:25Z</time>
      </trkpt>
      <trkpt lat="49.58683" lon="-1.26547">
        <ele>3.5</ele>
        <time>2020-06-15T11:07:26Z</time>
      </trkpt>
      <trkpt lat="49.5868" lon="-1.26547">
        <ele>3.5</ele>
        <time>2020-06-15T11:07:27Z</time>
      </trkpt>
      <trkpt lat="49.58676" lon="-1.26549">
        <ele>3.5</ele>
        <time>2020-06-15T11:07:28Z</time>
      </trkpt>
      <trkpt lat="49.58674" lon="-1.26551">
        <ele>3.5</ele>
        <time>2020-06-15T11:07:29Z</time>
      </trkpt>
      <trkpt lat="49.58671" lon="-1.26553">
        <ele>3.6</ele>
        <time>2020-06-15T11:07:30Z</time>
      </trkpt>
      <trkpt lat="49.58666" lon="-1.26553">
        <ele>3.6</ele>
        <time>2020-06-15T11:07:31Z</time>
      </trkpt>
      <trkpt lat="49.58665" lon="-1.26554">
        <ele>3.6</ele>
        <time>2020-06-15T11:07:32Z</time>
      </trkpt>
      <trkpt lat="49.58662" lon="-1.26553">
        <ele>3.6</ele>
        <time>2020-06-15T11:07:33Z</time>
      </trkpt>
      <trkpt lat="49.58659" lon="-1.26551">
        <ele>3.5</ele>
        <time>2020-06-15T11:07:34Z</time>
      </trkpt>
      <trkpt lat="49.58658" lon="-1.2655">
        <ele>3.4</ele>
        <time>2020-06-15T11:07:35Z</time>
      </trkpt>
      <trkpt lat="49.58655" lon="-1.26547">
        <ele>3.3</ele>
        <time>2020-06-15T11:07:36Z</time>
      </trkpt>
      <trkpt lat="49.58653" lon="-1.26547">
        <ele>3.3</ele>
        <time>2020-06-15T11:07:37Z</time>
      </trkpt>
      <trkpt lat="49.58651" lon="-1.26543">
        <ele>3.2</ele>
        <time>2020-06-15T11:07:38Z</time>
      </trkpt>
      <trkpt lat="49.58649" lon="-1.26543">
        <ele>3.1</ele>
        <time>2020-06-15T11:07:39Z</time>
      </trkpt>
      <trkpt lat="49.58647" lon="-1.26539">
        <ele>3</ele>
        <time>2020-06-15T11:07:40Z</time>
      </trkpt>
      <trkpt lat="49.58646" lon="-1.26537">
        <ele>3</ele>
        <time>2020-06-15T11:07:41Z</time>
      </trkpt>
      <trkpt lat="49.58643" lon="-1.26532">
        <ele>3</ele>
        <time>2020-06-15T11:07:42Z</time>
      </trkpt>
      <trkpt lat="49.58643" lon="-1.2653">
        <ele>3</ele>
        <time>2020-06-15T11:07:43Z</time>
      </trkpt>
      <trkpt lat="49.5864" lon="-1.26528">
        <ele>3</ele>
        <time>2020-06-15T11:07:44Z</time>
      </trkpt>
      <trkpt lat="49.58637" lon="-1.26524">
        <ele>3</ele>
        <time>2020-06-15T11:07:45Z</time>
      </trkpt>
      <trkpt lat="49.58637" lon="-1.26523">
        <ele>3</ele>
        <time>2020-06-15T11:07:46Z</time>
      </trkpt>
      <trkpt lat="49.58635" lon="-1.26521">
        <ele>3</ele>
        <time>2020-06-15T11:07:47Z</time>
      </trkpt>
      <trkpt lat="49.58634" lon="-1.2652">
        <ele>3</ele>
        <time>2020-06-15T11:07:48Z</time>
      </trkpt>
      <trkpt lat="49.58634" lon="-1.26519">
        <ele>3</ele>
        <time>2020-06-15T11:07:49Z</time>
      </trkpt>
      <trkpt lat="49.58633" lon="-1.26518">
        <ele>3</ele>
        <time>2020-06-15T11:07:50Z</time>
      </trkpt>
      <trkpt lat="49.58632" lon="-1.26517">
        <ele>3</ele>
        <time>2020-06-15T11:07:51Z</time>
      </trkpt>
      <trkpt lat="49.58631" lon="-1.26515">
        <ele>3</ele>
        <time>2020-06-15T11:07:52Z</time>
      </trkpt>
      <trkpt lat="49.5863" lon="-1.26513">
        <ele>3</ele>
        <time>2020-06-15T11:07:53Z</time>
      </trkpt>
      <trkpt lat="49.58629" lon="-1.26511">
        <ele>3</ele>
        <time>2020-06-15T11:07:54Z</time>
      </trkpt>
      <trkpt lat="49.58627" lon="-1.26509">
        <ele>3</ele>
        <time>2020-06-15T11:07:55Z</time>
      </trkpt>
      <trkpt lat="49.58625" lon="-1.26507">
        <ele>3</ele>
        <time>2020-06-15T11:07:56Z</time>
      </trkpt>
      <trkpt lat="49.58624" lon="-1.26506">
        <ele>3</ele>
        <time>2020-06-15T11:07:57Z</time>
      </trkpt>
      <trkpt lat="49.58621" lon="-1.26502">
        <ele>3</ele>
        <time>2020-06-15T11:07:58Z</time>
      </trkpt>
      <trkpt lat="49.58621" lon="-1.26501">
        <ele>3</ele>
        <time>2020-06-15T11:07:59Z</time>
      </trkpt>
      <trkpt lat="49.5862" lon="-1.26495">
        <ele>3</ele>
        <time>2020-06-15T11:08:00Z</time>
      </trkpt>
      <trkpt lat="49.5862" lon="-1.26491">
        <ele>3</ele>
        <time>2020-06-15T11:08:01Z</time>
      </trkpt>
      <trkpt lat="49.58618" lon="-1.26485">
        <ele>3</ele>
        <time>2020-06-15T11:08:02Z</time>
      </trkpt>
      <trkpt lat="49.58617" lon="-1.26485">
        <ele>3</ele>
        <time>2020-06-15T11:08:03Z</time>
      </trkpt>
      <trkpt lat="49.58618" lon="-1.26486">
        <ele>3</ele>
        <time>2020-06-15T11:08:04Z</time>
      </trkpt>
      <trkpt lat="49.58618" lon="-1.26487">
        <ele>3</ele>
        <time>2020-06-15T11:08:05Z</time>
      </trkpt>
      <trkpt lat="49.58619" lon="-1.26489">
        <ele>3</ele>
        <time>2020-06-15T11:08:06Z</time>
      </trkpt>
      <trkpt lat="49.5862" lon="-1.2649">
        <ele>3</ele>
        <time>2020-06-15T11:08:07Z</time>
      </trkpt>
      <trkpt lat="49.58621" lon="-1.26494">
        <ele>3</ele>
        <time>2020-06-15T11:08:08Z</time>
      </trkpt>
      <trkpt lat="49.58623" lon="-1.26498">
        <ele>3</ele>
        <time>2020-06-15T11:08:09Z</time>
      </trkpt>
      <trkpt lat="49.58626" lon="-1.26503">
        <ele>3</ele>
        <time>2020-06-15T11:08:10Z</time>
      </trkpt>
      <trkpt lat="49.58629" lon="-1.26507">
        <ele>3</ele>
        <time>2020-06-15T11:08:11Z</time>
      </trkpt>
      <trkpt lat="49.58631" lon="-1.26511">
        <ele>3</ele>
        <time>2020-06-15T11:08:12Z</time>
      </trkpt>
      <trkpt lat="49.58634" lon="-1.26516">
        <ele>3</ele>
        <time>2020-06-15T11:08:13Z</time>
      </trkpt>
      <trkpt lat="49.58635" lon="-1.26518">
        <ele>3</ele>
        <time>2020-06-15T11:08:14Z</time>
      </trkpt>
      <trkpt lat="49.58637" lon="-1.26522">
        <ele>3</ele>
        <time>2020-06-15T11:08:15Z</time>
      </trkpt>
      <trkpt lat="49.58638" lon="-1.26524">
        <ele>3</ele>
        <time>2020-06-15T11:08:16Z</time>
      </trkpt>
      <trkpt lat="49.58641" lon="-1.26528">
        <ele>3</ele>
        <time>2020-06-15T11:08:17Z</time>
      </trkpt>
      <trkpt lat="49.58642" lon="-1.2653">
        <ele>3</ele>
        <time>2020-06-15T11:08:18Z</time>
      </trkpt>
      <trkpt lat="49.58643" lon="-1.26534">
        <ele>3</ele>
        <time>2020-06-15T11:08:19Z</time>
      </trkpt>
      <trkpt lat="49.58645" lon="-1.26537">
        <ele>3</ele>
        <time>2020-06-15T11:08:20Z</time>
      </trkpt>
      <trkpt lat="49.58646" lon="-1.2654">
        <ele>3</ele>
        <time>2020-06-15T11:08:21Z</time>
      </trkpt>
      <trkpt lat="49.58646" lon="-1.26542">
        <ele>3</ele>
        <time>2020-06-15T11:08:22Z</time>
      </trkpt>
      <trkpt lat="49.58643" lon="-1.26544">
        <ele>3</ele>
        <time>2020-06-15T11:08:23Z</time>
      </trkpt>
      <trkpt lat="49.5864" lon="-1.26547">
        <ele>3</ele>
        <time>2020-06-15T11:08:24Z</time>
      </trkpt>
      <trkpt lat="49.58637" lon="-1.26549">
        <ele>3</ele>
        <time>2020-06-15T11:08:25Z</time>
      </trkpt>
      <trkpt lat="49.58633" lon="-1.26549">
        <ele>3</ele>
        <time>2020-06-15T11:08:26Z</time>
      </trkpt>
      <trkpt lat="49.58629" lon="-1.26551">
        <ele>2.9</ele>
        <time>2020-06-15T11:08:27Z</time>
      </trkpt>
      <trkpt lat="49.58625" lon="-1.26553">
        <ele>2.9</ele>
        <time>2020-06-15T11:08:28Z</time>
      </trkpt>
      <trkpt lat="49.5862" lon="-1.26552">
        <ele>2.9</ele>
        <time>2020-06-15T11:08:29Z</time>
      </trkpt>
      <trkpt lat="49.58616" lon="-1.26553">
        <ele>2.9</ele>
        <time>2020-06-15T11:08:30Z</time>
      </trkpt>
      <trkpt lat="49.58612" lon="-1.26555">
        <ele>2.8</ele>
        <time>2020-06-15T11:08:31Z</time>
      </trkpt>
      <trkpt lat="49.58608" lon="-1.26557">
        <ele>2.8</ele>
        <time>2020-06-15T11:08:32Z</time>
      </trkpt>
      <trkpt lat="49.58603" lon="-1.26559">
        <ele>2.8</ele>
        <time>2020-06-15T11:08:33Z</time>
      </trkpt>
      <trkpt lat="49.586" lon="-1.26562">
        <ele>2.8</ele>
        <time>2020-06-15T11:08:34Z</time>
      </trkpt>
      <trkpt lat="49.58596" lon="-1.26563">
        <ele>2.7</ele>
        <time>2020-06-15T11:08:35Z</time>
      </trkpt>
      <trkpt lat="49.58594" lon="-1.26566">
        <ele>2.7</ele>
        <time>2020-06-15T11:08:36Z</time>
      </trkpt>
      <trkpt lat="49.5859" lon="-1.26567">
        <ele>2.7</ele>
        <time>2020-06-15T11:08:37Z</time>
      </trkpt>
      <trkpt lat="49.58587" lon="-1.26569">
        <ele>2.7</ele>
        <time>2020-06-15T11:08:38Z</time>
      </trkpt>
      <trkpt lat="49.58583" lon="-1.2657">
        <ele>2.7</ele>
        <time>2020-06-15T11:08:39Z</time>
      </trkpt>
      <trkpt lat="49.5858" lon="-1.26572">
        <ele>2.7</ele>
        <time>2020-06-15T11:08:40Z</time>
      </trkpt>
      <trkpt lat="49.58577" lon="-1.26574">
        <ele>2.7</ele>
        <time>2020-06-15T11:08:41Z</time>
      </trkpt>
      <trkpt lat="49.58573" lon="-1.26575">
        <ele>2.6</ele>
        <time>2020-06-15T11:08:42Z</time>
      </trkpt>
      <trkpt lat="49.58569" lon="-1.26575">
        <ele>2.5</ele>
        <time>2020-06-15T11:08:43Z</time>
      </trkpt>
      <trkpt lat="49.58566" lon="-1.26576">
        <ele>2.4</ele>
        <time>2020-06-15T11:08:44Z</time>
      </trkpt>
      <trkpt lat="49.58563" lon="-1.26577">
        <ele>2.3</ele>
        <time>2020-06-15T11:08:45Z</time>
      </trkpt>
      <trkpt lat="49.58559" lon="-1.26579">
        <ele>2.2</ele>
        <time>2020-06-15T11:08:46Z</time>
      </trkpt>
      <trkpt lat="49.58556" lon="-1.26581">
        <ele>2.1</ele>
        <time>2020-06-15T11:08:47Z</time>
      </trkpt>
      <trkpt lat="49.58553" lon="-1.26582">
        <ele>2.1</ele>
        <time>2020-06-15T11:08:48Z</time>
      </trkpt>
      <trkpt lat="49.5855" lon="-1.26584">
        <ele>2</ele>
        <time>2020-06-15T11:08:49Z</time>
      </trkpt>
      <trkpt lat="49.58549" lon="-1.26585">
        <ele>2</ele>
        <time>2020-06-15T11:08:50Z</time>
      </trkpt>
      <trkpt lat="49.58548" lon="-1.26586">
        <ele>2</ele>
        <time>2020-06-15T11:08:51Z</time>
      </trkpt>
      <trkpt lat="49.58547" lon="-1.26588">
        <ele>2</ele>
        <time>2020-06-15T11:08:52Z</time>
      </trkpt>
      <trkpt lat="49.58542" lon="-1.26589">
        <ele>1.9</ele>
        <time>2020-06-15T11:08:53Z</time>
      </trkpt>
      <trkpt lat="49.5854" lon="-1.2659">
        <ele>1.9</ele>
        <time>2020-06-15T11:08:54Z</time>
      </trkpt>
      <trkpt lat="49.58537" lon="-1.26591">
        <ele>1.9</ele>
        <time>2020-06-15T11:08:55Z</time>
      </trkpt>
      <trkpt lat="49.58533" lon="-1.26594">
        <ele>1.8</ele>
        <time>2020-06-15T11:08:56Z</time>
      </trkpt>
      <trkpt lat="49.58529" lon="-1.26597">
        <ele>1.8</ele>
        <time>2020-06-15T11:08:57Z</time>
      </trkpt>
      <trkpt lat="49.58525" lon="-1.266">
        <ele>1.8</ele>
        <time>2020-06-15T11:08:58Z</time>
      </trkpt>
      <trkpt lat="49.58521" lon="-1.26603">
        <ele>1.8</ele>
        <time>2020-06-15T11:08:59Z</time>
      </trkpt>
      <trkpt lat="49.58517" lon="-1.26605">
        <ele>1.8</ele>
        <time>2020-06-15T11:09:00Z</time>
      </trkpt>
      <trkpt lat="49.58514" lon="-1.26606">
        <ele>1.7</ele>
        <time>2020-06-15T11:09:01Z</time>
      </trkpt>
      <trkpt lat="49.5851" lon="-1.26608">
        <ele>1.7</ele>
        <time>2020-06-15T11:09:02Z</time>
      </trkpt>
      <trkpt lat="49.58506" lon="-1.2661">
        <ele>1.8</ele>
        <time>2020-06-15T11:09:03Z</time>
      </trkpt>
      <trkpt lat="49.58503" lon="-1.26611">
        <ele>1.8</ele>
        <time>2020-06-15T11:09:04Z</time>
      </trkpt>
      <trkpt lat="49.585" lon="-1.26614">
        <ele>2</ele>
        <time>2020-06-15T11:09:05Z</time>
      </trkpt>
      <trkpt lat="49.58498" lon="-1.26619">
        <ele>1.9</ele>
        <time>2020-06-15T11:09:06Z</time>
      </trkpt>
      <trkpt lat="49.58497" lon="-1.26623">
        <ele>1.9</ele>
        <time>2020-06-15T11:09:07Z</time>
      </trkpt>
      <trkpt lat="49.58496" lon="-1.26629">
        <ele>1.9</ele>
        <time>2020-06-15T11:09:08Z</time>
      </trkpt>
      <trkpt lat="49.58498" lon="-1.26635">
        <ele>1.8</ele>
        <time>2020-06-15T11:09:09Z</time>
      </trkpt>
      <trkpt lat="49.58497" lon="-1.26642">
        <ele>1.8</ele>
        <time>2020-06-15T11:09:10Z</time>
      </trkpt>
      <trkpt lat="49.58497" lon="-1.26647">
        <ele>1.8</ele>
        <time>2020-06-15T11:09:11Z</time>
      </trkpt>
      <trkpt lat="49.58497" lon="-1.26653">
        <ele>1.7</ele>
        <time>2020-06-15T11:09:12Z</time>
      </trkpt>
      <trkpt lat="49.58498" lon="-1.2666">
        <ele>1.7</ele>
        <time>2020-06-15T11:09:13Z</time>
      </trkpt>
      <trkpt lat="49.585" lon="-1.26667">
        <ele>1.7</ele>
        <time>2020-06-15T11:09:14Z</time>
      </trkpt>
      <trkpt lat="49.58501" lon="-1.26673">
        <ele>1.7</ele>
        <time>2020-06-15T11:09:15Z</time>
      </trkpt>
      <trkpt lat="49.58503" lon="-1.2668">
        <ele>1.7</ele>
        <time>2020-06-15T11:09:16Z</time>
      </trkpt>
      <trkpt lat="49.58505" lon="-1.26687">
        <ele>1.7</ele>
        <time>2020-06-15T11:09:17Z</time>
      </trkpt>
      <trkpt lat="49.58507" lon="-1.26695">
        <ele>1.7</ele>
        <time>2020-06-15T11:09:18Z</time>
      </trkpt>
      <trkpt lat="49.58508" lon="-1.26702">
        <ele>1.6</ele>
        <time>2020-06-15T11:09:19Z</time>
      </trkpt>
      <trkpt lat="49.5851" lon="-1.26711">
        <ele>1.6</ele>
        <time>2020-06-15T11:09:20Z</time>
      </trkpt>
      <trkpt lat="49.58511" lon="-1.26719">
        <ele>1.6</ele>
        <time>2020-06-15T11:09:21Z</time>
      </trkpt>
      <trkpt lat="49.58514" lon="-1.26728">
        <ele>1.6</ele>
        <time>2020-06-15T11:09:22Z</time>
      </trkpt>
      <trkpt lat="49.58516" lon="-1.26735">
        <ele>1.6</ele>
        <time>2020-06-15T11:09:23Z</time>
      </trkpt>
      <trkpt lat="49.58517" lon="-1.26743">
        <ele>1.5</ele>
        <time>2020-06-15T11:09:24Z</time>
      </trkpt>
      <trkpt lat="49.58518" lon="-1.2675">
        <ele>1.5</ele>
        <time>2020-06-15T11:09:25Z</time>
      </trkpt>
      <trkpt lat="49.58519" lon="-1.26757">
        <ele>1.5</ele>
        <time>2020-06-15T11:09:26Z</time>
      </trkpt>
      <trkpt lat="49.58522" lon="-1.26765">
        <ele>1.5</ele>
        <time>2020-06-15T11:09:27Z</time>
      </trkpt>
      <trkpt lat="49.58523" lon="-1.26772">
        <ele>1.5</ele>
        <time>2020-06-15T11:09:28Z</time>
      </trkpt>
      <trkpt lat="49.58523" lon="-1.2678">
        <ele>1.5</ele>
        <time>2020-06-15T11:09:29Z</time>
      </trkpt>
      <trkpt lat="49.58523" lon="-1.26788">
        <ele>1.5</ele>
        <time>2020-06-15T11:09:30Z</time>
      </trkpt>
      <trkpt lat="49.58525" lon="-1.26796">
        <ele>1.5</ele>
        <time>2020-06-15T11:09:31Z</time>
      </trkpt>
      <trkpt lat="49.58526" lon="-1.26803">
        <ele>1.5</ele>
        <time>2020-06-15T11:09:32Z</time>
      </trkpt>
      <trkpt lat="49.58527" lon="-1.2681">
        <ele>1.6</ele>
        <time>2020-06-15T11:09:33Z</time>
      </trkpt>
      <trkpt lat="49.58529" lon="-1.26818">
        <ele>1.6</ele>
        <time>2020-06-15T11:09:34Z</time>
      </trkpt>
      <trkpt lat="49.58531" lon="-1.26826">
        <ele>1.7</ele>
        <time>2020-06-15T11:09:35Z</time>
      </trkpt>
      <trkpt lat="49.58533" lon="-1.26833">
        <ele>1.8</ele>
        <time>2020-06-15T11:09:36Z</time>
      </trkpt>
      <trkpt lat="49.58534" lon="-1.26841">
        <ele>1.8</ele>
        <time>2020-06-15T11:09:37Z</time>
      </trkpt>
      <trkpt lat="49.58534" lon="-1.26848">
        <ele>1.8</ele>
        <time>2020-06-15T11:09:38Z</time>
      </trkpt>
      <trkpt lat="49.58536" lon="-1.26855">
        <ele>1.9</ele>
        <time>2020-06-15T11:09:39Z</time>
      </trkpt>
      <trkpt lat="49.58536" lon="-1.26861">
        <ele>1.9</ele>
        <time>2020-06-15T11:09:40Z</time>
      </trkpt>
      <trkpt lat="49.58537" lon="-1.26866">
        <ele>1.9</ele>
        <time>2020-06-15T11:09:41Z</time>
      </trkpt>
      <trkpt lat="49.58538" lon="-1.26872">
        <ele>1.9</ele>
        <time>2020-06-15T11:09:42Z</time>
      </trkpt>
      <trkpt lat="49.5854" lon="-1.2688">
        <ele>1.9</ele>
        <time>2020-06-15T11:09:43Z</time>
      </trkpt>
      <trkpt lat="49.58541" lon="-1.26889">
        <ele>1.9</ele>
        <time>2020-06-15T11:09:44Z</time>
      </trkpt>
      <trkpt lat="49.58543" lon="-1.26898">
        <ele>1.9</ele>
        <time>2020-06-15T11:09:45Z</time>
      </trkpt>
      <trkpt lat="49.58545" lon="-1.26907">
        <ele>1.9</ele>
        <time>2020-06-15T11:09:46Z</time>
      </trkpt>
      <trkpt lat="49.58547" lon="-1.26917">
        <ele>1.9</ele>
        <time>2020-06-15T11:09:47Z</time>
      </trkpt>
      <trkpt lat="49.58549" lon="-1.26926">
        <ele>1.9</ele>
        <time>2020-06-15T11:09:48Z</time>
      </trkpt>
      <trkpt lat="49.5855" lon="-1.26934">
        <ele>1.9</ele>
        <time>2020-06-15T11:09:49Z</time>
      </trkpt>
      <trkpt lat="49.58552" lon="-1.26942">
        <ele>1.9</ele>
        <time>2020-06-15T11:09:50Z</time>
      </trkpt>
      <trkpt lat="49.58552" lon="-1.26949">
        <ele>1.9</ele>
        <time>2020-06-15T11:09:51Z</time>
      </trkpt>
      <trkpt lat="49.58553" lon="-1.26956">
        <ele>1.9</ele>
        <time>2020-06-15T11:09:52Z</time>
      </trkpt>
      <trkpt lat="49.58554" lon="-1.26963">
        <ele>1.8</ele>
        <time>2020-06-15T11:09:53Z</time>
      </trkpt>
      <trkpt lat="49.58556" lon="-1.26971">
        <ele>1.8</ele>
        <time>2020-06-15T11:09:54Z</time>
      </trkpt>
      <trkpt lat="49.58557" lon="-1.26978">
        <ele>1.8</ele>
        <time>2020-06-15T11:09:55Z</time>
      </trkpt>
      <trkpt lat="49.58558" lon="-1.26985">
        <ele>1.8</ele>
        <time>2020-06-15T11:09:56Z</time>
      </trkpt>
      <trkpt lat="49.58559" lon="-1.26991">
        <ele>1.8</ele>
        <time>2020-06-15T11:09:57Z</time>
      </trkpt>
      <trkpt lat="49.5856" lon="-1.26997">
        <ele>1.8</ele>
        <time>2020-06-15T11:09:58Z</time>
      </trkpt>
      <trkpt lat="49.58562" lon="-1.27003">
        <ele>1.8</ele>
        <time>2020-06-15T11:09:59Z</time>
      </trkpt>
      <trkpt lat="49.58563" lon="-1.2701">
        <ele>1.8</ele>
        <time>2020-06-15T11:10:00Z</time>
      </trkpt>
      <trkpt lat="49.58564" lon="-1.27017">
        <ele>1.8</ele>
        <time>2020-06-15T11:10:01Z</time>
      </trkpt>
      <trkpt lat="49.58566" lon="-1.27022">
        <ele>1.8</ele>
        <time>2020-06-15T11:10:02Z</time>
      </trkpt>
      <trkpt lat="49.58568" lon="-1.27026">
        <ele>1.8</ele>
        <time>2020-06-15T11:10:03Z</time>
      </trkpt>
      <trkpt lat="49.58571" lon="-1.27029">
        <ele>1.8</ele>
        <time>2020-06-15T11:10:04Z</time>
      </trkpt>
      <trkpt lat="49.58574" lon="-1.27029">
        <ele>1.8</ele>
        <time>2020-06-15T11:10:05Z</time>
      </trkpt>
      <trkpt lat="49.58577" lon="-1.27028">
        <ele>1.9</ele>
        <time>2020-06-15T11:10:06Z</time>
      </trkpt>
      <trkpt lat="49.58581" lon="-1.27027">
        <ele>1.9</ele>
        <time>2020-06-15T11:10:07Z</time>
      </trkpt>
      <trkpt lat="49.58585" lon="-1.27027">
        <ele>2</ele>
        <time>2020-06-15T11:10:08Z</time>
      </trkpt>
      <trkpt lat="49.58588" lon="-1.2703">
        <ele>2.1</ele>
        <time>2020-06-15T11:10:09Z</time>
      </trkpt>
      <trkpt lat="49.58592" lon="-1.27033">
        <ele>2.2</ele>
        <time>2020-06-15T11:10:10Z</time>
      </trkpt>
      <trkpt lat="49.58595" lon="-1.27033">
        <ele>2.2</ele>
        <time>2020-06-15T11:10:11Z</time>
      </trkpt>
      <trkpt lat="49.58599" lon="-1.27033">
        <ele>2.3</ele>
        <time>2020-06-15T11:10:12Z</time>
      </trkpt>
      <trkpt lat="49.58603" lon="-1.27031">
        <ele>2.4</ele>
        <time>2020-06-15T11:10:13Z</time>
      </trkpt>
      <trkpt lat="49.58606" lon="-1.27029">
        <ele>2.5</ele>
        <time>2020-06-15T11:10:14Z</time>
      </trkpt>
      <trkpt lat="49.58611" lon="-1.27026">
        <ele>2.6</ele>
        <time>2020-06-15T11:10:15Z</time>
      </trkpt>
      <trkpt lat="49.58615" lon="-1.27025">
        <ele>2.7</ele>
        <time>2020-06-15T11:10:16Z</time>
      </trkpt>
      <trkpt lat="49.5862" lon="-1.27025">
        <ele>2.8</ele>
        <time>2020-06-15T11:10:17Z</time>
      </trkpt>
      <trkpt lat="49.58624" lon="-1.27025">
        <ele>2.9</ele>
        <time>2020-06-15T11:10:18Z</time>
      </trkpt>
      <trkpt lat="49.58627" lon="-1.27023">
        <ele>2.9</ele>
        <time>2020-06-15T11:10:19Z</time>
      </trkpt>
      <trkpt lat="49.5863" lon="-1.27022">
        <ele>3</ele>
        <time>2020-06-15T11:10:20Z</time>
      </trkpt>
      <trkpt lat="49.58634" lon="-1.27021">
        <ele>3</ele>
        <time>2020-06-15T11:10:21Z</time>
      </trkpt>
      <trkpt lat="49.58638" lon="-1.27019">
        <ele>3.1</ele>
        <time>2020-06-15T11:10:22Z</time>
      </trkpt>
      <trkpt lat="49.58642" lon="-1.27017">
        <ele>3.2</ele>
        <time>2020-06-15T11:10:23Z</time>
      </trkpt>
      <trkpt lat="49.58645" lon="-1.27016">
        <ele>3.2</ele>
        <time>2020-06-15T11:10:24Z</time>
      </trkpt>
      <trkpt lat="49.58648" lon="-1.27014">
        <ele>3.3</ele>
        <time>2020-06-15T11:10:25Z</time>
      </trkpt>
      <trkpt lat="49.58651" lon="-1.27012">
        <ele>3.4</ele>
        <time>2020-06-15T11:10:26Z</time>
      </trkpt>
      <trkpt lat="49.58655" lon="-1.27011">
        <ele>3.5</ele>
        <time>2020-06-15T11:10:27Z</time>
      </trkpt>
      <trkpt lat="49.58658" lon="-1.27009">
        <ele>3.5</ele>
        <time>2020-06-15T11:10:28Z</time>
      </trkpt>
      <trkpt lat="49.58661" lon="-1.27007">
        <ele>3.8</ele>
        <time>2020-06-15T11:10:29Z</time>
      </trkpt>
      <trkpt lat="49.58662" lon="-1.27006">
        <ele>3.8</ele>
        <time>2020-06-15T11:10:30Z</time>
      </trkpt>
      <trkpt lat="49.58664" lon="-1.27003">
        <ele>3.8</ele>
        <time>2020-06-15T11:10:31Z</time>
      </trkpt>
      <trkpt lat="49.58664" lon="-1.26998">
        <ele>3.8</ele>
        <time>2020-06-15T11:10:32Z</time>
      </trkpt>
      <trkpt lat="49.58664" lon="-1.26994">
        <ele>3.7</ele>
        <time>2020-06-15T11:10:33Z</time>
      </trkpt>
      <trkpt lat="49.58663" lon="-1.26987">
        <ele>3.7</ele>
        <time>2020-06-15T11:10:34Z</time>
      </trkpt>
      <trkpt lat="49.58661" lon="-1.26979">
        <ele>3.7</ele>
        <time>2020-06-15T11:10:35Z</time>
      </trkpt>
      <trkpt lat="49.5866" lon="-1.26972">
        <ele>3.7</ele>
        <time>2020-06-15T11:10:36Z</time>
      </trkpt>
      <trkpt lat="49.58659" lon="-1.26965">
        <ele>3.6</ele>
        <time>2020-06-15T11:10:37Z</time>
      </trkpt>
      <trkpt lat="49.58659" lon="-1.26958">
        <ele>3.6</ele>
        <time>2020-06-15T11:10:38Z</time>
      </trkpt>
      <trkpt lat="49.58659" lon="-1.26951">
        <ele>3.6</ele>
        <time>2020-06-15T11:10:39Z</time>
      </trkpt>
      <trkpt lat="49.58659" lon="-1.26945">
        <ele>3.6</ele>
        <time>2020-06-15T11:10:40Z</time>
      </trkpt>
      <trkpt lat="49.58658" lon="-1.26939">
        <ele>3.6</ele>
        <time>2020-06-15T11:10:41Z</time>
      </trkpt>
      <trkpt lat="49.58658" lon="-1.26932">
        <ele>3.6</ele>
        <time>2020-06-15T11:10:42Z</time>
      </trkpt>
      <trkpt lat="49.58658" lon="-1.26925">
        <ele>3.6</ele>
        <time>2020-06-15T11:10:43Z</time>
      </trkpt>
      <trkpt lat="49.58658" lon="-1.26919">
        <ele>3.6</ele>
        <time>2020-06-15T11:10:44Z</time>
      </trkpt>
      <trkpt lat="49.58659" lon="-1.26913">
        <ele>3.5</ele>
        <time>2020-06-15T11:10:45Z</time>
      </trkpt>
      <trkpt lat="49.58659" lon="-1.26906">
        <ele>3.5</ele>
        <time>2020-06-15T11:10:46Z</time>
      </trkpt>
      <trkpt lat="49.5866" lon="-1.26899">
        <ele>3.5</ele>
        <time>2020-06-15T11:10:47Z</time>
      </trkpt>
      <trkpt lat="49.5866" lon="-1.26893">
        <ele>3.5</ele>
        <time>2020-06-15T11:10:48Z</time>
      </trkpt>
      <trkpt lat="49.5866" lon="-1.26886">
        <ele>3.5</ele>
        <time>2020-06-15T11:10:49Z</time>
      </trkpt>
      <trkpt lat="49.58659" lon="-1.26878">
        <ele>3.5</ele>
        <time>2020-06-15T11:10:50Z</time>
      </trkpt>
      <trkpt lat="49.58657" lon="-1.26872">
        <ele>3.5</ele>
        <time>2020-06-15T11:10:51Z</time>
      </trkpt>
      <trkpt lat="49.58653" lon="-1.26866">
        <ele>3.6</ele>
        <time>2020-06-15T11:10:52Z</time>
      </trkpt>
      <trkpt lat="49.58651" lon="-1.2686">
        <ele>3.6</ele>
        <time>2020-06-15T11:10:53Z</time>
      </trkpt>
      <trkpt lat="49.5865" lon="-1.26855">
        <ele>3.5</ele>
        <time>2020-06-15T11:10:54Z</time>
      </trkpt>
      <trkpt lat="49.5865" lon="-1.26851">
        <ele>3.5</ele>
        <time>2020-06-15T11:10:55Z</time>
      </trkpt>
      <trkpt lat="49.5865" lon="-1.2685">
        <ele>3.5</ele>
        <time>2020-06-15T11:10:56Z</time>
      </trkpt>
      <trkpt lat="49.58651" lon="-1.2685">
        <ele>3.5</ele>
        <time>2020-06-15T11:10:57Z</time>
      </trkpt>
      <trkpt lat="49.58651" lon="-1.26851">
        <ele>3.5</ele>
        <time>2020-06-15T11:10:58Z</time>
      </trkpt>
      <trkpt lat="49.58651" lon="-1.26853">
        <ele>3.4</ele>
        <time>2020-06-15T11:10:59Z</time>
      </trkpt>
      <trkpt lat="49.58651" lon="-1.26853">
        <ele>3.4</ele>
        <time>2020-06-15T11:11:00Z</time>
      </trkpt>
      <trkpt lat="49.58652" lon="-1.26855">
        <ele>3.4</ele>
        <time>2020-06-15T11:11:01Z</time>
      </trkpt>
      <trkpt lat="49.58653" lon="-1.26856">
        <ele>3.4</ele>
        <time>2020-06-15T11:11:02Z</time>
      </trkpt>
      <trkpt lat="49.58655" lon="-1.26856">
        <ele>3.4</ele>
        <time>2020-06-15T11:11:03Z</time>
      </trkpt>
      <trkpt lat="49.58659" lon="-1.26856">
        <ele>3.3</ele>
        <time>2020-06-15T11:11:04Z</time>
      </trkpt>
      <trkpt lat="49.5866" lon="-1.26855">
        <ele>3.3</ele>
        <time>2020-06-15T11:11:05Z</time>
      </trkpt>
      <trkpt lat="49.58664" lon="-1.26854">
        <ele>3.2</ele>
        <time>2020-06-15T11:11:06Z</time>
      </trkpt>
      <trkpt lat="49.58665" lon="-1.26853">
        <ele>3.2</ele>
        <time>2020-06-15T11:11:07Z</time>
      </trkpt>
      <trkpt lat="49.58668" lon="-1.26851">
        <ele>3.2</ele>
        <time>2020-06-15T11:11:08Z</time>
      </trkpt>
      <trkpt lat="49.58671" lon="-1.2685">
        <ele>3.1</ele>
        <time>2020-06-15T11:11:09Z</time>
      </trkpt>
      <trkpt lat="49.58675" lon="-1.26851">
        <ele>3.1</ele>
        <time>2020-06-15T11:11:10Z</time>
      </trkpt>
      <trkpt lat="49.58676" lon="-1.26852">
        <ele>3</ele>
        <time>2020-06-15T11:11:11Z</time>
      </trkpt>
      <trkpt lat="49.5868" lon="-1.26852">
        <ele>3</ele>
        <time>2020-06-15T11:11:12Z</time>
      </trkpt>
      <trkpt lat="49.58681" lon="-1.26851">
        <ele>3</ele>
        <time>2020-06-15T11:11:13Z</time>
      </trkpt>
      <trkpt lat="49.58685" lon="-1.26848">
        <ele>2.8</ele>
        <time>2020-06-15T11:11:14Z</time>
      </trkpt>
      <trkpt lat="49.58686" lon="-1.26847">
        <ele>2.8</ele>
        <time>2020-06-15T11:11:15Z</time>
      </trkpt>
      <trkpt lat="49.5869" lon="-1.26844">
        <ele>2.8</ele>
        <time>2020-06-15T11:11:16Z</time>
      </trkpt>
      <trkpt lat="49.58693" lon="-1.26842">
        <ele>2.8</ele>
        <time>2020-06-15T11:11:17Z</time>
      </trkpt>
      <trkpt lat="49.58696" lon="-1.26839">
        <ele>2.8</ele>
        <time>2020-06-15T11:11:18Z</time>
      </trkpt>
      <trkpt lat="49.587" lon="-1.26836">
        <ele>2.9</ele>
        <time>2020-06-15T11:11:19Z</time>
      </trkpt>
      <trkpt lat="49.58704" lon="-1.26834">
        <ele>2.9</ele>
        <time>2020-06-15T11:11:20Z</time>
      </trkpt>
      <trkpt lat="49.58707" lon="-1.26832">
        <ele>3</ele>
        <time>2020-06-15T11:11:21Z</time>
      </trkpt>
      <trkpt lat="49.58712" lon="-1.2683">
        <ele>3.1</ele>
        <time>2020-06-15T11:11:22Z</time>
      </trkpt>
      <trkpt lat="49.58716" lon="-1.26827">
        <ele>3.2</ele>
        <time>2020-06-15T11:11:23Z</time>
      </trkpt>
      <trkpt lat="49.5872" lon="-1.26825">
        <ele>3.2</ele>
        <time>2020-06-15T11:11:24Z</time>
      </trkpt>
      <trkpt lat="49.58724" lon="-1.26823">
        <ele>3.3</ele>
        <time>2020-06-15T11:11:25Z</time>
      </trkpt>
      <trkpt lat="49.58727" lon="-1.26821">
        <ele>3.2</ele>
        <time>2020-06-15T11:11:26Z</time>
      </trkpt>
      <trkpt lat="49.5873" lon="-1.26819">
        <ele>3.2</ele>
        <time>2020-06-15T11:11:27Z</time>
      </trkpt>
      <trkpt lat="49.58731" lon="-1.26818">
        <ele>3.1</ele>
        <time>2020-06-15T11:11:28Z</time>
      </trkpt>
      <trkpt lat="49.58733" lon="-1.26816">
        <ele>3.1</ele>
        <time>2020-06-15T11:11:29Z</time>
      </trkpt>
      <trkpt lat="49.58736" lon="-1.26813">
        <ele>3</ele>
        <time>2020-06-15T11:11:30Z</time>
      </trkpt>
      <trkpt lat="49.58737" lon="-1.26812">
        <ele>3</ele>
        <time>2020-06-15T11:11:31Z</time>
      </trkpt>
      <trkpt lat="49.5874" lon="-1.26809">
        <ele>3</ele>
        <time>2020-06-15T11:11:32Z</time>
      </trkpt>
      <trkpt lat="49.58741" lon="-1.26808">
        <ele>3</ele>
        <time>2020-06-15T11:11:33Z</time>
      </trkpt>
      <trkpt lat="49.58743" lon="-1.26806">
        <ele>2.9</ele>
        <time>2020-06-15T11:11:34Z</time>
      </trkpt>
      <trkpt lat="49.58744" lon="-1.26805">
        <ele>2.9</ele>
        <time>2020-06-15T11:11:35Z</time>
      </trkpt>
      <trkpt lat="49.58745" lon="-1.26804">
        <ele>2.9</ele>
        <time>2020-06-15T11:11:36Z</time>
      </trkpt>
      <trkpt lat="49.58748" lon="-1.26805">
        <ele>2.9</ele>
        <time>2020-06-15T11:11:37Z</time>
      </trkpt>
      <trkpt lat="49.5875" lon="-1.26805">
        <ele>3</ele>
        <time>2020-06-15T11:11:38Z</time>
      </trkpt>
      <trkpt lat="49.58751" lon="-1.26804">
        <ele>3</ele>
        <time>2020-06-15T11:11:39Z</time>
      </trkpt>
      <trkpt lat="49.58752" lon="-1.26804">
        <ele>3</ele>
        <time>2020-06-15T11:11:40Z</time>
      </trkpt>
      <trkpt lat="49.58754" lon="-1.26803">
        <ele>3</ele>
        <time>2020-06-15T11:11:41Z</time>
      </trkpt>
      <trkpt lat="49.58755" lon="-1.26803">
        <ele>3</ele>
        <time>2020-06-15T11:11:42Z</time>
      </trkpt>
      <trkpt lat="49.58755" lon="-1.26803">
        <ele>3</ele>
        <time>2020-06-15T11:11:43Z</time>
      </trkpt>
      <trkpt lat="49.58755" lon="-1.26803">
        <ele>3</ele>
        <time>2020-06-15T11:11:44Z</time>
      </trkpt>
      <trkpt lat="49.58754" lon="-1.26803">
        <ele>3</ele>
        <time>2020-06-15T11:11:45Z</time>
      </trkpt>
      <trkpt lat="49.58754" lon="-1.26802">
        <ele>3</ele>
        <time>2020-06-15T11:11:46Z</time>
      </trkpt>
      <trkpt lat="49.58755" lon="-1.26802">
        <ele>3</ele>
        <time>2020-06-15T11:11:47Z</time>
      </trkpt>
      <trkpt lat="49.58756" lon="-1.26801">
        <ele>3</ele>
        <time>2020-06-15T11:11:48Z</time>
      </trkpt>
      <trkpt lat="49.58756" lon="-1.26801">
        <ele>3</ele>
        <time>2020-06-15T11:11:49Z</time>
      </trkpt>
      <trkpt lat="49.58756" lon="-1.26801">
        <ele>3</ele>
        <time>2020-06-15T11:11:50Z</time>
      </trkpt>
      <trkpt lat="49.58757" lon="-1.268">
        <ele>3</ele>
        <time>2020-06-15T11:11:51Z</time>
      </trkpt>
      <trkpt lat="49.58757" lon="-1.268">
        <ele>3</ele>
        <time>2020-06-15T11:11:52Z</time>
      </trkpt>
      <trkpt lat="49.58772" lon="-1.26783">
        <ele>3.2</ele>
        <time>2020-06-15T11:20:15Z</time>
      </trkpt>
      <trkpt lat="49.58772" lon="-1.26781">
        <ele>3.2</ele>
        <time>2020-06-15T11:20:16Z</time>
      </trkpt>
      <trkpt lat="49.58772" lon="-1.26782">
        <ele>3.2</ele>
        <time>2020-06-15T11:20:17Z</time>
      </trkpt>
      <trkpt lat="49.58775" lon="-1.26786">
        <ele>3.2</ele>
        <time>2020-06-15T11:20:18Z</time>
      </trkpt>
      <trkpt lat="49.58775" lon="-1.26785">
        <ele>3.2</ele>
        <time>2020-06-15T11:20:19Z</time>
      </trkpt>
      <trkpt lat="49.58776" lon="-1.26784">
        <ele>3.2</ele>
        <time>2020-06-15T11:20:20Z</time>
      </trkpt>
      <trkpt lat="49.58776" lon="-1.26783">
        <ele>3.2</ele>
        <time>2020-06-15T11:20:21Z</time>
      </trkpt>
      <trkpt lat="49.58776" lon="-1.26783">
        <ele>3.2</ele>
        <time>2020-06-15T11:20:22Z</time>
      </trkpt>
      <trkpt lat="49.58776" lon="-1.26784">
        <ele>3.2</ele>
        <time>2020-06-15T11:20:23Z</time>
      </trkpt>
      <trkpt lat="49.58774" lon="-1.26785">
        <ele>3.2</ele>
        <time>2020-06-15T11:20:24Z</time>
      </trkpt>
      <trkpt lat="49.58773" lon="-1.26785">
        <ele>3.2</ele>
        <time>2020-06-15T11:20:25Z</time>
      </trkpt>
      <trkpt lat="49.58771" lon="-1.26784">
        <ele>3.2</ele>
        <time>2020-06-15T11:20:26Z</time>
      </trkpt>
      <trkpt lat="49.58771" lon="-1.26782">
        <ele>3.2</ele>
        <time>2020-06-15T11:20:27Z</time>
      </trkpt>
      <trkpt lat="49.58771" lon="-1.2678">
        <ele>3.2</ele>
        <time>2020-06-15T11:20:28Z</time>
      </trkpt>
      <trkpt lat="49.58772" lon="-1.26779">
        <ele>3.2</ele>
        <time>2020-06-15T11:20:29Z</time>
      </trkpt>
      <trkpt lat="49.58772" lon="-1.26778">
        <ele>3.2</ele>
        <time>2020-06-15T11:20:30Z</time>
      </trkpt>
      <trkpt lat="49.58772" lon="-1.26776">
        <ele>3.2</ele>
        <time>2020-06-15T11:20:31Z</time>
      </trkpt>
      <trkpt lat="49.58773" lon="-1.26775">
        <ele>3.2</ele>
        <time>2020-06-15T11:20:32Z</time>
      </trkpt>
      <trkpt lat="49.58773" lon="-1.26773">
        <ele>3.2</ele>
        <time>2020-06-15T11:20:33Z</time>
      </trkpt>
      <trkpt lat="49.58727" lon="-1.26723">
        <ele>3.5</ele>
        <time>2020-06-15T11:21:50Z</time>
      </trkpt>
      <trkpt lat="49.58729" lon="-1.2672">
        <ele>3.5</ele>
        <time>2020-06-15T11:21:51Z</time>
      </trkpt>
      <trkpt lat="49.58728" lon="-1.26723">
        <ele>3.5</ele>
        <time>2020-06-15T11:21:52Z</time>
      </trkpt>
      <trkpt lat="49.58728" lon="-1.26722">
        <ele>3.6</ele>
        <time>2020-06-15T11:21:53Z</time>
      </trkpt>
      <trkpt lat="49.58729" lon="-1.26719">
        <ele>3.5</ele>
        <time>2020-06-15T11:21:54Z</time>
      </trkpt>
      <trkpt lat="49.5873" lon="-1.26718">
        <ele>3.5</ele>
        <time>2020-06-15T11:21:55Z</time>
      </trkpt>
      <trkpt lat="49.58732" lon="-1.26718">
        <ele>3.5</ele>
        <time>2020-06-15T11:21:56Z</time>
      </trkpt>
      <trkpt lat="49.58731" lon="-1.26719">
        <ele>3.5</ele>
        <time>2020-06-15T11:21:57Z</time>
      </trkpt>
      <trkpt lat="49.58732" lon="-1.2672">
        <ele>3.5</ele>
        <time>2020-06-15T11:21:58Z</time>
      </trkpt>
      <trkpt lat="49.58733" lon="-1.2672">
        <ele>3.6</ele>
        <time>2020-06-15T11:21:59Z</time>
      </trkpt>
      <trkpt lat="49.58732" lon="-1.26721">
        <ele>3.6</ele>
        <time>2020-06-15T11:22:00Z</time>
      </trkpt>
      <trkpt lat="49.58734" lon="-1.26722">
        <ele>3.6</ele>
        <time>2020-06-15T11:22:01Z</time>
      </trkpt>
      <trkpt lat="49.58734" lon="-1.26722">
        <ele>3.6</ele>
        <time>2020-06-15T11:22:02Z</time>
      </trkpt>
      <trkpt lat="49.58733" lon="-1.26721">
        <ele>3.6</ele>
        <time>2020-06-15T11:22:03Z</time>
      </trkpt>
      <trkpt lat="49.58733" lon="-1.2672">
        <ele>3.6</ele>
        <time>2020-06-15T11:22:04Z</time>
      </trkpt>
      <trkpt lat="49.58735" lon="-1.26722">
        <ele>3.6</ele>
        <time>2020-06-15T11:22:05Z</time>
      </trkpt>
      <trkpt lat="49.58736" lon="-1.26724">
        <ele>3.6</ele>
        <time>2020-06-15T11:22:06Z</time>
      </trkpt>
      <trkpt lat="49.58736" lon="-1.26724">
        <ele>3.6</ele>
        <time>2020-06-15T11:22:07Z</time>
      </trkpt>
      <trkpt lat="49.58735" lon="-1.26724">
        <ele>3.6</ele>
        <time>2020-06-15T11:22:08Z</time>
      </trkpt>
      <trkpt lat="49.58732" lon="-1.26726">
        <ele>3.6</ele>
        <time>2020-06-15T11:22:09Z</time>
      </trkpt>
      <trkpt lat="49.58731" lon="-1.26727">
        <ele>3.6</ele>
        <time>2020-06-15T11:22:10Z</time>
      </trkpt>
      <trkpt lat="49.58729" lon="-1.26727">
        <ele>3.6</ele>
        <time>2020-06-15T11:22:11Z</time>
      </trkpt>
      <trkpt lat="49.58728" lon="-1.26728">
        <ele>3.6</ele>
        <time>2020-06-15T11:22:12Z</time>
      </trkpt>
      <trkpt lat="49.58728" lon="-1.26728">
        <ele>3.6</ele>
        <time>2020-06-15T11:22:13Z</time>
      </trkpt>
      <trkpt lat="49.58727" lon="-1.26729">
        <ele>3.6</ele>
        <time>2020-06-15T11:22:14Z</time>
      </trkpt>
      <trkpt lat="49.58726" lon="-1.26729">
        <ele>3.6</ele>
        <time>2020-06-15T11:22:15Z</time>
      </trkpt>
      <trkpt lat="49.58725" lon="-1.26729">
        <ele>3.6</ele>
        <time>2020-06-15T11:22:16Z</time>
      </trkpt>
      <trkpt lat="49.58724" lon="-1.2673">
        <ele>3.6</ele>
        <time>2020-06-15T11:22:17Z</time>
      </trkpt>
      <trkpt lat="49.58722" lon="-1.26732">
        <ele>3.6</ele>
        <time>2020-06-15T11:22:18Z</time>
      </trkpt>
      <trkpt lat="49.5872" lon="-1.26733">
        <ele>3.6</ele>
        <time>2020-06-15T11:22:19Z</time>
      </trkpt>
      <trkpt lat="49.58719" lon="-1.26734">
        <ele>3.6</ele>
        <time>2020-06-15T11:22:20Z</time>
      </trkpt>
      <trkpt lat="49.58718" lon="-1.26736">
        <ele>3.6</ele>
        <time>2020-06-15T11:22:21Z</time>
      </trkpt>
      <trkpt lat="49.58716" lon="-1.26737">
        <ele>3.6</ele>
        <time>2020-06-15T11:22:22Z</time>
      </trkpt>
      <trkpt lat="49.58715" lon="-1.26738">
        <ele>3.6</ele>
        <time>2020-06-15T11:22:23Z</time>
      </trkpt>
      <trkpt lat="49.58713" lon="-1.26738">
        <ele>3.6</ele>
        <time>2020-06-15T11:22:24Z</time>
      </trkpt>
      <trkpt lat="49.58713" lon="-1.26738">
        <ele>3.6</ele>
        <time>2020-06-15T11:22:25Z</time>
      </trkpt>
      <trkpt lat="49.58713" lon="-1.26739">
        <ele>3.6</ele>
        <time>2020-06-15T11:22:26Z</time>
      </trkpt>
      <trkpt lat="49.58714" lon="-1.26738">
        <ele>3.6</ele>
        <time>2020-06-15T11:22:27Z</time>
      </trkpt>
      <trkpt lat="49.58714" lon="-1.26738">
        <ele>3.6</ele>
        <time>2020-06-15T11:22:28Z</time>
      </trkpt>
      <trkpt lat="49.58716" lon="-1.26734">
        <ele>3.6</ele>
        <time>2020-06-15T11:22:29Z</time>
      </trkpt>
      <trkpt lat="49.58717" lon="-1.26735">
        <ele>3.6</ele>
        <time>2020-06-15T11:22:30Z</time>
      </trkpt>
      <trkpt lat="49.58717" lon="-1.26737">
        <ele>3.6</ele>
        <time>2020-06-15T11:22:31Z</time>
      </trkpt>
      <trkpt lat="49.58717" lon="-1.26738">
        <ele>3.6</ele>
        <time>2020-06-15T11:22:32Z</time>
      </trkpt>
      <trkpt lat="49.58717" lon="-1.2674">
        <ele>3.6</ele>
        <time>2020-06-15T11:22:33Z</time>
      </trkpt>
      <trkpt lat="49.58717" lon="-1.26741">
        <ele>3.6</ele>
        <time>2020-06-15T11:22:34Z</time>
      </trkpt>
      <trkpt lat="49.58718" lon="-1.26742">
        <ele>3.7</ele>
        <time>2020-06-15T11:22:35Z</time>
      </trkpt>
      <trkpt lat="49.58722" lon="-1.26746">
        <ele>3.7</ele>
        <time>2020-06-15T11:22:36Z</time>
      </trkpt>
      <trkpt lat="49.58729" lon="-1.26744">
        <ele>3.7</ele>
        <time>2020-06-15T11:22:37Z</time>
      </trkpt>
      <trkpt lat="49.58733" lon="-1.26743">
        <ele>3.7</ele>
        <time>2020-06-15T11:22:38Z</time>
      </trkpt>
      <trkpt lat="49.58739" lon="-1.26745">
        <ele>3.7</ele>
        <time>2020-06-15T11:22:39Z</time>
      </trkpt>
      <trkpt lat="49.58743" lon="-1.26746">
        <ele>3.7</ele>
        <time>2020-06-15T11:22:40Z</time>
      </trkpt>
      <trkpt lat="49.58745" lon="-1.26747">
        <ele>3.7</ele>
        <time>2020-06-15T11:22:41Z</time>
      </trkpt>
      <trkpt lat="49.58745" lon="-1.26747">
        <ele>3.7</ele>
        <time>2020-06-15T11:22:42Z</time>
      </trkpt>
      <trkpt lat="49.58747" lon="-1.26746">
        <ele>3.7</ele>
        <time>2020-06-15T11:22:43Z</time>
      </trkpt>
      <trkpt lat="49.58749" lon="-1.26747">
        <ele>3.7</ele>
        <time>2020-06-15T11:22:44Z</time>
      </trkpt>
      <trkpt lat="49.58752" lon="-1.26749">
        <ele>3.6</ele>
        <time>2020-06-15T11:22:45Z</time>
      </trkpt>
      <trkpt lat="49.58753" lon="-1.26749">
        <ele>3.6</ele>
        <time>2020-06-15T11:22:46Z</time>
      </trkpt>
      <trkpt lat="49.58754" lon="-1.2675">
        <ele>3.6</ele>
        <time>2020-06-15T11:22:47Z</time>
      </trkpt>
      <trkpt lat="49.58755" lon="-1.26751">
        <ele>3.6</ele>
        <time>2020-06-15T11:22:48Z</time>
      </trkpt>
      <trkpt lat="49.58755" lon="-1.26752">
        <ele>3.6</ele>
        <time>2020-06-15T11:22:49Z</time>
      </trkpt>
      <trkpt lat="49.58755" lon="-1.26753">
        <ele>3.6</ele>
        <time>2020-06-15T11:22:50Z</time>
      </trkpt>
      <trkpt lat="49.58755" lon="-1.26753">
        <ele>3.6</ele>
        <time>2020-06-15T11:22:51Z</time>
      </trkpt>
      <trkpt lat="49.58756" lon="-1.26754">
        <ele>3.6</ele>
        <time>2020-06-15T11:22:52Z</time>
      </trkpt>
      <trkpt lat="49.58758" lon="-1.26753">
        <ele>3.6</ele>
        <time>2020-06-15T11:22:53Z</time>
      </trkpt>
      <trkpt lat="49.58759" lon="-1.26752">
        <ele>3.6</ele>
        <time>2020-06-15T11:22:54Z</time>
      </trkpt>
      <trkpt lat="49.5876" lon="-1.26751">
        <ele>3.6</ele>
        <time>2020-06-15T11:22:55Z</time>
      </trkpt>
      <trkpt lat="49.58761" lon="-1.2675">
        <ele>3.6</ele>
        <time>2020-06-15T11:22:56Z</time>
      </trkpt>
      <trkpt lat="49.58761" lon="-1.2675">
        <ele>3.6</ele>
        <time>2020-06-15T11:22:57Z</time>
      </trkpt>
      <trkpt lat="49.58762" lon="-1.26749">
        <ele>3.6</ele>
        <time>2020-06-15T11:22:58Z</time>
      </trkpt>
      <trkpt lat="49.58762" lon="-1.26749">
        <ele>3.6</ele>
        <time>2020-06-15T11:22:59Z</time>
      </trkpt>
      <trkpt lat="49.58762" lon="-1.26749">
        <ele>3.6</ele>
        <time>2020-06-15T11:23:00Z</time>
      </trkpt>
      <trkpt lat="49.58762" lon="-1.26748">
        <ele>3.6</ele>
        <time>2020-06-15T11:23:01Z</time>
      </trkpt>
      <trkpt lat="49.58763" lon="-1.26748">
        <ele>3.6</ele>
        <time>2020-06-15T11:23:02Z</time>
      </trkpt>
      <trkpt lat="49.58764" lon="-1.26747">
        <ele>3.6</ele>
        <time>2020-06-15T11:23:03Z</time>
      </trkpt>
      <trkpt lat="49.58765" lon="-1.26747">
        <ele>3.6</ele>
        <time>2020-06-15T11:23:04Z</time>
      </trkpt>
      <trkpt lat="49.58769" lon="-1.26747">
        <ele>3.6</ele>
        <time>2020-06-15T11:23:05Z</time>
      </trkpt>
      <trkpt lat="49.5877" lon="-1.26746">
        <ele>3.6</ele>
        <time>2020-06-15T11:23:06Z</time>
      </trkpt>
      <trkpt lat="49.58774" lon="-1.26744">
        <ele>3.5</ele>
        <time>2020-06-15T11:23:07Z</time>
      </trkpt>
      <trkpt lat="49.58778" lon="-1.26743">
        <ele>3.5</ele>
        <time>2020-06-15T11:23:08Z</time>
      </trkpt>
      <trkpt lat="49.58782" lon="-1.26741">
        <ele>3.4</ele>
        <time>2020-06-15T11:23:09Z</time>
      </trkpt>
      <trkpt lat="49.58786" lon="-1.2674">
        <ele>3.4</ele>
        <time>2020-06-15T11:23:10Z</time>
      </trkpt>
      <trkpt lat="49.58789" lon="-1.26739">
        <ele>3.4</ele>
        <time>2020-06-15T11:23:11Z</time>
      </trkpt>
      <trkpt lat="49.58792" lon="-1.26738">
        <ele>3.4</ele>
        <time>2020-06-15T11:23:12Z</time>
      </trkpt>
      <trkpt lat="49.58794" lon="-1.26738">
        <ele>3.4</ele>
        <time>2020-06-15T11:23:13Z</time>
      </trkpt>
      <trkpt lat="49.58796" lon="-1.26738">
        <ele>3.4</ele>
        <time>2020-06-15T11:23:14Z</time>
      </trkpt>
      <trkpt lat="49.58798" lon="-1.26738">
        <ele>3.3</ele>
        <time>2020-06-15T11:23:15Z</time>
      </trkpt>
      <trkpt lat="49.58798" lon="-1.26737">
        <ele>3.3</ele>
        <time>2020-06-15T11:23:16Z</time>
      </trkpt>
      <trkpt lat="49.58799" lon="-1.26736">
        <ele>3.3</ele>
        <time>2020-06-15T11:23:17Z</time>
      </trkpt>
      <trkpt lat="49.588" lon="-1.26734">
        <ele>3.3</ele>
        <time>2020-06-15T11:23:18Z</time>
      </trkpt>
      <trkpt lat="49.58801" lon="-1.26733">
        <ele>3.4</ele>
        <time>2020-06-15T11:23:19Z</time>
      </trkpt>
      <trkpt lat="49.58804" lon="-1.26732">
        <ele>3.4</ele>
        <time>2020-06-15T11:23:20Z</time>
      </trkpt>
      <trkpt lat="49.58806" lon="-1.26732">
        <ele>3.3</ele>
        <time>2020-06-15T11:23:21Z</time>
      </trkpt>
      <trkpt lat="49.5881" lon="-1.2673">
        <ele>3.3</ele>
        <time>2020-06-15T11:23:22Z</time>
      </trkpt>
      <trkpt lat="49.58812" lon="-1.26727">
        <ele>3.2</ele>
        <time>2020-06-15T11:23:23Z</time>
      </trkpt>
      <trkpt lat="49.58816" lon="-1.26725">
        <ele>3.2</ele>
        <time>2020-06-15T11:23:24Z</time>
      </trkpt>
      <trkpt lat="49.58819" lon="-1.26723">
        <ele>3.1</ele>
        <time>2020-06-15T11:23:25Z</time>
      </trkpt>
      <trkpt lat="49.58822" lon="-1.26721">
        <ele>3.1</ele>
        <time>2020-06-15T11:23:26Z</time>
      </trkpt>
      <trkpt lat="49.58826" lon="-1.26718">
        <ele>3</ele>
        <time>2020-06-15T11:23:27Z</time>
      </trkpt>
      <trkpt lat="49.5883" lon="-1.26714">
        <ele>3</ele>
        <time>2020-06-15T11:23:28Z</time>
      </trkpt>
      <trkpt lat="49.58833" lon="-1.2671">
        <ele>2.9</ele>
        <time>2020-06-15T11:23:29Z</time>
      </trkpt>
      <trkpt lat="49.58836" lon="-1.26706">
        <ele>2.9</ele>
        <time>2020-06-15T11:23:30Z</time>
      </trkpt>
      <trkpt lat="49.5884" lon="-1.26703">
        <ele>2.8</ele>
        <time>2020-06-15T11:23:31Z</time>
      </trkpt>
      <trkpt lat="49.58844" lon="-1.26699">
        <ele>2.8</ele>
        <time>2020-06-15T11:23:32Z</time>
      </trkpt>
      <trkpt lat="49.58848" lon="-1.26696">
        <ele>2.7</ele>
        <time>2020-06-15T11:23:33Z</time>
      </trkpt>
      <trkpt lat="49.58851" lon="-1.26694">
        <ele>2.7</ele>
        <time>2020-06-15T11:23:34Z</time>
      </trkpt>
      <trkpt lat="49.58855" lon="-1.26691">
        <ele>2.7</ele>
        <time>2020-06-15T11:23:35Z</time>
      </trkpt>
      <trkpt lat="49.58859" lon="-1.26689">
        <ele>2.7</ele>
        <time>2020-06-15T11:23:36Z</time>
      </trkpt>
      <trkpt lat="49.58864" lon="-1.26685">
        <ele>2.7</ele>
        <time>2020-06-15T11:23:37Z</time>
      </trkpt>
      <trkpt lat="49.58869" lon="-1.26683">
        <ele>2.7</ele>
        <time>2020-06-15T11:23:38Z</time>
      </trkpt>
      <trkpt lat="49.58873" lon="-1.26681">
        <ele>2.7</ele>
        <time>2020-06-15T11:23:39Z</time>
      </trkpt>
      <trkpt lat="49.58877" lon="-1.26678">
        <ele>2.7</ele>
        <time>2020-06-15T11:23:40Z</time>
      </trkpt>
      <trkpt lat="49.58881" lon="-1.26676">
        <ele>2.7</ele>
        <time>2020-06-15T11:23:41Z</time>
      </trkpt>
      <trkpt lat="49.58885" lon="-1.26674">
        <ele>2.7</ele>
        <time>2020-06-15T11:23:42Z</time>
      </trkpt>
      <trkpt lat="49.5889" lon="-1.26672">
        <ele>2.7</ele>
        <time>2020-06-15T11:23:43Z</time>
      </trkpt>
      <trkpt lat="49.58895" lon="-1.2667">
        <ele>2.7</ele>
        <time>2020-06-15T11:23:44Z</time>
      </trkpt>
      <trkpt lat="49.589" lon="-1.26666">
        <ele>2.7</ele>
        <time>2020-06-15T11:23:45Z</time>
      </trkpt>
      <trkpt lat="49.58905" lon="-1.26664">
        <ele>2.7</ele>
        <time>2020-06-15T11:23:46Z</time>
      </trkpt>
      <trkpt lat="49.58908" lon="-1.26662">
        <ele>2.6</ele>
        <time>2020-06-15T11:23:47Z</time>
      </trkpt>
      <trkpt lat="49.58912" lon="-1.26661">
        <ele>2.6</ele>
        <time>2020-06-15T11:23:48Z</time>
      </trkpt>
      <trkpt lat="49.58917" lon="-1.26661">
        <ele>2.6</ele>
        <time>2020-06-15T11:23:49Z</time>
      </trkpt>
      <trkpt lat="49.58921" lon="-1.26661">
        <ele>2.7</ele>
        <time>2020-06-15T11:23:50Z</time>
      </trkpt>
      <trkpt lat="49.58926" lon="-1.26661">
        <ele>2.7</ele>
        <time>2020-06-15T11:23:51Z</time>
      </trkpt>
      <trkpt lat="49.58932" lon="-1.26661">
        <ele>2.8</ele>
        <time>2020-06-15T11:23:52Z</time>
      </trkpt>
      <trkpt lat="49.58937" lon="-1.26661">
        <ele>2.9</ele>
        <time>2020-06-15T11:23:53Z</time>
      </trkpt>
      <trkpt lat="49.58942" lon="-1.2666">
        <ele>3</ele>
        <time>2020-06-15T11:23:54Z</time>
      </trkpt>
      <trkpt lat="49.58946" lon="-1.2666">
        <ele>3.1</ele>
        <time>2020-06-15T11:23:55Z</time>
      </trkpt>
      <trkpt lat="49.58951" lon="-1.26661">
        <ele>3.2</ele>
        <time>2020-06-15T11:23:56Z</time>
      </trkpt>
      <trkpt lat="49.58956" lon="-1.26661">
        <ele>3.3</ele>
        <time>2020-06-15T11:23:57Z</time>
      </trkpt>
      <trkpt lat="49.58961" lon="-1.2666">
        <ele>3.3</ele>
        <time>2020-06-15T11:23:58Z</time>
      </trkpt>
      <trkpt lat="49.58965" lon="-1.26658">
        <ele>3.4</ele>
        <time>2020-06-15T11:23:59Z</time>
      </trkpt>
      <trkpt lat="49.58969" lon="-1.26656">
        <ele>3.4</ele>
        <time>2020-06-15T11:24:00Z</time>
      </trkpt>
      <trkpt lat="49.5897" lon="-1.26651">
        <ele>3.4</ele>
        <time>2020-06-15T11:24:01Z</time>
      </trkpt>
      <trkpt lat="49.5897" lon="-1.26649">
        <ele>3.4</ele>
        <time>2020-06-15T11:24:02Z</time>
      </trkpt>
      <trkpt lat="49.58968" lon="-1.26644">
        <ele>3.4</ele>
        <time>2020-06-15T11:24:03Z</time>
      </trkpt>
      <trkpt lat="49.58967" lon="-1.26642">
        <ele>3.3</ele>
        <time>2020-06-15T11:24:04Z</time>
      </trkpt>
      <trkpt lat="49.58965" lon="-1.26637">
        <ele>3.1</ele>
        <time>2020-06-15T11:24:05Z</time>
      </trkpt>
      <trkpt lat="49.58964" lon="-1.26631">
        <ele>3</ele>
        <time>2020-06-15T11:24:06Z</time>
      </trkpt>
      <trkpt lat="49.58963" lon="-1.26626">
        <ele>2.8</ele>
        <time>2020-06-15T11:24:07Z</time>
      </trkpt>
      <trkpt lat="49.58962" lon="-1.26621">
        <ele>2.7</ele>
        <time>2020-06-15T11:24:08Z</time>
      </trkpt>
      <trkpt lat="49.58962" lon="-1.26615">
        <ele>2.5</ele>
        <time>2020-06-15T11:24:09Z</time>
      </trkpt>
      <trkpt lat="49.58962" lon="-1.26613">
        <ele>2.4</ele>
        <time>2020-06-15T11:24:10Z</time>
      </trkpt>
      <trkpt lat="49.58963" lon="-1.26609">
        <ele>2.3</ele>
        <time>2020-06-15T11:24:11Z</time>
      </trkpt>
      <trkpt lat="49.58965" lon="-1.26604">
        <ele>2.3</ele>
        <time>2020-06-15T11:24:12Z</time>
      </trkpt>
      <trkpt lat="49.58966" lon="-1.26599">
        <ele>2.3</ele>
        <time>2020-06-15T11:24:13Z</time>
      </trkpt>
      <trkpt lat="49.58968" lon="-1.26594">
        <ele>2.3</ele>
        <time>2020-06-15T11:24:14Z</time>
      </trkpt>
      <trkpt lat="49.5897" lon="-1.26591">
        <ele>2.3</ele>
        <time>2020-06-15T11:24:15Z</time>
      </trkpt>
      <trkpt lat="49.58972" lon="-1.26588">
        <ele>2.3</ele>
        <time>2020-06-15T11:24:16Z</time>
      </trkpt>
      <trkpt lat="49.58975" lon="-1.26585">
        <ele>2.3</ele>
        <time>2020-06-15T11:24:17Z</time>
      </trkpt>
      <trkpt lat="49.58979" lon="-1.26584">
        <ele>2.3</ele>
        <time>2020-06-15T11:24:18Z</time>
      </trkpt>
      <trkpt lat="49.58983" lon="-1.26585">
        <ele>2.3</ele>
        <time>2020-06-15T11:24:19Z</time>
      </trkpt>
      <trkpt lat="49.58987" lon="-1.26587">
        <ele>2.3</ele>
        <time>2020-06-15T11:24:20Z</time>
      </trkpt>
      <trkpt lat="49.58991" lon="-1.26589">
        <ele>2.3</ele>
        <time>2020-06-15T11:24:21Z</time>
      </trkpt>
      <trkpt lat="49.58995" lon="-1.26592">
        <ele>2.3</ele>
        <time>2020-06-15T11:24:22Z</time>
      </trkpt>
      <trkpt lat="49.58999" lon="-1.26596">
        <ele>2.3</ele>
        <time>2020-06-15T11:24:23Z</time>
      </trkpt>
      <trkpt lat="49.59003" lon="-1.26599">
        <ele>2.3</ele>
        <time>2020-06-15T11:24:24Z</time>
      </trkpt>
      <trkpt lat="49.59006" lon="-1.26601">
        <ele>2.3</ele>
        <time>2020-06-15T11:24:25Z</time>
      </trkpt>
      <trkpt lat="49.5901" lon="-1.26602">
        <ele>2.3</ele>
        <time>2020-06-15T11:24:26Z</time>
      </trkpt>
      <trkpt lat="49.59014" lon="-1.26603">
        <ele>2.3</ele>
        <time>2020-06-15T11:24:27Z</time>
      </trkpt>
      <trkpt lat="49.59018" lon="-1.26602">
        <ele>2.4</ele>
        <time>2020-06-15T11:24:28Z</time>
      </trkpt>
      <trkpt lat="49.59021" lon="-1.26601">
        <ele>2.4</ele>
        <time>2020-06-15T11:24:29Z</time>
      </trkpt>
      <trkpt lat="49.59024" lon="-1.26599">
        <ele>2.3</ele>
        <time>2020-06-15T11:24:30Z</time>
      </trkpt>
      <trkpt lat="49.59027" lon="-1.26596">
        <ele>2.3</ele>
        <time>2020-06-15T11:24:31Z</time>
      </trkpt>
      <trkpt lat="49.59029" lon="-1.26594">
        <ele>2.3</ele>
        <time>2020-06-15T11:24:32Z</time>
      </trkpt>
      <trkpt lat="49.59032" lon="-1.26592">
        <ele>2.3</ele>
        <time>2020-06-15T11:24:33Z</time>
      </trkpt>
      <trkpt lat="49.59035" lon="-1.2659">
        <ele>2.3</ele>
        <time>2020-06-15T11:24:34Z</time>
      </trkpt>
      <trkpt lat="49.59038" lon="-1.26588">
        <ele>2.3</ele>
        <time>2020-06-15T11:24:35Z</time>
      </trkpt>
      <trkpt lat="49.5904" lon="-1.26585">
        <ele>2.3</ele>
        <time>2020-06-15T11:24:36Z</time>
      </trkpt>
      <trkpt lat="49.59041" lon="-1.2658">
        <ele>2.2</ele>
        <time>2020-06-15T11:24:37Z</time>
      </trkpt>
      <trkpt lat="49.59042" lon="-1.26575">
        <ele>2.2</ele>
        <time>2020-06-15T11:24:38Z</time>
      </trkpt>
      <trkpt lat="49.59043" lon="-1.26569">
        <ele>2.2</ele>
        <time>2020-06-15T11:24:39Z</time>
      </trkpt>
      <trkpt lat="49.59044" lon="-1.26563">
        <ele>2.1</ele>
        <time>2020-06-15T11:24:40Z</time>
      </trkpt>
      <trkpt lat="49.59044" lon="-1.26555">
        <ele>2.1</ele>
        <time>2020-06-15T11:24:41Z</time>
      </trkpt>
      <trkpt lat="49.59044" lon="-1.26548">
        <ele>2</ele>
        <time>2020-06-15T11:24:42Z</time>
      </trkpt>
      <trkpt lat="49.59043" lon="-1.26541">
        <ele>2</ele>
        <time>2020-06-15T11:24:43Z</time>
      </trkpt>
      <trkpt lat="49.59043" lon="-1.26534">
        <ele>1.9</ele>
        <time>2020-06-15T11:24:44Z</time>
      </trkpt>
      <trkpt lat="49.59043" lon="-1.26527">
        <ele>1.9</ele>
        <time>2020-06-15T11:24:45Z</time>
      </trkpt>
      <trkpt lat="49.59044" lon="-1.26518">
        <ele>1.9</ele>
        <time>2020-06-15T11:24:46Z</time>
      </trkpt>
      <trkpt lat="49.59043" lon="-1.26511">
        <ele>1.9</ele>
        <time>2020-06-15T11:24:47Z</time>
      </trkpt>
      <trkpt lat="49.59043" lon="-1.26503">
        <ele>1.9</ele>
        <time>2020-06-15T11:24:48Z</time>
      </trkpt>
      <trkpt lat="49.59042" lon="-1.26496">
        <ele>1.9</ele>
        <time>2020-06-15T11:24:49Z</time>
      </trkpt>
      <trkpt lat="49.5904" lon="-1.26491">
        <ele>1.9</ele>
        <time>2020-06-15T11:24:50Z</time>
      </trkpt>
      <trkpt lat="49.59038" lon="-1.26485">
        <ele>1.9</ele>
        <time>2020-06-15T11:24:51Z</time>
      </trkpt>
      <trkpt lat="49.59037" lon="-1.26478">
        <ele>1.9</ele>
        <time>2020-06-15T11:24:52Z</time>
      </trkpt>
      <trkpt lat="49.59036" lon="-1.26469">
        <ele>1.9</ele>
        <time>2020-06-15T11:24:53Z</time>
      </trkpt>
      <trkpt lat="49.59034" lon="-1.2646">
        <ele>1.9</ele>
        <time>2020-06-15T11:24:54Z</time>
      </trkpt>
      <trkpt lat="49.59032" lon="-1.26452">
        <ele>1.9</ele>
        <time>2020-06-15T11:24:55Z</time>
      </trkpt>
      <trkpt lat="49.59031" lon="-1.26443">
        <ele>1.8</ele>
        <time>2020-06-15T11:24:56Z</time>
      </trkpt>
      <trkpt lat="49.59029" lon="-1.26434">
        <ele>1.8</ele>
        <time>2020-06-15T11:24:57Z</time>
      </trkpt>
      <trkpt lat="49.59028" lon="-1.26427">
        <ele>1.8</ele>
        <time>2020-06-15T11:24:58Z</time>
      </trkpt>
      <trkpt lat="49.59026" lon="-1.26419">
        <ele>1.7</ele>
        <time>2020-06-15T11:24:59Z</time>
      </trkpt>
      <trkpt lat="49.59023" lon="-1.26409">
        <ele>1.7</ele>
        <time>2020-06-15T11:25:00Z</time>
      </trkpt>
      <trkpt lat="49.59022" lon="-1.26402">
        <ele>1.6</ele>
        <time>2020-06-15T11:25:01Z</time>
      </trkpt>
      <trkpt lat="49.5902" lon="-1.26394">
        <ele>1.6</ele>
        <time>2020-06-15T11:25:02Z</time>
      </trkpt>
      <trkpt lat="49.59018" lon="-1.26387">
        <ele>1.5</ele>
        <time>2020-06-15T11:25:03Z</time>
      </trkpt>
      <trkpt lat="49.59017" lon="-1.26379">
        <ele>1.5</ele>
        <time>2020-06-15T11:25:04Z</time>
      </trkpt>
      <trkpt lat="49.59015" lon="-1.26372">
        <ele>1.4</ele>
        <time>2020-06-15T11:25:05Z</time>
      </trkpt>
      <trkpt lat="49.59013" lon="-1.26364">
        <ele>1.4</ele>
        <time>2020-06-15T11:25:06Z</time>
      </trkpt>
      <trkpt lat="49.59012" lon="-1.26357">
        <ele>1.4</ele>
        <time>2020-06-15T11:25:07Z</time>
      </trkpt>
      <trkpt lat="49.5901" lon="-1.2635">
        <ele>1.3</ele>
        <time>2020-06-15T11:25:08Z</time>
      </trkpt>
      <trkpt lat="49.59009" lon="-1.26343">
        <ele>1.3</ele>
        <time>2020-06-15T11:25:09Z</time>
      </trkpt>
      <trkpt lat="49.59007" lon="-1.26336">
        <ele>1.3</ele>
        <time>2020-06-15T11:25:10Z</time>
      </trkpt>
      <trkpt lat="49.59005" lon="-1.2633">
        <ele>1.2</ele>
        <time>2020-06-15T11:25:11Z</time>
      </trkpt>
      <trkpt lat="49.59002" lon="-1.26323">
        <ele>1.2</ele>
        <time>2020-06-15T11:25:12Z</time>
      </trkpt>
      <trkpt lat="49.58999" lon="-1.26317">
        <ele>1.2</ele>
        <time>2020-06-15T11:25:13Z</time>
      </trkpt>
      <trkpt lat="49.58996" lon="-1.26312">
        <ele>1.2</ele>
        <time>2020-06-15T11:25:14Z</time>
      </trkpt>
      <trkpt lat="49.58992" lon="-1.26307">
        <ele>1.1</ele>
        <time>2020-06-15T11:25:15Z</time>
      </trkpt>
      <trkpt lat="49.58989" lon="-1.26302">
        <ele>1.1</ele>
        <time>2020-06-15T11:25:16Z</time>
      </trkpt>
      <trkpt lat="49.58985" lon="-1.26299">
        <ele>1.1</ele>
        <time>2020-06-15T11:25:17Z</time>
      </trkpt>
      <trkpt lat="49.58981" lon="-1.26296">
        <ele>1.1</ele>
        <time>2020-06-15T11:25:18Z</time>
      </trkpt>
      <trkpt lat="49.58976" lon="-1.26293">
        <ele>1.1</ele>
        <time>2020-06-15T11:25:19Z</time>
      </trkpt>
      <trkpt lat="49.58972" lon="-1.26292">
        <ele>1</ele>
        <time>2020-06-15T11:25:20Z</time>
      </trkpt>
      <trkpt lat="49.58967" lon="-1.26289">
        <ele>1</ele>
        <time>2020-06-15T11:25:21Z</time>
      </trkpt>
      <trkpt lat="49.58962" lon="-1.26286">
        <ele>0.9</ele>
        <time>2020-06-15T11:25:22Z</time>
      </trkpt>
      <trkpt lat="49.58957" lon="-1.26283">
        <ele>0.9</ele>
        <time>2020-06-15T11:25:23Z</time>
      </trkpt>
      <trkpt lat="49.58952" lon="-1.26279">
        <ele>0.9</ele>
        <time>2020-06-15T11:25:24Z</time>
      </trkpt>
      <trkpt lat="49.58948" lon="-1.26277">
        <ele>0.8</ele>
        <time>2020-06-15T11:25:25Z</time>
      </trkpt>
      <trkpt lat="49.58943" lon="-1.26275">
        <ele>0.8</ele>
        <time>2020-06-15T11:25:26Z</time>
      </trkpt>
      <trkpt lat="49.58938" lon="-1.26272">
        <ele>0.8</ele>
        <time>2020-06-15T11:25:27Z</time>
      </trkpt>
      <trkpt lat="49.58934" lon="-1.2627">
        <ele>0.7</ele>
        <time>2020-06-15T11:25:28Z</time>
      </trkpt>
      <trkpt lat="49.5893" lon="-1.26267">
        <ele>0.7</ele>
        <time>2020-06-15T11:25:29Z</time>
      </trkpt>
      <trkpt lat="49.58926" lon="-1.26264">
        <ele>0.7</ele>
        <time>2020-06-15T11:25:30Z</time>
      </trkpt>
      <trkpt lat="49.58922" lon="-1.26261">
        <ele>0.7</ele>
        <time>2020-06-15T11:25:31Z</time>
      </trkpt>
      <trkpt lat="49.58918" lon="-1.26258">
        <ele>0.6</ele>
        <time>2020-06-15T11:25:32Z</time>
      </trkpt>
      <trkpt lat="49.58914" lon="-1.26256">
        <ele>0.6</ele>
        <time>2020-06-15T11:25:33Z</time>
      </trkpt>
      <trkpt lat="49.5891" lon="-1.26254">
        <ele>0.6</ele>
        <time>2020-06-15T11:25:34Z</time>
      </trkpt>
      <trkpt lat="49.58906" lon="-1.26252">
        <ele>0.6</ele>
        <time>2020-06-15T11:25:35Z</time>
      </trkpt>
      <trkpt lat="49.58902" lon="-1.2625">
        <ele>0.5</ele>
        <time>2020-06-15T11:25:36Z</time>
      </trkpt>
      <trkpt lat="49.58898" lon="-1.26251">
        <ele>0.5</ele>
        <time>2020-06-15T11:25:37Z</time>
      </trkpt>
      <trkpt lat="49.58894" lon="-1.26251">
        <ele>0.5</ele>
        <time>2020-06-15T11:25:38Z</time>
      </trkpt>
      <trkpt lat="49.5889" lon="-1.26251">
        <ele>0.5</ele>
        <time>2020-06-15T11:25:39Z</time>
      </trkpt>
      <trkpt lat="49.58885" lon="-1.26251">
        <ele>0.4</ele>
        <time>2020-06-15T11:25:40Z</time>
      </trkpt>
      <trkpt lat="49.5888" lon="-1.2625">
        <ele>0.4</ele>
        <time>2020-06-15T11:25:41Z</time>
      </trkpt>
      <trkpt lat="49.58875" lon="-1.26247">
        <ele>0.3</ele>
        <time>2020-06-15T11:25:42Z</time>
      </trkpt>
      <trkpt lat="49.5887" lon="-1.26243">
        <ele>0.2</ele>
        <time>2020-06-15T11:25:43Z</time>
      </trkpt>
      <trkpt lat="49.58866" lon="-1.26238">
        <ele>0.2</ele>
        <time>2020-06-15T11:25:44Z</time>
      </trkpt>
      <trkpt lat="49.58862" lon="-1.26232">
        <ele>0.1</ele>
        <time>2020-06-15T11:25:45Z</time>
      </trkpt>
      <trkpt lat="49.58858" lon="-1.26226">
        <ele>0.1</ele>
        <time>2020-06-15T11:25:46Z</time>
      </trkpt>
      <trkpt lat="49.58855" lon="-1.26221">
        <ele>5</ele>
        <time>2020-06-15T11:25:47Z</time>
      </trkpt>
      <trkpt lat="49.58853" lon="-1.26217">
        <ele>-0.1</ele>
        <time>2020-06-15T11:25:48Z</time>
      </trkpt>
      <trkpt lat="49.5885" lon="-1.26212">
        <ele>-0.1</ele>
        <time>2020-06-15T11:25:49Z</time>
      </trkpt>
      <trkpt lat="49.58846" lon="-1.26209">
        <ele>-0.1</ele>
        <time>2020-06-15T11:25:50Z</time>
      </trkpt>
      <trkpt lat="49.58843" lon="-1.26207">
        <ele>-0.1</ele>
        <time>2020-06-15T11:25:51Z</time>
      </trkpt>
      <trkpt lat="49.5884" lon="-1.26207">
        <ele>-0.1</ele>
        <time>2020-06-15T11:25:52Z</time>
      </trkpt>
      <trkpt lat="49.58837" lon="-1.26207">
        <ele>-0.1</ele>
        <time>2020-06-15T11:25:53Z</time>
      </trkpt>
      <trkpt lat="49.58832" lon="-1.26208">
        <ele>-0.1</ele>
        <time>2020-06-15T11:25:54Z</time>
      </trkpt>
      <trkpt lat="49.58828" lon="-1.2621">
        <ele>4.9</ele>
        <time>2020-06-15T11:25:55Z</time>
      </trkpt>
      <trkpt lat="49.58824" lon="-1.26213">
        <ele>4.9</ele>
        <time>2020-06-15T11:25:56Z</time>
      </trkpt>
      <trkpt lat="49.5882" lon="-1.26216">
        <ele>4.9</ele>
        <time>2020-06-15T11:25:57Z</time>
      </trkpt>
      <trkpt lat="49.58816" lon="-1.2622">
        <ele>5</ele>
        <time>2020-06-15T11:25:58Z</time>
      </trkpt>
      <trkpt lat="49.58812" lon="-1.26225">
        <ele>4.9</ele>
        <time>2020-06-15T11:25:59Z</time>
      </trkpt>
      <trkpt lat="49.58809" lon="-1.26229">
        <ele>4.9</ele>
        <time>2020-06-15T11:26:00Z</time>
      </trkpt>
      <trkpt lat="49.58806" lon="-1.26235">
        <ele>5</ele>
        <time>2020-06-15T11:26:01Z</time>
      </trkpt>
      <trkpt lat="49.58802" lon="-1.2624">
        <ele>-0.1</ele>
        <time>2020-06-15T11:26:02Z</time>
      </trkpt>
      <trkpt lat="49.588" lon="-1.26246">
        <ele>-0.1</ele>
        <time>2020-06-15T11:26:03Z</time>
      </trkpt>
      <trkpt lat="49.58799" lon="-1.26253">
        <ele>-0.1</ele>
        <time>2020-06-15T11:26:04Z</time>
      </trkpt>
      <trkpt lat="49.58795" lon="-1.2626">
        <ele>-0.1</ele>
        <time>2020-06-15T11:26:05Z</time>
      </trkpt>
      <trkpt lat="49.58792" lon="-1.26266">
        <ele>-0.1</ele>
        <time>2020-06-15T11:26:06Z</time>
      </trkpt>
      <trkpt lat="49.58788" lon="-1.26271">
        <ele>-0.1</ele>
        <time>2020-06-15T11:26:07Z</time>
      </trkpt>
      <trkpt lat="49.58785" lon="-1.26275">
        <ele>-0.1</ele>
        <time>2020-06-15T11:26:08Z</time>
      </trkpt>
      <trkpt lat="49.5878" lon="-1.26276">
        <ele>4.7</ele>
        <time>2020-06-15T11:26:09Z</time>
      </trkpt>
      <trkpt lat="49.58775" lon="-1.26275">
        <ele>5</ele>
        <time>2020-06-15T11:26:10Z</time>
      </trkpt>
      <trkpt lat="49.58769" lon="-1.26275">
        <ele>5</ele>
        <time>2020-06-15T11:26:11Z</time>
      </trkpt>
      <trkpt lat="49.58764" lon="-1.26273">
        <ele>5</ele>
        <time>2020-06-15T11:26:12Z</time>
      </trkpt>
      <trkpt lat="49.58759" lon="-1.26271">
        <ele>5</ele>
        <time>2020-06-15T11:26:13Z</time>
      </trkpt>
      <trkpt lat="49.58755" lon="-1.26267">
        <ele>0.1</ele>
        <time>2020-06-15T11:26:14Z</time>
      </trkpt>
      <trkpt lat="49.58752" lon="-1.26263">
        <ele>0.1</ele>
        <time>2020-06-15T11:26:15Z</time>
      </trkpt>
      <trkpt lat="49.58748" lon="-1.26258">
        <ele>0.1</ele>
        <time>2020-06-15T11:26:16Z</time>
      </trkpt>
      <trkpt lat="49.58745" lon="-1.26254">
        <ele>0.1</ele>
        <time>2020-06-15T11:26:17Z</time>
      </trkpt>
      <trkpt lat="49.58743" lon="-1.26249">
        <ele>4.3</ele>
        <time>2020-06-15T11:26:18Z</time>
      </trkpt>
      <trkpt lat="49.5874" lon="-1.26245">
        <ele>4.1</ele>
        <time>2020-06-15T11:26:19Z</time>
      </trkpt>
      <trkpt lat="49.58737" lon="-1.2624">
        <ele>4.1</ele>
        <time>2020-06-15T11:26:20Z</time>
      </trkpt>
      <trkpt lat="49.58734" lon="-1.26236">
        <ele>4.1</ele>
        <time>2020-06-15T11:26:21Z</time>
      </trkpt>
      <trkpt lat="49.58732" lon="-1.2623">
        <ele>-0.1</ele>
        <time>2020-06-15T11:26:22Z</time>
      </trkpt>
      <trkpt lat="49.58729" lon="-1.26225">
        <ele>-0.1</ele>
        <time>2020-06-15T11:26:23Z</time>
      </trkpt>
      <trkpt lat="49.58726" lon="-1.26221">
        <ele>-0.1</ele>
        <time>2020-06-15T11:26:24Z</time>
      </trkpt>
      <trkpt lat="49.58723" lon="-1.26217">
        <ele>-0.1</ele>
        <time>2020-06-15T11:26:25Z</time>
      </trkpt>
      <trkpt lat="49.5872" lon="-1.26214">
        <ele>-0.1</ele>
        <time>2020-06-15T11:26:26Z</time>
      </trkpt>
      <trkpt lat="49.58718" lon="-1.2621">
        <ele>4.7</ele>
        <time>2020-06-15T11:26:27Z</time>
      </trkpt>
      <trkpt lat="49.58715" lon="-1.26207">
        <ele>4.6</ele>
        <time>2020-06-15T11:26:28Z</time>
      </trkpt>
      <trkpt lat="49.58712" lon="-1.26203">
        <ele>4.7</ele>
        <time>2020-06-15T11:26:29Z</time>
      </trkpt>
      <trkpt lat="49.58711" lon="-1.26201">
        <ele>4.7</ele>
        <time>2020-06-15T11:26:30Z</time>
      </trkpt>
      <trkpt lat="49.58708" lon="-1.26198">
        <ele>4.8</ele>
        <time>2020-06-15T11:26:31Z</time>
      </trkpt>
      <trkpt lat="49.58708" lon="-1.26197">
        <ele>4.9</ele>
        <time>2020-06-15T11:26:32Z</time>
      </trkpt>
      <trkpt lat="49.58707" lon="-1.26195">
        <ele>5</ele>
        <time>2020-06-15T11:26:33Z</time>
      </trkpt>
      <trkpt lat="49.58708" lon="-1.26195">
        <ele>5</ele>
        <time>2020-06-15T11:26:34Z</time>
      </trkpt>
      <trkpt lat="49.58708" lon="-1.26195">
        <ele>5</ele>
        <time>2020-06-15T11:26:35Z</time>
      </trkpt>
      <trkpt lat="49.58708" lon="-1.26195">
        <ele>5</ele>
        <time>2020-06-15T11:26:36Z</time>
      </trkpt>
      <trkpt lat="49.58707" lon="-1.26194">
        <ele>5</ele>
        <time>2020-06-15T11:26:37Z</time>
      </trkpt>
      <trkpt lat="49.58707" lon="-1.26193">
        <ele>5</ele>
        <time>2020-06-15T11:26:38Z</time>
      </trkpt>
      <trkpt lat="49.58706" lon="-1.26193">
        <ele>5</ele>
        <time>2020-06-15T11:26:39Z</time>
      </trkpt>
      <trkpt lat="49.58706" lon="-1.26193">
        <ele>5</ele>
        <time>2020-06-15T11:26:40Z</time>
      </trkpt>
      <trkpt lat="49.58705" lon="-1.26193">
        <ele>5</ele>
        <time>2020-06-15T11:26:41Z</time>
      </trkpt>
      <trkpt lat="49.58705" lon="-1.26193">
        <ele>5</ele>
        <time>2020-06-15T11:26:42Z</time>
      </trkpt>
      <trkpt lat="49.58705" lon="-1.26194">
        <ele>5</ele>
        <time>2020-06-15T11:26:43Z</time>
      </trkpt>
      <trkpt lat="49.58705" lon="-1.26193">
        <ele>5</ele>
        <time>2020-06-15T11:26:44Z</time>
      </trkpt>
      <trkpt lat="49.58704" lon="-1.26193">
        <ele>5</ele>
        <time>2020-06-15T11:26:45Z</time>
      </trkpt>
      <trkpt lat="49.58704" lon="-1.26194">
        <ele>5</ele>
        <time>2020-06-15T11:26:46Z</time>
      </trkpt>
      <trkpt lat="49.58703" lon="-1.26194">
        <ele>5</ele>
        <time>2020-06-15T11:26:47Z</time>
      </trkpt>
      <trkpt lat="49.58703" lon="-1.26194">
        <ele>5</ele>
        <time>2020-06-15T11:26:48Z</time>
      </trkpt>
      <trkpt lat="49.58703" lon="-1.26193">
        <ele>5</ele>
        <time>2020-06-15T11:26:49Z</time>
      </trkpt>
      <trkpt lat="49.58703" lon="-1.26193">
        <ele>5</ele>
        <time>2020-06-15T11:26:50Z</time>
      </trkpt>
      <trkpt lat="49.58702" lon="-1.26196">
        <ele>4.9</ele>
        <time>2020-06-15T11:26:51Z</time>
      </trkpt>
      <trkpt lat="49.58702" lon="-1.26196">
        <ele>4.9</ele>
        <time>2020-06-15T11:26:52Z</time>
      </trkpt>
      <trkpt lat="49.58702" lon="-1.26197">
        <ele>4.8</ele>
        <time>2020-06-15T11:26:53Z</time>
      </trkpt>
      <trkpt lat="49.58702" lon="-1.26199">
        <ele>4.6</ele>
        <time>2020-06-15T11:26:54Z</time>
      </trkpt>
      <trkpt lat="49.58701" lon="-1.262">
        <ele>4.5</ele>
        <time>2020-06-15T11:26:55Z</time>
      </trkpt>
      <trkpt lat="49.58701" lon="-1.26201">
        <ele>4.5</ele>
        <time>2020-06-15T11:26:56Z</time>
      </trkpt>
      <trkpt lat="49.58701" lon="-1.262">
        <ele>4.5</ele>
        <time>2020-06-15T11:26:57Z</time>
      </trkpt>
      <trkpt lat="49.587" lon="-1.26199">
        <ele>4.6</ele>
        <time>2020-06-15T11:26:58Z</time>
      </trkpt>
      <trkpt lat="49.587" lon="-1.26198">
        <ele>4.7</ele>
        <time>2020-06-15T11:26:59Z</time>
      </trkpt>
      <trkpt lat="49.587" lon="-1.26198">
        <ele>4.7</ele>
        <time>2020-06-15T11:27:00Z</time>
      </trkpt>
      <trkpt lat="49.58699" lon="-1.26198">
        <ele>4.7</ele>
        <time>2020-06-15T11:27:01Z</time>
      </trkpt>
      <trkpt lat="49.58698" lon="-1.26197">
        <ele>4.8</ele>
        <time>2020-06-15T11:27:02Z</time>
      </trkpt>
      <trkpt lat="49.58699" lon="-1.26196">
        <ele>4.9</ele>
        <time>2020-06-15T11:27:03Z</time>
      </trkpt>
      <trkpt lat="49.58698" lon="-1.26196">
        <ele>4.9</ele>
        <time>2020-06-15T11:27:04Z</time>
      </trkpt>
      <trkpt lat="49.58699" lon="-1.26196">
        <ele>4.9</ele>
        <time>2020-06-15T11:27:05Z</time>
      </trkpt>
      <trkpt lat="49.58698" lon="-1.26196">
        <ele>4.9</ele>
        <time>2020-06-15T11:27:06Z</time>
      </trkpt>
      <trkpt lat="49.58699" lon="-1.26196">
        <ele>4.9</ele>
        <time>2020-06-15T11:27:07Z</time>
      </trkpt>
      <trkpt lat="49.58699" lon="-1.26196">
        <ele>4.9</ele>
        <time>2020-06-15T11:27:08Z</time>
      </trkpt>
      <trkpt lat="49.587" lon="-1.26197">
        <ele>4.8</ele>
        <time>2020-06-15T11:27:09Z</time>
      </trkpt>
      <trkpt lat="49.58702" lon="-1.26199">
        <ele>4.6</ele>
        <time>2020-06-15T11:27:10Z</time>
      </trkpt>
      <trkpt lat="49.5871" lon="-1.26199">
        <ele>4.8</ele>
        <time>2020-06-15T11:28:13Z</time>
      </trkpt>
      <trkpt lat="49.58709" lon="-1.26199">
        <ele>4.8</ele>
        <time>2020-06-15T11:28:14Z</time>
      </trkpt>
      <trkpt lat="49.58709" lon="-1.26198">
        <ele>4.8</ele>
        <time>2020-06-15T11:28:15Z</time>
      </trkpt>
      <trkpt lat="49.58708" lon="-1.26198">
        <ele>4.8</ele>
        <time>2020-06-15T11:28:16Z</time>
      </trkpt>
      <trkpt lat="49.58709" lon="-1.26198">
        <ele>4.8</ele>
        <time>2020-06-15T11:28:17Z</time>
      </trkpt>
      <trkpt lat="49.58708" lon="-1.26197">
        <ele>4.9</ele>
        <time>2020-06-15T11:28:18Z</time>
      </trkpt>
      <trkpt lat="49.58707" lon="-1.26197">
        <ele>4.8</ele>
        <time>2020-06-15T11:28:19Z</time>
      </trkpt>
      <trkpt lat="49.58706" lon="-1.26198">
        <ele>4.8</ele>
        <time>2020-06-15T11:28:20Z</time>
      </trkpt>
      <trkpt lat="49.58705" lon="-1.26198">
        <ele>4.8</ele>
        <time>2020-06-15T11:28:21Z</time>
      </trkpt>
      <trkpt lat="49.58704" lon="-1.26197">
        <ele>4.8</ele>
        <time>2020-06-15T11:28:22Z</time>
      </trkpt>
      <trkpt lat="49.58703" lon="-1.26196">
        <ele>4.9</ele>
        <time>2020-06-15T11:28:23Z</time>
      </trkpt>
      <trkpt lat="49.58701" lon="-1.26195">
        <ele>5</ele>
        <time>2020-06-15T11:28:24Z</time>
      </trkpt>
      <trkpt lat="49.587" lon="-1.26192">
        <ele>5</ele>
        <time>2020-06-15T11:28:25Z</time>
      </trkpt>
      <trkpt lat="49.58699" lon="-1.2619">
        <ele>5</ele>
        <time>2020-06-15T11:28:26Z</time>
      </trkpt>
      <trkpt lat="49.58699" lon="-1.26188">
        <ele>5</ele>
        <time>2020-06-15T11:28:27Z</time>
      </trkpt>
      <trkpt lat="49.58699" lon="-1.26185">
        <ele>4.9</ele>
        <time>2020-06-15T11:28:28Z</time>
      </trkpt>
      <trkpt lat="49.58699" lon="-1.26182">
        <ele>4.9</ele>
        <time>2020-06-15T11:28:29Z</time>
      </trkpt>
      <trkpt lat="49.58699" lon="-1.2618">
        <ele>4.9</ele>
        <time>2020-06-15T11:28:30Z</time>
      </trkpt>
      <trkpt lat="49.58697" lon="-1.26179">
        <ele>4.9</ele>
        <time>2020-06-15T11:28:31Z</time>
      </trkpt>
      <trkpt lat="49.58696" lon="-1.26178">
        <ele>5</ele>
        <time>2020-06-15T11:28:32Z</time>
      </trkpt>
      <trkpt lat="49.58694" lon="-1.26177">
        <ele>5</ele>
        <time>2020-06-15T11:28:33Z</time>
      </trkpt>
      <trkpt lat="49.58694" lon="-1.26174">
        <ele>5</ele>
        <time>2020-06-15T11:28:34Z</time>
      </trkpt>
      <trkpt lat="49.58692" lon="-1.2617">
        <ele>4.8</ele>
        <time>2020-06-15T11:28:35Z</time>
      </trkpt>
      <trkpt lat="49.58692" lon="-1.26168">
        <ele>4.7</ele>
        <time>2020-06-15T11:28:36Z</time>
      </trkpt>
      <trkpt lat="49.58689" lon="-1.26164">
        <ele>4.4</ele>
        <time>2020-06-15T11:28:37Z</time>
      </trkpt>
      <trkpt lat="49.58688" lon="-1.26163">
        <ele>4.3</ele>
        <time>2020-06-15T11:28:38Z</time>
      </trkpt>
      <trkpt lat="49.58685" lon="-1.26158">
        <ele>4</ele>
        <time>2020-06-15T11:28:39Z</time>
      </trkpt>
      <trkpt lat="49.58683" lon="-1.26156">
        <ele>3.9</ele>
        <time>2020-06-15T11:28:40Z</time>
      </trkpt>
      <trkpt lat="49.5868" lon="-1.26154">
        <ele>3.7</ele>
        <time>2020-06-15T11:28:41Z</time>
      </trkpt>
      <trkpt lat="49.58678" lon="-1.26151">
        <ele>3.7</ele>
        <time>2020-06-15T11:28:42Z</time>
      </trkpt>
      <trkpt lat="49.58675" lon="-1.26149">
        <ele>3.6</ele>
        <time>2020-06-15T11:28:43Z</time>
      </trkpt>
      <trkpt lat="49.58672" lon="-1.26145">
        <ele>3.7</ele>
        <time>2020-06-15T11:28:44Z</time>
      </trkpt>
      <trkpt lat="49.58671" lon="-1.26144">
        <ele>3.7</ele>
        <time>2020-06-15T11:28:45Z</time>
      </trkpt>
      <trkpt lat="49.58669" lon="-1.26139">
        <ele>4</ele>
        <time>2020-06-15T11:28:46Z</time>
      </trkpt>
      <trkpt lat="49.58668" lon="-1.26138">
        <ele>3.9</ele>
        <time>2020-06-15T11:28:47Z</time>
      </trkpt>
      <trkpt lat="49.58667" lon="-1.26134">
        <ele>3.6</ele>
        <time>2020-06-15T11:28:48Z</time>
      </trkpt>
      <trkpt lat="49.58666" lon="-1.26129">
        <ele>1</ele>
        <time>2020-06-15T11:28:49Z</time>
      </trkpt>
      <trkpt lat="49.58666" lon="-1.26128">
        <ele>1</ele>
        <time>2020-06-15T11:28:50Z</time>
      </trkpt>
      <trkpt lat="49.58664" lon="-1.26123">
        <ele>1</ele>
        <time>2020-06-15T11:28:51Z</time>
      </trkpt>
      <trkpt lat="49.58663" lon="-1.26121">
        <ele>1</ele>
        <time>2020-06-15T11:28:52Z</time>
      </trkpt>
      <trkpt lat="49.58662" lon="-1.26116">
        <ele>1</ele>
        <time>2020-06-15T11:28:53Z</time>
      </trkpt>
      <trkpt lat="49.58661" lon="-1.26114">
        <ele>1</ele>
        <time>2020-06-15T11:28:54Z</time>
      </trkpt>
      <trkpt lat="49.5866" lon="-1.2611">
        <ele>1</ele>
        <time>2020-06-15T11:28:55Z</time>
      </trkpt>
      <trkpt lat="49.58659" lon="-1.26105">
        <ele>0.1</ele>
        <time>2020-06-15T11:28:56Z</time>
      </trkpt>
      <trkpt lat="49.58659" lon="-1.26104">
        <ele>0.1</ele>
        <time>2020-06-15T11:28:57Z</time>
      </trkpt>
      <trkpt lat="49.58658" lon="-1.26102">
        <ele>0.1</ele>
        <time>2020-06-15T11:28:58Z</time>
      </trkpt>
      <trkpt lat="49.58657" lon="-1.261">
        <ele>0.1</ele>
        <time>2020-06-15T11:28:59Z</time>
      </trkpt>
      <trkpt lat="49.58656" lon="-1.26097">
        <ele>0.1</ele>
        <time>2020-06-15T11:29:00Z</time>
      </trkpt>
      <trkpt lat="49.58656" lon="-1.26096">
        <ele>0.1</ele>
        <time>2020-06-15T11:29:01Z</time>
      </trkpt>
      <trkpt lat="49.58656" lon="-1.26094">
        <ele>0.1</ele>
        <time>2020-06-15T11:29:02Z</time>
      </trkpt>
      <trkpt lat="49.58655" lon="-1.26093">
        <ele>0.1</ele>
        <time>2020-06-15T11:29:03Z</time>
      </trkpt>
      <trkpt lat="49.58655" lon="-1.26093">
        <ele>0.1</ele>
        <time>2020-06-15T11:29:04Z</time>
      </trkpt>
      <trkpt lat="49.58655" lon="-1.26093">
        <ele>0.1</ele>
        <time>2020-06-15T11:29:05Z</time>
      </trkpt>
      <trkpt lat="49.58655" lon="-1.26092">
        <ele>0.1</ele>
        <time>2020-06-15T11:29:06Z</time>
      </trkpt>
      <trkpt lat="49.58655" lon="-1.26092">
        <ele>0.1</ele>
        <time>2020-06-15T11:29:07Z</time>
      </trkpt>
      <trkpt lat="49.58655" lon="-1.26093">
        <ele>0.1</ele>
        <time>2020-06-15T11:29:08Z</time>
      </trkpt>
      <trkpt lat="49.58655" lon="-1.26092">
        <ele>0.1</ele>
        <time>2020-06-15T11:29:09Z</time>
      </trkpt>
      <trkpt lat="49.58654" lon="-1.26091">
        <ele>0.1</ele>
        <time>2020-06-15T11:29:10Z</time>
      </trkpt>
      <trkpt lat="49.58654" lon="-1.26091">
        <ele>0.1</ele>
        <time>2020-06-15T11:29:11Z</time>
      </trkpt>
      <trkpt lat="49.58654" lon="-1.2609">
        <ele>0.1</ele>
        <time>2020-06-15T11:29:12Z</time>
      </trkpt>
      <trkpt lat="49.58654" lon="-1.26091">
        <ele>0.1</ele>
        <time>2020-06-15T11:29:13Z</time>
      </trkpt>
      <trkpt lat="49.58654" lon="-1.26091">
        <ele>0.1</ele>
        <time>2020-06-15T11:29:14Z</time>
      </trkpt>
      <trkpt lat="49.58662" lon="-1.26087">
        <ele>0.1</ele>
        <time>2020-06-15T11:30:10Z</time>
      </trkpt>
      <trkpt lat="49.58663" lon="-1.26085">
        <ele>0.1</ele>
        <time>2020-06-15T11:30:11Z</time>
      </trkpt>
      <trkpt lat="49.58664" lon="-1.26084">
        <ele>0.1</ele>
        <time>2020-06-15T11:30:12Z</time>
      </trkpt>
      <trkpt lat="49.58664" lon="-1.26082">
        <ele>0.1</ele>
        <time>2020-06-15T11:30:13Z</time>
      </trkpt>
      <trkpt lat="49.58665" lon="-1.2608">
        <ele>0.1</ele>
        <time>2020-06-15T11:30:14Z</time>
      </trkpt>
      <trkpt lat="49.58665" lon="-1.26077">
        <ele>0.1</ele>
        <time>2020-06-15T11:30:15Z</time>
      </trkpt>
      <trkpt lat="49.58666" lon="-1.26075">
        <ele>0.1</ele>
        <time>2020-06-15T11:30:16Z</time>
      </trkpt>
      <trkpt lat="49.58666" lon="-1.26073">
        <ele>0.1</ele>
        <time>2020-06-15T11:30:17Z</time>
      </trkpt>
      <trkpt lat="49.58666" lon="-1.26071">
        <ele>0.1</ele>
        <time>2020-06-15T11:30:18Z</time>
      </trkpt>
      <trkpt lat="49.58666" lon="-1.2607">
        <ele>0.1</ele>
        <time>2020-06-15T11:30:19Z</time>
      </trkpt>
      <trkpt lat="49.58666" lon="-1.26068">
        <ele>0.1</ele>
        <time>2020-06-15T11:30:20Z</time>
      </trkpt>
      <trkpt lat="49.58666" lon="-1.26066">
        <ele>0.1</ele>
        <time>2020-06-15T11:30:21Z</time>
      </trkpt>
      <trkpt lat="49.58666" lon="-1.26065">
        <ele>0.1</ele>
        <time>2020-06-15T11:30:22Z</time>
      </trkpt>
      <trkpt lat="49.58666" lon="-1.26064">
        <ele>0.1</ele>
        <time>2020-06-15T11:30:23Z</time>
      </trkpt>
      <trkpt lat="49.58666" lon="-1.26063">
        <ele>0.1</ele>
        <time>2020-06-15T11:30:24Z</time>
      </trkpt>
      <trkpt lat="49.58666" lon="-1.26063">
        <ele>0.1</ele>
        <time>2020-06-15T11:30:25Z</time>
      </trkpt>
      <trkpt lat="49.58666" lon="-1.26061">
        <ele>0.1</ele>
        <time>2020-06-15T11:30:26Z</time>
      </trkpt>
      <trkpt lat="49.58666" lon="-1.2606">
        <ele>0.1</ele>
        <time>2020-06-15T11:30:27Z</time>
      </trkpt>
      <trkpt lat="49.58666" lon="-1.2606">
        <ele>0.1</ele>
        <time>2020-06-15T11:30:28Z</time>
      </trkpt>
      <trkpt lat="49.58666" lon="-1.26059">
        <ele>0.1</ele>
        <time>2020-06-15T11:30:29Z</time>
      </trkpt>
      <trkpt lat="49.58666" lon="-1.26059">
        <ele>0.1</ele>
        <time>2020-06-15T11:30:30Z</time>
      </trkpt>
      <trkpt lat="49.58666" lon="-1.26059">
        <ele>0.1</ele>
        <time>2020-06-15T11:30:31Z</time>
      </trkpt>
      <trkpt lat="49.58666" lon="-1.26059">
        <ele>0.1</ele>
        <time>2020-06-15T11:30:32Z</time>
      </trkpt>
      <trkpt lat="49.58666" lon="-1.26059">
        <ele>0.1</ele>
        <time>2020-06-15T11:30:33Z</time>
      </trkpt>
      <trkpt lat="49.58666" lon="-1.26059">
        <ele>0.1</ele>
        <time>2020-06-15T11:30:34Z</time>
      </trkpt>
      <trkpt lat="49.58666" lon="-1.26059">
        <ele>0.1</ele>
        <time>2020-06-15T11:30:35Z</time>
      </trkpt>
      <trkpt lat="49.5867" lon="-1.26059">
        <ele>0.1</ele>
        <time>2020-06-15T11:31:48Z</time>
      </trkpt>
      <trkpt lat="49.58671" lon="-1.26061">
        <ele>0.1</ele>
        <time>2020-06-15T11:31:49Z</time>
      </trkpt>
      <trkpt lat="49.58672" lon="-1.26062">
        <ele>0.1</ele>
        <time>2020-06-15T11:31:50Z</time>
      </trkpt>
      <trkpt lat="49.58673" lon="-1.26064">
        <ele>0.1</ele>
        <time>2020-06-15T11:31:51Z</time>
      </trkpt>
      <trkpt lat="49.58675" lon="-1.26066">
        <ele>0.1</ele>
        <time>2020-06-15T11:31:52Z</time>
      </trkpt>
      <trkpt lat="49.58676" lon="-1.26067">
        <ele>0.1</ele>
        <time>2020-06-15T11:31:53Z</time>
      </trkpt>
      <trkpt lat="49.58677" lon="-1.26068">
        <ele>0.1</ele>
        <time>2020-06-15T11:31:54Z</time>
      </trkpt>
      <trkpt lat="49.58677" lon="-1.26068">
        <ele>0.1</ele>
        <time>2020-06-15T11:31:55Z</time>
      </trkpt>
      <trkpt lat="49.58678" lon="-1.26069">
        <ele>0.1</ele>
        <time>2020-06-15T11:31:56Z</time>
      </trkpt>
      <trkpt lat="49.58678" lon="-1.2607">
        <ele>0.2</ele>
        <time>2020-06-15T11:31:57Z</time>
      </trkpt>
      <trkpt lat="49.58678" lon="-1.26071">
        <ele>0.2</ele>
        <time>2020-06-15T11:31:58Z</time>
      </trkpt>
      <trkpt lat="49.58679" lon="-1.26071">
        <ele>0.2</ele>
        <time>2020-06-15T11:31:59Z</time>
      </trkpt>
      <trkpt lat="49.58679" lon="-1.2607">
        <ele>0.2</ele>
        <time>2020-06-15T11:32:00Z</time>
      </trkpt>
      <trkpt lat="49.58678" lon="-1.2607">
        <ele>0.2</ele>
        <time>2020-06-15T11:32:01Z</time>
      </trkpt>
      <trkpt lat="49.58678" lon="-1.26071">
        <ele>0.2</ele>
        <time>2020-06-15T11:32:02Z</time>
      </trkpt>
      <trkpt lat="49.58678" lon="-1.26071">
        <ele>0.2</ele>
        <time>2020-06-15T11:32:03Z</time>
      </trkpt>
      <trkpt lat="49.58678" lon="-1.26071">
        <ele>0.2</ele>
        <time>2020-06-15T11:32:04Z</time>
      </trkpt>
      <trkpt lat="49.58677" lon="-1.26071">
        <ele>0.2</ele>
        <time>2020-06-15T11:32:05Z</time>
      </trkpt>
      <trkpt lat="49.58677" lon="-1.26071">
        <ele>0.2</ele>
        <time>2020-06-15T11:32:06Z</time>
      </trkpt>
      <trkpt lat="49.58677" lon="-1.26071">
        <ele>0.2</ele>
        <time>2020-06-15T11:32:07Z</time>
      </trkpt>
      <trkpt lat="49.58677" lon="-1.26071">
        <ele>0.2</ele>
        <time>2020-06-15T11:32:08Z</time>
      </trkpt>
      <trkpt lat="49.58677" lon="-1.26071">
        <ele>0.2</ele>
        <time>2020-06-15T11:32:09Z</time>
      </trkpt>
      <trkpt lat="49.58677" lon="-1.26071">
        <ele>0.2</ele>
        <time>2020-06-15T11:32:10Z</time>
      </trkpt>
      <trkpt lat="49.58676" lon="-1.26071">
        <ele>0.2</ele>
        <time>2020-06-15T11:32:11Z</time>
      </trkpt>
      <trkpt lat="49.58676" lon="-1.26071">
        <ele>0.2</ele>
        <time>2020-06-15T11:32:12Z</time>
      </trkpt>
      <trkpt lat="49.58675" lon="-1.26071">
        <ele>0.2</ele>
        <time>2020-06-15T11:32:13Z</time>
      </trkpt>
      <trkpt lat="49.58675" lon="-1.2607">
        <ele>0.2</ele>
        <time>2020-06-15T11:32:14Z</time>
      </trkpt>
      <trkpt lat="49.58674" lon="-1.2607">
        <ele>0.2</ele>
        <time>2020-06-15T11:32:15Z</time>
      </trkpt>
      <trkpt lat="49.58675" lon="-1.26069">
        <ele>0.2</ele>
        <time>2020-06-15T11:32:16Z</time>
      </trkpt>
      <trkpt lat="49.58675" lon="-1.26069">
        <ele>0.2</ele>
        <time>2020-06-15T11:32:17Z</time>
      </trkpt>
      <trkpt lat="49.58675" lon="-1.26068">
        <ele>0.2</ele>
        <time>2020-06-15T11:32:18Z</time>
      </trkpt>
      <trkpt lat="49.58675" lon="-1.26068">
        <ele>0.2</ele>
        <time>2020-06-15T11:32:19Z</time>
      </trkpt>
      <trkpt lat="49.58675" lon="-1.26068">
        <ele>0.2</ele>
        <time>2020-06-15T11:32:20Z</time>
      </trkpt>
      <trkpt lat="49.58676" lon="-1.26067">
        <ele>0.2</ele>
        <time>2020-06-15T11:32:21Z</time>
      </trkpt>
      <trkpt lat="49.58676" lon="-1.26067">
        <ele>0.2</ele>
        <time>2020-06-15T11:32:22Z</time>
      </trkpt>
      <trkpt lat="49.58676" lon="-1.26067">
        <ele>0.2</ele>
        <time>2020-06-15T11:32:23Z</time>
      </trkpt>
      <trkpt lat="49.58676" lon="-1.26067">
        <ele>0.2</ele>
        <time>2020-06-15T11:32:24Z</time>
      </trkpt>
      <trkpt lat="49.58675" lon="-1.26067">
        <ele>0.2</ele>
        <time>2020-06-15T11:32:25Z</time>
      </trkpt>
      <trkpt lat="49.58675" lon="-1.26067">
        <ele>0.2</ele>
        <time>2020-06-15T11:32:26Z</time>
      </trkpt>
      <trkpt lat="49.58675" lon="-1.26066">
        <ele>0.2</ele>
        <time>2020-06-15T11:32:27Z</time>
      </trkpt>
      <trkpt lat="49.58675" lon="-1.26066">
        <ele>0.2</ele>
        <time>2020-06-15T11:32:28Z</time>
      </trkpt>
      <trkpt lat="49.58676" lon="-1.26066">
        <ele>0.2</ele>
        <time>2020-06-15T11:32:29Z</time>
      </trkpt>
      <trkpt lat="49.5868" lon="-1.2607">
        <ele>0.2</ele>
        <time>2020-06-15T11:33:12Z</time>
      </trkpt>
      <trkpt lat="49.58681" lon="-1.2607">
        <ele>0.2</ele>
        <time>2020-06-15T11:33:13Z</time>
      </trkpt>
      <trkpt lat="49.58681" lon="-1.26069">
        <ele>0.2</ele>
        <time>2020-06-15T11:33:14Z</time>
      </trkpt>
      <trkpt lat="49.58681" lon="-1.26069">
        <ele>0.2</ele>
        <time>2020-06-15T11:33:15Z</time>
      </trkpt>
      <trkpt lat="49.58681" lon="-1.2607">
        <ele>0.2</ele>
        <time>2020-06-15T11:33:16Z</time>
      </trkpt>
      <trkpt lat="49.58681" lon="-1.2607">
        <ele>0.2</ele>
        <time>2020-06-15T11:33:17Z</time>
      </trkpt>
      <trkpt lat="49.58681" lon="-1.2607">
        <ele>0.2</ele>
        <time>2020-06-15T11:33:18Z</time>
      </trkpt>
      <trkpt lat="49.58682" lon="-1.2607">
        <ele>0.2</ele>
        <time>2020-06-15T11:33:19Z</time>
      </trkpt>
      <trkpt lat="49.58682" lon="-1.2607">
        <ele>0.2</ele>
        <time>2020-06-15T11:33:20Z</time>
      </trkpt>
      <trkpt lat="49.58682" lon="-1.26071">
        <ele>0.2</ele>
        <time>2020-06-15T11:33:21Z</time>
      </trkpt>
      <trkpt lat="49.58681" lon="-1.26071">
        <ele>0.2</ele>
        <time>2020-06-15T11:33:22Z</time>
      </trkpt>
      <trkpt lat="49.58681" lon="-1.26071">
        <ele>0.2</ele>
        <time>2020-06-15T11:33:23Z</time>
      </trkpt>
      <trkpt lat="49.58681" lon="-1.26071">
        <ele>0.2</ele>
        <time>2020-06-15T11:33:24Z</time>
      </trkpt>
      <trkpt lat="49.5868" lon="-1.26071">
        <ele>0.2</ele>
        <time>2020-06-15T11:33:25Z</time>
      </trkpt>
      <trkpt lat="49.58679" lon="-1.26072">
        <ele>0.2</ele>
        <time>2020-06-15T11:33:26Z</time>
      </trkpt>
      <trkpt lat="49.58679" lon="-1.26072">
        <ele>0.2</ele>
        <time>2020-06-15T11:33:27Z</time>
      </trkpt>
      <trkpt lat="49.58679" lon="-1.26072">
        <ele>0.2</ele>
        <time>2020-06-15T11:33:28Z</time>
      </trkpt>
      <trkpt lat="49.58678" lon="-1.26071">
        <ele>0.2</ele>
        <time>2020-06-15T11:33:29Z</time>
      </trkpt>
      <trkpt lat="49.58677" lon="-1.26071">
        <ele>0.2</ele>
        <time>2020-06-15T11:33:30Z</time>
      </trkpt>
      <trkpt lat="49.58678" lon="-1.26067">
        <ele>0.2</ele>
        <time>2020-06-15T11:35:30Z</time>
      </trkpt>
      <trkpt lat="49.58679" lon="-1.26066">
        <ele>0.3</ele>
        <time>2020-06-15T11:35:31Z</time>
      </trkpt>
      <trkpt lat="49.58679" lon="-1.26065">
        <ele>0.3</ele>
        <time>2020-06-15T11:35:32Z</time>
      </trkpt>
      <trkpt lat="49.58679" lon="-1.26065">
        <ele>0.3</ele>
        <time>2020-06-15T11:35:33Z</time>
      </trkpt>
      <trkpt lat="49.58678" lon="-1.26065">
        <ele>0.3</ele>
        <time>2020-06-15T11:35:34Z</time>
      </trkpt>
      <trkpt lat="49.58678" lon="-1.26064">
        <ele>0.3</ele>
        <time>2020-06-15T11:35:35Z</time>
      </trkpt>
      <trkpt lat="49.58677" lon="-1.26063">
        <ele>0.3</ele>
        <time>2020-06-15T11:35:36Z</time>
      </trkpt>
      <trkpt lat="49.58677" lon="-1.26064">
        <ele>0.3</ele>
        <time>2020-06-15T11:35:37Z</time>
      </trkpt>
      <trkpt lat="49.58677" lon="-1.26064">
        <ele>0.3</ele>
        <time>2020-06-15T11:35:38Z</time>
      </trkpt>
      <trkpt lat="49.58677" lon="-1.26064">
        <ele>0.3</ele>
        <time>2020-06-15T11:35:39Z</time>
      </trkpt>
      <trkpt lat="49.58677" lon="-1.26065">
        <ele>0.3</ele>
        <time>2020-06-15T11:35:40Z</time>
      </trkpt>
      <trkpt lat="49.58677" lon="-1.26066">
        <ele>0.3</ele>
        <time>2020-06-15T11:35:41Z</time>
      </trkpt>
      <trkpt lat="49.58678" lon="-1.26067">
        <ele>0.3</ele>
        <time>2020-06-15T11:35:42Z</time>
      </trkpt>
      <trkpt lat="49.58678" lon="-1.26068">
        <ele>0.3</ele>
        <time>2020-06-15T11:35:43Z</time>
      </trkpt>
      <trkpt lat="49.58678" lon="-1.26068">
        <ele>0.3</ele>
        <time>2020-06-15T11:35:44Z</time>
      </trkpt>
      <trkpt lat="49.58678" lon="-1.26068">
        <ele>0.3</ele>
        <time>2020-06-15T11:35:45Z</time>
      </trkpt>
      <trkpt lat="49.58678" lon="-1.26069">
        <ele>0.3</ele>
        <time>2020-06-15T11:35:46Z</time>
      </trkpt>
      <trkpt lat="49.58678" lon="-1.26069">
        <ele>0.3</ele>
        <time>2020-06-15T11:35:47Z</time>
      </trkpt>
      <trkpt lat="49.58678" lon="-1.26068">
        <ele>0.3</ele>
        <time>2020-06-15T11:35:48Z</time>
      </trkpt>
      <trkpt lat="49.58678" lon="-1.26068">
        <ele>0.3</ele>
        <time>2020-06-15T11:35:49Z</time>
      </trkpt>
      <trkpt lat="49.58678" lon="-1.26068">
        <ele>0.3</ele>
        <time>2020-06-15T11:35:50Z</time>
      </trkpt>
      <trkpt lat="49.58678" lon="-1.26068">
        <ele>0.3</ele>
        <time>2020-06-15T11:35:51Z</time>
      </trkpt>
      <trkpt lat="49.58678" lon="-1.26067">
        <ele>0.3</ele>
        <time>2020-06-15T11:35:52Z</time>
      </trkpt>
      <trkpt lat="49.58678" lon="-1.26066">
        <ele>0.3</ele>
        <time>2020-06-15T11:35:53Z</time>
      </trkpt>
      <trkpt lat="49.58676" lon="-1.2608">
        <ele>0.3</ele>
        <time>2020-06-15T11:42:10Z</time>
      </trkpt>
      <trkpt lat="49.58676" lon="-1.2608">
        <ele>0.3</ele>
        <time>2020-06-15T11:42:11Z</time>
      </trkpt>
      <trkpt lat="49.58676" lon="-1.26079">
        <ele>0.3</ele>
        <time>2020-06-15T11:42:12Z</time>
      </trkpt>
      <trkpt lat="49.58676" lon="-1.26079">
        <ele>0.3</ele>
        <time>2020-06-15T11:42:13Z</time>
      </trkpt>
      <trkpt lat="49.58675" lon="-1.26078">
        <ele>0.3</ele>
        <time>2020-06-15T11:42:14Z</time>
      </trkpt>
      <trkpt lat="49.58674" lon="-1.26078">
        <ele>0.3</ele>
        <time>2020-06-15T11:42:15Z</time>
      </trkpt>
      <trkpt lat="49.58672" lon="-1.26079">
        <ele>0.3</ele>
        <time>2020-06-15T11:42:16Z</time>
      </trkpt>
      <trkpt lat="49.58672" lon="-1.26079">
        <ele>0.3</ele>
        <time>2020-06-15T11:42:17Z</time>
      </trkpt>
      <trkpt lat="49.58671" lon="-1.2608">
        <ele>0.3</ele>
        <time>2020-06-15T11:42:18Z</time>
      </trkpt>
      <trkpt lat="49.58671" lon="-1.2608">
        <ele>0.3</ele>
        <time>2020-06-15T11:42:19Z</time>
      </trkpt>
      <trkpt lat="49.5867" lon="-1.26081">
        <ele>0.3</ele>
        <time>2020-06-15T11:42:20Z</time>
      </trkpt>
      <trkpt lat="49.58669" lon="-1.26082">
        <ele>0.3</ele>
        <time>2020-06-15T11:42:21Z</time>
      </trkpt>
      <trkpt lat="49.58667" lon="-1.26083">
        <ele>0.3</ele>
        <time>2020-06-15T11:42:22Z</time>
      </trkpt>
      <trkpt lat="49.58667" lon="-1.26084">
        <ele>0.3</ele>
        <time>2020-06-15T11:42:23Z</time>
      </trkpt>
      <trkpt lat="49.58667" lon="-1.26084">
        <ele>0.3</ele>
        <time>2020-06-15T11:42:24Z</time>
      </trkpt>
      <trkpt lat="49.58667" lon="-1.26084">
        <ele>0.3</ele>
        <time>2020-06-15T11:42:25Z</time>
      </trkpt>
      <trkpt lat="49.58667" lon="-1.26084">
        <ele>0.3</ele>
        <time>2020-06-15T11:42:26Z</time>
      </trkpt>
      <trkpt lat="49.58666" lon="-1.26083">
        <ele>0.3</ele>
        <time>2020-06-15T11:42:27Z</time>
      </trkpt>
      <trkpt lat="49.58666" lon="-1.26084">
        <ele>0.3</ele>
        <time>2020-06-15T11:42:28Z</time>
      </trkpt>
      <trkpt lat="49.58667" lon="-1.26083">
        <ele>0.3</ele>
        <time>2020-06-15T11:42:29Z</time>
      </trkpt>
      <trkpt lat="49.58666" lon="-1.26084">
        <ele>0.3</ele>
        <time>2020-06-15T11:42:30Z</time>
      </trkpt>
      <trkpt lat="49.58667" lon="-1.26084">
        <ele>0.3</ele>
        <time>2020-06-15T11:42:31Z</time>
      </trkpt>
      <trkpt lat="49.58666" lon="-1.26084">
        <ele>0.3</ele>
        <time>2020-06-15T11:42:32Z</time>
      </trkpt>
      <trkpt lat="49.58666" lon="-1.26084">
        <ele>0.3</ele>
        <time>2020-06-15T11:42:33Z</time>
      </trkpt>
      <trkpt lat="49.58666" lon="-1.26084">
        <ele>0.3</ele>
        <time>2020-06-15T11:42:34Z</time>
      </trkpt>
      <trkpt lat="49.58666" lon="-1.26084">
        <ele>0.3</ele>
        <time>2020-06-15T11:42:35Z</time>
      </trkpt>
      <trkpt lat="49.58666" lon="-1.26085">
        <ele>0.3</ele>
        <time>2020-06-15T11:42:36Z</time>
      </trkpt>
      <trkpt lat="49.58666" lon="-1.26085">
        <ele>0.3</ele>
        <time>2020-06-15T11:42:37Z</time>
      </trkpt>
      <trkpt lat="49.58666" lon="-1.26085">
        <ele>0.3</ele>
        <time>2020-06-15T11:42:38Z</time>
      </trkpt>
      <trkpt lat="49.58666" lon="-1.26086">
        <ele>0.3</ele>
        <time>2020-06-15T11:42:39Z</time>
      </trkpt>
      <trkpt lat="49.58666" lon="-1.26086">
        <ele>0.4</ele>
        <time>2020-06-15T11:42:40Z</time>
      </trkpt>
      <trkpt lat="49.58667" lon="-1.26086">
        <ele>0.4</ele>
        <time>2020-06-15T11:42:41Z</time>
      </trkpt>
      <trkpt lat="49.58667" lon="-1.26086">
        <ele>0.4</ele>
        <time>2020-06-15T11:42:42Z</time>
      </trkpt>
      <trkpt lat="49.58667" lon="-1.26086">
        <ele>0.4</ele>
        <time>2020-06-15T11:42:43Z</time>
      </trkpt>
      <trkpt lat="49.58667" lon="-1.26086">
        <ele>0.4</ele>
        <time>2020-06-15T11:42:44Z</time>
      </trkpt>
      <trkpt lat="49.58674" lon="-1.26065">
        <ele>0.4</ele>
        <time>2020-06-15T11:47:24Z</time>
      </trkpt>
      <trkpt lat="49.58674" lon="-1.26063">
        <ele>0.4</ele>
        <time>2020-06-15T11:47:25Z</time>
      </trkpt>
      <trkpt lat="49.58673" lon="-1.26062">
        <ele>0.4</ele>
        <time>2020-06-15T11:47:26Z</time>
      </trkpt>
      <trkpt lat="49.58673" lon="-1.26062">
        <ele>0.4</ele>
        <time>2020-06-15T11:47:27Z</time>
      </trkpt>
      <trkpt lat="49.58674" lon="-1.26062">
        <ele>0.4</ele>
        <time>2020-06-15T11:47:28Z</time>
      </trkpt>
      <trkpt lat="49.58674" lon="-1.26062">
        <ele>0.4</ele>
        <time>2020-06-15T11:47:29Z</time>
      </trkpt>
      <trkpt lat="49.58674" lon="-1.26062">
        <ele>0.4</ele>
        <time>2020-06-15T11:47:30Z</time>
      </trkpt>
      <trkpt lat="49.58674" lon="-1.26062">
        <ele>0.4</ele>
        <time>2020-06-15T11:47:31Z</time>
      </trkpt>
      <trkpt lat="49.58673" lon="-1.26062">
        <ele>0.4</ele>
        <time>2020-06-15T11:47:32Z</time>
      </trkpt>
      <trkpt lat="49.58673" lon="-1.26061">
        <ele>0.4</ele>
        <time>2020-06-15T11:47:33Z</time>
      </trkpt>
      <trkpt lat="49.58673" lon="-1.26061">
        <ele>0.4</ele>
        <time>2020-06-15T11:47:34Z</time>
      </trkpt>
      <trkpt lat="49.58673" lon="-1.2606">
        <ele>0.4</ele>
        <time>2020-06-15T11:47:35Z</time>
      </trkpt>
      <trkpt lat="49.58673" lon="-1.26055">
        <ele>0.4</ele>
        <time>2020-06-15T11:47:41Z</time>
      </trkpt>
      <trkpt lat="49.58674" lon="-1.26054">
        <ele>0.4</ele>
        <time>2020-06-15T11:47:42Z</time>
      </trkpt>
      <trkpt lat="49.58674" lon="-1.26053">
        <ele>0.4</ele>
        <time>2020-06-15T11:47:43Z</time>
      </trkpt>
      <trkpt lat="49.58674" lon="-1.26052">
        <ele>0.4</ele>
        <time>2020-06-15T11:47:44Z</time>
      </trkpt>
      <trkpt lat="49.58674" lon="-1.26051">
        <ele>0.4</ele>
        <time>2020-06-15T11:47:45Z</time>
      </trkpt>
      <trkpt lat="49.58674" lon="-1.2605">
        <ele>0.4</ele>
        <time>2020-06-15T11:47:46Z</time>
      </trkpt>
      <trkpt lat="49.58674" lon="-1.2605">
        <ele>0.4</ele>
        <time>2020-06-15T11:47:47Z</time>
      </trkpt>
      <trkpt lat="49.58674" lon="-1.2605">
        <ele>0.4</ele>
        <time>2020-06-15T11:47:48Z</time>
      </trkpt>
      <trkpt lat="49.58676" lon="-1.26051">
        <ele>0.4</ele>
        <time>2020-06-15T11:47:49Z</time>
      </trkpt>
      <trkpt lat="49.58676" lon="-1.26051">
        <ele>0.4</ele>
        <time>2020-06-15T11:47:50Z</time>
      </trkpt>
      <trkpt lat="49.58676" lon="-1.26051">
        <ele>0.4</ele>
        <time>2020-06-15T11:47:51Z</time>
      </trkpt>
      <trkpt lat="49.58676" lon="-1.2605">
        <ele>0.4</ele>
        <time>2020-06-15T11:47:52Z</time>
      </trkpt>
      <trkpt lat="49.58676" lon="-1.26051">
        <ele>0.4</ele>
        <time>2020-06-15T11:47:53Z</time>
      </trkpt>
      <trkpt lat="49.58675" lon="-1.2605">
        <ele>0.4</ele>
        <time>2020-06-15T11:47:54Z</time>
      </trkpt>
      <trkpt lat="49.58675" lon="-1.2605">
        <ele>0.4</ele>
        <time>2020-06-15T11:47:55Z</time>
      </trkpt>
      <trkpt lat="49.58675" lon="-1.26051">
        <ele>0.4</ele>
        <time>2020-06-15T11:47:56Z</time>
      </trkpt>
      <trkpt lat="49.58675" lon="-1.2605">
        <ele>0.4</ele>
        <time>2020-06-15T11:47:57Z</time>
      </trkpt>
      <trkpt lat="49.58675" lon="-1.26051">
        <ele>0.4</ele>
        <time>2020-06-15T11:47:58Z</time>
      </trkpt>
      <trkpt lat="49.58675" lon="-1.26051">
        <ele>0.4</ele>
        <time>2020-06-15T11:47:59Z</time>
      </trkpt>
      <trkpt lat="49.58675" lon="-1.26051">
        <ele>0.4</ele>
        <time>2020-06-15T11:48:00Z</time>
      </trkpt>
      <trkpt lat="49.58675" lon="-1.26051">
        <ele>0.4</ele>
        <time>2020-06-15T11:48:01Z</time>
      </trkpt>
      <trkpt lat="49.58674" lon="-1.2605">
        <ele>0.4</ele>
        <time>2020-06-15T11:48:02Z</time>
      </trkpt>
      <trkpt lat="49.58673" lon="-1.2605">
        <ele>0.4</ele>
        <time>2020-06-15T11:48:03Z</time>
      </trkpt>
      <trkpt lat="49.58673" lon="-1.2605">
        <ele>0.4</ele>
        <time>2020-06-15T11:48:04Z</time>
      </trkpt>
      <trkpt lat="49.58655" lon="-1.26055">
        <ele>0.4</ele>
        <time>2020-06-15T11:51:21Z</time>
      </trkpt>
      <trkpt lat="49.58655" lon="-1.26055">
        <ele>0.4</ele>
        <time>2020-06-15T11:51:22Z</time>
      </trkpt>
      <trkpt lat="49.58655" lon="-1.26055">
        <ele>0.4</ele>
        <time>2020-06-15T11:51:23Z</time>
      </trkpt>
      <trkpt lat="49.58655" lon="-1.26055">
        <ele>0.4</ele>
        <time>2020-06-15T11:51:24Z</time>
      </trkpt>
      <trkpt lat="49.58653" lon="-1.26054">
        <ele>0.4</ele>
        <time>2020-06-15T11:51:25Z</time>
      </trkpt>
      <trkpt lat="49.58652" lon="-1.26055">
        <ele>0.4</ele>
        <time>2020-06-15T11:51:26Z</time>
      </trkpt>
      <trkpt lat="49.58652" lon="-1.26055">
        <ele>0.4</ele>
        <time>2020-06-15T11:51:27Z</time>
      </trkpt>
      <trkpt lat="49.5865" lon="-1.26058">
        <ele>0.4</ele>
        <time>2020-06-15T11:51:28Z</time>
      </trkpt>
      <trkpt lat="49.58648" lon="-1.26062">
        <ele>0.4</ele>
        <time>2020-06-15T11:51:29Z</time>
      </trkpt>
      <trkpt lat="49.58647" lon="-1.26062">
        <ele>0.4</ele>
        <time>2020-06-15T11:51:30Z</time>
      </trkpt>
      <trkpt lat="49.58647" lon="-1.26062">
        <ele>0.4</ele>
        <time>2020-06-15T11:51:31Z</time>
      </trkpt>
      <trkpt lat="49.58646" lon="-1.26062">
        <ele>0.4</ele>
        <time>2020-06-15T11:51:32Z</time>
      </trkpt>
      <trkpt lat="49.58646" lon="-1.26062">
        <ele>0.5</ele>
        <time>2020-06-15T11:51:33Z</time>
      </trkpt>
      <trkpt lat="49.58646" lon="-1.26062">
        <ele>0.5</ele>
        <time>2020-06-15T11:51:34Z</time>
      </trkpt>
      <trkpt lat="49.58645" lon="-1.26062">
        <ele>0.5</ele>
        <time>2020-06-15T11:51:35Z</time>
      </trkpt>
      <trkpt lat="49.58645" lon="-1.26062">
        <ele>0.5</ele>
        <time>2020-06-15T11:51:36Z</time>
      </trkpt>
      <trkpt lat="49.58645" lon="-1.26062">
        <ele>0.5</ele>
        <time>2020-06-15T11:51:37Z</time>
      </trkpt>
      <trkpt lat="49.58645" lon="-1.26062">
        <ele>0.5</ele>
        <time>2020-06-15T11:51:38Z</time>
      </trkpt>
      <trkpt lat="49.58645" lon="-1.26062">
        <ele>0.5</ele>
        <time>2020-06-15T11:51:39Z</time>
      </trkpt>
      <trkpt lat="49.58645" lon="-1.26062">
        <ele>0.5</ele>
        <time>2020-06-15T11:51:40Z</time>
      </trkpt>
      <trkpt lat="49.58645" lon="-1.26062">
        <ele>0.5</ele>
        <time>2020-06-15T11:51:41Z</time>
      </trkpt>
      <trkpt lat="49.58645" lon="-1.26062">
        <ele>0.5</ele>
        <time>2020-06-15T11:51:42Z</time>
      </trkpt>
      <trkpt lat="49.58645" lon="-1.26062">
        <ele>0.5</ele>
        <time>2020-06-15T11:51:43Z</time>
      </trkpt>
      <trkpt lat="49.58645" lon="-1.26062">
        <ele>0.5</ele>
        <time>2020-06-15T11:51:44Z</time>
      </trkpt>
      <trkpt lat="49.58645" lon="-1.26062">
        <ele>0.5</ele>
        <time>2020-06-15T11:51:45Z</time>
      </trkpt>
      <trkpt lat="49.58663" lon="-1.26068">
        <ele>0.5</ele>
        <time>2020-06-15T12:03:47Z</time>
      </trkpt>
      <trkpt lat="49.58663" lon="-1.26068">
        <ele>0.5</ele>
        <time>2020-06-15T12:03:48Z</time>
      </trkpt>
      <trkpt lat="49.58663" lon="-1.2607">
        <ele>0.5</ele>
        <time>2020-06-15T12:03:49Z</time>
      </trkpt>
      <trkpt lat="49.58664" lon="-1.2607">
        <ele>0.5</ele>
        <time>2020-06-15T12:03:50Z</time>
      </trkpt>
      <trkpt lat="49.58665" lon="-1.26071">
        <ele>0.5</ele>
        <time>2020-06-15T12:03:51Z</time>
      </trkpt>
      <trkpt lat="49.58665" lon="-1.26072">
        <ele>0.5</ele>
        <time>2020-06-15T12:03:52Z</time>
      </trkpt>
      <trkpt lat="49.58665" lon="-1.26073">
        <ele>0.5</ele>
        <time>2020-06-15T12:03:53Z</time>
      </trkpt>
      <trkpt lat="49.58665" lon="-1.26074">
        <ele>0.5</ele>
        <time>2020-06-15T12:03:54Z</time>
      </trkpt>
      <trkpt lat="49.58664" lon="-1.26076">
        <ele>0.5</ele>
        <time>2020-06-15T12:03:55Z</time>
      </trkpt>
      <trkpt lat="49.58664" lon="-1.26078">
        <ele>0.5</ele>
        <time>2020-06-15T12:03:56Z</time>
      </trkpt>
      <trkpt lat="49.58663" lon="-1.26079">
        <ele>0.5</ele>
        <time>2020-06-15T12:03:57Z</time>
      </trkpt>
      <trkpt lat="49.58663" lon="-1.2608">
        <ele>0.5</ele>
        <time>2020-06-15T12:03:58Z</time>
      </trkpt>
      <trkpt lat="49.58662" lon="-1.26083">
        <ele>0.5</ele>
        <time>2020-06-15T12:03:59Z</time>
      </trkpt>
      <trkpt lat="49.58661" lon="-1.26084">
        <ele>0.5</ele>
        <time>2020-06-15T12:04:00Z</time>
      </trkpt>
      <trkpt lat="49.58661" lon="-1.26085">
        <ele>0.5</ele>
        <time>2020-06-15T12:04:01Z</time>
      </trkpt>
      <trkpt lat="49.5866" lon="-1.26087">
        <ele>0.5</ele>
        <time>2020-06-15T12:04:02Z</time>
      </trkpt>
      <trkpt lat="49.5866" lon="-1.26088">
        <ele>0.5</ele>
        <time>2020-06-15T12:04:03Z</time>
      </trkpt>
      <trkpt lat="49.58659" lon="-1.2609">
        <ele>0.5</ele>
        <time>2020-06-15T12:04:04Z</time>
      </trkpt>
      <trkpt lat="49.58659" lon="-1.2609">
        <ele>0.5</ele>
        <time>2020-06-15T12:04:05Z</time>
      </trkpt>
      <trkpt lat="49.58659" lon="-1.26091">
        <ele>0.5</ele>
        <time>2020-06-15T12:04:06Z</time>
      </trkpt>
      <trkpt lat="49.58659" lon="-1.26092">
        <ele>0.5</ele>
        <time>2020-06-15T12:04:07Z</time>
      </trkpt>
      <trkpt lat="49.58659" lon="-1.26092">
        <ele>0.5</ele>
        <time>2020-06-15T12:04:08Z</time>
      </trkpt>
      <trkpt lat="49.58658" lon="-1.26093">
        <ele>0.5</ele>
        <time>2020-06-15T12:04:09Z</time>
      </trkpt>
      <trkpt lat="49.58658" lon="-1.26095">
        <ele>0.5</ele>
        <time>2020-06-15T12:04:10Z</time>
      </trkpt>
      <trkpt lat="49.58658" lon="-1.26095">
        <ele>0.5</ele>
        <time>2020-06-15T12:04:11Z</time>
      </trkpt>
      <trkpt lat="49.58658" lon="-1.26095">
        <ele>0.5</ele>
        <time>2020-06-15T12:04:12Z</time>
      </trkpt>
      <trkpt lat="49.58659" lon="-1.26094">
        <ele>0.5</ele>
        <time>2020-06-15T12:04:13Z</time>
      </trkpt>
      <trkpt lat="49.58658" lon="-1.26094">
        <ele>0.5</ele>
        <time>2020-06-15T12:04:14Z</time>
      </trkpt>
      <trkpt lat="49.58658" lon="-1.26094">
        <ele>0.5</ele>
        <time>2020-06-15T12:04:15Z</time>
      </trkpt>
      <trkpt lat="49.58658" lon="-1.26094">
        <ele>0.5</ele>
        <time>2020-06-15T12:04:16Z</time>
      </trkpt>
      <trkpt lat="49.58658" lon="-1.26094">
        <ele>0.5</ele>
        <time>2020-06-15T12:04:17Z</time>
      </trkpt>
      <trkpt lat="49.58658" lon="-1.26094">
        <ele>0.5</ele>
        <time>2020-06-15T12:04:18Z</time>
      </trkpt>
      <trkpt lat="49.58658" lon="-1.26094">
        <ele>0.5</ele>
        <time>2020-06-15T12:04:19Z</time>
      </trkpt>
      <trkpt lat="49.58658" lon="-1.26094">
        <ele>0.5</ele>
        <time>2020-06-15T12:04:20Z</time>
      </trkpt>
      <trkpt lat="49.58658" lon="-1.26094">
        <ele>0.5</ele>
        <time>2020-06-15T12:04:21Z</time>
      </trkpt>
      <trkpt lat="49.58652" lon="-1.26085">
        <ele>0.5</ele>
        <time>2020-06-15T12:05:51Z</time>
      </trkpt>
      <trkpt lat="49.58652" lon="-1.26083">
        <ele>0.5</ele>
        <time>2020-06-15T12:05:52Z</time>
      </trkpt>
      <trkpt lat="49.58652" lon="-1.26081">
        <ele>0.5</ele>
        <time>2020-06-15T12:05:53Z</time>
      </trkpt>
      <trkpt lat="49.58653" lon="-1.26078">
        <ele>0.5</ele>
        <time>2020-06-15T12:05:54Z</time>
      </trkpt>
      <trkpt lat="49.58653" lon="-1.26076">
        <ele>0.5</ele>
        <time>2020-06-15T12:05:55Z</time>
      </trkpt>
      <trkpt lat="49.58653" lon="-1.26074">
        <ele>0.6</ele>
        <time>2020-06-15T12:05:56Z</time>
      </trkpt>
      <trkpt lat="49.58653" lon="-1.26071">
        <ele>0.6</ele>
        <time>2020-06-15T12:05:57Z</time>
      </trkpt>
      <trkpt lat="49.58653" lon="-1.26069">
        <ele>0.6</ele>
        <time>2020-06-15T12:05:58Z</time>
      </trkpt>
      <trkpt lat="49.58653" lon="-1.26067">
        <ele>0.6</ele>
        <time>2020-06-15T12:05:59Z</time>
      </trkpt>
      <trkpt lat="49.58654" lon="-1.26064">
        <ele>0.6</ele>
        <time>2020-06-15T12:06:00Z</time>
      </trkpt>
      <trkpt lat="49.58654" lon="-1.26062">
        <ele>0.6</ele>
        <time>2020-06-15T12:06:01Z</time>
      </trkpt>
      <trkpt lat="49.58654" lon="-1.26062">
        <ele>0.6</ele>
        <time>2020-06-15T12:06:02Z</time>
      </trkpt>
      <trkpt lat="49.58655" lon="-1.26062">
        <ele>0.6</ele>
        <time>2020-06-15T12:06:03Z</time>
      </trkpt>
      <trkpt lat="49.58655" lon="-1.26061">
        <ele>0.6</ele>
        <time>2020-06-15T12:06:04Z</time>
      </trkpt>
      <trkpt lat="49.58655" lon="-1.26059">
        <ele>0.6</ele>
        <time>2020-06-15T12:06:05Z</time>
      </trkpt>
      <trkpt lat="49.58655" lon="-1.26058">
        <ele>0.6</ele>
        <time>2020-06-15T12:06:06Z</time>
      </trkpt>
      <trkpt lat="49.58655" lon="-1.26058">
        <ele>0.6</ele>
        <time>2020-06-15T12:06:07Z</time>
      </trkpt>
      <trkpt lat="49.58655" lon="-1.26058">
        <ele>0.6</ele>
        <time>2020-06-15T12:06:08Z</time>
      </trkpt>
      <trkpt lat="49.58655" lon="-1.26059">
        <ele>0.6</ele>
        <time>2020-06-15T12:06:09Z</time>
      </trkpt>
      <trkpt lat="49.58655" lon="-1.2606">
        <ele>0.6</ele>
        <time>2020-06-15T12:06:10Z</time>
      </trkpt>
      <trkpt lat="49.58655" lon="-1.2606">
        <ele>0.6</ele>
        <time>2020-06-15T12:06:11Z</time>
      </trkpt>
      <trkpt lat="49.58655" lon="-1.2606">
        <ele>0.6</ele>
        <time>2020-06-15T12:06:12Z</time>
      </trkpt>
      <trkpt lat="49.58655" lon="-1.26059">
        <ele>0.6</ele>
        <time>2020-06-15T12:06:13Z</time>
      </trkpt>
      <trkpt lat="49.58655" lon="-1.26059">
        <ele>0.6</ele>
        <time>2020-06-15T12:06:14Z</time>
      </trkpt>
      <trkpt lat="49.58655" lon="-1.26059">
        <ele>0.6</ele>
        <time>2020-06-15T12:06:15Z</time>
      </trkpt>
      <trkpt lat="49.58654" lon="-1.26069">
        <ele>0.6</ele>
        <time>2020-06-15T12:06:40Z</time>
      </trkpt>
      <trkpt lat="49.58655" lon="-1.2607">
        <ele>0.6</ele>
        <time>2020-06-15T12:06:41Z</time>
      </trkpt>
      <trkpt lat="49.58655" lon="-1.26071">
        <ele>0.6</ele>
        <time>2020-06-15T12:06:42Z</time>
      </trkpt>
      <trkpt lat="49.58655" lon="-1.26072">
        <ele>0.6</ele>
        <time>2020-06-15T12:06:43Z</time>
      </trkpt>
      <trkpt lat="49.58654" lon="-1.26073">
        <ele>0.6</ele>
        <time>2020-06-15T12:06:44Z</time>
      </trkpt>
      <trkpt lat="49.58654" lon="-1.26074">
        <ele>0.6</ele>
        <time>2020-06-15T12:06:45Z</time>
      </trkpt>
      <trkpt lat="49.58654" lon="-1.26075">
        <ele>0.6</ele>
        <time>2020-06-15T12:06:46Z</time>
      </trkpt>
      <trkpt lat="49.58653" lon="-1.26075">
        <ele>0.6</ele>
        <time>2020-06-15T12:06:47Z</time>
      </trkpt>
      <trkpt lat="49.58653" lon="-1.26076">
        <ele>0.6</ele>
        <time>2020-06-15T12:06:48Z</time>
      </trkpt>
      <trkpt lat="49.58653" lon="-1.26077">
        <ele>0.6</ele>
        <time>2020-06-15T12:06:49Z</time>
      </trkpt>
      <trkpt lat="49.58653" lon="-1.26077">
        <ele>0.6</ele>
        <time>2020-06-15T12:06:50Z</time>
      </trkpt>
      <trkpt lat="49.58653" lon="-1.26077">
        <ele>0.6</ele>
        <time>2020-06-15T12:06:51Z</time>
      </trkpt>
      <trkpt lat="49.58653" lon="-1.26077">
        <ele>0.6</ele>
        <time>2020-06-15T12:06:52Z</time>
      </trkpt>
      <trkpt lat="49.58653" lon="-1.26078">
        <ele>0.6</ele>
        <time>2020-06-15T12:06:53Z</time>
      </trkpt>
      <trkpt lat="49.58654" lon="-1.26079">
        <ele>0.6</ele>
        <time>2020-06-15T12:06:54Z</time>
      </trkpt>
      <trkpt lat="49.58654" lon="-1.26081">
        <ele>0.6</ele>
        <time>2020-06-15T12:06:55Z</time>
      </trkpt>
      <trkpt lat="49.58655" lon="-1.26083">
        <ele>0.6</ele>
        <time>2020-06-15T12:06:56Z</time>
      </trkpt>
      <trkpt lat="49.58655" lon="-1.26084">
        <ele>0.6</ele>
        <time>2020-06-15T12:06:57Z</time>
      </trkpt>
      <trkpt lat="49.58656" lon="-1.26085">
        <ele>0.6</ele>
        <time>2020-06-15T12:06:58Z</time>
      </trkpt>
      <trkpt lat="49.58656" lon="-1.26086">
        <ele>0.6</ele>
        <time>2020-06-15T12:06:59Z</time>
      </trkpt>
      <trkpt lat="49.58657" lon="-1.26086">
        <ele>0.6</ele>
        <time>2020-06-15T12:07:00Z</time>
      </trkpt>
      <trkpt lat="49.58657" lon="-1.26087">
        <ele>0.6</ele>
        <time>2020-06-15T12:07:01Z</time>
      </trkpt>
      <trkpt lat="49.58656" lon="-1.26087">
        <ele>0.6</ele>
        <time>2020-06-15T12:07:02Z</time>
      </trkpt>
      <trkpt lat="49.58656" lon="-1.26088">
        <ele>0.6</ele>
        <time>2020-06-15T12:07:03Z</time>
      </trkpt>
      <trkpt lat="49.58656" lon="-1.26088">
        <ele>0.6</ele>
        <time>2020-06-15T12:07:04Z</time>
      </trkpt>
      <trkpt lat="49.58656" lon="-1.26089">
        <ele>0.6</ele>
        <time>2020-06-15T12:07:05Z</time>
      </trkpt>
      <trkpt lat="49.58657" lon="-1.2609">
        <ele>0.6</ele>
        <time>2020-06-15T12:07:06Z</time>
      </trkpt>
      <trkpt lat="49.58657" lon="-1.26091">
        <ele>0.6</ele>
        <time>2020-06-15T12:07:07Z</time>
      </trkpt>
      <trkpt lat="49.58657" lon="-1.26091">
        <ele>0.6</ele>
        <time>2020-06-15T12:07:08Z</time>
      </trkpt>
      <trkpt lat="49.58657" lon="-1.26091">
        <ele>0.6</ele>
        <time>2020-06-15T12:07:09Z</time>
      </trkpt>
      <trkpt lat="49.58658" lon="-1.26092">
        <ele>0.6</ele>
        <time>2020-06-15T12:07:10Z</time>
      </trkpt>
      <trkpt lat="49.58658" lon="-1.26093">
        <ele>0.6</ele>
        <time>2020-06-15T12:07:11Z</time>
      </trkpt>
      <trkpt lat="49.58655" lon="-1.26096">
        <ele>0.6</ele>
        <time>2020-06-15T12:07:33Z</time>
      </trkpt>
      <trkpt lat="49.58654" lon="-1.26097">
        <ele>0.7</ele>
        <time>2020-06-15T12:07:34Z</time>
      </trkpt>
      <trkpt lat="49.58654" lon="-1.26098">
        <ele>0.7</ele>
        <time>2020-06-15T12:07:35Z</time>
      </trkpt>
      <trkpt lat="49.58654" lon="-1.261">
        <ele>0.7</ele>
        <time>2020-06-15T12:07:36Z</time>
      </trkpt>
      <trkpt lat="49.58655" lon="-1.26101">
        <ele>0.7</ele>
        <time>2020-06-15T12:07:37Z</time>
      </trkpt>
      <trkpt lat="49.58655" lon="-1.26103">
        <ele>0.7</ele>
        <time>2020-06-15T12:07:38Z</time>
      </trkpt>
      <trkpt lat="49.58655" lon="-1.26104">
        <ele>0.7</ele>
        <time>2020-06-15T12:07:39Z</time>
      </trkpt>
      <trkpt lat="49.58655" lon="-1.26106">
        <ele>0.7</ele>
        <time>2020-06-15T12:07:40Z</time>
      </trkpt>
      <trkpt lat="49.58655" lon="-1.26109">
        <ele>0.7</ele>
        <time>2020-06-15T12:07:41Z</time>
      </trkpt>
      <trkpt lat="49.58655" lon="-1.26111">
        <ele>0.7</ele>
        <time>2020-06-15T12:07:42Z</time>
      </trkpt>
      <trkpt lat="49.58656" lon="-1.26112">
        <ele>0.7</ele>
        <time>2020-06-15T12:07:43Z</time>
      </trkpt>
      <trkpt lat="49.58656" lon="-1.26114">
        <ele>0.7</ele>
        <time>2020-06-15T12:07:44Z</time>
      </trkpt>
      <trkpt lat="49.58656" lon="-1.26117">
        <ele>0.7</ele>
        <time>2020-06-15T12:07:45Z</time>
      </trkpt>
      <trkpt lat="49.58657" lon="-1.26119">
        <ele>0.7</ele>
        <time>2020-06-15T12:07:46Z</time>
      </trkpt>
      <trkpt lat="49.58658" lon="-1.26121">
        <ele>0.7</ele>
        <time>2020-06-15T12:07:47Z</time>
      </trkpt>
      <trkpt lat="49.58659" lon="-1.26123">
        <ele>0.7</ele>
        <time>2020-06-15T12:07:48Z</time>
      </trkpt>
      <trkpt lat="49.58659" lon="-1.26125">
        <ele>0.7</ele>
        <time>2020-06-15T12:07:49Z</time>
      </trkpt>
      <trkpt lat="49.5866" lon="-1.26127">
        <ele>0.7</ele>
        <time>2020-06-15T12:07:50Z</time>
      </trkpt>
      <trkpt lat="49.58661" lon="-1.2613">
        <ele>0.7</ele>
        <time>2020-06-15T12:07:51Z</time>
      </trkpt>
      <trkpt lat="49.58662" lon="-1.26132">
        <ele>0.7</ele>
        <time>2020-06-15T12:07:52Z</time>
      </trkpt>
      <trkpt lat="49.58663" lon="-1.26134">
        <ele>0.7</ele>
        <time>2020-06-15T12:07:53Z</time>
      </trkpt>
      <trkpt lat="49.58664" lon="-1.26136">
        <ele>0.7</ele>
        <time>2020-06-15T12:07:54Z</time>
      </trkpt>
      <trkpt lat="49.58664" lon="-1.26137">
        <ele>0.7</ele>
        <time>2020-06-15T12:07:55Z</time>
      </trkpt>
      <trkpt lat="49.58665" lon="-1.2614">
        <ele>0.7</ele>
        <time>2020-06-15T12:07:56Z</time>
      </trkpt>
      <trkpt lat="49.58666" lon="-1.26141">
        <ele>0.7</ele>
        <time>2020-06-15T12:07:57Z</time>
      </trkpt>
      <trkpt lat="49.58668" lon="-1.26142">
        <ele>0.7</ele>
        <time>2020-06-15T12:07:58Z</time>
      </trkpt>
      <trkpt lat="49.58669" lon="-1.26143">
        <ele>0.7</ele>
        <time>2020-06-15T12:07:59Z</time>
      </trkpt>
      <trkpt lat="49.5867" lon="-1.26144">
        <ele>0.7</ele>
        <time>2020-06-15T12:08:00Z</time>
      </trkpt>
      <trkpt lat="49.58671" lon="-1.26145">
        <ele>0.7</ele>
        <time>2020-06-15T12:08:01Z</time>
      </trkpt>
      <trkpt lat="49.58673" lon="-1.26146">
        <ele>0.7</ele>
        <time>2020-06-15T12:08:02Z</time>
      </trkpt>
      <trkpt lat="49.58674" lon="-1.26147">
        <ele>0.7</ele>
        <time>2020-06-15T12:08:03Z</time>
      </trkpt>
      <trkpt lat="49.58675" lon="-1.26148">
        <ele>0.7</ele>
        <time>2020-06-15T12:08:04Z</time>
      </trkpt>
      <trkpt lat="49.58677" lon="-1.26151">
        <ele>0.7</ele>
        <time>2020-06-15T12:08:05Z</time>
      </trkpt>
      <trkpt lat="49.58677" lon="-1.26152">
        <ele>0.7</ele>
        <time>2020-06-15T12:08:06Z</time>
      </trkpt>
      <trkpt lat="49.58678" lon="-1.26153">
        <ele>0.7</ele>
        <time>2020-06-15T12:08:07Z</time>
      </trkpt>
      <trkpt lat="49.58679" lon="-1.26154">
        <ele>0.7</ele>
        <time>2020-06-15T12:08:08Z</time>
      </trkpt>
      <trkpt lat="49.5868" lon="-1.26156">
        <ele>0.7</ele>
        <time>2020-06-15T12:08:09Z</time>
      </trkpt>
      <trkpt lat="49.58681" lon="-1.26158">
        <ele>0.7</ele>
        <time>2020-06-15T12:08:10Z</time>
      </trkpt>
      <trkpt lat="49.58682" lon="-1.2616">
        <ele>0.7</ele>
        <time>2020-06-15T12:08:11Z</time>
      </trkpt>
      <trkpt lat="49.58683" lon="-1.26161">
        <ele>0.7</ele>
        <time>2020-06-15T12:08:12Z</time>
      </trkpt>
      <trkpt lat="49.58683" lon="-1.26162">
        <ele>0.7</ele>
        <time>2020-06-15T12:08:13Z</time>
      </trkpt>
      <trkpt lat="49.58683" lon="-1.26163">
        <ele>0.7</ele>
        <time>2020-06-15T12:08:14Z</time>
      </trkpt>
      <trkpt lat="49.58684" lon="-1.26164">
        <ele>0.7</ele>
        <time>2020-06-15T12:08:15Z</time>
      </trkpt>
      <trkpt lat="49.58684" lon="-1.26165">
        <ele>0.7</ele>
        <time>2020-06-15T12:08:16Z</time>
      </trkpt>
      <trkpt lat="49.58685" lon="-1.26167">
        <ele>0.7</ele>
        <time>2020-06-15T12:08:17Z</time>
      </trkpt>
      <trkpt lat="49.58685" lon="-1.26167">
        <ele>0.7</ele>
        <time>2020-06-15T12:08:18Z</time>
      </trkpt>
      <trkpt lat="49.58686" lon="-1.26167">
        <ele>0.7</ele>
        <time>2020-06-15T12:08:19Z</time>
      </trkpt>
      <trkpt lat="49.58686" lon="-1.26167">
        <ele>0.7</ele>
        <time>2020-06-15T12:08:20Z</time>
      </trkpt>
      <trkpt lat="49.58686" lon="-1.26167">
        <ele>0.7</ele>
        <time>2020-06-15T12:08:21Z</time>
      </trkpt>
      <trkpt lat="49.58687" lon="-1.26168">
        <ele>0.7</ele>
        <time>2020-06-15T12:08:22Z</time>
      </trkpt>
      <trkpt lat="49.58687" lon="-1.26168">
        <ele>0.7</ele>
        <time>2020-06-15T12:08:23Z</time>
      </trkpt>
      <trkpt lat="49.58687" lon="-1.26168">
        <ele>0.7</ele>
        <time>2020-06-15T12:08:24Z</time>
      </trkpt>
      <trkpt lat="49.58687" lon="-1.26168">
        <ele>0.8</ele>
        <time>2020-06-15T12:08:25Z</time>
      </trkpt>
      <trkpt lat="49.58687" lon="-1.26168">
        <ele>0.8</ele>
        <time>2020-06-15T12:08:26Z</time>
      </trkpt>
      <trkpt lat="49.58687" lon="-1.26168">
        <ele>0.8</ele>
        <time>2020-06-15T12:08:27Z</time>
      </trkpt>
      <trkpt lat="49.58687" lon="-1.26168">
        <ele>0.8</ele>
        <time>2020-06-15T12:08:28Z</time>
      </trkpt>
      <trkpt lat="49.58687" lon="-1.26168">
        <ele>0.8</ele>
        <time>2020-06-15T12:08:29Z</time>
      </trkpt>
      <trkpt lat="49.58687" lon="-1.26168">
        <ele>0.8</ele>
        <time>2020-06-15T12:08:30Z</time>
      </trkpt>
      <trkpt lat="49.58687" lon="-1.26168">
        <ele>0.8</ele>
        <time>2020-06-15T12:08:31Z</time>
      </trkpt>
      <trkpt lat="49.58687" lon="-1.26168">
        <ele>0.8</ele>
        <time>2020-06-15T12:08:32Z</time>
      </trkpt>
      <trkpt lat="49.58687" lon="-1.26169">
        <ele>0.8</ele>
        <time>2020-06-15T12:08:33Z</time>
      </trkpt>
      <trkpt lat="49.58691" lon="-1.26175">
        <ele>0.8</ele>
        <time>2020-06-15T12:08:50Z</time>
      </trkpt>
      <trkpt lat="49.58692" lon="-1.26178">
        <ele>0.8</ele>
        <time>2020-06-15T12:08:51Z</time>
      </trkpt>
      <trkpt lat="49.58694" lon="-1.26181">
        <ele>0.8</ele>
        <time>2020-06-15T12:08:52Z</time>
      </trkpt>
      <trkpt lat="49.58694" lon="-1.26182">
        <ele>0.8</ele>
        <time>2020-06-15T12:08:53Z</time>
      </trkpt>
      <trkpt lat="49.58695" lon="-1.26184">
        <ele>0.8</ele>
        <time>2020-06-15T12:08:54Z</time>
      </trkpt>
      <trkpt lat="49.58696" lon="-1.26186">
        <ele>0.8</ele>
        <time>2020-06-15T12:08:55Z</time>
      </trkpt>
      <trkpt lat="49.58697" lon="-1.26189">
        <ele>0.8</ele>
        <time>2020-06-15T12:08:56Z</time>
      </trkpt>
      <trkpt lat="49.58698" lon="-1.26191">
        <ele>0.8</ele>
        <time>2020-06-15T12:08:57Z</time>
      </trkpt>
      <trkpt lat="49.58699" lon="-1.26193">
        <ele>0.8</ele>
        <time>2020-06-15T12:08:58Z</time>
      </trkpt>
      <trkpt lat="49.587" lon="-1.26195">
        <ele>0.8</ele>
        <time>2020-06-15T12:08:59Z</time>
      </trkpt>
      <trkpt lat="49.58701" lon="-1.26197">
        <ele>0.8</ele>
        <time>2020-06-15T12:09:00Z</time>
      </trkpt>
      <trkpt lat="49.58701" lon="-1.26199">
        <ele>0.8</ele>
        <time>2020-06-15T12:09:01Z</time>
      </trkpt>
      <trkpt lat="49.58702" lon="-1.26201">
        <ele>0.8</ele>
        <time>2020-06-15T12:09:02Z</time>
      </trkpt>
      <trkpt lat="49.58703" lon="-1.26202">
        <ele>0.8</ele>
        <time>2020-06-15T12:09:03Z</time>
      </trkpt>
      <trkpt lat="49.58706" lon="-1.26203">
        <ele>0.8</ele>
        <time>2020-06-15T12:09:04Z</time>
      </trkpt>
      <trkpt lat="49.58707" lon="-1.26202">
        <ele>0.7</ele>
        <time>2020-06-15T12:09:05Z</time>
      </trkpt>
      <trkpt lat="49.58711" lon="-1.26204">
        <ele>0.7</ele>
        <time>2020-06-15T12:09:06Z</time>
      </trkpt>
      <trkpt lat="49.58712" lon="-1.26204">
        <ele>0.7</ele>
        <time>2020-06-15T12:09:07Z</time>
      </trkpt>
      <trkpt lat="49.58715" lon="-1.26208">
        <ele>0.6</ele>
        <time>2020-06-15T12:09:08Z</time>
      </trkpt>
      <trkpt lat="49.58716" lon="-1.2621">
        <ele>0.6</ele>
        <time>2020-06-15T12:09:09Z</time>
      </trkpt>
      <trkpt lat="49.58718" lon="-1.26214">
        <ele>0.4</ele>
        <time>2020-06-15T12:09:10Z</time>
      </trkpt>
      <trkpt lat="49.58719" lon="-1.26216">
        <ele>0.4</ele>
        <time>2020-06-15T12:09:11Z</time>
      </trkpt>
      <trkpt lat="49.58721" lon="-1.26218">
        <ele>0.2</ele>
        <time>2020-06-15T12:09:12Z</time>
      </trkpt>
      <trkpt lat="49.58724" lon="-1.26221">
        <ele>0.1</ele>
        <time>2020-06-15T12:09:13Z</time>
      </trkpt>
      <trkpt lat="49.58727" lon="-1.26225">
        <ele>4.8</ele>
        <time>2020-06-15T12:09:14Z</time>
      </trkpt>
      <trkpt lat="49.58728" lon="-1.26227">
        <ele>0.1</ele>
        <time>2020-06-15T12:09:15Z</time>
      </trkpt>
      <trkpt lat="49.58731" lon="-1.26231">
        <ele>0.1</ele>
        <time>2020-06-15T12:09:16Z</time>
      </trkpt>
      <trkpt lat="49.58733" lon="-1.26235">
        <ele>0.1</ele>
        <time>2020-06-15T12:09:17Z</time>
      </trkpt>
      <trkpt lat="49.58736" lon="-1.26239">
        <ele>0.1</ele>
        <time>2020-06-15T12:09:18Z</time>
      </trkpt>
      <trkpt lat="49.58739" lon="-1.26242">
        <ele>0.1</ele>
        <time>2020-06-15T12:09:19Z</time>
      </trkpt>
      <trkpt lat="49.58741" lon="-1.26247">
        <ele>0.1</ele>
        <time>2020-06-15T12:09:20Z</time>
      </trkpt>
      <trkpt lat="49.58743" lon="-1.2625">
        <ele>0.1</ele>
        <time>2020-06-15T12:09:21Z</time>
      </trkpt>
      <trkpt lat="49.58744" lon="-1.26255">
        <ele>0.1</ele>
        <time>2020-06-15T12:09:22Z</time>
      </trkpt>
      <trkpt lat="49.58746" lon="-1.26258">
        <ele>1</ele>
        <time>2020-06-15T12:09:23Z</time>
      </trkpt>
      <trkpt lat="49.58748" lon="-1.2626">
        <ele>1</ele>
        <time>2020-06-15T12:09:24Z</time>
      </trkpt>
      <trkpt lat="49.58751" lon="-1.26264">
        <ele>-0.1</ele>
        <time>2020-06-15T12:09:25Z</time>
      </trkpt>
      <trkpt lat="49.58752" lon="-1.26265">
        <ele>-0.1</ele>
        <time>2020-06-15T12:09:26Z</time>
      </trkpt>
      <trkpt lat="49.58755" lon="-1.26268">
        <ele>-0.2</ele>
        <time>2020-06-15T12:09:27Z</time>
      </trkpt>
      <trkpt lat="49.58757" lon="-1.26271">
        <ele>-0.2</ele>
        <time>2020-06-15T12:09:28Z</time>
      </trkpt>
      <trkpt lat="49.58761" lon="-1.26274">
        <ele>-0.3</ele>
        <time>2020-06-15T12:09:29Z</time>
      </trkpt>
      <trkpt lat="49.58762" lon="-1.26276">
        <ele>-0.3</ele>
        <time>2020-06-15T12:09:30Z</time>
      </trkpt>
      <trkpt lat="49.58765" lon="-1.26278">
        <ele>-0.3</ele>
        <time>2020-06-15T12:09:31Z</time>
      </trkpt>
      <trkpt lat="49.58769" lon="-1.26279">
        <ele>-0.2</ele>
        <time>2020-06-15T12:09:32Z</time>
      </trkpt>
      <trkpt lat="49.58771" lon="-1.26279">
        <ele>-0.2</ele>
        <time>2020-06-15T12:09:33Z</time>
      </trkpt>
      <trkpt lat="49.58774" lon="-1.26279">
        <ele>-0.2</ele>
        <time>2020-06-15T12:09:34Z</time>
      </trkpt>
      <trkpt lat="49.58777" lon="-1.26278">
        <ele>-0.2</ele>
        <time>2020-06-15T12:09:35Z</time>
      </trkpt>
      <trkpt lat="49.58782" lon="-1.26277">
        <ele>-0.3</ele>
        <time>2020-06-15T12:09:36Z</time>
      </trkpt>
      <trkpt lat="49.58785" lon="-1.26274">
        <ele>-0.3</ele>
        <time>2020-06-15T12:09:37Z</time>
      </trkpt>
      <trkpt lat="49.58789" lon="-1.26271">
        <ele>-0.3</ele>
        <time>2020-06-15T12:09:38Z</time>
      </trkpt>
      <trkpt lat="49.58793" lon="-1.26268">
        <ele>-0.2</ele>
        <time>2020-06-15T12:09:39Z</time>
      </trkpt>
      <trkpt lat="49.58796" lon="-1.26265">
        <ele>-0.1</ele>
        <time>2020-06-15T12:09:40Z</time>
      </trkpt>
      <trkpt lat="49.58799" lon="-1.26262">
        <ele>3.7</ele>
        <time>2020-06-15T12:09:41Z</time>
      </trkpt>
      <trkpt lat="49.58802" lon="-1.26257">
        <ele>0.1</ele>
        <time>2020-06-15T12:09:42Z</time>
      </trkpt>
      <trkpt lat="49.58805" lon="-1.26254">
        <ele>0.2</ele>
        <time>2020-06-15T12:09:43Z</time>
      </trkpt>
      <trkpt lat="49.58807" lon="-1.26251">
        <ele>0.2</ele>
        <time>2020-06-15T12:09:44Z</time>
      </trkpt>
      <trkpt lat="49.5881" lon="-1.26249">
        <ele>0.2</ele>
        <time>2020-06-15T12:09:45Z</time>
      </trkpt>
      <trkpt lat="49.58812" lon="-1.26245">
        <ele>0.2</ele>
        <time>2020-06-15T12:09:46Z</time>
      </trkpt>
      <trkpt lat="49.58815" lon="-1.26242">
        <ele>0.2</ele>
        <time>2020-06-15T12:09:47Z</time>
      </trkpt>
      <trkpt lat="49.58818" lon="-1.26238">
        <ele>0.1</ele>
        <time>2020-06-15T12:09:48Z</time>
      </trkpt>
      <trkpt lat="49.58821" lon="-1.26234">
        <ele>4.3</ele>
        <time>2020-06-15T12:09:49Z</time>
      </trkpt>
      <trkpt lat="49.58823" lon="-1.2623">
        <ele>-0.1</ele>
        <time>2020-06-15T12:09:50Z</time>
      </trkpt>
      <trkpt lat="49.58826" lon="-1.26226">
        <ele>-0.1</ele>
        <time>2020-06-15T12:09:51Z</time>
      </trkpt>
      <trkpt lat="49.58829" lon="-1.26222">
        <ele>-0.1</ele>
        <time>2020-06-15T12:09:52Z</time>
      </trkpt>
      <trkpt lat="49.5883" lon="-1.2622">
        <ele>-0.1</ele>
        <time>2020-06-15T12:09:53Z</time>
      </trkpt>
      <trkpt lat="49.58833" lon="-1.26217">
        <ele>-0.1</ele>
        <time>2020-06-15T12:09:54Z</time>
      </trkpt>
      <trkpt lat="49.58834" lon="-1.26217">
        <ele>-0.1</ele>
        <time>2020-06-15T12:09:55Z</time>
      </trkpt>
      <trkpt lat="49.58837" lon="-1.26219">
        <ele>-0.1</ele>
        <time>2020-06-15T12:09:56Z</time>
      </trkpt>
      <trkpt lat="49.58837" lon="-1.26221">
        <ele>-0.1</ele>
        <time>2020-06-15T12:09:57Z</time>
      </trkpt>
      <trkpt lat="49.58839" lon="-1.26227">
        <ele>-0.1</ele>
        <time>2020-06-15T12:09:58Z</time>
      </trkpt>
      <trkpt lat="49.5884" lon="-1.26229">
        <ele>-0.1</ele>
        <time>2020-06-15T12:09:59Z</time>
      </trkpt>
      <trkpt lat="49.58841" lon="-1.26234">
        <ele>-0.1</ele>
        <time>2020-06-15T12:10:00Z</time>
      </trkpt>
      <trkpt lat="49.58843" lon="-1.26238">
        <ele>-0.1</ele>
        <time>2020-06-15T12:10:01Z</time>
      </trkpt>
      <trkpt lat="49.58845" lon="-1.26241">
        <ele>-0.1</ele>
        <time>2020-06-15T12:10:02Z</time>
      </trkpt>
      <trkpt lat="49.58847" lon="-1.26245">
        <ele>-0.1</ele>
        <time>2020-06-15T12:10:03Z</time>
      </trkpt>
      <trkpt lat="49.58849" lon="-1.26248">
        <ele>-0.1</ele>
        <time>2020-06-15T12:10:04Z</time>
      </trkpt>
      <trkpt lat="49.5885" lon="-1.26249">
        <ele>-0.1</ele>
        <time>2020-06-15T12:10:05Z</time>
      </trkpt>
      <trkpt lat="49.58853" lon="-1.26252">
        <ele>-0.1</ele>
        <time>2020-06-15T12:10:06Z</time>
      </trkpt>
      <trkpt lat="49.58854" lon="-1.26254">
        <ele>-0.1</ele>
        <time>2020-06-15T12:10:07Z</time>
      </trkpt>
      <trkpt lat="49.58857" lon="-1.26257">
        <ele>-0.2</ele>
        <time>2020-06-15T12:10:08Z</time>
      </trkpt>
      <trkpt lat="49.58858" lon="-1.26258">
        <ele>-0.2</ele>
        <time>2020-06-15T12:10:09Z</time>
      </trkpt>
      <trkpt lat="49.5886" lon="-1.26261">
        <ele>-0.2</ele>
        <time>2020-06-15T12:10:10Z</time>
      </trkpt>
      <trkpt lat="49.58862" lon="-1.26263">
        <ele>-0.2</ele>
        <time>2020-06-15T12:10:11Z</time>
      </trkpt>
      <trkpt lat="49.58865" lon="-1.26266">
        <ele>-0.3</ele>
        <time>2020-06-15T12:10:12Z</time>
      </trkpt>
      <trkpt lat="49.58867" lon="-1.26269">
        <ele>-0.3</ele>
        <time>2020-06-15T12:10:13Z</time>
      </trkpt>
      <trkpt lat="49.58869" lon="-1.26272">
        <ele>-0.4</ele>
        <time>2020-06-15T12:10:14Z</time>
      </trkpt>
      <trkpt lat="49.58871" lon="-1.26276">
        <ele>-0.4</ele>
        <time>2020-06-15T12:10:15Z</time>
      </trkpt>
      <trkpt lat="49.58873" lon="-1.26279">
        <ele>-0.4</ele>
        <time>2020-06-15T12:10:16Z</time>
      </trkpt>
      <trkpt lat="49.58875" lon="-1.26282">
        <ele>-0.4</ele>
        <time>2020-06-15T12:10:17Z</time>
      </trkpt>
      <trkpt lat="49.58877" lon="-1.26286">
        <ele>-0.4</ele>
        <time>2020-06-15T12:10:18Z</time>
      </trkpt>
      <trkpt lat="49.58879" lon="-1.26289">
        <ele>-0.4</ele>
        <time>2020-06-15T12:10:19Z</time>
      </trkpt>
      <trkpt lat="49.58882" lon="-1.26293">
        <ele>-0.3</ele>
        <time>2020-06-15T12:10:20Z</time>
      </trkpt>
      <trkpt lat="49.58884" lon="-1.26294">
        <ele>-0.3</ele>
        <time>2020-06-15T12:10:21Z</time>
      </trkpt>
      <trkpt lat="49.58886" lon="-1.26298">
        <ele>-0.3</ele>
        <time>2020-06-15T12:10:22Z</time>
      </trkpt>
      <trkpt lat="49.58889" lon="-1.26302">
        <ele>-0.3</ele>
        <time>2020-06-15T12:10:23Z</time>
      </trkpt>
      <trkpt lat="49.5889" lon="-1.26304">
        <ele>-0.3</ele>
        <time>2020-06-15T12:10:24Z</time>
      </trkpt>
      <trkpt lat="49.58892" lon="-1.26307">
        <ele>-0.3</ele>
        <time>2020-06-15T12:10:25Z</time>
      </trkpt>
      <trkpt lat="49.58893" lon="-1.26308">
        <ele>-0.3</ele>
        <time>2020-06-15T12:10:26Z</time>
      </trkpt>
      <trkpt lat="49.58896" lon="-1.26311">
        <ele>-0.4</ele>
        <time>2020-06-15T12:10:27Z</time>
      </trkpt>
      <trkpt lat="49.58897" lon="-1.26313">
        <ele>-0.4</ele>
        <time>2020-06-15T12:10:28Z</time>
      </trkpt>
      <trkpt lat="49.589" lon="-1.26316">
        <ele>-0.4</ele>
        <time>2020-06-15T12:10:29Z</time>
      </trkpt>
      <trkpt lat="49.589" lon="-1.26318">
        <ele>-0.4</ele>
        <time>2020-06-15T12:10:30Z</time>
      </trkpt>
      <trkpt lat="49.58903" lon="-1.26322">
        <ele>-0.4</ele>
        <time>2020-06-15T12:10:31Z</time>
      </trkpt>
      <trkpt lat="49.58903" lon="-1.26323">
        <ele>-0.4</ele>
        <time>2020-06-15T12:10:32Z</time>
      </trkpt>
      <trkpt lat="49.58906" lon="-1.26327">
        <ele>-0.5</ele>
        <time>2020-06-15T12:10:33Z</time>
      </trkpt>
      <trkpt lat="49.58908" lon="-1.26328">
        <ele>-0.5</ele>
        <time>2020-06-15T12:10:34Z</time>
      </trkpt>
      <trkpt lat="49.5891" lon="-1.26331">
        <ele>-0.5</ele>
        <time>2020-06-15T12:10:35Z</time>
      </trkpt>
      <trkpt lat="49.58912" lon="-1.26334">
        <ele>-0.5</ele>
        <time>2020-06-15T12:10:36Z</time>
      </trkpt>
      <trkpt lat="49.58914" lon="-1.26338">
        <ele>-0.5</ele>
        <time>2020-06-15T12:10:37Z</time>
      </trkpt>
      <trkpt lat="49.58916" lon="-1.26341">
        <ele>-0.6</ele>
        <time>2020-06-15T12:10:38Z</time>
      </trkpt>
      <trkpt lat="49.58918" lon="-1.26344">
        <ele>-0.6</ele>
        <time>2020-06-15T12:10:39Z</time>
      </trkpt>
      <trkpt lat="49.5892" lon="-1.26348">
        <ele>-0.6</ele>
        <time>2020-06-15T12:10:40Z</time>
      </trkpt>
      <trkpt lat="49.58922" lon="-1.26353">
        <ele>-0.5</ele>
        <time>2020-06-15T12:10:41Z</time>
      </trkpt>
      <trkpt lat="49.58923" lon="-1.26354">
        <ele>-0.5</ele>
        <time>2020-06-15T12:10:42Z</time>
      </trkpt>
      <trkpt lat="49.58925" lon="-1.26359">
        <ele>-0.5</ele>
        <time>2020-06-15T12:10:43Z</time>
      </trkpt>
      <trkpt lat="49.58926" lon="-1.2636">
        <ele>-0.5</ele>
        <time>2020-06-15T12:10:44Z</time>
      </trkpt>
      <trkpt lat="49.58928" lon="-1.26364">
        <ele>-0.5</ele>
        <time>2020-06-15T12:10:45Z</time>
      </trkpt>
      <trkpt lat="49.58928" lon="-1.26365">
        <ele>-0.5</ele>
        <time>2020-06-15T12:10:46Z</time>
      </trkpt>
      <trkpt lat="49.58931" lon="-1.26369">
        <ele>-0.4</ele>
        <time>2020-06-15T12:10:47Z</time>
      </trkpt>
      <trkpt lat="49.58932" lon="-1.2637">
        <ele>-0.4</ele>
        <time>2020-06-15T12:10:48Z</time>
      </trkpt>
      <trkpt lat="49.58934" lon="-1.26375">
        <ele>-0.4</ele>
        <time>2020-06-15T12:10:49Z</time>
      </trkpt>
      <trkpt lat="49.58934" lon="-1.26376">
        <ele>-0.4</ele>
        <time>2020-06-15T12:10:50Z</time>
      </trkpt>
      <trkpt lat="49.58936" lon="-1.26379">
        <ele>-0.4</ele>
        <time>2020-06-15T12:10:51Z</time>
      </trkpt>
      <trkpt lat="49.58939" lon="-1.26383">
        <ele>-0.3</ele>
        <time>2020-06-15T12:10:52Z</time>
      </trkpt>
      <trkpt lat="49.58941" lon="-1.26386">
        <ele>-0.3</ele>
        <time>2020-06-15T12:10:53Z</time>
      </trkpt>
      <trkpt lat="49.58943" lon="-1.2639">
        <ele>-0.3</ele>
        <time>2020-06-15T12:10:54Z</time>
      </trkpt>
      <trkpt lat="49.58944" lon="-1.26392">
        <ele>-0.3</ele>
        <time>2020-06-15T12:10:55Z</time>
      </trkpt>
      <trkpt lat="49.58946" lon="-1.26395">
        <ele>-0.3</ele>
        <time>2020-06-15T12:10:56Z</time>
      </trkpt>
      <trkpt lat="49.58949" lon="-1.26398">
        <ele>-0.3</ele>
        <time>2020-06-15T12:10:57Z</time>
      </trkpt>
      <trkpt lat="49.58951" lon="-1.264">
        <ele>-0.3</ele>
        <time>2020-06-15T12:10:58Z</time>
      </trkpt>
      <trkpt lat="49.58953" lon="-1.26404">
        <ele>-0.3</ele>
        <time>2020-06-15T12:10:59Z</time>
      </trkpt>
      <trkpt lat="49.58954" lon="-1.26407">
        <ele>-0.4</ele>
        <time>2020-06-15T12:11:00Z</time>
      </trkpt>
      <trkpt lat="49.58956" lon="-1.2641">
        <ele>-0.4</ele>
        <time>2020-06-15T12:11:01Z</time>
      </trkpt>
      <trkpt lat="49.58959" lon="-1.26414">
        <ele>-0.4</ele>
        <time>2020-06-15T12:11:02Z</time>
      </trkpt>
      <trkpt lat="49.5896" lon="-1.26416">
        <ele>-0.4</ele>
        <time>2020-06-15T12:11:03Z</time>
      </trkpt>
      <trkpt lat="49.58962" lon="-1.26419">
        <ele>-0.4</ele>
        <time>2020-06-15T12:11:04Z</time>
      </trkpt>
      <trkpt lat="49.58963" lon="-1.26423">
        <ele>-0.4</ele>
        <time>2020-06-15T12:11:05Z</time>
      </trkpt>
      <trkpt lat="49.58965" lon="-1.26426">
        <ele>-0.4</ele>
        <time>2020-06-15T12:11:06Z</time>
      </trkpt>
      <trkpt lat="49.58968" lon="-1.2643">
        <ele>-0.3</ele>
        <time>2020-06-15T12:11:07Z</time>
      </trkpt>
      <trkpt lat="49.58968" lon="-1.26432">
        <ele>-0.3</ele>
        <time>2020-06-15T12:11:08Z</time>
      </trkpt>
      <trkpt lat="49.58971" lon="-1.26437">
        <ele>-0.2</ele>
        <time>2020-06-15T12:11:09Z</time>
      </trkpt>
      <trkpt lat="49.58971" lon="-1.26439">
        <ele>-0.2</ele>
        <time>2020-06-15T12:11:10Z</time>
      </trkpt>
      <trkpt lat="49.58973" lon="-1.26443">
        <ele>-0.1</ele>
        <time>2020-06-15T12:11:11Z</time>
      </trkpt>
      <trkpt lat="49.58973" lon="-1.26445">
        <ele>-0.1</ele>
        <time>2020-06-15T12:11:12Z</time>
      </trkpt>
      <trkpt lat="49.58974" lon="-1.2645">
        <ele>3.9</ele>
        <time>2020-06-15T12:11:13Z</time>
      </trkpt>
      <trkpt lat="49.58974" lon="-1.26451">
        <ele>0.1</ele>
        <time>2020-06-15T12:11:14Z</time>
      </trkpt>
      <trkpt lat="49.58976" lon="-1.26456">
        <ele>0.1</ele>
        <time>2020-06-15T12:11:15Z</time>
      </trkpt>
      <trkpt lat="49.58976" lon="-1.26457">
        <ele>0.2</ele>
        <time>2020-06-15T12:11:16Z</time>
      </trkpt>
      <trkpt lat="49.58978" lon="-1.26458">
        <ele>0.3</ele>
        <time>2020-06-15T12:11:17Z</time>
      </trkpt>
      <trkpt lat="49.5898" lon="-1.26459">
        <ele>0.4</ele>
        <time>2020-06-15T12:11:18Z</time>
      </trkpt>
      <trkpt lat="49.58983" lon="-1.26462">
        <ele>0.4</ele>
        <time>2020-06-15T12:11:19Z</time>
      </trkpt>
      <trkpt lat="49.58984" lon="-1.26463">
        <ele>0.5</ele>
        <time>2020-06-15T12:11:20Z</time>
      </trkpt>
      <trkpt lat="49.58984" lon="-1.26465">
        <ele>0.5</ele>
        <time>2020-06-15T12:11:21Z</time>
      </trkpt>
      <trkpt lat="49.58982" lon="-1.26464">
        <ele>0.6</ele>
        <time>2020-06-15T12:11:22Z</time>
      </trkpt>
      <trkpt lat="49.58981" lon="-1.26463">
        <ele>0.6</ele>
        <time>2020-06-15T12:11:23Z</time>
      </trkpt>
      <trkpt lat="49.5898" lon="-1.26463">
        <ele>0.7</ele>
        <time>2020-06-15T12:11:24Z</time>
      </trkpt>
      <trkpt lat="49.58979" lon="-1.26462">
        <ele>0.7</ele>
        <time>2020-06-15T12:11:25Z</time>
      </trkpt>
      <trkpt lat="49.58978" lon="-1.2646">
        <ele>0.7</ele>
        <time>2020-06-15T12:11:26Z</time>
      </trkpt>
      <trkpt lat="49.58979" lon="-1.26457">
        <ele>0.8</ele>
        <time>2020-06-15T12:11:27Z</time>
      </trkpt>
      <trkpt lat="49.58981" lon="-1.26452">
        <ele>0.9</ele>
        <time>2020-06-15T12:11:28Z</time>
      </trkpt>
      <trkpt lat="49.58981" lon="-1.2645">
        <ele>0.9</ele>
        <time>2020-06-15T12:11:29Z</time>
      </trkpt>
      <trkpt lat="49.58982" lon="-1.26446">
        <ele>1</ele>
        <time>2020-06-15T12:11:30Z</time>
      </trkpt>
      <trkpt lat="49.58984" lon="-1.26441">
        <ele>1</ele>
        <time>2020-06-15T12:11:31Z</time>
      </trkpt>
      <trkpt lat="49.58985" lon="-1.26437">
        <ele>1.1</ele>
        <time>2020-06-15T12:11:32Z</time>
      </trkpt>
      <trkpt lat="49.58986" lon="-1.26433">
        <ele>1.2</ele>
        <time>2020-06-15T12:11:33Z</time>
      </trkpt>
      <trkpt lat="49.58988" lon="-1.26429">
        <ele>1.2</ele>
        <time>2020-06-15T12:11:34Z</time>
      </trkpt>
      <trkpt lat="49.5899" lon="-1.26426">
        <ele>1.3</ele>
        <time>2020-06-15T12:11:35Z</time>
      </trkpt>
      <trkpt lat="49.58993" lon="-1.26423">
        <ele>1.4</ele>
        <time>2020-06-15T12:11:36Z</time>
      </trkpt>
      <trkpt lat="49.58996" lon="-1.26421">
        <ele>1.4</ele>
        <time>2020-06-15T12:11:37Z</time>
      </trkpt>
      <trkpt lat="49.59" lon="-1.26419">
        <ele>1.5</ele>
        <time>2020-06-15T12:11:38Z</time>
      </trkpt>
      <trkpt lat="49.59003" lon="-1.26418">
        <ele>1.5</ele>
        <time>2020-06-15T12:11:39Z</time>
      </trkpt>
      <trkpt lat="49.59007" lon="-1.26415">
        <ele>1.6</ele>
        <time>2020-06-15T12:11:40Z</time>
      </trkpt>
      <trkpt lat="49.59011" lon="-1.26414">
        <ele>1.6</ele>
        <time>2020-06-15T12:11:41Z</time>
      </trkpt>
      <trkpt lat="49.59015" lon="-1.26412">
        <ele>1.7</ele>
        <time>2020-06-15T12:11:42Z</time>
      </trkpt>
      <trkpt lat="49.59019" lon="-1.26414">
        <ele>1.7</ele>
        <time>2020-06-15T12:11:43Z</time>
      </trkpt>
      <trkpt lat="49.59022" lon="-1.26418">
        <ele>1.7</ele>
        <time>2020-06-15T12:11:44Z</time>
      </trkpt>
      <trkpt lat="49.59024" lon="-1.26422">
        <ele>1.8</ele>
        <time>2020-06-15T12:11:45Z</time>
      </trkpt>
      <trkpt lat="49.59027" lon="-1.26427">
        <ele>1.8</ele>
        <time>2020-06-15T12:11:46Z</time>
      </trkpt>
      <trkpt lat="49.59029" lon="-1.26433">
        <ele>1.8</ele>
        <time>2020-06-15T12:11:47Z</time>
      </trkpt>
      <trkpt lat="49.59031" lon="-1.26439">
        <ele>1.8</ele>
        <time>2020-06-15T12:11:48Z</time>
      </trkpt>
      <trkpt lat="49.59032" lon="-1.26445">
        <ele>1.9</ele>
        <time>2020-06-15T12:11:49Z</time>
      </trkpt>
      <trkpt lat="49.59034" lon="-1.26452">
        <ele>1.9</ele>
        <time>2020-06-15T12:11:50Z</time>
      </trkpt>
      <trkpt lat="49.59036" lon="-1.2646">
        <ele>1.9</ele>
        <time>2020-06-15T12:11:51Z</time>
      </trkpt>
      <trkpt lat="49.59037" lon="-1.26467">
        <ele>1.9</ele>
        <time>2020-06-15T12:11:52Z</time>
      </trkpt>
      <trkpt lat="49.59038" lon="-1.26475">
        <ele>1.9</ele>
        <time>2020-06-15T12:11:53Z</time>
      </trkpt>
      <trkpt lat="49.59038" lon="-1.26482">
        <ele>1.9</ele>
        <time>2020-06-15T12:11:54Z</time>
      </trkpt>
      <trkpt lat="49.59039" lon="-1.26488">
        <ele>1.9</ele>
        <time>2020-06-15T12:11:55Z</time>
      </trkpt>
      <trkpt lat="49.59039" lon="-1.26495">
        <ele>1.9</ele>
        <time>2020-06-15T12:11:56Z</time>
      </trkpt>
      <trkpt lat="49.5904" lon="-1.26502">
        <ele>1.9</ele>
        <time>2020-06-15T12:11:57Z</time>
      </trkpt>
      <trkpt lat="49.59039" lon="-1.26508">
        <ele>1.9</ele>
        <time>2020-06-15T12:11:58Z</time>
      </trkpt>
      <trkpt lat="49.59039" lon="-1.26514">
        <ele>1.9</ele>
        <time>2020-06-15T12:11:59Z</time>
      </trkpt>
      <trkpt lat="49.59039" lon="-1.26519">
        <ele>1.9</ele>
        <time>2020-06-15T12:12:00Z</time>
      </trkpt>
      <trkpt lat="49.59039" lon="-1.26525">
        <ele>1.9</ele>
        <time>2020-06-15T12:12:01Z</time>
      </trkpt>
      <trkpt lat="49.59038" lon="-1.2653">
        <ele>1.9</ele>
        <time>2020-06-15T12:12:02Z</time>
      </trkpt>
      <trkpt lat="49.59038" lon="-1.26536">
        <ele>2</ele>
        <time>2020-06-15T12:12:03Z</time>
      </trkpt>
      <trkpt lat="49.59038" lon="-1.26543">
        <ele>2</ele>
        <time>2020-06-15T12:12:04Z</time>
      </trkpt>
      <trkpt lat="49.59038" lon="-1.2655">
        <ele>2.1</ele>
        <time>2020-06-15T12:12:05Z</time>
      </trkpt>
      <trkpt lat="49.59038" lon="-1.26556">
        <ele>2.1</ele>
        <time>2020-06-15T12:12:06Z</time>
      </trkpt>
      <trkpt lat="49.59038" lon="-1.26562">
        <ele>2.1</ele>
        <time>2020-06-15T12:12:07Z</time>
      </trkpt>
      <trkpt lat="49.59038" lon="-1.26568">
        <ele>2.2</ele>
        <time>2020-06-15T12:12:08Z</time>
      </trkpt>
      <trkpt lat="49.59038" lon="-1.26574">
        <ele>2.2</ele>
        <time>2020-06-15T12:12:09Z</time>
      </trkpt>
      <trkpt lat="49.59038" lon="-1.26579">
        <ele>2.2</ele>
        <time>2020-06-15T12:12:10Z</time>
      </trkpt>
      <trkpt lat="49.59038" lon="-1.26583">
        <ele>2.3</ele>
        <time>2020-06-15T12:12:11Z</time>
      </trkpt>
      <trkpt lat="49.59036" lon="-1.26588">
        <ele>2.3</ele>
        <time>2020-06-15T12:12:12Z</time>
      </trkpt>
      <trkpt lat="49.59035" lon="-1.26591">
        <ele>2.3</ele>
        <time>2020-06-15T12:12:13Z</time>
      </trkpt>
      <trkpt lat="49.59032" lon="-1.26595">
        <ele>2.3</ele>
        <time>2020-06-15T12:12:14Z</time>
      </trkpt>
      <trkpt lat="49.5903" lon="-1.26599">
        <ele>2.3</ele>
        <time>2020-06-15T12:12:15Z</time>
      </trkpt>
      <trkpt lat="49.59027" lon="-1.26602">
        <ele>2.3</ele>
        <time>2020-06-15T12:12:16Z</time>
      </trkpt>
      <trkpt lat="49.59024" lon="-1.26603">
        <ele>2.3</ele>
        <time>2020-06-15T12:12:17Z</time>
      </trkpt>
      <trkpt lat="49.59022" lon="-1.26603">
        <ele>2.3</ele>
        <time>2020-06-15T12:12:18Z</time>
      </trkpt>
      <trkpt lat="49.59021" lon="-1.26603">
        <ele>2.3</ele>
        <time>2020-06-15T12:12:19Z</time>
      </trkpt>
      <trkpt lat="49.59021" lon="-1.26603">
        <ele>2.3</ele>
        <time>2020-06-15T12:12:20Z</time>
      </trkpt>
      <trkpt lat="49.59021" lon="-1.26603">
        <ele>2.4</ele>
        <time>2020-06-15T12:12:21Z</time>
      </trkpt>
      <trkpt lat="49.59022" lon="-1.26602">
        <ele>2.4</ele>
        <time>2020-06-15T12:12:22Z</time>
      </trkpt>
      <trkpt lat="49.59021" lon="-1.26601">
        <ele>2.4</ele>
        <time>2020-06-15T12:12:23Z</time>
      </trkpt>
      <trkpt lat="49.59022" lon="-1.26601">
        <ele>2.4</ele>
        <time>2020-06-15T12:12:24Z</time>
      </trkpt>
      <trkpt lat="49.59022" lon="-1.26601">
        <ele>2.4</ele>
        <time>2020-06-15T12:12:25Z</time>
      </trkpt>
      <trkpt lat="49.59023" lon="-1.26602">
        <ele>2.4</ele>
        <time>2020-06-15T12:12:26Z</time>
      </trkpt>
      <trkpt lat="49.59023" lon="-1.26602">
        <ele>2.4</ele>
        <time>2020-06-15T12:12:27Z</time>
      </trkpt>
      <trkpt lat="49.59022" lon="-1.26603">
        <ele>2.4</ele>
        <time>2020-06-15T12:12:28Z</time>
      </trkpt>
      <trkpt lat="49.59021" lon="-1.26602">
        <ele>2.4</ele>
        <time>2020-06-15T12:12:29Z</time>
      </trkpt>
      <trkpt lat="49.5902" lon="-1.26602">
        <ele>2.4</ele>
        <time>2020-06-15T12:12:30Z</time>
      </trkpt>
      <trkpt lat="49.5902" lon="-1.26602">
        <ele>2.4</ele>
        <time>2020-06-15T12:12:31Z</time>
      </trkpt>
      <trkpt lat="49.59019" lon="-1.26601">
        <ele>2.4</ele>
        <time>2020-06-15T12:12:32Z</time>
      </trkpt>
      <trkpt lat="49.59016" lon="-1.26599">
        <ele>2.3</ele>
        <time>2020-06-15T12:12:33Z</time>
      </trkpt>
      <trkpt lat="49.59011" lon="-1.26596">
        <ele>2.3</ele>
        <time>2020-06-15T12:12:34Z</time>
      </trkpt>
      <trkpt lat="49.59007" lon="-1.26593">
        <ele>2.3</ele>
        <time>2020-06-15T12:12:35Z</time>
      </trkpt>
      <trkpt lat="49.59003" lon="-1.26591">
        <ele>2.3</ele>
        <time>2020-06-15T12:12:36Z</time>
      </trkpt>
      <trkpt lat="49.59" lon="-1.2659">
        <ele>2.3</ele>
        <time>2020-06-15T12:12:37Z</time>
      </trkpt>
      <trkpt lat="49.58996" lon="-1.26588">
        <ele>2.3</ele>
        <time>2020-06-15T12:12:38Z</time>
      </trkpt>
      <trkpt lat="49.58993" lon="-1.26586">
        <ele>2.3</ele>
        <time>2020-06-15T12:12:39Z</time>
      </trkpt>
      <trkpt lat="49.5899" lon="-1.26583">
        <ele>2.3</ele>
        <time>2020-06-15T12:12:40Z</time>
      </trkpt>
      <trkpt lat="49.58987" lon="-1.26581">
        <ele>2.3</ele>
        <time>2020-06-15T12:12:41Z</time>
      </trkpt>
      <trkpt lat="49.58984" lon="-1.26581">
        <ele>2.3</ele>
        <time>2020-06-15T12:12:42Z</time>
      </trkpt>
      <trkpt lat="49.58981" lon="-1.26582">
        <ele>2.3</ele>
        <time>2020-06-15T12:12:43Z</time>
      </trkpt>
      <trkpt lat="49.58978" lon="-1.26583">
        <ele>2.3</ele>
        <time>2020-06-15T12:12:44Z</time>
      </trkpt>
      <trkpt lat="49.58975" lon="-1.26583">
        <ele>2.3</ele>
        <time>2020-06-15T12:12:45Z</time>
      </trkpt>
      <trkpt lat="49.58972" lon="-1.26584">
        <ele>2.3</ele>
        <time>2020-06-15T12:12:46Z</time>
      </trkpt>
      <trkpt lat="49.58969" lon="-1.26586">
        <ele>2.3</ele>
        <time>2020-06-15T12:12:47Z</time>
      </trkpt>
      <trkpt lat="49.58966" lon="-1.26588">
        <ele>2.3</ele>
        <time>2020-06-15T12:12:48Z</time>
      </trkpt>
      <trkpt lat="49.58962" lon="-1.2659">
        <ele>2.3</ele>
        <time>2020-06-15T12:12:49Z</time>
      </trkpt>
      <trkpt lat="49.5896" lon="-1.26591">
        <ele>2.3</ele>
        <time>2020-06-15T12:12:50Z</time>
      </trkpt>
      <trkpt lat="49.58958" lon="-1.26593">
        <ele>2.4</ele>
        <time>2020-06-15T12:12:51Z</time>
      </trkpt>
      <trkpt lat="49.58955" lon="-1.26595">
        <ele>2.4</ele>
        <time>2020-06-15T12:12:52Z</time>
      </trkpt>
      <trkpt lat="49.58953" lon="-1.26597">
        <ele>2.4</ele>
        <time>2020-06-15T12:12:53Z</time>
      </trkpt>
      <trkpt lat="49.5895" lon="-1.266">
        <ele>2.3</ele>
        <time>2020-06-15T12:12:54Z</time>
      </trkpt>
      <trkpt lat="49.58948" lon="-1.26604">
        <ele>2.3</ele>
        <time>2020-06-15T12:12:55Z</time>
      </trkpt>
      <trkpt lat="49.58945" lon="-1.26606">
        <ele>2.3</ele>
        <time>2020-06-15T12:12:56Z</time>
      </trkpt>
      <trkpt lat="49.58942" lon="-1.26606">
        <ele>2.2</ele>
        <time>2020-06-15T12:12:57Z</time>
      </trkpt>
      <trkpt lat="49.5894" lon="-1.26606">
        <ele>2.2</ele>
        <time>2020-06-15T12:12:58Z</time>
      </trkpt>
      <trkpt lat="49.58937" lon="-1.26605">
        <ele>2.2</ele>
        <time>2020-06-15T12:12:59Z</time>
      </trkpt>
      <trkpt lat="49.58933" lon="-1.26604">
        <ele>2.2</ele>
        <time>2020-06-15T12:13:00Z</time>
      </trkpt>
      <trkpt lat="49.5893" lon="-1.26603">
        <ele>2.1</ele>
        <time>2020-06-15T12:13:01Z</time>
      </trkpt>
      <trkpt lat="49.58925" lon="-1.26601">
        <ele>2.1</ele>
        <time>2020-06-15T12:13:02Z</time>
      </trkpt>
      <trkpt lat="49.58921" lon="-1.266">
        <ele>2</ele>
        <time>2020-06-15T12:13:03Z</time>
      </trkpt>
      <trkpt lat="49.58918" lon="-1.266">
        <ele>2</ele>
        <time>2020-06-15T12:13:04Z</time>
      </trkpt>
      <trkpt lat="49.58914" lon="-1.266">
        <ele>2</ele>
        <time>2020-06-15T12:13:05Z</time>
      </trkpt>
      <trkpt lat="49.58909" lon="-1.266">
        <ele>2</ele>
        <time>2020-06-15T12:13:06Z</time>
      </trkpt>
      <trkpt lat="49.58906" lon="-1.26599">
        <ele>2</ele>
        <time>2020-06-15T12:13:07Z</time>
      </trkpt>
      <trkpt lat="49.58903" lon="-1.26598">
        <ele>2</ele>
        <time>2020-06-15T12:13:08Z</time>
      </trkpt>
      <trkpt lat="49.58899" lon="-1.26597">
        <ele>2</ele>
        <time>2020-06-15T12:13:09Z</time>
      </trkpt>
      <trkpt lat="49.58896" lon="-1.26596">
        <ele>2</ele>
        <time>2020-06-15T12:13:10Z</time>
      </trkpt>
      <trkpt lat="49.58892" lon="-1.26595">
        <ele>2</ele>
        <time>2020-06-15T12:13:11Z</time>
      </trkpt>
      <trkpt lat="49.58889" lon="-1.26595">
        <ele>2</ele>
        <time>2020-06-15T12:13:12Z</time>
      </trkpt>
      <trkpt lat="49.58886" lon="-1.26594">
        <ele>1.9</ele>
        <time>2020-06-15T12:13:13Z</time>
      </trkpt>
      <trkpt lat="49.58883" lon="-1.26593">
        <ele>1.9</ele>
        <time>2020-06-15T12:13:14Z</time>
      </trkpt>
      <trkpt lat="49.58879" lon="-1.26592">
        <ele>1.9</ele>
        <time>2020-06-15T12:13:15Z</time>
      </trkpt>
      <trkpt lat="49.58878" lon="-1.26592">
        <ele>1.9</ele>
        <time>2020-06-15T12:13:16Z</time>
      </trkpt>
      <trkpt lat="49.58875" lon="-1.26592">
        <ele>1.9</ele>
        <time>2020-06-15T12:13:17Z</time>
      </trkpt>
      <trkpt lat="49.58871" lon="-1.26592">
        <ele>1.9</ele>
        <time>2020-06-15T12:13:18Z</time>
      </trkpt>
      <trkpt lat="49.58868" lon="-1.26592">
        <ele>1.9</ele>
        <time>2020-06-15T12:13:19Z</time>
      </trkpt>
      <trkpt lat="49.58864" lon="-1.2659">
        <ele>2</ele>
        <time>2020-06-15T12:13:20Z</time>
      </trkpt>
      <trkpt lat="49.58863" lon="-1.2659">
        <ele>2</ele>
        <time>2020-06-15T12:13:21Z</time>
      </trkpt>
      <trkpt lat="49.5886" lon="-1.26589">
        <ele>2.1</ele>
        <time>2020-06-15T12:13:22Z</time>
      </trkpt>
      <trkpt lat="49.58857" lon="-1.26588">
        <ele>2.1</ele>
        <time>2020-06-15T12:13:23Z</time>
      </trkpt>
      <trkpt lat="49.58853" lon="-1.26587">
        <ele>2.2</ele>
        <time>2020-06-15T12:13:24Z</time>
      </trkpt>
      <trkpt lat="49.5885" lon="-1.26585">
        <ele>2.2</ele>
        <time>2020-06-15T12:13:25Z</time>
      </trkpt>
      <trkpt lat="49.58847" lon="-1.26583">
        <ele>2.3</ele>
        <time>2020-06-15T12:13:26Z</time>
      </trkpt>
      <trkpt lat="49.58845" lon="-1.26578">
        <ele>2.3</ele>
        <time>2020-06-15T12:13:27Z</time>
      </trkpt>
      <trkpt lat="49.58844" lon="-1.26577">
        <ele>2.3</ele>
        <time>2020-06-15T12:13:28Z</time>
      </trkpt>
      <trkpt lat="49.58841" lon="-1.26574">
        <ele>2.3</ele>
        <time>2020-06-15T12:13:29Z</time>
      </trkpt>
      <trkpt lat="49.58839" lon="-1.26573">
        <ele>2.3</ele>
        <time>2020-06-15T12:13:30Z</time>
      </trkpt>
      <trkpt lat="49.58836" lon="-1.2657">
        <ele>2.3</ele>
        <time>2020-06-15T12:13:31Z</time>
      </trkpt>
      <trkpt lat="49.58835" lon="-1.26569">
        <ele>2.3</ele>
        <time>2020-06-15T12:13:32Z</time>
      </trkpt>
      <trkpt lat="49.58832" lon="-1.26567">
        <ele>2.4</ele>
        <time>2020-06-15T12:13:33Z</time>
      </trkpt>
      <trkpt lat="49.58831" lon="-1.26566">
        <ele>2.4</ele>
        <time>2020-06-15T12:13:34Z</time>
      </trkpt>
      <trkpt lat="49.58827" lon="-1.26563">
        <ele>2.4</ele>
        <time>2020-06-15T12:13:35Z</time>
      </trkpt>
      <trkpt lat="49.58826" lon="-1.26562">
        <ele>2.4</ele>
        <time>2020-06-15T12:13:36Z</time>
      </trkpt>
      <trkpt lat="49.58824" lon="-1.26559">
        <ele>2.4</ele>
        <time>2020-06-15T12:13:37Z</time>
      </trkpt>
      <trkpt lat="49.58821" lon="-1.26558">
        <ele>2.4</ele>
        <time>2020-06-15T12:13:38Z</time>
      </trkpt>
      <trkpt lat="49.58817" lon="-1.26556">
        <ele>2.4</ele>
        <time>2020-06-15T12:13:39Z</time>
      </trkpt>
      <trkpt lat="49.58814" lon="-1.26554">
        <ele>2.4</ele>
        <time>2020-06-15T12:13:40Z</time>
      </trkpt>
      <trkpt lat="49.58811" lon="-1.26552">
        <ele>2.5</ele>
        <time>2020-06-15T12:13:41Z</time>
      </trkpt>
      <trkpt lat="49.58809" lon="-1.2655">
        <ele>2.5</ele>
        <time>2020-06-15T12:13:42Z</time>
      </trkpt>
      <trkpt lat="49.58806" lon="-1.26546">
        <ele>2.5</ele>
        <time>2020-06-15T12:13:43Z</time>
      </trkpt>
      <trkpt lat="49.58803" lon="-1.26544">
        <ele>2.5</ele>
        <time>2020-06-15T12:13:44Z</time>
      </trkpt>
      <trkpt lat="49.588" lon="-1.26541">
        <ele>2.5</ele>
        <time>2020-06-15T12:13:45Z</time>
      </trkpt>
      <trkpt lat="49.58799" lon="-1.2654">
        <ele>2.5</ele>
        <time>2020-06-15T12:13:46Z</time>
      </trkpt>
      <trkpt lat="49.58796" lon="-1.26538">
        <ele>2.5</ele>
        <time>2020-06-15T12:13:47Z</time>
      </trkpt>
      <trkpt lat="49.58793" lon="-1.26536">
        <ele>2.5</ele>
        <time>2020-06-15T12:13:48Z</time>
      </trkpt>
      <trkpt lat="49.5879" lon="-1.26534">
        <ele>2.5</ele>
        <time>2020-06-15T12:13:49Z</time>
      </trkpt>
      <trkpt lat="49.58787" lon="-1.26532">
        <ele>2.5</ele>
        <time>2020-06-15T12:13:50Z</time>
      </trkpt>
      <trkpt lat="49.58784" lon="-1.2653">
        <ele>2.5</ele>
        <time>2020-06-15T12:13:51Z</time>
      </trkpt>
      <trkpt lat="49.58783" lon="-1.26529">
        <ele>2.5</ele>
        <time>2020-06-15T12:13:52Z</time>
      </trkpt>
      <trkpt lat="49.5878" lon="-1.26526">
        <ele>2.6</ele>
        <time>2020-06-15T12:13:53Z</time>
      </trkpt>
      <trkpt lat="49.58779" lon="-1.26525">
        <ele>2.6</ele>
        <time>2020-06-15T12:13:54Z</time>
      </trkpt>
      <trkpt lat="49.58776" lon="-1.26523">
        <ele>2.6</ele>
        <time>2020-06-15T12:13:55Z</time>
      </trkpt>
      <trkpt lat="49.58775" lon="-1.26522">
        <ele>2.6</ele>
        <time>2020-06-15T12:13:56Z</time>
      </trkpt>
      <trkpt lat="49.58772" lon="-1.26521">
        <ele>2.6</ele>
        <time>2020-06-15T12:13:57Z</time>
      </trkpt>
      <trkpt lat="49.58771" lon="-1.26521">
        <ele>2.6</ele>
        <time>2020-06-15T12:13:58Z</time>
      </trkpt>
      <trkpt lat="49.58768" lon="-1.26518">
        <ele>2.6</ele>
        <time>2020-06-15T12:13:59Z</time>
      </trkpt>
      <trkpt lat="49.58767" lon="-1.26517">
        <ele>2.6</ele>
        <time>2020-06-15T12:14:00Z</time>
      </trkpt>
      <trkpt lat="49.58765" lon="-1.26514">
        <ele>2.6</ele>
        <time>2020-06-15T12:14:01Z</time>
      </trkpt>
      <trkpt lat="49.58762" lon="-1.26512">
        <ele>2.6</ele>
        <time>2020-06-15T12:14:02Z</time>
      </trkpt>
      <trkpt lat="49.58761" lon="-1.26512">
        <ele>2.6</ele>
        <time>2020-06-15T12:14:03Z</time>
      </trkpt>
      <trkpt lat="49.58758" lon="-1.2651">
        <ele>2.7</ele>
        <time>2020-06-15T12:14:04Z</time>
      </trkpt>
      <trkpt lat="49.58754" lon="-1.26507">
        <ele>2.7</ele>
        <time>2020-06-15T12:14:05Z</time>
      </trkpt>
      <trkpt lat="49.58752" lon="-1.26506">
        <ele>2.7</ele>
        <time>2020-06-15T12:14:06Z</time>
      </trkpt>
      <trkpt lat="49.5875" lon="-1.26504">
        <ele>2.7</ele>
        <time>2020-06-15T12:14:07Z</time>
      </trkpt>
      <trkpt lat="49.58747" lon="-1.26502">
        <ele>2.7</ele>
        <time>2020-06-15T12:14:08Z</time>
      </trkpt>
      <trkpt lat="49.58743" lon="-1.26502">
        <ele>2.7</ele>
        <time>2020-06-15T12:14:09Z</time>
      </trkpt>
      <trkpt lat="49.5874" lon="-1.26501">
        <ele>2.7</ele>
        <time>2020-06-15T12:14:10Z</time>
      </trkpt>
      <trkpt lat="49.58738" lon="-1.26499">
        <ele>2.7</ele>
        <time>2020-06-15T12:14:11Z</time>
      </trkpt>
      <trkpt lat="49.58735" lon="-1.26497">
        <ele>2.7</ele>
        <time>2020-06-15T12:14:12Z</time>
      </trkpt>
      <trkpt lat="49.58733" lon="-1.26494">
        <ele>2.7</ele>
        <time>2020-06-15T12:14:13Z</time>
      </trkpt>
      <trkpt lat="49.5873" lon="-1.26491">
        <ele>2.7</ele>
        <time>2020-06-15T12:14:14Z</time>
      </trkpt>
      <trkpt lat="49.58728" lon="-1.26489">
        <ele>2.8</ele>
        <time>2020-06-15T12:14:15Z</time>
      </trkpt>
      <trkpt lat="49.58724" lon="-1.26486">
        <ele>2.8</ele>
        <time>2020-06-15T12:14:16Z</time>
      </trkpt>
      <trkpt lat="49.58723" lon="-1.26485">
        <ele>2.8</ele>
        <time>2020-06-15T12:14:17Z</time>
      </trkpt>
      <trkpt lat="49.5872" lon="-1.26483">
        <ele>2.8</ele>
        <time>2020-06-15T12:14:18Z</time>
      </trkpt>
      <trkpt lat="49.58718" lon="-1.26482">
        <ele>2.8</ele>
        <time>2020-06-15T12:14:19Z</time>
      </trkpt>
      <trkpt lat="49.58715" lon="-1.2648">
        <ele>2.8</ele>
        <time>2020-06-15T12:14:20Z</time>
      </trkpt>
      <trkpt lat="49.58713" lon="-1.26478">
        <ele>2.8</ele>
        <time>2020-06-15T12:14:21Z</time>
      </trkpt>
      <trkpt lat="49.5871" lon="-1.26476">
        <ele>2.8</ele>
        <time>2020-06-15T12:14:22Z</time>
      </trkpt>
      <trkpt lat="49.58706" lon="-1.26475">
        <ele>2.8</ele>
        <time>2020-06-15T12:14:23Z</time>
      </trkpt>
      <trkpt lat="49.58704" lon="-1.26473">
        <ele>2.8</ele>
        <time>2020-06-15T12:14:24Z</time>
      </trkpt>
      <trkpt lat="49.58701" lon="-1.26471">
        <ele>2.8</ele>
        <time>2020-06-15T12:14:25Z</time>
      </trkpt>
      <trkpt lat="49.58699" lon="-1.2647">
        <ele>2.8</ele>
        <time>2020-06-15T12:14:26Z</time>
      </trkpt>
      <trkpt lat="49.58697" lon="-1.26468">
        <ele>2.8</ele>
        <time>2020-06-15T12:14:27Z</time>
      </trkpt>
      <trkpt lat="49.58693" lon="-1.26465">
        <ele>2.8</ele>
        <time>2020-06-15T12:14:28Z</time>
      </trkpt>
      <trkpt lat="49.58692" lon="-1.26464">
        <ele>2.8</ele>
        <time>2020-06-15T12:14:29Z</time>
      </trkpt>
      <trkpt lat="49.58689" lon="-1.26462">
        <ele>2.8</ele>
        <time>2020-06-15T12:14:30Z</time>
      </trkpt>
      <trkpt lat="49.58686" lon="-1.26461">
        <ele>2.8</ele>
        <time>2020-06-15T12:14:31Z</time>
      </trkpt>
      <trkpt lat="49.58683" lon="-1.26459">
        <ele>2.8</ele>
        <time>2020-06-15T12:14:32Z</time>
      </trkpt>
      <trkpt lat="49.5868" lon="-1.26457">
        <ele>2.8</ele>
        <time>2020-06-15T12:14:33Z</time>
      </trkpt>
      <trkpt lat="49.5868" lon="-1.26456">
        <ele>2.8</ele>
        <time>2020-06-15T12:14:34Z</time>
      </trkpt>
      <trkpt lat="49.58677" lon="-1.26454">
        <ele>2.7</ele>
        <time>2020-06-15T12:14:35Z</time>
      </trkpt>
      <trkpt lat="49.58677" lon="-1.26453">
        <ele>2.7</ele>
        <time>2020-06-15T12:14:36Z</time>
      </trkpt>
      <trkpt lat="49.58674" lon="-1.26451">
        <ele>2.7</ele>
        <time>2020-06-15T12:14:37Z</time>
      </trkpt>
      <trkpt lat="49.58673" lon="-1.26451">
        <ele>2.7</ele>
        <time>2020-06-15T12:14:38Z</time>
      </trkpt>
      <trkpt lat="49.58672" lon="-1.26449">
        <ele>2.7</ele>
        <time>2020-06-15T12:14:39Z</time>
      </trkpt>
      <trkpt lat="49.5867" lon="-1.26448">
        <ele>2.7</ele>
        <time>2020-06-15T12:14:40Z</time>
      </trkpt>
      <trkpt lat="49.58669" lon="-1.26446">
        <ele>2.7</ele>
        <time>2020-06-15T12:14:41Z</time>
      </trkpt>
      <trkpt lat="49.58668" lon="-1.26446">
        <ele>2.7</ele>
        <time>2020-06-15T12:14:42Z</time>
      </trkpt>
      <trkpt lat="49.58667" lon="-1.26445">
        <ele>2.7</ele>
        <time>2020-06-15T12:14:43Z</time>
      </trkpt>
      <trkpt lat="49.58666" lon="-1.26447">
        <ele>2.7</ele>
        <time>2020-06-15T12:14:44Z</time>
      </trkpt>
      <trkpt lat="49.58666" lon="-1.26449">
        <ele>2.7</ele>
        <time>2020-06-15T12:14:45Z</time>
      </trkpt>
      <trkpt lat="49.58666" lon="-1.26452">
        <ele>2.7</ele>
        <time>2020-06-15T12:14:46Z</time>
      </trkpt>
      <trkpt lat="49.58665" lon="-1.26453">
        <ele>2.7</ele>
        <time>2020-06-15T12:14:47Z</time>
      </trkpt>
      <trkpt lat="49.58664" lon="-1.26454">
        <ele>2.7</ele>
        <time>2020-06-15T12:14:48Z</time>
      </trkpt>
      <trkpt lat="49.58661" lon="-1.26453">
        <ele>2.7</ele>
        <time>2020-06-15T12:14:49Z</time>
      </trkpt>
      <trkpt lat="49.58659" lon="-1.26452">
        <ele>2.7</ele>
        <time>2020-06-15T12:14:50Z</time>
      </trkpt>
      <trkpt lat="49.58656" lon="-1.2645">
        <ele>2.7</ele>
        <time>2020-06-15T12:14:51Z</time>
      </trkpt>
      <trkpt lat="49.58653" lon="-1.26448">
        <ele>2.7</ele>
        <time>2020-06-15T12:14:52Z</time>
      </trkpt>
      <trkpt lat="49.5865" lon="-1.26446">
        <ele>2.7</ele>
        <time>2020-06-15T12:14:53Z</time>
      </trkpt>
      <trkpt lat="49.58646" lon="-1.26444">
        <ele>2.7</ele>
        <time>2020-06-15T12:14:54Z</time>
      </trkpt>
      <trkpt lat="49.58643" lon="-1.26441">
        <ele>2.7</ele>
        <time>2020-06-15T12:14:55Z</time>
      </trkpt>
      <trkpt lat="49.5864" lon="-1.26439">
        <ele>2.7</ele>
        <time>2020-06-15T12:14:56Z</time>
      </trkpt>
      <trkpt lat="49.58637" lon="-1.26434">
        <ele>2.2</ele>
        <time>2020-06-15T12:14:57Z</time>
      </trkpt>
      <trkpt lat="49.58635" lon="-1.26431">
        <ele>2.2</ele>
        <time>2020-06-15T12:14:58Z</time>
      </trkpt>
      <trkpt lat="49.58634" lon="-1.26427">
        <ele>2.2</ele>
        <time>2020-06-15T12:14:59Z</time>
      </trkpt>
      <trkpt lat="49.58632" lon="-1.26422">
        <ele>2.2</ele>
        <time>2020-06-15T12:15:00Z</time>
      </trkpt>
      <trkpt lat="49.58632" lon="-1.2642">
        <ele>2.2</ele>
        <time>2020-06-15T12:15:01Z</time>
      </trkpt>
      <trkpt lat="49.58631" lon="-1.26416">
        <ele>2.3</ele>
        <time>2020-06-15T12:15:02Z</time>
      </trkpt>
      <trkpt lat="49.5863" lon="-1.2641">
        <ele>2.3</ele>
        <time>2020-06-15T12:15:03Z</time>
      </trkpt>
      <trkpt lat="49.58629" lon="-1.26406">
        <ele>2.3</ele>
        <time>2020-06-15T12:15:04Z</time>
      </trkpt>
      <trkpt lat="49.58627" lon="-1.26401">
        <ele>2.3</ele>
        <time>2020-06-15T12:15:05Z</time>
      </trkpt>
      <trkpt lat="49.58625" lon="-1.26396">
        <ele>2.3</ele>
        <time>2020-06-15T12:15:06Z</time>
      </trkpt>
      <trkpt lat="49.58624" lon="-1.26391">
        <ele>2.3</ele>
        <time>2020-06-15T12:15:07Z</time>
      </trkpt>
      <trkpt lat="49.58622" lon="-1.26386">
        <ele>2.4</ele>
        <time>2020-06-15T12:15:08Z</time>
      </trkpt>
      <trkpt lat="49.58621" lon="-1.26382">
        <ele>2.4</ele>
        <time>2020-06-15T12:15:09Z</time>
      </trkpt>
      <trkpt lat="49.58619" lon="-1.26376">
        <ele>2.4</ele>
        <time>2020-06-15T12:15:10Z</time>
      </trkpt>
      <trkpt lat="49.58617" lon="-1.26372">
        <ele>2.4</ele>
        <time>2020-06-15T12:15:11Z</time>
      </trkpt>
      <trkpt lat="49.58614" lon="-1.26367">
        <ele>2.4</ele>
        <time>2020-06-15T12:15:12Z</time>
      </trkpt>
      <trkpt lat="49.58613" lon="-1.26362">
        <ele>2.4</ele>
        <time>2020-06-15T12:15:13Z</time>
      </trkpt>
      <trkpt lat="49.58611" lon="-1.26356">
        <ele>2.4</ele>
        <time>2020-06-15T12:15:14Z</time>
      </trkpt>
      <trkpt lat="49.5861" lon="-1.26349">
        <ele>2.4</ele>
        <time>2020-06-15T12:15:15Z</time>
      </trkpt>
      <trkpt lat="49.58609" lon="-1.26341">
        <ele>2.4</ele>
        <time>2020-06-15T12:15:16Z</time>
      </trkpt>
      <trkpt lat="49.58608" lon="-1.26334">
        <ele>2.4</ele>
        <time>2020-06-15T12:15:17Z</time>
      </trkpt>
      <trkpt lat="49.58607" lon="-1.26327">
        <ele>2.4</ele>
        <time>2020-06-15T12:15:18Z</time>
      </trkpt>
      <trkpt lat="49.58606" lon="-1.26321">
        <ele>2.4</ele>
        <time>2020-06-15T12:15:19Z</time>
      </trkpt>
      <trkpt lat="49.58606" lon="-1.26314">
        <ele>2.4</ele>
        <time>2020-06-15T12:15:20Z</time>
      </trkpt>
      <trkpt lat="49.58606" lon="-1.26307">
        <ele>2.4</ele>
        <time>2020-06-15T12:15:21Z</time>
      </trkpt>
      <trkpt lat="49.58607" lon="-1.26301">
        <ele>2.4</ele>
        <time>2020-06-15T12:15:22Z</time>
      </trkpt>
      <trkpt lat="49.58607" lon="-1.26295">
        <ele>2.4</ele>
        <time>2020-06-15T12:15:23Z</time>
      </trkpt>
      <trkpt lat="49.58608" lon="-1.26289">
        <ele>2.4</ele>
        <time>2020-06-15T12:15:24Z</time>
      </trkpt>
      <trkpt lat="49.58608" lon="-1.26284">
        <ele>2.4</ele>
        <time>2020-06-15T12:15:25Z</time>
      </trkpt>
      <trkpt lat="49.58608" lon="-1.26278">
        <ele>2.4</ele>
        <time>2020-06-15T12:15:26Z</time>
      </trkpt>
      <trkpt lat="49.58609" lon="-1.26273">
        <ele>2.4</ele>
        <time>2020-06-15T12:15:27Z</time>
      </trkpt>
      <trkpt lat="49.58609" lon="-1.26267">
        <ele>2.4</ele>
        <time>2020-06-15T12:15:28Z</time>
      </trkpt>
      <trkpt lat="49.58609" lon="-1.26261">
        <ele>2.4</ele>
        <time>2020-06-15T12:15:29Z</time>
      </trkpt>
      <trkpt lat="49.5861" lon="-1.26255">
        <ele>2.4</ele>
        <time>2020-06-15T12:15:30Z</time>
      </trkpt>
      <trkpt lat="49.5861" lon="-1.26249">
        <ele>2.4</ele>
        <time>2020-06-15T12:15:31Z</time>
      </trkpt>
      <trkpt lat="49.5861" lon="-1.26243">
        <ele>2.4</ele>
        <time>2020-06-15T12:15:32Z</time>
      </trkpt>
      <trkpt lat="49.58609" lon="-1.26237">
        <ele>2.4</ele>
        <time>2020-06-15T12:15:33Z</time>
      </trkpt>
      <trkpt lat="49.5861" lon="-1.26232">
        <ele>2.4</ele>
        <time>2020-06-15T12:15:34Z</time>
      </trkpt>
      <trkpt lat="49.5861" lon="-1.26226">
        <ele>2.4</ele>
        <time>2020-06-15T12:15:35Z</time>
      </trkpt>
      <trkpt lat="49.5861" lon="-1.26221">
        <ele>2.4</ele>
        <time>2020-06-15T12:15:36Z</time>
      </trkpt>
      <trkpt lat="49.58608" lon="-1.26216">
        <ele>2.4</ele>
        <time>2020-06-15T12:15:37Z</time>
      </trkpt>
      <trkpt lat="49.58606" lon="-1.26211">
        <ele>2.4</ele>
        <time>2020-06-15T12:15:38Z</time>
      </trkpt>
      <trkpt lat="49.58603" lon="-1.26208">
        <ele>2.4</ele>
        <time>2020-06-15T12:15:39Z</time>
      </trkpt>
      <trkpt lat="49.586" lon="-1.26207">
        <ele>2.4</ele>
        <time>2020-06-15T12:15:40Z</time>
      </trkpt>
      <trkpt lat="49.58597" lon="-1.26207">
        <ele>2.4</ele>
        <time>2020-06-15T12:15:41Z</time>
      </trkpt>
      <trkpt lat="49.58594" lon="-1.26208">
        <ele>2.4</ele>
        <time>2020-06-15T12:15:42Z</time>
      </trkpt>
      <trkpt lat="49.58591" lon="-1.26206">
        <ele>2.4</ele>
        <time>2020-06-15T12:15:43Z</time>
      </trkpt>
      <trkpt lat="49.58587" lon="-1.26206">
        <ele>2.4</ele>
        <time>2020-06-15T12:15:44Z</time>
      </trkpt>
      <trkpt lat="49.58584" lon="-1.26207">
        <ele>2.4</ele>
        <time>2020-06-15T12:15:45Z</time>
      </trkpt>
      <trkpt lat="49.58581" lon="-1.26208">
        <ele>2.4</ele>
        <time>2020-06-15T12:15:46Z</time>
      </trkpt>
      <trkpt lat="49.58578" lon="-1.26209">
        <ele>2.4</ele>
        <time>2020-06-15T12:15:47Z</time>
      </trkpt>
      <trkpt lat="49.58575" lon="-1.2621">
        <ele>2.4</ele>
        <time>2020-06-15T12:15:48Z</time>
      </trkpt>
      <trkpt lat="49.58571" lon="-1.2621">
        <ele>2.4</ele>
        <time>2020-06-15T12:15:49Z</time>
      </trkpt>
      <trkpt lat="49.58567" lon="-1.2621">
        <ele>2.4</ele>
        <time>2020-06-15T12:15:50Z</time>
      </trkpt>
      <trkpt lat="49.58564" lon="-1.26213">
        <ele>2.4</ele>
        <time>2020-06-15T12:15:51Z</time>
      </trkpt>
      <trkpt lat="49.58561" lon="-1.26216">
        <ele>2.4</ele>
        <time>2020-06-15T12:15:52Z</time>
      </trkpt>
      <trkpt lat="49.58557" lon="-1.26218">
        <ele>2.4</ele>
        <time>2020-06-15T12:15:53Z</time>
      </trkpt>
      <trkpt lat="49.58554" lon="-1.26219">
        <ele>2.4</ele>
        <time>2020-06-15T12:15:54Z</time>
      </trkpt>
      <trkpt lat="49.58551" lon="-1.2622">
        <ele>2.4</ele>
        <time>2020-06-15T12:15:55Z</time>
      </trkpt>
      <trkpt lat="49.58547" lon="-1.26221">
        <ele>2.4</ele>
        <time>2020-06-15T12:15:56Z</time>
      </trkpt>
      <trkpt lat="49.58541" lon="-1.2622">
        <ele>2.4</ele>
        <time>2020-06-15T12:15:57Z</time>
      </trkpt>
      <trkpt lat="49.58536" lon="-1.2622">
        <ele>2.5</ele>
        <time>2020-06-15T12:15:58Z</time>
      </trkpt>
      <trkpt lat="49.58532" lon="-1.26222">
        <ele>2.5</ele>
        <time>2020-06-15T12:15:59Z</time>
      </trkpt>
      <trkpt lat="49.58529" lon="-1.26223">
        <ele>2.5</ele>
        <time>2020-06-15T12:16:00Z</time>
      </trkpt>
      <trkpt lat="49.58525" lon="-1.26225">
        <ele>2.5</ele>
        <time>2020-06-15T12:16:01Z</time>
      </trkpt>
      <trkpt lat="49.58523" lon="-1.26227">
        <ele>2.7</ele>
        <time>2020-06-15T12:16:02Z</time>
      </trkpt>
      <trkpt lat="49.5852" lon="-1.26227">
        <ele>2.7</ele>
        <time>2020-06-15T12:16:03Z</time>
      </trkpt>
      <trkpt lat="49.58517" lon="-1.26229">
        <ele>2.8</ele>
        <time>2020-06-15T12:16:04Z</time>
      </trkpt>
      <trkpt lat="49.58515" lon="-1.2623">
        <ele>2.8</ele>
        <time>2020-06-15T12:16:05Z</time>
      </trkpt>
      <trkpt lat="49.58512" lon="-1.2623">
        <ele>2.8</ele>
        <time>2020-06-15T12:16:06Z</time>
      </trkpt>
      <trkpt lat="49.58509" lon="-1.2623">
        <ele>2.8</ele>
        <time>2020-06-15T12:16:07Z</time>
      </trkpt>
      <trkpt lat="49.58508" lon="-1.26229">
        <ele>2.8</ele>
        <time>2020-06-15T12:16:08Z</time>
      </trkpt>
      <trkpt lat="49.58506" lon="-1.26228">
        <ele>2.8</ele>
        <time>2020-06-15T12:16:09Z</time>
      </trkpt>
      <trkpt lat="49.58505" lon="-1.26227">
        <ele>2.8</ele>
        <time>2020-06-15T12:16:10Z</time>
      </trkpt>
      <trkpt lat="49.58503" lon="-1.26223">
        <ele>2.8</ele>
        <time>2020-06-15T12:16:11Z</time>
      </trkpt>
      <trkpt lat="49.58503" lon="-1.26222">
        <ele>2.8</ele>
        <time>2020-06-15T12:16:12Z</time>
      </trkpt>
      <trkpt lat="49.58502" lon="-1.26218">
        <ele>2.8</ele>
        <time>2020-06-15T12:16:13Z</time>
      </trkpt>
      <trkpt lat="49.58502" lon="-1.26213">
        <ele>2.8</ele>
        <time>2020-06-15T12:16:14Z</time>
      </trkpt>
      <trkpt lat="49.58502" lon="-1.26212">
        <ele>2.8</ele>
        <time>2020-06-15T12:16:15Z</time>
      </trkpt>
      <trkpt lat="49.58502" lon="-1.26207">
        <ele>2.7</ele>
        <time>2020-06-15T12:16:16Z</time>
      </trkpt>
      <trkpt lat="49.58502" lon="-1.26205">
        <ele>2.7</ele>
        <time>2020-06-15T12:16:17Z</time>
      </trkpt>
      <trkpt lat="49.58502" lon="-1.26201">
        <ele>2.7</ele>
        <time>2020-06-15T12:16:18Z</time>
      </trkpt>
      <trkpt lat="49.58503" lon="-1.26197">
        <ele>2.7</ele>
        <time>2020-06-15T12:16:19Z</time>
      </trkpt>
      <trkpt lat="49.58504" lon="-1.26191">
        <ele>2.7</ele>
        <time>2020-06-15T12:16:20Z</time>
      </trkpt>
      <trkpt lat="49.58505" lon="-1.26189">
        <ele>2.6</ele>
        <time>2020-06-15T12:16:21Z</time>
      </trkpt>
      <trkpt lat="49.58506" lon="-1.26184">
        <ele>2.6</ele>
        <time>2020-06-15T12:16:22Z</time>
      </trkpt>
      <trkpt lat="49.58507" lon="-1.26182">
        <ele>2.6</ele>
        <time>2020-06-15T12:16:23Z</time>
      </trkpt>
      <trkpt lat="49.58507" lon="-1.26177">
        <ele>2.6</ele>
        <time>2020-06-15T12:16:24Z</time>
      </trkpt>
      <trkpt lat="49.58508" lon="-1.26173">
        <ele>2.6</ele>
        <time>2020-06-15T12:16:25Z</time>
      </trkpt>
      <trkpt lat="49.58509" lon="-1.26168">
        <ele>2.6</ele>
        <time>2020-06-15T12:16:26Z</time>
      </trkpt>
      <trkpt lat="49.5851" lon="-1.26163">
        <ele>2.6</ele>
        <time>2020-06-15T12:16:27Z</time>
      </trkpt>
      <trkpt lat="49.58512" lon="-1.26158">
        <ele>2.6</ele>
        <time>2020-06-15T12:16:28Z</time>
      </trkpt>
      <trkpt lat="49.58513" lon="-1.26154">
        <ele>2.6</ele>
        <time>2020-06-15T12:16:29Z</time>
      </trkpt>
      <trkpt lat="49.58514" lon="-1.2615">
        <ele>2.6</ele>
        <time>2020-06-15T12:16:30Z</time>
      </trkpt>
      <trkpt lat="49.58514" lon="-1.26144">
        <ele>2.6</ele>
        <time>2020-06-15T12:16:31Z</time>
      </trkpt>
      <trkpt lat="49.58516" lon="-1.26138">
        <ele>2.6</ele>
        <time>2020-06-15T12:16:32Z</time>
      </trkpt>
      <trkpt lat="49.58517" lon="-1.26132">
        <ele>2.6</ele>
        <time>2020-06-15T12:16:33Z</time>
      </trkpt>
      <trkpt lat="49.58518" lon="-1.26127">
        <ele>2.5</ele>
        <time>2020-06-15T12:16:34Z</time>
      </trkpt>
      <trkpt lat="49.58519" lon="-1.26122">
        <ele>2.5</ele>
        <time>2020-06-15T12:16:35Z</time>
      </trkpt>
      <trkpt lat="49.58519" lon="-1.26121">
        <ele>2.5</ele>
        <time>2020-06-15T12:16:36Z</time>
      </trkpt>
      <trkpt lat="49.5852" lon="-1.26116">
        <ele>2.4</ele>
        <time>2020-06-15T12:16:37Z</time>
      </trkpt>
      <trkpt lat="49.5852" lon="-1.26114">
        <ele>2.4</ele>
        <time>2020-06-15T12:16:38Z</time>
      </trkpt>
      <trkpt lat="49.58521" lon="-1.2611">
        <ele>2.3</ele>
        <time>2020-06-15T12:16:39Z</time>
      </trkpt>
      <trkpt lat="49.58522" lon="-1.26108">
        <ele>2.3</ele>
        <time>2020-06-15T12:16:40Z</time>
      </trkpt>
      <trkpt lat="49.58523" lon="-1.26102">
        <ele>2.2</ele>
        <time>2020-06-15T12:16:41Z</time>
      </trkpt>
      <trkpt lat="49.58523" lon="-1.26099">
        <ele>2.2</ele>
        <time>2020-06-15T12:16:42Z</time>
      </trkpt>
      <trkpt lat="49.58524" lon="-1.26095">
        <ele>2.1</ele>
        <time>2020-06-15T12:16:43Z</time>
      </trkpt>
      <trkpt lat="49.58524" lon="-1.26093">
        <ele>2.1</ele>
        <time>2020-06-15T12:16:44Z</time>
      </trkpt>
      <trkpt lat="49.58526" lon="-1.26088">
        <ele>2</ele>
        <time>2020-06-15T12:16:45Z</time>
      </trkpt>
      <trkpt lat="49.58527" lon="-1.26087">
        <ele>1.9</ele>
        <time>2020-06-15T12:16:46Z</time>
      </trkpt>
      <trkpt lat="49.58529" lon="-1.26083">
        <ele>1.9</ele>
        <time>2020-06-15T12:16:47Z</time>
      </trkpt>
      <trkpt lat="49.5853" lon="-1.26079">
        <ele>1.8</ele>
        <time>2020-06-15T12:16:48Z</time>
      </trkpt>
      <trkpt lat="49.58531" lon="-1.26075">
        <ele>1.8</ele>
        <time>2020-06-15T12:16:49Z</time>
      </trkpt>
      <trkpt lat="49.58532" lon="-1.26071">
        <ele>1.8</ele>
        <time>2020-06-15T12:16:50Z</time>
      </trkpt>
      <trkpt lat="49.58533" lon="-1.26066">
        <ele>1.8</ele>
        <time>2020-06-15T12:16:51Z</time>
      </trkpt>
      <trkpt lat="49.58533" lon="-1.26061">
        <ele>1.8</ele>
        <time>2020-06-15T12:16:52Z</time>
      </trkpt>
      <trkpt lat="49.58534" lon="-1.26057">
        <ele>1.8</ele>
        <time>2020-06-15T12:16:53Z</time>
      </trkpt>
      <trkpt lat="49.58536" lon="-1.26053">
        <ele>1.8</ele>
        <time>2020-06-15T12:16:54Z</time>
      </trkpt>
      <trkpt lat="49.58537" lon="-1.26047">
        <ele>1.8</ele>
        <time>2020-06-15T12:16:55Z</time>
      </trkpt>
      <trkpt lat="49.58539" lon="-1.26042">
        <ele>1.8</ele>
        <time>2020-06-15T12:16:56Z</time>
      </trkpt>
      <trkpt lat="49.5854" lon="-1.26036">
        <ele>1.8</ele>
        <time>2020-06-15T12:16:57Z</time>
      </trkpt>
      <trkpt lat="49.58541" lon="-1.26032">
        <ele>1.7</ele>
        <time>2020-06-15T12:16:58Z</time>
      </trkpt>
      <trkpt lat="49.58543" lon="-1.26028">
        <ele>1.7</ele>
        <time>2020-06-15T12:16:59Z</time>
      </trkpt>
      <trkpt lat="49.58544" lon="-1.26023">
        <ele>1.7</ele>
        <time>2020-06-15T12:17:00Z</time>
      </trkpt>
      <trkpt lat="49.58546" lon="-1.26018">
        <ele>1.7</ele>
        <time>2020-06-15T12:17:01Z</time>
      </trkpt>
      <trkpt lat="49.58547" lon="-1.26014">
        <ele>1.7</ele>
        <time>2020-06-15T12:17:02Z</time>
      </trkpt>
      <trkpt lat="49.58549" lon="-1.26011">
        <ele>1.6</ele>
        <time>2020-06-15T12:17:03Z</time>
      </trkpt>
      <trkpt lat="49.58551" lon="-1.26006">
        <ele>1.6</ele>
        <time>2020-06-15T12:17:04Z</time>
      </trkpt>
      <trkpt lat="49.58554" lon="-1.26002">
        <ele>1.6</ele>
        <time>2020-06-15T12:17:05Z</time>
      </trkpt>
      <trkpt lat="49.58556" lon="-1.25997">
        <ele>1.5</ele>
        <time>2020-06-15T12:17:06Z</time>
      </trkpt>
      <trkpt lat="49.58557" lon="-1.25993">
        <ele>1.4</ele>
        <time>2020-06-15T12:17:07Z</time>
      </trkpt>
      <trkpt lat="49.58558" lon="-1.25988">
        <ele>1.4</ele>
        <time>2020-06-15T12:17:08Z</time>
      </trkpt>
      <trkpt lat="49.58559" lon="-1.25984">
        <ele>1.3</ele>
        <time>2020-06-15T12:17:09Z</time>
      </trkpt>
      <trkpt lat="49.58561" lon="-1.25979">
        <ele>1.3</ele>
        <time>2020-06-15T12:17:10Z</time>
      </trkpt>
      <trkpt lat="49.58562" lon="-1.25973">
        <ele>1.3</ele>
        <time>2020-06-15T12:17:11Z</time>
      </trkpt>
      <trkpt lat="49.58564" lon="-1.25967">
        <ele>1.2</ele>
        <time>2020-06-15T12:17:12Z</time>
      </trkpt>
      <trkpt lat="49.58565" lon="-1.2596">
        <ele>1.2</ele>
        <time>2020-06-15T12:17:13Z</time>
      </trkpt>
      <trkpt lat="49.58567" lon="-1.25952">
        <ele>1.2</ele>
        <time>2020-06-15T12:17:14Z</time>
      </trkpt>
      <trkpt lat="49.58569" lon="-1.25945">
        <ele>1.2</ele>
        <time>2020-06-15T12:17:15Z</time>
      </trkpt>
      <trkpt lat="49.58571" lon="-1.25938">
        <ele>1.3</ele>
        <time>2020-06-15T12:17:16Z</time>
      </trkpt>
      <trkpt lat="49.58574" lon="-1.25932">
        <ele>1.3</ele>
        <time>2020-06-15T12:17:17Z</time>
      </trkpt>
      <trkpt lat="49.58575" lon="-1.25927">
        <ele>1.2</ele>
        <time>2020-06-15T12:17:18Z</time>
      </trkpt>
      <trkpt lat="49.5858" lon="-1.25918">
        <ele>1.1</ele>
        <time>2020-06-15T12:17:20Z</time>
      </trkpt>
      <trkpt lat="49.58581" lon="-1.25914">
        <ele>1.1</ele>
        <time>2020-06-15T12:17:21Z</time>
      </trkpt>
      <trkpt lat="49.58582" lon="-1.25909">
        <ele>1</ele>
        <time>2020-06-15T12:17:22Z</time>
      </trkpt>
      <trkpt lat="49.58583" lon="-1.25904">
        <ele>1</ele>
        <time>2020-06-15T12:17:23Z</time>
      </trkpt>
      <trkpt lat="49.58583" lon="-1.25899">
        <ele>1</ele>
        <time>2020-06-15T12:17:24Z</time>
      </trkpt>
      <trkpt lat="49.58584" lon="-1.25895">
        <ele>0.9</ele>
        <time>2020-06-15T12:17:25Z</time>
      </trkpt>
      <trkpt lat="49.58585" lon="-1.25892">
        <ele>0.9</ele>
        <time>2020-06-15T12:17:26Z</time>
      </trkpt>
      <trkpt lat="49.58587" lon="-1.25886">
        <ele>0.9</ele>
        <time>2020-06-15T12:17:27Z</time>
      </trkpt>
      <trkpt lat="49.58587" lon="-1.25884">
        <ele>0.9</ele>
        <time>2020-06-15T12:17:28Z</time>
      </trkpt>
      <trkpt lat="49.58589" lon="-1.25879">
        <ele>0.9</ele>
        <time>2020-06-15T12:17:29Z</time>
      </trkpt>
      <trkpt lat="49.5859" lon="-1.25873">
        <ele>0.8</ele>
        <time>2020-06-15T12:17:30Z</time>
      </trkpt>
      <trkpt lat="49.58591" lon="-1.25868">
        <ele>0.8</ele>
        <time>2020-06-15T12:17:31Z</time>
      </trkpt>
      <trkpt lat="49.58592" lon="-1.25864">
        <ele>0.7</ele>
        <time>2020-06-15T12:17:32Z</time>
      </trkpt>
      <trkpt lat="49.58594" lon="-1.2586">
        <ele>0.7</ele>
        <time>2020-06-15T12:17:33Z</time>
      </trkpt>
      <trkpt lat="49.58595" lon="-1.25855">
        <ele>0.7</ele>
        <time>2020-06-15T12:17:34Z</time>
      </trkpt>
      <trkpt lat="49.58596" lon="-1.25853">
        <ele>0.7</ele>
        <time>2020-06-15T12:17:35Z</time>
      </trkpt>
      <trkpt lat="49.58596" lon="-1.25851">
        <ele>0.7</ele>
        <time>2020-06-15T12:17:36Z</time>
      </trkpt>
      <trkpt lat="49.58597" lon="-1.25849">
        <ele>0.7</ele>
        <time>2020-06-15T12:17:37Z</time>
      </trkpt>
      <trkpt lat="49.58599" lon="-1.25844">
        <ele>0.7</ele>
        <time>2020-06-15T12:17:38Z</time>
      </trkpt>
      <trkpt lat="49.58599" lon="-1.25842">
        <ele>0.7</ele>
        <time>2020-06-15T12:17:39Z</time>
      </trkpt>
      <trkpt lat="49.58601" lon="-1.25838">
        <ele>0.7</ele>
        <time>2020-06-15T12:17:40Z</time>
      </trkpt>
      <trkpt lat="49.58602" lon="-1.25833">
        <ele>0.7</ele>
        <time>2020-06-15T12:17:41Z</time>
      </trkpt>
      <trkpt lat="49.58603" lon="-1.25832">
        <ele>0.7</ele>
        <time>2020-06-15T12:17:42Z</time>
      </trkpt>
      <trkpt lat="49.58604" lon="-1.25829">
        <ele>0.7</ele>
        <time>2020-06-15T12:17:43Z</time>
      </trkpt>
      <trkpt lat="49.58604" lon="-1.25828">
        <ele>0.7</ele>
        <time>2020-06-15T12:17:44Z</time>
      </trkpt>
      <trkpt lat="49.58604" lon="-1.25826">
        <ele>0.7</ele>
        <time>2020-06-15T12:17:45Z</time>
      </trkpt>
      <trkpt lat="49.58604" lon="-1.25825">
        <ele>0.7</ele>
        <time>2020-06-15T12:17:46Z</time>
      </trkpt>
      <trkpt lat="49.58605" lon="-1.25824">
        <ele>0.6</ele>
        <time>2020-06-15T12:17:47Z</time>
      </trkpt>
      <trkpt lat="49.58605" lon="-1.25823">
        <ele>0.6</ele>
        <time>2020-06-15T12:17:48Z</time>
      </trkpt>
      <trkpt lat="49.58605" lon="-1.25822">
        <ele>0.6</ele>
        <time>2020-06-15T12:17:49Z</time>
      </trkpt>
      <trkpt lat="49.58605" lon="-1.25821">
        <ele>0.6</ele>
        <time>2020-06-15T12:17:50Z</time>
      </trkpt>
      <trkpt lat="49.58605" lon="-1.2582">
        <ele>0.6</ele>
        <time>2020-06-15T12:17:51Z</time>
      </trkpt>
      <trkpt lat="49.58605" lon="-1.25819">
        <ele>0.6</ele>
        <time>2020-06-15T12:17:52Z</time>
      </trkpt>
      <trkpt lat="49.58605" lon="-1.25818">
        <ele>0.6</ele>
        <time>2020-06-15T12:17:53Z</time>
      </trkpt>
      <trkpt lat="49.58605" lon="-1.25817">
        <ele>0.6</ele>
        <time>2020-06-15T12:17:54Z</time>
      </trkpt>
      <trkpt lat="49.58605" lon="-1.25817">
        <ele>0.6</ele>
        <time>2020-06-15T12:17:55Z</time>
      </trkpt>
      <trkpt lat="49.58605" lon="-1.25816">
        <ele>0.6</ele>
        <time>2020-06-15T12:17:56Z</time>
      </trkpt>
      <trkpt lat="49.58605" lon="-1.25815">
        <ele>0.6</ele>
        <time>2020-06-15T12:17:57Z</time>
      </trkpt>
      <trkpt lat="49.58605" lon="-1.25814">
        <ele>0.6</ele>
        <time>2020-06-15T12:20:17Z</time>
      </trkpt>
      <trkpt lat="49.58605" lon="-1.25813">
        <ele>0.6</ele>
        <time>2020-06-15T12:20:18Z</time>
      </trkpt>
      <trkpt lat="49.58605" lon="-1.25812">
        <ele>0.5</ele>
        <time>2020-06-15T12:20:19Z</time>
      </trkpt>
      <trkpt lat="49.58607" lon="-1.25809">
        <ele>0.5</ele>
        <time>2020-06-15T12:20:20Z</time>
      </trkpt>
      <trkpt lat="49.58608" lon="-1.25808">
        <ele>0.5</ele>
        <time>2020-06-15T12:20:21Z</time>
      </trkpt>
      <trkpt lat="49.58609" lon="-1.25803">
        <ele>0.4</ele>
        <time>2020-06-15T12:20:22Z</time>
      </trkpt>
      <trkpt lat="49.5861" lon="-1.25798">
        <ele>0.3</ele>
        <time>2020-06-15T12:20:23Z</time>
      </trkpt>
      <trkpt lat="49.58612" lon="-1.25794">
        <ele>0.2</ele>
        <time>2020-06-15T12:20:24Z</time>
      </trkpt>
      <trkpt lat="49.58613" lon="-1.25789">
        <ele>0.1</ele>
        <time>2020-06-15T12:20:25Z</time>
      </trkpt>
      <trkpt lat="49.58615" lon="-1.25784">
        <ele>6</ele>
        <time>2020-06-15T12:20:26Z</time>
      </trkpt>
      <trkpt lat="49.58615" lon="-1.25782">
        <ele>6</ele>
        <time>2020-06-15T12:20:27Z</time>
      </trkpt>
      <trkpt lat="49.58617" lon="-1.25777">
        <ele>-0.1</ele>
        <time>2020-06-15T12:20:28Z</time>
      </trkpt>
      <trkpt lat="49.58617" lon="-1.25776">
        <ele>-0.1</ele>
        <time>2020-06-15T12:20:29Z</time>
      </trkpt>
      <trkpt lat="49.58618" lon="-1.25771">
        <ele>-0.2</ele>
        <time>2020-06-15T12:20:30Z</time>
      </trkpt>
      <trkpt lat="49.58619" lon="-1.25769">
        <ele>-0.2</ele>
        <time>2020-06-15T12:20:31Z</time>
      </trkpt>
      <trkpt lat="49.58621" lon="-1.25764">
        <ele>-0.2</ele>
        <time>2020-06-15T12:20:32Z</time>
      </trkpt>
      <trkpt lat="49.58621" lon="-1.25763">
        <ele>-0.2</ele>
        <time>2020-06-15T12:20:33Z</time>
      </trkpt>
      <trkpt lat="49.58623" lon="-1.25758">
        <ele>-0.2</ele>
        <time>2020-06-15T12:20:34Z</time>
      </trkpt>
      <trkpt lat="49.58623" lon="-1.25757">
        <ele>-0.2</ele>
        <time>2020-06-15T12:20:35Z</time>
      </trkpt>
      <trkpt lat="49.58625" lon="-1.25752">
        <ele>-0.2</ele>
        <time>2020-06-15T12:20:36Z</time>
      </trkpt>
      <trkpt lat="49.58625" lon="-1.25751">
        <ele>-0.2</ele>
        <time>2020-06-15T12:20:37Z</time>
      </trkpt>
      <trkpt lat="49.58628" lon="-1.25746">
        <ele>-0.2</ele>
        <time>2020-06-15T12:20:38Z</time>
      </trkpt>
      <trkpt lat="49.58628" lon="-1.25744">
        <ele>-0.2</ele>
        <time>2020-06-15T12:20:39Z</time>
      </trkpt>
      <trkpt lat="49.58629" lon="-1.25739">
        <ele>-0.2</ele>
        <time>2020-06-15T12:20:40Z</time>
      </trkpt>
      <trkpt lat="49.5863" lon="-1.25738">
        <ele>-0.2</ele>
        <time>2020-06-15T12:20:41Z</time>
      </trkpt>
      <trkpt lat="49.58631" lon="-1.25733">
        <ele>-0.2</ele>
        <time>2020-06-15T12:20:42Z</time>
      </trkpt>
      <trkpt lat="49.58631" lon="-1.25731">
        <ele>-0.2</ele>
        <time>2020-06-15T12:20:43Z</time>
      </trkpt>
      <trkpt lat="49.58632" lon="-1.25729">
        <ele>-0.2</ele>
        <time>2020-06-15T12:20:44Z</time>
      </trkpt>
      <trkpt lat="49.58632" lon="-1.25727">
        <ele>-0.2</ele>
        <time>2020-06-15T12:20:45Z</time>
      </trkpt>
      <trkpt lat="49.58633" lon="-1.25724">
        <ele>-0.1</ele>
        <time>2020-06-15T12:20:46Z</time>
      </trkpt>
      <trkpt lat="49.58633" lon="-1.25722">
        <ele>-0.1</ele>
        <time>2020-06-15T12:20:47Z</time>
      </trkpt>
      <trkpt lat="49.58634" lon="-1.25721">
        <ele>-0.1</ele>
        <time>2020-06-15T12:20:48Z</time>
      </trkpt>
      <trkpt lat="49.58634" lon="-1.25721">
        <ele>-0.1</ele>
        <time>2020-06-15T12:20:49Z</time>
      </trkpt>
      <trkpt lat="49.58634" lon="-1.25719">
        <ele>-0.1</ele>
        <time>2020-06-15T12:20:50Z</time>
      </trkpt>
      <trkpt lat="49.58634" lon="-1.25718">
        <ele>-0.1</ele>
        <time>2020-06-15T12:20:51Z</time>
      </trkpt>
      <trkpt lat="49.58635" lon="-1.25715">
        <time>2020-06-15T12:20:52Z</time>
      </trkpt>
      <trkpt lat="49.58636" lon="-1.25713">
        <time>2020-06-15T12:20:53Z</time>
      </trkpt>
      <trkpt lat="49.58637" lon="-1.25711">
        <time>2020-06-15T12:20:54Z</time>
      </trkpt>
      <trkpt lat="49.58637" lon="-1.25709">
        <time>2020-06-15T12:20:55Z</time>
      </trkpt>
      <trkpt lat="49.58637" lon="-1.25708">
        <time>2020-06-15T12:20:56Z</time>
      </trkpt>
      <trkpt lat="49.58638" lon="-1.25706">
        <time>2020-06-15T12:20:57Z</time>
      </trkpt>
      <trkpt lat="49.5864" lon="-1.25704">
        <time>2020-06-15T12:20:58Z</time>
      </trkpt>
      <trkpt lat="49.58641" lon="-1.25703">
        <ele>0.1</ele>
        <time>2020-06-15T12:20:59Z</time>
      </trkpt>
      <trkpt lat="49.58642" lon="-1.25701">
        <ele>0.1</ele>
        <time>2020-06-15T12:21:00Z</time>
      </trkpt>
      <trkpt lat="49.58643" lon="-1.25699">
        <ele>0.1</ele>
        <time>2020-06-15T12:21:01Z</time>
      </trkpt>
      <trkpt lat="49.58643" lon="-1.25699">
        <ele>0.1</ele>
        <time>2020-06-15T12:21:02Z</time>
      </trkpt>
      <trkpt lat="49.58643" lon="-1.25698">
        <ele>0.1</ele>
        <time>2020-06-15T12:21:03Z</time>
      </trkpt>
      <trkpt lat="49.58643" lon="-1.25698">
        <ele>0.1</ele>
        <time>2020-06-15T12:21:04Z</time>
      </trkpt>
      <trkpt lat="49.58643" lon="-1.25698">
        <ele>0.1</ele>
        <time>2020-06-15T12:21:05Z</time>
      </trkpt>
      <trkpt lat="49.58643" lon="-1.25698">
        <ele>0.1</ele>
        <time>2020-06-15T12:21:06Z</time>
      </trkpt>
      <trkpt lat="49.58643" lon="-1.25698">
        <ele>0.1</ele>
        <time>2020-06-15T12:21:07Z</time>
      </trkpt>
      <trkpt lat="49.58643" lon="-1.25698">
        <ele>0.1</ele>
        <time>2020-06-15T12:21:08Z</time>
      </trkpt>
      <trkpt lat="49.58643" lon="-1.25698">
        <ele>0.1</ele>
        <time>2020-06-15T12:21:09Z</time>
      </trkpt>
      <trkpt lat="49.58643" lon="-1.25698">
        <ele>0.1</ele>
        <time>2020-06-15T12:21:10Z</time>
      </trkpt>
      <trkpt lat="49.58643" lon="-1.25698">
        <ele>0.1</ele>
        <time>2020-06-15T12:21:11Z</time>
      </trkpt>
      <trkpt lat="49.58643" lon="-1.25698">
        <ele>0.1</ele>
        <time>2020-06-15T12:21:12Z</time>
      </trkpt>
      <trkpt lat="49.58643" lon="-1.25698">
        <ele>0.1</ele>
        <time>2020-06-15T12:21:13Z</time>
      </trkpt>
      <trkpt lat="49.58643" lon="-1.25698">
        <ele>0.1</ele>
        <time>2020-06-15T12:21:14Z</time>
      </trkpt>
      <trkpt lat="49.58644" lon="-1.25687">
        <ele>0.1</ele>
        <time>2020-06-15T12:21:40Z</time>
      </trkpt>
      <trkpt lat="49.58645" lon="-1.25686">
        <ele>0.1</ele>
        <time>2020-06-15T12:21:41Z</time>
      </trkpt>
      <trkpt lat="49.58645" lon="-1.25686">
        <ele>0.1</ele>
        <time>2020-06-15T12:21:42Z</time>
      </trkpt>
      <trkpt lat="49.58645" lon="-1.25684">
        <ele>0.1</ele>
        <time>2020-06-15T12:21:43Z</time>
      </trkpt>
      <trkpt lat="49.58645" lon="-1.25684">
        <ele>0.1</ele>
        <time>2020-06-15T12:21:44Z</time>
      </trkpt>
      <trkpt lat="49.58646" lon="-1.25684">
        <ele>0.1</ele>
        <time>2020-06-15T12:21:45Z</time>
      </trkpt>
      <trkpt lat="49.58646" lon="-1.25683">
        <ele>0.1</ele>
        <time>2020-06-15T12:21:46Z</time>
      </trkpt>
      <trkpt lat="49.58646" lon="-1.25683">
        <ele>0.1</ele>
        <time>2020-06-15T12:21:47Z</time>
      </trkpt>
      <trkpt lat="49.58647" lon="-1.25683">
        <ele>0.1</ele>
        <time>2020-06-15T12:21:48Z</time>
      </trkpt>
      <trkpt lat="49.58647" lon="-1.25683">
        <ele>0.1</ele>
        <time>2020-06-15T12:21:49Z</time>
      </trkpt>
      <trkpt lat="49.58647" lon="-1.25683">
        <ele>0.1</ele>
        <time>2020-06-15T12:21:50Z</time>
      </trkpt>
      <trkpt lat="49.58648" lon="-1.25685">
        <ele>0.1</ele>
        <time>2020-06-15T12:21:51Z</time>
      </trkpt>
      <trkpt lat="49.58649" lon="-1.25685">
        <ele>0.1</ele>
        <time>2020-06-15T12:21:52Z</time>
      </trkpt>
      <trkpt lat="49.58649" lon="-1.25685">
        <ele>0.1</ele>
        <time>2020-06-15T12:21:53Z</time>
      </trkpt>
      <trkpt lat="49.58649" lon="-1.25685">
        <ele>0.1</ele>
        <time>2020-06-15T12:21:54Z</time>
      </trkpt>
      <trkpt lat="49.58649" lon="-1.25685">
        <ele>0.1</ele>
        <time>2020-06-15T12:21:55Z</time>
      </trkpt>
      <trkpt lat="49.58648" lon="-1.25685">
        <ele>0.1</ele>
        <time>2020-06-15T12:21:56Z</time>
      </trkpt>
      <trkpt lat="49.58647" lon="-1.25685">
        <ele>0.1</ele>
        <time>2020-06-15T12:21:57Z</time>
      </trkpt>
      <trkpt lat="49.58646" lon="-1.25685">
        <time>2020-06-15T12:21:58Z</time>
      </trkpt>
      <trkpt lat="49.58646" lon="-1.25686">
        <time>2020-06-15T12:21:59Z</time>
      </trkpt>
      <trkpt lat="49.58646" lon="-1.25687">
        <time>2020-06-15T12:22:00Z</time>
      </trkpt>
      <trkpt lat="49.58646" lon="-1.25688">
        <time>2020-06-15T12:22:01Z</time>
      </trkpt>
      <trkpt lat="49.58646" lon="-1.25688">
        <time>2020-06-15T12:22:02Z</time>
      </trkpt>
      <trkpt lat="49.58646" lon="-1.25689">
        <time>2020-06-15T12:22:03Z</time>
      </trkpt>
      <trkpt lat="49.58645" lon="-1.2569">
        <time>2020-06-15T12:22:04Z</time>
      </trkpt>
      <trkpt lat="49.58644" lon="-1.25688">
        <time>2020-06-15T12:22:05Z</time>
      </trkpt>
      <trkpt lat="49.58644" lon="-1.25687">
        <time>2020-06-15T12:22:06Z</time>
      </trkpt>
      <trkpt lat="49.58643" lon="-1.25687">
        <time>2020-06-15T12:22:07Z</time>
      </trkpt>
      <trkpt lat="49.58643" lon="-1.25687">
        <time>2020-06-15T12:22:08Z</time>
      </trkpt>
      <trkpt lat="49.58642" lon="-1.25686">
        <time>2020-06-15T12:22:09Z</time>
      </trkpt>
      <trkpt lat="49.58643" lon="-1.25687">
        <time>2020-06-15T12:22:10Z</time>
      </trkpt>
      <trkpt lat="49.58643" lon="-1.25687">
        <time>2020-06-15T12:22:11Z</time>
      </trkpt>
      <trkpt lat="49.58643" lon="-1.25687">
        <time>2020-06-15T12:22:12Z</time>
      </trkpt>
      <trkpt lat="49.58643" lon="-1.25688">
        <time>2020-06-15T12:22:13Z</time>
      </trkpt>
      <trkpt lat="49.58644" lon="-1.25688">
        <time>2020-06-15T12:22:14Z</time>
      </trkpt>
      <trkpt lat="49.58644" lon="-1.25688">
        <ele>-0.1</ele>
        <time>2020-06-15T12:30:53Z</time>
      </trkpt>
      <trkpt lat="49.58644" lon="-1.25688">
        <ele>-0.1</ele>
        <time>2020-06-15T12:30:54Z</time>
      </trkpt>
      <trkpt lat="49.58644" lon="-1.25689">
        <ele>-0.1</ele>
        <time>2020-06-15T12:30:55Z</time>
      </trkpt>
      <trkpt lat="49.58645" lon="-1.25689">
        <ele>-0.1</ele>
        <time>2020-06-15T12:30:56Z</time>
      </trkpt>
      <trkpt lat="49.58645" lon="-1.25689">
        <ele>-0.1</ele>
        <time>2020-06-15T12:30:57Z</time>
      </trkpt>
      <trkpt lat="49.58645" lon="-1.2569">
        <ele>-0.1</ele>
        <time>2020-06-15T12:30:58Z</time>
      </trkpt>
      <trkpt lat="49.58645" lon="-1.2569">
        <ele>-0.1</ele>
        <time>2020-06-15T12:30:59Z</time>
      </trkpt>
      <trkpt lat="49.58646" lon="-1.2569">
        <ele>-0.1</ele>
        <time>2020-06-15T12:31:00Z</time>
      </trkpt>
      <trkpt lat="49.58646" lon="-1.25691">
        <ele>-0.1</ele>
        <time>2020-06-15T12:31:01Z</time>
      </trkpt>
      <trkpt lat="49.58646" lon="-1.25691">
        <ele>-0.1</ele>
        <time>2020-06-15T12:31:02Z</time>
      </trkpt>
      <trkpt lat="49.58646" lon="-1.25691">
        <ele>-0.1</ele>
        <time>2020-06-15T12:31:03Z</time>
      </trkpt>
      <trkpt lat="49.58647" lon="-1.25691">
        <ele>-0.1</ele>
        <time>2020-06-15T12:31:04Z</time>
      </trkpt>
      <trkpt lat="49.58647" lon="-1.25692">
        <ele>-0.1</ele>
        <time>2020-06-15T12:31:05Z</time>
      </trkpt>
      <trkpt lat="49.58647" lon="-1.25692">
        <ele>-0.1</ele>
        <time>2020-06-15T12:31:06Z</time>
      </trkpt>
      <trkpt lat="49.58647" lon="-1.25691">
        <ele>-0.1</ele>
        <time>2020-06-15T12:31:07Z</time>
      </trkpt>
      <trkpt lat="49.58647" lon="-1.25692">
        <ele>-0.1</ele>
        <time>2020-06-15T12:31:08Z</time>
      </trkpt>
      <trkpt lat="49.58646" lon="-1.25694">
        <ele>-0.1</ele>
        <time>2020-06-15T12:31:09Z</time>
      </trkpt>
      <trkpt lat="49.58646" lon="-1.25696">
        <ele>-0.2</ele>
        <time>2020-06-15T12:31:10Z</time>
      </trkpt>
      <trkpt lat="49.58646" lon="-1.25696">
        <ele>-0.2</ele>
        <time>2020-06-15T12:31:11Z</time>
      </trkpt>
      <trkpt lat="49.58646" lon="-1.25697">
        <ele>-0.2</ele>
        <time>2020-06-15T12:31:12Z</time>
      </trkpt>
      <trkpt lat="49.58646" lon="-1.25697">
        <ele>-0.2</ele>
        <time>2020-06-15T12:31:13Z</time>
      </trkpt>
      <trkpt lat="49.58647" lon="-1.25699">
        <ele>-0.2</ele>
        <time>2020-06-15T12:31:14Z</time>
      </trkpt>
      <trkpt lat="49.58647" lon="-1.257">
        <ele>-0.2</ele>
        <time>2020-06-15T12:31:15Z</time>
      </trkpt>
      <trkpt lat="49.58647" lon="-1.257">
        <ele>-0.2</ele>
        <time>2020-06-15T12:31:16Z</time>
      </trkpt>
      <trkpt lat="49.58646" lon="-1.25701">
        <ele>-0.2</ele>
        <time>2020-06-15T12:31:17Z</time>
      </trkpt>
      <trkpt lat="49.58645" lon="-1.25701">
        <ele>-0.2</ele>
        <time>2020-06-15T12:31:18Z</time>
      </trkpt>
      <trkpt lat="49.58644" lon="-1.25701">
        <ele>-0.2</ele>
        <time>2020-06-15T12:31:19Z</time>
      </trkpt>
      <trkpt lat="49.58643" lon="-1.25701">
        <ele>-0.2</ele>
        <time>2020-06-15T12:31:20Z</time>
      </trkpt>
      <trkpt lat="49.58642" lon="-1.25702">
        <ele>-0.2</ele>
        <time>2020-06-15T12:31:21Z</time>
      </trkpt>
      <trkpt lat="49.58641" lon="-1.25702">
        <ele>-0.2</ele>
        <time>2020-06-15T12:31:22Z</time>
      </trkpt>
      <trkpt lat="49.5864" lon="-1.25702">
        <ele>-0.2</ele>
        <time>2020-06-15T12:31:23Z</time>
      </trkpt>
      <trkpt lat="49.58639" lon="-1.25702">
        <ele>-0.2</ele>
        <time>2020-06-15T12:31:24Z</time>
      </trkpt>
      <trkpt lat="49.58638" lon="-1.25702">
        <ele>-0.2</ele>
        <time>2020-06-15T12:31:25Z</time>
      </trkpt>
      <trkpt lat="49.58637" lon="-1.25703">
        <ele>-0.2</ele>
        <time>2020-06-15T12:31:26Z</time>
      </trkpt>
      <trkpt lat="49.58636" lon="-1.25703">
        <ele>-0.2</ele>
        <time>2020-06-15T12:31:27Z</time>
      </trkpt>
      <trkpt lat="49.58635" lon="-1.25703">
        <ele>-0.2</ele>
        <time>2020-06-15T12:31:28Z</time>
      </trkpt>
      <trkpt lat="49.58634" lon="-1.25703">
        <ele>-0.2</ele>
        <time>2020-06-15T12:33:11Z</time>
      </trkpt>
      <trkpt lat="49.58633" lon="-1.25704">
        <ele>-0.2</ele>
        <time>2020-06-15T12:33:12Z</time>
      </trkpt>
      <trkpt lat="49.58632" lon="-1.25704">
        <ele>-0.2</ele>
        <time>2020-06-15T12:33:13Z</time>
      </trkpt>
      <trkpt lat="49.58632" lon="-1.25705">
        <ele>-0.2</ele>
        <time>2020-06-15T12:33:14Z</time>
      </trkpt>
      <trkpt lat="49.58632" lon="-1.25705">
        <ele>-0.2</ele>
        <time>2020-06-15T12:33:15Z</time>
      </trkpt>
      <trkpt lat="49.58632" lon="-1.25706">
        <ele>-0.2</ele>
        <time>2020-06-15T12:33:16Z</time>
      </trkpt>
      <trkpt lat="49.58632" lon="-1.25707">
        <ele>-0.2</ele>
        <time>2020-06-15T12:33:17Z</time>
      </trkpt>
      <trkpt lat="49.58631" lon="-1.25707">
        <ele>-0.2</ele>
        <time>2020-06-15T12:33:18Z</time>
      </trkpt>
      <trkpt lat="49.58631" lon="-1.25708">
        <ele>-0.2</ele>
        <time>2020-06-15T12:33:19Z</time>
      </trkpt>
      <trkpt lat="49.58631" lon="-1.25709">
        <ele>-0.2</ele>
        <time>2020-06-15T12:33:20Z</time>
      </trkpt>
      <trkpt lat="49.58631" lon="-1.2571">
        <ele>-0.2</ele>
        <time>2020-06-15T12:33:21Z</time>
      </trkpt>
      <trkpt lat="49.58631" lon="-1.25711">
        <ele>-0.2</ele>
        <time>2020-06-15T12:33:22Z</time>
      </trkpt>
      <trkpt lat="49.58631" lon="-1.25712">
        <ele>-0.2</ele>
        <time>2020-06-15T12:33:23Z</time>
      </trkpt>
      <trkpt lat="49.58631" lon="-1.25712">
        <ele>-0.2</ele>
        <time>2020-06-15T12:33:24Z</time>
      </trkpt>
      <trkpt lat="49.58631" lon="-1.25711">
        <ele>-0.2</ele>
        <time>2020-06-15T12:33:25Z</time>
      </trkpt>
      <trkpt lat="49.5863" lon="-1.25711">
        <ele>-0.2</ele>
        <time>2020-06-15T12:33:26Z</time>
      </trkpt>
      <trkpt lat="49.5863" lon="-1.2571">
        <ele>-0.2</ele>
        <time>2020-06-15T12:33:27Z</time>
      </trkpt>
      <trkpt lat="49.58631" lon="-1.25709">
        <ele>-0.2</ele>
        <time>2020-06-15T12:33:28Z</time>
      </trkpt>
      <trkpt lat="49.5863" lon="-1.25709">
        <ele>-0.2</ele>
        <time>2020-06-15T12:33:29Z</time>
      </trkpt>
      <trkpt lat="49.5863" lon="-1.25708">
        <ele>-0.2</ele>
        <time>2020-06-15T12:33:30Z</time>
      </trkpt>
      <trkpt lat="49.5863" lon="-1.25709">
        <ele>-0.2</ele>
        <time>2020-06-15T12:33:31Z</time>
      </trkpt>
      <trkpt lat="49.5863" lon="-1.25709">
        <ele>-0.2</ele>
        <time>2020-06-15T12:33:32Z</time>
      </trkpt>
      <trkpt lat="49.5863" lon="-1.25709">
        <ele>-0.2</ele>
        <time>2020-06-15T12:33:33Z</time>
      </trkpt>
      <trkpt lat="49.5863" lon="-1.25709">
        <ele>-0.2</ele>
        <time>2020-06-15T12:33:34Z</time>
      </trkpt>
      <trkpt lat="49.58623" lon="-1.2572">
        <ele>-0.1</ele>
        <time>2020-06-15T12:35:24Z</time>
      </trkpt>
      <trkpt lat="49.58623" lon="-1.2572">
        <ele>-0.1</ele>
        <time>2020-06-15T12:35:25Z</time>
      </trkpt>
      <trkpt lat="49.58623" lon="-1.2572">
        <ele>-0.1</ele>
        <time>2020-06-15T12:35:26Z</time>
      </trkpt>
      <trkpt lat="49.58623" lon="-1.2572">
        <ele>-0.1</ele>
        <time>2020-06-15T12:35:27Z</time>
      </trkpt>
      <trkpt lat="49.58624" lon="-1.25719">
        <ele>-0.1</ele>
        <time>2020-06-15T12:35:28Z</time>
      </trkpt>
      <trkpt lat="49.58624" lon="-1.25719">
        <ele>-0.1</ele>
        <time>2020-06-15T12:35:29Z</time>
      </trkpt>
      <trkpt lat="49.58624" lon="-1.2572">
        <ele>-0.1</ele>
        <time>2020-06-15T12:35:30Z</time>
      </trkpt>
      <trkpt lat="49.58624" lon="-1.25721">
        <ele>-0.1</ele>
        <time>2020-06-15T12:35:31Z</time>
      </trkpt>
      <trkpt lat="49.58624" lon="-1.25721">
        <ele>-0.1</ele>
        <time>2020-06-15T12:35:32Z</time>
      </trkpt>
      <trkpt lat="49.58624" lon="-1.25721">
        <ele>-0.1</ele>
        <time>2020-06-15T12:35:33Z</time>
      </trkpt>
      <trkpt lat="49.58624" lon="-1.25722">
        <ele>-0.1</ele>
        <time>2020-06-15T12:35:34Z</time>
      </trkpt>
      <trkpt lat="49.58624" lon="-1.25723">
        <ele>-0.1</ele>
        <time>2020-06-15T12:35:35Z</time>
      </trkpt>
      <trkpt lat="49.58623" lon="-1.25725">
        <ele>-0.1</ele>
        <time>2020-06-15T12:35:36Z</time>
      </trkpt>
      <trkpt lat="49.58622" lon="-1.25726">
        <time>2020-06-15T12:35:37Z</time>
      </trkpt>
      <trkpt lat="49.58621" lon="-1.25727">
        <time>2020-06-15T12:35:38Z</time>
      </trkpt>
      <trkpt lat="49.58621" lon="-1.25729">
        <time>2020-06-15T12:35:39Z</time>
      </trkpt>
      <trkpt lat="49.5862" lon="-1.25731">
        <time>2020-06-15T12:35:40Z</time>
      </trkpt>
      <trkpt lat="49.5862" lon="-1.25732">
        <ele>0.1</ele>
        <time>2020-06-15T12:35:41Z</time>
      </trkpt>
      <trkpt lat="49.58619" lon="-1.25733">
        <ele>0.1</ele>
        <time>2020-06-15T12:35:42Z</time>
      </trkpt>
      <trkpt lat="49.58619" lon="-1.25735">
        <ele>0.1</ele>
        <time>2020-06-15T12:35:43Z</time>
      </trkpt>
      <trkpt lat="49.58619" lon="-1.25735">
        <ele>0.1</ele>
        <time>2020-06-15T12:35:44Z</time>
      </trkpt>
      <trkpt lat="49.58618" lon="-1.25736">
        <ele>0.1</ele>
        <time>2020-06-15T12:35:45Z</time>
      </trkpt>
      <trkpt lat="49.58618" lon="-1.25736">
        <ele>0.2</ele>
        <time>2020-06-15T12:35:46Z</time>
      </trkpt>
      <trkpt lat="49.58618" lon="-1.25736">
        <ele>0.2</ele>
        <time>2020-06-15T12:35:47Z</time>
      </trkpt>
      <trkpt lat="49.58617" lon="-1.25737">
        <ele>0.2</ele>
        <time>2020-06-15T12:35:48Z</time>
      </trkpt>
      <trkpt lat="49.58617" lon="-1.25737">
        <ele>0.2</ele>
        <time>2020-06-15T12:35:49Z</time>
      </trkpt>
      <trkpt lat="49.58617" lon="-1.25737">
        <ele>0.2</ele>
        <time>2020-06-15T12:35:50Z</time>
      </trkpt>
      <trkpt lat="49.58618" lon="-1.25738">
        <ele>0.2</ele>
        <time>2020-06-15T12:35:51Z</time>
      </trkpt>
      <trkpt lat="49.58618" lon="-1.25738">
        <ele>0.2</ele>
        <time>2020-06-15T12:35:52Z</time>
      </trkpt>
      <trkpt lat="49.58618" lon="-1.25738">
        <ele>0.2</ele>
        <time>2020-06-15T12:35:53Z</time>
      </trkpt>
      <trkpt lat="49.58618" lon="-1.25739">
        <ele>0.2</ele>
        <time>2020-06-15T12:35:54Z</time>
      </trkpt>
      <trkpt lat="49.58618" lon="-1.25739">
        <ele>0.2</ele>
        <time>2020-06-15T12:35:55Z</time>
      </trkpt>
      <trkpt lat="49.58618" lon="-1.25739">
        <ele>0.2</ele>
        <time>2020-06-15T12:35:56Z</time>
      </trkpt>
      <trkpt lat="49.58618" lon="-1.25739">
        <ele>0.2</ele>
        <time>2020-06-15T12:35:57Z</time>
      </trkpt>
      <trkpt lat="49.58617" lon="-1.25746">
        <ele>0.3</ele>
        <time>2020-06-15T12:36:06Z</time>
      </trkpt>
      <trkpt lat="49.58616" lon="-1.25748">
        <ele>0.4</ele>
        <time>2020-06-15T12:36:07Z</time>
      </trkpt>
      <trkpt lat="49.58616" lon="-1.2575">
        <ele>0.4</ele>
        <time>2020-06-15T12:36:08Z</time>
      </trkpt>
      <trkpt lat="49.58615" lon="-1.25751">
        <ele>0.4</ele>
        <time>2020-06-15T12:36:09Z</time>
      </trkpt>
      <trkpt lat="49.58614" lon="-1.25753">
        <ele>0.4</ele>
        <time>2020-06-15T12:36:10Z</time>
      </trkpt>
      <trkpt lat="49.58614" lon="-1.25755">
        <ele>0.5</ele>
        <time>2020-06-15T12:36:11Z</time>
      </trkpt>
      <trkpt lat="49.58613" lon="-1.25758">
        <ele>0.5</ele>
        <time>2020-06-15T12:36:12Z</time>
      </trkpt>
      <trkpt lat="49.58613" lon="-1.25762">
        <ele>0.5</ele>
        <time>2020-06-15T12:36:13Z</time>
      </trkpt>
      <trkpt lat="49.58613" lon="-1.25764">
        <ele>0.6</ele>
        <time>2020-06-15T12:36:14Z</time>
      </trkpt>
      <trkpt lat="49.58614" lon="-1.25768">
        <ele>0.6</ele>
        <time>2020-06-15T12:36:15Z</time>
      </trkpt>
      <trkpt lat="49.58614" lon="-1.2577">
        <ele>0.6</ele>
        <time>2020-06-15T12:36:16Z</time>
      </trkpt>
      <trkpt lat="49.58614" lon="-1.25773">
        <ele>0.6</ele>
        <time>2020-06-15T12:36:17Z</time>
      </trkpt>
      <trkpt lat="49.58613" lon="-1.25775">
        <ele>0.7</ele>
        <time>2020-06-15T12:36:18Z</time>
      </trkpt>
      <trkpt lat="49.58611" lon="-1.25779">
        <ele>0.7</ele>
        <time>2020-06-15T12:36:19Z</time>
      </trkpt>
      <trkpt lat="49.5861" lon="-1.2578">
        <ele>0.7</ele>
        <time>2020-06-15T12:36:20Z</time>
      </trkpt>
      <trkpt lat="49.58608" lon="-1.25783">
        <ele>0.7</ele>
        <time>2020-06-15T12:36:21Z</time>
      </trkpt>
      <trkpt lat="49.58608" lon="-1.25785">
        <ele>0.7</ele>
        <time>2020-06-15T12:36:22Z</time>
      </trkpt>
      <trkpt lat="49.58607" lon="-1.25788">
        <ele>0.7</ele>
        <time>2020-06-15T12:36:23Z</time>
      </trkpt>
      <trkpt lat="49.58606" lon="-1.2579">
        <ele>0.7</ele>
        <time>2020-06-15T12:36:24Z</time>
      </trkpt>
      <trkpt lat="49.58605" lon="-1.25793">
        <ele>0.7</ele>
        <time>2020-06-15T12:36:25Z</time>
      </trkpt>
      <trkpt lat="49.58605" lon="-1.25796">
        <ele>0.7</ele>
        <time>2020-06-15T12:36:26Z</time>
      </trkpt>
      <trkpt lat="49.58604" lon="-1.25798">
        <ele>0.7</ele>
        <time>2020-06-15T12:36:27Z</time>
      </trkpt>
      <trkpt lat="49.58604" lon="-1.258">
        <ele>0.7</ele>
        <time>2020-06-15T12:36:28Z</time>
      </trkpt>
      <trkpt lat="49.58604" lon="-1.25803">
        <ele>0.7</ele>
        <time>2020-06-15T12:36:29Z</time>
      </trkpt>
      <trkpt lat="49.58603" lon="-1.25808">
        <ele>0.7</ele>
        <time>2020-06-15T12:36:30Z</time>
      </trkpt>
      <trkpt lat="49.58602" lon="-1.2581">
        <ele>0.7</ele>
        <time>2020-06-15T12:36:31Z</time>
      </trkpt>
      <trkpt lat="49.58601" lon="-1.25814">
        <ele>0.7</ele>
        <time>2020-06-15T12:36:32Z</time>
      </trkpt>
      <trkpt lat="49.586" lon="-1.25819">
        <ele>0.7</ele>
        <time>2020-06-15T12:36:33Z</time>
      </trkpt>
      <trkpt lat="49.586" lon="-1.2582">
        <ele>0.8</ele>
        <time>2020-06-15T12:36:34Z</time>
      </trkpt>
      <trkpt lat="49.586" lon="-1.25824">
        <ele>0.8</ele>
        <time>2020-06-15T12:36:35Z</time>
      </trkpt>
      <trkpt lat="49.58599" lon="-1.25826">
        <ele>0.8</ele>
        <time>2020-06-15T12:36:36Z</time>
      </trkpt>
      <trkpt lat="49.58597" lon="-1.2583">
        <ele>0.8</ele>
        <time>2020-06-15T12:36:37Z</time>
      </trkpt>
      <trkpt lat="49.58597" lon="-1.25832">
        <ele>0.8</ele>
        <time>2020-06-15T12:36:38Z</time>
      </trkpt>
      <trkpt lat="49.58596" lon="-1.25837">
        <ele>0.9</ele>
        <time>2020-06-15T12:36:39Z</time>
      </trkpt>
      <trkpt lat="49.58595" lon="-1.25839">
        <ele>0.9</ele>
        <time>2020-06-15T12:36:40Z</time>
      </trkpt>
      <trkpt lat="49.58594" lon="-1.25844">
        <ele>0.9</ele>
        <time>2020-06-15T12:36:41Z</time>
      </trkpt>
      <trkpt lat="49.58594" lon="-1.25846">
        <ele>0.9</ele>
        <time>2020-06-15T12:36:42Z</time>
      </trkpt>
      <trkpt lat="49.58593" lon="-1.25851">
        <ele>0.9</ele>
        <time>2020-06-15T12:36:43Z</time>
      </trkpt>
      <trkpt lat="49.58593" lon="-1.25852">
        <ele>0.9</ele>
        <time>2020-06-15T12:36:44Z</time>
      </trkpt>
      <trkpt lat="49.58592" lon="-1.25857">
        <ele>1</ele>
        <time>2020-06-15T12:36:45Z</time>
      </trkpt>
      <trkpt lat="49.58592" lon="-1.25859">
        <ele>1</ele>
        <time>2020-06-15T12:36:46Z</time>
      </trkpt>
      <trkpt lat="49.5859" lon="-1.25863">
        <ele>1</ele>
        <time>2020-06-15T12:36:47Z</time>
      </trkpt>
      <trkpt lat="49.58589" lon="-1.25865">
        <ele>1</ele>
        <time>2020-06-15T12:36:48Z</time>
      </trkpt>
      <trkpt lat="49.58588" lon="-1.25867">
        <ele>1</ele>
        <time>2020-06-15T12:36:49Z</time>
      </trkpt>
      <trkpt lat="49.58588" lon="-1.2587">
        <ele>1</ele>
        <time>2020-06-15T12:36:50Z</time>
      </trkpt>
      <trkpt lat="49.58587" lon="-1.25875">
        <ele>1.1</ele>
        <time>2020-06-15T12:36:51Z</time>
      </trkpt>
      <trkpt lat="49.58586" lon="-1.25876">
        <ele>1.1</ele>
        <time>2020-06-15T12:36:52Z</time>
      </trkpt>
      <trkpt lat="49.58586" lon="-1.25879">
        <ele>1.1</ele>
        <time>2020-06-15T12:36:53Z</time>
      </trkpt>
      <trkpt lat="49.58585" lon="-1.25881">
        <ele>1.2</ele>
        <time>2020-06-15T12:36:54Z</time>
      </trkpt>
      <trkpt lat="49.58584" lon="-1.25885">
        <ele>1.2</ele>
        <time>2020-06-15T12:36:55Z</time>
      </trkpt>
      <trkpt lat="49.58584" lon="-1.25887">
        <ele>1.2</ele>
        <time>2020-06-15T12:36:56Z</time>
      </trkpt>
      <trkpt lat="49.58584" lon="-1.25888">
        <ele>1.2</ele>
        <time>2020-06-15T12:36:57Z</time>
      </trkpt>
      <trkpt lat="49.58583" lon="-1.2589">
        <ele>1.2</ele>
        <time>2020-06-15T12:36:58Z</time>
      </trkpt>
      <trkpt lat="49.58583" lon="-1.25892">
        <ele>1.3</ele>
        <time>2020-06-15T12:36:59Z</time>
      </trkpt>
      <trkpt lat="49.58582" lon="-1.25894">
        <ele>1.3</ele>
        <time>2020-06-15T12:37:00Z</time>
      </trkpt>
      <trkpt lat="49.58582" lon="-1.25897">
        <ele>1.3</ele>
        <time>2020-06-15T12:37:01Z</time>
      </trkpt>
      <trkpt lat="49.58581" lon="-1.25899">
        <ele>1.3</ele>
        <time>2020-06-15T12:37:02Z</time>
      </trkpt>
      <trkpt lat="49.58581" lon="-1.25902">
        <ele>1.3</ele>
        <time>2020-06-15T12:37:03Z</time>
      </trkpt>
      <trkpt lat="49.5858" lon="-1.25904">
        <ele>1.3</ele>
        <time>2020-06-15T12:37:04Z</time>
      </trkpt>
      <trkpt lat="49.58579" lon="-1.25906">
        <ele>1.2</ele>
        <time>2020-06-15T12:37:05Z</time>
      </trkpt>
      <trkpt lat="49.58577" lon="-1.25909">
        <ele>1.2</ele>
        <time>2020-06-15T12:37:06Z</time>
      </trkpt>
      <trkpt lat="49.58577" lon="-1.2591">
        <ele>1.2</ele>
        <time>2020-06-15T12:37:07Z</time>
      </trkpt>
      <trkpt lat="49.58577" lon="-1.25911">
        <ele>1.2</ele>
        <time>2020-06-15T12:37:08Z</time>
      </trkpt>
      <trkpt lat="49.58577" lon="-1.25914">
        <ele>1.2</ele>
        <time>2020-06-15T12:37:09Z</time>
      </trkpt>
      <trkpt lat="49.58577" lon="-1.25916">
        <ele>1.2</ele>
        <time>2020-06-15T12:37:10Z</time>
      </trkpt>
      <trkpt lat="49.58576" lon="-1.25919">
        <ele>1.2</ele>
        <time>2020-06-15T12:37:11Z</time>
      </trkpt>
      <trkpt lat="49.58576" lon="-1.25922">
        <ele>1.2</ele>
        <time>2020-06-15T12:37:12Z</time>
      </trkpt>
      <trkpt lat="49.58575" lon="-1.25927">
        <ele>1.2</ele>
        <time>2020-06-15T12:37:13Z</time>
      </trkpt>
      <trkpt lat="49.58574" lon="-1.25929">
        <ele>1.2</ele>
        <time>2020-06-15T12:37:14Z</time>
      </trkpt>
      <trkpt lat="49.58573" lon="-1.25933">
        <ele>1.2</ele>
        <time>2020-06-15T12:37:15Z</time>
      </trkpt>
      <trkpt lat="49.58573" lon="-1.25935">
        <ele>1.3</ele>
        <time>2020-06-15T12:37:16Z</time>
      </trkpt>
      <trkpt lat="49.58572" lon="-1.25938">
        <ele>1.3</ele>
        <time>2020-06-15T12:37:17Z</time>
      </trkpt>
      <trkpt lat="49.58571" lon="-1.2594">
        <ele>1.3</ele>
        <time>2020-06-15T12:37:18Z</time>
      </trkpt>
      <trkpt lat="49.58571" lon="-1.25944">
        <ele>1.3</ele>
        <time>2020-06-15T12:37:19Z</time>
      </trkpt>
      <trkpt lat="49.58571" lon="-1.25946">
        <ele>1.3</ele>
        <time>2020-06-15T12:37:20Z</time>
      </trkpt>
      <trkpt lat="49.5857" lon="-1.25951">
        <ele>1.3</ele>
        <time>2020-06-15T12:37:21Z</time>
      </trkpt>
      <trkpt lat="49.5857" lon="-1.25952">
        <ele>1.3</ele>
        <time>2020-06-15T12:37:22Z</time>
      </trkpt>
      <trkpt lat="49.58569" lon="-1.25957">
        <ele>1.4</ele>
        <time>2020-06-15T12:37:23Z</time>
      </trkpt>
      <trkpt lat="49.58569" lon="-1.25959">
        <ele>1.4</ele>
        <time>2020-06-15T12:37:24Z</time>
      </trkpt>
      <trkpt lat="49.58567" lon="-1.25963">
        <ele>1.4</ele>
        <time>2020-06-15T12:37:25Z</time>
      </trkpt>
      <trkpt lat="49.58566" lon="-1.25965">
        <ele>1.5</ele>
        <time>2020-06-15T12:37:26Z</time>
      </trkpt>
      <trkpt lat="49.58565" lon="-1.2597">
        <ele>1.5</ele>
        <time>2020-06-15T12:37:27Z</time>
      </trkpt>
      <trkpt lat="49.58565" lon="-1.25975">
        <ele>1.6</ele>
        <time>2020-06-15T12:37:28Z</time>
      </trkpt>
      <trkpt lat="49.58564" lon="-1.25981">
        <ele>1.6</ele>
        <time>2020-06-15T12:37:29Z</time>
      </trkpt>
      <trkpt lat="49.58562" lon="-1.25986">
        <ele>1.7</ele>
        <time>2020-06-15T12:37:30Z</time>
      </trkpt>
      <trkpt lat="49.58561" lon="-1.2599">
        <ele>1.7</ele>
        <time>2020-06-15T12:37:31Z</time>
      </trkpt>
      <trkpt lat="49.5856" lon="-1.25994">
        <ele>1.7</ele>
        <time>2020-06-15T12:37:32Z</time>
      </trkpt>
      <trkpt lat="49.58558" lon="-1.25999">
        <ele>1.7</ele>
        <time>2020-06-15T12:37:33Z</time>
      </trkpt>
      <trkpt lat="49.58557" lon="-1.26001">
        <ele>1.7</ele>
        <time>2020-06-15T12:37:34Z</time>
      </trkpt>
      <trkpt lat="49.58555" lon="-1.26003">
        <ele>1.7</ele>
        <time>2020-06-15T12:37:35Z</time>
      </trkpt>
      <trkpt lat="49.58555" lon="-1.26005">
        <ele>1.7</ele>
        <time>2020-06-15T12:37:36Z</time>
      </trkpt>
      <trkpt lat="49.58554" lon="-1.2601">
        <ele>1.7</ele>
        <time>2020-06-15T12:37:37Z</time>
      </trkpt>
      <trkpt lat="49.58554" lon="-1.26012">
        <ele>1.8</ele>
        <time>2020-06-15T12:37:38Z</time>
      </trkpt>
      <trkpt lat="49.58553" lon="-1.26017">
        <ele>1.8</ele>
        <time>2020-06-15T12:37:39Z</time>
      </trkpt>
      <trkpt lat="49.58553" lon="-1.26019">
        <ele>1.8</ele>
        <time>2020-06-15T12:37:40Z</time>
      </trkpt>
      <trkpt lat="49.58551" lon="-1.26023">
        <ele>1.8</ele>
        <time>2020-06-15T12:37:41Z</time>
      </trkpt>
      <trkpt lat="49.5855" lon="-1.26025">
        <ele>1.8</ele>
        <time>2020-06-15T12:37:42Z</time>
      </trkpt>
      <trkpt lat="49.58548" lon="-1.26029">
        <ele>1.8</ele>
        <time>2020-06-15T12:37:43Z</time>
      </trkpt>
      <trkpt lat="49.58546" lon="-1.26033">
        <ele>1.8</ele>
        <time>2020-06-15T12:37:44Z</time>
      </trkpt>
      <trkpt lat="49.58545" lon="-1.26037">
        <ele>1.8</ele>
        <time>2020-06-15T12:37:45Z</time>
      </trkpt>
      <trkpt lat="49.58543" lon="-1.26042">
        <ele>1.8</ele>
        <time>2020-06-15T12:37:46Z</time>
      </trkpt>
      <trkpt lat="49.58543" lon="-1.26044">
        <ele>1.8</ele>
        <time>2020-06-15T12:37:47Z</time>
      </trkpt>
      <trkpt lat="49.58542" lon="-1.26049">
        <ele>1.8</ele>
        <time>2020-06-15T12:37:48Z</time>
      </trkpt>
      <trkpt lat="49.58541" lon="-1.26054">
        <ele>1.8</ele>
        <time>2020-06-15T12:37:49Z</time>
      </trkpt>
      <trkpt lat="49.5854" lon="-1.26059">
        <ele>1.9</ele>
        <time>2020-06-15T12:37:50Z</time>
      </trkpt>
      <trkpt lat="49.58538" lon="-1.26063">
        <ele>1.9</ele>
        <time>2020-06-15T12:37:51Z</time>
      </trkpt>
      <trkpt lat="49.58536" lon="-1.26068">
        <ele>2</ele>
        <time>2020-06-15T12:37:52Z</time>
      </trkpt>
      <trkpt lat="49.58535" lon="-1.26073">
        <ele>2</ele>
        <time>2020-06-15T12:37:53Z</time>
      </trkpt>
      <trkpt lat="49.58534" lon="-1.26079">
        <ele>2.1</ele>
        <time>2020-06-15T12:37:54Z</time>
      </trkpt>
      <trkpt lat="49.58532" lon="-1.26084">
        <ele>2.2</ele>
        <time>2020-06-15T12:37:55Z</time>
      </trkpt>
      <trkpt lat="49.58531" lon="-1.2609">
        <ele>2.3</ele>
        <time>2020-06-15T12:37:56Z</time>
      </trkpt>
      <trkpt lat="49.5853" lon="-1.26096">
        <ele>2.4</ele>
        <time>2020-06-15T12:37:57Z</time>
      </trkpt>
      <trkpt lat="49.58528" lon="-1.26102">
        <ele>2.5</ele>
        <time>2020-06-15T12:37:58Z</time>
      </trkpt>
      <trkpt lat="49.58526" lon="-1.26108">
        <ele>2.5</ele>
        <time>2020-06-15T12:37:59Z</time>
      </trkpt>
      <trkpt lat="49.58525" lon="-1.26113">
        <ele>2.5</ele>
        <time>2020-06-15T12:38:00Z</time>
      </trkpt>
      <trkpt lat="49.58523" lon="-1.26119">
        <ele>2.6</ele>
        <time>2020-06-15T12:38:01Z</time>
      </trkpt>
      <trkpt lat="49.58522" lon="-1.26126">
        <ele>2.6</ele>
        <time>2020-06-15T12:38:02Z</time>
      </trkpt>
      <trkpt lat="49.58521" lon="-1.26132">
        <ele>2.6</ele>
        <time>2020-06-15T12:38:03Z</time>
      </trkpt>
      <trkpt lat="49.5852" lon="-1.26138">
        <ele>2.6</ele>
        <time>2020-06-15T12:38:04Z</time>
      </trkpt>
      <trkpt lat="49.58518" lon="-1.26143">
        <ele>2.6</ele>
        <time>2020-06-15T12:38:05Z</time>
      </trkpt>
      <trkpt lat="49.58517" lon="-1.26148">
        <ele>2.6</ele>
        <time>2020-06-15T12:38:06Z</time>
      </trkpt>
      <trkpt lat="49.58515" lon="-1.26154">
        <ele>2.6</ele>
        <time>2020-06-15T12:38:07Z</time>
      </trkpt>
      <trkpt lat="49.58514" lon="-1.2616">
        <ele>2.6</ele>
        <time>2020-06-15T12:38:08Z</time>
      </trkpt>
      <trkpt lat="49.58512" lon="-1.26165">
        <ele>2.6</ele>
        <time>2020-06-15T12:38:09Z</time>
      </trkpt>
      <trkpt lat="49.58511" lon="-1.26173">
        <ele>2.6</ele>
        <time>2020-06-15T12:38:10Z</time>
      </trkpt>
      <trkpt lat="49.5851" lon="-1.26179">
        <ele>2.6</ele>
        <time>2020-06-15T12:38:11Z</time>
      </trkpt>
      <trkpt lat="49.58509" lon="-1.26184">
        <ele>2.7</ele>
        <time>2020-06-15T12:38:12Z</time>
      </trkpt>
      <trkpt lat="49.58508" lon="-1.26191">
        <ele>2.7</ele>
        <time>2020-06-15T12:38:13Z</time>
      </trkpt>
      <trkpt lat="49.58507" lon="-1.26196">
        <ele>2.7</ele>
        <time>2020-06-15T12:38:14Z</time>
      </trkpt>
      <trkpt lat="49.58506" lon="-1.262">
        <ele>2.8</ele>
        <time>2020-06-15T12:38:15Z</time>
      </trkpt>
      <trkpt lat="49.58505" lon="-1.26205">
        <ele>2.8</ele>
        <time>2020-06-15T12:38:16Z</time>
      </trkpt>
      <trkpt lat="49.58504" lon="-1.26211">
        <ele>2.8</ele>
        <time>2020-06-15T12:38:17Z</time>
      </trkpt>
      <trkpt lat="49.58504" lon="-1.26216">
        <ele>2.8</ele>
        <time>2020-06-15T12:38:18Z</time>
      </trkpt>
      <trkpt lat="49.58504" lon="-1.26217">
        <ele>2.8</ele>
        <time>2020-06-15T12:38:19Z</time>
      </trkpt>
      <trkpt lat="49.58505" lon="-1.26223">
        <ele>2.8</ele>
        <time>2020-06-15T12:38:20Z</time>
      </trkpt>
      <trkpt lat="49.58505" lon="-1.26225">
        <ele>2.8</ele>
        <time>2020-06-15T12:38:21Z</time>
      </trkpt>
      <trkpt lat="49.58507" lon="-1.2623">
        <ele>2.8</ele>
        <time>2020-06-15T12:38:22Z</time>
      </trkpt>
      <trkpt lat="49.58508" lon="-1.26231">
        <ele>2.8</ele>
        <time>2020-06-15T12:38:23Z</time>
      </trkpt>
      <trkpt lat="49.58511" lon="-1.26234">
        <ele>2.8</ele>
        <time>2020-06-15T12:38:24Z</time>
      </trkpt>
      <trkpt lat="49.58512" lon="-1.26234">
        <ele>2.8</ele>
        <time>2020-06-15T12:38:25Z</time>
      </trkpt>
      <trkpt lat="49.58515" lon="-1.26238">
        <ele>2.7</ele>
        <time>2020-06-15T12:38:26Z</time>
      </trkpt>
      <trkpt lat="49.58516" lon="-1.2624">
        <ele>2.6</ele>
        <time>2020-06-15T12:38:27Z</time>
      </trkpt>
      <trkpt lat="49.58518" lon="-1.26243">
        <ele>2.6</ele>
        <time>2020-06-15T12:38:28Z</time>
      </trkpt>
      <trkpt lat="49.5852" lon="-1.2625">
        <ele>2.6</ele>
        <time>2020-06-15T12:38:29Z</time>
      </trkpt>
      <trkpt lat="49.5852" lon="-1.26254">
        <ele>2.6</ele>
        <time>2020-06-15T12:38:30Z</time>
      </trkpt>
      <trkpt lat="49.58517" lon="-1.26259">
        <ele>2.6</ele>
        <time>2020-06-15T12:38:31Z</time>
      </trkpt>
      <trkpt lat="49.58516" lon="-1.26261">
        <ele>2.6</ele>
        <time>2020-06-15T12:38:32Z</time>
      </trkpt>
      <trkpt lat="49.58515" lon="-1.26265">
        <ele>2.6</ele>
        <time>2020-06-15T12:38:33Z</time>
      </trkpt>
      <trkpt lat="49.58512" lon="-1.26268">
        <ele>2.6</ele>
        <time>2020-06-15T12:38:34Z</time>
      </trkpt>
      <trkpt lat="49.58511" lon="-1.26273">
        <ele>2.6</ele>
        <time>2020-06-15T12:38:35Z</time>
      </trkpt>
      <trkpt lat="49.5851" lon="-1.26277">
        <ele>2.7</ele>
        <time>2020-06-15T12:38:36Z</time>
      </trkpt>
      <trkpt lat="49.58509" lon="-1.26282">
        <ele>2.7</ele>
        <time>2020-06-15T12:38:37Z</time>
      </trkpt>
      <trkpt lat="49.58508" lon="-1.26288">
        <ele>2.7</ele>
        <time>2020-06-15T12:38:38Z</time>
      </trkpt>
      <trkpt lat="49.58508" lon="-1.26292">
        <ele>2.7</ele>
        <time>2020-06-15T12:38:39Z</time>
      </trkpt>
      <trkpt lat="49.58507" lon="-1.26299">
        <ele>2.7</ele>
        <time>2020-06-15T12:38:40Z</time>
      </trkpt>
      <trkpt lat="49.58507" lon="-1.26305">
        <ele>2.7</ele>
        <time>2020-06-15T12:38:41Z</time>
      </trkpt>
      <trkpt lat="49.58508" lon="-1.26312">
        <ele>2.7</ele>
        <time>2020-06-15T12:38:42Z</time>
      </trkpt>
      <trkpt lat="49.58509" lon="-1.26318">
        <ele>2.6</ele>
        <time>2020-06-15T12:38:43Z</time>
      </trkpt>
      <trkpt lat="49.5851" lon="-1.26324">
        <ele>2.6</ele>
        <time>2020-06-15T12:38:44Z</time>
      </trkpt>
      <trkpt lat="49.5851" lon="-1.2633">
        <ele>2.6</ele>
        <time>2020-06-15T12:38:45Z</time>
      </trkpt>
      <trkpt lat="49.58511" lon="-1.26334">
        <ele>2.6</ele>
        <time>2020-06-15T12:38:46Z</time>
      </trkpt>
      <trkpt lat="49.58512" lon="-1.26339">
        <ele>2.6</ele>
        <time>2020-06-15T12:38:47Z</time>
      </trkpt>
      <trkpt lat="49.58513" lon="-1.26341">
        <ele>2.6</ele>
        <time>2020-06-15T12:38:48Z</time>
      </trkpt>
      <trkpt lat="49.58514" lon="-1.26345">
        <ele>2.6</ele>
        <time>2020-06-15T12:38:49Z</time>
      </trkpt>
      <trkpt lat="49.58515" lon="-1.26347">
        <ele>2.6</ele>
        <time>2020-06-15T12:38:50Z</time>
      </trkpt>
      <trkpt lat="49.58516" lon="-1.26348">
        <ele>2.6</ele>
        <time>2020-06-15T12:38:51Z</time>
      </trkpt>
      <trkpt lat="49.58516" lon="-1.26349">
        <ele>2.6</ele>
        <time>2020-06-15T12:38:52Z</time>
      </trkpt>
      <trkpt lat="49.58517" lon="-1.26351">
        <ele>2.5</ele>
        <time>2020-06-15T12:38:53Z</time>
      </trkpt>
      <trkpt lat="49.58517" lon="-1.26351">
        <ele>2.5</ele>
        <time>2020-06-15T12:38:54Z</time>
      </trkpt>
      <trkpt lat="49.58517" lon="-1.26352">
        <ele>2.5</ele>
        <time>2020-06-15T12:38:55Z</time>
      </trkpt>
      <trkpt lat="49.58517" lon="-1.26353">
        <ele>2.5</ele>
        <time>2020-06-15T12:38:56Z</time>
      </trkpt>
      <trkpt lat="49.58516" lon="-1.26354">
        <ele>2.5</ele>
        <time>2020-06-15T12:38:57Z</time>
      </trkpt>
      <trkpt lat="49.58516" lon="-1.26354">
        <ele>2.5</ele>
        <time>2020-06-15T12:38:58Z</time>
      </trkpt>
      <trkpt lat="49.58515" lon="-1.26354">
        <ele>2.5</ele>
        <time>2020-06-15T12:38:59Z</time>
      </trkpt>
      <trkpt lat="49.58514" lon="-1.26355">
        <ele>2.5</ele>
        <time>2020-06-15T12:39:00Z</time>
      </trkpt>
      <trkpt lat="49.58514" lon="-1.26355">
        <ele>2.5</ele>
        <time>2020-06-15T12:48:04Z</time>
      </trkpt>
      <trkpt lat="49.58513" lon="-1.26356">
        <ele>2.5</ele>
        <time>2020-06-15T12:48:05Z</time>
      </trkpt>
      <trkpt lat="49.58511" lon="-1.26357">
        <ele>2.4</ele>
        <time>2020-06-15T12:48:06Z</time>
      </trkpt>
      <trkpt lat="49.58511" lon="-1.26359">
        <ele>2.4</ele>
        <time>2020-06-15T12:48:07Z</time>
      </trkpt>
      <trkpt lat="49.58511" lon="-1.26361">
        <ele>2.4</ele>
        <time>2020-06-15T12:48:08Z</time>
      </trkpt>
      <trkpt lat="49.58512" lon="-1.26364">
        <ele>2.4</ele>
        <time>2020-06-15T12:48:09Z</time>
      </trkpt>
      <trkpt lat="49.58512" lon="-1.26366">
        <ele>2.4</ele>
        <time>2020-06-15T12:48:10Z</time>
      </trkpt>
      <trkpt lat="49.58513" lon="-1.26369">
        <ele>2.4</ele>
        <time>2020-06-15T12:48:11Z</time>
      </trkpt>
      <trkpt lat="49.58514" lon="-1.26373">
        <ele>2.4</ele>
        <time>2020-06-15T12:48:12Z</time>
      </trkpt>
      <trkpt lat="49.58515" lon="-1.26378">
        <ele>2.4</ele>
        <time>2020-06-15T12:48:13Z</time>
      </trkpt>
      <trkpt lat="49.58515" lon="-1.2638">
        <ele>2.4</ele>
        <time>2020-06-15T12:48:14Z</time>
      </trkpt>
      <trkpt lat="49.58515" lon="-1.26385">
        <ele>2.4</ele>
        <time>2020-06-15T12:48:15Z</time>
      </trkpt>
      <trkpt lat="49.58515" lon="-1.26387">
        <ele>2.4</ele>
        <time>2020-06-15T12:48:16Z</time>
      </trkpt>
      <trkpt lat="49.58515" lon="-1.26391">
        <ele>2.4</ele>
        <time>2020-06-15T12:48:17Z</time>
      </trkpt>
      <trkpt lat="49.58514" lon="-1.26395">
        <ele>2.4</ele>
        <time>2020-06-15T12:48:18Z</time>
      </trkpt>
      <trkpt lat="49.58515" lon="-1.264">
        <ele>2.4</ele>
        <time>2020-06-15T12:48:19Z</time>
      </trkpt>
      <trkpt lat="49.58514" lon="-1.26406">
        <ele>2.4</ele>
        <time>2020-06-15T12:48:20Z</time>
      </trkpt>
      <trkpt lat="49.58514" lon="-1.26409">
        <ele>2.4</ele>
        <time>2020-06-15T12:48:21Z</time>
      </trkpt>
      <trkpt lat="49.58515" lon="-1.26413">
        <ele>2.4</ele>
        <time>2020-06-15T12:48:22Z</time>
      </trkpt>
      <trkpt lat="49.58515" lon="-1.26419">
        <ele>2.4</ele>
        <time>2020-06-15T12:48:23Z</time>
      </trkpt>
      <trkpt lat="49.58515" lon="-1.26421">
        <ele>2.4</ele>
        <time>2020-06-15T12:48:24Z</time>
      </trkpt>
      <trkpt lat="49.58516" lon="-1.26427">
        <ele>2.4</ele>
        <time>2020-06-15T12:48:25Z</time>
      </trkpt>
      <trkpt lat="49.58516" lon="-1.26429">
        <ele>2.4</ele>
        <time>2020-06-15T12:48:26Z</time>
      </trkpt>
      <trkpt lat="49.58515" lon="-1.26433">
        <ele>2.4</ele>
        <time>2020-06-15T12:48:27Z</time>
      </trkpt>
      <trkpt lat="49.58516" lon="-1.2644">
        <ele>2.4</ele>
        <time>2020-06-15T12:48:28Z</time>
      </trkpt>
      <trkpt lat="49.58516" lon="-1.26442">
        <ele>2.4</ele>
        <time>2020-06-15T12:48:29Z</time>
      </trkpt>
      <trkpt lat="49.58517" lon="-1.26448">
        <ele>2.4</ele>
        <time>2020-06-15T12:48:30Z</time>
      </trkpt>
      <trkpt lat="49.58516" lon="-1.26452">
        <ele>2.4</ele>
        <time>2020-06-15T12:48:31Z</time>
      </trkpt>
      <trkpt lat="49.58516" lon="-1.26453">
        <ele>2.4</ele>
        <time>2020-06-15T12:48:32Z</time>
      </trkpt>
      <trkpt lat="49.58516" lon="-1.26458">
        <ele>2.4</ele>
        <time>2020-06-15T12:48:33Z</time>
      </trkpt>
      <trkpt lat="49.58516" lon="-1.2646">
        <ele>2.4</ele>
        <time>2020-06-15T12:48:34Z</time>
      </trkpt>
      <trkpt lat="49.58515" lon="-1.26464">
        <ele>2.4</ele>
        <time>2020-06-15T12:48:35Z</time>
      </trkpt>
      <trkpt lat="49.58514" lon="-1.26465">
        <ele>2.4</ele>
        <time>2020-06-15T12:48:36Z</time>
      </trkpt>
      <trkpt lat="49.58514" lon="-1.2647">
        <ele>2.4</ele>
        <time>2020-06-15T12:48:37Z</time>
      </trkpt>
      <trkpt lat="49.58514" lon="-1.26472">
        <ele>2.4</ele>
        <time>2020-06-15T12:48:38Z</time>
      </trkpt>
      <trkpt lat="49.58514" lon="-1.26476">
        <ele>2.4</ele>
        <time>2020-06-15T12:48:39Z</time>
      </trkpt>
      <trkpt lat="49.58514" lon="-1.26481">
        <ele>2.4</ele>
        <time>2020-06-15T12:48:40Z</time>
      </trkpt>
      <trkpt lat="49.58514" lon="-1.26487">
        <ele>2.4</ele>
        <time>2020-06-15T12:48:41Z</time>
      </trkpt>
      <trkpt lat="49.58515" lon="-1.26492">
        <ele>2.3</ele>
        <time>2020-06-15T12:48:42Z</time>
      </trkpt>
      <trkpt lat="49.58514" lon="-1.26498">
        <ele>2.3</ele>
        <time>2020-06-15T12:48:43Z</time>
      </trkpt>
      <trkpt lat="49.58514" lon="-1.26504">
        <ele>2.2</ele>
        <time>2020-06-15T12:48:44Z</time>
      </trkpt>
      <trkpt lat="49.58514" lon="-1.2651">
        <ele>2.2</ele>
        <time>2020-06-15T12:48:45Z</time>
      </trkpt>
      <trkpt lat="49.58515" lon="-1.26515">
        <ele>2.2</ele>
        <time>2020-06-15T12:48:46Z</time>
      </trkpt>
      <trkpt lat="49.58516" lon="-1.2652">
        <ele>2.1</ele>
        <time>2020-06-15T12:48:47Z</time>
      </trkpt>
      <trkpt lat="49.58516" lon="-1.26527">
        <ele>2.1</ele>
        <time>2020-06-15T12:48:48Z</time>
      </trkpt>
      <trkpt lat="49.58516" lon="-1.26534">
        <ele>2</ele>
        <time>2020-06-15T12:48:49Z</time>
      </trkpt>
      <trkpt lat="49.58516" lon="-1.2654">
        <ele>2</ele>
        <time>2020-06-15T12:48:50Z</time>
      </trkpt>
      <trkpt lat="49.58516" lon="-1.26547">
        <ele>1.9</ele>
        <time>2020-06-15T12:48:51Z</time>
      </trkpt>
      <trkpt lat="49.58515" lon="-1.26553">
        <ele>1.9</ele>
        <time>2020-06-15T12:48:52Z</time>
      </trkpt>
      <trkpt lat="49.58515" lon="-1.2656">
        <ele>1.8</ele>
        <time>2020-06-15T12:48:53Z</time>
      </trkpt>
      <trkpt lat="49.58515" lon="-1.26566">
        <ele>1.8</ele>
        <time>2020-06-15T12:48:54Z</time>
      </trkpt>
      <trkpt lat="49.58516" lon="-1.26572">
        <ele>1.7</ele>
        <time>2020-06-15T12:48:55Z</time>
      </trkpt>
      <trkpt lat="49.58516" lon="-1.26577">
        <ele>1.7</ele>
        <time>2020-06-15T12:48:56Z</time>
      </trkpt>
      <trkpt lat="49.58516" lon="-1.26583">
        <ele>1.7</ele>
        <time>2020-06-15T12:48:57Z</time>
      </trkpt>
      <trkpt lat="49.58515" lon="-1.26588">
        <ele>1.7</ele>
        <time>2020-06-15T12:48:58Z</time>
      </trkpt>
      <trkpt lat="49.58515" lon="-1.26592">
        <ele>1.7</ele>
        <time>2020-06-15T12:48:59Z</time>
      </trkpt>
      <trkpt lat="49.58514" lon="-1.26597">
        <ele>1.7</ele>
        <time>2020-06-15T12:49:00Z</time>
      </trkpt>
      <trkpt lat="49.58514" lon="-1.26601">
        <ele>1.7</ele>
        <time>2020-06-15T12:49:01Z</time>
      </trkpt>
      <trkpt lat="49.58514" lon="-1.26605">
        <ele>1.7</ele>
        <time>2020-06-15T12:49:02Z</time>
      </trkpt>
      <trkpt lat="49.58514" lon="-1.26611">
        <ele>1.7</ele>
        <time>2020-06-15T12:49:03Z</time>
      </trkpt>
      <trkpt lat="49.58514" lon="-1.26613">
        <ele>1.7</ele>
        <time>2020-06-15T12:49:04Z</time>
      </trkpt>
      <trkpt lat="49.58511" lon="-1.26617">
        <ele>1.7</ele>
        <time>2020-06-15T12:49:05Z</time>
      </trkpt>
      <trkpt lat="49.5851" lon="-1.26619">
        <ele>1.8</ele>
        <time>2020-06-15T12:49:06Z</time>
      </trkpt>
      <trkpt lat="49.58508" lon="-1.26624">
        <ele>2</ele>
        <time>2020-06-15T12:49:07Z</time>
      </trkpt>
      <trkpt lat="49.58507" lon="-1.26625">
        <ele>1.9</ele>
        <time>2020-06-15T12:49:08Z</time>
      </trkpt>
      <trkpt lat="49.58504" lon="-1.26628">
        <ele>1.9</ele>
        <time>2020-06-15T12:49:09Z</time>
      </trkpt>
      <trkpt lat="49.58504" lon="-1.2663">
        <ele>1.9</ele>
        <time>2020-06-15T12:49:10Z</time>
      </trkpt>
      <trkpt lat="49.58503" lon="-1.26635">
        <ele>1.9</ele>
        <time>2020-06-15T12:49:11Z</time>
      </trkpt>
      <trkpt lat="49.58502" lon="-1.26637">
        <ele>1.9</ele>
        <time>2020-06-15T12:49:12Z</time>
      </trkpt>
      <trkpt lat="49.58502" lon="-1.26641">
        <ele>1.8</ele>
        <time>2020-06-15T12:49:13Z</time>
      </trkpt>
      <trkpt lat="49.58501" lon="-1.26647">
        <ele>1.8</ele>
        <time>2020-06-15T12:49:14Z</time>
      </trkpt>
      <trkpt lat="49.58501" lon="-1.26649">
        <ele>1.8</ele>
        <time>2020-06-15T12:49:15Z</time>
      </trkpt>
      <trkpt lat="49.58501" lon="-1.26653">
        <ele>1.8</ele>
        <time>2020-06-15T12:49:16Z</time>
      </trkpt>
      <trkpt lat="49.58503" lon="-1.26658">
        <ele>1.8</ele>
        <time>2020-06-15T12:49:17Z</time>
      </trkpt>
      <trkpt lat="49.58503" lon="-1.2666">
        <ele>1.7</ele>
        <time>2020-06-15T12:49:18Z</time>
      </trkpt>
      <trkpt lat="49.58503" lon="-1.26664">
        <ele>1.7</ele>
        <time>2020-06-15T12:49:19Z</time>
      </trkpt>
      <trkpt lat="49.58504" lon="-1.26669">
        <ele>1.7</ele>
        <time>2020-06-15T12:49:20Z</time>
      </trkpt>
      <trkpt lat="49.58504" lon="-1.26676">
        <ele>1.7</ele>
        <time>2020-06-15T12:49:21Z</time>
      </trkpt>
      <trkpt lat="49.58505" lon="-1.26679">
        <ele>1.7</ele>
        <time>2020-06-15T12:49:22Z</time>
      </trkpt>
      <trkpt lat="49.58506" lon="-1.26684">
        <ele>1.7</ele>
        <time>2020-06-15T12:49:23Z</time>
      </trkpt>
      <trkpt lat="49.58507" lon="-1.26689">
        <ele>1.7</ele>
        <time>2020-06-15T12:49:24Z</time>
      </trkpt>
      <trkpt lat="49.58508" lon="-1.26694">
        <ele>1.7</ele>
        <time>2020-06-15T12:49:25Z</time>
      </trkpt>
      <trkpt lat="49.58508" lon="-1.26699">
        <ele>1.7</ele>
        <time>2020-06-15T12:49:26Z</time>
      </trkpt>
      <trkpt lat="49.58509" lon="-1.26704">
        <ele>1.7</ele>
        <time>2020-06-15T12:49:27Z</time>
      </trkpt>
      <trkpt lat="49.5851" lon="-1.26709">
        <ele>1.6</ele>
        <time>2020-06-15T12:49:28Z</time>
      </trkpt>
      <trkpt lat="49.58511" lon="-1.26716">
        <ele>1.6</ele>
        <time>2020-06-15T12:49:29Z</time>
      </trkpt>
      <trkpt lat="49.58512" lon="-1.26721">
        <ele>1.6</ele>
        <time>2020-06-15T12:49:30Z</time>
      </trkpt>
      <trkpt lat="49.58513" lon="-1.26727">
        <ele>1.6</ele>
        <time>2020-06-15T12:49:31Z</time>
      </trkpt>
      <trkpt lat="49.58514" lon="-1.26732">
        <ele>1.6</ele>
        <time>2020-06-15T12:49:32Z</time>
      </trkpt>
      <trkpt lat="49.58516" lon="-1.26737">
        <ele>1.6</ele>
        <time>2020-06-15T12:49:33Z</time>
      </trkpt>
      <trkpt lat="49.58517" lon="-1.26742">
        <ele>1.5</ele>
        <time>2020-06-15T12:49:34Z</time>
      </trkpt>
      <trkpt lat="49.58518" lon="-1.26747">
        <ele>1.5</ele>
        <time>2020-06-15T12:49:35Z</time>
      </trkpt>
      <trkpt lat="49.5852" lon="-1.26753">
        <ele>1.5</ele>
        <time>2020-06-15T12:49:36Z</time>
      </trkpt>
      <trkpt lat="49.5852" lon="-1.26758">
        <ele>1.5</ele>
        <time>2020-06-15T12:49:37Z</time>
      </trkpt>
      <trkpt lat="49.58522" lon="-1.26764">
        <ele>1.5</ele>
        <time>2020-06-15T12:49:38Z</time>
      </trkpt>
      <trkpt lat="49.58523" lon="-1.2677">
        <ele>1.5</ele>
        <time>2020-06-15T12:49:39Z</time>
      </trkpt>
      <trkpt lat="49.58524" lon="-1.26775">
        <ele>1.5</ele>
        <time>2020-06-15T12:49:40Z</time>
      </trkpt>
      <trkpt lat="49.58525" lon="-1.26782">
        <ele>1.5</ele>
        <time>2020-06-15T12:49:41Z</time>
      </trkpt>
      <trkpt lat="49.58526" lon="-1.26787">
        <ele>1.5</ele>
        <time>2020-06-15T12:49:42Z</time>
      </trkpt>
      <trkpt lat="49.58527" lon="-1.26793">
        <ele>1.5</ele>
        <time>2020-06-15T12:49:43Z</time>
      </trkpt>
      <trkpt lat="49.58528" lon="-1.26797">
        <ele>1.5</ele>
        <time>2020-06-15T12:49:44Z</time>
      </trkpt>
      <trkpt lat="49.5853" lon="-1.26803">
        <ele>1.5</ele>
        <time>2020-06-15T12:49:45Z</time>
      </trkpt>
      <trkpt lat="49.5853" lon="-1.26805">
        <ele>1.5</ele>
        <time>2020-06-15T12:49:46Z</time>
      </trkpt>
      <trkpt lat="49.58532" lon="-1.26811">
        <ele>1.6</ele>
        <time>2020-06-15T12:49:47Z</time>
      </trkpt>
      <trkpt lat="49.58533" lon="-1.26816">
        <ele>1.6</ele>
        <time>2020-06-15T12:49:48Z</time>
      </trkpt>
      <trkpt lat="49.58533" lon="-1.26822">
        <ele>1.6</ele>
        <time>2020-06-15T12:49:49Z</time>
      </trkpt>
      <trkpt lat="49.58535" lon="-1.26828">
        <ele>1.7</ele>
        <time>2020-06-15T12:49:50Z</time>
      </trkpt>
      <trkpt lat="49.58535" lon="-1.26834">
        <ele>1.8</ele>
        <time>2020-06-15T12:49:51Z</time>
      </trkpt>
      <trkpt lat="49.58536" lon="-1.26841">
        <ele>1.8</ele>
        <time>2020-06-15T12:49:52Z</time>
      </trkpt>
      <trkpt lat="49.58538" lon="-1.26849">
        <ele>1.9</ele>
        <time>2020-06-15T12:49:53Z</time>
      </trkpt>
      <trkpt lat="49.58539" lon="-1.26856">
        <ele>1.9</ele>
        <time>2020-06-15T12:49:54Z</time>
      </trkpt>
      <trkpt lat="49.58541" lon="-1.26863">
        <ele>1.9</ele>
        <time>2020-06-15T12:49:55Z</time>
      </trkpt>
      <trkpt lat="49.58542" lon="-1.2687">
        <ele>1.9</ele>
        <time>2020-06-15T12:49:56Z</time>
      </trkpt>
      <trkpt lat="49.58544" lon="-1.26876">
        <ele>1.9</ele>
        <time>2020-06-15T12:49:57Z</time>
      </trkpt>
      <trkpt lat="49.58544" lon="-1.26883">
        <ele>1.9</ele>
        <time>2020-06-15T12:49:58Z</time>
      </trkpt>
      <trkpt lat="49.58545" lon="-1.2689">
        <ele>1.9</ele>
        <time>2020-06-15T12:49:59Z</time>
      </trkpt>
      <trkpt lat="49.58546" lon="-1.26898">
        <ele>1.9</ele>
        <time>2020-06-15T12:50:00Z</time>
      </trkpt>
      <trkpt lat="49.58547" lon="-1.26903">
        <ele>1.9</ele>
        <time>2020-06-15T12:50:01Z</time>
      </trkpt>
      <trkpt lat="49.58549" lon="-1.2691">
        <ele>1.9</ele>
        <time>2020-06-15T12:50:02Z</time>
      </trkpt>
      <trkpt lat="49.5855" lon="-1.26917">
        <ele>1.9</ele>
        <time>2020-06-15T12:50:03Z</time>
      </trkpt>
      <trkpt lat="49.58552" lon="-1.26923">
        <ele>1.9</ele>
        <time>2020-06-15T12:50:04Z</time>
      </trkpt>
      <trkpt lat="49.58553" lon="-1.26929">
        <ele>1.9</ele>
        <time>2020-06-15T12:50:05Z</time>
      </trkpt>
      <trkpt lat="49.58555" lon="-1.26937">
        <ele>1.9</ele>
        <time>2020-06-15T12:50:06Z</time>
      </trkpt>
      <trkpt lat="49.58556" lon="-1.26944">
        <ele>1.9</ele>
        <time>2020-06-15T12:50:07Z</time>
      </trkpt>
      <trkpt lat="49.58558" lon="-1.2695">
        <ele>1.9</ele>
        <time>2020-06-15T12:50:08Z</time>
      </trkpt>
      <trkpt lat="49.5856" lon="-1.26957">
        <ele>1.9</ele>
        <time>2020-06-15T12:50:09Z</time>
      </trkpt>
      <trkpt lat="49.58562" lon="-1.26963">
        <ele>1.8</ele>
        <time>2020-06-15T12:50:10Z</time>
      </trkpt>
      <trkpt lat="49.58564" lon="-1.26971">
        <ele>1.8</ele>
        <time>2020-06-15T12:50:11Z</time>
      </trkpt>
      <trkpt lat="49.58565" lon="-1.26978">
        <ele>1.8</ele>
        <time>2020-06-15T12:50:12Z</time>
      </trkpt>
      <trkpt lat="49.58567" lon="-1.26985">
        <ele>1.8</ele>
        <time>2020-06-15T12:50:13Z</time>
      </trkpt>
      <trkpt lat="49.58568" lon="-1.26992">
        <ele>1.8</ele>
        <time>2020-06-15T12:50:14Z</time>
      </trkpt>
      <trkpt lat="49.5857" lon="-1.26999">
        <ele>1.8</ele>
        <time>2020-06-15T12:50:15Z</time>
      </trkpt>
      <trkpt lat="49.5857" lon="-1.27005">
        <ele>1.8</ele>
        <time>2020-06-15T12:50:16Z</time>
      </trkpt>
      <trkpt lat="49.58569" lon="-1.27013">
        <ele>1.8</ele>
        <time>2020-06-15T12:50:17Z</time>
      </trkpt>
      <trkpt lat="49.5857" lon="-1.27023">
        <ele>1.8</ele>
        <time>2020-06-15T12:50:18Z</time>
      </trkpt>
      <trkpt lat="49.58571" lon="-1.27032">
        <ele>1.8</ele>
        <time>2020-06-15T12:50:19Z</time>
      </trkpt>
      <trkpt lat="49.58572" lon="-1.27039">
        <ele>1.8</ele>
        <time>2020-06-15T12:50:20Z</time>
      </trkpt>
      <trkpt lat="49.58574" lon="-1.27048">
        <ele>1.8</ele>
        <time>2020-06-15T12:50:21Z</time>
      </trkpt>
      <trkpt lat="49.58575" lon="-1.27055">
        <ele>1.8</ele>
        <time>2020-06-15T12:50:22Z</time>
      </trkpt>
      <trkpt lat="49.58577" lon="-1.27061">
        <ele>1.8</ele>
        <time>2020-06-15T12:50:23Z</time>
      </trkpt>
      <trkpt lat="49.58578" lon="-1.27068">
        <ele>1.7</ele>
        <time>2020-06-15T12:50:24Z</time>
      </trkpt>
      <trkpt lat="49.58579" lon="-1.27076">
        <ele>1.7</ele>
        <time>2020-06-15T12:50:25Z</time>
      </trkpt>
      <trkpt lat="49.58581" lon="-1.27084">
        <ele>1.7</ele>
        <time>2020-06-15T12:50:26Z</time>
      </trkpt>
      <trkpt lat="49.58583" lon="-1.27093">
        <ele>1.7</ele>
        <time>2020-06-15T12:50:27Z</time>
      </trkpt>
      <trkpt lat="49.58584" lon="-1.271">
        <ele>1.7</ele>
        <time>2020-06-15T12:50:28Z</time>
      </trkpt>
      <trkpt lat="49.58586" lon="-1.27107">
        <ele>1.7</ele>
        <time>2020-06-15T12:50:29Z</time>
      </trkpt>
      <trkpt lat="49.58588" lon="-1.27113">
        <ele>1.7</ele>
        <time>2020-06-15T12:50:30Z</time>
      </trkpt>
      <trkpt lat="49.58589" lon="-1.27119">
        <ele>1.7</ele>
        <time>2020-06-15T12:50:31Z</time>
      </trkpt>
      <trkpt lat="49.58591" lon="-1.27124">
        <ele>1.7</ele>
        <time>2020-06-15T12:50:32Z</time>
      </trkpt>
      <trkpt lat="49.58594" lon="-1.27132">
        <ele>1.8</ele>
        <time>2020-06-15T12:50:33Z</time>
      </trkpt>
      <trkpt lat="49.58597" lon="-1.27139">
        <ele>1.8</ele>
        <time>2020-06-15T12:50:34Z</time>
      </trkpt>
      <trkpt lat="49.586" lon="-1.27145">
        <ele>1.8</ele>
        <time>2020-06-15T12:50:35Z</time>
      </trkpt>
      <trkpt lat="49.58603" lon="-1.27151">
        <ele>1.9</ele>
        <time>2020-06-15T12:50:36Z</time>
      </trkpt>
      <trkpt lat="49.58605" lon="-1.27157">
        <ele>1.9</ele>
        <time>2020-06-15T12:50:37Z</time>
      </trkpt>
      <trkpt lat="49.58609" lon="-1.27166">
        <ele>2</ele>
        <time>2020-06-15T12:50:38Z</time>
      </trkpt>
      <trkpt lat="49.58612" lon="-1.27173">
        <ele>2</ele>
        <time>2020-06-15T12:50:39Z</time>
      </trkpt>
      <trkpt lat="49.58615" lon="-1.2718">
        <ele>2</ele>
        <time>2020-06-15T12:50:40Z</time>
      </trkpt>
      <trkpt lat="49.58618" lon="-1.27186">
        <ele>1.9</ele>
        <time>2020-06-15T12:50:41Z</time>
      </trkpt>
      <trkpt lat="49.58621" lon="-1.27193">
        <ele>1.9</ele>
        <time>2020-06-15T12:50:42Z</time>
      </trkpt>
      <trkpt lat="49.58624" lon="-1.27199">
        <ele>1.9</ele>
        <time>2020-06-15T12:50:43Z</time>
      </trkpt>
      <trkpt lat="49.58627" lon="-1.27206">
        <ele>1.9</ele>
        <time>2020-06-15T12:50:44Z</time>
      </trkpt>
      <trkpt lat="49.58629" lon="-1.27213">
        <ele>1.9</ele>
        <time>2020-06-15T12:50:45Z</time>
      </trkpt>
      <trkpt lat="49.58632" lon="-1.27219">
        <ele>1.9</ele>
        <time>2020-06-15T12:50:46Z</time>
      </trkpt>
      <trkpt lat="49.58634" lon="-1.27225">
        <ele>2</ele>
        <time>2020-06-15T12:50:47Z</time>
      </trkpt>
      <trkpt lat="49.58637" lon="-1.27231">
        <ele>2</ele>
        <time>2020-06-15T12:50:48Z</time>
      </trkpt>
      <trkpt lat="49.5864" lon="-1.27236">
        <ele>2</ele>
        <time>2020-06-15T12:50:49Z</time>
      </trkpt>
      <trkpt lat="49.58643" lon="-1.27242">
        <ele>2</ele>
        <time>2020-06-15T12:50:50Z</time>
      </trkpt>
      <trkpt lat="49.58647" lon="-1.27247">
        <ele>2.1</ele>
        <time>2020-06-15T12:50:51Z</time>
      </trkpt>
      <trkpt lat="49.58651" lon="-1.27253">
        <ele>2.1</ele>
        <time>2020-06-15T12:50:52Z</time>
      </trkpt>
      <trkpt lat="49.58655" lon="-1.27259">
        <ele>2.1</ele>
        <time>2020-06-15T12:50:53Z</time>
      </trkpt>
      <trkpt lat="49.58659" lon="-1.27265">
        <ele>2.1</ele>
        <time>2020-06-15T12:50:54Z</time>
      </trkpt>
      <trkpt lat="49.58663" lon="-1.27271">
        <ele>2.1</ele>
        <time>2020-06-15T12:50:55Z</time>
      </trkpt>
      <trkpt lat="49.58666" lon="-1.27278">
        <ele>2.1</ele>
        <time>2020-06-15T12:50:56Z</time>
      </trkpt>
      <trkpt lat="49.5867" lon="-1.27284">
        <ele>2.2</ele>
        <time>2020-06-15T12:50:57Z</time>
      </trkpt>
      <trkpt lat="49.58674" lon="-1.2729">
        <ele>2.2</ele>
        <time>2020-06-15T12:50:58Z</time>
      </trkpt>
      <trkpt lat="49.58679" lon="-1.27295">
        <ele>2.3</ele>
        <time>2020-06-15T12:50:59Z</time>
      </trkpt>
      <trkpt lat="49.58683" lon="-1.273">
        <ele>2.3</ele>
        <time>2020-06-15T12:51:00Z</time>
      </trkpt>
      <trkpt lat="49.58687" lon="-1.27306">
        <ele>2.4</ele>
        <time>2020-06-15T12:51:01Z</time>
      </trkpt>
      <trkpt lat="49.58691" lon="-1.2731">
        <ele>2.4</ele>
        <time>2020-06-15T12:51:02Z</time>
      </trkpt>
      <trkpt lat="49.58695" lon="-1.27314">
        <ele>2.5</ele>
        <time>2020-06-15T12:51:03Z</time>
      </trkpt>
      <trkpt lat="49.58699" lon="-1.27319">
        <ele>2.5</ele>
        <time>2020-06-15T12:51:04Z</time>
      </trkpt>
      <trkpt lat="49.58703" lon="-1.27323">
        <ele>2.6</ele>
        <time>2020-06-15T12:51:05Z</time>
      </trkpt>
      <trkpt lat="49.58707" lon="-1.27327">
        <ele>2.6</ele>
        <time>2020-06-15T12:51:06Z</time>
      </trkpt>
      <trkpt lat="49.58711" lon="-1.27331">
        <ele>2.7</ele>
        <time>2020-06-15T12:51:07Z</time>
      </trkpt>
      <trkpt lat="49.58716" lon="-1.27334">
        <ele>2.8</ele>
        <time>2020-06-15T12:51:08Z</time>
      </trkpt>
      <trkpt lat="49.58721" lon="-1.27336">
        <ele>2.9</ele>
        <time>2020-06-15T12:51:09Z</time>
      </trkpt>
      <trkpt lat="49.58726" lon="-1.27338">
        <ele>2.9</ele>
        <time>2020-06-15T12:51:10Z</time>
      </trkpt>
      <trkpt lat="49.5873" lon="-1.27339">
        <ele>3</ele>
        <time>2020-06-15T12:51:11Z</time>
      </trkpt>
      <trkpt lat="49.58735" lon="-1.27341">
        <ele>3.1</ele>
        <time>2020-06-15T12:51:12Z</time>
      </trkpt>
      <trkpt lat="49.58739" lon="-1.27343">
        <ele>3.2</ele>
        <time>2020-06-15T12:51:13Z</time>
      </trkpt>
      <trkpt lat="49.58742" lon="-1.27345">
        <ele>3.2</ele>
        <time>2020-06-15T12:51:14Z</time>
      </trkpt>
      <trkpt lat="49.58745" lon="-1.27346">
        <ele>3.3</ele>
        <time>2020-06-15T12:51:15Z</time>
      </trkpt>
      <trkpt lat="49.58748" lon="-1.27348">
        <ele>3.3</ele>
        <time>2020-06-15T12:51:16Z</time>
      </trkpt>
      <trkpt lat="49.58751" lon="-1.27348">
        <ele>3.3</ele>
        <time>2020-06-15T12:51:17Z</time>
      </trkpt>
      <trkpt lat="49.58754" lon="-1.2735">
        <ele>3.4</ele>
        <time>2020-06-15T12:51:18Z</time>
      </trkpt>
      <trkpt lat="49.58757" lon="-1.27351">
        <ele>3.4</ele>
        <time>2020-06-15T12:51:19Z</time>
      </trkpt>
      <trkpt lat="49.58759" lon="-1.27351">
        <ele>3.4</ele>
        <time>2020-06-15T12:51:20Z</time>
      </trkpt>
      <trkpt lat="49.5876" lon="-1.27351">
        <ele>3.4</ele>
        <time>2020-06-15T12:51:21Z</time>
      </trkpt>
      <trkpt lat="49.58761" lon="-1.27351">
        <ele>3.4</ele>
        <time>2020-06-15T12:51:22Z</time>
      </trkpt>
      <trkpt lat="49.58762" lon="-1.27353">
        <ele>3.4</ele>
        <time>2020-06-15T12:51:23Z</time>
      </trkpt>
      <trkpt lat="49.58763" lon="-1.27355">
        <ele>3.4</ele>
        <time>2020-06-15T12:51:24Z</time>
      </trkpt>
      <trkpt lat="49.58766" lon="-1.27359">
        <ele>3.4</ele>
        <time>2020-06-15T12:51:25Z</time>
      </trkpt>
      <trkpt lat="49.58767" lon="-1.27361">
        <ele>3.5</ele>
        <time>2020-06-15T12:51:26Z</time>
      </trkpt>
      <trkpt lat="49.58768" lon="-1.27367">
        <ele>3.4</ele>
        <time>2020-06-15T12:51:27Z</time>
      </trkpt>
      <trkpt lat="49.58768" lon="-1.2737">
        <ele>3.4</ele>
        <time>2020-06-15T12:51:28Z</time>
      </trkpt>
      <trkpt lat="49.58769" lon="-1.27375">
        <ele>3.4</ele>
        <time>2020-06-15T12:51:29Z</time>
      </trkpt>
      <trkpt lat="49.58771" lon="-1.27382">
        <ele>3.4</ele>
        <time>2020-06-15T12:51:30Z</time>
      </trkpt>
      <trkpt lat="49.58772" lon="-1.27388">
        <ele>3.3</ele>
        <time>2020-06-15T12:51:31Z</time>
      </trkpt>
      <trkpt lat="49.58774" lon="-1.27394">
        <ele>3.3</ele>
        <time>2020-06-15T12:51:32Z</time>
      </trkpt>
      <trkpt lat="49.58776" lon="-1.27399">
        <ele>3.3</ele>
        <time>2020-06-15T12:51:33Z</time>
      </trkpt>
      <trkpt lat="49.58777" lon="-1.27405">
        <ele>3.3</ele>
        <time>2020-06-15T12:51:34Z</time>
      </trkpt>
      <trkpt lat="49.58778" lon="-1.27413">
        <ele>3.3</ele>
        <time>2020-06-15T12:51:35Z</time>
      </trkpt>
      <trkpt lat="49.5878" lon="-1.2742">
        <ele>3.3</ele>
        <time>2020-06-15T12:51:36Z</time>
      </trkpt>
      <trkpt lat="49.58782" lon="-1.27428">
        <ele>3.3</ele>
        <time>2020-06-15T12:51:37Z</time>
      </trkpt>
      <trkpt lat="49.58783" lon="-1.27434">
        <ele>3.2</ele>
        <time>2020-06-15T12:51:38Z</time>
      </trkpt>
      <trkpt lat="49.58783" lon="-1.27442">
        <ele>3.2</ele>
        <time>2020-06-15T12:51:39Z</time>
      </trkpt>
      <trkpt lat="49.58784" lon="-1.27449">
        <ele>3.2</ele>
        <time>2020-06-15T12:51:40Z</time>
      </trkpt>
      <trkpt lat="49.58785" lon="-1.27457">
        <ele>3.2</ele>
        <time>2020-06-15T12:51:41Z</time>
      </trkpt>
      <trkpt lat="49.58786" lon="-1.27464">
        <ele>3.1</ele>
        <time>2020-06-15T12:51:42Z</time>
      </trkpt>
      <trkpt lat="49.58787" lon="-1.27471">
        <ele>3.1</ele>
        <time>2020-06-15T12:51:43Z</time>
      </trkpt>
      <trkpt lat="49.58789" lon="-1.27477">
        <ele>3.1</ele>
        <time>2020-06-15T12:51:44Z</time>
      </trkpt>
      <trkpt lat="49.5879" lon="-1.27483">
        <ele>3.1</ele>
        <time>2020-06-15T12:51:45Z</time>
      </trkpt>
      <trkpt lat="49.58791" lon="-1.27491">
        <ele>3.1</ele>
        <time>2020-06-15T12:51:46Z</time>
      </trkpt>
      <trkpt lat="49.58792" lon="-1.27499">
        <ele>3.1</ele>
        <time>2020-06-15T12:51:47Z</time>
      </trkpt>
      <trkpt lat="49.58793" lon="-1.27506">
        <ele>3.1</ele>
        <time>2020-06-15T12:51:48Z</time>
      </trkpt>
      <trkpt lat="49.58795" lon="-1.27513">
        <ele>3</ele>
        <time>2020-06-15T12:51:49Z</time>
      </trkpt>
      <trkpt lat="49.58796" lon="-1.27522">
        <ele>3</ele>
        <time>2020-06-15T12:51:50Z</time>
      </trkpt>
      <trkpt lat="49.58797" lon="-1.2753">
        <ele>3</ele>
        <time>2020-06-15T12:51:51Z</time>
      </trkpt>
      <trkpt lat="49.58798" lon="-1.27538">
        <ele>3</ele>
        <time>2020-06-15T12:51:52Z</time>
      </trkpt>
      <trkpt lat="49.58799" lon="-1.27546">
        <ele>3</ele>
        <time>2020-06-15T12:51:53Z</time>
      </trkpt>
      <trkpt lat="49.588" lon="-1.27552">
        <ele>3</ele>
        <time>2020-06-15T12:51:54Z</time>
      </trkpt>
      <trkpt lat="49.588" lon="-1.2756">
        <ele>3</ele>
        <time>2020-06-15T12:51:55Z</time>
      </trkpt>
      <trkpt lat="49.58801" lon="-1.27567">
        <ele>3</ele>
        <time>2020-06-15T12:51:56Z</time>
      </trkpt>
      <trkpt lat="49.58802" lon="-1.27575">
        <ele>3</ele>
        <time>2020-06-15T12:51:57Z</time>
      </trkpt>
      <trkpt lat="49.58803" lon="-1.27583">
        <ele>3</ele>
        <time>2020-06-15T12:51:58Z</time>
      </trkpt>
      <trkpt lat="49.58805" lon="-1.2759">
        <ele>3</ele>
        <time>2020-06-15T12:51:59Z</time>
      </trkpt>
      <trkpt lat="49.58806" lon="-1.27598">
        <ele>3</ele>
        <time>2020-06-15T12:52:00Z</time>
      </trkpt>
      <trkpt lat="49.58807" lon="-1.27606">
        <ele>3.1</ele>
        <time>2020-06-15T12:52:01Z</time>
      </trkpt>
      <trkpt lat="49.58809" lon="-1.27614">
        <ele>3.1</ele>
        <time>2020-06-15T12:52:02Z</time>
      </trkpt>
      <trkpt lat="49.5881" lon="-1.27621">
        <ele>3.1</ele>
        <time>2020-06-15T12:52:03Z</time>
      </trkpt>
      <trkpt lat="49.58812" lon="-1.27629">
        <ele>3.1</ele>
        <time>2020-06-15T12:52:04Z</time>
      </trkpt>
      <trkpt lat="49.58813" lon="-1.27637">
        <ele>3.2</ele>
        <time>2020-06-15T12:52:05Z</time>
      </trkpt>
      <trkpt lat="49.58814" lon="-1.27645">
        <ele>3.2</ele>
        <time>2020-06-15T12:52:06Z</time>
      </trkpt>
      <trkpt lat="49.58816" lon="-1.27653">
        <ele>3.2</ele>
        <time>2020-06-15T12:52:07Z</time>
      </trkpt>
      <trkpt lat="49.58818" lon="-1.27661">
        <ele>3.2</ele>
        <time>2020-06-15T12:52:08Z</time>
      </trkpt>
      <trkpt lat="49.5882" lon="-1.27669">
        <ele>3.2</ele>
        <time>2020-06-15T12:52:09Z</time>
      </trkpt>
      <trkpt lat="49.58821" lon="-1.27676">
        <ele>3.3</ele>
        <time>2020-06-15T12:52:10Z</time>
      </trkpt>
      <trkpt lat="49.58822" lon="-1.27684">
        <ele>3.3</ele>
        <time>2020-06-15T12:52:11Z</time>
      </trkpt>
      <trkpt lat="49.58824" lon="-1.27692">
        <ele>3.3</ele>
        <time>2020-06-15T12:52:12Z</time>
      </trkpt>
      <trkpt lat="49.58825" lon="-1.27701">
        <ele>3.3</ele>
        <time>2020-06-15T12:52:13Z</time>
      </trkpt>
      <trkpt lat="49.58826" lon="-1.27707">
        <ele>3.4</ele>
        <time>2020-06-15T12:52:14Z</time>
      </trkpt>
      <trkpt lat="49.58827" lon="-1.27714">
        <ele>3.4</ele>
        <time>2020-06-15T12:52:15Z</time>
      </trkpt>
      <trkpt lat="49.58828" lon="-1.27722">
        <ele>3.4</ele>
        <time>2020-06-15T12:52:16Z</time>
      </trkpt>
      <trkpt lat="49.58829" lon="-1.27729">
        <ele>3.5</ele>
        <time>2020-06-15T12:52:17Z</time>
      </trkpt>
      <trkpt lat="49.5883" lon="-1.27737">
        <ele>3.5</ele>
        <time>2020-06-15T12:52:18Z</time>
      </trkpt>
      <trkpt lat="49.58831" lon="-1.27746">
        <ele>3.5</ele>
        <time>2020-06-15T12:52:19Z</time>
      </trkpt>
      <trkpt lat="49.58833" lon="-1.27752">
        <ele>3.5</ele>
        <time>2020-06-15T12:52:20Z</time>
      </trkpt>
      <trkpt lat="49.58835" lon="-1.2776">
        <ele>3.4</ele>
        <time>2020-06-15T12:52:21Z</time>
      </trkpt>
      <trkpt lat="49.58837" lon="-1.27768">
        <ele>3.3</ele>
        <time>2020-06-15T12:52:22Z</time>
      </trkpt>
      <trkpt lat="49.58838" lon="-1.27777">
        <ele>3.2</ele>
        <time>2020-06-15T12:52:23Z</time>
      </trkpt>
      <trkpt lat="49.5884" lon="-1.27785">
        <ele>3.2</ele>
        <time>2020-06-15T12:52:24Z</time>
      </trkpt>
      <trkpt lat="49.58841" lon="-1.27794">
        <ele>3.1</ele>
        <time>2020-06-15T12:52:25Z</time>
      </trkpt>
      <trkpt lat="49.58843" lon="-1.27802">
        <ele>3.1</ele>
        <time>2020-06-15T12:52:26Z</time>
      </trkpt>
      <trkpt lat="49.58844" lon="-1.27811">
        <ele>3.1</ele>
        <time>2020-06-15T12:52:27Z</time>
      </trkpt>
      <trkpt lat="49.58846" lon="-1.2782">
        <ele>3.1</ele>
        <time>2020-06-15T12:52:28Z</time>
      </trkpt>
      <trkpt lat="49.58847" lon="-1.27828">
        <ele>3.1</ele>
        <time>2020-06-15T12:52:29Z</time>
      </trkpt>
      <trkpt lat="49.58848" lon="-1.27837">
        <ele>3</ele>
        <time>2020-06-15T12:52:30Z</time>
      </trkpt>
      <trkpt lat="49.58849" lon="-1.27846">
        <ele>3</ele>
        <time>2020-06-15T12:52:31Z</time>
      </trkpt>
      <trkpt lat="49.58851" lon="-1.27855">
        <ele>3</ele>
        <time>2020-06-15T12:52:32Z</time>
      </trkpt>
      <trkpt lat="49.58851" lon="-1.27862">
        <ele>3</ele>
        <time>2020-06-15T12:52:33Z</time>
      </trkpt>
      <trkpt lat="49.58853" lon="-1.27871">
        <ele>3</ele>
        <time>2020-06-15T12:52:34Z</time>
      </trkpt>
      <trkpt lat="49.58854" lon="-1.27879">
        <ele>3</ele>
        <time>2020-06-15T12:52:35Z</time>
      </trkpt>
      <trkpt lat="49.58856" lon="-1.27887">
        <ele>3</ele>
        <time>2020-06-15T12:52:36Z</time>
      </trkpt>
      <trkpt lat="49.58857" lon="-1.27896">
        <ele>2.9</ele>
        <time>2020-06-15T12:52:37Z</time>
      </trkpt>
      <trkpt lat="49.58859" lon="-1.27903">
        <ele>2.9</ele>
        <time>2020-06-15T12:52:38Z</time>
      </trkpt>
      <trkpt lat="49.5886" lon="-1.27912">
        <ele>2.8</ele>
        <time>2020-06-15T12:52:39Z</time>
      </trkpt>
      <trkpt lat="49.58861" lon="-1.27921">
        <ele>2.8</ele>
        <time>2020-06-15T12:52:40Z</time>
      </trkpt>
      <trkpt lat="49.58862" lon="-1.27929">
        <ele>2.8</ele>
        <time>2020-06-15T12:52:41Z</time>
      </trkpt>
      <trkpt lat="49.58863" lon="-1.27938">
        <ele>2.7</ele>
        <time>2020-06-15T12:52:42Z</time>
      </trkpt>
      <trkpt lat="49.58864" lon="-1.27945">
        <ele>2.7</ele>
        <time>2020-06-15T12:52:43Z</time>
      </trkpt>
      <trkpt lat="49.58865" lon="-1.27953">
        <ele>2.7</ele>
        <time>2020-06-15T12:52:44Z</time>
      </trkpt>
      <trkpt lat="49.58866" lon="-1.27961">
        <ele>2.7</ele>
        <time>2020-06-15T12:52:45Z</time>
      </trkpt>
      <trkpt lat="49.58867" lon="-1.2797">
        <ele>2.6</ele>
        <time>2020-06-15T12:52:46Z</time>
      </trkpt>
      <trkpt lat="49.58868" lon="-1.27977">
        <ele>2.6</ele>
        <time>2020-06-15T12:52:47Z</time>
      </trkpt>
      <trkpt lat="49.5887" lon="-1.27984">
        <ele>2.6</ele>
        <time>2020-06-15T12:52:48Z</time>
      </trkpt>
      <trkpt lat="49.58871" lon="-1.27992">
        <ele>2.6</ele>
        <time>2020-06-15T12:52:49Z</time>
      </trkpt>
      <trkpt lat="49.58873" lon="-1.28">
        <ele>2.6</ele>
        <time>2020-06-15T12:52:50Z</time>
      </trkpt>
      <trkpt lat="49.58875" lon="-1.28007">
        <ele>2.6</ele>
        <time>2020-06-15T12:52:51Z</time>
      </trkpt>
      <trkpt lat="49.58878" lon="-1.28014">
        <ele>2.6</ele>
        <time>2020-06-15T12:52:52Z</time>
      </trkpt>
      <trkpt lat="49.58881" lon="-1.28021">
        <ele>2.6</ele>
        <time>2020-06-15T12:52:53Z</time>
      </trkpt>
      <trkpt lat="49.58883" lon="-1.28029">
        <ele>2.6</ele>
        <time>2020-06-15T12:52:54Z</time>
      </trkpt>
      <trkpt lat="49.58886" lon="-1.28036">
        <ele>2.6</ele>
        <time>2020-06-15T12:52:55Z</time>
      </trkpt>
      <trkpt lat="49.58889" lon="-1.28042">
        <ele>2.6</ele>
        <time>2020-06-15T12:52:56Z</time>
      </trkpt>
      <trkpt lat="49.58891" lon="-1.28048">
        <ele>2.6</ele>
        <time>2020-06-15T12:52:57Z</time>
      </trkpt>
      <trkpt lat="49.58895" lon="-1.28054">
        <ele>2.6</ele>
        <time>2020-06-15T12:52:58Z</time>
      </trkpt>
      <trkpt lat="49.58898" lon="-1.28059">
        <ele>2.6</ele>
        <time>2020-06-15T12:52:59Z</time>
      </trkpt>
      <trkpt lat="49.58901" lon="-1.28065">
        <ele>2.7</ele>
        <time>2020-06-15T12:53:00Z</time>
      </trkpt>
      <trkpt lat="49.58903" lon="-1.28071">
        <ele>2.7</ele>
        <time>2020-06-15T12:53:01Z</time>
      </trkpt>
      <trkpt lat="49.58905" lon="-1.2808">
        <ele>2.7</ele>
        <time>2020-06-15T12:53:02Z</time>
      </trkpt>
      <trkpt lat="49.58904" lon="-1.28088">
        <ele>2.7</ele>
        <time>2020-06-15T12:53:03Z</time>
      </trkpt>
      <trkpt lat="49.58903" lon="-1.28096">
        <ele>2.7</ele>
        <time>2020-06-15T12:53:04Z</time>
      </trkpt>
      <trkpt lat="49.58901" lon="-1.28103">
        <ele>2.7</ele>
        <time>2020-06-15T12:53:05Z</time>
      </trkpt>
      <trkpt lat="49.58901" lon="-1.28112">
        <ele>2.7</ele>
        <time>2020-06-15T12:53:06Z</time>
      </trkpt>
      <trkpt lat="49.58901" lon="-1.28121">
        <ele>2.6</ele>
        <time>2020-06-15T12:53:07Z</time>
      </trkpt>
      <trkpt lat="49.58902" lon="-1.28129">
        <ele>2.6</ele>
        <time>2020-06-15T12:53:08Z</time>
      </trkpt>
      <trkpt lat="49.58903" lon="-1.28137">
        <ele>2.6</ele>
        <time>2020-06-15T12:53:09Z</time>
      </trkpt>
      <trkpt lat="49.58904" lon="-1.28145">
        <ele>2.6</ele>
        <time>2020-06-15T12:53:10Z</time>
      </trkpt>
      <trkpt lat="49.58904" lon="-1.28154">
        <ele>2.6</ele>
        <time>2020-06-15T12:53:11Z</time>
      </trkpt>
      <trkpt lat="49.58904" lon="-1.28163">
        <ele>2.7</ele>
        <time>2020-06-15T12:53:12Z</time>
      </trkpt>
      <trkpt lat="49.58905" lon="-1.28171">
        <ele>2.7</ele>
        <time>2020-06-15T12:53:13Z</time>
      </trkpt>
      <trkpt lat="49.58906" lon="-1.28179">
        <ele>2.7</ele>
        <time>2020-06-15T12:53:14Z</time>
      </trkpt>
      <trkpt lat="49.58907" lon="-1.28188">
        <ele>2.7</ele>
        <time>2020-06-15T12:53:15Z</time>
      </trkpt>
      <trkpt lat="49.58908" lon="-1.28196">
        <ele>2.7</ele>
        <time>2020-06-15T12:53:16Z</time>
      </trkpt>
      <trkpt lat="49.58909" lon="-1.28205">
        <ele>2.7</ele>
        <time>2020-06-15T12:53:17Z</time>
      </trkpt>
      <trkpt lat="49.5891" lon="-1.28213">
        <ele>2.7</ele>
        <time>2020-06-15T12:53:18Z</time>
      </trkpt>
      <trkpt lat="49.58912" lon="-1.28222">
        <ele>2.7</ele>
        <time>2020-06-15T12:53:19Z</time>
      </trkpt>
      <trkpt lat="49.58912" lon="-1.2823">
        <ele>2.8</ele>
        <time>2020-06-15T12:53:20Z</time>
      </trkpt>
      <trkpt lat="49.58914" lon="-1.28238">
        <ele>2.8</ele>
        <time>2020-06-15T12:53:21Z</time>
      </trkpt>
      <trkpt lat="49.58915" lon="-1.28247">
        <ele>2.8</ele>
        <time>2020-06-15T12:53:22Z</time>
      </trkpt>
      <trkpt lat="49.58917" lon="-1.28256">
        <ele>2.8</ele>
        <time>2020-06-15T12:53:23Z</time>
      </trkpt>
      <trkpt lat="49.58918" lon="-1.28264">
        <ele>2.8</ele>
        <time>2020-06-15T12:53:24Z</time>
      </trkpt>
      <trkpt lat="49.5892" lon="-1.28272">
        <ele>2.9</ele>
        <time>2020-06-15T12:53:25Z</time>
      </trkpt>
      <trkpt lat="49.58921" lon="-1.2828">
        <ele>2.9</ele>
        <time>2020-06-15T12:53:26Z</time>
      </trkpt>
      <trkpt lat="49.58923" lon="-1.28289">
        <ele>2.9</ele>
        <time>2020-06-15T12:53:27Z</time>
      </trkpt>
      <trkpt lat="49.58925" lon="-1.28297">
        <ele>2.9</ele>
        <time>2020-06-15T12:53:28Z</time>
      </trkpt>
      <trkpt lat="49.58927" lon="-1.28305">
        <ele>2.9</ele>
        <time>2020-06-15T12:53:29Z</time>
      </trkpt>
      <trkpt lat="49.5893" lon="-1.28313">
        <ele>2.9</ele>
        <time>2020-06-15T12:53:30Z</time>
      </trkpt>
      <trkpt lat="49.58932" lon="-1.28322">
        <ele>3</ele>
        <time>2020-06-15T12:53:31Z</time>
      </trkpt>
      <trkpt lat="49.58934" lon="-1.28331">
        <ele>3</ele>
        <time>2020-06-15T12:53:32Z</time>
      </trkpt>
      <trkpt lat="49.58935" lon="-1.28339">
        <ele>3</ele>
        <time>2020-06-15T12:53:33Z</time>
      </trkpt>
      <trkpt lat="49.58936" lon="-1.28348">
        <ele>3</ele>
        <time>2020-06-15T12:53:34Z</time>
      </trkpt>
      <trkpt lat="49.58937" lon="-1.28355">
        <ele>3</ele>
        <time>2020-06-15T12:53:35Z</time>
      </trkpt>
      <trkpt lat="49.58939" lon="-1.28365">
        <ele>3</ele>
        <time>2020-06-15T12:53:36Z</time>
      </trkpt>
      <trkpt lat="49.5894" lon="-1.28373">
        <ele>3</ele>
        <time>2020-06-15T12:53:37Z</time>
      </trkpt>
      <trkpt lat="49.58942" lon="-1.28382">
        <ele>3</ele>
        <time>2020-06-15T12:53:38Z</time>
      </trkpt>
      <trkpt lat="49.58943" lon="-1.2839">
        <ele>2.9</ele>
        <time>2020-06-15T12:53:39Z</time>
      </trkpt>
      <trkpt lat="49.58944" lon="-1.28397">
        <ele>2.9</ele>
        <time>2020-06-15T12:53:40Z</time>
      </trkpt>
      <trkpt lat="49.58945" lon="-1.28406">
        <ele>2.9</ele>
        <time>2020-06-15T12:53:41Z</time>
      </trkpt>
      <trkpt lat="49.58947" lon="-1.28414">
        <ele>2.9</ele>
        <time>2020-06-15T12:53:42Z</time>
      </trkpt>
      <trkpt lat="49.58948" lon="-1.28424">
        <ele>2.9</ele>
        <time>2020-06-15T12:53:43Z</time>
      </trkpt>
      <trkpt lat="49.5895" lon="-1.28433">
        <ele>2.9</ele>
        <time>2020-06-15T12:53:44Z</time>
      </trkpt>
      <trkpt lat="49.58951" lon="-1.28442">
        <ele>2.8</ele>
        <time>2020-06-15T12:53:45Z</time>
      </trkpt>
      <trkpt lat="49.58952" lon="-1.2845">
        <ele>2.8</ele>
        <time>2020-06-15T12:53:46Z</time>
      </trkpt>
      <trkpt lat="49.58953" lon="-1.28459">
        <ele>2.7</ele>
        <time>2020-06-15T12:53:47Z</time>
      </trkpt>
      <trkpt lat="49.58954" lon="-1.28466">
        <ele>2.7</ele>
        <time>2020-06-15T12:53:48Z</time>
      </trkpt>
      <trkpt lat="49.58955" lon="-1.28475">
        <ele>2.7</ele>
        <time>2020-06-15T12:53:49Z</time>
      </trkpt>
      <trkpt lat="49.58957" lon="-1.28484">
        <ele>2.7</ele>
        <time>2020-06-15T12:53:50Z</time>
      </trkpt>
      <trkpt lat="49.58959" lon="-1.28493">
        <ele>2.7</ele>
        <time>2020-06-15T12:53:51Z</time>
      </trkpt>
      <trkpt lat="49.58961" lon="-1.28503">
        <ele>2.7</ele>
        <time>2020-06-15T12:53:52Z</time>
      </trkpt>
      <trkpt lat="49.58963" lon="-1.28511">
        <ele>2.7</ele>
        <time>2020-06-15T12:53:53Z</time>
      </trkpt>
      <trkpt lat="49.58964" lon="-1.28519">
        <ele>2.7</ele>
        <time>2020-06-15T12:53:54Z</time>
      </trkpt>
      <trkpt lat="49.58966" lon="-1.28527">
        <ele>2.7</ele>
        <time>2020-06-15T12:53:55Z</time>
      </trkpt>
      <trkpt lat="49.58967" lon="-1.28536">
        <ele>2.7</ele>
        <time>2020-06-15T12:53:56Z</time>
      </trkpt>
      <trkpt lat="49.58969" lon="-1.28544">
        <ele>2.7</ele>
        <time>2020-06-15T12:53:57Z</time>
      </trkpt>
      <trkpt lat="49.5897" lon="-1.28553">
        <ele>2.7</ele>
        <time>2020-06-15T12:53:58Z</time>
      </trkpt>
      <trkpt lat="49.58971" lon="-1.28561">
        <ele>2.7</ele>
        <time>2020-06-15T12:53:59Z</time>
      </trkpt>
      <trkpt lat="49.58973" lon="-1.2857">
        <ele>2.7</ele>
        <time>2020-06-15T12:54:00Z</time>
      </trkpt>
      <trkpt lat="49.58974" lon="-1.28577">
        <ele>2.7</ele>
        <time>2020-06-15T12:54:01Z</time>
      </trkpt>
      <trkpt lat="49.58975" lon="-1.28585">
        <ele>2.7</ele>
        <time>2020-06-15T12:54:02Z</time>
      </trkpt>
      <trkpt lat="49.58975" lon="-1.28593">
        <ele>2.7</ele>
        <time>2020-06-15T12:54:03Z</time>
      </trkpt>
      <trkpt lat="49.58976" lon="-1.28602">
        <ele>2.7</ele>
        <time>2020-06-15T12:54:04Z</time>
      </trkpt>
      <trkpt lat="49.58978" lon="-1.2861">
        <ele>2.7</ele>
        <time>2020-06-15T12:54:05Z</time>
      </trkpt>
      <trkpt lat="49.58979" lon="-1.28618">
        <ele>2.7</ele>
        <time>2020-06-15T12:54:06Z</time>
      </trkpt>
      <trkpt lat="49.5898" lon="-1.28627">
        <ele>2.7</ele>
        <time>2020-06-15T12:54:07Z</time>
      </trkpt>
      <trkpt lat="49.58982" lon="-1.28636">
        <ele>2.7</ele>
        <time>2020-06-15T12:54:08Z</time>
      </trkpt>
      <trkpt lat="49.58983" lon="-1.28645">
        <ele>2.7</ele>
        <time>2020-06-15T12:54:09Z</time>
      </trkpt>
      <trkpt lat="49.58985" lon="-1.28654">
        <ele>2.7</ele>
        <time>2020-06-15T12:54:10Z</time>
      </trkpt>
      <trkpt lat="49.58987" lon="-1.28661">
        <ele>2.7</ele>
        <time>2020-06-15T12:54:11Z</time>
      </trkpt>
      <trkpt lat="49.58989" lon="-1.28669">
        <ele>2.8</ele>
        <time>2020-06-15T12:54:12Z</time>
      </trkpt>
      <trkpt lat="49.5899" lon="-1.28677">
        <ele>2.8</ele>
        <time>2020-06-15T12:54:13Z</time>
      </trkpt>
      <trkpt lat="49.58992" lon="-1.28684">
        <ele>2.8</ele>
        <time>2020-06-15T12:54:14Z</time>
      </trkpt>
      <trkpt lat="49.58993" lon="-1.28693">
        <ele>2.7</ele>
        <time>2020-06-15T12:54:15Z</time>
      </trkpt>
      <trkpt lat="49.58994" lon="-1.28701">
        <ele>2.6</ele>
        <time>2020-06-15T12:54:16Z</time>
      </trkpt>
      <trkpt lat="49.58995" lon="-1.28709">
        <ele>2.5</ele>
        <time>2020-06-15T12:54:17Z</time>
      </trkpt>
      <trkpt lat="49.58997" lon="-1.28718">
        <ele>2.4</ele>
        <time>2020-06-15T12:54:18Z</time>
      </trkpt>
      <trkpt lat="49.58998" lon="-1.28726">
        <ele>2.3</ele>
        <time>2020-06-15T12:54:19Z</time>
      </trkpt>
      <trkpt lat="49.59" lon="-1.28734">
        <ele>2.4</ele>
        <time>2020-06-15T12:54:20Z</time>
      </trkpt>
      <trkpt lat="49.59003" lon="-1.28741">
        <ele>2.4</ele>
        <time>2020-06-15T12:54:21Z</time>
      </trkpt>
      <trkpt lat="49.59007" lon="-1.28746">
        <ele>2.4</ele>
        <time>2020-06-15T12:54:22Z</time>
      </trkpt>
      <trkpt lat="49.5901" lon="-1.28753">
        <ele>2.4</ele>
        <time>2020-06-15T12:54:23Z</time>
      </trkpt>
      <trkpt lat="49.59014" lon="-1.28757">
        <ele>3.8</ele>
        <time>2020-06-15T12:54:24Z</time>
      </trkpt>
      <trkpt lat="49.59017" lon="-1.28763">
        <ele>3.4</ele>
        <time>2020-06-15T12:54:25Z</time>
      </trkpt>
      <trkpt lat="49.59018" lon="-1.2877">
        <ele>3</ele>
        <time>2020-06-15T12:54:26Z</time>
      </trkpt>
      <trkpt lat="49.59019" lon="-1.28778">
        <ele>3.4</ele>
        <time>2020-06-15T12:54:27Z</time>
      </trkpt>
      <trkpt lat="49.59019" lon="-1.28786">
        <ele>3.1</ele>
        <time>2020-06-15T12:54:28Z</time>
      </trkpt>
      <trkpt lat="49.59017" lon="-1.28794">
        <ele>2.9</ele>
        <time>2020-06-15T12:54:29Z</time>
      </trkpt>
      <trkpt lat="49.59016" lon="-1.28802">
        <ele>2.7</ele>
        <time>2020-06-15T12:54:30Z</time>
      </trkpt>
      <trkpt lat="49.59016" lon="-1.28811">
        <ele>2.5</ele>
        <time>2020-06-15T12:54:31Z</time>
      </trkpt>
      <trkpt lat="49.59016" lon="-1.28819">
        <ele>2.2</ele>
        <time>2020-06-15T12:54:32Z</time>
      </trkpt>
      <trkpt lat="49.59015" lon="-1.28827">
        <ele>2.2</ele>
        <time>2020-06-15T12:54:33Z</time>
      </trkpt>
      <trkpt lat="49.59017" lon="-1.28836">
        <ele>2.2</ele>
        <time>2020-06-15T12:54:34Z</time>
      </trkpt>
      <trkpt lat="49.59018" lon="-1.28845">
        <ele>2.2</ele>
        <time>2020-06-15T12:54:35Z</time>
      </trkpt>
      <trkpt lat="49.59019" lon="-1.28853">
        <ele>2.2</ele>
        <time>2020-06-15T12:54:36Z</time>
      </trkpt>
      <trkpt lat="49.59021" lon="-1.28862">
        <ele>2.2</ele>
        <time>2020-06-15T12:54:37Z</time>
      </trkpt>
      <trkpt lat="49.59023" lon="-1.28869">
        <ele>2.2</ele>
        <time>2020-06-15T12:54:38Z</time>
      </trkpt>
      <trkpt lat="49.59025" lon="-1.28877">
        <ele>2.2</ele>
        <time>2020-06-15T12:54:39Z</time>
      </trkpt>
      <trkpt lat="49.59027" lon="-1.28885">
        <ele>2.3</ele>
        <time>2020-06-15T12:54:40Z</time>
      </trkpt>
      <trkpt lat="49.59029" lon="-1.28893">
        <ele>2.3</ele>
        <time>2020-06-15T12:54:41Z</time>
      </trkpt>
      <trkpt lat="49.5903" lon="-1.28902">
        <ele>2.4</ele>
        <time>2020-06-15T12:54:42Z</time>
      </trkpt>
      <trkpt lat="49.59032" lon="-1.28911">
        <ele>2.4</ele>
        <time>2020-06-15T12:54:43Z</time>
      </trkpt>
      <trkpt lat="49.59034" lon="-1.2892">
        <ele>2.5</ele>
        <time>2020-06-15T12:54:44Z</time>
      </trkpt>
      <trkpt lat="49.59035" lon="-1.28929">
        <ele>2.5</ele>
        <time>2020-06-15T12:54:45Z</time>
      </trkpt>
      <trkpt lat="49.59037" lon="-1.28938">
        <ele>2.5</ele>
        <time>2020-06-15T12:54:46Z</time>
      </trkpt>
      <trkpt lat="49.59039" lon="-1.28945">
        <ele>2.6</ele>
        <time>2020-06-15T12:54:47Z</time>
      </trkpt>
      <trkpt lat="49.5904" lon="-1.28953">
        <ele>2.6</ele>
        <time>2020-06-15T12:54:48Z</time>
      </trkpt>
      <trkpt lat="49.59041" lon="-1.28962">
        <ele>2.6</ele>
        <time>2020-06-15T12:54:49Z</time>
      </trkpt>
      <trkpt lat="49.59043" lon="-1.2897">
        <ele>2.6</ele>
        <time>2020-06-15T12:54:50Z</time>
      </trkpt>
      <trkpt lat="49.59045" lon="-1.28979">
        <ele>2.6</ele>
        <time>2020-06-15T12:54:51Z</time>
      </trkpt>
      <trkpt lat="49.59046" lon="-1.28988">
        <ele>2.6</ele>
        <time>2020-06-15T12:54:52Z</time>
      </trkpt>
      <trkpt lat="49.59047" lon="-1.28997">
        <ele>2.6</ele>
        <time>2020-06-15T12:54:53Z</time>
      </trkpt>
      <trkpt lat="49.59048" lon="-1.29008">
        <ele>2.6</ele>
        <time>2020-06-15T12:54:54Z</time>
      </trkpt>
      <trkpt lat="49.59049" lon="-1.29016">
        <ele>2.6</ele>
        <time>2020-06-15T12:54:55Z</time>
      </trkpt>
      <trkpt lat="49.5905" lon="-1.29025">
        <ele>2.6</ele>
        <time>2020-06-15T12:54:56Z</time>
      </trkpt>
      <trkpt lat="49.59051" lon="-1.29033">
        <ele>2.6</ele>
        <time>2020-06-15T12:54:57Z</time>
      </trkpt>
      <trkpt lat="49.59052" lon="-1.29044">
        <ele>2.6</ele>
        <time>2020-06-15T12:54:58Z</time>
      </trkpt>
      <trkpt lat="49.59054" lon="-1.29053">
        <ele>2.6</ele>
        <time>2020-06-15T12:54:59Z</time>
      </trkpt>
      <trkpt lat="49.59055" lon="-1.29063">
        <ele>2.7</ele>
        <time>2020-06-15T12:55:00Z</time>
      </trkpt>
      <trkpt lat="49.59057" lon="-1.29072">
        <ele>2.7</ele>
        <time>2020-06-15T12:55:01Z</time>
      </trkpt>
      <trkpt lat="49.59059" lon="-1.29081">
        <ele>2.8</ele>
        <time>2020-06-15T12:55:02Z</time>
      </trkpt>
      <trkpt lat="49.59061" lon="-1.2909">
        <ele>2.8</ele>
        <time>2020-06-15T12:55:03Z</time>
      </trkpt>
      <trkpt lat="49.59061" lon="-1.29098">
        <ele>2.8</ele>
        <time>2020-06-15T12:55:04Z</time>
      </trkpt>
      <trkpt lat="49.59062" lon="-1.29107">
        <ele>2.9</ele>
        <time>2020-06-15T12:55:05Z</time>
      </trkpt>
      <trkpt lat="49.59063" lon="-1.29116">
        <ele>2.9</ele>
        <time>2020-06-15T12:55:06Z</time>
      </trkpt>
      <trkpt lat="49.59065" lon="-1.29123">
        <ele>2.9</ele>
        <time>2020-06-15T12:55:07Z</time>
      </trkpt>
      <trkpt lat="49.59066" lon="-1.2913">
        <ele>3</ele>
        <time>2020-06-15T12:55:08Z</time>
      </trkpt>
      <trkpt lat="49.59068" lon="-1.29138">
        <ele>3</ele>
        <time>2020-06-15T12:55:09Z</time>
      </trkpt>
      <trkpt lat="49.59069" lon="-1.29145">
        <ele>3</ele>
        <time>2020-06-15T12:55:10Z</time>
      </trkpt>
      <trkpt lat="49.59071" lon="-1.29152">
        <ele>3</ele>
        <time>2020-06-15T12:55:11Z</time>
      </trkpt>
      <trkpt lat="49.59073" lon="-1.29161">
        <ele>3</ele>
        <time>2020-06-15T12:55:12Z</time>
      </trkpt>
      <trkpt lat="49.59074" lon="-1.29169">
        <ele>3</ele>
        <time>2020-06-15T12:55:13Z</time>
      </trkpt>
      <trkpt lat="49.59077" lon="-1.29179">
        <ele>3</ele>
        <time>2020-06-15T12:55:14Z</time>
      </trkpt>
      <trkpt lat="49.59079" lon="-1.29187">
        <ele>3</ele>
        <time>2020-06-15T12:55:15Z</time>
      </trkpt>
      <trkpt lat="49.59081" lon="-1.29197">
        <ele>3</ele>
        <time>2020-06-15T12:55:16Z</time>
      </trkpt>
      <trkpt lat="49.59083" lon="-1.29206">
        <ele>3</ele>
        <time>2020-06-15T12:55:17Z</time>
      </trkpt>
      <trkpt lat="49.59085" lon="-1.29215">
        <ele>3</ele>
        <time>2020-06-15T12:55:18Z</time>
      </trkpt>
      <trkpt lat="49.59086" lon="-1.29224">
        <ele>3</ele>
        <time>2020-06-15T12:55:19Z</time>
      </trkpt>
      <trkpt lat="49.59088" lon="-1.29233">
        <ele>3</ele>
        <time>2020-06-15T12:55:20Z</time>
      </trkpt>
      <trkpt lat="49.59089" lon="-1.29241">
        <ele>3</ele>
        <time>2020-06-15T12:55:21Z</time>
      </trkpt>
      <trkpt lat="49.59091" lon="-1.29251">
        <ele>3.1</ele>
        <time>2020-06-15T12:55:22Z</time>
      </trkpt>
      <trkpt lat="49.59093" lon="-1.2926">
        <ele>3.1</ele>
        <time>2020-06-15T12:55:23Z</time>
      </trkpt>
      <trkpt lat="49.59094" lon="-1.2927">
        <ele>3.2</ele>
        <time>2020-06-15T12:55:24Z</time>
      </trkpt>
      <trkpt lat="49.59096" lon="-1.29279">
        <ele>3.2</ele>
        <time>2020-06-15T12:55:25Z</time>
      </trkpt>
      <trkpt lat="49.59098" lon="-1.29285">
        <ele>3.2</ele>
        <time>2020-06-15T12:55:26Z</time>
      </trkpt>
      <trkpt lat="49.591" lon="-1.29292">
        <ele>3.3</ele>
        <time>2020-06-15T12:55:27Z</time>
      </trkpt>
      <trkpt lat="49.59102" lon="-1.293">
        <ele>3.3</ele>
        <time>2020-06-15T12:55:28Z</time>
      </trkpt>
      <trkpt lat="49.59104" lon="-1.29308">
        <ele>3.3</ele>
        <time>2020-06-15T12:55:29Z</time>
      </trkpt>
      <trkpt lat="49.59106" lon="-1.29317">
        <ele>3.4</ele>
        <time>2020-06-15T12:55:30Z</time>
      </trkpt>
      <trkpt lat="49.59107" lon="-1.29326">
        <ele>3.4</ele>
        <time>2020-06-15T12:55:31Z</time>
      </trkpt>
      <trkpt lat="49.59109" lon="-1.29334">
        <ele>3.4</ele>
        <time>2020-06-15T12:55:32Z</time>
      </trkpt>
      <trkpt lat="49.59111" lon="-1.29342">
        <ele>3.5</ele>
        <time>2020-06-15T12:55:33Z</time>
      </trkpt>
      <trkpt lat="49.59112" lon="-1.2935">
        <ele>3.5</ele>
        <time>2020-06-15T12:55:34Z</time>
      </trkpt>
      <trkpt lat="49.59112" lon="-1.29358">
        <ele>3.5</ele>
        <time>2020-06-15T12:55:35Z</time>
      </trkpt>
      <trkpt lat="49.59113" lon="-1.29368">
        <ele>3.5</ele>
        <time>2020-06-15T12:55:36Z</time>
      </trkpt>
      <trkpt lat="49.59114" lon="-1.29377">
        <ele>3.6</ele>
        <time>2020-06-15T12:55:37Z</time>
      </trkpt>
      <trkpt lat="49.59116" lon="-1.29386">
        <ele>3.6</ele>
        <time>2020-06-15T12:55:38Z</time>
      </trkpt>
      <trkpt lat="49.59118" lon="-1.29395">
        <ele>3.6</ele>
        <time>2020-06-15T12:55:39Z</time>
      </trkpt>
      <trkpt lat="49.5912" lon="-1.29403">
        <ele>3.7</ele>
        <time>2020-06-15T12:55:40Z</time>
      </trkpt>
      <trkpt lat="49.59121" lon="-1.29411">
        <ele>3.7</ele>
        <time>2020-06-15T12:55:41Z</time>
      </trkpt>
      <trkpt lat="49.59121" lon="-1.29418">
        <ele>3.7</ele>
        <time>2020-06-15T12:55:42Z</time>
      </trkpt>
      <trkpt lat="49.59122" lon="-1.29426">
        <ele>3.7</ele>
        <time>2020-06-15T12:55:43Z</time>
      </trkpt>
      <trkpt lat="49.59122" lon="-1.29432">
        <ele>3.8</ele>
        <time>2020-06-15T12:55:44Z</time>
      </trkpt>
      <trkpt lat="49.59123" lon="-1.29441">
        <ele>3.8</ele>
        <time>2020-06-15T12:55:45Z</time>
      </trkpt>
      <trkpt lat="49.59124" lon="-1.2945">
        <ele>3.9</ele>
        <time>2020-06-15T12:55:46Z</time>
      </trkpt>
      <trkpt lat="49.59125" lon="-1.29457">
        <ele>4</ele>
        <time>2020-06-15T12:55:47Z</time>
      </trkpt>
      <trkpt lat="49.59125" lon="-1.29464">
        <ele>4</ele>
        <time>2020-06-15T12:55:48Z</time>
      </trkpt>
      <trkpt lat="49.59126" lon="-1.29472">
        <ele>4.1</ele>
        <time>2020-06-15T12:55:49Z</time>
      </trkpt>
      <trkpt lat="49.59128" lon="-1.29479">
        <ele>4.2</ele>
        <time>2020-06-15T12:55:50Z</time>
      </trkpt>
      <trkpt lat="49.59131" lon="-1.29485">
        <ele>4.2</ele>
        <time>2020-06-15T12:55:51Z</time>
      </trkpt>
      <trkpt lat="49.59134" lon="-1.2949">
        <ele>4.3</ele>
        <time>2020-06-15T12:55:52Z</time>
      </trkpt>
      <trkpt lat="49.59136" lon="-1.29496">
        <ele>4.3</ele>
        <time>2020-06-15T12:55:53Z</time>
      </trkpt>
      <trkpt lat="49.59138" lon="-1.29503">
        <ele>4.4</ele>
        <time>2020-06-15T12:55:54Z</time>
      </trkpt>
      <trkpt lat="49.5914" lon="-1.29509">
        <ele>4.5</ele>
        <time>2020-06-15T12:55:55Z</time>
      </trkpt>
      <trkpt lat="49.59143" lon="-1.29516">
        <ele>4.6</ele>
        <time>2020-06-15T12:55:56Z</time>
      </trkpt>
      <trkpt lat="49.59143" lon="-1.29523">
        <ele>4.7</ele>
        <time>2020-06-15T12:55:57Z</time>
      </trkpt>
      <trkpt lat="49.59143" lon="-1.29531">
        <ele>4.8</ele>
        <time>2020-06-15T12:55:58Z</time>
      </trkpt>
      <trkpt lat="49.59142" lon="-1.29538">
        <ele>4.8</ele>
        <time>2020-06-15T12:55:59Z</time>
      </trkpt>
      <trkpt lat="49.59141" lon="-1.29546">
        <ele>4.8</ele>
        <time>2020-06-15T12:56:00Z</time>
      </trkpt>
      <trkpt lat="49.5914" lon="-1.29556">
        <ele>4.9</ele>
        <time>2020-06-15T12:56:01Z</time>
      </trkpt>
      <trkpt lat="49.5914" lon="-1.29565">
        <ele>5</ele>
        <time>2020-06-15T12:56:02Z</time>
      </trkpt>
      <trkpt lat="49.59141" lon="-1.29575">
        <ele>5</ele>
        <time>2020-06-15T12:56:03Z</time>
      </trkpt>
      <trkpt lat="49.59144" lon="-1.29583">
        <ele>5</ele>
        <time>2020-06-15T12:56:04Z</time>
      </trkpt>
      <trkpt lat="49.59147" lon="-1.29591">
        <ele>5</ele>
        <time>2020-06-15T12:56:05Z</time>
      </trkpt>
      <trkpt lat="49.59149" lon="-1.29599">
        <ele>5.1</ele>
        <time>2020-06-15T12:56:06Z</time>
      </trkpt>
      <trkpt lat="49.59151" lon="-1.29607">
        <ele>5.1</ele>
        <time>2020-06-15T12:56:07Z</time>
      </trkpt>
      <trkpt lat="49.59153" lon="-1.29618">
        <ele>5.2</ele>
        <time>2020-06-15T12:56:08Z</time>
      </trkpt>
      <trkpt lat="49.59155" lon="-1.29626">
        <ele>5.3</ele>
        <time>2020-06-15T12:56:09Z</time>
      </trkpt>
      <trkpt lat="49.59157" lon="-1.29635">
        <ele>5.3</ele>
        <time>2020-06-15T12:56:10Z</time>
      </trkpt>
      <trkpt lat="49.59159" lon="-1.29643">
        <ele>5.4</ele>
        <time>2020-06-15T12:56:11Z</time>
      </trkpt>
      <trkpt lat="49.5916" lon="-1.29652">
        <ele>5.5</ele>
        <time>2020-06-15T12:56:12Z</time>
      </trkpt>
      <trkpt lat="49.59161" lon="-1.29661">
        <ele>5.5</ele>
        <time>2020-06-15T12:56:13Z</time>
      </trkpt>
      <trkpt lat="49.59163" lon="-1.29669">
        <ele>5.6</ele>
        <time>2020-06-15T12:56:14Z</time>
      </trkpt>
      <trkpt lat="49.59164" lon="-1.29676">
        <ele>5.7</ele>
        <time>2020-06-15T12:56:15Z</time>
      </trkpt>
      <trkpt lat="49.59166" lon="-1.29683">
        <ele>5.8</ele>
        <time>2020-06-15T12:56:16Z</time>
      </trkpt>
      <trkpt lat="49.59166" lon="-1.2969">
        <ele>5.8</ele>
        <time>2020-06-15T12:56:17Z</time>
      </trkpt>
      <trkpt lat="49.59167" lon="-1.29698">
        <ele>5.9</ele>
        <time>2020-06-15T12:56:18Z</time>
      </trkpt>
      <trkpt lat="49.59168" lon="-1.29705">
        <ele>6</ele>
        <time>2020-06-15T12:56:19Z</time>
      </trkpt>
      <trkpt lat="49.59169" lon="-1.29713">
        <ele>6.1</ele>
        <time>2020-06-15T12:56:20Z</time>
      </trkpt>
      <trkpt lat="49.59171" lon="-1.29719">
        <ele>6.2</ele>
        <time>2020-06-15T12:56:21Z</time>
      </trkpt>
      <trkpt lat="49.59172" lon="-1.29727">
        <ele>6.4</ele>
        <time>2020-06-15T12:56:22Z</time>
      </trkpt>
      <trkpt lat="49.59173" lon="-1.29734">
        <ele>6.5</ele>
        <time>2020-06-15T12:56:23Z</time>
      </trkpt>
      <trkpt lat="49.59174" lon="-1.29741">
        <ele>6.6</ele>
        <time>2020-06-15T12:56:24Z</time>
      </trkpt>
      <trkpt lat="49.59175" lon="-1.29748">
        <ele>6.7</ele>
        <time>2020-06-15T12:56:25Z</time>
      </trkpt>
      <trkpt lat="49.59176" lon="-1.29754">
        <ele>6.7</ele>
        <time>2020-06-15T12:56:26Z</time>
      </trkpt>
      <trkpt lat="49.59177" lon="-1.29763">
        <ele>6.9</ele>
        <time>2020-06-15T12:56:27Z</time>
      </trkpt>
      <trkpt lat="49.59178" lon="-1.2977">
        <ele>6.9</ele>
        <time>2020-06-15T12:56:28Z</time>
      </trkpt>
      <trkpt lat="49.59179" lon="-1.29776">
        <ele>7</ele>
        <time>2020-06-15T12:56:29Z</time>
      </trkpt>
      <trkpt lat="49.5918" lon="-1.29784">
        <ele>7.1</ele>
        <time>2020-06-15T12:56:30Z</time>
      </trkpt>
      <trkpt lat="49.59181" lon="-1.29791">
        <ele>7.2</ele>
        <time>2020-06-15T12:56:31Z</time>
      </trkpt>
      <trkpt lat="49.59182" lon="-1.29797">
        <ele>7.3</ele>
        <time>2020-06-15T12:56:32Z</time>
      </trkpt>
      <trkpt lat="49.59184" lon="-1.29803">
        <ele>7.3</ele>
        <time>2020-06-15T12:56:33Z</time>
      </trkpt>
      <trkpt lat="49.59184" lon="-1.29809">
        <ele>7.4</ele>
        <time>2020-06-15T12:56:34Z</time>
      </trkpt>
      <trkpt lat="49.59186" lon="-1.29815">
        <ele>7.4</ele>
        <time>2020-06-15T12:56:35Z</time>
      </trkpt>
      <trkpt lat="49.59187" lon="-1.29821">
        <ele>7.5</ele>
        <time>2020-06-15T12:56:36Z</time>
      </trkpt>
      <trkpt lat="49.59188" lon="-1.29829">
        <ele>7.5</ele>
        <time>2020-06-15T12:56:37Z</time>
      </trkpt>
      <trkpt lat="49.59189" lon="-1.29834">
        <ele>7.5</ele>
        <time>2020-06-15T12:56:38Z</time>
      </trkpt>
      <trkpt lat="49.59191" lon="-1.29841">
        <ele>7.6</ele>
        <time>2020-06-15T12:56:39Z</time>
      </trkpt>
      <trkpt lat="49.59192" lon="-1.29847">
        <ele>7.6</ele>
        <time>2020-06-15T12:56:40Z</time>
      </trkpt>
      <trkpt lat="49.59193" lon="-1.29854">
        <ele>7.6</ele>
        <time>2020-06-15T12:56:41Z</time>
      </trkpt>
      <trkpt lat="49.59194" lon="-1.2986">
        <ele>7.6</ele>
        <time>2020-06-15T12:56:42Z</time>
      </trkpt>
      <trkpt lat="49.59195" lon="-1.29866">
        <ele>7.7</ele>
        <time>2020-06-15T12:56:43Z</time>
      </trkpt>
      <trkpt lat="49.59197" lon="-1.29872">
        <ele>7.8</ele>
        <time>2020-06-15T12:56:44Z</time>
      </trkpt>
      <trkpt lat="49.59199" lon="-1.29878">
        <ele>7.8</ele>
        <time>2020-06-15T12:56:45Z</time>
      </trkpt>
      <trkpt lat="49.59201" lon="-1.29883">
        <ele>7.9</ele>
        <time>2020-06-15T12:56:46Z</time>
      </trkpt>
      <trkpt lat="49.59202" lon="-1.29889">
        <ele>8</ele>
        <time>2020-06-15T12:56:47Z</time>
      </trkpt>
      <trkpt lat="49.59203" lon="-1.29893">
        <ele>8</ele>
        <time>2020-06-15T12:56:48Z</time>
      </trkpt>
      <trkpt lat="49.59204" lon="-1.29898">
        <ele>8.1</ele>
        <time>2020-06-15T12:56:49Z</time>
      </trkpt>
      <trkpt lat="49.59204" lon="-1.29903">
        <ele>8.1</ele>
        <time>2020-06-15T12:56:50Z</time>
      </trkpt>
      <trkpt lat="49.59205" lon="-1.29908">
        <ele>8.2</ele>
        <time>2020-06-15T12:56:51Z</time>
      </trkpt>
      <trkpt lat="49.59207" lon="-1.29914">
        <ele>8.2</ele>
        <time>2020-06-15T12:56:52Z</time>
      </trkpt>
      <trkpt lat="49.59208" lon="-1.29919">
        <ele>8.2</ele>
        <time>2020-06-15T12:56:53Z</time>
      </trkpt>
      <trkpt lat="49.59209" lon="-1.29924">
        <ele>8.3</ele>
        <time>2020-06-15T12:56:54Z</time>
      </trkpt>
      <trkpt lat="49.5921" lon="-1.29929">
        <ele>8.3</ele>
        <time>2020-06-15T12:56:55Z</time>
      </trkpt>
      <trkpt lat="49.59211" lon="-1.29935">
        <ele>8.4</ele>
        <time>2020-06-15T12:56:56Z</time>
      </trkpt>
      <trkpt lat="49.59211" lon="-1.29941">
        <ele>8.5</ele>
        <time>2020-06-15T12:56:57Z</time>
      </trkpt>
      <trkpt lat="49.59211" lon="-1.29946">
        <ele>8.5</ele>
        <time>2020-06-15T12:56:58Z</time>
      </trkpt>
      <trkpt lat="49.59212" lon="-1.29952">
        <ele>8.5</ele>
        <time>2020-06-15T12:56:59Z</time>
      </trkpt>
      <trkpt lat="49.59212" lon="-1.29957">
        <ele>8.6</ele>
        <time>2020-06-15T12:57:00Z</time>
      </trkpt>
      <trkpt lat="49.59213" lon="-1.29964">
        <ele>8.6</ele>
        <time>2020-06-15T12:57:01Z</time>
      </trkpt>
      <trkpt lat="49.59214" lon="-1.29969">
        <ele>8.7</ele>
        <time>2020-06-15T12:57:02Z</time>
      </trkpt>
      <trkpt lat="49.59215" lon="-1.29975">
        <ele>8.8</ele>
        <time>2020-06-15T12:57:03Z</time>
      </trkpt>
      <trkpt lat="49.59217" lon="-1.29981">
        <ele>8.9</ele>
        <time>2020-06-15T12:57:04Z</time>
      </trkpt>
      <trkpt lat="49.59218" lon="-1.29988">
        <ele>9</ele>
        <time>2020-06-15T12:57:05Z</time>
      </trkpt>
      <trkpt lat="49.59219" lon="-1.29996">
        <ele>9.1</ele>
        <time>2020-06-15T12:57:06Z</time>
      </trkpt>
      <trkpt lat="49.59221" lon="-1.30003">
        <ele>9.2</ele>
        <time>2020-06-15T12:57:07Z</time>
      </trkpt>
      <trkpt lat="49.59222" lon="-1.3001">
        <ele>9.3</ele>
        <time>2020-06-15T12:57:08Z</time>
      </trkpt>
      <trkpt lat="49.59224" lon="-1.30017">
        <ele>9.4</ele>
        <time>2020-06-15T12:57:09Z</time>
      </trkpt>
      <trkpt lat="49.59224" lon="-1.30024">
        <ele>9.5</ele>
        <time>2020-06-15T12:57:10Z</time>
      </trkpt>
      <trkpt lat="49.59225" lon="-1.3003">
        <ele>9.6</ele>
        <time>2020-06-15T12:57:11Z</time>
      </trkpt>
      <trkpt lat="49.59226" lon="-1.30035">
        <ele>9.7</ele>
        <time>2020-06-15T12:57:12Z</time>
      </trkpt>
      <trkpt lat="49.59228" lon="-1.30042">
        <ele>9.8</ele>
        <time>2020-06-15T12:57:13Z</time>
      </trkpt>
      <trkpt lat="49.59228" lon="-1.30048">
        <ele>9.9</ele>
        <time>2020-06-15T12:57:14Z</time>
      </trkpt>
      <trkpt lat="49.59229" lon="-1.30054">
        <ele>10</ele>
        <time>2020-06-15T12:57:15Z</time>
      </trkpt>
      <trkpt lat="49.5923" lon="-1.30059">
        <ele>10</ele>
        <time>2020-06-15T12:57:16Z</time>
      </trkpt>
      <trkpt lat="49.5923" lon="-1.30065">
        <ele>10.1</ele>
        <time>2020-06-15T12:57:17Z</time>
      </trkpt>
      <trkpt lat="49.5923" lon="-1.30071">
        <ele>10.2</ele>
        <time>2020-06-15T12:57:18Z</time>
      </trkpt>
      <trkpt lat="49.59231" lon="-1.30077">
        <ele>10.3</ele>
        <time>2020-06-15T12:57:19Z</time>
      </trkpt>
      <trkpt lat="49.59231" lon="-1.30083">
        <ele>10.3</ele>
        <time>2020-06-15T12:57:20Z</time>
      </trkpt>
      <trkpt lat="49.59231" lon="-1.30089">
        <ele>10.4</ele>
        <time>2020-06-15T12:57:21Z</time>
      </trkpt>
      <trkpt lat="49.59231" lon="-1.30091">
        <ele>10.4</ele>
        <time>2020-06-15T12:57:22Z</time>
      </trkpt>
      <trkpt lat="49.59231" lon="-1.30097">
        <ele>10.4</ele>
        <time>2020-06-15T12:57:23Z</time>
      </trkpt>
      <trkpt lat="49.5923" lon="-1.30099">
        <ele>10.5</ele>
        <time>2020-06-15T12:57:24Z</time>
      </trkpt>
      <trkpt lat="49.5923" lon="-1.30104">
        <ele>10.5</ele>
        <time>2020-06-15T12:57:25Z</time>
      </trkpt>
      <trkpt lat="49.59229" lon="-1.30106">
        <ele>10.5</ele>
        <time>2020-06-15T12:57:26Z</time>
      </trkpt>
      <trkpt lat="49.59229" lon="-1.30111">
        <ele>10.6</ele>
        <time>2020-06-15T12:57:27Z</time>
      </trkpt>
      <trkpt lat="49.59229" lon="-1.30113">
        <ele>10.6</ele>
        <time>2020-06-15T12:57:28Z</time>
      </trkpt>
      <trkpt lat="49.59229" lon="-1.30119">
        <ele>10.8</ele>
        <time>2020-06-15T12:57:29Z</time>
      </trkpt>
      <trkpt lat="49.59228" lon="-1.30122">
        <ele>10.8</ele>
        <time>2020-06-15T12:57:30Z</time>
      </trkpt>
      <trkpt lat="49.59229" lon="-1.30127">
        <ele>10.9</ele>
        <time>2020-06-15T12:57:31Z</time>
      </trkpt>
      <trkpt lat="49.59229" lon="-1.30132">
        <ele>10.9</ele>
        <time>2020-06-15T12:57:32Z</time>
      </trkpt>
      <trkpt lat="49.59229" lon="-1.30136">
        <ele>11</ele>
        <time>2020-06-15T12:57:33Z</time>
      </trkpt>
      <trkpt lat="49.5923" lon="-1.30142">
        <ele>11.1</ele>
        <time>2020-06-15T12:57:34Z</time>
      </trkpt>
      <trkpt lat="49.5923" lon="-1.30144">
        <ele>11.1</ele>
        <time>2020-06-15T12:57:35Z</time>
      </trkpt>
      <trkpt lat="49.5923" lon="-1.30149">
        <ele>11.2</ele>
        <time>2020-06-15T12:57:36Z</time>
      </trkpt>
      <trkpt lat="49.5923" lon="-1.30151">
        <ele>11.2</ele>
        <time>2020-06-15T12:57:37Z</time>
      </trkpt>
      <trkpt lat="49.59227" lon="-1.30155">
        <ele>11.3</ele>
        <time>2020-06-15T12:57:38Z</time>
      </trkpt>
      <trkpt lat="49.59227" lon="-1.30156">
        <ele>11.3</ele>
        <time>2020-06-15T12:57:39Z</time>
      </trkpt>
      <trkpt lat="49.59226" lon="-1.30159">
        <ele>11.3</ele>
        <time>2020-06-15T12:57:40Z</time>
      </trkpt>
      <trkpt lat="49.59225" lon="-1.3016">
        <ele>11.4</ele>
        <time>2020-06-15T12:57:41Z</time>
      </trkpt>
      <trkpt lat="49.59225" lon="-1.30162">
        <ele>11.4</ele>
        <time>2020-06-15T12:57:42Z</time>
      </trkpt>
      <trkpt lat="49.59223" lon="-1.30164">
        <ele>11.4</ele>
        <time>2020-06-15T12:57:43Z</time>
      </trkpt>
      <trkpt lat="49.59223" lon="-1.30164">
        <ele>11.4</ele>
        <time>2020-06-15T12:57:44Z</time>
      </trkpt>
      <trkpt lat="49.59222" lon="-1.30166">
        <ele>11.5</ele>
        <time>2020-06-15T12:57:45Z</time>
      </trkpt>
      <trkpt lat="49.59221" lon="-1.30167">
        <ele>11.5</ele>
        <time>2020-06-15T12:57:46Z</time>
      </trkpt>
      <trkpt lat="49.5922" lon="-1.30168">
        <ele>11.5</ele>
        <time>2020-06-15T12:57:47Z</time>
      </trkpt>
      <trkpt lat="49.5922" lon="-1.30169">
        <ele>11.5</ele>
        <time>2020-06-15T12:57:48Z</time>
      </trkpt>
      <trkpt lat="49.59219" lon="-1.3017">
        <ele>11.5</ele>
        <time>2020-06-15T12:57:49Z</time>
      </trkpt>
      <trkpt lat="49.5922" lon="-1.30171">
        <ele>11.6</ele>
        <time>2020-06-15T12:57:50Z</time>
      </trkpt>
      <trkpt lat="49.5922" lon="-1.30172">
        <ele>11.6</ele>
        <time>2020-06-15T12:57:51Z</time>
      </trkpt>
      <trkpt lat="49.5922" lon="-1.30173">
        <ele>11.6</ele>
        <time>2020-06-15T12:57:52Z</time>
      </trkpt>
      <trkpt lat="49.59221" lon="-1.30173">
        <ele>11.6</ele>
        <time>2020-06-15T12:57:53Z</time>
      </trkpt>
      <trkpt lat="49.59221" lon="-1.30174">
        <ele>11.6</ele>
        <time>2020-06-15T12:57:54Z</time>
      </trkpt>
      <trkpt lat="49.59222" lon="-1.30175">
        <ele>11.6</ele>
        <time>2020-06-15T12:57:55Z</time>
      </trkpt>
      <trkpt lat="49.59222" lon="-1.30175">
        <ele>11.6</ele>
        <time>2020-06-15T12:57:56Z</time>
      </trkpt>
      <trkpt lat="49.59225" lon="-1.30175">
        <ele>11.6</ele>
        <time>2020-06-15T12:57:57Z</time>
      </trkpt>
      <trkpt lat="49.59226" lon="-1.30175">
        <ele>11.7</ele>
        <time>2020-06-15T12:57:58Z</time>
      </trkpt>
      <trkpt lat="49.59226" lon="-1.30176">
        <ele>11.7</ele>
        <time>2020-06-15T12:57:59Z</time>
      </trkpt>
      <trkpt lat="49.59227" lon="-1.30177">
        <ele>11.7</ele>
        <time>2020-06-15T12:58:00Z</time>
      </trkpt>
      <trkpt lat="49.59227" lon="-1.30178">
        <ele>11.7</ele>
        <time>2020-06-15T12:58:01Z</time>
      </trkpt>
      <trkpt lat="49.59228" lon="-1.3018">
        <ele>11.7</ele>
        <time>2020-06-15T12:58:02Z</time>
      </trkpt>
      <trkpt lat="49.5923" lon="-1.30182">
        <ele>11.7</ele>
        <time>2020-06-15T12:58:03Z</time>
      </trkpt>
      <trkpt lat="49.59231" lon="-1.30183">
        <ele>11.7</ele>
        <time>2020-06-15T12:58:04Z</time>
      </trkpt>
      <trkpt lat="49.59234" lon="-1.30185">
        <ele>11.7</ele>
        <time>2020-06-15T12:58:05Z</time>
      </trkpt>
      <trkpt lat="49.59236" lon="-1.30188">
        <ele>11.7</ele>
        <time>2020-06-15T12:58:06Z</time>
      </trkpt>
      <trkpt lat="49.59237" lon="-1.30192">
        <ele>11.7</ele>
        <time>2020-06-15T12:58:07Z</time>
      </trkpt>
      <trkpt lat="49.59239" lon="-1.30198">
        <ele>11.7</ele>
        <time>2020-06-15T12:58:08Z</time>
      </trkpt>
      <trkpt lat="49.5924" lon="-1.30199">
        <ele>11.7</ele>
        <time>2020-06-15T12:58:09Z</time>
      </trkpt>
      <trkpt lat="49.59241" lon="-1.30204">
        <ele>11.7</ele>
        <time>2020-06-15T12:58:10Z</time>
      </trkpt>
      <trkpt lat="49.59243" lon="-1.30207">
        <ele>11.7</ele>
        <time>2020-06-15T12:58:11Z</time>
      </trkpt>
      <trkpt lat="49.59245" lon="-1.30213">
        <ele>11.8</ele>
        <time>2020-06-15T12:58:12Z</time>
      </trkpt>
      <trkpt lat="49.59246" lon="-1.30215">
        <ele>11.8</ele>
        <time>2020-06-15T12:58:13Z</time>
      </trkpt>
      <trkpt lat="49.59248" lon="-1.30219">
        <ele>11.8</ele>
        <time>2020-06-15T12:58:14Z</time>
      </trkpt>
      <trkpt lat="49.5925" lon="-1.30223">
        <ele>11.9</ele>
        <time>2020-06-15T12:58:15Z</time>
      </trkpt>
      <trkpt lat="49.59252" lon="-1.30228">
        <ele>11.9</ele>
        <time>2020-06-15T12:58:16Z</time>
      </trkpt>
      <trkpt lat="49.59253" lon="-1.30232">
        <ele>11.9</ele>
        <time>2020-06-15T12:58:17Z</time>
      </trkpt>
      <trkpt lat="49.59254" lon="-1.30237">
        <ele>12</ele>
        <time>2020-06-15T12:58:18Z</time>
      </trkpt>
      <trkpt lat="49.59254" lon="-1.30242">
        <ele>12</ele>
        <time>2020-06-15T12:58:19Z</time>
      </trkpt>
      <trkpt lat="49.59253" lon="-1.30248">
        <ele>12.1</ele>
        <time>2020-06-15T12:58:20Z</time>
      </trkpt>
      <trkpt lat="49.59253" lon="-1.30254">
        <ele>12.1</ele>
        <time>2020-06-15T12:58:21Z</time>
      </trkpt>
      <trkpt lat="49.59253" lon="-1.30261">
        <ele>12.2</ele>
        <time>2020-06-15T12:58:22Z</time>
      </trkpt>
      <trkpt lat="49.59254" lon="-1.30267">
        <ele>12.2</ele>
        <time>2020-06-15T12:58:23Z</time>
      </trkpt>
      <trkpt lat="49.59255" lon="-1.30274">
        <ele>12.3</ele>
        <time>2020-06-15T12:58:24Z</time>
      </trkpt>
      <trkpt lat="49.59257" lon="-1.3028">
        <ele>12.4</ele>
        <time>2020-06-15T12:58:25Z</time>
      </trkpt>
      <trkpt lat="49.59257" lon="-1.30287">
        <ele>12.5</ele>
        <time>2020-06-15T12:58:26Z</time>
      </trkpt>
      <trkpt lat="49.59257" lon="-1.30295">
        <ele>12.6</ele>
        <time>2020-06-15T12:58:27Z</time>
      </trkpt>
      <trkpt lat="49.59256" lon="-1.30302">
        <ele>12.8</ele>
        <time>2020-06-15T12:58:28Z</time>
      </trkpt>
      <trkpt lat="49.59256" lon="-1.3031">
        <ele>12.9</ele>
        <time>2020-06-15T12:58:29Z</time>
      </trkpt>
      <trkpt lat="49.59256" lon="-1.30317">
        <ele>13.1</ele>
        <time>2020-06-15T12:58:30Z</time>
      </trkpt>
      <trkpt lat="49.59256" lon="-1.30325">
        <ele>13.2</ele>
        <time>2020-06-15T12:58:31Z</time>
      </trkpt>
      <trkpt lat="49.59257" lon="-1.30333">
        <ele>13.4</ele>
        <time>2020-06-15T12:58:32Z</time>
      </trkpt>
      <trkpt lat="49.59258" lon="-1.3034">
        <ele>13.4</ele>
        <time>2020-06-15T12:58:33Z</time>
      </trkpt>
      <trkpt lat="49.59259" lon="-1.30347">
        <ele>13.4</ele>
        <time>2020-06-15T12:58:34Z</time>
      </trkpt>
      <trkpt lat="49.59259" lon="-1.30352">
        <ele>13.4</ele>
        <time>2020-06-15T12:58:35Z</time>
      </trkpt>
      <trkpt lat="49.5926" lon="-1.30359">
        <ele>13.4</ele>
        <time>2020-06-15T12:58:36Z</time>
      </trkpt>
      <trkpt lat="49.5926" lon="-1.30366">
        <ele>13.5</ele>
        <time>2020-06-15T12:58:37Z</time>
      </trkpt>
      <trkpt lat="49.59261" lon="-1.30374">
        <ele>13.5</ele>
        <time>2020-06-15T12:58:38Z</time>
      </trkpt>
      <trkpt lat="49.59262" lon="-1.30381">
        <ele>13.5</ele>
        <time>2020-06-15T12:58:39Z</time>
      </trkpt>
      <trkpt lat="49.59262" lon="-1.30389">
        <ele>13.6</ele>
        <time>2020-06-15T12:58:40Z</time>
      </trkpt>
      <trkpt lat="49.59263" lon="-1.30397">
        <ele>13.7</ele>
        <time>2020-06-15T12:58:41Z</time>
      </trkpt>
      <trkpt lat="49.59264" lon="-1.30405">
        <ele>13.8</ele>
        <time>2020-06-15T12:58:42Z</time>
      </trkpt>
      <trkpt lat="49.59264" lon="-1.30412">
        <ele>13.9</ele>
        <time>2020-06-15T12:58:43Z</time>
      </trkpt>
      <trkpt lat="49.59265" lon="-1.30419">
        <ele>14.1</ele>
        <time>2020-06-15T12:58:44Z</time>
      </trkpt>
      <trkpt lat="49.59266" lon="-1.30426">
        <ele>14.2</ele>
        <time>2020-06-15T12:58:45Z</time>
      </trkpt>
      <trkpt lat="49.59267" lon="-1.30434">
        <ele>14.4</ele>
        <time>2020-06-15T12:58:46Z</time>
      </trkpt>
      <trkpt lat="49.59268" lon="-1.30441">
        <ele>14.5</ele>
        <time>2020-06-15T12:58:47Z</time>
      </trkpt>
      <trkpt lat="49.59269" lon="-1.30449">
        <ele>14.7</ele>
        <time>2020-06-15T12:58:48Z</time>
      </trkpt>
      <trkpt lat="49.59269" lon="-1.30456">
        <ele>14.9</ele>
        <time>2020-06-15T12:58:49Z</time>
      </trkpt>
      <trkpt lat="49.59269" lon="-1.30462">
        <ele>15.1</ele>
        <time>2020-06-15T12:58:50Z</time>
      </trkpt>
      <trkpt lat="49.5927" lon="-1.30469">
        <ele>15.4</ele>
        <time>2020-06-15T12:58:51Z</time>
      </trkpt>
      <trkpt lat="49.59269" lon="-1.30476">
        <ele>15.4</ele>
        <time>2020-06-15T12:58:52Z</time>
      </trkpt>
      <trkpt lat="49.59267" lon="-1.30484">
        <ele>15.4</ele>
        <time>2020-06-15T12:58:53Z</time>
      </trkpt>
      <trkpt lat="49.59266" lon="-1.30492">
        <ele>15.6</ele>
        <time>2020-06-15T12:58:54Z</time>
      </trkpt>
      <trkpt lat="49.59264" lon="-1.305">
        <ele>15.9</ele>
        <time>2020-06-15T12:58:55Z</time>
      </trkpt>
      <trkpt lat="49.59262" lon="-1.30507">
        <ele>16.1</ele>
        <time>2020-06-15T12:58:56Z</time>
      </trkpt>
      <trkpt lat="49.5926" lon="-1.30515">
        <ele>16.3</ele>
        <time>2020-06-15T12:58:57Z</time>
      </trkpt>
      <trkpt lat="49.59259" lon="-1.30522">
        <ele>16.6</ele>
        <time>2020-06-15T12:58:58Z</time>
      </trkpt>
      <trkpt lat="49.59257" lon="-1.30529">
        <ele>16.8</ele>
        <time>2020-06-15T12:58:59Z</time>
      </trkpt>
      <trkpt lat="49.59255" lon="-1.30536">
        <ele>17</ele>
        <time>2020-06-15T12:59:00Z</time>
      </trkpt>
      <trkpt lat="49.59254" lon="-1.30541">
        <ele>17.2</ele>
        <time>2020-06-15T12:59:01Z</time>
      </trkpt>
      <trkpt lat="49.59251" lon="-1.30547">
        <ele>17.4</ele>
        <time>2020-06-15T12:59:02Z</time>
      </trkpt>
      <trkpt lat="49.5925" lon="-1.30553">
        <ele>17.6</ele>
        <time>2020-06-15T12:59:03Z</time>
      </trkpt>
      <trkpt lat="49.59248" lon="-1.30558">
        <ele>17.8</ele>
        <time>2020-06-15T12:59:04Z</time>
      </trkpt>
      <trkpt lat="49.59247" lon="-1.30563">
        <ele>18</ele>
        <time>2020-06-15T12:59:05Z</time>
      </trkpt>
      <trkpt lat="49.59246" lon="-1.30568">
        <ele>18.2</ele>
        <time>2020-06-15T12:59:06Z</time>
      </trkpt>
      <trkpt lat="49.59244" lon="-1.30575">
        <ele>18.4</ele>
        <time>2020-06-15T12:59:07Z</time>
      </trkpt>
      <trkpt lat="49.59242" lon="-1.3058">
        <ele>18.7</ele>
        <time>2020-06-15T12:59:08Z</time>
      </trkpt>
      <trkpt lat="49.59241" lon="-1.30586">
        <ele>18.9</ele>
        <time>2020-06-15T12:59:09Z</time>
      </trkpt>
      <trkpt lat="49.59239" lon="-1.30592">
        <ele>19.2</ele>
        <time>2020-06-15T12:59:10Z</time>
      </trkpt>
      <trkpt lat="49.59237" lon="-1.30598">
        <ele>19.4</ele>
        <time>2020-06-15T12:59:11Z</time>
      </trkpt>
      <trkpt lat="49.59236" lon="-1.30603">
        <ele>19.7</ele>
        <time>2020-06-15T12:59:12Z</time>
      </trkpt>
      <trkpt lat="49.59234" lon="-1.30609">
        <ele>19.9</ele>
        <time>2020-06-15T12:59:13Z</time>
      </trkpt>
      <trkpt lat="49.59232" lon="-1.30614">
        <ele>20.2</ele>
        <time>2020-06-15T12:59:14Z</time>
      </trkpt>
      <trkpt lat="49.5923" lon="-1.3062">
        <ele>20.4</ele>
        <time>2020-06-15T12:59:15Z</time>
      </trkpt>
      <trkpt lat="49.59228" lon="-1.30626">
        <ele>20.7</ele>
        <time>2020-06-15T12:59:16Z</time>
      </trkpt>
      <trkpt lat="49.59225" lon="-1.30632">
        <ele>21</ele>
        <time>2020-06-15T12:59:17Z</time>
      </trkpt>
      <trkpt lat="49.59223" lon="-1.30637">
        <ele>21.3</ele>
        <time>2020-06-15T12:59:18Z</time>
      </trkpt>
      <trkpt lat="49.59222" lon="-1.30643">
        <ele>21.5</ele>
        <time>2020-06-15T12:59:19Z</time>
      </trkpt>
      <trkpt lat="49.5922" lon="-1.30648">
        <ele>21.7</ele>
        <time>2020-06-15T12:59:20Z</time>
      </trkpt>
      <trkpt lat="49.59218" lon="-1.30654">
        <ele>22</ele>
        <time>2020-06-15T12:59:21Z</time>
      </trkpt>
      <trkpt lat="49.59216" lon="-1.30659">
        <ele>22.2</ele>
        <time>2020-06-15T12:59:22Z</time>
      </trkpt>
      <trkpt lat="49.59215" lon="-1.30665">
        <ele>22.4</ele>
        <time>2020-06-15T12:59:23Z</time>
      </trkpt>
      <trkpt lat="49.59213" lon="-1.3067">
        <ele>22.7</ele>
        <time>2020-06-15T12:59:24Z</time>
      </trkpt>
      <trkpt lat="49.59212" lon="-1.30676">
        <ele>22.9</ele>
        <time>2020-06-15T12:59:25Z</time>
      </trkpt>
      <trkpt lat="49.5921" lon="-1.3068">
        <ele>23.1</ele>
        <time>2020-06-15T12:59:26Z</time>
      </trkpt>
      <trkpt lat="49.59208" lon="-1.30686">
        <ele>23.4</ele>
        <time>2020-06-15T12:59:27Z</time>
      </trkpt>
      <trkpt lat="49.59207" lon="-1.30691">
        <ele>23.6</ele>
        <time>2020-06-15T12:59:28Z</time>
      </trkpt>
      <trkpt lat="49.59205" lon="-1.30695">
        <ele>23.8</ele>
        <time>2020-06-15T12:59:29Z</time>
      </trkpt>
      <trkpt lat="49.59204" lon="-1.307">
        <ele>24</ele>
        <time>2020-06-15T12:59:30Z</time>
      </trkpt>
      <trkpt lat="49.59202" lon="-1.30706">
        <ele>24.2</ele>
        <time>2020-06-15T12:59:31Z</time>
      </trkpt>
      <trkpt lat="49.59201" lon="-1.30711">
        <ele>24.4</ele>
        <time>2020-06-15T12:59:32Z</time>
      </trkpt>
      <trkpt lat="49.59199" lon="-1.30716">
        <ele>24.5</ele>
        <time>2020-06-15T12:59:33Z</time>
      </trkpt>
      <trkpt lat="49.59199" lon="-1.3072">
        <ele>24.7</ele>
        <time>2020-06-15T12:59:34Z</time>
      </trkpt>
      <trkpt lat="49.59198" lon="-1.30724">
        <ele>24.9</ele>
        <time>2020-06-15T12:59:35Z</time>
      </trkpt>
      <trkpt lat="49.59197" lon="-1.30729">
        <ele>25.1</ele>
        <time>2020-06-15T12:59:36Z</time>
      </trkpt>
      <trkpt lat="49.59197" lon="-1.30733">
        <ele>25.3</ele>
        <time>2020-06-15T12:59:37Z</time>
      </trkpt>
      <trkpt lat="49.59195" lon="-1.30737">
        <ele>25.5</ele>
        <time>2020-06-15T12:59:38Z</time>
      </trkpt>
      <trkpt lat="49.59194" lon="-1.30742">
        <ele>25.8</ele>
        <time>2020-06-15T12:59:39Z</time>
      </trkpt>
      <trkpt lat="49.59193" lon="-1.30747">
        <ele>26</ele>
        <time>2020-06-15T12:59:40Z</time>
      </trkpt>
      <trkpt lat="49.59192" lon="-1.30752">
        <ele>26.3</ele>
        <time>2020-06-15T12:59:41Z</time>
      </trkpt>
      <trkpt lat="49.59191" lon="-1.30757">
        <ele>26.5</ele>
        <time>2020-06-15T12:59:42Z</time>
      </trkpt>
      <trkpt lat="49.5919" lon="-1.30762">
        <ele>26.8</ele>
        <time>2020-06-15T12:59:43Z</time>
      </trkpt>
      <trkpt lat="49.59188" lon="-1.30767">
        <ele>27</ele>
        <time>2020-06-15T12:59:44Z</time>
      </trkpt>
      <trkpt lat="49.59187" lon="-1.30772">
        <ele>27.3</ele>
        <time>2020-06-15T12:59:45Z</time>
      </trkpt>
      <trkpt lat="49.59186" lon="-1.30777">
        <ele>27.5</ele>
        <time>2020-06-15T12:59:46Z</time>
      </trkpt>
      <trkpt lat="49.59185" lon="-1.30781">
        <ele>27.8</ele>
        <time>2020-06-15T12:59:47Z</time>
      </trkpt>
      <trkpt lat="49.59183" lon="-1.30785">
        <ele>28</ele>
        <time>2020-06-15T12:59:48Z</time>
      </trkpt>
      <trkpt lat="49.59181" lon="-1.30791">
        <ele>28.4</ele>
        <time>2020-06-15T12:59:49Z</time>
      </trkpt>
      <trkpt lat="49.5918" lon="-1.30794">
        <ele>28.5</ele>
        <time>2020-06-15T12:59:50Z</time>
      </trkpt>
      <trkpt lat="49.59179" lon="-1.30799">
        <ele>28.8</ele>
        <time>2020-06-15T12:59:51Z</time>
      </trkpt>
      <trkpt lat="49.59178" lon="-1.30804">
        <ele>29</ele>
        <time>2020-06-15T12:59:52Z</time>
      </trkpt>
      <trkpt lat="49.59176" lon="-1.30809">
        <ele>29.3</ele>
        <time>2020-06-15T12:59:53Z</time>
      </trkpt>
      <trkpt lat="49.59174" lon="-1.30814">
        <ele>29.6</ele>
        <time>2020-06-15T12:59:54Z</time>
      </trkpt>
      <trkpt lat="49.59173" lon="-1.30818">
        <ele>29.8</ele>
        <time>2020-06-15T12:59:55Z</time>
      </trkpt>
      <trkpt lat="49.59172" lon="-1.30822">
        <ele>30</ele>
        <time>2020-06-15T12:59:56Z</time>
      </trkpt>
      <trkpt lat="49.59171" lon="-1.30827">
        <ele>30.2</ele>
        <time>2020-06-15T12:59:57Z</time>
      </trkpt>
      <trkpt lat="49.5917" lon="-1.30832">
        <ele>30.4</ele>
        <time>2020-06-15T12:59:58Z</time>
      </trkpt>
      <trkpt lat="49.59169" lon="-1.30837">
        <ele>30.6</ele>
        <time>2020-06-15T12:59:59Z</time>
      </trkpt>
      <trkpt lat="49.59168" lon="-1.30842">
        <ele>30.9</ele>
        <time>2020-06-15T13:00:00Z</time>
      </trkpt>
      <trkpt lat="49.59166" lon="-1.30847">
        <ele>31.1</ele>
        <time>2020-06-15T13:00:01Z</time>
      </trkpt>
      <trkpt lat="49.59164" lon="-1.30852">
        <ele>31.3</ele>
        <time>2020-06-15T13:00:02Z</time>
      </trkpt>
      <trkpt lat="49.59163" lon="-1.30856">
        <ele>31.5</ele>
        <time>2020-06-15T13:00:03Z</time>
      </trkpt>
      <trkpt lat="49.59161" lon="-1.3086">
        <ele>31.7</ele>
        <time>2020-06-15T13:00:04Z</time>
      </trkpt>
      <trkpt lat="49.5916" lon="-1.30864">
        <ele>31.9</ele>
        <time>2020-06-15T13:00:05Z</time>
      </trkpt>
      <trkpt lat="49.59159" lon="-1.30868">
        <ele>32.1</ele>
        <time>2020-06-15T13:00:06Z</time>
      </trkpt>
      <trkpt lat="49.59158" lon="-1.30872">
        <ele>32.3</ele>
        <time>2020-06-15T13:00:07Z</time>
      </trkpt>
      <trkpt lat="49.59157" lon="-1.30878">
        <ele>32.6</ele>
        <time>2020-06-15T13:00:08Z</time>
      </trkpt>
      <trkpt lat="49.59155" lon="-1.30883">
        <ele>32.8</ele>
        <time>2020-06-15T13:00:09Z</time>
      </trkpt>
      <trkpt lat="49.59154" lon="-1.30887">
        <ele>33</ele>
        <time>2020-06-15T13:00:10Z</time>
      </trkpt>
      <trkpt lat="49.59152" lon="-1.30892">
        <ele>33.2</ele>
        <time>2020-06-15T13:00:11Z</time>
      </trkpt>
      <trkpt lat="49.5915" lon="-1.30897">
        <ele>33.4</ele>
        <time>2020-06-15T13:00:12Z</time>
      </trkpt>
      <trkpt lat="49.59149" lon="-1.30903">
        <ele>33.7</ele>
        <time>2020-06-15T13:00:13Z</time>
      </trkpt>
      <trkpt lat="49.59147" lon="-1.30908">
        <ele>34</ele>
        <time>2020-06-15T13:00:14Z</time>
      </trkpt>
      <trkpt lat="49.59146" lon="-1.30913">
        <ele>34.2</ele>
        <time>2020-06-15T13:00:15Z</time>
      </trkpt>
      <trkpt lat="49.59145" lon="-1.30919">
        <ele>34.4</ele>
        <time>2020-06-15T13:00:16Z</time>
      </trkpt>
      <trkpt lat="49.59144" lon="-1.30924">
        <ele>34.7</ele>
        <time>2020-06-15T13:00:17Z</time>
      </trkpt>
      <trkpt lat="49.59143" lon="-1.30929">
        <ele>34.9</ele>
        <time>2020-06-15T13:00:18Z</time>
      </trkpt>
      <trkpt lat="49.59141" lon="-1.30934">
        <ele>35.2</ele>
        <time>2020-06-15T13:00:19Z</time>
      </trkpt>
      <trkpt lat="49.5914" lon="-1.30938">
        <ele>35.4</ele>
        <time>2020-06-15T13:00:20Z</time>
      </trkpt>
      <trkpt lat="49.59138" lon="-1.30944">
        <ele>35.9</ele>
        <time>2020-06-15T13:00:21Z</time>
      </trkpt>
      <trkpt lat="49.59137" lon="-1.30948">
        <ele>35.5</ele>
        <time>2020-06-15T13:00:22Z</time>
      </trkpt>
      <trkpt lat="49.59136" lon="-1.30954">
        <ele>35</ele>
        <time>2020-06-15T13:00:23Z</time>
      </trkpt>
      <trkpt lat="49.59133" lon="-1.30959">
        <ele>35</ele>
        <time>2020-06-15T13:00:24Z</time>
      </trkpt>
      <trkpt lat="49.59131" lon="-1.30964">
        <ele>35.2</ele>
        <time>2020-06-15T13:00:25Z</time>
      </trkpt>
      <trkpt lat="49.5913" lon="-1.30969">
        <ele>35.3</ele>
        <time>2020-06-15T13:00:26Z</time>
      </trkpt>
      <trkpt lat="49.59128" lon="-1.30974">
        <ele>35.5</ele>
        <time>2020-06-15T13:00:27Z</time>
      </trkpt>
      <trkpt lat="49.59127" lon="-1.30979">
        <ele>35.6</ele>
        <time>2020-06-15T13:00:28Z</time>
      </trkpt>
      <trkpt lat="49.59126" lon="-1.30984">
        <ele>35.7</ele>
        <time>2020-06-15T13:00:29Z</time>
      </trkpt>
      <trkpt lat="49.59125" lon="-1.30989">
        <ele>35.8</ele>
        <time>2020-06-15T13:00:30Z</time>
      </trkpt>
      <trkpt lat="49.59123" lon="-1.30994">
        <ele>35.9</ele>
        <time>2020-06-15T13:00:31Z</time>
      </trkpt>
      <trkpt lat="49.59122" lon="-1.30998">
        <ele>36</ele>
        <time>2020-06-15T13:00:32Z</time>
      </trkpt>
      <trkpt lat="49.59121" lon="-1.31003">
        <ele>36.1</ele>
        <time>2020-06-15T13:00:33Z</time>
      </trkpt>
      <trkpt lat="49.5912" lon="-1.31009">
        <ele>36.2</ele>
        <time>2020-06-15T13:00:34Z</time>
      </trkpt>
      <trkpt lat="49.59118" lon="-1.31015">
        <ele>36.4</ele>
        <time>2020-06-15T13:00:35Z</time>
      </trkpt>
      <trkpt lat="49.59116" lon="-1.3102">
        <ele>36.5</ele>
        <time>2020-06-15T13:00:36Z</time>
      </trkpt>
      <trkpt lat="49.59114" lon="-1.31026">
        <ele>36.6</ele>
        <time>2020-06-15T13:00:37Z</time>
      </trkpt>
      <trkpt lat="49.59112" lon="-1.31032">
        <ele>36.7</ele>
        <time>2020-06-15T13:00:38Z</time>
      </trkpt>
      <trkpt lat="49.59111" lon="-1.31038">
        <ele>36.8</ele>
        <time>2020-06-15T13:00:39Z</time>
      </trkpt>
      <trkpt lat="49.5911" lon="-1.31044">
        <ele>36.9</ele>
        <time>2020-06-15T13:00:40Z</time>
      </trkpt>
      <trkpt lat="49.59108" lon="-1.3105">
        <ele>37</ele>
        <time>2020-06-15T13:00:41Z</time>
      </trkpt>
      <trkpt lat="49.59107" lon="-1.31055">
        <ele>37.1</ele>
        <time>2020-06-15T13:00:42Z</time>
      </trkpt>
      <trkpt lat="49.59105" lon="-1.3106">
        <ele>37.2</ele>
        <time>2020-06-15T13:00:43Z</time>
      </trkpt>
      <trkpt lat="49.59103" lon="-1.31066">
        <ele>37.3</ele>
        <time>2020-06-15T13:00:44Z</time>
      </trkpt>
      <trkpt lat="49.59102" lon="-1.31072">
        <ele>37.4</ele>
        <time>2020-06-15T13:00:45Z</time>
      </trkpt>
      <trkpt lat="49.59101" lon="-1.31078">
        <ele>37.5</ele>
        <time>2020-06-15T13:00:46Z</time>
      </trkpt>
      <trkpt lat="49.59099" lon="-1.31082">
        <ele>37.6</ele>
        <time>2020-06-15T13:00:47Z</time>
      </trkpt>
      <trkpt lat="49.59097" lon="-1.31089">
        <ele>37.8</ele>
        <time>2020-06-15T13:00:48Z</time>
      </trkpt>
      <trkpt lat="49.59095" lon="-1.31095">
        <ele>38</ele>
        <time>2020-06-15T13:00:49Z</time>
      </trkpt>
      <trkpt lat="49.59093" lon="-1.311">
        <ele>38.2</ele>
        <time>2020-06-15T13:00:50Z</time>
      </trkpt>
      <trkpt lat="49.59091" lon="-1.31106">
        <ele>38.3</ele>
        <time>2020-06-15T13:00:51Z</time>
      </trkpt>
      <trkpt lat="49.5909" lon="-1.31113">
        <ele>38.5</ele>
        <time>2020-06-15T13:00:52Z</time>
      </trkpt>
      <trkpt lat="49.59089" lon="-1.31118">
        <ele>38.6</ele>
        <time>2020-06-15T13:00:53Z</time>
      </trkpt>
      <trkpt lat="49.59088" lon="-1.31123">
        <ele>38.7</ele>
        <time>2020-06-15T13:00:54Z</time>
      </trkpt>
      <trkpt lat="49.59086" lon="-1.31128">
        <ele>38.8</ele>
        <time>2020-06-15T13:00:55Z</time>
      </trkpt>
      <trkpt lat="49.59085" lon="-1.31133">
        <ele>38.9</ele>
        <time>2020-06-15T13:00:56Z</time>
      </trkpt>
      <trkpt lat="49.59084" lon="-1.31137">
        <ele>39</ele>
        <time>2020-06-15T13:00:57Z</time>
      </trkpt>
      <trkpt lat="49.59083" lon="-1.31141">
        <ele>39.2</ele>
        <time>2020-06-15T13:00:58Z</time>
      </trkpt>
      <trkpt lat="49.59081" lon="-1.31146">
        <ele>39.3</ele>
        <time>2020-06-15T13:00:59Z</time>
      </trkpt>
      <trkpt lat="49.59079" lon="-1.31151">
        <ele>39.4</ele>
        <time>2020-06-15T13:01:00Z</time>
      </trkpt>
      <trkpt lat="49.59077" lon="-1.31156">
        <ele>39.5</ele>
        <time>2020-06-15T13:01:01Z</time>
      </trkpt>
      <trkpt lat="49.59076" lon="-1.31161">
        <ele>39.6</ele>
        <time>2020-06-15T13:01:02Z</time>
      </trkpt>
      <trkpt lat="49.59075" lon="-1.31166">
        <ele>39.8</ele>
        <time>2020-06-15T13:01:03Z</time>
      </trkpt>
      <trkpt lat="49.59074" lon="-1.31172">
        <ele>39.9</ele>
        <time>2020-06-15T13:01:04Z</time>
      </trkpt>
      <trkpt lat="49.59072" lon="-1.31177">
        <ele>40</ele>
        <time>2020-06-15T13:01:05Z</time>
      </trkpt>
      <trkpt lat="49.59071" lon="-1.31181">
        <ele>40.1</ele>
        <time>2020-06-15T13:01:06Z</time>
      </trkpt>
      <trkpt lat="49.59069" lon="-1.31186">
        <ele>40.3</ele>
        <time>2020-06-15T13:01:07Z</time>
      </trkpt>
      <trkpt lat="49.59068" lon="-1.31192">
        <ele>40.4</ele>
        <time>2020-06-15T13:01:08Z</time>
      </trkpt>
      <trkpt lat="49.59067" lon="-1.31196">
        <ele>40.5</ele>
        <time>2020-06-15T13:01:09Z</time>
      </trkpt>
      <trkpt lat="49.59065" lon="-1.31202">
        <ele>40.7</ele>
        <time>2020-06-15T13:01:10Z</time>
      </trkpt>
      <trkpt lat="49.59064" lon="-1.31207">
        <ele>40.8</ele>
        <time>2020-06-15T13:01:11Z</time>
      </trkpt>
      <trkpt lat="49.59063" lon="-1.31212">
        <ele>41</ele>
        <time>2020-06-15T13:01:12Z</time>
      </trkpt>
      <trkpt lat="49.59061" lon="-1.31216">
        <ele>41.1</ele>
        <time>2020-06-15T13:01:13Z</time>
      </trkpt>
      <trkpt lat="49.5906" lon="-1.31222">
        <ele>41.3</ele>
        <time>2020-06-15T13:01:14Z</time>
      </trkpt>
      <trkpt lat="49.59058" lon="-1.31228">
        <ele>41.4</ele>
        <time>2020-06-15T13:01:15Z</time>
      </trkpt>
      <trkpt lat="49.59057" lon="-1.31234">
        <ele>41.6</ele>
        <time>2020-06-15T13:01:16Z</time>
      </trkpt>
      <trkpt lat="49.59055" lon="-1.31239">
        <ele>41.8</ele>
        <time>2020-06-15T13:01:17Z</time>
      </trkpt>
      <trkpt lat="49.59054" lon="-1.31245">
        <ele>41.9</ele>
        <time>2020-06-15T13:01:18Z</time>
      </trkpt>
      <trkpt lat="49.59053" lon="-1.3125">
        <ele>42</ele>
        <time>2020-06-15T13:01:19Z</time>
      </trkpt>
      <trkpt lat="49.59052" lon="-1.31256">
        <ele>42.2</ele>
        <time>2020-06-15T13:01:20Z</time>
      </trkpt>
      <trkpt lat="49.5905" lon="-1.31261">
        <ele>42.4</ele>
        <time>2020-06-15T13:01:21Z</time>
      </trkpt>
      <trkpt lat="49.59049" lon="-1.31266">
        <ele>42.5</ele>
        <time>2020-06-15T13:01:22Z</time>
      </trkpt>
      <trkpt lat="49.59047" lon="-1.31271">
        <ele>42.7</ele>
        <time>2020-06-15T13:01:23Z</time>
      </trkpt>
      <trkpt lat="49.59046" lon="-1.31276">
        <ele>42.8</ele>
        <time>2020-06-15T13:01:24Z</time>
      </trkpt>
      <trkpt lat="49.59045" lon="-1.31281">
        <ele>43</ele>
        <time>2020-06-15T13:01:25Z</time>
      </trkpt>
      <trkpt lat="49.59043" lon="-1.31286">
        <ele>43.2</ele>
        <time>2020-06-15T13:01:26Z</time>
      </trkpt>
      <trkpt lat="49.59042" lon="-1.31291">
        <ele>43.4</ele>
        <time>2020-06-15T13:01:27Z</time>
      </trkpt>
      <trkpt lat="49.59041" lon="-1.31296">
        <ele>43.6</ele>
        <time>2020-06-15T13:01:28Z</time>
      </trkpt>
      <trkpt lat="49.59039" lon="-1.31302">
        <ele>43.8</ele>
        <time>2020-06-15T13:01:29Z</time>
      </trkpt>
      <trkpt lat="49.59038" lon="-1.31308">
        <ele>44</ele>
        <time>2020-06-15T13:01:30Z</time>
      </trkpt>
      <trkpt lat="49.59036" lon="-1.31314">
        <ele>44.2</ele>
        <time>2020-06-15T13:01:31Z</time>
      </trkpt>
      <trkpt lat="49.59035" lon="-1.31319">
        <ele>44.5</ele>
        <time>2020-06-15T13:01:32Z</time>
      </trkpt>
      <trkpt lat="49.59033" lon="-1.31325">
        <ele>44.7</ele>
        <time>2020-06-15T13:01:33Z</time>
      </trkpt>
      <trkpt lat="49.59032" lon="-1.31331">
        <ele>44.9</ele>
        <time>2020-06-15T13:01:34Z</time>
      </trkpt>
      <trkpt lat="49.59031" lon="-1.31337">
        <ele>45.2</ele>
        <time>2020-06-15T13:01:35Z</time>
      </trkpt>
      <trkpt lat="49.59029" lon="-1.31342">
        <ele>45.4</ele>
        <time>2020-06-15T13:01:36Z</time>
      </trkpt>
      <trkpt lat="49.59028" lon="-1.31348">
        <ele>45.7</ele>
        <time>2020-06-15T13:01:37Z</time>
      </trkpt>
      <trkpt lat="49.59027" lon="-1.31353">
        <ele>45.9</ele>
        <time>2020-06-15T13:01:38Z</time>
      </trkpt>
      <trkpt lat="49.59025" lon="-1.31357">
        <ele>46.1</ele>
        <time>2020-06-15T13:01:39Z</time>
      </trkpt>
      <trkpt lat="49.59023" lon="-1.31362">
        <ele>46.3</ele>
        <time>2020-06-15T13:01:40Z</time>
      </trkpt>
      <trkpt lat="49.59022" lon="-1.31366">
        <ele>46.5</ele>
        <time>2020-06-15T13:01:41Z</time>
      </trkpt>
      <trkpt lat="49.59021" lon="-1.31371">
        <ele>46.7</ele>
        <time>2020-06-15T13:01:42Z</time>
      </trkpt>
      <trkpt lat="49.5902" lon="-1.31376">
        <ele>47</ele>
        <time>2020-06-15T13:01:43Z</time>
      </trkpt>
      <trkpt lat="49.59019" lon="-1.31381">
        <ele>47.2</ele>
        <time>2020-06-15T13:01:44Z</time>
      </trkpt>
      <trkpt lat="49.59018" lon="-1.31386">
        <ele>47.4</ele>
        <time>2020-06-15T13:01:45Z</time>
      </trkpt>
      <trkpt lat="49.59016" lon="-1.31391">
        <ele>47.7</ele>
        <time>2020-06-15T13:01:46Z</time>
      </trkpt>
      <trkpt lat="49.59014" lon="-1.31397">
        <ele>47.9</ele>
        <time>2020-06-15T13:01:47Z</time>
      </trkpt>
      <trkpt lat="49.59012" lon="-1.31402">
        <ele>48.2</ele>
        <time>2020-06-15T13:01:48Z</time>
      </trkpt>
      <trkpt lat="49.5901" lon="-1.31406">
        <ele>48.4</ele>
        <time>2020-06-15T13:01:49Z</time>
      </trkpt>
      <trkpt lat="49.59009" lon="-1.31411">
        <ele>48.6</ele>
        <time>2020-06-15T13:01:50Z</time>
      </trkpt>
      <trkpt lat="49.59008" lon="-1.31416">
        <ele>48.9</ele>
        <time>2020-06-15T13:01:51Z</time>
      </trkpt>
      <trkpt lat="49.59006" lon="-1.31421">
        <ele>49.1</ele>
        <time>2020-06-15T13:01:52Z</time>
      </trkpt>
      <trkpt lat="49.59005" lon="-1.31427">
        <ele>49.4</ele>
        <time>2020-06-15T13:01:53Z</time>
      </trkpt>
      <trkpt lat="49.59003" lon="-1.31432">
        <ele>49.6</ele>
        <time>2020-06-15T13:01:54Z</time>
      </trkpt>
      <trkpt lat="49.59001" lon="-1.31437">
        <ele>49.9</ele>
        <time>2020-06-15T13:01:55Z</time>
      </trkpt>
      <trkpt lat="49.58999" lon="-1.31442">
        <ele>50.1</ele>
        <time>2020-06-15T13:01:56Z</time>
      </trkpt>
      <trkpt lat="49.58997" lon="-1.31447">
        <ele>50.3</ele>
        <time>2020-06-15T13:01:57Z</time>
      </trkpt>
      <trkpt lat="49.58995" lon="-1.31452">
        <ele>50.5</ele>
        <time>2020-06-15T13:01:58Z</time>
      </trkpt>
      <trkpt lat="49.58994" lon="-1.31457">
        <ele>50.8</ele>
        <time>2020-06-15T13:01:59Z</time>
      </trkpt>
      <trkpt lat="49.58992" lon="-1.31462">
        <ele>51.1</ele>
        <time>2020-06-15T13:02:00Z</time>
      </trkpt>
      <trkpt lat="49.58991" lon="-1.31468">
        <ele>51.3</ele>
        <time>2020-06-15T13:02:01Z</time>
      </trkpt>
      <trkpt lat="49.58989" lon="-1.31472">
        <ele>51.5</ele>
        <time>2020-06-15T13:02:02Z</time>
      </trkpt>
      <trkpt lat="49.58988" lon="-1.31476">
        <ele>51.7</ele>
        <time>2020-06-15T13:02:03Z</time>
      </trkpt>
      <trkpt lat="49.58987" lon="-1.3148">
        <ele>51.9</ele>
        <time>2020-06-15T13:02:04Z</time>
      </trkpt>
      <trkpt lat="49.58986" lon="-1.31485">
        <ele>52.2</ele>
        <time>2020-06-15T13:02:05Z</time>
      </trkpt>
      <trkpt lat="49.58985" lon="-1.31489">
        <ele>52.4</ele>
        <time>2020-06-15T13:02:06Z</time>
      </trkpt>
      <trkpt lat="49.58984" lon="-1.31494">
        <ele>52.6</ele>
        <time>2020-06-15T13:02:07Z</time>
      </trkpt>
      <trkpt lat="49.58983" lon="-1.31498">
        <ele>52.8</ele>
        <time>2020-06-15T13:02:08Z</time>
      </trkpt>
      <trkpt lat="49.58981" lon="-1.31503">
        <ele>53.1</ele>
        <time>2020-06-15T13:02:09Z</time>
      </trkpt>
      <trkpt lat="49.5898" lon="-1.31509">
        <ele>53.3</ele>
        <time>2020-06-15T13:02:10Z</time>
      </trkpt>
      <trkpt lat="49.58978" lon="-1.31515">
        <ele>53.6</ele>
        <time>2020-06-15T13:02:11Z</time>
      </trkpt>
      <trkpt lat="49.58977" lon="-1.31519">
        <ele>53.8</ele>
        <time>2020-06-15T13:02:12Z</time>
      </trkpt>
      <trkpt lat="49.58975" lon="-1.31524">
        <ele>54</ele>
        <time>2020-06-15T13:02:13Z</time>
      </trkpt>
      <trkpt lat="49.58974" lon="-1.31529">
        <ele>54.3</ele>
        <time>2020-06-15T13:02:14Z</time>
      </trkpt>
      <trkpt lat="49.58972" lon="-1.31534">
        <ele>54.5</ele>
        <time>2020-06-15T13:02:15Z</time>
      </trkpt>
      <trkpt lat="49.5897" lon="-1.31539">
        <ele>54.8</ele>
        <time>2020-06-15T13:02:16Z</time>
      </trkpt>
      <trkpt lat="49.58969" lon="-1.31543">
        <ele>54.9</ele>
        <time>2020-06-15T13:02:17Z</time>
      </trkpt>
      <trkpt lat="49.58968" lon="-1.31548">
        <ele>55.2</ele>
        <time>2020-06-15T13:02:18Z</time>
      </trkpt>
      <trkpt lat="49.58966" lon="-1.31553">
        <ele>55.4</ele>
        <time>2020-06-15T13:02:19Z</time>
      </trkpt>
      <trkpt lat="49.58965" lon="-1.31559">
        <ele>55.7</ele>
        <time>2020-06-15T13:02:20Z</time>
      </trkpt>
      <trkpt lat="49.58964" lon="-1.31564">
        <ele>55.9</ele>
        <time>2020-06-15T13:02:21Z</time>
      </trkpt>
      <trkpt lat="49.58962" lon="-1.31569">
        <ele>56.1</ele>
        <time>2020-06-15T13:02:22Z</time>
      </trkpt>
      <trkpt lat="49.58961" lon="-1.31573">
        <ele>56.3</ele>
        <time>2020-06-15T13:02:23Z</time>
      </trkpt>
      <trkpt lat="49.5896" lon="-1.31577">
        <ele>56.5</ele>
        <time>2020-06-15T13:02:24Z</time>
      </trkpt>
      <trkpt lat="49.58959" lon="-1.31582">
        <ele>56.7</ele>
        <time>2020-06-15T13:02:25Z</time>
      </trkpt>
      <trkpt lat="49.58958" lon="-1.31586">
        <ele>56.9</ele>
        <time>2020-06-15T13:02:26Z</time>
      </trkpt>
      <trkpt lat="49.58957" lon="-1.3159">
        <ele>57.1</ele>
        <time>2020-06-15T13:02:27Z</time>
      </trkpt>
      <trkpt lat="49.58956" lon="-1.31595">
        <ele>57.3</ele>
        <time>2020-06-15T13:02:28Z</time>
      </trkpt>
      <trkpt lat="49.58954" lon="-1.316">
        <ele>57.6</ele>
        <time>2020-06-15T13:02:29Z</time>
      </trkpt>
      <trkpt lat="49.58953" lon="-1.31606">
        <ele>57.9</ele>
        <time>2020-06-15T13:02:30Z</time>
      </trkpt>
      <trkpt lat="49.58952" lon="-1.31612">
        <ele>58.1</ele>
        <time>2020-06-15T13:02:31Z</time>
      </trkpt>
      <trkpt lat="49.5895" lon="-1.31617">
        <ele>58.4</ele>
        <time>2020-06-15T13:02:32Z</time>
      </trkpt>
      <trkpt lat="49.58949" lon="-1.31623">
        <ele>58.7</ele>
        <time>2020-06-15T13:02:33Z</time>
      </trkpt>
      <trkpt lat="49.58948" lon="-1.31628">
        <ele>58.9</ele>
        <time>2020-06-15T13:02:34Z</time>
      </trkpt>
      <trkpt lat="49.58947" lon="-1.31633">
        <ele>59.2</ele>
        <time>2020-06-15T13:02:35Z</time>
      </trkpt>
      <trkpt lat="49.58945" lon="-1.31638">
        <ele>59.4</ele>
        <time>2020-06-15T13:02:36Z</time>
      </trkpt>
      <trkpt lat="49.58943" lon="-1.31643">
        <ele>59.7</ele>
        <time>2020-06-15T13:02:37Z</time>
      </trkpt>
      <trkpt lat="49.58942" lon="-1.3165">
        <ele>60</ele>
        <time>2020-06-15T13:02:38Z</time>
      </trkpt>
      <trkpt lat="49.5894" lon="-1.31656">
        <ele>60.3</ele>
        <time>2020-06-15T13:02:39Z</time>
      </trkpt>
      <trkpt lat="49.58938" lon="-1.31661">
        <ele>60.6</ele>
        <time>2020-06-15T13:02:40Z</time>
      </trkpt>
      <trkpt lat="49.58937" lon="-1.31665">
        <ele>60.8</ele>
        <time>2020-06-15T13:02:41Z</time>
      </trkpt>
      <trkpt lat="49.58936" lon="-1.31669">
        <ele>61</ele>
        <time>2020-06-15T13:02:42Z</time>
      </trkpt>
      <trkpt lat="49.58935" lon="-1.31674">
        <ele>61.2</ele>
        <time>2020-06-15T13:02:43Z</time>
      </trkpt>
      <trkpt lat="49.58934" lon="-1.3168">
        <ele>61.4</ele>
        <time>2020-06-15T13:02:44Z</time>
      </trkpt>
      <trkpt lat="49.58933" lon="-1.31685">
        <ele>61.7</ele>
        <time>2020-06-15T13:02:45Z</time>
      </trkpt>
      <trkpt lat="49.58931" lon="-1.3169">
        <ele>61.9</ele>
        <time>2020-06-15T13:02:46Z</time>
      </trkpt>
      <trkpt lat="49.58929" lon="-1.31695">
        <ele>62.1</ele>
        <time>2020-06-15T13:02:47Z</time>
      </trkpt>
      <trkpt lat="49.58928" lon="-1.317">
        <ele>62.3</ele>
        <time>2020-06-15T13:02:48Z</time>
      </trkpt>
      <trkpt lat="49.58927" lon="-1.31706">
        <ele>62.6</ele>
        <time>2020-06-15T13:02:49Z</time>
      </trkpt>
      <trkpt lat="49.58926" lon="-1.31711">
        <ele>62.8</ele>
        <time>2020-06-15T13:02:50Z</time>
      </trkpt>
      <trkpt lat="49.58924" lon="-1.31716">
        <ele>63</ele>
        <time>2020-06-15T13:02:51Z</time>
      </trkpt>
      <trkpt lat="49.58923" lon="-1.31722">
        <ele>63.2</ele>
        <time>2020-06-15T13:02:52Z</time>
      </trkpt>
      <trkpt lat="49.58922" lon="-1.31726">
        <ele>63.3</ele>
        <time>2020-06-15T13:02:53Z</time>
      </trkpt>
      <trkpt lat="49.58919" lon="-1.3173">
        <ele>63.5</ele>
        <time>2020-06-15T13:02:54Z</time>
      </trkpt>
      <trkpt lat="49.58918" lon="-1.31735">
        <ele>63.7</ele>
        <time>2020-06-15T13:02:55Z</time>
      </trkpt>
      <trkpt lat="49.58916" lon="-1.31741">
        <ele>63.9</ele>
        <time>2020-06-15T13:02:56Z</time>
      </trkpt>
      <trkpt lat="49.58915" lon="-1.31745">
        <ele>64.1</ele>
        <time>2020-06-15T13:02:57Z</time>
      </trkpt>
      <trkpt lat="49.58913" lon="-1.3175">
        <ele>64.3</ele>
        <time>2020-06-15T13:02:58Z</time>
      </trkpt>
      <trkpt lat="49.58912" lon="-1.31755">
        <ele>64.5</ele>
        <time>2020-06-15T13:02:59Z</time>
      </trkpt>
      <trkpt lat="49.58911" lon="-1.31759">
        <ele>64.6</ele>
        <time>2020-06-15T13:03:00Z</time>
      </trkpt>
      <trkpt lat="49.5891" lon="-1.31764">
        <ele>64.8</ele>
        <time>2020-06-15T13:03:01Z</time>
      </trkpt>
      <trkpt lat="49.58909" lon="-1.31768">
        <ele>64.9</ele>
        <time>2020-06-15T13:03:02Z</time>
      </trkpt>
      <trkpt lat="49.58908" lon="-1.31773">
        <ele>65.1</ele>
        <time>2020-06-15T13:03:03Z</time>
      </trkpt>
      <trkpt lat="49.58907" lon="-1.31778">
        <ele>65.2</ele>
        <time>2020-06-15T13:03:04Z</time>
      </trkpt>
      <trkpt lat="49.58906" lon="-1.31784">
        <ele>65.4</ele>
        <time>2020-06-15T13:03:05Z</time>
      </trkpt>
      <trkpt lat="49.58904" lon="-1.31789">
        <ele>65.5</ele>
        <time>2020-06-15T13:03:06Z</time>
      </trkpt>
      <trkpt lat="49.58903" lon="-1.31796">
        <ele>65.7</ele>
        <time>2020-06-15T13:03:07Z</time>
      </trkpt>
      <trkpt lat="49.58902" lon="-1.31802">
        <ele>65.9</ele>
        <time>2020-06-15T13:03:08Z</time>
      </trkpt>
      <trkpt lat="49.589" lon="-1.31808">
        <ele>66</ele>
        <time>2020-06-15T13:03:09Z</time>
      </trkpt>
      <trkpt lat="49.58898" lon="-1.31814">
        <ele>66.2</ele>
        <time>2020-06-15T13:03:10Z</time>
      </trkpt>
      <trkpt lat="49.58896" lon="-1.3182">
        <ele>66.3</ele>
        <time>2020-06-15T13:03:11Z</time>
      </trkpt>
      <trkpt lat="49.58895" lon="-1.31825">
        <ele>66.4</ele>
        <time>2020-06-15T13:03:12Z</time>
      </trkpt>
      <trkpt lat="49.58893" lon="-1.31831">
        <ele>66.5</ele>
        <time>2020-06-15T13:03:13Z</time>
      </trkpt>
      <trkpt lat="49.58892" lon="-1.31837">
        <ele>66.6</ele>
        <time>2020-06-15T13:03:14Z</time>
      </trkpt>
      <trkpt lat="49.5889" lon="-1.31843">
        <ele>66.7</ele>
        <time>2020-06-15T13:03:15Z</time>
      </trkpt>
      <trkpt lat="49.58888" lon="-1.31849">
        <ele>66.9</ele>
        <time>2020-06-15T13:03:16Z</time>
      </trkpt>
      <trkpt lat="49.58886" lon="-1.31855">
        <ele>67</ele>
        <time>2020-06-15T13:03:17Z</time>
      </trkpt>
      <trkpt lat="49.58884" lon="-1.31861">
        <ele>67.1</ele>
        <time>2020-06-15T13:03:18Z</time>
      </trkpt>
      <trkpt lat="49.58882" lon="-1.31868">
        <ele>67.1</ele>
        <time>2020-06-15T13:03:19Z</time>
      </trkpt>
      <trkpt lat="49.5888" lon="-1.31874">
        <ele>67.2</ele>
        <time>2020-06-15T13:03:20Z</time>
      </trkpt>
      <trkpt lat="49.58878" lon="-1.31881">
        <ele>67.3</ele>
        <time>2020-06-15T13:03:21Z</time>
      </trkpt>
      <trkpt lat="49.58876" lon="-1.31887">
        <ele>67.4</ele>
        <time>2020-06-15T13:03:22Z</time>
      </trkpt>
      <trkpt lat="49.58874" lon="-1.31894">
        <ele>67.4</ele>
        <time>2020-06-15T13:03:23Z</time>
      </trkpt>
      <trkpt lat="49.58872" lon="-1.31902">
        <ele>67.5</ele>
        <time>2020-06-15T13:03:24Z</time>
      </trkpt>
      <trkpt lat="49.5887" lon="-1.31908">
        <ele>67.5</ele>
        <time>2020-06-15T13:03:25Z</time>
      </trkpt>
      <trkpt lat="49.58868" lon="-1.31915">
        <ele>67.6</ele>
        <time>2020-06-15T13:03:26Z</time>
      </trkpt>
      <trkpt lat="49.58866" lon="-1.31922">
        <ele>67.6</ele>
        <time>2020-06-15T13:03:27Z</time>
      </trkpt>
      <trkpt lat="49.58863" lon="-1.31929">
        <ele>67.7</ele>
        <time>2020-06-15T13:03:28Z</time>
      </trkpt>
      <trkpt lat="49.58862" lon="-1.31937">
        <ele>67.7</ele>
        <time>2020-06-15T13:03:29Z</time>
      </trkpt>
      <trkpt lat="49.5886" lon="-1.31945">
        <ele>67.8</ele>
        <time>2020-06-15T13:03:30Z</time>
      </trkpt>
      <trkpt lat="49.58857" lon="-1.31953">
        <ele>67.8</ele>
        <time>2020-06-15T13:03:31Z</time>
      </trkpt>
      <trkpt lat="49.58855" lon="-1.3196">
        <ele>67.9</ele>
        <time>2020-06-15T13:03:32Z</time>
      </trkpt>
      <trkpt lat="49.58853" lon="-1.31968">
        <ele>67.9</ele>
        <time>2020-06-15T13:03:33Z</time>
      </trkpt>
      <trkpt lat="49.58851" lon="-1.31975">
        <ele>67.9</ele>
        <time>2020-06-15T13:03:34Z</time>
      </trkpt>
      <trkpt lat="49.58849" lon="-1.31982">
        <ele>67.9</ele>
        <time>2020-06-15T13:03:35Z</time>
      </trkpt>
      <trkpt lat="49.58848" lon="-1.3199">
        <ele>67.9</ele>
        <time>2020-06-15T13:03:36Z</time>
      </trkpt>
      <trkpt lat="49.58846" lon="-1.31997">
        <ele>67.9</ele>
        <time>2020-06-15T13:03:37Z</time>
      </trkpt>
      <trkpt lat="49.58844" lon="-1.32004">
        <ele>67.9</ele>
        <time>2020-06-15T13:03:38Z</time>
      </trkpt>
      <trkpt lat="49.58842" lon="-1.32011">
        <ele>67.9</ele>
        <time>2020-06-15T13:03:39Z</time>
      </trkpt>
      <trkpt lat="49.58839" lon="-1.32019">
        <ele>67.9</ele>
        <time>2020-06-15T13:03:40Z</time>
      </trkpt>
      <trkpt lat="49.58836" lon="-1.32027">
        <ele>67.9</ele>
        <time>2020-06-15T13:03:41Z</time>
      </trkpt>
      <trkpt lat="49.58834" lon="-1.32035">
        <ele>67.9</ele>
        <time>2020-06-15T13:03:42Z</time>
      </trkpt>
      <trkpt lat="49.58831" lon="-1.32043">
        <ele>67.9</ele>
        <time>2020-06-15T13:03:43Z</time>
      </trkpt>
      <trkpt lat="49.58828" lon="-1.32051">
        <ele>68</ele>
        <time>2020-06-15T13:03:44Z</time>
      </trkpt>
      <trkpt lat="49.58826" lon="-1.32059">
        <ele>68</ele>
        <time>2020-06-15T13:03:45Z</time>
      </trkpt>
      <trkpt lat="49.58823" lon="-1.32067">
        <ele>68</ele>
        <time>2020-06-15T13:03:46Z</time>
      </trkpt>
      <trkpt lat="49.58821" lon="-1.32074">
        <ele>68.1</ele>
        <time>2020-06-15T13:03:47Z</time>
      </trkpt>
      <trkpt lat="49.58819" lon="-1.32082">
        <ele>68.1</ele>
        <time>2020-06-15T13:03:48Z</time>
      </trkpt>
      <trkpt lat="49.58816" lon="-1.3209">
        <ele>68.1</ele>
        <time>2020-06-15T13:03:49Z</time>
      </trkpt>
      <trkpt lat="49.58814" lon="-1.32098">
        <ele>68.2</ele>
        <time>2020-06-15T13:03:50Z</time>
      </trkpt>
      <trkpt lat="49.58812" lon="-1.32106">
        <ele>68.2</ele>
        <time>2020-06-15T13:03:51Z</time>
      </trkpt>
      <trkpt lat="49.5881" lon="-1.32114">
        <ele>68.2</ele>
        <time>2020-06-15T13:03:52Z</time>
      </trkpt>
      <trkpt lat="49.58807" lon="-1.32123">
        <ele>68.2</ele>
        <time>2020-06-15T13:03:53Z</time>
      </trkpt>
      <trkpt lat="49.58805" lon="-1.32131">
        <ele>68.2</ele>
        <time>2020-06-15T13:03:54Z</time>
      </trkpt>
      <trkpt lat="49.58803" lon="-1.3214">
        <ele>68.3</ele>
        <time>2020-06-15T13:03:55Z</time>
      </trkpt>
      <trkpt lat="49.58801" lon="-1.32149">
        <ele>68.3</ele>
        <time>2020-06-15T13:03:56Z</time>
      </trkpt>
      <trkpt lat="49.58799" lon="-1.32156">
        <ele>68.3</ele>
        <time>2020-06-15T13:03:57Z</time>
      </trkpt>
      <trkpt lat="49.58798" lon="-1.32164">
        <ele>68.4</ele>
        <time>2020-06-15T13:03:58Z</time>
      </trkpt>
      <trkpt lat="49.58796" lon="-1.32171">
        <ele>68.4</ele>
        <time>2020-06-15T13:03:59Z</time>
      </trkpt>
      <trkpt lat="49.58794" lon="-1.3218">
        <ele>68.4</ele>
        <time>2020-06-15T13:04:00Z</time>
      </trkpt>
      <trkpt lat="49.58792" lon="-1.32188">
        <ele>68.4</ele>
        <time>2020-06-15T13:04:01Z</time>
      </trkpt>
      <trkpt lat="49.58789" lon="-1.32198">
        <ele>68.4</ele>
        <time>2020-06-15T13:04:02Z</time>
      </trkpt>
      <trkpt lat="49.58787" lon="-1.32207">
        <ele>68.4</ele>
        <time>2020-06-15T13:04:03Z</time>
      </trkpt>
      <trkpt lat="49.58784" lon="-1.32215">
        <ele>68.5</ele>
        <time>2020-06-15T13:04:04Z</time>
      </trkpt>
      <trkpt lat="49.58781" lon="-1.32224">
        <ele>68.5</ele>
        <time>2020-06-15T13:04:05Z</time>
      </trkpt>
      <trkpt lat="49.58779" lon="-1.32232">
        <ele>68.5</ele>
        <time>2020-06-15T13:04:06Z</time>
      </trkpt>
      <trkpt lat="49.58777" lon="-1.3224">
        <ele>68.5</ele>
        <time>2020-06-15T13:04:07Z</time>
      </trkpt>
      <trkpt lat="49.58774" lon="-1.32248">
        <ele>68.6</ele>
        <time>2020-06-15T13:04:08Z</time>
      </trkpt>
      <trkpt lat="49.58771" lon="-1.32256">
        <ele>68.6</ele>
        <time>2020-06-15T13:04:09Z</time>
      </trkpt>
      <trkpt lat="49.58768" lon="-1.32265">
        <ele>68.6</ele>
        <time>2020-06-15T13:04:10Z</time>
      </trkpt>
      <trkpt lat="49.58766" lon="-1.32274">
        <ele>68.7</ele>
        <time>2020-06-15T13:04:11Z</time>
      </trkpt>
      <trkpt lat="49.58763" lon="-1.32283">
        <ele>68.7</ele>
        <time>2020-06-15T13:04:12Z</time>
      </trkpt>
      <trkpt lat="49.58761" lon="-1.32293">
        <ele>68.8</ele>
        <time>2020-06-15T13:04:13Z</time>
      </trkpt>
      <trkpt lat="49.58758" lon="-1.32303">
        <ele>68.9</ele>
        <time>2020-06-15T13:04:14Z</time>
      </trkpt>
      <trkpt lat="49.58755" lon="-1.32313">
        <ele>69</ele>
        <time>2020-06-15T13:04:15Z</time>
      </trkpt>
      <trkpt lat="49.58753" lon="-1.32321">
        <ele>69</ele>
        <time>2020-06-15T13:04:16Z</time>
      </trkpt>
      <trkpt lat="49.5875" lon="-1.3233">
        <ele>69.1</ele>
        <time>2020-06-15T13:04:17Z</time>
      </trkpt>
      <trkpt lat="49.58747" lon="-1.32339">
        <ele>69.2</ele>
        <time>2020-06-15T13:04:18Z</time>
      </trkpt>
      <trkpt lat="49.58745" lon="-1.32347">
        <ele>69.2</ele>
        <time>2020-06-15T13:04:19Z</time>
      </trkpt>
      <trkpt lat="49.58743" lon="-1.32355">
        <ele>69.2</ele>
        <time>2020-06-15T13:04:20Z</time>
      </trkpt>
      <trkpt lat="49.58741" lon="-1.32363">
        <ele>69.2</ele>
        <time>2020-06-15T13:04:21Z</time>
      </trkpt>
      <trkpt lat="49.58739" lon="-1.32371">
        <ele>69.1</ele>
        <time>2020-06-15T13:04:22Z</time>
      </trkpt>
      <trkpt lat="49.58736" lon="-1.32378">
        <ele>69.1</ele>
        <time>2020-06-15T13:04:23Z</time>
      </trkpt>
      <trkpt lat="49.58734" lon="-1.32387">
        <ele>69</ele>
        <time>2020-06-15T13:04:24Z</time>
      </trkpt>
      <trkpt lat="49.58731" lon="-1.32397">
        <ele>69</ele>
        <time>2020-06-15T13:04:25Z</time>
      </trkpt>
      <trkpt lat="49.58729" lon="-1.32406">
        <ele>68.9</ele>
        <time>2020-06-15T13:04:26Z</time>
      </trkpt>
      <trkpt lat="49.58726" lon="-1.32415">
        <ele>68.9</ele>
        <time>2020-06-15T13:04:27Z</time>
      </trkpt>
      <trkpt lat="49.58723" lon="-1.32425">
        <ele>68.8</ele>
        <time>2020-06-15T13:04:28Z</time>
      </trkpt>
      <trkpt lat="49.58721" lon="-1.32434">
        <ele>68.7</ele>
        <time>2020-06-15T13:04:29Z</time>
      </trkpt>
      <trkpt lat="49.58718" lon="-1.32444">
        <ele>68.7</ele>
        <time>2020-06-15T13:04:30Z</time>
      </trkpt>
      <trkpt lat="49.58716" lon="-1.32453">
        <ele>68.6</ele>
        <time>2020-06-15T13:04:31Z</time>
      </trkpt>
      <trkpt lat="49.58714" lon="-1.32461">
        <ele>68.5</ele>
        <time>2020-06-15T13:04:32Z</time>
      </trkpt>
      <trkpt lat="49.58711" lon="-1.3247">
        <ele>68.5</ele>
        <time>2020-06-15T13:04:33Z</time>
      </trkpt>
      <trkpt lat="49.58708" lon="-1.3248">
        <ele>68.4</ele>
        <time>2020-06-15T13:04:34Z</time>
      </trkpt>
      <trkpt lat="49.58705" lon="-1.32491">
        <ele>68.2</ele>
        <time>2020-06-15T13:04:35Z</time>
      </trkpt>
      <trkpt lat="49.58703" lon="-1.325">
        <ele>68.1</ele>
        <time>2020-06-15T13:04:36Z</time>
      </trkpt>
      <trkpt lat="49.587" lon="-1.32509">
        <ele>68</ele>
        <time>2020-06-15T13:04:37Z</time>
      </trkpt>
      <trkpt lat="49.58697" lon="-1.32519">
        <ele>67.9</ele>
        <time>2020-06-15T13:04:38Z</time>
      </trkpt>
      <trkpt lat="49.58695" lon="-1.32528">
        <ele>67.8</ele>
        <time>2020-06-15T13:04:39Z</time>
      </trkpt>
      <trkpt lat="49.58692" lon="-1.32537">
        <ele>67.7</ele>
        <time>2020-06-15T13:04:40Z</time>
      </trkpt>
      <trkpt lat="49.5869" lon="-1.32546">
        <ele>67.6</ele>
        <time>2020-06-15T13:04:41Z</time>
      </trkpt>
      <trkpt lat="49.58688" lon="-1.32555">
        <ele>67.6</ele>
        <time>2020-06-15T13:04:42Z</time>
      </trkpt>
      <trkpt lat="49.58685" lon="-1.32564">
        <ele>67.5</ele>
        <time>2020-06-15T13:04:43Z</time>
      </trkpt>
      <trkpt lat="49.58683" lon="-1.32574">
        <ele>67.4</ele>
        <time>2020-06-15T13:04:44Z</time>
      </trkpt>
      <trkpt lat="49.58681" lon="-1.32581">
        <ele>67.3</ele>
        <time>2020-06-15T13:04:45Z</time>
      </trkpt>
      <trkpt lat="49.58679" lon="-1.32589">
        <ele>67.3</ele>
        <time>2020-06-15T13:04:46Z</time>
      </trkpt>
      <trkpt lat="49.58676" lon="-1.32596">
        <ele>67.2</ele>
        <time>2020-06-15T13:04:47Z</time>
      </trkpt>
      <trkpt lat="49.58674" lon="-1.32604">
        <ele>67.1</ele>
        <time>2020-06-15T13:04:48Z</time>
      </trkpt>
      <trkpt lat="49.58671" lon="-1.32614">
        <ele>67</ele>
        <time>2020-06-15T13:04:49Z</time>
      </trkpt>
      <trkpt lat="49.58669" lon="-1.32621">
        <ele>66.9</ele>
        <time>2020-06-15T13:04:50Z</time>
      </trkpt>
      <trkpt lat="49.58667" lon="-1.3263">
        <ele>66.7</ele>
        <time>2020-06-15T13:04:51Z</time>
      </trkpt>
      <trkpt lat="49.58666" lon="-1.32639">
        <ele>66.6</ele>
        <time>2020-06-15T13:04:52Z</time>
      </trkpt>
      <trkpt lat="49.58664" lon="-1.32648">
        <ele>66.5</ele>
        <time>2020-06-15T13:04:53Z</time>
      </trkpt>
      <trkpt lat="49.58662" lon="-1.32655">
        <ele>66.5</ele>
        <time>2020-06-15T13:04:54Z</time>
      </trkpt>
      <trkpt lat="49.58659" lon="-1.32664">
        <ele>66.4</ele>
        <time>2020-06-15T13:04:55Z</time>
      </trkpt>
      <trkpt lat="49.58657" lon="-1.32674">
        <ele>66.4</ele>
        <time>2020-06-15T13:04:56Z</time>
      </trkpt>
      <trkpt lat="49.58655" lon="-1.32683">
        <ele>66.3</ele>
        <time>2020-06-15T13:04:57Z</time>
      </trkpt>
      <trkpt lat="49.58652" lon="-1.32692">
        <ele>66.2</ele>
        <time>2020-06-15T13:04:58Z</time>
      </trkpt>
      <trkpt lat="49.5865" lon="-1.32701">
        <ele>66.1</ele>
        <time>2020-06-15T13:04:59Z</time>
      </trkpt>
      <trkpt lat="49.58647" lon="-1.3271">
        <ele>65.9</ele>
        <time>2020-06-15T13:05:00Z</time>
      </trkpt>
      <trkpt lat="49.58644" lon="-1.32719">
        <ele>65.6</ele>
        <time>2020-06-15T13:05:01Z</time>
      </trkpt>
      <trkpt lat="49.58643" lon="-1.32726">
        <ele>65.5</ele>
        <time>2020-06-15T13:05:02Z</time>
      </trkpt>
      <trkpt lat="49.58641" lon="-1.32734">
        <ele>65.3</ele>
        <time>2020-06-15T13:05:03Z</time>
      </trkpt>
      <trkpt lat="49.58639" lon="-1.32742">
        <ele>65.1</ele>
        <time>2020-06-15T13:05:04Z</time>
      </trkpt>
      <trkpt lat="49.58636" lon="-1.32752">
        <ele>64.9</ele>
        <time>2020-06-15T13:05:05Z</time>
      </trkpt>
      <trkpt lat="49.58635" lon="-1.32761">
        <ele>64.7</ele>
        <time>2020-06-15T13:05:06Z</time>
      </trkpt>
      <trkpt lat="49.58633" lon="-1.3277">
        <ele>64.5</ele>
        <time>2020-06-15T13:05:07Z</time>
      </trkpt>
      <trkpt lat="49.58631" lon="-1.32778">
        <ele>64.2</ele>
        <time>2020-06-15T13:05:08Z</time>
      </trkpt>
      <trkpt lat="49.58628" lon="-1.32788">
        <ele>64</ele>
        <time>2020-06-15T13:05:09Z</time>
      </trkpt>
      <trkpt lat="49.58625" lon="-1.328">
        <ele>63.6</ele>
        <time>2020-06-15T13:05:10Z</time>
      </trkpt>
      <trkpt lat="49.58622" lon="-1.32811">
        <ele>63.2</ele>
        <time>2020-06-15T13:05:11Z</time>
      </trkpt>
      <trkpt lat="49.58618" lon="-1.32825">
        <ele>62.6</ele>
        <time>2020-06-15T13:05:12Z</time>
      </trkpt>
      <trkpt lat="49.58614" lon="-1.3284">
        <ele>62</ele>
        <time>2020-06-15T13:05:13Z</time>
      </trkpt>
      <trkpt lat="49.58609" lon="-1.32855">
        <ele>61.3</ele>
        <time>2020-06-15T13:05:14Z</time>
      </trkpt>
      <trkpt lat="49.58605" lon="-1.32871">
        <ele>60.5</ele>
        <time>2020-06-15T13:05:15Z</time>
      </trkpt>
      <trkpt lat="49.586" lon="-1.32886">
        <ele>59.6</ele>
        <time>2020-06-15T13:05:16Z</time>
      </trkpt>
      <trkpt lat="49.58596" lon="-1.32902">
        <ele>58.8</ele>
        <time>2020-06-15T13:05:17Z</time>
      </trkpt>
      <trkpt lat="49.58591" lon="-1.32919">
        <ele>58</ele>
        <time>2020-06-15T13:05:18Z</time>
      </trkpt>
      <trkpt lat="49.58586" lon="-1.32936">
        <ele>57</ele>
        <time>2020-06-15T13:05:19Z</time>
      </trkpt>
      <trkpt lat="49.58581" lon="-1.32953">
        <ele>56.1</ele>
        <time>2020-06-15T13:05:20Z</time>
      </trkpt>
      <trkpt lat="49.58575" lon="-1.32969">
        <ele>55.1</ele>
        <time>2020-06-15T13:05:21Z</time>
      </trkpt>
      <trkpt lat="49.5857" lon="-1.32988">
        <ele>54.2</ele>
        <time>2020-06-15T13:05:22Z</time>
      </trkpt>
      <trkpt lat="49.58565" lon="-1.33004">
        <ele>53.3</ele>
        <time>2020-06-15T13:05:23Z</time>
      </trkpt>
      <trkpt lat="49.5856" lon="-1.33021">
        <ele>52.5</ele>
        <time>2020-06-15T13:05:24Z</time>
      </trkpt>
      <trkpt lat="49.58554" lon="-1.33038">
        <ele>51.7</ele>
        <time>2020-06-15T13:05:25Z</time>
      </trkpt>
      <trkpt lat="49.58549" lon="-1.33055">
        <ele>51.1</ele>
        <time>2020-06-15T13:05:26Z</time>
      </trkpt>
      <trkpt lat="49.58544" lon="-1.33073">
        <ele>50.6</ele>
        <time>2020-06-15T13:05:27Z</time>
      </trkpt>
      <trkpt lat="49.58539" lon="-1.3309">
        <ele>50.4</ele>
        <time>2020-06-15T13:05:28Z</time>
      </trkpt>
      <trkpt lat="49.58534" lon="-1.33107">
        <ele>50.2</ele>
        <time>2020-06-15T13:05:29Z</time>
      </trkpt>
      <trkpt lat="49.5853" lon="-1.33125">
        <ele>50.1</ele>
        <time>2020-06-15T13:05:30Z</time>
      </trkpt>
      <trkpt lat="49.58526" lon="-1.33142">
        <ele>50.2</ele>
        <time>2020-06-15T13:05:31Z</time>
      </trkpt>
      <trkpt lat="49.58522" lon="-1.33157">
        <ele>50.3</ele>
        <time>2020-06-15T13:05:32Z</time>
      </trkpt>
      <trkpt lat="49.58517" lon="-1.33171">
        <ele>50.5</ele>
        <time>2020-06-15T13:05:33Z</time>
      </trkpt>
      <trkpt lat="49.58514" lon="-1.33184">
        <ele>50.8</ele>
        <time>2020-06-15T13:05:34Z</time>
      </trkpt>
      <trkpt lat="49.5851" lon="-1.33196">
        <ele>51.2</ele>
        <time>2020-06-15T13:05:35Z</time>
      </trkpt>
      <trkpt lat="49.58507" lon="-1.33207">
        <ele>51.5</ele>
        <time>2020-06-15T13:05:36Z</time>
      </trkpt>
      <trkpt lat="49.58503" lon="-1.33219">
        <ele>52</ele>
        <time>2020-06-15T13:05:37Z</time>
      </trkpt>
      <trkpt lat="49.58501" lon="-1.3323">
        <ele>52.4</ele>
        <time>2020-06-15T13:05:38Z</time>
      </trkpt>
      <trkpt lat="49.58498" lon="-1.33239">
        <ele>52.7</ele>
        <time>2020-06-15T13:05:39Z</time>
      </trkpt>
      <trkpt lat="49.58495" lon="-1.33249">
        <ele>53.1</ele>
        <time>2020-06-15T13:05:40Z</time>
      </trkpt>
      <trkpt lat="49.58493" lon="-1.33258">
        <ele>53.5</ele>
        <time>2020-06-15T13:05:41Z</time>
      </trkpt>
      <trkpt lat="49.58492" lon="-1.33266">
        <ele>53.8</ele>
        <time>2020-06-15T13:05:42Z</time>
      </trkpt>
      <trkpt lat="49.58491" lon="-1.33273">
        <ele>54.1</ele>
        <time>2020-06-15T13:05:43Z</time>
      </trkpt>
      <trkpt lat="49.5849" lon="-1.3328">
        <ele>54.4</ele>
        <time>2020-06-15T13:05:44Z</time>
      </trkpt>
      <trkpt lat="49.58487" lon="-1.33285">
        <ele>54.8</ele>
        <time>2020-06-15T13:05:45Z</time>
      </trkpt>
      <trkpt lat="49.58485" lon="-1.33291">
        <ele>55.1</ele>
        <time>2020-06-15T13:05:46Z</time>
      </trkpt>
      <trkpt lat="49.58484" lon="-1.33298">
        <ele>55.4</ele>
        <time>2020-06-15T13:05:47Z</time>
      </trkpt>
      <trkpt lat="49.58483" lon="-1.33305">
        <ele>55.8</ele>
        <time>2020-06-15T13:05:48Z</time>
      </trkpt>
      <trkpt lat="49.58483" lon="-1.33311">
        <ele>56.1</ele>
        <time>2020-06-15T13:05:49Z</time>
      </trkpt>
      <trkpt lat="49.58482" lon="-1.33314">
        <ele>56.2</ele>
        <time>2020-06-15T13:05:50Z</time>
      </trkpt>
      <trkpt lat="49.58483" lon="-1.33314">
        <ele>56.2</ele>
        <time>2020-06-15T13:05:51Z</time>
      </trkpt>
      <trkpt lat="49.58481" lon="-1.33315">
        <ele>56.4</ele>
        <time>2020-06-15T13:05:52Z</time>
      </trkpt>
      <trkpt lat="49.5848" lon="-1.33318">
        <ele>56.6</ele>
        <time>2020-06-15T13:05:53Z</time>
      </trkpt>
      <trkpt lat="49.58478" lon="-1.33323">
        <ele>56.8</ele>
        <time>2020-06-15T13:05:54Z</time>
      </trkpt>
      <trkpt lat="49.58477" lon="-1.33328">
        <ele>57.1</ele>
        <time>2020-06-15T13:05:55Z</time>
      </trkpt>
      <trkpt lat="49.58476" lon="-1.3333">
        <ele>57.1</ele>
        <time>2020-06-15T13:05:56Z</time>
      </trkpt>
      <trkpt lat="49.58475" lon="-1.33335">
        <ele>57.4</ele>
        <time>2020-06-15T13:05:57Z</time>
      </trkpt>
      <trkpt lat="49.58474" lon="-1.33337">
        <ele>57.5</ele>
        <time>2020-06-15T13:05:58Z</time>
      </trkpt>
      <trkpt lat="49.58473" lon="-1.3334">
        <ele>57.7</ele>
        <time>2020-06-15T13:05:59Z</time>
      </trkpt>
      <trkpt lat="49.58472" lon="-1.33345">
        <ele>57.9</ele>
        <time>2020-06-15T13:06:00Z</time>
      </trkpt>
      <trkpt lat="49.58471" lon="-1.3335">
        <ele>58.1</ele>
        <time>2020-06-15T13:06:01Z</time>
      </trkpt>
      <trkpt lat="49.5847" lon="-1.33355">
        <ele>58.4</ele>
        <time>2020-06-15T13:06:02Z</time>
      </trkpt>
      <trkpt lat="49.58469" lon="-1.3336">
        <ele>58.6</ele>
        <time>2020-06-15T13:06:03Z</time>
      </trkpt>
      <trkpt lat="49.58468" lon="-1.33365">
        <ele>58.9</ele>
        <time>2020-06-15T13:06:04Z</time>
      </trkpt>
      <trkpt lat="49.58468" lon="-1.33369">
        <ele>59.1</ele>
        <time>2020-06-15T13:06:05Z</time>
      </trkpt>
      <trkpt lat="49.58467" lon="-1.33376">
        <ele>59.4</ele>
        <time>2020-06-15T13:06:06Z</time>
      </trkpt>
      <trkpt lat="49.58466" lon="-1.33378">
        <ele>59.6</ele>
        <time>2020-06-15T13:06:07Z</time>
      </trkpt>
      <trkpt lat="49.58465" lon="-1.33382">
        <ele>59.8</ele>
        <time>2020-06-15T13:06:08Z</time>
      </trkpt>
      <trkpt lat="49.58464" lon="-1.33387">
        <ele>60</ele>
        <time>2020-06-15T13:06:09Z</time>
      </trkpt>
      <trkpt lat="49.58463" lon="-1.33392">
        <ele>60.2</ele>
        <time>2020-06-15T13:06:10Z</time>
      </trkpt>
      <trkpt lat="49.58462" lon="-1.33396">
        <ele>60.5</ele>
        <time>2020-06-15T13:06:11Z</time>
      </trkpt>
      <trkpt lat="49.5846" lon="-1.33401">
        <ele>60.8</ele>
        <time>2020-06-15T13:06:12Z</time>
      </trkpt>
      <trkpt lat="49.58459" lon="-1.33403">
        <ele>60.9</ele>
        <time>2020-06-15T13:06:13Z</time>
      </trkpt>
      <trkpt lat="49.58457" lon="-1.33407">
        <ele>61.1</ele>
        <time>2020-06-15T13:06:14Z</time>
      </trkpt>
      <trkpt lat="49.58455" lon="-1.33412">
        <ele>61.4</ele>
        <time>2020-06-15T13:06:15Z</time>
      </trkpt>
      <trkpt lat="49.58453" lon="-1.33416">
        <ele>61.6</ele>
        <time>2020-06-15T13:06:16Z</time>
      </trkpt>
      <trkpt lat="49.58451" lon="-1.33421">
        <ele>61.9</ele>
        <time>2020-06-15T13:06:17Z</time>
      </trkpt>
      <trkpt lat="49.58449" lon="-1.33425">
        <ele>62.1</ele>
        <time>2020-06-15T13:06:18Z</time>
      </trkpt>
      <trkpt lat="49.58447" lon="-1.3343">
        <ele>62.4</ele>
        <time>2020-06-15T13:06:19Z</time>
      </trkpt>
      <trkpt lat="49.58446" lon="-1.33435">
        <ele>62.7</ele>
        <time>2020-06-15T13:06:20Z</time>
      </trkpt>
      <trkpt lat="49.58443" lon="-1.33441">
        <ele>63</ele>
        <time>2020-06-15T13:06:21Z</time>
      </trkpt>
      <trkpt lat="49.58442" lon="-1.33448">
        <ele>63.3</ele>
        <time>2020-06-15T13:06:22Z</time>
      </trkpt>
      <trkpt lat="49.5844" lon="-1.33455">
        <ele>63.7</ele>
        <time>2020-06-15T13:06:23Z</time>
      </trkpt>
      <trkpt lat="49.5844" lon="-1.33461">
        <ele>64</ele>
        <time>2020-06-15T13:06:24Z</time>
      </trkpt>
      <trkpt lat="49.58439" lon="-1.33466">
        <ele>64.2</ele>
        <time>2020-06-15T13:06:25Z</time>
      </trkpt>
      <trkpt lat="49.58439" lon="-1.3347">
        <ele>64.4</ele>
        <time>2020-06-15T13:06:26Z</time>
      </trkpt>
      <trkpt lat="49.58438" lon="-1.33475">
        <ele>64.7</ele>
        <time>2020-06-15T13:06:27Z</time>
      </trkpt>
      <trkpt lat="49.58437" lon="-1.33479">
        <ele>64.9</ele>
        <time>2020-06-15T13:06:28Z</time>
      </trkpt>
      <trkpt lat="49.58434" lon="-1.33485">
        <ele>65.2</ele>
        <time>2020-06-15T13:06:29Z</time>
      </trkpt>
      <trkpt lat="49.58433" lon="-1.33487">
        <ele>65.4</ele>
        <time>2020-06-15T13:06:30Z</time>
      </trkpt>
      <trkpt lat="49.58431" lon="-1.33492">
        <ele>65.6</ele>
        <time>2020-06-15T13:06:31Z</time>
      </trkpt>
      <trkpt lat="49.5843" lon="-1.33496">
        <ele>65.8</ele>
        <time>2020-06-15T13:06:32Z</time>
      </trkpt>
      <trkpt lat="49.5843" lon="-1.33501">
        <ele>66</ele>
        <time>2020-06-15T13:06:33Z</time>
      </trkpt>
      <trkpt lat="49.5843" lon="-1.33506">
        <ele>66.3</ele>
        <time>2020-06-15T13:06:34Z</time>
      </trkpt>
      <trkpt lat="49.5843" lon="-1.33508">
        <ele>66.4</ele>
        <time>2020-06-15T13:06:35Z</time>
      </trkpt>
      <trkpt lat="49.58429" lon="-1.33514">
        <ele>66.7</ele>
        <time>2020-06-15T13:06:36Z</time>
      </trkpt>
      <trkpt lat="49.58429" lon="-1.33516">
        <ele>66.7</ele>
        <time>2020-06-15T13:06:37Z</time>
      </trkpt>
      <trkpt lat="49.58428" lon="-1.33521">
        <ele>67</ele>
        <time>2020-06-15T13:06:38Z</time>
      </trkpt>
      <trkpt lat="49.58427" lon="-1.33523">
        <ele>67.1</ele>
        <time>2020-06-15T13:06:39Z</time>
      </trkpt>
      <trkpt lat="49.58426" lon="-1.33529">
        <ele>67.3</ele>
        <time>2020-06-15T13:06:40Z</time>
      </trkpt>
      <trkpt lat="49.58425" lon="-1.33535">
        <ele>67.6</ele>
        <time>2020-06-15T13:06:41Z</time>
      </trkpt>
      <trkpt lat="49.58425" lon="-1.33541">
        <ele>67.9</ele>
        <time>2020-06-15T13:06:42Z</time>
      </trkpt>
      <trkpt lat="49.58424" lon="-1.33548">
        <ele>68.1</ele>
        <time>2020-06-15T13:06:43Z</time>
      </trkpt>
      <trkpt lat="49.58423" lon="-1.33552">
        <ele>68.3</ele>
        <time>2020-06-15T13:06:44Z</time>
      </trkpt>
      <trkpt lat="49.58421" lon="-1.33557">
        <ele>68.5</ele>
        <time>2020-06-15T13:06:45Z</time>
      </trkpt>
      <trkpt lat="49.5842" lon="-1.33561">
        <ele>68.7</ele>
        <time>2020-06-15T13:06:46Z</time>
      </trkpt>
      <trkpt lat="49.58419" lon="-1.33567">
        <ele>68.9</ele>
        <time>2020-06-15T13:06:47Z</time>
      </trkpt>
      <trkpt lat="49.58418" lon="-1.33572">
        <ele>69.1</ele>
        <time>2020-06-15T13:06:48Z</time>
      </trkpt>
      <trkpt lat="49.58417" lon="-1.33576">
        <ele>69.3</ele>
        <time>2020-06-15T13:06:49Z</time>
      </trkpt>
      <trkpt lat="49.58416" lon="-1.33581">
        <ele>69.5</ele>
        <time>2020-06-15T13:06:50Z</time>
      </trkpt>
      <trkpt lat="49.58413" lon="-1.33585">
        <ele>69.7</ele>
        <time>2020-06-15T13:06:51Z</time>
      </trkpt>
      <trkpt lat="49.58411" lon="-1.33589">
        <ele>69.9</ele>
        <time>2020-06-15T13:06:52Z</time>
      </trkpt>
      <trkpt lat="49.5841" lon="-1.33595">
        <ele>70.1</ele>
        <time>2020-06-15T13:06:53Z</time>
      </trkpt>
      <trkpt lat="49.5841" lon="-1.336">
        <ele>70.3</ele>
        <time>2020-06-15T13:06:54Z</time>
      </trkpt>
      <trkpt lat="49.58409" lon="-1.33604">
        <ele>70.5</ele>
        <time>2020-06-15T13:06:55Z</time>
      </trkpt>
      <trkpt lat="49.58407" lon="-1.3361">
        <ele>70.8</ele>
        <time>2020-06-15T13:06:56Z</time>
      </trkpt>
      <trkpt lat="49.58406" lon="-1.33613">
        <ele>70.9</ele>
        <time>2020-06-15T13:06:57Z</time>
      </trkpt>
      <trkpt lat="49.58404" lon="-1.33618">
        <ele>71.1</ele>
        <time>2020-06-15T13:06:58Z</time>
      </trkpt>
      <trkpt lat="49.58403" lon="-1.33624">
        <ele>71.4</ele>
        <time>2020-06-15T13:06:59Z</time>
      </trkpt>
      <trkpt lat="49.58402" lon="-1.3363">
        <ele>71.6</ele>
        <time>2020-06-15T13:07:00Z</time>
      </trkpt>
      <trkpt lat="49.58401" lon="-1.33635">
        <ele>71.8</ele>
        <time>2020-06-15T13:07:01Z</time>
      </trkpt>
      <trkpt lat="49.584" lon="-1.33641">
        <ele>72.1</ele>
        <time>2020-06-15T13:07:02Z</time>
      </trkpt>
      <trkpt lat="49.584" lon="-1.33647">
        <ele>72.3</ele>
        <time>2020-06-15T13:07:03Z</time>
      </trkpt>
      <trkpt lat="49.58398" lon="-1.33655">
        <ele>72.6</ele>
        <time>2020-06-15T13:07:04Z</time>
      </trkpt>
      <trkpt lat="49.58397" lon="-1.33661">
        <ele>72.9</ele>
        <time>2020-06-15T13:07:05Z</time>
      </trkpt>
      <trkpt lat="49.58394" lon="-1.33668">
        <ele>73.1</ele>
        <time>2020-06-15T13:07:06Z</time>
      </trkpt>
      <trkpt lat="49.58394" lon="-1.33675">
        <ele>73.4</ele>
        <time>2020-06-15T13:07:07Z</time>
      </trkpt>
      <trkpt lat="49.58392" lon="-1.3368">
        <ele>73.6</ele>
        <time>2020-06-15T13:07:08Z</time>
      </trkpt>
      <trkpt lat="49.58392" lon="-1.33686">
        <ele>73.8</ele>
        <time>2020-06-15T13:07:09Z</time>
      </trkpt>
      <trkpt lat="49.58391" lon="-1.33688">
        <ele>73.9</ele>
        <time>2020-06-15T13:07:10Z</time>
      </trkpt>
      <trkpt lat="49.5839" lon="-1.33693">
        <ele>74.1</ele>
        <time>2020-06-15T13:07:11Z</time>
      </trkpt>
      <trkpt lat="49.58388" lon="-1.33698">
        <ele>74.3</ele>
        <time>2020-06-15T13:07:12Z</time>
      </trkpt>
      <trkpt lat="49.58386" lon="-1.33703">
        <ele>74.5</ele>
        <time>2020-06-15T13:07:13Z</time>
      </trkpt>
      <trkpt lat="49.58383" lon="-1.33708">
        <ele>74.7</ele>
        <time>2020-06-15T13:07:14Z</time>
      </trkpt>
      <trkpt lat="49.58381" lon="-1.33712">
        <ele>74.9</ele>
        <time>2020-06-15T13:07:15Z</time>
      </trkpt>
      <trkpt lat="49.58379" lon="-1.33717">
        <ele>75.1</ele>
        <time>2020-06-15T13:07:16Z</time>
      </trkpt>
      <trkpt lat="49.58377" lon="-1.33722">
        <ele>75.3</ele>
        <time>2020-06-15T13:07:17Z</time>
      </trkpt>
      <trkpt lat="49.58376" lon="-1.33728">
        <ele>75.5</ele>
        <time>2020-06-15T13:07:18Z</time>
      </trkpt>
      <trkpt lat="49.58374" lon="-1.33733">
        <ele>75.6</ele>
        <time>2020-06-15T13:07:19Z</time>
      </trkpt>
      <trkpt lat="49.58372" lon="-1.33736">
        <ele>75.7</ele>
        <time>2020-06-15T13:07:20Z</time>
      </trkpt>
      <trkpt lat="49.5837" lon="-1.3374">
        <ele>75.9</ele>
        <time>2020-06-15T13:07:21Z</time>
      </trkpt>
      <trkpt lat="49.58369" lon="-1.33744">
        <ele>76</ele>
        <time>2020-06-15T13:07:22Z</time>
      </trkpt>
      <trkpt lat="49.58367" lon="-1.33749">
        <ele>76.2</ele>
        <time>2020-06-15T13:07:23Z</time>
      </trkpt>
      <trkpt lat="49.58366" lon="-1.33753">
        <ele>76.3</ele>
        <time>2020-06-15T13:07:24Z</time>
      </trkpt>
      <trkpt lat="49.58364" lon="-1.33757">
        <ele>76.4</ele>
        <time>2020-06-15T13:07:25Z</time>
      </trkpt>
      <trkpt lat="49.58363" lon="-1.33761">
        <ele>76.5</ele>
        <time>2020-06-15T13:07:26Z</time>
      </trkpt>
      <trkpt lat="49.58361" lon="-1.33765">
        <ele>76.6</ele>
        <time>2020-06-15T13:07:27Z</time>
      </trkpt>
      <trkpt lat="49.5836" lon="-1.3377">
        <ele>76.7</ele>
        <time>2020-06-15T13:07:28Z</time>
      </trkpt>
      <trkpt lat="49.58359" lon="-1.33772">
        <ele>76.8</ele>
        <time>2020-06-15T13:07:29Z</time>
      </trkpt>
      <trkpt lat="49.58358" lon="-1.33777">
        <ele>76.9</ele>
        <time>2020-06-15T13:07:30Z</time>
      </trkpt>
      <trkpt lat="49.58357" lon="-1.33781">
        <ele>77</ele>
        <time>2020-06-15T13:07:31Z</time>
      </trkpt>
      <trkpt lat="49.58357" lon="-1.33783">
        <ele>77</ele>
        <time>2020-06-15T13:07:32Z</time>
      </trkpt>
      <trkpt lat="49.58355" lon="-1.33785">
        <ele>77</ele>
        <time>2020-06-15T13:07:33Z</time>
      </trkpt>
      <trkpt lat="49.58355" lon="-1.33786">
        <ele>77</ele>
        <time>2020-06-15T13:07:34Z</time>
      </trkpt>
      <trkpt lat="49.58355" lon="-1.33786">
        <ele>77</ele>
        <time>2020-06-15T13:07:35Z</time>
      </trkpt>
      <trkpt lat="49.58355" lon="-1.33786">
        <ele>77</ele>
        <time>2020-06-15T13:07:36Z</time>
      </trkpt>
      <trkpt lat="49.58355" lon="-1.33786">
        <ele>77.1</ele>
        <time>2020-06-15T13:07:37Z</time>
      </trkpt>
      <trkpt lat="49.58355" lon="-1.33786">
        <ele>77.1</ele>
        <time>2020-06-15T13:07:38Z</time>
      </trkpt>
      <trkpt lat="49.58355" lon="-1.33786">
        <ele>77.1</ele>
        <time>2020-06-15T13:07:39Z</time>
      </trkpt>
      <trkpt lat="49.58353" lon="-1.33783">
        <ele>77.1</ele>
        <time>2020-06-15T13:07:40Z</time>
      </trkpt>
      <trkpt lat="49.58351" lon="-1.33788">
        <ele>77.2</ele>
        <time>2020-06-15T13:07:41Z</time>
      </trkpt>
      <trkpt lat="49.58348" lon="-1.33793">
        <ele>77.3</ele>
        <time>2020-06-15T13:07:42Z</time>
      </trkpt>
      <trkpt lat="49.58346" lon="-1.33797">
        <ele>77.3</ele>
        <time>2020-06-15T13:07:43Z</time>
      </trkpt>
      <trkpt lat="49.58343" lon="-1.33801">
        <ele>77.3</ele>
        <time>2020-06-15T13:08:23Z</time>
      </trkpt>
      <trkpt lat="49.58341" lon="-1.33806">
        <ele>77.4</ele>
        <time>2020-06-15T13:08:24Z</time>
      </trkpt>
      <trkpt lat="49.58338" lon="-1.33812">
        <ele>77.4</ele>
        <time>2020-06-15T13:08:25Z</time>
      </trkpt>
      <trkpt lat="49.58335" lon="-1.3382">
        <ele>77.4</ele>
        <time>2020-06-15T13:08:26Z</time>
      </trkpt>
      <trkpt lat="49.58333" lon="-1.33829">
        <ele>77.4</ele>
        <time>2020-06-15T13:08:27Z</time>
      </trkpt>
      <trkpt lat="49.5833" lon="-1.33837">
        <ele>77.4</ele>
        <time>2020-06-15T13:08:28Z</time>
      </trkpt>
      <trkpt lat="49.58327" lon="-1.33844">
        <ele>77.4</ele>
        <time>2020-06-15T13:08:29Z</time>
      </trkpt>
      <trkpt lat="49.58325" lon="-1.33852">
        <ele>77.4</ele>
        <time>2020-06-15T13:08:30Z</time>
      </trkpt>
      <trkpt lat="49.58322" lon="-1.33861">
        <ele>77.4</ele>
        <time>2020-06-15T13:08:31Z</time>
      </trkpt>
      <trkpt lat="49.5832" lon="-1.33869">
        <ele>77.4</ele>
        <time>2020-06-15T13:08:32Z</time>
      </trkpt>
      <trkpt lat="49.58317" lon="-1.33878">
        <ele>77.5</ele>
        <time>2020-06-15T13:08:33Z</time>
      </trkpt>
      <trkpt lat="49.58314" lon="-1.33886">
        <ele>77.5</ele>
        <time>2020-06-15T13:08:34Z</time>
      </trkpt>
      <trkpt lat="49.58312" lon="-1.33893">
        <ele>77.5</ele>
        <time>2020-06-15T13:08:35Z</time>
      </trkpt>
      <trkpt lat="49.58309" lon="-1.339">
        <ele>77.6</ele>
        <time>2020-06-15T13:08:36Z</time>
      </trkpt>
      <trkpt lat="49.58307" lon="-1.33907">
        <ele>77.6</ele>
        <time>2020-06-15T13:08:37Z</time>
      </trkpt>
      <trkpt lat="49.58305" lon="-1.33914">
        <ele>77.7</ele>
        <time>2020-06-15T13:08:38Z</time>
      </trkpt>
      <trkpt lat="49.58304" lon="-1.33921">
        <ele>77.7</ele>
        <time>2020-06-15T13:08:39Z</time>
      </trkpt>
      <trkpt lat="49.58302" lon="-1.3393">
        <ele>77.8</ele>
        <time>2020-06-15T13:08:40Z</time>
      </trkpt>
      <trkpt lat="49.58299" lon="-1.33937">
        <ele>77.9</ele>
        <time>2020-06-15T13:08:41Z</time>
      </trkpt>
      <trkpt lat="49.58297" lon="-1.33944">
        <ele>77.9</ele>
        <time>2020-06-15T13:08:42Z</time>
      </trkpt>
      <trkpt lat="49.58295" lon="-1.33952">
        <ele>78</ele>
        <time>2020-06-15T13:08:43Z</time>
      </trkpt>
      <trkpt lat="49.58293" lon="-1.3396">
        <ele>77.8</ele>
        <time>2020-06-15T13:08:44Z</time>
      </trkpt>
      <trkpt lat="49.5829" lon="-1.33968">
        <ele>77.7</ele>
        <time>2020-06-15T13:08:45Z</time>
      </trkpt>
      <trkpt lat="49.58288" lon="-1.33976">
        <ele>77.7</ele>
        <time>2020-06-15T13:08:46Z</time>
      </trkpt>
      <trkpt lat="49.58286" lon="-1.33985">
        <ele>77.6</ele>
        <time>2020-06-15T13:08:47Z</time>
      </trkpt>
      <trkpt lat="49.58284" lon="-1.33993">
        <ele>77.6</ele>
        <time>2020-06-15T13:08:48Z</time>
      </trkpt>
      <trkpt lat="49.58282" lon="-1.34">
        <ele>77.6</ele>
        <time>2020-06-15T13:08:49Z</time>
      </trkpt>
      <trkpt lat="49.58279" lon="-1.34007">
        <ele>77.5</ele>
        <time>2020-06-15T13:08:50Z</time>
      </trkpt>
      <trkpt lat="49.58277" lon="-1.34014">
        <ele>77.5</ele>
        <time>2020-06-15T13:08:51Z</time>
      </trkpt>
      <trkpt lat="49.58276" lon="-1.34023">
        <ele>77.5</ele>
        <time>2020-06-15T13:08:52Z</time>
      </trkpt>
      <trkpt lat="49.58273" lon="-1.34032">
        <ele>77.5</ele>
        <time>2020-06-15T13:08:53Z</time>
      </trkpt>
      <trkpt lat="49.58271" lon="-1.34038">
        <ele>77.5</ele>
        <time>2020-06-15T13:08:54Z</time>
      </trkpt>
      <trkpt lat="49.58267" lon="-1.34044">
        <ele>77.5</ele>
        <time>2020-06-15T13:08:55Z</time>
      </trkpt>
      <trkpt lat="49.58265" lon="-1.34052">
        <ele>77.5</ele>
        <time>2020-06-15T13:08:56Z</time>
      </trkpt>
      <trkpt lat="49.58263" lon="-1.3406">
        <ele>77.5</ele>
        <time>2020-06-15T13:08:57Z</time>
      </trkpt>
      <trkpt lat="49.5826" lon="-1.34069">
        <ele>77.5</ele>
        <time>2020-06-15T13:08:58Z</time>
      </trkpt>
      <trkpt lat="49.58257" lon="-1.34075">
        <ele>77.6</ele>
        <time>2020-06-15T13:08:59Z</time>
      </trkpt>
      <trkpt lat="49.58254" lon="-1.34084">
        <ele>77.6</ele>
        <time>2020-06-15T13:09:00Z</time>
      </trkpt>
      <trkpt lat="49.58252" lon="-1.34091">
        <ele>77.6</ele>
        <time>2020-06-15T13:09:01Z</time>
      </trkpt>
      <trkpt lat="49.58248" lon="-1.34099">
        <ele>77.5</ele>
        <time>2020-06-15T13:09:02Z</time>
      </trkpt>
      <trkpt lat="49.58246" lon="-1.34109">
        <ele>77.5</ele>
        <time>2020-06-15T13:09:03Z</time>
      </trkpt>
      <trkpt lat="49.58244" lon="-1.34117">
        <ele>77.5</ele>
        <time>2020-06-15T13:09:04Z</time>
      </trkpt>
      <trkpt lat="49.58242" lon="-1.34127">
        <ele>77.5</ele>
        <time>2020-06-15T13:09:05Z</time>
      </trkpt>
      <trkpt lat="49.5824" lon="-1.34136">
        <ele>77.5</ele>
        <time>2020-06-15T13:09:06Z</time>
      </trkpt>
      <trkpt lat="49.58236" lon="-1.34144">
        <ele>77.5</ele>
        <time>2020-06-15T13:09:07Z</time>
      </trkpt>
      <trkpt lat="49.58234" lon="-1.34153">
        <ele>77.5</ele>
        <time>2020-06-15T13:09:08Z</time>
      </trkpt>
      <trkpt lat="49.5823" lon="-1.3416">
        <ele>77.6</ele>
        <time>2020-06-15T13:09:09Z</time>
      </trkpt>
      <trkpt lat="49.58228" lon="-1.34168">
        <ele>77.6</ele>
        <time>2020-06-15T13:09:10Z</time>
      </trkpt>
      <trkpt lat="49.58226" lon="-1.34177">
        <ele>77.6</ele>
        <time>2020-06-15T13:09:11Z</time>
      </trkpt>
      <trkpt lat="49.58223" lon="-1.34185">
        <ele>77.7</ele>
        <time>2020-06-15T13:09:12Z</time>
      </trkpt>
      <trkpt lat="49.58221" lon="-1.34195">
        <ele>77.7</ele>
        <time>2020-06-15T13:09:13Z</time>
      </trkpt>
      <trkpt lat="49.58219" lon="-1.34203">
        <ele>77.8</ele>
        <time>2020-06-15T13:09:14Z</time>
      </trkpt>
      <trkpt lat="49.58217" lon="-1.34213">
        <ele>77.9</ele>
        <time>2020-06-15T13:09:15Z</time>
      </trkpt>
      <trkpt lat="49.58215" lon="-1.34224">
        <ele>77.9</ele>
        <time>2020-06-15T13:09:16Z</time>
      </trkpt>
      <trkpt lat="49.58211" lon="-1.3423">
        <ele>78</ele>
        <time>2020-06-15T13:09:17Z</time>
      </trkpt>
      <trkpt lat="49.58209" lon="-1.34241">
        <ele>78.1</ele>
        <time>2020-06-15T13:09:18Z</time>
      </trkpt>
      <trkpt lat="49.58205" lon="-1.34248">
        <ele>78.2</ele>
        <time>2020-06-15T13:09:19Z</time>
      </trkpt>
      <trkpt lat="49.58204" lon="-1.34259">
        <ele>78.3</ele>
        <time>2020-06-15T13:09:20Z</time>
      </trkpt>
      <trkpt lat="49.58202" lon="-1.34267">
        <ele>78.4</ele>
        <time>2020-06-15T13:09:21Z</time>
      </trkpt>
      <trkpt lat="49.582" lon="-1.34275">
        <ele>78.5</ele>
        <time>2020-06-15T13:09:22Z</time>
      </trkpt>
      <trkpt lat="49.58198" lon="-1.34284">
        <ele>78.6</ele>
        <time>2020-06-15T13:09:23Z</time>
      </trkpt>
      <trkpt lat="49.58195" lon="-1.34294">
        <ele>78.7</ele>
        <time>2020-06-15T13:09:24Z</time>
      </trkpt>
      <trkpt lat="49.58193" lon="-1.34303">
        <ele>78.8</ele>
        <time>2020-06-15T13:09:25Z</time>
      </trkpt>
      <trkpt lat="49.58191" lon="-1.34312">
        <ele>78.9</ele>
        <time>2020-06-15T13:09:26Z</time>
      </trkpt>
      <trkpt lat="49.58189" lon="-1.34321">
        <ele>79</ele>
        <time>2020-06-15T13:09:27Z</time>
      </trkpt>
      <trkpt lat="49.58186" lon="-1.34329">
        <ele>79.2</ele>
        <time>2020-06-15T13:09:28Z</time>
      </trkpt>
      <trkpt lat="49.58184" lon="-1.34337">
        <ele>79.3</ele>
        <time>2020-06-15T13:09:29Z</time>
      </trkpt>
      <trkpt lat="49.58182" lon="-1.34346">
        <ele>79.4</ele>
        <time>2020-06-15T13:09:30Z</time>
      </trkpt>
      <trkpt lat="49.58181" lon="-1.34353">
        <ele>79.6</ele>
        <time>2020-06-15T13:09:31Z</time>
      </trkpt>
      <trkpt lat="49.58178" lon="-1.34361">
        <ele>79.7</ele>
        <time>2020-06-15T13:09:32Z</time>
      </trkpt>
      <trkpt lat="49.58177" lon="-1.34368">
        <ele>79.8</ele>
        <time>2020-06-15T13:09:33Z</time>
      </trkpt>
      <trkpt lat="49.58175" lon="-1.34377">
        <ele>80</ele>
        <time>2020-06-15T13:09:34Z</time>
      </trkpt>
      <trkpt lat="49.58173" lon="-1.34387">
        <ele>80.1</ele>
        <time>2020-06-15T13:09:35Z</time>
      </trkpt>
      <trkpt lat="49.58172" lon="-1.34396">
        <ele>80.3</ele>
        <time>2020-06-15T13:09:36Z</time>
      </trkpt>
      <trkpt lat="49.5817" lon="-1.34405">
        <ele>80.5</ele>
        <time>2020-06-15T13:09:37Z</time>
      </trkpt>
      <trkpt lat="49.58168" lon="-1.34413">
        <ele>80.7</ele>
        <time>2020-06-15T13:09:38Z</time>
      </trkpt>
      <trkpt lat="49.58165" lon="-1.34421">
        <ele>81</ele>
        <time>2020-06-15T13:09:39Z</time>
      </trkpt>
      <trkpt lat="49.58163" lon="-1.34429">
        <ele>81.3</ele>
        <time>2020-06-15T13:09:40Z</time>
      </trkpt>
      <trkpt lat="49.58161" lon="-1.34437">
        <ele>81.5</ele>
        <time>2020-06-15T13:09:41Z</time>
      </trkpt>
      <trkpt lat="49.58159" lon="-1.34444">
        <ele>81.8</ele>
        <time>2020-06-15T13:09:42Z</time>
      </trkpt>
      <trkpt lat="49.58157" lon="-1.34452">
        <ele>82</ele>
        <time>2020-06-15T13:09:43Z</time>
      </trkpt>
      <trkpt lat="49.58154" lon="-1.3446">
        <ele>82.1</ele>
        <time>2020-06-15T13:09:44Z</time>
      </trkpt>
      <trkpt lat="49.58153" lon="-1.34467">
        <ele>82.1</ele>
        <time>2020-06-15T13:09:45Z</time>
      </trkpt>
      <trkpt lat="49.58151" lon="-1.34475">
        <ele>82.1</ele>
        <time>2020-06-15T13:09:46Z</time>
      </trkpt>
      <trkpt lat="49.58148" lon="-1.34481">
        <ele>82.1</ele>
        <time>2020-06-15T13:09:47Z</time>
      </trkpt>
      <trkpt lat="49.58145" lon="-1.34487">
        <ele>82.2</ele>
        <time>2020-06-15T13:09:48Z</time>
      </trkpt>
      <trkpt lat="49.58143" lon="-1.34495">
        <ele>82.3</ele>
        <time>2020-06-15T13:09:49Z</time>
      </trkpt>
      <trkpt lat="49.58141" lon="-1.34503">
        <ele>82.4</ele>
        <time>2020-06-15T13:09:50Z</time>
      </trkpt>
      <trkpt lat="49.58138" lon="-1.34511">
        <ele>82.5</ele>
        <time>2020-06-15T13:09:51Z</time>
      </trkpt>
      <trkpt lat="49.58136" lon="-1.34519">
        <ele>82.7</ele>
        <time>2020-06-15T13:09:52Z</time>
      </trkpt>
      <trkpt lat="49.58134" lon="-1.34526">
        <ele>82.8</ele>
        <time>2020-06-15T13:09:53Z</time>
      </trkpt>
      <trkpt lat="49.58131" lon="-1.34532">
        <ele>83</ele>
        <time>2020-06-15T13:09:54Z</time>
      </trkpt>
      <trkpt lat="49.58129" lon="-1.3454">
        <ele>83.1</ele>
        <time>2020-06-15T13:09:55Z</time>
      </trkpt>
      <trkpt lat="49.58128" lon="-1.34548">
        <ele>83.3</ele>
        <time>2020-06-15T13:09:56Z</time>
      </trkpt>
      <trkpt lat="49.58126" lon="-1.34556">
        <ele>83.4</ele>
        <time>2020-06-15T13:09:57Z</time>
      </trkpt>
      <trkpt lat="49.58124" lon="-1.34563">
        <ele>83.6</ele>
        <time>2020-06-15T13:09:58Z</time>
      </trkpt>
      <trkpt lat="49.58121" lon="-1.34572">
        <ele>83.8</ele>
        <time>2020-06-15T13:09:59Z</time>
      </trkpt>
      <trkpt lat="49.58119" lon="-1.3458">
        <ele>84</ele>
        <time>2020-06-15T13:10:00Z</time>
      </trkpt>
      <trkpt lat="49.58118" lon="-1.34588">
        <ele>84.1</ele>
        <time>2020-06-15T13:10:01Z</time>
      </trkpt>
      <trkpt lat="49.58116" lon="-1.34595">
        <ele>84.3</ele>
        <time>2020-06-15T13:10:02Z</time>
      </trkpt>
      <trkpt lat="49.58114" lon="-1.34603">
        <ele>84.4</ele>
        <time>2020-06-15T13:10:03Z</time>
      </trkpt>
      <trkpt lat="49.58111" lon="-1.3461">
        <ele>84.6</ele>
        <time>2020-06-15T13:10:04Z</time>
      </trkpt>
      <trkpt lat="49.58109" lon="-1.34616">
        <ele>84.8</ele>
        <time>2020-06-15T13:10:05Z</time>
      </trkpt>
      <trkpt lat="49.58106" lon="-1.34623">
        <ele>85</ele>
        <time>2020-06-15T13:10:06Z</time>
      </trkpt>
      <trkpt lat="49.58105" lon="-1.34629">
        <ele>85.1</ele>
        <time>2020-06-15T13:10:07Z</time>
      </trkpt>
      <trkpt lat="49.58103" lon="-1.34635">
        <ele>85.4</ele>
        <time>2020-06-15T13:10:08Z</time>
      </trkpt>
      <trkpt lat="49.58101" lon="-1.34642">
        <ele>85.6</ele>
        <time>2020-06-15T13:10:09Z</time>
      </trkpt>
      <trkpt lat="49.58098" lon="-1.34648">
        <ele>85.8</ele>
        <time>2020-06-15T13:10:10Z</time>
      </trkpt>
      <trkpt lat="49.58096" lon="-1.34655">
        <ele>86.1</ele>
        <time>2020-06-15T13:10:11Z</time>
      </trkpt>
      <trkpt lat="49.58095" lon="-1.34661">
        <ele>86.3</ele>
        <time>2020-06-15T13:10:12Z</time>
      </trkpt>
      <trkpt lat="49.58093" lon="-1.34667">
        <ele>86.6</ele>
        <time>2020-06-15T13:10:13Z</time>
      </trkpt>
      <trkpt lat="49.58091" lon="-1.34674">
        <ele>86.9</ele>
        <time>2020-06-15T13:10:14Z</time>
      </trkpt>
      <trkpt lat="49.58088" lon="-1.3468">
        <ele>87.3</ele>
        <time>2020-06-15T13:10:15Z</time>
      </trkpt>
      <trkpt lat="49.58086" lon="-1.34686">
        <ele>87.4</ele>
        <time>2020-06-15T13:10:16Z</time>
      </trkpt>
      <trkpt lat="49.58085" lon="-1.34692">
        <ele>87.6</ele>
        <time>2020-06-15T13:10:17Z</time>
      </trkpt>
      <trkpt lat="49.58083" lon="-1.34698">
        <ele>87.7</ele>
        <time>2020-06-15T13:10:18Z</time>
      </trkpt>
      <trkpt lat="49.58081" lon="-1.34704">
        <ele>87.9</ele>
        <time>2020-06-15T13:10:19Z</time>
      </trkpt>
      <trkpt lat="49.58078" lon="-1.3471">
        <ele>88.1</ele>
        <time>2020-06-15T13:10:20Z</time>
      </trkpt>
      <trkpt lat="49.58076" lon="-1.34716">
        <ele>88.4</ele>
        <time>2020-06-15T13:10:21Z</time>
      </trkpt>
      <trkpt lat="49.58073" lon="-1.34722">
        <ele>88.6</ele>
        <time>2020-06-15T13:10:22Z</time>
      </trkpt>
      <trkpt lat="49.58071" lon="-1.34728">
        <ele>88.8</ele>
        <time>2020-06-15T13:10:23Z</time>
      </trkpt>
      <trkpt lat="49.5807" lon="-1.34734">
        <ele>89</ele>
        <time>2020-06-15T13:10:24Z</time>
      </trkpt>
      <trkpt lat="49.58069" lon="-1.34741">
        <ele>89.3</ele>
        <time>2020-06-15T13:10:25Z</time>
      </trkpt>
      <trkpt lat="49.58067" lon="-1.34747">
        <ele>89.5</ele>
        <time>2020-06-15T13:10:26Z</time>
      </trkpt>
      <trkpt lat="49.58067" lon="-1.34754">
        <ele>89.7</ele>
        <time>2020-06-15T13:10:27Z</time>
      </trkpt>
      <trkpt lat="49.58066" lon="-1.3476">
        <ele>89.9</ele>
        <time>2020-06-15T13:10:28Z</time>
      </trkpt>
      <trkpt lat="49.58065" lon="-1.34767">
        <ele>90.1</ele>
        <time>2020-06-15T13:10:29Z</time>
      </trkpt>
      <trkpt lat="49.58062" lon="-1.34775">
        <ele>90.3</ele>
        <time>2020-06-15T13:10:30Z</time>
      </trkpt>
      <trkpt lat="49.5806" lon="-1.34782">
        <ele>90.6</ele>
        <time>2020-06-15T13:10:31Z</time>
      </trkpt>
      <trkpt lat="49.58059" lon="-1.3479">
        <ele>90.8</ele>
        <time>2020-06-15T13:10:32Z</time>
      </trkpt>
      <trkpt lat="49.58057" lon="-1.34796">
        <ele>91</ele>
        <time>2020-06-15T13:10:33Z</time>
      </trkpt>
      <trkpt lat="49.58055" lon="-1.34803">
        <ele>91.2</ele>
        <time>2020-06-15T13:10:34Z</time>
      </trkpt>
      <trkpt lat="49.58054" lon="-1.34809">
        <ele>91.3</ele>
        <time>2020-06-15T13:10:35Z</time>
      </trkpt>
      <trkpt lat="49.58052" lon="-1.34817">
        <ele>91.5</ele>
        <time>2020-06-15T13:10:36Z</time>
      </trkpt>
      <trkpt lat="49.5805" lon="-1.34825">
        <ele>91.7</ele>
        <time>2020-06-15T13:10:37Z</time>
      </trkpt>
      <trkpt lat="49.58047" lon="-1.34831">
        <ele>91.9</ele>
        <time>2020-06-15T13:10:38Z</time>
      </trkpt>
      <trkpt lat="49.58043" lon="-1.34836">
        <ele>92</ele>
        <time>2020-06-15T13:10:39Z</time>
      </trkpt>
      <trkpt lat="49.5804" lon="-1.34842">
        <ele>92.1</ele>
        <time>2020-06-15T13:10:40Z</time>
      </trkpt>
      <trkpt lat="49.58038" lon="-1.34849">
        <ele>92.2</ele>
        <time>2020-06-15T13:10:41Z</time>
      </trkpt>
      <trkpt lat="49.58036" lon="-1.34854">
        <ele>92.4</ele>
        <time>2020-06-15T13:10:42Z</time>
      </trkpt>
      <trkpt lat="49.58032" lon="-1.34861">
        <ele>92.5</ele>
        <time>2020-06-15T13:10:43Z</time>
      </trkpt>
      <trkpt lat="49.5803" lon="-1.34868">
        <ele>92.6</ele>
        <time>2020-06-15T13:10:44Z</time>
      </trkpt>
      <trkpt lat="49.58028" lon="-1.34876">
        <ele>92.7</ele>
        <time>2020-06-15T13:10:45Z</time>
      </trkpt>
      <trkpt lat="49.58026" lon="-1.34882">
        <ele>92.8</ele>
        <time>2020-06-15T13:10:46Z</time>
      </trkpt>
      <trkpt lat="49.58024" lon="-1.3489">
        <ele>92.9</ele>
        <time>2020-06-15T13:10:47Z</time>
      </trkpt>
      <trkpt lat="49.58023" lon="-1.34898">
        <ele>93</ele>
        <time>2020-06-15T13:10:48Z</time>
      </trkpt>
      <trkpt lat="49.58021" lon="-1.34905">
        <ele>93.1</ele>
        <time>2020-06-15T13:10:49Z</time>
      </trkpt>
      <trkpt lat="49.58019" lon="-1.34914">
        <ele>93.3</ele>
        <time>2020-06-15T13:10:50Z</time>
      </trkpt>
      <trkpt lat="49.58017" lon="-1.34922">
        <ele>93.4</ele>
        <time>2020-06-15T13:10:51Z</time>
      </trkpt>
      <trkpt lat="49.58015" lon="-1.34928">
        <ele>93.5</ele>
        <time>2020-06-15T13:10:52Z</time>
      </trkpt>
      <trkpt lat="49.58013" lon="-1.34936">
        <ele>93.6</ele>
        <time>2020-06-15T13:10:53Z</time>
      </trkpt>
      <trkpt lat="49.58012" lon="-1.34944">
        <ele>93.7</ele>
        <time>2020-06-15T13:10:54Z</time>
      </trkpt>
      <trkpt lat="49.58011" lon="-1.34951">
        <ele>93.8</ele>
        <time>2020-06-15T13:10:55Z</time>
      </trkpt>
      <trkpt lat="49.58008" lon="-1.34958">
        <ele>93.9</ele>
        <time>2020-06-15T13:10:56Z</time>
      </trkpt>
      <trkpt lat="49.58006" lon="-1.34966">
        <ele>93.9</ele>
        <time>2020-06-15T13:10:57Z</time>
      </trkpt>
      <trkpt lat="49.58004" lon="-1.34973">
        <ele>94</ele>
        <time>2020-06-15T13:10:58Z</time>
      </trkpt>
      <trkpt lat="49.58002" lon="-1.3498">
        <ele>94.1</ele>
        <time>2020-06-15T13:10:59Z</time>
      </trkpt>
      <trkpt lat="49.58001" lon="-1.34988">
        <ele>94.2</ele>
        <time>2020-06-15T13:11:00Z</time>
      </trkpt>
      <trkpt lat="49.58" lon="-1.34996">
        <ele>94.4</ele>
        <time>2020-06-15T13:11:01Z</time>
      </trkpt>
      <trkpt lat="49.57998" lon="-1.35003">
        <ele>94.5</ele>
        <time>2020-06-15T13:11:02Z</time>
      </trkpt>
      <trkpt lat="49.57997" lon="-1.35011">
        <ele>94.5</ele>
        <time>2020-06-15T13:11:03Z</time>
      </trkpt>
      <trkpt lat="49.57995" lon="-1.35018">
        <ele>94.6</ele>
        <time>2020-06-15T13:11:04Z</time>
      </trkpt>
      <trkpt lat="49.57993" lon="-1.35026">
        <ele>94.7</ele>
        <time>2020-06-15T13:11:05Z</time>
      </trkpt>
      <trkpt lat="49.57992" lon="-1.35033">
        <ele>94.8</ele>
        <time>2020-06-15T13:11:06Z</time>
      </trkpt>
      <trkpt lat="49.5799" lon="-1.3504">
        <ele>94.9</ele>
        <time>2020-06-15T13:11:07Z</time>
      </trkpt>
      <trkpt lat="49.57988" lon="-1.35046">
        <ele>95</ele>
        <time>2020-06-15T13:11:08Z</time>
      </trkpt>
      <trkpt lat="49.57986" lon="-1.35052">
        <ele>95.1</ele>
        <time>2020-06-15T13:11:09Z</time>
      </trkpt>
      <trkpt lat="49.57984" lon="-1.3506">
        <ele>95.3</ele>
        <time>2020-06-15T13:11:10Z</time>
      </trkpt>
      <trkpt lat="49.5798" lon="-1.35065">
        <ele>95.5</ele>
        <time>2020-06-15T13:11:11Z</time>
      </trkpt>
      <trkpt lat="49.57979" lon="-1.3507">
        <ele>95.6</ele>
        <time>2020-06-15T13:11:12Z</time>
      </trkpt>
      <trkpt lat="49.57978" lon="-1.35076">
        <ele>95.8</ele>
        <time>2020-06-15T13:11:13Z</time>
      </trkpt>
      <trkpt lat="49.57978" lon="-1.35081">
        <ele>95.9</ele>
        <time>2020-06-15T13:11:14Z</time>
      </trkpt>
      <trkpt lat="49.57977" lon="-1.35086">
        <ele>96</ele>
        <time>2020-06-15T13:11:15Z</time>
      </trkpt>
      <trkpt lat="49.57976" lon="-1.35088">
        <ele>96.1</ele>
        <time>2020-06-15T13:11:16Z</time>
      </trkpt>
      <trkpt lat="49.57976" lon="-1.3509">
        <ele>96.1</ele>
        <time>2020-06-15T13:11:17Z</time>
      </trkpt>
      <trkpt lat="49.57977" lon="-1.35093">
        <ele>96.2</ele>
        <time>2020-06-15T13:11:18Z</time>
      </trkpt>
      <trkpt lat="49.57977" lon="-1.35093">
        <ele>96.2</ele>
        <time>2020-06-15T13:11:19Z</time>
      </trkpt>
      <trkpt lat="49.57977" lon="-1.35093">
        <ele>96.2</ele>
        <time>2020-06-15T13:11:20Z</time>
      </trkpt>
      <trkpt lat="49.57977" lon="-1.35093">
        <ele>96.2</ele>
        <time>2020-06-15T13:11:21Z</time>
      </trkpt>
      <trkpt lat="49.57977" lon="-1.35093">
        <ele>96.3</ele>
        <time>2020-06-15T13:11:22Z</time>
      </trkpt>
      <trkpt lat="49.57976" lon="-1.35093">
        <ele>96.3</ele>
        <time>2020-06-15T13:11:23Z</time>
      </trkpt>
      <trkpt lat="49.57976" lon="-1.35093">
        <ele>96.3</ele>
        <time>2020-06-15T13:11:24Z</time>
      </trkpt>
      <trkpt lat="49.57977" lon="-1.35093">
        <ele>96.3</ele>
        <time>2020-06-15T13:11:25Z</time>
      </trkpt>
      <trkpt lat="49.57977" lon="-1.35094">
        <ele>96.3</ele>
        <time>2020-06-15T13:11:26Z</time>
      </trkpt>
      <trkpt lat="49.57977" lon="-1.35094">
        <ele>96.3</ele>
        <time>2020-06-15T13:11:27Z</time>
      </trkpt>
      <trkpt lat="49.57977" lon="-1.35094">
        <ele>96.3</ele>
        <time>2020-06-15T13:11:28Z</time>
      </trkpt>
      <trkpt lat="49.57977" lon="-1.35094">
        <ele>96.3</ele>
        <time>2020-06-15T13:11:29Z</time>
      </trkpt>
      <trkpt lat="49.57976" lon="-1.35099">
        <ele>96.3</ele>
        <time>2020-06-15T13:12:07Z</time>
      </trkpt>
      <trkpt lat="49.57976" lon="-1.35102">
        <ele>96.3</ele>
        <time>2020-06-15T13:12:08Z</time>
      </trkpt>
      <trkpt lat="49.57975" lon="-1.35106">
        <ele>96.3</ele>
        <time>2020-06-15T13:12:09Z</time>
      </trkpt>
      <trkpt lat="49.57974" lon="-1.3511">
        <ele>96.3</ele>
        <time>2020-06-15T13:12:10Z</time>
      </trkpt>
      <trkpt lat="49.57973" lon="-1.35116">
        <ele>96.3</ele>
        <time>2020-06-15T13:12:11Z</time>
      </trkpt>
      <trkpt lat="49.5797" lon="-1.35119">
        <ele>96.3</ele>
        <time>2020-06-15T13:12:12Z</time>
      </trkpt>
      <trkpt lat="49.57969" lon="-1.35124">
        <ele>96.3</ele>
        <time>2020-06-15T13:12:13Z</time>
      </trkpt>
      <trkpt lat="49.57967" lon="-1.35129">
        <ele>96.3</ele>
        <time>2020-06-15T13:12:14Z</time>
      </trkpt>
      <trkpt lat="49.57966" lon="-1.35134">
        <ele>96.3</ele>
        <time>2020-06-15T13:12:15Z</time>
      </trkpt>
      <trkpt lat="49.57965" lon="-1.35138">
        <ele>96.3</ele>
        <time>2020-06-15T13:12:16Z</time>
      </trkpt>
      <trkpt lat="49.57963" lon="-1.35143">
        <ele>96.3</ele>
        <time>2020-06-15T13:12:17Z</time>
      </trkpt>
      <trkpt lat="49.57962" lon="-1.35148">
        <ele>96.3</ele>
        <time>2020-06-15T13:12:18Z</time>
      </trkpt>
      <trkpt lat="49.5796" lon="-1.35154">
        <ele>96.3</ele>
        <time>2020-06-15T13:12:19Z</time>
      </trkpt>
      <trkpt lat="49.57958" lon="-1.3516">
        <ele>96.4</ele>
        <time>2020-06-15T13:12:20Z</time>
      </trkpt>
      <trkpt lat="49.57956" lon="-1.35167">
        <ele>96.4</ele>
        <time>2020-06-15T13:12:21Z</time>
      </trkpt>
      <trkpt lat="49.57954" lon="-1.35174">
        <ele>96.4</ele>
        <time>2020-06-15T13:12:22Z</time>
      </trkpt>
      <trkpt lat="49.57953" lon="-1.35181">
        <ele>96.4</ele>
        <time>2020-06-15T13:12:23Z</time>
      </trkpt>
      <trkpt lat="49.57952" lon="-1.35187">
        <ele>96.4</ele>
        <time>2020-06-15T13:12:24Z</time>
      </trkpt>
      <trkpt lat="49.5795" lon="-1.35193">
        <ele>96.4</ele>
        <time>2020-06-15T13:12:25Z</time>
      </trkpt>
      <trkpt lat="49.57948" lon="-1.35199">
        <ele>96.4</ele>
        <time>2020-06-15T13:12:26Z</time>
      </trkpt>
      <trkpt lat="49.57946" lon="-1.35206">
        <ele>96.4</ele>
        <time>2020-06-15T13:12:27Z</time>
      </trkpt>
      <trkpt lat="49.57944" lon="-1.35213">
        <ele>96.3</ele>
        <time>2020-06-15T13:12:28Z</time>
      </trkpt>
      <trkpt lat="49.57942" lon="-1.3522">
        <ele>96.2</ele>
        <time>2020-06-15T13:12:29Z</time>
      </trkpt>
      <trkpt lat="49.57941" lon="-1.35226">
        <ele>96.1</ele>
        <time>2020-06-15T13:12:30Z</time>
      </trkpt>
      <trkpt lat="49.57939" lon="-1.35234">
        <ele>95.9</ele>
        <time>2020-06-15T13:12:31Z</time>
      </trkpt>
      <trkpt lat="49.57937" lon="-1.35242">
        <ele>95.7</ele>
        <time>2020-06-15T13:12:32Z</time>
      </trkpt>
      <trkpt lat="49.57935" lon="-1.35249">
        <ele>95.5</ele>
        <time>2020-06-15T13:12:33Z</time>
      </trkpt>
      <trkpt lat="49.57933" lon="-1.35256">
        <ele>95.3</ele>
        <time>2020-06-15T13:12:34Z</time>
      </trkpt>
      <trkpt lat="49.57932" lon="-1.35264">
        <ele>95.1</ele>
        <time>2020-06-15T13:12:35Z</time>
      </trkpt>
      <trkpt lat="49.5793" lon="-1.35271">
        <ele>95</ele>
        <time>2020-06-15T13:12:36Z</time>
      </trkpt>
      <trkpt lat="49.57927" lon="-1.35278">
        <ele>94.8</ele>
        <time>2020-06-15T13:12:37Z</time>
      </trkpt>
      <trkpt lat="49.57925" lon="-1.35287">
        <ele>94.6</ele>
        <time>2020-06-15T13:12:38Z</time>
      </trkpt>
      <trkpt lat="49.57921" lon="-1.35295">
        <ele>94.4</ele>
        <time>2020-06-15T13:12:39Z</time>
      </trkpt>
      <trkpt lat="49.57919" lon="-1.35305">
        <ele>94.1</ele>
        <time>2020-06-15T13:12:40Z</time>
      </trkpt>
      <trkpt lat="49.57916" lon="-1.35314">
        <ele>93.9</ele>
        <time>2020-06-15T13:12:41Z</time>
      </trkpt>
      <trkpt lat="49.57912" lon="-1.35322">
        <ele>93.6</ele>
        <time>2020-06-15T13:12:42Z</time>
      </trkpt>
      <trkpt lat="49.57909" lon="-1.35333">
        <ele>93.2</ele>
        <time>2020-06-15T13:12:43Z</time>
      </trkpt>
      <trkpt lat="49.57906" lon="-1.35342">
        <ele>93</ele>
        <time>2020-06-15T13:12:44Z</time>
      </trkpt>
      <trkpt lat="49.57904" lon="-1.35354">
        <ele>92.6</ele>
        <time>2020-06-15T13:12:45Z</time>
      </trkpt>
      <trkpt lat="49.57901" lon="-1.35362">
        <ele>92.4</ele>
        <time>2020-06-15T13:12:46Z</time>
      </trkpt>
      <trkpt lat="49.57898" lon="-1.35371">
        <ele>92.1</ele>
        <time>2020-06-15T13:12:47Z</time>
      </trkpt>
      <trkpt lat="49.57895" lon="-1.3538">
        <ele>91.8</ele>
        <time>2020-06-15T13:12:48Z</time>
      </trkpt>
      <trkpt lat="49.57892" lon="-1.3539">
        <ele>91.5</ele>
        <time>2020-06-15T13:12:49Z</time>
      </trkpt>
      <trkpt lat="49.57889" lon="-1.354">
        <ele>91.1</ele>
        <time>2020-06-15T13:12:50Z</time>
      </trkpt>
      <trkpt lat="49.57885" lon="-1.35409">
        <ele>90.8</ele>
        <time>2020-06-15T13:12:51Z</time>
      </trkpt>
      <trkpt lat="49.57883" lon="-1.3542">
        <ele>90.5</ele>
        <time>2020-06-15T13:12:52Z</time>
      </trkpt>
      <trkpt lat="49.5788" lon="-1.3543">
        <ele>90.1</ele>
        <time>2020-06-15T13:12:53Z</time>
      </trkpt>
      <trkpt lat="49.57877" lon="-1.3544">
        <ele>89.7</ele>
        <time>2020-06-15T13:12:54Z</time>
      </trkpt>
      <trkpt lat="49.57874" lon="-1.35451">
        <ele>89.3</ele>
        <time>2020-06-15T13:12:55Z</time>
      </trkpt>
      <trkpt lat="49.57871" lon="-1.35462">
        <ele>88.9</ele>
        <time>2020-06-15T13:12:56Z</time>
      </trkpt>
      <trkpt lat="49.57868" lon="-1.35472">
        <ele>88.5</ele>
        <time>2020-06-15T13:12:57Z</time>
      </trkpt>
      <trkpt lat="49.57864" lon="-1.35482">
        <ele>88.1</ele>
        <time>2020-06-15T13:12:58Z</time>
      </trkpt>
      <trkpt lat="49.57861" lon="-1.35494">
        <ele>87.7</ele>
        <time>2020-06-15T13:12:59Z</time>
      </trkpt>
      <trkpt lat="49.57858" lon="-1.35505">
        <ele>87.4</ele>
        <time>2020-06-15T13:13:00Z</time>
      </trkpt>
      <trkpt lat="49.57856" lon="-1.35517">
        <ele>87</ele>
        <time>2020-06-15T13:13:01Z</time>
      </trkpt>
      <trkpt lat="49.57852" lon="-1.35529">
        <ele>86.6</ele>
        <time>2020-06-15T13:13:02Z</time>
      </trkpt>
      <trkpt lat="49.57849" lon="-1.3554">
        <ele>86.2</ele>
        <time>2020-06-15T13:13:03Z</time>
      </trkpt>
      <trkpt lat="49.57846" lon="-1.35552">
        <ele>85.9</ele>
        <time>2020-06-15T13:13:04Z</time>
      </trkpt>
      <trkpt lat="49.57843" lon="-1.35565">
        <ele>85.5</ele>
        <time>2020-06-15T13:13:05Z</time>
      </trkpt>
      <trkpt lat="49.57839" lon="-1.35577">
        <ele>85.2</ele>
        <time>2020-06-15T13:13:06Z</time>
      </trkpt>
      <trkpt lat="49.57836" lon="-1.35589">
        <ele>84.9</ele>
        <time>2020-06-15T13:13:07Z</time>
      </trkpt>
      <trkpt lat="49.57833" lon="-1.35601">
        <ele>84.7</ele>
        <time>2020-06-15T13:13:08Z</time>
      </trkpt>
      <trkpt lat="49.5783" lon="-1.35613">
        <ele>84.4</ele>
        <time>2020-06-15T13:13:09Z</time>
      </trkpt>
      <trkpt lat="49.57827" lon="-1.35625">
        <ele>84.1</ele>
        <time>2020-06-15T13:13:10Z</time>
      </trkpt>
      <trkpt lat="49.57823" lon="-1.35638">
        <ele>83.8</ele>
        <time>2020-06-15T13:13:11Z</time>
      </trkpt>
      <trkpt lat="49.5782" lon="-1.3565">
        <ele>83.6</ele>
        <time>2020-06-15T13:13:12Z</time>
      </trkpt>
      <trkpt lat="49.57816" lon="-1.35663">
        <ele>83.4</ele>
        <time>2020-06-15T13:13:13Z</time>
      </trkpt>
      <trkpt lat="49.57813" lon="-1.35676">
        <ele>83.4</ele>
        <time>2020-06-15T13:13:14Z</time>
      </trkpt>
      <trkpt lat="49.57809" lon="-1.35688">
        <ele>83.4</ele>
        <time>2020-06-15T13:13:15Z</time>
      </trkpt>
      <trkpt lat="49.57806" lon="-1.357">
        <ele>83.4</ele>
        <time>2020-06-15T13:13:16Z</time>
      </trkpt>
      <trkpt lat="49.57802" lon="-1.35713">
        <ele>83.4</ele>
        <time>2020-06-15T13:13:17Z</time>
      </trkpt>
      <trkpt lat="49.57799" lon="-1.35725">
        <ele>83.4</ele>
        <time>2020-06-15T13:13:18Z</time>
      </trkpt>
      <trkpt lat="49.57796" lon="-1.35737">
        <ele>83.4</ele>
        <time>2020-06-15T13:13:19Z</time>
      </trkpt>
      <trkpt lat="49.57792" lon="-1.35749">
        <ele>83.4</ele>
        <time>2020-06-15T13:13:20Z</time>
      </trkpt>
      <trkpt lat="49.57789" lon="-1.35761">
        <ele>83.4</ele>
        <time>2020-06-15T13:13:21Z</time>
      </trkpt>
      <trkpt lat="49.57785" lon="-1.35772">
        <ele>83.4</ele>
        <time>2020-06-15T13:13:22Z</time>
      </trkpt>
      <trkpt lat="49.57782" lon="-1.35782">
        <ele>83.5</ele>
        <time>2020-06-15T13:13:23Z</time>
      </trkpt>
      <trkpt lat="49.57779" lon="-1.35792">
        <ele>83.5</ele>
        <time>2020-06-15T13:13:24Z</time>
      </trkpt>
      <trkpt lat="49.57776" lon="-1.35802">
        <ele>83.5</ele>
        <time>2020-06-15T13:13:25Z</time>
      </trkpt>
      <trkpt lat="49.57774" lon="-1.35811">
        <ele>83.5</ele>
        <time>2020-06-15T13:13:26Z</time>
      </trkpt>
      <trkpt lat="49.57771" lon="-1.35821">
        <ele>83.5</ele>
        <time>2020-06-15T13:13:27Z</time>
      </trkpt>
      <trkpt lat="49.57768" lon="-1.3583">
        <ele>83.5</ele>
        <time>2020-06-15T13:13:28Z</time>
      </trkpt>
      <trkpt lat="49.57765" lon="-1.35839">
        <ele>83.5</ele>
        <time>2020-06-15T13:13:29Z</time>
      </trkpt>
      <trkpt lat="49.57762" lon="-1.35848">
        <ele>83.4</ele>
        <time>2020-06-15T13:13:30Z</time>
      </trkpt>
      <trkpt lat="49.57759" lon="-1.35857">
        <ele>83.3</ele>
        <time>2020-06-15T13:13:31Z</time>
      </trkpt>
      <trkpt lat="49.57757" lon="-1.35866">
        <ele>83.2</ele>
        <time>2020-06-15T13:13:32Z</time>
      </trkpt>
      <trkpt lat="49.57754" lon="-1.35875">
        <ele>83.1</ele>
        <time>2020-06-15T13:13:33Z</time>
      </trkpt>
      <trkpt lat="49.57751" lon="-1.35885">
        <ele>83</ele>
        <time>2020-06-15T13:13:34Z</time>
      </trkpt>
      <trkpt lat="49.57749" lon="-1.35894">
        <ele>82.9</ele>
        <time>2020-06-15T13:13:35Z</time>
      </trkpt>
      <trkpt lat="49.57746" lon="-1.35904">
        <ele>82.7</ele>
        <time>2020-06-15T13:13:36Z</time>
      </trkpt>
      <trkpt lat="49.57743" lon="-1.35914">
        <ele>82.5</ele>
        <time>2020-06-15T13:13:37Z</time>
      </trkpt>
      <trkpt lat="49.57741" lon="-1.35924">
        <ele>82.3</ele>
        <time>2020-06-15T13:13:38Z</time>
      </trkpt>
      <trkpt lat="49.57738" lon="-1.35935">
        <ele>82.2</ele>
        <time>2020-06-15T13:13:39Z</time>
      </trkpt>
      <trkpt lat="49.57735" lon="-1.35945">
        <ele>82</ele>
        <time>2020-06-15T13:13:40Z</time>
      </trkpt>
      <trkpt lat="49.57732" lon="-1.35956">
        <ele>81.9</ele>
        <time>2020-06-15T13:13:41Z</time>
      </trkpt>
      <trkpt lat="49.57729" lon="-1.35966">
        <ele>81.7</ele>
        <time>2020-06-15T13:13:42Z</time>
      </trkpt>
      <trkpt lat="49.57726" lon="-1.35976">
        <ele>81.5</ele>
        <time>2020-06-15T13:13:43Z</time>
      </trkpt>
      <trkpt lat="49.57724" lon="-1.35986">
        <ele>81.2</ele>
        <time>2020-06-15T13:13:44Z</time>
      </trkpt>
      <trkpt lat="49.57721" lon="-1.35997">
        <ele>81</ele>
        <time>2020-06-15T13:13:45Z</time>
      </trkpt>
      <trkpt lat="49.57717" lon="-1.36007">
        <ele>80.8</ele>
        <time>2020-06-15T13:13:46Z</time>
      </trkpt>
      <trkpt lat="49.57714" lon="-1.36018">
        <ele>80.6</ele>
        <time>2020-06-15T13:13:47Z</time>
      </trkpt>
      <trkpt lat="49.57711" lon="-1.36028">
        <ele>80.5</ele>
        <time>2020-06-15T13:13:48Z</time>
      </trkpt>
      <trkpt lat="49.57708" lon="-1.36039">
        <ele>80.5</ele>
        <time>2020-06-15T13:13:49Z</time>
      </trkpt>
      <trkpt lat="49.57705" lon="-1.3605">
        <ele>80.4</ele>
        <time>2020-06-15T13:13:50Z</time>
      </trkpt>
      <trkpt lat="49.57702" lon="-1.36061">
        <ele>80.3</ele>
        <time>2020-06-15T13:13:51Z</time>
      </trkpt>
      <trkpt lat="49.57699" lon="-1.36072">
        <ele>79.9</ele>
        <time>2020-06-15T13:13:52Z</time>
      </trkpt>
      <trkpt lat="49.57695" lon="-1.36084">
        <ele>79.6</ele>
        <time>2020-06-15T13:13:53Z</time>
      </trkpt>
      <trkpt lat="49.57692" lon="-1.36095">
        <ele>79.3</ele>
        <time>2020-06-15T13:13:54Z</time>
      </trkpt>
      <trkpt lat="49.57689" lon="-1.36106">
        <ele>78.9</ele>
        <time>2020-06-15T13:13:55Z</time>
      </trkpt>
      <trkpt lat="49.57686" lon="-1.36118">
        <ele>78.7</ele>
        <time>2020-06-15T13:13:56Z</time>
      </trkpt>
      <trkpt lat="49.57683" lon="-1.36129">
        <ele>78.4</ele>
        <time>2020-06-15T13:13:57Z</time>
      </trkpt>
      <trkpt lat="49.5768" lon="-1.36141">
        <ele>78.2</ele>
        <time>2020-06-15T13:13:58Z</time>
      </trkpt>
      <trkpt lat="49.57676" lon="-1.36153">
        <ele>78.1</ele>
        <time>2020-06-15T13:13:59Z</time>
      </trkpt>
      <trkpt lat="49.57673" lon="-1.36165">
        <ele>77.9</ele>
        <time>2020-06-15T13:14:00Z</time>
      </trkpt>
      <trkpt lat="49.5767" lon="-1.36177">
        <ele>77.8</ele>
        <time>2020-06-15T13:14:01Z</time>
      </trkpt>
      <trkpt lat="49.57667" lon="-1.36188">
        <ele>77.6</ele>
        <time>2020-06-15T13:14:02Z</time>
      </trkpt>
      <trkpt lat="49.57663" lon="-1.362">
        <ele>77.4</ele>
        <time>2020-06-15T13:14:03Z</time>
      </trkpt>
      <trkpt lat="49.5766" lon="-1.36212">
        <ele>77.2</ele>
        <time>2020-06-15T13:14:04Z</time>
      </trkpt>
      <trkpt lat="49.57657" lon="-1.36224">
        <ele>77</ele>
        <time>2020-06-15T13:14:05Z</time>
      </trkpt>
      <trkpt lat="49.57654" lon="-1.36235">
        <ele>76.9</ele>
        <time>2020-06-15T13:14:06Z</time>
      </trkpt>
      <trkpt lat="49.57651" lon="-1.36247">
        <ele>76.7</ele>
        <time>2020-06-15T13:14:07Z</time>
      </trkpt>
      <trkpt lat="49.57647" lon="-1.36259">
        <ele>76.6</ele>
        <time>2020-06-15T13:14:08Z</time>
      </trkpt>
      <trkpt lat="49.57644" lon="-1.3627">
        <ele>76.5</ele>
        <time>2020-06-15T13:14:09Z</time>
      </trkpt>
      <trkpt lat="49.5764" lon="-1.36282">
        <ele>76.3</ele>
        <time>2020-06-15T13:14:10Z</time>
      </trkpt>
      <trkpt lat="49.57637" lon="-1.36293">
        <ele>76.2</ele>
        <time>2020-06-15T13:14:11Z</time>
      </trkpt>
      <trkpt lat="49.57634" lon="-1.36306">
        <ele>76.1</ele>
        <time>2020-06-15T13:14:12Z</time>
      </trkpt>
      <trkpt lat="49.5763" lon="-1.36317">
        <ele>76.1</ele>
        <time>2020-06-15T13:14:13Z</time>
      </trkpt>
      <trkpt lat="49.57627" lon="-1.36329">
        <ele>76</ele>
        <time>2020-06-15T13:14:14Z</time>
      </trkpt>
      <trkpt lat="49.57624" lon="-1.36341">
        <ele>76</ele>
        <time>2020-06-15T13:14:15Z</time>
      </trkpt>
      <trkpt lat="49.57621" lon="-1.36353">
        <ele>76</ele>
        <time>2020-06-15T13:14:16Z</time>
      </trkpt>
      <trkpt lat="49.57617" lon="-1.36364">
        <ele>76</ele>
        <time>2020-06-15T13:14:17Z</time>
      </trkpt>
      <trkpt lat="49.57614" lon="-1.36375">
        <ele>76.1</ele>
        <time>2020-06-15T13:14:18Z</time>
      </trkpt>
      <trkpt lat="49.57611" lon="-1.36386">
        <ele>76.1</ele>
        <time>2020-06-15T13:14:19Z</time>
      </trkpt>
      <trkpt lat="49.57607" lon="-1.36397">
        <ele>76.2</ele>
        <time>2020-06-15T13:14:20Z</time>
      </trkpt>
      <trkpt lat="49.57603" lon="-1.36407">
        <ele>76.3</ele>
        <time>2020-06-15T13:14:21Z</time>
      </trkpt>
      <trkpt lat="49.576" lon="-1.36417">
        <ele>76.4</ele>
        <time>2020-06-15T13:14:22Z</time>
      </trkpt>
      <trkpt lat="49.57596" lon="-1.36426">
        <ele>76.5</ele>
        <time>2020-06-15T13:14:23Z</time>
      </trkpt>
      <trkpt lat="49.57592" lon="-1.36435">
        <ele>76.7</ele>
        <time>2020-06-15T13:14:24Z</time>
      </trkpt>
      <trkpt lat="49.57588" lon="-1.36444">
        <ele>76.9</ele>
        <time>2020-06-15T13:14:25Z</time>
      </trkpt>
      <trkpt lat="49.57585" lon="-1.36453">
        <ele>77.1</ele>
        <time>2020-06-15T13:14:26Z</time>
      </trkpt>
      <trkpt lat="49.57581" lon="-1.36461">
        <ele>77.3</ele>
        <time>2020-06-15T13:14:27Z</time>
      </trkpt>
      <trkpt lat="49.57577" lon="-1.36469">
        <ele>77.5</ele>
        <time>2020-06-15T13:14:28Z</time>
      </trkpt>
      <trkpt lat="49.57573" lon="-1.36477">
        <ele>77.6</ele>
        <time>2020-06-15T13:14:29Z</time>
      </trkpt>
      <trkpt lat="49.57569" lon="-1.36485">
        <ele>77.7</ele>
        <time>2020-06-15T13:14:30Z</time>
      </trkpt>
      <trkpt lat="49.57564" lon="-1.36492">
        <ele>77.8</ele>
        <time>2020-06-15T13:14:31Z</time>
      </trkpt>
      <trkpt lat="49.5756" lon="-1.36499">
        <ele>77.9</ele>
        <time>2020-06-15T13:14:32Z</time>
      </trkpt>
      <trkpt lat="49.57557" lon="-1.36507">
        <ele>78</ele>
        <time>2020-06-15T13:14:33Z</time>
      </trkpt>
      <trkpt lat="49.57554" lon="-1.36514">
        <ele>78.1</ele>
        <time>2020-06-15T13:14:34Z</time>
      </trkpt>
      <trkpt lat="49.57551" lon="-1.36523">
        <ele>78.2</ele>
        <time>2020-06-15T13:14:35Z</time>
      </trkpt>
      <trkpt lat="49.57547" lon="-1.3653">
        <ele>78.3</ele>
        <time>2020-06-15T13:14:36Z</time>
      </trkpt>
      <trkpt lat="49.57543" lon="-1.36537">
        <ele>78.4</ele>
        <time>2020-06-15T13:14:37Z</time>
      </trkpt>
      <trkpt lat="49.57539" lon="-1.36542">
        <ele>78.5</ele>
        <time>2020-06-15T13:14:38Z</time>
      </trkpt>
      <trkpt lat="49.57535" lon="-1.36548">
        <ele>78.6</ele>
        <time>2020-06-15T13:14:39Z</time>
      </trkpt>
      <trkpt lat="49.57531" lon="-1.36555">
        <ele>78.7</ele>
        <time>2020-06-15T13:14:40Z</time>
      </trkpt>
      <trkpt lat="49.57527" lon="-1.36562">
        <ele>78.7</ele>
        <time>2020-06-15T13:14:41Z</time>
      </trkpt>
      <trkpt lat="49.57523" lon="-1.36568">
        <ele>78.8</ele>
        <time>2020-06-15T13:14:42Z</time>
      </trkpt>
      <trkpt lat="49.57519" lon="-1.36576">
        <ele>78.9</ele>
        <time>2020-06-15T13:14:43Z</time>
      </trkpt>
      <trkpt lat="49.57516" lon="-1.36583">
        <ele>79</ele>
        <time>2020-06-15T13:14:44Z</time>
      </trkpt>
      <trkpt lat="49.57513" lon="-1.36592">
        <ele>79</ele>
        <time>2020-06-15T13:14:45Z</time>
      </trkpt>
      <trkpt lat="49.57509" lon="-1.36598">
        <ele>79</ele>
        <time>2020-06-15T13:14:46Z</time>
      </trkpt>
      <trkpt lat="49.57506" lon="-1.36608">
        <ele>78.7</ele>
        <time>2020-06-15T13:14:47Z</time>
      </trkpt>
      <trkpt lat="49.57501" lon="-1.36616">
        <ele>78.5</ele>
        <time>2020-06-15T13:14:48Z</time>
      </trkpt>
      <trkpt lat="49.57498" lon="-1.36623">
        <ele>78.5</ele>
        <time>2020-06-15T13:14:49Z</time>
      </trkpt>
      <trkpt lat="49.57494" lon="-1.36633">
        <ele>78.4</ele>
        <time>2020-06-15T13:14:50Z</time>
      </trkpt>
      <trkpt lat="49.5749" lon="-1.36641">
        <ele>78.4</ele>
        <time>2020-06-15T13:14:51Z</time>
      </trkpt>
      <trkpt lat="49.57486" lon="-1.36649">
        <ele>78.4</ele>
        <time>2020-06-15T13:14:52Z</time>
      </trkpt>
      <trkpt lat="49.57482" lon="-1.36657">
        <ele>78.4</ele>
        <time>2020-06-15T13:14:53Z</time>
      </trkpt>
      <trkpt lat="49.57478" lon="-1.36665">
        <ele>78.3</ele>
        <time>2020-06-15T13:14:54Z</time>
      </trkpt>
      <trkpt lat="49.57475" lon="-1.36673">
        <ele>78.3</ele>
        <time>2020-06-15T13:14:55Z</time>
      </trkpt>
      <trkpt lat="49.57471" lon="-1.36681">
        <ele>78.3</ele>
        <time>2020-06-15T13:14:56Z</time>
      </trkpt>
      <trkpt lat="49.57467" lon="-1.36688">
        <ele>78.3</ele>
        <time>2020-06-15T13:14:57Z</time>
      </trkpt>
      <trkpt lat="49.57463" lon="-1.36696">
        <ele>78.2</ele>
        <time>2020-06-15T13:14:58Z</time>
      </trkpt>
      <trkpt lat="49.5746" lon="-1.36704">
        <ele>78.2</ele>
        <time>2020-06-15T13:14:59Z</time>
      </trkpt>
      <trkpt lat="49.57456" lon="-1.36711">
        <ele>78.1</ele>
        <time>2020-06-15T13:15:00Z</time>
      </trkpt>
      <trkpt lat="49.57452" lon="-1.36719">
        <ele>78.1</ele>
        <time>2020-06-15T13:15:01Z</time>
      </trkpt>
      <trkpt lat="49.57448" lon="-1.36727">
        <ele>78</ele>
        <time>2020-06-15T13:15:02Z</time>
      </trkpt>
      <trkpt lat="49.57445" lon="-1.36735">
        <ele>78</ele>
        <time>2020-06-15T13:15:03Z</time>
      </trkpt>
      <trkpt lat="49.57441" lon="-1.36743">
        <ele>78</ele>
        <time>2020-06-15T13:15:04Z</time>
      </trkpt>
      <trkpt lat="49.57437" lon="-1.36751">
        <ele>77.9</ele>
        <time>2020-06-15T13:15:05Z</time>
      </trkpt>
      <trkpt lat="49.57433" lon="-1.3676">
        <ele>77.9</ele>
        <time>2020-06-15T13:15:06Z</time>
      </trkpt>
      <trkpt lat="49.57429" lon="-1.36768">
        <ele>77.8</ele>
        <time>2020-06-15T13:15:07Z</time>
      </trkpt>
      <trkpt lat="49.57425" lon="-1.36775">
        <ele>77.8</ele>
        <time>2020-06-15T13:15:08Z</time>
      </trkpt>
      <trkpt lat="49.57421" lon="-1.36783">
        <ele>77.7</ele>
        <time>2020-06-15T13:15:09Z</time>
      </trkpt>
      <trkpt lat="49.57417" lon="-1.36791">
        <ele>77.7</ele>
        <time>2020-06-15T13:15:10Z</time>
      </trkpt>
      <trkpt lat="49.57413" lon="-1.36798">
        <ele>77.7</ele>
        <time>2020-06-15T13:15:11Z</time>
      </trkpt>
      <trkpt lat="49.5741" lon="-1.36805">
        <ele>77.7</ele>
        <time>2020-06-15T13:15:12Z</time>
      </trkpt>
      <trkpt lat="49.57406" lon="-1.36813">
        <ele>77.6</ele>
        <time>2020-06-15T13:15:13Z</time>
      </trkpt>
      <trkpt lat="49.57402" lon="-1.3682">
        <ele>77.5</ele>
        <time>2020-06-15T13:15:14Z</time>
      </trkpt>
      <trkpt lat="49.57399" lon="-1.36827">
        <ele>77.2</ele>
        <time>2020-06-15T13:15:15Z</time>
      </trkpt>
      <trkpt lat="49.57395" lon="-1.36835">
        <ele>76.8</ele>
        <time>2020-06-15T13:15:16Z</time>
      </trkpt>
      <trkpt lat="49.57391" lon="-1.36843">
        <ele>76.5</ele>
        <time>2020-06-15T13:15:17Z</time>
      </trkpt>
      <trkpt lat="49.57387" lon="-1.36851">
        <ele>76.2</ele>
        <time>2020-06-15T13:15:18Z</time>
      </trkpt>
      <trkpt lat="49.57383" lon="-1.36859">
        <ele>76</ele>
        <time>2020-06-15T13:15:19Z</time>
      </trkpt>
      <trkpt lat="49.57379" lon="-1.36868">
        <ele>75.8</ele>
        <time>2020-06-15T13:15:20Z</time>
      </trkpt>
      <trkpt lat="49.57375" lon="-1.36876">
        <ele>75.6</ele>
        <time>2020-06-15T13:15:21Z</time>
      </trkpt>
      <trkpt lat="49.57371" lon="-1.36884">
        <ele>75.4</ele>
        <time>2020-06-15T13:15:22Z</time>
      </trkpt>
      <trkpt lat="49.57367" lon="-1.36893">
        <ele>75.3</ele>
        <time>2020-06-15T13:15:23Z</time>
      </trkpt>
      <trkpt lat="49.57363" lon="-1.36901">
        <ele>75.2</ele>
        <time>2020-06-15T13:15:24Z</time>
      </trkpt>
      <trkpt lat="49.57358" lon="-1.36909">
        <ele>75</ele>
        <time>2020-06-15T13:15:25Z</time>
      </trkpt>
      <trkpt lat="49.57354" lon="-1.36917">
        <ele>74.8</ele>
        <time>2020-06-15T13:15:26Z</time>
      </trkpt>
      <trkpt lat="49.57349" lon="-1.36925">
        <ele>74.6</ele>
        <time>2020-06-15T13:15:27Z</time>
      </trkpt>
      <trkpt lat="49.57345" lon="-1.36933">
        <ele>74.3</ele>
        <time>2020-06-15T13:15:28Z</time>
      </trkpt>
      <trkpt lat="49.57341" lon="-1.3694">
        <ele>74.1</ele>
        <time>2020-06-15T13:15:29Z</time>
      </trkpt>
      <trkpt lat="49.57337" lon="-1.36949">
        <ele>73.9</ele>
        <time>2020-06-15T13:15:30Z</time>
      </trkpt>
      <trkpt lat="49.57333" lon="-1.36957">
        <ele>73.7</ele>
        <time>2020-06-15T13:15:31Z</time>
      </trkpt>
      <trkpt lat="49.57329" lon="-1.36965">
        <ele>73.4</ele>
        <time>2020-06-15T13:15:32Z</time>
      </trkpt>
      <trkpt lat="49.57325" lon="-1.36974">
        <ele>73.2</ele>
        <time>2020-06-15T13:15:33Z</time>
      </trkpt>
      <trkpt lat="49.57321" lon="-1.36983">
        <ele>73</ele>
        <time>2020-06-15T13:15:34Z</time>
      </trkpt>
      <trkpt lat="49.57316" lon="-1.36991">
        <ele>72.7</ele>
        <time>2020-06-15T13:15:35Z</time>
      </trkpt>
      <trkpt lat="49.57312" lon="-1.37">
        <ele>72.4</ele>
        <time>2020-06-15T13:15:36Z</time>
      </trkpt>
      <trkpt lat="49.57308" lon="-1.37009">
        <ele>72.1</ele>
        <time>2020-06-15T13:15:37Z</time>
      </trkpt>
      <trkpt lat="49.57304" lon="-1.37018">
        <ele>71.8</ele>
        <time>2020-06-15T13:15:38Z</time>
      </trkpt>
      <trkpt lat="49.573" lon="-1.37027">
        <ele>71.5</ele>
        <time>2020-06-15T13:15:39Z</time>
      </trkpt>
      <trkpt lat="49.57295" lon="-1.37036">
        <ele>71.2</ele>
        <time>2020-06-15T13:15:40Z</time>
      </trkpt>
      <trkpt lat="49.5729" lon="-1.37045">
        <ele>70.9</ele>
        <time>2020-06-15T13:15:41Z</time>
      </trkpt>
      <trkpt lat="49.57285" lon="-1.37055">
        <ele>70.6</ele>
        <time>2020-06-15T13:15:42Z</time>
      </trkpt>
      <trkpt lat="49.57281" lon="-1.37064">
        <ele>70.3</ele>
        <time>2020-06-15T13:15:43Z</time>
      </trkpt>
      <trkpt lat="49.57276" lon="-1.37074">
        <ele>70</ele>
        <time>2020-06-15T13:15:44Z</time>
      </trkpt>
      <trkpt lat="49.57271" lon="-1.37084">
        <ele>69.6</ele>
        <time>2020-06-15T13:15:45Z</time>
      </trkpt>
      <trkpt lat="49.57266" lon="-1.37094">
        <ele>69.2</ele>
        <time>2020-06-15T13:15:46Z</time>
      </trkpt>
      <trkpt lat="49.57261" lon="-1.37104">
        <ele>68.8</ele>
        <time>2020-06-15T13:15:47Z</time>
      </trkpt>
      <trkpt lat="49.57256" lon="-1.37114">
        <ele>68.5</ele>
        <time>2020-06-15T13:15:48Z</time>
      </trkpt>
      <trkpt lat="49.57251" lon="-1.37124">
        <ele>68.1</ele>
        <time>2020-06-15T13:15:49Z</time>
      </trkpt>
      <trkpt lat="49.57246" lon="-1.37134">
        <ele>67.8</ele>
        <time>2020-06-15T13:15:50Z</time>
      </trkpt>
      <trkpt lat="49.5724" lon="-1.37144">
        <ele>67.5</ele>
        <time>2020-06-15T13:15:51Z</time>
      </trkpt>
      <trkpt lat="49.57235" lon="-1.37154">
        <ele>67.2</ele>
        <time>2020-06-15T13:15:52Z</time>
      </trkpt>
      <trkpt lat="49.5723" lon="-1.37164">
        <ele>66.9</ele>
        <time>2020-06-15T13:15:53Z</time>
      </trkpt>
      <trkpt lat="49.57225" lon="-1.37173">
        <ele>66.7</ele>
        <time>2020-06-15T13:15:54Z</time>
      </trkpt>
      <trkpt lat="49.57219" lon="-1.37182">
        <ele>66.5</ele>
        <time>2020-06-15T13:15:55Z</time>
      </trkpt>
      <trkpt lat="49.57215" lon="-1.37192">
        <ele>66.3</ele>
        <time>2020-06-15T13:15:56Z</time>
      </trkpt>
      <trkpt lat="49.57209" lon="-1.37201">
        <ele>66.1</ele>
        <time>2020-06-15T13:15:57Z</time>
      </trkpt>
      <trkpt lat="49.57204" lon="-1.3721">
        <ele>65.9</ele>
        <time>2020-06-15T13:15:58Z</time>
      </trkpt>
      <trkpt lat="49.572" lon="-1.3722">
        <ele>65.7</ele>
        <time>2020-06-15T13:15:59Z</time>
      </trkpt>
      <trkpt lat="49.57194" lon="-1.37229">
        <ele>65.5</ele>
        <time>2020-06-15T13:16:00Z</time>
      </trkpt>
      <trkpt lat="49.5719" lon="-1.37239">
        <ele>65.3</ele>
        <time>2020-06-15T13:16:01Z</time>
      </trkpt>
      <trkpt lat="49.57186" lon="-1.37249">
        <ele>65.1</ele>
        <time>2020-06-15T13:16:02Z</time>
      </trkpt>
      <trkpt lat="49.57182" lon="-1.3726">
        <ele>64.9</ele>
        <time>2020-06-15T13:16:03Z</time>
      </trkpt>
      <trkpt lat="49.57177" lon="-1.37269">
        <ele>64.7</ele>
        <time>2020-06-15T13:16:04Z</time>
      </trkpt>
      <trkpt lat="49.57172" lon="-1.37279">
        <ele>64.5</ele>
        <time>2020-06-15T13:16:05Z</time>
      </trkpt>
      <trkpt lat="49.57166" lon="-1.37288">
        <ele>64.3</ele>
        <time>2020-06-15T13:16:06Z</time>
      </trkpt>
      <trkpt lat="49.57161" lon="-1.37298">
        <ele>64.2</ele>
        <time>2020-06-15T13:16:07Z</time>
      </trkpt>
      <trkpt lat="49.57156" lon="-1.37308">
        <ele>64.1</ele>
        <time>2020-06-15T13:16:08Z</time>
      </trkpt>
      <trkpt lat="49.57152" lon="-1.37318">
        <ele>63.9</ele>
        <time>2020-06-15T13:16:09Z</time>
      </trkpt>
      <trkpt lat="49.57148" lon="-1.37329">
        <ele>63.8</ele>
        <time>2020-06-15T13:16:10Z</time>
      </trkpt>
      <trkpt lat="49.57143" lon="-1.37339">
        <ele>63.7</ele>
        <time>2020-06-15T13:16:11Z</time>
      </trkpt>
      <trkpt lat="49.57138" lon="-1.3735">
        <ele>63.7</ele>
        <time>2020-06-15T13:16:12Z</time>
      </trkpt>
      <trkpt lat="49.57133" lon="-1.37359">
        <ele>63.7</ele>
        <time>2020-06-15T13:16:13Z</time>
      </trkpt>
      <trkpt lat="49.57128" lon="-1.37369">
        <ele>63.8</ele>
        <time>2020-06-15T13:16:14Z</time>
      </trkpt>
      <trkpt lat="49.57124" lon="-1.37379">
        <ele>63.9</ele>
        <time>2020-06-15T13:16:15Z</time>
      </trkpt>
      <trkpt lat="49.57119" lon="-1.37388">
        <ele>64.1</ele>
        <time>2020-06-15T13:16:16Z</time>
      </trkpt>
      <trkpt lat="49.57114" lon="-1.37398">
        <ele>64.3</ele>
        <time>2020-06-15T13:16:17Z</time>
      </trkpt>
      <trkpt lat="49.5711" lon="-1.37407">
        <ele>64.4</ele>
        <time>2020-06-15T13:16:18Z</time>
      </trkpt>
      <trkpt lat="49.57105" lon="-1.37415">
        <ele>64.2</ele>
        <time>2020-06-15T13:16:19Z</time>
      </trkpt>
      <trkpt lat="49.57101" lon="-1.37425">
        <ele>64.1</ele>
        <time>2020-06-15T13:16:20Z</time>
      </trkpt>
      <trkpt lat="49.57096" lon="-1.37434">
        <ele>64.1</ele>
        <time>2020-06-15T13:16:21Z</time>
      </trkpt>
      <trkpt lat="49.57092" lon="-1.37442">
        <ele>64.1</ele>
        <time>2020-06-15T13:16:22Z</time>
      </trkpt>
      <trkpt lat="49.57088" lon="-1.37451">
        <ele>64.2</ele>
        <time>2020-06-15T13:16:23Z</time>
      </trkpt>
      <trkpt lat="49.57084" lon="-1.37459">
        <ele>64.4</ele>
        <time>2020-06-15T13:16:24Z</time>
      </trkpt>
      <trkpt lat="49.5708" lon="-1.37467">
        <ele>64.6</ele>
        <time>2020-06-15T13:16:25Z</time>
      </trkpt>
      <trkpt lat="49.57076" lon="-1.37475">
        <ele>64.8</ele>
        <time>2020-06-15T13:16:26Z</time>
      </trkpt>
      <trkpt lat="49.57072" lon="-1.37483">
        <ele>65</ele>
        <time>2020-06-15T13:16:27Z</time>
      </trkpt>
      <trkpt lat="49.57068" lon="-1.37491">
        <ele>65.2</ele>
        <time>2020-06-15T13:16:28Z</time>
      </trkpt>
      <trkpt lat="49.57064" lon="-1.37499">
        <ele>65.4</ele>
        <time>2020-06-15T13:16:29Z</time>
      </trkpt>
      <trkpt lat="49.57061" lon="-1.37507">
        <ele>65.6</ele>
        <time>2020-06-15T13:16:30Z</time>
      </trkpt>
      <trkpt lat="49.57057" lon="-1.37514">
        <ele>65.8</ele>
        <time>2020-06-15T13:16:31Z</time>
      </trkpt>
      <trkpt lat="49.57053" lon="-1.37522">
        <ele>66</ele>
        <time>2020-06-15T13:16:32Z</time>
      </trkpt>
      <trkpt lat="49.57049" lon="-1.37529">
        <ele>66.2</ele>
        <time>2020-06-15T13:16:33Z</time>
      </trkpt>
      <trkpt lat="49.57045" lon="-1.37536">
        <ele>66.5</ele>
        <time>2020-06-15T13:16:34Z</time>
      </trkpt>
      <trkpt lat="49.57041" lon="-1.37544">
        <ele>66.7</ele>
        <time>2020-06-15T13:16:35Z</time>
      </trkpt>
      <trkpt lat="49.57038" lon="-1.37551">
        <ele>66.9</ele>
        <time>2020-06-15T13:16:36Z</time>
      </trkpt>
      <trkpt lat="49.57034" lon="-1.37558">
        <ele>67.1</ele>
        <time>2020-06-15T13:16:37Z</time>
      </trkpt>
      <trkpt lat="49.57031" lon="-1.37566">
        <ele>67.3</ele>
        <time>2020-06-15T13:16:38Z</time>
      </trkpt>
      <trkpt lat="49.57027" lon="-1.37574">
        <ele>67.5</ele>
        <time>2020-06-15T13:16:39Z</time>
      </trkpt>
      <trkpt lat="49.57024" lon="-1.37581">
        <ele>67.8</ele>
        <time>2020-06-15T13:16:40Z</time>
      </trkpt>
      <trkpt lat="49.5702" lon="-1.37588">
        <ele>68</ele>
        <time>2020-06-15T13:16:41Z</time>
      </trkpt>
      <trkpt lat="49.57017" lon="-1.37594">
        <ele>68.2</ele>
        <time>2020-06-15T13:16:42Z</time>
      </trkpt>
      <trkpt lat="49.57014" lon="-1.37599">
        <ele>68.3</ele>
        <time>2020-06-15T13:16:43Z</time>
      </trkpt>
      <trkpt lat="49.57011" lon="-1.37604">
        <ele>68.5</ele>
        <time>2020-06-15T13:16:44Z</time>
      </trkpt>
      <trkpt lat="49.57007" lon="-1.3761">
        <ele>68.6</ele>
        <time>2020-06-15T13:16:45Z</time>
      </trkpt>
      <trkpt lat="49.57004" lon="-1.37617">
        <ele>68.6</ele>
        <time>2020-06-15T13:16:46Z</time>
      </trkpt>
      <trkpt lat="49.57001" lon="-1.37624">
        <ele>68.6</ele>
        <time>2020-06-15T13:16:47Z</time>
      </trkpt>
      <trkpt lat="49.56998" lon="-1.37632">
        <ele>68.6</ele>
        <time>2020-06-15T13:16:48Z</time>
      </trkpt>
      <trkpt lat="49.56993" lon="-1.3764">
        <ele>68.6</ele>
        <time>2020-06-15T13:16:49Z</time>
      </trkpt>
      <trkpt lat="49.56988" lon="-1.37649">
        <ele>68.5</ele>
        <time>2020-06-15T13:16:50Z</time>
      </trkpt>
      <trkpt lat="49.56983" lon="-1.37657">
        <ele>68.3</ele>
        <time>2020-06-15T13:16:51Z</time>
      </trkpt>
      <trkpt lat="49.56978" lon="-1.37665">
        <ele>68.1</ele>
        <time>2020-06-15T13:16:52Z</time>
      </trkpt>
      <trkpt lat="49.56973" lon="-1.37675">
        <ele>67.8</ele>
        <time>2020-06-15T13:16:53Z</time>
      </trkpt>
      <trkpt lat="49.56968" lon="-1.37686">
        <ele>67.4</ele>
        <time>2020-06-15T13:16:54Z</time>
      </trkpt>
      <trkpt lat="49.56963" lon="-1.37697">
        <ele>67.1</ele>
        <time>2020-06-15T13:16:55Z</time>
      </trkpt>
      <trkpt lat="49.56957" lon="-1.37709">
        <ele>66.7</ele>
        <time>2020-06-15T13:16:56Z</time>
      </trkpt>
      <trkpt lat="49.5695" lon="-1.37721">
        <ele>66.2</ele>
        <time>2020-06-15T13:16:57Z</time>
      </trkpt>
      <trkpt lat="49.56945" lon="-1.37733">
        <ele>65.8</ele>
        <time>2020-06-15T13:16:58Z</time>
      </trkpt>
      <trkpt lat="49.56939" lon="-1.37745">
        <ele>65.3</ele>
        <time>2020-06-15T13:16:59Z</time>
      </trkpt>
      <trkpt lat="49.56932" lon="-1.37758">
        <ele>64.7</ele>
        <time>2020-06-15T13:17:00Z</time>
      </trkpt>
      <trkpt lat="49.56925" lon="-1.37771">
        <ele>64.2</ele>
        <time>2020-06-15T13:17:01Z</time>
      </trkpt>
      <trkpt lat="49.56918" lon="-1.37784">
        <ele>63.6</ele>
        <time>2020-06-15T13:17:02Z</time>
      </trkpt>
      <trkpt lat="49.56911" lon="-1.37799">
        <ele>62.9</ele>
        <time>2020-06-15T13:17:03Z</time>
      </trkpt>
      <trkpt lat="49.56904" lon="-1.37813">
        <ele>62.1</ele>
        <time>2020-06-15T13:17:04Z</time>
      </trkpt>
      <trkpt lat="49.56896" lon="-1.37827">
        <ele>61.3</ele>
        <time>2020-06-15T13:17:05Z</time>
      </trkpt>
      <trkpt lat="49.56888" lon="-1.37841">
        <ele>60.6</ele>
        <time>2020-06-15T13:17:06Z</time>
      </trkpt>
      <trkpt lat="49.56881" lon="-1.37855">
        <ele>59.9</ele>
        <time>2020-06-15T13:17:07Z</time>
      </trkpt>
      <trkpt lat="49.56873" lon="-1.37869">
        <ele>59</ele>
        <time>2020-06-15T13:17:08Z</time>
      </trkpt>
      <trkpt lat="49.56865" lon="-1.37885">
        <ele>58.1</ele>
        <time>2020-06-15T13:17:09Z</time>
      </trkpt>
      <trkpt lat="49.56857" lon="-1.37901">
        <ele>57.1</ele>
        <time>2020-06-15T13:17:10Z</time>
      </trkpt>
      <trkpt lat="49.56849" lon="-1.37917">
        <ele>56.1</ele>
        <time>2020-06-15T13:17:11Z</time>
      </trkpt>
      <trkpt lat="49.56842" lon="-1.37936">
        <ele>54.9</ele>
        <time>2020-06-15T13:17:12Z</time>
      </trkpt>
      <trkpt lat="49.56835" lon="-1.37953">
        <ele>53.9</ele>
        <time>2020-06-15T13:17:13Z</time>
      </trkpt>
      <trkpt lat="49.56826" lon="-1.3797">
        <ele>52.8</ele>
        <time>2020-06-15T13:17:14Z</time>
      </trkpt>
      <trkpt lat="49.56819" lon="-1.37987">
        <ele>52</ele>
        <time>2020-06-15T13:17:15Z</time>
      </trkpt>
      <trkpt lat="49.5681" lon="-1.38004">
        <ele>51.3</ele>
        <time>2020-06-15T13:17:16Z</time>
      </trkpt>
      <trkpt lat="49.56802" lon="-1.38019">
        <ele>50.7</ele>
        <time>2020-06-15T13:17:17Z</time>
      </trkpt>
      <trkpt lat="49.56794" lon="-1.38034">
        <ele>49.8</ele>
        <time>2020-06-15T13:17:18Z</time>
      </trkpt>
      <trkpt lat="49.56786" lon="-1.38049">
        <ele>48.3</ele>
        <time>2020-06-15T13:17:19Z</time>
      </trkpt>
      <trkpt lat="49.56778" lon="-1.38065">
        <ele>47.2</ele>
        <time>2020-06-15T13:17:20Z</time>
      </trkpt>
      <trkpt lat="49.56771" lon="-1.38079">
        <ele>46.3</ele>
        <time>2020-06-15T13:17:21Z</time>
      </trkpt>
      <trkpt lat="49.56763" lon="-1.38093">
        <ele>45.6</ele>
        <time>2020-06-15T13:17:22Z</time>
      </trkpt>
      <trkpt lat="49.56756" lon="-1.38107">
        <ele>45.2</ele>
        <time>2020-06-15T13:17:23Z</time>
      </trkpt>
      <trkpt lat="49.56749" lon="-1.38121">
        <ele>45</ele>
        <time>2020-06-15T13:17:24Z</time>
      </trkpt>
      <trkpt lat="49.56742" lon="-1.38134">
        <ele>44.7</ele>
        <time>2020-06-15T13:17:25Z</time>
      </trkpt>
      <trkpt lat="49.56736" lon="-1.38147">
        <ele>44.6</ele>
        <time>2020-06-15T13:17:26Z</time>
      </trkpt>
      <trkpt lat="49.56729" lon="-1.38159">
        <ele>44.4</ele>
        <time>2020-06-15T13:17:27Z</time>
      </trkpt>
      <trkpt lat="49.56723" lon="-1.38171">
        <ele>44.4</ele>
        <time>2020-06-15T13:17:28Z</time>
      </trkpt>
      <trkpt lat="49.56717" lon="-1.38182">
        <ele>44.5</ele>
        <time>2020-06-15T13:17:29Z</time>
      </trkpt>
      <trkpt lat="49.56711" lon="-1.38194">
        <ele>44.7</ele>
        <time>2020-06-15T13:17:30Z</time>
      </trkpt>
      <trkpt lat="49.56704" lon="-1.38205">
        <ele>45</ele>
        <time>2020-06-15T13:17:31Z</time>
      </trkpt>
      <trkpt lat="49.56698" lon="-1.38217">
        <ele>45.1</ele>
        <time>2020-06-15T13:17:32Z</time>
      </trkpt>
      <trkpt lat="49.56693" lon="-1.38227">
        <ele>44.9</ele>
        <time>2020-06-15T13:17:33Z</time>
      </trkpt>
      <trkpt lat="49.56688" lon="-1.38237">
        <ele>44.9</ele>
        <time>2020-06-15T13:17:34Z</time>
      </trkpt>
      <trkpt lat="49.56683" lon="-1.38247">
        <ele>45</ele>
        <time>2020-06-15T13:17:35Z</time>
      </trkpt>
      <trkpt lat="49.56678" lon="-1.38257">
        <ele>45.2</ele>
        <time>2020-06-15T13:17:36Z</time>
      </trkpt>
      <trkpt lat="49.56673" lon="-1.38265">
        <ele>45.4</ele>
        <time>2020-06-15T13:17:37Z</time>
      </trkpt>
      <trkpt lat="49.56669" lon="-1.38273">
        <ele>45.7</ele>
        <time>2020-06-15T13:17:38Z</time>
      </trkpt>
      <trkpt lat="49.56665" lon="-1.38281">
        <ele>46.1</ele>
        <time>2020-06-15T13:17:39Z</time>
      </trkpt>
      <trkpt lat="49.56662" lon="-1.38289">
        <ele>46.4</ele>
        <time>2020-06-15T13:17:40Z</time>
      </trkpt>
      <trkpt lat="49.56658" lon="-1.38295">
        <ele>46.8</ele>
        <time>2020-06-15T13:17:41Z</time>
      </trkpt>
      <trkpt lat="49.56655" lon="-1.38301">
        <ele>47.2</ele>
        <time>2020-06-15T13:17:42Z</time>
      </trkpt>
      <trkpt lat="49.56651" lon="-1.38307">
        <ele>47.5</ele>
        <time>2020-06-15T13:17:43Z</time>
      </trkpt>
      <trkpt lat="49.56647" lon="-1.38312">
        <ele>47.8</ele>
        <time>2020-06-15T13:17:44Z</time>
      </trkpt>
      <trkpt lat="49.56644" lon="-1.38318">
        <ele>48.1</ele>
        <time>2020-06-15T13:17:45Z</time>
      </trkpt>
      <trkpt lat="49.56642" lon="-1.38324">
        <ele>48.5</ele>
        <time>2020-06-15T13:17:46Z</time>
      </trkpt>
      <trkpt lat="49.5664" lon="-1.38329">
        <ele>48.8</ele>
        <time>2020-06-15T13:17:47Z</time>
      </trkpt>
      <trkpt lat="49.56638" lon="-1.38333">
        <ele>49.1</ele>
        <time>2020-06-15T13:17:48Z</time>
      </trkpt>
      <trkpt lat="49.56635" lon="-1.38338">
        <ele>49.4</ele>
        <time>2020-06-15T13:17:49Z</time>
      </trkpt>
      <trkpt lat="49.56632" lon="-1.38342">
        <ele>49.7</ele>
        <time>2020-06-15T13:17:50Z</time>
      </trkpt>
      <trkpt lat="49.56631" lon="-1.38347">
        <ele>49.9</ele>
        <time>2020-06-15T13:17:51Z</time>
      </trkpt>
      <trkpt lat="49.56629" lon="-1.38351">
        <ele>50.2</ele>
        <time>2020-06-15T13:17:52Z</time>
      </trkpt>
      <trkpt lat="49.56626" lon="-1.38356">
        <ele>50.5</ele>
        <time>2020-06-15T13:17:53Z</time>
      </trkpt>
      <trkpt lat="49.56626" lon="-1.38358">
        <ele>50.6</ele>
        <time>2020-06-15T13:17:54Z</time>
      </trkpt>
      <trkpt lat="49.56624" lon="-1.38362">
        <ele>50.9</ele>
        <time>2020-06-15T13:17:55Z</time>
      </trkpt>
      <trkpt lat="49.56621" lon="-1.38369">
        <ele>51.3</ele>
        <time>2020-06-15T13:17:56Z</time>
      </trkpt>
      <trkpt lat="49.56619" lon="-1.38372">
        <ele>51.5</ele>
        <time>2020-06-15T13:17:57Z</time>
      </trkpt>
      <trkpt lat="49.56617" lon="-1.38376">
        <ele>51.7</ele>
        <time>2020-06-15T13:17:58Z</time>
      </trkpt>
      <trkpt lat="49.56616" lon="-1.38378">
        <ele>51.9</ele>
        <time>2020-06-15T13:17:59Z</time>
      </trkpt>
      <trkpt lat="49.56614" lon="-1.38382">
        <ele>52.1</ele>
        <time>2020-06-15T13:18:00Z</time>
      </trkpt>
      <trkpt lat="49.56612" lon="-1.38386">
        <ele>52.4</ele>
        <time>2020-06-15T13:18:01Z</time>
      </trkpt>
      <trkpt lat="49.5661" lon="-1.38391">
        <ele>52.8</ele>
        <time>2020-06-15T13:18:02Z</time>
      </trkpt>
      <trkpt lat="49.56607" lon="-1.38396">
        <ele>53.1</ele>
        <time>2020-06-15T13:18:03Z</time>
      </trkpt>
      <trkpt lat="49.56606" lon="-1.38399">
        <ele>53.3</ele>
        <time>2020-06-15T13:18:04Z</time>
      </trkpt>
      <trkpt lat="49.56604" lon="-1.38403">
        <ele>53.6</ele>
        <time>2020-06-15T13:18:05Z</time>
      </trkpt>
      <trkpt lat="49.56602" lon="-1.38407">
        <ele>53.8</ele>
        <time>2020-06-15T13:18:06Z</time>
      </trkpt>
      <trkpt lat="49.56599" lon="-1.38411">
        <ele>54.2</ele>
        <time>2020-06-15T13:18:07Z</time>
      </trkpt>
      <trkpt lat="49.56598" lon="-1.38414">
        <ele>54.4</ele>
        <time>2020-06-15T13:18:08Z</time>
      </trkpt>
      <trkpt lat="49.56596" lon="-1.38418">
        <ele>54.7</ele>
        <time>2020-06-15T13:18:09Z</time>
      </trkpt>
      <trkpt lat="49.56594" lon="-1.38424">
        <ele>55</ele>
        <time>2020-06-15T13:18:10Z</time>
      </trkpt>
      <trkpt lat="49.56593" lon="-1.38428">
        <ele>55.2</ele>
        <time>2020-06-15T13:18:11Z</time>
      </trkpt>
      <trkpt lat="49.56591" lon="-1.38432">
        <ele>55.5</ele>
        <time>2020-06-15T13:18:12Z</time>
      </trkpt>
      <trkpt lat="49.5659" lon="-1.38435">
        <ele>55.7</ele>
        <time>2020-06-15T13:18:13Z</time>
      </trkpt>
      <trkpt lat="49.56589" lon="-1.38437">
        <ele>55.8</ele>
        <time>2020-06-15T13:18:14Z</time>
      </trkpt>
      <trkpt lat="49.56587" lon="-1.38442">
        <ele>56.1</ele>
        <time>2020-06-15T13:18:15Z</time>
      </trkpt>
      <trkpt lat="49.56585" lon="-1.38447">
        <ele>56.4</ele>
        <time>2020-06-15T13:18:16Z</time>
      </trkpt>
      <trkpt lat="49.56583" lon="-1.38453">
        <ele>56.7</ele>
        <time>2020-06-15T13:18:17Z</time>
      </trkpt>
      <trkpt lat="49.56581" lon="-1.38458">
        <ele>57.1</ele>
        <time>2020-06-15T13:18:18Z</time>
      </trkpt>
      <trkpt lat="49.56579" lon="-1.38461">
        <ele>57.3</ele>
        <time>2020-06-15T13:18:19Z</time>
      </trkpt>
      <trkpt lat="49.56577" lon="-1.38465">
        <ele>57.5</ele>
        <time>2020-06-15T13:18:20Z</time>
      </trkpt>
      <trkpt lat="49.56574" lon="-1.38471">
        <ele>57.8</ele>
        <time>2020-06-15T13:18:21Z</time>
      </trkpt>
      <trkpt lat="49.56572" lon="-1.38474">
        <ele>58</ele>
        <time>2020-06-15T13:18:22Z</time>
      </trkpt>
      <trkpt lat="49.5657" lon="-1.38478">
        <ele>58.3</ele>
        <time>2020-06-15T13:18:23Z</time>
      </trkpt>
      <trkpt lat="49.56568" lon="-1.38481">
        <ele>58.5</ele>
        <time>2020-06-15T13:18:24Z</time>
      </trkpt>
      <trkpt lat="49.56566" lon="-1.38486">
        <ele>58.7</ele>
        <time>2020-06-15T13:18:25Z</time>
      </trkpt>
      <trkpt lat="49.56563" lon="-1.38491">
        <ele>59</ele>
        <time>2020-06-15T13:18:26Z</time>
      </trkpt>
      <trkpt lat="49.56561" lon="-1.38495">
        <ele>59.2</ele>
        <time>2020-06-15T13:18:27Z</time>
      </trkpt>
      <trkpt lat="49.56559" lon="-1.38499">
        <ele>59.4</ele>
        <time>2020-06-15T13:18:28Z</time>
      </trkpt>
      <trkpt lat="49.56556" lon="-1.38503">
        <ele>59.6</ele>
        <time>2020-06-15T13:18:29Z</time>
      </trkpt>
      <trkpt lat="49.56555" lon="-1.38506">
        <ele>59.8</ele>
        <time>2020-06-15T13:18:30Z</time>
      </trkpt>
      <trkpt lat="49.56551" lon="-1.38513">
        <ele>60.2</ele>
        <time>2020-06-15T13:18:31Z</time>
      </trkpt>
      <trkpt lat="49.56548" lon="-1.38518">
        <ele>60.5</ele>
        <time>2020-06-15T13:18:32Z</time>
      </trkpt>
      <trkpt lat="49.56547" lon="-1.3852">
        <ele>60.6</ele>
        <time>2020-06-15T13:18:33Z</time>
      </trkpt>
      <trkpt lat="49.56544" lon="-1.38525">
        <ele>60.8</ele>
        <time>2020-06-15T13:18:34Z</time>
      </trkpt>
      <trkpt lat="49.56542" lon="-1.38529">
        <ele>61</ele>
        <time>2020-06-15T13:18:35Z</time>
      </trkpt>
      <trkpt lat="49.5654" lon="-1.38534">
        <ele>61.2</ele>
        <time>2020-06-15T13:18:36Z</time>
      </trkpt>
      <trkpt lat="49.56538" lon="-1.38541">
        <ele>61.5</ele>
        <time>2020-06-15T13:18:37Z</time>
      </trkpt>
      <trkpt lat="49.56536" lon="-1.38545">
        <ele>61.7</ele>
        <time>2020-06-15T13:18:38Z</time>
      </trkpt>
      <trkpt lat="49.56532" lon="-1.3855">
        <ele>62</ele>
        <time>2020-06-15T13:18:39Z</time>
      </trkpt>
      <trkpt lat="49.5653" lon="-1.38554">
        <ele>62.2</ele>
        <time>2020-06-15T13:18:40Z</time>
      </trkpt>
      <trkpt lat="49.56527" lon="-1.3856">
        <ele>62.5</ele>
        <time>2020-06-15T13:18:41Z</time>
      </trkpt>
      <trkpt lat="49.56526" lon="-1.38562">
        <ele>62.6</ele>
        <time>2020-06-15T13:18:42Z</time>
      </trkpt>
      <trkpt lat="49.56523" lon="-1.38566">
        <ele>62.8</ele>
        <time>2020-06-15T13:18:43Z</time>
      </trkpt>
      <trkpt lat="49.56521" lon="-1.38572">
        <ele>63</ele>
        <time>2020-06-15T13:18:44Z</time>
      </trkpt>
      <trkpt lat="49.56519" lon="-1.38577">
        <ele>63.2</ele>
        <time>2020-06-15T13:18:45Z</time>
      </trkpt>
      <trkpt lat="49.56517" lon="-1.3858">
        <ele>63.4</ele>
        <time>2020-06-15T13:18:46Z</time>
      </trkpt>
      <trkpt lat="49.56515" lon="-1.38584">
        <ele>63.5</ele>
        <time>2020-06-15T13:18:47Z</time>
      </trkpt>
      <trkpt lat="49.56513" lon="-1.38588">
        <ele>63.7</ele>
        <time>2020-06-15T13:18:48Z</time>
      </trkpt>
      <trkpt lat="49.5651" lon="-1.38592">
        <ele>63.9</ele>
        <time>2020-06-15T13:18:49Z</time>
      </trkpt>
      <trkpt lat="49.56507" lon="-1.38598">
        <ele>64.1</ele>
        <time>2020-06-15T13:18:50Z</time>
      </trkpt>
      <trkpt lat="49.56504" lon="-1.38602">
        <ele>64.3</ele>
        <time>2020-06-15T13:18:51Z</time>
      </trkpt>
      <trkpt lat="49.56502" lon="-1.38606">
        <ele>64.5</ele>
        <time>2020-06-15T13:18:52Z</time>
      </trkpt>
      <trkpt lat="49.565" lon="-1.38612">
        <ele>64.7</ele>
        <time>2020-06-15T13:18:53Z</time>
      </trkpt>
      <trkpt lat="49.56498" lon="-1.38618">
        <ele>64.9</ele>
        <time>2020-06-15T13:18:54Z</time>
      </trkpt>
      <trkpt lat="49.56496" lon="-1.38623">
        <ele>65.1</ele>
        <time>2020-06-15T13:18:55Z</time>
      </trkpt>
      <trkpt lat="49.56495" lon="-1.38627">
        <ele>65.2</ele>
        <time>2020-06-15T13:18:56Z</time>
      </trkpt>
      <trkpt lat="49.56493" lon="-1.38631">
        <ele>65.4</ele>
        <time>2020-06-15T13:18:57Z</time>
      </trkpt>
      <trkpt lat="49.56491" lon="-1.38635">
        <ele>65.5</ele>
        <time>2020-06-15T13:18:58Z</time>
      </trkpt>
      <trkpt lat="49.56489" lon="-1.38639">
        <ele>65.7</ele>
        <time>2020-06-15T13:18:59Z</time>
      </trkpt>
      <trkpt lat="49.56487" lon="-1.38643">
        <ele>65.8</ele>
        <time>2020-06-15T13:19:00Z</time>
      </trkpt>
      <trkpt lat="49.56484" lon="-1.38645">
        <ele>66</ele>
        <time>2020-06-15T13:19:01Z</time>
      </trkpt>
      <trkpt lat="49.56482" lon="-1.38652">
        <ele>66.2</ele>
        <time>2020-06-15T13:19:02Z</time>
      </trkpt>
      <trkpt lat="49.56479" lon="-1.38657">
        <ele>66.4</ele>
        <time>2020-06-15T13:19:03Z</time>
      </trkpt>
      <trkpt lat="49.56476" lon="-1.38663">
        <ele>66.6</ele>
        <time>2020-06-15T13:19:04Z</time>
      </trkpt>
      <trkpt lat="49.56473" lon="-1.38668">
        <ele>66.8</ele>
        <time>2020-06-15T13:19:05Z</time>
      </trkpt>
      <trkpt lat="49.5647" lon="-1.38674">
        <ele>67</ele>
        <time>2020-06-15T13:19:06Z</time>
      </trkpt>
      <trkpt lat="49.56468" lon="-1.38679">
        <ele>67.1</ele>
        <time>2020-06-15T13:19:07Z</time>
      </trkpt>
      <trkpt lat="49.56467" lon="-1.38682">
        <ele>67.2</ele>
        <time>2020-06-15T13:19:08Z</time>
      </trkpt>
      <trkpt lat="49.56464" lon="-1.38686">
        <ele>67.3</ele>
        <time>2020-06-15T13:19:09Z</time>
      </trkpt>
      <trkpt lat="49.56461" lon="-1.38691">
        <ele>67.5</ele>
        <time>2020-06-15T13:19:10Z</time>
      </trkpt>
      <trkpt lat="49.56458" lon="-1.38695">
        <ele>67.6</ele>
        <time>2020-06-15T13:19:11Z</time>
      </trkpt>
      <trkpt lat="49.56456" lon="-1.38703">
        <ele>67.7</ele>
        <time>2020-06-15T13:19:12Z</time>
      </trkpt>
      <trkpt lat="49.56453" lon="-1.38708">
        <ele>67.8</ele>
        <time>2020-06-15T13:19:13Z</time>
      </trkpt>
      <trkpt lat="49.56451" lon="-1.38714">
        <ele>67.9</ele>
        <time>2020-06-15T13:19:14Z</time>
      </trkpt>
      <trkpt lat="49.56449" lon="-1.38719">
        <ele>68</ele>
        <time>2020-06-15T13:19:15Z</time>
      </trkpt>
      <trkpt lat="49.56446" lon="-1.38725">
        <ele>68.2</ele>
        <time>2020-06-15T13:19:16Z</time>
      </trkpt>
      <trkpt lat="49.56444" lon="-1.38731">
        <ele>68.3</ele>
        <time>2020-06-15T13:19:17Z</time>
      </trkpt>
      <trkpt lat="49.5644" lon="-1.38737">
        <ele>68.4</ele>
        <time>2020-06-15T13:19:18Z</time>
      </trkpt>
      <trkpt lat="49.56437" lon="-1.38741">
        <ele>68.5</ele>
        <time>2020-06-15T13:19:19Z</time>
      </trkpt>
      <trkpt lat="49.56435" lon="-1.38745">
        <ele>68.6</ele>
        <time>2020-06-15T13:19:20Z</time>
      </trkpt>
      <trkpt lat="49.56433" lon="-1.38751">
        <ele>68.7</ele>
        <time>2020-06-15T13:19:21Z</time>
      </trkpt>
      <trkpt lat="49.5643" lon="-1.38757">
        <ele>68.9</ele>
        <time>2020-06-15T13:19:22Z</time>
      </trkpt>
      <trkpt lat="49.56428" lon="-1.38764">
        <ele>69</ele>
        <time>2020-06-15T13:19:23Z</time>
      </trkpt>
      <trkpt lat="49.56424" lon="-1.3877">
        <ele>69.1</ele>
        <time>2020-06-15T13:19:24Z</time>
      </trkpt>
      <trkpt lat="49.56421" lon="-1.38775">
        <ele>69.2</ele>
        <time>2020-06-15T13:19:25Z</time>
      </trkpt>
      <trkpt lat="49.56418" lon="-1.38779">
        <ele>69.3</ele>
        <time>2020-06-15T13:19:26Z</time>
      </trkpt>
      <trkpt lat="49.56415" lon="-1.38785">
        <ele>69.4</ele>
        <time>2020-06-15T13:19:27Z</time>
      </trkpt>
      <trkpt lat="49.56412" lon="-1.38792">
        <ele>69.5</ele>
        <time>2020-06-15T13:19:28Z</time>
      </trkpt>
      <trkpt lat="49.56409" lon="-1.38798">
        <ele>69.5</ele>
        <time>2020-06-15T13:19:29Z</time>
      </trkpt>
      <trkpt lat="49.56405" lon="-1.38806">
        <ele>69.7</ele>
        <time>2020-06-15T13:19:30Z</time>
      </trkpt>
      <trkpt lat="49.56404" lon="-1.38811">
        <ele>69.7</ele>
        <time>2020-06-15T13:19:31Z</time>
      </trkpt>
      <trkpt lat="49.56401" lon="-1.38817">
        <ele>69.8</ele>
        <time>2020-06-15T13:19:32Z</time>
      </trkpt>
      <trkpt lat="49.56398" lon="-1.38822">
        <ele>69.9</ele>
        <time>2020-06-15T13:19:33Z</time>
      </trkpt>
      <trkpt lat="49.56396" lon="-1.38827">
        <ele>70</ele>
        <time>2020-06-15T13:19:34Z</time>
      </trkpt>
      <trkpt lat="49.56392" lon="-1.38833">
        <ele>70.1</ele>
        <time>2020-06-15T13:19:35Z</time>
      </trkpt>
      <trkpt lat="49.56389" lon="-1.38839">
        <ele>70.1</ele>
        <time>2020-06-15T13:19:36Z</time>
      </trkpt>
      <trkpt lat="49.56386" lon="-1.38847">
        <ele>70.3</ele>
        <time>2020-06-15T13:19:37Z</time>
      </trkpt>
      <trkpt lat="49.56383" lon="-1.38854">
        <ele>70.4</ele>
        <time>2020-06-15T13:19:38Z</time>
      </trkpt>
      <trkpt lat="49.5638" lon="-1.38863">
        <ele>70.5</ele>
        <time>2020-06-15T13:19:39Z</time>
      </trkpt>
      <trkpt lat="49.56377" lon="-1.38869">
        <ele>70.6</ele>
        <time>2020-06-15T13:19:40Z</time>
      </trkpt>
      <trkpt lat="49.56374" lon="-1.38875">
        <ele>70.8</ele>
        <time>2020-06-15T13:19:41Z</time>
      </trkpt>
      <trkpt lat="49.5637" lon="-1.38882">
        <ele>70.9</ele>
        <time>2020-06-15T13:19:42Z</time>
      </trkpt>
      <trkpt lat="49.56367" lon="-1.38888">
        <ele>71</ele>
        <time>2020-06-15T13:19:43Z</time>
      </trkpt>
      <trkpt lat="49.56363" lon="-1.38894">
        <ele>71.1</ele>
        <time>2020-06-15T13:19:44Z</time>
      </trkpt>
      <trkpt lat="49.56361" lon="-1.38899">
        <ele>71.2</ele>
        <time>2020-06-15T13:19:45Z</time>
      </trkpt>
      <trkpt lat="49.56359" lon="-1.38904">
        <ele>71.3</ele>
        <time>2020-06-15T13:19:46Z</time>
      </trkpt>
      <trkpt lat="49.56356" lon="-1.3891">
        <ele>71.5</ele>
        <time>2020-06-15T13:19:47Z</time>
      </trkpt>
      <trkpt lat="49.56354" lon="-1.38917">
        <ele>71.6</ele>
        <time>2020-06-15T13:19:48Z</time>
      </trkpt>
      <trkpt lat="49.5635" lon="-1.38923">
        <ele>71.8</ele>
        <time>2020-06-15T13:19:49Z</time>
      </trkpt>
      <trkpt lat="49.56347" lon="-1.3893">
        <ele>71.9</ele>
        <time>2020-06-15T13:19:50Z</time>
      </trkpt>
      <trkpt lat="49.56344" lon="-1.38935">
        <ele>71.9</ele>
        <time>2020-06-15T13:19:51Z</time>
      </trkpt>
      <trkpt lat="49.56341" lon="-1.38942">
        <ele>71.9</ele>
        <time>2020-06-15T13:19:52Z</time>
      </trkpt>
      <trkpt lat="49.56339" lon="-1.38948">
        <ele>71.6</ele>
        <time>2020-06-15T13:19:53Z</time>
      </trkpt>
      <trkpt lat="49.56336" lon="-1.38955">
        <ele>71.7</ele>
        <time>2020-06-15T13:19:54Z</time>
      </trkpt>
      <trkpt lat="49.56333" lon="-1.3896">
        <ele>71.9</ele>
        <time>2020-06-15T13:19:55Z</time>
      </trkpt>
      <trkpt lat="49.5633" lon="-1.38965">
        <ele>72.1</ele>
        <time>2020-06-15T13:19:56Z</time>
      </trkpt>
      <trkpt lat="49.56327" lon="-1.38969">
        <ele>72.2</ele>
        <time>2020-06-15T13:19:57Z</time>
      </trkpt>
      <trkpt lat="49.56324" lon="-1.38974">
        <ele>72.4</ele>
        <time>2020-06-15T13:19:58Z</time>
      </trkpt>
      <trkpt lat="49.56321" lon="-1.38978">
        <ele>72.5</ele>
        <time>2020-06-15T13:19:59Z</time>
      </trkpt>
      <trkpt lat="49.56318" lon="-1.38982">
        <ele>72.7</ele>
        <time>2020-06-15T13:20:00Z</time>
      </trkpt>
      <trkpt lat="49.56314" lon="-1.38988">
        <ele>72.9</ele>
        <time>2020-06-15T13:20:01Z</time>
      </trkpt>
      <trkpt lat="49.56311" lon="-1.38992">
        <ele>73.1</ele>
        <time>2020-06-15T13:20:02Z</time>
      </trkpt>
      <trkpt lat="49.5631" lon="-1.38996">
        <ele>73.2</ele>
        <time>2020-06-15T13:20:03Z</time>
      </trkpt>
      <trkpt lat="49.56307" lon="-1.39003">
        <ele>73.5</ele>
        <time>2020-06-15T13:20:04Z</time>
      </trkpt>
      <trkpt lat="49.56305" lon="-1.39008">
        <ele>73.7</ele>
        <time>2020-06-15T13:20:05Z</time>
      </trkpt>
      <trkpt lat="49.56302" lon="-1.39013">
        <ele>73.9</ele>
        <time>2020-06-15T13:20:06Z</time>
      </trkpt>
      <trkpt lat="49.56299" lon="-1.3902">
        <ele>74.1</ele>
        <time>2020-06-15T13:20:07Z</time>
      </trkpt>
      <trkpt lat="49.56296" lon="-1.39025">
        <ele>74.4</ele>
        <time>2020-06-15T13:20:08Z</time>
      </trkpt>
      <trkpt lat="49.56294" lon="-1.39029">
        <ele>74.5</ele>
        <time>2020-06-15T13:20:09Z</time>
      </trkpt>
      <trkpt lat="49.56292" lon="-1.39032">
        <ele>74.7</ele>
        <time>2020-06-15T13:20:10Z</time>
      </trkpt>
      <trkpt lat="49.56289" lon="-1.3904">
        <ele>75</ele>
        <time>2020-06-15T13:20:11Z</time>
      </trkpt>
      <trkpt lat="49.56286" lon="-1.39044">
        <ele>75.2</ele>
        <time>2020-06-15T13:20:12Z</time>
      </trkpt>
      <trkpt lat="49.56285" lon="-1.39048">
        <ele>75.3</ele>
        <time>2020-06-15T13:20:13Z</time>
      </trkpt>
      <trkpt lat="49.56283" lon="-1.39051">
        <ele>75.5</ele>
        <time>2020-06-15T13:20:14Z</time>
      </trkpt>
      <trkpt lat="49.56281" lon="-1.39057">
        <ele>75.7</ele>
        <time>2020-06-15T13:20:15Z</time>
      </trkpt>
      <trkpt lat="49.56279" lon="-1.3906">
        <ele>75.9</ele>
        <time>2020-06-15T13:20:16Z</time>
      </trkpt>
      <trkpt lat="49.56276" lon="-1.39066">
        <ele>76.1</ele>
        <time>2020-06-15T13:20:17Z</time>
      </trkpt>
      <trkpt lat="49.56274" lon="-1.39071">
        <ele>76.3</ele>
        <time>2020-06-15T13:20:18Z</time>
      </trkpt>
      <trkpt lat="49.56271" lon="-1.39074">
        <ele>76.5</ele>
        <time>2020-06-15T13:20:19Z</time>
      </trkpt>
      <trkpt lat="49.56267" lon="-1.3908">
        <ele>76.8</ele>
        <time>2020-06-15T13:20:20Z</time>
      </trkpt>
      <trkpt lat="49.56265" lon="-1.39086">
        <ele>77.1</ele>
        <time>2020-06-15T13:20:21Z</time>
      </trkpt>
      <trkpt lat="49.56264" lon="-1.3909">
        <ele>77.2</ele>
        <time>2020-06-15T13:20:22Z</time>
      </trkpt>
      <trkpt lat="49.56262" lon="-1.39094">
        <ele>77.4</ele>
        <time>2020-06-15T13:20:23Z</time>
      </trkpt>
      <trkpt lat="49.56259" lon="-1.39101">
        <ele>77.6</ele>
        <time>2020-06-15T13:20:24Z</time>
      </trkpt>
      <trkpt lat="49.56257" lon="-1.39106">
        <ele>77.8</ele>
        <time>2020-06-15T13:20:25Z</time>
      </trkpt>
      <trkpt lat="49.56255" lon="-1.3911">
        <ele>77.9</ele>
        <time>2020-06-15T13:20:26Z</time>
      </trkpt>
      <trkpt lat="49.56253" lon="-1.39116">
        <ele>78.1</ele>
        <time>2020-06-15T13:20:27Z</time>
      </trkpt>
      <trkpt lat="49.5625" lon="-1.39122">
        <ele>78.3</ele>
        <time>2020-06-15T13:20:28Z</time>
      </trkpt>
      <trkpt lat="49.56247" lon="-1.39128">
        <ele>78.5</ele>
        <time>2020-06-15T13:20:29Z</time>
      </trkpt>
      <trkpt lat="49.56245" lon="-1.39133">
        <ele>78.6</ele>
        <time>2020-06-15T13:20:30Z</time>
      </trkpt>
      <trkpt lat="49.56242" lon="-1.39139">
        <ele>78.7</ele>
        <time>2020-06-15T13:20:31Z</time>
      </trkpt>
      <trkpt lat="49.5624" lon="-1.39145">
        <ele>78.8</ele>
        <time>2020-06-15T13:20:32Z</time>
      </trkpt>
      <trkpt lat="49.56237" lon="-1.39149">
        <ele>78.9</ele>
        <time>2020-06-15T13:20:33Z</time>
      </trkpt>
      <trkpt lat="49.56234" lon="-1.39155">
        <ele>78.9</ele>
        <time>2020-06-15T13:20:34Z</time>
      </trkpt>
      <trkpt lat="49.56231" lon="-1.3916">
        <ele>78.9</ele>
        <time>2020-06-15T13:20:35Z</time>
      </trkpt>
      <trkpt lat="49.56228" lon="-1.39166">
        <ele>79</ele>
        <time>2020-06-15T13:20:36Z</time>
      </trkpt>
      <trkpt lat="49.56224" lon="-1.39171">
        <ele>79</ele>
        <time>2020-06-15T13:20:37Z</time>
      </trkpt>
      <trkpt lat="49.56222" lon="-1.39178">
        <ele>79</ele>
        <time>2020-06-15T13:20:38Z</time>
      </trkpt>
      <trkpt lat="49.56219" lon="-1.39186">
        <ele>79</ele>
        <time>2020-06-15T13:20:39Z</time>
      </trkpt>
      <trkpt lat="49.56215" lon="-1.39194">
        <ele>78.9</ele>
        <time>2020-06-15T13:20:40Z</time>
      </trkpt>
      <trkpt lat="49.56211" lon="-1.39202">
        <ele>78.9</ele>
        <time>2020-06-15T13:20:41Z</time>
      </trkpt>
      <trkpt lat="49.56208" lon="-1.39208">
        <ele>78.8</ele>
        <time>2020-06-15T13:20:42Z</time>
      </trkpt>
      <trkpt lat="49.56204" lon="-1.39213">
        <ele>78.8</ele>
        <time>2020-06-15T13:20:43Z</time>
      </trkpt>
      <trkpt lat="49.562" lon="-1.3922">
        <ele>78.7</ele>
        <time>2020-06-15T13:20:44Z</time>
      </trkpt>
      <trkpt lat="49.56197" lon="-1.39225">
        <ele>78.7</ele>
        <time>2020-06-15T13:20:45Z</time>
      </trkpt>
      <trkpt lat="49.56194" lon="-1.3923">
        <ele>78.7</ele>
        <time>2020-06-15T13:20:46Z</time>
      </trkpt>
      <trkpt lat="49.56191" lon="-1.39237">
        <ele>78.7</ele>
        <time>2020-06-15T13:20:47Z</time>
      </trkpt>
      <trkpt lat="49.56189" lon="-1.39243">
        <ele>78.6</ele>
        <time>2020-06-15T13:20:48Z</time>
      </trkpt>
      <trkpt lat="49.56186" lon="-1.39249">
        <ele>78.6</ele>
        <time>2020-06-15T13:20:49Z</time>
      </trkpt>
      <trkpt lat="49.56183" lon="-1.39255">
        <ele>78.5</ele>
        <time>2020-06-15T13:20:50Z</time>
      </trkpt>
      <trkpt lat="49.56181" lon="-1.3926">
        <ele>78.5</ele>
        <time>2020-06-15T13:20:51Z</time>
      </trkpt>
      <trkpt lat="49.56178" lon="-1.39267">
        <ele>78.4</ele>
        <time>2020-06-15T13:20:52Z</time>
      </trkpt>
      <trkpt lat="49.56175" lon="-1.39272">
        <ele>78.3</ele>
        <time>2020-06-15T13:20:53Z</time>
      </trkpt>
      <trkpt lat="49.56172" lon="-1.39277">
        <ele>78.3</ele>
        <time>2020-06-15T13:20:54Z</time>
      </trkpt>
      <trkpt lat="49.56169" lon="-1.39282">
        <ele>78.2</ele>
        <time>2020-06-15T13:20:55Z</time>
      </trkpt>
      <trkpt lat="49.56165" lon="-1.39291">
        <ele>78.2</ele>
        <time>2020-06-15T13:20:56Z</time>
      </trkpt>
      <trkpt lat="49.56162" lon="-1.39297">
        <ele>78.1</ele>
        <time>2020-06-15T13:20:57Z</time>
      </trkpt>
      <trkpt lat="49.5616" lon="-1.39302">
        <ele>78.1</ele>
        <time>2020-06-15T13:20:58Z</time>
      </trkpt>
      <trkpt lat="49.56157" lon="-1.39308">
        <ele>78.1</ele>
        <time>2020-06-15T13:20:59Z</time>
      </trkpt>
      <trkpt lat="49.56154" lon="-1.39314">
        <ele>78.1</ele>
        <time>2020-06-15T13:21:00Z</time>
      </trkpt>
      <trkpt lat="49.56151" lon="-1.39321">
        <ele>78.2</ele>
        <time>2020-06-15T13:21:01Z</time>
      </trkpt>
      <trkpt lat="49.56149" lon="-1.39325">
        <ele>78.2</ele>
        <time>2020-06-15T13:21:02Z</time>
      </trkpt>
      <trkpt lat="49.56146" lon="-1.3933">
        <ele>78.3</ele>
        <time>2020-06-15T13:21:03Z</time>
      </trkpt>
      <trkpt lat="49.56144" lon="-1.39334">
        <ele>78.3</ele>
        <time>2020-06-15T13:21:04Z</time>
      </trkpt>
      <trkpt lat="49.56141" lon="-1.39337">
        <ele>78.4</ele>
        <time>2020-06-15T13:21:05Z</time>
      </trkpt>
      <trkpt lat="49.56138" lon="-1.39341">
        <ele>78.5</ele>
        <time>2020-06-15T13:21:06Z</time>
      </trkpt>
      <trkpt lat="49.56136" lon="-1.39343">
        <ele>78.6</ele>
        <time>2020-06-15T13:21:07Z</time>
      </trkpt>
      <trkpt lat="49.56133" lon="-1.39345">
        <ele>78.7</ele>
        <time>2020-06-15T13:21:08Z</time>
      </trkpt>
      <trkpt lat="49.5613" lon="-1.39349">
        <ele>78.8</ele>
        <time>2020-06-15T13:21:09Z</time>
      </trkpt>
      <trkpt lat="49.56128" lon="-1.39354">
        <ele>79</ele>
        <time>2020-06-15T13:21:10Z</time>
      </trkpt>
      <trkpt lat="49.56126" lon="-1.39359">
        <ele>79.1</ele>
        <time>2020-06-15T13:21:11Z</time>
      </trkpt>
      <trkpt lat="49.56124" lon="-1.39366">
        <ele>79.3</ele>
        <time>2020-06-15T13:21:12Z</time>
      </trkpt>
      <trkpt lat="49.56123" lon="-1.39371">
        <ele>79.5</ele>
        <time>2020-06-15T13:21:13Z</time>
      </trkpt>
      <trkpt lat="49.5612" lon="-1.39376">
        <ele>79.7</ele>
        <time>2020-06-15T13:21:14Z</time>
      </trkpt>
      <trkpt lat="49.56118" lon="-1.3938">
        <ele>79.8</ele>
        <time>2020-06-15T13:21:15Z</time>
      </trkpt>
      <trkpt lat="49.56116" lon="-1.39386">
        <ele>80</ele>
        <time>2020-06-15T13:21:16Z</time>
      </trkpt>
      <trkpt lat="49.56114" lon="-1.39392">
        <ele>80.3</ele>
        <time>2020-06-15T13:21:17Z</time>
      </trkpt>
      <trkpt lat="49.56113" lon="-1.39395">
        <ele>80.3</ele>
        <time>2020-06-15T13:21:18Z</time>
      </trkpt>
      <trkpt lat="49.56111" lon="-1.39398">
        <ele>80.5</ele>
        <time>2020-06-15T13:21:19Z</time>
      </trkpt>
      <trkpt lat="49.56108" lon="-1.39405">
        <ele>80.8</ele>
        <time>2020-06-15T13:21:20Z</time>
      </trkpt>
      <trkpt lat="49.56105" lon="-1.39409">
        <ele>81</ele>
        <time>2020-06-15T13:21:21Z</time>
      </trkpt>
      <trkpt lat="49.56102" lon="-1.39413">
        <ele>81.3</ele>
        <time>2020-06-15T13:21:22Z</time>
      </trkpt>
      <trkpt lat="49.56099" lon="-1.3942">
        <ele>81.6</ele>
        <time>2020-06-15T13:21:23Z</time>
      </trkpt>
      <trkpt lat="49.56096" lon="-1.39425">
        <ele>81.8</ele>
        <time>2020-06-15T13:21:24Z</time>
      </trkpt>
      <trkpt lat="49.56094" lon="-1.39431">
        <ele>82.1</ele>
        <time>2020-06-15T13:21:25Z</time>
      </trkpt>
      <trkpt lat="49.56093" lon="-1.39436">
        <ele>82.2</ele>
        <time>2020-06-15T13:21:26Z</time>
      </trkpt>
      <trkpt lat="49.56091" lon="-1.3944">
        <ele>82.4</ele>
        <time>2020-06-15T13:21:27Z</time>
      </trkpt>
      <trkpt lat="49.56087" lon="-1.39446">
        <ele>82.7</ele>
        <time>2020-06-15T13:21:28Z</time>
      </trkpt>
      <trkpt lat="49.56084" lon="-1.39451">
        <ele>82.9</ele>
        <time>2020-06-15T13:21:29Z</time>
      </trkpt>
      <trkpt lat="49.56083" lon="-1.39453">
        <ele>83</ele>
        <time>2020-06-15T13:21:30Z</time>
      </trkpt>
      <trkpt lat="49.56081" lon="-1.3946">
        <ele>83.2</ele>
        <time>2020-06-15T13:21:31Z</time>
      </trkpt>
      <trkpt lat="49.56077" lon="-1.39466">
        <ele>83.3</ele>
        <time>2020-06-15T13:21:32Z</time>
      </trkpt>
      <trkpt lat="49.56073" lon="-1.3947">
        <ele>83.4</ele>
        <time>2020-06-15T13:21:33Z</time>
      </trkpt>
      <trkpt lat="49.56071" lon="-1.39477">
        <ele>83.9</ele>
        <time>2020-06-15T13:21:34Z</time>
      </trkpt>
      <trkpt lat="49.56068" lon="-1.39482">
        <ele>84.1</ele>
        <time>2020-06-15T13:21:35Z</time>
      </trkpt>
      <trkpt lat="49.56065" lon="-1.39488">
        <ele>84.4</ele>
        <time>2020-06-15T13:21:36Z</time>
      </trkpt>
      <trkpt lat="49.56063" lon="-1.39492">
        <ele>84.6</ele>
        <time>2020-06-15T13:21:37Z</time>
      </trkpt>
      <trkpt lat="49.5606" lon="-1.39496">
        <ele>84.8</ele>
        <time>2020-06-15T13:21:38Z</time>
      </trkpt>
      <trkpt lat="49.56057" lon="-1.39502">
        <ele>85.1</ele>
        <time>2020-06-15T13:21:39Z</time>
      </trkpt>
      <trkpt lat="49.56055" lon="-1.39506">
        <ele>85.3</ele>
        <time>2020-06-15T13:21:40Z</time>
      </trkpt>
      <trkpt lat="49.56053" lon="-1.39511">
        <ele>85.6</ele>
        <time>2020-06-15T13:21:41Z</time>
      </trkpt>
      <trkpt lat="49.56051" lon="-1.39517">
        <ele>85.8</ele>
        <time>2020-06-15T13:21:42Z</time>
      </trkpt>
      <trkpt lat="49.56048" lon="-1.39523">
        <ele>86.1</ele>
        <time>2020-06-15T13:21:43Z</time>
      </trkpt>
      <trkpt lat="49.56045" lon="-1.3953">
        <ele>86.4</ele>
        <time>2020-06-15T13:21:44Z</time>
      </trkpt>
      <trkpt lat="49.56043" lon="-1.39536">
        <ele>86.6</ele>
        <time>2020-06-15T13:21:45Z</time>
      </trkpt>
      <trkpt lat="49.56041" lon="-1.39541">
        <ele>86.8</ele>
        <time>2020-06-15T13:21:46Z</time>
      </trkpt>
      <trkpt lat="49.56038" lon="-1.39547">
        <ele>87</ele>
        <time>2020-06-15T13:21:47Z</time>
      </trkpt>
      <trkpt lat="49.56035" lon="-1.39553">
        <ele>87.2</ele>
        <time>2020-06-15T13:21:48Z</time>
      </trkpt>
      <trkpt lat="49.56033" lon="-1.39558">
        <ele>87.3</ele>
        <time>2020-06-15T13:21:49Z</time>
      </trkpt>
      <trkpt lat="49.56029" lon="-1.39565">
        <ele>87.5</ele>
        <time>2020-06-15T13:21:50Z</time>
      </trkpt>
      <trkpt lat="49.56026" lon="-1.39571">
        <ele>87.7</ele>
        <time>2020-06-15T13:21:51Z</time>
      </trkpt>
      <trkpt lat="49.56022" lon="-1.39578">
        <ele>87.8</ele>
        <time>2020-06-15T13:21:52Z</time>
      </trkpt>
      <trkpt lat="49.56018" lon="-1.39585">
        <ele>88</ele>
        <time>2020-06-15T13:21:53Z</time>
      </trkpt>
      <trkpt lat="49.56014" lon="-1.39593">
        <ele>88.2</ele>
        <time>2020-06-15T13:21:54Z</time>
      </trkpt>
      <trkpt lat="49.5601" lon="-1.396">
        <ele>88.4</ele>
        <time>2020-06-15T13:21:55Z</time>
      </trkpt>
      <trkpt lat="49.56007" lon="-1.39605">
        <ele>88.5</ele>
        <time>2020-06-15T13:21:56Z</time>
      </trkpt>
      <trkpt lat="49.56004" lon="-1.39611">
        <ele>88.6</ele>
        <time>2020-06-15T13:21:57Z</time>
      </trkpt>
      <trkpt lat="49.56" lon="-1.39618">
        <ele>88.8</ele>
        <time>2020-06-15T13:21:58Z</time>
      </trkpt>
      <trkpt lat="49.55995" lon="-1.39626">
        <ele>88.9</ele>
        <time>2020-06-15T13:21:59Z</time>
      </trkpt>
      <trkpt lat="49.55991" lon="-1.39634">
        <ele>89</ele>
        <time>2020-06-15T13:22:00Z</time>
      </trkpt>
      <trkpt lat="49.55988" lon="-1.39641">
        <ele>89.1</ele>
        <time>2020-06-15T13:22:01Z</time>
      </trkpt>
      <trkpt lat="49.55985" lon="-1.39648">
        <ele>89.2</ele>
        <time>2020-06-15T13:22:02Z</time>
      </trkpt>
      <trkpt lat="49.55981" lon="-1.39656">
        <ele>89.2</ele>
        <time>2020-06-15T13:22:03Z</time>
      </trkpt>
      <trkpt lat="49.55977" lon="-1.39665">
        <ele>89.4</ele>
        <time>2020-06-15T13:22:04Z</time>
      </trkpt>
      <trkpt lat="49.55974" lon="-1.39671">
        <ele>89.4</ele>
        <time>2020-06-15T13:22:05Z</time>
      </trkpt>
      <trkpt lat="49.55971" lon="-1.39678">
        <ele>89.5</ele>
        <time>2020-06-15T13:22:06Z</time>
      </trkpt>
      <trkpt lat="49.55967" lon="-1.39686">
        <ele>89.6</ele>
        <time>2020-06-15T13:22:07Z</time>
      </trkpt>
      <trkpt lat="49.55962" lon="-1.39694">
        <ele>89.6</ele>
        <time>2020-06-15T13:22:08Z</time>
      </trkpt>
      <trkpt lat="49.55958" lon="-1.39703">
        <ele>89.6</ele>
        <time>2020-06-15T13:22:09Z</time>
      </trkpt>
      <trkpt lat="49.55954" lon="-1.3971">
        <ele>89.6</ele>
        <time>2020-06-15T13:22:10Z</time>
      </trkpt>
      <trkpt lat="49.5595" lon="-1.39718">
        <ele>89.5</ele>
        <time>2020-06-15T13:22:11Z</time>
      </trkpt>
      <trkpt lat="49.55946" lon="-1.39726">
        <ele>89.4</ele>
        <time>2020-06-15T13:22:12Z</time>
      </trkpt>
      <trkpt lat="49.55942" lon="-1.39734">
        <ele>89.4</ele>
        <time>2020-06-15T13:22:13Z</time>
      </trkpt>
      <trkpt lat="49.55938" lon="-1.39742">
        <ele>89.3</ele>
        <time>2020-06-15T13:22:14Z</time>
      </trkpt>
      <trkpt lat="49.55933" lon="-1.3975">
        <ele>89.3</ele>
        <time>2020-06-15T13:22:15Z</time>
      </trkpt>
      <trkpt lat="49.55928" lon="-1.3976">
        <ele>89.3</ele>
        <time>2020-06-15T13:22:16Z</time>
      </trkpt>
      <trkpt lat="49.55924" lon="-1.3977">
        <ele>89.2</ele>
        <time>2020-06-15T13:22:17Z</time>
      </trkpt>
      <trkpt lat="49.55919" lon="-1.39779">
        <ele>89.2</ele>
        <time>2020-06-15T13:22:18Z</time>
      </trkpt>
      <trkpt lat="49.55915" lon="-1.39789">
        <ele>89.1</ele>
        <time>2020-06-15T13:22:19Z</time>
      </trkpt>
      <trkpt lat="49.5591" lon="-1.39798">
        <ele>89</ele>
        <time>2020-06-15T13:22:20Z</time>
      </trkpt>
      <trkpt lat="49.55906" lon="-1.39806">
        <ele>89</ele>
        <time>2020-06-15T13:22:21Z</time>
      </trkpt>
      <trkpt lat="49.55902" lon="-1.39814">
        <ele>88.9</ele>
        <time>2020-06-15T13:22:22Z</time>
      </trkpt>
      <trkpt lat="49.55897" lon="-1.39824">
        <ele>88.8</ele>
        <time>2020-06-15T13:22:23Z</time>
      </trkpt>
      <trkpt lat="49.55892" lon="-1.39833">
        <ele>88.7</ele>
        <time>2020-06-15T13:22:24Z</time>
      </trkpt>
      <trkpt lat="49.55887" lon="-1.39842">
        <ele>88.7</ele>
        <time>2020-06-15T13:22:25Z</time>
      </trkpt>
      <trkpt lat="49.55881" lon="-1.39851">
        <ele>88.7</ele>
        <time>2020-06-15T13:22:26Z</time>
      </trkpt>
      <trkpt lat="49.55876" lon="-1.39861">
        <ele>88.7</ele>
        <time>2020-06-15T13:22:27Z</time>
      </trkpt>
      <trkpt lat="49.55872" lon="-1.3987">
        <ele>88.7</ele>
        <time>2020-06-15T13:22:28Z</time>
      </trkpt>
      <trkpt lat="49.55867" lon="-1.39879">
        <ele>88.7</ele>
        <time>2020-06-15T13:22:29Z</time>
      </trkpt>
      <trkpt lat="49.55862" lon="-1.39888">
        <ele>88.8</ele>
        <time>2020-06-15T13:22:30Z</time>
      </trkpt>
      <trkpt lat="49.55857" lon="-1.39898">
        <ele>88.9</ele>
        <time>2020-06-15T13:22:31Z</time>
      </trkpt>
      <trkpt lat="49.55853" lon="-1.39908">
        <ele>88.9</ele>
        <time>2020-06-15T13:22:32Z</time>
      </trkpt>
      <trkpt lat="49.55848" lon="-1.39918">
        <ele>88.7</ele>
        <time>2020-06-15T13:22:33Z</time>
      </trkpt>
      <trkpt lat="49.55843" lon="-1.39928">
        <ele>88.5</ele>
        <time>2020-06-15T13:22:34Z</time>
      </trkpt>
      <trkpt lat="49.55839" lon="-1.39937">
        <ele>88.4</ele>
        <time>2020-06-15T13:22:35Z</time>
      </trkpt>
      <trkpt lat="49.55835" lon="-1.39946">
        <ele>88.3</ele>
        <time>2020-06-15T13:22:36Z</time>
      </trkpt>
      <trkpt lat="49.5583" lon="-1.39955">
        <ele>88.2</ele>
        <time>2020-06-15T13:22:37Z</time>
      </trkpt>
      <trkpt lat="49.55824" lon="-1.39963">
        <ele>88.2</ele>
        <time>2020-06-15T13:22:38Z</time>
      </trkpt>
      <trkpt lat="49.55819" lon="-1.39971">
        <ele>88.2</ele>
        <time>2020-06-15T13:22:39Z</time>
      </trkpt>
      <trkpt lat="49.55814" lon="-1.39981">
        <ele>88.3</ele>
        <time>2020-06-15T13:22:40Z</time>
      </trkpt>
      <trkpt lat="49.5581" lon="-1.39989">
        <ele>88.3</ele>
        <time>2020-06-15T13:22:41Z</time>
      </trkpt>
      <trkpt lat="49.55806" lon="-1.39998">
        <ele>88.3</ele>
        <time>2020-06-15T13:22:42Z</time>
      </trkpt>
      <trkpt lat="49.55801" lon="-1.40006">
        <ele>88.3</ele>
        <time>2020-06-15T13:22:43Z</time>
      </trkpt>
      <trkpt lat="49.55797" lon="-1.40015">
        <ele>88.3</ele>
        <time>2020-06-15T13:22:44Z</time>
      </trkpt>
      <trkpt lat="49.55792" lon="-1.40024">
        <ele>88.3</ele>
        <time>2020-06-15T13:22:45Z</time>
      </trkpt>
      <trkpt lat="49.55788" lon="-1.40033">
        <ele>88.4</ele>
        <time>2020-06-15T13:22:46Z</time>
      </trkpt>
      <trkpt lat="49.55784" lon="-1.40041">
        <ele>88.5</ele>
        <time>2020-06-15T13:22:47Z</time>
      </trkpt>
      <trkpt lat="49.5578" lon="-1.4005">
        <ele>88.7</ele>
        <time>2020-06-15T13:22:48Z</time>
      </trkpt>
      <trkpt lat="49.55776" lon="-1.40058">
        <ele>88.8</ele>
        <time>2020-06-15T13:22:49Z</time>
      </trkpt>
      <trkpt lat="49.55771" lon="-1.40067">
        <ele>88.9</ele>
        <time>2020-06-15T13:22:50Z</time>
      </trkpt>
      <trkpt lat="49.55767" lon="-1.40074">
        <ele>89</ele>
        <time>2020-06-15T13:22:51Z</time>
      </trkpt>
      <trkpt lat="49.55763" lon="-1.40081">
        <ele>89.1</ele>
        <time>2020-06-15T13:22:52Z</time>
      </trkpt>
      <trkpt lat="49.55759" lon="-1.40089">
        <ele>89.2</ele>
        <time>2020-06-15T13:22:53Z</time>
      </trkpt>
      <trkpt lat="49.55754" lon="-1.40096">
        <ele>89.3</ele>
        <time>2020-06-15T13:22:54Z</time>
      </trkpt>
      <trkpt lat="49.5575" lon="-1.40104">
        <ele>89.3</ele>
        <time>2020-06-15T13:22:55Z</time>
      </trkpt>
      <trkpt lat="49.55745" lon="-1.40111">
        <ele>89.4</ele>
        <time>2020-06-15T13:22:56Z</time>
      </trkpt>
      <trkpt lat="49.55741" lon="-1.40119">
        <ele>89.5</ele>
        <time>2020-06-15T13:22:57Z</time>
      </trkpt>
      <trkpt lat="49.55737" lon="-1.40125">
        <ele>89.5</ele>
        <time>2020-06-15T13:22:58Z</time>
      </trkpt>
      <trkpt lat="49.55733" lon="-1.40132">
        <ele>89.6</ele>
        <time>2020-06-15T13:22:59Z</time>
      </trkpt>
      <trkpt lat="49.55728" lon="-1.4014">
        <ele>89.6</ele>
        <time>2020-06-15T13:23:00Z</time>
      </trkpt>
      <trkpt lat="49.55724" lon="-1.40148">
        <ele>89.5</ele>
        <time>2020-06-15T13:23:01Z</time>
      </trkpt>
      <trkpt lat="49.55718" lon="-1.40154">
        <ele>89.5</ele>
        <time>2020-06-15T13:23:02Z</time>
      </trkpt>
      <trkpt lat="49.55714" lon="-1.40161">
        <ele>89.4</ele>
        <time>2020-06-15T13:23:03Z</time>
      </trkpt>
      <trkpt lat="49.55709" lon="-1.40168">
        <ele>89.4</ele>
        <time>2020-06-15T13:23:04Z</time>
      </trkpt>
      <trkpt lat="49.55705" lon="-1.40176">
        <ele>89.3</ele>
        <time>2020-06-15T13:23:05Z</time>
      </trkpt>
      <trkpt lat="49.557" lon="-1.40186">
        <ele>89.3</ele>
        <time>2020-06-15T13:23:06Z</time>
      </trkpt>
      <trkpt lat="49.55696" lon="-1.40194">
        <ele>89.2</ele>
        <time>2020-06-15T13:23:07Z</time>
      </trkpt>
      <trkpt lat="49.55691" lon="-1.40202">
        <ele>89.1</ele>
        <time>2020-06-15T13:23:08Z</time>
      </trkpt>
      <trkpt lat="49.55686" lon="-1.4021">
        <ele>89.1</ele>
        <time>2020-06-15T13:23:09Z</time>
      </trkpt>
      <trkpt lat="49.55681" lon="-1.40218">
        <ele>89.1</ele>
        <time>2020-06-15T13:23:10Z</time>
      </trkpt>
      <trkpt lat="49.55677" lon="-1.40226">
        <ele>89.1</ele>
        <time>2020-06-15T13:23:11Z</time>
      </trkpt>
      <trkpt lat="49.55673" lon="-1.40236">
        <ele>89.1</ele>
        <time>2020-06-15T13:23:12Z</time>
      </trkpt>
      <trkpt lat="49.55668" lon="-1.40245">
        <ele>89.1</ele>
        <time>2020-06-15T13:23:13Z</time>
      </trkpt>
      <trkpt lat="49.55663" lon="-1.40255">
        <ele>89.1</ele>
        <time>2020-06-15T13:23:14Z</time>
      </trkpt>
      <trkpt lat="49.55659" lon="-1.40264">
        <ele>89</ele>
        <time>2020-06-15T13:23:15Z</time>
      </trkpt>
      <trkpt lat="49.55654" lon="-1.40273">
        <ele>88.9</ele>
        <time>2020-06-15T13:23:16Z</time>
      </trkpt>
      <trkpt lat="49.55649" lon="-1.40281">
        <ele>88.9</ele>
        <time>2020-06-15T13:23:17Z</time>
      </trkpt>
      <trkpt lat="49.55644" lon="-1.40291">
        <ele>88.9</ele>
        <time>2020-06-15T13:23:18Z</time>
      </trkpt>
      <trkpt lat="49.5564" lon="-1.403">
        <ele>88.8</ele>
        <time>2020-06-15T13:23:19Z</time>
      </trkpt>
      <trkpt lat="49.55635" lon="-1.40309">
        <ele>88.8</ele>
        <time>2020-06-15T13:23:20Z</time>
      </trkpt>
      <trkpt lat="49.5563" lon="-1.40318">
        <ele>88.8</ele>
        <time>2020-06-15T13:23:21Z</time>
      </trkpt>
      <trkpt lat="49.55625" lon="-1.40327">
        <ele>88.7</ele>
        <time>2020-06-15T13:23:22Z</time>
      </trkpt>
      <trkpt lat="49.55621" lon="-1.40338">
        <ele>88.6</ele>
        <time>2020-06-15T13:23:23Z</time>
      </trkpt>
      <trkpt lat="49.55616" lon="-1.40348">
        <ele>88.5</ele>
        <time>2020-06-15T13:23:24Z</time>
      </trkpt>
      <trkpt lat="49.55612" lon="-1.40358">
        <ele>88.4</ele>
        <time>2020-06-15T13:23:25Z</time>
      </trkpt>
      <trkpt lat="49.55607" lon="-1.40367">
        <ele>88.3</ele>
        <time>2020-06-15T13:23:26Z</time>
      </trkpt>
      <trkpt lat="49.55603" lon="-1.40377">
        <ele>88.2</ele>
        <time>2020-06-15T13:23:27Z</time>
      </trkpt>
      <trkpt lat="49.55599" lon="-1.40387">
        <ele>88.1</ele>
        <time>2020-06-15T13:23:28Z</time>
      </trkpt>
      <trkpt lat="49.55595" lon="-1.40396">
        <ele>88</ele>
        <time>2020-06-15T13:23:29Z</time>
      </trkpt>
      <trkpt lat="49.5559" lon="-1.40404">
        <ele>88</ele>
        <time>2020-06-15T13:23:30Z</time>
      </trkpt>
      <trkpt lat="49.55585" lon="-1.40413">
        <ele>87.9</ele>
        <time>2020-06-15T13:23:31Z</time>
      </trkpt>
      <trkpt lat="49.55581" lon="-1.40422">
        <ele>87.9</ele>
        <time>2020-06-15T13:23:32Z</time>
      </trkpt>
      <trkpt lat="49.55578" lon="-1.40432">
        <ele>87.9</ele>
        <time>2020-06-15T13:23:33Z</time>
      </trkpt>
      <trkpt lat="49.55573" lon="-1.40439">
        <ele>87.9</ele>
        <time>2020-06-15T13:23:34Z</time>
      </trkpt>
      <trkpt lat="49.55569" lon="-1.40445">
        <ele>87.9</ele>
        <time>2020-06-15T13:23:35Z</time>
      </trkpt>
      <trkpt lat="49.55566" lon="-1.40453">
        <ele>87.9</ele>
        <time>2020-06-15T13:23:36Z</time>
      </trkpt>
      <trkpt lat="49.55561" lon="-1.40458">
        <ele>87.9</ele>
        <time>2020-06-15T13:23:37Z</time>
      </trkpt>
      <trkpt lat="49.55558" lon="-1.40465">
        <ele>87.8</ele>
        <time>2020-06-15T13:23:38Z</time>
      </trkpt>
      <trkpt lat="49.55554" lon="-1.4047">
        <ele>87.7</ele>
        <time>2020-06-15T13:23:39Z</time>
      </trkpt>
      <trkpt lat="49.55549" lon="-1.40474">
        <ele>87.5</ele>
        <time>2020-06-15T13:23:40Z</time>
      </trkpt>
      <trkpt lat="49.55543" lon="-1.40475">
        <ele>87.4</ele>
        <time>2020-06-15T13:23:41Z</time>
      </trkpt>
      <trkpt lat="49.55536" lon="-1.40471">
        <ele>87.2</ele>
        <time>2020-06-15T13:23:42Z</time>
      </trkpt>
      <trkpt lat="49.5553" lon="-1.40468">
        <ele>86.9</ele>
        <time>2020-06-15T13:23:43Z</time>
      </trkpt>
      <trkpt lat="49.55524" lon="-1.40466">
        <ele>86.6</ele>
        <time>2020-06-15T13:23:44Z</time>
      </trkpt>
      <trkpt lat="49.55518" lon="-1.40464">
        <ele>86.3</ele>
        <time>2020-06-15T13:23:45Z</time>
      </trkpt>
      <trkpt lat="49.55511" lon="-1.40462">
        <ele>86</ele>
        <time>2020-06-15T13:23:46Z</time>
      </trkpt>
      <trkpt lat="49.55505" lon="-1.40461">
        <ele>85.8</ele>
        <time>2020-06-15T13:23:47Z</time>
      </trkpt>
      <trkpt lat="49.55498" lon="-1.40459">
        <ele>85.6</ele>
        <time>2020-06-15T13:23:48Z</time>
      </trkpt>
      <trkpt lat="49.55491" lon="-1.40457">
        <ele>85.5</ele>
        <time>2020-06-15T13:23:49Z</time>
      </trkpt>
      <trkpt lat="49.55484" lon="-1.40456">
        <ele>85.3</ele>
        <time>2020-06-15T13:23:50Z</time>
      </trkpt>
      <trkpt lat="49.55477" lon="-1.40454">
        <ele>85.1</ele>
        <time>2020-06-15T13:23:51Z</time>
      </trkpt>
      <trkpt lat="49.5547" lon="-1.40452">
        <ele>84.9</ele>
        <time>2020-06-15T13:23:52Z</time>
      </trkpt>
      <trkpt lat="49.55464" lon="-1.40451">
        <ele>84.7</ele>
        <time>2020-06-15T13:23:53Z</time>
      </trkpt>
      <trkpt lat="49.55458" lon="-1.40449">
        <ele>84.6</ele>
        <time>2020-06-15T13:23:54Z</time>
      </trkpt>
      <trkpt lat="49.55451" lon="-1.40448">
        <ele>84.4</ele>
        <time>2020-06-15T13:23:55Z</time>
      </trkpt>
      <trkpt lat="49.55445" lon="-1.40446">
        <ele>84.3</ele>
        <time>2020-06-15T13:23:56Z</time>
      </trkpt>
      <trkpt lat="49.5544" lon="-1.40443">
        <ele>84.1</ele>
        <time>2020-06-15T13:23:57Z</time>
      </trkpt>
      <trkpt lat="49.55433" lon="-1.40441">
        <ele>84</ele>
        <time>2020-06-15T13:23:58Z</time>
      </trkpt>
      <trkpt lat="49.55425" lon="-1.40437">
        <ele>83.8</ele>
        <time>2020-06-15T13:23:59Z</time>
      </trkpt>
      <trkpt lat="49.55419" lon="-1.40436">
        <ele>83.6</ele>
        <time>2020-06-15T13:24:00Z</time>
      </trkpt>
      <trkpt lat="49.55413" lon="-1.40436">
        <ele>83.5</ele>
        <time>2020-06-15T13:24:01Z</time>
      </trkpt>
      <trkpt lat="49.55408" lon="-1.40436">
        <ele>83.4</ele>
        <time>2020-06-15T13:24:02Z</time>
      </trkpt>
      <trkpt lat="49.55402" lon="-1.40434">
        <ele>83.3</ele>
        <time>2020-06-15T13:24:03Z</time>
      </trkpt>
      <trkpt lat="49.55395" lon="-1.40434">
        <ele>83.2</ele>
        <time>2020-06-15T13:24:04Z</time>
      </trkpt>
      <trkpt lat="49.55388" lon="-1.40434">
        <ele>83.1</ele>
        <time>2020-06-15T13:24:05Z</time>
      </trkpt>
      <trkpt lat="49.55381" lon="-1.40433">
        <ele>83</ele>
        <time>2020-06-15T13:24:06Z</time>
      </trkpt>
      <trkpt lat="49.55375" lon="-1.40433">
        <ele>82.9</ele>
        <time>2020-06-15T13:24:07Z</time>
      </trkpt>
      <trkpt lat="49.55368" lon="-1.40433">
        <ele>82.7</ele>
        <time>2020-06-15T13:24:08Z</time>
      </trkpt>
      <trkpt lat="49.55362" lon="-1.40431">
        <ele>82.6</ele>
        <time>2020-06-15T13:24:09Z</time>
      </trkpt>
      <trkpt lat="49.55355" lon="-1.4043">
        <ele>82.5</ele>
        <time>2020-06-15T13:24:10Z</time>
      </trkpt>
      <trkpt lat="49.55349" lon="-1.40427">
        <ele>82.4</ele>
        <time>2020-06-15T13:24:11Z</time>
      </trkpt>
      <trkpt lat="49.55344" lon="-1.40425">
        <ele>82.3</ele>
        <time>2020-06-15T13:24:12Z</time>
      </trkpt>
      <trkpt lat="49.55339" lon="-1.40423">
        <ele>82.3</ele>
        <time>2020-06-15T13:24:13Z</time>
      </trkpt>
      <trkpt lat="49.55336" lon="-1.40422">
        <ele>82.2</ele>
        <time>2020-06-15T13:24:14Z</time>
      </trkpt>
      <trkpt lat="49.55332" lon="-1.40421">
        <ele>82.1</ele>
        <time>2020-06-15T13:24:15Z</time>
      </trkpt>
      <trkpt lat="49.55327" lon="-1.4042">
        <ele>82</ele>
        <time>2020-06-15T13:24:16Z</time>
      </trkpt>
      <trkpt lat="49.55322" lon="-1.40418">
        <ele>81.9</ele>
        <time>2020-06-15T13:24:17Z</time>
      </trkpt>
      <trkpt lat="49.55317" lon="-1.40417">
        <ele>81.7</ele>
        <time>2020-06-15T13:24:18Z</time>
      </trkpt>
      <trkpt lat="49.55311" lon="-1.40417">
        <ele>81.6</ele>
        <time>2020-06-15T13:24:19Z</time>
      </trkpt>
      <trkpt lat="49.55305" lon="-1.40417">
        <ele>81.4</ele>
        <time>2020-06-15T13:24:20Z</time>
      </trkpt>
      <trkpt lat="49.55298" lon="-1.40415">
        <ele>81.3</ele>
        <time>2020-06-15T13:24:21Z</time>
      </trkpt>
      <trkpt lat="49.55291" lon="-1.40415">
        <ele>81.2</ele>
        <time>2020-06-15T13:24:22Z</time>
      </trkpt>
      <trkpt lat="49.55285" lon="-1.40415">
        <ele>81</ele>
        <time>2020-06-15T13:24:23Z</time>
      </trkpt>
      <trkpt lat="49.55278" lon="-1.40414">
        <ele>80.9</ele>
        <time>2020-06-15T13:24:24Z</time>
      </trkpt>
      <trkpt lat="49.55271" lon="-1.40412">
        <ele>80.7</ele>
        <time>2020-06-15T13:24:25Z</time>
      </trkpt>
      <trkpt lat="49.55264" lon="-1.40412">
        <ele>80.6</ele>
        <time>2020-06-15T13:24:26Z</time>
      </trkpt>
      <trkpt lat="49.55256" lon="-1.40411">
        <ele>80.4</ele>
        <time>2020-06-15T13:24:27Z</time>
      </trkpt>
      <trkpt lat="49.55249" lon="-1.4041">
        <ele>80.2</ele>
        <time>2020-06-15T13:24:28Z</time>
      </trkpt>
      <trkpt lat="49.55241" lon="-1.40409">
        <ele>80.1</ele>
        <time>2020-06-15T13:24:29Z</time>
      </trkpt>
      <trkpt lat="49.55233" lon="-1.40408">
        <ele>79.9</ele>
        <time>2020-06-15T13:24:30Z</time>
      </trkpt>
      <trkpt lat="49.55225" lon="-1.40406">
        <ele>79.8</ele>
        <time>2020-06-15T13:24:31Z</time>
      </trkpt>
      <trkpt lat="49.55218" lon="-1.40405">
        <ele>79.7</ele>
        <time>2020-06-15T13:24:32Z</time>
      </trkpt>
      <trkpt lat="49.55211" lon="-1.40404">
        <ele>79.6</ele>
        <time>2020-06-15T13:24:33Z</time>
      </trkpt>
      <trkpt lat="49.55203" lon="-1.40403">
        <ele>79.5</ele>
        <time>2020-06-15T13:24:34Z</time>
      </trkpt>
      <trkpt lat="49.55196" lon="-1.40402">
        <ele>79.3</ele>
        <time>2020-06-15T13:24:35Z</time>
      </trkpt>
      <trkpt lat="49.55189" lon="-1.404">
        <ele>79.2</ele>
        <time>2020-06-15T13:24:36Z</time>
      </trkpt>
      <trkpt lat="49.55182" lon="-1.40399">
        <ele>79.1</ele>
        <time>2020-06-15T13:24:37Z</time>
      </trkpt>
      <trkpt lat="49.55176" lon="-1.40398">
        <ele>79</ele>
        <time>2020-06-15T13:24:38Z</time>
      </trkpt>
      <trkpt lat="49.55169" lon="-1.40396">
        <ele>78.9</ele>
        <time>2020-06-15T13:24:39Z</time>
      </trkpt>
      <trkpt lat="49.55162" lon="-1.40395">
        <ele>78.7</ele>
        <time>2020-06-15T13:24:40Z</time>
      </trkpt>
      <trkpt lat="49.55155" lon="-1.40393">
        <ele>78.5</ele>
        <time>2020-06-15T13:24:41Z</time>
      </trkpt>
      <trkpt lat="49.55148" lon="-1.40391">
        <ele>78.4</ele>
        <time>2020-06-15T13:24:42Z</time>
      </trkpt>
      <trkpt lat="49.5514" lon="-1.40389">
        <ele>78.2</ele>
        <time>2020-06-15T13:24:43Z</time>
      </trkpt>
      <trkpt lat="49.55133" lon="-1.40388">
        <ele>78</ele>
        <time>2020-06-15T13:24:44Z</time>
      </trkpt>
      <trkpt lat="49.55125" lon="-1.40386">
        <ele>77.7</ele>
        <time>2020-06-15T13:24:45Z</time>
      </trkpt>
      <trkpt lat="49.55117" lon="-1.40386">
        <ele>77.5</ele>
        <time>2020-06-15T13:24:46Z</time>
      </trkpt>
      <trkpt lat="49.5511" lon="-1.40386">
        <ele>77.3</ele>
        <time>2020-06-15T13:24:47Z</time>
      </trkpt>
      <trkpt lat="49.55102" lon="-1.40387">
        <ele>77.1</ele>
        <time>2020-06-15T13:24:48Z</time>
      </trkpt>
      <trkpt lat="49.55094" lon="-1.40386">
        <ele>76.9</ele>
        <time>2020-06-15T13:24:49Z</time>
      </trkpt>
      <trkpt lat="49.55086" lon="-1.40386">
        <ele>76.7</ele>
        <time>2020-06-15T13:24:50Z</time>
      </trkpt>
      <trkpt lat="49.55078" lon="-1.40386">
        <ele>76.6</ele>
        <time>2020-06-15T13:24:51Z</time>
      </trkpt>
      <trkpt lat="49.55069" lon="-1.40387">
        <ele>76.5</ele>
        <time>2020-06-15T13:24:52Z</time>
      </trkpt>
      <trkpt lat="49.55061" lon="-1.40387">
        <ele>76.4</ele>
        <time>2020-06-15T13:24:53Z</time>
      </trkpt>
      <trkpt lat="49.55053" lon="-1.40387">
        <ele>76.3</ele>
        <time>2020-06-15T13:24:54Z</time>
      </trkpt>
      <trkpt lat="49.55045" lon="-1.40387">
        <ele>76.1</ele>
        <time>2020-06-15T13:24:55Z</time>
      </trkpt>
      <trkpt lat="49.55037" lon="-1.40386">
        <ele>76</ele>
        <time>2020-06-15T13:24:56Z</time>
      </trkpt>
      <trkpt lat="49.55028" lon="-1.40384">
        <ele>76</ele>
        <time>2020-06-15T13:24:57Z</time>
      </trkpt>
      <trkpt lat="49.55021" lon="-1.40385">
        <ele>75.9</ele>
        <time>2020-06-15T13:24:58Z</time>
      </trkpt>
      <trkpt lat="49.55013" lon="-1.40385">
        <ele>75.8</ele>
        <time>2020-06-15T13:24:59Z</time>
      </trkpt>
      <trkpt lat="49.55005" lon="-1.40386">
        <ele>75.8</ele>
        <time>2020-06-15T13:25:00Z</time>
      </trkpt>
      <trkpt lat="49.54996" lon="-1.40385">
        <ele>75.7</ele>
        <time>2020-06-15T13:25:01Z</time>
      </trkpt>
      <trkpt lat="49.54988" lon="-1.40384">
        <ele>75.6</ele>
        <time>2020-06-15T13:25:02Z</time>
      </trkpt>
      <trkpt lat="49.54981" lon="-1.40384">
        <ele>75.4</ele>
        <time>2020-06-15T13:25:03Z</time>
      </trkpt>
      <trkpt lat="49.54973" lon="-1.40385">
        <ele>75.4</ele>
        <time>2020-06-15T13:25:04Z</time>
      </trkpt>
      <trkpt lat="49.54965" lon="-1.40383">
        <ele>75.3</ele>
        <time>2020-06-15T13:25:05Z</time>
      </trkpt>
      <trkpt lat="49.54957" lon="-1.40382">
        <ele>75.3</ele>
        <time>2020-06-15T13:25:06Z</time>
      </trkpt>
      <trkpt lat="49.54949" lon="-1.40382">
        <ele>75.3</ele>
        <time>2020-06-15T13:25:07Z</time>
      </trkpt>
      <trkpt lat="49.54942" lon="-1.40382">
        <ele>75.3</ele>
        <time>2020-06-15T13:25:08Z</time>
      </trkpt>
      <trkpt lat="49.54934" lon="-1.40382">
        <ele>75.3</ele>
        <time>2020-06-15T13:25:09Z</time>
      </trkpt>
      <trkpt lat="49.54927" lon="-1.40382">
        <ele>75.3</ele>
        <time>2020-06-15T13:25:10Z</time>
      </trkpt>
      <trkpt lat="49.54921" lon="-1.40382">
        <ele>75.3</ele>
        <time>2020-06-15T13:25:11Z</time>
      </trkpt>
      <trkpt lat="49.54914" lon="-1.40381">
        <ele>75.2</ele>
        <time>2020-06-15T13:25:12Z</time>
      </trkpt>
      <trkpt lat="49.54907" lon="-1.4038">
        <ele>75.1</ele>
        <time>2020-06-15T13:25:13Z</time>
      </trkpt>
      <trkpt lat="49.549" lon="-1.40379">
        <ele>75.1</ele>
        <time>2020-06-15T13:25:14Z</time>
      </trkpt>
      <trkpt lat="49.54893" lon="-1.40379">
        <ele>75</ele>
        <time>2020-06-15T13:25:15Z</time>
      </trkpt>
      <trkpt lat="49.54886" lon="-1.40377">
        <ele>74.9</ele>
        <time>2020-06-15T13:25:16Z</time>
      </trkpt>
      <trkpt lat="49.54879" lon="-1.40377">
        <ele>74.8</ele>
        <time>2020-06-15T13:25:17Z</time>
      </trkpt>
      <trkpt lat="49.54873" lon="-1.40376">
        <ele>74.7</ele>
        <time>2020-06-15T13:25:18Z</time>
      </trkpt>
      <trkpt lat="49.54866" lon="-1.40376">
        <ele>74.7</ele>
        <time>2020-06-15T13:25:19Z</time>
      </trkpt>
      <trkpt lat="49.54859" lon="-1.40376">
        <ele>74.6</ele>
        <time>2020-06-15T13:25:20Z</time>
      </trkpt>
      <trkpt lat="49.54852" lon="-1.40376">
        <ele>74.6</ele>
        <time>2020-06-15T13:25:21Z</time>
      </trkpt>
      <trkpt lat="49.54845" lon="-1.40377">
        <ele>74.5</ele>
        <time>2020-06-15T13:25:22Z</time>
      </trkpt>
      <trkpt lat="49.54838" lon="-1.40377">
        <ele>74.5</ele>
        <time>2020-06-15T13:25:23Z</time>
      </trkpt>
      <trkpt lat="49.54831" lon="-1.40376">
        <ele>74.4</ele>
        <time>2020-06-15T13:25:24Z</time>
      </trkpt>
      <trkpt lat="49.54824" lon="-1.40375">
        <ele>74.3</ele>
        <time>2020-06-15T13:25:25Z</time>
      </trkpt>
      <trkpt lat="49.54817" lon="-1.40374">
        <ele>74.3</ele>
        <time>2020-06-15T13:25:26Z</time>
      </trkpt>
      <trkpt lat="49.5481" lon="-1.40373">
        <ele>74.2</ele>
        <time>2020-06-15T13:25:27Z</time>
      </trkpt>
      <trkpt lat="49.54804" lon="-1.40371">
        <ele>74.2</ele>
        <time>2020-06-15T13:25:28Z</time>
      </trkpt>
      <trkpt lat="49.54796" lon="-1.40369">
        <ele>74.1</ele>
        <time>2020-06-15T13:25:29Z</time>
      </trkpt>
      <trkpt lat="49.54789" lon="-1.40369">
        <ele>74</ele>
        <time>2020-06-15T13:25:30Z</time>
      </trkpt>
      <trkpt lat="49.54781" lon="-1.40368">
        <ele>73.8</ele>
        <time>2020-06-15T13:25:31Z</time>
      </trkpt>
      <trkpt lat="49.54774" lon="-1.40367">
        <ele>73.7</ele>
        <time>2020-06-15T13:25:32Z</time>
      </trkpt>
      <trkpt lat="49.54766" lon="-1.40366">
        <ele>73.5</ele>
        <time>2020-06-15T13:25:33Z</time>
      </trkpt>
      <trkpt lat="49.54759" lon="-1.40366">
        <ele>73.4</ele>
        <time>2020-06-15T13:25:34Z</time>
      </trkpt>
      <trkpt lat="49.54752" lon="-1.40365">
        <ele>73.3</ele>
        <time>2020-06-15T13:25:35Z</time>
      </trkpt>
      <trkpt lat="49.54744" lon="-1.40363">
        <ele>73.2</ele>
        <time>2020-06-15T13:25:36Z</time>
      </trkpt>
      <trkpt lat="49.54736" lon="-1.40362">
        <ele>73</ele>
        <time>2020-06-15T13:25:37Z</time>
      </trkpt>
      <trkpt lat="49.54727" lon="-1.40359">
        <ele>72.9</ele>
        <time>2020-06-15T13:25:38Z</time>
      </trkpt>
      <trkpt lat="49.54719" lon="-1.40357">
        <ele>72.7</ele>
        <time>2020-06-15T13:25:39Z</time>
      </trkpt>
      <trkpt lat="49.54712" lon="-1.40356">
        <ele>72.5</ele>
        <time>2020-06-15T13:25:40Z</time>
      </trkpt>
      <trkpt lat="49.547" lon="-1.40354">
        <ele>72.3</ele>
        <time>2020-06-15T13:25:41Z</time>
      </trkpt>
      <trkpt lat="49.5469" lon="-1.40352">
        <ele>72.1</ele>
        <time>2020-06-15T13:25:42Z</time>
      </trkpt>
      <trkpt lat="49.54679" lon="-1.4035">
        <ele>71.9</ele>
        <time>2020-06-15T13:25:43Z</time>
      </trkpt>
      <trkpt lat="49.54671" lon="-1.40348">
        <ele>71.7</ele>
        <time>2020-06-15T13:25:44Z</time>
      </trkpt>
      <trkpt lat="49.54663" lon="-1.40347">
        <ele>71.5</ele>
        <time>2020-06-15T13:25:45Z</time>
      </trkpt>
      <trkpt lat="49.54655" lon="-1.40345">
        <ele>71.3</ele>
        <time>2020-06-15T13:25:46Z</time>
      </trkpt>
      <trkpt lat="49.54647" lon="-1.40344">
        <ele>71.2</ele>
        <time>2020-06-15T13:25:47Z</time>
      </trkpt>
      <trkpt lat="49.5464" lon="-1.40341">
        <ele>71</ele>
        <time>2020-06-15T13:25:48Z</time>
      </trkpt>
      <trkpt lat="49.54632" lon="-1.4034">
        <ele>70.9</ele>
        <time>2020-06-15T13:25:49Z</time>
      </trkpt>
      <trkpt lat="49.54624" lon="-1.40339">
        <ele>70.7</ele>
        <time>2020-06-15T13:25:50Z</time>
      </trkpt>
      <trkpt lat="49.54617" lon="-1.40338">
        <ele>70.6</ele>
        <time>2020-06-15T13:25:51Z</time>
      </trkpt>
      <trkpt lat="49.5461" lon="-1.40337">
        <ele>70.5</ele>
        <time>2020-06-15T13:25:52Z</time>
      </trkpt>
      <trkpt lat="49.54605" lon="-1.40337">
        <ele>70.4</ele>
        <time>2020-06-15T13:25:53Z</time>
      </trkpt>
      <trkpt lat="49.54599" lon="-1.40336">
        <ele>70.2</ele>
        <time>2020-06-15T13:25:54Z</time>
      </trkpt>
      <trkpt lat="49.54593" lon="-1.40336">
        <ele>70.1</ele>
        <time>2020-06-15T13:25:55Z</time>
      </trkpt>
      <trkpt lat="49.54587" lon="-1.40334">
        <ele>69.9</ele>
        <time>2020-06-15T13:25:56Z</time>
      </trkpt>
      <trkpt lat="49.54578" lon="-1.40335">
        <ele>69.7</ele>
        <time>2020-06-15T13:25:57Z</time>
      </trkpt>
      <trkpt lat="49.54571" lon="-1.40336">
        <ele>69.5</ele>
        <time>2020-06-15T13:25:58Z</time>
      </trkpt>
      <trkpt lat="49.54564" lon="-1.40337">
        <ele>69.3</ele>
        <time>2020-06-15T13:25:59Z</time>
      </trkpt>
      <trkpt lat="49.54557" lon="-1.40339">
        <ele>69.2</ele>
        <time>2020-06-15T13:26:00Z</time>
      </trkpt>
      <trkpt lat="49.5455" lon="-1.40341">
        <ele>69.1</ele>
        <time>2020-06-15T13:26:01Z</time>
      </trkpt>
      <trkpt lat="49.54542" lon="-1.40343">
        <ele>69</ele>
        <time>2020-06-15T13:26:02Z</time>
      </trkpt>
      <trkpt lat="49.54535" lon="-1.40345">
        <ele>68.9</ele>
        <time>2020-06-15T13:26:03Z</time>
      </trkpt>
      <trkpt lat="49.54528" lon="-1.40347">
        <ele>68.8</ele>
        <time>2020-06-15T13:26:04Z</time>
      </trkpt>
      <trkpt lat="49.54521" lon="-1.4035">
        <ele>68.7</ele>
        <time>2020-06-15T13:26:05Z</time>
      </trkpt>
      <trkpt lat="49.54514" lon="-1.40352">
        <ele>68.5</ele>
        <time>2020-06-15T13:26:06Z</time>
      </trkpt>
      <trkpt lat="49.54507" lon="-1.40353">
        <ele>68.3</ele>
        <time>2020-06-15T13:26:07Z</time>
      </trkpt>
      <trkpt lat="49.545" lon="-1.40354">
        <ele>68.2</ele>
        <time>2020-06-15T13:26:08Z</time>
      </trkpt>
      <trkpt lat="49.54493" lon="-1.40354">
        <ele>68</ele>
        <time>2020-06-15T13:26:09Z</time>
      </trkpt>
      <trkpt lat="49.54484" lon="-1.40353">
        <ele>67.8</ele>
        <time>2020-06-15T13:26:10Z</time>
      </trkpt>
      <trkpt lat="49.54477" lon="-1.40352">
        <ele>67.6</ele>
        <time>2020-06-15T13:26:11Z</time>
      </trkpt>
      <trkpt lat="49.54469" lon="-1.40351">
        <ele>67.4</ele>
        <time>2020-06-15T13:26:12Z</time>
      </trkpt>
      <trkpt lat="49.54461" lon="-1.4035">
        <ele>67.3</ele>
        <time>2020-06-15T13:26:13Z</time>
      </trkpt>
      <trkpt lat="49.54454" lon="-1.40349">
        <ele>67.2</ele>
        <time>2020-06-15T13:26:14Z</time>
      </trkpt>
      <trkpt lat="49.54446" lon="-1.40349">
        <ele>67.1</ele>
        <time>2020-06-15T13:26:15Z</time>
      </trkpt>
      <trkpt lat="49.54439" lon="-1.40348">
        <ele>67.1</ele>
        <time>2020-06-15T13:26:16Z</time>
      </trkpt>
      <trkpt lat="49.54431" lon="-1.40348">
        <ele>67.1</ele>
        <time>2020-06-15T13:26:17Z</time>
      </trkpt>
      <trkpt lat="49.54423" lon="-1.40347">
        <ele>67.1</ele>
        <time>2020-06-15T13:26:18Z</time>
      </trkpt>
      <trkpt lat="49.54414" lon="-1.40345">
        <ele>67.2</ele>
        <time>2020-06-15T13:26:19Z</time>
      </trkpt>
      <trkpt lat="49.54406" lon="-1.40344">
        <ele>67.3</ele>
        <time>2020-06-15T13:26:20Z</time>
      </trkpt>
      <trkpt lat="49.54398" lon="-1.40342">
        <ele>67.3</ele>
        <time>2020-06-15T13:26:21Z</time>
      </trkpt>
      <trkpt lat="49.54391" lon="-1.40341">
        <ele>67.4</ele>
        <time>2020-06-15T13:26:22Z</time>
      </trkpt>
      <trkpt lat="49.54384" lon="-1.4034">
        <ele>67.5</ele>
        <time>2020-06-15T13:26:23Z</time>
      </trkpt>
      <trkpt lat="49.54378" lon="-1.40339">
        <ele>67.6</ele>
        <time>2020-06-15T13:26:24Z</time>
      </trkpt>
      <trkpt lat="49.54371" lon="-1.40338">
        <ele>67.7</ele>
        <time>2020-06-15T13:26:25Z</time>
      </trkpt>
      <trkpt lat="49.54364" lon="-1.40337">
        <ele>67.8</ele>
        <time>2020-06-15T13:26:26Z</time>
      </trkpt>
      <trkpt lat="49.54358" lon="-1.40336">
        <ele>67.9</ele>
        <time>2020-06-15T13:26:27Z</time>
      </trkpt>
      <trkpt lat="49.54353" lon="-1.40335">
        <ele>68</ele>
        <time>2020-06-15T13:26:28Z</time>
      </trkpt>
      <trkpt lat="49.54346" lon="-1.40335">
        <ele>68.1</ele>
        <time>2020-06-15T13:26:29Z</time>
      </trkpt>
      <trkpt lat="49.54341" lon="-1.40334">
        <ele>68.3</ele>
        <time>2020-06-15T13:26:30Z</time>
      </trkpt>
      <trkpt lat="49.54335" lon="-1.40334">
        <ele>68.4</ele>
        <time>2020-06-15T13:26:31Z</time>
      </trkpt>
      <trkpt lat="49.5433" lon="-1.40333">
        <ele>68.5</ele>
        <time>2020-06-15T13:26:32Z</time>
      </trkpt>
      <trkpt lat="49.54325" lon="-1.40333">
        <ele>68.6</ele>
        <time>2020-06-15T13:26:33Z</time>
      </trkpt>
      <trkpt lat="49.54319" lon="-1.40332">
        <ele>68.7</ele>
        <time>2020-06-15T13:26:34Z</time>
      </trkpt>
      <trkpt lat="49.54313" lon="-1.40331">
        <ele>68.8</ele>
        <time>2020-06-15T13:26:35Z</time>
      </trkpt>
      <trkpt lat="49.54307" lon="-1.4033">
        <ele>68.9</ele>
        <time>2020-06-15T13:26:36Z</time>
      </trkpt>
      <trkpt lat="49.54302" lon="-1.40328">
        <ele>68.9</ele>
        <time>2020-06-15T13:26:37Z</time>
      </trkpt>
      <trkpt lat="49.54297" lon="-1.40327">
        <ele>68.9</ele>
        <time>2020-06-15T13:26:38Z</time>
      </trkpt>
      <trkpt lat="49.54292" lon="-1.40326">
        <ele>69</ele>
        <time>2020-06-15T13:26:39Z</time>
      </trkpt>
      <trkpt lat="49.54287" lon="-1.40324">
        <ele>69</ele>
        <time>2020-06-15T13:26:40Z</time>
      </trkpt>
      <trkpt lat="49.54283" lon="-1.40323">
        <ele>69</ele>
        <time>2020-06-15T13:26:41Z</time>
      </trkpt>
      <trkpt lat="49.54278" lon="-1.40323">
        <ele>69</ele>
        <time>2020-06-15T13:26:42Z</time>
      </trkpt>
      <trkpt lat="49.54272" lon="-1.40323">
        <ele>69</ele>
        <time>2020-06-15T13:26:43Z</time>
      </trkpt>
      <trkpt lat="49.54267" lon="-1.40322">
        <ele>69</ele>
        <time>2020-06-15T13:26:44Z</time>
      </trkpt>
      <trkpt lat="49.54262" lon="-1.40321">
        <ele>69</ele>
        <time>2020-06-15T13:26:45Z</time>
      </trkpt>
      <trkpt lat="49.54256" lon="-1.4032">
        <ele>69</ele>
        <time>2020-06-15T13:26:46Z</time>
      </trkpt>
      <trkpt lat="49.5425" lon="-1.4032">
        <ele>68.9</ele>
        <time>2020-06-15T13:26:47Z</time>
      </trkpt>
      <trkpt lat="49.54245" lon="-1.40319">
        <ele>68.9</ele>
        <time>2020-06-15T13:26:48Z</time>
      </trkpt>
      <trkpt lat="49.54238" lon="-1.40315">
        <ele>68.8</ele>
        <time>2020-06-15T13:26:49Z</time>
      </trkpt>
      <trkpt lat="49.54232" lon="-1.40312">
        <ele>68.7</ele>
        <time>2020-06-15T13:26:50Z</time>
      </trkpt>
      <trkpt lat="49.54227" lon="-1.40309">
        <ele>68.7</ele>
        <time>2020-06-15T13:26:51Z</time>
      </trkpt>
      <trkpt lat="49.54221" lon="-1.40306">
        <ele>68.6</ele>
        <time>2020-06-15T13:26:52Z</time>
      </trkpt>
      <trkpt lat="49.54215" lon="-1.40302">
        <ele>68.5</ele>
        <time>2020-06-15T13:26:53Z</time>
      </trkpt>
      <trkpt lat="49.5421" lon="-1.40299">
        <ele>68.5</ele>
        <time>2020-06-15T13:26:54Z</time>
      </trkpt>
      <trkpt lat="49.54205" lon="-1.40295">
        <ele>68.5</ele>
        <time>2020-06-15T13:26:55Z</time>
      </trkpt>
      <trkpt lat="49.542" lon="-1.4029">
        <ele>68.4</ele>
        <time>2020-06-15T13:26:56Z</time>
      </trkpt>
      <trkpt lat="49.54194" lon="-1.40285">
        <ele>68.4</ele>
        <time>2020-06-15T13:26:57Z</time>
      </trkpt>
      <trkpt lat="49.54189" lon="-1.40279">
        <ele>68.3</ele>
        <time>2020-06-15T13:26:58Z</time>
      </trkpt>
      <trkpt lat="49.54184" lon="-1.40274">
        <ele>68.2</ele>
        <time>2020-06-15T13:26:59Z</time>
      </trkpt>
      <trkpt lat="49.54178" lon="-1.40268">
        <ele>68</ele>
        <time>2020-06-15T13:27:00Z</time>
      </trkpt>
      <trkpt lat="49.54173" lon="-1.40263">
        <ele>67.8</ele>
        <time>2020-06-15T13:27:01Z</time>
      </trkpt>
      <trkpt lat="49.54168" lon="-1.40258">
        <ele>67.6</ele>
        <time>2020-06-15T13:27:02Z</time>
      </trkpt>
      <trkpt lat="49.54162" lon="-1.40254">
        <ele>67.4</ele>
        <time>2020-06-15T13:27:03Z</time>
      </trkpt>
      <trkpt lat="49.54158" lon="-1.4025">
        <ele>67.2</ele>
        <time>2020-06-15T13:27:04Z</time>
      </trkpt>
      <trkpt lat="49.54154" lon="-1.40246">
        <ele>67</ele>
        <time>2020-06-15T13:27:05Z</time>
      </trkpt>
      <trkpt lat="49.54149" lon="-1.4024">
        <ele>66.8</ele>
        <time>2020-06-15T13:27:06Z</time>
      </trkpt>
      <trkpt lat="49.54145" lon="-1.40234">
        <ele>66.5</ele>
        <time>2020-06-15T13:27:07Z</time>
      </trkpt>
      <trkpt lat="49.5414" lon="-1.40231">
        <ele>66.3</ele>
        <time>2020-06-15T13:27:08Z</time>
      </trkpt>
      <trkpt lat="49.54136" lon="-1.40226">
        <ele>66</ele>
        <time>2020-06-15T13:27:09Z</time>
      </trkpt>
      <trkpt lat="49.54131" lon="-1.4022">
        <ele>65.7</ele>
        <time>2020-06-15T13:27:10Z</time>
      </trkpt>
      <trkpt lat="49.54125" lon="-1.40215">
        <ele>65.4</ele>
        <time>2020-06-15T13:27:11Z</time>
      </trkpt>
      <trkpt lat="49.54121" lon="-1.4021">
        <ele>65.2</ele>
        <time>2020-06-15T13:27:12Z</time>
      </trkpt>
      <trkpt lat="49.54115" lon="-1.40206">
        <ele>64.9</ele>
        <time>2020-06-15T13:27:13Z</time>
      </trkpt>
      <trkpt lat="49.54108" lon="-1.40201">
        <ele>64.6</ele>
        <time>2020-06-15T13:27:14Z</time>
      </trkpt>
      <trkpt lat="49.54102" lon="-1.40195">
        <ele>64.3</ele>
        <time>2020-06-15T13:27:15Z</time>
      </trkpt>
      <trkpt lat="49.54095" lon="-1.40189">
        <ele>63.9</ele>
        <time>2020-06-15T13:27:16Z</time>
      </trkpt>
      <trkpt lat="49.54089" lon="-1.40183">
        <ele>63.6</ele>
        <time>2020-06-15T13:27:17Z</time>
      </trkpt>
      <trkpt lat="49.54082" lon="-1.40176">
        <ele>63.3</ele>
        <time>2020-06-15T13:27:18Z</time>
      </trkpt>
      <trkpt lat="49.54077" lon="-1.40171">
        <ele>63.1</ele>
        <time>2020-06-15T13:27:19Z</time>
      </trkpt>
      <trkpt lat="49.54071" lon="-1.40165">
        <ele>63</ele>
        <time>2020-06-15T13:27:20Z</time>
      </trkpt>
      <trkpt lat="49.54065" lon="-1.4016">
        <ele>62.7</ele>
        <time>2020-06-15T13:27:21Z</time>
      </trkpt>
      <trkpt lat="49.54059" lon="-1.40156">
        <ele>62.5</ele>
        <time>2020-06-15T13:27:22Z</time>
      </trkpt>
      <trkpt lat="49.54054" lon="-1.40151">
        <ele>62.3</ele>
        <time>2020-06-15T13:27:23Z</time>
      </trkpt>
      <trkpt lat="49.54047" lon="-1.40146">
        <ele>62.1</ele>
        <time>2020-06-15T13:27:24Z</time>
      </trkpt>
      <trkpt lat="49.54041" lon="-1.40141">
        <ele>61.9</ele>
        <time>2020-06-15T13:27:25Z</time>
      </trkpt>
      <trkpt lat="49.54034" lon="-1.40136">
        <ele>61.7</ele>
        <time>2020-06-15T13:27:26Z</time>
      </trkpt>
      <trkpt lat="49.54028" lon="-1.40132">
        <ele>61.5</ele>
        <time>2020-06-15T13:27:27Z</time>
      </trkpt>
      <trkpt lat="49.54022" lon="-1.40128">
        <ele>61.3</ele>
        <time>2020-06-15T13:27:28Z</time>
      </trkpt>
      <trkpt lat="49.54016" lon="-1.40124">
        <ele>61.2</ele>
        <time>2020-06-15T13:27:29Z</time>
      </trkpt>
      <trkpt lat="49.54009" lon="-1.4012">
        <ele>61</ele>
        <time>2020-06-15T13:27:30Z</time>
      </trkpt>
      <trkpt lat="49.54003" lon="-1.40116">
        <ele>60.8</ele>
        <time>2020-06-15T13:27:31Z</time>
      </trkpt>
      <trkpt lat="49.53996" lon="-1.40112">
        <ele>60.6</ele>
        <time>2020-06-15T13:27:32Z</time>
      </trkpt>
      <trkpt lat="49.53989" lon="-1.40107">
        <ele>60.4</ele>
        <time>2020-06-15T13:27:33Z</time>
      </trkpt>
      <trkpt lat="49.53983" lon="-1.40103">
        <ele>60.2</ele>
        <time>2020-06-15T13:27:34Z</time>
      </trkpt>
      <trkpt lat="49.53976" lon="-1.40099">
        <ele>60</ele>
        <time>2020-06-15T13:27:35Z</time>
      </trkpt>
      <trkpt lat="49.5397" lon="-1.40095">
        <ele>59.8</ele>
        <time>2020-06-15T13:27:36Z</time>
      </trkpt>
      <trkpt lat="49.53964" lon="-1.4009">
        <ele>59.7</ele>
        <time>2020-06-15T13:27:37Z</time>
      </trkpt>
      <trkpt lat="49.53958" lon="-1.40086">
        <ele>59.5</ele>
        <time>2020-06-15T13:27:38Z</time>
      </trkpt>
      <trkpt lat="49.53951" lon="-1.40081">
        <ele>59.3</ele>
        <time>2020-06-15T13:27:39Z</time>
      </trkpt>
      <trkpt lat="49.53945" lon="-1.40077">
        <ele>59.1</ele>
        <time>2020-06-15T13:27:40Z</time>
      </trkpt>
      <trkpt lat="49.53939" lon="-1.40072">
        <ele>58.9</ele>
        <time>2020-06-15T13:27:41Z</time>
      </trkpt>
      <trkpt lat="49.53932" lon="-1.40068">
        <ele>58.7</ele>
        <time>2020-06-15T13:27:42Z</time>
      </trkpt>
      <trkpt lat="49.53925" lon="-1.40063">
        <ele>58.5</ele>
        <time>2020-06-15T13:27:43Z</time>
      </trkpt>
      <trkpt lat="49.53918" lon="-1.40059">
        <ele>58.3</ele>
        <time>2020-06-15T13:27:44Z</time>
      </trkpt>
      <trkpt lat="49.53912" lon="-1.40055">
        <ele>58</ele>
        <time>2020-06-15T13:27:45Z</time>
      </trkpt>
      <trkpt lat="49.53905" lon="-1.40051">
        <ele>57.8</ele>
        <time>2020-06-15T13:27:46Z</time>
      </trkpt>
      <trkpt lat="49.53898" lon="-1.40047">
        <ele>57.6</ele>
        <time>2020-06-15T13:27:47Z</time>
      </trkpt>
      <trkpt lat="49.53891" lon="-1.40042">
        <ele>57.3</ele>
        <time>2020-06-15T13:27:48Z</time>
      </trkpt>
      <trkpt lat="49.53884" lon="-1.40038">
        <ele>57</ele>
        <time>2020-06-15T13:27:49Z</time>
      </trkpt>
      <trkpt lat="49.53877" lon="-1.40033">
        <ele>56.7</ele>
        <time>2020-06-15T13:27:50Z</time>
      </trkpt>
      <trkpt lat="49.5387" lon="-1.40029">
        <ele>56.7</ele>
        <time>2020-06-15T13:27:51Z</time>
      </trkpt>
      <trkpt lat="49.53863" lon="-1.40025">
        <ele>56.6</ele>
        <time>2020-06-15T13:27:52Z</time>
      </trkpt>
      <trkpt lat="49.53856" lon="-1.40022">
        <ele>56.3</ele>
        <time>2020-06-15T13:27:53Z</time>
      </trkpt>
      <trkpt lat="49.53849" lon="-1.40019">
        <ele>55.9</ele>
        <time>2020-06-15T13:27:54Z</time>
      </trkpt>
      <trkpt lat="49.53841" lon="-1.40016">
        <ele>55.5</ele>
        <time>2020-06-15T13:27:55Z</time>
      </trkpt>
      <trkpt lat="49.53834" lon="-1.40012">
        <ele>55.1</ele>
        <time>2020-06-15T13:27:56Z</time>
      </trkpt>
      <trkpt lat="49.53826" lon="-1.40009">
        <ele>54.7</ele>
        <time>2020-06-15T13:27:57Z</time>
      </trkpt>
      <trkpt lat="49.53818" lon="-1.40006">
        <ele>54.3</ele>
        <time>2020-06-15T13:27:58Z</time>
      </trkpt>
      <trkpt lat="49.5381" lon="-1.40003">
        <ele>54</ele>
        <time>2020-06-15T13:27:59Z</time>
      </trkpt>
      <trkpt lat="49.53801" lon="-1.39999">
        <ele>53.5</ele>
        <time>2020-06-15T13:28:00Z</time>
      </trkpt>
      <trkpt lat="49.53793" lon="-1.39997">
        <ele>53.1</ele>
        <time>2020-06-15T13:28:01Z</time>
      </trkpt>
      <trkpt lat="49.53785" lon="-1.39994">
        <ele>52.6</ele>
        <time>2020-06-15T13:28:02Z</time>
      </trkpt>
      <trkpt lat="49.53777" lon="-1.39989">
        <ele>52.2</ele>
        <time>2020-06-15T13:28:03Z</time>
      </trkpt>
      <trkpt lat="49.53768" lon="-1.39986">
        <ele>51.8</ele>
        <time>2020-06-15T13:28:04Z</time>
      </trkpt>
      <trkpt lat="49.5376" lon="-1.39983">
        <ele>51.3</ele>
        <time>2020-06-15T13:28:05Z</time>
      </trkpt>
      <trkpt lat="49.53752" lon="-1.39979">
        <ele>50.8</ele>
        <time>2020-06-15T13:28:06Z</time>
      </trkpt>
      <trkpt lat="49.53743" lon="-1.39974">
        <ele>50.2</ele>
        <time>2020-06-15T13:28:07Z</time>
      </trkpt>
      <trkpt lat="49.53735" lon="-1.39968">
        <ele>49.7</ele>
        <time>2020-06-15T13:28:08Z</time>
      </trkpt>
      <trkpt lat="49.53727" lon="-1.39961">
        <ele>49.3</ele>
        <time>2020-06-15T13:28:09Z</time>
      </trkpt>
      <trkpt lat="49.53719" lon="-1.39954">
        <ele>48.8</ele>
        <time>2020-06-15T13:28:10Z</time>
      </trkpt>
      <trkpt lat="49.53711" lon="-1.39947">
        <ele>48.3</ele>
        <time>2020-06-15T13:28:11Z</time>
      </trkpt>
      <trkpt lat="49.53703" lon="-1.39941">
        <ele>47.8</ele>
        <time>2020-06-15T13:28:12Z</time>
      </trkpt>
      <trkpt lat="49.53695" lon="-1.39935">
        <ele>47.3</ele>
        <time>2020-06-15T13:28:13Z</time>
      </trkpt>
      <trkpt lat="49.53687" lon="-1.39929">
        <ele>46.8</ele>
        <time>2020-06-15T13:28:14Z</time>
      </trkpt>
      <trkpt lat="49.53678" lon="-1.39922">
        <ele>46.3</ele>
        <time>2020-06-15T13:28:15Z</time>
      </trkpt>
      <trkpt lat="49.5367" lon="-1.39915">
        <ele>45.8</ele>
        <time>2020-06-15T13:28:16Z</time>
      </trkpt>
      <trkpt lat="49.53663" lon="-1.39909">
        <ele>45.3</ele>
        <time>2020-06-15T13:28:17Z</time>
      </trkpt>
      <trkpt lat="49.53655" lon="-1.39902">
        <ele>44.9</ele>
        <time>2020-06-15T13:28:18Z</time>
      </trkpt>
      <trkpt lat="49.53647" lon="-1.39896">
        <ele>44.5</ele>
        <time>2020-06-15T13:28:19Z</time>
      </trkpt>
      <trkpt lat="49.53639" lon="-1.39889">
        <ele>44.1</ele>
        <time>2020-06-15T13:28:20Z</time>
      </trkpt>
      <trkpt lat="49.53631" lon="-1.39883">
        <ele>43.7</ele>
        <time>2020-06-15T13:28:21Z</time>
      </trkpt>
      <trkpt lat="49.53624" lon="-1.39877">
        <ele>43.3</ele>
        <time>2020-06-15T13:28:22Z</time>
      </trkpt>
      <trkpt lat="49.53616" lon="-1.3987">
        <ele>43</ele>
        <time>2020-06-15T13:28:23Z</time>
      </trkpt>
      <trkpt lat="49.53608" lon="-1.39864">
        <ele>42.6</ele>
        <time>2020-06-15T13:28:24Z</time>
      </trkpt>
      <trkpt lat="49.536" lon="-1.39858">
        <ele>42.3</ele>
        <time>2020-06-15T13:28:25Z</time>
      </trkpt>
      <trkpt lat="49.53593" lon="-1.39853">
        <ele>41.9</ele>
        <time>2020-06-15T13:28:26Z</time>
      </trkpt>
      <trkpt lat="49.53585" lon="-1.39847">
        <ele>41.5</ele>
        <time>2020-06-15T13:28:27Z</time>
      </trkpt>
      <trkpt lat="49.53577" lon="-1.39841">
        <ele>41.1</ele>
        <time>2020-06-15T13:28:28Z</time>
      </trkpt>
      <trkpt lat="49.53569" lon="-1.39835">
        <ele>40.7</ele>
        <time>2020-06-15T13:28:29Z</time>
      </trkpt>
      <trkpt lat="49.53562" lon="-1.39829">
        <ele>40.3</ele>
        <time>2020-06-15T13:28:30Z</time>
      </trkpt>
      <trkpt lat="49.53555" lon="-1.39823">
        <ele>39.9</ele>
        <time>2020-06-15T13:28:31Z</time>
      </trkpt>
      <trkpt lat="49.53548" lon="-1.39817">
        <ele>39.5</ele>
        <time>2020-06-15T13:28:32Z</time>
      </trkpt>
      <trkpt lat="49.53541" lon="-1.3981">
        <ele>39</ele>
        <time>2020-06-15T13:28:33Z</time>
      </trkpt>
      <trkpt lat="49.53534" lon="-1.39803">
        <ele>38.5</ele>
        <time>2020-06-15T13:28:34Z</time>
      </trkpt>
      <trkpt lat="49.53528" lon="-1.39796">
        <ele>38.1</ele>
        <time>2020-06-15T13:28:35Z</time>
      </trkpt>
      <trkpt lat="49.53522" lon="-1.39787">
        <ele>37.6</ele>
        <time>2020-06-15T13:28:36Z</time>
      </trkpt>
      <trkpt lat="49.53517" lon="-1.39777">
        <ele>37.1</ele>
        <time>2020-06-15T13:28:37Z</time>
      </trkpt>
      <trkpt lat="49.53512" lon="-1.39767">
        <ele>36.6</ele>
        <time>2020-06-15T13:28:38Z</time>
      </trkpt>
      <trkpt lat="49.53507" lon="-1.39757">
        <ele>36</ele>
        <time>2020-06-15T13:28:39Z</time>
      </trkpt>
      <trkpt lat="49.53502" lon="-1.39746">
        <ele>35.5</ele>
        <time>2020-06-15T13:28:40Z</time>
      </trkpt>
      <trkpt lat="49.53499" lon="-1.39732">
        <ele>34.9</ele>
        <time>2020-06-15T13:28:41Z</time>
      </trkpt>
      <trkpt lat="49.53493" lon="-1.39721">
        <ele>34.3</ele>
        <time>2020-06-15T13:28:42Z</time>
      </trkpt>
      <trkpt lat="49.53488" lon="-1.3971">
        <ele>33.7</ele>
        <time>2020-06-15T13:28:43Z</time>
      </trkpt>
      <trkpt lat="49.53482" lon="-1.39699">
        <ele>33.2</ele>
        <time>2020-06-15T13:28:44Z</time>
      </trkpt>
      <trkpt lat="49.53476" lon="-1.39688">
        <ele>32.8</ele>
        <time>2020-06-15T13:28:45Z</time>
      </trkpt>
      <trkpt lat="49.5347" lon="-1.39677">
        <ele>32.4</ele>
        <time>2020-06-15T13:28:46Z</time>
      </trkpt>
      <trkpt lat="49.53464" lon="-1.39666">
        <ele>32</ele>
        <time>2020-06-15T13:28:47Z</time>
      </trkpt>
      <trkpt lat="49.53458" lon="-1.39655">
        <ele>31.6</ele>
        <time>2020-06-15T13:28:48Z</time>
      </trkpt>
      <trkpt lat="49.53451" lon="-1.39644">
        <ele>31.3</ele>
        <time>2020-06-15T13:28:49Z</time>
      </trkpt>
      <trkpt lat="49.53445" lon="-1.39634">
        <ele>31.1</ele>
        <time>2020-06-15T13:28:50Z</time>
      </trkpt>
      <trkpt lat="49.53439" lon="-1.39623">
        <ele>30.9</ele>
        <time>2020-06-15T13:28:51Z</time>
      </trkpt>
      <trkpt lat="49.53434" lon="-1.39613">
        <ele>30.7</ele>
        <time>2020-06-15T13:28:52Z</time>
      </trkpt>
      <trkpt lat="49.53429" lon="-1.39602">
        <ele>30.7</ele>
        <time>2020-06-15T13:28:53Z</time>
      </trkpt>
      <trkpt lat="49.53423" lon="-1.39593">
        <ele>30.7</ele>
        <time>2020-06-15T13:28:54Z</time>
      </trkpt>
      <trkpt lat="49.53418" lon="-1.39584">
        <ele>30.7</ele>
        <time>2020-06-15T13:28:55Z</time>
      </trkpt>
      <trkpt lat="49.53412" lon="-1.39576">
        <ele>30.7</ele>
        <time>2020-06-15T13:28:56Z</time>
      </trkpt>
      <trkpt lat="49.53407" lon="-1.39568">
        <ele>30.8</ele>
        <time>2020-06-15T13:28:57Z</time>
      </trkpt>
      <trkpt lat="49.53403" lon="-1.39561">
        <ele>30.9</ele>
        <time>2020-06-15T13:28:58Z</time>
      </trkpt>
      <trkpt lat="49.53399" lon="-1.39553">
        <ele>31.1</ele>
        <time>2020-06-15T13:28:59Z</time>
      </trkpt>
      <trkpt lat="49.53396" lon="-1.39545">
        <ele>31.4</ele>
        <time>2020-06-15T13:29:00Z</time>
      </trkpt>
      <trkpt lat="49.53394" lon="-1.39536">
        <ele>31.3</ele>
        <time>2020-06-15T13:29:01Z</time>
      </trkpt>
      <trkpt lat="49.53392" lon="-1.39527">
        <ele>31.3</ele>
        <time>2020-06-15T13:29:02Z</time>
      </trkpt>
      <trkpt lat="49.53391" lon="-1.39516">
        <ele>31.2</ele>
        <time>2020-06-15T13:29:03Z</time>
      </trkpt>
      <trkpt lat="49.53387" lon="-1.39512">
        <ele>31.1</ele>
        <time>2020-06-15T13:29:04Z</time>
      </trkpt>
      <trkpt lat="49.53383" lon="-1.39507">
        <ele>31.1</ele>
        <time>2020-06-15T13:29:05Z</time>
      </trkpt>
      <trkpt lat="49.53379" lon="-1.39503">
        <ele>31</ele>
        <time>2020-06-15T13:29:06Z</time>
      </trkpt>
      <trkpt lat="49.53376" lon="-1.395">
        <ele>31</ele>
        <time>2020-06-15T13:29:07Z</time>
      </trkpt>
      <trkpt lat="49.53372" lon="-1.395">
        <ele>31</ele>
        <time>2020-06-15T13:29:08Z</time>
      </trkpt>
      <trkpt lat="49.5337" lon="-1.39501">
        <ele>31</ele>
        <time>2020-06-15T13:29:09Z</time>
      </trkpt>
      <trkpt lat="49.53366" lon="-1.39502">
        <ele>31</ele>
        <time>2020-06-15T13:29:10Z</time>
      </trkpt>
      <trkpt lat="49.53365" lon="-1.39502">
        <ele>31</ele>
        <time>2020-06-15T13:29:11Z</time>
      </trkpt>
      <trkpt lat="49.53362" lon="-1.39501">
        <ele>31</ele>
        <time>2020-06-15T13:29:12Z</time>
      </trkpt>
      <trkpt lat="49.53359" lon="-1.39501">
        <ele>31.1</ele>
        <time>2020-06-15T13:29:13Z</time>
      </trkpt>
      <trkpt lat="49.53356" lon="-1.39501">
        <ele>31.1</ele>
        <time>2020-06-15T13:29:14Z</time>
      </trkpt>
      <trkpt lat="49.53355" lon="-1.39501">
        <ele>31.1</ele>
        <time>2020-06-15T13:29:15Z</time>
      </trkpt>
      <trkpt lat="49.53354" lon="-1.39498">
        <ele>31.1</ele>
        <time>2020-06-15T13:29:16Z</time>
      </trkpt>
      <trkpt lat="49.53354" lon="-1.39496">
        <ele>31.1</ele>
        <time>2020-06-15T13:29:17Z</time>
      </trkpt>
      <trkpt lat="49.53353" lon="-1.39496">
        <ele>31.1</ele>
        <time>2020-06-15T13:29:18Z</time>
      </trkpt>
      <trkpt lat="49.53353" lon="-1.39498">
        <ele>31.2</ele>
        <time>2020-06-15T13:29:19Z</time>
      </trkpt>
      <trkpt lat="49.53352" lon="-1.395">
        <ele>31.2</ele>
        <time>2020-06-15T13:29:20Z</time>
      </trkpt>
      <trkpt lat="49.5335" lon="-1.39501">
        <ele>31.2</ele>
        <time>2020-06-15T13:29:21Z</time>
      </trkpt>
      <trkpt lat="49.53349" lon="-1.39501">
        <ele>31.2</ele>
        <time>2020-06-15T13:29:22Z</time>
      </trkpt>
      <trkpt lat="49.53347" lon="-1.39501">
        <ele>31.2</ele>
        <time>2020-06-15T13:29:23Z</time>
      </trkpt>
      <trkpt lat="49.53345" lon="-1.39501">
        <ele>31.3</ele>
        <time>2020-06-15T13:29:24Z</time>
      </trkpt>
      <trkpt lat="49.53344" lon="-1.39502">
        <ele>31.3</ele>
        <time>2020-06-15T13:29:25Z</time>
      </trkpt>
      <trkpt lat="49.53342" lon="-1.39502">
        <ele>31.3</ele>
        <time>2020-06-15T13:29:26Z</time>
      </trkpt>
      <trkpt lat="49.5334" lon="-1.39502">
        <ele>31.3</ele>
        <time>2020-06-15T13:31:25Z</time>
      </trkpt>
      <trkpt lat="49.53338" lon="-1.39502">
        <ele>31.3</ele>
        <time>2020-06-15T13:31:26Z</time>
      </trkpt>
      <trkpt lat="49.53337" lon="-1.39503">
        <ele>31.4</ele>
        <time>2020-06-15T13:31:27Z</time>
      </trkpt>
      <trkpt lat="49.53335" lon="-1.39499">
        <ele>31.4</ele>
        <time>2020-06-15T13:31:28Z</time>
      </trkpt>
      <trkpt lat="49.53335" lon="-1.39498">
        <ele>31.4</ele>
        <time>2020-06-15T13:31:29Z</time>
      </trkpt>
      <trkpt lat="49.53335" lon="-1.39493">
        <ele>31.4</ele>
        <time>2020-06-15T13:31:30Z</time>
      </trkpt>
      <trkpt lat="49.53336" lon="-1.39491">
        <ele>31.4</ele>
        <time>2020-06-15T13:31:31Z</time>
      </trkpt>
      <trkpt lat="49.53337" lon="-1.39488">
        <ele>31.4</ele>
        <time>2020-06-15T13:31:32Z</time>
      </trkpt>
      <trkpt lat="49.53336" lon="-1.39485">
        <ele>31.5</ele>
        <time>2020-06-15T13:31:33Z</time>
      </trkpt>
      <trkpt lat="49.53334" lon="-1.39481">
        <ele>32.1</ele>
        <time>2020-06-15T13:31:34Z</time>
      </trkpt>
      <trkpt lat="49.53333" lon="-1.3948">
        <ele>32.3</ele>
        <time>2020-06-15T13:31:35Z</time>
      </trkpt>
      <trkpt lat="49.53331" lon="-1.39474">
        <ele>32.6</ele>
        <time>2020-06-15T13:31:36Z</time>
      </trkpt>
      <trkpt lat="49.5333" lon="-1.39472">
        <ele>32.8</ele>
        <time>2020-06-15T13:31:37Z</time>
      </trkpt>
      <trkpt lat="49.53329" lon="-1.39468">
        <ele>32.9</ele>
        <time>2020-06-15T13:31:38Z</time>
      </trkpt>
      <trkpt lat="49.53327" lon="-1.39464">
        <ele>33.1</ele>
        <time>2020-06-15T13:31:39Z</time>
      </trkpt>
      <trkpt lat="49.53325" lon="-1.39461">
        <ele>33.2</ele>
        <time>2020-06-15T13:31:40Z</time>
      </trkpt>
      <trkpt lat="49.53322" lon="-1.39456">
        <ele>33.4</ele>
        <time>2020-06-15T13:31:41Z</time>
      </trkpt>
      <trkpt lat="49.53319" lon="-1.39452">
        <ele>33.5</ele>
        <time>2020-06-15T13:31:42Z</time>
      </trkpt>
      <trkpt lat="49.53317" lon="-1.39447">
        <ele>33.7</ele>
        <time>2020-06-15T13:31:43Z</time>
      </trkpt>
      <trkpt lat="49.53315" lon="-1.39443">
        <ele>33.9</ele>
        <time>2020-06-15T13:31:44Z</time>
      </trkpt>
      <trkpt lat="49.53314" lon="-1.39438">
        <ele>34</ele>
        <time>2020-06-15T13:31:45Z</time>
      </trkpt>
      <trkpt lat="49.53313" lon="-1.39433">
        <ele>34.2</ele>
        <time>2020-06-15T13:31:46Z</time>
      </trkpt>
      <trkpt lat="49.53311" lon="-1.39428">
        <ele>34.3</ele>
        <time>2020-06-15T13:31:47Z</time>
      </trkpt>
      <trkpt lat="49.5331" lon="-1.39424">
        <ele>34.5</ele>
        <time>2020-06-15T13:31:48Z</time>
      </trkpt>
      <trkpt lat="49.53309" lon="-1.39418">
        <ele>34.6</ele>
        <time>2020-06-15T13:31:49Z</time>
      </trkpt>
      <trkpt lat="49.53308" lon="-1.39416">
        <ele>34.7</ele>
        <time>2020-06-15T13:31:50Z</time>
      </trkpt>
      <trkpt lat="49.53306" lon="-1.39412">
        <ele>34.8</ele>
        <time>2020-06-15T13:31:51Z</time>
      </trkpt>
      <trkpt lat="49.53305" lon="-1.39406">
        <ele>35</ele>
        <time>2020-06-15T13:31:52Z</time>
      </trkpt>
      <trkpt lat="49.53304" lon="-1.39404">
        <ele>35.1</ele>
        <time>2020-06-15T13:31:53Z</time>
      </trkpt>
      <trkpt lat="49.53304" lon="-1.39398">
        <ele>35.3</ele>
        <time>2020-06-15T13:31:54Z</time>
      </trkpt>
      <trkpt lat="49.53303" lon="-1.39397">
        <ele>35.3</ele>
        <time>2020-06-15T13:31:55Z</time>
      </trkpt>
      <trkpt lat="49.53302" lon="-1.39392">
        <ele>35.5</ele>
        <time>2020-06-15T13:31:56Z</time>
      </trkpt>
      <trkpt lat="49.53301" lon="-1.3939">
        <ele>35.6</ele>
        <time>2020-06-15T13:31:57Z</time>
      </trkpt>
      <trkpt lat="49.533" lon="-1.39385">
        <ele>35.8</ele>
        <time>2020-06-15T13:31:58Z</time>
      </trkpt>
      <trkpt lat="49.533" lon="-1.39384">
        <ele>35.8</ele>
        <time>2020-06-15T13:31:59Z</time>
      </trkpt>
      <trkpt lat="49.53299" lon="-1.39379">
        <ele>36</ele>
        <time>2020-06-15T13:32:00Z</time>
      </trkpt>
      <trkpt lat="49.53298" lon="-1.39377">
        <ele>36</ele>
        <time>2020-06-15T13:32:01Z</time>
      </trkpt>
      <trkpt lat="49.53298" lon="-1.39373">
        <ele>36.2</ele>
        <time>2020-06-15T13:32:02Z</time>
      </trkpt>
      <trkpt lat="49.53297" lon="-1.39371">
        <ele>36.2</ele>
        <time>2020-06-15T13:32:03Z</time>
      </trkpt>
      <trkpt lat="49.53297" lon="-1.39369">
        <ele>36.3</ele>
        <time>2020-06-15T13:32:04Z</time>
      </trkpt>
      <trkpt lat="49.53296" lon="-1.39367">
        <ele>36.4</ele>
        <time>2020-06-15T13:32:05Z</time>
      </trkpt>
      <trkpt lat="49.53296" lon="-1.39365">
        <ele>36.5</ele>
        <time>2020-06-15T13:32:06Z</time>
      </trkpt>
      <trkpt lat="49.53295" lon="-1.39362">
        <ele>36.6</ele>
        <time>2020-06-15T13:32:07Z</time>
      </trkpt>
      <trkpt lat="49.53294" lon="-1.39361">
        <ele>36.7</ele>
        <time>2020-06-15T13:32:08Z</time>
      </trkpt>
      <trkpt lat="49.53293" lon="-1.39359">
        <ele>36.7</ele>
        <time>2020-06-15T13:32:09Z</time>
      </trkpt>
      <trkpt lat="49.53293" lon="-1.39358">
        <ele>36.8</ele>
        <time>2020-06-15T13:32:10Z</time>
      </trkpt>
      <trkpt lat="49.53293" lon="-1.39357">
        <ele>36.8</ele>
        <time>2020-06-15T13:32:11Z</time>
      </trkpt>
      <trkpt lat="49.53294" lon="-1.39356">
        <ele>36.9</ele>
        <time>2020-06-15T13:32:12Z</time>
      </trkpt>
      <trkpt lat="49.53294" lon="-1.39358">
        <ele>36.9</ele>
        <time>2020-06-15T13:32:13Z</time>
      </trkpt>
      <trkpt lat="49.53294" lon="-1.39359">
        <ele>36.9</ele>
        <time>2020-06-15T13:32:14Z</time>
      </trkpt>
      <trkpt lat="49.53296" lon="-1.3936">
        <ele>37</ele>
        <time>2020-06-15T13:32:15Z</time>
      </trkpt>
      <trkpt lat="49.53296" lon="-1.39359">
        <ele>37.1</ele>
        <time>2020-06-15T13:32:16Z</time>
      </trkpt>
      <trkpt lat="49.53296" lon="-1.39358">
        <ele>37.1</ele>
        <time>2020-06-15T13:32:17Z</time>
      </trkpt>
      <trkpt lat="49.53296" lon="-1.39356">
        <ele>37.2</ele>
        <time>2020-06-15T13:32:18Z</time>
      </trkpt>
      <trkpt lat="49.53296" lon="-1.39355">
        <ele>37.2</ele>
        <time>2020-06-15T13:32:19Z</time>
      </trkpt>
      <trkpt lat="49.53296" lon="-1.39353">
        <ele>37.3</ele>
        <time>2020-06-15T13:32:20Z</time>
      </trkpt>
      <trkpt lat="49.53295" lon="-1.39352">
        <ele>37.3</ele>
        <time>2020-06-15T13:32:54Z</time>
      </trkpt>
      <trkpt lat="49.53295" lon="-1.3935">
        <ele>37.4</ele>
        <time>2020-06-15T13:32:55Z</time>
      </trkpt>
      <trkpt lat="49.53295" lon="-1.39348">
        <ele>37.4</ele>
        <time>2020-06-15T13:32:56Z</time>
      </trkpt>
      <trkpt lat="49.53294" lon="-1.39346">
        <ele>37.5</ele>
        <time>2020-06-15T13:32:57Z</time>
      </trkpt>
      <trkpt lat="49.53294" lon="-1.39343">
        <ele>37.6</ele>
        <time>2020-06-15T13:32:58Z</time>
      </trkpt>
      <trkpt lat="49.53293" lon="-1.39341">
        <ele>37.7</ele>
        <time>2020-06-15T13:32:59Z</time>
      </trkpt>
      <trkpt lat="49.53292" lon="-1.39336">
        <ele>37.9</ele>
        <time>2020-06-15T13:33:00Z</time>
      </trkpt>
      <trkpt lat="49.53291" lon="-1.39335">
        <ele>37.9</ele>
        <time>2020-06-15T13:33:01Z</time>
      </trkpt>
      <trkpt lat="49.53291" lon="-1.39329">
        <ele>38.1</ele>
        <time>2020-06-15T13:33:02Z</time>
      </trkpt>
      <trkpt lat="49.53291" lon="-1.39327">
        <ele>38.2</ele>
        <time>2020-06-15T13:33:03Z</time>
      </trkpt>
      <trkpt lat="49.53291" lon="-1.39323">
        <ele>38.3</ele>
        <time>2020-06-15T13:33:04Z</time>
      </trkpt>
      <trkpt lat="49.53291" lon="-1.39319">
        <ele>38.5</ele>
        <time>2020-06-15T13:33:05Z</time>
      </trkpt>
      <trkpt lat="49.5329" lon="-1.39314">
        <ele>38.6</ele>
        <time>2020-06-15T13:33:06Z</time>
      </trkpt>
      <trkpt lat="49.53289" lon="-1.39308">
        <ele>38.8</ele>
        <time>2020-06-15T13:33:07Z</time>
      </trkpt>
      <trkpt lat="49.53288" lon="-1.39306">
        <ele>38.9</ele>
        <time>2020-06-15T13:33:08Z</time>
      </trkpt>
      <trkpt lat="49.53287" lon="-1.393">
        <ele>39.1</ele>
        <time>2020-06-15T13:33:09Z</time>
      </trkpt>
      <trkpt lat="49.53286" lon="-1.39295">
        <ele>39.2</ele>
        <time>2020-06-15T13:33:10Z</time>
      </trkpt>
      <trkpt lat="49.53284" lon="-1.3929">
        <ele>39.4</ele>
        <time>2020-06-15T13:33:11Z</time>
      </trkpt>
      <trkpt lat="49.53283" lon="-1.39284">
        <ele>39.5</ele>
        <time>2020-06-15T13:33:12Z</time>
      </trkpt>
      <trkpt lat="49.53281" lon="-1.39277">
        <ele>39.7</ele>
        <time>2020-06-15T13:33:13Z</time>
      </trkpt>
      <trkpt lat="49.53279" lon="-1.3927">
        <ele>39.9</ele>
        <time>2020-06-15T13:33:14Z</time>
      </trkpt>
      <trkpt lat="49.53278" lon="-1.39264">
        <ele>40.1</ele>
        <time>2020-06-15T13:33:15Z</time>
      </trkpt>
      <trkpt lat="49.53276" lon="-1.39257">
        <ele>40.3</ele>
        <time>2020-06-15T13:33:16Z</time>
      </trkpt>
      <trkpt lat="49.53274" lon="-1.3925">
        <ele>40.4</ele>
        <time>2020-06-15T13:33:17Z</time>
      </trkpt>
      <trkpt lat="49.53272" lon="-1.39244">
        <ele>40.6</ele>
        <time>2020-06-15T13:33:18Z</time>
      </trkpt>
      <trkpt lat="49.53271" lon="-1.39238">
        <ele>40.7</ele>
        <time>2020-06-15T13:33:19Z</time>
      </trkpt>
      <trkpt lat="49.53269" lon="-1.39232">
        <ele>40.8</ele>
        <time>2020-06-15T13:33:20Z</time>
      </trkpt>
      <trkpt lat="49.53269" lon="-1.39227">
        <ele>41</ele>
        <time>2020-06-15T13:33:21Z</time>
      </trkpt>
      <trkpt lat="49.53267" lon="-1.39222">
        <ele>41.1</ele>
        <time>2020-06-15T13:33:22Z</time>
      </trkpt>
      <trkpt lat="49.53265" lon="-1.39215">
        <ele>41.2</ele>
        <time>2020-06-15T13:33:23Z</time>
      </trkpt>
      <trkpt lat="49.53264" lon="-1.39209">
        <ele>41.4</ele>
        <time>2020-06-15T13:33:24Z</time>
      </trkpt>
      <trkpt lat="49.53263" lon="-1.39204">
        <ele>41.4</ele>
        <time>2020-06-15T13:33:25Z</time>
      </trkpt>
      <trkpt lat="49.53262" lon="-1.39198">
        <ele>41.5</ele>
        <time>2020-06-15T13:33:26Z</time>
      </trkpt>
      <trkpt lat="49.53262" lon="-1.39192">
        <ele>41.6</ele>
        <time>2020-06-15T13:33:27Z</time>
      </trkpt>
      <trkpt lat="49.5326" lon="-1.39185">
        <ele>41.7</ele>
        <time>2020-06-15T13:33:28Z</time>
      </trkpt>
      <trkpt lat="49.53259" lon="-1.39181">
        <ele>41.8</ele>
        <time>2020-06-15T13:33:29Z</time>
      </trkpt>
      <trkpt lat="49.53258" lon="-1.39175">
        <ele>41.9</ele>
        <time>2020-06-15T13:33:30Z</time>
      </trkpt>
      <trkpt lat="49.53256" lon="-1.3917">
        <ele>42</ele>
        <time>2020-06-15T13:33:31Z</time>
      </trkpt>
      <trkpt lat="49.53254" lon="-1.39163">
        <ele>42</ele>
        <time>2020-06-15T13:33:32Z</time>
      </trkpt>
      <trkpt lat="49.53253" lon="-1.39155">
        <ele>42.1</ele>
        <time>2020-06-15T13:33:33Z</time>
      </trkpt>
      <trkpt lat="49.53251" lon="-1.3915">
        <ele>42.1</ele>
        <time>2020-06-15T13:33:34Z</time>
      </trkpt>
      <trkpt lat="49.5325" lon="-1.39143">
        <ele>42.1</ele>
        <time>2020-06-15T13:33:35Z</time>
      </trkpt>
      <trkpt lat="49.53247" lon="-1.39138">
        <ele>42.2</ele>
        <time>2020-06-15T13:33:36Z</time>
      </trkpt>
      <trkpt lat="49.53245" lon="-1.39132">
        <ele>42.2</ele>
        <time>2020-06-15T13:33:37Z</time>
      </trkpt>
      <trkpt lat="49.53244" lon="-1.39125">
        <ele>42.2</ele>
        <time>2020-06-15T13:33:38Z</time>
      </trkpt>
      <trkpt lat="49.53242" lon="-1.39118">
        <ele>42.2</ele>
        <time>2020-06-15T13:33:39Z</time>
      </trkpt>
      <trkpt lat="49.53242" lon="-1.39113">
        <ele>42.3</ele>
        <time>2020-06-15T13:33:40Z</time>
      </trkpt>
      <trkpt lat="49.53241" lon="-1.39105">
        <ele>42.3</ele>
        <time>2020-06-15T13:33:41Z</time>
      </trkpt>
      <trkpt lat="49.53239" lon="-1.39099">
        <ele>42.3</ele>
        <time>2020-06-15T13:33:42Z</time>
      </trkpt>
      <trkpt lat="49.53237" lon="-1.39093">
        <ele>42.3</ele>
        <time>2020-06-15T13:33:43Z</time>
      </trkpt>
      <trkpt lat="49.53236" lon="-1.39087">
        <ele>42.4</ele>
        <time>2020-06-15T13:33:44Z</time>
      </trkpt>
      <trkpt lat="49.53234" lon="-1.3908">
        <ele>42.4</ele>
        <time>2020-06-15T13:33:45Z</time>
      </trkpt>
      <trkpt lat="49.53233" lon="-1.39074">
        <ele>42.4</ele>
        <time>2020-06-15T13:33:46Z</time>
      </trkpt>
      <trkpt lat="49.53232" lon="-1.39068">
        <ele>42.5</ele>
        <time>2020-06-15T13:33:47Z</time>
      </trkpt>
      <trkpt lat="49.53231" lon="-1.39062">
        <ele>42.5</ele>
        <time>2020-06-15T13:33:48Z</time>
      </trkpt>
      <trkpt lat="49.5323" lon="-1.39056">
        <ele>42.5</ele>
        <time>2020-06-15T13:33:49Z</time>
      </trkpt>
      <trkpt lat="49.53227" lon="-1.39049">
        <ele>42.5</ele>
        <time>2020-06-15T13:33:50Z</time>
      </trkpt>
      <trkpt lat="49.53226" lon="-1.39041">
        <ele>42.6</ele>
        <time>2020-06-15T13:33:51Z</time>
      </trkpt>
      <trkpt lat="49.53225" lon="-1.39035">
        <ele>42.6</ele>
        <time>2020-06-15T13:33:52Z</time>
      </trkpt>
      <trkpt lat="49.53225" lon="-1.39029">
        <ele>42.6</ele>
        <time>2020-06-15T13:33:53Z</time>
      </trkpt>
      <trkpt lat="49.53223" lon="-1.39023">
        <ele>42.6</ele>
        <time>2020-06-15T13:33:54Z</time>
      </trkpt>
      <trkpt lat="49.53222" lon="-1.39018">
        <ele>42.7</ele>
        <time>2020-06-15T13:33:55Z</time>
      </trkpt>
      <trkpt lat="49.53221" lon="-1.3901">
        <ele>42.7</ele>
        <time>2020-06-15T13:33:56Z</time>
      </trkpt>
      <trkpt lat="49.5322" lon="-1.39003">
        <ele>42.7</ele>
        <time>2020-06-15T13:33:57Z</time>
      </trkpt>
      <trkpt lat="49.53218" lon="-1.38997">
        <ele>42.8</ele>
        <time>2020-06-15T13:33:58Z</time>
      </trkpt>
      <trkpt lat="49.53217" lon="-1.38989">
        <ele>42.8</ele>
        <time>2020-06-15T13:33:59Z</time>
      </trkpt>
      <trkpt lat="49.53215" lon="-1.38983">
        <ele>42.8</ele>
        <time>2020-06-15T13:34:00Z</time>
      </trkpt>
      <trkpt lat="49.53213" lon="-1.38978">
        <ele>42.9</ele>
        <time>2020-06-15T13:34:01Z</time>
      </trkpt>
      <trkpt lat="49.53212" lon="-1.38972">
        <ele>42.9</ele>
        <time>2020-06-15T13:34:02Z</time>
      </trkpt>
      <trkpt lat="49.5321" lon="-1.38966">
        <ele>42.9</ele>
        <time>2020-06-15T13:34:03Z</time>
      </trkpt>
      <trkpt lat="49.53208" lon="-1.38959">
        <ele>42.9</ele>
        <time>2020-06-15T13:34:04Z</time>
      </trkpt>
      <trkpt lat="49.53206" lon="-1.38952">
        <ele>43</ele>
        <time>2020-06-15T13:34:05Z</time>
      </trkpt>
      <trkpt lat="49.53204" lon="-1.38946">
        <ele>43</ele>
        <time>2020-06-15T13:34:06Z</time>
      </trkpt>
      <trkpt lat="49.53202" lon="-1.3894">
        <ele>43</ele>
        <time>2020-06-15T13:34:07Z</time>
      </trkpt>
      <trkpt lat="49.532" lon="-1.38933">
        <ele>43.1</ele>
        <time>2020-06-15T13:34:08Z</time>
      </trkpt>
      <trkpt lat="49.53198" lon="-1.38927">
        <ele>43.1</ele>
        <time>2020-06-15T13:34:09Z</time>
      </trkpt>
      <trkpt lat="49.53196" lon="-1.3892">
        <ele>43.1</ele>
        <time>2020-06-15T13:34:10Z</time>
      </trkpt>
      <trkpt lat="49.53193" lon="-1.38914">
        <ele>43.1</ele>
        <time>2020-06-15T13:34:11Z</time>
      </trkpt>
      <trkpt lat="49.53191" lon="-1.38908">
        <ele>43.1</ele>
        <time>2020-06-15T13:34:12Z</time>
      </trkpt>
      <trkpt lat="49.53189" lon="-1.38902">
        <ele>43.1</ele>
        <time>2020-06-15T13:34:13Z</time>
      </trkpt>
      <trkpt lat="49.53187" lon="-1.38896">
        <ele>43.1</ele>
        <time>2020-06-15T13:34:14Z</time>
      </trkpt>
      <trkpt lat="49.53185" lon="-1.38889">
        <ele>43.1</ele>
        <time>2020-06-15T13:34:15Z</time>
      </trkpt>
      <trkpt lat="49.53183" lon="-1.38883">
        <ele>43.2</ele>
        <time>2020-06-15T13:34:16Z</time>
      </trkpt>
      <trkpt lat="49.5318" lon="-1.38878">
        <ele>43.2</ele>
        <time>2020-06-15T13:34:17Z</time>
      </trkpt>
      <trkpt lat="49.53177" lon="-1.38871">
        <ele>43.3</ele>
        <time>2020-06-15T13:34:18Z</time>
      </trkpt>
      <trkpt lat="49.53175" lon="-1.38864">
        <ele>43.3</ele>
        <time>2020-06-15T13:34:19Z</time>
      </trkpt>
      <trkpt lat="49.53172" lon="-1.38857">
        <ele>43.4</ele>
        <time>2020-06-15T13:34:20Z</time>
      </trkpt>
      <trkpt lat="49.53169" lon="-1.38851">
        <ele>43.4</ele>
        <time>2020-06-15T13:34:21Z</time>
      </trkpt>
      <trkpt lat="49.53167" lon="-1.38844">
        <ele>43.5</ele>
        <time>2020-06-15T13:34:22Z</time>
      </trkpt>
      <trkpt lat="49.53164" lon="-1.38839">
        <ele>43.5</ele>
        <time>2020-06-15T13:34:23Z</time>
      </trkpt>
      <trkpt lat="49.53162" lon="-1.38834">
        <ele>43.5</ele>
        <time>2020-06-15T13:34:24Z</time>
      </trkpt>
      <trkpt lat="49.53159" lon="-1.38829">
        <ele>43.5</ele>
        <time>2020-06-15T13:34:25Z</time>
      </trkpt>
      <trkpt lat="49.53156" lon="-1.38823">
        <ele>43.4</ele>
        <time>2020-06-15T13:34:26Z</time>
      </trkpt>
      <trkpt lat="49.53153" lon="-1.38818">
        <ele>43.4</ele>
        <time>2020-06-15T13:34:27Z</time>
      </trkpt>
      <trkpt lat="49.53151" lon="-1.38812">
        <ele>43.4</ele>
        <time>2020-06-15T13:34:28Z</time>
      </trkpt>
      <trkpt lat="49.53148" lon="-1.38806">
        <ele>43.3</ele>
        <time>2020-06-15T13:34:29Z</time>
      </trkpt>
      <trkpt lat="49.53145" lon="-1.388">
        <ele>43.3</ele>
        <time>2020-06-15T13:34:30Z</time>
      </trkpt>
      <trkpt lat="49.53143" lon="-1.38794">
        <ele>43.3</ele>
        <time>2020-06-15T13:34:31Z</time>
      </trkpt>
      <trkpt lat="49.5314" lon="-1.38788">
        <ele>43.2</ele>
        <time>2020-06-15T13:34:32Z</time>
      </trkpt>
      <trkpt lat="49.53137" lon="-1.38782">
        <ele>43.1</ele>
        <time>2020-06-15T13:34:33Z</time>
      </trkpt>
      <trkpt lat="49.53134" lon="-1.38777">
        <ele>43</ele>
        <time>2020-06-15T13:34:34Z</time>
      </trkpt>
      <trkpt lat="49.53131" lon="-1.3877">
        <ele>43</ele>
        <time>2020-06-15T13:34:35Z</time>
      </trkpt>
      <trkpt lat="49.53127" lon="-1.38765">
        <ele>42.9</ele>
        <time>2020-06-15T13:34:36Z</time>
      </trkpt>
      <trkpt lat="49.53124" lon="-1.3876">
        <ele>42.8</ele>
        <time>2020-06-15T13:34:37Z</time>
      </trkpt>
      <trkpt lat="49.53121" lon="-1.38755">
        <ele>42.8</ele>
        <time>2020-06-15T13:34:38Z</time>
      </trkpt>
      <trkpt lat="49.53118" lon="-1.38748">
        <ele>42.7</ele>
        <time>2020-06-15T13:34:39Z</time>
      </trkpt>
      <trkpt lat="49.53115" lon="-1.38743">
        <ele>42.7</ele>
        <time>2020-06-15T13:34:40Z</time>
      </trkpt>
      <trkpt lat="49.53112" lon="-1.38737">
        <ele>42.7</ele>
        <time>2020-06-15T13:34:41Z</time>
      </trkpt>
      <trkpt lat="49.53109" lon="-1.3873">
        <ele>42.7</ele>
        <time>2020-06-15T13:34:42Z</time>
      </trkpt>
      <trkpt lat="49.53107" lon="-1.38724">
        <ele>42.6</ele>
        <time>2020-06-15T13:34:43Z</time>
      </trkpt>
      <trkpt lat="49.53103" lon="-1.38718">
        <ele>42.6</ele>
        <time>2020-06-15T13:34:44Z</time>
      </trkpt>
      <trkpt lat="49.531" lon="-1.38711">
        <ele>42.6</ele>
        <time>2020-06-15T13:34:45Z</time>
      </trkpt>
      <trkpt lat="49.53096" lon="-1.38705">
        <ele>42.5</ele>
        <time>2020-06-15T13:34:46Z</time>
      </trkpt>
      <trkpt lat="49.53093" lon="-1.38698">
        <ele>42.5</ele>
        <time>2020-06-15T13:34:47Z</time>
      </trkpt>
      <trkpt lat="49.5309" lon="-1.38691">
        <ele>42.4</ele>
        <time>2020-06-15T13:34:48Z</time>
      </trkpt>
      <trkpt lat="49.53086" lon="-1.38683">
        <ele>42.4</ele>
        <time>2020-06-15T13:34:49Z</time>
      </trkpt>
      <trkpt lat="49.53083" lon="-1.38676">
        <ele>42.3</ele>
        <time>2020-06-15T13:34:50Z</time>
      </trkpt>
      <trkpt lat="49.5308" lon="-1.38669">
        <ele>42.3</ele>
        <time>2020-06-15T13:34:51Z</time>
      </trkpt>
      <trkpt lat="49.53077" lon="-1.38662">
        <ele>42.2</ele>
        <time>2020-06-15T13:34:52Z</time>
      </trkpt>
      <trkpt lat="49.53073" lon="-1.38653">
        <ele>42.1</ele>
        <time>2020-06-15T13:34:53Z</time>
      </trkpt>
      <trkpt lat="49.5307" lon="-1.38646">
        <ele>42.1</ele>
        <time>2020-06-15T13:34:54Z</time>
      </trkpt>
      <trkpt lat="49.53066" lon="-1.38637">
        <ele>42</ele>
        <time>2020-06-15T13:34:55Z</time>
      </trkpt>
      <trkpt lat="49.53063" lon="-1.3863">
        <ele>42</ele>
        <time>2020-06-15T13:34:56Z</time>
      </trkpt>
      <trkpt lat="49.53059" lon="-1.38624">
        <ele>42</ele>
        <time>2020-06-15T13:34:57Z</time>
      </trkpt>
      <trkpt lat="49.53055" lon="-1.38617">
        <ele>41.9</ele>
        <time>2020-06-15T13:34:58Z</time>
      </trkpt>
      <trkpt lat="49.53052" lon="-1.38611">
        <ele>41.9</ele>
        <time>2020-06-15T13:34:59Z</time>
      </trkpt>
      <trkpt lat="49.53048" lon="-1.38605">
        <ele>41.9</ele>
        <time>2020-06-15T13:35:00Z</time>
      </trkpt>
      <trkpt lat="49.53045" lon="-1.38598">
        <ele>41.8</ele>
        <time>2020-06-15T13:35:01Z</time>
      </trkpt>
      <trkpt lat="49.53043" lon="-1.38592">
        <ele>41.7</ele>
        <time>2020-06-15T13:35:02Z</time>
      </trkpt>
      <trkpt lat="49.53039" lon="-1.38585">
        <ele>41.7</ele>
        <time>2020-06-15T13:35:03Z</time>
      </trkpt>
      <trkpt lat="49.53034" lon="-1.3858">
        <ele>41.6</ele>
        <time>2020-06-15T13:35:04Z</time>
      </trkpt>
      <trkpt lat="49.5303" lon="-1.38573">
        <ele>41.5</ele>
        <time>2020-06-15T13:35:05Z</time>
      </trkpt>
      <trkpt lat="49.53026" lon="-1.38568">
        <ele>41.4</ele>
        <time>2020-06-15T13:35:06Z</time>
      </trkpt>
      <trkpt lat="49.53022" lon="-1.38562">
        <ele>41.3</ele>
        <time>2020-06-15T13:35:07Z</time>
      </trkpt>
      <trkpt lat="49.53017" lon="-1.38557">
        <ele>41.3</ele>
        <time>2020-06-15T13:35:08Z</time>
      </trkpt>
      <trkpt lat="49.53013" lon="-1.38551">
        <ele>41.2</ele>
        <time>2020-06-15T13:35:09Z</time>
      </trkpt>
      <trkpt lat="49.53008" lon="-1.38547">
        <ele>41.2</ele>
        <time>2020-06-15T13:35:10Z</time>
      </trkpt>
      <trkpt lat="49.53004" lon="-1.38542">
        <ele>41.2</ele>
        <time>2020-06-15T13:35:11Z</time>
      </trkpt>
      <trkpt lat="49.53" lon="-1.38538">
        <ele>41.2</ele>
        <time>2020-06-15T13:35:12Z</time>
      </trkpt>
      <trkpt lat="49.52995" lon="-1.38533">
        <ele>41.2</ele>
        <time>2020-06-15T13:35:13Z</time>
      </trkpt>
      <trkpt lat="49.52991" lon="-1.38527">
        <ele>41.1</ele>
        <time>2020-06-15T13:35:14Z</time>
      </trkpt>
      <trkpt lat="49.52987" lon="-1.38522">
        <ele>41.1</ele>
        <time>2020-06-15T13:35:15Z</time>
      </trkpt>
      <trkpt lat="49.52982" lon="-1.38516">
        <ele>41.1</ele>
        <time>2020-06-15T13:35:16Z</time>
      </trkpt>
      <trkpt lat="49.52978" lon="-1.38511">
        <ele>41</ele>
        <time>2020-06-15T13:35:17Z</time>
      </trkpt>
      <trkpt lat="49.52973" lon="-1.38505">
        <ele>40.9</ele>
        <time>2020-06-15T13:35:18Z</time>
      </trkpt>
      <trkpt lat="49.52969" lon="-1.385">
        <ele>40.8</ele>
        <time>2020-06-15T13:35:19Z</time>
      </trkpt>
      <trkpt lat="49.52965" lon="-1.38494">
        <ele>40.7</ele>
        <time>2020-06-15T13:35:20Z</time>
      </trkpt>
      <trkpt lat="49.52961" lon="-1.38489">
        <ele>40.6</ele>
        <time>2020-06-15T13:35:21Z</time>
      </trkpt>
      <trkpt lat="49.52958" lon="-1.38483">
        <ele>40.4</ele>
        <time>2020-06-15T13:35:22Z</time>
      </trkpt>
      <trkpt lat="49.52954" lon="-1.38476">
        <ele>40.2</ele>
        <time>2020-06-15T13:35:23Z</time>
      </trkpt>
      <trkpt lat="49.5295" lon="-1.38469">
        <ele>40</ele>
        <time>2020-06-15T13:35:24Z</time>
      </trkpt>
      <trkpt lat="49.52947" lon="-1.38463">
        <ele>39.8</ele>
        <time>2020-06-15T13:35:25Z</time>
      </trkpt>
      <trkpt lat="49.52944" lon="-1.38457">
        <ele>39.7</ele>
        <time>2020-06-15T13:35:26Z</time>
      </trkpt>
      <trkpt lat="49.5294" lon="-1.38451">
        <ele>39.5</ele>
        <time>2020-06-15T13:35:27Z</time>
      </trkpt>
      <trkpt lat="49.52936" lon="-1.38444">
        <ele>39.3</ele>
        <time>2020-06-15T13:35:28Z</time>
      </trkpt>
      <trkpt lat="49.52933" lon="-1.38437">
        <ele>39.1</ele>
        <time>2020-06-15T13:35:29Z</time>
      </trkpt>
      <trkpt lat="49.52929" lon="-1.3843">
        <ele>38.8</ele>
        <time>2020-06-15T13:35:30Z</time>
      </trkpt>
      <trkpt lat="49.52926" lon="-1.38424">
        <ele>38.7</ele>
        <time>2020-06-15T13:35:31Z</time>
      </trkpt>
      <trkpt lat="49.52922" lon="-1.38418">
        <ele>38.6</ele>
        <time>2020-06-15T13:35:32Z</time>
      </trkpt>
      <trkpt lat="49.52918" lon="-1.38411">
        <ele>38.5</ele>
        <time>2020-06-15T13:35:33Z</time>
      </trkpt>
      <trkpt lat="49.52914" lon="-1.38404">
        <ele>38.4</ele>
        <time>2020-06-15T13:35:34Z</time>
      </trkpt>
      <trkpt lat="49.5291" lon="-1.38398">
        <ele>38.3</ele>
        <time>2020-06-15T13:35:35Z</time>
      </trkpt>
      <trkpt lat="49.52906" lon="-1.3839">
        <ele>38.1</ele>
        <time>2020-06-15T13:35:36Z</time>
      </trkpt>
      <trkpt lat="49.52902" lon="-1.38384">
        <ele>38.1</ele>
        <time>2020-06-15T13:35:37Z</time>
      </trkpt>
      <trkpt lat="49.52898" lon="-1.38378">
        <ele>38.1</ele>
        <time>2020-06-15T13:35:38Z</time>
      </trkpt>
      <trkpt lat="49.52895" lon="-1.38373">
        <ele>38</ele>
        <time>2020-06-15T13:35:39Z</time>
      </trkpt>
      <trkpt lat="49.52892" lon="-1.38369">
        <ele>38</ele>
        <time>2020-06-15T13:35:40Z</time>
      </trkpt>
      <trkpt lat="49.52889" lon="-1.38366">
        <ele>38</ele>
        <time>2020-06-15T13:35:41Z</time>
      </trkpt>
      <trkpt lat="49.52887" lon="-1.38363">
        <ele>37.9</ele>
        <time>2020-06-15T13:35:42Z</time>
      </trkpt>
      <trkpt lat="49.52885" lon="-1.38362">
        <ele>37.9</ele>
        <time>2020-06-15T13:35:43Z</time>
      </trkpt>
      <trkpt lat="49.52884" lon="-1.38361">
        <ele>37.9</ele>
        <time>2020-06-15T13:35:44Z</time>
      </trkpt>
      <trkpt lat="49.52882" lon="-1.38358">
        <ele>37.8</ele>
        <time>2020-06-15T13:35:45Z</time>
      </trkpt>
      <trkpt lat="49.52881" lon="-1.38358">
        <ele>37.8</ele>
        <time>2020-06-15T13:35:46Z</time>
      </trkpt>
      <trkpt lat="49.52881" lon="-1.38354">
        <ele>37.7</ele>
        <time>2020-06-15T13:35:47Z</time>
      </trkpt>
      <trkpt lat="49.52881" lon="-1.38352">
        <ele>37.7</ele>
        <time>2020-06-15T13:35:48Z</time>
      </trkpt>
      <trkpt lat="49.52881" lon="-1.38347">
        <ele>37.6</ele>
        <time>2020-06-15T13:35:49Z</time>
      </trkpt>
      <trkpt lat="49.52881" lon="-1.38342">
        <ele>37.5</ele>
        <time>2020-06-15T13:35:50Z</time>
      </trkpt>
      <trkpt lat="49.5288" lon="-1.38336">
        <ele>37.4</ele>
        <time>2020-06-15T13:35:51Z</time>
      </trkpt>
      <trkpt lat="49.5288" lon="-1.3833">
        <ele>37.3</ele>
        <time>2020-06-15T13:35:52Z</time>
      </trkpt>
      <trkpt lat="49.52879" lon="-1.38323">
        <ele>37.3</ele>
        <time>2020-06-15T13:35:53Z</time>
      </trkpt>
      <trkpt lat="49.52877" lon="-1.38317">
        <ele>37.2</ele>
        <time>2020-06-15T13:35:54Z</time>
      </trkpt>
      <trkpt lat="49.52875" lon="-1.3831">
        <ele>37.2</ele>
        <time>2020-06-15T13:35:55Z</time>
      </trkpt>
      <trkpt lat="49.52873" lon="-1.38303">
        <ele>37.2</ele>
        <time>2020-06-15T13:35:56Z</time>
      </trkpt>
      <trkpt lat="49.52872" lon="-1.38297">
        <ele>37.1</ele>
        <time>2020-06-15T13:35:57Z</time>
      </trkpt>
      <trkpt lat="49.5287" lon="-1.3829">
        <ele>37.1</ele>
        <time>2020-06-15T13:35:58Z</time>
      </trkpt>
      <trkpt lat="49.52868" lon="-1.38283">
        <ele>37.1</ele>
        <time>2020-06-15T13:35:59Z</time>
      </trkpt>
      <trkpt lat="49.52866" lon="-1.38276">
        <ele>37</ele>
        <time>2020-06-15T13:36:00Z</time>
      </trkpt>
      <trkpt lat="49.52863" lon="-1.38271">
        <ele>37</ele>
        <time>2020-06-15T13:36:01Z</time>
      </trkpt>
      <trkpt lat="49.52861" lon="-1.38264">
        <ele>37</ele>
        <time>2020-06-15T13:36:02Z</time>
      </trkpt>
      <trkpt lat="49.52859" lon="-1.38258">
        <ele>37</ele>
        <time>2020-06-15T13:36:03Z</time>
      </trkpt>
      <trkpt lat="49.52857" lon="-1.38252">
        <ele>37</ele>
        <time>2020-06-15T13:36:04Z</time>
      </trkpt>
      <trkpt lat="49.52855" lon="-1.38246">
        <ele>37</ele>
        <time>2020-06-15T13:36:05Z</time>
      </trkpt>
      <trkpt lat="49.52852" lon="-1.38239">
        <ele>36.9</ele>
        <time>2020-06-15T13:36:06Z</time>
      </trkpt>
      <trkpt lat="49.5285" lon="-1.38232">
        <ele>36.9</ele>
        <time>2020-06-15T13:36:07Z</time>
      </trkpt>
      <trkpt lat="49.52848" lon="-1.38226">
        <ele>37</ele>
        <time>2020-06-15T13:36:08Z</time>
      </trkpt>
      <trkpt lat="49.52845" lon="-1.38221">
        <ele>37</ele>
        <time>2020-06-15T13:36:09Z</time>
      </trkpt>
      <trkpt lat="49.52843" lon="-1.38216">
        <ele>37</ele>
        <time>2020-06-15T13:36:10Z</time>
      </trkpt>
      <trkpt lat="49.5284" lon="-1.38211">
        <ele>37</ele>
        <time>2020-06-15T13:36:11Z</time>
      </trkpt>
      <trkpt lat="49.52837" lon="-1.38206">
        <ele>36.9</ele>
        <time>2020-06-15T13:36:12Z</time>
      </trkpt>
      <trkpt lat="49.52834" lon="-1.382">
        <ele>36.8</ele>
        <time>2020-06-15T13:36:13Z</time>
      </trkpt>
      <trkpt lat="49.52831" lon="-1.38194">
        <ele>36.7</ele>
        <time>2020-06-15T13:36:14Z</time>
      </trkpt>
      <trkpt lat="49.52828" lon="-1.38188">
        <ele>36.6</ele>
        <time>2020-06-15T13:36:15Z</time>
      </trkpt>
      <trkpt lat="49.52825" lon="-1.38183">
        <ele>36.5</ele>
        <time>2020-06-15T13:36:16Z</time>
      </trkpt>
      <trkpt lat="49.52822" lon="-1.38176">
        <ele>36.4</ele>
        <time>2020-06-15T13:36:17Z</time>
      </trkpt>
      <trkpt lat="49.52819" lon="-1.3817">
        <ele>36.4</ele>
        <time>2020-06-15T13:36:18Z</time>
      </trkpt>
      <trkpt lat="49.52815" lon="-1.38163">
        <ele>36.3</ele>
        <time>2020-06-15T13:36:19Z</time>
      </trkpt>
      <trkpt lat="49.52812" lon="-1.38158">
        <ele>36.3</ele>
        <time>2020-06-15T13:36:20Z</time>
      </trkpt>
      <trkpt lat="49.52808" lon="-1.38152">
        <ele>36.2</ele>
        <time>2020-06-15T13:36:21Z</time>
      </trkpt>
      <trkpt lat="49.52805" lon="-1.38146">
        <ele>36.1</ele>
        <time>2020-06-15T13:36:22Z</time>
      </trkpt>
      <trkpt lat="49.52802" lon="-1.38139">
        <ele>36.1</ele>
        <time>2020-06-15T13:36:23Z</time>
      </trkpt>
      <trkpt lat="49.52798" lon="-1.38132">
        <ele>36</ele>
        <time>2020-06-15T13:36:24Z</time>
      </trkpt>
      <trkpt lat="49.52795" lon="-1.38125">
        <ele>36</ele>
        <time>2020-06-15T13:36:25Z</time>
      </trkpt>
      <trkpt lat="49.52792" lon="-1.38119">
        <ele>35.9</ele>
        <time>2020-06-15T13:36:26Z</time>
      </trkpt>
      <trkpt lat="49.52789" lon="-1.38113">
        <ele>35.8</ele>
        <time>2020-06-15T13:36:27Z</time>
      </trkpt>
      <trkpt lat="49.52786" lon="-1.38106">
        <ele>35.8</ele>
        <time>2020-06-15T13:36:28Z</time>
      </trkpt>
      <trkpt lat="49.52781" lon="-1.38099">
        <ele>35.7</ele>
        <time>2020-06-15T13:36:29Z</time>
      </trkpt>
      <trkpt lat="49.52777" lon="-1.38092">
        <ele>35.6</ele>
        <time>2020-06-15T13:36:30Z</time>
      </trkpt>
      <trkpt lat="49.52772" lon="-1.38086">
        <ele>35.6</ele>
        <time>2020-06-15T13:36:31Z</time>
      </trkpt>
      <trkpt lat="49.52768" lon="-1.3808">
        <ele>35.5</ele>
        <time>2020-06-15T13:36:32Z</time>
      </trkpt>
      <trkpt lat="49.52764" lon="-1.38074">
        <ele>35.5</ele>
        <time>2020-06-15T13:36:33Z</time>
      </trkpt>
      <trkpt lat="49.5276" lon="-1.38068">
        <ele>35.5</ele>
        <time>2020-06-15T13:36:34Z</time>
      </trkpt>
      <trkpt lat="49.52755" lon="-1.38061">
        <ele>35.5</ele>
        <time>2020-06-15T13:36:35Z</time>
      </trkpt>
      <trkpt lat="49.52751" lon="-1.38055">
        <ele>35.5</ele>
        <time>2020-06-15T13:36:36Z</time>
      </trkpt>
      <trkpt lat="49.52747" lon="-1.38048">
        <ele>35.4</ele>
        <time>2020-06-15T13:36:37Z</time>
      </trkpt>
      <trkpt lat="49.52743" lon="-1.38043">
        <ele>35.4</ele>
        <time>2020-06-15T13:36:38Z</time>
      </trkpt>
      <trkpt lat="49.52739" lon="-1.38039">
        <ele>35.4</ele>
        <time>2020-06-15T13:36:39Z</time>
      </trkpt>
      <trkpt lat="49.52735" lon="-1.38033">
        <ele>35.4</ele>
        <time>2020-06-15T13:36:40Z</time>
      </trkpt>
      <trkpt lat="49.52731" lon="-1.38028">
        <ele>35.3</ele>
        <time>2020-06-15T13:36:41Z</time>
      </trkpt>
      <trkpt lat="49.52727" lon="-1.38022">
        <ele>35.3</ele>
        <time>2020-06-15T13:36:42Z</time>
      </trkpt>
      <trkpt lat="49.52722" lon="-1.38017">
        <ele>35.3</ele>
        <time>2020-06-15T13:36:43Z</time>
      </trkpt>
      <trkpt lat="49.52718" lon="-1.38012">
        <ele>35.3</ele>
        <time>2020-06-15T13:36:44Z</time>
      </trkpt>
      <trkpt lat="49.52713" lon="-1.38005">
        <ele>35.3</ele>
        <time>2020-06-15T13:36:45Z</time>
      </trkpt>
      <trkpt lat="49.52708" lon="-1.37999">
        <ele>35.3</ele>
        <time>2020-06-15T13:36:46Z</time>
      </trkpt>
      <trkpt lat="49.52703" lon="-1.37993">
        <ele>35.2</ele>
        <time>2020-06-15T13:36:47Z</time>
      </trkpt>
      <trkpt lat="49.52699" lon="-1.37986">
        <ele>35.2</ele>
        <time>2020-06-15T13:36:48Z</time>
      </trkpt>
      <trkpt lat="49.52695" lon="-1.37979">
        <ele>35.2</ele>
        <time>2020-06-15T13:36:49Z</time>
      </trkpt>
      <trkpt lat="49.52691" lon="-1.37972">
        <ele>35.1</ele>
        <time>2020-06-15T13:36:50Z</time>
      </trkpt>
      <trkpt lat="49.52686" lon="-1.37965">
        <ele>35.1</ele>
        <time>2020-06-15T13:36:51Z</time>
      </trkpt>
      <trkpt lat="49.52682" lon="-1.37958">
        <ele>35.1</ele>
        <time>2020-06-15T13:36:52Z</time>
      </trkpt>
      <trkpt lat="49.52677" lon="-1.37952">
        <ele>35</ele>
        <time>2020-06-15T13:36:53Z</time>
      </trkpt>
      <trkpt lat="49.52673" lon="-1.37946">
        <ele>35</ele>
        <time>2020-06-15T13:36:54Z</time>
      </trkpt>
      <trkpt lat="49.52669" lon="-1.3794">
        <ele>34.9</ele>
        <time>2020-06-15T13:36:55Z</time>
      </trkpt>
      <trkpt lat="49.52665" lon="-1.37932">
        <ele>34.9</ele>
        <time>2020-06-15T13:36:56Z</time>
      </trkpt>
      <trkpt lat="49.5266" lon="-1.37925">
        <ele>34.8</ele>
        <time>2020-06-15T13:36:57Z</time>
      </trkpt>
      <trkpt lat="49.52655" lon="-1.37918">
        <ele>34.7</ele>
        <time>2020-06-15T13:36:58Z</time>
      </trkpt>
      <trkpt lat="49.5265" lon="-1.37912">
        <ele>34.6</ele>
        <time>2020-06-15T13:36:59Z</time>
      </trkpt>
      <trkpt lat="49.52645" lon="-1.37906">
        <ele>34.6</ele>
        <time>2020-06-15T13:37:00Z</time>
      </trkpt>
      <trkpt lat="49.5264" lon="-1.37901">
        <ele>34.5</ele>
        <time>2020-06-15T13:37:01Z</time>
      </trkpt>
      <trkpt lat="49.52635" lon="-1.37895">
        <ele>34.5</ele>
        <time>2020-06-15T13:37:02Z</time>
      </trkpt>
      <trkpt lat="49.5263" lon="-1.3789">
        <ele>34.4</ele>
        <time>2020-06-15T13:37:03Z</time>
      </trkpt>
      <trkpt lat="49.52625" lon="-1.37885">
        <ele>34.4</ele>
        <time>2020-06-15T13:37:04Z</time>
      </trkpt>
      <trkpt lat="49.5262" lon="-1.37881">
        <ele>34.3</ele>
        <time>2020-06-15T13:37:05Z</time>
      </trkpt>
      <trkpt lat="49.52615" lon="-1.37876">
        <ele>34.3</ele>
        <time>2020-06-15T13:37:06Z</time>
      </trkpt>
      <trkpt lat="49.5261" lon="-1.37871">
        <ele>34.2</ele>
        <time>2020-06-15T13:37:07Z</time>
      </trkpt>
      <trkpt lat="49.52605" lon="-1.37867">
        <ele>34.2</ele>
        <time>2020-06-15T13:37:08Z</time>
      </trkpt>
      <trkpt lat="49.526" lon="-1.37861">
        <ele>34.1</ele>
        <time>2020-06-15T13:37:09Z</time>
      </trkpt>
      <trkpt lat="49.52595" lon="-1.37855">
        <ele>34.1</ele>
        <time>2020-06-15T13:37:10Z</time>
      </trkpt>
      <trkpt lat="49.5259" lon="-1.3785">
        <ele>34</ele>
        <time>2020-06-15T13:37:11Z</time>
      </trkpt>
      <trkpt lat="49.52584" lon="-1.37846">
        <ele>34</ele>
        <time>2020-06-15T13:37:12Z</time>
      </trkpt>
      <trkpt lat="49.5258" lon="-1.37842">
        <ele>34</ele>
        <time>2020-06-15T13:37:13Z</time>
      </trkpt>
      <trkpt lat="49.52575" lon="-1.37837">
        <ele>34</ele>
        <time>2020-06-15T13:37:14Z</time>
      </trkpt>
      <trkpt lat="49.52569" lon="-1.37833">
        <ele>34</ele>
        <time>2020-06-15T13:37:15Z</time>
      </trkpt>
      <trkpt lat="49.52565" lon="-1.37829">
        <ele>34</ele>
        <time>2020-06-15T13:37:16Z</time>
      </trkpt>
      <trkpt lat="49.52559" lon="-1.37825">
        <ele>34</ele>
        <time>2020-06-15T13:37:17Z</time>
      </trkpt>
      <trkpt lat="49.52555" lon="-1.37822">
        <ele>33.9</ele>
        <time>2020-06-15T13:37:18Z</time>
      </trkpt>
      <trkpt lat="49.5255" lon="-1.37819">
        <ele>33.9</ele>
        <time>2020-06-15T13:37:19Z</time>
      </trkpt>
      <trkpt lat="49.52546" lon="-1.37815">
        <ele>33.9</ele>
        <time>2020-06-15T13:37:20Z</time>
      </trkpt>
      <trkpt lat="49.52541" lon="-1.3781">
        <ele>33.9</ele>
        <time>2020-06-15T13:37:21Z</time>
      </trkpt>
      <trkpt lat="49.52537" lon="-1.37806">
        <ele>33.8</ele>
        <time>2020-06-15T13:37:22Z</time>
      </trkpt>
      <trkpt lat="49.52531" lon="-1.378">
        <ele>33.8</ele>
        <time>2020-06-15T13:37:23Z</time>
      </trkpt>
      <trkpt lat="49.52526" lon="-1.37795">
        <ele>33.8</ele>
        <time>2020-06-15T13:37:24Z</time>
      </trkpt>
      <trkpt lat="49.52522" lon="-1.37789">
        <ele>33.7</ele>
        <time>2020-06-15T13:37:25Z</time>
      </trkpt>
      <trkpt lat="49.52516" lon="-1.37783">
        <ele>33.7</ele>
        <time>2020-06-15T13:37:26Z</time>
      </trkpt>
      <trkpt lat="49.52512" lon="-1.37778">
        <ele>33.7</ele>
        <time>2020-06-15T13:37:27Z</time>
      </trkpt>
      <trkpt lat="49.52507" lon="-1.37773">
        <ele>33.7</ele>
        <time>2020-06-15T13:37:28Z</time>
      </trkpt>
      <trkpt lat="49.52502" lon="-1.37766">
        <ele>33.6</ele>
        <time>2020-06-15T13:37:29Z</time>
      </trkpt>
      <trkpt lat="49.52498" lon="-1.37761">
        <ele>33.6</ele>
        <time>2020-06-15T13:37:30Z</time>
      </trkpt>
      <trkpt lat="49.52494" lon="-1.37754">
        <ele>33.5</ele>
        <time>2020-06-15T13:37:31Z</time>
      </trkpt>
      <trkpt lat="49.5249" lon="-1.37747">
        <ele>33.5</ele>
        <time>2020-06-15T13:37:32Z</time>
      </trkpt>
      <trkpt lat="49.52486" lon="-1.3774">
        <ele>33.5</ele>
        <time>2020-06-15T13:37:33Z</time>
      </trkpt>
      <trkpt lat="49.52483" lon="-1.37733">
        <ele>33.4</ele>
        <time>2020-06-15T13:37:34Z</time>
      </trkpt>
      <trkpt lat="49.52479" lon="-1.37725">
        <ele>33.4</ele>
        <time>2020-06-15T13:37:35Z</time>
      </trkpt>
      <trkpt lat="49.52476" lon="-1.37718">
        <ele>33.4</ele>
        <time>2020-06-15T13:37:36Z</time>
      </trkpt>
      <trkpt lat="49.52473" lon="-1.3771">
        <ele>33.4</ele>
        <time>2020-06-15T13:37:37Z</time>
      </trkpt>
      <trkpt lat="49.52469" lon="-1.37702">
        <ele>33.3</ele>
        <time>2020-06-15T13:37:38Z</time>
      </trkpt>
      <trkpt lat="49.52465" lon="-1.37695">
        <ele>33.3</ele>
        <time>2020-06-15T13:37:39Z</time>
      </trkpt>
      <trkpt lat="49.52462" lon="-1.37686">
        <ele>33.3</ele>
        <time>2020-06-15T13:37:40Z</time>
      </trkpt>
      <trkpt lat="49.52458" lon="-1.37678">
        <ele>33.3</ele>
        <time>2020-06-15T13:37:41Z</time>
      </trkpt>
      <trkpt lat="49.52455" lon="-1.37669">
        <ele>33.3</ele>
        <time>2020-06-15T13:37:42Z</time>
      </trkpt>
      <trkpt lat="49.52451" lon="-1.37663">
        <ele>33.3</ele>
        <time>2020-06-15T13:37:43Z</time>
      </trkpt>
      <trkpt lat="49.52448" lon="-1.37655">
        <ele>33.3</ele>
        <time>2020-06-15T13:37:44Z</time>
      </trkpt>
      <trkpt lat="49.52444" lon="-1.37648">
        <ele>33.3</ele>
        <time>2020-06-15T13:37:45Z</time>
      </trkpt>
      <trkpt lat="49.5244" lon="-1.3764">
        <ele>33.3</ele>
        <time>2020-06-15T13:37:46Z</time>
      </trkpt>
      <trkpt lat="49.52437" lon="-1.37633">
        <ele>33.3</ele>
        <time>2020-06-15T13:37:47Z</time>
      </trkpt>
      <trkpt lat="49.52434" lon="-1.37626">
        <ele>33.3</ele>
        <time>2020-06-15T13:37:48Z</time>
      </trkpt>
      <trkpt lat="49.52431" lon="-1.3762">
        <ele>33.4</ele>
        <time>2020-06-15T13:37:49Z</time>
      </trkpt>
      <trkpt lat="49.52427" lon="-1.37612">
        <ele>33.4</ele>
        <time>2020-06-15T13:37:50Z</time>
      </trkpt>
      <trkpt lat="49.52424" lon="-1.37605">
        <ele>33.5</ele>
        <time>2020-06-15T13:37:51Z</time>
      </trkpt>
      <trkpt lat="49.5242" lon="-1.37598">
        <ele>33.5</ele>
        <time>2020-06-15T13:37:52Z</time>
      </trkpt>
      <trkpt lat="49.52417" lon="-1.37591">
        <ele>33.6</ele>
        <time>2020-06-15T13:37:53Z</time>
      </trkpt>
      <trkpt lat="49.52414" lon="-1.37584">
        <ele>33.6</ele>
        <time>2020-06-15T13:37:54Z</time>
      </trkpt>
      <trkpt lat="49.52411" lon="-1.37578">
        <ele>33.7</ele>
        <time>2020-06-15T13:37:55Z</time>
      </trkpt>
      <trkpt lat="49.52409" lon="-1.37572">
        <ele>33.7</ele>
        <time>2020-06-15T13:37:56Z</time>
      </trkpt>
      <trkpt lat="49.52405" lon="-1.37566">
        <ele>33.8</ele>
        <time>2020-06-15T13:37:57Z</time>
      </trkpt>
      <trkpt lat="49.52402" lon="-1.37559">
        <ele>33.8</ele>
        <time>2020-06-15T13:37:58Z</time>
      </trkpt>
      <trkpt lat="49.52399" lon="-1.37552">
        <ele>33.9</ele>
        <time>2020-06-15T13:37:59Z</time>
      </trkpt>
      <trkpt lat="49.52396" lon="-1.37544">
        <ele>33.9</ele>
        <time>2020-06-15T13:38:00Z</time>
      </trkpt>
      <trkpt lat="49.52393" lon="-1.37538">
        <ele>33.9</ele>
        <time>2020-06-15T13:38:01Z</time>
      </trkpt>
      <trkpt lat="49.52389" lon="-1.37531">
        <ele>34</ele>
        <time>2020-06-15T13:38:02Z</time>
      </trkpt>
      <trkpt lat="49.52386" lon="-1.37523">
        <ele>34</ele>
        <time>2020-06-15T13:38:03Z</time>
      </trkpt>
      <trkpt lat="49.52382" lon="-1.37516">
        <ele>34</ele>
        <time>2020-06-15T13:38:04Z</time>
      </trkpt>
      <trkpt lat="49.52378" lon="-1.37508">
        <ele>34</ele>
        <time>2020-06-15T13:38:05Z</time>
      </trkpt>
      <trkpt lat="49.52376" lon="-1.37502">
        <ele>34</ele>
        <time>2020-06-15T13:38:06Z</time>
      </trkpt>
      <trkpt lat="49.52373" lon="-1.37496">
        <ele>34</ele>
        <time>2020-06-15T13:38:07Z</time>
      </trkpt>
      <trkpt lat="49.52369" lon="-1.37491">
        <ele>34</ele>
        <time>2020-06-15T13:38:08Z</time>
      </trkpt>
      <trkpt lat="49.52365" lon="-1.37485">
        <ele>34</ele>
        <time>2020-06-15T13:38:09Z</time>
      </trkpt>
      <trkpt lat="49.52362" lon="-1.37478">
        <ele>33.9</ele>
        <time>2020-06-15T13:38:10Z</time>
      </trkpt>
      <trkpt lat="49.52358" lon="-1.37473">
        <ele>33.8</ele>
        <time>2020-06-15T13:38:11Z</time>
      </trkpt>
      <trkpt lat="49.52355" lon="-1.37467">
        <ele>33.7</ele>
        <time>2020-06-15T13:38:12Z</time>
      </trkpt>
      <trkpt lat="49.52351" lon="-1.3746">
        <ele>33.7</ele>
        <time>2020-06-15T13:38:13Z</time>
      </trkpt>
      <trkpt lat="49.52348" lon="-1.37454">
        <ele>33.6</ele>
        <time>2020-06-15T13:38:14Z</time>
      </trkpt>
      <trkpt lat="49.52343" lon="-1.37449">
        <ele>33.6</ele>
        <time>2020-06-15T13:38:15Z</time>
      </trkpt>
      <trkpt lat="49.52338" lon="-1.37445">
        <ele>33.5</ele>
        <time>2020-06-15T13:38:16Z</time>
      </trkpt>
      <trkpt lat="49.52333" lon="-1.37441">
        <ele>33.5</ele>
        <time>2020-06-15T13:38:17Z</time>
      </trkpt>
      <trkpt lat="49.52329" lon="-1.37435">
        <ele>33.4</ele>
        <time>2020-06-15T13:38:18Z</time>
      </trkpt>
      <trkpt lat="49.52324" lon="-1.3743">
        <ele>33.4</ele>
        <time>2020-06-15T13:38:19Z</time>
      </trkpt>
      <trkpt lat="49.5232" lon="-1.37425">
        <ele>33.3</ele>
        <time>2020-06-15T13:38:20Z</time>
      </trkpt>
      <trkpt lat="49.52315" lon="-1.3742">
        <ele>33.2</ele>
        <time>2020-06-15T13:38:21Z</time>
      </trkpt>
      <trkpt lat="49.5231" lon="-1.37415">
        <ele>33.2</ele>
        <time>2020-06-15T13:38:22Z</time>
      </trkpt>
      <trkpt lat="49.52306" lon="-1.37411">
        <ele>33.1</ele>
        <time>2020-06-15T13:38:23Z</time>
      </trkpt>
      <trkpt lat="49.52301" lon="-1.37406">
        <ele>33</ele>
        <time>2020-06-15T13:38:24Z</time>
      </trkpt>
      <trkpt lat="49.52297" lon="-1.37401">
        <ele>32.9</ele>
        <time>2020-06-15T13:38:25Z</time>
      </trkpt>
      <trkpt lat="49.52292" lon="-1.37394">
        <ele>32.9</ele>
        <time>2020-06-15T13:38:26Z</time>
      </trkpt>
      <trkpt lat="49.52287" lon="-1.37388">
        <ele>32.8</ele>
        <time>2020-06-15T13:38:27Z</time>
      </trkpt>
      <trkpt lat="49.52283" lon="-1.37381">
        <ele>32.7</ele>
        <time>2020-06-15T13:38:28Z</time>
      </trkpt>
      <trkpt lat="49.52279" lon="-1.37376">
        <ele>32.6</ele>
        <time>2020-06-15T13:38:29Z</time>
      </trkpt>
      <trkpt lat="49.52275" lon="-1.37371">
        <ele>32.4</ele>
        <time>2020-06-15T13:38:30Z</time>
      </trkpt>
      <trkpt lat="49.52271" lon="-1.37365">
        <ele>32.3</ele>
        <time>2020-06-15T13:38:31Z</time>
      </trkpt>
      <trkpt lat="49.52266" lon="-1.3736">
        <ele>32.1</ele>
        <time>2020-06-15T13:38:32Z</time>
      </trkpt>
      <trkpt lat="49.52262" lon="-1.37356">
        <ele>31.9</ele>
        <time>2020-06-15T13:38:33Z</time>
      </trkpt>
      <trkpt lat="49.52259" lon="-1.37352">
        <ele>31.7</ele>
        <time>2020-06-15T13:38:34Z</time>
      </trkpt>
      <trkpt lat="49.52255" lon="-1.37347">
        <ele>31.6</ele>
        <time>2020-06-15T13:38:35Z</time>
      </trkpt>
      <trkpt lat="49.52251" lon="-1.37344">
        <ele>31.4</ele>
        <time>2020-06-15T13:38:36Z</time>
      </trkpt>
      <trkpt lat="49.52248" lon="-1.37341">
        <ele>31.3</ele>
        <time>2020-06-15T13:38:37Z</time>
      </trkpt>
      <trkpt lat="49.52245" lon="-1.37337">
        <ele>31.2</ele>
        <time>2020-06-15T13:38:38Z</time>
      </trkpt>
      <trkpt lat="49.52243" lon="-1.37334">
        <ele>31.1</ele>
        <time>2020-06-15T13:38:39Z</time>
      </trkpt>
      <trkpt lat="49.52241" lon="-1.3733">
        <ele>30.9</ele>
        <time>2020-06-15T13:38:40Z</time>
      </trkpt>
      <trkpt lat="49.52239" lon="-1.37327">
        <ele>30.8</ele>
        <time>2020-06-15T13:38:41Z</time>
      </trkpt>
      <trkpt lat="49.52236" lon="-1.37324">
        <ele>30.7</ele>
        <time>2020-06-15T13:38:42Z</time>
      </trkpt>
      <trkpt lat="49.52233" lon="-1.37322">
        <ele>30.4</ele>
        <time>2020-06-15T13:38:43Z</time>
      </trkpt>
      <trkpt lat="49.5223" lon="-1.37319">
        <ele>30.2</ele>
        <time>2020-06-15T13:38:44Z</time>
      </trkpt>
      <trkpt lat="49.52226" lon="-1.37316">
        <ele>30</ele>
        <time>2020-06-15T13:38:45Z</time>
      </trkpt>
      <trkpt lat="49.52222" lon="-1.37311">
        <ele>29.7</ele>
        <time>2020-06-15T13:38:46Z</time>
      </trkpt>
      <trkpt lat="49.52218" lon="-1.37306">
        <ele>29.4</ele>
        <time>2020-06-15T13:38:47Z</time>
      </trkpt>
      <trkpt lat="49.52214" lon="-1.37303">
        <ele>29.2</ele>
        <time>2020-06-15T13:38:48Z</time>
      </trkpt>
      <trkpt lat="49.5221" lon="-1.373">
        <ele>28.9</ele>
        <time>2020-06-15T13:38:49Z</time>
      </trkpt>
      <trkpt lat="49.52206" lon="-1.37296">
        <ele>28.7</ele>
        <time>2020-06-15T13:38:50Z</time>
      </trkpt>
      <trkpt lat="49.52202" lon="-1.37294">
        <ele>28.5</ele>
        <time>2020-06-15T13:38:51Z</time>
      </trkpt>
      <trkpt lat="49.52197" lon="-1.37291">
        <ele>28.3</ele>
        <time>2020-06-15T13:38:52Z</time>
      </trkpt>
      <trkpt lat="49.52193" lon="-1.37289">
        <ele>28.1</ele>
        <time>2020-06-15T13:38:53Z</time>
      </trkpt>
      <trkpt lat="49.52191" lon="-1.37287">
        <ele>28</ele>
        <time>2020-06-15T13:38:54Z</time>
      </trkpt>
      <trkpt lat="49.5219" lon="-1.37286">
        <ele>27.9</ele>
        <time>2020-06-15T13:38:55Z</time>
      </trkpt>
      <trkpt lat="49.52189" lon="-1.37285">
        <ele>27.8</ele>
        <time>2020-06-15T13:38:56Z</time>
      </trkpt>
      <trkpt lat="49.52188" lon="-1.37284">
        <ele>27.8</ele>
        <time>2020-06-15T13:38:57Z</time>
      </trkpt>
      <trkpt lat="49.52187" lon="-1.37284">
        <ele>27.7</ele>
        <time>2020-06-15T13:38:58Z</time>
      </trkpt>
      <trkpt lat="49.52185" lon="-1.37285">
        <ele>27.7</ele>
        <time>2020-06-15T13:38:59Z</time>
      </trkpt>
      <trkpt lat="49.52184" lon="-1.37284">
        <ele>27.6</ele>
        <time>2020-06-15T13:39:00Z</time>
      </trkpt>
      <trkpt lat="49.52184" lon="-1.37286">
        <ele>27.5</ele>
        <time>2020-06-15T13:39:01Z</time>
      </trkpt>
      <trkpt lat="49.52183" lon="-1.37287">
        <ele>27.5</ele>
        <time>2020-06-15T13:39:02Z</time>
      </trkpt>
      <trkpt lat="49.52183" lon="-1.37286">
        <ele>27.4</ele>
        <time>2020-06-15T13:39:03Z</time>
      </trkpt>
      <trkpt lat="49.52182" lon="-1.37286">
        <ele>27.4</ele>
        <time>2020-06-15T13:39:04Z</time>
      </trkpt>
      <trkpt lat="49.52181" lon="-1.37286">
        <ele>27.3</ele>
        <time>2020-06-15T13:39:05Z</time>
      </trkpt>
      <trkpt lat="49.5218" lon="-1.37286">
        <ele>27.3</ele>
        <time>2020-06-15T13:39:06Z</time>
      </trkpt>
      <trkpt lat="49.5218" lon="-1.37286">
        <ele>27.3</ele>
        <time>2020-06-15T13:39:07Z</time>
      </trkpt>
      <trkpt lat="49.5218" lon="-1.37286">
        <ele>27.3</ele>
        <time>2020-06-15T13:39:08Z</time>
      </trkpt>
      <trkpt lat="49.5218" lon="-1.37286">
        <ele>27.2</ele>
        <time>2020-06-15T13:39:09Z</time>
      </trkpt>
      <trkpt lat="49.5218" lon="-1.37287">
        <ele>27.2</ele>
        <time>2020-06-15T13:39:10Z</time>
      </trkpt>
      <trkpt lat="49.5218" lon="-1.37287">
        <ele>27.2</ele>
        <time>2020-06-15T13:39:11Z</time>
      </trkpt>
      <trkpt lat="49.52174" lon="-1.3728">
        <ele>26.8</ele>
        <time>2020-06-15T13:39:52Z</time>
      </trkpt>
      <trkpt lat="49.52171" lon="-1.37278">
        <ele>26.6</ele>
        <time>2020-06-15T13:39:53Z</time>
      </trkpt>
      <trkpt lat="49.52166" lon="-1.37274">
        <ele>26.4</ele>
        <time>2020-06-15T13:39:54Z</time>
      </trkpt>
      <trkpt lat="49.52164" lon="-1.37272">
        <ele>26.2</ele>
        <time>2020-06-15T13:39:55Z</time>
      </trkpt>
      <trkpt lat="49.5216" lon="-1.37269">
        <ele>26</ele>
        <time>2020-06-15T13:39:56Z</time>
      </trkpt>
      <trkpt lat="49.52155" lon="-1.37265">
        <ele>25.7</ele>
        <time>2020-06-15T13:39:57Z</time>
      </trkpt>
      <trkpt lat="49.52148" lon="-1.3726">
        <ele>25.4</ele>
        <time>2020-06-15T13:39:58Z</time>
      </trkpt>
      <trkpt lat="49.52142" lon="-1.37255">
        <ele>25.1</ele>
        <time>2020-06-15T13:39:59Z</time>
      </trkpt>
      <trkpt lat="49.52136" lon="-1.37251">
        <ele>24.9</ele>
        <time>2020-06-15T13:40:00Z</time>
      </trkpt>
      <trkpt lat="49.5213" lon="-1.37248">
        <ele>24.7</ele>
        <time>2020-06-15T13:40:01Z</time>
      </trkpt>
      <trkpt lat="49.52123" lon="-1.37243">
        <ele>24.5</ele>
        <time>2020-06-15T13:40:02Z</time>
      </trkpt>
      <trkpt lat="49.52116" lon="-1.37238">
        <ele>24.4</ele>
        <time>2020-06-15T13:40:03Z</time>
      </trkpt>
      <trkpt lat="49.5211" lon="-1.37233">
        <ele>24.3</ele>
        <time>2020-06-15T13:40:04Z</time>
      </trkpt>
      <trkpt lat="49.52103" lon="-1.37229">
        <ele>24.3</ele>
        <time>2020-06-15T13:40:05Z</time>
      </trkpt>
      <trkpt lat="49.52097" lon="-1.37224">
        <ele>24.4</ele>
        <time>2020-06-15T13:40:06Z</time>
      </trkpt>
      <trkpt lat="49.52091" lon="-1.3722">
        <ele>24.5</ele>
        <time>2020-06-15T13:40:07Z</time>
      </trkpt>
      <trkpt lat="49.52085" lon="-1.37216">
        <ele>24.6</ele>
        <time>2020-06-15T13:40:08Z</time>
      </trkpt>
      <trkpt lat="49.52079" lon="-1.37212">
        <ele>24.7</ele>
        <time>2020-06-15T13:40:09Z</time>
      </trkpt>
      <trkpt lat="49.52073" lon="-1.37208">
        <ele>24.9</ele>
        <time>2020-06-15T13:40:10Z</time>
      </trkpt>
      <trkpt lat="49.52067" lon="-1.37205">
        <ele>25.1</ele>
        <time>2020-06-15T13:40:11Z</time>
      </trkpt>
      <trkpt lat="49.52062" lon="-1.37202">
        <ele>25.4</ele>
        <time>2020-06-15T13:40:12Z</time>
      </trkpt>
      <trkpt lat="49.52057" lon="-1.37199">
        <ele>25.7</ele>
        <time>2020-06-15T13:40:13Z</time>
      </trkpt>
      <trkpt lat="49.52053" lon="-1.37196">
        <ele>25.9</ele>
        <time>2020-06-15T13:40:14Z</time>
      </trkpt>
      <trkpt lat="49.52049" lon="-1.37193">
        <ele>26.2</ele>
        <time>2020-06-15T13:40:15Z</time>
      </trkpt>
      <trkpt lat="49.52045" lon="-1.3719">
        <ele>26.4</ele>
        <time>2020-06-15T13:40:16Z</time>
      </trkpt>
      <trkpt lat="49.52041" lon="-1.37187">
        <ele>26.8</ele>
        <time>2020-06-15T13:40:17Z</time>
      </trkpt>
      <trkpt lat="49.52037" lon="-1.37185">
        <ele>27</ele>
        <time>2020-06-15T13:40:18Z</time>
      </trkpt>
      <trkpt lat="49.52033" lon="-1.37182">
        <ele>27.3</ele>
        <time>2020-06-15T13:40:19Z</time>
      </trkpt>
      <trkpt lat="49.5203" lon="-1.37179">
        <ele>27.6</ele>
        <time>2020-06-15T13:40:20Z</time>
      </trkpt>
      <trkpt lat="49.52026" lon="-1.37176">
        <ele>27.9</ele>
        <time>2020-06-15T13:40:21Z</time>
      </trkpt>
      <trkpt lat="49.52022" lon="-1.37172">
        <ele>28.2</ele>
        <time>2020-06-15T13:40:22Z</time>
      </trkpt>
      <trkpt lat="49.52019" lon="-1.37169">
        <ele>28.5</ele>
        <time>2020-06-15T13:40:23Z</time>
      </trkpt>
      <trkpt lat="49.52016" lon="-1.37167">
        <ele>28.7</ele>
        <time>2020-06-15T13:40:24Z</time>
      </trkpt>
      <trkpt lat="49.52013" lon="-1.37165">
        <ele>29</ele>
        <time>2020-06-15T13:40:25Z</time>
      </trkpt>
      <trkpt lat="49.52009" lon="-1.37163">
        <ele>29.3</ele>
        <time>2020-06-15T13:40:26Z</time>
      </trkpt>
      <trkpt lat="49.52007" lon="-1.37161">
        <ele>29.5</ele>
        <time>2020-06-15T13:40:27Z</time>
      </trkpt>
      <trkpt lat="49.52003" lon="-1.37159">
        <ele>29.9</ele>
        <time>2020-06-15T13:40:28Z</time>
      </trkpt>
      <trkpt lat="49.52" lon="-1.37157">
        <ele>30.2</ele>
        <time>2020-06-15T13:40:29Z</time>
      </trkpt>
      <trkpt lat="49.51996" lon="-1.37154">
        <ele>30.6</ele>
        <time>2020-06-15T13:40:30Z</time>
      </trkpt>
      <trkpt lat="49.51992" lon="-1.37152">
        <ele>31</ele>
        <time>2020-06-15T13:40:31Z</time>
      </trkpt>
      <trkpt lat="49.5199" lon="-1.37151">
        <ele>31.2</ele>
        <time>2020-06-15T13:40:32Z</time>
      </trkpt>
      <trkpt lat="49.51987" lon="-1.3715">
        <ele>31.4</ele>
        <time>2020-06-15T13:40:33Z</time>
      </trkpt>
      <trkpt lat="49.51984" lon="-1.37147">
        <ele>31.7</ele>
        <time>2020-06-15T13:40:34Z</time>
      </trkpt>
      <trkpt lat="49.5198" lon="-1.37144">
        <ele>32</ele>
        <time>2020-06-15T13:40:35Z</time>
      </trkpt>
      <trkpt lat="49.51977" lon="-1.37143">
        <ele>32.3</ele>
        <time>2020-06-15T13:40:36Z</time>
      </trkpt>
      <trkpt lat="49.51974" lon="-1.37142">
        <ele>32.5</ele>
        <time>2020-06-15T13:40:37Z</time>
      </trkpt>
      <trkpt lat="49.5197" lon="-1.3714">
        <ele>32.7</ele>
        <time>2020-06-15T13:40:38Z</time>
      </trkpt>
      <trkpt lat="49.51967" lon="-1.37137">
        <ele>33</ele>
        <time>2020-06-15T13:40:39Z</time>
      </trkpt>
      <trkpt lat="49.51965" lon="-1.37136">
        <ele>33.2</ele>
        <time>2020-06-15T13:40:40Z</time>
      </trkpt>
      <trkpt lat="49.51962" lon="-1.37134">
        <ele>33.4</ele>
        <time>2020-06-15T13:40:41Z</time>
      </trkpt>
      <trkpt lat="49.5196" lon="-1.37132">
        <ele>33.5</ele>
        <time>2020-06-15T13:40:42Z</time>
      </trkpt>
      <trkpt lat="49.51958" lon="-1.3713">
        <ele>33.7</ele>
        <time>2020-06-15T13:40:43Z</time>
      </trkpt>
      <trkpt lat="49.51954" lon="-1.37127">
        <ele>34</ele>
        <time>2020-06-15T13:40:44Z</time>
      </trkpt>
      <trkpt lat="49.51952" lon="-1.37125">
        <ele>34.2</ele>
        <time>2020-06-15T13:40:45Z</time>
      </trkpt>
      <trkpt lat="49.51949" lon="-1.37124">
        <ele>34.4</ele>
        <time>2020-06-15T13:40:46Z</time>
      </trkpt>
      <trkpt lat="49.51945" lon="-1.37121">
        <ele>34.7</ele>
        <time>2020-06-15T13:40:47Z</time>
      </trkpt>
      <trkpt lat="49.51942" lon="-1.37119">
        <ele>34.9</ele>
        <time>2020-06-15T13:40:48Z</time>
      </trkpt>
      <trkpt lat="49.51939" lon="-1.37117">
        <ele>35.1</ele>
        <time>2020-06-15T13:40:49Z</time>
      </trkpt>
      <trkpt lat="49.51935" lon="-1.37116">
        <ele>35.3</ele>
        <time>2020-06-15T13:40:50Z</time>
      </trkpt>
      <trkpt lat="49.51932" lon="-1.37116">
        <ele>35.5</ele>
        <time>2020-06-15T13:40:51Z</time>
      </trkpt>
      <trkpt lat="49.51929" lon="-1.37116">
        <ele>35.7</ele>
        <time>2020-06-15T13:40:52Z</time>
      </trkpt>
      <trkpt lat="49.51926" lon="-1.37116">
        <ele>35.9</ele>
        <time>2020-06-15T13:40:53Z</time>
      </trkpt>
      <trkpt lat="49.51921" lon="-1.37115">
        <ele>36.2</ele>
        <time>2020-06-15T13:40:54Z</time>
      </trkpt>
      <trkpt lat="49.51919" lon="-1.37115">
        <ele>36.4</ele>
        <time>2020-06-15T13:40:55Z</time>
      </trkpt>
      <trkpt lat="49.51915" lon="-1.37114">
        <ele>36.6</ele>
        <time>2020-06-15T13:40:56Z</time>
      </trkpt>
      <trkpt lat="49.51912" lon="-1.37114">
        <ele>36.8</ele>
        <time>2020-06-15T13:40:57Z</time>
      </trkpt>
      <trkpt lat="49.51909" lon="-1.37113">
        <ele>37</ele>
        <time>2020-06-15T13:40:58Z</time>
      </trkpt>
      <trkpt lat="49.51905" lon="-1.37112">
        <ele>37.2</ele>
        <time>2020-06-15T13:40:59Z</time>
      </trkpt>
      <trkpt lat="49.51901" lon="-1.37113">
        <ele>37.4</ele>
        <time>2020-06-15T13:41:00Z</time>
      </trkpt>
      <trkpt lat="49.51897" lon="-1.37113">
        <ele>37.6</ele>
        <time>2020-06-15T13:41:01Z</time>
      </trkpt>
      <trkpt lat="49.51894" lon="-1.37113">
        <ele>37.8</ele>
        <time>2020-06-15T13:41:02Z</time>
      </trkpt>
      <trkpt lat="49.5189" lon="-1.37113">
        <ele>38</ele>
        <time>2020-06-15T13:41:03Z</time>
      </trkpt>
      <trkpt lat="49.51887" lon="-1.37113">
        <ele>38.2</ele>
        <time>2020-06-15T13:41:04Z</time>
      </trkpt>
      <trkpt lat="49.51884" lon="-1.37114">
        <ele>38.3</ele>
        <time>2020-06-15T13:41:05Z</time>
      </trkpt>
      <trkpt lat="49.51881" lon="-1.37115">
        <ele>38.5</ele>
        <time>2020-06-15T13:41:06Z</time>
      </trkpt>
      <trkpt lat="49.51877" lon="-1.37114">
        <ele>38.7</ele>
        <time>2020-06-15T13:41:07Z</time>
      </trkpt>
      <trkpt lat="49.51875" lon="-1.37115">
        <ele>38.9</ele>
        <time>2020-06-15T13:41:08Z</time>
      </trkpt>
      <trkpt lat="49.51872" lon="-1.37117">
        <ele>39.1</ele>
        <time>2020-06-15T13:41:09Z</time>
      </trkpt>
      <trkpt lat="49.51868" lon="-1.37117">
        <ele>39.3</ele>
        <time>2020-06-15T13:41:10Z</time>
      </trkpt>
      <trkpt lat="49.51866" lon="-1.37116">
        <ele>39.4</ele>
        <time>2020-06-15T13:41:11Z</time>
      </trkpt>
      <trkpt lat="49.51862" lon="-1.37117">
        <ele>39.6</ele>
        <time>2020-06-15T13:41:12Z</time>
      </trkpt>
      <trkpt lat="49.51861" lon="-1.37118">
        <ele>39.7</ele>
        <time>2020-06-15T13:41:13Z</time>
      </trkpt>
      <trkpt lat="49.51858" lon="-1.37118">
        <ele>39.9</ele>
        <time>2020-06-15T13:41:14Z</time>
      </trkpt>
      <trkpt lat="49.51854" lon="-1.37119">
        <ele>40.1</ele>
        <time>2020-06-15T13:41:15Z</time>
      </trkpt>
      <trkpt lat="49.51851" lon="-1.3712">
        <ele>40.3</ele>
        <time>2020-06-15T13:41:16Z</time>
      </trkpt>
      <trkpt lat="49.51848" lon="-1.3712">
        <ele>40.5</ele>
        <time>2020-06-15T13:41:17Z</time>
      </trkpt>
      <trkpt lat="49.51844" lon="-1.3712">
        <ele>40.7</ele>
        <time>2020-06-15T13:41:18Z</time>
      </trkpt>
      <trkpt lat="49.51841" lon="-1.3712">
        <ele>40.8</ele>
        <time>2020-06-15T13:41:19Z</time>
      </trkpt>
      <trkpt lat="49.51837" lon="-1.3712">
        <ele>41</ele>
        <time>2020-06-15T13:41:20Z</time>
      </trkpt>
      <trkpt lat="49.51835" lon="-1.3712">
        <ele>41.2</ele>
        <time>2020-06-15T13:41:21Z</time>
      </trkpt>
      <trkpt lat="49.51832" lon="-1.3712">
        <ele>41.3</ele>
        <time>2020-06-15T13:41:22Z</time>
      </trkpt>
      <trkpt lat="49.51828" lon="-1.3712">
        <ele>41.5</ele>
        <time>2020-06-15T13:41:23Z</time>
      </trkpt>
      <trkpt lat="49.51824" lon="-1.3712">
        <ele>41.6</ele>
        <time>2020-06-15T13:41:24Z</time>
      </trkpt>
      <trkpt lat="49.51821" lon="-1.3712">
        <ele>41.8</ele>
        <time>2020-06-15T13:41:25Z</time>
      </trkpt>
      <trkpt lat="49.51817" lon="-1.37121">
        <ele>41.9</ele>
        <time>2020-06-15T13:41:26Z</time>
      </trkpt>
      <trkpt lat="49.51814" lon="-1.3712">
        <ele>42.1</ele>
        <time>2020-06-15T13:41:27Z</time>
      </trkpt>
      <trkpt lat="49.5181" lon="-1.37122">
        <ele>42.2</ele>
        <time>2020-06-15T13:41:28Z</time>
      </trkpt>
      <trkpt lat="49.51806" lon="-1.37122">
        <ele>42.4</ele>
        <time>2020-06-15T13:41:29Z</time>
      </trkpt>
      <trkpt lat="49.51802" lon="-1.37121">
        <ele>42.6</ele>
        <time>2020-06-15T13:41:30Z</time>
      </trkpt>
      <trkpt lat="49.51798" lon="-1.37121">
        <ele>42.7</ele>
        <time>2020-06-15T13:41:31Z</time>
      </trkpt>
      <trkpt lat="49.51794" lon="-1.3712">
        <ele>42.9</ele>
        <time>2020-06-15T13:41:32Z</time>
      </trkpt>
      <trkpt lat="49.5179" lon="-1.37119">
        <ele>43</ele>
        <time>2020-06-15T13:41:33Z</time>
      </trkpt>
      <trkpt lat="49.51784" lon="-1.37116">
        <ele>43.2</ele>
        <time>2020-06-15T13:41:34Z</time>
      </trkpt>
      <trkpt lat="49.5178" lon="-1.37114">
        <ele>43.4</ele>
        <time>2020-06-15T13:41:35Z</time>
      </trkpt>
      <trkpt lat="49.51775" lon="-1.37112">
        <ele>43.5</ele>
        <time>2020-06-15T13:41:36Z</time>
      </trkpt>
      <trkpt lat="49.51771" lon="-1.37111">
        <ele>43.7</ele>
        <time>2020-06-15T13:41:37Z</time>
      </trkpt>
      <trkpt lat="49.51766" lon="-1.3711">
        <ele>43.8</ele>
        <time>2020-06-15T13:41:38Z</time>
      </trkpt>
      <trkpt lat="49.51762" lon="-1.37109">
        <ele>43.9</ele>
        <time>2020-06-15T13:41:39Z</time>
      </trkpt>
      <trkpt lat="49.51758" lon="-1.37108">
        <ele>44.1</ele>
        <time>2020-06-15T13:41:40Z</time>
      </trkpt>
      <trkpt lat="49.51754" lon="-1.37108">
        <ele>44.2</ele>
        <time>2020-06-15T13:41:41Z</time>
      </trkpt>
      <trkpt lat="49.51749" lon="-1.37107">
        <ele>44.3</ele>
        <time>2020-06-15T13:41:42Z</time>
      </trkpt>
      <trkpt lat="49.51745" lon="-1.37106">
        <ele>44.4</ele>
        <time>2020-06-15T13:41:43Z</time>
      </trkpt>
      <trkpt lat="49.51741" lon="-1.37105">
        <ele>44.5</ele>
        <time>2020-06-15T13:41:44Z</time>
      </trkpt>
      <trkpt lat="49.51736" lon="-1.37103">
        <ele>44.6</ele>
        <time>2020-06-15T13:41:45Z</time>
      </trkpt>
      <trkpt lat="49.51732" lon="-1.37102">
        <ele>44.7</ele>
        <time>2020-06-15T13:41:46Z</time>
      </trkpt>
      <trkpt lat="49.51729" lon="-1.37102">
        <ele>44.7</ele>
        <time>2020-06-15T13:41:47Z</time>
      </trkpt>
      <trkpt lat="49.51725" lon="-1.37102">
        <ele>44.8</ele>
        <time>2020-06-15T13:41:48Z</time>
      </trkpt>
      <trkpt lat="49.51721" lon="-1.37101">
        <ele>44.9</ele>
        <time>2020-06-15T13:41:49Z</time>
      </trkpt>
      <trkpt lat="49.51716" lon="-1.371">
        <ele>44.9</ele>
        <time>2020-06-15T13:41:50Z</time>
      </trkpt>
      <trkpt lat="49.5171" lon="-1.37099">
        <ele>45</ele>
        <time>2020-06-15T13:41:51Z</time>
      </trkpt>
      <trkpt lat="49.51706" lon="-1.37099">
        <ele>45.1</ele>
        <time>2020-06-15T13:41:52Z</time>
      </trkpt>
      <trkpt lat="49.51701" lon="-1.37097">
        <ele>45.2</ele>
        <time>2020-06-15T13:41:53Z</time>
      </trkpt>
      <trkpt lat="49.51696" lon="-1.37095">
        <ele>45.3</ele>
        <time>2020-06-15T13:41:54Z</time>
      </trkpt>
      <trkpt lat="49.51691" lon="-1.37094">
        <ele>45.3</ele>
        <time>2020-06-15T13:41:55Z</time>
      </trkpt>
      <trkpt lat="49.51687" lon="-1.37093">
        <ele>45.4</ele>
        <time>2020-06-15T13:41:56Z</time>
      </trkpt>
      <trkpt lat="49.51682" lon="-1.3709">
        <ele>45.5</ele>
        <time>2020-06-15T13:41:57Z</time>
      </trkpt>
      <trkpt lat="49.51677" lon="-1.37088">
        <ele>45.5</ele>
        <time>2020-06-15T13:41:58Z</time>
      </trkpt>
      <trkpt lat="49.51673" lon="-1.37086">
        <ele>45.5</ele>
        <time>2020-06-15T13:41:59Z</time>
      </trkpt>
      <trkpt lat="49.51669" lon="-1.37083">
        <ele>45.5</ele>
        <time>2020-06-15T13:42:00Z</time>
      </trkpt>
      <trkpt lat="49.51664" lon="-1.3708">
        <ele>45.5</ele>
        <time>2020-06-15T13:42:01Z</time>
      </trkpt>
      <trkpt lat="49.51659" lon="-1.37077">
        <ele>45.6</ele>
        <time>2020-06-15T13:42:02Z</time>
      </trkpt>
      <trkpt lat="49.51655" lon="-1.37076">
        <ele>45.6</ele>
        <time>2020-06-15T13:42:03Z</time>
      </trkpt>
      <trkpt lat="49.5165" lon="-1.37074">
        <ele>45.6</ele>
        <time>2020-06-15T13:42:04Z</time>
      </trkpt>
      <trkpt lat="49.51646" lon="-1.37072">
        <ele>45.6</ele>
        <time>2020-06-15T13:42:05Z</time>
      </trkpt>
      <trkpt lat="49.51642" lon="-1.3707">
        <ele>45.6</ele>
        <time>2020-06-15T13:42:06Z</time>
      </trkpt>
      <trkpt lat="49.51637" lon="-1.37066">
        <ele>45.6</ele>
        <time>2020-06-15T13:42:07Z</time>
      </trkpt>
      <trkpt lat="49.51633" lon="-1.37062">
        <ele>45.6</ele>
        <time>2020-06-15T13:42:08Z</time>
      </trkpt>
      <trkpt lat="49.51628" lon="-1.37059">
        <ele>45.6</ele>
        <time>2020-06-15T13:42:09Z</time>
      </trkpt>
      <trkpt lat="49.51623" lon="-1.37056">
        <ele>45.5</ele>
        <time>2020-06-15T13:42:10Z</time>
      </trkpt>
      <trkpt lat="49.51618" lon="-1.37053">
        <ele>45.5</ele>
        <time>2020-06-15T13:42:11Z</time>
      </trkpt>
      <trkpt lat="49.51614" lon="-1.3705">
        <ele>45.5</ele>
        <time>2020-06-15T13:42:12Z</time>
      </trkpt>
      <trkpt lat="49.5161" lon="-1.37047">
        <ele>45.5</ele>
        <time>2020-06-15T13:42:13Z</time>
      </trkpt>
      <trkpt lat="49.51606" lon="-1.37044">
        <ele>45.5</ele>
        <time>2020-06-15T13:42:14Z</time>
      </trkpt>
      <trkpt lat="49.51602" lon="-1.37042">
        <ele>45.5</ele>
        <time>2020-06-15T13:42:15Z</time>
      </trkpt>
      <trkpt lat="49.51597" lon="-1.37039">
        <ele>45.5</ele>
        <time>2020-06-15T13:42:16Z</time>
      </trkpt>
      <trkpt lat="49.51592" lon="-1.37035">
        <ele>45.4</ele>
        <time>2020-06-15T13:42:17Z</time>
      </trkpt>
      <trkpt lat="49.51587" lon="-1.37031">
        <ele>45.4</ele>
        <time>2020-06-15T13:42:18Z</time>
      </trkpt>
      <trkpt lat="49.51583" lon="-1.37028">
        <ele>45.4</ele>
        <time>2020-06-15T13:42:19Z</time>
      </trkpt>
      <trkpt lat="49.51578" lon="-1.37025">
        <ele>45.3</ele>
        <time>2020-06-15T13:42:20Z</time>
      </trkpt>
      <trkpt lat="49.51573" lon="-1.37022">
        <ele>45.4</ele>
        <time>2020-06-15T13:42:21Z</time>
      </trkpt>
      <trkpt lat="49.51568" lon="-1.3702">
        <ele>45.5</ele>
        <time>2020-06-15T13:42:22Z</time>
      </trkpt>
      <trkpt lat="49.51563" lon="-1.37017">
        <ele>45.6</ele>
        <time>2020-06-15T13:42:23Z</time>
      </trkpt>
      <trkpt lat="49.51559" lon="-1.37016">
        <ele>45.6</ele>
        <time>2020-06-15T13:42:24Z</time>
      </trkpt>
      <trkpt lat="49.51555" lon="-1.37015">
        <ele>45.6</ele>
        <time>2020-06-15T13:42:25Z</time>
      </trkpt>
      <trkpt lat="49.5155" lon="-1.37012">
        <ele>45.7</ele>
        <time>2020-06-15T13:42:26Z</time>
      </trkpt>
      <trkpt lat="49.51546" lon="-1.3701">
        <ele>45.8</ele>
        <time>2020-06-15T13:42:27Z</time>
      </trkpt>
      <trkpt lat="49.51541" lon="-1.37008">
        <ele>45.9</ele>
        <time>2020-06-15T13:42:28Z</time>
      </trkpt>
      <trkpt lat="49.51537" lon="-1.37006">
        <ele>46.1</ele>
        <time>2020-06-15T13:42:29Z</time>
      </trkpt>
      <trkpt lat="49.51532" lon="-1.37003">
        <ele>46.2</ele>
        <time>2020-06-15T13:42:30Z</time>
      </trkpt>
      <trkpt lat="49.51528" lon="-1.37001">
        <ele>46.4</ele>
        <time>2020-06-15T13:42:31Z</time>
      </trkpt>
      <trkpt lat="49.51523" lon="-1.36998">
        <ele>46.5</ele>
        <time>2020-06-15T13:42:32Z</time>
      </trkpt>
      <trkpt lat="49.51519" lon="-1.36995">
        <ele>46.7</ele>
        <time>2020-06-15T13:42:33Z</time>
      </trkpt>
      <trkpt lat="49.51515" lon="-1.36996">
        <ele>46.9</ele>
        <time>2020-06-15T13:42:34Z</time>
      </trkpt>
      <trkpt lat="49.51511" lon="-1.36995">
        <ele>47</ele>
        <time>2020-06-15T13:42:35Z</time>
      </trkpt>
      <trkpt lat="49.51507" lon="-1.36992">
        <ele>47.1</ele>
        <time>2020-06-15T13:42:36Z</time>
      </trkpt>
      <trkpt lat="49.51503" lon="-1.36991">
        <ele>47.3</ele>
        <time>2020-06-15T13:42:37Z</time>
      </trkpt>
      <trkpt lat="49.51499" lon="-1.36989">
        <ele>47.4</ele>
        <time>2020-06-15T13:42:38Z</time>
      </trkpt>
      <trkpt lat="49.51495" lon="-1.36986">
        <ele>47.5</ele>
        <time>2020-06-15T13:42:39Z</time>
      </trkpt>
      <trkpt lat="49.51491" lon="-1.36983">
        <ele>47.7</ele>
        <time>2020-06-15T13:42:40Z</time>
      </trkpt>
      <trkpt lat="49.51487" lon="-1.3698">
        <ele>47.9</ele>
        <time>2020-06-15T13:42:41Z</time>
      </trkpt>
      <trkpt lat="49.51483" lon="-1.3698">
        <ele>48</ele>
        <time>2020-06-15T13:42:42Z</time>
      </trkpt>
      <trkpt lat="49.51478" lon="-1.36978">
        <ele>48.2</ele>
        <time>2020-06-15T13:42:43Z</time>
      </trkpt>
      <trkpt lat="49.51473" lon="-1.36977">
        <ele>48.4</ele>
        <time>2020-06-15T13:42:44Z</time>
      </trkpt>
      <trkpt lat="49.51468" lon="-1.36975">
        <ele>48.6</ele>
        <time>2020-06-15T13:42:45Z</time>
      </trkpt>
      <trkpt lat="49.51464" lon="-1.36974">
        <ele>48.7</ele>
        <time>2020-06-15T13:42:46Z</time>
      </trkpt>
      <trkpt lat="49.51461" lon="-1.36974">
        <ele>48.8</ele>
        <time>2020-06-15T13:42:47Z</time>
      </trkpt>
      <trkpt lat="49.51456" lon="-1.36973">
        <ele>49</ele>
        <time>2020-06-15T13:42:48Z</time>
      </trkpt>
      <trkpt lat="49.51452" lon="-1.36971">
        <ele>49.1</ele>
        <time>2020-06-15T13:42:49Z</time>
      </trkpt>
      <trkpt lat="49.51448" lon="-1.3697">
        <ele>49.3</ele>
        <time>2020-06-15T13:42:50Z</time>
      </trkpt>
      <trkpt lat="49.51445" lon="-1.3697">
        <ele>49.4</ele>
        <time>2020-06-15T13:42:51Z</time>
      </trkpt>
      <trkpt lat="49.51441" lon="-1.36968">
        <ele>49.6</ele>
        <time>2020-06-15T13:42:52Z</time>
      </trkpt>
      <trkpt lat="49.51438" lon="-1.36967">
        <ele>49.7</ele>
        <time>2020-06-15T13:42:53Z</time>
      </trkpt>
      <trkpt lat="49.51435" lon="-1.36966">
        <ele>49.8</ele>
        <time>2020-06-15T13:42:54Z</time>
      </trkpt>
      <trkpt lat="49.51431" lon="-1.36966">
        <ele>50</ele>
        <time>2020-06-15T13:42:55Z</time>
      </trkpt>
      <trkpt lat="49.51428" lon="-1.36964">
        <ele>50.1</ele>
        <time>2020-06-15T13:42:56Z</time>
      </trkpt>
      <trkpt lat="49.51424" lon="-1.36963">
        <ele>50.2</ele>
        <time>2020-06-15T13:42:57Z</time>
      </trkpt>
      <trkpt lat="49.5142" lon="-1.36963">
        <ele>50.4</ele>
        <time>2020-06-15T13:42:58Z</time>
      </trkpt>
      <trkpt lat="49.51416" lon="-1.36962">
        <ele>50.5</ele>
        <time>2020-06-15T13:42:59Z</time>
      </trkpt>
      <trkpt lat="49.51412" lon="-1.3696">
        <ele>50.6</ele>
        <time>2020-06-15T13:43:00Z</time>
      </trkpt>
      <trkpt lat="49.51408" lon="-1.36958">
        <ele>50.7</ele>
        <time>2020-06-15T13:43:01Z</time>
      </trkpt>
      <trkpt lat="49.51404" lon="-1.36956">
        <ele>50.9</ele>
        <time>2020-06-15T13:43:02Z</time>
      </trkpt>
      <trkpt lat="49.514" lon="-1.36954">
        <ele>51</ele>
        <time>2020-06-15T13:43:03Z</time>
      </trkpt>
      <trkpt lat="49.51397" lon="-1.36951">
        <ele>51.1</ele>
        <time>2020-06-15T13:43:04Z</time>
      </trkpt>
      <trkpt lat="49.51392" lon="-1.36949">
        <ele>51.2</ele>
        <time>2020-06-15T13:43:05Z</time>
      </trkpt>
      <trkpt lat="49.51389" lon="-1.36947">
        <ele>51.2</ele>
        <time>2020-06-15T13:43:06Z</time>
      </trkpt>
      <trkpt lat="49.51386" lon="-1.36946">
        <ele>51.3</ele>
        <time>2020-06-15T13:43:07Z</time>
      </trkpt>
      <trkpt lat="49.51381" lon="-1.36944">
        <ele>51.4</ele>
        <time>2020-06-15T13:43:08Z</time>
      </trkpt>
      <trkpt lat="49.51376" lon="-1.36943">
        <ele>51.5</ele>
        <time>2020-06-15T13:43:09Z</time>
      </trkpt>
      <trkpt lat="49.51372" lon="-1.36942">
        <ele>51.6</ele>
        <time>2020-06-15T13:43:10Z</time>
      </trkpt>
      <trkpt lat="49.51367" lon="-1.36941">
        <ele>51.6</ele>
        <time>2020-06-15T13:43:11Z</time>
      </trkpt>
      <trkpt lat="49.51363" lon="-1.36938">
        <ele>51.7</ele>
        <time>2020-06-15T13:43:12Z</time>
      </trkpt>
      <trkpt lat="49.51358" lon="-1.36934">
        <ele>51.8</ele>
        <time>2020-06-15T13:43:13Z</time>
      </trkpt>
      <trkpt lat="49.51353" lon="-1.36932">
        <ele>51.9</ele>
        <time>2020-06-15T13:43:14Z</time>
      </trkpt>
      <trkpt lat="49.51348" lon="-1.3693">
        <ele>51.9</ele>
        <time>2020-06-15T13:43:15Z</time>
      </trkpt>
      <trkpt lat="49.51344" lon="-1.36928">
        <ele>52</ele>
        <time>2020-06-15T13:43:16Z</time>
      </trkpt>
      <trkpt lat="49.51339" lon="-1.36926">
        <ele>52.1</ele>
        <time>2020-06-15T13:43:17Z</time>
      </trkpt>
      <trkpt lat="49.51335" lon="-1.36923">
        <ele>52.2</ele>
        <time>2020-06-15T13:43:18Z</time>
      </trkpt>
      <trkpt lat="49.51332" lon="-1.36922">
        <ele>52.2</ele>
        <time>2020-06-15T13:43:19Z</time>
      </trkpt>
      <trkpt lat="49.51328" lon="-1.3692">
        <ele>52.3</ele>
        <time>2020-06-15T13:43:20Z</time>
      </trkpt>
      <trkpt lat="49.51322" lon="-1.3692">
        <ele>52.4</ele>
        <time>2020-06-15T13:43:21Z</time>
      </trkpt>
      <trkpt lat="49.51318" lon="-1.36918">
        <ele>52.5</ele>
        <time>2020-06-15T13:43:22Z</time>
      </trkpt>
      <trkpt lat="49.51314" lon="-1.36918">
        <ele>52.6</ele>
        <time>2020-06-15T13:43:23Z</time>
      </trkpt>
      <trkpt lat="49.51309" lon="-1.36917">
        <ele>52.7</ele>
        <time>2020-06-15T13:43:24Z</time>
      </trkpt>
      <trkpt lat="49.51304" lon="-1.36914">
        <ele>52.7</ele>
        <time>2020-06-15T13:43:25Z</time>
      </trkpt>
      <trkpt lat="49.51299" lon="-1.36915">
        <ele>52.8</ele>
        <time>2020-06-15T13:43:26Z</time>
      </trkpt>
      <trkpt lat="49.51294" lon="-1.36914">
        <ele>52.9</ele>
        <time>2020-06-15T13:43:27Z</time>
      </trkpt>
      <trkpt lat="49.51291" lon="-1.36912">
        <ele>52.9</ele>
        <time>2020-06-15T13:43:28Z</time>
      </trkpt>
      <trkpt lat="49.51285" lon="-1.36913">
        <ele>52.9</ele>
        <time>2020-06-15T13:43:29Z</time>
      </trkpt>
      <trkpt lat="49.51281" lon="-1.36913">
        <ele>53</ele>
        <time>2020-06-15T13:43:30Z</time>
      </trkpt>
      <trkpt lat="49.51276" lon="-1.36911">
        <ele>53.1</ele>
        <time>2020-06-15T13:43:31Z</time>
      </trkpt>
      <trkpt lat="49.51271" lon="-1.36909">
        <ele>53.2</ele>
        <time>2020-06-15T13:43:32Z</time>
      </trkpt>
      <trkpt lat="49.51267" lon="-1.36907">
        <ele>53.3</ele>
        <time>2020-06-15T13:43:33Z</time>
      </trkpt>
      <trkpt lat="49.51262" lon="-1.36907">
        <ele>53.4</ele>
        <time>2020-06-15T13:43:34Z</time>
      </trkpt>
      <trkpt lat="49.51256" lon="-1.36907">
        <ele>53.5</ele>
        <time>2020-06-15T13:43:35Z</time>
      </trkpt>
      <trkpt lat="49.51251" lon="-1.36905">
        <ele>53.6</ele>
        <time>2020-06-15T13:43:36Z</time>
      </trkpt>
      <trkpt lat="49.51246" lon="-1.36906">
        <ele>53.7</ele>
        <time>2020-06-15T13:43:37Z</time>
      </trkpt>
      <trkpt lat="49.51242" lon="-1.36906">
        <ele>53.8</ele>
        <time>2020-06-15T13:43:38Z</time>
      </trkpt>
      <trkpt lat="49.51236" lon="-1.36906">
        <ele>53.9</ele>
        <time>2020-06-15T13:43:39Z</time>
      </trkpt>
      <trkpt lat="49.51231" lon="-1.36905">
        <ele>53.9</ele>
        <time>2020-06-15T13:43:40Z</time>
      </trkpt>
      <trkpt lat="49.51226" lon="-1.36905">
        <ele>54</ele>
        <time>2020-06-15T13:43:41Z</time>
      </trkpt>
      <trkpt lat="49.51221" lon="-1.36904">
        <ele>54.1</ele>
        <time>2020-06-15T13:43:42Z</time>
      </trkpt>
      <trkpt lat="49.51216" lon="-1.36903">
        <ele>54.1</ele>
        <time>2020-06-15T13:43:43Z</time>
      </trkpt>
      <trkpt lat="49.51211" lon="-1.36902">
        <ele>54.2</ele>
        <time>2020-06-15T13:43:44Z</time>
      </trkpt>
      <trkpt lat="49.51207" lon="-1.369">
        <ele>54.3</ele>
        <time>2020-06-15T13:43:45Z</time>
      </trkpt>
      <trkpt lat="49.51203" lon="-1.36901">
        <ele>54.3</ele>
        <time>2020-06-15T13:43:46Z</time>
      </trkpt>
      <trkpt lat="49.51198" lon="-1.36902">
        <ele>54.4</ele>
        <time>2020-06-15T13:43:47Z</time>
      </trkpt>
      <trkpt lat="49.51193" lon="-1.36903">
        <ele>54.4</ele>
        <time>2020-06-15T13:43:48Z</time>
      </trkpt>
      <trkpt lat="49.51188" lon="-1.36903">
        <ele>54.4</ele>
        <time>2020-06-15T13:43:49Z</time>
      </trkpt>
      <trkpt lat="49.51182" lon="-1.36903">
        <ele>54.4</ele>
        <time>2020-06-15T13:43:50Z</time>
      </trkpt>
      <trkpt lat="49.51177" lon="-1.36902">
        <ele>54.4</ele>
        <time>2020-06-15T13:43:51Z</time>
      </trkpt>
      <trkpt lat="49.51173" lon="-1.36901">
        <ele>54.4</ele>
        <time>2020-06-15T13:43:52Z</time>
      </trkpt>
      <trkpt lat="49.51168" lon="-1.369">
        <ele>54.3</ele>
        <time>2020-06-15T13:43:53Z</time>
      </trkpt>
      <trkpt lat="49.51164" lon="-1.369">
        <ele>54.3</ele>
        <time>2020-06-15T13:43:54Z</time>
      </trkpt>
      <trkpt lat="49.51159" lon="-1.369">
        <ele>54.2</ele>
        <time>2020-06-15T13:43:55Z</time>
      </trkpt>
      <trkpt lat="49.51154" lon="-1.36901">
        <ele>54.1</ele>
        <time>2020-06-15T13:43:56Z</time>
      </trkpt>
      <trkpt lat="49.51148" lon="-1.36901">
        <ele>54</ele>
        <time>2020-06-15T13:43:57Z</time>
      </trkpt>
      <trkpt lat="49.51143" lon="-1.36902">
        <ele>53.9</ele>
        <time>2020-06-15T13:43:58Z</time>
      </trkpt>
      <trkpt lat="49.51136" lon="-1.36903">
        <ele>53.8</ele>
        <time>2020-06-15T13:43:59Z</time>
      </trkpt>
      <trkpt lat="49.5113" lon="-1.36905">
        <ele>53.7</ele>
        <time>2020-06-15T13:44:00Z</time>
      </trkpt>
      <trkpt lat="49.51124" lon="-1.36906">
        <ele>53.6</ele>
        <time>2020-06-15T13:44:01Z</time>
      </trkpt>
      <trkpt lat="49.51117" lon="-1.36907">
        <ele>53.5</ele>
        <time>2020-06-15T13:44:02Z</time>
      </trkpt>
      <trkpt lat="49.51111" lon="-1.36908">
        <ele>53.4</ele>
        <time>2020-06-15T13:44:03Z</time>
      </trkpt>
      <trkpt lat="49.51106" lon="-1.3691">
        <ele>53.4</ele>
        <time>2020-06-15T13:44:04Z</time>
      </trkpt>
      <trkpt lat="49.51101" lon="-1.36912">
        <ele>53.3</ele>
        <time>2020-06-15T13:44:05Z</time>
      </trkpt>
      <trkpt lat="49.51094" lon="-1.36915">
        <ele>53.2</ele>
        <time>2020-06-15T13:44:06Z</time>
      </trkpt>
      <trkpt lat="49.51089" lon="-1.36917">
        <ele>53.1</ele>
        <time>2020-06-15T13:44:07Z</time>
      </trkpt>
      <trkpt lat="49.51083" lon="-1.36919">
        <ele>53</ele>
        <time>2020-06-15T13:44:08Z</time>
      </trkpt>
      <trkpt lat="49.51077" lon="-1.36921">
        <ele>53</ele>
        <time>2020-06-15T13:44:09Z</time>
      </trkpt>
      <trkpt lat="49.51072" lon="-1.36923">
        <ele>52.9</ele>
        <time>2020-06-15T13:44:10Z</time>
      </trkpt>
      <trkpt lat="49.51065" lon="-1.36925">
        <ele>52.8</ele>
        <time>2020-06-15T13:44:11Z</time>
      </trkpt>
      <trkpt lat="49.51059" lon="-1.36928">
        <ele>52.7</ele>
        <time>2020-06-15T13:44:12Z</time>
      </trkpt>
      <trkpt lat="49.51054" lon="-1.36931">
        <ele>52.6</ele>
        <time>2020-06-15T13:44:13Z</time>
      </trkpt>
      <trkpt lat="49.51048" lon="-1.36933">
        <ele>52.5</ele>
        <time>2020-06-15T13:44:14Z</time>
      </trkpt>
      <trkpt lat="49.51042" lon="-1.36935">
        <ele>52.4</ele>
        <time>2020-06-15T13:44:15Z</time>
      </trkpt>
      <trkpt lat="49.51036" lon="-1.36939">
        <ele>52.4</ele>
        <time>2020-06-15T13:44:16Z</time>
      </trkpt>
      <trkpt lat="49.5103" lon="-1.36942">
        <ele>52.3</ele>
        <time>2020-06-15T13:44:17Z</time>
      </trkpt>
      <trkpt lat="49.51023" lon="-1.36944">
        <ele>52.2</ele>
        <time>2020-06-15T13:44:18Z</time>
      </trkpt>
      <trkpt lat="49.51016" lon="-1.36947">
        <ele>52.2</ele>
        <time>2020-06-15T13:44:19Z</time>
      </trkpt>
      <trkpt lat="49.51011" lon="-1.3695">
        <ele>52.2</ele>
        <time>2020-06-15T13:44:20Z</time>
      </trkpt>
      <trkpt lat="49.51005" lon="-1.36953">
        <ele>52.2</ele>
        <time>2020-06-15T13:44:21Z</time>
      </trkpt>
      <trkpt lat="49.50999" lon="-1.36955">
        <ele>52.2</ele>
        <time>2020-06-15T13:44:22Z</time>
      </trkpt>
      <trkpt lat="49.50993" lon="-1.36957">
        <ele>52.2</ele>
        <time>2020-06-15T13:44:23Z</time>
      </trkpt>
      <trkpt lat="49.50987" lon="-1.36959">
        <ele>52.2</ele>
        <time>2020-06-15T13:44:24Z</time>
      </trkpt>
      <trkpt lat="49.50981" lon="-1.36962">
        <ele>52.2</ele>
        <time>2020-06-15T13:44:25Z</time>
      </trkpt>
      <trkpt lat="49.50975" lon="-1.36965">
        <ele>52.2</ele>
        <time>2020-06-15T13:44:26Z</time>
      </trkpt>
      <trkpt lat="49.50969" lon="-1.36967">
        <ele>52.2</ele>
        <time>2020-06-15T13:44:27Z</time>
      </trkpt>
      <trkpt lat="49.50962" lon="-1.3697">
        <ele>52.2</ele>
        <time>2020-06-15T13:44:28Z</time>
      </trkpt>
      <trkpt lat="49.50956" lon="-1.36972">
        <ele>52.3</ele>
        <time>2020-06-15T13:44:29Z</time>
      </trkpt>
      <trkpt lat="49.50951" lon="-1.36974">
        <ele>52.3</ele>
        <time>2020-06-15T13:44:30Z</time>
      </trkpt>
      <trkpt lat="49.50945" lon="-1.36976">
        <ele>52.4</ele>
        <time>2020-06-15T13:44:31Z</time>
      </trkpt>
      <trkpt lat="49.50938" lon="-1.36978">
        <ele>52.5</ele>
        <time>2020-06-15T13:44:32Z</time>
      </trkpt>
      <trkpt lat="49.50935" lon="-1.36981">
        <ele>52.5</ele>
        <time>2020-06-15T13:44:33Z</time>
      </trkpt>
      <trkpt lat="49.50929" lon="-1.36982">
        <ele>52.6</ele>
        <time>2020-06-15T13:44:34Z</time>
      </trkpt>
      <trkpt lat="49.50924" lon="-1.36983">
        <ele>52.7</ele>
        <time>2020-06-15T13:44:35Z</time>
      </trkpt>
      <trkpt lat="49.50919" lon="-1.36985">
        <ele>52.8</ele>
        <time>2020-06-15T13:44:36Z</time>
      </trkpt>
      <trkpt lat="49.50915" lon="-1.36987">
        <ele>52.8</ele>
        <time>2020-06-15T13:44:37Z</time>
      </trkpt>
      <trkpt lat="49.5091" lon="-1.36989">
        <ele>52.9</ele>
        <time>2020-06-15T13:44:38Z</time>
      </trkpt>
      <trkpt lat="49.50905" lon="-1.36991">
        <ele>53</ele>
        <time>2020-06-15T13:44:39Z</time>
      </trkpt>
      <trkpt lat="49.509" lon="-1.36993">
        <ele>53.1</ele>
        <time>2020-06-15T13:44:40Z</time>
      </trkpt>
      <trkpt lat="49.50894" lon="-1.36995">
        <ele>53.1</ele>
        <time>2020-06-15T13:44:41Z</time>
      </trkpt>
      <trkpt lat="49.50889" lon="-1.36997">
        <ele>53.2</ele>
        <time>2020-06-15T13:44:42Z</time>
      </trkpt>
      <trkpt lat="49.50885" lon="-1.36998">
        <ele>53.3</ele>
        <time>2020-06-15T13:44:43Z</time>
      </trkpt>
      <trkpt lat="49.50879" lon="-1.37001">
        <ele>53.4</ele>
        <time>2020-06-15T13:44:44Z</time>
      </trkpt>
      <trkpt lat="49.50874" lon="-1.37003">
        <ele>53.4</ele>
        <time>2020-06-15T13:44:45Z</time>
      </trkpt>
      <trkpt lat="49.50868" lon="-1.37005">
        <ele>53.5</ele>
        <time>2020-06-15T13:44:46Z</time>
      </trkpt>
      <trkpt lat="49.50863" lon="-1.37007">
        <ele>53.6</ele>
        <time>2020-06-15T13:44:47Z</time>
      </trkpt>
      <trkpt lat="49.50858" lon="-1.37007">
        <ele>53.7</ele>
        <time>2020-06-15T13:44:48Z</time>
      </trkpt>
      <trkpt lat="49.50852" lon="-1.3701">
        <ele>53.8</ele>
        <time>2020-06-15T13:44:49Z</time>
      </trkpt>
      <trkpt lat="49.50847" lon="-1.37011">
        <ele>53.9</ele>
        <time>2020-06-15T13:44:50Z</time>
      </trkpt>
      <trkpt lat="49.50842" lon="-1.37012">
        <ele>54</ele>
        <time>2020-06-15T13:44:51Z</time>
      </trkpt>
      <trkpt lat="49.50836" lon="-1.37013">
        <ele>54.1</ele>
        <time>2020-06-15T13:44:52Z</time>
      </trkpt>
      <trkpt lat="49.50831" lon="-1.37015">
        <ele>54.2</ele>
        <time>2020-06-15T13:44:53Z</time>
      </trkpt>
      <trkpt lat="49.50826" lon="-1.37017">
        <ele>54.3</ele>
        <time>2020-06-15T13:44:54Z</time>
      </trkpt>
      <trkpt lat="49.50822" lon="-1.37017">
        <ele>54.4</ele>
        <time>2020-06-15T13:44:55Z</time>
      </trkpt>
      <trkpt lat="49.50819" lon="-1.37019">
        <ele>54.5</ele>
        <time>2020-06-15T13:44:56Z</time>
      </trkpt>
      <trkpt lat="49.50815" lon="-1.37019">
        <ele>54.6</ele>
        <time>2020-06-15T13:44:57Z</time>
      </trkpt>
      <trkpt lat="49.50814" lon="-1.37019">
        <ele>54.6</ele>
        <time>2020-06-15T13:44:58Z</time>
      </trkpt>
      <trkpt lat="49.50813" lon="-1.37018">
        <ele>54.6</ele>
        <time>2020-06-15T13:44:59Z</time>
      </trkpt>
      <trkpt lat="49.50812" lon="-1.37016">
        <ele>54.7</ele>
        <time>2020-06-15T13:45:00Z</time>
      </trkpt>
      <trkpt lat="49.50812" lon="-1.37015">
        <ele>54.7</ele>
        <time>2020-06-15T13:45:01Z</time>
      </trkpt>
      <trkpt lat="49.50813" lon="-1.37013">
        <ele>54.7</ele>
        <time>2020-06-15T13:45:02Z</time>
      </trkpt>
      <trkpt lat="49.50814" lon="-1.37013">
        <ele>54.7</ele>
        <time>2020-06-15T13:45:03Z</time>
      </trkpt>
      <trkpt lat="49.50815" lon="-1.37013">
        <ele>54.8</ele>
        <time>2020-06-15T13:45:04Z</time>
      </trkpt>
      <trkpt lat="49.50815" lon="-1.37014">
        <ele>54.8</ele>
        <time>2020-06-15T13:45:05Z</time>
      </trkpt>
      <trkpt lat="49.50815" lon="-1.37017">
        <ele>54.8</ele>
        <time>2020-06-15T13:45:06Z</time>
      </trkpt>
      <trkpt lat="49.50813" lon="-1.37018">
        <ele>54.9</ele>
        <time>2020-06-15T13:45:07Z</time>
      </trkpt>
      <trkpt lat="49.50813" lon="-1.37018">
        <ele>54.9</ele>
        <time>2020-06-15T13:45:08Z</time>
      </trkpt>
      <trkpt lat="49.50813" lon="-1.37017">
        <ele>54.9</ele>
        <time>2020-06-15T13:45:09Z</time>
      </trkpt>
      <trkpt lat="49.50813" lon="-1.37013">
        <ele>55</ele>
        <time>2020-06-15T13:45:10Z</time>
      </trkpt>
      <trkpt lat="49.50814" lon="-1.3701">
        <ele>55</ele>
        <time>2020-06-15T13:45:11Z</time>
      </trkpt>
      <trkpt lat="49.50815" lon="-1.37006">
        <ele>55</ele>
        <time>2020-06-15T13:45:12Z</time>
      </trkpt>
      <trkpt lat="49.50815" lon="-1.37004">
        <ele>55</ele>
        <time>2020-06-15T13:45:13Z</time>
      </trkpt>
      <trkpt lat="49.50814" lon="-1.36997">
        <ele>55</ele>
        <time>2020-06-15T13:45:14Z</time>
      </trkpt>
      <trkpt lat="49.50814" lon="-1.36995">
        <ele>55</ele>
        <time>2020-06-15T13:45:15Z</time>
      </trkpt>
      <trkpt lat="49.50813" lon="-1.3699">
        <ele>55</ele>
        <time>2020-06-15T13:45:16Z</time>
      </trkpt>
      <trkpt lat="49.50813" lon="-1.36984">
        <ele>55</ele>
        <time>2020-06-15T13:45:17Z</time>
      </trkpt>
      <trkpt lat="49.50813" lon="-1.36978">
        <ele>55</ele>
        <time>2020-06-15T13:45:18Z</time>
      </trkpt>
      <trkpt lat="49.50813" lon="-1.36973">
        <ele>55</ele>
        <time>2020-06-15T13:45:19Z</time>
      </trkpt>
      <trkpt lat="49.50813" lon="-1.36967">
        <ele>55.1</ele>
        <time>2020-06-15T13:45:20Z</time>
      </trkpt>
      <trkpt lat="49.50813" lon="-1.36961">
        <ele>55.1</ele>
        <time>2020-06-15T13:45:21Z</time>
      </trkpt>
      <trkpt lat="49.50813" lon="-1.36954">
        <ele>55.2</ele>
        <time>2020-06-15T13:45:22Z</time>
      </trkpt>
      <trkpt lat="49.50813" lon="-1.36948">
        <ele>55.3</ele>
        <time>2020-06-15T13:45:23Z</time>
      </trkpt>
      <trkpt lat="49.50813" lon="-1.36942">
        <ele>55.4</ele>
        <time>2020-06-15T13:45:24Z</time>
      </trkpt>
      <trkpt lat="49.50812" lon="-1.36935">
        <ele>55.5</ele>
        <time>2020-06-15T13:45:25Z</time>
      </trkpt>
      <trkpt lat="49.50812" lon="-1.36929">
        <ele>55.6</ele>
        <time>2020-06-15T13:45:26Z</time>
      </trkpt>
      <trkpt lat="49.50812" lon="-1.36922">
        <ele>55.7</ele>
        <time>2020-06-15T13:45:27Z</time>
      </trkpt>
      <trkpt lat="49.50812" lon="-1.36917">
        <ele>55.9</ele>
        <time>2020-06-15T13:45:28Z</time>
      </trkpt>
      <trkpt lat="49.50812" lon="-1.3691">
        <ele>56</ele>
        <time>2020-06-15T13:45:29Z</time>
      </trkpt>
      <trkpt lat="49.50811" lon="-1.36904">
        <ele>56.2</ele>
        <time>2020-06-15T13:45:30Z</time>
      </trkpt>
      <trkpt lat="49.50812" lon="-1.36897">
        <ele>56.3</ele>
        <time>2020-06-15T13:45:31Z</time>
      </trkpt>
      <trkpt lat="49.50812" lon="-1.36891">
        <ele>56.5</ele>
        <time>2020-06-15T13:45:32Z</time>
      </trkpt>
      <trkpt lat="49.50812" lon="-1.36885">
        <ele>56.6</ele>
        <time>2020-06-15T13:45:33Z</time>
      </trkpt>
      <trkpt lat="49.50812" lon="-1.36878">
        <ele>56.7</ele>
        <time>2020-06-15T13:45:34Z</time>
      </trkpt>
      <trkpt lat="49.50812" lon="-1.36871">
        <ele>56.9</ele>
        <time>2020-06-15T13:45:35Z</time>
      </trkpt>
      <trkpt lat="49.50812" lon="-1.36864">
        <ele>57</ele>
        <time>2020-06-15T13:45:36Z</time>
      </trkpt>
      <trkpt lat="49.50812" lon="-1.36858">
        <ele>57.1</ele>
        <time>2020-06-15T13:45:37Z</time>
      </trkpt>
      <trkpt lat="49.50812" lon="-1.36851">
        <ele>57.2</ele>
        <time>2020-06-15T13:45:38Z</time>
      </trkpt>
      <trkpt lat="49.50813" lon="-1.36844">
        <ele>57.3</ele>
        <time>2020-06-15T13:45:39Z</time>
      </trkpt>
      <trkpt lat="49.50812" lon="-1.36839">
        <ele>57.4</ele>
        <time>2020-06-15T13:45:40Z</time>
      </trkpt>
      <trkpt lat="49.50812" lon="-1.36833">
        <ele>57.5</ele>
        <time>2020-06-15T13:45:41Z</time>
      </trkpt>
      <trkpt lat="49.50812" lon="-1.36827">
        <ele>57.6</ele>
        <time>2020-06-15T13:45:42Z</time>
      </trkpt>
      <trkpt lat="49.50812" lon="-1.3682">
        <ele>57.8</ele>
        <time>2020-06-15T13:45:43Z</time>
      </trkpt>
      <trkpt lat="49.5081" lon="-1.36813">
        <ele>57.9</ele>
        <time>2020-06-15T13:45:44Z</time>
      </trkpt>
      <trkpt lat="49.5081" lon="-1.36806">
        <ele>58.1</ele>
        <time>2020-06-15T13:45:45Z</time>
      </trkpt>
      <trkpt lat="49.50809" lon="-1.36799">
        <ele>58.2</ele>
        <time>2020-06-15T13:45:46Z</time>
      </trkpt>
      <trkpt lat="49.50809" lon="-1.36793">
        <ele>58.4</ele>
        <time>2020-06-15T13:45:47Z</time>
      </trkpt>
      <trkpt lat="49.50808" lon="-1.36786">
        <ele>58.5</ele>
        <time>2020-06-15T13:45:48Z</time>
      </trkpt>
      <trkpt lat="49.50807" lon="-1.36778">
        <ele>58.7</ele>
        <time>2020-06-15T13:45:49Z</time>
      </trkpt>
      <trkpt lat="49.50807" lon="-1.3677">
        <ele>58.9</ele>
        <time>2020-06-15T13:45:50Z</time>
      </trkpt>
      <trkpt lat="49.50806" lon="-1.36762">
        <ele>59</ele>
        <time>2020-06-15T13:45:51Z</time>
      </trkpt>
      <trkpt lat="49.50805" lon="-1.36755">
        <ele>59.2</ele>
        <time>2020-06-15T13:45:52Z</time>
      </trkpt>
      <trkpt lat="49.50805" lon="-1.3675">
        <ele>59.3</ele>
        <time>2020-06-15T13:45:53Z</time>
      </trkpt>
      <trkpt lat="49.50805" lon="-1.36744">
        <ele>59.4</ele>
        <time>2020-06-15T13:45:54Z</time>
      </trkpt>
      <trkpt lat="49.50804" lon="-1.36738">
        <ele>59.6</ele>
        <time>2020-06-15T13:45:55Z</time>
      </trkpt>
      <trkpt lat="49.50804" lon="-1.36731">
        <ele>59.7</ele>
        <time>2020-06-15T13:45:56Z</time>
      </trkpt>
      <trkpt lat="49.50804" lon="-1.36724">
        <ele>59.8</ele>
        <time>2020-06-15T13:45:57Z</time>
      </trkpt>
      <trkpt lat="49.50804" lon="-1.36718">
        <ele>59.9</ele>
        <time>2020-06-15T13:45:58Z</time>
      </trkpt>
      <trkpt lat="49.50804" lon="-1.3671">
        <ele>60</ele>
        <time>2020-06-15T13:45:59Z</time>
      </trkpt>
      <trkpt lat="49.50804" lon="-1.36703">
        <ele>60.2</ele>
        <time>2020-06-15T13:46:00Z</time>
      </trkpt>
      <trkpt lat="49.50804" lon="-1.36695">
        <ele>60.5</ele>
        <time>2020-06-15T13:46:01Z</time>
      </trkpt>
      <trkpt lat="49.50803" lon="-1.36688">
        <ele>60.7</ele>
        <time>2020-06-15T13:46:02Z</time>
      </trkpt>
      <trkpt lat="49.50803" lon="-1.36681">
        <ele>60.9</ele>
        <time>2020-06-15T13:46:03Z</time>
      </trkpt>
      <trkpt lat="49.50802" lon="-1.36674">
        <ele>61.2</ele>
        <time>2020-06-15T13:46:04Z</time>
      </trkpt>
      <trkpt lat="49.50802" lon="-1.36668">
        <ele>61.4</ele>
        <time>2020-06-15T13:46:05Z</time>
      </trkpt>
      <trkpt lat="49.50801" lon="-1.36662">
        <ele>61.6</ele>
        <time>2020-06-15T13:46:06Z</time>
      </trkpt>
      <trkpt lat="49.50801" lon="-1.36655">
        <ele>61.8</ele>
        <time>2020-06-15T13:46:07Z</time>
      </trkpt>
      <trkpt lat="49.508" lon="-1.36649">
        <ele>62</ele>
        <time>2020-06-15T13:46:08Z</time>
      </trkpt>
      <trkpt lat="49.508" lon="-1.36643">
        <ele>62.2</ele>
        <time>2020-06-15T13:46:09Z</time>
      </trkpt>
      <trkpt lat="49.508" lon="-1.36637">
        <ele>62.4</ele>
        <time>2020-06-15T13:46:10Z</time>
      </trkpt>
      <trkpt lat="49.508" lon="-1.36632">
        <ele>62.6</ele>
        <time>2020-06-15T13:46:11Z</time>
      </trkpt>
      <trkpt lat="49.50799" lon="-1.36627">
        <ele>62.7</ele>
        <time>2020-06-15T13:46:12Z</time>
      </trkpt>
      <trkpt lat="49.50799" lon="-1.36622">
        <ele>62.9</ele>
        <time>2020-06-15T13:46:13Z</time>
      </trkpt>
      <trkpt lat="49.50799" lon="-1.36617">
        <ele>63.1</ele>
        <time>2020-06-15T13:46:14Z</time>
      </trkpt>
      <trkpt lat="49.50798" lon="-1.36611">
        <ele>63.3</ele>
        <time>2020-06-15T13:46:15Z</time>
      </trkpt>
      <trkpt lat="49.50797" lon="-1.36605">
        <ele>63.6</ele>
        <time>2020-06-15T13:46:16Z</time>
      </trkpt>
      <trkpt lat="49.50797" lon="-1.36598">
        <ele>63.8</ele>
        <time>2020-06-15T13:46:17Z</time>
      </trkpt>
      <trkpt lat="49.50796" lon="-1.36591">
        <ele>64.1</ele>
        <time>2020-06-15T13:46:18Z</time>
      </trkpt>
      <trkpt lat="49.50796" lon="-1.36583">
        <ele>64.4</ele>
        <time>2020-06-15T13:46:19Z</time>
      </trkpt>
      <trkpt lat="49.50795" lon="-1.36577">
        <ele>64.7</ele>
        <time>2020-06-15T13:46:20Z</time>
      </trkpt>
      <trkpt lat="49.50795" lon="-1.3657">
        <ele>65</ele>
        <time>2020-06-15T13:46:21Z</time>
      </trkpt>
      <trkpt lat="49.50795" lon="-1.36564">
        <ele>65.3</ele>
        <time>2020-06-15T13:46:22Z</time>
      </trkpt>
      <trkpt lat="49.50795" lon="-1.36557">
        <ele>65.6</ele>
        <time>2020-06-15T13:46:23Z</time>
      </trkpt>
      <trkpt lat="49.50794" lon="-1.3655">
        <ele>65.9</ele>
        <time>2020-06-15T13:46:24Z</time>
      </trkpt>
      <trkpt lat="49.50794" lon="-1.36544">
        <ele>66.1</ele>
        <time>2020-06-15T13:46:25Z</time>
      </trkpt>
      <trkpt lat="49.50794" lon="-1.36538">
        <ele>66.4</ele>
        <time>2020-06-15T13:46:26Z</time>
      </trkpt>
      <trkpt lat="49.50793" lon="-1.36531">
        <ele>66.6</ele>
        <time>2020-06-15T13:46:27Z</time>
      </trkpt>
      <trkpt lat="49.50794" lon="-1.36523">
        <ele>66.9</ele>
        <time>2020-06-15T13:46:28Z</time>
      </trkpt>
      <trkpt lat="49.50793" lon="-1.36515">
        <ele>67.1</ele>
        <time>2020-06-15T13:46:29Z</time>
      </trkpt>
      <trkpt lat="49.50793" lon="-1.36507">
        <ele>67.4</ele>
        <time>2020-06-15T13:46:30Z</time>
      </trkpt>
      <trkpt lat="49.50792" lon="-1.365">
        <ele>67.7</ele>
        <time>2020-06-15T13:46:31Z</time>
      </trkpt>
      <trkpt lat="49.50792" lon="-1.36493">
        <ele>67.9</ele>
        <time>2020-06-15T13:46:32Z</time>
      </trkpt>
      <trkpt lat="49.50792" lon="-1.36487">
        <ele>68.2</ele>
        <time>2020-06-15T13:46:33Z</time>
      </trkpt>
      <trkpt lat="49.50792" lon="-1.3648">
        <ele>68.4</ele>
        <time>2020-06-15T13:46:34Z</time>
      </trkpt>
      <trkpt lat="49.50792" lon="-1.36474">
        <ele>68.7</ele>
        <time>2020-06-15T13:46:35Z</time>
      </trkpt>
      <trkpt lat="49.50791" lon="-1.36466">
        <ele>69</ele>
        <time>2020-06-15T13:46:36Z</time>
      </trkpt>
      <trkpt lat="49.50791" lon="-1.36459">
        <ele>69.3</ele>
        <time>2020-06-15T13:46:37Z</time>
      </trkpt>
      <trkpt lat="49.50791" lon="-1.36452">
        <ele>69.5</ele>
        <time>2020-06-15T13:46:38Z</time>
      </trkpt>
      <trkpt lat="49.50791" lon="-1.36446">
        <ele>69.7</ele>
        <time>2020-06-15T13:46:39Z</time>
      </trkpt>
      <trkpt lat="49.5079" lon="-1.36439">
        <ele>69.9</ele>
        <time>2020-06-15T13:46:40Z</time>
      </trkpt>
      <trkpt lat="49.5079" lon="-1.36433">
        <ele>70.1</ele>
        <time>2020-06-15T13:46:41Z</time>
      </trkpt>
      <trkpt lat="49.5079" lon="-1.36428">
        <ele>70.3</ele>
        <time>2020-06-15T13:46:42Z</time>
      </trkpt>
      <trkpt lat="49.50791" lon="-1.36422">
        <ele>70.5</ele>
        <time>2020-06-15T13:46:43Z</time>
      </trkpt>
      <trkpt lat="49.50791" lon="-1.36416">
        <ele>70.7</ele>
        <time>2020-06-15T13:46:44Z</time>
      </trkpt>
      <trkpt lat="49.50791" lon="-1.3641">
        <ele>70.9</ele>
        <time>2020-06-15T13:46:45Z</time>
      </trkpt>
      <trkpt lat="49.50791" lon="-1.36403">
        <ele>71.1</ele>
        <time>2020-06-15T13:46:46Z</time>
      </trkpt>
      <trkpt lat="49.50791" lon="-1.36396">
        <ele>71.3</ele>
        <time>2020-06-15T13:46:47Z</time>
      </trkpt>
      <trkpt lat="49.50791" lon="-1.3639">
        <ele>71.4</ele>
        <time>2020-06-15T13:46:48Z</time>
      </trkpt>
      <trkpt lat="49.50791" lon="-1.36383">
        <ele>71.6</ele>
        <time>2020-06-15T13:46:49Z</time>
      </trkpt>
      <trkpt lat="49.50791" lon="-1.36377">
        <ele>71.7</ele>
        <time>2020-06-15T13:46:50Z</time>
      </trkpt>
      <trkpt lat="49.5079" lon="-1.36369">
        <ele>71.9</ele>
        <time>2020-06-15T13:46:51Z</time>
      </trkpt>
      <trkpt lat="49.5079" lon="-1.36364">
        <ele>71.9</ele>
        <time>2020-06-15T13:46:52Z</time>
      </trkpt>
      <trkpt lat="49.50789" lon="-1.36357">
        <ele>72</ele>
        <time>2020-06-15T13:46:53Z</time>
      </trkpt>
      <trkpt lat="49.50789" lon="-1.3635">
        <ele>72.1</ele>
        <time>2020-06-15T13:46:54Z</time>
      </trkpt>
      <trkpt lat="49.50789" lon="-1.36344">
        <ele>72.2</ele>
        <time>2020-06-15T13:46:55Z</time>
      </trkpt>
      <trkpt lat="49.50789" lon="-1.36337">
        <ele>72.3</ele>
        <time>2020-06-15T13:46:56Z</time>
      </trkpt>
      <trkpt lat="49.50789" lon="-1.36331">
        <ele>72.3</ele>
        <time>2020-06-15T13:46:57Z</time>
      </trkpt>
      <trkpt lat="49.50789" lon="-1.36324">
        <ele>72.4</ele>
        <time>2020-06-15T13:46:58Z</time>
      </trkpt>
      <trkpt lat="49.50788" lon="-1.36317">
        <ele>72.4</ele>
        <time>2020-06-15T13:46:59Z</time>
      </trkpt>
      <trkpt lat="49.50787" lon="-1.3631">
        <ele>72.4</ele>
        <time>2020-06-15T13:47:00Z</time>
      </trkpt>
      <trkpt lat="49.50787" lon="-1.36304">
        <ele>72.5</ele>
        <time>2020-06-15T13:47:01Z</time>
      </trkpt>
      <trkpt lat="49.50786" lon="-1.36297">
        <ele>72.5</ele>
        <time>2020-06-15T13:47:02Z</time>
      </trkpt>
      <trkpt lat="49.50786" lon="-1.3629">
        <ele>72.4</ele>
        <time>2020-06-15T13:47:03Z</time>
      </trkpt>
      <trkpt lat="49.50785" lon="-1.36284">
        <ele>72.4</ele>
        <time>2020-06-15T13:47:04Z</time>
      </trkpt>
      <trkpt lat="49.50784" lon="-1.36277">
        <ele>72.3</ele>
        <time>2020-06-15T13:47:05Z</time>
      </trkpt>
      <trkpt lat="49.50784" lon="-1.36271">
        <ele>72.2</ele>
        <time>2020-06-15T13:47:06Z</time>
      </trkpt>
      <trkpt lat="49.50784" lon="-1.36265">
        <ele>72.1</ele>
        <time>2020-06-15T13:47:07Z</time>
      </trkpt>
      <trkpt lat="49.50784" lon="-1.36259">
        <ele>72</ele>
        <time>2020-06-15T13:47:08Z</time>
      </trkpt>
      <trkpt lat="49.50783" lon="-1.36252">
        <ele>71.9</ele>
        <time>2020-06-15T13:47:09Z</time>
      </trkpt>
      <trkpt lat="49.50783" lon="-1.36245">
        <ele>71.7</ele>
        <time>2020-06-15T13:47:10Z</time>
      </trkpt>
      <trkpt lat="49.50782" lon="-1.36238">
        <ele>71.5</ele>
        <time>2020-06-15T13:47:11Z</time>
      </trkpt>
      <trkpt lat="49.50782" lon="-1.36231">
        <ele>71.3</ele>
        <time>2020-06-15T13:47:12Z</time>
      </trkpt>
      <trkpt lat="49.50782" lon="-1.36224">
        <ele>71.1</ele>
        <time>2020-06-15T13:47:13Z</time>
      </trkpt>
      <trkpt lat="49.50781" lon="-1.36216">
        <ele>70.8</ele>
        <time>2020-06-15T13:47:14Z</time>
      </trkpt>
      <trkpt lat="49.50781" lon="-1.36209">
        <ele>70.6</ele>
        <time>2020-06-15T13:47:15Z</time>
      </trkpt>
      <trkpt lat="49.50781" lon="-1.36202">
        <ele>70.5</ele>
        <time>2020-06-15T13:47:16Z</time>
      </trkpt>
      <trkpt lat="49.50781" lon="-1.36195">
        <ele>70.3</ele>
        <time>2020-06-15T13:47:17Z</time>
      </trkpt>
      <trkpt lat="49.50781" lon="-1.36187">
        <ele>70</ele>
        <time>2020-06-15T13:47:18Z</time>
      </trkpt>
      <trkpt lat="49.5078" lon="-1.36179">
        <ele>69.8</ele>
        <time>2020-06-15T13:47:19Z</time>
      </trkpt>
      <trkpt lat="49.50779" lon="-1.3617">
        <ele>69.4</ele>
        <time>2020-06-15T13:47:20Z</time>
      </trkpt>
      <trkpt lat="49.50778" lon="-1.3616">
        <ele>69</ele>
        <time>2020-06-15T13:47:21Z</time>
      </trkpt>
      <trkpt lat="49.50777" lon="-1.3615">
        <ele>68.6</ele>
        <time>2020-06-15T13:47:22Z</time>
      </trkpt>
      <trkpt lat="49.50777" lon="-1.3614">
        <ele>68.2</ele>
        <time>2020-06-15T13:47:23Z</time>
      </trkpt>
      <trkpt lat="49.50776" lon="-1.36129">
        <ele>67.9</ele>
        <time>2020-06-15T13:47:24Z</time>
      </trkpt>
      <trkpt lat="49.50774" lon="-1.36118">
        <ele>67.5</ele>
        <time>2020-06-15T13:47:25Z</time>
      </trkpt>
      <trkpt lat="49.50773" lon="-1.36107">
        <ele>67.2</ele>
        <time>2020-06-15T13:47:26Z</time>
      </trkpt>
      <trkpt lat="49.50773" lon="-1.36097">
        <ele>66.9</ele>
        <time>2020-06-15T13:47:27Z</time>
      </trkpt>
      <trkpt lat="49.50772" lon="-1.36085">
        <ele>66.6</ele>
        <time>2020-06-15T13:47:28Z</time>
      </trkpt>
      <trkpt lat="49.50772" lon="-1.36073">
        <ele>66.3</ele>
        <time>2020-06-15T13:47:29Z</time>
      </trkpt>
      <trkpt lat="49.50771" lon="-1.36061">
        <ele>66</ele>
        <time>2020-06-15T13:47:30Z</time>
      </trkpt>
      <trkpt lat="49.5077" lon="-1.36049">
        <ele>65.7</ele>
        <time>2020-06-15T13:47:31Z</time>
      </trkpt>
      <trkpt lat="49.50769" lon="-1.36037">
        <ele>65.4</ele>
        <time>2020-06-15T13:47:32Z</time>
      </trkpt>
      <trkpt lat="49.50768" lon="-1.36026">
        <ele>65.1</ele>
        <time>2020-06-15T13:47:33Z</time>
      </trkpt>
      <trkpt lat="49.50767" lon="-1.36014">
        <ele>65</ele>
        <time>2020-06-15T13:47:34Z</time>
      </trkpt>
      <trkpt lat="49.50767" lon="-1.36003">
        <ele>64.8</ele>
        <time>2020-06-15T13:47:35Z</time>
      </trkpt>
      <trkpt lat="49.50766" lon="-1.35992">
        <ele>64.6</ele>
        <time>2020-06-15T13:47:36Z</time>
      </trkpt>
      <trkpt lat="49.50766" lon="-1.35983">
        <ele>64.5</ele>
        <time>2020-06-15T13:47:37Z</time>
      </trkpt>
      <trkpt lat="49.50766" lon="-1.35973">
        <ele>64.4</ele>
        <time>2020-06-15T13:47:38Z</time>
      </trkpt>
      <trkpt lat="49.50766" lon="-1.35963">
        <ele>64.3</ele>
        <time>2020-06-15T13:47:39Z</time>
      </trkpt>
      <trkpt lat="49.50766" lon="-1.35954">
        <ele>64.2</ele>
        <time>2020-06-15T13:47:40Z</time>
      </trkpt>
      <trkpt lat="49.50767" lon="-1.35946">
        <ele>64.1</ele>
        <time>2020-06-15T13:47:41Z</time>
      </trkpt>
      <trkpt lat="49.50769" lon="-1.35937">
        <ele>64</ele>
        <time>2020-06-15T13:47:42Z</time>
      </trkpt>
      <trkpt lat="49.50771" lon="-1.35928">
        <ele>63.9</ele>
        <time>2020-06-15T13:47:43Z</time>
      </trkpt>
      <trkpt lat="49.50773" lon="-1.35919">
        <ele>63.8</ele>
        <time>2020-06-15T13:47:44Z</time>
      </trkpt>
      <trkpt lat="49.50773" lon="-1.3591">
        <ele>63.7</ele>
        <time>2020-06-15T13:47:45Z</time>
      </trkpt>
      <trkpt lat="49.50774" lon="-1.35902">
        <ele>63.7</ele>
        <time>2020-06-15T13:47:46Z</time>
      </trkpt>
      <trkpt lat="49.50776" lon="-1.35893">
        <ele>63.6</ele>
        <time>2020-06-15T13:47:47Z</time>
      </trkpt>
      <trkpt lat="49.50778" lon="-1.35885">
        <ele>63.6</ele>
        <time>2020-06-15T13:47:48Z</time>
      </trkpt>
      <trkpt lat="49.50779" lon="-1.35877">
        <ele>63.6</ele>
        <time>2020-06-15T13:47:49Z</time>
      </trkpt>
      <trkpt lat="49.50781" lon="-1.35868">
        <ele>63.6</ele>
        <time>2020-06-15T13:47:50Z</time>
      </trkpt>
      <trkpt lat="49.50782" lon="-1.3586">
        <ele>63.6</ele>
        <time>2020-06-15T13:47:51Z</time>
      </trkpt>
      <trkpt lat="49.50784" lon="-1.35853">
        <ele>63.6</ele>
        <time>2020-06-15T13:47:52Z</time>
      </trkpt>
      <trkpt lat="49.50786" lon="-1.35845">
        <ele>63.7</ele>
        <time>2020-06-15T13:47:53Z</time>
      </trkpt>
      <trkpt lat="49.50787" lon="-1.35837">
        <ele>63.8</ele>
        <time>2020-06-15T13:47:54Z</time>
      </trkpt>
      <trkpt lat="49.50788" lon="-1.35831">
        <ele>63.9</ele>
        <time>2020-06-15T13:47:55Z</time>
      </trkpt>
      <trkpt lat="49.50791" lon="-1.35823">
        <ele>64</ele>
        <time>2020-06-15T13:47:56Z</time>
      </trkpt>
      <trkpt lat="49.50793" lon="-1.35814">
        <ele>64.2</ele>
        <time>2020-06-15T13:47:57Z</time>
      </trkpt>
      <trkpt lat="49.50795" lon="-1.35809">
        <ele>64.2</ele>
        <time>2020-06-15T13:47:58Z</time>
      </trkpt>
      <trkpt lat="49.50797" lon="-1.35802">
        <ele>64.3</ele>
        <time>2020-06-15T13:47:59Z</time>
      </trkpt>
      <trkpt lat="49.50799" lon="-1.35795">
        <ele>64.4</ele>
        <time>2020-06-15T13:48:00Z</time>
      </trkpt>
      <trkpt lat="49.508" lon="-1.35789">
        <ele>64.4</ele>
        <time>2020-06-15T13:48:01Z</time>
      </trkpt>
      <trkpt lat="49.50802" lon="-1.35782">
        <ele>64.4</ele>
        <time>2020-06-15T13:48:02Z</time>
      </trkpt>
      <trkpt lat="49.50803" lon="-1.35776">
        <ele>64.5</ele>
        <time>2020-06-15T13:48:03Z</time>
      </trkpt>
      <trkpt lat="49.50804" lon="-1.35769">
        <ele>64.5</ele>
        <time>2020-06-15T13:48:04Z</time>
      </trkpt>
      <trkpt lat="49.50806" lon="-1.35762">
        <ele>64.6</ele>
        <time>2020-06-15T13:48:05Z</time>
      </trkpt>
      <trkpt lat="49.50807" lon="-1.35754">
        <ele>64.7</ele>
        <time>2020-06-15T13:48:06Z</time>
      </trkpt>
      <trkpt lat="49.50809" lon="-1.35744">
        <ele>64.8</ele>
        <time>2020-06-15T13:48:07Z</time>
      </trkpt>
      <trkpt lat="49.5081" lon="-1.35736">
        <ele>64.9</ele>
        <time>2020-06-15T13:48:08Z</time>
      </trkpt>
      <trkpt lat="49.50811" lon="-1.35729">
        <ele>65</ele>
        <time>2020-06-15T13:48:09Z</time>
      </trkpt>
      <trkpt lat="49.50813" lon="-1.35721">
        <ele>65.1</ele>
        <time>2020-06-15T13:48:10Z</time>
      </trkpt>
      <trkpt lat="49.50813" lon="-1.35717">
        <ele>65.1</ele>
        <time>2020-06-15T13:48:11Z</time>
      </trkpt>
      <trkpt lat="49.50816" lon="-1.35706">
        <ele>65.2</ele>
        <time>2020-06-15T13:48:12Z</time>
      </trkpt>
      <trkpt lat="49.50818" lon="-1.35699">
        <ele>65.3</ele>
        <time>2020-06-15T13:48:13Z</time>
      </trkpt>
      <trkpt lat="49.5082" lon="-1.35689">
        <ele>65.4</ele>
        <time>2020-06-15T13:48:14Z</time>
      </trkpt>
      <trkpt lat="49.50822" lon="-1.35682">
        <ele>65.5</ele>
        <time>2020-06-15T13:48:15Z</time>
      </trkpt>
      <trkpt lat="49.50822" lon="-1.35677">
        <ele>65.6</ele>
        <time>2020-06-15T13:48:16Z</time>
      </trkpt>
      <trkpt lat="49.50823" lon="-1.35672">
        <ele>65.6</ele>
        <time>2020-06-15T13:48:17Z</time>
      </trkpt>
      <trkpt lat="49.50824" lon="-1.35663">
        <ele>65.7</ele>
        <time>2020-06-15T13:48:18Z</time>
      </trkpt>
      <trkpt lat="49.50825" lon="-1.35657">
        <ele>65.7</ele>
        <time>2020-06-15T13:48:19Z</time>
      </trkpt>
      <trkpt lat="49.50826" lon="-1.3565">
        <ele>65.7</ele>
        <time>2020-06-15T13:48:20Z</time>
      </trkpt>
      <trkpt lat="49.50827" lon="-1.35643">
        <ele>65.8</ele>
        <time>2020-06-15T13:48:21Z</time>
      </trkpt>
      <trkpt lat="49.50829" lon="-1.35634">
        <ele>65.8</ele>
        <time>2020-06-15T13:48:22Z</time>
      </trkpt>
      <trkpt lat="49.5083" lon="-1.35627">
        <ele>65.8</ele>
        <time>2020-06-15T13:48:23Z</time>
      </trkpt>
      <trkpt lat="49.50831" lon="-1.3562">
        <ele>65.9</ele>
        <time>2020-06-15T13:48:24Z</time>
      </trkpt>
      <trkpt lat="49.50833" lon="-1.35613">
        <ele>66.1</ele>
        <time>2020-06-15T13:48:25Z</time>
      </trkpt>
      <trkpt lat="49.50834" lon="-1.35606">
        <ele>66.2</ele>
        <time>2020-06-15T13:48:26Z</time>
      </trkpt>
      <trkpt lat="49.50836" lon="-1.35598">
        <ele>66.3</ele>
        <time>2020-06-15T13:48:27Z</time>
      </trkpt>
      <trkpt lat="49.50837" lon="-1.3559">
        <ele>66.3</ele>
        <time>2020-06-15T13:48:28Z</time>
      </trkpt>
      <trkpt lat="49.50839" lon="-1.35582">
        <ele>66.4</ele>
        <time>2020-06-15T13:48:29Z</time>
      </trkpt>
      <trkpt lat="49.50841" lon="-1.35575">
        <ele>66.5</ele>
        <time>2020-06-15T13:48:30Z</time>
      </trkpt>
      <trkpt lat="49.50843" lon="-1.35566">
        <ele>66.6</ele>
        <time>2020-06-15T13:48:31Z</time>
      </trkpt>
      <trkpt lat="49.50844" lon="-1.35558">
        <ele>66.6</ele>
        <time>2020-06-15T13:48:32Z</time>
      </trkpt>
      <trkpt lat="49.50845" lon="-1.3555">
        <ele>66.7</ele>
        <time>2020-06-15T13:48:33Z</time>
      </trkpt>
      <trkpt lat="49.50847" lon="-1.35542">
        <ele>66.7</ele>
        <time>2020-06-15T13:48:34Z</time>
      </trkpt>
      <trkpt lat="49.50848" lon="-1.35535">
        <ele>66.8</ele>
        <time>2020-06-15T13:48:35Z</time>
      </trkpt>
      <trkpt lat="49.50849" lon="-1.35528">
        <ele>66.8</ele>
        <time>2020-06-15T13:48:36Z</time>
      </trkpt>
      <trkpt lat="49.50851" lon="-1.35521">
        <ele>66.8</ele>
        <time>2020-06-15T13:48:37Z</time>
      </trkpt>
      <trkpt lat="49.50853" lon="-1.35512">
        <ele>66.8</ele>
        <time>2020-06-15T13:48:38Z</time>
      </trkpt>
      <trkpt lat="49.50854" lon="-1.35504">
        <ele>66.9</ele>
        <time>2020-06-15T13:48:39Z</time>
      </trkpt>
      <trkpt lat="49.50855" lon="-1.35496">
        <ele>66.9</ele>
        <time>2020-06-15T13:48:40Z</time>
      </trkpt>
      <trkpt lat="49.50857" lon="-1.35489">
        <ele>66.9</ele>
        <time>2020-06-15T13:48:41Z</time>
      </trkpt>
      <trkpt lat="49.50858" lon="-1.35481">
        <ele>67</ele>
        <time>2020-06-15T13:48:42Z</time>
      </trkpt>
      <trkpt lat="49.5086" lon="-1.35473">
        <ele>67</ele>
        <time>2020-06-15T13:48:43Z</time>
      </trkpt>
      <trkpt lat="49.50861" lon="-1.35465">
        <ele>67</ele>
        <time>2020-06-15T13:48:44Z</time>
      </trkpt>
      <trkpt lat="49.50862" lon="-1.35458">
        <ele>67</ele>
        <time>2020-06-15T13:48:45Z</time>
      </trkpt>
      <trkpt lat="49.50864" lon="-1.35451">
        <ele>67</ele>
        <time>2020-06-15T13:48:46Z</time>
      </trkpt>
      <trkpt lat="49.50866" lon="-1.35443">
        <ele>67</ele>
        <time>2020-06-15T13:48:47Z</time>
      </trkpt>
      <trkpt lat="49.50867" lon="-1.35436">
        <ele>67</ele>
        <time>2020-06-15T13:48:48Z</time>
      </trkpt>
      <trkpt lat="49.50869" lon="-1.35428">
        <ele>67</ele>
        <time>2020-06-15T13:48:49Z</time>
      </trkpt>
      <trkpt lat="49.50871" lon="-1.3542">
        <ele>67</ele>
        <time>2020-06-15T13:48:50Z</time>
      </trkpt>
      <trkpt lat="49.50872" lon="-1.35412">
        <ele>67</ele>
        <time>2020-06-15T13:48:51Z</time>
      </trkpt>
      <trkpt lat="49.50873" lon="-1.35404">
        <ele>67</ele>
        <time>2020-06-15T13:48:52Z</time>
      </trkpt>
      <trkpt lat="49.50874" lon="-1.35396">
        <ele>66.9</ele>
        <time>2020-06-15T13:48:53Z</time>
      </trkpt>
      <trkpt lat="49.50875" lon="-1.35388">
        <ele>66.8</ele>
        <time>2020-06-15T13:48:54Z</time>
      </trkpt>
      <trkpt lat="49.50877" lon="-1.3538">
        <ele>66.7</ele>
        <time>2020-06-15T13:48:55Z</time>
      </trkpt>
      <trkpt lat="49.50878" lon="-1.35372">
        <ele>66.6</ele>
        <time>2020-06-15T13:48:56Z</time>
      </trkpt>
      <trkpt lat="49.50878" lon="-1.35363">
        <ele>66.5</ele>
        <time>2020-06-15T13:48:57Z</time>
      </trkpt>
      <trkpt lat="49.50879" lon="-1.35354">
        <ele>66.3</ele>
        <time>2020-06-15T13:48:58Z</time>
      </trkpt>
      <trkpt lat="49.5088" lon="-1.35346">
        <ele>66.2</ele>
        <time>2020-06-15T13:48:59Z</time>
      </trkpt>
      <trkpt lat="49.50881" lon="-1.35337">
        <ele>66</ele>
        <time>2020-06-15T13:49:00Z</time>
      </trkpt>
      <trkpt lat="49.50881" lon="-1.35329">
        <ele>65.9</ele>
        <time>2020-06-15T13:49:01Z</time>
      </trkpt>
      <trkpt lat="49.50883" lon="-1.35321">
        <ele>65.7</ele>
        <time>2020-06-15T13:49:02Z</time>
      </trkpt>
      <trkpt lat="49.50884" lon="-1.35312">
        <ele>65.4</ele>
        <time>2020-06-15T13:49:03Z</time>
      </trkpt>
      <trkpt lat="49.50886" lon="-1.35303">
        <ele>65.1</ele>
        <time>2020-06-15T13:49:04Z</time>
      </trkpt>
      <trkpt lat="49.50888" lon="-1.35295">
        <ele>64.8</ele>
        <time>2020-06-15T13:49:05Z</time>
      </trkpt>
      <trkpt lat="49.5089" lon="-1.35286">
        <ele>64.6</ele>
        <time>2020-06-15T13:49:06Z</time>
      </trkpt>
      <trkpt lat="49.50892" lon="-1.35278">
        <ele>64.3</ele>
        <time>2020-06-15T13:49:07Z</time>
      </trkpt>
      <trkpt lat="49.50894" lon="-1.35269">
        <ele>64</ele>
        <time>2020-06-15T13:49:08Z</time>
      </trkpt>
      <trkpt lat="49.50897" lon="-1.35261">
        <ele>63.8</ele>
        <time>2020-06-15T13:49:09Z</time>
      </trkpt>
      <trkpt lat="49.509" lon="-1.35251">
        <ele>63.5</ele>
        <time>2020-06-15T13:49:10Z</time>
      </trkpt>
      <trkpt lat="49.50901" lon="-1.3524">
        <ele>63.3</ele>
        <time>2020-06-15T13:49:11Z</time>
      </trkpt>
      <trkpt lat="49.50903" lon="-1.3523">
        <ele>63.1</ele>
        <time>2020-06-15T13:49:12Z</time>
      </trkpt>
      <trkpt lat="49.50906" lon="-1.3522">
        <ele>62.9</ele>
        <time>2020-06-15T13:49:13Z</time>
      </trkpt>
      <trkpt lat="49.50907" lon="-1.35208">
        <ele>62.8</ele>
        <time>2020-06-15T13:49:14Z</time>
      </trkpt>
      <trkpt lat="49.5091" lon="-1.35198">
        <ele>62.6</ele>
        <time>2020-06-15T13:49:15Z</time>
      </trkpt>
      <trkpt lat="49.50912" lon="-1.35189">
        <ele>62.4</ele>
        <time>2020-06-15T13:49:16Z</time>
      </trkpt>
      <trkpt lat="49.50916" lon="-1.3518">
        <ele>62.3</ele>
        <time>2020-06-15T13:49:17Z</time>
      </trkpt>
      <trkpt lat="49.50919" lon="-1.35171">
        <ele>62.2</ele>
        <time>2020-06-15T13:49:18Z</time>
      </trkpt>
      <trkpt lat="49.50922" lon="-1.35161">
        <ele>62.1</ele>
        <time>2020-06-15T13:49:19Z</time>
      </trkpt>
      <trkpt lat="49.50925" lon="-1.35153">
        <ele>62</ele>
        <time>2020-06-15T13:49:20Z</time>
      </trkpt>
      <trkpt lat="49.50929" lon="-1.35145">
        <ele>61.9</ele>
        <time>2020-06-15T13:49:21Z</time>
      </trkpt>
      <trkpt lat="49.50932" lon="-1.35136">
        <ele>61.9</ele>
        <time>2020-06-15T13:49:22Z</time>
      </trkpt>
      <trkpt lat="49.50935" lon="-1.35129">
        <ele>61.9</ele>
        <time>2020-06-15T13:49:23Z</time>
      </trkpt>
      <trkpt lat="49.50939" lon="-1.35119">
        <ele>61.8</ele>
        <time>2020-06-15T13:49:24Z</time>
      </trkpt>
      <trkpt lat="49.50943" lon="-1.35111">
        <ele>61.8</ele>
        <time>2020-06-15T13:49:25Z</time>
      </trkpt>
      <trkpt lat="49.50947" lon="-1.35104">
        <ele>61.8</ele>
        <time>2020-06-15T13:49:26Z</time>
      </trkpt>
      <trkpt lat="49.5095" lon="-1.35096">
        <ele>61.9</ele>
        <time>2020-06-15T13:49:27Z</time>
      </trkpt>
      <trkpt lat="49.50954" lon="-1.35088">
        <ele>61.9</ele>
        <time>2020-06-15T13:49:28Z</time>
      </trkpt>
      <trkpt lat="49.50958" lon="-1.35082">
        <ele>62</ele>
        <time>2020-06-15T13:49:29Z</time>
      </trkpt>
      <trkpt lat="49.50961" lon="-1.35076">
        <ele>62</ele>
        <time>2020-06-15T13:49:30Z</time>
      </trkpt>
      <trkpt lat="49.50964" lon="-1.35072">
        <ele>62.1</ele>
        <time>2020-06-15T13:49:31Z</time>
      </trkpt>
      <trkpt lat="49.50968" lon="-1.35065">
        <ele>62.1</ele>
        <time>2020-06-15T13:49:32Z</time>
      </trkpt>
      <trkpt lat="49.50971" lon="-1.3506">
        <ele>62.2</ele>
        <time>2020-06-15T13:49:33Z</time>
      </trkpt>
      <trkpt lat="49.50974" lon="-1.35053">
        <ele>62.2</ele>
        <time>2020-06-15T13:49:34Z</time>
      </trkpt>
      <trkpt lat="49.50979" lon="-1.35047">
        <ele>62.3</ele>
        <time>2020-06-15T13:49:35Z</time>
      </trkpt>
      <trkpt lat="49.50983" lon="-1.3504">
        <ele>62.4</ele>
        <time>2020-06-15T13:49:36Z</time>
      </trkpt>
      <trkpt lat="49.50987" lon="-1.35033">
        <ele>62.5</ele>
        <time>2020-06-15T13:49:37Z</time>
      </trkpt>
      <trkpt lat="49.5099" lon="-1.35025">
        <ele>62.6</ele>
        <time>2020-06-15T13:49:38Z</time>
      </trkpt>
      <trkpt lat="49.50993" lon="-1.35018">
        <ele>62.7</ele>
        <time>2020-06-15T13:49:39Z</time>
      </trkpt>
      <trkpt lat="49.50994" lon="-1.35012">
        <ele>62.7</ele>
        <time>2020-06-15T13:49:40Z</time>
      </trkpt>
      <trkpt lat="49.50994" lon="-1.35005">
        <ele>62.7</ele>
        <time>2020-06-15T13:49:41Z</time>
      </trkpt>
      <trkpt lat="49.50991" lon="-1.34997">
        <ele>62.8</ele>
        <time>2020-06-15T13:49:42Z</time>
      </trkpt>
      <trkpt lat="49.50988" lon="-1.34989">
        <ele>62.9</ele>
        <time>2020-06-15T13:49:43Z</time>
      </trkpt>
      <trkpt lat="49.50984" lon="-1.34981">
        <ele>62.9</ele>
        <time>2020-06-15T13:49:44Z</time>
      </trkpt>
      <trkpt lat="49.50981" lon="-1.34973">
        <ele>63</ele>
        <time>2020-06-15T13:49:45Z</time>
      </trkpt>
      <trkpt lat="49.50979" lon="-1.34965">
        <ele>63.1</ele>
        <time>2020-06-15T13:49:46Z</time>
      </trkpt>
      <trkpt lat="49.50977" lon="-1.34957">
        <ele>63.1</ele>
        <time>2020-06-15T13:49:47Z</time>
      </trkpt>
      <trkpt lat="49.50977" lon="-1.34947">
        <ele>63.3</ele>
        <time>2020-06-15T13:49:48Z</time>
      </trkpt>
      <trkpt lat="49.50978" lon="-1.34939">
        <ele>63.4</ele>
        <time>2020-06-15T13:49:49Z</time>
      </trkpt>
      <trkpt lat="49.5098" lon="-1.34933">
        <ele>63.5</ele>
        <time>2020-06-15T13:49:50Z</time>
      </trkpt>
      <trkpt lat="49.50982" lon="-1.34924">
        <ele>63.6</ele>
        <time>2020-06-15T13:49:51Z</time>
      </trkpt>
      <trkpt lat="49.50983" lon="-1.34917">
        <ele>63.7</ele>
        <time>2020-06-15T13:49:52Z</time>
      </trkpt>
      <trkpt lat="49.50984" lon="-1.3491">
        <ele>63.9</ele>
        <time>2020-06-15T13:49:53Z</time>
      </trkpt>
      <trkpt lat="49.50983" lon="-1.34903">
        <ele>64</ele>
        <time>2020-06-15T13:49:54Z</time>
      </trkpt>
      <trkpt lat="49.50982" lon="-1.34897">
        <ele>64.1</ele>
        <time>2020-06-15T13:49:55Z</time>
      </trkpt>
      <trkpt lat="49.50981" lon="-1.34894">
        <ele>64.2</ele>
        <time>2020-06-15T13:49:56Z</time>
      </trkpt>
      <trkpt lat="49.50978" lon="-1.34887">
        <ele>64.3</ele>
        <time>2020-06-15T13:49:57Z</time>
      </trkpt>
      <trkpt lat="49.50975" lon="-1.34882">
        <ele>64.5</ele>
        <time>2020-06-15T13:49:58Z</time>
      </trkpt>
      <trkpt lat="49.50972" lon="-1.34876">
        <ele>64.6</ele>
        <time>2020-06-15T13:49:59Z</time>
      </trkpt>
      <trkpt lat="49.50969" lon="-1.3487">
        <ele>64.8</ele>
        <time>2020-06-15T13:50:00Z</time>
      </trkpt>
      <trkpt lat="49.50967" lon="-1.34864">
        <ele>65</ele>
        <time>2020-06-15T13:50:01Z</time>
      </trkpt>
      <trkpt lat="49.50964" lon="-1.34859">
        <ele>65.2</ele>
        <time>2020-06-15T13:50:02Z</time>
      </trkpt>
      <trkpt lat="49.50962" lon="-1.34855">
        <ele>65.4</ele>
        <time>2020-06-15T13:50:03Z</time>
      </trkpt>
      <trkpt lat="49.5096" lon="-1.3485">
        <ele>65.5</ele>
        <time>2020-06-15T13:50:04Z</time>
      </trkpt>
      <trkpt lat="49.50958" lon="-1.34845">
        <ele>65.7</ele>
        <time>2020-06-15T13:50:05Z</time>
      </trkpt>
      <trkpt lat="49.50956" lon="-1.34839">
        <ele>66.6</ele>
        <time>2020-06-15T13:50:06Z</time>
      </trkpt>
      <trkpt lat="49.50954" lon="-1.34833">
        <ele>67.1</ele>
        <time>2020-06-15T13:50:07Z</time>
      </trkpt>
      <trkpt lat="49.50952" lon="-1.34828">
        <ele>67.4</ele>
        <time>2020-06-15T13:50:08Z</time>
      </trkpt>
      <trkpt lat="49.50949" lon="-1.34823">
        <ele>67.6</ele>
        <time>2020-06-15T13:50:09Z</time>
      </trkpt>
      <trkpt lat="49.50947" lon="-1.34817">
        <ele>67.7</ele>
        <time>2020-06-15T13:50:10Z</time>
      </trkpt>
      <trkpt lat="49.50946" lon="-1.34812">
        <ele>67.7</ele>
        <time>2020-06-15T13:50:11Z</time>
      </trkpt>
      <trkpt lat="49.50944" lon="-1.34805">
        <ele>67.8</ele>
        <time>2020-06-15T13:50:12Z</time>
      </trkpt>
      <trkpt lat="49.50943" lon="-1.348">
        <ele>67.8</ele>
        <time>2020-06-15T13:50:13Z</time>
      </trkpt>
      <trkpt lat="49.50941" lon="-1.34793">
        <ele>67.8</ele>
        <time>2020-06-15T13:50:14Z</time>
      </trkpt>
      <trkpt lat="49.50939" lon="-1.34785">
        <ele>67.9</ele>
        <time>2020-06-15T13:50:15Z</time>
      </trkpt>
      <trkpt lat="49.50939" lon="-1.34778">
        <ele>68</ele>
        <time>2020-06-15T13:50:16Z</time>
      </trkpt>
      <trkpt lat="49.50937" lon="-1.3477">
        <ele>68.1</ele>
        <time>2020-06-15T13:50:17Z</time>
      </trkpt>
      <trkpt lat="49.50936" lon="-1.34763">
        <ele>68.1</ele>
        <time>2020-06-15T13:50:18Z</time>
      </trkpt>
      <trkpt lat="49.50935" lon="-1.34755">
        <ele>68.2</ele>
        <time>2020-06-15T13:50:19Z</time>
      </trkpt>
      <trkpt lat="49.50935" lon="-1.34748">
        <ele>68.2</ele>
        <time>2020-06-15T13:50:20Z</time>
      </trkpt>
      <trkpt lat="49.50934" lon="-1.3474">
        <ele>68.3</ele>
        <time>2020-06-15T13:50:21Z</time>
      </trkpt>
      <trkpt lat="49.50933" lon="-1.3473">
        <ele>68.3</ele>
        <time>2020-06-15T13:50:22Z</time>
      </trkpt>
      <trkpt lat="49.50933" lon="-1.34723">
        <ele>68.4</ele>
        <time>2020-06-15T13:50:23Z</time>
      </trkpt>
      <trkpt lat="49.50932" lon="-1.34715">
        <ele>68.4</ele>
        <time>2020-06-15T13:50:24Z</time>
      </trkpt>
      <trkpt lat="49.50931" lon="-1.34709">
        <ele>68.4</ele>
        <time>2020-06-15T13:50:25Z</time>
      </trkpt>
      <trkpt lat="49.50929" lon="-1.34703">
        <ele>68.5</ele>
        <time>2020-06-15T13:50:26Z</time>
      </trkpt>
      <trkpt lat="49.50927" lon="-1.34695">
        <ele>68.5</ele>
        <time>2020-06-15T13:50:27Z</time>
      </trkpt>
      <trkpt lat="49.50924" lon="-1.34688">
        <ele>68.6</ele>
        <time>2020-06-15T13:50:28Z</time>
      </trkpt>
      <trkpt lat="49.50921" lon="-1.3468">
        <ele>68.6</ele>
        <time>2020-06-15T13:50:29Z</time>
      </trkpt>
      <trkpt lat="49.50919" lon="-1.34672">
        <ele>68.6</ele>
        <time>2020-06-15T13:50:30Z</time>
      </trkpt>
      <trkpt lat="49.50917" lon="-1.34666">
        <ele>68.7</ele>
        <time>2020-06-15T13:50:31Z</time>
      </trkpt>
      <trkpt lat="49.50916" lon="-1.34659">
        <ele>68.7</ele>
        <time>2020-06-15T13:50:32Z</time>
      </trkpt>
      <trkpt lat="49.50913" lon="-1.34652">
        <ele>68.8</ele>
        <time>2020-06-15T13:50:33Z</time>
      </trkpt>
      <trkpt lat="49.50911" lon="-1.34644">
        <ele>68.8</ele>
        <time>2020-06-15T13:50:34Z</time>
      </trkpt>
      <trkpt lat="49.50908" lon="-1.34637">
        <ele>68.8</ele>
        <time>2020-06-15T13:50:35Z</time>
      </trkpt>
      <trkpt lat="49.50906" lon="-1.34631">
        <ele>68.8</ele>
        <time>2020-06-15T13:50:36Z</time>
      </trkpt>
      <trkpt lat="49.50905" lon="-1.34624">
        <ele>68.7</ele>
        <time>2020-06-15T13:50:37Z</time>
      </trkpt>
      <trkpt lat="49.50902" lon="-1.34616">
        <ele>68.6</ele>
        <time>2020-06-15T13:50:38Z</time>
      </trkpt>
      <trkpt lat="49.509" lon="-1.34608">
        <ele>68.5</ele>
        <time>2020-06-15T13:50:39Z</time>
      </trkpt>
      <trkpt lat="49.50897" lon="-1.346">
        <ele>68.5</ele>
        <time>2020-06-15T13:50:40Z</time>
      </trkpt>
      <trkpt lat="49.50894" lon="-1.34593">
        <ele>68.5</ele>
        <time>2020-06-15T13:50:41Z</time>
      </trkpt>
      <trkpt lat="49.50891" lon="-1.34585">
        <ele>68.5</ele>
        <time>2020-06-15T13:50:42Z</time>
      </trkpt>
      <trkpt lat="49.50888" lon="-1.34579">
        <ele>68.5</ele>
        <time>2020-06-15T13:50:43Z</time>
      </trkpt>
      <trkpt lat="49.50884" lon="-1.34571">
        <ele>68.5</ele>
        <time>2020-06-15T13:50:44Z</time>
      </trkpt>
      <trkpt lat="49.5088" lon="-1.34563">
        <ele>68.4</ele>
        <time>2020-06-15T13:50:45Z</time>
      </trkpt>
      <trkpt lat="49.50876" lon="-1.34554">
        <ele>68.3</ele>
        <time>2020-06-15T13:50:46Z</time>
      </trkpt>
      <trkpt lat="49.50872" lon="-1.34546">
        <ele>68.2</ele>
        <time>2020-06-15T13:50:47Z</time>
      </trkpt>
      <trkpt lat="49.50868" lon="-1.34538">
        <ele>68.2</ele>
        <time>2020-06-15T13:50:48Z</time>
      </trkpt>
      <trkpt lat="49.50865" lon="-1.3453">
        <ele>68.2</ele>
        <time>2020-06-15T13:50:49Z</time>
      </trkpt>
      <trkpt lat="49.50861" lon="-1.34523">
        <ele>68.1</ele>
        <time>2020-06-15T13:50:50Z</time>
      </trkpt>
      <trkpt lat="49.50857" lon="-1.34515">
        <ele>68</ele>
        <time>2020-06-15T13:50:51Z</time>
      </trkpt>
      <trkpt lat="49.50852" lon="-1.34508">
        <ele>67.8</ele>
        <time>2020-06-15T13:50:52Z</time>
      </trkpt>
      <trkpt lat="49.50849" lon="-1.345">
        <ele>67.7</ele>
        <time>2020-06-15T13:50:53Z</time>
      </trkpt>
      <trkpt lat="49.50844" lon="-1.34493">
        <ele>67.7</ele>
        <time>2020-06-15T13:50:54Z</time>
      </trkpt>
      <trkpt lat="49.5084" lon="-1.34485">
        <ele>67.7</ele>
        <time>2020-06-15T13:50:55Z</time>
      </trkpt>
      <trkpt lat="49.50837" lon="-1.34479">
        <ele>67.7</ele>
        <time>2020-06-15T13:50:56Z</time>
      </trkpt>
      <trkpt lat="49.50834" lon="-1.34473">
        <ele>67.6</ele>
        <time>2020-06-15T13:50:57Z</time>
      </trkpt>
      <trkpt lat="49.50831" lon="-1.34466">
        <ele>67.6</ele>
        <time>2020-06-15T13:50:58Z</time>
      </trkpt>
      <trkpt lat="49.50828" lon="-1.34459">
        <ele>67.5</ele>
        <time>2020-06-15T13:50:59Z</time>
      </trkpt>
      <trkpt lat="49.50825" lon="-1.34453">
        <ele>67.4</ele>
        <time>2020-06-15T13:51:00Z</time>
      </trkpt>
      <trkpt lat="49.50823" lon="-1.34447">
        <ele>67.2</ele>
        <time>2020-06-15T13:51:01Z</time>
      </trkpt>
      <trkpt lat="49.5082" lon="-1.34441">
        <ele>67.2</ele>
        <time>2020-06-15T13:51:02Z</time>
      </trkpt>
      <trkpt lat="49.50817" lon="-1.34434">
        <ele>67.1</ele>
        <time>2020-06-15T13:51:03Z</time>
      </trkpt>
      <trkpt lat="49.50814" lon="-1.34428">
        <ele>67.1</ele>
        <time>2020-06-15T13:51:04Z</time>
      </trkpt>
      <trkpt lat="49.50812" lon="-1.34421">
        <ele>67.1</ele>
        <time>2020-06-15T13:51:05Z</time>
      </trkpt>
      <trkpt lat="49.50809" lon="-1.34414">
        <ele>67.1</ele>
        <time>2020-06-15T13:51:06Z</time>
      </trkpt>
      <trkpt lat="49.50807" lon="-1.34408">
        <ele>67.2</ele>
        <time>2020-06-15T13:51:07Z</time>
      </trkpt>
      <trkpt lat="49.50804" lon="-1.34402">
        <ele>67.1</ele>
        <time>2020-06-15T13:51:08Z</time>
      </trkpt>
      <trkpt lat="49.50802" lon="-1.34398">
        <ele>67.1</ele>
        <time>2020-06-15T13:51:09Z</time>
      </trkpt>
      <trkpt lat="49.50801" lon="-1.34394">
        <ele>67</ele>
        <time>2020-06-15T13:51:10Z</time>
      </trkpt>
      <trkpt lat="49.50798" lon="-1.3439">
        <ele>66.9</ele>
        <time>2020-06-15T13:51:11Z</time>
      </trkpt>
      <trkpt lat="49.50798" lon="-1.34388">
        <ele>66.8</ele>
        <time>2020-06-15T13:51:12Z</time>
      </trkpt>
      <trkpt lat="49.50795" lon="-1.34383">
        <ele>66.7</ele>
        <time>2020-06-15T13:51:13Z</time>
      </trkpt>
      <trkpt lat="49.50794" lon="-1.34382">
        <ele>66.8</ele>
        <time>2020-06-15T13:51:14Z</time>
      </trkpt>
      <trkpt lat="49.50794" lon="-1.34376">
        <ele>66.8</ele>
        <time>2020-06-15T13:51:15Z</time>
      </trkpt>
      <trkpt lat="49.50794" lon="-1.3437">
        <ele>66.8</ele>
        <time>2020-06-15T13:51:16Z</time>
      </trkpt>
      <trkpt lat="49.50795" lon="-1.34365">
        <ele>66.9</ele>
        <time>2020-06-15T13:51:17Z</time>
      </trkpt>
      <trkpt lat="49.50795" lon="-1.3436">
        <ele>66.9</ele>
        <time>2020-06-15T13:51:18Z</time>
      </trkpt>
      <trkpt lat="49.50796" lon="-1.34355">
        <ele>66.9</ele>
        <time>2020-06-15T13:51:19Z</time>
      </trkpt>
      <trkpt lat="49.50796" lon="-1.3435">
        <ele>67</ele>
        <time>2020-06-15T13:51:20Z</time>
      </trkpt>
      <trkpt lat="49.50796" lon="-1.34344">
        <ele>67</ele>
        <time>2020-06-15T13:51:21Z</time>
      </trkpt>
      <trkpt lat="49.50797" lon="-1.34338">
        <ele>67.1</ele>
        <time>2020-06-15T13:51:22Z</time>
      </trkpt>
      <trkpt lat="49.50797" lon="-1.34332">
        <ele>67.2</ele>
        <time>2020-06-15T13:51:23Z</time>
      </trkpt>
      <trkpt lat="49.50797" lon="-1.34326">
        <ele>67.3</ele>
        <time>2020-06-15T13:51:24Z</time>
      </trkpt>
      <trkpt lat="49.50796" lon="-1.3432">
        <ele>67.3</ele>
        <time>2020-06-15T13:51:25Z</time>
      </trkpt>
      <trkpt lat="49.50796" lon="-1.34313">
        <ele>67.4</ele>
        <time>2020-06-15T13:51:26Z</time>
      </trkpt>
      <trkpt lat="49.50795" lon="-1.34305">
        <ele>67.5</ele>
        <time>2020-06-15T13:51:27Z</time>
      </trkpt>
      <trkpt lat="49.50795" lon="-1.34298">
        <ele>67.5</ele>
        <time>2020-06-15T13:51:28Z</time>
      </trkpt>
      <trkpt lat="49.50794" lon="-1.34292">
        <ele>67.5</ele>
        <time>2020-06-15T13:51:29Z</time>
      </trkpt>
      <trkpt lat="49.50794" lon="-1.34285">
        <ele>67.6</ele>
        <time>2020-06-15T13:51:30Z</time>
      </trkpt>
      <trkpt lat="49.50794" lon="-1.34278">
        <ele>67.6</ele>
        <time>2020-06-15T13:51:31Z</time>
      </trkpt>
      <trkpt lat="49.50795" lon="-1.34272">
        <ele>67.6</ele>
        <time>2020-06-15T13:51:32Z</time>
      </trkpt>
      <trkpt lat="49.50794" lon="-1.34264">
        <ele>67.6</ele>
        <time>2020-06-15T13:51:33Z</time>
      </trkpt>
      <trkpt lat="49.50794" lon="-1.34256">
        <ele>67.6</ele>
        <time>2020-06-15T13:51:34Z</time>
      </trkpt>
      <trkpt lat="49.50794" lon="-1.34247">
        <ele>67.6</ele>
        <time>2020-06-15T13:51:35Z</time>
      </trkpt>
      <trkpt lat="49.50794" lon="-1.34238">
        <ele>67.6</ele>
        <time>2020-06-15T13:51:36Z</time>
      </trkpt>
      <trkpt lat="49.50794" lon="-1.3423">
        <ele>67.6</ele>
        <time>2020-06-15T13:51:37Z</time>
      </trkpt>
      <trkpt lat="49.50794" lon="-1.34222">
        <ele>67.6</ele>
        <time>2020-06-15T13:51:38Z</time>
      </trkpt>
      <trkpt lat="49.50794" lon="-1.34214">
        <ele>67.6</ele>
        <time>2020-06-15T13:51:39Z</time>
      </trkpt>
      <trkpt lat="49.50795" lon="-1.34205">
        <ele>67.6</ele>
        <time>2020-06-15T13:51:40Z</time>
      </trkpt>
      <trkpt lat="49.50795" lon="-1.34197">
        <ele>67.5</ele>
        <time>2020-06-15T13:51:41Z</time>
      </trkpt>
      <trkpt lat="49.50796" lon="-1.34188">
        <ele>67.5</ele>
        <time>2020-06-15T13:51:42Z</time>
      </trkpt>
      <trkpt lat="49.50796" lon="-1.34179">
        <ele>67.4</ele>
        <time>2020-06-15T13:51:43Z</time>
      </trkpt>
      <trkpt lat="49.50798" lon="-1.3417">
        <ele>67.4</ele>
        <time>2020-06-15T13:51:44Z</time>
      </trkpt>
      <trkpt lat="49.50798" lon="-1.34161">
        <ele>67.3</ele>
        <time>2020-06-15T13:51:45Z</time>
      </trkpt>
      <trkpt lat="49.50799" lon="-1.34152">
        <ele>67.2</ele>
        <time>2020-06-15T13:51:46Z</time>
      </trkpt>
      <trkpt lat="49.50799" lon="-1.34144">
        <ele>67.2</ele>
        <time>2020-06-15T13:51:47Z</time>
      </trkpt>
      <trkpt lat="49.50799" lon="-1.34135">
        <ele>67.1</ele>
        <time>2020-06-15T13:51:48Z</time>
      </trkpt>
      <trkpt lat="49.508" lon="-1.34125">
        <ele>67.1</ele>
        <time>2020-06-15T13:51:49Z</time>
      </trkpt>
      <trkpt lat="49.508" lon="-1.34116">
        <ele>67</ele>
        <time>2020-06-15T13:51:50Z</time>
      </trkpt>
      <trkpt lat="49.508" lon="-1.34107">
        <ele>66.9</ele>
        <time>2020-06-15T13:51:51Z</time>
      </trkpt>
      <trkpt lat="49.50801" lon="-1.34099">
        <ele>66.9</ele>
        <time>2020-06-15T13:51:52Z</time>
      </trkpt>
      <trkpt lat="49.50802" lon="-1.3409">
        <ele>66.8</ele>
        <time>2020-06-15T13:51:53Z</time>
      </trkpt>
      <trkpt lat="49.50803" lon="-1.34081">
        <ele>66.7</ele>
        <time>2020-06-15T13:51:54Z</time>
      </trkpt>
      <trkpt lat="49.50803" lon="-1.34071">
        <ele>66.6</ele>
        <time>2020-06-15T13:51:55Z</time>
      </trkpt>
      <trkpt lat="49.50805" lon="-1.34061">
        <ele>66.5</ele>
        <time>2020-06-15T13:51:56Z</time>
      </trkpt>
      <trkpt lat="49.50804" lon="-1.34051">
        <ele>66.4</ele>
        <time>2020-06-15T13:51:57Z</time>
      </trkpt>
      <trkpt lat="49.50804" lon="-1.34042">
        <ele>66.3</ele>
        <time>2020-06-15T13:51:58Z</time>
      </trkpt>
      <trkpt lat="49.50805" lon="-1.34035">
        <ele>66.3</ele>
        <time>2020-06-15T13:51:59Z</time>
      </trkpt>
      <trkpt lat="49.50806" lon="-1.34027">
        <ele>66.2</ele>
        <time>2020-06-15T13:52:00Z</time>
      </trkpt>
      <trkpt lat="49.50806" lon="-1.34018">
        <ele>66.1</ele>
        <time>2020-06-15T13:52:01Z</time>
      </trkpt>
      <trkpt lat="49.50807" lon="-1.34008">
        <ele>66.1</ele>
        <time>2020-06-15T13:52:02Z</time>
      </trkpt>
      <trkpt lat="49.50807" lon="-1.33998">
        <ele>66</ele>
        <time>2020-06-15T13:52:03Z</time>
      </trkpt>
      <trkpt lat="49.50807" lon="-1.3399">
        <ele>65.9</ele>
        <time>2020-06-15T13:52:04Z</time>
      </trkpt>
      <trkpt lat="49.50808" lon="-1.3398">
        <ele>65.7</ele>
        <time>2020-06-15T13:52:05Z</time>
      </trkpt>
      <trkpt lat="49.50808" lon="-1.33972">
        <ele>65.6</ele>
        <time>2020-06-15T13:52:06Z</time>
      </trkpt>
      <trkpt lat="49.50808" lon="-1.33962">
        <ele>65.5</ele>
        <time>2020-06-15T13:52:07Z</time>
      </trkpt>
      <trkpt lat="49.50808" lon="-1.33952">
        <ele>65.3</ele>
        <time>2020-06-15T13:52:08Z</time>
      </trkpt>
      <trkpt lat="49.50808" lon="-1.33942">
        <ele>65.2</ele>
        <time>2020-06-15T13:52:09Z</time>
      </trkpt>
      <trkpt lat="49.50809" lon="-1.33933">
        <ele>65.1</ele>
        <time>2020-06-15T13:52:10Z</time>
      </trkpt>
      <trkpt lat="49.50809" lon="-1.33923">
        <ele>64.9</ele>
        <time>2020-06-15T13:52:11Z</time>
      </trkpt>
      <trkpt lat="49.50809" lon="-1.33913">
        <ele>64.8</ele>
        <time>2020-06-15T13:52:12Z</time>
      </trkpt>
      <trkpt lat="49.50809" lon="-1.33904">
        <ele>64.6</ele>
        <time>2020-06-15T13:52:13Z</time>
      </trkpt>
      <trkpt lat="49.50809" lon="-1.33897">
        <ele>64.5</ele>
        <time>2020-06-15T13:52:14Z</time>
      </trkpt>
      <trkpt lat="49.50809" lon="-1.33888">
        <ele>64.4</ele>
        <time>2020-06-15T13:52:15Z</time>
      </trkpt>
      <trkpt lat="49.50809" lon="-1.33879">
        <ele>64.3</ele>
        <time>2020-06-15T13:52:16Z</time>
      </trkpt>
      <trkpt lat="49.5081" lon="-1.33868">
        <ele>64.2</ele>
        <time>2020-06-15T13:52:17Z</time>
      </trkpt>
      <trkpt lat="49.50809" lon="-1.33859">
        <ele>64.1</ele>
        <time>2020-06-15T13:52:18Z</time>
      </trkpt>
      <trkpt lat="49.5081" lon="-1.33849">
        <ele>64</ele>
        <time>2020-06-15T13:52:19Z</time>
      </trkpt>
      <trkpt lat="49.5081" lon="-1.33842">
        <ele>64</ele>
        <time>2020-06-15T13:52:20Z</time>
      </trkpt>
      <trkpt lat="49.50809" lon="-1.33832">
        <ele>63.9</ele>
        <time>2020-06-15T13:52:21Z</time>
      </trkpt>
      <trkpt lat="49.5081" lon="-1.33823">
        <ele>63.8</ele>
        <time>2020-06-15T13:52:22Z</time>
      </trkpt>
      <trkpt lat="49.5081" lon="-1.3381">
        <ele>63.6</ele>
        <time>2020-06-15T13:52:23Z</time>
      </trkpt>
      <trkpt lat="49.5081" lon="-1.33802">
        <ele>63.5</ele>
        <time>2020-06-15T13:52:24Z</time>
      </trkpt>
      <trkpt lat="49.5081" lon="-1.33792">
        <ele>63.4</ele>
        <time>2020-06-15T13:52:25Z</time>
      </trkpt>
      <trkpt lat="49.50809" lon="-1.33779">
        <ele>63.2</ele>
        <time>2020-06-15T13:52:26Z</time>
      </trkpt>
      <trkpt lat="49.50809" lon="-1.33768">
        <ele>63</ele>
        <time>2020-06-15T13:52:27Z</time>
      </trkpt>
      <trkpt lat="49.50809" lon="-1.33756">
        <ele>62.8</ele>
        <time>2020-06-15T13:52:28Z</time>
      </trkpt>
      <trkpt lat="49.50809" lon="-1.33744">
        <ele>62.6</ele>
        <time>2020-06-15T13:52:29Z</time>
      </trkpt>
      <trkpt lat="49.50809" lon="-1.33732">
        <ele>62.4</ele>
        <time>2020-06-15T13:52:30Z</time>
      </trkpt>
      <trkpt lat="49.50809" lon="-1.33721">
        <ele>62.2</ele>
        <time>2020-06-15T13:52:31Z</time>
      </trkpt>
      <trkpt lat="49.50809" lon="-1.33709">
        <ele>61.9</ele>
        <time>2020-06-15T13:52:32Z</time>
      </trkpt>
      <trkpt lat="49.5081" lon="-1.33698">
        <ele>61.7</ele>
        <time>2020-06-15T13:52:33Z</time>
      </trkpt>
      <trkpt lat="49.5081" lon="-1.33686">
        <ele>61.6</ele>
        <time>2020-06-15T13:52:34Z</time>
      </trkpt>
      <trkpt lat="49.5081" lon="-1.33675">
        <ele>61.4</ele>
        <time>2020-06-15T13:52:35Z</time>
      </trkpt>
      <trkpt lat="49.50811" lon="-1.33662">
        <ele>61.1</ele>
        <time>2020-06-15T13:52:36Z</time>
      </trkpt>
      <trkpt lat="49.50812" lon="-1.33652">
        <ele>60.9</ele>
        <time>2020-06-15T13:52:37Z</time>
      </trkpt>
      <trkpt lat="49.50813" lon="-1.33641">
        <ele>60.6</ele>
        <time>2020-06-15T13:52:38Z</time>
      </trkpt>
      <trkpt lat="49.50814" lon="-1.3363">
        <ele>60.4</ele>
        <time>2020-06-15T13:52:39Z</time>
      </trkpt>
      <trkpt lat="49.50816" lon="-1.3362">
        <ele>60.1</ele>
        <time>2020-06-15T13:52:40Z</time>
      </trkpt>
      <trkpt lat="49.50817" lon="-1.3361">
        <ele>59.9</ele>
        <time>2020-06-15T13:52:41Z</time>
      </trkpt>
      <trkpt lat="49.50819" lon="-1.33598">
        <ele>59.5</ele>
        <time>2020-06-15T13:52:42Z</time>
      </trkpt>
      <trkpt lat="49.5082" lon="-1.33587">
        <ele>59.2</ele>
        <time>2020-06-15T13:52:43Z</time>
      </trkpt>
      <trkpt lat="49.50822" lon="-1.33574">
        <ele>58.9</ele>
        <time>2020-06-15T13:52:44Z</time>
      </trkpt>
      <trkpt lat="49.50823" lon="-1.3356">
        <ele>58.7</ele>
        <time>2020-06-15T13:52:45Z</time>
      </trkpt>
      <trkpt lat="49.50825" lon="-1.33547">
        <ele>58.4</ele>
        <time>2020-06-15T13:52:46Z</time>
      </trkpt>
      <trkpt lat="49.50826" lon="-1.33534">
        <ele>58.1</ele>
        <time>2020-06-15T13:52:47Z</time>
      </trkpt>
      <trkpt lat="49.50828" lon="-1.33521">
        <ele>57.8</ele>
        <time>2020-06-15T13:52:48Z</time>
      </trkpt>
      <trkpt lat="49.50829" lon="-1.33507">
        <ele>57.6</ele>
        <time>2020-06-15T13:52:49Z</time>
      </trkpt>
      <trkpt lat="49.5083" lon="-1.33494">
        <ele>57.4</ele>
        <time>2020-06-15T13:52:50Z</time>
      </trkpt>
      <trkpt lat="49.5083" lon="-1.33481">
        <ele>57.3</ele>
        <time>2020-06-15T13:52:51Z</time>
      </trkpt>
      <trkpt lat="49.50832" lon="-1.33468">
        <ele>57.2</ele>
        <time>2020-06-15T13:52:52Z</time>
      </trkpt>
      <trkpt lat="49.50833" lon="-1.33455">
        <ele>57.1</ele>
        <time>2020-06-15T13:52:53Z</time>
      </trkpt>
      <trkpt lat="49.50834" lon="-1.33442">
        <ele>57.1</ele>
        <time>2020-06-15T13:52:54Z</time>
      </trkpt>
      <trkpt lat="49.50836" lon="-1.3343">
        <ele>57.1</ele>
        <time>2020-06-15T13:52:55Z</time>
      </trkpt>
      <trkpt lat="49.50837" lon="-1.33418">
        <ele>57.1</ele>
        <time>2020-06-15T13:52:56Z</time>
      </trkpt>
      <trkpt lat="49.50838" lon="-1.33407">
        <ele>57.2</ele>
        <time>2020-06-15T13:52:57Z</time>
      </trkpt>
      <trkpt lat="49.50839" lon="-1.33396">
        <ele>57.2</ele>
        <time>2020-06-15T13:52:58Z</time>
      </trkpt>
      <trkpt lat="49.50841" lon="-1.33385">
        <ele>57.3</ele>
        <time>2020-06-15T13:52:59Z</time>
      </trkpt>
      <trkpt lat="49.50842" lon="-1.33375">
        <ele>57.5</ele>
        <time>2020-06-15T13:53:00Z</time>
      </trkpt>
      <trkpt lat="49.50843" lon="-1.33364">
        <ele>57.6</ele>
        <time>2020-06-15T13:53:01Z</time>
      </trkpt>
      <trkpt lat="49.50844" lon="-1.33354">
        <ele>57.8</ele>
        <time>2020-06-15T13:53:02Z</time>
      </trkpt>
      <trkpt lat="49.50845" lon="-1.33344">
        <ele>58</ele>
        <time>2020-06-15T13:53:03Z</time>
      </trkpt>
      <trkpt lat="49.50847" lon="-1.33333">
        <ele>58.3</ele>
        <time>2020-06-15T13:53:04Z</time>
      </trkpt>
      <trkpt lat="49.50847" lon="-1.33324">
        <ele>58.5</ele>
        <time>2020-06-15T13:53:05Z</time>
      </trkpt>
      <trkpt lat="49.50848" lon="-1.33315">
        <ele>58.7</ele>
        <time>2020-06-15T13:53:06Z</time>
      </trkpt>
      <trkpt lat="49.50849" lon="-1.33306">
        <ele>58.9</ele>
        <time>2020-06-15T13:53:07Z</time>
      </trkpt>
      <trkpt lat="49.50851" lon="-1.33298">
        <ele>59.1</ele>
        <time>2020-06-15T13:53:08Z</time>
      </trkpt>
      <trkpt lat="49.50852" lon="-1.3329">
        <ele>59.3</ele>
        <time>2020-06-15T13:53:09Z</time>
      </trkpt>
      <trkpt lat="49.50852" lon="-1.33282">
        <ele>59.5</ele>
        <time>2020-06-15T13:53:10Z</time>
      </trkpt>
      <trkpt lat="49.50852" lon="-1.33274">
        <ele>59.8</ele>
        <time>2020-06-15T13:53:11Z</time>
      </trkpt>
      <trkpt lat="49.50852" lon="-1.33266">
        <ele>60.1</ele>
        <time>2020-06-15T13:53:12Z</time>
      </trkpt>
      <trkpt lat="49.50853" lon="-1.33259">
        <ele>60.3</ele>
        <time>2020-06-15T13:53:13Z</time>
      </trkpt>
      <trkpt lat="49.50854" lon="-1.33252">
        <ele>60.6</ele>
        <time>2020-06-15T13:53:14Z</time>
      </trkpt>
      <trkpt lat="49.50855" lon="-1.33244">
        <ele>60.8</ele>
        <time>2020-06-15T13:53:15Z</time>
      </trkpt>
      <trkpt lat="49.50856" lon="-1.33236">
        <ele>61.1</ele>
        <time>2020-06-15T13:53:16Z</time>
      </trkpt>
      <trkpt lat="49.50857" lon="-1.33228">
        <ele>61.3</ele>
        <time>2020-06-15T13:53:17Z</time>
      </trkpt>
      <trkpt lat="49.50857" lon="-1.3322">
        <ele>61.5</ele>
        <time>2020-06-15T13:53:18Z</time>
      </trkpt>
      <trkpt lat="49.50858" lon="-1.33214">
        <ele>61.6</ele>
        <time>2020-06-15T13:53:19Z</time>
      </trkpt>
      <trkpt lat="49.50859" lon="-1.33207">
        <ele>61.7</ele>
        <time>2020-06-15T13:53:20Z</time>
      </trkpt>
      <trkpt lat="49.50859" lon="-1.332">
        <ele>61.9</ele>
        <time>2020-06-15T13:53:21Z</time>
      </trkpt>
      <trkpt lat="49.50859" lon="-1.33194">
        <ele>62</ele>
        <time>2020-06-15T13:53:22Z</time>
      </trkpt>
      <trkpt lat="49.50859" lon="-1.33188">
        <ele>62</ele>
        <time>2020-06-15T13:53:23Z</time>
      </trkpt>
      <trkpt lat="49.50859" lon="-1.3318">
        <ele>62</ele>
        <time>2020-06-15T13:53:24Z</time>
      </trkpt>
      <trkpt lat="49.50858" lon="-1.33173">
        <ele>61.7</ele>
        <time>2020-06-15T13:53:25Z</time>
      </trkpt>
      <trkpt lat="49.50858" lon="-1.33168">
        <ele>61.2</ele>
        <time>2020-06-15T13:53:26Z</time>
      </trkpt>
      <trkpt lat="49.50858" lon="-1.33161">
        <ele>60.2</ele>
        <time>2020-06-15T13:53:27Z</time>
      </trkpt>
      <trkpt lat="49.50858" lon="-1.33154">
        <ele>59</ele>
        <time>2020-06-15T13:53:28Z</time>
      </trkpt>
      <trkpt lat="49.50858" lon="-1.33145">
        <ele>59.1</ele>
        <time>2020-06-15T13:53:29Z</time>
      </trkpt>
      <trkpt lat="49.50858" lon="-1.33138">
        <ele>59.2</ele>
        <time>2020-06-15T13:53:30Z</time>
      </trkpt>
      <trkpt lat="49.50858" lon="-1.3313">
        <ele>59.2</ele>
        <time>2020-06-15T13:53:31Z</time>
      </trkpt>
      <trkpt lat="49.50858" lon="-1.33122">
        <ele>59.3</ele>
        <time>2020-06-15T13:53:32Z</time>
      </trkpt>
      <trkpt lat="49.50858" lon="-1.33114">
        <ele>59.4</ele>
        <time>2020-06-15T13:53:33Z</time>
      </trkpt>
      <trkpt lat="49.50859" lon="-1.33107">
        <ele>59.4</ele>
        <time>2020-06-15T13:53:34Z</time>
      </trkpt>
      <trkpt lat="49.50859" lon="-1.331">
        <ele>59.5</ele>
        <time>2020-06-15T13:53:35Z</time>
      </trkpt>
      <trkpt lat="49.50859" lon="-1.33093">
        <ele>59.5</ele>
        <time>2020-06-15T13:53:36Z</time>
      </trkpt>
      <trkpt lat="49.50859" lon="-1.33086">
        <ele>59.6</ele>
        <time>2020-06-15T13:53:37Z</time>
      </trkpt>
      <trkpt lat="49.50859" lon="-1.33079">
        <ele>59.6</ele>
        <time>2020-06-15T13:53:38Z</time>
      </trkpt>
      <trkpt lat="49.50858" lon="-1.33074">
        <ele>59.7</ele>
        <time>2020-06-15T13:53:39Z</time>
      </trkpt>
      <trkpt lat="49.50858" lon="-1.33066">
        <ele>59.7</ele>
        <time>2020-06-15T13:53:40Z</time>
      </trkpt>
      <trkpt lat="49.50858" lon="-1.33059">
        <ele>59.8</ele>
        <time>2020-06-15T13:53:41Z</time>
      </trkpt>
      <trkpt lat="49.50858" lon="-1.33053">
        <ele>59.8</ele>
        <time>2020-06-15T13:53:42Z</time>
      </trkpt>
      <trkpt lat="49.50858" lon="-1.33045">
        <ele>59.8</ele>
        <time>2020-06-15T13:53:43Z</time>
      </trkpt>
      <trkpt lat="49.50857" lon="-1.33037">
        <ele>59.9</ele>
        <time>2020-06-15T13:53:44Z</time>
      </trkpt>
      <trkpt lat="49.50857" lon="-1.3303">
        <ele>59.9</ele>
        <time>2020-06-15T13:53:45Z</time>
      </trkpt>
      <trkpt lat="49.50857" lon="-1.33023">
        <ele>59.9</ele>
        <time>2020-06-15T13:53:46Z</time>
      </trkpt>
      <trkpt lat="49.50856" lon="-1.33016">
        <ele>60</ele>
        <time>2020-06-15T13:53:47Z</time>
      </trkpt>
      <trkpt lat="49.50856" lon="-1.33009">
        <ele>60</ele>
        <time>2020-06-15T13:53:48Z</time>
      </trkpt>
      <trkpt lat="49.50856" lon="-1.33002">
        <ele>60.1</ele>
        <time>2020-06-15T13:53:49Z</time>
      </trkpt>
      <trkpt lat="49.50856" lon="-1.32992">
        <ele>60.1</ele>
        <time>2020-06-15T13:53:50Z</time>
      </trkpt>
      <trkpt lat="49.50856" lon="-1.32986">
        <ele>60.1</ele>
        <time>2020-06-15T13:53:51Z</time>
      </trkpt>
      <trkpt lat="49.50857" lon="-1.32979">
        <ele>60.1</ele>
        <time>2020-06-15T13:53:52Z</time>
      </trkpt>
      <trkpt lat="49.50856" lon="-1.32972">
        <ele>60.1</ele>
        <time>2020-06-15T13:53:53Z</time>
      </trkpt>
      <trkpt lat="49.50857" lon="-1.32964">
        <ele>60.1</ele>
        <time>2020-06-15T13:53:54Z</time>
      </trkpt>
      <trkpt lat="49.50856" lon="-1.32956">
        <ele>60.1</ele>
        <time>2020-06-15T13:53:55Z</time>
      </trkpt>
      <trkpt lat="49.50856" lon="-1.32949">
        <ele>60.1</ele>
        <time>2020-06-15T13:53:56Z</time>
      </trkpt>
      <trkpt lat="49.50856" lon="-1.32942">
        <ele>60.1</ele>
        <time>2020-06-15T13:53:57Z</time>
      </trkpt>
      <trkpt lat="49.50855" lon="-1.32934">
        <ele>60.1</ele>
        <time>2020-06-15T13:53:58Z</time>
      </trkpt>
      <trkpt lat="49.50854" lon="-1.32927">
        <ele>60.2</ele>
        <time>2020-06-15T13:53:59Z</time>
      </trkpt>
      <trkpt lat="49.50854" lon="-1.32919">
        <ele>60.2</ele>
        <time>2020-06-15T13:54:00Z</time>
      </trkpt>
      <trkpt lat="49.50854" lon="-1.3291">
        <ele>60.1</ele>
        <time>2020-06-15T13:54:01Z</time>
      </trkpt>
      <trkpt lat="49.50854" lon="-1.32903">
        <ele>60.1</ele>
        <time>2020-06-15T13:54:02Z</time>
      </trkpt>
      <trkpt lat="49.50854" lon="-1.32895">
        <ele>60.1</ele>
        <time>2020-06-15T13:54:03Z</time>
      </trkpt>
      <trkpt lat="49.50855" lon="-1.32887">
        <ele>60.1</ele>
        <time>2020-06-15T13:54:04Z</time>
      </trkpt>
      <trkpt lat="49.50855" lon="-1.32879">
        <ele>60</ele>
        <time>2020-06-15T13:54:05Z</time>
      </trkpt>
      <trkpt lat="49.50854" lon="-1.32871">
        <ele>60</ele>
        <time>2020-06-15T13:54:06Z</time>
      </trkpt>
      <trkpt lat="49.50853" lon="-1.32864">
        <ele>60</ele>
        <time>2020-06-15T13:54:07Z</time>
      </trkpt>
      <trkpt lat="49.50852" lon="-1.32856">
        <ele>59.9</ele>
        <time>2020-06-15T13:54:08Z</time>
      </trkpt>
      <trkpt lat="49.50852" lon="-1.32848">
        <ele>59.9</ele>
        <time>2020-06-15T13:54:09Z</time>
      </trkpt>
      <trkpt lat="49.50851" lon="-1.32841">
        <ele>59.9</ele>
        <time>2020-06-15T13:54:10Z</time>
      </trkpt>
      <trkpt lat="49.5085" lon="-1.32832">
        <ele>59.8</ele>
        <time>2020-06-15T13:54:11Z</time>
      </trkpt>
      <trkpt lat="49.50849" lon="-1.32823">
        <ele>59.7</ele>
        <time>2020-06-15T13:54:12Z</time>
      </trkpt>
      <trkpt lat="49.50849" lon="-1.32814">
        <ele>59.6</ele>
        <time>2020-06-15T13:54:13Z</time>
      </trkpt>
      <trkpt lat="49.5085" lon="-1.32805">
        <ele>59.5</ele>
        <time>2020-06-15T13:54:14Z</time>
      </trkpt>
      <trkpt lat="49.5085" lon="-1.32796">
        <ele>59.4</ele>
        <time>2020-06-15T13:54:15Z</time>
      </trkpt>
      <trkpt lat="49.50849" lon="-1.32786">
        <ele>59.3</ele>
        <time>2020-06-15T13:54:16Z</time>
      </trkpt>
      <trkpt lat="49.50849" lon="-1.32776">
        <ele>59.2</ele>
        <time>2020-06-15T13:54:17Z</time>
      </trkpt>
      <trkpt lat="49.5085" lon="-1.32766">
        <ele>59.1</ele>
        <time>2020-06-15T13:54:18Z</time>
      </trkpt>
      <trkpt lat="49.5085" lon="-1.32755">
        <ele>59</ele>
        <time>2020-06-15T13:54:19Z</time>
      </trkpt>
      <trkpt lat="49.50851" lon="-1.32746">
        <ele>58.8</ele>
        <time>2020-06-15T13:54:20Z</time>
      </trkpt>
      <trkpt lat="49.50851" lon="-1.32738">
        <ele>58.7</ele>
        <time>2020-06-15T13:54:21Z</time>
      </trkpt>
      <trkpt lat="49.50851" lon="-1.32729">
        <ele>58.6</ele>
        <time>2020-06-15T13:54:22Z</time>
      </trkpt>
      <trkpt lat="49.50851" lon="-1.32719">
        <ele>58.4</ele>
        <time>2020-06-15T13:54:23Z</time>
      </trkpt>
      <trkpt lat="49.50852" lon="-1.32709">
        <ele>58.2</ele>
        <time>2020-06-15T13:54:24Z</time>
      </trkpt>
      <trkpt lat="49.50852" lon="-1.32695">
        <ele>57.9</ele>
        <time>2020-06-15T13:54:25Z</time>
      </trkpt>
      <trkpt lat="49.50852" lon="-1.32687">
        <ele>57.8</ele>
        <time>2020-06-15T13:54:26Z</time>
      </trkpt>
      <trkpt lat="49.50853" lon="-1.32678">
        <ele>57.6</ele>
        <time>2020-06-15T13:54:27Z</time>
      </trkpt>
      <trkpt lat="49.50853" lon="-1.32666">
        <ele>57.3</ele>
        <time>2020-06-15T13:54:28Z</time>
      </trkpt>
      <trkpt lat="49.50853" lon="-1.32653">
        <ele>56.9</ele>
        <time>2020-06-15T13:54:29Z</time>
      </trkpt>
      <trkpt lat="49.50853" lon="-1.32642">
        <ele>56.7</ele>
        <time>2020-06-15T13:54:30Z</time>
      </trkpt>
      <trkpt lat="49.50854" lon="-1.32632">
        <ele>56.5</ele>
        <time>2020-06-15T13:54:31Z</time>
      </trkpt>
      <trkpt lat="49.50854" lon="-1.32621">
        <ele>56.2</ele>
        <time>2020-06-15T13:54:32Z</time>
      </trkpt>
      <trkpt lat="49.50855" lon="-1.3261">
        <ele>56</ele>
        <time>2020-06-15T13:54:33Z</time>
      </trkpt>
      <trkpt lat="49.50855" lon="-1.32599">
        <ele>55.7</ele>
        <time>2020-06-15T13:54:34Z</time>
      </trkpt>
      <trkpt lat="49.50855" lon="-1.32588">
        <ele>55.4</ele>
        <time>2020-06-15T13:54:35Z</time>
      </trkpt>
      <trkpt lat="49.50856" lon="-1.32577">
        <ele>55.1</ele>
        <time>2020-06-15T13:54:36Z</time>
      </trkpt>
      <trkpt lat="49.50856" lon="-1.32566">
        <ele>54.8</ele>
        <time>2020-06-15T13:54:37Z</time>
      </trkpt>
      <trkpt lat="49.50857" lon="-1.32555">
        <ele>54.5</ele>
        <time>2020-06-15T13:54:38Z</time>
      </trkpt>
      <trkpt lat="49.50857" lon="-1.32543">
        <ele>54.2</ele>
        <time>2020-06-15T13:54:39Z</time>
      </trkpt>
      <trkpt lat="49.50857" lon="-1.32532">
        <ele>53.9</ele>
        <time>2020-06-15T13:54:40Z</time>
      </trkpt>
      <trkpt lat="49.50858" lon="-1.32521">
        <ele>53.5</ele>
        <time>2020-06-15T13:54:41Z</time>
      </trkpt>
      <trkpt lat="49.50858" lon="-1.32508">
        <ele>53.2</ele>
        <time>2020-06-15T13:54:42Z</time>
      </trkpt>
      <trkpt lat="49.50857" lon="-1.32496">
        <ele>52.8</ele>
        <time>2020-06-15T13:54:43Z</time>
      </trkpt>
      <trkpt lat="49.50858" lon="-1.32486">
        <ele>52.6</ele>
        <time>2020-06-15T13:54:44Z</time>
      </trkpt>
      <trkpt lat="49.50858" lon="-1.32474">
        <ele>52.2</ele>
        <time>2020-06-15T13:54:45Z</time>
      </trkpt>
      <trkpt lat="49.50859" lon="-1.32462">
        <ele>51.8</ele>
        <time>2020-06-15T13:54:46Z</time>
      </trkpt>
      <trkpt lat="49.5086" lon="-1.32449">
        <ele>51.3</ele>
        <time>2020-06-15T13:54:47Z</time>
      </trkpt>
      <trkpt lat="49.50861" lon="-1.32437">
        <ele>50.9</ele>
        <time>2020-06-15T13:54:48Z</time>
      </trkpt>
      <trkpt lat="49.50862" lon="-1.32427">
        <ele>50.5</ele>
        <time>2020-06-15T13:54:49Z</time>
      </trkpt>
      <trkpt lat="49.50863" lon="-1.32416">
        <ele>50.1</ele>
        <time>2020-06-15T13:54:50Z</time>
      </trkpt>
      <trkpt lat="49.50864" lon="-1.32404">
        <ele>49.7</ele>
        <time>2020-06-15T13:54:51Z</time>
      </trkpt>
      <trkpt lat="49.50865" lon="-1.32393">
        <ele>49.3</ele>
        <time>2020-06-15T13:54:52Z</time>
      </trkpt>
      <trkpt lat="49.50866" lon="-1.32382">
        <ele>48.9</ele>
        <time>2020-06-15T13:54:53Z</time>
      </trkpt>
      <trkpt lat="49.50867" lon="-1.3237">
        <ele>48.6</ele>
        <time>2020-06-15T13:54:54Z</time>
      </trkpt>
      <trkpt lat="49.50868" lon="-1.32358">
        <ele>48.3</ele>
        <time>2020-06-15T13:54:55Z</time>
      </trkpt>
      <trkpt lat="49.50869" lon="-1.32347">
        <ele>48</ele>
        <time>2020-06-15T13:54:56Z</time>
      </trkpt>
      <trkpt lat="49.50869" lon="-1.32335">
        <ele>47.7</ele>
        <time>2020-06-15T13:54:57Z</time>
      </trkpt>
      <trkpt lat="49.5087" lon="-1.32323">
        <ele>47.3</ele>
        <time>2020-06-15T13:54:58Z</time>
      </trkpt>
      <trkpt lat="49.5087" lon="-1.3231">
        <ele>47</ele>
        <time>2020-06-15T13:54:59Z</time>
      </trkpt>
      <trkpt lat="49.5087" lon="-1.32297">
        <ele>46.8</ele>
        <time>2020-06-15T13:55:00Z</time>
      </trkpt>
      <trkpt lat="49.50868" lon="-1.32285">
        <ele>46.5</ele>
        <time>2020-06-15T13:55:01Z</time>
      </trkpt>
      <trkpt lat="49.50866" lon="-1.32272">
        <ele>46.4</ele>
        <time>2020-06-15T13:55:02Z</time>
      </trkpt>
      <trkpt lat="49.50867" lon="-1.3226">
        <ele>46.1</ele>
        <time>2020-06-15T13:55:03Z</time>
      </trkpt>
      <trkpt lat="49.50869" lon="-1.32248">
        <ele>45.9</ele>
        <time>2020-06-15T13:55:04Z</time>
      </trkpt>
      <trkpt lat="49.50872" lon="-1.32238">
        <ele>45.9</ele>
        <time>2020-06-15T13:55:05Z</time>
      </trkpt>
      <trkpt lat="49.50875" lon="-1.32228">
        <ele>45.5</ele>
        <time>2020-06-15T13:55:06Z</time>
      </trkpt>
      <trkpt lat="49.50877" lon="-1.32219">
        <ele>45.1</ele>
        <time>2020-06-15T13:55:07Z</time>
      </trkpt>
      <trkpt lat="49.50879" lon="-1.32208">
        <ele>44.6</ele>
        <time>2020-06-15T13:55:08Z</time>
      </trkpt>
      <trkpt lat="49.5088" lon="-1.32197">
        <ele>44.1</ele>
        <time>2020-06-15T13:55:09Z</time>
      </trkpt>
      <trkpt lat="49.50882" lon="-1.32186">
        <ele>43.7</ele>
        <time>2020-06-15T13:55:10Z</time>
      </trkpt>
      <trkpt lat="49.50883" lon="-1.32174">
        <ele>43.2</ele>
        <time>2020-06-15T13:55:11Z</time>
      </trkpt>
      <trkpt lat="49.50884" lon="-1.32163">
        <ele>42.7</ele>
        <time>2020-06-15T13:55:12Z</time>
      </trkpt>
      <trkpt lat="49.50884" lon="-1.32151">
        <ele>42.3</ele>
        <time>2020-06-15T13:55:13Z</time>
      </trkpt>
      <trkpt lat="49.50885" lon="-1.3214">
        <ele>41.9</ele>
        <time>2020-06-15T13:55:14Z</time>
      </trkpt>
      <trkpt lat="49.50886" lon="-1.32128">
        <ele>41.5</ele>
        <time>2020-06-15T13:55:15Z</time>
      </trkpt>
      <trkpt lat="49.50887" lon="-1.32116">
        <ele>41.1</ele>
        <time>2020-06-15T13:55:16Z</time>
      </trkpt>
      <trkpt lat="49.50888" lon="-1.32103">
        <ele>40.8</ele>
        <time>2020-06-15T13:55:17Z</time>
      </trkpt>
      <trkpt lat="49.50889" lon="-1.3209">
        <ele>40.5</ele>
        <time>2020-06-15T13:55:18Z</time>
      </trkpt>
      <trkpt lat="49.50891" lon="-1.32077">
        <ele>40.1</ele>
        <time>2020-06-15T13:55:19Z</time>
      </trkpt>
      <trkpt lat="49.50892" lon="-1.32064">
        <ele>39.7</ele>
        <time>2020-06-15T13:55:20Z</time>
      </trkpt>
      <trkpt lat="49.50894" lon="-1.32052">
        <ele>39.4</ele>
        <time>2020-06-15T13:55:21Z</time>
      </trkpt>
      <trkpt lat="49.50895" lon="-1.32039">
        <ele>39.1</ele>
        <time>2020-06-15T13:55:22Z</time>
      </trkpt>
      <trkpt lat="49.50897" lon="-1.32027">
        <ele>38.8</ele>
        <time>2020-06-15T13:55:23Z</time>
      </trkpt>
      <trkpt lat="49.50898" lon="-1.32016">
        <ele>38.6</ele>
        <time>2020-06-15T13:55:24Z</time>
      </trkpt>
      <trkpt lat="49.50899" lon="-1.32004">
        <ele>38.4</ele>
        <time>2020-06-15T13:55:25Z</time>
      </trkpt>
      <trkpt lat="49.509" lon="-1.31993">
        <ele>38.3</ele>
        <time>2020-06-15T13:55:26Z</time>
      </trkpt>
      <trkpt lat="49.50901" lon="-1.31983">
        <ele>38.3</ele>
        <time>2020-06-15T13:55:27Z</time>
      </trkpt>
      <trkpt lat="49.50901" lon="-1.31972">
        <ele>38.2</ele>
        <time>2020-06-15T13:55:28Z</time>
      </trkpt>
      <trkpt lat="49.50902" lon="-1.31961">
        <ele>38.2</ele>
        <time>2020-06-15T13:55:29Z</time>
      </trkpt>
      <trkpt lat="49.50903" lon="-1.31951">
        <ele>38.1</ele>
        <time>2020-06-15T13:55:30Z</time>
      </trkpt>
      <trkpt lat="49.50904" lon="-1.31941">
        <ele>38.1</ele>
        <time>2020-06-15T13:55:31Z</time>
      </trkpt>
      <trkpt lat="49.50905" lon="-1.3193">
        <ele>38.1</ele>
        <time>2020-06-15T13:55:32Z</time>
      </trkpt>
      <trkpt lat="49.50905" lon="-1.3192">
        <ele>38.1</ele>
        <time>2020-06-15T13:55:33Z</time>
      </trkpt>
      <trkpt lat="49.50906" lon="-1.31911">
        <ele>38.1</ele>
        <time>2020-06-15T13:55:34Z</time>
      </trkpt>
      <trkpt lat="49.50906" lon="-1.31901">
        <ele>38.1</ele>
        <time>2020-06-15T13:55:35Z</time>
      </trkpt>
      <trkpt lat="49.50907" lon="-1.31891">
        <ele>38.1</ele>
        <time>2020-06-15T13:55:36Z</time>
      </trkpt>
      <trkpt lat="49.50908" lon="-1.31882">
        <ele>38.1</ele>
        <time>2020-06-15T13:55:37Z</time>
      </trkpt>
      <trkpt lat="49.50908" lon="-1.31873">
        <ele>38.1</ele>
        <time>2020-06-15T13:55:38Z</time>
      </trkpt>
      <trkpt lat="49.50909" lon="-1.31864">
        <ele>38.1</ele>
        <time>2020-06-15T13:55:39Z</time>
      </trkpt>
      <trkpt lat="49.50909" lon="-1.31854">
        <ele>38.1</ele>
        <time>2020-06-15T13:55:40Z</time>
      </trkpt>
      <trkpt lat="49.50911" lon="-1.31846">
        <ele>38</ele>
        <time>2020-06-15T13:55:41Z</time>
      </trkpt>
      <trkpt lat="49.50911" lon="-1.31838">
        <ele>38</ele>
        <time>2020-06-15T13:55:42Z</time>
      </trkpt>
      <trkpt lat="49.50912" lon="-1.3183">
        <ele>38</ele>
        <time>2020-06-15T13:55:43Z</time>
      </trkpt>
      <trkpt lat="49.50914" lon="-1.3182">
        <ele>38</ele>
        <time>2020-06-15T13:55:44Z</time>
      </trkpt>
      <trkpt lat="49.50914" lon="-1.3181">
        <ele>38</ele>
        <time>2020-06-15T13:55:45Z</time>
      </trkpt>
      <trkpt lat="49.50916" lon="-1.318">
        <ele>38</ele>
        <time>2020-06-15T13:55:46Z</time>
      </trkpt>
      <trkpt lat="49.50917" lon="-1.31791">
        <ele>37.9</ele>
        <time>2020-06-15T13:55:47Z</time>
      </trkpt>
      <trkpt lat="49.50917" lon="-1.31781">
        <ele>37.9</ele>
        <time>2020-06-15T13:55:48Z</time>
      </trkpt>
      <trkpt lat="49.50918" lon="-1.31771">
        <ele>37.9</ele>
        <time>2020-06-15T13:55:49Z</time>
      </trkpt>
      <trkpt lat="49.50918" lon="-1.31762">
        <ele>37.9</ele>
        <time>2020-06-15T13:55:50Z</time>
      </trkpt>
      <trkpt lat="49.50919" lon="-1.31752">
        <ele>37.9</ele>
        <time>2020-06-15T13:55:51Z</time>
      </trkpt>
      <trkpt lat="49.50921" lon="-1.31743">
        <ele>37.9</ele>
        <time>2020-06-15T13:55:52Z</time>
      </trkpt>
      <trkpt lat="49.50921" lon="-1.31735">
        <ele>37.9</ele>
        <time>2020-06-15T13:55:53Z</time>
      </trkpt>
      <trkpt lat="49.50922" lon="-1.31725">
        <ele>37.9</ele>
        <time>2020-06-15T13:55:54Z</time>
      </trkpt>
      <trkpt lat="49.50923" lon="-1.31714">
        <ele>37.9</ele>
        <time>2020-06-15T13:55:55Z</time>
      </trkpt>
      <trkpt lat="49.50925" lon="-1.31702">
        <ele>37.9</ele>
        <time>2020-06-15T13:55:56Z</time>
      </trkpt>
      <trkpt lat="49.50927" lon="-1.31693">
        <ele>37.9</ele>
        <time>2020-06-15T13:55:57Z</time>
      </trkpt>
      <trkpt lat="49.50928" lon="-1.31683">
        <ele>37.9</ele>
        <time>2020-06-15T13:55:58Z</time>
      </trkpt>
      <trkpt lat="49.50929" lon="-1.31672">
        <ele>37.9</ele>
        <time>2020-06-15T13:55:59Z</time>
      </trkpt>
      <trkpt lat="49.5093" lon="-1.31663">
        <ele>38</ele>
        <time>2020-06-15T13:56:00Z</time>
      </trkpt>
      <trkpt lat="49.50931" lon="-1.31653">
        <ele>38</ele>
        <time>2020-06-15T13:56:01Z</time>
      </trkpt>
      <trkpt lat="49.50932" lon="-1.31644">
        <ele>38</ele>
        <time>2020-06-15T13:56:02Z</time>
      </trkpt>
      <trkpt lat="49.50932" lon="-1.31635">
        <ele>38</ele>
        <time>2020-06-15T13:56:03Z</time>
      </trkpt>
      <trkpt lat="49.50933" lon="-1.31627">
        <ele>38.1</ele>
        <time>2020-06-15T13:56:04Z</time>
      </trkpt>
      <trkpt lat="49.50934" lon="-1.31617">
        <ele>38.1</ele>
        <time>2020-06-15T13:56:05Z</time>
      </trkpt>
      <trkpt lat="49.50936" lon="-1.31606">
        <ele>38.2</ele>
        <time>2020-06-15T13:56:06Z</time>
      </trkpt>
      <trkpt lat="49.50937" lon="-1.31596">
        <ele>38.3</ele>
        <time>2020-06-15T13:56:07Z</time>
      </trkpt>
      <trkpt lat="49.50937" lon="-1.31585">
        <ele>38.4</ele>
        <time>2020-06-15T13:56:08Z</time>
      </trkpt>
      <trkpt lat="49.50938" lon="-1.31578">
        <ele>38.5</ele>
        <time>2020-06-15T13:56:09Z</time>
      </trkpt>
      <trkpt lat="49.5094" lon="-1.3157">
        <ele>38.6</ele>
        <time>2020-06-15T13:56:10Z</time>
      </trkpt>
      <trkpt lat="49.50941" lon="-1.3156">
        <ele>38.7</ele>
        <time>2020-06-15T13:56:11Z</time>
      </trkpt>
      <trkpt lat="49.50942" lon="-1.31551">
        <ele>38.9</ele>
        <time>2020-06-15T13:56:12Z</time>
      </trkpt>
      <trkpt lat="49.50943" lon="-1.31542">
        <ele>39.1</ele>
        <time>2020-06-15T13:56:13Z</time>
      </trkpt>
      <trkpt lat="49.50944" lon="-1.31533">
        <ele>39.3</ele>
        <time>2020-06-15T13:56:14Z</time>
      </trkpt>
      <trkpt lat="49.50945" lon="-1.31524">
        <ele>39.5</ele>
        <time>2020-06-15T13:56:15Z</time>
      </trkpt>
      <trkpt lat="49.50946" lon="-1.31515">
        <ele>39.7</ele>
        <time>2020-06-15T13:56:16Z</time>
      </trkpt>
      <trkpt lat="49.50947" lon="-1.31507">
        <ele>40</ele>
        <time>2020-06-15T13:56:17Z</time>
      </trkpt>
      <trkpt lat="49.50947" lon="-1.31499">
        <ele>40.2</ele>
        <time>2020-06-15T13:56:18Z</time>
      </trkpt>
      <trkpt lat="49.50947" lon="-1.31492">
        <ele>40.5</ele>
        <time>2020-06-15T13:56:19Z</time>
      </trkpt>
      <trkpt lat="49.50948" lon="-1.31485">
        <ele>40.7</ele>
        <time>2020-06-15T13:56:20Z</time>
      </trkpt>
      <trkpt lat="49.50949" lon="-1.31478">
        <ele>41</ele>
        <time>2020-06-15T13:56:21Z</time>
      </trkpt>
      <trkpt lat="49.5095" lon="-1.3147">
        <ele>41.2</ele>
        <time>2020-06-15T13:56:22Z</time>
      </trkpt>
      <trkpt lat="49.5095" lon="-1.31463">
        <ele>41.4</ele>
        <time>2020-06-15T13:56:23Z</time>
      </trkpt>
      <trkpt lat="49.5095" lon="-1.31456">
        <ele>41.6</ele>
        <time>2020-06-15T13:56:24Z</time>
      </trkpt>
      <trkpt lat="49.50951" lon="-1.3145">
        <ele>41.8</ele>
        <time>2020-06-15T13:56:25Z</time>
      </trkpt>
      <trkpt lat="49.50951" lon="-1.31444">
        <ele>42</ele>
        <time>2020-06-15T13:56:26Z</time>
      </trkpt>
      <trkpt lat="49.50952" lon="-1.31438">
        <ele>42.1</ele>
        <time>2020-06-15T13:56:27Z</time>
      </trkpt>
      <trkpt lat="49.50951" lon="-1.31431">
        <ele>42.3</ele>
        <time>2020-06-15T13:56:28Z</time>
      </trkpt>
      <trkpt lat="49.50951" lon="-1.31426">
        <ele>42.5</ele>
        <time>2020-06-15T13:56:29Z</time>
      </trkpt>
      <trkpt lat="49.50952" lon="-1.31419">
        <ele>42.6</ele>
        <time>2020-06-15T13:56:30Z</time>
      </trkpt>
      <trkpt lat="49.50953" lon="-1.31412">
        <ele>42.8</ele>
        <time>2020-06-15T13:56:31Z</time>
      </trkpt>
      <trkpt lat="49.50954" lon="-1.31405">
        <ele>42.9</ele>
        <time>2020-06-15T13:56:32Z</time>
      </trkpt>
      <trkpt lat="49.50954" lon="-1.31397">
        <ele>43.1</ele>
        <time>2020-06-15T13:56:33Z</time>
      </trkpt>
      <trkpt lat="49.50954" lon="-1.3139">
        <ele>43.2</ele>
        <time>2020-06-15T13:56:34Z</time>
      </trkpt>
      <trkpt lat="49.50956" lon="-1.31385">
        <ele>43.3</ele>
        <time>2020-06-15T13:56:35Z</time>
      </trkpt>
      <trkpt lat="49.50956" lon="-1.31378">
        <ele>43.4</ele>
        <time>2020-06-15T13:56:36Z</time>
      </trkpt>
      <trkpt lat="49.50957" lon="-1.31371">
        <ele>43.6</ele>
        <time>2020-06-15T13:56:37Z</time>
      </trkpt>
      <trkpt lat="49.50958" lon="-1.31365">
        <ele>43.7</ele>
        <time>2020-06-15T13:56:38Z</time>
      </trkpt>
      <trkpt lat="49.50959" lon="-1.31357">
        <ele>43.8</ele>
        <time>2020-06-15T13:56:39Z</time>
      </trkpt>
      <trkpt lat="49.5096" lon="-1.31347">
        <ele>44</ele>
        <time>2020-06-15T13:56:40Z</time>
      </trkpt>
      <trkpt lat="49.50961" lon="-1.31339">
        <ele>44.1</ele>
        <time>2020-06-15T13:56:41Z</time>
      </trkpt>
      <trkpt lat="49.50963" lon="-1.31331">
        <ele>44.2</ele>
        <time>2020-06-15T13:56:42Z</time>
      </trkpt>
      <trkpt lat="49.50964" lon="-1.31323">
        <ele>44.3</ele>
        <time>2020-06-15T13:56:43Z</time>
      </trkpt>
      <trkpt lat="49.50964" lon="-1.31315">
        <ele>44.4</ele>
        <time>2020-06-15T13:56:44Z</time>
      </trkpt>
      <trkpt lat="49.50965" lon="-1.31307">
        <ele>44.5</ele>
        <time>2020-06-15T13:56:45Z</time>
      </trkpt>
      <trkpt lat="49.50966" lon="-1.313">
        <ele>44.6</ele>
        <time>2020-06-15T13:56:46Z</time>
      </trkpt>
      <trkpt lat="49.50967" lon="-1.3129">
        <ele>44.7</ele>
        <time>2020-06-15T13:56:47Z</time>
      </trkpt>
      <trkpt lat="49.50968" lon="-1.31282">
        <ele>44.8</ele>
        <time>2020-06-15T13:56:48Z</time>
      </trkpt>
      <trkpt lat="49.50969" lon="-1.31274">
        <ele>44.8</ele>
        <time>2020-06-15T13:56:49Z</time>
      </trkpt>
      <trkpt lat="49.50969" lon="-1.31266">
        <ele>44.9</ele>
        <time>2020-06-15T13:56:50Z</time>
      </trkpt>
      <trkpt lat="49.50969" lon="-1.31257">
        <ele>44.9</ele>
        <time>2020-06-15T13:56:51Z</time>
      </trkpt>
      <trkpt lat="49.5097" lon="-1.31249">
        <ele>44.9</ele>
        <time>2020-06-15T13:56:52Z</time>
      </trkpt>
      <trkpt lat="49.50971" lon="-1.31241">
        <ele>44.9</ele>
        <time>2020-06-15T13:56:53Z</time>
      </trkpt>
      <trkpt lat="49.50972" lon="-1.31233">
        <ele>44.9</ele>
        <time>2020-06-15T13:56:54Z</time>
      </trkpt>
      <trkpt lat="49.50973" lon="-1.31224">
        <ele>44.9</ele>
        <time>2020-06-15T13:56:55Z</time>
      </trkpt>
      <trkpt lat="49.50974" lon="-1.31215">
        <ele>44.9</ele>
        <time>2020-06-15T13:56:56Z</time>
      </trkpt>
      <trkpt lat="49.50974" lon="-1.31207">
        <ele>44.8</ele>
        <time>2020-06-15T13:56:57Z</time>
      </trkpt>
      <trkpt lat="49.50975" lon="-1.31198">
        <ele>44.8</ele>
        <time>2020-06-15T13:56:58Z</time>
      </trkpt>
      <trkpt lat="49.50975" lon="-1.31189">
        <ele>44.7</ele>
        <time>2020-06-15T13:56:59Z</time>
      </trkpt>
      <trkpt lat="49.50976" lon="-1.31179">
        <ele>44.7</ele>
        <time>2020-06-15T13:57:00Z</time>
      </trkpt>
      <trkpt lat="49.50977" lon="-1.31171">
        <ele>44.7</ele>
        <time>2020-06-15T13:57:01Z</time>
      </trkpt>
      <trkpt lat="49.50977" lon="-1.31162">
        <ele>44.6</ele>
        <time>2020-06-15T13:57:02Z</time>
      </trkpt>
      <trkpt lat="49.50978" lon="-1.31152">
        <ele>44.5</ele>
        <time>2020-06-15T13:57:03Z</time>
      </trkpt>
      <trkpt lat="49.50979" lon="-1.31143">
        <ele>44.4</ele>
        <time>2020-06-15T13:57:04Z</time>
      </trkpt>
      <trkpt lat="49.5098" lon="-1.31133">
        <ele>44.3</ele>
        <time>2020-06-15T13:57:05Z</time>
      </trkpt>
      <trkpt lat="49.50981" lon="-1.31124">
        <ele>44.3</ele>
        <time>2020-06-15T13:57:06Z</time>
      </trkpt>
      <trkpt lat="49.50983" lon="-1.31113">
        <ele>44.1</ele>
        <time>2020-06-15T13:57:07Z</time>
      </trkpt>
      <trkpt lat="49.50983" lon="-1.31104">
        <ele>44</ele>
        <time>2020-06-15T13:57:08Z</time>
      </trkpt>
      <trkpt lat="49.50983" lon="-1.31093">
        <ele>43.9</ele>
        <time>2020-06-15T13:57:09Z</time>
      </trkpt>
      <trkpt lat="49.50984" lon="-1.31081">
        <ele>43.7</ele>
        <time>2020-06-15T13:57:10Z</time>
      </trkpt>
      <trkpt lat="49.50984" lon="-1.3107">
        <ele>43.5</ele>
        <time>2020-06-15T13:57:11Z</time>
      </trkpt>
      <trkpt lat="49.50985" lon="-1.31057">
        <ele>43.4</ele>
        <time>2020-06-15T13:57:12Z</time>
      </trkpt>
      <trkpt lat="49.50986" lon="-1.31046">
        <ele>43.3</ele>
        <time>2020-06-15T13:57:13Z</time>
      </trkpt>
      <trkpt lat="49.50986" lon="-1.31033">
        <ele>43.2</ele>
        <time>2020-06-15T13:57:14Z</time>
      </trkpt>
      <trkpt lat="49.50987" lon="-1.31022">
        <ele>43.1</ele>
        <time>2020-06-15T13:57:15Z</time>
      </trkpt>
      <trkpt lat="49.50988" lon="-1.3101">
        <ele>43.1</ele>
        <time>2020-06-15T13:57:16Z</time>
      </trkpt>
      <trkpt lat="49.50989" lon="-1.30999">
        <ele>43.1</ele>
        <time>2020-06-15T13:57:17Z</time>
      </trkpt>
      <trkpt lat="49.5099" lon="-1.30987">
        <ele>43</ele>
        <time>2020-06-15T13:57:18Z</time>
      </trkpt>
      <trkpt lat="49.50992" lon="-1.30976">
        <ele>42.9</ele>
        <time>2020-06-15T13:57:19Z</time>
      </trkpt>
      <trkpt lat="49.50993" lon="-1.30965">
        <ele>42.9</ele>
        <time>2020-06-15T13:57:20Z</time>
      </trkpt>
      <trkpt lat="49.50994" lon="-1.30955">
        <ele>42.8</ele>
        <time>2020-06-15T13:57:21Z</time>
      </trkpt>
      <trkpt lat="49.50996" lon="-1.30945">
        <ele>42.8</ele>
        <time>2020-06-15T13:57:22Z</time>
      </trkpt>
      <trkpt lat="49.50997" lon="-1.30936">
        <ele>42.7</ele>
        <time>2020-06-15T13:57:23Z</time>
      </trkpt>
      <trkpt lat="49.50999" lon="-1.30925">
        <ele>42.7</ele>
        <time>2020-06-15T13:57:24Z</time>
      </trkpt>
      <trkpt lat="49.51001" lon="-1.30915">
        <ele>42.7</ele>
        <time>2020-06-15T13:57:25Z</time>
      </trkpt>
      <trkpt lat="49.51003" lon="-1.30905">
        <ele>42.7</ele>
        <time>2020-06-15T13:57:26Z</time>
      </trkpt>
      <trkpt lat="49.51005" lon="-1.30895">
        <ele>42.7</ele>
        <time>2020-06-15T13:57:27Z</time>
      </trkpt>
      <trkpt lat="49.51007" lon="-1.30884">
        <ele>42.7</ele>
        <time>2020-06-15T13:57:28Z</time>
      </trkpt>
      <trkpt lat="49.51009" lon="-1.30874">
        <ele>42.7</ele>
        <time>2020-06-15T13:57:29Z</time>
      </trkpt>
      <trkpt lat="49.51011" lon="-1.30865">
        <ele>42.6</ele>
        <time>2020-06-15T13:57:30Z</time>
      </trkpt>
      <trkpt lat="49.51013" lon="-1.30855">
        <ele>42.6</ele>
        <time>2020-06-15T13:57:31Z</time>
      </trkpt>
      <trkpt lat="49.51015" lon="-1.30845">
        <ele>42.5</ele>
        <time>2020-06-15T13:57:32Z</time>
      </trkpt>
      <trkpt lat="49.51017" lon="-1.30836">
        <ele>42.4</ele>
        <time>2020-06-15T13:57:33Z</time>
      </trkpt>
      <trkpt lat="49.51019" lon="-1.30825">
        <ele>42.4</ele>
        <time>2020-06-15T13:57:34Z</time>
      </trkpt>
      <trkpt lat="49.51022" lon="-1.30816">
        <ele>42.3</ele>
        <time>2020-06-15T13:57:35Z</time>
      </trkpt>
      <trkpt lat="49.51024" lon="-1.30806">
        <ele>42.2</ele>
        <time>2020-06-15T13:57:36Z</time>
      </trkpt>
      <trkpt lat="49.51027" lon="-1.30794">
        <ele>42</ele>
        <time>2020-06-15T13:57:37Z</time>
      </trkpt>
      <trkpt lat="49.51029" lon="-1.30783">
        <ele>41.8</ele>
        <time>2020-06-15T13:57:38Z</time>
      </trkpt>
      <trkpt lat="49.51032" lon="-1.30771">
        <ele>41.6</ele>
        <time>2020-06-15T13:57:39Z</time>
      </trkpt>
      <trkpt lat="49.51034" lon="-1.30762">
        <ele>41.4</ele>
        <time>2020-06-15T13:57:40Z</time>
      </trkpt>
      <trkpt lat="49.51035" lon="-1.30753">
        <ele>41.2</ele>
        <time>2020-06-15T13:57:41Z</time>
      </trkpt>
      <trkpt lat="49.51037" lon="-1.30743">
        <ele>41</ele>
        <time>2020-06-15T13:57:42Z</time>
      </trkpt>
      <trkpt lat="49.51039" lon="-1.30734">
        <ele>40.8</ele>
        <time>2020-06-15T13:57:43Z</time>
      </trkpt>
      <trkpt lat="49.51041" lon="-1.30723">
        <ele>40.5</ele>
        <time>2020-06-15T13:57:44Z</time>
      </trkpt>
      <trkpt lat="49.51043" lon="-1.30714">
        <ele>40.3</ele>
        <time>2020-06-15T13:57:45Z</time>
      </trkpt>
      <trkpt lat="49.51046" lon="-1.30702">
        <ele>40</ele>
        <time>2020-06-15T13:57:46Z</time>
      </trkpt>
      <trkpt lat="49.51048" lon="-1.3069">
        <ele>39.7</ele>
        <time>2020-06-15T13:57:47Z</time>
      </trkpt>
      <trkpt lat="49.51049" lon="-1.3068">
        <ele>39.5</ele>
        <time>2020-06-15T13:57:48Z</time>
      </trkpt>
      <trkpt lat="49.5105" lon="-1.30667">
        <ele>39.2</ele>
        <time>2020-06-15T13:57:49Z</time>
      </trkpt>
      <trkpt lat="49.51051" lon="-1.30655">
        <ele>38.9</ele>
        <time>2020-06-15T13:57:50Z</time>
      </trkpt>
      <trkpt lat="49.51051" lon="-1.30642">
        <ele>38.6</ele>
        <time>2020-06-15T13:57:51Z</time>
      </trkpt>
      <trkpt lat="49.51051" lon="-1.30632">
        <ele>38.3</ele>
        <time>2020-06-15T13:57:52Z</time>
      </trkpt>
      <trkpt lat="49.51051" lon="-1.30618">
        <ele>38</ele>
        <time>2020-06-15T13:57:53Z</time>
      </trkpt>
      <trkpt lat="49.51052" lon="-1.30607">
        <ele>37.7</ele>
        <time>2020-06-15T13:57:54Z</time>
      </trkpt>
      <trkpt lat="49.51052" lon="-1.30592">
        <ele>37.4</ele>
        <time>2020-06-15T13:57:55Z</time>
      </trkpt>
      <trkpt lat="49.51053" lon="-1.3058">
        <ele>37.2</ele>
        <time>2020-06-15T13:57:56Z</time>
      </trkpt>
      <trkpt lat="49.51053" lon="-1.30569">
        <ele>37</ele>
        <time>2020-06-15T13:57:57Z</time>
      </trkpt>
      <trkpt lat="49.51053" lon="-1.30557">
        <ele>36.8</ele>
        <time>2020-06-15T13:57:58Z</time>
      </trkpt>
      <trkpt lat="49.51053" lon="-1.30545">
        <ele>36.6</ele>
        <time>2020-06-15T13:57:59Z</time>
      </trkpt>
      <trkpt lat="49.51054" lon="-1.30531">
        <ele>36.4</ele>
        <time>2020-06-15T13:58:00Z</time>
      </trkpt>
      <trkpt lat="49.51054" lon="-1.3052">
        <ele>36.1</ele>
        <time>2020-06-15T13:58:01Z</time>
      </trkpt>
      <trkpt lat="49.51055" lon="-1.30507">
        <ele>35.9</ele>
        <time>2020-06-15T13:58:02Z</time>
      </trkpt>
      <trkpt lat="49.51057" lon="-1.30494">
        <ele>35.7</ele>
        <time>2020-06-15T13:58:03Z</time>
      </trkpt>
      <trkpt lat="49.51059" lon="-1.30483">
        <ele>35.5</ele>
        <time>2020-06-15T13:58:04Z</time>
      </trkpt>
      <trkpt lat="49.51062" lon="-1.3047">
        <ele>35.3</ele>
        <time>2020-06-15T13:58:05Z</time>
      </trkpt>
      <trkpt lat="49.51065" lon="-1.30458">
        <ele>35</ele>
        <time>2020-06-15T13:58:06Z</time>
      </trkpt>
      <trkpt lat="49.51067" lon="-1.30447">
        <ele>34.8</ele>
        <time>2020-06-15T13:58:07Z</time>
      </trkpt>
      <trkpt lat="49.51072" lon="-1.30436">
        <ele>34.6</ele>
        <time>2020-06-15T13:58:08Z</time>
      </trkpt>
      <trkpt lat="49.51076" lon="-1.30426">
        <ele>34.4</ele>
        <time>2020-06-15T13:58:09Z</time>
      </trkpt>
      <trkpt lat="49.51081" lon="-1.30415">
        <ele>34.2</ele>
        <time>2020-06-15T13:58:10Z</time>
      </trkpt>
      <trkpt lat="49.51086" lon="-1.30405">
        <ele>34</ele>
        <time>2020-06-15T13:58:11Z</time>
      </trkpt>
      <trkpt lat="49.51091" lon="-1.30394">
        <ele>33.8</ele>
        <time>2020-06-15T13:58:12Z</time>
      </trkpt>
      <trkpt lat="49.51095" lon="-1.30385">
        <ele>33.6</ele>
        <time>2020-06-15T13:58:13Z</time>
      </trkpt>
      <trkpt lat="49.511" lon="-1.30376">
        <ele>33.4</ele>
        <time>2020-06-15T13:58:14Z</time>
      </trkpt>
      <trkpt lat="49.51105" lon="-1.30367">
        <ele>33.2</ele>
        <time>2020-06-15T13:58:15Z</time>
      </trkpt>
      <trkpt lat="49.5111" lon="-1.30357">
        <ele>33</ele>
        <time>2020-06-15T13:58:16Z</time>
      </trkpt>
      <trkpt lat="49.51116" lon="-1.30347">
        <ele>32.8</ele>
        <time>2020-06-15T13:58:17Z</time>
      </trkpt>
      <trkpt lat="49.51121" lon="-1.30336">
        <ele>32.7</ele>
        <time>2020-06-15T13:58:18Z</time>
      </trkpt>
      <trkpt lat="49.51126" lon="-1.30326">
        <ele>32.5</ele>
        <time>2020-06-15T13:58:19Z</time>
      </trkpt>
      <trkpt lat="49.5113" lon="-1.30315">
        <ele>32.4</ele>
        <time>2020-06-15T13:58:20Z</time>
      </trkpt>
      <trkpt lat="49.51135" lon="-1.30304">
        <ele>32.2</ele>
        <time>2020-06-15T13:58:21Z</time>
      </trkpt>
      <trkpt lat="49.5114" lon="-1.30293">
        <ele>32.1</ele>
        <time>2020-06-15T13:58:22Z</time>
      </trkpt>
      <trkpt lat="49.51144" lon="-1.30282">
        <ele>32</ele>
        <time>2020-06-15T13:58:23Z</time>
      </trkpt>
      <trkpt lat="49.51148" lon="-1.30271">
        <ele>31.9</ele>
        <time>2020-06-15T13:58:24Z</time>
      </trkpt>
      <trkpt lat="49.51152" lon="-1.30261">
        <ele>31.7</ele>
        <time>2020-06-15T13:58:25Z</time>
      </trkpt>
      <trkpt lat="49.51155" lon="-1.30251">
        <ele>31.6</ele>
        <time>2020-06-15T13:58:26Z</time>
      </trkpt>
      <trkpt lat="49.51159" lon="-1.30241">
        <ele>31.5</ele>
        <time>2020-06-15T13:58:27Z</time>
      </trkpt>
      <trkpt lat="49.51162" lon="-1.30232">
        <ele>31.5</ele>
        <time>2020-06-15T13:58:28Z</time>
      </trkpt>
      <trkpt lat="49.51165" lon="-1.30223">
        <ele>31.4</ele>
        <time>2020-06-15T13:58:29Z</time>
      </trkpt>
      <trkpt lat="49.51166" lon="-1.30214">
        <ele>31.3</ele>
        <time>2020-06-15T13:58:30Z</time>
      </trkpt>
      <trkpt lat="49.51169" lon="-1.30205">
        <ele>31.2</ele>
        <time>2020-06-15T13:58:31Z</time>
      </trkpt>
      <trkpt lat="49.51171" lon="-1.30195">
        <ele>31.1</ele>
        <time>2020-06-15T13:58:32Z</time>
      </trkpt>
      <trkpt lat="49.51173" lon="-1.30185">
        <ele>31</ele>
        <time>2020-06-15T13:58:33Z</time>
      </trkpt>
      <trkpt lat="49.51174" lon="-1.30175">
        <ele>30.8</ele>
        <time>2020-06-15T13:58:34Z</time>
      </trkpt>
      <trkpt lat="49.51174" lon="-1.30164">
        <ele>30.6</ele>
        <time>2020-06-15T13:58:35Z</time>
      </trkpt>
      <trkpt lat="49.51175" lon="-1.30154">
        <ele>30.3</ele>
        <time>2020-06-15T13:58:36Z</time>
      </trkpt>
      <trkpt lat="49.51175" lon="-1.30143">
        <ele>30</ele>
        <time>2020-06-15T13:58:37Z</time>
      </trkpt>
      <trkpt lat="49.51175" lon="-1.30132">
        <ele>29.7</ele>
        <time>2020-06-15T13:58:38Z</time>
      </trkpt>
      <trkpt lat="49.51175" lon="-1.3012">
        <ele>29.4</ele>
        <time>2020-06-15T13:58:39Z</time>
      </trkpt>
      <trkpt lat="49.51175" lon="-1.30109">
        <ele>29.1</ele>
        <time>2020-06-15T13:58:40Z</time>
      </trkpt>
      <trkpt lat="49.51175" lon="-1.30097">
        <ele>28.8</ele>
        <time>2020-06-15T13:58:41Z</time>
      </trkpt>
      <trkpt lat="49.51175" lon="-1.30085">
        <ele>28.5</ele>
        <time>2020-06-15T13:58:42Z</time>
      </trkpt>
      <trkpt lat="49.51175" lon="-1.30073">
        <ele>28.2</ele>
        <time>2020-06-15T13:58:43Z</time>
      </trkpt>
      <trkpt lat="49.51174" lon="-1.30061">
        <ele>27.9</ele>
        <time>2020-06-15T13:58:44Z</time>
      </trkpt>
      <trkpt lat="49.51173" lon="-1.30049">
        <ele>27.7</ele>
        <time>2020-06-15T13:58:45Z</time>
      </trkpt>
      <trkpt lat="49.51173" lon="-1.30037">
        <ele>27.5</ele>
        <time>2020-06-15T13:58:46Z</time>
      </trkpt>
      <trkpt lat="49.51172" lon="-1.30026">
        <ele>27.4</ele>
        <time>2020-06-15T13:58:47Z</time>
      </trkpt>
      <trkpt lat="49.51171" lon="-1.30015">
        <ele>27.3</ele>
        <time>2020-06-15T13:58:48Z</time>
      </trkpt>
      <trkpt lat="49.5117" lon="-1.30004">
        <ele>27.2</ele>
        <time>2020-06-15T13:58:49Z</time>
      </trkpt>
      <trkpt lat="49.51171" lon="-1.29994">
        <ele>27.1</ele>
        <time>2020-06-15T13:58:50Z</time>
      </trkpt>
      <trkpt lat="49.51171" lon="-1.29984">
        <ele>27.1</ele>
        <time>2020-06-15T13:58:51Z</time>
      </trkpt>
      <trkpt lat="49.51171" lon="-1.29974">
        <ele>27.1</ele>
        <time>2020-06-15T13:58:52Z</time>
      </trkpt>
      <trkpt lat="49.51172" lon="-1.29963">
        <ele>27.1</ele>
        <time>2020-06-15T13:58:53Z</time>
      </trkpt>
      <trkpt lat="49.51172" lon="-1.29953">
        <ele>27.2</ele>
        <time>2020-06-15T13:58:54Z</time>
      </trkpt>
      <trkpt lat="49.51172" lon="-1.29943">
        <ele>27.2</ele>
        <time>2020-06-15T13:58:55Z</time>
      </trkpt>
      <trkpt lat="49.51172" lon="-1.29934">
        <ele>27.3</ele>
        <time>2020-06-15T13:58:56Z</time>
      </trkpt>
      <trkpt lat="49.51173" lon="-1.29925">
        <ele>27.4</ele>
        <time>2020-06-15T13:58:57Z</time>
      </trkpt>
      <trkpt lat="49.51174" lon="-1.29916">
        <ele>27.5</ele>
        <time>2020-06-15T13:58:58Z</time>
      </trkpt>
      <trkpt lat="49.51175" lon="-1.29907">
        <ele>27.6</ele>
        <time>2020-06-15T13:58:59Z</time>
      </trkpt>
      <trkpt lat="49.51176" lon="-1.29898">
        <ele>27.7</ele>
        <time>2020-06-15T13:59:00Z</time>
      </trkpt>
      <trkpt lat="49.51177" lon="-1.29889">
        <ele>27.8</ele>
        <time>2020-06-15T13:59:01Z</time>
      </trkpt>
      <trkpt lat="49.51179" lon="-1.29881">
        <ele>27.9</ele>
        <time>2020-06-15T13:59:02Z</time>
      </trkpt>
      <trkpt lat="49.5118" lon="-1.29872">
        <ele>27.9</ele>
        <time>2020-06-15T13:59:03Z</time>
      </trkpt>
      <trkpt lat="49.51181" lon="-1.29865">
        <ele>28</ele>
        <time>2020-06-15T13:59:04Z</time>
      </trkpt>
      <trkpt lat="49.51183" lon="-1.29858">
        <ele>28.1</ele>
        <time>2020-06-15T13:59:05Z</time>
      </trkpt>
      <trkpt lat="49.51185" lon="-1.29852">
        <ele>28.1</ele>
        <time>2020-06-15T13:59:06Z</time>
      </trkpt>
      <trkpt lat="49.51188" lon="-1.29846">
        <ele>28.2</ele>
        <time>2020-06-15T13:59:07Z</time>
      </trkpt>
      <trkpt lat="49.5119" lon="-1.29839">
        <ele>28.2</ele>
        <time>2020-06-15T13:59:08Z</time>
      </trkpt>
      <trkpt lat="49.51192" lon="-1.29833">
        <ele>28.3</ele>
        <time>2020-06-15T13:59:09Z</time>
      </trkpt>
      <trkpt lat="49.51194" lon="-1.29827">
        <ele>28.3</ele>
        <time>2020-06-15T13:59:10Z</time>
      </trkpt>
      <trkpt lat="49.51196" lon="-1.29821">
        <ele>28.3</ele>
        <time>2020-06-15T13:59:11Z</time>
      </trkpt>
      <trkpt lat="49.51198" lon="-1.29815">
        <ele>28.3</ele>
        <time>2020-06-15T13:59:12Z</time>
      </trkpt>
      <trkpt lat="49.51199" lon="-1.29809">
        <ele>28.3</ele>
        <time>2020-06-15T13:59:13Z</time>
      </trkpt>
      <trkpt lat="49.51202" lon="-1.29803">
        <ele>28.3</ele>
        <time>2020-06-15T13:59:14Z</time>
      </trkpt>
      <trkpt lat="49.51204" lon="-1.29799">
        <ele>28.2</ele>
        <time>2020-06-15T13:59:15Z</time>
      </trkpt>
      <trkpt lat="49.51206" lon="-1.29794">
        <ele>28.2</ele>
        <time>2020-06-15T13:59:16Z</time>
      </trkpt>
      <trkpt lat="49.51208" lon="-1.2979">
        <ele>28.1</ele>
        <time>2020-06-15T13:59:17Z</time>
      </trkpt>
      <trkpt lat="49.5121" lon="-1.29786">
        <ele>28.1</ele>
        <time>2020-06-15T13:59:18Z</time>
      </trkpt>
      <trkpt lat="49.51212" lon="-1.29781">
        <ele>28</ele>
        <time>2020-06-15T13:59:19Z</time>
      </trkpt>
      <trkpt lat="49.51214" lon="-1.29776">
        <ele>28</ele>
        <time>2020-06-15T13:59:20Z</time>
      </trkpt>
      <trkpt lat="49.51216" lon="-1.29771">
        <ele>27.9</ele>
        <time>2020-06-15T13:59:21Z</time>
      </trkpt>
      <trkpt lat="49.51217" lon="-1.29765">
        <ele>27.8</ele>
        <time>2020-06-15T13:59:22Z</time>
      </trkpt>
      <trkpt lat="49.51217" lon="-1.2976">
        <ele>27.7</ele>
        <time>2020-06-15T13:59:23Z</time>
      </trkpt>
      <trkpt lat="49.51218" lon="-1.29754">
        <ele>27.5</ele>
        <time>2020-06-15T13:59:24Z</time>
      </trkpt>
      <trkpt lat="49.51219" lon="-1.29749">
        <ele>27.4</ele>
        <time>2020-06-15T13:59:25Z</time>
      </trkpt>
      <trkpt lat="49.51221" lon="-1.29746">
        <ele>27.2</ele>
        <time>2020-06-15T13:59:26Z</time>
      </trkpt>
      <trkpt lat="49.51221" lon="-1.29744">
        <ele>27.2</ele>
        <time>2020-06-15T13:59:27Z</time>
      </trkpt>
      <trkpt lat="49.51223" lon="-1.29743">
        <ele>27.2</ele>
        <time>2020-06-15T13:59:28Z</time>
      </trkpt>
      <trkpt lat="49.51223" lon="-1.29741">
        <ele>27.1</ele>
        <time>2020-06-15T13:59:29Z</time>
      </trkpt>
      <trkpt lat="49.51223" lon="-1.29738">
        <ele>27.1</ele>
        <time>2020-06-15T13:59:30Z</time>
      </trkpt>
      <trkpt lat="49.51223" lon="-1.29736">
        <ele>27</ele>
        <time>2020-06-15T13:59:31Z</time>
      </trkpt>
      <trkpt lat="49.51223" lon="-1.29735">
        <ele>27</ele>
        <time>2020-06-15T13:59:32Z</time>
      </trkpt>
      <trkpt lat="49.51223" lon="-1.29734">
        <ele>27</ele>
        <time>2020-06-15T13:59:33Z</time>
      </trkpt>
      <trkpt lat="49.51222" lon="-1.29732">
        <ele>26.9</ele>
        <time>2020-06-15T13:59:34Z</time>
      </trkpt>
      <trkpt lat="49.51222" lon="-1.29731">
        <ele>26.9</ele>
        <time>2020-06-15T13:59:35Z</time>
      </trkpt>
      <trkpt lat="49.51222" lon="-1.2973">
        <ele>26.9</ele>
        <time>2020-06-15T13:59:36Z</time>
      </trkpt>
      <trkpt lat="49.51222" lon="-1.29729">
        <ele>26.8</ele>
        <time>2020-06-15T13:59:37Z</time>
      </trkpt>
      <trkpt lat="49.51222" lon="-1.29727">
        <ele>26.8</ele>
        <time>2020-06-15T13:59:38Z</time>
      </trkpt>
      <trkpt lat="49.51222" lon="-1.29726">
        <ele>26.8</ele>
        <time>2020-06-15T13:59:39Z</time>
      </trkpt>
      <trkpt lat="49.51221" lon="-1.29725">
        <ele>26.7</ele>
        <time>2020-06-15T13:59:40Z</time>
      </trkpt>
      <trkpt lat="49.51221" lon="-1.29723">
        <ele>26.7</ele>
        <time>2020-06-15T13:59:41Z</time>
      </trkpt>
      <trkpt lat="49.51221" lon="-1.29722">
        <ele>26.7</ele>
        <time>2020-06-15T13:59:42Z</time>
      </trkpt>
      <trkpt lat="49.51221" lon="-1.29721">
        <ele>26.6</ele>
        <time>2020-06-15T13:59:43Z</time>
      </trkpt>
      <trkpt lat="49.51221" lon="-1.2972">
        <ele>26.6</ele>
        <time>2020-06-15T14:04:08Z</time>
      </trkpt>
      <trkpt lat="49.51221" lon="-1.29718">
        <ele>26.5</ele>
        <time>2020-06-15T14:04:09Z</time>
      </trkpt>
      <trkpt lat="49.5122" lon="-1.29717">
        <ele>26.5</ele>
        <time>2020-06-15T14:04:10Z</time>
      </trkpt>
      <trkpt lat="49.5122" lon="-1.29711">
        <ele>26.3</ele>
        <time>2020-06-15T14:04:11Z</time>
      </trkpt>
      <trkpt lat="49.5122" lon="-1.29708">
        <ele>26.2</ele>
        <time>2020-06-15T14:04:12Z</time>
      </trkpt>
      <trkpt lat="49.51219" lon="-1.29703">
        <ele>26.1</ele>
        <time>2020-06-15T14:04:13Z</time>
      </trkpt>
      <trkpt lat="49.51219" lon="-1.29701">
        <ele>26</ele>
        <time>2020-06-15T14:04:14Z</time>
      </trkpt>
      <trkpt lat="49.51219" lon="-1.29697">
        <ele>25.9</ele>
        <time>2020-06-15T14:04:15Z</time>
      </trkpt>
      <trkpt lat="49.51218" lon="-1.29693">
        <ele>25.7</ele>
        <time>2020-06-15T14:04:16Z</time>
      </trkpt>
      <trkpt lat="49.51217" lon="-1.29688">
        <ele>25.5</ele>
        <time>2020-06-15T14:04:17Z</time>
      </trkpt>
      <trkpt lat="49.51217" lon="-1.29684">
        <ele>25.4</ele>
        <time>2020-06-15T14:04:18Z</time>
      </trkpt>
      <trkpt lat="49.51217" lon="-1.29677">
        <ele>25.1</ele>
        <time>2020-06-15T14:04:19Z</time>
      </trkpt>
      <trkpt lat="49.51215" lon="-1.29672">
        <ele>24.9</ele>
        <time>2020-06-15T14:04:20Z</time>
      </trkpt>
      <trkpt lat="49.51216" lon="-1.29666">
        <ele>24.7</ele>
        <time>2020-06-15T14:04:21Z</time>
      </trkpt>
      <trkpt lat="49.51216" lon="-1.2966">
        <ele>24.5</ele>
        <time>2020-06-15T14:04:22Z</time>
      </trkpt>
      <trkpt lat="49.51216" lon="-1.29653">
        <ele>24.3</ele>
        <time>2020-06-15T14:04:23Z</time>
      </trkpt>
      <trkpt lat="49.51217" lon="-1.29647">
        <ele>24</ele>
        <time>2020-06-15T14:04:24Z</time>
      </trkpt>
      <trkpt lat="49.51216" lon="-1.29641">
        <ele>23.8</ele>
        <time>2020-06-15T14:04:25Z</time>
      </trkpt>
      <trkpt lat="49.51215" lon="-1.29635">
        <ele>23.6</ele>
        <time>2020-06-15T14:04:26Z</time>
      </trkpt>
      <trkpt lat="49.51214" lon="-1.29629">
        <ele>23.3</ele>
        <time>2020-06-15T14:04:27Z</time>
      </trkpt>
      <trkpt lat="49.51214" lon="-1.29623">
        <ele>23.1</ele>
        <time>2020-06-15T14:04:28Z</time>
      </trkpt>
      <trkpt lat="49.51213" lon="-1.29617">
        <ele>22.9</ele>
        <time>2020-06-15T14:04:29Z</time>
      </trkpt>
      <trkpt lat="49.51212" lon="-1.29611">
        <ele>22.6</ele>
        <time>2020-06-15T14:04:30Z</time>
      </trkpt>
      <trkpt lat="49.51211" lon="-1.29605">
        <ele>22.4</ele>
        <time>2020-06-15T14:04:31Z</time>
      </trkpt>
      <trkpt lat="49.51211" lon="-1.29599">
        <ele>22.2</ele>
        <time>2020-06-15T14:04:32Z</time>
      </trkpt>
      <trkpt lat="49.51211" lon="-1.29593">
        <ele>22</ele>
        <time>2020-06-15T14:04:33Z</time>
      </trkpt>
      <trkpt lat="49.51209" lon="-1.29586">
        <ele>21.7</ele>
        <time>2020-06-15T14:04:34Z</time>
      </trkpt>
      <trkpt lat="49.51209" lon="-1.29579">
        <ele>21.4</ele>
        <time>2020-06-15T14:04:35Z</time>
      </trkpt>
      <trkpt lat="49.51208" lon="-1.29571">
        <ele>21.1</ele>
        <time>2020-06-15T14:04:36Z</time>
      </trkpt>
      <trkpt lat="49.51207" lon="-1.29562">
        <ele>20.7</ele>
        <time>2020-06-15T14:04:37Z</time>
      </trkpt>
      <trkpt lat="49.51207" lon="-1.29554">
        <ele>20.4</ele>
        <time>2020-06-15T14:04:38Z</time>
      </trkpt>
      <trkpt lat="49.51207" lon="-1.29545">
        <ele>20.1</ele>
        <time>2020-06-15T14:04:39Z</time>
      </trkpt>
      <trkpt lat="49.51207" lon="-1.29536">
        <ele>19.8</ele>
        <time>2020-06-15T14:04:40Z</time>
      </trkpt>
      <trkpt lat="49.51206" lon="-1.29527">
        <ele>19.4</ele>
        <time>2020-06-15T14:04:41Z</time>
      </trkpt>
      <trkpt lat="49.51206" lon="-1.29516">
        <ele>19.1</ele>
        <time>2020-06-15T14:04:42Z</time>
      </trkpt>
      <trkpt lat="49.51206" lon="-1.29507">
        <ele>18.8</ele>
        <time>2020-06-15T14:04:43Z</time>
      </trkpt>
      <trkpt lat="49.51206" lon="-1.29497">
        <ele>18.5</ele>
        <time>2020-06-15T14:04:44Z</time>
      </trkpt>
      <trkpt lat="49.51206" lon="-1.29486">
        <ele>18.1</ele>
        <time>2020-06-15T14:04:45Z</time>
      </trkpt>
      <trkpt lat="49.51205" lon="-1.29476">
        <ele>17.8</ele>
        <time>2020-06-15T14:04:46Z</time>
      </trkpt>
      <trkpt lat="49.51205" lon="-1.29464">
        <ele>17.4</ele>
        <time>2020-06-15T14:04:47Z</time>
      </trkpt>
      <trkpt lat="49.51204" lon="-1.29454">
        <ele>17</ele>
        <time>2020-06-15T14:04:48Z</time>
      </trkpt>
      <trkpt lat="49.51203" lon="-1.29442">
        <ele>16.7</ele>
        <time>2020-06-15T14:04:49Z</time>
      </trkpt>
      <trkpt lat="49.51203" lon="-1.2943">
        <ele>16.3</ele>
        <time>2020-06-15T14:04:50Z</time>
      </trkpt>
      <trkpt lat="49.51203" lon="-1.29419">
        <ele>16.1</ele>
        <time>2020-06-15T14:04:51Z</time>
      </trkpt>
      <trkpt lat="49.51203" lon="-1.29408">
        <ele>15.8</ele>
        <time>2020-06-15T14:04:52Z</time>
      </trkpt>
      <trkpt lat="49.51203" lon="-1.29397">
        <ele>15.6</ele>
        <time>2020-06-15T14:04:53Z</time>
      </trkpt>
      <trkpt lat="49.51204" lon="-1.29387">
        <ele>15.4</ele>
        <time>2020-06-15T14:04:54Z</time>
      </trkpt>
      <trkpt lat="49.51205" lon="-1.29377">
        <ele>15.2</ele>
        <time>2020-06-15T14:04:55Z</time>
      </trkpt>
      <trkpt lat="49.51206" lon="-1.29366">
        <ele>14.9</ele>
        <time>2020-06-15T14:04:56Z</time>
      </trkpt>
      <trkpt lat="49.51207" lon="-1.29356">
        <ele>14.8</ele>
        <time>2020-06-15T14:04:57Z</time>
      </trkpt>
      <trkpt lat="49.51208" lon="-1.29346">
        <ele>14.6</ele>
        <time>2020-06-15T14:04:58Z</time>
      </trkpt>
      <trkpt lat="49.5121" lon="-1.29336">
        <ele>14.4</ele>
        <time>2020-06-15T14:04:59Z</time>
      </trkpt>
      <trkpt lat="49.51211" lon="-1.29327">
        <ele>14.3</ele>
        <time>2020-06-15T14:05:00Z</time>
      </trkpt>
      <trkpt lat="49.51212" lon="-1.29317">
        <ele>14.1</ele>
        <time>2020-06-15T14:05:01Z</time>
      </trkpt>
      <trkpt lat="49.51213" lon="-1.29308">
        <ele>14</ele>
        <time>2020-06-15T14:05:02Z</time>
      </trkpt>
      <trkpt lat="49.51215" lon="-1.29299">
        <ele>13.8</ele>
        <time>2020-06-15T14:05:03Z</time>
      </trkpt>
      <trkpt lat="49.51218" lon="-1.29291">
        <ele>13.7</ele>
        <time>2020-06-15T14:05:04Z</time>
      </trkpt>
      <trkpt lat="49.51219" lon="-1.29283">
        <ele>13.5</ele>
        <time>2020-06-15T14:05:05Z</time>
      </trkpt>
      <trkpt lat="49.51221" lon="-1.29274">
        <ele>13.3</ele>
        <time>2020-06-15T14:05:06Z</time>
      </trkpt>
      <trkpt lat="49.51223" lon="-1.29265">
        <ele>13.2</ele>
        <time>2020-06-15T14:05:07Z</time>
      </trkpt>
      <trkpt lat="49.51225" lon="-1.29257">
        <ele>13</ele>
        <time>2020-06-15T14:05:08Z</time>
      </trkpt>
      <trkpt lat="49.51227" lon="-1.29248">
        <ele>12.8</ele>
        <time>2020-06-15T14:05:09Z</time>
      </trkpt>
      <trkpt lat="49.51229" lon="-1.2924">
        <ele>12.7</ele>
        <time>2020-06-15T14:05:10Z</time>
      </trkpt>
      <trkpt lat="49.51231" lon="-1.29231">
        <ele>12.5</ele>
        <time>2020-06-15T14:05:11Z</time>
      </trkpt>
      <trkpt lat="49.51232" lon="-1.29222">
        <ele>12.3</ele>
        <time>2020-06-15T14:05:12Z</time>
      </trkpt>
      <trkpt lat="49.51235" lon="-1.29214">
        <ele>12.1</ele>
        <time>2020-06-15T14:05:13Z</time>
      </trkpt>
      <trkpt lat="49.51237" lon="-1.29205">
        <ele>11.9</ele>
        <time>2020-06-15T14:05:14Z</time>
      </trkpt>
      <trkpt lat="49.51239" lon="-1.29197">
        <ele>11.7</ele>
        <time>2020-06-15T14:05:15Z</time>
      </trkpt>
      <trkpt lat="49.51242" lon="-1.29188">
        <ele>11.5</ele>
        <time>2020-06-15T14:05:16Z</time>
      </trkpt>
      <trkpt lat="49.51243" lon="-1.29179">
        <ele>11.3</ele>
        <time>2020-06-15T14:05:17Z</time>
      </trkpt>
      <trkpt lat="49.51245" lon="-1.2917">
        <ele>11</ele>
        <time>2020-06-15T14:05:18Z</time>
      </trkpt>
      <trkpt lat="49.51247" lon="-1.29162">
        <ele>10.8</ele>
        <time>2020-06-15T14:05:19Z</time>
      </trkpt>
      <trkpt lat="49.51249" lon="-1.29153">
        <ele>10.6</ele>
        <time>2020-06-15T14:05:20Z</time>
      </trkpt>
      <trkpt lat="49.51251" lon="-1.29144">
        <ele>10.3</ele>
        <time>2020-06-15T14:05:21Z</time>
      </trkpt>
      <trkpt lat="49.51254" lon="-1.29136">
        <ele>10.1</ele>
        <time>2020-06-15T14:05:22Z</time>
      </trkpt>
      <trkpt lat="49.51257" lon="-1.29127">
        <ele>9.8</ele>
        <time>2020-06-15T14:05:23Z</time>
      </trkpt>
      <trkpt lat="49.5126" lon="-1.29118">
        <ele>9.5</ele>
        <time>2020-06-15T14:05:24Z</time>
      </trkpt>
      <trkpt lat="49.51263" lon="-1.29109">
        <ele>9</ele>
        <time>2020-06-15T14:05:25Z</time>
      </trkpt>
      <trkpt lat="49.51266" lon="-1.291">
        <ele>8.8</ele>
        <time>2020-06-15T14:05:26Z</time>
      </trkpt>
      <trkpt lat="49.51266" lon="-1.29089">
        <ele>8.5</ele>
        <time>2020-06-15T14:05:27Z</time>
      </trkpt>
      <trkpt lat="49.51269" lon="-1.29081">
        <ele>8.2</ele>
        <time>2020-06-15T14:05:28Z</time>
      </trkpt>
      <trkpt lat="49.5127" lon="-1.29073">
        <ele>8</ele>
        <time>2020-06-15T14:05:29Z</time>
      </trkpt>
      <trkpt lat="49.51272" lon="-1.29065">
        <ele>7.7</ele>
        <time>2020-06-15T14:05:30Z</time>
      </trkpt>
      <trkpt lat="49.51273" lon="-1.29057">
        <ele>7.5</ele>
        <time>2020-06-15T14:05:31Z</time>
      </trkpt>
      <trkpt lat="49.51274" lon="-1.29049">
        <ele>7.3</ele>
        <time>2020-06-15T14:05:32Z</time>
      </trkpt>
      <trkpt lat="49.51274" lon="-1.29041">
        <ele>7.1</ele>
        <time>2020-06-15T14:05:33Z</time>
      </trkpt>
      <trkpt lat="49.51276" lon="-1.29033">
        <ele>6.8</ele>
        <time>2020-06-15T14:05:34Z</time>
      </trkpt>
      <trkpt lat="49.51278" lon="-1.29025">
        <ele>6.6</ele>
        <time>2020-06-15T14:05:35Z</time>
      </trkpt>
      <trkpt lat="49.51282" lon="-1.29018">
        <ele>6.3</ele>
        <time>2020-06-15T14:05:36Z</time>
      </trkpt>
      <trkpt lat="49.51286" lon="-1.29012">
        <ele>6.1</ele>
        <time>2020-06-15T14:05:37Z</time>
      </trkpt>
      <trkpt lat="49.51291" lon="-1.29006">
        <ele>5.8</ele>
        <time>2020-06-15T14:05:38Z</time>
      </trkpt>
      <trkpt lat="49.51295" lon="-1.28999">
        <ele>5.6</ele>
        <time>2020-06-15T14:05:39Z</time>
      </trkpt>
      <trkpt lat="49.51299" lon="-1.2899">
        <ele>5.3</ele>
        <time>2020-06-15T14:05:40Z</time>
      </trkpt>
      <trkpt lat="49.51303" lon="-1.28984">
        <ele>5</ele>
        <time>2020-06-15T14:05:41Z</time>
      </trkpt>
      <trkpt lat="49.51308" lon="-1.28978">
        <ele>4.8</ele>
        <time>2020-06-15T14:05:42Z</time>
      </trkpt>
      <trkpt lat="49.51313" lon="-1.28973">
        <ele>4.6</ele>
        <time>2020-06-15T14:05:43Z</time>
      </trkpt>
      <trkpt lat="49.51318" lon="-1.28968">
        <ele>4.4</ele>
        <time>2020-06-15T14:05:44Z</time>
      </trkpt>
      <trkpt lat="49.51323" lon="-1.28965">
        <ele>4.2</ele>
        <time>2020-06-15T14:05:45Z</time>
      </trkpt>
      <trkpt lat="49.51328" lon="-1.2896">
        <ele>3.9</ele>
        <time>2020-06-15T14:05:46Z</time>
      </trkpt>
      <trkpt lat="49.51334" lon="-1.28957">
        <ele>3.8</ele>
        <time>2020-06-15T14:05:47Z</time>
      </trkpt>
      <trkpt lat="49.5134" lon="-1.28955">
        <ele>3.7</ele>
        <time>2020-06-15T14:05:48Z</time>
      </trkpt>
      <trkpt lat="49.51347" lon="-1.28955">
        <ele>3.7</ele>
        <time>2020-06-15T14:05:49Z</time>
      </trkpt>
      <trkpt lat="49.51353" lon="-1.28954">
        <ele>3.7</ele>
        <time>2020-06-15T14:05:50Z</time>
      </trkpt>
      <trkpt lat="49.51359" lon="-1.28954">
        <ele>3.4</ele>
        <time>2020-06-15T14:05:51Z</time>
      </trkpt>
      <trkpt lat="49.51366" lon="-1.28954">
        <ele>3.2</ele>
        <time>2020-06-15T14:05:52Z</time>
      </trkpt>
      <trkpt lat="49.51372" lon="-1.28954">
        <ele>3</ele>
        <time>2020-06-15T14:05:53Z</time>
      </trkpt>
      <trkpt lat="49.51378" lon="-1.28955">
        <ele>2.9</ele>
        <time>2020-06-15T14:05:54Z</time>
      </trkpt>
      <trkpt lat="49.51383" lon="-1.28955">
        <ele>2.8</ele>
        <time>2020-06-15T14:05:55Z</time>
      </trkpt>
      <trkpt lat="49.51387" lon="-1.28955">
        <ele>2.8</ele>
        <time>2020-06-15T14:05:56Z</time>
      </trkpt>
      <trkpt lat="49.51391" lon="-1.28954">
        <ele>2.7</ele>
        <time>2020-06-15T14:05:57Z</time>
      </trkpt>
      <trkpt lat="49.51395" lon="-1.28954">
        <ele>2.7</ele>
        <time>2020-06-15T14:05:58Z</time>
      </trkpt>
      <trkpt lat="49.51399" lon="-1.28954">
        <ele>2.7</ele>
        <time>2020-06-15T14:05:59Z</time>
      </trkpt>
      <trkpt lat="49.51402" lon="-1.28954">
        <ele>2.7</ele>
        <time>2020-06-15T14:06:00Z</time>
      </trkpt>
      <trkpt lat="49.51405" lon="-1.28953">
        <ele>2.7</ele>
        <time>2020-06-15T14:06:01Z</time>
      </trkpt>
      <trkpt lat="49.51408" lon="-1.28953">
        <ele>2.7</ele>
        <time>2020-06-15T14:06:02Z</time>
      </trkpt>
      <trkpt lat="49.51412" lon="-1.28953">
        <ele>2.7</ele>
        <time>2020-06-15T14:06:03Z</time>
      </trkpt>
      <trkpt lat="49.51413" lon="-1.28954">
        <ele>2.7</ele>
        <time>2020-06-15T14:06:04Z</time>
      </trkpt>
      <trkpt lat="49.51416" lon="-1.28955">
        <ele>2.7</ele>
        <time>2020-06-15T14:06:05Z</time>
      </trkpt>
      <trkpt lat="49.5142" lon="-1.28956">
        <ele>2.7</ele>
        <time>2020-06-15T14:06:06Z</time>
      </trkpt>
      <trkpt lat="49.51421" lon="-1.28956">
        <ele>2.7</ele>
        <time>2020-06-15T14:06:07Z</time>
      </trkpt>
      <trkpt lat="49.51424" lon="-1.28954">
        <ele>2.7</ele>
        <time>2020-06-15T14:06:08Z</time>
      </trkpt>
      <trkpt lat="49.51425" lon="-1.28953">
        <ele>2.7</ele>
        <time>2020-06-15T14:06:09Z</time>
      </trkpt>
      <trkpt lat="49.51426" lon="-1.28951">
        <ele>2.7</ele>
        <time>2020-06-15T14:06:10Z</time>
      </trkpt>
      <trkpt lat="49.51428" lon="-1.28952">
        <ele>2.7</ele>
        <time>2020-06-15T14:06:11Z</time>
      </trkpt>
      <trkpt lat="49.51428" lon="-1.28953">
        <ele>2.7</ele>
        <time>2020-06-15T14:06:12Z</time>
      </trkpt>
      <trkpt lat="49.51429" lon="-1.28952">
        <ele>2.7</ele>
        <time>2020-06-15T14:06:13Z</time>
      </trkpt>
      <trkpt lat="49.5143" lon="-1.28953">
        <ele>2.7</ele>
        <time>2020-06-15T14:06:14Z</time>
      </trkpt>
      <trkpt lat="49.5143" lon="-1.28955">
        <ele>2.7</ele>
        <time>2020-06-15T14:06:15Z</time>
      </trkpt>
      <trkpt lat="49.5143" lon="-1.28956">
        <ele>2.7</ele>
        <time>2020-06-15T14:06:16Z</time>
      </trkpt>
      <trkpt lat="49.51431" lon="-1.28957">
        <ele>2.7</ele>
        <time>2020-06-15T14:06:17Z</time>
      </trkpt>
      <trkpt lat="49.51431" lon="-1.28958">
        <ele>2.7</ele>
        <time>2020-06-15T14:06:18Z</time>
      </trkpt>
      <trkpt lat="49.5143" lon="-1.28959">
        <ele>2.7</ele>
        <time>2020-06-15T14:06:19Z</time>
      </trkpt>
      <trkpt lat="49.5143" lon="-1.2896">
        <ele>2.7</ele>
        <time>2020-06-15T14:06:20Z</time>
      </trkpt>
      <trkpt lat="49.51431" lon="-1.28961">
        <ele>2.7</ele>
        <time>2020-06-15T14:06:21Z</time>
      </trkpt>
      <trkpt lat="49.51431" lon="-1.28961">
        <ele>2.7</ele>
        <time>2020-06-15T14:06:22Z</time>
      </trkpt>
      <trkpt lat="49.51431" lon="-1.28962">
        <ele>2.7</ele>
        <time>2020-06-15T14:06:23Z</time>
      </trkpt>
      <trkpt lat="49.51431" lon="-1.28961">
        <ele>2.7</ele>
        <time>2020-06-15T14:06:24Z</time>
      </trkpt>
      <trkpt lat="49.51431" lon="-1.28961">
        <ele>2.7</ele>
        <time>2020-06-15T14:06:25Z</time>
      </trkpt>
      <trkpt lat="49.51431" lon="-1.2896">
        <ele>2.7</ele>
        <time>2020-06-15T14:06:26Z</time>
      </trkpt>
      <trkpt lat="49.51431" lon="-1.28959">
        <ele>2.7</ele>
        <time>2020-06-15T14:06:27Z</time>
      </trkpt>
      <trkpt lat="49.51435" lon="-1.28959">
        <ele>2.7</ele>
        <time>2020-06-15T14:06:40Z</time>
      </trkpt>
      <trkpt lat="49.51435" lon="-1.2896">
        <ele>2.7</ele>
        <time>2020-06-15T14:06:41Z</time>
      </trkpt>
      <trkpt lat="49.51436" lon="-1.2896">
        <ele>2.7</ele>
        <time>2020-06-15T14:06:42Z</time>
      </trkpt>
      <trkpt lat="49.51436" lon="-1.2896">
        <ele>2.7</ele>
        <time>2020-06-15T14:06:43Z</time>
      </trkpt>
      <trkpt lat="49.51436" lon="-1.28961">
        <ele>2.7</ele>
        <time>2020-06-15T14:06:44Z</time>
      </trkpt>
      <trkpt lat="49.51435" lon="-1.28963">
        <ele>2.7</ele>
        <time>2020-06-15T14:06:45Z</time>
      </trkpt>
      <trkpt lat="49.51432" lon="-1.28965">
        <ele>2.7</ele>
        <time>2020-06-15T14:06:46Z</time>
      </trkpt>
      <trkpt lat="49.51429" lon="-1.28966">
        <ele>2.7</ele>
        <time>2020-06-15T14:06:47Z</time>
      </trkpt>
      <trkpt lat="49.51426" lon="-1.28968">
        <ele>2.7</ele>
        <time>2020-06-15T14:06:48Z</time>
      </trkpt>
      <trkpt lat="49.51422" lon="-1.28969">
        <ele>2.7</ele>
        <time>2020-06-15T14:06:49Z</time>
      </trkpt>
      <trkpt lat="49.51419" lon="-1.2897">
        <ele>2.7</ele>
        <time>2020-06-15T14:06:50Z</time>
      </trkpt>
      <trkpt lat="49.51416" lon="-1.28971">
        <ele>2.7</ele>
        <time>2020-06-15T14:06:51Z</time>
      </trkpt>
      <trkpt lat="49.51413" lon="-1.28972">
        <ele>2.7</ele>
        <time>2020-06-15T14:06:52Z</time>
      </trkpt>
      <trkpt lat="49.51409" lon="-1.28973">
        <ele>2.7</ele>
        <time>2020-06-15T14:06:53Z</time>
      </trkpt>
      <trkpt lat="49.51406" lon="-1.28975">
        <ele>2.7</ele>
        <time>2020-06-15T14:06:54Z</time>
      </trkpt>
      <trkpt lat="49.51403" lon="-1.28976">
        <ele>2.7</ele>
        <time>2020-06-15T14:06:55Z</time>
      </trkpt>
      <trkpt lat="49.514" lon="-1.28977">
        <ele>2.7</ele>
        <time>2020-06-15T14:06:56Z</time>
      </trkpt>
      <trkpt lat="49.51396" lon="-1.28978">
        <ele>2.7</ele>
        <time>2020-06-15T14:28:42Z</time>
      </trkpt>
      <trkpt lat="49.51393" lon="-1.28979">
        <ele>2.7</ele>
        <time>2020-06-15T14:28:43Z</time>
      </trkpt>
      <trkpt lat="49.5139" lon="-1.28981">
        <ele>2.7</ele>
        <time>2020-06-15T14:28:44Z</time>
      </trkpt>
      <trkpt lat="49.51386" lon="-1.28982">
        <ele>2.8</ele>
        <time>2020-06-15T14:28:45Z</time>
      </trkpt>
      <trkpt lat="49.51384" lon="-1.28984">
        <ele>2.8</ele>
        <time>2020-06-15T14:28:46Z</time>
      </trkpt>
      <trkpt lat="49.51383" lon="-1.28985">
        <ele>2.8</ele>
        <time>2020-06-15T14:28:47Z</time>
      </trkpt>
      <trkpt lat="49.51382" lon="-1.28986">
        <ele>2.9</ele>
        <time>2020-06-15T14:28:48Z</time>
      </trkpt>
      <trkpt lat="49.51382" lon="-1.28987">
        <ele>2.9</ele>
        <time>2020-06-15T14:28:49Z</time>
      </trkpt>
      <trkpt lat="49.51381" lon="-1.28987">
        <ele>2.9</ele>
        <time>2020-06-15T14:28:50Z</time>
      </trkpt>
      <trkpt lat="49.5138" lon="-1.28988">
        <ele>2.9</ele>
        <time>2020-06-15T14:28:51Z</time>
      </trkpt>
      <trkpt lat="49.51379" lon="-1.28988">
        <ele>2.9</ele>
        <time>2020-06-15T14:28:52Z</time>
      </trkpt>
      <trkpt lat="49.51379" lon="-1.28987">
        <ele>2.9</ele>
        <time>2020-06-15T14:28:53Z</time>
      </trkpt>
      <trkpt lat="49.51378" lon="-1.28987">
        <ele>2.9</ele>
        <time>2020-06-15T14:28:54Z</time>
      </trkpt>
      <trkpt lat="49.51377" lon="-1.28987">
        <ele>3</ele>
        <time>2020-06-15T14:28:55Z</time>
      </trkpt>
      <trkpt lat="49.51375" lon="-1.28988">
        <ele>3</ele>
        <time>2020-06-15T14:28:56Z</time>
      </trkpt>
      <trkpt lat="49.51374" lon="-1.28988">
        <ele>3</ele>
        <time>2020-06-15T14:28:57Z</time>
      </trkpt>
      <trkpt lat="49.51373" lon="-1.28988">
        <ele>3</ele>
        <time>2020-06-15T14:28:58Z</time>
      </trkpt>
      <trkpt lat="49.51372" lon="-1.28988">
        <ele>3</ele>
        <time>2020-06-15T14:28:59Z</time>
      </trkpt>
      <trkpt lat="49.51373" lon="-1.28988">
        <ele>3.1</ele>
        <time>2020-06-15T14:29:04Z</time>
      </trkpt>
      <trkpt lat="49.51373" lon="-1.28988">
        <ele>3.1</ele>
        <time>2020-06-15T14:29:05Z</time>
      </trkpt>
      <trkpt lat="49.51372" lon="-1.28988">
        <ele>3.1</ele>
        <time>2020-06-15T14:29:06Z</time>
      </trkpt>
      <trkpt lat="49.51372" lon="-1.28988">
        <ele>3.1</ele>
        <time>2020-06-15T14:29:07Z</time>
      </trkpt>
      <trkpt lat="49.51371" lon="-1.28989">
        <ele>3.1</ele>
        <time>2020-06-15T14:29:08Z</time>
      </trkpt>
      <trkpt lat="49.5137" lon="-1.28989">
        <ele>3.1</ele>
        <time>2020-06-15T14:29:09Z</time>
      </trkpt>
      <trkpt lat="49.51369" lon="-1.28989">
        <ele>3.2</ele>
        <time>2020-06-15T14:29:10Z</time>
      </trkpt>
      <trkpt lat="49.51369" lon="-1.28989">
        <ele>3.2</ele>
        <time>2020-06-15T14:29:11Z</time>
      </trkpt>
      <trkpt lat="49.51368" lon="-1.28989">
        <ele>3.2</ele>
        <time>2020-06-15T14:29:12Z</time>
      </trkpt>
      <trkpt lat="49.51367" lon="-1.28989">
        <ele>3.2</ele>
        <time>2020-06-15T14:29:13Z</time>
      </trkpt>
      <trkpt lat="49.51366" lon="-1.28989">
        <ele>3.2</ele>
        <time>2020-06-15T14:29:14Z</time>
      </trkpt>
      <trkpt lat="49.51365" lon="-1.28989">
        <ele>3.3</ele>
        <time>2020-06-15T14:29:15Z</time>
      </trkpt>
      <trkpt lat="49.51364" lon="-1.28989">
        <ele>3.3</ele>
        <time>2020-06-15T14:29:16Z</time>
      </trkpt>
      <trkpt lat="49.51363" lon="-1.2899">
        <ele>3.3</ele>
        <time>2020-06-15T14:29:17Z</time>
      </trkpt>
      <trkpt lat="49.5136" lon="-1.2899">
        <ele>3.4</ele>
        <time>2020-06-15T14:29:18Z</time>
      </trkpt>
      <trkpt lat="49.51359" lon="-1.2899">
        <ele>3.4</ele>
        <time>2020-06-15T14:29:19Z</time>
      </trkpt>
      <trkpt lat="49.51357" lon="-1.2899">
        <ele>3.5</ele>
        <time>2020-06-15T14:29:20Z</time>
      </trkpt>
      <trkpt lat="49.51356" lon="-1.2899">
        <ele>3.5</ele>
        <time>2020-06-15T14:29:21Z</time>
      </trkpt>
      <trkpt lat="49.51354" lon="-1.2899">
        <ele>3.5</ele>
        <time>2020-06-15T14:29:22Z</time>
      </trkpt>
      <trkpt lat="49.51352" lon="-1.28991">
        <ele>3.7</ele>
        <time>2020-06-15T14:29:23Z</time>
      </trkpt>
      <trkpt lat="49.5135" lon="-1.28993">
        <ele>3.7</ele>
        <time>2020-06-15T14:29:24Z</time>
      </trkpt>
      <trkpt lat="49.51349" lon="-1.28994">
        <ele>3.7</ele>
        <time>2020-06-15T14:29:25Z</time>
      </trkpt>
      <trkpt lat="49.51348" lon="-1.28994">
        <ele>3.7</ele>
        <time>2020-06-15T14:29:26Z</time>
      </trkpt>
      <trkpt lat="49.51346" lon="-1.28995">
        <ele>3.7</ele>
        <time>2020-06-15T14:29:27Z</time>
      </trkpt>
      <trkpt lat="49.51345" lon="-1.28995">
        <ele>3.7</ele>
        <time>2020-06-15T14:29:28Z</time>
      </trkpt>
      <trkpt lat="49.51344" lon="-1.28996">
        <ele>3.7</ele>
        <time>2020-06-15T14:29:29Z</time>
      </trkpt>
      <trkpt lat="49.51343" lon="-1.28996">
        <ele>3.7</ele>
        <time>2020-06-15T14:29:30Z</time>
      </trkpt>
      <trkpt lat="49.51342" lon="-1.28996">
        <ele>3.7</ele>
        <time>2020-06-15T14:29:31Z</time>
      </trkpt>
      <trkpt lat="49.51341" lon="-1.28997">
        <ele>3.7</ele>
        <time>2020-06-15T14:29:32Z</time>
      </trkpt>
      <trkpt lat="49.51339" lon="-1.28997">
        <ele>3.8</ele>
        <time>2020-06-15T14:29:33Z</time>
      </trkpt>
      <trkpt lat="49.51375" lon="-1.28978">
        <ele>3</ele>
        <time>2020-06-15T14:29:57Z</time>
      </trkpt>
      <trkpt lat="49.51377" lon="-1.28973">
        <ele>3</ele>
        <time>2020-06-15T14:29:58Z</time>
      </trkpt>
      <trkpt lat="49.51376" lon="-1.2897">
        <ele>2.9</ele>
        <time>2020-06-15T14:29:59Z</time>
      </trkpt>
      <trkpt lat="49.51376" lon="-1.28968">
        <ele>2.9</ele>
        <time>2020-06-15T14:30:00Z</time>
      </trkpt>
      <trkpt lat="49.51377" lon="-1.28968">
        <ele>2.9</ele>
        <time>2020-06-15T14:30:01Z</time>
      </trkpt>
      <trkpt lat="49.51377" lon="-1.28966">
        <ele>2.9</ele>
        <time>2020-06-15T14:30:02Z</time>
      </trkpt>
      <trkpt lat="49.51377" lon="-1.28967">
        <ele>2.9</ele>
        <time>2020-06-15T14:30:03Z</time>
      </trkpt>
      <trkpt lat="49.51378" lon="-1.28968">
        <ele>2.9</ele>
        <time>2020-06-15T14:30:04Z</time>
      </trkpt>
      <trkpt lat="49.51378" lon="-1.28969">
        <ele>2.9</ele>
        <time>2020-06-15T14:30:05Z</time>
      </trkpt>
      <trkpt lat="49.5138" lon="-1.28967">
        <ele>2.9</ele>
        <time>2020-06-15T14:30:06Z</time>
      </trkpt>
      <trkpt lat="49.51382" lon="-1.28969">
        <ele>2.9</ele>
        <time>2020-06-15T14:30:07Z</time>
      </trkpt>
      <trkpt lat="49.51383" lon="-1.28971">
        <ele>2.8</ele>
        <time>2020-06-15T14:30:08Z</time>
      </trkpt>
      <trkpt lat="49.51383" lon="-1.28972">
        <ele>2.8</ele>
        <time>2020-06-15T14:30:09Z</time>
      </trkpt>
      <trkpt lat="49.51384" lon="-1.28974">
        <ele>2.8</ele>
        <time>2020-06-15T14:30:10Z</time>
      </trkpt>
      <trkpt lat="49.51385" lon="-1.28976">
        <ele>2.8</ele>
        <time>2020-06-15T14:30:11Z</time>
      </trkpt>
      <trkpt lat="49.51386" lon="-1.28978">
        <ele>2.8</ele>
        <time>2020-06-15T14:30:12Z</time>
      </trkpt>
      <trkpt lat="49.51387" lon="-1.28979">
        <ele>2.8</ele>
        <time>2020-06-15T14:30:13Z</time>
      </trkpt>
      <trkpt lat="49.51388" lon="-1.28981">
        <ele>2.8</ele>
        <time>2020-06-15T14:30:14Z</time>
      </trkpt>
      <trkpt lat="49.51389" lon="-1.28983">
        <ele>2.7</ele>
        <time>2020-06-15T14:30:15Z</time>
      </trkpt>
      <trkpt lat="49.5139" lon="-1.28985">
        <ele>2.7</ele>
        <time>2020-06-15T14:30:16Z</time>
      </trkpt>
      <trkpt lat="49.51391" lon="-1.28987">
        <ele>2.7</ele>
        <time>2020-06-15T14:30:17Z</time>
      </trkpt>
      <trkpt lat="49.51392" lon="-1.28988">
        <ele>2.7</ele>
        <time>2020-06-15T14:30:18Z</time>
      </trkpt>
      <trkpt lat="49.51393" lon="-1.2899">
        <ele>2.7</ele>
        <time>2020-06-15T14:30:19Z</time>
      </trkpt>
      <trkpt lat="49.51393" lon="-1.28992">
        <ele>2.7</ele>
        <time>2020-06-15T14:30:20Z</time>
      </trkpt>
      <trkpt lat="49.51394" lon="-1.28994">
        <ele>2.7</ele>
        <time>2020-06-15T14:30:21Z</time>
      </trkpt>
      <trkpt lat="49.51395" lon="-1.28995">
        <ele>2.7</ele>
        <time>2020-06-15T14:31:13Z</time>
      </trkpt>
      <trkpt lat="49.51396" lon="-1.28997">
        <ele>2.7</ele>
        <time>2020-06-15T14:31:14Z</time>
      </trkpt>
      <trkpt lat="49.51397" lon="-1.28999">
        <ele>2.7</ele>
        <time>2020-06-15T14:31:15Z</time>
      </trkpt>
      <trkpt lat="49.51397" lon="-1.29">
        <ele>2.7</ele>
        <time>2020-06-15T14:31:16Z</time>
      </trkpt>
      <trkpt lat="49.51398" lon="-1.29002">
        <ele>2.7</ele>
        <time>2020-06-15T14:31:17Z</time>
      </trkpt>
      <trkpt lat="49.51398" lon="-1.29004">
        <ele>2.7</ele>
        <time>2020-06-15T14:31:18Z</time>
      </trkpt>
      <trkpt lat="49.51398" lon="-1.29007">
        <ele>2.7</ele>
        <time>2020-06-15T14:31:19Z</time>
      </trkpt>
      <trkpt lat="49.51399" lon="-1.29009">
        <ele>2.7</ele>
        <time>2020-06-15T14:31:20Z</time>
      </trkpt>
      <trkpt lat="49.514" lon="-1.29008">
        <ele>2.7</ele>
        <time>2020-06-15T14:31:21Z</time>
      </trkpt>
      <trkpt lat="49.514" lon="-1.29008">
        <ele>2.7</ele>
        <time>2020-06-15T14:31:22Z</time>
      </trkpt>
      <trkpt lat="49.514" lon="-1.29008">
        <ele>2.7</ele>
        <time>2020-06-15T14:31:23Z</time>
      </trkpt>
      <trkpt lat="49.51401" lon="-1.29008">
        <ele>2.7</ele>
        <time>2020-06-15T14:31:24Z</time>
      </trkpt>
      <trkpt lat="49.51401" lon="-1.29008">
        <ele>2.7</ele>
        <time>2020-06-15T14:31:25Z</time>
      </trkpt>
      <trkpt lat="49.51402" lon="-1.29009">
        <ele>2.7</ele>
        <time>2020-06-15T14:31:26Z</time>
      </trkpt>
      <trkpt lat="49.51403" lon="-1.2901">
        <ele>2.7</ele>
        <time>2020-06-15T14:31:27Z</time>
      </trkpt>
      <trkpt lat="49.51403" lon="-1.29011">
        <ele>2.7</ele>
        <time>2020-06-15T14:31:28Z</time>
      </trkpt>
      <trkpt lat="49.51404" lon="-1.29012">
        <ele>2.7</ele>
        <time>2020-06-15T14:31:29Z</time>
      </trkpt>
      <trkpt lat="49.51404" lon="-1.29014">
        <ele>2.7</ele>
        <time>2020-06-15T14:31:30Z</time>
      </trkpt>
      <trkpt lat="49.51404" lon="-1.29014">
        <ele>2.7</ele>
        <time>2020-06-15T14:31:31Z</time>
      </trkpt>
      <trkpt lat="49.51405" lon="-1.29014">
        <ele>2.7</ele>
        <time>2020-06-15T14:31:32Z</time>
      </trkpt>
      <trkpt lat="49.51405" lon="-1.29015">
        <ele>2.7</ele>
        <time>2020-06-15T14:31:33Z</time>
      </trkpt>
      <trkpt lat="49.51405" lon="-1.29015">
        <ele>2.7</ele>
        <time>2020-06-15T14:31:34Z</time>
      </trkpt>
      <trkpt lat="49.51405" lon="-1.29016">
        <ele>2.7</ele>
        <time>2020-06-15T14:31:35Z</time>
      </trkpt>
      <trkpt lat="49.51405" lon="-1.29016">
        <ele>2.7</ele>
        <time>2020-06-15T14:31:36Z</time>
      </trkpt>
      <trkpt lat="49.51405" lon="-1.29016">
        <ele>2.7</ele>
        <time>2020-06-15T14:31:37Z</time>
      </trkpt>
      <trkpt lat="49.51405" lon="-1.29017">
        <ele>2.7</ele>
        <time>2020-06-15T14:31:38Z</time>
      </trkpt>
      <trkpt lat="49.51406" lon="-1.29017">
        <ele>2.7</ele>
        <time>2020-06-15T14:31:39Z</time>
      </trkpt>
      <trkpt lat="49.51406" lon="-1.29018">
        <ele>2.7</ele>
        <time>2020-06-15T14:31:40Z</time>
      </trkpt>
      <trkpt lat="49.51406" lon="-1.29018">
        <ele>2.7</ele>
        <time>2020-06-15T14:31:41Z</time>
      </trkpt>
      <trkpt lat="49.51406" lon="-1.29018">
        <ele>2.7</ele>
        <time>2020-06-15T14:31:42Z</time>
      </trkpt>
      <trkpt lat="49.51406" lon="-1.29018">
        <ele>2.7</ele>
        <time>2020-06-15T14:31:43Z</time>
      </trkpt>
      <trkpt lat="49.51406" lon="-1.29038">
        <ele>2.7</ele>
        <time>2020-06-15T14:34:09Z</time>
      </trkpt>
      <trkpt lat="49.51406" lon="-1.2904">
        <ele>2.7</ele>
        <time>2020-06-15T14:34:10Z</time>
      </trkpt>
      <trkpt lat="49.51406" lon="-1.29042">
        <ele>2.7</ele>
        <time>2020-06-15T14:34:11Z</time>
      </trkpt>
      <trkpt lat="49.51406" lon="-1.29039">
        <ele>2.7</ele>
        <time>2020-06-15T14:34:12Z</time>
      </trkpt>
      <trkpt lat="49.51406" lon="-1.29038">
        <ele>2.7</ele>
        <time>2020-06-15T14:34:13Z</time>
      </trkpt>
      <trkpt lat="49.51406" lon="-1.29037">
        <ele>2.7</ele>
        <time>2020-06-15T14:34:14Z</time>
      </trkpt>
      <trkpt lat="49.51406" lon="-1.29036">
        <ele>2.7</ele>
        <time>2020-06-15T14:34:15Z</time>
      </trkpt>
      <trkpt lat="49.51406" lon="-1.29033">
        <ele>2.7</ele>
        <time>2020-06-15T14:34:16Z</time>
      </trkpt>
      <trkpt lat="49.51405" lon="-1.29031">
        <ele>2.7</ele>
        <time>2020-06-15T14:34:17Z</time>
      </trkpt>
      <trkpt lat="49.51405" lon="-1.2903">
        <ele>2.7</ele>
        <time>2020-06-15T14:34:18Z</time>
      </trkpt>
      <trkpt lat="49.51405" lon="-1.29029">
        <ele>2.7</ele>
        <time>2020-06-15T14:34:19Z</time>
      </trkpt>
      <trkpt lat="49.51404" lon="-1.29028">
        <ele>2.7</ele>
        <time>2020-06-15T14:34:20Z</time>
      </trkpt>
      <trkpt lat="49.51404" lon="-1.29026">
        <ele>2.7</ele>
        <time>2020-06-15T14:34:21Z</time>
      </trkpt>
      <trkpt lat="49.51404" lon="-1.29025">
        <ele>2.7</ele>
        <time>2020-06-15T14:34:22Z</time>
      </trkpt>
      <trkpt lat="49.51404" lon="-1.29025">
        <ele>2.7</ele>
        <time>2020-06-15T14:34:23Z</time>
      </trkpt>
      <trkpt lat="49.51405" lon="-1.29025">
        <ele>2.7</ele>
        <time>2020-06-15T14:34:24Z</time>
      </trkpt>
      <trkpt lat="49.51405" lon="-1.29025">
        <ele>2.7</ele>
        <time>2020-06-15T14:34:25Z</time>
      </trkpt>
      <trkpt lat="49.51405" lon="-1.29025">
        <ele>2.7</ele>
        <time>2020-06-15T14:34:26Z</time>
      </trkpt>
      <trkpt lat="49.51405" lon="-1.29025">
        <ele>2.7</ele>
        <time>2020-06-15T14:34:46Z</time>
      </trkpt>
      <trkpt lat="49.51406" lon="-1.29025">
        <ele>2.7</ele>
        <time>2020-06-15T14:34:47Z</time>
      </trkpt>
      <trkpt lat="49.51406" lon="-1.29026">
        <ele>2.7</ele>
        <time>2020-06-15T14:34:48Z</time>
      </trkpt>
      <trkpt lat="49.51406" lon="-1.29026">
        <ele>2.7</ele>
        <time>2020-06-15T14:34:49Z</time>
      </trkpt>
      <trkpt lat="49.51406" lon="-1.29026">
        <ele>2.7</ele>
        <time>2020-06-15T14:34:50Z</time>
      </trkpt>
      <trkpt lat="49.51407" lon="-1.29026">
        <ele>2.7</ele>
        <time>2020-06-15T14:34:51Z</time>
      </trkpt>
      <trkpt lat="49.51407" lon="-1.29026">
        <ele>2.7</ele>
        <time>2020-06-15T14:34:52Z</time>
      </trkpt>
      <trkpt lat="49.51407" lon="-1.29026">
        <ele>2.7</ele>
        <time>2020-06-15T14:34:53Z</time>
      </trkpt>
      <trkpt lat="49.51407" lon="-1.29026">
        <ele>2.7</ele>
        <time>2020-06-15T14:34:54Z</time>
      </trkpt>
      <trkpt lat="49.51407" lon="-1.29024">
        <ele>2.7</ele>
        <time>2020-06-15T14:34:55Z</time>
      </trkpt>
      <trkpt lat="49.51407" lon="-1.29022">
        <ele>2.7</ele>
        <time>2020-06-15T14:34:56Z</time>
      </trkpt>
      <trkpt lat="49.51408" lon="-1.29022">
        <ele>2.7</ele>
        <time>2020-06-15T14:34:57Z</time>
      </trkpt>
      <trkpt lat="49.51408" lon="-1.29021">
        <ele>2.7</ele>
        <time>2020-06-15T14:34:58Z</time>
      </trkpt>
      <trkpt lat="49.5141" lon="-1.29018">
        <ele>2.7</ele>
        <time>2020-06-15T14:34:59Z</time>
      </trkpt>
      <trkpt lat="49.51413" lon="-1.29017">
        <ele>2.7</ele>
        <time>2020-06-15T14:35:00Z</time>
      </trkpt>
      <trkpt lat="49.51413" lon="-1.29016">
        <ele>2.7</ele>
        <time>2020-06-15T14:35:01Z</time>
      </trkpt>
      <trkpt lat="49.51415" lon="-1.29014">
        <ele>2.7</ele>
        <time>2020-06-15T14:35:02Z</time>
      </trkpt>
      <trkpt lat="49.51415" lon="-1.29013">
        <ele>2.7</ele>
        <time>2020-06-15T14:35:03Z</time>
      </trkpt>
      <trkpt lat="49.51416" lon="-1.29012">
        <ele>2.7</ele>
        <time>2020-06-15T14:35:04Z</time>
      </trkpt>
      <trkpt lat="49.51415" lon="-1.29011">
        <ele>2.7</ele>
        <time>2020-06-15T14:35:05Z</time>
      </trkpt>
      <trkpt lat="49.51415" lon="-1.2901">
        <ele>2.7</ele>
        <time>2020-06-15T14:35:06Z</time>
      </trkpt>
      <trkpt lat="49.51416" lon="-1.29009">
        <ele>2.7</ele>
        <time>2020-06-15T14:35:07Z</time>
      </trkpt>
      <trkpt lat="49.51416" lon="-1.29008">
        <ele>2.7</ele>
        <time>2020-06-15T14:35:08Z</time>
      </trkpt>
      <trkpt lat="49.51416" lon="-1.29006">
        <ele>2.7</ele>
        <time>2020-06-15T14:35:09Z</time>
      </trkpt>
      <trkpt lat="49.51414" lon="-1.29006">
        <ele>2.7</ele>
        <time>2020-06-15T14:35:10Z</time>
      </trkpt>
      <trkpt lat="49.51413" lon="-1.29005">
        <ele>2.7</ele>
        <time>2020-06-15T14:35:11Z</time>
      </trkpt>
      <trkpt lat="49.51412" lon="-1.29005">
        <ele>2.7</ele>
        <time>2020-06-15T14:35:12Z</time>
      </trkpt>
      <trkpt lat="49.51414" lon="-1.29003">
        <ele>2.7</ele>
        <time>2020-06-15T14:35:13Z</time>
      </trkpt>
      <trkpt lat="49.51414" lon="-1.29001">
        <ele>2.7</ele>
        <time>2020-06-15T14:35:14Z</time>
      </trkpt>
      <trkpt lat="49.51415" lon="-1.29">
        <ele>2.7</ele>
        <time>2020-06-15T14:35:15Z</time>
      </trkpt>
      <trkpt lat="49.51416" lon="-1.28997">
        <ele>2.7</ele>
        <time>2020-06-15T14:35:16Z</time>
      </trkpt>
      <trkpt lat="49.51418" lon="-1.28993">
        <ele>2.7</ele>
        <time>2020-06-15T14:35:17Z</time>
      </trkpt>
      <trkpt lat="49.51419" lon="-1.2899">
        <ele>2.7</ele>
        <time>2020-06-15T14:35:18Z</time>
      </trkpt>
      <trkpt lat="49.5142" lon="-1.28986">
        <ele>2.8</ele>
        <time>2020-06-15T14:35:19Z</time>
      </trkpt>
      <trkpt lat="49.51422" lon="-1.28982">
        <ele>2.8</ele>
        <time>2020-06-15T14:35:20Z</time>
      </trkpt>
      <trkpt lat="49.51423" lon="-1.28979">
        <ele>2.8</ele>
        <time>2020-06-15T14:35:21Z</time>
      </trkpt>
      <trkpt lat="49.51424" lon="-1.28975">
        <ele>2.8</ele>
        <time>2020-06-15T14:35:22Z</time>
      </trkpt>
      <trkpt lat="49.51426" lon="-1.28972">
        <ele>2.8</ele>
        <time>2020-06-15T14:35:23Z</time>
      </trkpt>
      <trkpt lat="49.51427" lon="-1.28968">
        <ele>2.8</ele>
        <time>2020-06-15T14:35:24Z</time>
      </trkpt>
      <trkpt lat="49.51428" lon="-1.28965">
        <ele>2.8</ele>
        <time>2020-06-15T14:39:17Z</time>
      </trkpt>
      <trkpt lat="49.5143" lon="-1.28961">
        <ele>2.8</ele>
        <time>2020-06-15T14:39:18Z</time>
      </trkpt>
      <trkpt lat="49.51433" lon="-1.28959">
        <ele>2.9</ele>
        <time>2020-06-15T14:39:19Z</time>
      </trkpt>
      <trkpt lat="49.51434" lon="-1.28959">
        <ele>2.9</ele>
        <time>2020-06-15T14:39:20Z</time>
      </trkpt>
      <trkpt lat="49.51436" lon="-1.28956">
        <ele>2.9</ele>
        <time>2020-06-15T14:39:21Z</time>
      </trkpt>
      <trkpt lat="49.51438" lon="-1.28953">
        <ele>2.9</ele>
        <time>2020-06-15T14:39:22Z</time>
      </trkpt>
      <trkpt lat="49.5144" lon="-1.28949">
        <ele>2.9</ele>
        <time>2020-06-15T14:39:23Z</time>
      </trkpt>
      <trkpt lat="49.51441" lon="-1.28948">
        <ele>2.9</ele>
        <time>2020-06-15T14:39:24Z</time>
      </trkpt>
      <trkpt lat="49.51443" lon="-1.28945">
        <ele>2.9</ele>
        <time>2020-06-15T14:39:25Z</time>
      </trkpt>
      <trkpt lat="49.51445" lon="-1.28941">
        <ele>3</ele>
        <time>2020-06-15T14:39:26Z</time>
      </trkpt>
      <trkpt lat="49.51449" lon="-1.28938">
        <ele>3.2</ele>
        <time>2020-06-15T14:39:27Z</time>
      </trkpt>
      <trkpt lat="49.5145" lon="-1.28933">
        <ele>3.1</ele>
        <time>2020-06-15T14:39:28Z</time>
      </trkpt>
      <trkpt lat="49.51451" lon="-1.28928">
        <ele>3.1</ele>
        <time>2020-06-15T14:39:29Z</time>
      </trkpt>
      <trkpt lat="49.51453" lon="-1.28923">
        <ele>3.1</ele>
        <time>2020-06-15T14:39:30Z</time>
      </trkpt>
      <trkpt lat="49.51454" lon="-1.28918">
        <ele>3.1</ele>
        <time>2020-06-15T14:39:31Z</time>
      </trkpt>
      <trkpt lat="49.51455" lon="-1.28913">
        <ele>3</ele>
        <time>2020-06-15T14:39:32Z</time>
      </trkpt>
      <trkpt lat="49.51456" lon="-1.28909">
        <ele>3</ele>
        <time>2020-06-15T14:39:33Z</time>
      </trkpt>
      <trkpt lat="49.51456" lon="-1.28902">
        <ele>3</ele>
        <time>2020-06-15T14:39:34Z</time>
      </trkpt>
      <trkpt lat="49.51457" lon="-1.28896">
        <ele>3</ele>
        <time>2020-06-15T14:39:35Z</time>
      </trkpt>
      <trkpt lat="49.51457" lon="-1.28893">
        <ele>3</ele>
        <time>2020-06-15T14:39:36Z</time>
      </trkpt>
      <trkpt lat="49.51458" lon="-1.28889">
        <ele>2.9</ele>
        <time>2020-06-15T14:39:37Z</time>
      </trkpt>
      <trkpt lat="49.5146" lon="-1.28883">
        <ele>2.9</ele>
        <time>2020-06-15T14:39:38Z</time>
      </trkpt>
      <trkpt lat="49.51461" lon="-1.28877">
        <ele>2.9</ele>
        <time>2020-06-15T14:39:39Z</time>
      </trkpt>
      <trkpt lat="49.51462" lon="-1.28872">
        <ele>2.9</ele>
        <time>2020-06-15T14:39:40Z</time>
      </trkpt>
      <trkpt lat="49.51464" lon="-1.28864">
        <ele>3</ele>
        <time>2020-06-15T14:39:41Z</time>
      </trkpt>
      <trkpt lat="49.51466" lon="-1.28859">
        <ele>3</ele>
        <time>2020-06-15T14:39:42Z</time>
      </trkpt>
      <trkpt lat="49.51468" lon="-1.28853">
        <ele>3.1</ele>
        <time>2020-06-15T14:39:43Z</time>
      </trkpt>
      <trkpt lat="49.5147" lon="-1.28848">
        <ele>3.1</ele>
        <time>2020-06-15T14:39:44Z</time>
      </trkpt>
      <trkpt lat="49.51472" lon="-1.28842">
        <ele>3.2</ele>
        <time>2020-06-15T14:39:45Z</time>
      </trkpt>
      <trkpt lat="49.51474" lon="-1.28836">
        <ele>3.2</ele>
        <time>2020-06-15T14:39:46Z</time>
      </trkpt>
      <trkpt lat="49.51476" lon="-1.28831">
        <ele>3.3</ele>
        <time>2020-06-15T14:39:47Z</time>
      </trkpt>
      <trkpt lat="49.51477" lon="-1.28826">
        <ele>3.3</ele>
        <time>2020-06-15T14:39:48Z</time>
      </trkpt>
      <trkpt lat="49.51478" lon="-1.28819">
        <ele>3.4</ele>
        <time>2020-06-15T14:39:49Z</time>
      </trkpt>
      <trkpt lat="49.51479" lon="-1.28814">
        <ele>3.4</ele>
        <time>2020-06-15T14:39:50Z</time>
      </trkpt>
      <trkpt lat="49.5148" lon="-1.28809">
        <ele>3.4</ele>
        <time>2020-06-15T14:39:51Z</time>
      </trkpt>
      <trkpt lat="49.51481" lon="-1.28803">
        <ele>3.5</ele>
        <time>2020-06-15T14:39:52Z</time>
      </trkpt>
      <trkpt lat="49.51481" lon="-1.28801">
        <ele>3.5</ele>
        <time>2020-06-15T14:39:53Z</time>
      </trkpt>
      <trkpt lat="49.51485" lon="-1.28796">
        <ele>3.6</ele>
        <time>2020-06-15T14:39:54Z</time>
      </trkpt>
      <trkpt lat="49.51487" lon="-1.28795">
        <ele>3.6</ele>
        <time>2020-06-15T14:39:55Z</time>
      </trkpt>
      <trkpt lat="49.51488" lon="-1.2879">
        <ele>3.7</ele>
        <time>2020-06-15T14:39:56Z</time>
      </trkpt>
      <trkpt lat="49.51488" lon="-1.28789">
        <ele>3.7</ele>
        <time>2020-06-15T14:39:57Z</time>
      </trkpt>
      <trkpt lat="49.51488" lon="-1.28787">
        <ele>3.7</ele>
        <time>2020-06-15T14:39:58Z</time>
      </trkpt>
      <trkpt lat="49.51487" lon="-1.28787">
        <ele>3.7</ele>
        <time>2020-06-15T14:39:59Z</time>
      </trkpt>
      <trkpt lat="49.51486" lon="-1.28787">
        <ele>3.7</ele>
        <time>2020-06-15T14:40:00Z</time>
      </trkpt>
      <trkpt lat="49.51485" lon="-1.28787">
        <ele>3.7</ele>
        <time>2020-06-15T14:40:01Z</time>
      </trkpt>
      <trkpt lat="49.51484" lon="-1.28786">
        <ele>3.7</ele>
        <time>2020-06-15T14:40:02Z</time>
      </trkpt>
      <trkpt lat="49.51484" lon="-1.28785">
        <ele>3.7</ele>
        <time>2020-06-15T14:40:03Z</time>
      </trkpt>
      <trkpt lat="49.51486" lon="-1.28783">
        <ele>3.7</ele>
        <time>2020-06-15T14:40:04Z</time>
      </trkpt>
      <trkpt lat="49.51487" lon="-1.28783">
        <ele>3.7</ele>
        <time>2020-06-15T14:40:05Z</time>
      </trkpt>
      <trkpt lat="49.51489" lon="-1.28782">
        <ele>3.8</ele>
        <time>2020-06-15T14:40:06Z</time>
      </trkpt>
      <trkpt lat="49.5149" lon="-1.28778">
        <ele>3.8</ele>
        <time>2020-06-15T14:40:07Z</time>
      </trkpt>
      <trkpt lat="49.51493" lon="-1.28776">
        <ele>3.8</ele>
        <time>2020-06-15T14:40:08Z</time>
      </trkpt>
      <trkpt lat="49.51494" lon="-1.28776">
        <ele>3.8</ele>
        <time>2020-06-15T14:40:09Z</time>
      </trkpt>
      <trkpt lat="49.51497" lon="-1.28773">
        <ele>3.8</ele>
        <time>2020-06-15T14:40:10Z</time>
      </trkpt>
      <trkpt lat="49.51498" lon="-1.28767">
        <ele>3.8</ele>
        <time>2020-06-15T14:40:11Z</time>
      </trkpt>
      <trkpt lat="49.51499" lon="-1.28762">
        <ele>3.8</ele>
        <time>2020-06-15T14:40:12Z</time>
      </trkpt>
      <trkpt lat="49.515" lon="-1.28758">
        <ele>3.8</ele>
        <time>2020-06-15T14:40:13Z</time>
      </trkpt>
      <trkpt lat="49.51501" lon="-1.28753">
        <ele>3.8</ele>
        <time>2020-06-15T14:40:14Z</time>
      </trkpt>
      <trkpt lat="49.51502" lon="-1.28749">
        <ele>3.8</ele>
        <time>2020-06-15T14:40:15Z</time>
      </trkpt>
      <trkpt lat="49.51504" lon="-1.28744">
        <ele>3.8</ele>
        <time>2020-06-15T14:40:16Z</time>
      </trkpt>
      <trkpt lat="49.51506" lon="-1.28738">
        <ele>3.8</ele>
        <time>2020-06-15T14:40:17Z</time>
      </trkpt>
      <trkpt lat="49.51506" lon="-1.28736">
        <ele>3.8</ele>
        <time>2020-06-15T14:40:18Z</time>
      </trkpt>
      <trkpt lat="49.51507" lon="-1.28731">
        <ele>3.8</ele>
        <time>2020-06-15T14:40:19Z</time>
      </trkpt>
      <trkpt lat="49.51508" lon="-1.28726">
        <ele>3.8</ele>
        <time>2020-06-15T14:40:20Z</time>
      </trkpt>
      <trkpt lat="49.5151" lon="-1.28719">
        <ele>3.8</ele>
        <time>2020-06-15T14:40:21Z</time>
      </trkpt>
      <trkpt lat="49.51511" lon="-1.28714">
        <ele>3.8</ele>
        <time>2020-06-15T14:40:22Z</time>
      </trkpt>
      <trkpt lat="49.51512" lon="-1.28709">
        <ele>3.8</ele>
        <time>2020-06-15T14:40:23Z</time>
      </trkpt>
      <trkpt lat="49.51514" lon="-1.28704">
        <ele>3.8</ele>
        <time>2020-06-15T14:40:24Z</time>
      </trkpt>
      <trkpt lat="49.51515" lon="-1.28699">
        <ele>3.8</ele>
        <time>2020-06-15T14:40:25Z</time>
      </trkpt>
      <trkpt lat="49.51516" lon="-1.28694">
        <ele>3.8</ele>
        <time>2020-06-15T14:40:26Z</time>
      </trkpt>
      <trkpt lat="49.51517" lon="-1.28691">
        <ele>3.8</ele>
        <time>2020-06-15T14:40:27Z</time>
      </trkpt>
      <trkpt lat="49.51517" lon="-1.28686">
        <ele>3.8</ele>
        <time>2020-06-15T14:40:28Z</time>
      </trkpt>
      <trkpt lat="49.51519" lon="-1.2868">
        <ele>3.8</ele>
        <time>2020-06-15T14:40:29Z</time>
      </trkpt>
      <trkpt lat="49.51519" lon="-1.28678">
        <ele>3.8</ele>
        <time>2020-06-15T14:40:30Z</time>
      </trkpt>
      <trkpt lat="49.5152" lon="-1.28674">
        <ele>3.8</ele>
        <time>2020-06-15T14:40:31Z</time>
      </trkpt>
      <trkpt lat="49.5152" lon="-1.2867">
        <ele>3.8</ele>
        <time>2020-06-15T14:40:32Z</time>
      </trkpt>
      <trkpt lat="49.51521" lon="-1.28668">
        <ele>3.8</ele>
        <time>2020-06-15T14:40:33Z</time>
      </trkpt>
      <trkpt lat="49.51522" lon="-1.28664">
        <ele>3.8</ele>
        <time>2020-06-15T14:40:34Z</time>
      </trkpt>
      <trkpt lat="49.51523" lon="-1.2866">
        <ele>3.8</ele>
        <time>2020-06-15T14:40:35Z</time>
      </trkpt>
      <trkpt lat="49.51523" lon="-1.28655">
        <ele>3.8</ele>
        <time>2020-06-15T14:40:36Z</time>
      </trkpt>
      <trkpt lat="49.51524" lon="-1.28651">
        <ele>3.8</ele>
        <time>2020-06-15T14:40:37Z</time>
      </trkpt>
      <trkpt lat="49.51525" lon="-1.28648">
        <ele>3.9</ele>
        <time>2020-06-15T14:40:38Z</time>
      </trkpt>
      <trkpt lat="49.51526" lon="-1.28642">
        <ele>3.9</ele>
        <time>2020-06-15T14:40:39Z</time>
      </trkpt>
      <trkpt lat="49.51527" lon="-1.28641">
        <ele>3.9</ele>
        <time>2020-06-15T14:40:40Z</time>
      </trkpt>
      <trkpt lat="49.51529" lon="-1.28637">
        <ele>3.9</ele>
        <time>2020-06-15T14:40:41Z</time>
      </trkpt>
      <trkpt lat="49.5153" lon="-1.28631">
        <ele>3.9</ele>
        <time>2020-06-15T14:40:42Z</time>
      </trkpt>
      <trkpt lat="49.5153" lon="-1.28629">
        <ele>3.9</ele>
        <time>2020-06-15T14:40:43Z</time>
      </trkpt>
      <trkpt lat="49.5153" lon="-1.28624">
        <ele>3.9</ele>
        <time>2020-06-15T14:40:44Z</time>
      </trkpt>
      <trkpt lat="49.5153" lon="-1.28622">
        <ele>3.8</ele>
        <time>2020-06-15T14:40:45Z</time>
      </trkpt>
      <trkpt lat="49.51531" lon="-1.28617">
        <ele>3.4</ele>
        <time>2020-06-15T14:40:46Z</time>
      </trkpt>
      <trkpt lat="49.51531" lon="-1.28615">
        <ele>3.2</ele>
        <time>2020-06-15T14:40:47Z</time>
      </trkpt>
      <trkpt lat="49.51533" lon="-1.2861">
        <ele>2.8</ele>
        <time>2020-06-15T14:40:48Z</time>
      </trkpt>
      <trkpt lat="49.51533" lon="-1.28609">
        <ele>2.6</ele>
        <time>2020-06-15T14:40:49Z</time>
      </trkpt>
      <trkpt lat="49.51534" lon="-1.28605">
        <ele>2.3</ele>
        <time>2020-06-15T14:40:50Z</time>
      </trkpt>
      <trkpt lat="49.51534" lon="-1.28603">
        <ele>2.1</ele>
        <time>2020-06-15T14:40:51Z</time>
      </trkpt>
      <trkpt lat="49.51535" lon="-1.28601">
        <ele>1.9</ele>
        <time>2020-06-15T14:40:52Z</time>
      </trkpt>
      <trkpt lat="49.51536" lon="-1.28599">
        <ele>1.7</ele>
        <time>2020-06-15T14:40:53Z</time>
      </trkpt>
      <trkpt lat="49.51538" lon="-1.28597">
        <ele>1.5</ele>
        <time>2020-06-15T14:40:54Z</time>
      </trkpt>
      <trkpt lat="49.51538" lon="-1.28596">
        <ele>1.3</ele>
        <time>2020-06-15T14:40:55Z</time>
      </trkpt>
      <trkpt lat="49.51539" lon="-1.28594">
        <ele>1.4</ele>
        <time>2020-06-15T14:40:56Z</time>
      </trkpt>
      <trkpt lat="49.5154" lon="-1.28592">
        <ele>1.5</ele>
        <time>2020-06-15T14:40:57Z</time>
      </trkpt>
      <trkpt lat="49.5154" lon="-1.28591">
        <ele>1.6</ele>
        <time>2020-06-15T14:40:58Z</time>
      </trkpt>
      <trkpt lat="49.51541" lon="-1.2859">
        <ele>1.7</ele>
        <time>2020-06-15T14:40:59Z</time>
      </trkpt>
      <trkpt lat="49.51542" lon="-1.28589">
        <ele>1.8</ele>
        <time>2020-06-15T14:41:00Z</time>
      </trkpt>
      <trkpt lat="49.51541" lon="-1.28589">
        <ele>1.8</ele>
        <time>2020-06-15T14:41:01Z</time>
      </trkpt>
      <trkpt lat="49.51541" lon="-1.28589">
        <ele>1.8</ele>
        <time>2020-06-15T14:41:02Z</time>
      </trkpt>
      <trkpt lat="49.51542" lon="-1.28589">
        <ele>1.8</ele>
        <time>2020-06-15T14:41:03Z</time>
      </trkpt>
      <trkpt lat="49.51542" lon="-1.28589">
        <ele>1.8</ele>
        <time>2020-06-15T14:41:04Z</time>
      </trkpt>
      <trkpt lat="49.51542" lon="-1.28589">
        <ele>1.8</ele>
        <time>2020-06-15T14:41:05Z</time>
      </trkpt>
      <trkpt lat="49.51542" lon="-1.28588">
        <ele>1.8</ele>
        <time>2020-06-15T14:41:06Z</time>
      </trkpt>
      <trkpt lat="49.51541" lon="-1.28588">
        <ele>1.8</ele>
        <time>2020-06-15T14:41:07Z</time>
      </trkpt>
      <trkpt lat="49.51541" lon="-1.28588">
        <ele>1.8</ele>
        <time>2020-06-15T14:41:08Z</time>
      </trkpt>
      <trkpt lat="49.51541" lon="-1.28588">
        <ele>1.8</ele>
        <time>2020-06-15T14:41:09Z</time>
      </trkpt>
      <trkpt lat="49.51541" lon="-1.28588">
        <ele>1.8</ele>
        <time>2020-06-15T14:41:10Z</time>
      </trkpt>
      <trkpt lat="49.51537" lon="-1.28596">
        <ele>2.4</ele>
        <time>2020-06-15T14:43:57Z</time>
      </trkpt>
      <trkpt lat="49.51536" lon="-1.28599">
        <ele>2.6</ele>
        <time>2020-06-15T14:43:58Z</time>
      </trkpt>
      <trkpt lat="49.51535" lon="-1.28604">
        <ele>2.8</ele>
        <time>2020-06-15T14:43:59Z</time>
      </trkpt>
      <trkpt lat="49.51536" lon="-1.28605">
        <ele>2.9</ele>
        <time>2020-06-15T14:44:00Z</time>
      </trkpt>
      <trkpt lat="49.51535" lon="-1.28611">
        <ele>3.2</ele>
        <time>2020-06-15T14:44:01Z</time>
      </trkpt>
      <trkpt lat="49.51534" lon="-1.28613">
        <ele>3.3</ele>
        <time>2020-06-15T14:44:02Z</time>
      </trkpt>
      <trkpt lat="49.51533" lon="-1.28618">
        <ele>3.6</ele>
        <time>2020-06-15T14:44:03Z</time>
      </trkpt>
      <trkpt lat="49.51533" lon="-1.28623">
        <ele>3.9</ele>
        <time>2020-06-15T14:44:04Z</time>
      </trkpt>
      <trkpt lat="49.51531" lon="-1.28628">
        <ele>3.9</ele>
        <time>2020-06-15T14:44:05Z</time>
      </trkpt>
      <trkpt lat="49.51529" lon="-1.28632">
        <ele>3.9</ele>
        <time>2020-06-15T14:44:06Z</time>
      </trkpt>
      <trkpt lat="49.51527" lon="-1.28636">
        <ele>3.9</ele>
        <time>2020-06-15T14:44:07Z</time>
      </trkpt>
      <trkpt lat="49.51526" lon="-1.2864">
        <ele>3.9</ele>
        <time>2020-06-15T14:44:08Z</time>
      </trkpt>
      <trkpt lat="49.51524" lon="-1.28644">
        <ele>3.9</ele>
        <time>2020-06-15T14:44:09Z</time>
      </trkpt>
      <trkpt lat="49.51523" lon="-1.28648">
        <ele>3.9</ele>
        <time>2020-06-15T14:44:10Z</time>
      </trkpt>
      <trkpt lat="49.5152" lon="-1.28653">
        <ele>3.8</ele>
        <time>2020-06-15T14:44:11Z</time>
      </trkpt>
      <trkpt lat="49.51519" lon="-1.28655">
        <ele>3.8</ele>
        <time>2020-06-15T14:44:12Z</time>
      </trkpt>
      <trkpt lat="49.51517" lon="-1.2866">
        <ele>3.8</ele>
        <time>2020-06-15T14:44:13Z</time>
      </trkpt>
      <trkpt lat="49.51516" lon="-1.28665">
        <ele>3.8</ele>
        <time>2020-06-15T14:44:14Z</time>
      </trkpt>
      <trkpt lat="49.51516" lon="-1.28669">
        <ele>3.8</ele>
        <time>2020-06-15T14:44:15Z</time>
      </trkpt>
      <trkpt lat="49.51515" lon="-1.28674">
        <ele>3.8</ele>
        <time>2020-06-15T14:44:16Z</time>
      </trkpt>
      <trkpt lat="49.51514" lon="-1.28678">
        <ele>3.8</ele>
        <time>2020-06-15T14:44:17Z</time>
      </trkpt>
      <trkpt lat="49.51513" lon="-1.28683">
        <ele>3.8</ele>
        <time>2020-06-15T14:44:18Z</time>
      </trkpt>
      <trkpt lat="49.51512" lon="-1.28689">
        <ele>3.8</ele>
        <time>2020-06-15T14:44:19Z</time>
      </trkpt>
      <trkpt lat="49.51511" lon="-1.28694">
        <ele>3.8</ele>
        <time>2020-06-15T14:44:20Z</time>
      </trkpt>
      <trkpt lat="49.5151" lon="-1.287">
        <ele>3.8</ele>
        <time>2020-06-15T14:44:21Z</time>
      </trkpt>
      <trkpt lat="49.51509" lon="-1.28705">
        <ele>3.8</ele>
        <time>2020-06-15T14:44:22Z</time>
      </trkpt>
      <trkpt lat="49.51508" lon="-1.2871">
        <ele>3.8</ele>
        <time>2020-06-15T14:44:23Z</time>
      </trkpt>
      <trkpt lat="49.51508" lon="-1.28716">
        <ele>3.8</ele>
        <time>2020-06-15T14:44:24Z</time>
      </trkpt>
      <trkpt lat="49.51507" lon="-1.28722">
        <ele>3.8</ele>
        <time>2020-06-15T14:44:25Z</time>
      </trkpt>
      <trkpt lat="49.51507" lon="-1.28727">
        <ele>3.8</ele>
        <time>2020-06-15T14:44:26Z</time>
      </trkpt>
      <trkpt lat="49.51506" lon="-1.28733">
        <ele>3.8</ele>
        <time>2020-06-15T14:44:27Z</time>
      </trkpt>
      <trkpt lat="49.51505" lon="-1.28738">
        <ele>3.8</ele>
        <time>2020-06-15T14:44:28Z</time>
      </trkpt>
      <trkpt lat="49.51503" lon="-1.28744">
        <ele>3.8</ele>
        <time>2020-06-15T14:44:29Z</time>
      </trkpt>
      <trkpt lat="49.51501" lon="-1.28751">
        <ele>3.8</ele>
        <time>2020-06-15T14:44:30Z</time>
      </trkpt>
      <trkpt lat="49.515" lon="-1.28757">
        <ele>3.8</ele>
        <time>2020-06-15T14:44:31Z</time>
      </trkpt>
      <trkpt lat="49.51499" lon="-1.28762">
        <ele>3.8</ele>
        <time>2020-06-15T14:44:32Z</time>
      </trkpt>
      <trkpt lat="49.51498" lon="-1.28766">
        <ele>3.8</ele>
        <time>2020-06-15T14:44:33Z</time>
      </trkpt>
      <trkpt lat="49.51497" lon="-1.2877">
        <ele>3.8</ele>
        <time>2020-06-15T14:44:34Z</time>
      </trkpt>
      <trkpt lat="49.51495" lon="-1.28774">
        <ele>3.8</ele>
        <time>2020-06-15T14:44:35Z</time>
      </trkpt>
      <trkpt lat="49.51492" lon="-1.28777">
        <ele>3.8</ele>
        <time>2020-06-15T14:44:36Z</time>
      </trkpt>
      <trkpt lat="49.51489" lon="-1.28779">
        <ele>3.6</ele>
        <time>2020-06-15T14:44:37Z</time>
      </trkpt>
      <trkpt lat="49.51485" lon="-1.28781">
        <ele>3.5</ele>
        <time>2020-06-15T14:44:38Z</time>
      </trkpt>
      <trkpt lat="49.5148" lon="-1.28782">
        <ele>3.4</ele>
        <time>2020-06-15T14:44:39Z</time>
      </trkpt>
      <trkpt lat="49.51476" lon="-1.2878">
        <ele>3.3</ele>
        <time>2020-06-15T14:44:40Z</time>
      </trkpt>
      <trkpt lat="49.51472" lon="-1.28778">
        <ele>3.2</ele>
        <time>2020-06-15T14:44:41Z</time>
      </trkpt>
      <trkpt lat="49.51468" lon="-1.28775">
        <ele>3.1</ele>
        <time>2020-06-15T14:44:42Z</time>
      </trkpt>
      <trkpt lat="49.51466" lon="-1.28772">
        <ele>3.1</ele>
        <time>2020-06-15T14:44:43Z</time>
      </trkpt>
      <trkpt lat="49.51463" lon="-1.28768">
        <ele>3</ele>
        <time>2020-06-15T14:44:44Z</time>
      </trkpt>
      <trkpt lat="49.51461" lon="-1.28763">
        <ele>3</ele>
        <time>2020-06-15T14:44:45Z</time>
      </trkpt>
      <trkpt lat="49.5146" lon="-1.28758">
        <ele>3</ele>
        <time>2020-06-15T14:44:46Z</time>
      </trkpt>
      <trkpt lat="49.51457" lon="-1.28753">
        <ele>3</ele>
        <time>2020-06-15T14:44:47Z</time>
      </trkpt>
      <trkpt lat="49.51455" lon="-1.28747">
        <ele>2.9</ele>
        <time>2020-06-15T14:44:48Z</time>
      </trkpt>
      <trkpt lat="49.51453" lon="-1.28742">
        <ele>2.9</ele>
        <time>2020-06-15T14:44:49Z</time>
      </trkpt>
      <trkpt lat="49.51451" lon="-1.28736">
        <ele>2.9</ele>
        <time>2020-06-15T14:44:50Z</time>
      </trkpt>
      <trkpt lat="49.51446" lon="-1.28729">
        <ele>2.8</ele>
        <time>2020-06-15T14:44:51Z</time>
      </trkpt>
      <trkpt lat="49.51441" lon="-1.28722">
        <ele>2.8</ele>
        <time>2020-06-15T14:44:52Z</time>
      </trkpt>
      <trkpt lat="49.51437" lon="-1.28716">
        <ele>2.7</ele>
        <time>2020-06-15T14:44:53Z</time>
      </trkpt>
      <trkpt lat="49.51433" lon="-1.2871">
        <ele>2.7</ele>
        <time>2020-06-15T14:44:54Z</time>
      </trkpt>
      <trkpt lat="49.5143" lon="-1.28705">
        <ele>2.7</ele>
        <time>2020-06-15T14:44:55Z</time>
      </trkpt>
      <trkpt lat="49.51427" lon="-1.28699">
        <ele>2.7</ele>
        <time>2020-06-15T14:44:56Z</time>
      </trkpt>
      <trkpt lat="49.51423" lon="-1.28694">
        <ele>2.7</ele>
        <time>2020-06-15T14:44:57Z</time>
      </trkpt>
      <trkpt lat="49.51419" lon="-1.28689">
        <ele>2.6</ele>
        <time>2020-06-15T14:44:58Z</time>
      </trkpt>
      <trkpt lat="49.51417" lon="-1.28683">
        <ele>2.6</ele>
        <time>2020-06-15T14:44:59Z</time>
      </trkpt>
      <trkpt lat="49.51414" lon="-1.28676">
        <ele>2.6</ele>
        <time>2020-06-15T14:45:00Z</time>
      </trkpt>
      <trkpt lat="49.5141" lon="-1.2867">
        <ele>2.6</ele>
        <time>2020-06-15T14:45:01Z</time>
      </trkpt>
      <trkpt lat="49.51408" lon="-1.28664">
        <ele>2.6</ele>
        <time>2020-06-15T14:45:02Z</time>
      </trkpt>
      <trkpt lat="49.51405" lon="-1.28659">
        <ele>2.6</ele>
        <time>2020-06-15T14:45:03Z</time>
      </trkpt>
      <trkpt lat="49.51402" lon="-1.28654">
        <ele>2.6</ele>
        <time>2020-06-15T14:45:04Z</time>
      </trkpt>
      <trkpt lat="49.51399" lon="-1.28649">
        <ele>2.6</ele>
        <time>2020-06-15T14:45:05Z</time>
      </trkpt>
      <trkpt lat="49.51396" lon="-1.28643">
        <ele>2.6</ele>
        <time>2020-06-15T14:45:06Z</time>
      </trkpt>
      <trkpt lat="49.51393" lon="-1.28637">
        <ele>2.6</ele>
        <time>2020-06-15T14:45:07Z</time>
      </trkpt>
      <trkpt lat="49.51389" lon="-1.28631">
        <ele>2.6</ele>
        <time>2020-06-15T14:45:08Z</time>
      </trkpt>
      <trkpt lat="49.51385" lon="-1.28626">
        <ele>2.6</ele>
        <time>2020-06-15T14:45:09Z</time>
      </trkpt>
      <trkpt lat="49.51382" lon="-1.28619">
        <ele>2.5</ele>
        <time>2020-06-15T14:45:10Z</time>
      </trkpt>
      <trkpt lat="49.51378" lon="-1.28614">
        <ele>2.5</ele>
        <time>2020-06-15T14:45:11Z</time>
      </trkpt>
      <trkpt lat="49.51375" lon="-1.28608">
        <ele>2.5</ele>
        <time>2020-06-15T14:45:12Z</time>
      </trkpt>
      <trkpt lat="49.51371" lon="-1.28602">
        <ele>2.5</ele>
        <time>2020-06-15T14:45:13Z</time>
      </trkpt>
      <trkpt lat="49.51367" lon="-1.28596">
        <ele>2.5</ele>
        <time>2020-06-15T14:45:14Z</time>
      </trkpt>
      <trkpt lat="49.51363" lon="-1.28591">
        <ele>2.5</ele>
        <time>2020-06-15T14:45:15Z</time>
      </trkpt>
      <trkpt lat="49.51358" lon="-1.28587">
        <ele>2.5</ele>
        <time>2020-06-15T14:45:16Z</time>
      </trkpt>
      <trkpt lat="49.51354" lon="-1.28582">
        <ele>2.5</ele>
        <time>2020-06-15T14:45:17Z</time>
      </trkpt>
      <trkpt lat="49.51351" lon="-1.28576">
        <ele>2.5</ele>
        <time>2020-06-15T14:45:18Z</time>
      </trkpt>
      <trkpt lat="49.51347" lon="-1.28572">
        <ele>2.6</ele>
        <time>2020-06-15T14:45:19Z</time>
      </trkpt>
      <trkpt lat="49.51343" lon="-1.28568">
        <ele>2.6</ele>
        <time>2020-06-15T14:45:20Z</time>
      </trkpt>
      <trkpt lat="49.51339" lon="-1.28564">
        <ele>2.6</ele>
        <time>2020-06-15T14:45:21Z</time>
      </trkpt>
      <trkpt lat="49.51336" lon="-1.2856">
        <ele>2.6</ele>
        <time>2020-06-15T14:45:22Z</time>
      </trkpt>
      <trkpt lat="49.51332" lon="-1.28556">
        <ele>2.7</ele>
        <time>2020-06-15T14:45:23Z</time>
      </trkpt>
      <trkpt lat="49.51328" lon="-1.28551">
        <ele>2.7</ele>
        <time>2020-06-15T14:45:24Z</time>
      </trkpt>
      <trkpt lat="49.51325" lon="-1.28549">
        <ele>2.7</ele>
        <time>2020-06-15T14:45:25Z</time>
      </trkpt>
      <trkpt lat="49.5132" lon="-1.28544">
        <ele>2.8</ele>
        <time>2020-06-15T14:45:26Z</time>
      </trkpt>
      <trkpt lat="49.51316" lon="-1.28538">
        <ele>2.8</ele>
        <time>2020-06-15T14:45:27Z</time>
      </trkpt>
      <trkpt lat="49.51311" lon="-1.28534">
        <ele>2.7</ele>
        <time>2020-06-15T14:45:28Z</time>
      </trkpt>
      <trkpt lat="49.51307" lon="-1.28529">
        <ele>2.7</ele>
        <time>2020-06-15T14:45:29Z</time>
      </trkpt>
      <trkpt lat="49.51304" lon="-1.28523">
        <ele>2.7</ele>
        <time>2020-06-15T14:45:30Z</time>
      </trkpt>
      <trkpt lat="49.51301" lon="-1.28517">
        <ele>2.7</ele>
        <time>2020-06-15T14:45:31Z</time>
      </trkpt>
      <trkpt lat="49.51298" lon="-1.28511">
        <ele>2.7</ele>
        <time>2020-06-15T14:45:32Z</time>
      </trkpt>
      <trkpt lat="49.51294" lon="-1.28504">
        <ele>2.7</ele>
        <time>2020-06-15T14:45:33Z</time>
      </trkpt>
      <trkpt lat="49.51291" lon="-1.28497">
        <ele>2.8</ele>
        <time>2020-06-15T14:45:34Z</time>
      </trkpt>
      <trkpt lat="49.51288" lon="-1.28492">
        <ele>2.8</ele>
        <time>2020-06-15T14:45:35Z</time>
      </trkpt>
      <trkpt lat="49.51284" lon="-1.28486">
        <ele>2.8</ele>
        <time>2020-06-15T14:45:36Z</time>
      </trkpt>
      <trkpt lat="49.51281" lon="-1.28481">
        <ele>2.8</ele>
        <time>2020-06-15T14:45:37Z</time>
      </trkpt>
      <trkpt lat="49.51278" lon="-1.28476">
        <ele>2.9</ele>
        <time>2020-06-15T14:45:38Z</time>
      </trkpt>
      <trkpt lat="49.51274" lon="-1.2847">
        <ele>2.9</ele>
        <time>2020-06-15T14:45:39Z</time>
      </trkpt>
      <trkpt lat="49.5127" lon="-1.28466">
        <ele>2.9</ele>
        <time>2020-06-15T14:45:40Z</time>
      </trkpt>
      <trkpt lat="49.51266" lon="-1.28462">
        <ele>2.9</ele>
        <time>2020-06-15T14:45:41Z</time>
      </trkpt>
      <trkpt lat="49.51262" lon="-1.28456">
        <ele>3</ele>
        <time>2020-06-15T14:45:42Z</time>
      </trkpt>
      <trkpt lat="49.51258" lon="-1.28452">
        <ele>3</ele>
        <time>2020-06-15T14:45:43Z</time>
      </trkpt>
      <trkpt lat="49.51255" lon="-1.28447">
        <ele>3</ele>
        <time>2020-06-15T14:45:44Z</time>
      </trkpt>
      <trkpt lat="49.51252" lon="-1.28442">
        <ele>3.1</ele>
        <time>2020-06-15T14:45:45Z</time>
      </trkpt>
      <trkpt lat="49.51248" lon="-1.28437">
        <ele>3.1</ele>
        <time>2020-06-15T14:45:46Z</time>
      </trkpt>
      <trkpt lat="49.51245" lon="-1.28433">
        <ele>3.1</ele>
        <time>2020-06-15T14:45:47Z</time>
      </trkpt>
      <trkpt lat="49.51241" lon="-1.28429">
        <ele>3.2</ele>
        <time>2020-06-15T14:45:48Z</time>
      </trkpt>
      <trkpt lat="49.51238" lon="-1.28425">
        <ele>3.2</ele>
        <time>2020-06-15T14:45:49Z</time>
      </trkpt>
      <trkpt lat="49.51233" lon="-1.28421">
        <ele>3.2</ele>
        <time>2020-06-15T14:45:50Z</time>
      </trkpt>
      <trkpt lat="49.5123" lon="-1.28417">
        <ele>3.2</ele>
        <time>2020-06-15T14:45:51Z</time>
      </trkpt>
      <trkpt lat="49.51226" lon="-1.28412">
        <ele>3.3</ele>
        <time>2020-06-15T14:45:52Z</time>
      </trkpt>
      <trkpt lat="49.51222" lon="-1.28407">
        <ele>3.3</ele>
        <time>2020-06-15T14:45:53Z</time>
      </trkpt>
      <trkpt lat="49.51218" lon="-1.28401">
        <ele>3.4</ele>
        <time>2020-06-15T14:45:54Z</time>
      </trkpt>
      <trkpt lat="49.51214" lon="-1.28395">
        <ele>3.4</ele>
        <time>2020-06-15T14:45:55Z</time>
      </trkpt>
      <trkpt lat="49.5121" lon="-1.28389">
        <ele>3.4</ele>
        <time>2020-06-15T14:45:56Z</time>
      </trkpt>
      <trkpt lat="49.51206" lon="-1.28383">
        <ele>3.4</ele>
        <time>2020-06-15T14:45:57Z</time>
      </trkpt>
      <trkpt lat="49.51203" lon="-1.28377">
        <ele>3.4</ele>
        <time>2020-06-15T14:45:58Z</time>
      </trkpt>
      <trkpt lat="49.512" lon="-1.28372">
        <ele>3.4</ele>
        <time>2020-06-15T14:45:59Z</time>
      </trkpt>
      <trkpt lat="49.51196" lon="-1.28367">
        <ele>3.4</ele>
        <time>2020-06-15T14:46:00Z</time>
      </trkpt>
      <trkpt lat="49.51192" lon="-1.28361">
        <ele>3.4</ele>
        <time>2020-06-15T14:46:01Z</time>
      </trkpt>
      <trkpt lat="49.51189" lon="-1.28356">
        <ele>3.4</ele>
        <time>2020-06-15T14:46:02Z</time>
      </trkpt>
      <trkpt lat="49.51185" lon="-1.28351">
        <ele>3.4</ele>
        <time>2020-06-15T14:46:03Z</time>
      </trkpt>
      <trkpt lat="49.51181" lon="-1.28346">
        <ele>3.5</ele>
        <time>2020-06-15T14:46:04Z</time>
      </trkpt>
      <trkpt lat="49.51177" lon="-1.28342">
        <ele>3.5</ele>
        <time>2020-06-15T14:46:05Z</time>
      </trkpt>
      <trkpt lat="49.51173" lon="-1.28338">
        <ele>3.5</ele>
        <time>2020-06-15T14:46:06Z</time>
      </trkpt>
      <trkpt lat="49.51169" lon="-1.28334">
        <ele>3.4</ele>
        <time>2020-06-15T14:46:07Z</time>
      </trkpt>
      <trkpt lat="49.51164" lon="-1.2833">
        <ele>3.4</ele>
        <time>2020-06-15T14:46:08Z</time>
      </trkpt>
      <trkpt lat="49.5116" lon="-1.28326">
        <ele>3.4</ele>
        <time>2020-06-15T14:46:09Z</time>
      </trkpt>
      <trkpt lat="49.51155" lon="-1.28322">
        <ele>3.4</ele>
        <time>2020-06-15T14:46:10Z</time>
      </trkpt>
      <trkpt lat="49.51151" lon="-1.28319">
        <ele>3.4</ele>
        <time>2020-06-15T14:46:11Z</time>
      </trkpt>
      <trkpt lat="49.51147" lon="-1.28316">
        <ele>3.4</ele>
        <time>2020-06-15T14:46:12Z</time>
      </trkpt>
      <trkpt lat="49.51143" lon="-1.28313">
        <ele>3.4</ele>
        <time>2020-06-15T14:46:13Z</time>
      </trkpt>
      <trkpt lat="49.51139" lon="-1.28309">
        <ele>3.4</ele>
        <time>2020-06-15T14:46:14Z</time>
      </trkpt>
      <trkpt lat="49.51136" lon="-1.28306">
        <ele>3.4</ele>
        <time>2020-06-15T14:46:15Z</time>
      </trkpt>
      <trkpt lat="49.51131" lon="-1.28303">
        <ele>3.4</ele>
        <time>2020-06-15T14:46:16Z</time>
      </trkpt>
      <trkpt lat="49.51127" lon="-1.28299">
        <ele>3.4</ele>
        <time>2020-06-15T14:46:17Z</time>
      </trkpt>
      <trkpt lat="49.51123" lon="-1.28295">
        <ele>3.5</ele>
        <time>2020-06-15T14:46:18Z</time>
      </trkpt>
      <trkpt lat="49.51119" lon="-1.28291">
        <ele>3.5</ele>
        <time>2020-06-15T14:46:19Z</time>
      </trkpt>
      <trkpt lat="49.51115" lon="-1.28287">
        <ele>3.4</ele>
        <time>2020-06-15T14:46:20Z</time>
      </trkpt>
      <trkpt lat="49.5111" lon="-1.28282">
        <ele>3.4</ele>
        <time>2020-06-15T14:46:21Z</time>
      </trkpt>
      <trkpt lat="49.51106" lon="-1.28277">
        <ele>3.3</ele>
        <time>2020-06-15T14:46:22Z</time>
      </trkpt>
      <trkpt lat="49.51101" lon="-1.28272">
        <ele>3.3</ele>
        <time>2020-06-15T14:46:23Z</time>
      </trkpt>
      <trkpt lat="49.51097" lon="-1.28269">
        <ele>3.3</ele>
        <time>2020-06-15T14:46:24Z</time>
      </trkpt>
      <trkpt lat="49.51092" lon="-1.28266">
        <ele>3.3</ele>
        <time>2020-06-15T14:46:25Z</time>
      </trkpt>
      <trkpt lat="49.51088" lon="-1.28262">
        <ele>3.2</ele>
        <time>2020-06-15T14:46:26Z</time>
      </trkpt>
      <trkpt lat="49.51084" lon="-1.28259">
        <ele>3.2</ele>
        <time>2020-06-15T14:46:27Z</time>
      </trkpt>
      <trkpt lat="49.51079" lon="-1.28255">
        <ele>3.2</ele>
        <time>2020-06-15T14:46:28Z</time>
      </trkpt>
      <trkpt lat="49.51074" lon="-1.2825">
        <ele>3.2</ele>
        <time>2020-06-15T14:46:29Z</time>
      </trkpt>
      <trkpt lat="49.51071" lon="-1.28246">
        <ele>3.2</ele>
        <time>2020-06-15T14:46:30Z</time>
      </trkpt>
      <trkpt lat="49.51066" lon="-1.28241">
        <ele>3.2</ele>
        <time>2020-06-15T14:46:31Z</time>
      </trkpt>
      <trkpt lat="49.51062" lon="-1.28237">
        <ele>3.2</ele>
        <time>2020-06-15T14:46:32Z</time>
      </trkpt>
      <trkpt lat="49.51058" lon="-1.28234">
        <ele>3.2</ele>
        <time>2020-06-15T14:46:33Z</time>
      </trkpt>
      <trkpt lat="49.51054" lon="-1.2823">
        <ele>3.1</ele>
        <time>2020-06-15T14:46:34Z</time>
      </trkpt>
      <trkpt lat="49.5105" lon="-1.28226">
        <ele>3.1</ele>
        <time>2020-06-15T14:46:35Z</time>
      </trkpt>
      <trkpt lat="49.51046" lon="-1.28223">
        <ele>3.1</ele>
        <time>2020-06-15T14:46:36Z</time>
      </trkpt>
      <trkpt lat="49.51042" lon="-1.28219">
        <ele>3.1</ele>
        <time>2020-06-15T14:46:37Z</time>
      </trkpt>
      <trkpt lat="49.51038" lon="-1.28216">
        <ele>3.1</ele>
        <time>2020-06-15T14:46:38Z</time>
      </trkpt>
      <trkpt lat="49.51033" lon="-1.28211">
        <ele>3</ele>
        <time>2020-06-15T14:46:39Z</time>
      </trkpt>
      <trkpt lat="49.51029" lon="-1.28207">
        <ele>3</ele>
        <time>2020-06-15T14:46:40Z</time>
      </trkpt>
      <trkpt lat="49.51025" lon="-1.28202">
        <ele>3</ele>
        <time>2020-06-15T14:46:41Z</time>
      </trkpt>
      <trkpt lat="49.5102" lon="-1.28198">
        <ele>3</ele>
        <time>2020-06-15T14:46:42Z</time>
      </trkpt>
      <trkpt lat="49.51015" lon="-1.28194">
        <ele>3</ele>
        <time>2020-06-15T14:46:43Z</time>
      </trkpt>
      <trkpt lat="49.51011" lon="-1.2819">
        <ele>3</ele>
        <time>2020-06-15T14:46:44Z</time>
      </trkpt>
      <trkpt lat="49.51006" lon="-1.28186">
        <ele>3.1</ele>
        <time>2020-06-15T14:46:45Z</time>
      </trkpt>
      <trkpt lat="49.51002" lon="-1.28182">
        <ele>3</ele>
        <time>2020-06-15T14:46:46Z</time>
      </trkpt>
      <trkpt lat="49.50997" lon="-1.28178">
        <ele>3</ele>
        <time>2020-06-15T14:46:47Z</time>
      </trkpt>
      <trkpt lat="49.50992" lon="-1.28174">
        <ele>3</ele>
        <time>2020-06-15T14:46:48Z</time>
      </trkpt>
      <trkpt lat="49.50987" lon="-1.28171">
        <ele>2.9</ele>
        <time>2020-06-15T14:46:49Z</time>
      </trkpt>
      <trkpt lat="49.50983" lon="-1.28167">
        <ele>2.9</ele>
        <time>2020-06-15T14:46:50Z</time>
      </trkpt>
      <trkpt lat="49.50978" lon="-1.28162">
        <ele>2.8</ele>
        <time>2020-06-15T14:46:51Z</time>
      </trkpt>
      <trkpt lat="49.50973" lon="-1.28158">
        <ele>2.8</ele>
        <time>2020-06-15T14:46:52Z</time>
      </trkpt>
      <trkpt lat="49.50969" lon="-1.28154">
        <ele>2.8</ele>
        <time>2020-06-15T14:46:53Z</time>
      </trkpt>
      <trkpt lat="49.50965" lon="-1.2815">
        <ele>2.8</ele>
        <time>2020-06-15T14:46:54Z</time>
      </trkpt>
      <trkpt lat="49.5096" lon="-1.28146">
        <ele>2.8</ele>
        <time>2020-06-15T14:46:55Z</time>
      </trkpt>
      <trkpt lat="49.50955" lon="-1.28142">
        <ele>2.8</ele>
        <time>2020-06-15T14:46:56Z</time>
      </trkpt>
      <trkpt lat="49.50951" lon="-1.28137">
        <ele>2.8</ele>
        <time>2020-06-15T14:46:57Z</time>
      </trkpt>
      <trkpt lat="49.50946" lon="-1.28133">
        <ele>2.8</ele>
        <time>2020-06-15T14:46:58Z</time>
      </trkpt>
      <trkpt lat="49.50941" lon="-1.28128">
        <ele>2.7</ele>
        <time>2020-06-15T14:46:59Z</time>
      </trkpt>
      <trkpt lat="49.50936" lon="-1.28124">
        <ele>2.7</ele>
        <time>2020-06-15T14:47:00Z</time>
      </trkpt>
      <trkpt lat="49.50932" lon="-1.28119">
        <ele>2.7</ele>
        <time>2020-06-15T14:47:01Z</time>
      </trkpt>
      <trkpt lat="49.50926" lon="-1.28115">
        <ele>2.6</ele>
        <time>2020-06-15T14:47:02Z</time>
      </trkpt>
      <trkpt lat="49.50921" lon="-1.28111">
        <ele>2.6</ele>
        <time>2020-06-15T14:47:03Z</time>
      </trkpt>
      <trkpt lat="49.50916" lon="-1.28107">
        <ele>2.6</ele>
        <time>2020-06-15T14:47:04Z</time>
      </trkpt>
      <trkpt lat="49.5091" lon="-1.28103">
        <ele>2.6</ele>
        <time>2020-06-15T14:47:05Z</time>
      </trkpt>
      <trkpt lat="49.50905" lon="-1.28099">
        <ele>2.6</ele>
        <time>2020-06-15T14:47:06Z</time>
      </trkpt>
      <trkpt lat="49.509" lon="-1.28095">
        <ele>2.6</ele>
        <time>2020-06-15T14:47:07Z</time>
      </trkpt>
      <trkpt lat="49.50896" lon="-1.28091">
        <ele>2.7</ele>
        <time>2020-06-15T14:47:08Z</time>
      </trkpt>
      <trkpt lat="49.50891" lon="-1.28087">
        <ele>2.7</ele>
        <time>2020-06-15T14:47:09Z</time>
      </trkpt>
      <trkpt lat="49.50885" lon="-1.28083">
        <ele>2.7</ele>
        <time>2020-06-15T14:47:10Z</time>
      </trkpt>
      <trkpt lat="49.5088" lon="-1.28078">
        <ele>2.7</ele>
        <time>2020-06-15T14:47:11Z</time>
      </trkpt>
      <trkpt lat="49.50875" lon="-1.28074">
        <ele>2.7</ele>
        <time>2020-06-15T14:47:12Z</time>
      </trkpt>
      <trkpt lat="49.5087" lon="-1.28071">
        <ele>2.7</ele>
        <time>2020-06-15T14:47:13Z</time>
      </trkpt>
      <trkpt lat="49.50866" lon="-1.28066">
        <ele>2.7</ele>
        <time>2020-06-15T14:47:14Z</time>
      </trkpt>
      <trkpt lat="49.50861" lon="-1.28062">
        <ele>2.8</ele>
        <time>2020-06-15T14:47:15Z</time>
      </trkpt>
      <trkpt lat="49.50857" lon="-1.28059">
        <ele>2.8</ele>
        <time>2020-06-15T14:47:16Z</time>
      </trkpt>
      <trkpt lat="49.50853" lon="-1.28055">
        <ele>2.8</ele>
        <time>2020-06-15T14:47:17Z</time>
      </trkpt>
      <trkpt lat="49.50849" lon="-1.2805">
        <ele>2.8</ele>
        <time>2020-06-15T14:47:18Z</time>
      </trkpt>
      <trkpt lat="49.50845" lon="-1.28047">
        <ele>2.9</ele>
        <time>2020-06-15T14:47:19Z</time>
      </trkpt>
      <trkpt lat="49.50841" lon="-1.28043">
        <ele>2.9</ele>
        <time>2020-06-15T14:47:20Z</time>
      </trkpt>
      <trkpt lat="49.50836" lon="-1.28039">
        <ele>2.9</ele>
        <time>2020-06-15T14:47:21Z</time>
      </trkpt>
      <trkpt lat="49.50832" lon="-1.28033">
        <ele>2.9</ele>
        <time>2020-06-15T14:47:22Z</time>
      </trkpt>
      <trkpt lat="49.50828" lon="-1.28027">
        <ele>3</ele>
        <time>2020-06-15T14:47:23Z</time>
      </trkpt>
      <trkpt lat="49.50824" lon="-1.28022">
        <ele>3</ele>
        <time>2020-06-15T14:47:24Z</time>
      </trkpt>
      <trkpt lat="49.50821" lon="-1.28016">
        <ele>3.1</ele>
        <time>2020-06-15T14:47:25Z</time>
      </trkpt>
      <trkpt lat="49.50817" lon="-1.2801">
        <ele>3.1</ele>
        <time>2020-06-15T14:47:26Z</time>
      </trkpt>
      <trkpt lat="49.50813" lon="-1.28005">
        <ele>3.2</ele>
        <time>2020-06-15T14:47:27Z</time>
      </trkpt>
      <trkpt lat="49.50809" lon="-1.28">
        <ele>3.2</ele>
        <time>2020-06-15T14:47:28Z</time>
      </trkpt>
      <trkpt lat="49.50806" lon="-1.27993">
        <ele>3.3</ele>
        <time>2020-06-15T14:47:29Z</time>
      </trkpt>
      <trkpt lat="49.50803" lon="-1.27987">
        <ele>3.3</ele>
        <time>2020-06-15T14:47:30Z</time>
      </trkpt>
      <trkpt lat="49.508" lon="-1.2798">
        <ele>3.4</ele>
        <time>2020-06-15T14:47:31Z</time>
      </trkpt>
      <trkpt lat="49.50796" lon="-1.27973">
        <ele>3.5</ele>
        <time>2020-06-15T14:47:32Z</time>
      </trkpt>
      <trkpt lat="49.50793" lon="-1.27968">
        <ele>3.5</ele>
        <time>2020-06-15T14:47:33Z</time>
      </trkpt>
      <trkpt lat="49.5079" lon="-1.27961">
        <ele>3.6</ele>
        <time>2020-06-15T14:47:34Z</time>
      </trkpt>
      <trkpt lat="49.50788" lon="-1.27955">
        <ele>3.6</ele>
        <time>2020-06-15T14:47:35Z</time>
      </trkpt>
      <trkpt lat="49.50785" lon="-1.27948">
        <ele>3.6</ele>
        <time>2020-06-15T14:47:36Z</time>
      </trkpt>
      <trkpt lat="49.50782" lon="-1.27942">
        <ele>3.7</ele>
        <time>2020-06-15T14:47:37Z</time>
      </trkpt>
      <trkpt lat="49.50779" lon="-1.27935">
        <ele>3.7</ele>
        <time>2020-06-15T14:47:38Z</time>
      </trkpt>
      <trkpt lat="49.50777" lon="-1.27929">
        <ele>3.7</ele>
        <time>2020-06-15T14:47:39Z</time>
      </trkpt>
      <trkpt lat="49.50774" lon="-1.27922">
        <ele>3.8</ele>
        <time>2020-06-15T14:47:40Z</time>
      </trkpt>
      <trkpt lat="49.5077" lon="-1.27916">
        <ele>3.8</ele>
        <time>2020-06-15T14:47:41Z</time>
      </trkpt>
      <trkpt lat="49.50767" lon="-1.2791">
        <ele>3.8</ele>
        <time>2020-06-15T14:47:42Z</time>
      </trkpt>
      <trkpt lat="49.50765" lon="-1.27903">
        <ele>3.9</ele>
        <time>2020-06-15T14:47:43Z</time>
      </trkpt>
      <trkpt lat="49.50762" lon="-1.27897">
        <ele>3.9</ele>
        <time>2020-06-15T14:47:44Z</time>
      </trkpt>
      <trkpt lat="49.50759" lon="-1.2789">
        <ele>3.9</ele>
        <time>2020-06-15T14:47:45Z</time>
      </trkpt>
      <trkpt lat="49.50755" lon="-1.27884">
        <ele>4</ele>
        <time>2020-06-15T14:47:46Z</time>
      </trkpt>
      <trkpt lat="49.50752" lon="-1.27878">
        <ele>4</ele>
        <time>2020-06-15T14:47:47Z</time>
      </trkpt>
      <trkpt lat="49.50749" lon="-1.27871">
        <ele>4</ele>
        <time>2020-06-15T14:47:48Z</time>
      </trkpt>
      <trkpt lat="49.50746" lon="-1.27864">
        <ele>4.1</ele>
        <time>2020-06-15T14:47:49Z</time>
      </trkpt>
      <trkpt lat="49.50743" lon="-1.27858">
        <ele>4.1</ele>
        <time>2020-06-15T14:47:50Z</time>
      </trkpt>
      <trkpt lat="49.5074" lon="-1.27852">
        <ele>4.1</ele>
        <time>2020-06-15T14:47:51Z</time>
      </trkpt>
      <trkpt lat="49.50736" lon="-1.27846">
        <ele>4.1</ele>
        <time>2020-06-15T14:47:52Z</time>
      </trkpt>
      <trkpt lat="49.50733" lon="-1.2784">
        <ele>4.2</ele>
        <time>2020-06-15T14:47:53Z</time>
      </trkpt>
      <trkpt lat="49.50729" lon="-1.27834">
        <ele>4.2</ele>
        <time>2020-06-15T14:47:54Z</time>
      </trkpt>
      <trkpt lat="49.50726" lon="-1.27828">
        <ele>4.3</ele>
        <time>2020-06-15T14:47:55Z</time>
      </trkpt>
      <trkpt lat="49.50722" lon="-1.27822">
        <ele>4.4</ele>
        <time>2020-06-15T14:47:56Z</time>
      </trkpt>
      <trkpt lat="49.50718" lon="-1.27816">
        <ele>4.5</ele>
        <time>2020-06-15T14:47:57Z</time>
      </trkpt>
      <trkpt lat="49.50714" lon="-1.27811">
        <ele>4.5</ele>
        <time>2020-06-15T14:47:58Z</time>
      </trkpt>
      <trkpt lat="49.5071" lon="-1.27805">
        <ele>4.6</ele>
        <time>2020-06-15T14:47:59Z</time>
      </trkpt>
      <trkpt lat="49.50707" lon="-1.27799">
        <ele>4.7</ele>
        <time>2020-06-15T14:48:00Z</time>
      </trkpt>
      <trkpt lat="49.50703" lon="-1.27793">
        <ele>4.8</ele>
        <time>2020-06-15T14:48:01Z</time>
      </trkpt>
      <trkpt lat="49.50699" lon="-1.27788">
        <ele>4.8</ele>
        <time>2020-06-15T14:48:02Z</time>
      </trkpt>
      <trkpt lat="49.50696" lon="-1.27782">
        <ele>4.8</ele>
        <time>2020-06-15T14:48:03Z</time>
      </trkpt>
      <trkpt lat="49.50692" lon="-1.27777">
        <ele>4.9</ele>
        <time>2020-06-15T14:48:04Z</time>
      </trkpt>
      <trkpt lat="49.50688" lon="-1.27771">
        <ele>4.9</ele>
        <time>2020-06-15T14:48:05Z</time>
      </trkpt>
      <trkpt lat="49.50684" lon="-1.27766">
        <ele>4.9</ele>
        <time>2020-06-15T14:48:06Z</time>
      </trkpt>
      <trkpt lat="49.5068" lon="-1.2776">
        <ele>5</ele>
        <time>2020-06-15T14:48:07Z</time>
      </trkpt>
      <trkpt lat="49.50676" lon="-1.27755">
        <ele>5</ele>
        <time>2020-06-15T14:48:08Z</time>
      </trkpt>
      <trkpt lat="49.50672" lon="-1.27751">
        <ele>5.1</ele>
        <time>2020-06-15T14:48:09Z</time>
      </trkpt>
      <trkpt lat="49.50667" lon="-1.27746">
        <ele>5.1</ele>
        <time>2020-06-15T14:48:10Z</time>
      </trkpt>
      <trkpt lat="49.50662" lon="-1.27741">
        <ele>5.1</ele>
        <time>2020-06-15T14:48:11Z</time>
      </trkpt>
      <trkpt lat="49.50658" lon="-1.27736">
        <ele>5.2</ele>
        <time>2020-06-15T14:48:12Z</time>
      </trkpt>
      <trkpt lat="49.50653" lon="-1.27732">
        <ele>5.2</ele>
        <time>2020-06-15T14:48:13Z</time>
      </trkpt>
      <trkpt lat="49.50649" lon="-1.27728">
        <ele>5.2</ele>
        <time>2020-06-15T14:48:14Z</time>
      </trkpt>
      <trkpt lat="49.50646" lon="-1.27724">
        <ele>5.2</ele>
        <time>2020-06-15T14:48:15Z</time>
      </trkpt>
      <trkpt lat="49.50642" lon="-1.27718">
        <ele>5.3</ele>
        <time>2020-06-15T14:48:16Z</time>
      </trkpt>
      <trkpt lat="49.50639" lon="-1.27713">
        <ele>5.3</ele>
        <time>2020-06-15T14:48:17Z</time>
      </trkpt>
      <trkpt lat="49.50635" lon="-1.27708">
        <ele>5.3</ele>
        <time>2020-06-15T14:48:18Z</time>
      </trkpt>
      <trkpt lat="49.5063" lon="-1.27704">
        <ele>5.3</ele>
        <time>2020-06-15T14:48:19Z</time>
      </trkpt>
      <trkpt lat="49.50626" lon="-1.27699">
        <ele>5.3</ele>
        <time>2020-06-15T14:48:20Z</time>
      </trkpt>
      <trkpt lat="49.50621" lon="-1.27695">
        <ele>5.3</ele>
        <time>2020-06-15T14:48:21Z</time>
      </trkpt>
      <trkpt lat="49.50616" lon="-1.27691">
        <ele>5.3</ele>
        <time>2020-06-15T14:48:22Z</time>
      </trkpt>
      <trkpt lat="49.50612" lon="-1.27686">
        <ele>5.3</ele>
        <time>2020-06-15T14:48:23Z</time>
      </trkpt>
      <trkpt lat="49.50607" lon="-1.27682">
        <ele>5.4</ele>
        <time>2020-06-15T14:48:24Z</time>
      </trkpt>
      <trkpt lat="49.50603" lon="-1.27677">
        <ele>5.4</ele>
        <time>2020-06-15T14:48:25Z</time>
      </trkpt>
      <trkpt lat="49.50598" lon="-1.27673">
        <ele>5.4</ele>
        <time>2020-06-15T14:48:26Z</time>
      </trkpt>
      <trkpt lat="49.50595" lon="-1.27668">
        <ele>5.4</ele>
        <time>2020-06-15T14:48:27Z</time>
      </trkpt>
      <trkpt lat="49.50591" lon="-1.27664">
        <ele>5.4</ele>
        <time>2020-06-15T14:48:28Z</time>
      </trkpt>
      <trkpt lat="49.50586" lon="-1.2766">
        <ele>5.4</ele>
        <time>2020-06-15T14:48:29Z</time>
      </trkpt>
      <trkpt lat="49.50582" lon="-1.27655">
        <ele>5.4</ele>
        <time>2020-06-15T14:48:30Z</time>
      </trkpt>
      <trkpt lat="49.50577" lon="-1.27651">
        <ele>5.4</ele>
        <time>2020-06-15T14:48:31Z</time>
      </trkpt>
      <trkpt lat="49.50572" lon="-1.27647">
        <ele>5.3</ele>
        <time>2020-06-15T14:48:32Z</time>
      </trkpt>
      <trkpt lat="49.50567" lon="-1.27643">
        <ele>5.3</ele>
        <time>2020-06-15T14:48:33Z</time>
      </trkpt>
      <trkpt lat="49.50563" lon="-1.27639">
        <ele>5.3</ele>
        <time>2020-06-15T14:48:34Z</time>
      </trkpt>
      <trkpt lat="49.50559" lon="-1.27635">
        <ele>5.3</ele>
        <time>2020-06-15T14:48:35Z</time>
      </trkpt>
      <trkpt lat="49.50555" lon="-1.2763">
        <ele>5.3</ele>
        <time>2020-06-15T14:48:36Z</time>
      </trkpt>
      <trkpt lat="49.50551" lon="-1.27627">
        <ele>5.3</ele>
        <time>2020-06-15T14:48:37Z</time>
      </trkpt>
      <trkpt lat="49.50547" lon="-1.27622">
        <ele>5.4</ele>
        <time>2020-06-15T14:48:38Z</time>
      </trkpt>
      <trkpt lat="49.50542" lon="-1.27618">
        <ele>5.4</ele>
        <time>2020-06-15T14:48:39Z</time>
      </trkpt>
      <trkpt lat="49.50538" lon="-1.27613">
        <ele>5.4</ele>
        <time>2020-06-15T14:48:40Z</time>
      </trkpt>
      <trkpt lat="49.50535" lon="-1.27607">
        <ele>5.4</ele>
        <time>2020-06-15T14:48:41Z</time>
      </trkpt>
      <trkpt lat="49.50531" lon="-1.27603">
        <ele>5.4</ele>
        <time>2020-06-15T14:48:42Z</time>
      </trkpt>
      <trkpt lat="49.50526" lon="-1.27598">
        <ele>5.5</ele>
        <time>2020-06-15T14:48:43Z</time>
      </trkpt>
      <trkpt lat="49.50521" lon="-1.27593">
        <ele>5.5</ele>
        <time>2020-06-15T14:48:44Z</time>
      </trkpt>
      <trkpt lat="49.50516" lon="-1.27589">
        <ele>5.4</ele>
        <time>2020-06-15T14:48:45Z</time>
      </trkpt>
      <trkpt lat="49.50511" lon="-1.27584">
        <ele>5.4</ele>
        <time>2020-06-15T14:48:46Z</time>
      </trkpt>
      <trkpt lat="49.50507" lon="-1.2758">
        <ele>5.4</ele>
        <time>2020-06-15T14:48:47Z</time>
      </trkpt>
      <trkpt lat="49.50502" lon="-1.27576">
        <ele>5.4</ele>
        <time>2020-06-15T14:48:48Z</time>
      </trkpt>
      <trkpt lat="49.50498" lon="-1.27571">
        <ele>5.4</ele>
        <time>2020-06-15T14:48:49Z</time>
      </trkpt>
      <trkpt lat="49.50494" lon="-1.27566">
        <ele>5.4</ele>
        <time>2020-06-15T14:48:50Z</time>
      </trkpt>
      <trkpt lat="49.5049" lon="-1.27562">
        <ele>5.4</ele>
        <time>2020-06-15T14:48:51Z</time>
      </trkpt>
      <trkpt lat="49.50486" lon="-1.27558">
        <ele>5.3</ele>
        <time>2020-06-15T14:48:52Z</time>
      </trkpt>
      <trkpt lat="49.50481" lon="-1.27552">
        <ele>5.3</ele>
        <time>2020-06-15T14:48:53Z</time>
      </trkpt>
      <trkpt lat="49.50477" lon="-1.27547">
        <ele>5.2</ele>
        <time>2020-06-15T14:48:54Z</time>
      </trkpt>
      <trkpt lat="49.50473" lon="-1.27542">
        <ele>5.2</ele>
        <time>2020-06-15T14:48:55Z</time>
      </trkpt>
      <trkpt lat="49.50469" lon="-1.27537">
        <ele>5.1</ele>
        <time>2020-06-15T14:48:56Z</time>
      </trkpt>
      <trkpt lat="49.50464" lon="-1.27533">
        <ele>5</ele>
        <time>2020-06-15T14:48:57Z</time>
      </trkpt>
      <trkpt lat="49.5046" lon="-1.27529">
        <ele>5</ele>
        <time>2020-06-15T14:48:58Z</time>
      </trkpt>
      <trkpt lat="49.50455" lon="-1.27524">
        <ele>4.9</ele>
        <time>2020-06-15T14:48:59Z</time>
      </trkpt>
      <trkpt lat="49.5045" lon="-1.27518">
        <ele>4.9</ele>
        <time>2020-06-15T14:49:00Z</time>
      </trkpt>
      <trkpt lat="49.50446" lon="-1.27513">
        <ele>4.8</ele>
        <time>2020-06-15T14:49:01Z</time>
      </trkpt>
      <trkpt lat="49.50442" lon="-1.27508">
        <ele>4.7</ele>
        <time>2020-06-15T14:49:02Z</time>
      </trkpt>
      <trkpt lat="49.50437" lon="-1.27503">
        <ele>4.7</ele>
        <time>2020-06-15T14:49:03Z</time>
      </trkpt>
      <trkpt lat="49.50433" lon="-1.27498">
        <ele>4.6</ele>
        <time>2020-06-15T14:49:04Z</time>
      </trkpt>
      <trkpt lat="49.50429" lon="-1.27494">
        <ele>4.6</ele>
        <time>2020-06-15T14:49:05Z</time>
      </trkpt>
      <trkpt lat="49.50424" lon="-1.27489">
        <ele>4.5</ele>
        <time>2020-06-15T14:49:06Z</time>
      </trkpt>
      <trkpt lat="49.50419" lon="-1.27484">
        <ele>4.5</ele>
        <time>2020-06-15T14:49:07Z</time>
      </trkpt>
      <trkpt lat="49.50414" lon="-1.2748">
        <ele>4.4</ele>
        <time>2020-06-15T14:49:08Z</time>
      </trkpt>
      <trkpt lat="49.5041" lon="-1.27475">
        <ele>4.4</ele>
        <time>2020-06-15T14:49:09Z</time>
      </trkpt>
      <trkpt lat="49.50406" lon="-1.2747">
        <ele>4.3</ele>
        <time>2020-06-15T14:49:10Z</time>
      </trkpt>
      <trkpt lat="49.50401" lon="-1.27464">
        <ele>4.3</ele>
        <time>2020-06-15T14:49:11Z</time>
      </trkpt>
      <trkpt lat="49.50396" lon="-1.27459">
        <ele>4.2</ele>
        <time>2020-06-15T14:49:12Z</time>
      </trkpt>
      <trkpt lat="49.50392" lon="-1.27453">
        <ele>4.2</ele>
        <time>2020-06-15T14:49:13Z</time>
      </trkpt>
      <trkpt lat="49.50387" lon="-1.27448">
        <ele>4.2</ele>
        <time>2020-06-15T14:49:14Z</time>
      </trkpt>
      <trkpt lat="49.50383" lon="-1.27442">
        <ele>4.2</ele>
        <time>2020-06-15T14:49:15Z</time>
      </trkpt>
      <trkpt lat="49.50378" lon="-1.27438">
        <ele>4.1</ele>
        <time>2020-06-15T14:49:16Z</time>
      </trkpt>
      <trkpt lat="49.50374" lon="-1.27433">
        <ele>4.1</ele>
        <time>2020-06-15T14:49:17Z</time>
      </trkpt>
      <trkpt lat="49.50369" lon="-1.27427">
        <ele>4.1</ele>
        <time>2020-06-15T14:49:18Z</time>
      </trkpt>
      <trkpt lat="49.50364" lon="-1.27421">
        <ele>4.2</ele>
        <time>2020-06-15T14:49:19Z</time>
      </trkpt>
      <trkpt lat="49.5036" lon="-1.27416">
        <ele>4.2</ele>
        <time>2020-06-15T14:49:20Z</time>
      </trkpt>
      <trkpt lat="49.50355" lon="-1.27411">
        <ele>4.3</ele>
        <time>2020-06-15T14:49:21Z</time>
      </trkpt>
      <trkpt lat="49.50351" lon="-1.27406">
        <ele>4.3</ele>
        <time>2020-06-15T14:49:22Z</time>
      </trkpt>
      <trkpt lat="49.50346" lon="-1.27401">
        <ele>4.4</ele>
        <time>2020-06-15T14:49:23Z</time>
      </trkpt>
      <trkpt lat="49.50342" lon="-1.27397">
        <ele>4.4</ele>
        <time>2020-06-15T14:49:24Z</time>
      </trkpt>
      <trkpt lat="49.50339" lon="-1.27393">
        <ele>4.5</ele>
        <time>2020-06-15T14:49:25Z</time>
      </trkpt>
      <trkpt lat="49.50335" lon="-1.27388">
        <ele>4.5</ele>
        <time>2020-06-15T14:49:26Z</time>
      </trkpt>
      <trkpt lat="49.50331" lon="-1.27383">
        <ele>4.5</ele>
        <time>2020-06-15T14:49:27Z</time>
      </trkpt>
      <trkpt lat="49.50326" lon="-1.27378">
        <ele>4.5</ele>
        <time>2020-06-15T14:49:28Z</time>
      </trkpt>
      <trkpt lat="49.50321" lon="-1.27374">
        <ele>4.5</ele>
        <time>2020-06-15T14:49:29Z</time>
      </trkpt>
      <trkpt lat="49.50317" lon="-1.27369">
        <ele>4.5</ele>
        <time>2020-06-15T14:49:30Z</time>
      </trkpt>
      <trkpt lat="49.50314" lon="-1.27362">
        <ele>4.5</ele>
        <time>2020-06-15T14:49:31Z</time>
      </trkpt>
      <trkpt lat="49.50309" lon="-1.27357">
        <ele>4.6</ele>
        <time>2020-06-15T14:49:32Z</time>
      </trkpt>
      <trkpt lat="49.50305" lon="-1.27352">
        <ele>4.6</ele>
        <time>2020-06-15T14:49:33Z</time>
      </trkpt>
      <trkpt lat="49.50301" lon="-1.27348">
        <ele>4.6</ele>
        <time>2020-06-15T14:49:34Z</time>
      </trkpt>
      <trkpt lat="49.50297" lon="-1.27343">
        <ele>4.6</ele>
        <time>2020-06-15T14:49:35Z</time>
      </trkpt>
      <trkpt lat="49.50292" lon="-1.27338">
        <ele>4.6</ele>
        <time>2020-06-15T14:49:36Z</time>
      </trkpt>
      <trkpt lat="49.50288" lon="-1.27332">
        <ele>4.6</ele>
        <time>2020-06-15T14:49:37Z</time>
      </trkpt>
      <trkpt lat="49.50284" lon="-1.27326">
        <ele>4.6</ele>
        <time>2020-06-15T14:49:38Z</time>
      </trkpt>
      <trkpt lat="49.50279" lon="-1.27321">
        <ele>4.6</ele>
        <time>2020-06-15T14:49:39Z</time>
      </trkpt>
      <trkpt lat="49.50275" lon="-1.27316">
        <ele>4.5</ele>
        <time>2020-06-15T14:49:40Z</time>
      </trkpt>
      <trkpt lat="49.50271" lon="-1.27311">
        <ele>4.5</ele>
        <time>2020-06-15T14:49:41Z</time>
      </trkpt>
      <trkpt lat="49.50266" lon="-1.27306">
        <ele>4.5</ele>
        <time>2020-06-15T14:49:42Z</time>
      </trkpt>
      <trkpt lat="49.50262" lon="-1.27301">
        <ele>4.5</ele>
        <time>2020-06-15T14:49:43Z</time>
      </trkpt>
      <trkpt lat="49.50256" lon="-1.27294">
        <ele>4.5</ele>
        <time>2020-06-15T14:49:44Z</time>
      </trkpt>
      <trkpt lat="49.50252" lon="-1.27288">
        <ele>4.5</ele>
        <time>2020-06-15T14:49:45Z</time>
      </trkpt>
      <trkpt lat="49.50247" lon="-1.27283">
        <ele>4.5</ele>
        <time>2020-06-15T14:49:46Z</time>
      </trkpt>
      <trkpt lat="49.50243" lon="-1.27278">
        <ele>4.4</ele>
        <time>2020-06-15T14:49:47Z</time>
      </trkpt>
      <trkpt lat="49.50237" lon="-1.27273">
        <ele>4.4</ele>
        <time>2020-06-15T14:49:48Z</time>
      </trkpt>
      <trkpt lat="49.50232" lon="-1.27267">
        <ele>4.4</ele>
        <time>2020-06-15T14:49:49Z</time>
      </trkpt>
      <trkpt lat="49.50228" lon="-1.27261">
        <ele>4.4</ele>
        <time>2020-06-15T14:49:50Z</time>
      </trkpt>
      <trkpt lat="49.50223" lon="-1.27256">
        <ele>4.4</ele>
        <time>2020-06-15T14:49:51Z</time>
      </trkpt>
      <trkpt lat="49.50218" lon="-1.2725">
        <ele>4.4</ele>
        <time>2020-06-15T14:49:52Z</time>
      </trkpt>
      <trkpt lat="49.50214" lon="-1.27244">
        <ele>4.4</ele>
        <time>2020-06-15T14:49:53Z</time>
      </trkpt>
      <trkpt lat="49.50209" lon="-1.27239">
        <ele>4.5</ele>
        <time>2020-06-15T14:49:54Z</time>
      </trkpt>
      <trkpt lat="49.50205" lon="-1.27233">
        <ele>4.5</ele>
        <time>2020-06-15T14:49:55Z</time>
      </trkpt>
      <trkpt lat="49.502" lon="-1.27227">
        <ele>4.5</ele>
        <time>2020-06-15T14:49:56Z</time>
      </trkpt>
      <trkpt lat="49.50196" lon="-1.27222">
        <ele>4.5</ele>
        <time>2020-06-15T14:49:57Z</time>
      </trkpt>
      <trkpt lat="49.50192" lon="-1.27216">
        <ele>4.4</ele>
        <time>2020-06-15T14:49:58Z</time>
      </trkpt>
      <trkpt lat="49.50187" lon="-1.27211">
        <ele>4.4</ele>
        <time>2020-06-15T14:49:59Z</time>
      </trkpt>
      <trkpt lat="49.50183" lon="-1.27205">
        <ele>4.4</ele>
        <time>2020-06-15T14:50:00Z</time>
      </trkpt>
      <trkpt lat="49.50179" lon="-1.272">
        <ele>4.4</ele>
        <time>2020-06-15T14:50:01Z</time>
      </trkpt>
      <trkpt lat="49.50174" lon="-1.27194">
        <ele>4.4</ele>
        <time>2020-06-15T14:50:02Z</time>
      </trkpt>
      <trkpt lat="49.5017" lon="-1.27189">
        <ele>4.4</ele>
        <time>2020-06-15T14:50:03Z</time>
      </trkpt>
      <trkpt lat="49.50165" lon="-1.27184">
        <ele>4.4</ele>
        <time>2020-06-15T14:50:04Z</time>
      </trkpt>
      <trkpt lat="49.50161" lon="-1.27179">
        <ele>4.5</ele>
        <time>2020-06-15T14:50:05Z</time>
      </trkpt>
      <trkpt lat="49.50156" lon="-1.27173">
        <ele>4.5</ele>
        <time>2020-06-15T14:50:06Z</time>
      </trkpt>
      <trkpt lat="49.50151" lon="-1.27168">
        <ele>4.5</ele>
        <time>2020-06-15T14:50:07Z</time>
      </trkpt>
      <trkpt lat="49.50146" lon="-1.27163">
        <ele>4.5</ele>
        <time>2020-06-15T14:50:08Z</time>
      </trkpt>
      <trkpt lat="49.50142" lon="-1.27158">
        <ele>4.5</ele>
        <time>2020-06-15T14:50:09Z</time>
      </trkpt>
      <trkpt lat="49.50138" lon="-1.27153">
        <ele>4.4</ele>
        <time>2020-06-15T14:50:10Z</time>
      </trkpt>
      <trkpt lat="49.50134" lon="-1.27148">
        <ele>4.4</ele>
        <time>2020-06-15T14:50:11Z</time>
      </trkpt>
      <trkpt lat="49.50129" lon="-1.27144">
        <ele>4.4</ele>
        <time>2020-06-15T14:50:12Z</time>
      </trkpt>
      <trkpt lat="49.50125" lon="-1.27139">
        <ele>4.4</ele>
        <time>2020-06-15T14:50:13Z</time>
      </trkpt>
      <trkpt lat="49.50121" lon="-1.27134">
        <ele>4.4</ele>
        <time>2020-06-15T14:50:14Z</time>
      </trkpt>
      <trkpt lat="49.50117" lon="-1.2713">
        <ele>4.4</ele>
        <time>2020-06-15T14:50:15Z</time>
      </trkpt>
      <trkpt lat="49.50114" lon="-1.27124">
        <ele>4.4</ele>
        <time>2020-06-15T14:50:16Z</time>
      </trkpt>
      <trkpt lat="49.5011" lon="-1.27119">
        <ele>4.4</ele>
        <time>2020-06-15T14:50:17Z</time>
      </trkpt>
      <trkpt lat="49.50106" lon="-1.27114">
        <ele>4.4</ele>
        <time>2020-06-15T14:50:18Z</time>
      </trkpt>
      <trkpt lat="49.50102" lon="-1.27108">
        <ele>4.4</ele>
        <time>2020-06-15T14:50:19Z</time>
      </trkpt>
      <trkpt lat="49.50098" lon="-1.27102">
        <ele>4.4</ele>
        <time>2020-06-15T14:50:20Z</time>
      </trkpt>
      <trkpt lat="49.50093" lon="-1.27097">
        <ele>4.4</ele>
        <time>2020-06-15T14:50:21Z</time>
      </trkpt>
      <trkpt lat="49.5009" lon="-1.27091">
        <ele>4.4</ele>
        <time>2020-06-15T14:50:22Z</time>
      </trkpt>
      <trkpt lat="49.50086" lon="-1.27086">
        <ele>4.4</ele>
        <time>2020-06-15T14:50:23Z</time>
      </trkpt>
      <trkpt lat="49.50082" lon="-1.27081">
        <ele>4.5</ele>
        <time>2020-06-15T14:50:24Z</time>
      </trkpt>
      <trkpt lat="49.50078" lon="-1.27076">
        <ele>4.5</ele>
        <time>2020-06-15T14:50:25Z</time>
      </trkpt>
      <trkpt lat="49.50074" lon="-1.27071">
        <ele>4.5</ele>
        <time>2020-06-15T14:50:26Z</time>
      </trkpt>
      <trkpt lat="49.50069" lon="-1.27066">
        <ele>4.5</ele>
        <time>2020-06-15T14:50:27Z</time>
      </trkpt>
      <trkpt lat="49.50064" lon="-1.27061">
        <ele>4.5</ele>
        <time>2020-06-15T14:50:28Z</time>
      </trkpt>
      <trkpt lat="49.5006" lon="-1.27056">
        <ele>4.6</ele>
        <time>2020-06-15T14:50:29Z</time>
      </trkpt>
      <trkpt lat="49.50055" lon="-1.27051">
        <ele>4.6</ele>
        <time>2020-06-15T14:50:30Z</time>
      </trkpt>
      <trkpt lat="49.50051" lon="-1.27047">
        <ele>4.6</ele>
        <time>2020-06-15T14:50:31Z</time>
      </trkpt>
      <trkpt lat="49.50047" lon="-1.27043">
        <ele>4.6</ele>
        <time>2020-06-15T14:50:32Z</time>
      </trkpt>
      <trkpt lat="49.50042" lon="-1.27038">
        <ele>4.5</ele>
        <time>2020-06-15T14:50:33Z</time>
      </trkpt>
      <trkpt lat="49.50038" lon="-1.27031">
        <ele>4.5</ele>
        <time>2020-06-15T14:50:34Z</time>
      </trkpt>
      <trkpt lat="49.50033" lon="-1.27025">
        <ele>4.5</ele>
        <time>2020-06-15T14:50:35Z</time>
      </trkpt>
      <trkpt lat="49.50029" lon="-1.27018">
        <ele>4.4</ele>
        <time>2020-06-15T14:50:36Z</time>
      </trkpt>
      <trkpt lat="49.50024" lon="-1.27012">
        <ele>4.4</ele>
        <time>2020-06-15T14:50:37Z</time>
      </trkpt>
      <trkpt lat="49.50019" lon="-1.27006">
        <ele>4.4</ele>
        <time>2020-06-15T14:50:38Z</time>
      </trkpt>
      <trkpt lat="49.50014" lon="-1.27002">
        <ele>4.4</ele>
        <time>2020-06-15T14:50:39Z</time>
      </trkpt>
      <trkpt lat="49.50009" lon="-1.26997">
        <ele>4.4</ele>
        <time>2020-06-15T14:50:40Z</time>
      </trkpt>
      <trkpt lat="49.50004" lon="-1.26992">
        <ele>4.4</ele>
        <time>2020-06-15T14:50:41Z</time>
      </trkpt>
      <trkpt lat="49.5" lon="-1.26987">
        <ele>4.3</ele>
        <time>2020-06-15T14:50:42Z</time>
      </trkpt>
      <trkpt lat="49.49995" lon="-1.26982">
        <ele>4.3</ele>
        <time>2020-06-15T14:50:43Z</time>
      </trkpt>
      <trkpt lat="49.49989" lon="-1.26978">
        <ele>4.3</ele>
        <time>2020-06-15T14:50:44Z</time>
      </trkpt>
      <trkpt lat="49.49985" lon="-1.26973">
        <ele>4.2</ele>
        <time>2020-06-15T14:50:45Z</time>
      </trkpt>
      <trkpt lat="49.4998" lon="-1.26968">
        <ele>4.2</ele>
        <time>2020-06-15T14:50:46Z</time>
      </trkpt>
      <trkpt lat="49.49975" lon="-1.26963">
        <ele>4.2</ele>
        <time>2020-06-15T14:50:47Z</time>
      </trkpt>
      <trkpt lat="49.4997" lon="-1.26958">
        <ele>4.2</ele>
        <time>2020-06-15T14:50:48Z</time>
      </trkpt>
      <trkpt lat="49.49965" lon="-1.26953">
        <ele>4.1</ele>
        <time>2020-06-15T14:50:49Z</time>
      </trkpt>
      <trkpt lat="49.4996" lon="-1.26948">
        <ele>4.1</ele>
        <time>2020-06-15T14:50:50Z</time>
      </trkpt>
      <trkpt lat="49.49955" lon="-1.26945">
        <ele>4.1</ele>
        <time>2020-06-15T14:50:51Z</time>
      </trkpt>
      <trkpt lat="49.4995" lon="-1.26942">
        <ele>4.1</ele>
        <time>2020-06-15T14:50:52Z</time>
      </trkpt>
      <trkpt lat="49.49945" lon="-1.26938">
        <ele>4.1</ele>
        <time>2020-06-15T14:50:53Z</time>
      </trkpt>
      <trkpt lat="49.4994" lon="-1.26934">
        <ele>4.1</ele>
        <time>2020-06-15T14:50:54Z</time>
      </trkpt>
      <trkpt lat="49.49935" lon="-1.26929">
        <ele>4.1</ele>
        <time>2020-06-15T14:50:55Z</time>
      </trkpt>
      <trkpt lat="49.4993" lon="-1.26924">
        <ele>4</ele>
        <time>2020-06-15T14:50:56Z</time>
      </trkpt>
      <trkpt lat="49.49925" lon="-1.2692">
        <ele>4</ele>
        <time>2020-06-15T14:50:57Z</time>
      </trkpt>
      <trkpt lat="49.4992" lon="-1.26917">
        <ele>4</ele>
        <time>2020-06-15T14:50:58Z</time>
      </trkpt>
      <trkpt lat="49.49915" lon="-1.26913">
        <ele>4</ele>
        <time>2020-06-15T14:50:59Z</time>
      </trkpt>
      <trkpt lat="49.49911" lon="-1.26908">
        <ele>4</ele>
        <time>2020-06-15T14:51:00Z</time>
      </trkpt>
      <trkpt lat="49.49906" lon="-1.26903">
        <ele>4</ele>
        <time>2020-06-15T14:51:01Z</time>
      </trkpt>
      <trkpt lat="49.49901" lon="-1.26899">
        <ele>4</ele>
        <time>2020-06-15T14:51:02Z</time>
      </trkpt>
      <trkpt lat="49.49895" lon="-1.26895">
        <ele>4</ele>
        <time>2020-06-15T14:51:03Z</time>
      </trkpt>
      <trkpt lat="49.4989" lon="-1.26891">
        <ele>4</ele>
        <time>2020-06-15T14:51:04Z</time>
      </trkpt>
      <trkpt lat="49.49885" lon="-1.26887">
        <ele>4</ele>
        <time>2020-06-15T14:51:05Z</time>
      </trkpt>
      <trkpt lat="49.4988" lon="-1.26883">
        <ele>4</ele>
        <time>2020-06-15T14:51:06Z</time>
      </trkpt>
      <trkpt lat="49.49875" lon="-1.26878">
        <ele>4</ele>
        <time>2020-06-15T14:51:07Z</time>
      </trkpt>
      <trkpt lat="49.49871" lon="-1.26874">
        <ele>4</ele>
        <time>2020-06-15T14:51:08Z</time>
      </trkpt>
      <trkpt lat="49.49867" lon="-1.26869">
        <ele>4</ele>
        <time>2020-06-15T14:51:09Z</time>
      </trkpt>
      <trkpt lat="49.49862" lon="-1.26866">
        <ele>4</ele>
        <time>2020-06-15T14:51:10Z</time>
      </trkpt>
      <trkpt lat="49.49857" lon="-1.26861">
        <ele>4</ele>
        <time>2020-06-15T14:51:11Z</time>
      </trkpt>
      <trkpt lat="49.49852" lon="-1.26858">
        <ele>4</ele>
        <time>2020-06-15T14:51:12Z</time>
      </trkpt>
      <trkpt lat="49.49847" lon="-1.26852">
        <ele>4</ele>
        <time>2020-06-15T14:51:13Z</time>
      </trkpt>
      <trkpt lat="49.49842" lon="-1.26848">
        <ele>4</ele>
        <time>2020-06-15T14:51:14Z</time>
      </trkpt>
      <trkpt lat="49.49838" lon="-1.26844">
        <ele>4</ele>
        <time>2020-06-15T14:51:15Z</time>
      </trkpt>
      <trkpt lat="49.49833" lon="-1.2684">
        <ele>4</ele>
        <time>2020-06-15T14:51:16Z</time>
      </trkpt>
      <trkpt lat="49.49828" lon="-1.26836">
        <ele>4</ele>
        <time>2020-06-15T14:51:17Z</time>
      </trkpt>
      <trkpt lat="49.49824" lon="-1.26832">
        <ele>4</ele>
        <time>2020-06-15T14:51:18Z</time>
      </trkpt>
      <trkpt lat="49.49819" lon="-1.26829">
        <ele>4</ele>
        <time>2020-06-15T14:51:19Z</time>
      </trkpt>
      <trkpt lat="49.49814" lon="-1.26825">
        <ele>4</ele>
        <time>2020-06-15T14:51:20Z</time>
      </trkpt>
      <trkpt lat="49.4981" lon="-1.26822">
        <ele>4</ele>
        <time>2020-06-15T14:51:21Z</time>
      </trkpt>
      <trkpt lat="49.49805" lon="-1.26817">
        <ele>4</ele>
        <time>2020-06-15T14:51:22Z</time>
      </trkpt>
      <trkpt lat="49.49801" lon="-1.26813">
        <ele>4</ele>
        <time>2020-06-15T14:51:23Z</time>
      </trkpt>
      <trkpt lat="49.49796" lon="-1.2681">
        <ele>4</ele>
        <time>2020-06-15T14:51:24Z</time>
      </trkpt>
      <trkpt lat="49.49792" lon="-1.26807">
        <ele>4.1</ele>
        <time>2020-06-15T14:51:25Z</time>
      </trkpt>
      <trkpt lat="49.49787" lon="-1.26804">
        <ele>4.1</ele>
        <time>2020-06-15T14:51:26Z</time>
      </trkpt>
      <trkpt lat="49.49783" lon="-1.268">
        <ele>4.1</ele>
        <time>2020-06-15T14:51:27Z</time>
      </trkpt>
      <trkpt lat="49.49777" lon="-1.26797">
        <ele>4.1</ele>
        <time>2020-06-15T14:51:28Z</time>
      </trkpt>
      <trkpt lat="49.49772" lon="-1.26792">
        <ele>4</ele>
        <time>2020-06-15T14:51:29Z</time>
      </trkpt>
      <trkpt lat="49.49767" lon="-1.26788">
        <ele>4</ele>
        <time>2020-06-15T14:51:30Z</time>
      </trkpt>
      <trkpt lat="49.49762" lon="-1.26784">
        <ele>4</ele>
        <time>2020-06-15T14:51:31Z</time>
      </trkpt>
      <trkpt lat="49.49757" lon="-1.2678">
        <ele>4</ele>
        <time>2020-06-15T14:51:32Z</time>
      </trkpt>
      <trkpt lat="49.49753" lon="-1.26776">
        <ele>4</ele>
        <time>2020-06-15T14:51:33Z</time>
      </trkpt>
      <trkpt lat="49.49749" lon="-1.26773">
        <ele>3.9</ele>
        <time>2020-06-15T14:51:34Z</time>
      </trkpt>
      <trkpt lat="49.49745" lon="-1.26769">
        <ele>3.9</ele>
        <time>2020-06-15T14:51:35Z</time>
      </trkpt>
      <trkpt lat="49.4974" lon="-1.26765">
        <ele>3.9</ele>
        <time>2020-06-15T14:51:36Z</time>
      </trkpt>
      <trkpt lat="49.49735" lon="-1.26762">
        <ele>3.9</ele>
        <time>2020-06-15T14:51:37Z</time>
      </trkpt>
      <trkpt lat="49.49731" lon="-1.26758">
        <ele>3.9</ele>
        <time>2020-06-15T14:51:38Z</time>
      </trkpt>
      <trkpt lat="49.49727" lon="-1.26754">
        <ele>3.8</ele>
        <time>2020-06-15T14:51:39Z</time>
      </trkpt>
      <trkpt lat="49.49721" lon="-1.26751">
        <ele>3.8</ele>
        <time>2020-06-15T14:51:40Z</time>
      </trkpt>
      <trkpt lat="49.49716" lon="-1.26748">
        <ele>3.8</ele>
        <time>2020-06-15T14:51:41Z</time>
      </trkpt>
      <trkpt lat="49.49712" lon="-1.26744">
        <ele>3.7</ele>
        <time>2020-06-15T14:51:42Z</time>
      </trkpt>
      <trkpt lat="49.49707" lon="-1.2674">
        <ele>3.7</ele>
        <time>2020-06-15T14:51:43Z</time>
      </trkpt>
      <trkpt lat="49.49701" lon="-1.26736">
        <ele>3.7</ele>
        <time>2020-06-15T14:51:44Z</time>
      </trkpt>
      <trkpt lat="49.49697" lon="-1.26731">
        <ele>3.6</ele>
        <time>2020-06-15T14:51:45Z</time>
      </trkpt>
      <trkpt lat="49.49692" lon="-1.26727">
        <ele>3.6</ele>
        <time>2020-06-15T14:51:46Z</time>
      </trkpt>
      <trkpt lat="49.49688" lon="-1.26723">
        <ele>3.6</ele>
        <time>2020-06-15T14:51:47Z</time>
      </trkpt>
      <trkpt lat="49.49683" lon="-1.26719">
        <ele>3.6</ele>
        <time>2020-06-15T14:51:48Z</time>
      </trkpt>
      <trkpt lat="49.49678" lon="-1.26714">
        <ele>3.6</ele>
        <time>2020-06-15T14:51:49Z</time>
      </trkpt>
      <trkpt lat="49.49673" lon="-1.26711">
        <ele>3.6</ele>
        <time>2020-06-15T14:51:50Z</time>
      </trkpt>
      <trkpt lat="49.49668" lon="-1.26707">
        <ele>3.6</ele>
        <time>2020-06-15T14:51:51Z</time>
      </trkpt>
      <trkpt lat="49.49663" lon="-1.26704">
        <ele>3.6</ele>
        <time>2020-06-15T14:51:52Z</time>
      </trkpt>
      <trkpt lat="49.49658" lon="-1.267">
        <ele>3.6</ele>
        <time>2020-06-15T14:51:53Z</time>
      </trkpt>
      <trkpt lat="49.49654" lon="-1.26696">
        <ele>3.7</ele>
        <time>2020-06-15T14:51:54Z</time>
      </trkpt>
      <trkpt lat="49.49649" lon="-1.26693">
        <ele>3.7</ele>
        <time>2020-06-15T14:51:55Z</time>
      </trkpt>
      <trkpt lat="49.49643" lon="-1.26688">
        <ele>3.7</ele>
        <time>2020-06-15T14:51:56Z</time>
      </trkpt>
      <trkpt lat="49.49638" lon="-1.26685">
        <ele>3.8</ele>
        <time>2020-06-15T14:51:57Z</time>
      </trkpt>
      <trkpt lat="49.49633" lon="-1.26681">
        <ele>3.8</ele>
        <time>2020-06-15T14:51:58Z</time>
      </trkpt>
      <trkpt lat="49.49628" lon="-1.26677">
        <ele>3.8</ele>
        <time>2020-06-15T14:51:59Z</time>
      </trkpt>
      <trkpt lat="49.49622" lon="-1.26673">
        <ele>3.7</ele>
        <time>2020-06-15T14:52:00Z</time>
      </trkpt>
      <trkpt lat="49.49617" lon="-1.26669">
        <ele>3.7</ele>
        <time>2020-06-15T14:52:01Z</time>
      </trkpt>
      <trkpt lat="49.49612" lon="-1.26665">
        <ele>3.7</ele>
        <time>2020-06-15T14:52:02Z</time>
      </trkpt>
      <trkpt lat="49.49607" lon="-1.26662">
        <ele>3.7</ele>
        <time>2020-06-15T14:52:03Z</time>
      </trkpt>
      <trkpt lat="49.49603" lon="-1.26658">
        <ele>3.8</ele>
        <time>2020-06-15T14:52:04Z</time>
      </trkpt>
      <trkpt lat="49.49598" lon="-1.26655">
        <ele>3.8</ele>
        <time>2020-06-15T14:52:05Z</time>
      </trkpt>
      <trkpt lat="49.49594" lon="-1.26651">
        <ele>3.8</ele>
        <time>2020-06-15T14:52:06Z</time>
      </trkpt>
      <trkpt lat="49.49588" lon="-1.26648">
        <ele>3.8</ele>
        <time>2020-06-15T14:52:07Z</time>
      </trkpt>
      <trkpt lat="49.49584" lon="-1.26644">
        <ele>3.8</ele>
        <time>2020-06-15T14:52:08Z</time>
      </trkpt>
      <trkpt lat="49.49579" lon="-1.2664">
        <ele>3.9</ele>
        <time>2020-06-15T14:52:09Z</time>
      </trkpt>
      <trkpt lat="49.49574" lon="-1.26635">
        <ele>3.9</ele>
        <time>2020-06-15T14:52:10Z</time>
      </trkpt>
      <trkpt lat="49.4957" lon="-1.26631">
        <ele>3.9</ele>
        <time>2020-06-15T14:52:11Z</time>
      </trkpt>
      <trkpt lat="49.49565" lon="-1.26627">
        <ele>3.9</ele>
        <time>2020-06-15T14:52:12Z</time>
      </trkpt>
      <trkpt lat="49.4956" lon="-1.26624">
        <ele>3.9</ele>
        <time>2020-06-15T14:52:13Z</time>
      </trkpt>
      <trkpt lat="49.49555" lon="-1.26619">
        <ele>4</ele>
        <time>2020-06-15T14:52:14Z</time>
      </trkpt>
      <trkpt lat="49.4955" lon="-1.26615">
        <ele>4</ele>
        <time>2020-06-15T14:52:15Z</time>
      </trkpt>
      <trkpt lat="49.49546" lon="-1.26612">
        <ele>4</ele>
        <time>2020-06-15T14:52:16Z</time>
      </trkpt>
      <trkpt lat="49.49542" lon="-1.26607">
        <ele>4</ele>
        <time>2020-06-15T14:52:17Z</time>
      </trkpt>
      <trkpt lat="49.49537" lon="-1.26603">
        <ele>4</ele>
        <time>2020-06-15T14:52:18Z</time>
      </trkpt>
      <trkpt lat="49.49533" lon="-1.26599">
        <ele>4</ele>
        <time>2020-06-15T14:52:19Z</time>
      </trkpt>
      <trkpt lat="49.49528" lon="-1.26596">
        <ele>3.9</ele>
        <time>2020-06-15T14:52:20Z</time>
      </trkpt>
      <trkpt lat="49.49523" lon="-1.26592">
        <ele>3.9</ele>
        <time>2020-06-15T14:52:21Z</time>
      </trkpt>
      <trkpt lat="49.49519" lon="-1.26587">
        <ele>3.9</ele>
        <time>2020-06-15T14:52:22Z</time>
      </trkpt>
      <trkpt lat="49.49514" lon="-1.26583">
        <ele>3.9</ele>
        <time>2020-06-15T14:52:23Z</time>
      </trkpt>
      <trkpt lat="49.49509" lon="-1.26579">
        <ele>3.9</ele>
        <time>2020-06-15T14:52:24Z</time>
      </trkpt>
      <trkpt lat="49.49504" lon="-1.26574">
        <ele>3.9</ele>
        <time>2020-06-15T14:52:25Z</time>
      </trkpt>
      <trkpt lat="49.495" lon="-1.26571">
        <ele>3.9</ele>
        <time>2020-06-15T14:52:26Z</time>
      </trkpt>
      <trkpt lat="49.49495" lon="-1.26567">
        <ele>3.8</ele>
        <time>2020-06-15T14:52:27Z</time>
      </trkpt>
      <trkpt lat="49.4949" lon="-1.26563">
        <ele>3.8</ele>
        <time>2020-06-15T14:52:28Z</time>
      </trkpt>
      <trkpt lat="49.49485" lon="-1.26558">
        <ele>3.8</ele>
        <time>2020-06-15T14:52:29Z</time>
      </trkpt>
      <trkpt lat="49.4948" lon="-1.26554">
        <ele>3.8</ele>
        <time>2020-06-15T14:52:30Z</time>
      </trkpt>
      <trkpt lat="49.49475" lon="-1.26551">
        <ele>3.7</ele>
        <time>2020-06-15T14:52:31Z</time>
      </trkpt>
      <trkpt lat="49.49471" lon="-1.26548">
        <ele>3.7</ele>
        <time>2020-06-15T14:52:32Z</time>
      </trkpt>
      <trkpt lat="49.49466" lon="-1.26546">
        <ele>3.7</ele>
        <time>2020-06-15T14:52:33Z</time>
      </trkpt>
      <trkpt lat="49.49461" lon="-1.26544">
        <ele>3.7</ele>
        <time>2020-06-15T14:52:34Z</time>
      </trkpt>
      <trkpt lat="49.49456" lon="-1.26542">
        <ele>3.7</ele>
        <time>2020-06-15T14:52:35Z</time>
      </trkpt>
      <trkpt lat="49.49451" lon="-1.2654">
        <ele>3.6</ele>
        <time>2020-06-15T14:52:36Z</time>
      </trkpt>
      <trkpt lat="49.49445" lon="-1.26535">
        <ele>3.5</ele>
        <time>2020-06-15T14:52:37Z</time>
      </trkpt>
      <trkpt lat="49.4944" lon="-1.26532">
        <ele>3.5</ele>
        <time>2020-06-15T14:52:38Z</time>
      </trkpt>
      <trkpt lat="49.49435" lon="-1.26528">
        <ele>3.4</ele>
        <time>2020-06-15T14:52:39Z</time>
      </trkpt>
      <trkpt lat="49.49429" lon="-1.26525">
        <ele>3.4</ele>
        <time>2020-06-15T14:52:40Z</time>
      </trkpt>
      <trkpt lat="49.49424" lon="-1.26521">
        <ele>3.4</ele>
        <time>2020-06-15T14:52:41Z</time>
      </trkpt>
      <trkpt lat="49.49419" lon="-1.26518">
        <ele>3.4</ele>
        <time>2020-06-15T14:52:42Z</time>
      </trkpt>
      <trkpt lat="49.49414" lon="-1.26516">
        <ele>3.4</ele>
        <time>2020-06-15T14:52:43Z</time>
      </trkpt>
      <trkpt lat="49.49409" lon="-1.26512">
        <ele>3.3</ele>
        <time>2020-06-15T14:52:44Z</time>
      </trkpt>
      <trkpt lat="49.49404" lon="-1.26508">
        <ele>3.3</ele>
        <time>2020-06-15T14:52:45Z</time>
      </trkpt>
      <trkpt lat="49.49399" lon="-1.26503">
        <ele>3.3</ele>
        <time>2020-06-15T14:52:46Z</time>
      </trkpt>
      <trkpt lat="49.49395" lon="-1.26499">
        <ele>3.3</ele>
        <time>2020-06-15T14:52:47Z</time>
      </trkpt>
      <trkpt lat="49.49391" lon="-1.26495">
        <ele>3.3</ele>
        <time>2020-06-15T14:52:48Z</time>
      </trkpt>
      <trkpt lat="49.49385" lon="-1.2649">
        <ele>3.3</ele>
        <time>2020-06-15T14:52:49Z</time>
      </trkpt>
      <trkpt lat="49.49381" lon="-1.26486">
        <ele>3.3</ele>
        <time>2020-06-15T14:52:50Z</time>
      </trkpt>
      <trkpt lat="49.49377" lon="-1.26481">
        <ele>3.3</ele>
        <time>2020-06-15T14:52:51Z</time>
      </trkpt>
      <trkpt lat="49.49371" lon="-1.26477">
        <ele>3.2</ele>
        <time>2020-06-15T14:52:52Z</time>
      </trkpt>
      <trkpt lat="49.49366" lon="-1.26471">
        <ele>3.2</ele>
        <time>2020-06-15T14:52:53Z</time>
      </trkpt>
      <trkpt lat="49.4936" lon="-1.26467">
        <ele>3.2</ele>
        <time>2020-06-15T14:52:54Z</time>
      </trkpt>
      <trkpt lat="49.49355" lon="-1.26463">
        <ele>3.2</ele>
        <time>2020-06-15T14:52:55Z</time>
      </trkpt>
      <trkpt lat="49.4935" lon="-1.26457">
        <ele>3.2</ele>
        <time>2020-06-15T14:52:56Z</time>
      </trkpt>
      <trkpt lat="49.49345" lon="-1.26452">
        <ele>3.2</ele>
        <time>2020-06-15T14:52:57Z</time>
      </trkpt>
      <trkpt lat="49.4934" lon="-1.26447">
        <ele>3.2</ele>
        <time>2020-06-15T14:52:58Z</time>
      </trkpt>
      <trkpt lat="49.49336" lon="-1.26443">
        <ele>3.2</ele>
        <time>2020-06-15T14:52:59Z</time>
      </trkpt>
      <trkpt lat="49.49331" lon="-1.2644">
        <ele>3.3</ele>
        <time>2020-06-15T14:53:00Z</time>
      </trkpt>
      <trkpt lat="49.49327" lon="-1.26436">
        <ele>3.3</ele>
        <time>2020-06-15T14:53:01Z</time>
      </trkpt>
      <trkpt lat="49.49322" lon="-1.26433">
        <ele>3.3</ele>
        <time>2020-06-15T14:53:02Z</time>
      </trkpt>
      <trkpt lat="49.49317" lon="-1.26428">
        <ele>3.3</ele>
        <time>2020-06-15T14:53:03Z</time>
      </trkpt>
      <trkpt lat="49.49313" lon="-1.26425">
        <ele>3.3</ele>
        <time>2020-06-15T14:53:04Z</time>
      </trkpt>
      <trkpt lat="49.49309" lon="-1.26421">
        <ele>3.3</ele>
        <time>2020-06-15T14:53:05Z</time>
      </trkpt>
      <trkpt lat="49.49305" lon="-1.26418">
        <ele>3.2</ele>
        <time>2020-06-15T14:53:06Z</time>
      </trkpt>
      <trkpt lat="49.49301" lon="-1.26414">
        <ele>3.2</ele>
        <time>2020-06-15T14:53:07Z</time>
      </trkpt>
      <trkpt lat="49.49296" lon="-1.2641">
        <ele>3.2</ele>
        <time>2020-06-15T14:53:08Z</time>
      </trkpt>
      <trkpt lat="49.49291" lon="-1.26406">
        <ele>3.2</ele>
        <time>2020-06-15T14:53:09Z</time>
      </trkpt>
      <trkpt lat="49.49286" lon="-1.26403">
        <ele>3.2</ele>
        <time>2020-06-15T14:53:10Z</time>
      </trkpt>
      <trkpt lat="49.49282" lon="-1.26399">
        <ele>3.2</ele>
        <time>2020-06-15T14:53:11Z</time>
      </trkpt>
      <trkpt lat="49.49278" lon="-1.26395">
        <ele>3.1</ele>
        <time>2020-06-15T14:53:12Z</time>
      </trkpt>
      <trkpt lat="49.49273" lon="-1.26391">
        <ele>3.1</ele>
        <time>2020-06-15T14:53:13Z</time>
      </trkpt>
      <trkpt lat="49.49268" lon="-1.26387">
        <ele>3.1</ele>
        <time>2020-06-15T14:53:14Z</time>
      </trkpt>
      <trkpt lat="49.49263" lon="-1.26381">
        <ele>3.1</ele>
        <time>2020-06-15T14:53:15Z</time>
      </trkpt>
      <trkpt lat="49.49259" lon="-1.26377">
        <ele>3.1</ele>
        <time>2020-06-15T14:53:16Z</time>
      </trkpt>
      <trkpt lat="49.49254" lon="-1.26373">
        <ele>3.1</ele>
        <time>2020-06-15T14:53:17Z</time>
      </trkpt>
      <trkpt lat="49.4925" lon="-1.26368">
        <ele>3.1</ele>
        <time>2020-06-15T14:53:18Z</time>
      </trkpt>
      <trkpt lat="49.49245" lon="-1.26364">
        <ele>3.1</ele>
        <time>2020-06-15T14:53:19Z</time>
      </trkpt>
      <trkpt lat="49.4924" lon="-1.26359">
        <ele>3.1</ele>
        <time>2020-06-15T14:53:20Z</time>
      </trkpt>
      <trkpt lat="49.49236" lon="-1.26355">
        <ele>3.1</ele>
        <time>2020-06-15T14:53:21Z</time>
      </trkpt>
      <trkpt lat="49.4923" lon="-1.2635">
        <ele>3.2</ele>
        <time>2020-06-15T14:53:22Z</time>
      </trkpt>
      <trkpt lat="49.49225" lon="-1.26346">
        <ele>3.2</ele>
        <time>2020-06-15T14:53:23Z</time>
      </trkpt>
      <trkpt lat="49.4922" lon="-1.26342">
        <ele>3.2</ele>
        <time>2020-06-15T14:53:24Z</time>
      </trkpt>
      <trkpt lat="49.49215" lon="-1.26338">
        <ele>3.2</ele>
        <time>2020-06-15T14:53:25Z</time>
      </trkpt>
      <trkpt lat="49.4921" lon="-1.26334">
        <ele>3.2</ele>
        <time>2020-06-15T14:53:26Z</time>
      </trkpt>
      <trkpt lat="49.49205" lon="-1.2633">
        <ele>3.2</ele>
        <time>2020-06-15T14:53:27Z</time>
      </trkpt>
      <trkpt lat="49.492" lon="-1.26327">
        <ele>3.2</ele>
        <time>2020-06-15T14:53:28Z</time>
      </trkpt>
      <trkpt lat="49.49195" lon="-1.26323">
        <ele>3.1</ele>
        <time>2020-06-15T14:53:29Z</time>
      </trkpt>
      <trkpt lat="49.49191" lon="-1.26319">
        <ele>3.1</ele>
        <time>2020-06-15T14:53:30Z</time>
      </trkpt>
      <trkpt lat="49.49186" lon="-1.26315">
        <ele>3.1</ele>
        <time>2020-06-15T14:53:31Z</time>
      </trkpt>
      <trkpt lat="49.49182" lon="-1.26311">
        <ele>3.1</ele>
        <time>2020-06-15T14:53:32Z</time>
      </trkpt>
      <trkpt lat="49.49177" lon="-1.26307">
        <ele>3.1</ele>
        <time>2020-06-15T14:53:33Z</time>
      </trkpt>
      <trkpt lat="49.49172" lon="-1.26303">
        <ele>3.1</ele>
        <time>2020-06-15T14:53:34Z</time>
      </trkpt>
      <trkpt lat="49.49166" lon="-1.26299">
        <ele>3.2</ele>
        <time>2020-06-15T14:53:35Z</time>
      </trkpt>
      <trkpt lat="49.49161" lon="-1.26295">
        <ele>3.2</ele>
        <time>2020-06-15T14:53:36Z</time>
      </trkpt>
      <trkpt lat="49.49156" lon="-1.26292">
        <ele>3.2</ele>
        <time>2020-06-15T14:53:37Z</time>
      </trkpt>
      <trkpt lat="49.49152" lon="-1.26288">
        <ele>3.2</ele>
        <time>2020-06-15T14:53:38Z</time>
      </trkpt>
      <trkpt lat="49.49146" lon="-1.26284">
        <ele>3.2</ele>
        <time>2020-06-15T14:53:39Z</time>
      </trkpt>
      <trkpt lat="49.49141" lon="-1.2628">
        <ele>3.2</ele>
        <time>2020-06-15T14:53:40Z</time>
      </trkpt>
      <trkpt lat="49.49137" lon="-1.26276">
        <ele>3.2</ele>
        <time>2020-06-15T14:53:41Z</time>
      </trkpt>
      <trkpt lat="49.49132" lon="-1.26272">
        <ele>3.2</ele>
        <time>2020-06-15T14:53:42Z</time>
      </trkpt>
      <trkpt lat="49.49127" lon="-1.26268">
        <ele>3.1</ele>
        <time>2020-06-15T14:53:43Z</time>
      </trkpt>
      <trkpt lat="49.49123" lon="-1.26264">
        <ele>3.1</ele>
        <time>2020-06-15T14:53:44Z</time>
      </trkpt>
      <trkpt lat="49.49119" lon="-1.2626">
        <ele>3.1</ele>
        <time>2020-06-15T14:53:45Z</time>
      </trkpt>
      <trkpt lat="49.49113" lon="-1.26256">
        <ele>3.2</ele>
        <time>2020-06-15T14:53:46Z</time>
      </trkpt>
      <trkpt lat="49.49109" lon="-1.26252">
        <ele>3.2</ele>
        <time>2020-06-15T14:53:47Z</time>
      </trkpt>
      <trkpt lat="49.49104" lon="-1.26248">
        <ele>3.2</ele>
        <time>2020-06-15T14:53:48Z</time>
      </trkpt>
      <trkpt lat="49.49099" lon="-1.26244">
        <ele>3.2</ele>
        <time>2020-06-15T14:53:49Z</time>
      </trkpt>
      <trkpt lat="49.49094" lon="-1.2624">
        <ele>3.2</ele>
        <time>2020-06-15T14:53:50Z</time>
      </trkpt>
      <trkpt lat="49.49089" lon="-1.26236">
        <ele>3.3</ele>
        <time>2020-06-15T14:53:51Z</time>
      </trkpt>
      <trkpt lat="49.49084" lon="-1.26231">
        <ele>3.3</ele>
        <time>2020-06-15T14:53:52Z</time>
      </trkpt>
      <trkpt lat="49.49079" lon="-1.26226">
        <ele>3.3</ele>
        <time>2020-06-15T14:53:53Z</time>
      </trkpt>
      <trkpt lat="49.49075" lon="-1.26222">
        <ele>3.3</ele>
        <time>2020-06-15T14:53:54Z</time>
      </trkpt>
      <trkpt lat="49.4907" lon="-1.26217">
        <ele>3.3</ele>
        <time>2020-06-15T14:53:55Z</time>
      </trkpt>
      <trkpt lat="49.49065" lon="-1.26213">
        <ele>3.3</ele>
        <time>2020-06-15T14:53:56Z</time>
      </trkpt>
      <trkpt lat="49.4906" lon="-1.26208">
        <ele>3.3</ele>
        <time>2020-06-15T14:53:57Z</time>
      </trkpt>
      <trkpt lat="49.49056" lon="-1.26203">
        <ele>3.3</ele>
        <time>2020-06-15T14:53:58Z</time>
      </trkpt>
      <trkpt lat="49.49051" lon="-1.26198">
        <ele>3.3</ele>
        <time>2020-06-15T14:53:59Z</time>
      </trkpt>
      <trkpt lat="49.49046" lon="-1.26194">
        <ele>3.3</ele>
        <time>2020-06-15T14:54:00Z</time>
      </trkpt>
      <trkpt lat="49.49042" lon="-1.2619">
        <ele>3.3</ele>
        <time>2020-06-15T14:54:01Z</time>
      </trkpt>
      <trkpt lat="49.49037" lon="-1.26186">
        <ele>3.2</ele>
        <time>2020-06-15T14:54:02Z</time>
      </trkpt>
      <trkpt lat="49.49032" lon="-1.26181">
        <ele>3.2</ele>
        <time>2020-06-15T14:54:03Z</time>
      </trkpt>
      <trkpt lat="49.49027" lon="-1.26176">
        <ele>3.2</ele>
        <time>2020-06-15T14:54:04Z</time>
      </trkpt>
      <trkpt lat="49.49022" lon="-1.26172">
        <ele>3.2</ele>
        <time>2020-06-15T14:54:05Z</time>
      </trkpt>
      <trkpt lat="49.49018" lon="-1.26167">
        <ele>3.2</ele>
        <time>2020-06-15T14:54:06Z</time>
      </trkpt>
      <trkpt lat="49.49012" lon="-1.26162">
        <ele>3.2</ele>
        <time>2020-06-15T14:54:07Z</time>
      </trkpt>
      <trkpt lat="49.49007" lon="-1.26158">
        <ele>3.2</ele>
        <time>2020-06-15T14:54:08Z</time>
      </trkpt>
      <trkpt lat="49.49002" lon="-1.26154">
        <ele>3.2</ele>
        <time>2020-06-15T14:54:09Z</time>
      </trkpt>
      <trkpt lat="49.48997" lon="-1.26148">
        <ele>3.2</ele>
        <time>2020-06-15T14:54:10Z</time>
      </trkpt>
      <trkpt lat="49.48993" lon="-1.26143">
        <ele>3.2</ele>
        <time>2020-06-15T14:54:11Z</time>
      </trkpt>
      <trkpt lat="49.48988" lon="-1.26138">
        <ele>3.3</ele>
        <time>2020-06-15T14:54:12Z</time>
      </trkpt>
      <trkpt lat="49.48983" lon="-1.26133">
        <ele>3.3</ele>
        <time>2020-06-15T14:54:13Z</time>
      </trkpt>
      <trkpt lat="49.48978" lon="-1.26129">
        <ele>3.3</ele>
        <time>2020-06-15T14:54:14Z</time>
      </trkpt>
      <trkpt lat="49.48972" lon="-1.26124">
        <ele>3.3</ele>
        <time>2020-06-15T14:54:15Z</time>
      </trkpt>
      <trkpt lat="49.48967" lon="-1.2612">
        <ele>3.3</ele>
        <time>2020-06-15T14:54:16Z</time>
      </trkpt>
      <trkpt lat="49.48963" lon="-1.26116">
        <ele>3.3</ele>
        <time>2020-06-15T14:54:17Z</time>
      </trkpt>
      <trkpt lat="49.48957" lon="-1.26112">
        <ele>3.3</ele>
        <time>2020-06-15T14:54:18Z</time>
      </trkpt>
      <trkpt lat="49.48952" lon="-1.26107">
        <ele>3.3</ele>
        <time>2020-06-15T14:54:19Z</time>
      </trkpt>
      <trkpt lat="49.48947" lon="-1.26103">
        <ele>3.3</ele>
        <time>2020-06-15T14:54:20Z</time>
      </trkpt>
      <trkpt lat="49.48942" lon="-1.26099">
        <ele>3.3</ele>
        <time>2020-06-15T14:54:21Z</time>
      </trkpt>
      <trkpt lat="49.48937" lon="-1.26096">
        <ele>3.2</ele>
        <time>2020-06-15T14:54:22Z</time>
      </trkpt>
      <trkpt lat="49.48933" lon="-1.26092">
        <ele>3.2</ele>
        <time>2020-06-15T14:54:23Z</time>
      </trkpt>
      <trkpt lat="49.48927" lon="-1.26088">
        <ele>3.2</ele>
        <time>2020-06-15T14:54:24Z</time>
      </trkpt>
      <trkpt lat="49.48922" lon="-1.26084">
        <ele>3.2</ele>
        <time>2020-06-15T14:54:25Z</time>
      </trkpt>
      <trkpt lat="49.48917" lon="-1.2608">
        <ele>3.2</ele>
        <time>2020-06-15T14:54:26Z</time>
      </trkpt>
      <trkpt lat="49.48911" lon="-1.26077">
        <ele>3.2</ele>
        <time>2020-06-15T14:54:27Z</time>
      </trkpt>
      <trkpt lat="49.48906" lon="-1.26072">
        <ele>3.2</ele>
        <time>2020-06-15T14:54:28Z</time>
      </trkpt>
      <trkpt lat="49.489" lon="-1.26067">
        <ele>3.2</ele>
        <time>2020-06-15T14:54:29Z</time>
      </trkpt>
      <trkpt lat="49.48895" lon="-1.26063">
        <ele>3.1</ele>
        <time>2020-06-15T14:54:30Z</time>
      </trkpt>
      <trkpt lat="49.4889" lon="-1.2606">
        <ele>3</ele>
        <time>2020-06-15T14:54:31Z</time>
      </trkpt>
      <trkpt lat="49.48885" lon="-1.26059">
        <ele>3</ele>
        <time>2020-06-15T14:54:32Z</time>
      </trkpt>
      <trkpt lat="49.4888" lon="-1.26056">
        <ele>2.9</ele>
        <time>2020-06-15T14:54:33Z</time>
      </trkpt>
      <trkpt lat="49.48875" lon="-1.26053">
        <ele>2.9</ele>
        <time>2020-06-15T14:54:34Z</time>
      </trkpt>
      <trkpt lat="49.4887" lon="-1.2605">
        <ele>2.9</ele>
        <time>2020-06-15T14:54:35Z</time>
      </trkpt>
      <trkpt lat="49.48865" lon="-1.26049">
        <ele>2.8</ele>
        <time>2020-06-15T14:54:36Z</time>
      </trkpt>
      <trkpt lat="49.48859" lon="-1.26047">
        <ele>2.8</ele>
        <time>2020-06-15T14:54:37Z</time>
      </trkpt>
      <trkpt lat="49.48853" lon="-1.26047">
        <ele>2.7</ele>
        <time>2020-06-15T14:54:38Z</time>
      </trkpt>
      <trkpt lat="49.48847" lon="-1.26047">
        <ele>2.7</ele>
        <time>2020-06-15T14:54:39Z</time>
      </trkpt>
      <trkpt lat="49.48841" lon="-1.26046">
        <ele>2.7</ele>
        <time>2020-06-15T14:54:40Z</time>
      </trkpt>
      <trkpt lat="49.48835" lon="-1.26044">
        <ele>2.7</ele>
        <time>2020-06-15T14:54:41Z</time>
      </trkpt>
      <trkpt lat="49.4883" lon="-1.26043">
        <ele>2.7</ele>
        <time>2020-06-15T14:54:42Z</time>
      </trkpt>
      <trkpt lat="49.48824" lon="-1.26042">
        <ele>2.6</ele>
        <time>2020-06-15T14:54:43Z</time>
      </trkpt>
      <trkpt lat="49.48818" lon="-1.26041">
        <ele>2.6</ele>
        <time>2020-06-15T14:54:44Z</time>
      </trkpt>
      <trkpt lat="49.48812" lon="-1.26039">
        <ele>2.6</ele>
        <time>2020-06-15T14:54:45Z</time>
      </trkpt>
      <trkpt lat="49.48807" lon="-1.26038">
        <ele>2.6</ele>
        <time>2020-06-15T14:54:46Z</time>
      </trkpt>
      <trkpt lat="49.48801" lon="-1.26036">
        <ele>2.6</ele>
        <time>2020-06-15T14:54:47Z</time>
      </trkpt>
      <trkpt lat="49.48796" lon="-1.26034">
        <ele>2.5</ele>
        <time>2020-06-15T14:54:48Z</time>
      </trkpt>
      <trkpt lat="49.4879" lon="-1.26032">
        <ele>2.5</ele>
        <time>2020-06-15T14:54:49Z</time>
      </trkpt>
      <trkpt lat="49.48785" lon="-1.2603">
        <ele>2.5</ele>
        <time>2020-06-15T14:54:50Z</time>
      </trkpt>
      <trkpt lat="49.48779" lon="-1.26028">
        <ele>2.5</ele>
        <time>2020-06-15T14:54:51Z</time>
      </trkpt>
      <trkpt lat="49.48774" lon="-1.26025">
        <ele>2.4</ele>
        <time>2020-06-15T14:54:52Z</time>
      </trkpt>
      <trkpt lat="49.48768" lon="-1.26022">
        <ele>2.4</ele>
        <time>2020-06-15T14:54:53Z</time>
      </trkpt>
      <trkpt lat="49.48763" lon="-1.26019">
        <ele>2.4</ele>
        <time>2020-06-15T14:54:54Z</time>
      </trkpt>
      <trkpt lat="49.48758" lon="-1.26014">
        <ele>2.4</ele>
        <time>2020-06-15T14:54:55Z</time>
      </trkpt>
      <trkpt lat="49.48753" lon="-1.2601">
        <ele>2.4</ele>
        <time>2020-06-15T14:54:56Z</time>
      </trkpt>
      <trkpt lat="49.48747" lon="-1.26005">
        <ele>2.4</ele>
        <time>2020-06-15T14:54:57Z</time>
      </trkpt>
      <trkpt lat="49.48742" lon="-1.26002">
        <ele>2.4</ele>
        <time>2020-06-15T14:54:58Z</time>
      </trkpt>
      <trkpt lat="49.48737" lon="-1.25998">
        <ele>2.4</ele>
        <time>2020-06-15T14:54:59Z</time>
      </trkpt>
      <trkpt lat="49.48731" lon="-1.25994">
        <ele>2.4</ele>
        <time>2020-06-15T14:55:00Z</time>
      </trkpt>
      <trkpt lat="49.48726" lon="-1.25991">
        <ele>2.4</ele>
        <time>2020-06-15T14:55:01Z</time>
      </trkpt>
      <trkpt lat="49.48721" lon="-1.25987">
        <ele>2.4</ele>
        <time>2020-06-15T14:55:02Z</time>
      </trkpt>
      <trkpt lat="49.48717" lon="-1.25983">
        <ele>2.4</ele>
        <time>2020-06-15T14:55:03Z</time>
      </trkpt>
      <trkpt lat="49.48712" lon="-1.25979">
        <ele>2.4</ele>
        <time>2020-06-15T14:55:04Z</time>
      </trkpt>
      <trkpt lat="49.48707" lon="-1.25976">
        <ele>2.4</ele>
        <time>2020-06-15T14:55:05Z</time>
      </trkpt>
      <trkpt lat="49.487" lon="-1.2597">
        <ele>2.4</ele>
        <time>2020-06-15T14:55:06Z</time>
      </trkpt>
      <trkpt lat="49.48694" lon="-1.25967">
        <ele>2.4</ele>
        <time>2020-06-15T14:55:07Z</time>
      </trkpt>
      <trkpt lat="49.48689" lon="-1.25963">
        <ele>2.3</ele>
        <time>2020-06-15T14:55:08Z</time>
      </trkpt>
      <trkpt lat="49.48683" lon="-1.2596">
        <ele>2.3</ele>
        <time>2020-06-15T14:55:09Z</time>
      </trkpt>
      <trkpt lat="49.48677" lon="-1.25958">
        <ele>2.3</ele>
        <time>2020-06-15T14:55:10Z</time>
      </trkpt>
      <trkpt lat="49.4867" lon="-1.25957">
        <ele>2.3</ele>
        <time>2020-06-15T14:55:11Z</time>
      </trkpt>
      <trkpt lat="49.48664" lon="-1.25957">
        <ele>2.3</ele>
        <time>2020-06-15T14:55:12Z</time>
      </trkpt>
      <trkpt lat="49.48658" lon="-1.25956">
        <ele>2.3</ele>
        <time>2020-06-15T14:55:13Z</time>
      </trkpt>
      <trkpt lat="49.48652" lon="-1.25956">
        <ele>2.3</ele>
        <time>2020-06-15T14:55:14Z</time>
      </trkpt>
      <trkpt lat="49.48646" lon="-1.25956">
        <ele>2.3</ele>
        <time>2020-06-15T14:55:15Z</time>
      </trkpt>
      <trkpt lat="49.48641" lon="-1.25957">
        <ele>2.2</ele>
        <time>2020-06-15T14:55:16Z</time>
      </trkpt>
      <trkpt lat="49.48635" lon="-1.25959">
        <ele>2.2</ele>
        <time>2020-06-15T14:55:17Z</time>
      </trkpt>
      <trkpt lat="49.4863" lon="-1.25962">
        <ele>2.2</ele>
        <time>2020-06-15T14:55:18Z</time>
      </trkpt>
      <trkpt lat="49.48625" lon="-1.25965">
        <ele>2.2</ele>
        <time>2020-06-15T14:55:19Z</time>
      </trkpt>
      <trkpt lat="49.4862" lon="-1.25967">
        <ele>2.2</ele>
        <time>2020-06-15T14:55:20Z</time>
      </trkpt>
      <trkpt lat="49.48615" lon="-1.2597">
        <ele>2.2</ele>
        <time>2020-06-15T14:55:21Z</time>
      </trkpt>
      <trkpt lat="49.48609" lon="-1.25973">
        <ele>2.2</ele>
        <time>2020-06-15T14:55:22Z</time>
      </trkpt>
      <trkpt lat="49.48604" lon="-1.25975">
        <ele>2.2</ele>
        <time>2020-06-15T14:55:23Z</time>
      </trkpt>
      <trkpt lat="49.48598" lon="-1.25978">
        <ele>2.2</ele>
        <time>2020-06-15T14:55:24Z</time>
      </trkpt>
      <trkpt lat="49.48593" lon="-1.2598">
        <ele>2.2</ele>
        <time>2020-06-15T14:55:25Z</time>
      </trkpt>
      <trkpt lat="49.48587" lon="-1.25982">
        <ele>2.2</ele>
        <time>2020-06-15T14:55:26Z</time>
      </trkpt>
      <trkpt lat="49.48581" lon="-1.25985">
        <ele>2.2</ele>
        <time>2020-06-15T14:55:27Z</time>
      </trkpt>
      <trkpt lat="49.48575" lon="-1.25986">
        <ele>2.2</ele>
        <time>2020-06-15T14:55:28Z</time>
      </trkpt>
      <trkpt lat="49.4857" lon="-1.25988">
        <ele>2.2</ele>
        <time>2020-06-15T14:55:29Z</time>
      </trkpt>
      <trkpt lat="49.48564" lon="-1.25989">
        <ele>2.3</ele>
        <time>2020-06-15T14:55:30Z</time>
      </trkpt>
      <trkpt lat="49.48559" lon="-1.2599">
        <ele>2.3</ele>
        <time>2020-06-15T14:55:31Z</time>
      </trkpt>
      <trkpt lat="49.48554" lon="-1.2599">
        <ele>2.3</ele>
        <time>2020-06-15T14:55:32Z</time>
      </trkpt>
      <trkpt lat="49.48549" lon="-1.2599">
        <ele>2.3</ele>
        <time>2020-06-15T14:55:33Z</time>
      </trkpt>
      <trkpt lat="49.48543" lon="-1.2599">
        <ele>2.4</ele>
        <time>2020-06-15T14:55:34Z</time>
      </trkpt>
      <trkpt lat="49.48537" lon="-1.2599">
        <ele>2.4</ele>
        <time>2020-06-15T14:55:35Z</time>
      </trkpt>
      <trkpt lat="49.48531" lon="-1.25989">
        <ele>2.4</ele>
        <time>2020-06-15T14:55:36Z</time>
      </trkpt>
      <trkpt lat="49.48525" lon="-1.25988">
        <ele>2.4</ele>
        <time>2020-06-15T14:55:37Z</time>
      </trkpt>
      <trkpt lat="49.48519" lon="-1.25986">
        <ele>2.4</ele>
        <time>2020-06-15T14:55:38Z</time>
      </trkpt>
      <trkpt lat="49.48515" lon="-1.25983">
        <ele>2.5</ele>
        <time>2020-06-15T14:55:39Z</time>
      </trkpt>
      <trkpt lat="49.48509" lon="-1.25981">
        <ele>2.5</ele>
        <time>2020-06-15T14:55:40Z</time>
      </trkpt>
      <trkpt lat="49.48504" lon="-1.25979">
        <ele>2.5</ele>
        <time>2020-06-15T14:55:41Z</time>
      </trkpt>
      <trkpt lat="49.48498" lon="-1.25976">
        <ele>2.5</ele>
        <time>2020-06-15T14:55:42Z</time>
      </trkpt>
      <trkpt lat="49.48492" lon="-1.25974">
        <ele>2.6</ele>
        <time>2020-06-15T14:55:43Z</time>
      </trkpt>
      <trkpt lat="49.48487" lon="-1.25972">
        <ele>2.6</ele>
        <time>2020-06-15T14:55:44Z</time>
      </trkpt>
      <trkpt lat="49.48481" lon="-1.2597">
        <ele>2.6</ele>
        <time>2020-06-15T14:55:45Z</time>
      </trkpt>
      <trkpt lat="49.48475" lon="-1.25967">
        <ele>2.7</ele>
        <time>2020-06-15T14:55:46Z</time>
      </trkpt>
      <trkpt lat="49.48469" lon="-1.25965">
        <ele>2.7</ele>
        <time>2020-06-15T14:55:47Z</time>
      </trkpt>
      <trkpt lat="49.48464" lon="-1.25962">
        <ele>2.6</ele>
        <time>2020-06-15T14:55:48Z</time>
      </trkpt>
      <trkpt lat="49.48458" lon="-1.2596">
        <ele>2.6</ele>
        <time>2020-06-15T14:55:49Z</time>
      </trkpt>
      <trkpt lat="49.48452" lon="-1.25957">
        <ele>2.6</ele>
        <time>2020-06-15T14:55:50Z</time>
      </trkpt>
      <trkpt lat="49.48446" lon="-1.25954">
        <ele>2.6</ele>
        <time>2020-06-15T14:55:51Z</time>
      </trkpt>
      <trkpt lat="49.48441" lon="-1.25951">
        <ele>2.7</ele>
        <time>2020-06-15T14:55:52Z</time>
      </trkpt>
      <trkpt lat="49.48435" lon="-1.25949">
        <ele>2.7</ele>
        <time>2020-06-15T14:55:53Z</time>
      </trkpt>
      <trkpt lat="49.48429" lon="-1.25947">
        <ele>2.7</ele>
        <time>2020-06-15T14:55:54Z</time>
      </trkpt>
      <trkpt lat="49.48424" lon="-1.25944">
        <ele>2.8</ele>
        <time>2020-06-15T14:55:55Z</time>
      </trkpt>
      <trkpt lat="49.48418" lon="-1.25942">
        <ele>2.8</ele>
        <time>2020-06-15T14:55:56Z</time>
      </trkpt>
      <trkpt lat="49.48412" lon="-1.2594">
        <ele>2.8</ele>
        <time>2020-06-15T14:55:57Z</time>
      </trkpt>
      <trkpt lat="49.48406" lon="-1.25938">
        <ele>2.9</ele>
        <time>2020-06-15T14:55:58Z</time>
      </trkpt>
      <trkpt lat="49.484" lon="-1.25935">
        <ele>2.9</ele>
        <time>2020-06-15T14:55:59Z</time>
      </trkpt>
      <trkpt lat="49.48395" lon="-1.25932">
        <ele>2.9</ele>
        <time>2020-06-15T14:56:00Z</time>
      </trkpt>
      <trkpt lat="49.48389" lon="-1.25929">
        <ele>2.9</ele>
        <time>2020-06-15T14:56:01Z</time>
      </trkpt>
      <trkpt lat="49.48383" lon="-1.25927">
        <ele>2.8</ele>
        <time>2020-06-15T14:56:02Z</time>
      </trkpt>
      <trkpt lat="49.48378" lon="-1.25924">
        <ele>2.8</ele>
        <time>2020-06-15T14:56:03Z</time>
      </trkpt>
      <trkpt lat="49.48372" lon="-1.25922">
        <ele>2.8</ele>
        <time>2020-06-15T14:56:04Z</time>
      </trkpt>
      <trkpt lat="49.48366" lon="-1.25919">
        <ele>2.8</ele>
        <time>2020-06-15T14:56:05Z</time>
      </trkpt>
      <trkpt lat="49.4836" lon="-1.25916">
        <ele>2.8</ele>
        <time>2020-06-15T14:56:06Z</time>
      </trkpt>
      <trkpt lat="49.48353" lon="-1.25914">
        <ele>2.8</ele>
        <time>2020-06-15T14:56:07Z</time>
      </trkpt>
      <trkpt lat="49.48347" lon="-1.25912">
        <ele>2.8</ele>
        <time>2020-06-15T14:56:08Z</time>
      </trkpt>
      <trkpt lat="49.48342" lon="-1.25911">
        <ele>2.8</ele>
        <time>2020-06-15T14:56:09Z</time>
      </trkpt>
      <trkpt lat="49.48336" lon="-1.2591">
        <ele>2.8</ele>
        <time>2020-06-15T14:56:10Z</time>
      </trkpt>
      <trkpt lat="49.48331" lon="-1.25909">
        <ele>2.8</ele>
        <time>2020-06-15T14:56:11Z</time>
      </trkpt>
      <trkpt lat="49.48325" lon="-1.25909">
        <ele>2.7</ele>
        <time>2020-06-15T14:56:12Z</time>
      </trkpt>
      <trkpt lat="49.48319" lon="-1.25909">
        <ele>2.7</ele>
        <time>2020-06-15T14:56:13Z</time>
      </trkpt>
      <trkpt lat="49.48313" lon="-1.25908">
        <ele>2.7</ele>
        <time>2020-06-15T14:56:14Z</time>
      </trkpt>
      <trkpt lat="49.48307" lon="-1.25909">
        <ele>2.6</ele>
        <time>2020-06-15T14:56:15Z</time>
      </trkpt>
      <trkpt lat="49.48301" lon="-1.25909">
        <ele>2.6</ele>
        <time>2020-06-15T14:56:16Z</time>
      </trkpt>
      <trkpt lat="49.48295" lon="-1.2591">
        <ele>2.5</ele>
        <time>2020-06-15T14:56:17Z</time>
      </trkpt>
      <trkpt lat="49.48289" lon="-1.2591">
        <ele>2.5</ele>
        <time>2020-06-15T14:56:18Z</time>
      </trkpt>
      <trkpt lat="49.48283" lon="-1.25911">
        <ele>2.5</ele>
        <time>2020-06-15T14:56:19Z</time>
      </trkpt>
      <trkpt lat="49.48278" lon="-1.25911">
        <ele>2.5</ele>
        <time>2020-06-15T14:56:20Z</time>
      </trkpt>
      <trkpt lat="49.48272" lon="-1.25911">
        <ele>2.5</ele>
        <time>2020-06-15T14:56:21Z</time>
      </trkpt>
      <trkpt lat="49.48266" lon="-1.25912">
        <ele>2.5</ele>
        <time>2020-06-15T14:56:22Z</time>
      </trkpt>
      <trkpt lat="49.48259" lon="-1.25913">
        <ele>2.5</ele>
        <time>2020-06-15T14:56:23Z</time>
      </trkpt>
      <trkpt lat="49.48252" lon="-1.25913">
        <ele>2.5</ele>
        <time>2020-06-15T14:56:24Z</time>
      </trkpt>
      <trkpt lat="49.48246" lon="-1.25913">
        <ele>2.5</ele>
        <time>2020-06-15T14:56:25Z</time>
      </trkpt>
      <trkpt lat="49.4824" lon="-1.25914">
        <ele>2.5</ele>
        <time>2020-06-15T14:56:26Z</time>
      </trkpt>
      <trkpt lat="49.48234" lon="-1.25914">
        <ele>2.5</ele>
        <time>2020-06-15T14:56:27Z</time>
      </trkpt>
      <trkpt lat="49.48228" lon="-1.25914">
        <ele>2.5</ele>
        <time>2020-06-15T14:56:28Z</time>
      </trkpt>
      <trkpt lat="49.48222" lon="-1.25914">
        <ele>2.5</ele>
        <time>2020-06-15T14:56:29Z</time>
      </trkpt>
      <trkpt lat="49.48215" lon="-1.25914">
        <ele>2.5</ele>
        <time>2020-06-15T14:56:30Z</time>
      </trkpt>
      <trkpt lat="49.48209" lon="-1.25915">
        <ele>2.5</ele>
        <time>2020-06-15T14:56:31Z</time>
      </trkpt>
      <trkpt lat="49.48204" lon="-1.25916">
        <ele>2.5</ele>
        <time>2020-06-15T14:56:32Z</time>
      </trkpt>
      <trkpt lat="49.48198" lon="-1.25915">
        <ele>2.5</ele>
        <time>2020-06-15T14:56:33Z</time>
      </trkpt>
      <trkpt lat="49.48192" lon="-1.25915">
        <ele>2.5</ele>
        <time>2020-06-15T14:56:34Z</time>
      </trkpt>
      <trkpt lat="49.48186" lon="-1.25915">
        <ele>2.4</ele>
        <time>2020-06-15T14:56:35Z</time>
      </trkpt>
      <trkpt lat="49.4818" lon="-1.25914">
        <ele>2.4</ele>
        <time>2020-06-15T14:56:36Z</time>
      </trkpt>
      <trkpt lat="49.48174" lon="-1.25912">
        <ele>2.4</ele>
        <time>2020-06-15T14:56:37Z</time>
      </trkpt>
      <trkpt lat="49.48168" lon="-1.2591">
        <ele>2.5</ele>
        <time>2020-06-15T14:56:38Z</time>
      </trkpt>
      <trkpt lat="49.48163" lon="-1.25908">
        <ele>2.5</ele>
        <time>2020-06-15T14:56:39Z</time>
      </trkpt>
      <trkpt lat="49.48156" lon="-1.25906">
        <ele>2.5</ele>
        <time>2020-06-15T14:56:40Z</time>
      </trkpt>
      <trkpt lat="49.4815" lon="-1.25903">
        <ele>2.5</ele>
        <time>2020-06-15T14:56:41Z</time>
      </trkpt>
      <trkpt lat="49.48144" lon="-1.25901">
        <ele>2.5</ele>
        <time>2020-06-15T14:56:42Z</time>
      </trkpt>
      <trkpt lat="49.48139" lon="-1.25899">
        <ele>2.5</ele>
        <time>2020-06-15T14:56:43Z</time>
      </trkpt>
      <trkpt lat="49.48133" lon="-1.25896">
        <ele>2.5</ele>
        <time>2020-06-15T14:56:44Z</time>
      </trkpt>
      <trkpt lat="49.48127" lon="-1.25893">
        <ele>2.4</ele>
        <time>2020-06-15T14:56:45Z</time>
      </trkpt>
      <trkpt lat="49.48122" lon="-1.25889">
        <ele>2.4</ele>
        <time>2020-06-15T14:56:46Z</time>
      </trkpt>
      <trkpt lat="49.48117" lon="-1.25885">
        <ele>2.4</ele>
        <time>2020-06-15T14:56:47Z</time>
      </trkpt>
      <trkpt lat="49.48111" lon="-1.25881">
        <ele>2.4</ele>
        <time>2020-06-15T14:56:48Z</time>
      </trkpt>
      <trkpt lat="49.48105" lon="-1.25877">
        <ele>2.4</ele>
        <time>2020-06-15T14:56:49Z</time>
      </trkpt>
      <trkpt lat="49.481" lon="-1.25872">
        <ele>2.4</ele>
        <time>2020-06-15T14:56:50Z</time>
      </trkpt>
      <trkpt lat="49.48095" lon="-1.25868">
        <ele>2.4</ele>
        <time>2020-06-15T14:56:51Z</time>
      </trkpt>
      <trkpt lat="49.4809" lon="-1.25862">
        <ele>2.4</ele>
        <time>2020-06-15T14:56:52Z</time>
      </trkpt>
      <trkpt lat="49.48085" lon="-1.25857">
        <ele>2.4</ele>
        <time>2020-06-15T14:56:53Z</time>
      </trkpt>
      <trkpt lat="49.4808" lon="-1.25852">
        <ele>2.5</ele>
        <time>2020-06-15T14:56:54Z</time>
      </trkpt>
      <trkpt lat="49.48075" lon="-1.25846">
        <ele>2.5</ele>
        <time>2020-06-15T14:56:55Z</time>
      </trkpt>
      <trkpt lat="49.4807" lon="-1.25841">
        <ele>2.4</ele>
        <time>2020-06-15T14:56:56Z</time>
      </trkpt>
      <trkpt lat="49.48065" lon="-1.25836">
        <ele>2.4</ele>
        <time>2020-06-15T14:56:57Z</time>
      </trkpt>
      <trkpt lat="49.48061" lon="-1.25832">
        <ele>2.4</ele>
        <time>2020-06-15T14:56:58Z</time>
      </trkpt>
      <trkpt lat="49.48057" lon="-1.25827">
        <ele>2.4</ele>
        <time>2020-06-15T14:56:59Z</time>
      </trkpt>
      <trkpt lat="49.48052" lon="-1.2582">
        <ele>2.3</ele>
        <time>2020-06-15T14:57:00Z</time>
      </trkpt>
      <trkpt lat="49.48047" lon="-1.25814">
        <ele>2.3</ele>
        <time>2020-06-15T14:57:01Z</time>
      </trkpt>
      <trkpt lat="49.48041" lon="-1.25808">
        <ele>2.3</ele>
        <time>2020-06-15T14:57:02Z</time>
      </trkpt>
      <trkpt lat="49.48036" lon="-1.25801">
        <ele>2.3</ele>
        <time>2020-06-15T14:57:03Z</time>
      </trkpt>
      <trkpt lat="49.48031" lon="-1.25795">
        <ele>2.2</ele>
        <time>2020-06-15T14:57:04Z</time>
      </trkpt>
      <trkpt lat="49.48026" lon="-1.25789">
        <ele>2.2</ele>
        <time>2020-06-15T14:57:05Z</time>
      </trkpt>
      <trkpt lat="49.48021" lon="-1.25782">
        <ele>2.1</ele>
        <time>2020-06-15T14:57:06Z</time>
      </trkpt>
      <trkpt lat="49.48016" lon="-1.25775">
        <ele>2.1</ele>
        <time>2020-06-15T14:57:07Z</time>
      </trkpt>
      <trkpt lat="49.48011" lon="-1.25768">
        <ele>2</ele>
        <time>2020-06-15T14:57:08Z</time>
      </trkpt>
      <trkpt lat="49.48006" lon="-1.25761">
        <ele>2</ele>
        <time>2020-06-15T14:57:09Z</time>
      </trkpt>
      <trkpt lat="49.48" lon="-1.25755">
        <ele>1.9</ele>
        <time>2020-06-15T14:57:10Z</time>
      </trkpt>
      <trkpt lat="49.47995" lon="-1.25749">
        <ele>1.9</ele>
        <time>2020-06-15T14:57:11Z</time>
      </trkpt>
      <trkpt lat="49.4799" lon="-1.25742">
        <ele>1.9</ele>
        <time>2020-06-15T14:57:12Z</time>
      </trkpt>
      <trkpt lat="49.47984" lon="-1.25736">
        <ele>1.9</ele>
        <time>2020-06-15T14:57:13Z</time>
      </trkpt>
      <trkpt lat="49.47979" lon="-1.2573">
        <ele>1.8</ele>
        <time>2020-06-15T14:57:14Z</time>
      </trkpt>
      <trkpt lat="49.47975" lon="-1.25723">
        <ele>1.8</ele>
        <time>2020-06-15T14:57:15Z</time>
      </trkpt>
      <trkpt lat="49.47969" lon="-1.25717">
        <ele>1.8</ele>
        <time>2020-06-15T14:57:16Z</time>
      </trkpt>
      <trkpt lat="49.47965" lon="-1.25711">
        <ele>1.8</ele>
        <time>2020-06-15T14:57:17Z</time>
      </trkpt>
      <trkpt lat="49.4796" lon="-1.25704">
        <ele>1.8</ele>
        <time>2020-06-15T14:57:18Z</time>
      </trkpt>
      <trkpt lat="49.47955" lon="-1.25698">
        <ele>1.8</ele>
        <time>2020-06-15T14:57:19Z</time>
      </trkpt>
      <trkpt lat="49.4795" lon="-1.25691">
        <ele>1.8</ele>
        <time>2020-06-15T14:57:20Z</time>
      </trkpt>
      <trkpt lat="49.47945" lon="-1.25685">
        <ele>1.8</ele>
        <time>2020-06-15T14:57:21Z</time>
      </trkpt>
      <trkpt lat="49.4794" lon="-1.25679">
        <ele>1.9</ele>
        <time>2020-06-15T14:57:22Z</time>
      </trkpt>
      <trkpt lat="49.47935" lon="-1.25672">
        <ele>1.9</ele>
        <time>2020-06-15T14:57:23Z</time>
      </trkpt>
      <trkpt lat="49.4793" lon="-1.25665">
        <ele>2</ele>
        <time>2020-06-15T14:57:24Z</time>
      </trkpt>
      <trkpt lat="49.47925" lon="-1.2566">
        <ele>2</ele>
        <time>2020-06-15T14:57:25Z</time>
      </trkpt>
      <trkpt lat="49.4792" lon="-1.25653">
        <ele>1.9</ele>
        <time>2020-06-15T14:57:26Z</time>
      </trkpt>
      <trkpt lat="49.47915" lon="-1.25647">
        <ele>1.8</ele>
        <time>2020-06-15T14:57:27Z</time>
      </trkpt>
      <trkpt lat="49.4791" lon="-1.25641">
        <ele>1.8</ele>
        <time>2020-06-15T14:57:28Z</time>
      </trkpt>
      <trkpt lat="49.47905" lon="-1.25635">
        <ele>1.7</ele>
        <time>2020-06-15T14:57:29Z</time>
      </trkpt>
      <trkpt lat="49.479" lon="-1.25629">
        <ele>1.7</ele>
        <time>2020-06-15T14:57:30Z</time>
      </trkpt>
      <trkpt lat="49.47895" lon="-1.25624">
        <ele>1.6</ele>
        <time>2020-06-15T14:57:31Z</time>
      </trkpt>
      <trkpt lat="49.4789" lon="-1.25617">
        <ele>1.6</ele>
        <time>2020-06-15T14:57:32Z</time>
      </trkpt>
      <trkpt lat="49.47885" lon="-1.25611">
        <ele>1.6</ele>
        <time>2020-06-15T14:57:33Z</time>
      </trkpt>
      <trkpt lat="49.4788" lon="-1.25604">
        <ele>1.6</ele>
        <time>2020-06-15T14:57:34Z</time>
      </trkpt>
      <trkpt lat="49.47875" lon="-1.25597">
        <ele>1.7</ele>
        <time>2020-06-15T14:57:35Z</time>
      </trkpt>
      <trkpt lat="49.4787" lon="-1.25591">
        <ele>1.7</ele>
        <time>2020-06-15T14:57:36Z</time>
      </trkpt>
      <trkpt lat="49.47865" lon="-1.25585">
        <ele>1.7</ele>
        <time>2020-06-15T14:57:37Z</time>
      </trkpt>
      <trkpt lat="49.4786" lon="-1.25579">
        <ele>1.7</ele>
        <time>2020-06-15T14:57:38Z</time>
      </trkpt>
      <trkpt lat="49.47854" lon="-1.25573">
        <ele>1.8</ele>
        <time>2020-06-15T14:57:39Z</time>
      </trkpt>
      <trkpt lat="49.47848" lon="-1.25566">
        <ele>1.8</ele>
        <time>2020-06-15T14:57:40Z</time>
      </trkpt>
      <trkpt lat="49.47843" lon="-1.2556">
        <ele>1.8</ele>
        <time>2020-06-15T14:57:41Z</time>
      </trkpt>
      <trkpt lat="49.47838" lon="-1.25554">
        <ele>1.9</ele>
        <time>2020-06-15T14:57:42Z</time>
      </trkpt>
      <trkpt lat="49.47833" lon="-1.25548">
        <ele>1.9</ele>
        <time>2020-06-15T14:57:43Z</time>
      </trkpt>
      <trkpt lat="49.47827" lon="-1.25541">
        <ele>1.9</ele>
        <time>2020-06-15T14:57:44Z</time>
      </trkpt>
      <trkpt lat="49.47823" lon="-1.25536">
        <ele>1.9</ele>
        <time>2020-06-15T14:57:45Z</time>
      </trkpt>
      <trkpt lat="49.47818" lon="-1.2553">
        <ele>1.9</ele>
        <time>2020-06-15T14:57:46Z</time>
      </trkpt>
      <trkpt lat="49.47813" lon="-1.25524">
        <ele>2</ele>
        <time>2020-06-15T14:57:47Z</time>
      </trkpt>
      <trkpt lat="49.47807" lon="-1.25518">
        <ele>2</ele>
        <time>2020-06-15T14:57:48Z</time>
      </trkpt>
      <trkpt lat="49.47803" lon="-1.25513">
        <ele>2</ele>
        <time>2020-06-15T14:57:49Z</time>
      </trkpt>
      <trkpt lat="49.47799" lon="-1.25507">
        <ele>2</ele>
        <time>2020-06-15T14:57:50Z</time>
      </trkpt>
      <trkpt lat="49.47793" lon="-1.255">
        <ele>2</ele>
        <time>2020-06-15T14:57:51Z</time>
      </trkpt>
      <trkpt lat="49.47788" lon="-1.25495">
        <ele>2</ele>
        <time>2020-06-15T14:57:52Z</time>
      </trkpt>
      <trkpt lat="49.47783" lon="-1.25489">
        <ele>2</ele>
        <time>2020-06-15T14:57:53Z</time>
      </trkpt>
      <trkpt lat="49.47778" lon="-1.25483">
        <ele>2</ele>
        <time>2020-06-15T14:57:54Z</time>
      </trkpt>
      <trkpt lat="49.47773" lon="-1.25478">
        <ele>2</ele>
        <time>2020-06-15T14:57:55Z</time>
      </trkpt>
      <trkpt lat="49.47767" lon="-1.25472">
        <ele>2</ele>
        <time>2020-06-15T14:57:56Z</time>
      </trkpt>
      <trkpt lat="49.47762" lon="-1.25466">
        <ele>2</ele>
        <time>2020-06-15T14:57:57Z</time>
      </trkpt>
      <trkpt lat="49.47758" lon="-1.2546">
        <ele>2</ele>
        <time>2020-06-15T14:57:58Z</time>
      </trkpt>
      <trkpt lat="49.47753" lon="-1.25455">
        <ele>2</ele>
        <time>2020-06-15T14:57:59Z</time>
      </trkpt>
      <trkpt lat="49.47748" lon="-1.25449">
        <ele>1.9</ele>
        <time>2020-06-15T14:58:00Z</time>
      </trkpt>
      <trkpt lat="49.47742" lon="-1.25443">
        <ele>1.9</ele>
        <time>2020-06-15T14:58:01Z</time>
      </trkpt>
      <trkpt lat="49.47737" lon="-1.25437">
        <ele>1.9</ele>
        <time>2020-06-15T14:58:02Z</time>
      </trkpt>
      <trkpt lat="49.47732" lon="-1.25431">
        <ele>1.9</ele>
        <time>2020-06-15T14:58:03Z</time>
      </trkpt>
      <trkpt lat="49.47726" lon="-1.25426">
        <ele>1.9</ele>
        <time>2020-06-15T14:58:04Z</time>
      </trkpt>
      <trkpt lat="49.47721" lon="-1.2542">
        <ele>1.9</ele>
        <time>2020-06-15T14:58:05Z</time>
      </trkpt>
      <trkpt lat="49.47715" lon="-1.25415">
        <ele>1.9</ele>
        <time>2020-06-15T14:58:06Z</time>
      </trkpt>
      <trkpt lat="49.4771" lon="-1.25409">
        <ele>1.9</ele>
        <time>2020-06-15T14:58:07Z</time>
      </trkpt>
      <trkpt lat="49.47705" lon="-1.25404">
        <ele>1.9</ele>
        <time>2020-06-15T14:58:08Z</time>
      </trkpt>
      <trkpt lat="49.477" lon="-1.25399">
        <ele>1.9</ele>
        <time>2020-06-15T14:58:09Z</time>
      </trkpt>
      <trkpt lat="49.47694" lon="-1.25393">
        <ele>1.9</ele>
        <time>2020-06-15T14:58:10Z</time>
      </trkpt>
      <trkpt lat="49.47689" lon="-1.25387">
        <ele>1.9</ele>
        <time>2020-06-15T14:58:11Z</time>
      </trkpt>
      <trkpt lat="49.47683" lon="-1.25382">
        <ele>1.9</ele>
        <time>2020-06-15T14:58:12Z</time>
      </trkpt>
      <trkpt lat="49.47678" lon="-1.25377">
        <ele>1.9</ele>
        <time>2020-06-15T14:58:13Z</time>
      </trkpt>
      <trkpt lat="49.47672" lon="-1.25372">
        <ele>1.9</ele>
        <time>2020-06-15T14:58:14Z</time>
      </trkpt>
      <trkpt lat="49.47667" lon="-1.25367">
        <ele>1.9</ele>
        <time>2020-06-15T14:58:15Z</time>
      </trkpt>
      <trkpt lat="49.47662" lon="-1.25362">
        <ele>1.9</ele>
        <time>2020-06-15T14:58:16Z</time>
      </trkpt>
      <trkpt lat="49.47656" lon="-1.25358">
        <ele>1.8</ele>
        <time>2020-06-15T14:58:17Z</time>
      </trkpt>
      <trkpt lat="49.4765" lon="-1.25353">
        <ele>1.8</ele>
        <time>2020-06-15T14:58:18Z</time>
      </trkpt>
      <trkpt lat="49.47644" lon="-1.25349">
        <ele>1.8</ele>
        <time>2020-06-15T14:58:19Z</time>
      </trkpt>
      <trkpt lat="49.47639" lon="-1.25344">
        <ele>1.8</ele>
        <time>2020-06-15T14:58:20Z</time>
      </trkpt>
      <trkpt lat="49.47633" lon="-1.25339">
        <ele>1.9</ele>
        <time>2020-06-15T14:58:21Z</time>
      </trkpt>
      <trkpt lat="49.47627" lon="-1.25334">
        <ele>1.9</ele>
        <time>2020-06-15T14:58:22Z</time>
      </trkpt>
      <trkpt lat="49.47621" lon="-1.2533">
        <ele>1.9</ele>
        <time>2020-06-15T14:58:23Z</time>
      </trkpt>
      <trkpt lat="49.47615" lon="-1.25325">
        <ele>1.9</ele>
        <time>2020-06-15T14:58:24Z</time>
      </trkpt>
      <trkpt lat="49.47609" lon="-1.2532">
        <ele>1.8</ele>
        <time>2020-06-15T14:58:25Z</time>
      </trkpt>
      <trkpt lat="49.47603" lon="-1.25316">
        <ele>1.8</ele>
        <time>2020-06-15T14:58:26Z</time>
      </trkpt>
      <trkpt lat="49.47597" lon="-1.25311">
        <ele>1.8</ele>
        <time>2020-06-15T14:58:27Z</time>
      </trkpt>
      <trkpt lat="49.47591" lon="-1.25307">
        <ele>1.8</ele>
        <time>2020-06-15T14:58:28Z</time>
      </trkpt>
      <trkpt lat="49.47586" lon="-1.25303">
        <ele>1.7</ele>
        <time>2020-06-15T14:58:29Z</time>
      </trkpt>
      <trkpt lat="49.4758" lon="-1.25298">
        <ele>1.7</ele>
        <time>2020-06-15T14:58:30Z</time>
      </trkpt>
      <trkpt lat="49.47575" lon="-1.25294">
        <ele>1.7</ele>
        <time>2020-06-15T14:58:31Z</time>
      </trkpt>
      <trkpt lat="49.4757" lon="-1.2529">
        <ele>1.7</ele>
        <time>2020-06-15T14:58:32Z</time>
      </trkpt>
      <trkpt lat="49.47564" lon="-1.25286">
        <ele>1.7</ele>
        <time>2020-06-15T14:58:33Z</time>
      </trkpt>
      <trkpt lat="49.47558" lon="-1.25283">
        <ele>1.7</ele>
        <time>2020-06-15T14:58:34Z</time>
      </trkpt>
      <trkpt lat="49.47551" lon="-1.25278">
        <ele>1.7</ele>
        <time>2020-06-15T14:58:35Z</time>
      </trkpt>
      <trkpt lat="49.47545" lon="-1.25274">
        <ele>1.7</ele>
        <time>2020-06-15T14:58:36Z</time>
      </trkpt>
      <trkpt lat="49.47539" lon="-1.25269">
        <ele>1.7</ele>
        <time>2020-06-15T14:58:37Z</time>
      </trkpt>
      <trkpt lat="49.47533" lon="-1.25265">
        <ele>1.7</ele>
        <time>2020-06-15T14:58:38Z</time>
      </trkpt>
      <trkpt lat="49.47526" lon="-1.2526">
        <ele>1.7</ele>
        <time>2020-06-15T14:58:39Z</time>
      </trkpt>
      <trkpt lat="49.47519" lon="-1.25255">
        <ele>1.6</ele>
        <time>2020-06-15T14:58:40Z</time>
      </trkpt>
      <trkpt lat="49.47512" lon="-1.2525">
        <ele>1.6</ele>
        <time>2020-06-15T14:58:41Z</time>
      </trkpt>
      <trkpt lat="49.47506" lon="-1.25247">
        <ele>1.6</ele>
        <time>2020-06-15T14:58:42Z</time>
      </trkpt>
      <trkpt lat="49.475" lon="-1.25242">
        <ele>1.7</ele>
        <time>2020-06-15T14:58:43Z</time>
      </trkpt>
      <trkpt lat="49.47494" lon="-1.25238">
        <ele>1.7</ele>
        <time>2020-06-15T14:58:44Z</time>
      </trkpt>
      <trkpt lat="49.47487" lon="-1.25235">
        <ele>1.7</ele>
        <time>2020-06-15T14:58:45Z</time>
      </trkpt>
      <trkpt lat="49.47481" lon="-1.2523">
        <ele>1.7</ele>
        <time>2020-06-15T14:58:46Z</time>
      </trkpt>
      <trkpt lat="49.47474" lon="-1.25226">
        <ele>1.8</ele>
        <time>2020-06-15T14:58:47Z</time>
      </trkpt>
      <trkpt lat="49.47468" lon="-1.25222">
        <ele>1.7</ele>
        <time>2020-06-15T14:58:48Z</time>
      </trkpt>
      <trkpt lat="49.47461" lon="-1.25218">
        <ele>1.7</ele>
        <time>2020-06-15T14:58:49Z</time>
      </trkpt>
      <trkpt lat="49.47455" lon="-1.25215">
        <ele>1.7</ele>
        <time>2020-06-15T14:58:50Z</time>
      </trkpt>
      <trkpt lat="49.4745" lon="-1.25211">
        <ele>1.7</ele>
        <time>2020-06-15T14:58:51Z</time>
      </trkpt>
      <trkpt lat="49.47444" lon="-1.25207">
        <ele>1.7</ele>
        <time>2020-06-15T14:58:52Z</time>
      </trkpt>
      <trkpt lat="49.47438" lon="-1.25204">
        <ele>1.7</ele>
        <time>2020-06-15T14:58:53Z</time>
      </trkpt>
      <trkpt lat="49.47432" lon="-1.252">
        <ele>1.7</ele>
        <time>2020-06-15T14:58:54Z</time>
      </trkpt>
      <trkpt lat="49.47425" lon="-1.25195">
        <ele>1.7</ele>
        <time>2020-06-15T14:58:55Z</time>
      </trkpt>
      <trkpt lat="49.47419" lon="-1.25192">
        <ele>1.7</ele>
        <time>2020-06-15T14:58:56Z</time>
      </trkpt>
      <trkpt lat="49.47413" lon="-1.25188">
        <ele>1.7</ele>
        <time>2020-06-15T14:58:57Z</time>
      </trkpt>
      <trkpt lat="49.47407" lon="-1.25184">
        <ele>1.7</ele>
        <time>2020-06-15T14:58:58Z</time>
      </trkpt>
      <trkpt lat="49.47401" lon="-1.2518">
        <ele>1.7</ele>
        <time>2020-06-15T14:58:59Z</time>
      </trkpt>
      <trkpt lat="49.47395" lon="-1.25176">
        <ele>1.8</ele>
        <time>2020-06-15T14:59:00Z</time>
      </trkpt>
      <trkpt lat="49.47389" lon="-1.25172">
        <ele>1.8</ele>
        <time>2020-06-15T14:59:01Z</time>
      </trkpt>
      <trkpt lat="49.47384" lon="-1.25168">
        <ele>1.8</ele>
        <time>2020-06-15T14:59:02Z</time>
      </trkpt>
      <trkpt lat="49.47378" lon="-1.25165">
        <ele>1.8</ele>
        <time>2020-06-15T14:59:03Z</time>
      </trkpt>
      <trkpt lat="49.47372" lon="-1.25161">
        <ele>1.8</ele>
        <time>2020-06-15T14:59:04Z</time>
      </trkpt>
      <trkpt lat="49.47366" lon="-1.25157">
        <ele>1.8</ele>
        <time>2020-06-15T14:59:05Z</time>
      </trkpt>
      <trkpt lat="49.47361" lon="-1.25154">
        <ele>1.8</ele>
        <time>2020-06-15T14:59:06Z</time>
      </trkpt>
      <trkpt lat="49.47355" lon="-1.2515">
        <ele>1.8</ele>
        <time>2020-06-15T14:59:07Z</time>
      </trkpt>
      <trkpt lat="49.47349" lon="-1.25147">
        <ele>1.8</ele>
        <time>2020-06-15T14:59:08Z</time>
      </trkpt>
      <trkpt lat="49.47343" lon="-1.25143">
        <ele>1.8</ele>
        <time>2020-06-15T14:59:09Z</time>
      </trkpt>
      <trkpt lat="49.47337" lon="-1.2514">
        <ele>1.8</ele>
        <time>2020-06-15T14:59:10Z</time>
      </trkpt>
      <trkpt lat="49.47332" lon="-1.25137">
        <ele>1.8</ele>
        <time>2020-06-15T14:59:11Z</time>
      </trkpt>
      <trkpt lat="49.47326" lon="-1.25133">
        <ele>1.8</ele>
        <time>2020-06-15T14:59:12Z</time>
      </trkpt>
      <trkpt lat="49.4732" lon="-1.25129">
        <ele>1.8</ele>
        <time>2020-06-15T14:59:13Z</time>
      </trkpt>
      <trkpt lat="49.47314" lon="-1.25126">
        <ele>1.8</ele>
        <time>2020-06-15T14:59:14Z</time>
      </trkpt>
      <trkpt lat="49.47309" lon="-1.25123">
        <ele>1.8</ele>
        <time>2020-06-15T14:59:15Z</time>
      </trkpt>
      <trkpt lat="49.47302" lon="-1.25119">
        <ele>1.9</ele>
        <time>2020-06-15T14:59:16Z</time>
      </trkpt>
      <trkpt lat="49.47296" lon="-1.25116">
        <ele>2</ele>
        <time>2020-06-15T14:59:17Z</time>
      </trkpt>
      <trkpt lat="49.4729" lon="-1.25112">
        <ele>1.9</ele>
        <time>2020-06-15T14:59:18Z</time>
      </trkpt>
      <trkpt lat="49.47284" lon="-1.25108">
        <ele>1.8</ele>
        <time>2020-06-15T14:59:19Z</time>
      </trkpt>
      <trkpt lat="49.47278" lon="-1.25104">
        <ele>1.7</ele>
        <time>2020-06-15T14:59:20Z</time>
      </trkpt>
      <trkpt lat="49.47272" lon="-1.251">
        <ele>1.7</ele>
        <time>2020-06-15T14:59:21Z</time>
      </trkpt>
      <trkpt lat="49.47267" lon="-1.25096">
        <ele>1.7</ele>
        <time>2020-06-15T14:59:22Z</time>
      </trkpt>
      <trkpt lat="49.47262" lon="-1.25092">
        <ele>1.7</ele>
        <time>2020-06-15T14:59:23Z</time>
      </trkpt>
      <trkpt lat="49.47257" lon="-1.25089">
        <ele>1.6</ele>
        <time>2020-06-15T14:59:24Z</time>
      </trkpt>
      <trkpt lat="49.47252" lon="-1.25085">
        <ele>1.6</ele>
        <time>2020-06-15T14:59:25Z</time>
      </trkpt>
      <trkpt lat="49.47246" lon="-1.2508">
        <ele>1.6</ele>
        <time>2020-06-15T14:59:26Z</time>
      </trkpt>
      <trkpt lat="49.47241" lon="-1.25076">
        <ele>1.6</ele>
        <time>2020-06-15T14:59:27Z</time>
      </trkpt>
      <trkpt lat="49.47236" lon="-1.25071">
        <ele>1.5</ele>
        <time>2020-06-15T14:59:28Z</time>
      </trkpt>
      <trkpt lat="49.47231" lon="-1.25066">
        <ele>1.5</ele>
        <time>2020-06-15T14:59:29Z</time>
      </trkpt>
      <trkpt lat="49.47225" lon="-1.25061">
        <ele>1.5</ele>
        <time>2020-06-15T14:59:30Z</time>
      </trkpt>
      <trkpt lat="49.47219" lon="-1.25056">
        <ele>1.4</ele>
        <time>2020-06-15T14:59:31Z</time>
      </trkpt>
      <trkpt lat="49.47214" lon="-1.2505">
        <ele>1.4</ele>
        <time>2020-06-15T14:59:32Z</time>
      </trkpt>
      <trkpt lat="49.47209" lon="-1.25043">
        <ele>1.3</ele>
        <time>2020-06-15T14:59:33Z</time>
      </trkpt>
      <trkpt lat="49.47203" lon="-1.25036">
        <ele>1.3</ele>
        <time>2020-06-15T14:59:34Z</time>
      </trkpt>
      <trkpt lat="49.47199" lon="-1.25031">
        <ele>1.3</ele>
        <time>2020-06-15T14:59:35Z</time>
      </trkpt>
      <trkpt lat="49.47194" lon="-1.25024">
        <ele>1.3</ele>
        <time>2020-06-15T14:59:36Z</time>
      </trkpt>
      <trkpt lat="49.47188" lon="-1.25018">
        <ele>1.3</ele>
        <time>2020-06-15T14:59:37Z</time>
      </trkpt>
      <trkpt lat="49.47182" lon="-1.25012">
        <ele>1.3</ele>
        <time>2020-06-15T14:59:38Z</time>
      </trkpt>
      <trkpt lat="49.47177" lon="-1.25005">
        <ele>1.3</ele>
        <time>2020-06-15T14:59:39Z</time>
      </trkpt>
      <trkpt lat="49.47172" lon="-1.25">
        <ele>1.3</ele>
        <time>2020-06-15T14:59:40Z</time>
      </trkpt>
      <trkpt lat="49.47168" lon="-1.24994">
        <ele>1.4</ele>
        <time>2020-06-15T14:59:41Z</time>
      </trkpt>
      <trkpt lat="49.47162" lon="-1.24987">
        <ele>1.4</ele>
        <time>2020-06-15T14:59:42Z</time>
      </trkpt>
      <trkpt lat="49.47157" lon="-1.24981">
        <ele>1.4</ele>
        <time>2020-06-15T14:59:43Z</time>
      </trkpt>
      <trkpt lat="49.47152" lon="-1.24974">
        <ele>1.4</ele>
        <time>2020-06-15T14:59:44Z</time>
      </trkpt>
      <trkpt lat="49.47148" lon="-1.24968">
        <ele>1.4</ele>
        <time>2020-06-15T14:59:45Z</time>
      </trkpt>
      <trkpt lat="49.47143" lon="-1.24961">
        <ele>1.4</ele>
        <time>2020-06-15T14:59:46Z</time>
      </trkpt>
      <trkpt lat="49.47139" lon="-1.24954">
        <ele>1.4</ele>
        <time>2020-06-15T14:59:47Z</time>
      </trkpt>
      <trkpt lat="49.47135" lon="-1.24948">
        <ele>1.5</ele>
        <time>2020-06-15T14:59:48Z</time>
      </trkpt>
      <trkpt lat="49.47131" lon="-1.24942">
        <ele>1.5</ele>
        <time>2020-06-15T14:59:49Z</time>
      </trkpt>
      <trkpt lat="49.47127" lon="-1.24937">
        <ele>1.6</ele>
        <time>2020-06-15T14:59:50Z</time>
      </trkpt>
      <trkpt lat="49.47123" lon="-1.24932">
        <ele>1.6</ele>
        <time>2020-06-15T14:59:51Z</time>
      </trkpt>
      <trkpt lat="49.47119" lon="-1.24928">
        <ele>1.7</ele>
        <time>2020-06-15T14:59:52Z</time>
      </trkpt>
      <trkpt lat="49.47115" lon="-1.24923">
        <ele>1.7</ele>
        <time>2020-06-15T14:59:53Z</time>
      </trkpt>
      <trkpt lat="49.47111" lon="-1.24918">
        <ele>1.8</ele>
        <time>2020-06-15T14:59:54Z</time>
      </trkpt>
      <trkpt lat="49.47106" lon="-1.24914">
        <ele>1.8</ele>
        <time>2020-06-15T14:59:55Z</time>
      </trkpt>
      <trkpt lat="49.47103" lon="-1.2491">
        <ele>1.9</ele>
        <time>2020-06-15T14:59:56Z</time>
      </trkpt>
      <trkpt lat="49.471" lon="-1.24905">
        <ele>2</ele>
        <time>2020-06-15T14:59:57Z</time>
      </trkpt>
      <trkpt lat="49.47098" lon="-1.24901">
        <ele>2</ele>
        <time>2020-06-15T14:59:58Z</time>
      </trkpt>
      <trkpt lat="49.47099" lon="-1.24896">
        <ele>2</ele>
        <time>2020-06-15T14:59:59Z</time>
      </trkpt>
      <trkpt lat="49.471" lon="-1.2489">
        <ele>2</ele>
        <time>2020-06-15T15:00:00Z</time>
      </trkpt>
      <trkpt lat="49.47101" lon="-1.24884">
        <ele>1.9</ele>
        <time>2020-06-15T15:00:01Z</time>
      </trkpt>
      <trkpt lat="49.47104" lon="-1.24878">
        <ele>1.9</ele>
        <time>2020-06-15T15:00:02Z</time>
      </trkpt>
      <trkpt lat="49.47107" lon="-1.24872">
        <ele>1.9</ele>
        <time>2020-06-15T15:00:03Z</time>
      </trkpt>
      <trkpt lat="49.47109" lon="-1.24866">
        <ele>1.9</ele>
        <time>2020-06-15T15:00:04Z</time>
      </trkpt>
      <trkpt lat="49.47113" lon="-1.2486">
        <ele>1.8</ele>
        <time>2020-06-15T15:00:05Z</time>
      </trkpt>
      <trkpt lat="49.47116" lon="-1.24854">
        <ele>1.8</ele>
        <time>2020-06-15T15:00:06Z</time>
      </trkpt>
      <trkpt lat="49.4712" lon="-1.24846">
        <ele>1.8</ele>
        <time>2020-06-15T15:00:07Z</time>
      </trkpt>
      <trkpt lat="49.47123" lon="-1.24839">
        <ele>1.8</ele>
        <time>2020-06-15T15:00:08Z</time>
      </trkpt>
      <trkpt lat="49.47126" lon="-1.24832">
        <ele>1.9</ele>
        <time>2020-06-15T15:00:09Z</time>
      </trkpt>
      <trkpt lat="49.47129" lon="-1.24827">
        <ele>1.9</ele>
        <time>2020-06-15T15:00:10Z</time>
      </trkpt>
      <trkpt lat="49.47132" lon="-1.24821">
        <ele>1.9</ele>
        <time>2020-06-15T15:00:11Z</time>
      </trkpt>
      <trkpt lat="49.47136" lon="-1.24815">
        <ele>1.9</ele>
        <time>2020-06-15T15:00:12Z</time>
      </trkpt>
      <trkpt lat="49.47139" lon="-1.24808">
        <ele>2</ele>
        <time>2020-06-15T15:00:13Z</time>
      </trkpt>
      <trkpt lat="49.47143" lon="-1.24802">
        <ele>2</ele>
        <time>2020-06-15T15:00:14Z</time>
      </trkpt>
      <trkpt lat="49.47146" lon="-1.24795">
        <ele>2.1</ele>
        <time>2020-06-15T15:00:15Z</time>
      </trkpt>
      <trkpt lat="49.4715" lon="-1.24788">
        <ele>2.1</ele>
        <time>2020-06-15T15:00:16Z</time>
      </trkpt>
      <trkpt lat="49.47153" lon="-1.2478">
        <ele>2.2</ele>
        <time>2020-06-15T15:00:17Z</time>
      </trkpt>
      <trkpt lat="49.47156" lon="-1.24773">
        <ele>2.2</ele>
        <time>2020-06-15T15:00:18Z</time>
      </trkpt>
      <trkpt lat="49.47159" lon="-1.24766">
        <ele>2.3</ele>
        <time>2020-06-15T15:00:19Z</time>
      </trkpt>
      <trkpt lat="49.47162" lon="-1.2476">
        <ele>2.3</ele>
        <time>2020-06-15T15:00:20Z</time>
      </trkpt>
      <trkpt lat="49.47165" lon="-1.24752">
        <ele>2.3</ele>
        <time>2020-06-15T15:00:21Z</time>
      </trkpt>
      <trkpt lat="49.47168" lon="-1.24746">
        <ele>2.3</ele>
        <time>2020-06-15T15:00:22Z</time>
      </trkpt>
      <trkpt lat="49.47172" lon="-1.24738">
        <ele>2.2</ele>
        <time>2020-06-15T15:00:23Z</time>
      </trkpt>
      <trkpt lat="49.47175" lon="-1.24731">
        <ele>2.2</ele>
        <time>2020-06-15T15:00:24Z</time>
      </trkpt>
      <trkpt lat="49.47178" lon="-1.24725">
        <ele>2.2</ele>
        <time>2020-06-15T15:00:25Z</time>
      </trkpt>
      <trkpt lat="49.47182" lon="-1.24717">
        <ele>2.2</ele>
        <time>2020-06-15T15:00:26Z</time>
      </trkpt>
      <trkpt lat="49.47186" lon="-1.24709">
        <ele>2.2</ele>
        <time>2020-06-15T15:00:27Z</time>
      </trkpt>
      <trkpt lat="49.47189" lon="-1.24702">
        <ele>2.2</ele>
        <time>2020-06-15T15:00:28Z</time>
      </trkpt>
      <trkpt lat="49.47192" lon="-1.24694">
        <ele>2.1</ele>
        <time>2020-06-15T15:00:29Z</time>
      </trkpt>
      <trkpt lat="49.47196" lon="-1.24687">
        <ele>2.1</ele>
        <time>2020-06-15T15:00:30Z</time>
      </trkpt>
      <trkpt lat="49.47199" lon="-1.24679">
        <ele>2.1</ele>
        <time>2020-06-15T15:00:31Z</time>
      </trkpt>
      <trkpt lat="49.47203" lon="-1.24671">
        <ele>2.1</ele>
        <time>2020-06-15T15:00:32Z</time>
      </trkpt>
      <trkpt lat="49.47207" lon="-1.24663">
        <ele>2.1</ele>
        <time>2020-06-15T15:00:33Z</time>
      </trkpt>
      <trkpt lat="49.47211" lon="-1.24655">
        <ele>2.1</ele>
        <time>2020-06-15T15:00:34Z</time>
      </trkpt>
      <trkpt lat="49.47214" lon="-1.24648">
        <ele>2.1</ele>
        <time>2020-06-15T15:00:35Z</time>
      </trkpt>
      <trkpt lat="49.47218" lon="-1.2464">
        <ele>2.1</ele>
        <time>2020-06-15T15:00:36Z</time>
      </trkpt>
      <trkpt lat="49.47222" lon="-1.24633">
        <ele>2.1</ele>
        <time>2020-06-15T15:00:37Z</time>
      </trkpt>
      <trkpt lat="49.47225" lon="-1.24626">
        <ele>2.1</ele>
        <time>2020-06-15T15:00:38Z</time>
      </trkpt>
      <trkpt lat="49.47228" lon="-1.24617">
        <ele>2</ele>
        <time>2020-06-15T15:00:39Z</time>
      </trkpt>
      <trkpt lat="49.47232" lon="-1.24609">
        <ele>2</ele>
        <time>2020-06-15T15:00:40Z</time>
      </trkpt>
      <trkpt lat="49.47235" lon="-1.24601">
        <ele>2</ele>
        <time>2020-06-15T15:00:41Z</time>
      </trkpt>
      <trkpt lat="49.47238" lon="-1.24594">
        <ele>2</ele>
        <time>2020-06-15T15:00:42Z</time>
      </trkpt>
      <trkpt lat="49.47242" lon="-1.24587">
        <ele>2.1</ele>
        <time>2020-06-15T15:00:43Z</time>
      </trkpt>
      <trkpt lat="49.47245" lon="-1.2458">
        <ele>2.1</ele>
        <time>2020-06-15T15:00:44Z</time>
      </trkpt>
      <trkpt lat="49.47249" lon="-1.24573">
        <ele>2.1</ele>
        <time>2020-06-15T15:00:45Z</time>
      </trkpt>
      <trkpt lat="49.47252" lon="-1.24566">
        <ele>2.2</ele>
        <time>2020-06-15T15:00:46Z</time>
      </trkpt>
      <trkpt lat="49.47256" lon="-1.24558">
        <ele>2.2</ele>
        <time>2020-06-15T15:00:47Z</time>
      </trkpt>
      <trkpt lat="49.47258" lon="-1.2455">
        <ele>2.2</ele>
        <time>2020-06-15T15:00:48Z</time>
      </trkpt>
      <trkpt lat="49.47264" lon="-1.24545">
        <ele>2.3</ele>
        <time>2020-06-15T15:00:49Z</time>
      </trkpt>
      <trkpt lat="49.47267" lon="-1.24537">
        <ele>2.2</ele>
        <time>2020-06-15T15:00:50Z</time>
      </trkpt>
      <trkpt lat="49.4727" lon="-1.2453">
        <ele>2.2</ele>
        <time>2020-06-15T15:00:51Z</time>
      </trkpt>
      <trkpt lat="49.47273" lon="-1.24522">
        <ele>2.2</ele>
        <time>2020-06-15T15:00:52Z</time>
      </trkpt>
      <trkpt lat="49.47277" lon="-1.24514">
        <ele>2.2</ele>
        <time>2020-06-15T15:00:53Z</time>
      </trkpt>
      <trkpt lat="49.4728" lon="-1.24507">
        <ele>2.2</ele>
        <time>2020-06-15T15:00:54Z</time>
      </trkpt>
      <trkpt lat="49.47283" lon="-1.24501">
        <ele>2.2</ele>
        <time>2020-06-15T15:00:55Z</time>
      </trkpt>
      <trkpt lat="49.47286" lon="-1.24495">
        <ele>2.3</ele>
        <time>2020-06-15T15:00:56Z</time>
      </trkpt>
      <trkpt lat="49.47289" lon="-1.24489">
        <ele>2.3</ele>
        <time>2020-06-15T15:00:57Z</time>
      </trkpt>
      <trkpt lat="49.47293" lon="-1.24483">
        <ele>2.3</ele>
        <time>2020-06-15T15:00:58Z</time>
      </trkpt>
      <trkpt lat="49.47296" lon="-1.24476">
        <ele>2.4</ele>
        <time>2020-06-15T15:00:59Z</time>
      </trkpt>
      <trkpt lat="49.47299" lon="-1.24469">
        <ele>2.4</ele>
        <time>2020-06-15T15:01:00Z</time>
      </trkpt>
      <trkpt lat="49.47303" lon="-1.24462">
        <ele>2.5</ele>
        <time>2020-06-15T15:01:01Z</time>
      </trkpt>
      <trkpt lat="49.47305" lon="-1.24454">
        <ele>2.5</ele>
        <time>2020-06-15T15:01:02Z</time>
      </trkpt>
      <trkpt lat="49.47308" lon="-1.24447">
        <ele>2.5</ele>
        <time>2020-06-15T15:01:03Z</time>
      </trkpt>
      <trkpt lat="49.47311" lon="-1.24438">
        <ele>2.6</ele>
        <time>2020-06-15T15:01:04Z</time>
      </trkpt>
      <trkpt lat="49.47314" lon="-1.24432">
        <ele>2.7</ele>
        <time>2020-06-15T15:01:05Z</time>
      </trkpt>
      <trkpt lat="49.47317" lon="-1.24424">
        <ele>2.7</ele>
        <time>2020-06-15T15:01:06Z</time>
      </trkpt>
      <trkpt lat="49.4732" lon="-1.24416">
        <ele>2.8</ele>
        <time>2020-06-15T15:01:07Z</time>
      </trkpt>
      <trkpt lat="49.47323" lon="-1.24408">
        <ele>2.8</ele>
        <time>2020-06-15T15:01:08Z</time>
      </trkpt>
      <trkpt lat="49.47326" lon="-1.24401">
        <ele>2.9</ele>
        <time>2020-06-15T15:01:09Z</time>
      </trkpt>
      <trkpt lat="49.47328" lon="-1.24395">
        <ele>3</ele>
        <time>2020-06-15T15:01:10Z</time>
      </trkpt>
      <trkpt lat="49.47332" lon="-1.2439">
        <ele>3</ele>
        <time>2020-06-15T15:01:11Z</time>
      </trkpt>
      <trkpt lat="49.47334" lon="-1.24384">
        <ele>3.1</ele>
        <time>2020-06-15T15:01:12Z</time>
      </trkpt>
      <trkpt lat="49.47337" lon="-1.24379">
        <ele>3.2</ele>
        <time>2020-06-15T15:01:13Z</time>
      </trkpt>
      <trkpt lat="49.47339" lon="-1.24374">
        <ele>3.2</ele>
        <time>2020-06-15T15:01:14Z</time>
      </trkpt>
      <trkpt lat="49.4734" lon="-1.24368">
        <ele>3.3</ele>
        <time>2020-06-15T15:01:15Z</time>
      </trkpt>
      <trkpt lat="49.47342" lon="-1.24363">
        <ele>3.4</ele>
        <time>2020-06-15T15:01:16Z</time>
      </trkpt>
      <trkpt lat="49.4734" lon="-1.24357">
        <ele>3.4</ele>
        <time>2020-06-15T15:01:17Z</time>
      </trkpt>
      <trkpt lat="49.47339" lon="-1.24355">
        <ele>3.4</ele>
        <time>2020-06-15T15:01:18Z</time>
      </trkpt>
      <trkpt lat="49.47337" lon="-1.24349">
        <ele>3.4</ele>
        <time>2020-06-15T15:01:19Z</time>
      </trkpt>
      <trkpt lat="49.47334" lon="-1.24345">
        <ele>3.3</ele>
        <time>2020-06-15T15:01:20Z</time>
      </trkpt>
      <trkpt lat="49.47332" lon="-1.24339">
        <ele>3.3</ele>
        <time>2020-06-15T15:01:21Z</time>
      </trkpt>
      <trkpt lat="49.47328" lon="-1.24334">
        <ele>3.3</ele>
        <time>2020-06-15T15:01:22Z</time>
      </trkpt>
      <trkpt lat="49.47325" lon="-1.24328">
        <ele>3.3</ele>
        <time>2020-06-15T15:01:23Z</time>
      </trkpt>
      <trkpt lat="49.47322" lon="-1.24322">
        <ele>3.3</ele>
        <time>2020-06-15T15:01:24Z</time>
      </trkpt>
      <trkpt lat="49.47318" lon="-1.24315">
        <ele>3.2</ele>
        <time>2020-06-15T15:01:25Z</time>
      </trkpt>
      <trkpt lat="49.47314" lon="-1.24308">
        <ele>3.2</ele>
        <time>2020-06-15T15:01:26Z</time>
      </trkpt>
      <trkpt lat="49.4731" lon="-1.24303">
        <ele>3.2</ele>
        <time>2020-06-15T15:01:27Z</time>
      </trkpt>
      <trkpt lat="49.47306" lon="-1.24297">
        <ele>3.2</ele>
        <time>2020-06-15T15:01:28Z</time>
      </trkpt>
      <trkpt lat="49.47302" lon="-1.24291">
        <ele>3.2</ele>
        <time>2020-06-15T15:01:29Z</time>
      </trkpt>
      <trkpt lat="49.47299" lon="-1.24285">
        <ele>3.2</ele>
        <time>2020-06-15T15:01:30Z</time>
      </trkpt>
      <trkpt lat="49.47296" lon="-1.2428">
        <ele>3.2</ele>
        <time>2020-06-15T15:01:31Z</time>
      </trkpt>
      <trkpt lat="49.47292" lon="-1.24275">
        <ele>3.2</ele>
        <time>2020-06-15T15:01:32Z</time>
      </trkpt>
      <trkpt lat="49.47288" lon="-1.24269">
        <ele>3.2</ele>
        <time>2020-06-15T15:01:33Z</time>
      </trkpt>
      <trkpt lat="49.47285" lon="-1.24262">
        <ele>3.2</ele>
        <time>2020-06-15T15:01:34Z</time>
      </trkpt>
      <trkpt lat="49.47282" lon="-1.24256">
        <ele>3.2</ele>
        <time>2020-06-15T15:01:35Z</time>
      </trkpt>
      <trkpt lat="49.47278" lon="-1.24249">
        <ele>3.2</ele>
        <time>2020-06-15T15:01:36Z</time>
      </trkpt>
      <trkpt lat="49.47274" lon="-1.24244">
        <ele>3.3</ele>
        <time>2020-06-15T15:01:37Z</time>
      </trkpt>
      <trkpt lat="49.4727" lon="-1.24238">
        <ele>3.3</ele>
        <time>2020-06-15T15:01:38Z</time>
      </trkpt>
      <trkpt lat="49.47267" lon="-1.24231">
        <ele>3.3</ele>
        <time>2020-06-15T15:01:39Z</time>
      </trkpt>
      <trkpt lat="49.47264" lon="-1.24224">
        <ele>3.3</ele>
        <time>2020-06-15T15:01:40Z</time>
      </trkpt>
      <trkpt lat="49.4726" lon="-1.24219">
        <ele>3.3</ele>
        <time>2020-06-15T15:01:41Z</time>
      </trkpt>
      <trkpt lat="49.47257" lon="-1.24214">
        <ele>3.3</ele>
        <time>2020-06-15T15:01:42Z</time>
      </trkpt>
      <trkpt lat="49.47253" lon="-1.24208">
        <ele>3.3</ele>
        <time>2020-06-15T15:01:43Z</time>
      </trkpt>
      <trkpt lat="49.4725" lon="-1.24202">
        <ele>3.4</ele>
        <time>2020-06-15T15:01:44Z</time>
      </trkpt>
      <trkpt lat="49.47246" lon="-1.24196">
        <ele>3.4</ele>
        <time>2020-06-15T15:01:45Z</time>
      </trkpt>
      <trkpt lat="49.47244" lon="-1.24189">
        <ele>3.4</ele>
        <time>2020-06-15T15:01:46Z</time>
      </trkpt>
      <trkpt lat="49.4724" lon="-1.24183">
        <ele>3.4</ele>
        <time>2020-06-15T15:01:47Z</time>
      </trkpt>
      <trkpt lat="49.47236" lon="-1.24179">
        <ele>3.5</ele>
        <time>2020-06-15T15:01:48Z</time>
      </trkpt>
      <trkpt lat="49.47233" lon="-1.24172">
        <ele>3.4</ele>
        <time>2020-06-15T15:01:49Z</time>
      </trkpt>
      <trkpt lat="49.4723" lon="-1.24167">
        <ele>3.4</ele>
        <time>2020-06-15T15:01:50Z</time>
      </trkpt>
      <trkpt lat="49.47226" lon="-1.24161">
        <ele>3.4</ele>
        <time>2020-06-15T15:01:51Z</time>
      </trkpt>
      <trkpt lat="49.47222" lon="-1.24156">
        <ele>3.3</ele>
        <time>2020-06-15T15:01:52Z</time>
      </trkpt>
      <trkpt lat="49.47217" lon="-1.2415">
        <ele>3.3</ele>
        <time>2020-06-15T15:01:53Z</time>
      </trkpt>
      <trkpt lat="49.47213" lon="-1.24144">
        <ele>3.3</ele>
        <time>2020-06-15T15:01:54Z</time>
      </trkpt>
      <trkpt lat="49.47209" lon="-1.24138">
        <ele>3.2</ele>
        <time>2020-06-15T15:01:55Z</time>
      </trkpt>
      <trkpt lat="49.47205" lon="-1.24133">
        <ele>3.2</ele>
        <time>2020-06-15T15:01:56Z</time>
      </trkpt>
      <trkpt lat="49.47202" lon="-1.24127">
        <ele>3.2</ele>
        <time>2020-06-15T15:01:57Z</time>
      </trkpt>
      <trkpt lat="49.47198" lon="-1.24121">
        <ele>3.1</ele>
        <time>2020-06-15T15:01:58Z</time>
      </trkpt>
      <trkpt lat="49.47193" lon="-1.24115">
        <ele>3.1</ele>
        <time>2020-06-15T15:01:59Z</time>
      </trkpt>
      <trkpt lat="49.47189" lon="-1.24109">
        <ele>3.1</ele>
        <time>2020-06-15T15:02:00Z</time>
      </trkpt>
      <trkpt lat="49.47185" lon="-1.24103">
        <ele>3.1</ele>
        <time>2020-06-15T15:02:01Z</time>
      </trkpt>
      <trkpt lat="49.47181" lon="-1.24098">
        <ele>3.2</ele>
        <time>2020-06-15T15:02:02Z</time>
      </trkpt>
      <trkpt lat="49.47177" lon="-1.24092">
        <ele>3.2</ele>
        <time>2020-06-15T15:02:03Z</time>
      </trkpt>
      <trkpt lat="49.47172" lon="-1.24086">
        <ele>3.3</ele>
        <time>2020-06-15T15:02:04Z</time>
      </trkpt>
      <trkpt lat="49.47168" lon="-1.24081">
        <ele>3.3</ele>
        <time>2020-06-15T15:02:05Z</time>
      </trkpt>
      <trkpt lat="49.47163" lon="-1.24076">
        <ele>3.3</ele>
        <time>2020-06-15T15:02:06Z</time>
      </trkpt>
      <trkpt lat="49.4716" lon="-1.24069">
        <ele>3.4</ele>
        <time>2020-06-15T15:02:07Z</time>
      </trkpt>
      <trkpt lat="49.47156" lon="-1.24063">
        <ele>3.4</ele>
        <time>2020-06-15T15:02:08Z</time>
      </trkpt>
      <trkpt lat="49.47152" lon="-1.24058">
        <ele>3.5</ele>
        <time>2020-06-15T15:02:09Z</time>
      </trkpt>
      <trkpt lat="49.47148" lon="-1.24053">
        <ele>3.6</ele>
        <time>2020-06-15T15:02:10Z</time>
      </trkpt>
      <trkpt lat="49.47144" lon="-1.24048">
        <ele>3.6</ele>
        <time>2020-06-15T15:02:11Z</time>
      </trkpt>
      <trkpt lat="49.47141" lon="-1.24044">
        <ele>3.6</ele>
        <time>2020-06-15T15:02:12Z</time>
      </trkpt>
      <trkpt lat="49.47137" lon="-1.24039">
        <ele>3.7</ele>
        <time>2020-06-15T15:02:13Z</time>
      </trkpt>
      <trkpt lat="49.47133" lon="-1.24034">
        <ele>3.7</ele>
        <time>2020-06-15T15:02:14Z</time>
      </trkpt>
      <trkpt lat="49.47128" lon="-1.24029">
        <ele>3.7</ele>
        <time>2020-06-15T15:02:15Z</time>
      </trkpt>
      <trkpt lat="49.47124" lon="-1.24023">
        <ele>3.6</ele>
        <time>2020-06-15T15:02:16Z</time>
      </trkpt>
      <trkpt lat="49.47119" lon="-1.24019">
        <ele>3.6</ele>
        <time>2020-06-15T15:02:17Z</time>
      </trkpt>
      <trkpt lat="49.47115" lon="-1.24014">
        <ele>3.6</ele>
        <time>2020-06-15T15:02:18Z</time>
      </trkpt>
      <trkpt lat="49.4711" lon="-1.24009">
        <ele>3.6</ele>
        <time>2020-06-15T15:02:19Z</time>
      </trkpt>
      <trkpt lat="49.47107" lon="-1.24003">
        <ele>3.6</ele>
        <time>2020-06-15T15:02:20Z</time>
      </trkpt>
      <trkpt lat="49.47102" lon="-1.23998">
        <ele>3.6</ele>
        <time>2020-06-15T15:02:21Z</time>
      </trkpt>
      <trkpt lat="49.47097" lon="-1.23993">
        <ele>3.6</ele>
        <time>2020-06-15T15:02:22Z</time>
      </trkpt>
      <trkpt lat="49.47093" lon="-1.23988">
        <ele>3.6</ele>
        <time>2020-06-15T15:02:23Z</time>
      </trkpt>
      <trkpt lat="49.47089" lon="-1.23983">
        <ele>3.6</ele>
        <time>2020-06-15T15:02:24Z</time>
      </trkpt>
      <trkpt lat="49.47084" lon="-1.23978">
        <ele>3.6</ele>
        <time>2020-06-15T15:02:25Z</time>
      </trkpt>
      <trkpt lat="49.4708" lon="-1.23972">
        <ele>3.7</ele>
        <time>2020-06-15T15:02:26Z</time>
      </trkpt>
      <trkpt lat="49.47075" lon="-1.23967">
        <ele>3.7</ele>
        <time>2020-06-15T15:02:27Z</time>
      </trkpt>
      <trkpt lat="49.4707" lon="-1.23963">
        <ele>3.7</ele>
        <time>2020-06-15T15:02:28Z</time>
      </trkpt>
      <trkpt lat="49.47066" lon="-1.23958">
        <ele>3.7</ele>
        <time>2020-06-15T15:02:29Z</time>
      </trkpt>
      <trkpt lat="49.47062" lon="-1.23953">
        <ele>3.7</ele>
        <time>2020-06-15T15:02:30Z</time>
      </trkpt>
      <trkpt lat="49.47057" lon="-1.23949">
        <ele>3.8</ele>
        <time>2020-06-15T15:02:31Z</time>
      </trkpt>
      <trkpt lat="49.47052" lon="-1.23943">
        <ele>3.8</ele>
        <time>2020-06-15T15:02:32Z</time>
      </trkpt>
      <trkpt lat="49.47048" lon="-1.23938">
        <ele>3.8</ele>
        <time>2020-06-15T15:02:33Z</time>
      </trkpt>
      <trkpt lat="49.47043" lon="-1.23932">
        <ele>3.7</ele>
        <time>2020-06-15T15:02:34Z</time>
      </trkpt>
      <trkpt lat="49.47039" lon="-1.23927">
        <ele>3.7</ele>
        <time>2020-06-15T15:02:35Z</time>
      </trkpt>
      <trkpt lat="49.47034" lon="-1.23922">
        <ele>3.7</ele>
        <time>2020-06-15T15:02:36Z</time>
      </trkpt>
      <trkpt lat="49.4703" lon="-1.23917">
        <ele>3.7</ele>
        <time>2020-06-15T15:02:37Z</time>
      </trkpt>
      <trkpt lat="49.47026" lon="-1.23911">
        <ele>3.7</ele>
        <time>2020-06-15T15:02:38Z</time>
      </trkpt>
      <trkpt lat="49.47022" lon="-1.23906">
        <ele>3.7</ele>
        <time>2020-06-15T15:02:39Z</time>
      </trkpt>
      <trkpt lat="49.47018" lon="-1.23901">
        <ele>3.7</ele>
        <time>2020-06-15T15:02:40Z</time>
      </trkpt>
      <trkpt lat="49.47013" lon="-1.23898">
        <ele>3.7</ele>
        <time>2020-06-15T15:02:41Z</time>
      </trkpt>
      <trkpt lat="49.47009" lon="-1.23893">
        <ele>3.7</ele>
        <time>2020-06-15T15:02:42Z</time>
      </trkpt>
      <trkpt lat="49.47004" lon="-1.23888">
        <ele>3.7</ele>
        <time>2020-06-15T15:02:43Z</time>
      </trkpt>
      <trkpt lat="49.47" lon="-1.23883">
        <ele>3.7</ele>
        <time>2020-06-15T15:02:44Z</time>
      </trkpt>
      <trkpt lat="49.46995" lon="-1.23878">
        <ele>3.7</ele>
        <time>2020-06-15T15:02:45Z</time>
      </trkpt>
      <trkpt lat="49.46991" lon="-1.23873">
        <ele>3.7</ele>
        <time>2020-06-15T15:02:46Z</time>
      </trkpt>
      <trkpt lat="49.46987" lon="-1.23868">
        <ele>3.7</ele>
        <time>2020-06-15T15:02:47Z</time>
      </trkpt>
      <trkpt lat="49.46982" lon="-1.23863">
        <ele>3.6</ele>
        <time>2020-06-15T15:02:48Z</time>
      </trkpt>
      <trkpt lat="49.46977" lon="-1.23858">
        <ele>3.6</ele>
        <time>2020-06-15T15:02:49Z</time>
      </trkpt>
      <trkpt lat="49.46972" lon="-1.23853">
        <ele>3.6</ele>
        <time>2020-06-15T15:02:50Z</time>
      </trkpt>
      <trkpt lat="49.46967" lon="-1.23848">
        <ele>3.6</ele>
        <time>2020-06-15T15:02:51Z</time>
      </trkpt>
      <trkpt lat="49.46962" lon="-1.23843">
        <ele>3.6</ele>
        <time>2020-06-15T15:02:52Z</time>
      </trkpt>
      <trkpt lat="49.46957" lon="-1.23838">
        <ele>3.6</ele>
        <time>2020-06-15T15:02:53Z</time>
      </trkpt>
      <trkpt lat="49.46953" lon="-1.23833">
        <ele>3.6</ele>
        <time>2020-06-15T15:02:54Z</time>
      </trkpt>
      <trkpt lat="49.46948" lon="-1.23828">
        <ele>3.6</ele>
        <time>2020-06-15T15:02:55Z</time>
      </trkpt>
      <trkpt lat="49.46944" lon="-1.23823">
        <ele>3.6</ele>
        <time>2020-06-15T15:02:56Z</time>
      </trkpt>
      <trkpt lat="49.46939" lon="-1.23819">
        <ele>3.6</ele>
        <time>2020-06-15T15:02:57Z</time>
      </trkpt>
      <trkpt lat="49.46935" lon="-1.23814">
        <ele>3.6</ele>
        <time>2020-06-15T15:02:58Z</time>
      </trkpt>
      <trkpt lat="49.46929" lon="-1.23809">
        <ele>3.6</ele>
        <time>2020-06-15T15:02:59Z</time>
      </trkpt>
      <trkpt lat="49.46924" lon="-1.23803">
        <ele>3.6</ele>
        <time>2020-06-15T15:03:00Z</time>
      </trkpt>
      <trkpt lat="49.46919" lon="-1.23797">
        <ele>3.6</ele>
        <time>2020-06-15T15:03:01Z</time>
      </trkpt>
      <trkpt lat="49.46915" lon="-1.23792">
        <ele>3.6</ele>
        <time>2020-06-15T15:03:02Z</time>
      </trkpt>
      <trkpt lat="49.46911" lon="-1.23787">
        <ele>3.6</ele>
        <time>2020-06-15T15:03:03Z</time>
      </trkpt>
      <trkpt lat="49.46907" lon="-1.23781">
        <ele>3.5</ele>
        <time>2020-06-15T15:03:04Z</time>
      </trkpt>
      <trkpt lat="49.46901" lon="-1.23775">
        <ele>3.5</ele>
        <time>2020-06-15T15:03:05Z</time>
      </trkpt>
      <trkpt lat="49.46897" lon="-1.2377">
        <ele>3.5</ele>
        <time>2020-06-15T15:03:06Z</time>
      </trkpt>
      <trkpt lat="49.46891" lon="-1.23766">
        <ele>3.5</ele>
        <time>2020-06-15T15:03:07Z</time>
      </trkpt>
      <trkpt lat="49.46887" lon="-1.2376">
        <ele>3.4</ele>
        <time>2020-06-15T15:03:08Z</time>
      </trkpt>
      <trkpt lat="49.46882" lon="-1.23754">
        <ele>3.4</ele>
        <time>2020-06-15T15:03:09Z</time>
      </trkpt>
      <trkpt lat="49.46877" lon="-1.23749">
        <ele>3.4</ele>
        <time>2020-06-15T15:03:10Z</time>
      </trkpt>
      <trkpt lat="49.46872" lon="-1.23744">
        <ele>3.4</ele>
        <time>2020-06-15T15:03:11Z</time>
      </trkpt>
      <trkpt lat="49.46867" lon="-1.23739">
        <ele>3.4</ele>
        <time>2020-06-15T15:03:12Z</time>
      </trkpt>
      <trkpt lat="49.46862" lon="-1.23734">
        <ele>3.4</ele>
        <time>2020-06-15T15:03:13Z</time>
      </trkpt>
      <trkpt lat="49.46857" lon="-1.23729">
        <ele>3.4</ele>
        <time>2020-06-15T15:03:14Z</time>
      </trkpt>
      <trkpt lat="49.46852" lon="-1.23724">
        <ele>3.3</ele>
        <time>2020-06-15T15:03:15Z</time>
      </trkpt>
      <trkpt lat="49.46847" lon="-1.23719">
        <ele>3.3</ele>
        <time>2020-06-15T15:03:16Z</time>
      </trkpt>
      <trkpt lat="49.46842" lon="-1.23713">
        <ele>3.3</ele>
        <time>2020-06-15T15:03:17Z</time>
      </trkpt>
      <trkpt lat="49.46837" lon="-1.23708">
        <ele>3.3</ele>
        <time>2020-06-15T15:03:18Z</time>
      </trkpt>
      <trkpt lat="49.46831" lon="-1.23703">
        <ele>3.3</ele>
        <time>2020-06-15T15:03:19Z</time>
      </trkpt>
      <trkpt lat="49.46827" lon="-1.23698">
        <ele>3.3</ele>
        <time>2020-06-15T15:03:20Z</time>
      </trkpt>
      <trkpt lat="49.46822" lon="-1.23692">
        <ele>3.3</ele>
        <time>2020-06-15T15:03:21Z</time>
      </trkpt>
      <trkpt lat="49.46817" lon="-1.23687">
        <ele>3.3</ele>
        <time>2020-06-15T15:03:22Z</time>
      </trkpt>
      <trkpt lat="49.46812" lon="-1.23682">
        <ele>3.3</ele>
        <time>2020-06-15T15:03:23Z</time>
      </trkpt>
      <trkpt lat="49.46808" lon="-1.23677">
        <ele>3.3</ele>
        <time>2020-06-15T15:03:24Z</time>
      </trkpt>
      <trkpt lat="49.46803" lon="-1.23672">
        <ele>3.4</ele>
        <time>2020-06-15T15:03:25Z</time>
      </trkpt>
      <trkpt lat="49.46798" lon="-1.23667">
        <ele>3.4</ele>
        <time>2020-06-15T15:03:26Z</time>
      </trkpt>
      <trkpt lat="49.46793" lon="-1.23662">
        <ele>3.4</ele>
        <time>2020-06-15T15:03:27Z</time>
      </trkpt>
      <trkpt lat="49.46788" lon="-1.23656">
        <ele>3.4</ele>
        <time>2020-06-15T15:03:28Z</time>
      </trkpt>
      <trkpt lat="49.46783" lon="-1.2365">
        <ele>3.4</ele>
        <time>2020-06-15T15:03:29Z</time>
      </trkpt>
      <trkpt lat="49.46779" lon="-1.23645">
        <ele>3.4</ele>
        <time>2020-06-15T15:03:30Z</time>
      </trkpt>
      <trkpt lat="49.46775" lon="-1.2364">
        <ele>3.4</ele>
        <time>2020-06-15T15:03:31Z</time>
      </trkpt>
      <trkpt lat="49.4677" lon="-1.23636">
        <ele>3.5</ele>
        <time>2020-06-15T15:03:32Z</time>
      </trkpt>
      <trkpt lat="49.46764" lon="-1.2363">
        <ele>3.5</ele>
        <time>2020-06-15T15:03:33Z</time>
      </trkpt>
      <trkpt lat="49.4676" lon="-1.23625">
        <ele>3.5</ele>
        <time>2020-06-15T15:03:34Z</time>
      </trkpt>
      <trkpt lat="49.46756" lon="-1.2362">
        <ele>3.5</ele>
        <time>2020-06-15T15:03:35Z</time>
      </trkpt>
      <trkpt lat="49.46751" lon="-1.23615">
        <ele>3.5</ele>
        <time>2020-06-15T15:03:36Z</time>
      </trkpt>
      <trkpt lat="49.46747" lon="-1.2361">
        <ele>3.5</ele>
        <time>2020-06-15T15:03:37Z</time>
      </trkpt>
      <trkpt lat="49.46742" lon="-1.23605">
        <ele>3.5</ele>
        <time>2020-06-15T15:03:38Z</time>
      </trkpt>
      <trkpt lat="49.46737" lon="-1.236">
        <ele>3.5</ele>
        <time>2020-06-15T15:03:39Z</time>
      </trkpt>
      <trkpt lat="49.46732" lon="-1.23594">
        <ele>3.5</ele>
        <time>2020-06-15T15:03:40Z</time>
      </trkpt>
      <trkpt lat="49.46728" lon="-1.2359">
        <ele>3.5</ele>
        <time>2020-06-15T15:03:41Z</time>
      </trkpt>
      <trkpt lat="49.46723" lon="-1.23585">
        <ele>3.5</ele>
        <time>2020-06-15T15:03:42Z</time>
      </trkpt>
      <trkpt lat="49.46718" lon="-1.2358">
        <ele>3.5</ele>
        <time>2020-06-15T15:03:43Z</time>
      </trkpt>
      <trkpt lat="49.46714" lon="-1.23576">
        <ele>3.5</ele>
        <time>2020-06-15T15:03:44Z</time>
      </trkpt>
      <trkpt lat="49.46711" lon="-1.23572">
        <ele>3.5</ele>
        <time>2020-06-15T15:03:45Z</time>
      </trkpt>
      <trkpt lat="49.46706" lon="-1.23567">
        <ele>3.5</ele>
        <time>2020-06-15T15:03:46Z</time>
      </trkpt>
      <trkpt lat="49.46702" lon="-1.23563">
        <ele>3.5</ele>
        <time>2020-06-15T15:03:47Z</time>
      </trkpt>
      <trkpt lat="49.46697" lon="-1.23559">
        <ele>3.5</ele>
        <time>2020-06-15T15:03:48Z</time>
      </trkpt>
      <trkpt lat="49.46691" lon="-1.23551">
        <ele>3.5</ele>
        <time>2020-06-15T15:03:49Z</time>
      </trkpt>
      <trkpt lat="49.46687" lon="-1.23546">
        <ele>3.5</ele>
        <time>2020-06-15T15:03:50Z</time>
      </trkpt>
      <trkpt lat="49.46682" lon="-1.23541">
        <ele>3.4</ele>
        <time>2020-06-15T15:03:51Z</time>
      </trkpt>
      <trkpt lat="49.46677" lon="-1.23536">
        <ele>3.4</ele>
        <time>2020-06-15T15:03:52Z</time>
      </trkpt>
      <trkpt lat="49.46672" lon="-1.23532">
        <ele>3.4</ele>
        <time>2020-06-15T15:03:53Z</time>
      </trkpt>
      <trkpt lat="49.46668" lon="-1.23528">
        <ele>3.4</ele>
        <time>2020-06-15T15:03:54Z</time>
      </trkpt>
      <trkpt lat="49.46664" lon="-1.23524">
        <ele>3.4</ele>
        <time>2020-06-15T15:03:55Z</time>
      </trkpt>
      <trkpt lat="49.46658" lon="-1.23519">
        <ele>3.3</ele>
        <time>2020-06-15T15:03:56Z</time>
      </trkpt>
      <trkpt lat="49.46653" lon="-1.23514">
        <ele>3.3</ele>
        <time>2020-06-15T15:03:57Z</time>
      </trkpt>
      <trkpt lat="49.46648" lon="-1.23509">
        <ele>3.3</ele>
        <time>2020-06-15T15:03:58Z</time>
      </trkpt>
      <trkpt lat="49.46644" lon="-1.23505">
        <ele>3.2</ele>
        <time>2020-06-15T15:03:59Z</time>
      </trkpt>
      <trkpt lat="49.46639" lon="-1.235">
        <ele>3.2</ele>
        <time>2020-06-15T15:04:00Z</time>
      </trkpt>
      <trkpt lat="49.46635" lon="-1.23494">
        <ele>3.2</ele>
        <time>2020-06-15T15:04:01Z</time>
      </trkpt>
      <trkpt lat="49.46631" lon="-1.23489">
        <ele>3.2</ele>
        <time>2020-06-15T15:04:02Z</time>
      </trkpt>
      <trkpt lat="49.46627" lon="-1.23484">
        <ele>3.2</ele>
        <time>2020-06-15T15:04:03Z</time>
      </trkpt>
      <trkpt lat="49.46623" lon="-1.23479">
        <ele>3.2</ele>
        <time>2020-06-15T15:04:04Z</time>
      </trkpt>
      <trkpt lat="49.46619" lon="-1.23474">
        <ele>3.2</ele>
        <time>2020-06-15T15:04:05Z</time>
      </trkpt>
      <trkpt lat="49.46615" lon="-1.2347">
        <ele>3.2</ele>
        <time>2020-06-15T15:04:06Z</time>
      </trkpt>
      <trkpt lat="49.46611" lon="-1.23466">
        <ele>3.2</ele>
        <time>2020-06-15T15:04:07Z</time>
      </trkpt>
      <trkpt lat="49.46607" lon="-1.23462">
        <ele>3.2</ele>
        <time>2020-06-15T15:04:08Z</time>
      </trkpt>
      <trkpt lat="49.46604" lon="-1.23459">
        <ele>3.2</ele>
        <time>2020-06-15T15:04:09Z</time>
      </trkpt>
      <trkpt lat="49.46599" lon="-1.23454">
        <ele>3.2</ele>
        <time>2020-06-15T15:04:10Z</time>
      </trkpt>
      <trkpt lat="49.46595" lon="-1.23449">
        <ele>3.2</ele>
        <time>2020-06-15T15:04:11Z</time>
      </trkpt>
      <trkpt lat="49.46591" lon="-1.23446">
        <ele>3.2</ele>
        <time>2020-06-15T15:04:12Z</time>
      </trkpt>
      <trkpt lat="49.46586" lon="-1.23441">
        <ele>3.2</ele>
        <time>2020-06-15T15:04:13Z</time>
      </trkpt>
      <trkpt lat="49.46582" lon="-1.23437">
        <ele>3.2</ele>
        <time>2020-06-15T15:04:14Z</time>
      </trkpt>
      <trkpt lat="49.46578" lon="-1.23432">
        <ele>3.2</ele>
        <time>2020-06-15T15:04:15Z</time>
      </trkpt>
      <trkpt lat="49.46573" lon="-1.23428">
        <ele>3.2</ele>
        <time>2020-06-15T15:04:16Z</time>
      </trkpt>
      <trkpt lat="49.46569" lon="-1.23423">
        <ele>3.2</ele>
        <time>2020-06-15T15:04:17Z</time>
      </trkpt>
      <trkpt lat="49.46564" lon="-1.23419">
        <ele>3.1</ele>
        <time>2020-06-15T15:04:18Z</time>
      </trkpt>
      <trkpt lat="49.4656" lon="-1.23414">
        <ele>3.1</ele>
        <time>2020-06-15T15:04:19Z</time>
      </trkpt>
      <trkpt lat="49.46555" lon="-1.2341">
        <ele>3.1</ele>
        <time>2020-06-15T15:04:20Z</time>
      </trkpt>
      <trkpt lat="49.4655" lon="-1.23405">
        <ele>3.1</ele>
        <time>2020-06-15T15:04:21Z</time>
      </trkpt>
      <trkpt lat="49.46545" lon="-1.23399">
        <ele>3.1</ele>
        <time>2020-06-15T15:04:22Z</time>
      </trkpt>
      <trkpt lat="49.46541" lon="-1.23394">
        <ele>3.1</ele>
        <time>2020-06-15T15:04:23Z</time>
      </trkpt>
      <trkpt lat="49.46536" lon="-1.23389">
        <ele>3.1</ele>
        <time>2020-06-15T15:04:24Z</time>
      </trkpt>
      <trkpt lat="49.46532" lon="-1.23383">
        <ele>3.1</ele>
        <time>2020-06-15T15:04:25Z</time>
      </trkpt>
      <trkpt lat="49.46528" lon="-1.23378">
        <ele>3.1</ele>
        <time>2020-06-15T15:04:26Z</time>
      </trkpt>
      <trkpt lat="49.46523" lon="-1.23372">
        <ele>3.1</ele>
        <time>2020-06-15T15:04:27Z</time>
      </trkpt>
      <trkpt lat="49.46518" lon="-1.23367">
        <ele>3.1</ele>
        <time>2020-06-15T15:04:28Z</time>
      </trkpt>
      <trkpt lat="49.46514" lon="-1.23362">
        <ele>3.1</ele>
        <time>2020-06-15T15:04:29Z</time>
      </trkpt>
      <trkpt lat="49.46509" lon="-1.23356">
        <ele>3.2</ele>
        <time>2020-06-15T15:04:30Z</time>
      </trkpt>
      <trkpt lat="49.46505" lon="-1.23349">
        <ele>3.2</ele>
        <time>2020-06-15T15:04:31Z</time>
      </trkpt>
      <trkpt lat="49.465" lon="-1.23344">
        <ele>3.2</ele>
        <time>2020-06-15T15:04:32Z</time>
      </trkpt>
      <trkpt lat="49.46496" lon="-1.23338">
        <ele>3.2</ele>
        <time>2020-06-15T15:04:33Z</time>
      </trkpt>
      <trkpt lat="49.46491" lon="-1.23333">
        <ele>3.2</ele>
        <time>2020-06-15T15:04:34Z</time>
      </trkpt>
      <trkpt lat="49.46486" lon="-1.23327">
        <ele>3.3</ele>
        <time>2020-06-15T15:04:35Z</time>
      </trkpt>
      <trkpt lat="49.46482" lon="-1.23323">
        <ele>3.3</ele>
        <time>2020-06-15T15:04:36Z</time>
      </trkpt>
      <trkpt lat="49.46478" lon="-1.23318">
        <ele>3.3</ele>
        <time>2020-06-15T15:04:37Z</time>
      </trkpt>
      <trkpt lat="49.46474" lon="-1.23314">
        <ele>3.4</ele>
        <time>2020-06-15T15:04:38Z</time>
      </trkpt>
      <trkpt lat="49.4647" lon="-1.23309">
        <ele>3.4</ele>
        <time>2020-06-15T15:04:39Z</time>
      </trkpt>
      <trkpt lat="49.46465" lon="-1.23304">
        <ele>3.4</ele>
        <time>2020-06-15T15:04:40Z</time>
      </trkpt>
      <trkpt lat="49.4646" lon="-1.23299">
        <ele>3.4</ele>
        <time>2020-06-15T15:04:41Z</time>
      </trkpt>
      <trkpt lat="49.46455" lon="-1.23295">
        <ele>3.4</ele>
        <time>2020-06-15T15:04:42Z</time>
      </trkpt>
      <trkpt lat="49.46451" lon="-1.23289">
        <ele>3.4</ele>
        <time>2020-06-15T15:04:43Z</time>
      </trkpt>
      <trkpt lat="49.46447" lon="-1.23284">
        <ele>3.3</ele>
        <time>2020-06-15T15:04:44Z</time>
      </trkpt>
      <trkpt lat="49.46443" lon="-1.23279">
        <ele>3.3</ele>
        <time>2020-06-15T15:04:45Z</time>
      </trkpt>
      <trkpt lat="49.46439" lon="-1.23274">
        <ele>3.4</ele>
        <time>2020-06-15T15:04:46Z</time>
      </trkpt>
      <trkpt lat="49.46434" lon="-1.2327">
        <ele>3.4</ele>
        <time>2020-06-15T15:04:47Z</time>
      </trkpt>
      <trkpt lat="49.46431" lon="-1.23266">
        <ele>3.4</ele>
        <time>2020-06-15T15:04:48Z</time>
      </trkpt>
      <trkpt lat="49.46425" lon="-1.23259">
        <ele>3.4</ele>
        <time>2020-06-15T15:04:49Z</time>
      </trkpt>
      <trkpt lat="49.46421" lon="-1.23255">
        <ele>3.4</ele>
        <time>2020-06-15T15:04:50Z</time>
      </trkpt>
      <trkpt lat="49.46417" lon="-1.23249">
        <ele>3.4</ele>
        <time>2020-06-15T15:04:51Z</time>
      </trkpt>
      <trkpt lat="49.46413" lon="-1.23245">
        <ele>3.4</ele>
        <time>2020-06-15T15:04:52Z</time>
      </trkpt>
      <trkpt lat="49.46408" lon="-1.23241">
        <ele>3.4</ele>
        <time>2020-06-15T15:04:53Z</time>
      </trkpt>
      <trkpt lat="49.46404" lon="-1.23236">
        <ele>3.4</ele>
        <time>2020-06-15T15:04:54Z</time>
      </trkpt>
      <trkpt lat="49.46399" lon="-1.23231">
        <ele>3.4</ele>
        <time>2020-06-15T15:04:55Z</time>
      </trkpt>
      <trkpt lat="49.46395" lon="-1.23225">
        <ele>3.4</ele>
        <time>2020-06-15T15:04:56Z</time>
      </trkpt>
      <trkpt lat="49.46391" lon="-1.2322">
        <ele>3.4</ele>
        <time>2020-06-15T15:04:57Z</time>
      </trkpt>
      <trkpt lat="49.46386" lon="-1.23215">
        <ele>3.4</ele>
        <time>2020-06-15T15:04:58Z</time>
      </trkpt>
      <trkpt lat="49.46382" lon="-1.23211">
        <ele>3.4</ele>
        <time>2020-06-15T15:04:59Z</time>
      </trkpt>
      <trkpt lat="49.46378" lon="-1.23206">
        <ele>3.4</ele>
        <time>2020-06-15T15:05:00Z</time>
      </trkpt>
      <trkpt lat="49.46373" lon="-1.23202">
        <ele>3.4</ele>
        <time>2020-06-15T15:05:01Z</time>
      </trkpt>
      <trkpt lat="49.46369" lon="-1.23197">
        <ele>3.4</ele>
        <time>2020-06-15T15:05:02Z</time>
      </trkpt>
      <trkpt lat="49.46363" lon="-1.2319">
        <ele>3.3</ele>
        <time>2020-06-15T15:05:03Z</time>
      </trkpt>
      <trkpt lat="49.46359" lon="-1.23185">
        <ele>3.3</ele>
        <time>2020-06-15T15:05:04Z</time>
      </trkpt>
      <trkpt lat="49.46354" lon="-1.2318">
        <ele>3.3</ele>
        <time>2020-06-15T15:05:05Z</time>
      </trkpt>
      <trkpt lat="49.4635" lon="-1.23174">
        <ele>3.3</ele>
        <time>2020-06-15T15:05:06Z</time>
      </trkpt>
      <trkpt lat="49.46345" lon="-1.23169">
        <ele>3.3</ele>
        <time>2020-06-15T15:05:07Z</time>
      </trkpt>
      <trkpt lat="49.4634" lon="-1.23163">
        <ele>3.3</ele>
        <time>2020-06-15T15:05:08Z</time>
      </trkpt>
      <trkpt lat="49.46336" lon="-1.23158">
        <ele>3.3</ele>
        <time>2020-06-15T15:05:09Z</time>
      </trkpt>
      <trkpt lat="49.46331" lon="-1.23152">
        <ele>3.3</ele>
        <time>2020-06-15T15:05:10Z</time>
      </trkpt>
      <trkpt lat="49.46327" lon="-1.23147">
        <ele>3.2</ele>
        <time>2020-06-15T15:05:11Z</time>
      </trkpt>
      <trkpt lat="49.46322" lon="-1.23143">
        <ele>3.2</ele>
        <time>2020-06-15T15:05:12Z</time>
      </trkpt>
      <trkpt lat="49.46317" lon="-1.23137">
        <ele>3.2</ele>
        <time>2020-06-15T15:05:13Z</time>
      </trkpt>
      <trkpt lat="49.46312" lon="-1.23132">
        <ele>3.2</ele>
        <time>2020-06-15T15:05:14Z</time>
      </trkpt>
      <trkpt lat="49.46308" lon="-1.23126">
        <ele>3.2</ele>
        <time>2020-06-15T15:05:15Z</time>
      </trkpt>
      <trkpt lat="49.46302" lon="-1.23121">
        <ele>3.2</ele>
        <time>2020-06-15T15:05:16Z</time>
      </trkpt>
      <trkpt lat="49.46297" lon="-1.23117">
        <ele>3.2</ele>
        <time>2020-06-15T15:05:17Z</time>
      </trkpt>
      <trkpt lat="49.46291" lon="-1.2311">
        <ele>3.1</ele>
        <time>2020-06-15T15:05:18Z</time>
      </trkpt>
      <trkpt lat="49.46286" lon="-1.23105">
        <ele>3.1</ele>
        <time>2020-06-15T15:05:19Z</time>
      </trkpt>
      <trkpt lat="49.46281" lon="-1.23101">
        <ele>3.1</ele>
        <time>2020-06-15T15:05:20Z</time>
      </trkpt>
      <trkpt lat="49.46276" lon="-1.23096">
        <ele>3</ele>
        <time>2020-06-15T15:05:21Z</time>
      </trkpt>
      <trkpt lat="49.46272" lon="-1.2309">
        <ele>3</ele>
        <time>2020-06-15T15:05:22Z</time>
      </trkpt>
      <trkpt lat="49.46267" lon="-1.23086">
        <ele>3</ele>
        <time>2020-06-15T15:05:23Z</time>
      </trkpt>
      <trkpt lat="49.46262" lon="-1.23079">
        <ele>3</ele>
        <time>2020-06-15T15:05:24Z</time>
      </trkpt>
      <trkpt lat="49.46258" lon="-1.23073">
        <ele>3</ele>
        <time>2020-06-15T15:05:25Z</time>
      </trkpt>
      <trkpt lat="49.46253" lon="-1.23068">
        <ele>2.9</ele>
        <time>2020-06-15T15:05:26Z</time>
      </trkpt>
      <trkpt lat="49.46249" lon="-1.23063">
        <ele>2.9</ele>
        <time>2020-06-15T15:05:27Z</time>
      </trkpt>
      <trkpt lat="49.46245" lon="-1.23057">
        <ele>2.8</ele>
        <time>2020-06-15T15:05:28Z</time>
      </trkpt>
      <trkpt lat="49.4624" lon="-1.23051">
        <ele>2.8</ele>
        <time>2020-06-15T15:05:29Z</time>
      </trkpt>
      <trkpt lat="49.46236" lon="-1.23045">
        <ele>2.8</ele>
        <time>2020-06-15T15:05:30Z</time>
      </trkpt>
      <trkpt lat="49.46231" lon="-1.23038">
        <ele>2.8</ele>
        <time>2020-06-15T15:05:31Z</time>
      </trkpt>
      <trkpt lat="49.46227" lon="-1.23032">
        <ele>2.8</ele>
        <time>2020-06-15T15:05:32Z</time>
      </trkpt>
      <trkpt lat="49.46222" lon="-1.23026">
        <ele>2.8</ele>
        <time>2020-06-15T15:05:33Z</time>
      </trkpt>
      <trkpt lat="49.46217" lon="-1.23019">
        <ele>2.8</ele>
        <time>2020-06-15T15:05:34Z</time>
      </trkpt>
      <trkpt lat="49.46214" lon="-1.23014">
        <ele>2.8</ele>
        <time>2020-06-15T15:05:35Z</time>
      </trkpt>
      <trkpt lat="49.4621" lon="-1.23009">
        <ele>2.8</ele>
        <time>2020-06-15T15:05:36Z</time>
      </trkpt>
      <trkpt lat="49.46206" lon="-1.23005">
        <ele>2.8</ele>
        <time>2020-06-15T15:05:37Z</time>
      </trkpt>
      <trkpt lat="49.46203" lon="-1.23">
        <ele>2.8</ele>
        <time>2020-06-15T15:05:38Z</time>
      </trkpt>
      <trkpt lat="49.46199" lon="-1.22995">
        <ele>2.8</ele>
        <time>2020-06-15T15:05:39Z</time>
      </trkpt>
      <trkpt lat="49.46196" lon="-1.22991">
        <ele>2.9</ele>
        <time>2020-06-15T15:05:40Z</time>
      </trkpt>
      <trkpt lat="49.46193" lon="-1.22988">
        <ele>2.9</ele>
        <time>2020-06-15T15:05:41Z</time>
      </trkpt>
      <trkpt lat="49.46188" lon="-1.22984">
        <ele>2.9</ele>
        <time>2020-06-15T15:05:42Z</time>
      </trkpt>
      <trkpt lat="49.46184" lon="-1.22979">
        <ele>2.9</ele>
        <time>2020-06-15T15:05:43Z</time>
      </trkpt>
      <trkpt lat="49.46181" lon="-1.22974">
        <ele>2.9</ele>
        <time>2020-06-15T15:05:44Z</time>
      </trkpt>
      <trkpt lat="49.46177" lon="-1.2297">
        <ele>2.9</ele>
        <time>2020-06-15T15:05:45Z</time>
      </trkpt>
      <trkpt lat="49.46174" lon="-1.22966">
        <ele>2.9</ele>
        <time>2020-06-15T15:05:46Z</time>
      </trkpt>
      <trkpt lat="49.46171" lon="-1.22963">
        <ele>2.9</ele>
        <time>2020-06-15T15:05:47Z</time>
      </trkpt>
      <trkpt lat="49.46168" lon="-1.22959">
        <ele>2.9</ele>
        <time>2020-06-15T15:05:48Z</time>
      </trkpt>
      <trkpt lat="49.46164" lon="-1.22955">
        <ele>3</ele>
        <time>2020-06-15T15:05:49Z</time>
      </trkpt>
      <trkpt lat="49.4616" lon="-1.2295">
        <ele>3</ele>
        <time>2020-06-15T15:05:50Z</time>
      </trkpt>
      <trkpt lat="49.46155" lon="-1.22946">
        <ele>3</ele>
        <time>2020-06-15T15:05:51Z</time>
      </trkpt>
      <trkpt lat="49.4615" lon="-1.22941">
        <ele>3.1</ele>
        <time>2020-06-15T15:05:52Z</time>
      </trkpt>
      <trkpt lat="49.46145" lon="-1.22935">
        <ele>3.1</ele>
        <time>2020-06-15T15:05:53Z</time>
      </trkpt>
      <trkpt lat="49.46141" lon="-1.22931">
        <ele>3.1</ele>
        <time>2020-06-15T15:05:54Z</time>
      </trkpt>
      <trkpt lat="49.46137" lon="-1.22928">
        <ele>3.1</ele>
        <time>2020-06-15T15:05:55Z</time>
      </trkpt>
      <trkpt lat="49.46133" lon="-1.22924">
        <ele>3.1</ele>
        <time>2020-06-15T15:05:56Z</time>
      </trkpt>
      <trkpt lat="49.4613" lon="-1.22919">
        <ele>3.1</ele>
        <time>2020-06-15T15:05:57Z</time>
      </trkpt>
      <trkpt lat="49.46126" lon="-1.22916">
        <ele>3.1</ele>
        <time>2020-06-15T15:05:58Z</time>
      </trkpt>
      <trkpt lat="49.46123" lon="-1.22912">
        <ele>3.1</ele>
        <time>2020-06-15T15:05:59Z</time>
      </trkpt>
      <trkpt lat="49.46119" lon="-1.22908">
        <ele>3.1</ele>
        <time>2020-06-15T15:06:00Z</time>
      </trkpt>
      <trkpt lat="49.46115" lon="-1.22903">
        <ele>3.1</ele>
        <time>2020-06-15T15:06:01Z</time>
      </trkpt>
      <trkpt lat="49.46111" lon="-1.22899">
        <ele>3.2</ele>
        <time>2020-06-15T15:06:02Z</time>
      </trkpt>
      <trkpt lat="49.46105" lon="-1.22893">
        <ele>3.2</ele>
        <time>2020-06-15T15:06:03Z</time>
      </trkpt>
      <trkpt lat="49.46101" lon="-1.22886">
        <ele>3.2</ele>
        <time>2020-06-15T15:06:04Z</time>
      </trkpt>
      <trkpt lat="49.46096" lon="-1.2288">
        <ele>3.2</ele>
        <time>2020-06-15T15:06:05Z</time>
      </trkpt>
      <trkpt lat="49.46092" lon="-1.22876">
        <ele>3.2</ele>
        <time>2020-06-15T15:06:06Z</time>
      </trkpt>
      <trkpt lat="49.46088" lon="-1.22871">
        <ele>3.2</ele>
        <time>2020-06-15T15:06:07Z</time>
      </trkpt>
      <trkpt lat="49.46083" lon="-1.22866">
        <ele>3.2</ele>
        <time>2020-06-15T15:06:08Z</time>
      </trkpt>
      <trkpt lat="49.46079" lon="-1.22862">
        <ele>3.2</ele>
        <time>2020-06-15T15:06:09Z</time>
      </trkpt>
      <trkpt lat="49.46074" lon="-1.22857">
        <ele>3.2</ele>
        <time>2020-06-15T15:06:10Z</time>
      </trkpt>
      <trkpt lat="49.4607" lon="-1.22852">
        <ele>3.2</ele>
        <time>2020-06-15T15:06:11Z</time>
      </trkpt>
      <trkpt lat="49.46065" lon="-1.22847">
        <ele>3.2</ele>
        <time>2020-06-15T15:06:12Z</time>
      </trkpt>
      <trkpt lat="49.46061" lon="-1.22842">
        <ele>3.2</ele>
        <time>2020-06-15T15:06:13Z</time>
      </trkpt>
      <trkpt lat="49.46056" lon="-1.22837">
        <ele>3.2</ele>
        <time>2020-06-15T15:06:14Z</time>
      </trkpt>
      <trkpt lat="49.46052" lon="-1.22833">
        <ele>3.2</ele>
        <time>2020-06-15T15:06:15Z</time>
      </trkpt>
      <trkpt lat="49.46048" lon="-1.22828">
        <ele>3.2</ele>
        <time>2020-06-15T15:06:16Z</time>
      </trkpt>
      <trkpt lat="49.46044" lon="-1.22823">
        <ele>3.2</ele>
        <time>2020-06-15T15:06:17Z</time>
      </trkpt>
      <trkpt lat="49.46039" lon="-1.22818">
        <ele>3.3</ele>
        <time>2020-06-15T15:06:18Z</time>
      </trkpt>
      <trkpt lat="49.46034" lon="-1.22813">
        <ele>3.3</ele>
        <time>2020-06-15T15:06:19Z</time>
      </trkpt>
      <trkpt lat="49.46029" lon="-1.22808">
        <ele>3.3</ele>
        <time>2020-06-15T15:06:20Z</time>
      </trkpt>
      <trkpt lat="49.46025" lon="-1.22803">
        <ele>3.3</ele>
        <time>2020-06-15T15:06:21Z</time>
      </trkpt>
      <trkpt lat="49.4602" lon="-1.22798">
        <ele>3.3</ele>
        <time>2020-06-15T15:06:22Z</time>
      </trkpt>
      <trkpt lat="49.46016" lon="-1.22792">
        <ele>3.3</ele>
        <time>2020-06-15T15:06:23Z</time>
      </trkpt>
      <trkpt lat="49.46012" lon="-1.22787">
        <ele>3.3</ele>
        <time>2020-06-15T15:06:24Z</time>
      </trkpt>
      <trkpt lat="49.46006" lon="-1.22781">
        <ele>3.3</ele>
        <time>2020-06-15T15:06:25Z</time>
      </trkpt>
      <trkpt lat="49.46001" lon="-1.22776">
        <ele>3.3</ele>
        <time>2020-06-15T15:06:26Z</time>
      </trkpt>
      <trkpt lat="49.45996" lon="-1.22771">
        <ele>3.3</ele>
        <time>2020-06-15T15:06:27Z</time>
      </trkpt>
      <trkpt lat="49.45992" lon="-1.22766">
        <ele>3.4</ele>
        <time>2020-06-15T15:06:28Z</time>
      </trkpt>
      <trkpt lat="49.45987" lon="-1.2276">
        <ele>3.4</ele>
        <time>2020-06-15T15:06:29Z</time>
      </trkpt>
      <trkpt lat="49.45982" lon="-1.22754">
        <ele>3.4</ele>
        <time>2020-06-15T15:06:30Z</time>
      </trkpt>
      <trkpt lat="49.45977" lon="-1.2275">
        <ele>3.4</ele>
        <time>2020-06-15T15:06:31Z</time>
      </trkpt>
      <trkpt lat="49.45972" lon="-1.22745">
        <ele>3.4</ele>
        <time>2020-06-15T15:06:32Z</time>
      </trkpt>
      <trkpt lat="49.45968" lon="-1.2274">
        <ele>3.4</ele>
        <time>2020-06-15T15:06:33Z</time>
      </trkpt>
      <trkpt lat="49.45963" lon="-1.22735">
        <ele>3.4</ele>
        <time>2020-06-15T15:06:34Z</time>
      </trkpt>
      <trkpt lat="49.45959" lon="-1.22729">
        <ele>3.4</ele>
        <time>2020-06-15T15:06:35Z</time>
      </trkpt>
      <trkpt lat="49.45954" lon="-1.22724">
        <ele>3.4</ele>
        <time>2020-06-15T15:06:36Z</time>
      </trkpt>
      <trkpt lat="49.45949" lon="-1.22719">
        <ele>3.4</ele>
        <time>2020-06-15T15:06:37Z</time>
      </trkpt>
      <trkpt lat="49.45945" lon="-1.22715">
        <ele>3.4</ele>
        <time>2020-06-15T15:06:38Z</time>
      </trkpt>
      <trkpt lat="49.4594" lon="-1.22711">
        <ele>3.4</ele>
        <time>2020-06-15T15:06:39Z</time>
      </trkpt>
      <trkpt lat="49.45935" lon="-1.22706">
        <ele>3.4</ele>
        <time>2020-06-15T15:06:40Z</time>
      </trkpt>
      <trkpt lat="49.45931" lon="-1.22702">
        <ele>3.4</ele>
        <time>2020-06-15T15:06:41Z</time>
      </trkpt>
      <trkpt lat="49.45927" lon="-1.22697">
        <ele>3.4</ele>
        <time>2020-06-15T15:06:42Z</time>
      </trkpt>
      <trkpt lat="49.45922" lon="-1.22692">
        <ele>3.4</ele>
        <time>2020-06-15T15:06:43Z</time>
      </trkpt>
      <trkpt lat="49.45918" lon="-1.22687">
        <ele>3.4</ele>
        <time>2020-06-15T15:06:44Z</time>
      </trkpt>
      <trkpt lat="49.45913" lon="-1.22682">
        <ele>3.3</ele>
        <time>2020-06-15T15:06:45Z</time>
      </trkpt>
      <trkpt lat="49.45908" lon="-1.22675">
        <ele>3.3</ele>
        <time>2020-06-15T15:06:46Z</time>
      </trkpt>
      <trkpt lat="49.45903" lon="-1.22671">
        <ele>3.3</ele>
        <time>2020-06-15T15:06:47Z</time>
      </trkpt>
      <trkpt lat="49.45898" lon="-1.22665">
        <ele>3.3</ele>
        <time>2020-06-15T15:06:48Z</time>
      </trkpt>
      <trkpt lat="49.45893" lon="-1.22659">
        <ele>3.3</ele>
        <time>2020-06-15T15:06:49Z</time>
      </trkpt>
      <trkpt lat="49.45888" lon="-1.22654">
        <ele>3.3</ele>
        <time>2020-06-15T15:06:50Z</time>
      </trkpt>
      <trkpt lat="49.45882" lon="-1.22649">
        <ele>3.4</ele>
        <time>2020-06-15T15:06:51Z</time>
      </trkpt>
      <trkpt lat="49.45877" lon="-1.22645">
        <ele>3.4</ele>
        <time>2020-06-15T15:06:52Z</time>
      </trkpt>
      <trkpt lat="49.45872" lon="-1.2264">
        <ele>3.4</ele>
        <time>2020-06-15T15:06:53Z</time>
      </trkpt>
      <trkpt lat="49.45868" lon="-1.22634">
        <ele>3.4</ele>
        <time>2020-06-15T15:06:54Z</time>
      </trkpt>
      <trkpt lat="49.45863" lon="-1.22628">
        <ele>3.4</ele>
        <time>2020-06-15T15:06:55Z</time>
      </trkpt>
      <trkpt lat="49.45859" lon="-1.22622">
        <ele>3.4</ele>
        <time>2020-06-15T15:06:56Z</time>
      </trkpt>
      <trkpt lat="49.45854" lon="-1.22617">
        <ele>3.4</ele>
        <time>2020-06-15T15:06:57Z</time>
      </trkpt>
      <trkpt lat="49.4585" lon="-1.22612">
        <ele>3.4</ele>
        <time>2020-06-15T15:06:58Z</time>
      </trkpt>
      <trkpt lat="49.45845" lon="-1.22608">
        <ele>3.3</ele>
        <time>2020-06-15T15:06:59Z</time>
      </trkpt>
      <trkpt lat="49.45839" lon="-1.22602">
        <ele>3.3</ele>
        <time>2020-06-15T15:07:00Z</time>
      </trkpt>
      <trkpt lat="49.45835" lon="-1.22597">
        <ele>3.3</ele>
        <time>2020-06-15T15:07:01Z</time>
      </trkpt>
      <trkpt lat="49.4583" lon="-1.22593">
        <ele>3.2</ele>
        <time>2020-06-15T15:07:02Z</time>
      </trkpt>
      <trkpt lat="49.45825" lon="-1.22588">
        <ele>3.2</ele>
        <time>2020-06-15T15:07:03Z</time>
      </trkpt>
      <trkpt lat="49.4582" lon="-1.22584">
        <ele>3.2</ele>
        <time>2020-06-15T15:07:04Z</time>
      </trkpt>
      <trkpt lat="49.45816" lon="-1.22578">
        <ele>3.2</ele>
        <time>2020-06-15T15:07:05Z</time>
      </trkpt>
      <trkpt lat="49.45811" lon="-1.22573">
        <ele>3.2</ele>
        <time>2020-06-15T15:07:06Z</time>
      </trkpt>
      <trkpt lat="49.45806" lon="-1.22567">
        <ele>3.2</ele>
        <time>2020-06-15T15:07:07Z</time>
      </trkpt>
      <trkpt lat="49.45801" lon="-1.22562">
        <ele>3.2</ele>
        <time>2020-06-15T15:07:08Z</time>
      </trkpt>
      <trkpt lat="49.45796" lon="-1.22556">
        <ele>3.2</ele>
        <time>2020-06-15T15:07:09Z</time>
      </trkpt>
      <trkpt lat="49.45792" lon="-1.22551">
        <ele>3.2</ele>
        <time>2020-06-15T15:07:10Z</time>
      </trkpt>
      <trkpt lat="49.45787" lon="-1.22546">
        <ele>3.2</ele>
        <time>2020-06-15T15:07:11Z</time>
      </trkpt>
      <trkpt lat="49.45782" lon="-1.22539">
        <ele>3.2</ele>
        <time>2020-06-15T15:07:12Z</time>
      </trkpt>
      <trkpt lat="49.45777" lon="-1.22534">
        <ele>3.2</ele>
        <time>2020-06-15T15:07:13Z</time>
      </trkpt>
      <trkpt lat="49.45772" lon="-1.2253">
        <ele>3.2</ele>
        <time>2020-06-15T15:07:14Z</time>
      </trkpt>
      <trkpt lat="49.45768" lon="-1.22525">
        <ele>3.2</ele>
        <time>2020-06-15T15:07:15Z</time>
      </trkpt>
      <trkpt lat="49.45763" lon="-1.22521">
        <ele>3.2</ele>
        <time>2020-06-15T15:07:16Z</time>
      </trkpt>
      <trkpt lat="49.45757" lon="-1.22515">
        <ele>3.2</ele>
        <time>2020-06-15T15:07:17Z</time>
      </trkpt>
      <trkpt lat="49.45751" lon="-1.22509">
        <ele>3.2</ele>
        <time>2020-06-15T15:07:18Z</time>
      </trkpt>
      <trkpt lat="49.45746" lon="-1.22504">
        <ele>3.2</ele>
        <time>2020-06-15T15:07:19Z</time>
      </trkpt>
      <trkpt lat="49.45741" lon="-1.22499">
        <ele>3.1</ele>
        <time>2020-06-15T15:07:20Z</time>
      </trkpt>
      <trkpt lat="49.45737" lon="-1.22495">
        <ele>3.1</ele>
        <time>2020-06-15T15:07:21Z</time>
      </trkpt>
      <trkpt lat="49.45732" lon="-1.2249">
        <ele>3.1</ele>
        <time>2020-06-15T15:07:22Z</time>
      </trkpt>
      <trkpt lat="49.45727" lon="-1.22485">
        <ele>3.1</ele>
        <time>2020-06-15T15:07:23Z</time>
      </trkpt>
      <trkpt lat="49.45723" lon="-1.22479">
        <ele>3.1</ele>
        <time>2020-06-15T15:07:24Z</time>
      </trkpt>
      <trkpt lat="49.45719" lon="-1.22473">
        <ele>3.2</ele>
        <time>2020-06-15T15:07:25Z</time>
      </trkpt>
      <trkpt lat="49.45713" lon="-1.22467">
        <ele>3.2</ele>
        <time>2020-06-15T15:07:26Z</time>
      </trkpt>
      <trkpt lat="49.45708" lon="-1.22463">
        <ele>3.3</ele>
        <time>2020-06-15T15:07:27Z</time>
      </trkpt>
      <trkpt lat="49.45704" lon="-1.22458">
        <ele>3.3</ele>
        <time>2020-06-15T15:07:28Z</time>
      </trkpt>
      <trkpt lat="49.45699" lon="-1.22454">
        <ele>3.3</ele>
        <time>2020-06-15T15:07:29Z</time>
      </trkpt>
      <trkpt lat="49.45693" lon="-1.22448">
        <ele>3.3</ele>
        <time>2020-06-15T15:07:30Z</time>
      </trkpt>
      <trkpt lat="49.45688" lon="-1.22444">
        <ele>3.3</ele>
        <time>2020-06-15T15:07:31Z</time>
      </trkpt>
      <trkpt lat="49.45684" lon="-1.22439">
        <ele>3.3</ele>
        <time>2020-06-15T15:07:32Z</time>
      </trkpt>
      <trkpt lat="49.4568" lon="-1.22436">
        <ele>3.3</ele>
        <time>2020-06-15T15:07:33Z</time>
      </trkpt>
      <trkpt lat="49.45675" lon="-1.22431">
        <ele>3.2</ele>
        <time>2020-06-15T15:07:34Z</time>
      </trkpt>
      <trkpt lat="49.4567" lon="-1.22425">
        <ele>3.2</ele>
        <time>2020-06-15T15:07:35Z</time>
      </trkpt>
      <trkpt lat="49.45666" lon="-1.2242">
        <ele>3.2</ele>
        <time>2020-06-15T15:07:36Z</time>
      </trkpt>
      <trkpt lat="49.45662" lon="-1.22415">
        <ele>3.2</ele>
        <time>2020-06-15T15:07:37Z</time>
      </trkpt>
      <trkpt lat="49.45657" lon="-1.2241">
        <ele>3.2</ele>
        <time>2020-06-15T15:07:38Z</time>
      </trkpt>
      <trkpt lat="49.45653" lon="-1.22405">
        <ele>3.2</ele>
        <time>2020-06-15T15:07:39Z</time>
      </trkpt>
      <trkpt lat="49.45648" lon="-1.224">
        <ele>3.1</ele>
        <time>2020-06-15T15:07:40Z</time>
      </trkpt>
      <trkpt lat="49.45644" lon="-1.22394">
        <ele>3.1</ele>
        <time>2020-06-15T15:07:41Z</time>
      </trkpt>
      <trkpt lat="49.45639" lon="-1.22388">
        <ele>3</ele>
        <time>2020-06-15T15:07:42Z</time>
      </trkpt>
      <trkpt lat="49.45634" lon="-1.22383">
        <ele>3</ele>
        <time>2020-06-15T15:07:43Z</time>
      </trkpt>
      <trkpt lat="49.45629" lon="-1.22378">
        <ele>3</ele>
        <time>2020-06-15T15:07:44Z</time>
      </trkpt>
      <trkpt lat="49.45624" lon="-1.22372">
        <ele>3</ele>
        <time>2020-06-15T15:07:45Z</time>
      </trkpt>
      <trkpt lat="49.45619" lon="-1.22365">
        <ele>3</ele>
        <time>2020-06-15T15:07:46Z</time>
      </trkpt>
      <trkpt lat="49.45615" lon="-1.2236">
        <ele>3</ele>
        <time>2020-06-15T15:07:47Z</time>
      </trkpt>
      <trkpt lat="49.4561" lon="-1.22355">
        <ele>3</ele>
        <time>2020-06-15T15:07:48Z</time>
      </trkpt>
      <trkpt lat="49.45606" lon="-1.2235">
        <ele>3</ele>
        <time>2020-06-15T15:07:49Z</time>
      </trkpt>
      <trkpt lat="49.45601" lon="-1.22345">
        <ele>3</ele>
        <time>2020-06-15T15:07:50Z</time>
      </trkpt>
      <trkpt lat="49.45596" lon="-1.22339">
        <ele>3</ele>
        <time>2020-06-15T15:07:51Z</time>
      </trkpt>
      <trkpt lat="49.45591" lon="-1.22334">
        <ele>3</ele>
        <time>2020-06-15T15:07:52Z</time>
      </trkpt>
      <trkpt lat="49.45585" lon="-1.22328">
        <ele>3</ele>
        <time>2020-06-15T15:07:53Z</time>
      </trkpt>
      <trkpt lat="49.45581" lon="-1.22323">
        <ele>3</ele>
        <time>2020-06-15T15:07:54Z</time>
      </trkpt>
      <trkpt lat="49.45577" lon="-1.22317">
        <ele>3</ele>
        <time>2020-06-15T15:07:55Z</time>
      </trkpt>
      <trkpt lat="49.45572" lon="-1.22312">
        <ele>3.1</ele>
        <time>2020-06-15T15:07:56Z</time>
      </trkpt>
      <trkpt lat="49.45568" lon="-1.22306">
        <ele>3.1</ele>
        <time>2020-06-15T15:07:57Z</time>
      </trkpt>
      <trkpt lat="49.45564" lon="-1.223">
        <ele>3</ele>
        <time>2020-06-15T15:07:58Z</time>
      </trkpt>
      <trkpt lat="49.45559" lon="-1.22294">
        <ele>3</ele>
        <time>2020-06-15T15:07:59Z</time>
      </trkpt>
      <trkpt lat="49.45555" lon="-1.22288">
        <ele>3</ele>
        <time>2020-06-15T15:08:00Z</time>
      </trkpt>
      <trkpt lat="49.4555" lon="-1.22283">
        <ele>3</ele>
        <time>2020-06-15T15:08:01Z</time>
      </trkpt>
      <trkpt lat="49.45545" lon="-1.22277">
        <ele>3</ele>
        <time>2020-06-15T15:08:02Z</time>
      </trkpt>
      <trkpt lat="49.45541" lon="-1.22272">
        <ele>3</ele>
        <time>2020-06-15T15:08:03Z</time>
      </trkpt>
      <trkpt lat="49.45536" lon="-1.22266">
        <ele>3.1</ele>
        <time>2020-06-15T15:08:04Z</time>
      </trkpt>
      <trkpt lat="49.45532" lon="-1.2226">
        <ele>3.1</ele>
        <time>2020-06-15T15:08:05Z</time>
      </trkpt>
      <trkpt lat="49.45527" lon="-1.22255">
        <ele>3.2</ele>
        <time>2020-06-15T15:08:06Z</time>
      </trkpt>
      <trkpt lat="49.45522" lon="-1.22249">
        <ele>3.2</ele>
        <time>2020-06-15T15:08:07Z</time>
      </trkpt>
      <trkpt lat="49.45517" lon="-1.22243">
        <ele>3.2</ele>
        <time>2020-06-15T15:08:08Z</time>
      </trkpt>
      <trkpt lat="49.45513" lon="-1.22239">
        <ele>3.3</ele>
        <time>2020-06-15T15:08:09Z</time>
      </trkpt>
      <trkpt lat="49.45509" lon="-1.22234">
        <ele>3.3</ele>
        <time>2020-06-15T15:08:10Z</time>
      </trkpt>
      <trkpt lat="49.45505" lon="-1.22227">
        <ele>3.3</ele>
        <time>2020-06-15T15:08:11Z</time>
      </trkpt>
      <trkpt lat="49.455" lon="-1.22221">
        <ele>3.3</ele>
        <time>2020-06-15T15:08:12Z</time>
      </trkpt>
      <trkpt lat="49.45496" lon="-1.22216">
        <ele>3.3</ele>
        <time>2020-06-15T15:08:13Z</time>
      </trkpt>
      <trkpt lat="49.45491" lon="-1.2221">
        <ele>3.3</ele>
        <time>2020-06-15T15:08:14Z</time>
      </trkpt>
      <trkpt lat="49.45485" lon="-1.22204">
        <ele>3.3</ele>
        <time>2020-06-15T15:08:15Z</time>
      </trkpt>
      <trkpt lat="49.4548" lon="-1.22198">
        <ele>3.2</ele>
        <time>2020-06-15T15:08:16Z</time>
      </trkpt>
      <trkpt lat="49.45475" lon="-1.22192">
        <ele>3.2</ele>
        <time>2020-06-15T15:08:17Z</time>
      </trkpt>
      <trkpt lat="49.4547" lon="-1.22185">
        <ele>3.2</ele>
        <time>2020-06-15T15:08:18Z</time>
      </trkpt>
      <trkpt lat="49.45466" lon="-1.2218">
        <ele>3.2</ele>
        <time>2020-06-15T15:08:19Z</time>
      </trkpt>
      <trkpt lat="49.45461" lon="-1.22174">
        <ele>3.2</ele>
        <time>2020-06-15T15:08:20Z</time>
      </trkpt>
      <trkpt lat="49.45456" lon="-1.22168">
        <ele>3.2</ele>
        <time>2020-06-15T15:08:21Z</time>
      </trkpt>
      <trkpt lat="49.45452" lon="-1.22162">
        <ele>3.3</ele>
        <time>2020-06-15T15:08:22Z</time>
      </trkpt>
      <trkpt lat="49.45447" lon="-1.22155">
        <ele>3.3</ele>
        <time>2020-06-15T15:08:23Z</time>
      </trkpt>
      <trkpt lat="49.45443" lon="-1.22149">
        <ele>3.3</ele>
        <time>2020-06-15T15:08:24Z</time>
      </trkpt>
      <trkpt lat="49.45439" lon="-1.22143">
        <ele>3.3</ele>
        <time>2020-06-15T15:08:25Z</time>
      </trkpt>
      <trkpt lat="49.45435" lon="-1.22138">
        <ele>3.3</ele>
        <time>2020-06-15T15:08:26Z</time>
      </trkpt>
      <trkpt lat="49.45431" lon="-1.22132">
        <ele>3.3</ele>
        <time>2020-06-15T15:08:27Z</time>
      </trkpt>
      <trkpt lat="49.45426" lon="-1.22126">
        <ele>3.3</ele>
        <time>2020-06-15T15:08:28Z</time>
      </trkpt>
      <trkpt lat="49.45422" lon="-1.2212">
        <ele>3.2</ele>
        <time>2020-06-15T15:08:29Z</time>
      </trkpt>
      <trkpt lat="49.45417" lon="-1.22113">
        <ele>3.2</ele>
        <time>2020-06-15T15:08:30Z</time>
      </trkpt>
      <trkpt lat="49.45412" lon="-1.22108">
        <ele>3.2</ele>
        <time>2020-06-15T15:08:31Z</time>
      </trkpt>
      <trkpt lat="49.45407" lon="-1.22103">
        <ele>3.1</ele>
        <time>2020-06-15T15:08:32Z</time>
      </trkpt>
      <trkpt lat="49.45402" lon="-1.22097">
        <ele>3.1</ele>
        <time>2020-06-15T15:08:33Z</time>
      </trkpt>
      <trkpt lat="49.45396" lon="-1.22092">
        <ele>3.1</ele>
        <time>2020-06-15T15:08:34Z</time>
      </trkpt>
      <trkpt lat="49.45391" lon="-1.22086">
        <ele>3.1</ele>
        <time>2020-06-15T15:08:35Z</time>
      </trkpt>
      <trkpt lat="49.45386" lon="-1.2208">
        <ele>3</ele>
        <time>2020-06-15T15:08:36Z</time>
      </trkpt>
      <trkpt lat="49.45381" lon="-1.22075">
        <ele>3</ele>
        <time>2020-06-15T15:08:37Z</time>
      </trkpt>
      <trkpt lat="49.45376" lon="-1.2207">
        <ele>3</ele>
        <time>2020-06-15T15:08:38Z</time>
      </trkpt>
      <trkpt lat="49.45371" lon="-1.22064">
        <ele>3</ele>
        <time>2020-06-15T15:08:39Z</time>
      </trkpt>
      <trkpt lat="49.45365" lon="-1.22057">
        <ele>3</ele>
        <time>2020-06-15T15:08:40Z</time>
      </trkpt>
      <trkpt lat="49.4536" lon="-1.2205">
        <ele>3</ele>
        <time>2020-06-15T15:08:41Z</time>
      </trkpt>
      <trkpt lat="49.45356" lon="-1.22045">
        <ele>2.9</ele>
        <time>2020-06-15T15:08:42Z</time>
      </trkpt>
      <trkpt lat="49.45352" lon="-1.22041">
        <ele>2.9</ele>
        <time>2020-06-15T15:08:43Z</time>
      </trkpt>
      <trkpt lat="49.45347" lon="-1.22034">
        <ele>2.8</ele>
        <time>2020-06-15T15:08:44Z</time>
      </trkpt>
      <trkpt lat="49.45341" lon="-1.22028">
        <ele>2.8</ele>
        <time>2020-06-15T15:08:45Z</time>
      </trkpt>
      <trkpt lat="49.45336" lon="-1.22022">
        <ele>2.8</ele>
        <time>2020-06-15T15:08:46Z</time>
      </trkpt>
      <trkpt lat="49.45331" lon="-1.22017">
        <ele>2.8</ele>
        <time>2020-06-15T15:08:47Z</time>
      </trkpt>
      <trkpt lat="49.45325" lon="-1.22012">
        <ele>2.9</ele>
        <time>2020-06-15T15:08:48Z</time>
      </trkpt>
      <trkpt lat="49.45321" lon="-1.22007">
        <ele>2.9</ele>
        <time>2020-06-15T15:08:49Z</time>
      </trkpt>
      <trkpt lat="49.45316" lon="-1.22002">
        <ele>2.8</ele>
        <time>2020-06-15T15:08:50Z</time>
      </trkpt>
      <trkpt lat="49.4531" lon="-1.21996">
        <ele>2.8</ele>
        <time>2020-06-15T15:08:51Z</time>
      </trkpt>
      <trkpt lat="49.45305" lon="-1.21991">
        <ele>2.8</ele>
        <time>2020-06-15T15:08:52Z</time>
      </trkpt>
      <trkpt lat="49.453" lon="-1.21985">
        <ele>2.7</ele>
        <time>2020-06-15T15:08:53Z</time>
      </trkpt>
      <trkpt lat="49.45295" lon="-1.2198">
        <ele>2.7</ele>
        <time>2020-06-15T15:08:54Z</time>
      </trkpt>
      <trkpt lat="49.4529" lon="-1.21975">
        <ele>2.7</ele>
        <time>2020-06-15T15:08:55Z</time>
      </trkpt>
      <trkpt lat="49.45286" lon="-1.2197">
        <ele>2.7</ele>
        <time>2020-06-15T15:08:56Z</time>
      </trkpt>
      <trkpt lat="49.45281" lon="-1.21964">
        <ele>2.7</ele>
        <time>2020-06-15T15:08:57Z</time>
      </trkpt>
      <trkpt lat="49.45276" lon="-1.2196">
        <ele>2.8</ele>
        <time>2020-06-15T15:08:58Z</time>
      </trkpt>
      <trkpt lat="49.45271" lon="-1.21955">
        <ele>2.8</ele>
        <time>2020-06-15T15:08:59Z</time>
      </trkpt>
      <trkpt lat="49.45266" lon="-1.21949">
        <ele>2.9</ele>
        <time>2020-06-15T15:09:00Z</time>
      </trkpt>
      <trkpt lat="49.45261" lon="-1.21943">
        <ele>2.9</ele>
        <time>2020-06-15T15:09:01Z</time>
      </trkpt>
      <trkpt lat="49.45255" lon="-1.21938">
        <ele>3</ele>
        <time>2020-06-15T15:09:02Z</time>
      </trkpt>
      <trkpt lat="49.4525" lon="-1.21933">
        <ele>3</ele>
        <time>2020-06-15T15:09:03Z</time>
      </trkpt>
      <trkpt lat="49.45245" lon="-1.21927">
        <ele>3</ele>
        <time>2020-06-15T15:09:04Z</time>
      </trkpt>
      <trkpt lat="49.45239" lon="-1.2192">
        <ele>3</ele>
        <time>2020-06-15T15:09:05Z</time>
      </trkpt>
      <trkpt lat="49.45234" lon="-1.21914">
        <ele>3</ele>
        <time>2020-06-15T15:09:06Z</time>
      </trkpt>
      <trkpt lat="49.45229" lon="-1.21908">
        <ele>3</ele>
        <time>2020-06-15T15:09:07Z</time>
      </trkpt>
      <trkpt lat="49.45224" lon="-1.21902">
        <ele>3</ele>
        <time>2020-06-15T15:09:08Z</time>
      </trkpt>
      <trkpt lat="49.45219" lon="-1.21896">
        <ele>3</ele>
        <time>2020-06-15T15:09:09Z</time>
      </trkpt>
      <trkpt lat="49.45214" lon="-1.21891">
        <ele>3</ele>
        <time>2020-06-15T15:09:10Z</time>
      </trkpt>
      <trkpt lat="49.45209" lon="-1.21885">
        <ele>3</ele>
        <time>2020-06-15T15:09:11Z</time>
      </trkpt>
      <trkpt lat="49.45204" lon="-1.2188">
        <ele>3</ele>
        <time>2020-06-15T15:09:12Z</time>
      </trkpt>
      <trkpt lat="49.452" lon="-1.21875">
        <ele>3</ele>
        <time>2020-06-15T15:09:13Z</time>
      </trkpt>
      <trkpt lat="49.45195" lon="-1.21869">
        <ele>3</ele>
        <time>2020-06-15T15:09:14Z</time>
      </trkpt>
      <trkpt lat="49.45191" lon="-1.21864">
        <ele>3</ele>
        <time>2020-06-15T15:09:15Z</time>
      </trkpt>
      <trkpt lat="49.45186" lon="-1.21858">
        <ele>3</ele>
        <time>2020-06-15T15:09:16Z</time>
      </trkpt>
      <trkpt lat="49.45181" lon="-1.21853">
        <ele>3</ele>
        <time>2020-06-15T15:09:17Z</time>
      </trkpt>
      <trkpt lat="49.45175" lon="-1.21846">
        <ele>3</ele>
        <time>2020-06-15T15:09:18Z</time>
      </trkpt>
      <trkpt lat="49.4517" lon="-1.21839">
        <ele>3</ele>
        <time>2020-06-15T15:09:19Z</time>
      </trkpt>
      <trkpt lat="49.45165" lon="-1.21834">
        <ele>3</ele>
        <time>2020-06-15T15:09:20Z</time>
      </trkpt>
      <trkpt lat="49.4516" lon="-1.21828">
        <ele>3.1</ele>
        <time>2020-06-15T15:09:21Z</time>
      </trkpt>
      <trkpt lat="49.45154" lon="-1.21821">
        <ele>3.1</ele>
        <time>2020-06-15T15:09:22Z</time>
      </trkpt>
      <trkpt lat="49.45149" lon="-1.21814">
        <ele>3.1</ele>
        <time>2020-06-15T15:09:23Z</time>
      </trkpt>
      <trkpt lat="49.45143" lon="-1.21808">
        <ele>3.2</ele>
        <time>2020-06-15T15:09:24Z</time>
      </trkpt>
      <trkpt lat="49.45138" lon="-1.21802">
        <ele>3.2</ele>
        <time>2020-06-15T15:09:25Z</time>
      </trkpt>
      <trkpt lat="49.45133" lon="-1.21794">
        <ele>3.2</ele>
        <time>2020-06-15T15:09:26Z</time>
      </trkpt>
      <trkpt lat="49.45127" lon="-1.21787">
        <ele>3.3</ele>
        <time>2020-06-15T15:09:27Z</time>
      </trkpt>
      <trkpt lat="49.45122" lon="-1.21783">
        <ele>3.3</ele>
        <time>2020-06-15T15:09:28Z</time>
      </trkpt>
      <trkpt lat="49.45117" lon="-1.21778">
        <ele>3.3</ele>
        <time>2020-06-15T15:09:29Z</time>
      </trkpt>
      <trkpt lat="49.45112" lon="-1.21772">
        <ele>3.2</ele>
        <time>2020-06-15T15:09:30Z</time>
      </trkpt>
      <trkpt lat="49.45107" lon="-1.21768">
        <ele>3.2</ele>
        <time>2020-06-15T15:09:31Z</time>
      </trkpt>
      <trkpt lat="49.45102" lon="-1.21761">
        <ele>3.1</ele>
        <time>2020-06-15T15:09:32Z</time>
      </trkpt>
      <trkpt lat="49.45098" lon="-1.21756">
        <ele>3.1</ele>
        <time>2020-06-15T15:09:33Z</time>
      </trkpt>
      <trkpt lat="49.45092" lon="-1.21751">
        <ele>3</ele>
        <time>2020-06-15T15:09:34Z</time>
      </trkpt>
      <trkpt lat="49.45087" lon="-1.21746">
        <ele>3</ele>
        <time>2020-06-15T15:09:35Z</time>
      </trkpt>
      <trkpt lat="49.45082" lon="-1.2174">
        <ele>3</ele>
        <time>2020-06-15T15:09:36Z</time>
      </trkpt>
      <trkpt lat="49.45076" lon="-1.21734">
        <ele>3</ele>
        <time>2020-06-15T15:09:37Z</time>
      </trkpt>
      <trkpt lat="49.4507" lon="-1.21729">
        <ele>3.1</ele>
        <time>2020-06-15T15:09:38Z</time>
      </trkpt>
      <trkpt lat="49.45064" lon="-1.21723">
        <ele>3.1</ele>
        <time>2020-06-15T15:09:39Z</time>
      </trkpt>
      <trkpt lat="49.45057" lon="-1.21717">
        <ele>3.1</ele>
        <time>2020-06-15T15:09:40Z</time>
      </trkpt>
      <trkpt lat="49.45052" lon="-1.21713">
        <ele>3.1</ele>
        <time>2020-06-15T15:09:41Z</time>
      </trkpt>
      <trkpt lat="49.45045" lon="-1.21709">
        <ele>3.1</ele>
        <time>2020-06-15T15:09:42Z</time>
      </trkpt>
      <trkpt lat="49.4504" lon="-1.21704">
        <ele>3.1</ele>
        <time>2020-06-15T15:09:43Z</time>
      </trkpt>
      <trkpt lat="49.45034" lon="-1.217">
        <ele>3.1</ele>
        <time>2020-06-15T15:09:44Z</time>
      </trkpt>
      <trkpt lat="49.45028" lon="-1.21695">
        <ele>3.1</ele>
        <time>2020-06-15T15:09:45Z</time>
      </trkpt>
      <trkpt lat="49.45022" lon="-1.21691">
        <ele>3</ele>
        <time>2020-06-15T15:09:46Z</time>
      </trkpt>
      <trkpt lat="49.45016" lon="-1.21687">
        <ele>3</ele>
        <time>2020-06-15T15:09:47Z</time>
      </trkpt>
      <trkpt lat="49.4501" lon="-1.21682">
        <ele>3</ele>
        <time>2020-06-15T15:09:48Z</time>
      </trkpt>
      <trkpt lat="49.45005" lon="-1.21679">
        <ele>2.9</ele>
        <time>2020-06-15T15:09:49Z</time>
      </trkpt>
      <trkpt lat="49.44999" lon="-1.21674">
        <ele>2.9</ele>
        <time>2020-06-15T15:09:50Z</time>
      </trkpt>
      <trkpt lat="49.44993" lon="-1.2167">
        <ele>2.9</ele>
        <time>2020-06-15T15:09:51Z</time>
      </trkpt>
      <trkpt lat="49.44986" lon="-1.21666">
        <ele>2.9</ele>
        <time>2020-06-15T15:09:52Z</time>
      </trkpt>
      <trkpt lat="49.4498" lon="-1.21661">
        <ele>3</ele>
        <time>2020-06-15T15:09:53Z</time>
      </trkpt>
      <trkpt lat="49.44975" lon="-1.21657">
        <ele>3</ele>
        <time>2020-06-15T15:09:54Z</time>
      </trkpt>
      <trkpt lat="49.44968" lon="-1.21653">
        <ele>3</ele>
        <time>2020-06-15T15:09:55Z</time>
      </trkpt>
      <trkpt lat="49.44963" lon="-1.2165">
        <ele>3.1</ele>
        <time>2020-06-15T15:09:56Z</time>
      </trkpt>
      <trkpt lat="49.44957" lon="-1.21646">
        <ele>3.2</ele>
        <time>2020-06-15T15:09:57Z</time>
      </trkpt>
      <trkpt lat="49.44952" lon="-1.21643">
        <ele>3.2</ele>
        <time>2020-06-15T15:09:58Z</time>
      </trkpt>
      <trkpt lat="49.44947" lon="-1.2164">
        <ele>3.2</ele>
        <time>2020-06-15T15:09:59Z</time>
      </trkpt>
      <trkpt lat="49.44942" lon="-1.21636">
        <ele>3.3</ele>
        <time>2020-06-15T15:10:00Z</time>
      </trkpt>
      <trkpt lat="49.44937" lon="-1.21633">
        <ele>3.3</ele>
        <time>2020-06-15T15:10:01Z</time>
      </trkpt>
      <trkpt lat="49.44932" lon="-1.21629">
        <ele>3.3</ele>
        <time>2020-06-15T15:10:02Z</time>
      </trkpt>
      <trkpt lat="49.44927" lon="-1.21626">
        <ele>3.3</ele>
        <time>2020-06-15T15:10:03Z</time>
      </trkpt>
      <trkpt lat="49.44921" lon="-1.21622">
        <ele>3.3</ele>
        <time>2020-06-15T15:10:04Z</time>
      </trkpt>
      <trkpt lat="49.44916" lon="-1.21619">
        <ele>3.2</ele>
        <time>2020-06-15T15:10:05Z</time>
      </trkpt>
      <trkpt lat="49.44909" lon="-1.21614">
        <ele>3.1</ele>
        <time>2020-06-15T15:10:06Z</time>
      </trkpt>
      <trkpt lat="49.44904" lon="-1.2161">
        <ele>3.1</ele>
        <time>2020-06-15T15:10:07Z</time>
      </trkpt>
      <trkpt lat="49.44897" lon="-1.21607">
        <ele>3</ele>
        <time>2020-06-15T15:10:08Z</time>
      </trkpt>
      <trkpt lat="49.44892" lon="-1.21603">
        <ele>2.9</ele>
        <time>2020-06-15T15:10:09Z</time>
      </trkpt>
      <trkpt lat="49.44886" lon="-1.21601">
        <ele>2.8</ele>
        <time>2020-06-15T15:10:10Z</time>
      </trkpt>
      <trkpt lat="49.44881" lon="-1.21597">
        <ele>2.8</ele>
        <time>2020-06-15T15:10:11Z</time>
      </trkpt>
      <trkpt lat="49.44874" lon="-1.21592">
        <ele>2.7</ele>
        <time>2020-06-15T15:10:12Z</time>
      </trkpt>
      <trkpt lat="49.44868" lon="-1.21588">
        <ele>2.7</ele>
        <time>2020-06-15T15:10:13Z</time>
      </trkpt>
      <trkpt lat="49.44862" lon="-1.21584">
        <ele>2.6</ele>
        <time>2020-06-15T15:10:14Z</time>
      </trkpt>
      <trkpt lat="49.44856" lon="-1.21579">
        <ele>2.6</ele>
        <time>2020-06-15T15:10:15Z</time>
      </trkpt>
      <trkpt lat="49.4485" lon="-1.21576">
        <ele>2.5</ele>
        <time>2020-06-15T15:10:16Z</time>
      </trkpt>
      <trkpt lat="49.44844" lon="-1.2157">
        <ele>2.5</ele>
        <time>2020-06-15T15:10:17Z</time>
      </trkpt>
      <trkpt lat="49.44837" lon="-1.21565">
        <ele>2.5</ele>
        <time>2020-06-15T15:10:18Z</time>
      </trkpt>
      <trkpt lat="49.44831" lon="-1.21561">
        <ele>2.5</ele>
        <time>2020-06-15T15:10:19Z</time>
      </trkpt>
      <trkpt lat="49.44825" lon="-1.21557">
        <ele>2.5</ele>
        <time>2020-06-15T15:10:20Z</time>
      </trkpt>
      <trkpt lat="49.44819" lon="-1.21552">
        <ele>2.5</ele>
        <time>2020-06-15T15:10:21Z</time>
      </trkpt>
      <trkpt lat="49.44813" lon="-1.21549">
        <ele>2.4</ele>
        <time>2020-06-15T15:10:22Z</time>
      </trkpt>
      <trkpt lat="49.44807" lon="-1.21546">
        <ele>2.4</ele>
        <time>2020-06-15T15:10:23Z</time>
      </trkpt>
      <trkpt lat="49.44801" lon="-1.21542">
        <ele>2.4</ele>
        <time>2020-06-15T15:10:24Z</time>
      </trkpt>
      <trkpt lat="49.44795" lon="-1.21537">
        <ele>2.4</ele>
        <time>2020-06-15T15:10:25Z</time>
      </trkpt>
      <trkpt lat="49.44788" lon="-1.21534">
        <ele>2.3</ele>
        <time>2020-06-15T15:10:26Z</time>
      </trkpt>
      <trkpt lat="49.44782" lon="-1.2153">
        <ele>2.3</ele>
        <time>2020-06-15T15:10:27Z</time>
      </trkpt>
      <trkpt lat="49.44777" lon="-1.21525">
        <ele>2.3</ele>
        <time>2020-06-15T15:10:28Z</time>
      </trkpt>
      <trkpt lat="49.44771" lon="-1.2152">
        <ele>2.3</ele>
        <time>2020-06-15T15:10:29Z</time>
      </trkpt>
      <trkpt lat="49.44765" lon="-1.21516">
        <ele>2.2</ele>
        <time>2020-06-15T15:10:30Z</time>
      </trkpt>
      <trkpt lat="49.44759" lon="-1.21511">
        <ele>2.2</ele>
        <time>2020-06-15T15:10:31Z</time>
      </trkpt>
      <trkpt lat="49.44753" lon="-1.21507">
        <ele>2.1</ele>
        <time>2020-06-15T15:10:32Z</time>
      </trkpt>
      <trkpt lat="49.44748" lon="-1.21501">
        <ele>2.1</ele>
        <time>2020-06-15T15:10:33Z</time>
      </trkpt>
      <trkpt lat="49.44743" lon="-1.21496">
        <ele>2.1</ele>
        <time>2020-06-15T15:10:34Z</time>
      </trkpt>
      <trkpt lat="49.44737" lon="-1.21489">
        <ele>2.1</ele>
        <time>2020-06-15T15:10:35Z</time>
      </trkpt>
      <trkpt lat="49.44732" lon="-1.21482">
        <ele>2</ele>
        <time>2020-06-15T15:10:36Z</time>
      </trkpt>
      <trkpt lat="49.44727" lon="-1.21475">
        <ele>2</ele>
        <time>2020-06-15T15:10:37Z</time>
      </trkpt>
      <trkpt lat="49.44722" lon="-1.21468">
        <ele>2</ele>
        <time>2020-06-15T15:10:38Z</time>
      </trkpt>
      <trkpt lat="49.44717" lon="-1.21462">
        <ele>2</ele>
        <time>2020-06-15T15:10:39Z</time>
      </trkpt>
      <trkpt lat="49.44712" lon="-1.21455">
        <ele>2</ele>
        <time>2020-06-15T15:10:40Z</time>
      </trkpt>
      <trkpt lat="49.44707" lon="-1.21448">
        <ele>2</ele>
        <time>2020-06-15T15:10:41Z</time>
      </trkpt>
      <trkpt lat="49.44702" lon="-1.21441">
        <ele>2</ele>
        <time>2020-06-15T15:10:42Z</time>
      </trkpt>
      <trkpt lat="49.44697" lon="-1.21434">
        <ele>2</ele>
        <time>2020-06-15T15:10:43Z</time>
      </trkpt>
      <trkpt lat="49.44692" lon="-1.21428">
        <ele>2</ele>
        <time>2020-06-15T15:10:44Z</time>
      </trkpt>
      <trkpt lat="49.44687" lon="-1.21422">
        <ele>2</ele>
        <time>2020-06-15T15:10:45Z</time>
      </trkpt>
      <trkpt lat="49.44682" lon="-1.21416">
        <ele>2.1</ele>
        <time>2020-06-15T15:10:46Z</time>
      </trkpt>
      <trkpt lat="49.44676" lon="-1.21409">
        <ele>2.1</ele>
        <time>2020-06-15T15:10:47Z</time>
      </trkpt>
      <trkpt lat="49.44671" lon="-1.21403">
        <ele>2.1</ele>
        <time>2020-06-15T15:10:48Z</time>
      </trkpt>
      <trkpt lat="49.44665" lon="-1.21397">
        <ele>2.1</ele>
        <time>2020-06-15T15:10:49Z</time>
      </trkpt>
      <trkpt lat="49.44659" lon="-1.21391">
        <ele>2.1</ele>
        <time>2020-06-15T15:10:50Z</time>
      </trkpt>
      <trkpt lat="49.44654" lon="-1.21385">
        <ele>2.1</ele>
        <time>2020-06-15T15:10:51Z</time>
      </trkpt>
      <trkpt lat="49.44649" lon="-1.2138">
        <ele>2.1</ele>
        <time>2020-06-15T15:10:52Z</time>
      </trkpt>
      <trkpt lat="49.44643" lon="-1.21377">
        <ele>2.2</ele>
        <time>2020-06-15T15:10:53Z</time>
      </trkpt>
      <trkpt lat="49.44638" lon="-1.21374">
        <ele>2.3</ele>
        <time>2020-06-15T15:10:54Z</time>
      </trkpt>
      <trkpt lat="49.44632" lon="-1.2137">
        <ele>2.3</ele>
        <time>2020-06-15T15:10:55Z</time>
      </trkpt>
      <trkpt lat="49.44626" lon="-1.21367">
        <ele>2.4</ele>
        <time>2020-06-15T15:10:56Z</time>
      </trkpt>
      <trkpt lat="49.4462" lon="-1.21363">
        <ele>2.4</ele>
        <time>2020-06-15T15:10:57Z</time>
      </trkpt>
      <trkpt lat="49.44614" lon="-1.21359">
        <ele>2.4</ele>
        <time>2020-06-15T15:10:58Z</time>
      </trkpt>
      <trkpt lat="49.44608" lon="-1.21354">
        <ele>2.3</ele>
        <time>2020-06-15T15:10:59Z</time>
      </trkpt>
      <trkpt lat="49.44602" lon="-1.2135">
        <ele>2.3</ele>
        <time>2020-06-15T15:11:00Z</time>
      </trkpt>
      <trkpt lat="49.44596" lon="-1.21346">
        <ele>2.2</ele>
        <time>2020-06-15T15:11:01Z</time>
      </trkpt>
      <trkpt lat="49.44589" lon="-1.21342">
        <ele>2.1</ele>
        <time>2020-06-15T15:11:02Z</time>
      </trkpt>
      <trkpt lat="49.44584" lon="-1.21338">
        <ele>2.1</ele>
        <time>2020-06-15T15:11:03Z</time>
      </trkpt>
      <trkpt lat="49.44578" lon="-1.21335">
        <ele>2.1</ele>
        <time>2020-06-15T15:11:04Z</time>
      </trkpt>
      <trkpt lat="49.44572" lon="-1.21332">
        <ele>2.1</ele>
        <time>2020-06-15T15:11:05Z</time>
      </trkpt>
      <trkpt lat="49.44565" lon="-1.21328">
        <ele>2.1</ele>
        <time>2020-06-15T15:11:06Z</time>
      </trkpt>
      <trkpt lat="49.44559" lon="-1.21324">
        <ele>2.1</ele>
        <time>2020-06-15T15:11:07Z</time>
      </trkpt>
      <trkpt lat="49.44552" lon="-1.21322">
        <ele>2</ele>
        <time>2020-06-15T15:11:08Z</time>
      </trkpt>
      <trkpt lat="49.44546" lon="-1.21319">
        <ele>2</ele>
        <time>2020-06-15T15:11:09Z</time>
      </trkpt>
      <trkpt lat="49.4454" lon="-1.21316">
        <ele>2</ele>
        <time>2020-06-15T15:11:10Z</time>
      </trkpt>
      <trkpt lat="49.44534" lon="-1.21314">
        <ele>2</ele>
        <time>2020-06-15T15:11:11Z</time>
      </trkpt>
      <trkpt lat="49.44528" lon="-1.21311">
        <ele>2</ele>
        <time>2020-06-15T15:11:12Z</time>
      </trkpt>
      <trkpt lat="49.44522" lon="-1.21309">
        <ele>2</ele>
        <time>2020-06-15T15:11:13Z</time>
      </trkpt>
      <trkpt lat="49.44515" lon="-1.21308">
        <ele>2</ele>
        <time>2020-06-15T15:11:14Z</time>
      </trkpt>
      <trkpt lat="49.44508" lon="-1.21304">
        <ele>1.9</ele>
        <time>2020-06-15T15:11:15Z</time>
      </trkpt>
      <trkpt lat="49.44501" lon="-1.21302">
        <ele>1.9</ele>
        <time>2020-06-15T15:11:16Z</time>
      </trkpt>
      <trkpt lat="49.44495" lon="-1.21302">
        <ele>1.9</ele>
        <time>2020-06-15T15:11:17Z</time>
      </trkpt>
      <trkpt lat="49.44489" lon="-1.21301">
        <ele>1.9</ele>
        <time>2020-06-15T15:11:18Z</time>
      </trkpt>
      <trkpt lat="49.44482" lon="-1.213">
        <ele>1.9</ele>
        <time>2020-06-15T15:11:19Z</time>
      </trkpt>
      <trkpt lat="49.44476" lon="-1.21298">
        <ele>1.9</ele>
        <time>2020-06-15T15:11:20Z</time>
      </trkpt>
      <trkpt lat="49.44469" lon="-1.21298">
        <ele>1.9</ele>
        <time>2020-06-15T15:11:21Z</time>
      </trkpt>
      <trkpt lat="49.44464" lon="-1.21297">
        <ele>1.9</ele>
        <time>2020-06-15T15:11:22Z</time>
      </trkpt>
      <trkpt lat="49.44458" lon="-1.21296">
        <ele>1.9</ele>
        <time>2020-06-15T15:11:23Z</time>
      </trkpt>
      <trkpt lat="49.44451" lon="-1.21296">
        <ele>1.9</ele>
        <time>2020-06-15T15:11:24Z</time>
      </trkpt>
      <trkpt lat="49.44445" lon="-1.21295">
        <ele>1.8</ele>
        <time>2020-06-15T15:11:25Z</time>
      </trkpt>
      <trkpt lat="49.44438" lon="-1.21295">
        <ele>1.8</ele>
        <time>2020-06-15T15:11:26Z</time>
      </trkpt>
      <trkpt lat="49.44432" lon="-1.21295">
        <ele>1.8</ele>
        <time>2020-06-15T15:11:27Z</time>
      </trkpt>
      <trkpt lat="49.44427" lon="-1.21294">
        <ele>1.8</ele>
        <time>2020-06-15T15:11:28Z</time>
      </trkpt>
      <trkpt lat="49.44421" lon="-1.21293">
        <ele>1.9</ele>
        <time>2020-06-15T15:11:29Z</time>
      </trkpt>
      <trkpt lat="49.44416" lon="-1.21292">
        <ele>1.9</ele>
        <time>2020-06-15T15:11:30Z</time>
      </trkpt>
      <trkpt lat="49.4441" lon="-1.21289">
        <ele>1.9</ele>
        <time>2020-06-15T15:11:31Z</time>
      </trkpt>
      <trkpt lat="49.44405" lon="-1.21286">
        <ele>1.9</ele>
        <time>2020-06-15T15:11:32Z</time>
      </trkpt>
      <trkpt lat="49.44401" lon="-1.2128">
        <ele>1.8</ele>
        <time>2020-06-15T15:11:33Z</time>
      </trkpt>
      <trkpt lat="49.44396" lon="-1.21272">
        <ele>1.8</ele>
        <time>2020-06-15T15:11:34Z</time>
      </trkpt>
      <trkpt lat="49.44392" lon="-1.21263">
        <ele>1.8</ele>
        <time>2020-06-15T15:11:35Z</time>
      </trkpt>
      <trkpt lat="49.44388" lon="-1.21253">
        <ele>1.8</ele>
        <time>2020-06-15T15:11:36Z</time>
      </trkpt>
      <trkpt lat="49.44384" lon="-1.21242">
        <ele>1.8</ele>
        <time>2020-06-15T15:11:37Z</time>
      </trkpt>
      <trkpt lat="49.44381" lon="-1.21233">
        <ele>1.8</ele>
        <time>2020-06-15T15:11:38Z</time>
      </trkpt>
      <trkpt lat="49.44379" lon="-1.21222">
        <ele>1.9</ele>
        <time>2020-06-15T15:11:39Z</time>
      </trkpt>
      <trkpt lat="49.44378" lon="-1.21214">
        <ele>1.9</ele>
        <time>2020-06-15T15:11:40Z</time>
      </trkpt>
      <trkpt lat="49.44377" lon="-1.21204">
        <ele>2</ele>
        <time>2020-06-15T15:11:41Z</time>
      </trkpt>
      <trkpt lat="49.44377" lon="-1.21196">
        <ele>2</ele>
        <time>2020-06-15T15:11:42Z</time>
      </trkpt>
      <trkpt lat="49.44377" lon="-1.21188">
        <ele>2</ele>
        <time>2020-06-15T15:11:43Z</time>
      </trkpt>
      <trkpt lat="49.44378" lon="-1.2118">
        <ele>2</ele>
        <time>2020-06-15T15:11:44Z</time>
      </trkpt>
      <trkpt lat="49.44378" lon="-1.21171">
        <ele>2</ele>
        <time>2020-06-15T15:11:45Z</time>
      </trkpt>
      <trkpt lat="49.4438" lon="-1.21161">
        <ele>2</ele>
        <time>2020-06-15T15:11:46Z</time>
      </trkpt>
      <trkpt lat="49.44382" lon="-1.21151">
        <ele>2</ele>
        <time>2020-06-15T15:11:47Z</time>
      </trkpt>
      <trkpt lat="49.44385" lon="-1.21141">
        <ele>1.9</ele>
        <time>2020-06-15T15:11:48Z</time>
      </trkpt>
      <trkpt lat="49.44386" lon="-1.21133">
        <ele>1.9</ele>
        <time>2020-06-15T15:11:49Z</time>
      </trkpt>
      <trkpt lat="49.44388" lon="-1.21124">
        <ele>1.9</ele>
        <time>2020-06-15T15:11:50Z</time>
      </trkpt>
      <trkpt lat="49.4439" lon="-1.21116">
        <ele>1.9</ele>
        <time>2020-06-15T15:11:51Z</time>
      </trkpt>
      <trkpt lat="49.4439" lon="-1.21105">
        <ele>1.9</ele>
        <time>2020-06-15T15:11:52Z</time>
      </trkpt>
      <trkpt lat="49.4439" lon="-1.21097">
        <ele>2</ele>
        <time>2020-06-15T15:11:53Z</time>
      </trkpt>
      <trkpt lat="49.4439" lon="-1.21088">
        <ele>2</ele>
        <time>2020-06-15T15:11:54Z</time>
      </trkpt>
      <trkpt lat="49.44388" lon="-1.21078">
        <ele>2</ele>
        <time>2020-06-15T15:11:55Z</time>
      </trkpt>
      <trkpt lat="49.44386" lon="-1.21069">
        <ele>2.1</ele>
        <time>2020-06-15T15:11:56Z</time>
      </trkpt>
      <trkpt lat="49.44383" lon="-1.21059">
        <ele>2.1</ele>
        <time>2020-06-15T15:11:57Z</time>
      </trkpt>
      <trkpt lat="49.4438" lon="-1.2105">
        <ele>2.1</ele>
        <time>2020-06-15T15:11:58Z</time>
      </trkpt>
      <trkpt lat="49.44378" lon="-1.21043">
        <ele>2.2</ele>
        <time>2020-06-15T15:11:59Z</time>
      </trkpt>
      <trkpt lat="49.44375" lon="-1.21033">
        <ele>2.2</ele>
        <time>2020-06-15T15:12:00Z</time>
      </trkpt>
      <trkpt lat="49.44372" lon="-1.21026">
        <ele>2.3</ele>
        <time>2020-06-15T15:12:01Z</time>
      </trkpt>
      <trkpt lat="49.4437" lon="-1.2102">
        <ele>2.3</ele>
        <time>2020-06-15T15:12:02Z</time>
      </trkpt>
      <trkpt lat="49.44369" lon="-1.21012">
        <ele>2.3</ele>
        <time>2020-06-15T15:12:03Z</time>
      </trkpt>
      <trkpt lat="49.44368" lon="-1.21006">
        <ele>2.4</ele>
        <time>2020-06-15T15:12:04Z</time>
      </trkpt>
      <trkpt lat="49.44369" lon="-1.20997">
        <ele>2.6</ele>
        <time>2020-06-15T15:12:05Z</time>
      </trkpt>
      <trkpt lat="49.44369" lon="-1.2099">
        <ele>2.7</ele>
        <time>2020-06-15T15:12:06Z</time>
      </trkpt>
      <trkpt lat="49.4437" lon="-1.20984">
        <ele>2.8</ele>
        <time>2020-06-15T15:12:07Z</time>
      </trkpt>
      <trkpt lat="49.4437" lon="-1.20979">
        <ele>2.9</ele>
        <time>2020-06-15T15:12:08Z</time>
      </trkpt>
      <trkpt lat="49.4437" lon="-1.20973">
        <ele>2.9</ele>
        <time>2020-06-15T15:12:09Z</time>
      </trkpt>
      <trkpt lat="49.44371" lon="-1.2097">
        <ele>3</ele>
        <time>2020-06-15T15:12:10Z</time>
      </trkpt>
      <trkpt lat="49.44372" lon="-1.20966">
        <ele>3.1</ele>
        <time>2020-06-15T15:12:11Z</time>
      </trkpt>
      <trkpt lat="49.44372" lon="-1.20964">
        <ele>3.1</ele>
        <time>2020-06-15T15:12:12Z</time>
      </trkpt>
      <trkpt lat="49.44373" lon="-1.20961">
        <ele>3.1</ele>
        <time>2020-06-15T15:12:13Z</time>
      </trkpt>
      <trkpt lat="49.44373" lon="-1.20959">
        <ele>3.2</ele>
        <time>2020-06-15T15:12:14Z</time>
      </trkpt>
      <trkpt lat="49.44374" lon="-1.20955">
        <ele>3.1</ele>
        <time>2020-06-15T15:12:15Z</time>
      </trkpt>
      <trkpt lat="49.44374" lon="-1.20954">
        <ele>3.1</ele>
        <time>2020-06-15T15:12:16Z</time>
      </trkpt>
      <trkpt lat="49.44375" lon="-1.20948">
        <ele>3.1</ele>
        <time>2020-06-15T15:12:17Z</time>
      </trkpt>
      <trkpt lat="49.44376" lon="-1.20946">
        <ele>3.1</ele>
        <time>2020-06-15T15:12:18Z</time>
      </trkpt>
      <trkpt lat="49.44378" lon="-1.20941">
        <ele>3</ele>
        <time>2020-06-15T15:12:19Z</time>
      </trkpt>
      <trkpt lat="49.4438" lon="-1.20936">
        <ele>3</ele>
        <time>2020-06-15T15:12:20Z</time>
      </trkpt>
      <trkpt lat="49.44382" lon="-1.20931">
        <ele>3</ele>
        <time>2020-06-15T15:12:21Z</time>
      </trkpt>
      <trkpt lat="49.44384" lon="-1.20927">
        <ele>3</ele>
        <time>2020-06-15T15:12:22Z</time>
      </trkpt>
      <trkpt lat="49.44385" lon="-1.20923">
        <ele>3.1</ele>
        <time>2020-06-15T15:12:23Z</time>
      </trkpt>
      <trkpt lat="49.44387" lon="-1.20918">
        <ele>3.1</ele>
        <time>2020-06-15T15:12:24Z</time>
      </trkpt>
      <trkpt lat="49.44388" lon="-1.20916">
        <ele>3.1</ele>
        <time>2020-06-15T15:12:25Z</time>
      </trkpt>
      <trkpt lat="49.44389" lon="-1.20912">
        <ele>3.1</ele>
        <time>2020-06-15T15:12:26Z</time>
      </trkpt>
      <trkpt lat="49.44392" lon="-1.20907">
        <ele>3.1</ele>
        <time>2020-06-15T15:12:27Z</time>
      </trkpt>
      <trkpt lat="49.44394" lon="-1.20902">
        <ele>3.1</ele>
        <time>2020-06-15T15:12:28Z</time>
      </trkpt>
      <trkpt lat="49.44395" lon="-1.20899">
        <ele>3.2</ele>
        <time>2020-06-15T15:12:29Z</time>
      </trkpt>
      <trkpt lat="49.44397" lon="-1.20896">
        <ele>3.2</ele>
        <time>2020-06-15T15:12:30Z</time>
      </trkpt>
      <trkpt lat="49.44397" lon="-1.20895">
        <ele>3.2</ele>
        <time>2020-06-15T15:12:31Z</time>
      </trkpt>
      <trkpt lat="49.44398" lon="-1.20892">
        <ele>3.2</ele>
        <time>2020-06-15T15:12:32Z</time>
      </trkpt>
      <trkpt lat="49.44399" lon="-1.2089">
        <ele>3.2</ele>
        <time>2020-06-15T15:12:33Z</time>
      </trkpt>
      <trkpt lat="49.44399" lon="-1.20889">
        <ele>3.2</ele>
        <time>2020-06-15T15:12:34Z</time>
      </trkpt>
      <trkpt lat="49.444" lon="-1.20888">
        <ele>3.3</ele>
        <time>2020-06-15T15:12:35Z</time>
      </trkpt>
      <trkpt lat="49.444" lon="-1.20886">
        <ele>3.3</ele>
        <time>2020-06-15T15:12:36Z</time>
      </trkpt>
      <trkpt lat="49.444" lon="-1.20888">
        <ele>3.3</ele>
        <time>2020-06-15T15:12:37Z</time>
      </trkpt>
      <trkpt lat="49.444" lon="-1.20887">
        <ele>3.3</ele>
        <time>2020-06-15T15:12:38Z</time>
      </trkpt>
      <trkpt lat="49.444" lon="-1.20886">
        <ele>3.3</ele>
        <time>2020-06-15T15:12:39Z</time>
      </trkpt>
      <trkpt lat="49.44401" lon="-1.20885">
        <ele>3.3</ele>
        <time>2020-06-15T15:12:40Z</time>
      </trkpt>
      <trkpt lat="49.444" lon="-1.20886">
        <ele>3.3</ele>
        <time>2020-06-15T15:12:41Z</time>
      </trkpt>
      <trkpt lat="49.444" lon="-1.20886">
        <ele>3.3</ele>
        <time>2020-06-15T15:12:42Z</time>
      </trkpt>
      <trkpt lat="49.444" lon="-1.20886">
        <ele>3.3</ele>
        <time>2020-06-15T15:12:43Z</time>
      </trkpt>
      <trkpt lat="49.444" lon="-1.20885">
        <ele>3.3</ele>
        <time>2020-06-15T15:12:44Z</time>
      </trkpt>
      <trkpt lat="49.444" lon="-1.20885">
        <ele>3.3</ele>
        <time>2020-06-15T15:12:45Z</time>
      </trkpt>
      <trkpt lat="49.444" lon="-1.20885">
        <ele>3.3</ele>
        <time>2020-06-15T15:12:46Z</time>
      </trkpt>
      <trkpt lat="49.444" lon="-1.20885">
        <ele>3.3</ele>
        <time>2020-06-15T15:12:47Z</time>
      </trkpt>
      <trkpt lat="49.444" lon="-1.20885">
        <ele>3.3</ele>
        <time>2020-06-15T15:12:48Z</time>
      </trkpt>
      <trkpt lat="49.444" lon="-1.20885">
        <ele>3.3</ele>
        <time>2020-06-15T15:12:49Z</time>
      </trkpt>
      <trkpt lat="49.444" lon="-1.20885">
        <ele>3.3</ele>
        <time>2020-06-15T15:12:50Z</time>
      </trkpt>
      <trkpt lat="49.44412" lon="-1.20878">
        <ele>3.4</ele>
        <time>2020-06-15T15:14:33Z</time>
      </trkpt>
      <trkpt lat="49.44412" lon="-1.20877">
        <ele>3.4</ele>
        <time>2020-06-15T15:14:34Z</time>
      </trkpt>
      <trkpt lat="49.44412" lon="-1.20876">
        <ele>3.4</ele>
        <time>2020-06-15T15:14:35Z</time>
      </trkpt>
      <trkpt lat="49.44413" lon="-1.20876">
        <ele>3.4</ele>
        <time>2020-06-15T15:14:36Z</time>
      </trkpt>
      <trkpt lat="49.44413" lon="-1.20874">
        <ele>3.4</ele>
        <time>2020-06-15T15:14:37Z</time>
      </trkpt>
      <trkpt lat="49.44413" lon="-1.20872">
        <ele>3.4</ele>
        <time>2020-06-15T15:14:38Z</time>
      </trkpt>
      <trkpt lat="49.44414" lon="-1.20871">
        <ele>3.1</ele>
        <time>2020-06-15T15:14:39Z</time>
      </trkpt>
      <trkpt lat="49.44415" lon="-1.2087">
        <ele>3</ele>
        <time>2020-06-15T15:14:40Z</time>
      </trkpt>
      <trkpt lat="49.44416" lon="-1.20869">
        <ele>2.9</ele>
        <time>2020-06-15T15:14:41Z</time>
      </trkpt>
      <trkpt lat="49.44416" lon="-1.20868">
        <ele>2.9</ele>
        <time>2020-06-15T15:14:42Z</time>
      </trkpt>
      <trkpt lat="49.44416" lon="-1.20867">
        <ele>2.9</ele>
        <time>2020-06-15T15:14:43Z</time>
      </trkpt>
      <trkpt lat="49.44416" lon="-1.20867">
        <ele>2.8</ele>
        <time>2020-06-15T15:14:44Z</time>
      </trkpt>
      <trkpt lat="49.44416" lon="-1.20866">
        <ele>2.8</ele>
        <time>2020-06-15T15:14:45Z</time>
      </trkpt>
      <trkpt lat="49.44417" lon="-1.20865">
        <ele>2.7</ele>
        <time>2020-06-15T15:14:46Z</time>
      </trkpt>
      <trkpt lat="49.44418" lon="-1.20863">
        <ele>2.6</ele>
        <time>2020-06-15T15:14:47Z</time>
      </trkpt>
      <trkpt lat="49.44418" lon="-1.20862">
        <ele>2.6</ele>
        <time>2020-06-15T15:14:48Z</time>
      </trkpt>
      <trkpt lat="49.44419" lon="-1.20861">
        <ele>2.5</ele>
        <time>2020-06-15T15:14:49Z</time>
      </trkpt>
      <trkpt lat="49.44419" lon="-1.20859">
        <ele>2.4</ele>
        <time>2020-06-15T15:14:50Z</time>
      </trkpt>
      <trkpt lat="49.4442" lon="-1.20858">
        <ele>2.2</ele>
        <time>2020-06-15T15:14:51Z</time>
      </trkpt>
      <trkpt lat="49.4442" lon="-1.20857">
        <ele>2.2</ele>
        <time>2020-06-15T15:14:52Z</time>
      </trkpt>
      <trkpt lat="49.44421" lon="-1.20855">
        <ele>2.2</ele>
        <time>2020-06-15T15:14:53Z</time>
      </trkpt>
      <trkpt lat="49.44422" lon="-1.20854">
        <ele>2.2</ele>
        <time>2020-06-15T15:14:54Z</time>
      </trkpt>
      <trkpt lat="49.44422" lon="-1.20853">
        <ele>2.2</ele>
        <time>2020-06-15T15:14:55Z</time>
      </trkpt>
      <trkpt lat="49.44422" lon="-1.20851">
        <ele>2.2</ele>
        <time>2020-06-15T15:14:56Z</time>
      </trkpt>
      <trkpt lat="49.44423" lon="-1.20849">
        <ele>2.2</ele>
        <time>2020-06-15T15:14:57Z</time>
      </trkpt>
      <trkpt lat="49.44423" lon="-1.20848">
        <ele>2.1</ele>
        <time>2020-06-15T15:14:58Z</time>
      </trkpt>
      <trkpt lat="49.44424" lon="-1.20845">
        <ele>2.1</ele>
        <time>2020-06-15T15:14:59Z</time>
      </trkpt>
      <trkpt lat="49.44424" lon="-1.20844">
        <ele>2.1</ele>
        <time>2020-06-15T15:15:00Z</time>
      </trkpt>
      <trkpt lat="49.44424" lon="-1.20843">
        <ele>2.1</ele>
        <time>2020-06-15T15:15:01Z</time>
      </trkpt>
      <trkpt lat="49.44424" lon="-1.20842">
        <ele>2.1</ele>
        <time>2020-06-15T15:15:02Z</time>
      </trkpt>
      <trkpt lat="49.44425" lon="-1.2084">
        <ele>2.1</ele>
        <time>2020-06-15T15:15:03Z</time>
      </trkpt>
      <trkpt lat="49.44426" lon="-1.20838">
        <ele>2.1</ele>
        <time>2020-06-15T15:15:04Z</time>
      </trkpt>
      <trkpt lat="49.44426" lon="-1.20837">
        <ele>2</ele>
        <time>2020-06-15T15:15:05Z</time>
      </trkpt>
      <trkpt lat="49.44427" lon="-1.20835">
        <ele>2</ele>
        <time>2020-06-15T15:15:06Z</time>
      </trkpt>
      <trkpt lat="49.44428" lon="-1.20834">
        <ele>2</ele>
        <time>2020-06-15T15:15:07Z</time>
      </trkpt>
      <trkpt lat="49.4443" lon="-1.20834">
        <ele>2</ele>
        <time>2020-06-15T15:15:08Z</time>
      </trkpt>
      <trkpt lat="49.44431" lon="-1.20832">
        <ele>2</ele>
        <time>2020-06-15T15:15:09Z</time>
      </trkpt>
      <trkpt lat="49.44431" lon="-1.20831">
        <ele>2</ele>
        <time>2020-06-15T15:15:10Z</time>
      </trkpt>
      <trkpt lat="49.44433" lon="-1.2083">
        <ele>2</ele>
        <time>2020-06-15T15:15:11Z</time>
      </trkpt>
      <trkpt lat="49.44434" lon="-1.20829">
        <ele>1.9</ele>
        <time>2020-06-15T15:15:12Z</time>
      </trkpt>
      <trkpt lat="49.44434" lon="-1.20828">
        <ele>1.9</ele>
        <time>2020-06-15T15:15:13Z</time>
      </trkpt>
      <trkpt lat="49.44435" lon="-1.20827">
        <ele>1.9</ele>
        <time>2020-06-15T15:15:14Z</time>
      </trkpt>
      <trkpt lat="49.44435" lon="-1.20825">
        <ele>1.9</ele>
        <time>2020-06-15T15:15:15Z</time>
      </trkpt>
      <trkpt lat="49.44435" lon="-1.20824">
        <ele>1.9</ele>
        <time>2020-06-15T15:15:16Z</time>
      </trkpt>
      <trkpt lat="49.44435" lon="-1.20823">
        <ele>1.9</ele>
        <time>2020-06-15T15:15:17Z</time>
      </trkpt>
      <trkpt lat="49.44435" lon="-1.20821">
        <ele>1.9</ele>
        <time>2020-06-15T15:15:18Z</time>
      </trkpt>
      <trkpt lat="49.44436" lon="-1.2082">
        <ele>1.9</ele>
        <time>2020-06-15T15:15:19Z</time>
      </trkpt>
      <trkpt lat="49.44437" lon="-1.20818">
        <ele>1.8</ele>
        <time>2020-06-15T15:15:20Z</time>
      </trkpt>
      <trkpt lat="49.44438" lon="-1.20817">
        <ele>1.8</ele>
        <time>2020-06-15T15:15:21Z</time>
      </trkpt>
      <trkpt lat="49.44438" lon="-1.20816">
        <ele>1.8</ele>
        <time>2020-06-15T15:15:22Z</time>
      </trkpt>
      <trkpt lat="49.44439" lon="-1.20814">
        <ele>1.8</ele>
        <time>2020-06-15T15:15:23Z</time>
      </trkpt>
      <trkpt lat="49.4444" lon="-1.20812">
        <ele>1.8</ele>
        <time>2020-06-15T15:15:24Z</time>
      </trkpt>
      <trkpt lat="49.44441" lon="-1.2081">
        <ele>1.8</ele>
        <time>2020-06-15T15:15:25Z</time>
      </trkpt>
      <trkpt lat="49.44442" lon="-1.20809">
        <ele>1.7</ele>
        <time>2020-06-15T15:15:26Z</time>
      </trkpt>
      <trkpt lat="49.44443" lon="-1.20807">
        <ele>1.7</ele>
        <time>2020-06-15T15:15:27Z</time>
      </trkpt>
      <trkpt lat="49.44444" lon="-1.20805">
        <ele>1.7</ele>
        <time>2020-06-15T15:15:28Z</time>
      </trkpt>
      <trkpt lat="49.44444" lon="-1.20804">
        <ele>1.7</ele>
        <time>2020-06-15T15:15:29Z</time>
      </trkpt>
      <trkpt lat="49.44445" lon="-1.20803">
        <ele>1.7</ele>
        <time>2020-06-15T15:15:30Z</time>
      </trkpt>
      <trkpt lat="49.44446" lon="-1.20801">
        <ele>1.7</ele>
        <time>2020-06-15T15:15:31Z</time>
      </trkpt>
      <trkpt lat="49.44447" lon="-1.20799">
        <ele>1.6</ele>
        <time>2020-06-15T15:15:32Z</time>
      </trkpt>
      <trkpt lat="49.44447" lon="-1.20798">
        <ele>1.6</ele>
        <time>2020-06-15T15:15:33Z</time>
      </trkpt>
      <trkpt lat="49.44448" lon="-1.20797">
        <ele>1.6</ele>
        <time>2020-06-15T15:15:34Z</time>
      </trkpt>
      <trkpt lat="49.44448" lon="-1.20796">
        <ele>1.6</ele>
        <time>2020-06-15T15:15:35Z</time>
      </trkpt>
      <trkpt lat="49.44449" lon="-1.20794">
        <ele>1.6</ele>
        <time>2020-06-15T15:15:36Z</time>
      </trkpt>
      <trkpt lat="49.4445" lon="-1.20793">
        <ele>1.6</ele>
        <time>2020-06-15T15:15:37Z</time>
      </trkpt>
      <trkpt lat="49.4445" lon="-1.20792">
        <ele>1.6</ele>
        <time>2020-06-15T15:15:38Z</time>
      </trkpt>
      <trkpt lat="49.44451" lon="-1.2079">
        <ele>1.6</ele>
        <time>2020-06-15T15:15:39Z</time>
      </trkpt>
      <trkpt lat="49.44452" lon="-1.20789">
        <ele>1.6</ele>
        <time>2020-06-15T15:15:40Z</time>
      </trkpt>
      <trkpt lat="49.44452" lon="-1.20789">
        <ele>1.5</ele>
        <time>2020-06-15T15:15:41Z</time>
      </trkpt>
      <trkpt lat="49.44452" lon="-1.20787">
        <ele>1.5</ele>
        <time>2020-06-15T15:15:42Z</time>
      </trkpt>
      <trkpt lat="49.44452" lon="-1.20786">
        <ele>1.5</ele>
        <time>2020-06-15T15:15:43Z</time>
      </trkpt>
      <trkpt lat="49.44453" lon="-1.20785">
        <ele>1.5</ele>
        <time>2020-06-15T15:15:44Z</time>
      </trkpt>
      <trkpt lat="49.44453" lon="-1.20785">
        <ele>1.5</ele>
        <time>2020-06-15T15:15:45Z</time>
      </trkpt>
      <trkpt lat="49.44453" lon="-1.20784">
        <ele>1.5</ele>
        <time>2020-06-15T15:15:46Z</time>
      </trkpt>
      <trkpt lat="49.44453" lon="-1.20784">
        <ele>1.5</ele>
        <time>2020-06-15T15:15:47Z</time>
      </trkpt>
      <trkpt lat="49.44453" lon="-1.20784">
        <ele>1.5</ele>
        <time>2020-06-15T15:15:48Z</time>
      </trkpt>
      <trkpt lat="49.44453" lon="-1.20784">
        <ele>1.5</ele>
        <time>2020-06-15T15:15:49Z</time>
      </trkpt>
      <trkpt lat="49.44453" lon="-1.20784">
        <ele>1.5</ele>
        <time>2020-06-15T15:15:50Z</time>
      </trkpt>
      <trkpt lat="49.44454" lon="-1.20783">
        <ele>1.5</ele>
        <time>2020-06-15T15:15:51Z</time>
      </trkpt>
      <trkpt lat="49.44454" lon="-1.20782">
        <ele>1.5</ele>
        <time>2020-06-15T15:15:52Z</time>
      </trkpt>
      <trkpt lat="49.44453" lon="-1.20782">
        <ele>1.5</ele>
        <time>2020-06-15T15:15:53Z</time>
      </trkpt>
      <trkpt lat="49.44453" lon="-1.20783">
        <ele>1.5</ele>
        <time>2020-06-15T15:15:54Z</time>
      </trkpt>
      <trkpt lat="49.44453" lon="-1.20784">
        <ele>1.5</ele>
        <time>2020-06-15T15:15:55Z</time>
      </trkpt>
      <trkpt lat="49.44453" lon="-1.20785">
        <ele>1.5</ele>
        <time>2020-06-15T15:15:56Z</time>
      </trkpt>
      <trkpt lat="49.44453" lon="-1.20786">
        <ele>1.4</ele>
        <time>2020-06-15T15:15:57Z</time>
      </trkpt>
      <trkpt lat="49.44453" lon="-1.20786">
        <ele>1.4</ele>
        <time>2020-06-15T15:15:58Z</time>
      </trkpt>
      <trkpt lat="49.44453" lon="-1.20786">
        <ele>1.4</ele>
        <time>2020-06-15T15:15:59Z</time>
      </trkpt>
      <trkpt lat="49.44453" lon="-1.20786">
        <ele>1.4</ele>
        <time>2020-06-15T15:16:00Z</time>
      </trkpt>
      <trkpt lat="49.44453" lon="-1.20786">
        <ele>1.4</ele>
        <time>2020-06-15T15:16:01Z</time>
      </trkpt>
      <trkpt lat="49.44453" lon="-1.20786">
        <ele>1.4</ele>
        <time>2020-06-15T15:16:02Z</time>
      </trkpt>
      <trkpt lat="49.44453" lon="-1.20786">
        <ele>1.4</ele>
        <time>2020-06-15T15:16:03Z</time>
      </trkpt>
      <trkpt lat="49.44453" lon="-1.20786">
        <ele>1.4</ele>
        <time>2020-06-15T15:16:04Z</time>
      </trkpt>
      <trkpt lat="49.44453" lon="-1.20786">
        <ele>1.4</ele>
        <time>2020-06-15T15:16:05Z</time>
      </trkpt>
      <trkpt lat="49.44453" lon="-1.20786">
        <ele>1.4</ele>
        <time>2020-06-15T15:16:06Z</time>
      </trkpt>
      <trkpt lat="49.44452" lon="-1.20794">
        <ele>1.4</ele>
        <time>2020-06-15T15:17:56Z</time>
      </trkpt>
      <trkpt lat="49.44451" lon="-1.20794">
        <ele>1.4</ele>
        <time>2020-06-15T15:17:57Z</time>
      </trkpt>
      <trkpt lat="49.4445" lon="-1.20795">
        <ele>1.4</ele>
        <time>2020-06-15T15:17:58Z</time>
      </trkpt>
      <trkpt lat="49.4445" lon="-1.20795">
        <ele>1.4</ele>
        <time>2020-06-15T15:17:59Z</time>
      </trkpt>
      <trkpt lat="49.44449" lon="-1.20796">
        <ele>1.3</ele>
        <time>2020-06-15T15:18:00Z</time>
      </trkpt>
      <trkpt lat="49.44447" lon="-1.20798">
        <ele>1.3</ele>
        <time>2020-06-15T15:18:01Z</time>
      </trkpt>
      <trkpt lat="49.44447" lon="-1.20799">
        <ele>1.3</ele>
        <time>2020-06-15T15:18:02Z</time>
      </trkpt>
      <trkpt lat="49.44447" lon="-1.208">
        <ele>1.3</ele>
        <time>2020-06-15T15:18:03Z</time>
      </trkpt>
      <trkpt lat="49.44446" lon="-1.20801">
        <ele>1.3</ele>
        <time>2020-06-15T15:18:04Z</time>
      </trkpt>
      <trkpt lat="49.44446" lon="-1.20803">
        <ele>1.3</ele>
        <time>2020-06-15T15:18:05Z</time>
      </trkpt>
      <trkpt lat="49.44446" lon="-1.20804">
        <ele>1.3</ele>
        <time>2020-06-15T15:18:06Z</time>
      </trkpt>
      <trkpt lat="49.44446" lon="-1.20805">
        <ele>1.3</ele>
        <time>2020-06-15T15:18:07Z</time>
      </trkpt>
      <trkpt lat="49.44445" lon="-1.20807">
        <ele>1.2</ele>
        <time>2020-06-15T15:18:08Z</time>
      </trkpt>
      <trkpt lat="49.44444" lon="-1.20809">
        <ele>1.2</ele>
        <time>2020-06-15T15:18:09Z</time>
      </trkpt>
      <trkpt lat="49.44444" lon="-1.2081">
        <ele>1.2</ele>
        <time>2020-06-15T15:18:10Z</time>
      </trkpt>
      <trkpt lat="49.44444" lon="-1.20811">
        <ele>1.2</ele>
        <time>2020-06-15T15:18:11Z</time>
      </trkpt>
      <trkpt lat="49.44442" lon="-1.20814">
        <ele>1.2</ele>
        <time>2020-06-15T15:18:12Z</time>
      </trkpt>
      <trkpt lat="49.44442" lon="-1.20814">
        <ele>1.2</ele>
        <time>2020-06-15T15:18:13Z</time>
      </trkpt>
      <trkpt lat="49.44441" lon="-1.20815">
        <ele>1.2</ele>
        <time>2020-06-15T15:18:14Z</time>
      </trkpt>
      <trkpt lat="49.44441" lon="-1.20816">
        <ele>1.1</ele>
        <time>2020-06-15T15:18:15Z</time>
      </trkpt>
      <trkpt lat="49.44439" lon="-1.20817">
        <ele>1.1</ele>
        <time>2020-06-15T15:18:16Z</time>
      </trkpt>
      <trkpt lat="49.44439" lon="-1.20818">
        <ele>1.1</ele>
        <time>2020-06-15T15:18:17Z</time>
      </trkpt>
      <trkpt lat="49.44438" lon="-1.20818">
        <ele>1.1</ele>
        <time>2020-06-15T15:18:18Z</time>
      </trkpt>
      <trkpt lat="49.44438" lon="-1.20819">
        <ele>1.1</ele>
        <time>2020-06-15T15:18:19Z</time>
      </trkpt>
      <trkpt lat="49.44437" lon="-1.20819">
        <ele>1.1</ele>
        <time>2020-06-15T15:18:20Z</time>
      </trkpt>
      <trkpt lat="49.44436" lon="-1.2082">
        <ele>1.1</ele>
        <time>2020-06-15T15:18:21Z</time>
      </trkpt>
      <trkpt lat="49.44435" lon="-1.20821">
        <ele>1.1</ele>
        <time>2020-06-15T15:18:22Z</time>
      </trkpt>
      <trkpt lat="49.44434" lon="-1.20823">
        <ele>1.1</ele>
        <time>2020-06-15T15:18:23Z</time>
      </trkpt>
      <trkpt lat="49.44433" lon="-1.20824">
        <ele>1</ele>
        <time>2020-06-15T15:18:24Z</time>
      </trkpt>
      <trkpt lat="49.44432" lon="-1.20825">
        <ele>1</ele>
        <time>2020-06-15T15:18:25Z</time>
      </trkpt>
      <trkpt lat="49.44431" lon="-1.20827">
        <ele>1</ele>
        <time>2020-06-15T15:18:26Z</time>
      </trkpt>
      <trkpt lat="49.4443" lon="-1.20828">
        <ele>1</ele>
        <time>2020-06-15T15:18:27Z</time>
      </trkpt>
      <trkpt lat="49.44428" lon="-1.2083">
        <ele>1</ele>
        <time>2020-06-15T15:18:28Z</time>
      </trkpt>
      <trkpt lat="49.44428" lon="-1.2083">
        <ele>1</ele>
        <time>2020-06-15T15:18:29Z</time>
      </trkpt>
      <trkpt lat="49.44427" lon="-1.20831">
        <ele>0.9</ele>
        <time>2020-06-15T15:18:30Z</time>
      </trkpt>
      <trkpt lat="49.44426" lon="-1.20832">
        <ele>0.9</ele>
        <time>2020-06-15T15:18:31Z</time>
      </trkpt>
      <trkpt lat="49.44425" lon="-1.20833">
        <ele>0.9</ele>
        <time>2020-06-15T15:18:32Z</time>
      </trkpt>
      <trkpt lat="49.44424" lon="-1.20834">
        <ele>0.9</ele>
        <time>2020-06-15T15:18:33Z</time>
      </trkpt>
      <trkpt lat="49.44423" lon="-1.20835">
        <ele>0.9</ele>
        <time>2020-06-15T15:18:34Z</time>
      </trkpt>
      <trkpt lat="49.44423" lon="-1.20836">
        <ele>1</ele>
        <time>2020-06-15T15:18:35Z</time>
      </trkpt>
      <trkpt lat="49.44422" lon="-1.20837">
        <ele>1</ele>
        <time>2020-06-15T15:18:36Z</time>
      </trkpt>
      <trkpt lat="49.44422" lon="-1.20838">
        <ele>1.1</ele>
        <time>2020-06-15T15:18:37Z</time>
      </trkpt>
      <trkpt lat="49.44422" lon="-1.20839">
        <ele>1.2</ele>
        <time>2020-06-15T15:18:38Z</time>
      </trkpt>
      <trkpt lat="49.44422" lon="-1.20839">
        <ele>1.2</ele>
        <time>2020-06-15T15:18:39Z</time>
      </trkpt>
      <trkpt lat="49.44421" lon="-1.20839">
        <ele>1.2</ele>
        <time>2020-06-15T15:18:40Z</time>
      </trkpt>
      <trkpt lat="49.44421" lon="-1.20839">
        <ele>1.2</ele>
        <time>2020-06-15T15:18:41Z</time>
      </trkpt>
      <trkpt lat="49.44421" lon="-1.2084">
        <ele>1.3</ele>
        <time>2020-06-15T15:18:42Z</time>
      </trkpt>
      <trkpt lat="49.44421" lon="-1.2084">
        <ele>1.3</ele>
        <time>2020-06-15T15:18:43Z</time>
      </trkpt>
      <trkpt lat="49.4442" lon="-1.2084">
        <ele>1.4</ele>
        <time>2020-06-15T15:18:44Z</time>
      </trkpt>
      <trkpt lat="49.4442" lon="-1.20841">
        <ele>1.4</ele>
        <time>2020-06-15T15:18:45Z</time>
      </trkpt>
      <trkpt lat="49.4442" lon="-1.20842">
        <ele>1.5</ele>
        <time>2020-06-15T15:18:46Z</time>
      </trkpt>
      <trkpt lat="49.4442" lon="-1.20843">
        <ele>1.6</ele>
        <time>2020-06-15T15:18:47Z</time>
      </trkpt>
      <trkpt lat="49.4442" lon="-1.20844">
        <ele>1.6</ele>
        <time>2020-06-15T15:18:48Z</time>
      </trkpt>
      <trkpt lat="49.44419" lon="-1.20846">
        <ele>2.2</ele>
        <time>2020-06-15T15:18:49Z</time>
      </trkpt>
      <trkpt lat="49.44418" lon="-1.20847">
        <ele>2.3</ele>
        <time>2020-06-15T15:18:50Z</time>
      </trkpt>
      <trkpt lat="49.44417" lon="-1.20848">
        <ele>2.3</ele>
        <time>2020-06-15T15:18:51Z</time>
      </trkpt>
      <trkpt lat="49.44417" lon="-1.20849">
        <ele>2.4</ele>
        <time>2020-06-15T15:18:52Z</time>
      </trkpt>
      <trkpt lat="49.44416" lon="-1.2085">
        <ele>2.4</ele>
        <time>2020-06-15T15:18:53Z</time>
      </trkpt>
      <trkpt lat="49.44415" lon="-1.20851">
        <ele>2.5</ele>
        <time>2020-06-15T15:18:54Z</time>
      </trkpt>
      <trkpt lat="49.44415" lon="-1.20852">
        <ele>2.5</ele>
        <time>2020-06-15T15:18:55Z</time>
      </trkpt>
      <trkpt lat="49.44414" lon="-1.20853">
        <ele>2.6</ele>
        <time>2020-06-15T15:18:56Z</time>
      </trkpt>
      <trkpt lat="49.44414" lon="-1.20855">
        <ele>2.6</ele>
        <time>2020-06-15T15:18:57Z</time>
      </trkpt>
      <trkpt lat="49.44414" lon="-1.20856">
        <ele>2.7</ele>
        <time>2020-06-15T15:18:58Z</time>
      </trkpt>
      <trkpt lat="49.44413" lon="-1.20858">
        <ele>2.8</ele>
        <time>2020-06-15T15:18:59Z</time>
      </trkpt>
      <trkpt lat="49.44412" lon="-1.20859">
        <ele>2.8</ele>
        <time>2020-06-15T15:19:00Z</time>
      </trkpt>
      <trkpt lat="49.44412" lon="-1.2086">
        <ele>2.8</ele>
        <time>2020-06-15T15:19:01Z</time>
      </trkpt>
      <trkpt lat="49.44411" lon="-1.20861">
        <ele>2.9</ele>
        <time>2020-06-15T15:19:02Z</time>
      </trkpt>
      <trkpt lat="49.44411" lon="-1.20861">
        <ele>2.9</ele>
        <time>2020-06-15T15:19:03Z</time>
      </trkpt>
      <trkpt lat="49.4441" lon="-1.20862">
        <ele>3</ele>
        <time>2020-06-15T15:19:04Z</time>
      </trkpt>
      <trkpt lat="49.4441" lon="-1.20863">
        <ele>3</ele>
        <time>2020-06-15T15:19:05Z</time>
      </trkpt>
      <trkpt lat="49.4441" lon="-1.20864">
        <ele>3</ele>
        <time>2020-06-15T15:19:06Z</time>
      </trkpt>
      <trkpt lat="49.4441" lon="-1.20864">
        <ele>3</ele>
        <time>2020-06-15T15:19:07Z</time>
      </trkpt>
      <trkpt lat="49.4441" lon="-1.20864">
        <ele>3</ele>
        <time>2020-06-15T15:19:08Z</time>
      </trkpt>
      <trkpt lat="49.4441" lon="-1.20864">
        <ele>3.1</ele>
        <time>2020-06-15T15:19:09Z</time>
      </trkpt>
      <trkpt lat="49.44409" lon="-1.20865">
        <ele>3.1</ele>
        <time>2020-06-15T15:19:10Z</time>
      </trkpt>
      <trkpt lat="49.44408" lon="-1.20867">
        <ele>3.2</ele>
        <time>2020-06-15T15:19:11Z</time>
      </trkpt>
      <trkpt lat="49.44408" lon="-1.20868">
        <ele>3.2</ele>
        <time>2020-06-15T15:19:12Z</time>
      </trkpt>
      <trkpt lat="49.44407" lon="-1.2087">
        <ele>3.4</ele>
        <time>2020-06-15T15:19:13Z</time>
      </trkpt>
      <trkpt lat="49.44405" lon="-1.20871">
        <ele>3.4</ele>
        <time>2020-06-15T15:19:14Z</time>
      </trkpt>
      <trkpt lat="49.44405" lon="-1.20872">
        <ele>3.4</ele>
        <time>2020-06-15T15:19:15Z</time>
      </trkpt>
      <trkpt lat="49.44404" lon="-1.20873">
        <ele>3.4</ele>
        <time>2020-06-15T15:19:16Z</time>
      </trkpt>
      <trkpt lat="49.44403" lon="-1.20875">
        <ele>3.4</ele>
        <time>2020-06-15T15:19:17Z</time>
      </trkpt>
      <trkpt lat="49.44403" lon="-1.20876">
        <ele>3.4</ele>
        <time>2020-06-15T15:19:18Z</time>
      </trkpt>
      <trkpt lat="49.44403" lon="-1.20877">
        <ele>3.4</ele>
        <time>2020-06-15T15:19:19Z</time>
      </trkpt>
      <trkpt lat="49.44402" lon="-1.20878">
        <ele>3.4</ele>
        <time>2020-06-15T15:19:20Z</time>
      </trkpt>
      <trkpt lat="49.44402" lon="-1.20879">
        <ele>3.4</ele>
        <time>2020-06-15T15:19:21Z</time>
      </trkpt>
      <trkpt lat="49.44402" lon="-1.2088">
        <ele>3.4</ele>
        <time>2020-06-15T15:19:22Z</time>
      </trkpt>
      <trkpt lat="49.44402" lon="-1.20881">
        <ele>3.4</ele>
        <time>2020-06-15T15:19:23Z</time>
      </trkpt>
      <trkpt lat="49.44401" lon="-1.20882">
        <ele>3.4</ele>
        <time>2020-06-15T15:19:24Z</time>
      </trkpt>
      <trkpt lat="49.44401" lon="-1.20883">
        <ele>3.4</ele>
        <time>2020-06-15T15:19:25Z</time>
      </trkpt>
      <trkpt lat="49.444" lon="-1.20884">
        <ele>3.4</ele>
        <time>2020-06-15T15:19:26Z</time>
      </trkpt>
      <trkpt lat="49.44399" lon="-1.20885">
        <ele>3.4</ele>
        <time>2020-06-15T15:19:27Z</time>
      </trkpt>
      <trkpt lat="49.44398" lon="-1.20886">
        <ele>3.4</ele>
        <time>2020-06-15T15:19:28Z</time>
      </trkpt>
      <trkpt lat="49.44397" lon="-1.20889">
        <ele>3.4</ele>
        <time>2020-06-15T15:19:29Z</time>
      </trkpt>
      <trkpt lat="49.44397" lon="-1.2089">
        <ele>3.4</ele>
        <time>2020-06-15T15:19:30Z</time>
      </trkpt>
      <trkpt lat="49.44397" lon="-1.20892">
        <ele>3.4</ele>
        <time>2020-06-15T15:19:31Z</time>
      </trkpt>
      <trkpt lat="49.44397" lon="-1.20894">
        <ele>3.4</ele>
        <time>2020-06-15T15:19:32Z</time>
      </trkpt>
      <trkpt lat="49.44398" lon="-1.20896">
        <ele>3.4</ele>
        <time>2020-06-15T15:19:33Z</time>
      </trkpt>
      <trkpt lat="49.44398" lon="-1.20899">
        <ele>3.4</ele>
        <time>2020-06-15T15:19:34Z</time>
      </trkpt>
      <trkpt lat="49.44399" lon="-1.209">
        <ele>3.4</ele>
        <time>2020-06-15T15:19:35Z</time>
      </trkpt>
      <trkpt lat="49.444" lon="-1.20902">
        <ele>3.4</ele>
        <time>2020-06-15T15:19:36Z</time>
      </trkpt>
      <trkpt lat="49.444" lon="-1.20904">
        <ele>3.4</ele>
        <time>2020-06-15T15:19:37Z</time>
      </trkpt>
      <trkpt lat="49.44401" lon="-1.20909">
        <ele>3.4</ele>
        <time>2020-06-15T15:19:38Z</time>
      </trkpt>
      <trkpt lat="49.44401" lon="-1.2091">
        <ele>3.4</ele>
        <time>2020-06-15T15:19:39Z</time>
      </trkpt>
      <trkpt lat="49.44402" lon="-1.20911">
        <ele>3.3</ele>
        <time>2020-06-15T15:19:40Z</time>
      </trkpt>
      <trkpt lat="49.44403" lon="-1.20912">
        <ele>3.3</ele>
        <time>2020-06-15T15:19:41Z</time>
      </trkpt>
      <trkpt lat="49.44403" lon="-1.20914">
        <ele>3.3</ele>
        <time>2020-06-15T15:19:42Z</time>
      </trkpt>
      <trkpt lat="49.44403" lon="-1.20915">
        <ele>3.3</ele>
        <time>2020-06-15T15:19:43Z</time>
      </trkpt>
      <trkpt lat="49.44403" lon="-1.20915">
        <ele>3.3</ele>
        <time>2020-06-15T15:19:44Z</time>
      </trkpt>
      <trkpt lat="49.44403" lon="-1.20914">
        <ele>3.3</ele>
        <time>2020-06-15T15:19:45Z</time>
      </trkpt>
      <trkpt lat="49.44403" lon="-1.20914">
        <ele>3.3</ele>
        <time>2020-06-15T15:19:46Z</time>
      </trkpt>
      <trkpt lat="49.44403" lon="-1.20914">
        <ele>3.3</ele>
        <time>2020-06-15T15:19:47Z</time>
      </trkpt>
      <trkpt lat="49.44403" lon="-1.20914">
        <ele>3.3</ele>
        <time>2020-06-15T15:19:48Z</time>
      </trkpt>
      <trkpt lat="49.44403" lon="-1.20914">
        <ele>3.3</ele>
        <time>2020-06-15T15:19:49Z</time>
      </trkpt>
      <trkpt lat="49.44403" lon="-1.20914">
        <ele>3.3</ele>
        <time>2020-06-15T15:19:50Z</time>
      </trkpt>
      <trkpt lat="49.44403" lon="-1.20914">
        <ele>3.3</ele>
        <time>2020-06-15T15:19:51Z</time>
      </trkpt>
      <trkpt lat="49.44403" lon="-1.20914">
        <ele>3.3</ele>
        <time>2020-06-15T15:19:52Z</time>
      </trkpt>
      <trkpt lat="49.44403" lon="-1.20914">
        <ele>3.3</ele>
        <time>2020-06-15T15:19:53Z</time>
      </trkpt>
      <trkpt lat="49.44403" lon="-1.20914">
        <ele>3.3</ele>
        <time>2020-06-15T15:19:54Z</time>
      </trkpt>
      <trkpt lat="49.444" lon="-1.20906">
        <ele>3.3</ele>
        <time>2020-06-15T15:21:44Z</time>
      </trkpt>
      <trkpt lat="49.44399" lon="-1.20905">
        <ele>3.3</ele>
        <time>2020-06-15T15:21:45Z</time>
      </trkpt>
      <trkpt lat="49.44398" lon="-1.20903">
        <ele>3.3</ele>
        <time>2020-06-15T15:21:46Z</time>
      </trkpt>
      <trkpt lat="49.44397" lon="-1.20901">
        <ele>3.3</ele>
        <time>2020-06-15T15:21:47Z</time>
      </trkpt>
      <trkpt lat="49.44396" lon="-1.20898">
        <ele>3.2</ele>
        <time>2020-06-15T15:21:48Z</time>
      </trkpt>
      <trkpt lat="49.44396" lon="-1.20897">
        <ele>3.2</ele>
        <time>2020-06-15T15:21:49Z</time>
      </trkpt>
      <trkpt lat="49.44395" lon="-1.20895">
        <ele>3.2</ele>
        <time>2020-06-15T15:21:50Z</time>
      </trkpt>
      <trkpt lat="49.44395" lon="-1.20894">
        <ele>3.2</ele>
        <time>2020-06-15T15:21:51Z</time>
      </trkpt>
      <trkpt lat="49.44394" lon="-1.20893">
        <ele>3.2</ele>
        <time>2020-06-15T15:21:52Z</time>
      </trkpt>
      <trkpt lat="49.44394" lon="-1.20891">
        <ele>3.2</ele>
        <time>2020-06-15T15:21:53Z</time>
      </trkpt>
      <trkpt lat="49.44394" lon="-1.2089">
        <ele>3.2</ele>
        <time>2020-06-15T15:21:54Z</time>
      </trkpt>
      <trkpt lat="49.44393" lon="-1.20888">
        <ele>3.2</ele>
        <time>2020-06-15T15:21:55Z</time>
      </trkpt>
      <trkpt lat="49.44393" lon="-1.20887">
        <ele>3.2</ele>
        <time>2020-06-15T15:21:56Z</time>
      </trkpt>
      <trkpt lat="49.44393" lon="-1.20887">
        <ele>3.2</ele>
        <time>2020-06-15T15:21:57Z</time>
      </trkpt>
      <trkpt lat="49.44393" lon="-1.20886">
        <ele>3.2</ele>
        <time>2020-06-15T15:21:58Z</time>
      </trkpt>
      <trkpt lat="49.44393" lon="-1.20885">
        <ele>3.2</ele>
        <time>2020-06-15T15:21:59Z</time>
      </trkpt>
      <trkpt lat="49.44392" lon="-1.20885">
        <ele>3.2</ele>
        <time>2020-06-15T15:22:00Z</time>
      </trkpt>
      <trkpt lat="49.44392" lon="-1.20885">
        <ele>3.2</ele>
        <time>2020-06-15T15:22:01Z</time>
      </trkpt>
      <trkpt lat="49.44392" lon="-1.20885">
        <ele>3.2</ele>
        <time>2020-06-15T15:22:02Z</time>
      </trkpt>
      <trkpt lat="49.44392" lon="-1.20885">
        <ele>3.2</ele>
        <time>2020-06-15T15:22:03Z</time>
      </trkpt>
      <trkpt lat="49.44392" lon="-1.20885">
        <ele>3.2</ele>
        <time>2020-06-15T15:22:04Z</time>
      </trkpt>
      <trkpt lat="49.44392" lon="-1.20885">
        <ele>3.2</ele>
        <time>2020-06-15T15:22:05Z</time>
      </trkpt>
      <trkpt lat="49.44392" lon="-1.20885">
        <ele>3.2</ele>
        <time>2020-06-15T15:22:06Z</time>
      </trkpt>
      <trkpt lat="49.44392" lon="-1.20884">
        <ele>3.2</ele>
        <time>2020-06-15T15:22:07Z</time>
      </trkpt>
      <trkpt lat="49.44392" lon="-1.20884">
        <ele>3.2</ele>
        <time>2020-06-15T15:22:08Z</time>
      </trkpt>
      <trkpt lat="49.44397" lon="-1.20891">
        <ele>3.1</ele>
        <time>2020-06-15T15:22:42Z</time>
      </trkpt>
      <trkpt lat="49.44399" lon="-1.2089">
        <ele>3.1</ele>
        <time>2020-06-15T15:22:43Z</time>
      </trkpt>
      <trkpt lat="49.44399" lon="-1.20889">
        <ele>3.1</ele>
        <time>2020-06-15T15:22:44Z</time>
      </trkpt>
      <trkpt lat="49.444" lon="-1.20888">
        <ele>3.1</ele>
        <time>2020-06-15T15:22:45Z</time>
      </trkpt>
      <trkpt lat="49.444" lon="-1.20888">
        <ele>3.1</ele>
        <time>2020-06-15T15:22:46Z</time>
      </trkpt>
      <trkpt lat="49.444" lon="-1.20888">
        <ele>3.1</ele>
        <time>2020-06-15T15:22:47Z</time>
      </trkpt>
      <trkpt lat="49.444" lon="-1.20888">
        <ele>3.1</ele>
        <time>2020-06-15T15:22:48Z</time>
      </trkpt>
      <trkpt lat="49.444" lon="-1.20888">
        <ele>3.1</ele>
        <time>2020-06-15T15:22:49Z</time>
      </trkpt>
      <trkpt lat="49.444" lon="-1.20888">
        <ele>3.1</ele>
        <time>2020-06-15T15:22:50Z</time>
      </trkpt>
      <trkpt lat="49.444" lon="-1.20887">
        <ele>3.1</ele>
        <time>2020-06-15T15:22:51Z</time>
      </trkpt>
      <trkpt lat="49.444" lon="-1.20887">
        <ele>3.1</ele>
        <time>2020-06-15T15:22:52Z</time>
      </trkpt>
      <trkpt lat="49.444" lon="-1.20887">
        <ele>3.1</ele>
        <time>2020-06-15T15:22:53Z</time>
      </trkpt>
      <trkpt lat="49.444" lon="-1.20886">
        <ele>3.1</ele>
        <time>2020-06-15T15:22:54Z</time>
      </trkpt>
      <trkpt lat="49.444" lon="-1.20887">
        <ele>3.1</ele>
        <time>2020-06-15T15:22:55Z</time>
      </trkpt>
      <trkpt lat="49.44399" lon="-1.20887">
        <ele>3.1</ele>
        <time>2020-06-15T15:22:56Z</time>
      </trkpt>
      <trkpt lat="49.44395" lon="-1.20887">
        <ele>3.1</ele>
        <time>2020-06-15T15:23:02Z</time>
      </trkpt>
      <trkpt lat="49.44393" lon="-1.20887">
        <ele>3.1</ele>
        <time>2020-06-15T15:23:03Z</time>
      </trkpt>
      <trkpt lat="49.44392" lon="-1.20888">
        <ele>3.1</ele>
        <time>2020-06-15T15:23:04Z</time>
      </trkpt>
      <trkpt lat="49.44391" lon="-1.20887">
        <ele>3.1</ele>
        <time>2020-06-15T15:23:05Z</time>
      </trkpt>
      <trkpt lat="49.4439" lon="-1.20887">
        <ele>3.1</ele>
        <time>2020-06-15T15:23:06Z</time>
      </trkpt>
      <trkpt lat="49.44389" lon="-1.20888">
        <ele>3.1</ele>
        <time>2020-06-15T15:23:07Z</time>
      </trkpt>
      <trkpt lat="49.44388" lon="-1.20888">
        <ele>3.1</ele>
        <time>2020-06-15T15:23:08Z</time>
      </trkpt>
      <trkpt lat="49.44388" lon="-1.20888">
        <ele>3.1</ele>
        <time>2020-06-15T15:23:09Z</time>
      </trkpt>
      <trkpt lat="49.44388" lon="-1.20888">
        <ele>3.1</ele>
        <time>2020-06-15T15:23:10Z</time>
      </trkpt>
      <trkpt lat="49.44387" lon="-1.20888">
        <ele>3.1</ele>
        <time>2020-06-15T15:23:11Z</time>
      </trkpt>
      <trkpt lat="49.44386" lon="-1.20887">
        <ele>3.1</ele>
        <time>2020-06-15T15:23:12Z</time>
      </trkpt>
      <trkpt lat="49.44386" lon="-1.20888">
        <ele>3.1</ele>
        <time>2020-06-15T15:23:13Z</time>
      </trkpt>
      <trkpt lat="49.44386" lon="-1.20888">
        <ele>3.1</ele>
        <time>2020-06-15T15:23:14Z</time>
      </trkpt>
      <trkpt lat="49.44386" lon="-1.20888">
        <ele>3.1</ele>
        <time>2020-06-15T15:23:15Z</time>
      </trkpt>
      <trkpt lat="49.44385" lon="-1.20889">
        <ele>3.1</ele>
        <time>2020-06-15T15:23:16Z</time>
      </trkpt>
      <trkpt lat="49.44385" lon="-1.20889">
        <ele>3.1</ele>
        <time>2020-06-15T15:23:17Z</time>
      </trkpt>
      <trkpt lat="49.44385" lon="-1.20889">
        <ele>3.1</ele>
        <time>2020-06-15T15:23:18Z</time>
      </trkpt>
      <trkpt lat="49.44385" lon="-1.2089">
        <ele>3.1</ele>
        <time>2020-06-15T15:23:19Z</time>
      </trkpt>
      <trkpt lat="49.44384" lon="-1.2089">
        <ele>3.1</ele>
        <time>2020-06-15T15:23:20Z</time>
      </trkpt>
      <trkpt lat="49.44384" lon="-1.20891">
        <ele>3.1</ele>
        <time>2020-06-15T15:23:21Z</time>
      </trkpt>
      <trkpt lat="49.44384" lon="-1.20891">
        <ele>3.1</ele>
        <time>2020-06-15T15:23:22Z</time>
      </trkpt>
      <trkpt lat="49.44384" lon="-1.20891">
        <ele>3.1</ele>
        <time>2020-06-15T15:23:23Z</time>
      </trkpt>
      <trkpt lat="49.44383" lon="-1.20892">
        <ele>3.1</ele>
        <time>2020-06-15T15:23:24Z</time>
      </trkpt>
      <trkpt lat="49.44383" lon="-1.20892">
        <ele>3.1</ele>
        <time>2020-06-15T15:23:25Z</time>
      </trkpt>
      <trkpt lat="49.44383" lon="-1.20893">
        <ele>3.1</ele>
        <time>2020-06-15T15:23:26Z</time>
      </trkpt>
      <trkpt lat="49.44383" lon="-1.20893">
        <ele>3.1</ele>
        <time>2020-06-15T15:23:27Z</time>
      </trkpt>
      <trkpt lat="49.44382" lon="-1.20893">
        <ele>3.1</ele>
        <time>2020-06-15T15:23:28Z</time>
      </trkpt>
      <trkpt lat="49.44382" lon="-1.20894">
        <ele>3.1</ele>
        <time>2020-06-15T15:23:29Z</time>
      </trkpt>
      <trkpt lat="49.44382" lon="-1.20894">
        <ele>3.1</ele>
        <time>2020-06-15T15:23:30Z</time>
      </trkpt>
      <trkpt lat="49.44382" lon="-1.20894">
        <ele>3.1</ele>
        <time>2020-06-15T15:26:05Z</time>
      </trkpt>
      <trkpt lat="49.44381" lon="-1.20895">
        <ele>3.1</ele>
        <time>2020-06-15T15:26:06Z</time>
      </trkpt>
      <trkpt lat="49.44381" lon="-1.20895">
        <ele>3.1</ele>
        <time>2020-06-15T15:26:07Z</time>
      </trkpt>
      <trkpt lat="49.4438" lon="-1.20898">
        <ele>3.1</ele>
        <time>2020-06-15T15:26:08Z</time>
      </trkpt>
      <trkpt lat="49.4438" lon="-1.209">
        <ele>3.1</ele>
        <time>2020-06-15T15:26:09Z</time>
      </trkpt>
      <trkpt lat="49.4438" lon="-1.20902">
        <ele>3.1</ele>
        <time>2020-06-15T15:26:10Z</time>
      </trkpt>
      <trkpt lat="49.4438" lon="-1.20905">
        <ele>3.1</ele>
        <time>2020-06-15T15:26:11Z</time>
      </trkpt>
      <trkpt lat="49.44381" lon="-1.20907">
        <ele>3.1</ele>
        <time>2020-06-15T15:26:12Z</time>
      </trkpt>
      <trkpt lat="49.44381" lon="-1.20908">
        <ele>3.1</ele>
        <time>2020-06-15T15:26:13Z</time>
      </trkpt>
      <trkpt lat="49.44382" lon="-1.20909">
        <ele>3.1</ele>
        <time>2020-06-15T15:26:14Z</time>
      </trkpt>
      <trkpt lat="49.44383" lon="-1.20909">
        <ele>3.1</ele>
        <time>2020-06-15T15:26:15Z</time>
      </trkpt>
      <trkpt lat="49.44384" lon="-1.20911">
        <ele>3.1</ele>
        <time>2020-06-15T15:26:16Z</time>
      </trkpt>
      <trkpt lat="49.44384" lon="-1.20913">
        <ele>3.1</ele>
        <time>2020-06-15T15:26:17Z</time>
      </trkpt>
      <trkpt lat="49.44384" lon="-1.20915">
        <ele>3</ele>
        <time>2020-06-15T15:26:18Z</time>
      </trkpt>
      <trkpt lat="49.44384" lon="-1.20917">
        <ele>3</ele>
        <time>2020-06-15T15:26:19Z</time>
      </trkpt>
      <trkpt lat="49.44383" lon="-1.20918">
        <ele>3</ele>
        <time>2020-06-15T15:26:20Z</time>
      </trkpt>
      <trkpt lat="49.44382" lon="-1.20916">
        <ele>3</ele>
        <time>2020-06-15T15:26:21Z</time>
      </trkpt>
      <trkpt lat="49.4438" lon="-1.20917">
        <ele>3</ele>
        <time>2020-06-15T15:26:22Z</time>
      </trkpt>
      <trkpt lat="49.44378" lon="-1.20919">
        <ele>3</ele>
        <time>2020-06-15T15:26:23Z</time>
      </trkpt>
      <trkpt lat="49.44378" lon="-1.20919">
        <ele>3</ele>
        <time>2020-06-15T15:26:24Z</time>
      </trkpt>
      <trkpt lat="49.44377" lon="-1.2092">
        <ele>3</ele>
        <time>2020-06-15T15:26:25Z</time>
      </trkpt>
      <trkpt lat="49.44376" lon="-1.20922">
        <ele>3</ele>
        <time>2020-06-15T15:26:26Z</time>
      </trkpt>
      <trkpt lat="49.44376" lon="-1.20924">
        <ele>3</ele>
        <time>2020-06-15T15:26:27Z</time>
      </trkpt>
      <trkpt lat="49.44376" lon="-1.20925">
        <ele>3</ele>
        <time>2020-06-15T15:26:28Z</time>
      </trkpt>
      <trkpt lat="49.44375" lon="-1.20927">
        <ele>3</ele>
        <time>2020-06-15T15:26:29Z</time>
      </trkpt>
      <trkpt lat="49.44375" lon="-1.20927">
        <ele>3</ele>
        <time>2020-06-15T15:26:30Z</time>
      </trkpt>
      <trkpt lat="49.44375" lon="-1.20929">
        <ele>3</ele>
        <time>2020-06-15T15:26:31Z</time>
      </trkpt>
      <trkpt lat="49.44374" lon="-1.20929">
        <ele>3</ele>
        <time>2020-06-15T15:26:32Z</time>
      </trkpt>
      <trkpt lat="49.44375" lon="-1.20929">
        <ele>3</ele>
        <time>2020-06-15T15:26:33Z</time>
      </trkpt>
      <trkpt lat="49.44375" lon="-1.2093">
        <ele>3</ele>
        <time>2020-06-15T15:26:34Z</time>
      </trkpt>
      <trkpt lat="49.44375" lon="-1.20931">
        <ele>3</ele>
        <time>2020-06-15T15:26:35Z</time>
      </trkpt>
      <trkpt lat="49.44376" lon="-1.20932">
        <ele>3</ele>
        <time>2020-06-15T15:26:36Z</time>
      </trkpt>
      <trkpt lat="49.44376" lon="-1.20933">
        <ele>3</ele>
        <time>2020-06-15T15:26:37Z</time>
      </trkpt>
      <trkpt lat="49.44376" lon="-1.20933">
        <ele>3</ele>
        <time>2020-06-15T15:26:38Z</time>
      </trkpt>
      <trkpt lat="49.44377" lon="-1.20934">
        <ele>3</ele>
        <time>2020-06-15T15:26:39Z</time>
      </trkpt>
      <trkpt lat="49.44377" lon="-1.20935">
        <ele>3</ele>
        <time>2020-06-15T15:26:40Z</time>
      </trkpt>
      <trkpt lat="49.44379" lon="-1.20935">
        <ele>3</ele>
        <time>2020-06-15T15:26:41Z</time>
      </trkpt>
      <trkpt lat="49.44379" lon="-1.20937">
        <ele>3.1</ele>
        <time>2020-06-15T15:26:42Z</time>
      </trkpt>
      <trkpt lat="49.4438" lon="-1.20938">
        <ele>3.1</ele>
        <time>2020-06-15T15:26:43Z</time>
      </trkpt>
      <trkpt lat="49.44381" lon="-1.20939">
        <ele>3.1</ele>
        <time>2020-06-15T15:26:44Z</time>
      </trkpt>
      <trkpt lat="49.4438" lon="-1.20941">
        <ele>3.1</ele>
        <time>2020-06-15T15:26:45Z</time>
      </trkpt>
      <trkpt lat="49.44379" lon="-1.20943">
        <ele>3.1</ele>
        <time>2020-06-15T15:26:46Z</time>
      </trkpt>
      <trkpt lat="49.44379" lon="-1.20944">
        <ele>3.1</ele>
        <time>2020-06-15T15:26:47Z</time>
      </trkpt>
      <trkpt lat="49.44378" lon="-1.20947">
        <ele>3.1</ele>
        <time>2020-06-15T15:26:48Z</time>
      </trkpt>
      <trkpt lat="49.44377" lon="-1.20948">
        <ele>3.1</ele>
        <time>2020-06-15T15:26:49Z</time>
      </trkpt>
      <trkpt lat="49.44376" lon="-1.20948">
        <ele>3.1</ele>
        <time>2020-06-15T15:26:50Z</time>
      </trkpt>
      <trkpt lat="49.44375" lon="-1.20951">
        <ele>3.1</ele>
        <time>2020-06-15T15:26:51Z</time>
      </trkpt>
      <trkpt lat="49.44374" lon="-1.20952">
        <ele>3.1</ele>
        <time>2020-06-15T15:26:52Z</time>
      </trkpt>
      <trkpt lat="49.44374" lon="-1.20954">
        <ele>3.1</ele>
        <time>2020-06-15T15:26:53Z</time>
      </trkpt>
      <trkpt lat="49.44372" lon="-1.20957">
        <ele>3.2</ele>
        <time>2020-06-15T15:26:54Z</time>
      </trkpt>
      <trkpt lat="49.44371" lon="-1.20958">
        <ele>3.2</ele>
        <time>2020-06-15T15:26:55Z</time>
      </trkpt>
      <trkpt lat="49.44367" lon="-1.2096">
        <ele>3.1</ele>
        <time>2020-06-15T15:26:56Z</time>
      </trkpt>
      <trkpt lat="49.44366" lon="-1.20961">
        <ele>3.1</ele>
        <time>2020-06-15T15:26:57Z</time>
      </trkpt>
      <trkpt lat="49.44363" lon="-1.20962">
        <ele>3</ele>
        <time>2020-06-15T15:26:58Z</time>
      </trkpt>
      <trkpt lat="49.44361" lon="-1.20963">
        <ele>3</ele>
        <time>2020-06-15T15:26:59Z</time>
      </trkpt>
      <trkpt lat="49.44358" lon="-1.20964">
        <ele>2.9</ele>
        <time>2020-06-15T15:27:00Z</time>
      </trkpt>
      <trkpt lat="49.44356" lon="-1.20964">
        <ele>2.9</ele>
        <time>2020-06-15T15:27:01Z</time>
      </trkpt>
      <trkpt lat="49.44353" lon="-1.20964">
        <ele>2.9</ele>
        <time>2020-06-15T15:27:02Z</time>
      </trkpt>
      <trkpt lat="49.44352" lon="-1.20964">
        <ele>2.8</ele>
        <time>2020-06-15T15:27:03Z</time>
      </trkpt>
      <trkpt lat="49.44348" lon="-1.20964">
        <ele>2.8</ele>
        <time>2020-06-15T15:27:04Z</time>
      </trkpt>
      <trkpt lat="49.44347" lon="-1.20964">
        <ele>2.8</ele>
        <time>2020-06-15T15:27:05Z</time>
      </trkpt>
      <trkpt lat="49.44346" lon="-1.20964">
        <ele>2.8</ele>
        <time>2020-06-15T15:27:06Z</time>
      </trkpt>
      <trkpt lat="49.44344" lon="-1.20964">
        <ele>2.7</ele>
        <time>2020-06-15T15:27:07Z</time>
      </trkpt>
      <trkpt lat="49.44343" lon="-1.20964">
        <ele>2.7</ele>
        <time>2020-06-15T15:27:08Z</time>
      </trkpt>
      <trkpt lat="49.44342" lon="-1.20962">
        <ele>2.7</ele>
        <time>2020-06-15T15:27:09Z</time>
      </trkpt>
      <trkpt lat="49.44342" lon="-1.20962">
        <ele>2.7</ele>
        <time>2020-06-15T15:27:10Z</time>
      </trkpt>
      <trkpt lat="49.44342" lon="-1.20963">
        <ele>2.7</ele>
        <time>2020-06-15T15:27:11Z</time>
      </trkpt>
      <trkpt lat="49.44342" lon="-1.20964">
        <ele>2.7</ele>
        <time>2020-06-15T15:27:12Z</time>
      </trkpt>
      <trkpt lat="49.44342" lon="-1.20965">
        <ele>2.7</ele>
        <time>2020-06-15T15:27:13Z</time>
      </trkpt>
      <trkpt lat="49.44342" lon="-1.20966">
        <ele>2.7</ele>
        <time>2020-06-15T15:27:14Z</time>
      </trkpt>
      <trkpt lat="49.44342" lon="-1.20967">
        <ele>2.7</ele>
        <time>2020-06-15T15:27:15Z</time>
      </trkpt>
      <trkpt lat="49.44342" lon="-1.20968">
        <ele>2.6</ele>
        <time>2020-06-15T15:27:16Z</time>
      </trkpt>
      <trkpt lat="49.44343" lon="-1.2097">
        <ele>2.6</ele>
        <time>2020-06-15T15:27:17Z</time>
      </trkpt>
      <trkpt lat="49.44343" lon="-1.20971">
        <ele>2.6</ele>
        <time>2020-06-15T15:27:18Z</time>
      </trkpt>
      <trkpt lat="49.44343" lon="-1.20972">
        <ele>2.6</ele>
        <time>2020-06-15T15:27:19Z</time>
      </trkpt>
      <trkpt lat="49.44343" lon="-1.20973">
        <ele>2.6</ele>
        <time>2020-06-15T15:27:20Z</time>
      </trkpt>
      <trkpt lat="49.44343" lon="-1.20974">
        <ele>2.6</ele>
        <time>2020-06-15T15:28:21Z</time>
      </trkpt>
      <trkpt lat="49.44343" lon="-1.20975">
        <ele>2.6</ele>
        <time>2020-06-15T15:28:22Z</time>
      </trkpt>
      <trkpt lat="49.44342" lon="-1.20977">
        <ele>2.6</ele>
        <time>2020-06-15T15:28:23Z</time>
      </trkpt>
      <trkpt lat="49.44341" lon="-1.20977">
        <ele>2.6</ele>
        <time>2020-06-15T15:28:24Z</time>
      </trkpt>
      <trkpt lat="49.44338" lon="-1.20978">
        <ele>2.5</ele>
        <time>2020-06-15T15:28:25Z</time>
      </trkpt>
      <trkpt lat="49.44337" lon="-1.20978">
        <ele>2.6</ele>
        <time>2020-06-15T15:28:26Z</time>
      </trkpt>
      <trkpt lat="49.44334" lon="-1.20977">
        <ele>2.6</ele>
        <time>2020-06-15T15:28:27Z</time>
      </trkpt>
      <trkpt lat="49.44331" lon="-1.20974">
        <ele>2.6</ele>
        <time>2020-06-15T15:28:28Z</time>
      </trkpt>
      <trkpt lat="49.44329" lon="-1.20973">
        <ele>2.6</ele>
        <time>2020-06-15T15:28:29Z</time>
      </trkpt>
      <trkpt lat="49.44327" lon="-1.2097">
        <ele>2.7</ele>
        <time>2020-06-15T15:28:30Z</time>
      </trkpt>
      <trkpt lat="49.44324" lon="-1.20967">
        <ele>2.7</ele>
        <time>2020-06-15T15:28:31Z</time>
      </trkpt>
      <trkpt lat="49.44323" lon="-1.20966">
        <ele>2.7</ele>
        <time>2020-06-15T15:28:32Z</time>
      </trkpt>
      <trkpt lat="49.4432" lon="-1.20963">
        <ele>2.7</ele>
        <time>2020-06-15T15:28:33Z</time>
      </trkpt>
      <trkpt lat="49.44317" lon="-1.2096">
        <ele>2.7</ele>
        <time>2020-06-15T15:28:34Z</time>
      </trkpt>
      <trkpt lat="49.44315" lon="-1.20957">
        <ele>2.7</ele>
        <time>2020-06-15T15:28:35Z</time>
      </trkpt>
      <trkpt lat="49.44312" lon="-1.20954">
        <ele>2.7</ele>
        <time>2020-06-15T15:28:36Z</time>
      </trkpt>
      <trkpt lat="49.44309" lon="-1.20951">
        <ele>2.7</ele>
        <time>2020-06-15T15:28:37Z</time>
      </trkpt>
      <trkpt lat="49.44306" lon="-1.20948">
        <ele>2.7</ele>
        <time>2020-06-15T15:28:38Z</time>
      </trkpt>
      <trkpt lat="49.44303" lon="-1.20946">
        <ele>2.7</ele>
        <time>2020-06-15T15:28:39Z</time>
      </trkpt>
      <trkpt lat="49.44299" lon="-1.20944">
        <ele>2.7</ele>
        <time>2020-06-15T15:28:40Z</time>
      </trkpt>
      <trkpt lat="49.44295" lon="-1.20941">
        <ele>2.7</ele>
        <time>2020-06-15T15:28:41Z</time>
      </trkpt>
      <trkpt lat="49.44291" lon="-1.20938">
        <ele>2.7</ele>
        <time>2020-06-15T15:28:42Z</time>
      </trkpt>
      <trkpt lat="49.44286" lon="-1.20935">
        <ele>2.6</ele>
        <time>2020-06-15T15:28:43Z</time>
      </trkpt>
      <trkpt lat="49.44282" lon="-1.20932">
        <ele>2.6</ele>
        <time>2020-06-15T15:28:44Z</time>
      </trkpt>
      <trkpt lat="49.44277" lon="-1.20928">
        <ele>2.6</ele>
        <time>2020-06-15T15:28:45Z</time>
      </trkpt>
      <trkpt lat="49.44273" lon="-1.20926">
        <ele>2.6</ele>
        <time>2020-06-15T15:28:46Z</time>
      </trkpt>
      <trkpt lat="49.44269" lon="-1.20922">
        <ele>2.6</ele>
        <time>2020-06-15T15:28:47Z</time>
      </trkpt>
      <trkpt lat="49.44264" lon="-1.20919">
        <ele>2.6</ele>
        <time>2020-06-15T15:28:48Z</time>
      </trkpt>
      <trkpt lat="49.44259" lon="-1.20916">
        <ele>2.6</ele>
        <time>2020-06-15T15:28:49Z</time>
      </trkpt>
      <trkpt lat="49.44254" lon="-1.20912">
        <ele>2.6</ele>
        <time>2020-06-15T15:28:50Z</time>
      </trkpt>
      <trkpt lat="49.44249" lon="-1.20909">
        <ele>2.6</ele>
        <time>2020-06-15T15:28:51Z</time>
      </trkpt>
      <trkpt lat="49.44244" lon="-1.20906">
        <ele>2.7</ele>
        <time>2020-06-15T15:28:52Z</time>
      </trkpt>
      <trkpt lat="49.4424" lon="-1.20902">
        <ele>2.7</ele>
        <time>2020-06-15T15:28:53Z</time>
      </trkpt>
      <trkpt lat="49.44235" lon="-1.20899">
        <ele>2.7</ele>
        <time>2020-06-15T15:28:54Z</time>
      </trkpt>
      <trkpt lat="49.44229" lon="-1.20895">
        <ele>2.7</ele>
        <time>2020-06-15T15:28:55Z</time>
      </trkpt>
      <trkpt lat="49.44225" lon="-1.20891">
        <ele>2.7</ele>
        <time>2020-06-15T15:28:56Z</time>
      </trkpt>
      <trkpt lat="49.4422" lon="-1.20888">
        <ele>2.7</ele>
        <time>2020-06-15T15:28:57Z</time>
      </trkpt>
      <trkpt lat="49.44215" lon="-1.20883">
        <ele>2.7</ele>
        <time>2020-06-15T15:28:58Z</time>
      </trkpt>
      <trkpt lat="49.4421" lon="-1.2088">
        <ele>2.7</ele>
        <time>2020-06-15T15:28:59Z</time>
      </trkpt>
      <trkpt lat="49.44205" lon="-1.20876">
        <ele>2.7</ele>
        <time>2020-06-15T15:29:00Z</time>
      </trkpt>
      <trkpt lat="49.442" lon="-1.20872">
        <ele>2.7</ele>
        <time>2020-06-15T15:29:01Z</time>
      </trkpt>
      <trkpt lat="49.44194" lon="-1.20868">
        <ele>2.6</ele>
        <time>2020-06-15T15:29:02Z</time>
      </trkpt>
      <trkpt lat="49.44189" lon="-1.20864">
        <ele>2.6</ele>
        <time>2020-06-15T15:29:03Z</time>
      </trkpt>
      <trkpt lat="49.44184" lon="-1.2086">
        <ele>2.6</ele>
        <time>2020-06-15T15:29:04Z</time>
      </trkpt>
      <trkpt lat="49.44179" lon="-1.20855">
        <ele>2.5</ele>
        <time>2020-06-15T15:29:05Z</time>
      </trkpt>
      <trkpt lat="49.44174" lon="-1.20851">
        <ele>2.5</ele>
        <time>2020-06-15T15:29:06Z</time>
      </trkpt>
      <trkpt lat="49.44169" lon="-1.20847">
        <ele>2.4</ele>
        <time>2020-06-15T15:29:07Z</time>
      </trkpt>
      <trkpt lat="49.44164" lon="-1.20841">
        <ele>2.4</ele>
        <time>2020-06-15T15:29:08Z</time>
      </trkpt>
      <trkpt lat="49.44159" lon="-1.20837">
        <ele>2.4</ele>
        <time>2020-06-15T15:29:09Z</time>
      </trkpt>
      <trkpt lat="49.44154" lon="-1.20833">
        <ele>2.4</ele>
        <time>2020-06-15T15:29:10Z</time>
      </trkpt>
      <trkpt lat="49.44149" lon="-1.20829">
        <ele>2.4</ele>
        <time>2020-06-15T15:29:11Z</time>
      </trkpt>
      <trkpt lat="49.44144" lon="-1.20824">
        <ele>2.4</ele>
        <time>2020-06-15T15:29:12Z</time>
      </trkpt>
      <trkpt lat="49.4414" lon="-1.20819">
        <ele>2.4</ele>
        <time>2020-06-15T15:29:13Z</time>
      </trkpt>
      <trkpt lat="49.44135" lon="-1.20814">
        <ele>2.4</ele>
        <time>2020-06-15T15:29:14Z</time>
      </trkpt>
      <trkpt lat="49.4413" lon="-1.2081">
        <ele>2.5</ele>
        <time>2020-06-15T15:29:15Z</time>
      </trkpt>
      <trkpt lat="49.44125" lon="-1.20806">
        <ele>2.5</ele>
        <time>2020-06-15T15:29:16Z</time>
      </trkpt>
      <trkpt lat="49.4412" lon="-1.20801">
        <ele>2.6</ele>
        <time>2020-06-15T15:29:17Z</time>
      </trkpt>
      <trkpt lat="49.44115" lon="-1.20798">
        <ele>2.6</ele>
        <time>2020-06-15T15:29:18Z</time>
      </trkpt>
      <trkpt lat="49.4411" lon="-1.20794">
        <ele>2.7</ele>
        <time>2020-06-15T15:29:19Z</time>
      </trkpt>
      <trkpt lat="49.44105" lon="-1.20789">
        <ele>2.7</ele>
        <time>2020-06-15T15:29:20Z</time>
      </trkpt>
      <trkpt lat="49.44099" lon="-1.20786">
        <ele>2.7</ele>
        <time>2020-06-15T15:29:21Z</time>
      </trkpt>
      <trkpt lat="49.44094" lon="-1.20782">
        <ele>2.7</ele>
        <time>2020-06-15T15:29:22Z</time>
      </trkpt>
      <trkpt lat="49.44088" lon="-1.20778">
        <ele>2.7</ele>
        <time>2020-06-15T15:29:23Z</time>
      </trkpt>
      <trkpt lat="49.44083" lon="-1.20775">
        <ele>2.7</ele>
        <time>2020-06-15T15:29:24Z</time>
      </trkpt>
      <trkpt lat="49.44078" lon="-1.20774">
        <ele>2.7</ele>
        <time>2020-06-15T15:29:25Z</time>
      </trkpt>
      <trkpt lat="49.44072" lon="-1.20772">
        <ele>2.6</ele>
        <time>2020-06-15T15:29:26Z</time>
      </trkpt>
      <trkpt lat="49.44067" lon="-1.2077">
        <ele>2.6</ele>
        <time>2020-06-15T15:29:27Z</time>
      </trkpt>
      <trkpt lat="49.44062" lon="-1.20768">
        <ele>2.5</ele>
        <time>2020-06-15T15:29:28Z</time>
      </trkpt>
      <trkpt lat="49.44056" lon="-1.20766">
        <ele>2.5</ele>
        <time>2020-06-15T15:29:29Z</time>
      </trkpt>
      <trkpt lat="49.4405" lon="-1.20764">
        <ele>2.5</ele>
        <time>2020-06-15T15:29:30Z</time>
      </trkpt>
      <trkpt lat="49.44045" lon="-1.20761">
        <ele>2.5</ele>
        <time>2020-06-15T15:29:31Z</time>
      </trkpt>
      <trkpt lat="49.44039" lon="-1.20758">
        <ele>2.5</ele>
        <time>2020-06-15T15:29:32Z</time>
      </trkpt>
      <trkpt lat="49.44032" lon="-1.20755">
        <ele>2.5</ele>
        <time>2020-06-15T15:29:33Z</time>
      </trkpt>
      <trkpt lat="49.44027" lon="-1.20753">
        <ele>2.5</ele>
        <time>2020-06-15T15:29:34Z</time>
      </trkpt>
      <trkpt lat="49.44021" lon="-1.20749">
        <ele>2.5</ele>
        <time>2020-06-15T15:29:35Z</time>
      </trkpt>
      <trkpt lat="49.44015" lon="-1.20747">
        <ele>2.5</ele>
        <time>2020-06-15T15:29:36Z</time>
      </trkpt>
      <trkpt lat="49.44009" lon="-1.20743">
        <ele>2.4</ele>
        <time>2020-06-15T15:29:37Z</time>
      </trkpt>
      <trkpt lat="49.44003" lon="-1.20741">
        <ele>2.4</ele>
        <time>2020-06-15T15:29:38Z</time>
      </trkpt>
      <trkpt lat="49.43997" lon="-1.20739">
        <ele>2.3</ele>
        <time>2020-06-15T15:29:39Z</time>
      </trkpt>
      <trkpt lat="49.43991" lon="-1.20735">
        <ele>2.3</ele>
        <time>2020-06-15T15:29:40Z</time>
      </trkpt>
      <trkpt lat="49.43984" lon="-1.20732">
        <ele>2.2</ele>
        <time>2020-06-15T15:29:41Z</time>
      </trkpt>
      <trkpt lat="49.43978" lon="-1.2073">
        <ele>2.2</ele>
        <time>2020-06-15T15:29:42Z</time>
      </trkpt>
      <trkpt lat="49.43972" lon="-1.20727">
        <ele>2.2</ele>
        <time>2020-06-15T15:29:43Z</time>
      </trkpt>
      <trkpt lat="49.43967" lon="-1.20724">
        <ele>2.2</ele>
        <time>2020-06-15T15:29:44Z</time>
      </trkpt>
      <trkpt lat="49.43961" lon="-1.20721">
        <ele>2.1</ele>
        <time>2020-06-15T15:29:45Z</time>
      </trkpt>
      <trkpt lat="49.43955" lon="-1.20719">
        <ele>2.1</ele>
        <time>2020-06-15T15:29:46Z</time>
      </trkpt>
      <trkpt lat="49.43949" lon="-1.20717">
        <ele>2</ele>
        <time>2020-06-15T15:29:47Z</time>
      </trkpt>
      <trkpt lat="49.43943" lon="-1.20714">
        <ele>2</ele>
        <time>2020-06-15T15:29:48Z</time>
      </trkpt>
      <trkpt lat="49.43938" lon="-1.20712">
        <ele>1.8</ele>
        <time>2020-06-15T15:29:49Z</time>
      </trkpt>
      <trkpt lat="49.43931" lon="-1.20709">
        <ele>1.7</ele>
        <time>2020-06-15T15:29:50Z</time>
      </trkpt>
      <trkpt lat="49.43925" lon="-1.20706">
        <ele>1.6</ele>
        <time>2020-06-15T15:29:51Z</time>
      </trkpt>
      <trkpt lat="49.4392" lon="-1.20704">
        <ele>1.5</ele>
        <time>2020-06-15T15:29:52Z</time>
      </trkpt>
      <trkpt lat="49.43915" lon="-1.20702">
        <ele>1.4</ele>
        <time>2020-06-15T15:29:53Z</time>
      </trkpt>
      <trkpt lat="49.43909" lon="-1.20699">
        <ele>1.4</ele>
        <time>2020-06-15T15:29:54Z</time>
      </trkpt>
      <trkpt lat="49.43902" lon="-1.20695">
        <ele>1.4</ele>
        <time>2020-06-15T15:29:55Z</time>
      </trkpt>
      <trkpt lat="49.43896" lon="-1.20693">
        <ele>1.4</ele>
        <time>2020-06-15T15:29:56Z</time>
      </trkpt>
      <trkpt lat="49.4389" lon="-1.20691">
        <ele>1.4</ele>
        <time>2020-06-15T15:29:57Z</time>
      </trkpt>
      <trkpt lat="49.43883" lon="-1.20688">
        <ele>1.4</ele>
        <time>2020-06-15T15:29:58Z</time>
      </trkpt>
      <trkpt lat="49.43877" lon="-1.20685">
        <ele>1.4</ele>
        <time>2020-06-15T15:29:59Z</time>
      </trkpt>
      <trkpt lat="49.43871" lon="-1.20682">
        <ele>1.4</ele>
        <time>2020-06-15T15:30:00Z</time>
      </trkpt>
      <trkpt lat="49.43864" lon="-1.20678">
        <ele>1.5</ele>
        <time>2020-06-15T15:30:01Z</time>
      </trkpt>
      <trkpt lat="49.43858" lon="-1.20675">
        <ele>1.5</ele>
        <time>2020-06-15T15:30:02Z</time>
      </trkpt>
      <trkpt lat="49.43853" lon="-1.20673">
        <ele>1.5</ele>
        <time>2020-06-15T15:30:03Z</time>
      </trkpt>
      <trkpt lat="49.43847" lon="-1.2067">
        <ele>1.5</ele>
        <time>2020-06-15T15:30:04Z</time>
      </trkpt>
      <trkpt lat="49.43842" lon="-1.20667">
        <ele>1.5</ele>
        <time>2020-06-15T15:30:05Z</time>
      </trkpt>
      <trkpt lat="49.43836" lon="-1.20664">
        <ele>1.6</ele>
        <time>2020-06-15T15:30:06Z</time>
      </trkpt>
      <trkpt lat="49.4383" lon="-1.20661">
        <ele>1.6</ele>
        <time>2020-06-15T15:30:07Z</time>
      </trkpt>
      <trkpt lat="49.43825" lon="-1.20657">
        <ele>1.6</ele>
        <time>2020-06-15T15:30:08Z</time>
      </trkpt>
      <trkpt lat="49.43819" lon="-1.20654">
        <ele>1.6</ele>
        <time>2020-06-15T15:30:09Z</time>
      </trkpt>
      <trkpt lat="49.43813" lon="-1.2065">
        <ele>1.6</ele>
        <time>2020-06-15T15:30:10Z</time>
      </trkpt>
      <trkpt lat="49.43808" lon="-1.20647">
        <ele>1.6</ele>
        <time>2020-06-15T15:30:11Z</time>
      </trkpt>
      <trkpt lat="49.43802" lon="-1.20642">
        <ele>1.6</ele>
        <time>2020-06-15T15:30:12Z</time>
      </trkpt>
      <trkpt lat="49.43797" lon="-1.20637">
        <ele>1.6</ele>
        <time>2020-06-15T15:30:13Z</time>
      </trkpt>
      <trkpt lat="49.43793" lon="-1.20632">
        <ele>1.6</ele>
        <time>2020-06-15T15:30:14Z</time>
      </trkpt>
      <trkpt lat="49.43788" lon="-1.20628">
        <ele>1.6</ele>
        <time>2020-06-15T15:30:15Z</time>
      </trkpt>
      <trkpt lat="49.43783" lon="-1.20622">
        <ele>1.6</ele>
        <time>2020-06-15T15:30:16Z</time>
      </trkpt>
      <trkpt lat="49.43779" lon="-1.20616">
        <ele>1.6</ele>
        <time>2020-06-15T15:30:17Z</time>
      </trkpt>
      <trkpt lat="49.43774" lon="-1.20609">
        <ele>1.7</ele>
        <time>2020-06-15T15:30:18Z</time>
      </trkpt>
      <trkpt lat="49.4377" lon="-1.20602">
        <ele>1.7</ele>
        <time>2020-06-15T15:30:19Z</time>
      </trkpt>
      <trkpt lat="49.43765" lon="-1.20595">
        <ele>1.7</ele>
        <time>2020-06-15T15:30:20Z</time>
      </trkpt>
      <trkpt lat="49.43761" lon="-1.20588">
        <ele>1.7</ele>
        <time>2020-06-15T15:30:21Z</time>
      </trkpt>
      <trkpt lat="49.43757" lon="-1.20581">
        <ele>1.7</ele>
        <time>2020-06-15T15:30:22Z</time>
      </trkpt>
      <trkpt lat="49.43753" lon="-1.20574">
        <ele>1.7</ele>
        <time>2020-06-15T15:30:23Z</time>
      </trkpt>
      <trkpt lat="49.43749" lon="-1.20566">
        <ele>1.7</ele>
        <time>2020-06-15T15:30:24Z</time>
      </trkpt>
      <trkpt lat="49.43745" lon="-1.20558">
        <ele>1.6</ele>
        <time>2020-06-15T15:30:25Z</time>
      </trkpt>
      <trkpt lat="49.43741" lon="-1.20551">
        <ele>1.6</ele>
        <time>2020-06-15T15:30:26Z</time>
      </trkpt>
      <trkpt lat="49.43737" lon="-1.20544">
        <ele>1.6</ele>
        <time>2020-06-15T15:30:27Z</time>
      </trkpt>
      <trkpt lat="49.43734" lon="-1.20536">
        <ele>1.6</ele>
        <time>2020-06-15T15:30:28Z</time>
      </trkpt>
      <trkpt lat="49.43731" lon="-1.20528">
        <ele>1.6</ele>
        <time>2020-06-15T15:30:29Z</time>
      </trkpt>
      <trkpt lat="49.43727" lon="-1.2052">
        <ele>1.5</ele>
        <time>2020-06-15T15:30:30Z</time>
      </trkpt>
      <trkpt lat="49.43724" lon="-1.20513">
        <ele>1.5</ele>
        <time>2020-06-15T15:30:31Z</time>
      </trkpt>
      <trkpt lat="49.4372" lon="-1.20505">
        <ele>1.6</ele>
        <time>2020-06-15T15:30:32Z</time>
      </trkpt>
      <trkpt lat="49.43716" lon="-1.20497">
        <ele>1.6</ele>
        <time>2020-06-15T15:30:33Z</time>
      </trkpt>
      <trkpt lat="49.43711" lon="-1.20489">
        <ele>1.6</ele>
        <time>2020-06-15T15:30:34Z</time>
      </trkpt>
      <trkpt lat="49.43708" lon="-1.20483">
        <ele>1.6</ele>
        <time>2020-06-15T15:30:35Z</time>
      </trkpt>
      <trkpt lat="49.43703" lon="-1.20475">
        <ele>1.6</ele>
        <time>2020-06-15T15:30:36Z</time>
      </trkpt>
      <trkpt lat="49.437" lon="-1.20469">
        <ele>1.6</ele>
        <time>2020-06-15T15:30:37Z</time>
      </trkpt>
      <trkpt lat="49.43696" lon="-1.20461">
        <ele>1.6</ele>
        <time>2020-06-15T15:30:38Z</time>
      </trkpt>
      <trkpt lat="49.43692" lon="-1.20452">
        <ele>1.7</ele>
        <time>2020-06-15T15:30:39Z</time>
      </trkpt>
      <trkpt lat="49.43688" lon="-1.20445">
        <ele>1.8</ele>
        <time>2020-06-15T15:30:40Z</time>
      </trkpt>
      <trkpt lat="49.43685" lon="-1.20437">
        <ele>1.8</ele>
        <time>2020-06-15T15:30:41Z</time>
      </trkpt>
      <trkpt lat="49.43682" lon="-1.20428">
        <ele>1.9</ele>
        <time>2020-06-15T15:30:42Z</time>
      </trkpt>
      <trkpt lat="49.4368" lon="-1.2042">
        <ele>1.9</ele>
        <time>2020-06-15T15:30:43Z</time>
      </trkpt>
      <trkpt lat="49.43678" lon="-1.20411">
        <ele>2</ele>
        <time>2020-06-15T15:30:44Z</time>
      </trkpt>
      <trkpt lat="49.43676" lon="-1.20402">
        <ele>2</ele>
        <time>2020-06-15T15:30:45Z</time>
      </trkpt>
      <trkpt lat="49.43674" lon="-1.20393">
        <ele>2.1</ele>
        <time>2020-06-15T15:30:46Z</time>
      </trkpt>
      <trkpt lat="49.43672" lon="-1.20384">
        <ele>2.1</ele>
        <time>2020-06-15T15:30:47Z</time>
      </trkpt>
      <trkpt lat="49.4367" lon="-1.20377">
        <ele>2.2</ele>
        <time>2020-06-15T15:30:48Z</time>
      </trkpt>
      <trkpt lat="49.43667" lon="-1.20369">
        <ele>2.2</ele>
        <time>2020-06-15T15:30:49Z</time>
      </trkpt>
      <trkpt lat="49.43666" lon="-1.2036">
        <ele>2.2</ele>
        <time>2020-06-15T15:30:50Z</time>
      </trkpt>
      <trkpt lat="49.43664" lon="-1.20351">
        <ele>2.2</ele>
        <time>2020-06-15T15:30:51Z</time>
      </trkpt>
      <trkpt lat="49.43662" lon="-1.20343">
        <ele>2.2</ele>
        <time>2020-06-15T15:30:52Z</time>
      </trkpt>
      <trkpt lat="49.4366" lon="-1.20334">
        <ele>2.2</ele>
        <time>2020-06-15T15:30:53Z</time>
      </trkpt>
      <trkpt lat="49.43658" lon="-1.20321">
        <ele>2.2</ele>
        <time>2020-06-15T15:30:54Z</time>
      </trkpt>
      <trkpt lat="49.43655" lon="-1.20311">
        <ele>2.2</ele>
        <time>2020-06-15T15:30:55Z</time>
      </trkpt>
      <trkpt lat="49.43654" lon="-1.20302">
        <ele>2.2</ele>
        <time>2020-06-15T15:30:56Z</time>
      </trkpt>
      <trkpt lat="49.43652" lon="-1.20293">
        <ele>2.3</ele>
        <time>2020-06-15T15:30:57Z</time>
      </trkpt>
      <trkpt lat="49.4365" lon="-1.20286">
        <ele>2.3</ele>
        <time>2020-06-15T15:30:58Z</time>
      </trkpt>
      <trkpt lat="49.43648" lon="-1.20278">
        <ele>2.3</ele>
        <time>2020-06-15T15:30:59Z</time>
      </trkpt>
      <trkpt lat="49.43645" lon="-1.20271">
        <ele>2.3</ele>
        <time>2020-06-15T15:31:00Z</time>
      </trkpt>
      <trkpt lat="49.43642" lon="-1.20263">
        <ele>2.4</ele>
        <time>2020-06-15T15:31:01Z</time>
      </trkpt>
      <trkpt lat="49.43638" lon="-1.20255">
        <ele>2.4</ele>
        <time>2020-06-15T15:31:02Z</time>
      </trkpt>
      <trkpt lat="49.43635" lon="-1.20246">
        <ele>2.3</ele>
        <time>2020-06-15T15:31:03Z</time>
      </trkpt>
      <trkpt lat="49.43632" lon="-1.20239">
        <ele>2.3</ele>
        <time>2020-06-15T15:31:04Z</time>
      </trkpt>
      <trkpt lat="49.43628" lon="-1.20234">
        <ele>2.3</ele>
        <time>2020-06-15T15:31:05Z</time>
      </trkpt>
      <trkpt lat="49.43624" lon="-1.20226">
        <ele>2.3</ele>
        <time>2020-06-15T15:31:06Z</time>
      </trkpt>
      <trkpt lat="49.4362" lon="-1.2022">
        <ele>2.3</ele>
        <time>2020-06-15T15:31:07Z</time>
      </trkpt>
      <trkpt lat="49.43615" lon="-1.20214">
        <ele>2.3</ele>
        <time>2020-06-15T15:31:08Z</time>
      </trkpt>
      <trkpt lat="49.43609" lon="-1.20208">
        <ele>2.2</ele>
        <time>2020-06-15T15:31:09Z</time>
      </trkpt>
      <trkpt lat="49.43604" lon="-1.20203">
        <ele>2.2</ele>
        <time>2020-06-15T15:31:10Z</time>
      </trkpt>
      <trkpt lat="49.43599" lon="-1.20198">
        <ele>2.2</ele>
        <time>2020-06-15T15:31:11Z</time>
      </trkpt>
      <trkpt lat="49.43593" lon="-1.20193">
        <ele>2.2</ele>
        <time>2020-06-15T15:31:12Z</time>
      </trkpt>
      <trkpt lat="49.43588" lon="-1.20187">
        <ele>2.2</ele>
        <time>2020-06-15T15:31:13Z</time>
      </trkpt>
      <trkpt lat="49.43583" lon="-1.20183">
        <ele>2.2</ele>
        <time>2020-06-15T15:31:14Z</time>
      </trkpt>
      <trkpt lat="49.43578" lon="-1.20177">
        <ele>2.2</ele>
        <time>2020-06-15T15:31:15Z</time>
      </trkpt>
      <trkpt lat="49.43573" lon="-1.20171">
        <ele>2.3</ele>
        <time>2020-06-15T15:31:16Z</time>
      </trkpt>
      <trkpt lat="49.43567" lon="-1.20166">
        <ele>2.3</ele>
        <time>2020-06-15T15:31:17Z</time>
      </trkpt>
      <trkpt lat="49.43561" lon="-1.20161">
        <ele>2.3</ele>
        <time>2020-06-15T15:31:18Z</time>
      </trkpt>
      <trkpt lat="49.43556" lon="-1.20156">
        <ele>2.3</ele>
        <time>2020-06-15T15:31:19Z</time>
      </trkpt>
      <trkpt lat="49.43551" lon="-1.20151">
        <ele>2.3</ele>
        <time>2020-06-15T15:31:20Z</time>
      </trkpt>
      <trkpt lat="49.43546" lon="-1.20145">
        <ele>2.3</ele>
        <time>2020-06-15T15:31:21Z</time>
      </trkpt>
      <trkpt lat="49.43541" lon="-1.20139">
        <ele>2.3</ele>
        <time>2020-06-15T15:31:22Z</time>
      </trkpt>
      <trkpt lat="49.43536" lon="-1.20133">
        <ele>2.3</ele>
        <time>2020-06-15T15:31:23Z</time>
      </trkpt>
      <trkpt lat="49.43531" lon="-1.20127">
        <ele>2.3</ele>
        <time>2020-06-15T15:31:24Z</time>
      </trkpt>
      <trkpt lat="49.43527" lon="-1.2012">
        <ele>2.3</ele>
        <time>2020-06-15T15:31:25Z</time>
      </trkpt>
      <trkpt lat="49.43522" lon="-1.20113">
        <ele>2.3</ele>
        <time>2020-06-15T15:31:26Z</time>
      </trkpt>
      <trkpt lat="49.43518" lon="-1.20106">
        <ele>2.3</ele>
        <time>2020-06-15T15:31:27Z</time>
      </trkpt>
      <trkpt lat="49.43514" lon="-1.20098">
        <ele>2.3</ele>
        <time>2020-06-15T15:31:28Z</time>
      </trkpt>
      <trkpt lat="49.43511" lon="-1.20089">
        <ele>2.3</ele>
        <time>2020-06-15T15:31:29Z</time>
      </trkpt>
      <trkpt lat="49.43507" lon="-1.20081">
        <ele>2.3</ele>
        <time>2020-06-15T15:31:30Z</time>
      </trkpt>
      <trkpt lat="49.43504" lon="-1.20072">
        <ele>2.3</ele>
        <time>2020-06-15T15:31:31Z</time>
      </trkpt>
      <trkpt lat="49.43501" lon="-1.20063">
        <ele>2.3</ele>
        <time>2020-06-15T15:31:32Z</time>
      </trkpt>
      <trkpt lat="49.43498" lon="-1.20054">
        <ele>2.3</ele>
        <time>2020-06-15T15:31:33Z</time>
      </trkpt>
      <trkpt lat="49.43495" lon="-1.20046">
        <ele>2.4</ele>
        <time>2020-06-15T15:31:34Z</time>
      </trkpt>
      <trkpt lat="49.43492" lon="-1.20039">
        <ele>2.3</ele>
        <time>2020-06-15T15:31:35Z</time>
      </trkpt>
      <trkpt lat="49.43489" lon="-1.20029">
        <ele>2.2</ele>
        <time>2020-06-15T15:31:36Z</time>
      </trkpt>
      <trkpt lat="49.43487" lon="-1.2002">
        <ele>2.1</ele>
        <time>2020-06-15T15:31:37Z</time>
      </trkpt>
      <trkpt lat="49.43483" lon="-1.20012">
        <ele>2</ele>
        <time>2020-06-15T15:31:38Z</time>
      </trkpt>
      <trkpt lat="49.4348" lon="-1.20004">
        <ele>2</ele>
        <time>2020-06-15T15:31:39Z</time>
      </trkpt>
      <trkpt lat="49.43476" lon="-1.19995">
        <ele>2</ele>
        <time>2020-06-15T15:31:40Z</time>
      </trkpt>
      <trkpt lat="49.43473" lon="-1.19987">
        <ele>2.1</ele>
        <time>2020-06-15T15:31:41Z</time>
      </trkpt>
      <trkpt lat="49.43469" lon="-1.1998">
        <ele>2.1</ele>
        <time>2020-06-15T15:31:42Z</time>
      </trkpt>
      <trkpt lat="49.43465" lon="-1.19972">
        <ele>2.1</ele>
        <time>2020-06-15T15:31:43Z</time>
      </trkpt>
      <trkpt lat="49.43461" lon="-1.19965">
        <ele>2.2</ele>
        <time>2020-06-15T15:31:44Z</time>
      </trkpt>
      <trkpt lat="49.43457" lon="-1.19959">
        <ele>2.2</ele>
        <time>2020-06-15T15:31:45Z</time>
      </trkpt>
      <trkpt lat="49.43454" lon="-1.19952">
        <ele>2.2</ele>
        <time>2020-06-15T15:31:46Z</time>
      </trkpt>
      <trkpt lat="49.43449" lon="-1.19943">
        <ele>2.3</ele>
        <time>2020-06-15T15:31:47Z</time>
      </trkpt>
      <trkpt lat="49.43444" lon="-1.19935">
        <ele>2.3</ele>
        <time>2020-06-15T15:31:48Z</time>
      </trkpt>
      <trkpt lat="49.4344" lon="-1.19927">
        <ele>2.3</ele>
        <time>2020-06-15T15:31:49Z</time>
      </trkpt>
      <trkpt lat="49.43436" lon="-1.19919">
        <ele>2.3</ele>
        <time>2020-06-15T15:31:50Z</time>
      </trkpt>
      <trkpt lat="49.43431" lon="-1.19912">
        <ele>2.3</ele>
        <time>2020-06-15T15:31:51Z</time>
      </trkpt>
      <trkpt lat="49.43428" lon="-1.19906">
        <ele>2.3</ele>
        <time>2020-06-15T15:31:52Z</time>
      </trkpt>
      <trkpt lat="49.43425" lon="-1.19901">
        <ele>2.3</ele>
        <time>2020-06-15T15:31:53Z</time>
      </trkpt>
      <trkpt lat="49.4342" lon="-1.19896">
        <ele>2.3</ele>
        <time>2020-06-15T15:31:54Z</time>
      </trkpt>
      <trkpt lat="49.43415" lon="-1.19889">
        <ele>2.3</ele>
        <time>2020-06-15T15:31:55Z</time>
      </trkpt>
      <trkpt lat="49.4341" lon="-1.19884">
        <ele>2.3</ele>
        <time>2020-06-15T15:31:56Z</time>
      </trkpt>
      <trkpt lat="49.43405" lon="-1.19877">
        <ele>2.3</ele>
        <time>2020-06-15T15:31:57Z</time>
      </trkpt>
      <trkpt lat="49.43401" lon="-1.19871">
        <ele>2.2</ele>
        <time>2020-06-15T15:31:58Z</time>
      </trkpt>
      <trkpt lat="49.43396" lon="-1.19868">
        <ele>2.2</ele>
        <time>2020-06-15T15:31:59Z</time>
      </trkpt>
      <trkpt lat="49.43391" lon="-1.19862">
        <ele>2.2</ele>
        <time>2020-06-15T15:32:00Z</time>
      </trkpt>
      <trkpt lat="49.43386" lon="-1.19858">
        <ele>2.3</ele>
        <time>2020-06-15T15:32:01Z</time>
      </trkpt>
      <trkpt lat="49.43382" lon="-1.19852">
        <ele>2.3</ele>
        <time>2020-06-15T15:32:02Z</time>
      </trkpt>
      <trkpt lat="49.43377" lon="-1.19845">
        <ele>2.3</ele>
        <time>2020-06-15T15:32:03Z</time>
      </trkpt>
      <trkpt lat="49.43373" lon="-1.19839">
        <ele>2.3</ele>
        <time>2020-06-15T15:32:04Z</time>
      </trkpt>
      <trkpt lat="49.43368" lon="-1.19834">
        <ele>2.3</ele>
        <time>2020-06-15T15:32:05Z</time>
      </trkpt>
      <trkpt lat="49.43363" lon="-1.19828">
        <ele>2.3</ele>
        <time>2020-06-15T15:32:06Z</time>
      </trkpt>
      <trkpt lat="49.43359" lon="-1.19823">
        <ele>2.4</ele>
        <time>2020-06-15T15:32:07Z</time>
      </trkpt>
      <trkpt lat="49.43353" lon="-1.19819">
        <ele>2.4</ele>
        <time>2020-06-15T15:32:08Z</time>
      </trkpt>
      <trkpt lat="49.43348" lon="-1.19814">
        <ele>2.4</ele>
        <time>2020-06-15T15:32:09Z</time>
      </trkpt>
      <trkpt lat="49.43342" lon="-1.1981">
        <ele>2.4</ele>
        <time>2020-06-15T15:32:10Z</time>
      </trkpt>
      <trkpt lat="49.43336" lon="-1.19805">
        <ele>2.4</ele>
        <time>2020-06-15T15:32:11Z</time>
      </trkpt>
      <trkpt lat="49.4333" lon="-1.19802">
        <ele>2.4</ele>
        <time>2020-06-15T15:32:12Z</time>
      </trkpt>
      <trkpt lat="49.43323" lon="-1.19798">
        <ele>2.3</ele>
        <time>2020-06-15T15:32:13Z</time>
      </trkpt>
      <trkpt lat="49.43317" lon="-1.19796">
        <ele>2.3</ele>
        <time>2020-06-15T15:32:14Z</time>
      </trkpt>
      <trkpt lat="49.43311" lon="-1.19793">
        <ele>2.2</ele>
        <time>2020-06-15T15:32:15Z</time>
      </trkpt>
      <trkpt lat="49.43306" lon="-1.19789">
        <ele>2.2</ele>
        <time>2020-06-15T15:32:16Z</time>
      </trkpt>
      <trkpt lat="49.433" lon="-1.19785">
        <ele>2.2</ele>
        <time>2020-06-15T15:32:17Z</time>
      </trkpt>
      <trkpt lat="49.43294" lon="-1.19781">
        <ele>2.2</ele>
        <time>2020-06-15T15:32:18Z</time>
      </trkpt>
      <trkpt lat="49.43288" lon="-1.19779">
        <ele>2.1</ele>
        <time>2020-06-15T15:32:19Z</time>
      </trkpt>
      <trkpt lat="49.43282" lon="-1.19775">
        <ele>2.1</ele>
        <time>2020-06-15T15:32:20Z</time>
      </trkpt>
      <trkpt lat="49.43276" lon="-1.19773">
        <ele>2.1</ele>
        <time>2020-06-15T15:32:21Z</time>
      </trkpt>
      <trkpt lat="49.43269" lon="-1.19769">
        <ele>2.1</ele>
        <time>2020-06-15T15:32:22Z</time>
      </trkpt>
      <trkpt lat="49.43263" lon="-1.19767">
        <ele>2.2</ele>
        <time>2020-06-15T15:32:23Z</time>
      </trkpt>
      <trkpt lat="49.43257" lon="-1.19764">
        <ele>2.2</ele>
        <time>2020-06-15T15:32:24Z</time>
      </trkpt>
      <trkpt lat="49.4325" lon="-1.19759">
        <ele>2.2</ele>
        <time>2020-06-15T15:32:25Z</time>
      </trkpt>
      <trkpt lat="49.43245" lon="-1.19756">
        <ele>2.3</ele>
        <time>2020-06-15T15:32:26Z</time>
      </trkpt>
      <trkpt lat="49.43239" lon="-1.19751">
        <ele>2.3</ele>
        <time>2020-06-15T15:32:27Z</time>
      </trkpt>
      <trkpt lat="49.43233" lon="-1.19747">
        <ele>2.3</ele>
        <time>2020-06-15T15:32:28Z</time>
      </trkpt>
      <trkpt lat="49.43228" lon="-1.19742">
        <ele>2.4</ele>
        <time>2020-06-15T15:32:29Z</time>
      </trkpt>
      <trkpt lat="49.43223" lon="-1.19738">
        <ele>2.4</ele>
        <time>2020-06-15T15:32:30Z</time>
      </trkpt>
      <trkpt lat="49.43217" lon="-1.19733">
        <ele>2.4</ele>
        <time>2020-06-15T15:32:31Z</time>
      </trkpt>
      <trkpt lat="49.43212" lon="-1.19727">
        <ele>2.4</ele>
        <time>2020-06-15T15:32:32Z</time>
      </trkpt>
      <trkpt lat="49.43207" lon="-1.1972">
        <ele>2.4</ele>
        <time>2020-06-15T15:32:33Z</time>
      </trkpt>
      <trkpt lat="49.43202" lon="-1.19713">
        <ele>2.4</ele>
        <time>2020-06-15T15:32:34Z</time>
      </trkpt>
      <trkpt lat="49.43197" lon="-1.19708">
        <ele>2.4</ele>
        <time>2020-06-15T15:32:35Z</time>
      </trkpt>
      <trkpt lat="49.43193" lon="-1.19703">
        <ele>2.5</ele>
        <time>2020-06-15T15:32:36Z</time>
      </trkpt>
      <trkpt lat="49.43189" lon="-1.19697">
        <ele>2.5</ele>
        <time>2020-06-15T15:32:37Z</time>
      </trkpt>
      <trkpt lat="49.43184" lon="-1.19691">
        <ele>2.5</ele>
        <time>2020-06-15T15:32:38Z</time>
      </trkpt>
      <trkpt lat="49.43181" lon="-1.19686">
        <ele>2.5</ele>
        <time>2020-06-15T15:32:39Z</time>
      </trkpt>
      <trkpt lat="49.43177" lon="-1.1968">
        <ele>2.5</ele>
        <time>2020-06-15T15:32:40Z</time>
      </trkpt>
      <trkpt lat="49.43172" lon="-1.19673">
        <ele>2.6</ele>
        <time>2020-06-15T15:32:41Z</time>
      </trkpt>
      <trkpt lat="49.43168" lon="-1.19669">
        <ele>2.6</ele>
        <time>2020-06-15T15:32:42Z</time>
      </trkpt>
      <trkpt lat="49.43163" lon="-1.19663">
        <ele>2.7</ele>
        <time>2020-06-15T15:32:43Z</time>
      </trkpt>
      <trkpt lat="49.43158" lon="-1.19657">
        <ele>2.7</ele>
        <time>2020-06-15T15:32:44Z</time>
      </trkpt>
      <trkpt lat="49.43154" lon="-1.19652">
        <ele>2.7</ele>
        <time>2020-06-15T15:32:45Z</time>
      </trkpt>
      <trkpt lat="49.43149" lon="-1.19646">
        <ele>2.7</ele>
        <time>2020-06-15T15:32:46Z</time>
      </trkpt>
      <trkpt lat="49.43144" lon="-1.1964">
        <ele>2.7</ele>
        <time>2020-06-15T15:32:47Z</time>
      </trkpt>
      <trkpt lat="49.43138" lon="-1.19633">
        <ele>2.7</ele>
        <time>2020-06-15T15:32:48Z</time>
      </trkpt>
      <trkpt lat="49.43132" lon="-1.19626">
        <ele>2.7</ele>
        <time>2020-06-15T15:32:49Z</time>
      </trkpt>
      <trkpt lat="49.43127" lon="-1.19619">
        <ele>2.7</ele>
        <time>2020-06-15T15:32:50Z</time>
      </trkpt>
      <trkpt lat="49.43123" lon="-1.19614">
        <ele>2.8</ele>
        <time>2020-06-15T15:32:51Z</time>
      </trkpt>
      <trkpt lat="49.43118" lon="-1.19608">
        <ele>2.8</ele>
        <time>2020-06-15T15:32:52Z</time>
      </trkpt>
      <trkpt lat="49.43112" lon="-1.196">
        <ele>2.9</ele>
        <time>2020-06-15T15:32:53Z</time>
      </trkpt>
      <trkpt lat="49.43107" lon="-1.19593">
        <ele>3</ele>
        <time>2020-06-15T15:32:54Z</time>
      </trkpt>
      <trkpt lat="49.43102" lon="-1.19586">
        <ele>3</ele>
        <time>2020-06-15T15:32:55Z</time>
      </trkpt>
      <trkpt lat="49.43097" lon="-1.19581">
        <ele>3.1</ele>
        <time>2020-06-15T15:32:56Z</time>
      </trkpt>
      <trkpt lat="49.43092" lon="-1.19577">
        <ele>3.1</ele>
        <time>2020-06-15T15:32:57Z</time>
      </trkpt>
      <trkpt lat="49.43088" lon="-1.1957">
        <ele>3.1</ele>
        <time>2020-06-15T15:32:58Z</time>
      </trkpt>
      <trkpt lat="49.43083" lon="-1.19564">
        <ele>3.1</ele>
        <time>2020-06-15T15:32:59Z</time>
      </trkpt>
      <trkpt lat="49.43079" lon="-1.19559">
        <ele>3.1</ele>
        <time>2020-06-15T15:33:00Z</time>
      </trkpt>
      <trkpt lat="49.43074" lon="-1.19553">
        <ele>3</ele>
        <time>2020-06-15T15:33:01Z</time>
      </trkpt>
      <trkpt lat="49.4307" lon="-1.19549">
        <ele>3</ele>
        <time>2020-06-15T15:33:02Z</time>
      </trkpt>
      <trkpt lat="49.43065" lon="-1.19543">
        <ele>3</ele>
        <time>2020-06-15T15:33:03Z</time>
      </trkpt>
      <trkpt lat="49.4306" lon="-1.19537">
        <ele>3</ele>
        <time>2020-06-15T15:33:04Z</time>
      </trkpt>
      <trkpt lat="49.43055" lon="-1.19531">
        <ele>3</ele>
        <time>2020-06-15T15:33:05Z</time>
      </trkpt>
      <trkpt lat="49.4305" lon="-1.19525">
        <ele>2.9</ele>
        <time>2020-06-15T15:33:06Z</time>
      </trkpt>
      <trkpt lat="49.43045" lon="-1.19518">
        <ele>2.9</ele>
        <time>2020-06-15T15:33:07Z</time>
      </trkpt>
      <trkpt lat="49.43039" lon="-1.19511">
        <ele>2.8</ele>
        <time>2020-06-15T15:33:08Z</time>
      </trkpt>
      <trkpt lat="49.43035" lon="-1.19507">
        <ele>2.8</ele>
        <time>2020-06-15T15:33:09Z</time>
      </trkpt>
      <trkpt lat="49.4303" lon="-1.195">
        <ele>2.7</ele>
        <time>2020-06-15T15:33:10Z</time>
      </trkpt>
      <trkpt lat="49.43025" lon="-1.19494">
        <ele>2.6</ele>
        <time>2020-06-15T15:33:11Z</time>
      </trkpt>
      <trkpt lat="49.4302" lon="-1.19487">
        <ele>2.6</ele>
        <time>2020-06-15T15:33:12Z</time>
      </trkpt>
      <trkpt lat="49.43015" lon="-1.19481">
        <ele>2.6</ele>
        <time>2020-06-15T15:33:13Z</time>
      </trkpt>
      <trkpt lat="49.4301" lon="-1.19475">
        <ele>2.6</ele>
        <time>2020-06-15T15:33:14Z</time>
      </trkpt>
      <trkpt lat="49.43004" lon="-1.19469">
        <ele>2.6</ele>
        <time>2020-06-15T15:33:15Z</time>
      </trkpt>
      <trkpt lat="49.43" lon="-1.19461">
        <ele>2.6</ele>
        <time>2020-06-15T15:33:16Z</time>
      </trkpt>
      <trkpt lat="49.42994" lon="-1.19456">
        <ele>2.7</ele>
        <time>2020-06-15T15:33:17Z</time>
      </trkpt>
      <trkpt lat="49.4299" lon="-1.1945">
        <ele>2.8</ele>
        <time>2020-06-15T15:33:18Z</time>
      </trkpt>
      <trkpt lat="49.42984" lon="-1.19444">
        <ele>2.8</ele>
        <time>2020-06-15T15:33:19Z</time>
      </trkpt>
      <trkpt lat="49.4298" lon="-1.19437">
        <ele>2.9</ele>
        <time>2020-06-15T15:33:20Z</time>
      </trkpt>
      <trkpt lat="49.42975" lon="-1.19432">
        <ele>2.9</ele>
        <time>2020-06-15T15:33:21Z</time>
      </trkpt>
      <trkpt lat="49.42971" lon="-1.19425">
        <ele>2.9</ele>
        <time>2020-06-15T15:33:22Z</time>
      </trkpt>
      <trkpt lat="49.42967" lon="-1.19419">
        <ele>2.9</ele>
        <time>2020-06-15T15:33:23Z</time>
      </trkpt>
      <trkpt lat="49.42964" lon="-1.19413">
        <ele>3</ele>
        <time>2020-06-15T15:33:24Z</time>
      </trkpt>
      <trkpt lat="49.4296" lon="-1.19408">
        <ele>3</ele>
        <time>2020-06-15T15:33:25Z</time>
      </trkpt>
      <trkpt lat="49.42956" lon="-1.19402">
        <ele>3</ele>
        <time>2020-06-15T15:33:26Z</time>
      </trkpt>
      <trkpt lat="49.42952" lon="-1.19394">
        <ele>3</ele>
        <time>2020-06-15T15:33:27Z</time>
      </trkpt>
      <trkpt lat="49.42948" lon="-1.19386">
        <ele>3</ele>
        <time>2020-06-15T15:33:28Z</time>
      </trkpt>
      <trkpt lat="49.42944" lon="-1.19378">
        <ele>3</ele>
        <time>2020-06-15T15:33:29Z</time>
      </trkpt>
      <trkpt lat="49.42941" lon="-1.1937">
        <ele>3</ele>
        <time>2020-06-15T15:33:30Z</time>
      </trkpt>
      <trkpt lat="49.42938" lon="-1.1936">
        <ele>3</ele>
        <time>2020-06-15T15:33:31Z</time>
      </trkpt>
      <trkpt lat="49.42936" lon="-1.19351">
        <ele>2.9</ele>
        <time>2020-06-15T15:33:32Z</time>
      </trkpt>
      <trkpt lat="49.42934" lon="-1.19341">
        <ele>2.9</ele>
        <time>2020-06-15T15:33:33Z</time>
      </trkpt>
      <trkpt lat="49.42932" lon="-1.19331">
        <ele>2.9</ele>
        <time>2020-06-15T15:33:34Z</time>
      </trkpt>
      <trkpt lat="49.4293" lon="-1.19322">
        <ele>2.9</ele>
        <time>2020-06-15T15:33:35Z</time>
      </trkpt>
      <trkpt lat="49.42929" lon="-1.19314">
        <ele>2.9</ele>
        <time>2020-06-15T15:33:36Z</time>
      </trkpt>
      <trkpt lat="49.42927" lon="-1.19304">
        <ele>2.9</ele>
        <time>2020-06-15T15:33:37Z</time>
      </trkpt>
      <trkpt lat="49.42926" lon="-1.19295">
        <ele>2.9</ele>
        <time>2020-06-15T15:33:38Z</time>
      </trkpt>
      <trkpt lat="49.42924" lon="-1.19286">
        <ele>2.9</ele>
        <time>2020-06-15T15:33:39Z</time>
      </trkpt>
      <trkpt lat="49.42923" lon="-1.19277">
        <ele>2.9</ele>
        <time>2020-06-15T15:33:40Z</time>
      </trkpt>
      <trkpt lat="49.42922" lon="-1.19268">
        <ele>2.8</ele>
        <time>2020-06-15T15:33:41Z</time>
      </trkpt>
      <trkpt lat="49.42921" lon="-1.19259">
        <ele>2.8</ele>
        <time>2020-06-15T15:33:42Z</time>
      </trkpt>
      <trkpt lat="49.42919" lon="-1.1925">
        <ele>2.7</ele>
        <time>2020-06-15T15:33:43Z</time>
      </trkpt>
      <trkpt lat="49.42917" lon="-1.19242">
        <ele>2.7</ele>
        <time>2020-06-15T15:33:44Z</time>
      </trkpt>
      <trkpt lat="49.42915" lon="-1.19234">
        <ele>2.7</ele>
        <time>2020-06-15T15:33:45Z</time>
      </trkpt>
      <trkpt lat="49.42913" lon="-1.19225">
        <ele>2.7</ele>
        <time>2020-06-15T15:33:46Z</time>
      </trkpt>
      <trkpt lat="49.42911" lon="-1.19214">
        <ele>2.6</ele>
        <time>2020-06-15T15:33:47Z</time>
      </trkpt>
      <trkpt lat="49.42909" lon="-1.19204">
        <ele>2.6</ele>
        <time>2020-06-15T15:33:48Z</time>
      </trkpt>
      <trkpt lat="49.42908" lon="-1.19196">
        <ele>2.6</ele>
        <time>2020-06-15T15:33:49Z</time>
      </trkpt>
      <trkpt lat="49.42906" lon="-1.19186">
        <ele>2.6</ele>
        <time>2020-06-15T15:33:50Z</time>
      </trkpt>
      <trkpt lat="49.42905" lon="-1.19177">
        <ele>2.6</ele>
        <time>2020-06-15T15:33:51Z</time>
      </trkpt>
      <trkpt lat="49.42903" lon="-1.19167">
        <ele>2.6</ele>
        <time>2020-06-15T15:33:52Z</time>
      </trkpt>
      <trkpt lat="49.42901" lon="-1.19158">
        <ele>2.6</ele>
        <time>2020-06-15T15:33:53Z</time>
      </trkpt>
      <trkpt lat="49.42899" lon="-1.19148">
        <ele>2.6</ele>
        <time>2020-06-15T15:33:54Z</time>
      </trkpt>
      <trkpt lat="49.42897" lon="-1.19138">
        <ele>2.6</ele>
        <time>2020-06-15T15:33:55Z</time>
      </trkpt>
      <trkpt lat="49.42895" lon="-1.1913">
        <ele>2.6</ele>
        <time>2020-06-15T15:33:56Z</time>
      </trkpt>
      <trkpt lat="49.42893" lon="-1.19121">
        <ele>2.6</ele>
        <time>2020-06-15T15:33:57Z</time>
      </trkpt>
      <trkpt lat="49.42891" lon="-1.19112">
        <ele>2.7</ele>
        <time>2020-06-15T15:33:58Z</time>
      </trkpt>
      <trkpt lat="49.42889" lon="-1.19103">
        <ele>2.7</ele>
        <time>2020-06-15T15:33:59Z</time>
      </trkpt>
      <trkpt lat="49.42888" lon="-1.19094">
        <ele>2.7</ele>
        <time>2020-06-15T15:34:00Z</time>
      </trkpt>
      <trkpt lat="49.42886" lon="-1.19087">
        <ele>2.7</ele>
        <time>2020-06-15T15:34:01Z</time>
      </trkpt>
      <trkpt lat="49.42883" lon="-1.19077">
        <ele>2.6</ele>
        <time>2020-06-15T15:34:02Z</time>
      </trkpt>
      <trkpt lat="49.42881" lon="-1.1907">
        <ele>2.5</ele>
        <time>2020-06-15T15:34:03Z</time>
      </trkpt>
      <trkpt lat="49.4288" lon="-1.19062">
        <ele>2.4</ele>
        <time>2020-06-15T15:34:04Z</time>
      </trkpt>
      <trkpt lat="49.42878" lon="-1.19053">
        <ele>2.4</ele>
        <time>2020-06-15T15:34:05Z</time>
      </trkpt>
      <trkpt lat="49.42876" lon="-1.19046">
        <ele>2.4</ele>
        <time>2020-06-15T15:34:06Z</time>
      </trkpt>
      <trkpt lat="49.42874" lon="-1.19036">
        <ele>2.3</ele>
        <time>2020-06-15T15:34:07Z</time>
      </trkpt>
      <trkpt lat="49.42873" lon="-1.19028">
        <ele>2.3</ele>
        <time>2020-06-15T15:34:08Z</time>
      </trkpt>
      <trkpt lat="49.42871" lon="-1.19019">
        <ele>2.3</ele>
        <time>2020-06-15T15:34:09Z</time>
      </trkpt>
      <trkpt lat="49.42869" lon="-1.1901">
        <ele>2.3</ele>
        <time>2020-06-15T15:34:10Z</time>
      </trkpt>
      <trkpt lat="49.42867" lon="-1.19001">
        <ele>2.3</ele>
        <time>2020-06-15T15:34:11Z</time>
      </trkpt>
      <trkpt lat="49.42865" lon="-1.18992">
        <ele>2.4</ele>
        <time>2020-06-15T15:34:12Z</time>
      </trkpt>
      <trkpt lat="49.42863" lon="-1.18983">
        <ele>2.4</ele>
        <time>2020-06-15T15:34:13Z</time>
      </trkpt>
      <trkpt lat="49.4286" lon="-1.18974">
        <ele>2.4</ele>
        <time>2020-06-15T15:34:14Z</time>
      </trkpt>
      <trkpt lat="49.42858" lon="-1.18965">
        <ele>2.5</ele>
        <time>2020-06-15T15:34:15Z</time>
      </trkpt>
      <trkpt lat="49.42855" lon="-1.18956">
        <ele>2.5</ele>
        <time>2020-06-15T15:34:16Z</time>
      </trkpt>
      <trkpt lat="49.42851" lon="-1.18948">
        <ele>2.6</ele>
        <time>2020-06-15T15:34:17Z</time>
      </trkpt>
      <trkpt lat="49.42848" lon="-1.1894">
        <ele>2.6</ele>
        <time>2020-06-15T15:34:18Z</time>
      </trkpt>
      <trkpt lat="49.42845" lon="-1.18931">
        <ele>2.7</ele>
        <time>2020-06-15T15:34:19Z</time>
      </trkpt>
      <trkpt lat="49.42842" lon="-1.18924">
        <ele>2.8</ele>
        <time>2020-06-15T15:34:20Z</time>
      </trkpt>
      <trkpt lat="49.4284" lon="-1.18916">
        <ele>2.9</ele>
        <time>2020-06-15T15:34:21Z</time>
      </trkpt>
      <trkpt lat="49.42837" lon="-1.18909">
        <ele>2.9</ele>
        <time>2020-06-15T15:34:22Z</time>
      </trkpt>
      <trkpt lat="49.42834" lon="-1.18902">
        <ele>3</ele>
        <time>2020-06-15T15:34:23Z</time>
      </trkpt>
      <trkpt lat="49.4283" lon="-1.18896">
        <ele>3.1</ele>
        <time>2020-06-15T15:34:24Z</time>
      </trkpt>
      <trkpt lat="49.42827" lon="-1.1889">
        <ele>3.2</ele>
        <time>2020-06-15T15:34:25Z</time>
      </trkpt>
      <trkpt lat="49.42824" lon="-1.18884">
        <ele>3.2</ele>
        <time>2020-06-15T15:34:26Z</time>
      </trkpt>
      <trkpt lat="49.4282" lon="-1.18878">
        <ele>3.2</ele>
        <time>2020-06-15T15:34:27Z</time>
      </trkpt>
      <trkpt lat="49.42816" lon="-1.18872">
        <ele>3.3</ele>
        <time>2020-06-15T15:34:28Z</time>
      </trkpt>
      <trkpt lat="49.42812" lon="-1.18865">
        <ele>3.3</ele>
        <time>2020-06-15T15:34:29Z</time>
      </trkpt>
      <trkpt lat="49.42808" lon="-1.18858">
        <ele>3.3</ele>
        <time>2020-06-15T15:34:30Z</time>
      </trkpt>
      <trkpt lat="49.42805" lon="-1.18853">
        <ele>3.3</ele>
        <time>2020-06-15T15:34:31Z</time>
      </trkpt>
      <trkpt lat="49.428" lon="-1.18848">
        <ele>3.3</ele>
        <time>2020-06-15T15:34:32Z</time>
      </trkpt>
      <trkpt lat="49.42795" lon="-1.18843">
        <ele>3.3</ele>
        <time>2020-06-15T15:34:33Z</time>
      </trkpt>
      <trkpt lat="49.42792" lon="-1.18839">
        <ele>3.4</ele>
        <time>2020-06-15T15:34:34Z</time>
      </trkpt>
      <trkpt lat="49.42786" lon="-1.18834">
        <ele>3.4</ele>
        <time>2020-06-15T15:34:35Z</time>
      </trkpt>
      <trkpt lat="49.42782" lon="-1.18829">
        <ele>3.4</ele>
        <time>2020-06-15T15:34:36Z</time>
      </trkpt>
      <trkpt lat="49.42778" lon="-1.18825">
        <ele>3.4</ele>
        <time>2020-06-15T15:34:37Z</time>
      </trkpt>
      <trkpt lat="49.42773" lon="-1.1882">
        <ele>3.4</ele>
        <time>2020-06-15T15:34:38Z</time>
      </trkpt>
      <trkpt lat="49.42767" lon="-1.18815">
        <ele>3.4</ele>
        <time>2020-06-15T15:34:39Z</time>
      </trkpt>
      <trkpt lat="49.42761" lon="-1.1881">
        <ele>3.4</ele>
        <time>2020-06-15T15:34:40Z</time>
      </trkpt>
      <trkpt lat="49.42756" lon="-1.18806">
        <ele>3.4</ele>
        <time>2020-06-15T15:34:41Z</time>
      </trkpt>
      <trkpt lat="49.42753" lon="-1.18801">
        <ele>3.4</ele>
        <time>2020-06-15T15:34:42Z</time>
      </trkpt>
      <trkpt lat="49.42747" lon="-1.18797">
        <ele>3.4</ele>
        <time>2020-06-15T15:34:43Z</time>
      </trkpt>
      <trkpt lat="49.42741" lon="-1.18792">
        <ele>3.4</ele>
        <time>2020-06-15T15:34:44Z</time>
      </trkpt>
      <trkpt lat="49.42735" lon="-1.18787">
        <ele>3.4</ele>
        <time>2020-06-15T15:34:45Z</time>
      </trkpt>
      <trkpt lat="49.42728" lon="-1.18781">
        <ele>3.4</ele>
        <time>2020-06-15T15:34:46Z</time>
      </trkpt>
      <trkpt lat="49.42723" lon="-1.18776">
        <ele>3.4</ele>
        <time>2020-06-15T15:34:47Z</time>
      </trkpt>
      <trkpt lat="49.42719" lon="-1.18772">
        <ele>3.3</ele>
        <time>2020-06-15T15:34:48Z</time>
      </trkpt>
      <trkpt lat="49.42713" lon="-1.18767">
        <ele>3.3</ele>
        <time>2020-06-15T15:34:49Z</time>
      </trkpt>
      <trkpt lat="49.42708" lon="-1.18762">
        <ele>3.3</ele>
        <time>2020-06-15T15:34:50Z</time>
      </trkpt>
      <trkpt lat="49.42702" lon="-1.18756">
        <ele>3.2</ele>
        <time>2020-06-15T15:34:51Z</time>
      </trkpt>
      <trkpt lat="49.42696" lon="-1.18751">
        <ele>3.2</ele>
        <time>2020-06-15T15:34:52Z</time>
      </trkpt>
      <trkpt lat="49.42691" lon="-1.18745">
        <ele>3.2</ele>
        <time>2020-06-15T15:34:53Z</time>
      </trkpt>
      <trkpt lat="49.42686" lon="-1.18739">
        <ele>3.1</ele>
        <time>2020-06-15T15:34:54Z</time>
      </trkpt>
      <trkpt lat="49.42681" lon="-1.18735">
        <ele>3.1</ele>
        <time>2020-06-15T15:34:55Z</time>
      </trkpt>
      <trkpt lat="49.42676" lon="-1.18729">
        <ele>3.1</ele>
        <time>2020-06-15T15:34:56Z</time>
      </trkpt>
      <trkpt lat="49.42671" lon="-1.18724">
        <ele>3.1</ele>
        <time>2020-06-15T15:34:57Z</time>
      </trkpt>
      <trkpt lat="49.42666" lon="-1.18718">
        <ele>3.1</ele>
        <time>2020-06-15T15:34:58Z</time>
      </trkpt>
      <trkpt lat="49.4266" lon="-1.18712">
        <ele>3.1</ele>
        <time>2020-06-15T15:34:59Z</time>
      </trkpt>
      <trkpt lat="49.42655" lon="-1.18706">
        <ele>3.1</ele>
        <time>2020-06-15T15:35:00Z</time>
      </trkpt>
      <trkpt lat="49.42649" lon="-1.18702">
        <ele>3.1</ele>
        <time>2020-06-15T15:35:01Z</time>
      </trkpt>
      <trkpt lat="49.42643" lon="-1.18695">
        <ele>3.1</ele>
        <time>2020-06-15T15:35:02Z</time>
      </trkpt>
      <trkpt lat="49.42639" lon="-1.18689">
        <ele>3</ele>
        <time>2020-06-15T15:35:03Z</time>
      </trkpt>
      <trkpt lat="49.42633" lon="-1.18684">
        <ele>3</ele>
        <time>2020-06-15T15:35:04Z</time>
      </trkpt>
      <trkpt lat="49.42628" lon="-1.1868">
        <ele>3</ele>
        <time>2020-06-15T15:35:05Z</time>
      </trkpt>
      <trkpt lat="49.42623" lon="-1.18674">
        <ele>3</ele>
        <time>2020-06-15T15:35:06Z</time>
      </trkpt>
      <trkpt lat="49.42616" lon="-1.18667">
        <ele>3</ele>
        <time>2020-06-15T15:35:07Z</time>
      </trkpt>
      <trkpt lat="49.42611" lon="-1.18662">
        <ele>3</ele>
        <time>2020-06-15T15:35:08Z</time>
      </trkpt>
      <trkpt lat="49.42607" lon="-1.18656">
        <ele>2.9</ele>
        <time>2020-06-15T15:35:09Z</time>
      </trkpt>
      <trkpt lat="49.42601" lon="-1.18649">
        <ele>2.9</ele>
        <time>2020-06-15T15:35:10Z</time>
      </trkpt>
      <trkpt lat="49.42596" lon="-1.18643">
        <ele>2.9</ele>
        <time>2020-06-15T15:35:11Z</time>
      </trkpt>
      <trkpt lat="49.42592" lon="-1.18639">
        <ele>2.9</ele>
        <time>2020-06-15T15:35:12Z</time>
      </trkpt>
      <trkpt lat="49.42587" lon="-1.18633">
        <ele>2.9</ele>
        <time>2020-06-15T15:35:13Z</time>
      </trkpt>
      <trkpt lat="49.42582" lon="-1.18628">
        <ele>2.8</ele>
        <time>2020-06-15T15:35:14Z</time>
      </trkpt>
      <trkpt lat="49.42577" lon="-1.18622">
        <ele>2.8</ele>
        <time>2020-06-15T15:35:15Z</time>
      </trkpt>
      <trkpt lat="49.42571" lon="-1.18616">
        <ele>2.8</ele>
        <time>2020-06-15T15:35:16Z</time>
      </trkpt>
      <trkpt lat="49.42565" lon="-1.1861">
        <ele>2.8</ele>
        <time>2020-06-15T15:35:17Z</time>
      </trkpt>
      <trkpt lat="49.42561" lon="-1.18604">
        <ele>2.7</ele>
        <time>2020-06-15T15:35:18Z</time>
      </trkpt>
      <trkpt lat="49.42555" lon="-1.18598">
        <ele>2.7</ele>
        <time>2020-06-15T15:35:19Z</time>
      </trkpt>
      <trkpt lat="49.4255" lon="-1.18593">
        <ele>2.7</ele>
        <time>2020-06-15T15:35:20Z</time>
      </trkpt>
      <trkpt lat="49.42544" lon="-1.18587">
        <ele>2.6</ele>
        <time>2020-06-15T15:35:21Z</time>
      </trkpt>
      <trkpt lat="49.42539" lon="-1.18582">
        <ele>2.6</ele>
        <time>2020-06-15T15:35:22Z</time>
      </trkpt>
      <trkpt lat="49.42534" lon="-1.18576">
        <ele>2.6</ele>
        <time>2020-06-15T15:35:23Z</time>
      </trkpt>
      <trkpt lat="49.42528" lon="-1.1857">
        <ele>2.6</ele>
        <time>2020-06-15T15:35:24Z</time>
      </trkpt>
      <trkpt lat="49.42523" lon="-1.18565">
        <ele>2.5</ele>
        <time>2020-06-15T15:35:25Z</time>
      </trkpt>
      <trkpt lat="49.42517" lon="-1.18559">
        <ele>2.5</ele>
        <time>2020-06-15T15:35:26Z</time>
      </trkpt>
      <trkpt lat="49.42512" lon="-1.18554">
        <ele>2.5</ele>
        <time>2020-06-15T15:35:27Z</time>
      </trkpt>
      <trkpt lat="49.42507" lon="-1.18548">
        <ele>2.5</ele>
        <time>2020-06-15T15:35:28Z</time>
      </trkpt>
      <trkpt lat="49.42501" lon="-1.18542">
        <ele>2.5</ele>
        <time>2020-06-15T15:35:29Z</time>
      </trkpt>
      <trkpt lat="49.42496" lon="-1.18536">
        <ele>2.5</ele>
        <time>2020-06-15T15:35:30Z</time>
      </trkpt>
      <trkpt lat="49.4249" lon="-1.1853">
        <ele>2.5</ele>
        <time>2020-06-15T15:35:31Z</time>
      </trkpt>
      <trkpt lat="49.42484" lon="-1.18524">
        <ele>2.5</ele>
        <time>2020-06-15T15:35:32Z</time>
      </trkpt>
      <trkpt lat="49.42479" lon="-1.18518">
        <ele>2.5</ele>
        <time>2020-06-15T15:35:33Z</time>
      </trkpt>
      <trkpt lat="49.42473" lon="-1.18512">
        <ele>2.5</ele>
        <time>2020-06-15T15:35:34Z</time>
      </trkpt>
      <trkpt lat="49.42468" lon="-1.18506">
        <ele>2.5</ele>
        <time>2020-06-15T15:35:35Z</time>
      </trkpt>
      <trkpt lat="49.42463" lon="-1.185">
        <ele>2.5</ele>
        <time>2020-06-15T15:35:36Z</time>
      </trkpt>
      <trkpt lat="49.42457" lon="-1.18494">
        <ele>2.4</ele>
        <time>2020-06-15T15:35:37Z</time>
      </trkpt>
      <trkpt lat="49.42452" lon="-1.18487">
        <ele>2.4</ele>
        <time>2020-06-15T15:35:38Z</time>
      </trkpt>
      <trkpt lat="49.42447" lon="-1.18481">
        <ele>2.4</ele>
        <time>2020-06-15T15:35:39Z</time>
      </trkpt>
      <trkpt lat="49.42442" lon="-1.18476">
        <ele>2.5</ele>
        <time>2020-06-15T15:35:40Z</time>
      </trkpt>
      <trkpt lat="49.42436" lon="-1.18471">
        <ele>2.5</ele>
        <time>2020-06-15T15:35:41Z</time>
      </trkpt>
      <trkpt lat="49.42432" lon="-1.18466">
        <ele>2.5</ele>
        <time>2020-06-15T15:35:42Z</time>
      </trkpt>
      <trkpt lat="49.42426" lon="-1.1846">
        <ele>2.5</ele>
        <time>2020-06-15T15:35:43Z</time>
      </trkpt>
      <trkpt lat="49.42421" lon="-1.18453">
        <ele>2.5</ele>
        <time>2020-06-15T15:35:44Z</time>
      </trkpt>
      <trkpt lat="49.42417" lon="-1.18449">
        <ele>2.6</ele>
        <time>2020-06-15T15:35:45Z</time>
      </trkpt>
      <trkpt lat="49.42412" lon="-1.18444">
        <ele>2.6</ele>
        <time>2020-06-15T15:35:46Z</time>
      </trkpt>
      <trkpt lat="49.42407" lon="-1.18439">
        <ele>2.6</ele>
        <time>2020-06-15T15:35:47Z</time>
      </trkpt>
      <trkpt lat="49.42402" lon="-1.18434">
        <ele>2.7</ele>
        <time>2020-06-15T15:35:48Z</time>
      </trkpt>
      <trkpt lat="49.42398" lon="-1.18428">
        <ele>2.7</ele>
        <time>2020-06-15T15:35:49Z</time>
      </trkpt>
      <trkpt lat="49.42393" lon="-1.18423">
        <ele>2.7</ele>
        <time>2020-06-15T15:35:50Z</time>
      </trkpt>
      <trkpt lat="49.42388" lon="-1.18417">
        <ele>2.7</ele>
        <time>2020-06-15T15:35:51Z</time>
      </trkpt>
      <trkpt lat="49.42382" lon="-1.18411">
        <ele>2.7</ele>
        <time>2020-06-15T15:35:52Z</time>
      </trkpt>
      <trkpt lat="49.42378" lon="-1.18406">
        <ele>2.8</ele>
        <time>2020-06-15T15:35:53Z</time>
      </trkpt>
      <trkpt lat="49.42371" lon="-1.18399">
        <ele>2.8</ele>
        <time>2020-06-15T15:35:54Z</time>
      </trkpt>
      <trkpt lat="49.42366" lon="-1.18392">
        <ele>2.8</ele>
        <time>2020-06-15T15:35:55Z</time>
      </trkpt>
      <trkpt lat="49.42361" lon="-1.18387">
        <ele>2.8</ele>
        <time>2020-06-15T15:35:56Z</time>
      </trkpt>
      <trkpt lat="49.42355" lon="-1.18381">
        <ele>2.8</ele>
        <time>2020-06-15T15:35:57Z</time>
      </trkpt>
      <trkpt lat="49.42349" lon="-1.18375">
        <ele>2.9</ele>
        <time>2020-06-15T15:35:58Z</time>
      </trkpt>
      <trkpt lat="49.42344" lon="-1.18368">
        <ele>2.9</ele>
        <time>2020-06-15T15:35:59Z</time>
      </trkpt>
      <trkpt lat="49.42339" lon="-1.18363">
        <ele>2.9</ele>
        <time>2020-06-15T15:36:00Z</time>
      </trkpt>
      <trkpt lat="49.42334" lon="-1.18357">
        <ele>3</ele>
        <time>2020-06-15T15:36:01Z</time>
      </trkpt>
      <trkpt lat="49.42328" lon="-1.18351">
        <ele>3.1</ele>
        <time>2020-06-15T15:36:02Z</time>
      </trkpt>
      <trkpt lat="49.42323" lon="-1.18345">
        <ele>3.2</ele>
        <time>2020-06-15T15:36:03Z</time>
      </trkpt>
      <trkpt lat="49.42317" lon="-1.1834">
        <ele>3.3</ele>
        <time>2020-06-15T15:36:04Z</time>
      </trkpt>
      <trkpt lat="49.42313" lon="-1.18335">
        <ele>3.3</ele>
        <time>2020-06-15T15:36:05Z</time>
      </trkpt>
      <trkpt lat="49.42308" lon="-1.18329">
        <ele>3.3</ele>
        <time>2020-06-15T15:36:06Z</time>
      </trkpt>
      <trkpt lat="49.42304" lon="-1.18324">
        <ele>3.4</ele>
        <time>2020-06-15T15:36:07Z</time>
      </trkpt>
      <trkpt lat="49.423" lon="-1.18319">
        <ele>3.4</ele>
        <time>2020-06-15T15:36:08Z</time>
      </trkpt>
      <trkpt lat="49.42295" lon="-1.18314">
        <ele>3.4</ele>
        <time>2020-06-15T15:36:09Z</time>
      </trkpt>
      <trkpt lat="49.4229" lon="-1.18308">
        <ele>3.3</ele>
        <time>2020-06-15T15:36:10Z</time>
      </trkpt>
      <trkpt lat="49.42284" lon="-1.18303">
        <ele>3.3</ele>
        <time>2020-06-15T15:36:11Z</time>
      </trkpt>
      <trkpt lat="49.42279" lon="-1.18298">
        <ele>3.2</ele>
        <time>2020-06-15T15:36:12Z</time>
      </trkpt>
      <trkpt lat="49.42273" lon="-1.18293">
        <ele>3.1</ele>
        <time>2020-06-15T15:36:13Z</time>
      </trkpt>
      <trkpt lat="49.42267" lon="-1.18288">
        <ele>3</ele>
        <time>2020-06-15T15:36:14Z</time>
      </trkpt>
      <trkpt lat="49.42261" lon="-1.18283">
        <ele>3</ele>
        <time>2020-06-15T15:36:15Z</time>
      </trkpt>
      <trkpt lat="49.42255" lon="-1.18278">
        <ele>2.9</ele>
        <time>2020-06-15T15:36:16Z</time>
      </trkpt>
      <trkpt lat="49.42249" lon="-1.18274">
        <ele>2.9</ele>
        <time>2020-06-15T15:36:17Z</time>
      </trkpt>
      <trkpt lat="49.42244" lon="-1.18269">
        <ele>2.9</ele>
        <time>2020-06-15T15:36:18Z</time>
      </trkpt>
      <trkpt lat="49.42238" lon="-1.18264">
        <ele>2.9</ele>
        <time>2020-06-15T15:36:19Z</time>
      </trkpt>
      <trkpt lat="49.42232" lon="-1.18259">
        <ele>2.9</ele>
        <time>2020-06-15T15:36:20Z</time>
      </trkpt>
      <trkpt lat="49.42227" lon="-1.18254">
        <ele>2.9</ele>
        <time>2020-06-15T15:36:21Z</time>
      </trkpt>
      <trkpt lat="49.4222" lon="-1.1825">
        <ele>2.9</ele>
        <time>2020-06-15T15:36:22Z</time>
      </trkpt>
      <trkpt lat="49.42215" lon="-1.18244">
        <ele>2.8</ele>
        <time>2020-06-15T15:36:23Z</time>
      </trkpt>
      <trkpt lat="49.42208" lon="-1.18239">
        <ele>2.8</ele>
        <time>2020-06-15T15:36:24Z</time>
      </trkpt>
      <trkpt lat="49.42202" lon="-1.18233">
        <ele>2.8</ele>
        <time>2020-06-15T15:36:25Z</time>
      </trkpt>
      <trkpt lat="49.42195" lon="-1.18227">
        <ele>2.8</ele>
        <time>2020-06-15T15:36:26Z</time>
      </trkpt>
      <trkpt lat="49.4219" lon="-1.18222">
        <ele>2.8</ele>
        <time>2020-06-15T15:36:27Z</time>
      </trkpt>
      <trkpt lat="49.42185" lon="-1.18218">
        <ele>2.8</ele>
        <time>2020-06-15T15:36:28Z</time>
      </trkpt>
      <trkpt lat="49.42179" lon="-1.18213">
        <ele>2.8</ele>
        <time>2020-06-15T15:36:29Z</time>
      </trkpt>
      <trkpt lat="49.42173" lon="-1.18208">
        <ele>2.8</ele>
        <time>2020-06-15T15:36:30Z</time>
      </trkpt>
      <trkpt lat="49.42168" lon="-1.18202">
        <ele>2.8</ele>
        <time>2020-06-15T15:36:31Z</time>
      </trkpt>
      <trkpt lat="49.42162" lon="-1.18197">
        <ele>2.8</ele>
        <time>2020-06-15T15:36:32Z</time>
      </trkpt>
      <trkpt lat="49.42156" lon="-1.18192">
        <ele>2.8</ele>
        <time>2020-06-15T15:36:33Z</time>
      </trkpt>
      <trkpt lat="49.42152" lon="-1.18188">
        <ele>2.9</ele>
        <time>2020-06-15T15:36:34Z</time>
      </trkpt>
      <trkpt lat="49.42147" lon="-1.18182">
        <ele>2.9</ele>
        <time>2020-06-15T15:36:35Z</time>
      </trkpt>
      <trkpt lat="49.42142" lon="-1.18175">
        <ele>3</ele>
        <time>2020-06-15T15:36:36Z</time>
      </trkpt>
      <trkpt lat="49.42137" lon="-1.18169">
        <ele>3</ele>
        <time>2020-06-15T15:36:37Z</time>
      </trkpt>
      <trkpt lat="49.42133" lon="-1.18164">
        <ele>3</ele>
        <time>2020-06-15T15:36:38Z</time>
      </trkpt>
      <trkpt lat="49.42128" lon="-1.18158">
        <ele>3.1</ele>
        <time>2020-06-15T15:36:39Z</time>
      </trkpt>
      <trkpt lat="49.42124" lon="-1.18151">
        <ele>3.1</ele>
        <time>2020-06-15T15:36:40Z</time>
      </trkpt>
      <trkpt lat="49.42119" lon="-1.18145">
        <ele>3.1</ele>
        <time>2020-06-15T15:36:41Z</time>
      </trkpt>
      <trkpt lat="49.42114" lon="-1.18139">
        <ele>3.1</ele>
        <time>2020-06-15T15:36:42Z</time>
      </trkpt>
      <trkpt lat="49.4211" lon="-1.18132">
        <ele>3.1</ele>
        <time>2020-06-15T15:36:43Z</time>
      </trkpt>
      <trkpt lat="49.42105" lon="-1.18126">
        <ele>3.1</ele>
        <time>2020-06-15T15:36:44Z</time>
      </trkpt>
      <trkpt lat="49.421" lon="-1.1812">
        <ele>3.1</ele>
        <time>2020-06-15T15:36:45Z</time>
      </trkpt>
      <trkpt lat="49.42096" lon="-1.18113">
        <ele>3.1</ele>
        <time>2020-06-15T15:36:46Z</time>
      </trkpt>
      <trkpt lat="49.42091" lon="-1.18106">
        <ele>3.1</ele>
        <time>2020-06-15T15:36:47Z</time>
      </trkpt>
      <trkpt lat="49.42087" lon="-1.181">
        <ele>3.1</ele>
        <time>2020-06-15T15:36:48Z</time>
      </trkpt>
      <trkpt lat="49.42083" lon="-1.18094">
        <ele>3.1</ele>
        <time>2020-06-15T15:36:49Z</time>
      </trkpt>
      <trkpt lat="49.42079" lon="-1.18088">
        <ele>3.2</ele>
        <time>2020-06-15T15:36:50Z</time>
      </trkpt>
      <trkpt lat="49.42074" lon="-1.18082">
        <ele>3.2</ele>
        <time>2020-06-15T15:36:51Z</time>
      </trkpt>
      <trkpt lat="49.42069" lon="-1.18076">
        <ele>3.2</ele>
        <time>2020-06-15T15:36:52Z</time>
      </trkpt>
      <trkpt lat="49.42065" lon="-1.1807">
        <ele>3.2</ele>
        <time>2020-06-15T15:36:53Z</time>
      </trkpt>
      <trkpt lat="49.4206" lon="-1.18064">
        <ele>3.2</ele>
        <time>2020-06-15T15:36:54Z</time>
      </trkpt>
      <trkpt lat="49.42056" lon="-1.18058">
        <ele>3.3</ele>
        <time>2020-06-15T15:36:55Z</time>
      </trkpt>
      <trkpt lat="49.42052" lon="-1.18052">
        <ele>3.3</ele>
        <time>2020-06-15T15:36:56Z</time>
      </trkpt>
      <trkpt lat="49.42047" lon="-1.18045">
        <ele>3.3</ele>
        <time>2020-06-15T15:36:57Z</time>
      </trkpt>
      <trkpt lat="49.42043" lon="-1.18039">
        <ele>3.3</ele>
        <time>2020-06-15T15:36:58Z</time>
      </trkpt>
      <trkpt lat="49.42037" lon="-1.18032">
        <ele>3.3</ele>
        <time>2020-06-15T15:36:59Z</time>
      </trkpt>
      <trkpt lat="49.42031" lon="-1.18026">
        <ele>3.4</ele>
        <time>2020-06-15T15:37:00Z</time>
      </trkpt>
      <trkpt lat="49.42027" lon="-1.1802">
        <ele>3.4</ele>
        <time>2020-06-15T15:37:01Z</time>
      </trkpt>
      <trkpt lat="49.42023" lon="-1.18015">
        <ele>3.4</ele>
        <time>2020-06-15T15:37:02Z</time>
      </trkpt>
      <trkpt lat="49.4202" lon="-1.18011">
        <ele>3.4</ele>
        <time>2020-06-15T15:37:03Z</time>
      </trkpt>
      <trkpt lat="49.42017" lon="-1.18008">
        <ele>3.4</ele>
        <time>2020-06-15T15:37:04Z</time>
      </trkpt>
      <trkpt lat="49.42014" lon="-1.18003">
        <ele>3.4</ele>
        <time>2020-06-15T15:37:05Z</time>
      </trkpt>
      <trkpt lat="49.42011" lon="-1.18">
        <ele>3.5</ele>
        <time>2020-06-15T15:37:06Z</time>
      </trkpt>
      <trkpt lat="49.4201" lon="-1.17999">
        <ele>3.5</ele>
        <time>2020-06-15T15:37:07Z</time>
      </trkpt>
      <trkpt lat="49.4201" lon="-1.17996">
        <ele>3.5</ele>
        <time>2020-06-15T15:37:08Z</time>
      </trkpt>
      <trkpt lat="49.42011" lon="-1.17992">
        <ele>3.3</ele>
        <time>2020-06-15T15:37:09Z</time>
      </trkpt>
      <trkpt lat="49.42011" lon="-1.1799">
        <ele>3.3</ele>
        <time>2020-06-15T15:37:10Z</time>
      </trkpt>
      <trkpt lat="49.42012" lon="-1.17987">
        <ele>3.3</ele>
        <time>2020-06-15T15:37:11Z</time>
      </trkpt>
      <trkpt lat="49.42013" lon="-1.17986">
        <ele>3.3</ele>
        <time>2020-06-15T15:37:12Z</time>
      </trkpt>
      <trkpt lat="49.42014" lon="-1.17985">
        <ele>3.2</ele>
        <time>2020-06-15T15:37:13Z</time>
      </trkpt>
      <trkpt lat="49.42016" lon="-1.17981">
        <ele>3.2</ele>
        <time>2020-06-15T15:37:14Z</time>
      </trkpt>
      <trkpt lat="49.42017" lon="-1.17979">
        <ele>3.2</ele>
        <time>2020-06-15T15:37:15Z</time>
      </trkpt>
      <trkpt lat="49.42018" lon="-1.17974">
        <ele>3.1</ele>
        <time>2020-06-15T15:37:16Z</time>
      </trkpt>
      <trkpt lat="49.42019" lon="-1.17973">
        <ele>3.1</ele>
        <time>2020-06-15T15:37:17Z</time>
      </trkpt>
      <trkpt lat="49.4202" lon="-1.17969">
        <ele>3</ele>
        <time>2020-06-15T15:37:18Z</time>
      </trkpt>
      <trkpt lat="49.42022" lon="-1.17965">
        <ele>3</ele>
        <time>2020-06-15T15:37:19Z</time>
      </trkpt>
      <trkpt lat="49.42024" lon="-1.1796">
        <ele>2.9</ele>
        <time>2020-06-15T15:37:20Z</time>
      </trkpt>
      <trkpt lat="49.42026" lon="-1.17957">
        <ele>2.9</ele>
        <time>2020-06-15T15:37:21Z</time>
      </trkpt>
      <trkpt lat="49.42027" lon="-1.17953">
        <ele>2.8</ele>
        <time>2020-06-15T15:37:22Z</time>
      </trkpt>
      <trkpt lat="49.4203" lon="-1.17949">
        <ele>2.7</ele>
        <time>2020-06-15T15:37:23Z</time>
      </trkpt>
      <trkpt lat="49.42031" lon="-1.17947">
        <ele>2.7</ele>
        <time>2020-06-15T15:37:24Z</time>
      </trkpt>
      <trkpt lat="49.42033" lon="-1.17942">
        <ele>2.6</ele>
        <time>2020-06-15T15:37:25Z</time>
      </trkpt>
      <trkpt lat="49.42034" lon="-1.17939">
        <ele>2.5</ele>
        <time>2020-06-15T15:37:26Z</time>
      </trkpt>
      <trkpt lat="49.42035" lon="-1.17937">
        <ele>2.5</ele>
        <time>2020-06-15T15:37:27Z</time>
      </trkpt>
      <trkpt lat="49.42037" lon="-1.17933">
        <ele>2.4</ele>
        <time>2020-06-15T15:37:28Z</time>
      </trkpt>
      <trkpt lat="49.42038" lon="-1.17932">
        <ele>2.3</ele>
        <time>2020-06-15T15:37:29Z</time>
      </trkpt>
      <trkpt lat="49.4204" lon="-1.17928">
        <ele>2.2</ele>
        <time>2020-06-15T15:37:30Z</time>
      </trkpt>
      <trkpt lat="49.42042" lon="-1.17923">
        <ele>2</ele>
        <time>2020-06-15T15:37:31Z</time>
      </trkpt>
      <trkpt lat="49.42043" lon="-1.1792">
        <ele>2</ele>
        <time>2020-06-15T15:37:32Z</time>
      </trkpt>
      <trkpt lat="49.42044" lon="-1.17916">
        <ele>1.8</ele>
        <time>2020-06-15T15:37:33Z</time>
      </trkpt>
      <trkpt lat="49.42044" lon="-1.17914">
        <ele>1.7</ele>
        <time>2020-06-15T15:37:34Z</time>
      </trkpt>
      <trkpt lat="49.42047" lon="-1.1791">
        <ele>1.6</ele>
        <time>2020-06-15T15:37:35Z</time>
      </trkpt>
      <trkpt lat="49.42048" lon="-1.17909">
        <ele>1.5</ele>
        <time>2020-06-15T15:37:36Z</time>
      </trkpt>
      <trkpt lat="49.42049" lon="-1.17908">
        <ele>1.4</ele>
        <time>2020-06-15T15:37:37Z</time>
      </trkpt>
      <trkpt lat="49.4205" lon="-1.17907">
        <ele>1.3</ele>
        <time>2020-06-15T15:37:38Z</time>
      </trkpt>
      <trkpt lat="49.42051" lon="-1.17906">
        <ele>1.3</ele>
        <time>2020-06-15T15:37:39Z</time>
      </trkpt>
      <trkpt lat="49.42051" lon="-1.17903">
        <ele>1.1</ele>
        <time>2020-06-15T15:37:40Z</time>
      </trkpt>
      <trkpt lat="49.42052" lon="-1.17901">
        <ele>1</ele>
        <time>2020-06-15T15:37:41Z</time>
      </trkpt>
      <trkpt lat="49.42053" lon="-1.179">
        <ele>1</ele>
        <time>2020-06-15T15:37:42Z</time>
      </trkpt>
      <trkpt lat="49.42054" lon="-1.17897">
        <ele>0.8</ele>
        <time>2020-06-15T15:37:43Z</time>
      </trkpt>
      <trkpt lat="49.42054" lon="-1.17895">
        <ele>0.7</ele>
        <time>2020-06-15T15:37:44Z</time>
      </trkpt>
      <trkpt lat="49.42055" lon="-1.17892">
        <ele>0.6</ele>
        <time>2020-06-15T15:37:45Z</time>
      </trkpt>
      <trkpt lat="49.42055" lon="-1.17891">
        <ele>0.6</ele>
        <time>2020-06-15T15:37:46Z</time>
      </trkpt>
      <trkpt lat="49.42055" lon="-1.17892">
        <ele>0.5</ele>
        <time>2020-06-15T15:37:47Z</time>
      </trkpt>
      <trkpt lat="49.42054" lon="-1.17892">
        <ele>0.5</ele>
        <time>2020-06-15T15:37:48Z</time>
      </trkpt>
      <trkpt lat="49.42054" lon="-1.17894">
        <ele>0.5</ele>
        <time>2020-06-15T15:37:49Z</time>
      </trkpt>
      <trkpt lat="49.42054" lon="-1.17894">
        <ele>0.4</ele>
        <time>2020-06-15T15:37:50Z</time>
      </trkpt>
      <trkpt lat="49.42054" lon="-1.17895">
        <ele>0.4</ele>
        <time>2020-06-15T15:37:51Z</time>
      </trkpt>
      <trkpt lat="49.42053" lon="-1.17896">
        <ele>0.3</ele>
        <time>2020-06-15T15:37:52Z</time>
      </trkpt>
      <trkpt lat="49.42054" lon="-1.17897">
        <ele>0.3</ele>
        <time>2020-06-15T15:37:53Z</time>
      </trkpt>
      <trkpt lat="49.42054" lon="-1.17896">
        <ele>0.3</ele>
        <time>2020-06-15T15:37:54Z</time>
      </trkpt>
      <trkpt lat="49.42053" lon="-1.17898">
        <ele>0.2</ele>
        <time>2020-06-15T15:37:55Z</time>
      </trkpt>
      <trkpt lat="49.42055" lon="-1.17896">
        <ele>0.1</ele>
        <time>2020-06-15T15:37:56Z</time>
      </trkpt>
      <trkpt lat="49.42055" lon="-1.17896">
        <ele>0.1</ele>
        <time>2020-06-15T15:37:57Z</time>
      </trkpt>
      <trkpt lat="49.42055" lon="-1.17896">
        <ele>6</ele>
        <time>2020-06-15T15:37:58Z</time>
      </trkpt>
      <trkpt lat="49.42055" lon="-1.17896">
        <ele>6</ele>
        <time>2020-06-15T15:37:59Z</time>
      </trkpt>
      <trkpt lat="49.42047" lon="-1.17915">
        <ele>0.4</ele>
        <time>2020-06-15T15:38:55Z</time>
      </trkpt>
      <trkpt lat="49.42046" lon="-1.17917">
        <ele>0.5</ele>
        <time>2020-06-15T15:38:56Z</time>
      </trkpt>
      <trkpt lat="49.42045" lon="-1.17921">
        <ele>0.7</ele>
        <time>2020-06-15T15:38:57Z</time>
      </trkpt>
      <trkpt lat="49.42044" lon="-1.17922">
        <ele>0.8</ele>
        <time>2020-06-15T15:38:58Z</time>
      </trkpt>
      <trkpt lat="49.42042" lon="-1.17925">
        <ele>1.1</ele>
        <time>2020-06-15T15:38:59Z</time>
      </trkpt>
      <trkpt lat="49.42041" lon="-1.17926">
        <ele>1.2</ele>
        <time>2020-06-15T15:39:00Z</time>
      </trkpt>
      <trkpt lat="49.4204" lon="-1.1793">
        <ele>1.4</ele>
        <time>2020-06-15T15:39:01Z</time>
      </trkpt>
      <trkpt lat="49.42039" lon="-1.17932">
        <ele>1.5</ele>
        <time>2020-06-15T15:39:02Z</time>
      </trkpt>
      <trkpt lat="49.42038" lon="-1.17937">
        <ele>1.8</ele>
        <time>2020-06-15T15:39:03Z</time>
      </trkpt>
      <trkpt lat="49.42037" lon="-1.17938">
        <ele>1.8</ele>
        <time>2020-06-15T15:39:04Z</time>
      </trkpt>
      <trkpt lat="49.42035" lon="-1.17942">
        <ele>2</ele>
        <time>2020-06-15T15:39:05Z</time>
      </trkpt>
      <trkpt lat="49.42033" lon="-1.17945">
        <ele>2.2</ele>
        <time>2020-06-15T15:39:06Z</time>
      </trkpt>
      <trkpt lat="49.42032" lon="-1.17949">
        <ele>2.3</ele>
        <time>2020-06-15T15:39:07Z</time>
      </trkpt>
      <trkpt lat="49.4203" lon="-1.17954">
        <ele>2.5</ele>
        <time>2020-06-15T15:39:08Z</time>
      </trkpt>
      <trkpt lat="49.42029" lon="-1.17956">
        <ele>2.5</ele>
        <time>2020-06-15T15:39:09Z</time>
      </trkpt>
      <trkpt lat="49.42028" lon="-1.17959">
        <ele>2.6</ele>
        <time>2020-06-15T15:39:10Z</time>
      </trkpt>
      <trkpt lat="49.42026" lon="-1.17963">
        <ele>2.7</ele>
        <time>2020-06-15T15:39:11Z</time>
      </trkpt>
      <trkpt lat="49.42024" lon="-1.17967">
        <ele>2.8</ele>
        <time>2020-06-15T15:39:12Z</time>
      </trkpt>
      <trkpt lat="49.42023" lon="-1.17972">
        <ele>2.9</ele>
        <time>2020-06-15T15:39:13Z</time>
      </trkpt>
      <trkpt lat="49.42022" lon="-1.17977">
        <ele>3</ele>
        <time>2020-06-15T15:39:14Z</time>
      </trkpt>
      <trkpt lat="49.42019" lon="-1.17982">
        <ele>3.1</ele>
        <time>2020-06-15T15:39:15Z</time>
      </trkpt>
      <trkpt lat="49.42016" lon="-1.17986">
        <ele>3.2</ele>
        <time>2020-06-15T15:39:16Z</time>
      </trkpt>
      <trkpt lat="49.42013" lon="-1.17991">
        <ele>3.3</ele>
        <time>2020-06-15T15:39:17Z</time>
      </trkpt>
      <trkpt lat="49.4201" lon="-1.17995">
        <ele>3.4</ele>
        <time>2020-06-15T15:39:18Z</time>
      </trkpt>
      <trkpt lat="49.42007" lon="-1.17996">
        <ele>3.4</ele>
        <time>2020-06-15T15:39:19Z</time>
      </trkpt>
      <trkpt lat="49.42006" lon="-1.17996">
        <ele>3.4</ele>
        <time>2020-06-15T15:39:20Z</time>
      </trkpt>
      <trkpt lat="49.42004" lon="-1.17995">
        <ele>3.4</ele>
        <time>2020-06-15T15:39:21Z</time>
      </trkpt>
      <trkpt lat="49.42002" lon="-1.17994">
        <ele>3.3</ele>
        <time>2020-06-15T15:39:22Z</time>
      </trkpt>
      <trkpt lat="49.42001" lon="-1.17992">
        <ele>3.3</ele>
        <time>2020-06-15T15:39:23Z</time>
      </trkpt>
      <trkpt lat="49.42" lon="-1.1799">
        <ele>3.3</ele>
        <time>2020-06-15T15:39:24Z</time>
      </trkpt>
      <trkpt lat="49.41999" lon="-1.17988">
        <ele>3.3</ele>
        <time>2020-06-15T15:39:25Z</time>
      </trkpt>
      <trkpt lat="49.41998" lon="-1.17985">
        <ele>3.3</ele>
        <time>2020-06-15T15:39:26Z</time>
      </trkpt>
      <trkpt lat="49.41997" lon="-1.17984">
        <ele>3.3</ele>
        <time>2020-06-15T15:39:27Z</time>
      </trkpt>
      <trkpt lat="49.41996" lon="-1.17983">
        <ele>3.3</ele>
        <time>2020-06-15T15:39:28Z</time>
      </trkpt>
      <trkpt lat="49.41995" lon="-1.17982">
        <ele>3.3</ele>
        <time>2020-06-15T15:39:29Z</time>
      </trkpt>
      <trkpt lat="49.41994" lon="-1.17981">
        <ele>3.3</ele>
        <time>2020-06-15T15:39:30Z</time>
      </trkpt>
      <trkpt lat="49.41993" lon="-1.1798">
        <ele>3.3</ele>
        <time>2020-06-15T15:39:31Z</time>
      </trkpt>
      <trkpt lat="49.41991" lon="-1.17978">
        <ele>3.3</ele>
        <time>2020-06-15T15:39:32Z</time>
      </trkpt>
      <trkpt lat="49.41989" lon="-1.17975">
        <ele>3.3</ele>
        <time>2020-06-15T15:39:33Z</time>
      </trkpt>
      <trkpt lat="49.41987" lon="-1.17974">
        <ele>3.3</ele>
        <time>2020-06-15T15:39:34Z</time>
      </trkpt>
      <trkpt lat="49.41984" lon="-1.17972">
        <ele>3.3</ele>
        <time>2020-06-15T15:39:35Z</time>
      </trkpt>
      <trkpt lat="49.41982" lon="-1.17971">
        <ele>3.3</ele>
        <time>2020-06-15T15:39:36Z</time>
      </trkpt>
      <trkpt lat="49.41979" lon="-1.17968">
        <ele>3.3</ele>
        <time>2020-06-15T15:39:37Z</time>
      </trkpt>
      <trkpt lat="49.41978" lon="-1.17967">
        <ele>3.3</ele>
        <time>2020-06-15T15:39:38Z</time>
      </trkpt>
      <trkpt lat="49.41975" lon="-1.17965">
        <ele>3.4</ele>
        <time>2020-06-15T15:39:39Z</time>
      </trkpt>
      <trkpt lat="49.41974" lon="-1.17964">
        <ele>3.4</ele>
        <time>2020-06-15T15:39:40Z</time>
      </trkpt>
      <trkpt lat="49.4197" lon="-1.17964">
        <ele>3.4</ele>
        <time>2020-06-15T15:39:41Z</time>
      </trkpt>
      <trkpt lat="49.41967" lon="-1.17962">
        <ele>3.4</ele>
        <time>2020-06-15T15:39:42Z</time>
      </trkpt>
      <trkpt lat="49.41963" lon="-1.17961">
        <ele>3.4</ele>
        <time>2020-06-15T15:39:43Z</time>
      </trkpt>
      <trkpt lat="49.41959" lon="-1.17956">
        <ele>3.5</ele>
        <time>2020-06-15T15:39:44Z</time>
      </trkpt>
      <trkpt lat="49.41956" lon="-1.17952">
        <ele>3.5</ele>
        <time>2020-06-15T15:39:45Z</time>
      </trkpt>
      <trkpt lat="49.41953" lon="-1.17948">
        <ele>3.5</ele>
        <time>2020-06-15T15:39:46Z</time>
      </trkpt>
      <trkpt lat="49.41948" lon="-1.17946">
        <ele>3.5</ele>
        <time>2020-06-15T15:39:47Z</time>
      </trkpt>
      <trkpt lat="49.41944" lon="-1.17942">
        <ele>3.5</ele>
        <time>2020-06-15T15:39:48Z</time>
      </trkpt>
      <trkpt lat="49.41941" lon="-1.17939">
        <ele>3.5</ele>
        <time>2020-06-15T15:39:49Z</time>
      </trkpt>
      <trkpt lat="49.41938" lon="-1.17935">
        <ele>3.5</ele>
        <time>2020-06-15T15:39:50Z</time>
      </trkpt>
      <trkpt lat="49.41934" lon="-1.1793">
        <ele>3.5</ele>
        <time>2020-06-15T15:39:51Z</time>
      </trkpt>
      <trkpt lat="49.4193" lon="-1.17925">
        <ele>3.5</ele>
        <time>2020-06-15T15:39:52Z</time>
      </trkpt>
      <trkpt lat="49.41925" lon="-1.17921">
        <ele>3.5</ele>
        <time>2020-06-15T15:39:53Z</time>
      </trkpt>
      <trkpt lat="49.41921" lon="-1.17918">
        <ele>3.5</ele>
        <time>2020-06-15T15:39:54Z</time>
      </trkpt>
      <trkpt lat="49.41916" lon="-1.17914">
        <ele>3.5</ele>
        <time>2020-06-15T15:39:55Z</time>
      </trkpt>
      <trkpt lat="49.41911" lon="-1.1791">
        <ele>3.5</ele>
        <time>2020-06-15T15:39:56Z</time>
      </trkpt>
      <trkpt lat="49.41906" lon="-1.17906">
        <ele>3.5</ele>
        <time>2020-06-15T15:39:57Z</time>
      </trkpt>
      <trkpt lat="49.41902" lon="-1.17901">
        <ele>3.5</ele>
        <time>2020-06-15T15:39:58Z</time>
      </trkpt>
      <trkpt lat="49.41898" lon="-1.17897">
        <ele>3.5</ele>
        <time>2020-06-15T15:39:59Z</time>
      </trkpt>
      <trkpt lat="49.41893" lon="-1.17893">
        <ele>3.6</ele>
        <time>2020-06-15T15:40:00Z</time>
      </trkpt>
      <trkpt lat="49.41888" lon="-1.17888">
        <ele>3.6</ele>
        <time>2020-06-15T15:40:01Z</time>
      </trkpt>
      <trkpt lat="49.41883" lon="-1.17884">
        <ele>3.6</ele>
        <time>2020-06-15T15:40:02Z</time>
      </trkpt>
      <trkpt lat="49.41878" lon="-1.1788">
        <ele>3.6</ele>
        <time>2020-06-15T15:40:03Z</time>
      </trkpt>
      <trkpt lat="49.41874" lon="-1.17875">
        <ele>3.6</ele>
        <time>2020-06-15T15:40:04Z</time>
      </trkpt>
      <trkpt lat="49.4187" lon="-1.1787">
        <ele>3.7</ele>
        <time>2020-06-15T15:40:05Z</time>
      </trkpt>
      <trkpt lat="49.41865" lon="-1.17866">
        <ele>3.7</ele>
        <time>2020-06-15T15:40:06Z</time>
      </trkpt>
      <trkpt lat="49.41861" lon="-1.17862">
        <ele>3.7</ele>
        <time>2020-06-15T15:40:07Z</time>
      </trkpt>
      <trkpt lat="49.41855" lon="-1.17858">
        <ele>3.6</ele>
        <time>2020-06-15T15:40:08Z</time>
      </trkpt>
      <trkpt lat="49.41851" lon="-1.17853">
        <ele>3.6</ele>
        <time>2020-06-15T15:40:09Z</time>
      </trkpt>
      <trkpt lat="49.41846" lon="-1.17849">
        <ele>3.6</ele>
        <time>2020-06-15T15:40:10Z</time>
      </trkpt>
      <trkpt lat="49.41841" lon="-1.17844">
        <ele>3.6</ele>
        <time>2020-06-15T15:40:11Z</time>
      </trkpt>
      <trkpt lat="49.41836" lon="-1.17839">
        <ele>3.6</ele>
        <time>2020-06-15T15:40:12Z</time>
      </trkpt>
      <trkpt lat="49.41831" lon="-1.17834">
        <ele>3.6</ele>
        <time>2020-06-15T15:40:13Z</time>
      </trkpt>
      <trkpt lat="49.41827" lon="-1.17828">
        <ele>3.6</ele>
        <time>2020-06-15T15:40:14Z</time>
      </trkpt>
      <trkpt lat="49.41822" lon="-1.17824">
        <ele>3.6</ele>
        <time>2020-06-15T15:40:15Z</time>
      </trkpt>
      <trkpt lat="49.41817" lon="-1.1782">
        <ele>3.6</ele>
        <time>2020-06-15T15:40:16Z</time>
      </trkpt>
      <trkpt lat="49.41812" lon="-1.17816">
        <ele>3.6</ele>
        <time>2020-06-15T15:40:17Z</time>
      </trkpt>
      <trkpt lat="49.41807" lon="-1.17812">
        <ele>3.6</ele>
        <time>2020-06-15T15:40:18Z</time>
      </trkpt>
      <trkpt lat="49.41802" lon="-1.17807">
        <ele>3.6</ele>
        <time>2020-06-15T15:40:19Z</time>
      </trkpt>
      <trkpt lat="49.41798" lon="-1.17802">
        <ele>3.6</ele>
        <time>2020-06-15T15:40:20Z</time>
      </trkpt>
      <trkpt lat="49.41793" lon="-1.17798">
        <ele>3.6</ele>
        <time>2020-06-15T15:40:21Z</time>
      </trkpt>
      <trkpt lat="49.41789" lon="-1.17793">
        <ele>3.6</ele>
        <time>2020-06-15T15:40:22Z</time>
      </trkpt>
      <trkpt lat="49.41784" lon="-1.17787">
        <ele>3.5</ele>
        <time>2020-06-15T15:40:23Z</time>
      </trkpt>
      <trkpt lat="49.41779" lon="-1.17782">
        <ele>3.5</ele>
        <time>2020-06-15T15:40:24Z</time>
      </trkpt>
      <trkpt lat="49.41773" lon="-1.17777">
        <ele>3.5</ele>
        <time>2020-06-15T15:40:25Z</time>
      </trkpt>
      <trkpt lat="49.41768" lon="-1.17772">
        <ele>3.5</ele>
        <time>2020-06-15T15:40:26Z</time>
      </trkpt>
      <trkpt lat="49.41763" lon="-1.17768">
        <ele>3.4</ele>
        <time>2020-06-15T15:40:27Z</time>
      </trkpt>
      <trkpt lat="49.41759" lon="-1.17763">
        <ele>3.4</ele>
        <time>2020-06-15T15:40:28Z</time>
      </trkpt>
      <trkpt lat="49.41754" lon="-1.17759">
        <ele>3.4</ele>
        <time>2020-06-15T15:40:29Z</time>
      </trkpt>
      <trkpt lat="49.41749" lon="-1.17755">
        <ele>3.4</ele>
        <time>2020-06-15T15:40:30Z</time>
      </trkpt>
      <trkpt lat="49.41744" lon="-1.1775">
        <ele>3.4</ele>
        <time>2020-06-15T15:40:31Z</time>
      </trkpt>
      <trkpt lat="49.41739" lon="-1.17746">
        <ele>3.4</ele>
        <time>2020-06-15T15:40:32Z</time>
      </trkpt>
      <trkpt lat="49.41735" lon="-1.17741">
        <ele>3.4</ele>
        <time>2020-06-15T15:40:33Z</time>
      </trkpt>
      <trkpt lat="49.4173" lon="-1.17738">
        <ele>3.4</ele>
        <time>2020-06-15T15:40:34Z</time>
      </trkpt>
      <trkpt lat="49.41725" lon="-1.17733">
        <ele>3.4</ele>
        <time>2020-06-15T15:40:35Z</time>
      </trkpt>
      <trkpt lat="49.41721" lon="-1.1773">
        <ele>3.5</ele>
        <time>2020-06-15T15:40:36Z</time>
      </trkpt>
      <trkpt lat="49.41716" lon="-1.17727">
        <ele>3.5</ele>
        <time>2020-06-15T15:40:37Z</time>
      </trkpt>
      <trkpt lat="49.41712" lon="-1.17722">
        <ele>3.5</ele>
        <time>2020-06-15T15:40:38Z</time>
      </trkpt>
      <trkpt lat="49.41708" lon="-1.17717">
        <ele>3.5</ele>
        <time>2020-06-15T15:40:39Z</time>
      </trkpt>
      <trkpt lat="49.41704" lon="-1.17713">
        <ele>3.5</ele>
        <time>2020-06-15T15:40:40Z</time>
      </trkpt>
      <trkpt lat="49.41699" lon="-1.17708">
        <ele>3.4</ele>
        <time>2020-06-15T15:40:41Z</time>
      </trkpt>
      <trkpt lat="49.41695" lon="-1.17704">
        <ele>3.4</ele>
        <time>2020-06-15T15:40:42Z</time>
      </trkpt>
      <trkpt lat="49.41691" lon="-1.17698">
        <ele>3.4</ele>
        <time>2020-06-15T15:40:43Z</time>
      </trkpt>
      <trkpt lat="49.41687" lon="-1.17694">
        <ele>3.4</ele>
        <time>2020-06-15T15:40:44Z</time>
      </trkpt>
      <trkpt lat="49.41682" lon="-1.1769">
        <ele>3.4</ele>
        <time>2020-06-15T15:40:45Z</time>
      </trkpt>
      <trkpt lat="49.41677" lon="-1.17687">
        <ele>3.4</ele>
        <time>2020-06-15T15:40:46Z</time>
      </trkpt>
      <trkpt lat="49.41672" lon="-1.17682">
        <ele>3.5</ele>
        <time>2020-06-15T15:40:47Z</time>
      </trkpt>
      <trkpt lat="49.41668" lon="-1.17678">
        <ele>3.5</ele>
        <time>2020-06-15T15:40:48Z</time>
      </trkpt>
      <trkpt lat="49.41664" lon="-1.17674">
        <ele>3.5</ele>
        <time>2020-06-15T15:40:49Z</time>
      </trkpt>
      <trkpt lat="49.41659" lon="-1.17673">
        <ele>3.4</ele>
        <time>2020-06-15T15:40:50Z</time>
      </trkpt>
      <trkpt lat="49.41654" lon="-1.17673">
        <ele>3.4</ele>
        <time>2020-06-15T15:40:51Z</time>
      </trkpt>
      <trkpt lat="49.4165" lon="-1.17673">
        <ele>3.4</ele>
        <time>2020-06-15T15:40:52Z</time>
      </trkpt>
      <trkpt lat="49.41646" lon="-1.17673">
        <ele>3.4</ele>
        <time>2020-06-15T15:40:53Z</time>
      </trkpt>
      <trkpt lat="49.41642" lon="-1.17673">
        <ele>3.4</ele>
        <time>2020-06-15T15:40:54Z</time>
      </trkpt>
      <trkpt lat="49.41642" lon="-1.17673">
        <ele>3.4</ele>
        <time>2020-06-15T15:40:55Z</time>
      </trkpt>
      <trkpt lat="49.4164" lon="-1.17672">
        <ele>3.4</ele>
        <time>2020-06-15T15:40:56Z</time>
      </trkpt>
      <trkpt lat="49.41639" lon="-1.17669">
        <ele>3.4</ele>
        <time>2020-06-15T15:40:57Z</time>
      </trkpt>
      <trkpt lat="49.41639" lon="-1.17665">
        <ele>3.5</ele>
        <time>2020-06-15T15:40:58Z</time>
      </trkpt>
      <trkpt lat="49.41639" lon="-1.17663">
        <ele>3.5</ele>
        <time>2020-06-15T15:40:59Z</time>
      </trkpt>
      <trkpt lat="49.4164" lon="-1.17657">
        <ele>3.6</ele>
        <time>2020-06-15T15:41:00Z</time>
      </trkpt>
      <trkpt lat="49.41641" lon="-1.17654">
        <ele>3.7</ele>
        <time>2020-06-15T15:41:01Z</time>
      </trkpt>
      <trkpt lat="49.41641" lon="-1.17648">
        <ele>3.8</ele>
        <time>2020-06-15T15:41:02Z</time>
      </trkpt>
      <trkpt lat="49.4164" lon="-1.17646">
        <ele>3.8</ele>
        <time>2020-06-15T15:41:03Z</time>
      </trkpt>
      <trkpt lat="49.41639" lon="-1.17641">
        <ele>3.9</ele>
        <time>2020-06-15T15:41:04Z</time>
      </trkpt>
      <trkpt lat="49.41638" lon="-1.17636">
        <ele>4</ele>
        <time>2020-06-15T15:41:05Z</time>
      </trkpt>
      <trkpt lat="49.41636" lon="-1.17633">
        <ele>4.1</ele>
        <time>2020-06-15T15:41:06Z</time>
      </trkpt>
      <trkpt lat="49.41634" lon="-1.17629">
        <ele>4.1</ele>
        <time>2020-06-15T15:41:07Z</time>
      </trkpt>
      <trkpt lat="49.41631" lon="-1.17626">
        <ele>4.2</ele>
        <time>2020-06-15T15:41:08Z</time>
      </trkpt>
      <trkpt lat="49.4163" lon="-1.17624">
        <ele>4.2</ele>
        <time>2020-06-15T15:41:09Z</time>
      </trkpt>
      <trkpt lat="49.41628" lon="-1.17622">
        <ele>4.2</ele>
        <time>2020-06-15T15:41:10Z</time>
      </trkpt>
      <trkpt lat="49.41626" lon="-1.17618">
        <ele>4.3</ele>
        <time>2020-06-15T15:41:11Z</time>
      </trkpt>
      <trkpt lat="49.41625" lon="-1.17617">
        <ele>4.3</ele>
        <time>2020-06-15T15:41:12Z</time>
      </trkpt>
      <trkpt lat="49.41624" lon="-1.17615">
        <ele>4.3</ele>
        <time>2020-06-15T15:41:13Z</time>
      </trkpt>
      <trkpt lat="49.41623" lon="-1.17615">
        <ele>4.3</ele>
        <time>2020-06-15T15:41:14Z</time>
      </trkpt>
      <trkpt lat="49.41623" lon="-1.17614">
        <ele>4.3</ele>
        <time>2020-06-15T15:41:15Z</time>
      </trkpt>
      <trkpt lat="49.41624" lon="-1.17615">
        <ele>4.3</ele>
        <time>2020-06-15T15:41:16Z</time>
      </trkpt>
      <trkpt lat="49.41624" lon="-1.17615">
        <ele>4.3</ele>
        <time>2020-06-15T15:41:17Z</time>
      </trkpt>
      <trkpt lat="49.41623" lon="-1.17615">
        <ele>4.3</ele>
        <time>2020-06-15T15:41:18Z</time>
      </trkpt>
      <trkpt lat="49.41624" lon="-1.17615">
        <ele>4.3</ele>
        <time>2020-06-15T15:41:19Z</time>
      </trkpt>
      <trkpt lat="49.41624" lon="-1.17615">
        <ele>4.3</ele>
        <time>2020-06-15T15:41:20Z</time>
      </trkpt>
      <trkpt lat="49.41624" lon="-1.17616">
        <ele>4.3</ele>
        <time>2020-06-15T15:41:21Z</time>
      </trkpt>
      <trkpt lat="49.41624" lon="-1.17615">
        <ele>4.3</ele>
        <time>2020-06-15T15:41:22Z</time>
      </trkpt>
      <trkpt lat="49.41624" lon="-1.17612">
        <ele>4.4</ele>
        <time>2020-06-15T15:41:23Z</time>
      </trkpt>
      <trkpt lat="49.41623" lon="-1.1761">
        <ele>4.4</ele>
        <time>2020-06-15T15:41:24Z</time>
      </trkpt>
      <trkpt lat="49.41624" lon="-1.17609">
        <ele>4.5</ele>
        <time>2020-06-15T15:41:25Z</time>
      </trkpt>
      <trkpt lat="49.41626" lon="-1.17608">
        <ele>4.5</ele>
        <time>2020-06-15T15:41:26Z</time>
      </trkpt>
      <trkpt lat="49.41626" lon="-1.17607">
        <ele>4.5</ele>
        <time>2020-06-15T15:41:27Z</time>
      </trkpt>
      <trkpt lat="49.41627" lon="-1.17606">
        <ele>4.5</ele>
        <time>2020-06-15T15:41:28Z</time>
      </trkpt>
      <trkpt lat="49.41629" lon="-1.17605">
        <ele>4.6</ele>
        <time>2020-06-15T15:41:29Z</time>
      </trkpt>
      <trkpt lat="49.4163" lon="-1.17604">
        <ele>4.6</ele>
        <time>2020-06-15T15:41:30Z</time>
      </trkpt>
      <trkpt lat="49.4163" lon="-1.17603">
        <ele>4.6</ele>
        <time>2020-06-15T15:41:31Z</time>
      </trkpt>
      <trkpt lat="49.41632" lon="-1.17601">
        <ele>4.7</ele>
        <time>2020-06-15T15:41:32Z</time>
      </trkpt>
      <trkpt lat="49.41632" lon="-1.17599">
        <ele>4.7</ele>
        <time>2020-06-15T15:41:33Z</time>
      </trkpt>
      <trkpt lat="49.41633" lon="-1.17598">
        <ele>4.7</ele>
        <time>2020-06-15T15:41:34Z</time>
      </trkpt>
      <trkpt lat="49.41633" lon="-1.17596">
        <ele>4.9</ele>
        <time>2020-06-15T15:41:35Z</time>
      </trkpt>
      <trkpt lat="49.41633" lon="-1.17596">
        <ele>4.9</ele>
        <time>2020-06-15T15:41:36Z</time>
      </trkpt>
      <trkpt lat="49.41632" lon="-1.17595">
        <ele>4.9</ele>
        <time>2020-06-15T15:41:37Z</time>
      </trkpt>
      <trkpt lat="49.41633" lon="-1.17592">
        <ele>5</ele>
        <time>2020-06-15T15:41:38Z</time>
      </trkpt>
      <trkpt lat="49.41634" lon="-1.1759">
        <ele>5</ele>
        <time>2020-06-15T15:41:39Z</time>
      </trkpt>
      <trkpt lat="49.41633" lon="-1.1759">
        <ele>5</ele>
        <time>2020-06-15T15:41:40Z</time>
      </trkpt>
      <trkpt lat="49.41635" lon="-1.17587">
        <ele>5.2</ele>
        <time>2020-06-15T15:41:41Z</time>
      </trkpt>
      <trkpt lat="49.41636" lon="-1.17587">
        <ele>5.2</ele>
        <time>2020-06-15T15:41:42Z</time>
      </trkpt>
      <trkpt lat="49.41636" lon="-1.17586">
        <ele>5.3</ele>
        <time>2020-06-15T15:41:43Z</time>
      </trkpt>
      <trkpt lat="49.41636" lon="-1.17586">
        <ele>5.2</ele>
        <time>2020-06-15T15:41:44Z</time>
      </trkpt>
      <trkpt lat="49.41637" lon="-1.17584">
        <ele>5.3</ele>
        <time>2020-06-15T15:41:45Z</time>
      </trkpt>
      <trkpt lat="49.41638" lon="-1.17583">
        <ele>5.5</ele>
        <time>2020-06-15T15:41:46Z</time>
      </trkpt>
      <trkpt lat="49.41639" lon="-1.17581">
        <ele>5.5</ele>
        <time>2020-06-15T15:41:47Z</time>
      </trkpt>
      <trkpt lat="49.4164" lon="-1.17579">
        <ele>5.7</ele>
        <time>2020-06-15T15:41:48Z</time>
      </trkpt>
      <trkpt lat="49.41642" lon="-1.17578">
        <ele>5.7</ele>
        <time>2020-06-15T15:41:49Z</time>
      </trkpt>
      <trkpt lat="49.41642" lon="-1.17577">
        <ele>5.8</ele>
        <time>2020-06-15T15:41:50Z</time>
      </trkpt>
      <trkpt lat="49.41643" lon="-1.17576">
        <ele>5.8</ele>
        <time>2020-06-15T15:41:51Z</time>
      </trkpt>
      <trkpt lat="49.41643" lon="-1.17575">
        <ele>5.8</ele>
        <time>2020-06-15T15:41:52Z</time>
      </trkpt>
      <trkpt lat="49.41644" lon="-1.17575">
        <ele>5.8</ele>
        <time>2020-06-15T15:41:53Z</time>
      </trkpt>
      <trkpt lat="49.41644" lon="-1.17576">
        <ele>5.8</ele>
        <time>2020-06-15T15:41:54Z</time>
      </trkpt>
      <trkpt lat="49.41645" lon="-1.17575">
        <ele>5.9</ele>
        <time>2020-06-15T15:41:55Z</time>
      </trkpt>
      <trkpt lat="49.41644" lon="-1.17575">
        <ele>5.8</ele>
        <time>2020-06-15T15:41:56Z</time>
      </trkpt>
      <trkpt lat="49.41644" lon="-1.17575">
        <ele>5.8</ele>
        <time>2020-06-15T15:41:57Z</time>
      </trkpt>
      <trkpt lat="49.41645" lon="-1.17576">
        <ele>5.9</ele>
        <time>2020-06-15T15:41:58Z</time>
      </trkpt>
      <trkpt lat="49.41645" lon="-1.17574">
        <ele>5.8</ele>
        <time>2020-06-15T15:41:59Z</time>
      </trkpt>
      <trkpt lat="49.41645" lon="-1.17576">
        <ele>5.9</ele>
        <time>2020-06-15T15:42:00Z</time>
      </trkpt>
      <trkpt lat="49.41646" lon="-1.17577">
        <ele>5.9</ele>
        <time>2020-06-15T15:42:01Z</time>
      </trkpt>
      <trkpt lat="49.41646" lon="-1.17576">
        <ele>5.9</ele>
        <time>2020-06-15T15:42:02Z</time>
      </trkpt>
      <trkpt lat="49.41646" lon="-1.17575">
        <ele>5.9</ele>
        <time>2020-06-15T15:42:03Z</time>
      </trkpt>
      <trkpt lat="49.41645" lon="-1.17574">
        <ele>5.8</ele>
        <time>2020-06-15T15:42:04Z</time>
      </trkpt>
      <trkpt lat="49.41645" lon="-1.17574">
        <ele>5.8</ele>
        <time>2020-06-15T15:42:05Z</time>
      </trkpt>
      <trkpt lat="49.41644" lon="-1.17573">
        <ele>5.8</ele>
        <time>2020-06-15T15:42:06Z</time>
      </trkpt>
      <trkpt lat="49.41644" lon="-1.17574">
        <ele>5.8</ele>
        <time>2020-06-15T15:42:07Z</time>
      </trkpt>
      <trkpt lat="49.41644" lon="-1.17573">
        <ele>5.8</ele>
        <time>2020-06-15T15:42:08Z</time>
      </trkpt>
      <trkpt lat="49.41644" lon="-1.17573">
        <ele>5.8</ele>
        <time>2020-06-15T15:42:09Z</time>
      </trkpt>
      <trkpt lat="49.41644" lon="-1.17573">
        <ele>5.8</ele>
        <time>2020-06-15T15:42:10Z</time>
      </trkpt>
      <trkpt lat="49.41644" lon="-1.17573">
        <ele>5.8</ele>
        <time>2020-06-15T15:42:11Z</time>
      </trkpt>
      <trkpt lat="49.41644" lon="-1.17573">
        <ele>5.8</ele>
        <time>2020-06-15T15:42:12Z</time>
      </trkpt>
      <trkpt lat="49.41644" lon="-1.17573">
        <ele>5.8</ele>
        <time>2020-06-15T15:42:13Z</time>
      </trkpt>
      <trkpt lat="49.41644" lon="-1.17573">
        <ele>5.8</ele>
        <time>2020-06-15T15:42:14Z</time>
      </trkpt>
      <trkpt lat="49.41644" lon="-1.17573">
        <ele>5.8</ele>
        <time>2020-06-15T15:42:15Z</time>
      </trkpt>
      <trkpt lat="49.41644" lon="-1.17573">
        <ele>5.8</ele>
        <time>2020-06-15T15:42:16Z</time>
      </trkpt>
      <trkpt lat="49.41644" lon="-1.17573">
        <ele>5.8</ele>
        <time>2020-06-15T15:42:17Z</time>
      </trkpt>
      <trkpt lat="49.41644" lon="-1.17573">
        <ele>5.8</ele>
        <time>2020-06-15T15:42:18Z</time>
      </trkpt>
      <trkpt lat="49.41599" lon="-1.17548">
        <ele>4.4</ele>
        <time>2020-06-15T15:43:29Z</time>
      </trkpt>
      <trkpt lat="49.41599" lon="-1.17548">
        <ele>4.4</ele>
        <time>2020-06-15T15:43:30Z</time>
      </trkpt>
      <trkpt lat="49.41599" lon="-1.17547">
        <ele>4.4</ele>
        <time>2020-06-15T15:43:31Z</time>
      </trkpt>
      <trkpt lat="49.41598" lon="-1.17547">
        <ele>4.4</ele>
        <time>2020-06-15T15:43:32Z</time>
      </trkpt>
      <trkpt lat="49.41599" lon="-1.17547">
        <ele>4.4</ele>
        <time>2020-06-15T15:43:33Z</time>
      </trkpt>
      <trkpt lat="49.41599" lon="-1.17546">
        <ele>4.4</ele>
        <time>2020-06-15T15:43:34Z</time>
      </trkpt>
      <trkpt lat="49.41598" lon="-1.17545">
        <ele>4.4</ele>
        <time>2020-06-15T15:43:35Z</time>
      </trkpt>
      <trkpt lat="49.41597" lon="-1.17543">
        <ele>4.5</ele>
        <time>2020-06-15T15:43:36Z</time>
      </trkpt>
      <trkpt lat="49.41597" lon="-1.17539">
        <ele>4.5</ele>
        <time>2020-06-15T15:43:37Z</time>
      </trkpt>
      <trkpt lat="49.41597" lon="-1.17539">
        <ele>4.6</ele>
        <time>2020-06-15T15:43:38Z</time>
      </trkpt>
      <trkpt lat="49.41598" lon="-1.17539">
        <ele>4.6</ele>
        <time>2020-06-15T15:43:39Z</time>
      </trkpt>
      <trkpt lat="49.41599" lon="-1.17539">
        <ele>4.6</ele>
        <time>2020-06-15T15:43:40Z</time>
      </trkpt>
      <trkpt lat="49.416" lon="-1.17539">
        <ele>4.6</ele>
        <time>2020-06-15T15:43:41Z</time>
      </trkpt>
      <trkpt lat="49.41601" lon="-1.17539">
        <ele>4.7</ele>
        <time>2020-06-15T15:43:42Z</time>
      </trkpt>
      <trkpt lat="49.41601" lon="-1.17539">
        <ele>4.7</ele>
        <time>2020-06-15T15:43:43Z</time>
      </trkpt>
      <trkpt lat="49.41604" lon="-1.17538">
        <ele>4.8</ele>
        <time>2020-06-15T15:43:44Z</time>
      </trkpt>
      <trkpt lat="49.41605" lon="-1.17538">
        <ele>4.8</ele>
        <time>2020-06-15T15:43:45Z</time>
      </trkpt>
      <trkpt lat="49.41608" lon="-1.17541">
        <ele>5</ele>
        <time>2020-06-15T15:43:46Z</time>
      </trkpt>
      <trkpt lat="49.41611" lon="-1.17541">
        <ele>5.3</ele>
        <time>2020-06-15T15:43:47Z</time>
      </trkpt>
      <trkpt lat="49.41613" lon="-1.17543">
        <ele>5.3</ele>
        <time>2020-06-15T15:43:48Z</time>
      </trkpt>
      <trkpt lat="49.41614" lon="-1.17543">
        <ele>5.3</ele>
        <time>2020-06-15T15:43:49Z</time>
      </trkpt>
      <trkpt lat="49.41615" lon="-1.17544">
        <ele>5.3</ele>
        <time>2020-06-15T15:43:50Z</time>
      </trkpt>
      <trkpt lat="49.41617" lon="-1.17546">
        <ele>5.6</ele>
        <time>2020-06-15T15:43:51Z</time>
      </trkpt>
      <trkpt lat="49.41618" lon="-1.17547">
        <ele>5.6</ele>
        <time>2020-06-15T15:43:52Z</time>
      </trkpt>
      <trkpt lat="49.41618" lon="-1.17548">
        <ele>5.6</ele>
        <time>2020-06-15T15:43:53Z</time>
      </trkpt>
      <trkpt lat="49.41619" lon="-1.17548">
        <ele>5.6</ele>
        <time>2020-06-15T15:43:54Z</time>
      </trkpt>
      <trkpt lat="49.4162" lon="-1.17549">
        <ele>5.6</ele>
        <time>2020-06-15T15:43:55Z</time>
      </trkpt>
      <trkpt lat="49.41621" lon="-1.1755">
        <ele>5.7</ele>
        <time>2020-06-15T15:43:56Z</time>
      </trkpt>
      <trkpt lat="49.41621" lon="-1.1755">
        <ele>5.7</ele>
        <time>2020-06-15T15:43:57Z</time>
      </trkpt>
      <trkpt lat="49.41622" lon="-1.1755">
        <ele>5.7</ele>
        <time>2020-06-15T15:43:58Z</time>
      </trkpt>
      <trkpt lat="49.41623" lon="-1.17552">
        <ele>5.6</ele>
        <time>2020-06-15T15:43:59Z</time>
      </trkpt>
      <trkpt lat="49.41624" lon="-1.17554">
        <ele>5.6</ele>
        <time>2020-06-15T15:44:00Z</time>
      </trkpt>
      <trkpt lat="49.41624" lon="-1.17556">
        <ele>5.5</ele>
        <time>2020-06-15T15:44:01Z</time>
      </trkpt>
      <trkpt lat="49.41625" lon="-1.17558">
        <ele>5.5</ele>
        <time>2020-06-15T15:44:02Z</time>
      </trkpt>
      <trkpt lat="49.41626" lon="-1.17559">
        <ele>5.4</ele>
        <time>2020-06-15T15:44:03Z</time>
      </trkpt>
      <trkpt lat="49.41627" lon="-1.17561">
        <ele>5.4</ele>
        <time>2020-06-15T15:44:04Z</time>
      </trkpt>
      <trkpt lat="49.41627" lon="-1.17563">
        <ele>5.3</ele>
        <time>2020-06-15T15:44:05Z</time>
      </trkpt>
      <trkpt lat="49.4163" lon="-1.17569">
        <ele>5.3</ele>
        <time>2020-06-15T15:44:06Z</time>
      </trkpt>
      <trkpt lat="49.41631" lon="-1.17572">
        <ele>5.4</ele>
        <time>2020-06-15T15:44:07Z</time>
      </trkpt>
      <trkpt lat="49.41632" lon="-1.17576">
        <ele>5.3</ele>
        <time>2020-06-15T15:44:08Z</time>
      </trkpt>
      <trkpt lat="49.41633" lon="-1.17579">
        <ele>5.3</ele>
        <time>2020-06-15T15:44:09Z</time>
      </trkpt>
      <trkpt lat="49.41634" lon="-1.17583">
        <ele>5.4</ele>
        <time>2020-06-15T15:44:10Z</time>
      </trkpt>
      <trkpt lat="49.41635" lon="-1.17586">
        <ele>5.3</ele>
        <time>2020-06-15T15:44:11Z</time>
      </trkpt>
      <trkpt lat="49.41636" lon="-1.17589">
        <ele>5.2</ele>
        <time>2020-06-15T15:44:12Z</time>
      </trkpt>
      <trkpt lat="49.41637" lon="-1.17593">
        <ele>5</ele>
        <time>2020-06-15T15:44:13Z</time>
      </trkpt>
      <trkpt lat="49.41638" lon="-1.17596">
        <ele>5</ele>
        <time>2020-06-15T15:44:14Z</time>
      </trkpt>
      <trkpt lat="49.4164" lon="-1.17603">
        <ele>4.7</ele>
        <time>2020-06-15T15:44:15Z</time>
      </trkpt>
      <trkpt lat="49.41641" lon="-1.17606">
        <ele>4.6</ele>
        <time>2020-06-15T15:44:16Z</time>
      </trkpt>
      <trkpt lat="49.41643" lon="-1.17609">
        <ele>4.6</ele>
        <time>2020-06-15T15:44:17Z</time>
      </trkpt>
      <trkpt lat="49.41644" lon="-1.17613">
        <ele>4.5</ele>
        <time>2020-06-15T15:44:18Z</time>
      </trkpt>
      <trkpt lat="49.41646" lon="-1.17616">
        <ele>4.4</ele>
        <time>2020-06-15T15:44:19Z</time>
      </trkpt>
      <trkpt lat="49.41649" lon="-1.1762">
        <ele>4.4</ele>
        <time>2020-06-15T15:44:20Z</time>
      </trkpt>
      <trkpt lat="49.41651" lon="-1.17624">
        <ele>4.4</ele>
        <time>2020-06-15T15:44:21Z</time>
      </trkpt>
      <trkpt lat="49.41653" lon="-1.17629">
        <ele>4.4</ele>
        <time>2020-06-15T15:44:22Z</time>
      </trkpt>
      <trkpt lat="49.41655" lon="-1.17635">
        <ele>4.3</ele>
        <time>2020-06-15T15:44:23Z</time>
      </trkpt>
      <trkpt lat="49.41656" lon="-1.17641">
        <ele>4.1</ele>
        <time>2020-06-15T15:44:24Z</time>
      </trkpt>
      <trkpt lat="49.41658" lon="-1.17648">
        <ele>4.1</ele>
        <time>2020-06-15T15:44:25Z</time>
      </trkpt>
      <trkpt lat="49.41659" lon="-1.17655">
        <ele>4</ele>
        <time>2020-06-15T15:44:26Z</time>
      </trkpt>
      <trkpt lat="49.41661" lon="-1.17662">
        <ele>3.8</ele>
        <time>2020-06-15T15:44:27Z</time>
      </trkpt>
      <trkpt lat="49.41666" lon="-1.17685">
        <ele>3.4</ele>
        <time>2020-06-15T15:44:31Z</time>
      </trkpt>
      <trkpt lat="49.41669" lon="-1.17695">
        <ele>3.3</ele>
        <time>2020-06-15T15:44:32Z</time>
      </trkpt>
      <trkpt lat="49.4167" lon="-1.17699">
        <ele>3.2</ele>
        <time>2020-06-15T15:44:33Z</time>
      </trkpt>
      <trkpt lat="49.41671" lon="-1.17703">
        <ele>3.2</ele>
        <time>2020-06-15T15:44:34Z</time>
      </trkpt>
      <trkpt lat="49.41673" lon="-1.17711">
        <ele>3</ele>
        <time>2020-06-15T15:44:35Z</time>
      </trkpt>
      <trkpt lat="49.41674" lon="-1.17713">
        <ele>3</ele>
        <time>2020-06-15T15:44:36Z</time>
      </trkpt>
      <trkpt lat="49.41676" lon="-1.17718">
        <ele>2.9</ele>
        <time>2020-06-15T15:44:37Z</time>
      </trkpt>
      <trkpt lat="49.41677" lon="-1.1772">
        <ele>2.9</ele>
        <time>2020-06-15T15:44:38Z</time>
      </trkpt>
      <trkpt lat="49.41681" lon="-1.17725">
        <ele>2.9</ele>
        <time>2020-06-15T15:44:39Z</time>
      </trkpt>
      <trkpt lat="49.41683" lon="-1.17727">
        <ele>2.9</ele>
        <time>2020-06-15T15:44:40Z</time>
      </trkpt>
      <trkpt lat="49.41685" lon="-1.1773">
        <ele>3</ele>
        <time>2020-06-15T15:44:41Z</time>
      </trkpt>
      <trkpt lat="49.41686" lon="-1.17732">
        <ele>2.9</ele>
        <time>2020-06-15T15:44:42Z</time>
      </trkpt>
      <trkpt lat="49.41688" lon="-1.17734">
        <ele>2.9</ele>
        <time>2020-06-15T15:44:43Z</time>
      </trkpt>
      <trkpt lat="49.4169" lon="-1.17736">
        <ele>3</ele>
        <time>2020-06-15T15:44:44Z</time>
      </trkpt>
      <trkpt lat="49.41692" lon="-1.17739">
        <ele>2.9</ele>
        <time>2020-06-15T15:44:45Z</time>
      </trkpt>
      <trkpt lat="49.41701" lon="-1.17755">
        <ele>3.1</ele>
        <time>2020-06-15T15:44:46Z</time>
      </trkpt>
      <trkpt lat="49.41706" lon="-1.17762">
        <ele>3.1</ele>
        <time>2020-06-15T15:44:47Z</time>
      </trkpt>
      <trkpt lat="49.41711" lon="-1.17769">
        <ele>3.1</ele>
        <time>2020-06-15T15:44:48Z</time>
      </trkpt>
      <trkpt lat="49.41717" lon="-1.17777">
        <ele>3.1</ele>
        <time>2020-06-15T15:44:49Z</time>
      </trkpt>
      <trkpt lat="49.41722" lon="-1.17784">
        <ele>3.2</ele>
        <time>2020-06-15T15:44:50Z</time>
      </trkpt>
      <trkpt lat="49.41727" lon="-1.17792">
        <ele>3.1</ele>
        <time>2020-06-15T15:44:51Z</time>
      </trkpt>
      <trkpt lat="49.41732" lon="-1.17799">
        <ele>3.1</ele>
        <time>2020-06-15T15:44:52Z</time>
      </trkpt>
      <trkpt lat="49.41737" lon="-1.17807">
        <ele>3.1</ele>
        <time>2020-06-15T15:44:53Z</time>
      </trkpt>
      <trkpt lat="49.41742" lon="-1.17814">
        <ele>3.1</ele>
        <time>2020-06-15T15:44:54Z</time>
      </trkpt>
      <trkpt lat="49.4174" lon="-1.17792">
        <ele>3.3</ele>
        <time>2020-06-15T15:44:55Z</time>
      </trkpt>
      <trkpt lat="49.4174" lon="-1.17789">
        <ele>3.3</ele>
        <time>2020-06-15T15:44:56Z</time>
      </trkpt>
      <trkpt lat="49.4174" lon="-1.1779">
        <ele>3.3</ele>
        <time>2020-06-15T15:44:57Z</time>
      </trkpt>
      <trkpt lat="49.41742" lon="-1.17791">
        <ele>3.3</ele>
        <time>2020-06-15T15:44:58Z</time>
      </trkpt>
      <trkpt lat="49.41742" lon="-1.17794">
        <ele>3.3</ele>
        <time>2020-06-15T15:44:59Z</time>
      </trkpt>
      <trkpt lat="49.41744" lon="-1.17798">
        <ele>3.3</ele>
        <time>2020-06-15T15:45:00Z</time>
      </trkpt>
      <trkpt lat="49.41744" lon="-1.178">
        <ele>3.2</ele>
        <time>2020-06-15T15:45:01Z</time>
      </trkpt>
      <trkpt lat="49.41744" lon="-1.17802">
        <ele>3.2</ele>
        <time>2020-06-15T15:45:02Z</time>
      </trkpt>
      <trkpt lat="49.41744" lon="-1.17799">
        <ele>3.2</ele>
        <time>2020-06-15T15:45:03Z</time>
      </trkpt>
      <trkpt lat="49.41744" lon="-1.17798">
        <ele>3.3</ele>
        <time>2020-06-15T15:45:04Z</time>
      </trkpt>
      <trkpt lat="49.41743" lon="-1.17798">
        <ele>3.3</ele>
        <time>2020-06-15T15:45:05Z</time>
      </trkpt>
      <trkpt lat="49.41743" lon="-1.178">
        <ele>3.2</ele>
        <time>2020-06-15T15:45:06Z</time>
      </trkpt>
      <trkpt lat="49.41742" lon="-1.17799">
        <ele>3.2</ele>
        <time>2020-06-15T15:45:07Z</time>
      </trkpt>
      <trkpt lat="49.41743" lon="-1.17802">
        <ele>3.2</ele>
        <time>2020-06-15T15:45:08Z</time>
      </trkpt>
      <trkpt lat="49.41744" lon="-1.17804">
        <ele>3.2</ele>
        <time>2020-06-15T15:45:09Z</time>
      </trkpt>
      <trkpt lat="49.41744" lon="-1.17805">
        <ele>3.2</ele>
        <time>2020-06-15T15:45:10Z</time>
      </trkpt>
      <trkpt lat="49.41745" lon="-1.17807">
        <ele>3.2</ele>
        <time>2020-06-15T15:45:11Z</time>
      </trkpt>
      <trkpt lat="49.41746" lon="-1.17809">
        <ele>3.2</ele>
        <time>2020-06-15T15:45:12Z</time>
      </trkpt>
      <trkpt lat="49.41747" lon="-1.1781">
        <ele>3.2</ele>
        <time>2020-06-15T15:45:13Z</time>
      </trkpt>
      <trkpt lat="49.41748" lon="-1.17812">
        <ele>3.2</ele>
        <time>2020-06-15T15:45:14Z</time>
      </trkpt>
      <trkpt lat="49.41749" lon="-1.17815">
        <ele>3.2</ele>
        <time>2020-06-15T15:45:15Z</time>
      </trkpt>
      <trkpt lat="49.41749" lon="-1.17817">
        <ele>3.2</ele>
        <time>2020-06-15T15:45:16Z</time>
      </trkpt>
      <trkpt lat="49.4175" lon="-1.1782">
        <ele>3.2</ele>
        <time>2020-06-15T15:45:17Z</time>
      </trkpt>
      <trkpt lat="49.4175" lon="-1.17822">
        <ele>3.2</ele>
        <time>2020-06-15T15:45:18Z</time>
      </trkpt>
      <trkpt lat="49.4175" lon="-1.17825">
        <ele>3.2</ele>
        <time>2020-06-15T15:45:19Z</time>
      </trkpt>
      <trkpt lat="49.4175" lon="-1.17826">
        <ele>3.2</ele>
        <time>2020-06-15T15:45:20Z</time>
      </trkpt>
      <trkpt lat="49.4175" lon="-1.17827">
        <ele>3.2</ele>
        <time>2020-06-15T15:45:21Z</time>
      </trkpt>
      <trkpt lat="49.41764" lon="-1.17881">
        <ele>3.5</ele>
        <time>2020-06-15T15:45:39Z</time>
      </trkpt>
      <trkpt lat="49.41768" lon="-1.17883">
        <ele>3.5</ele>
        <time>2020-06-15T15:45:40Z</time>
      </trkpt>
      <trkpt lat="49.41772" lon="-1.17885">
        <ele>3.5</ele>
        <time>2020-06-15T15:45:41Z</time>
      </trkpt>
      <trkpt lat="49.41776" lon="-1.17887">
        <ele>3.4</ele>
        <time>2020-06-15T15:45:42Z</time>
      </trkpt>
      <trkpt lat="49.4178" lon="-1.17889">
        <ele>3.4</ele>
        <time>2020-06-15T15:45:43Z</time>
      </trkpt>
      <trkpt lat="49.41785" lon="-1.17891">
        <ele>3.4</ele>
        <time>2020-06-15T15:45:44Z</time>
      </trkpt>
      <trkpt lat="49.41589" lon="-1.17566">
        <ele>4.3</ele>
        <time>2020-06-15T15:45:53Z</time>
      </trkpt>
      <trkpt lat="49.41594" lon="-1.17557">
        <ele>4.3</ele>
        <time>2020-06-15T15:45:54Z</time>
      </trkpt>
      <trkpt lat="49.41597" lon="-1.17557">
        <ele>4.4</ele>
        <time>2020-06-15T15:45:55Z</time>
      </trkpt>
      <trkpt lat="49.41598" lon="-1.17557">
        <ele>4.5</ele>
        <time>2020-06-15T15:45:56Z</time>
      </trkpt>
      <trkpt lat="49.416" lon="-1.17558">
        <ele>4.7</ele>
        <time>2020-06-15T15:45:57Z</time>
      </trkpt>
      <trkpt lat="49.41601" lon="-1.17559">
        <ele>4.7</ele>
        <time>2020-06-15T15:45:58Z</time>
      </trkpt>
      <trkpt lat="49.41606" lon="-1.17559">
        <ele>4.9</ele>
        <time>2020-06-15T15:45:59Z</time>
      </trkpt>
      <trkpt lat="49.41609" lon="-1.17558">
        <ele>5</ele>
        <time>2020-06-15T15:46:00Z</time>
      </trkpt>
      <trkpt lat="49.4161" lon="-1.17558">
        <ele>5</ele>
        <time>2020-06-15T15:46:01Z</time>
      </trkpt>
      <trkpt lat="49.41612" lon="-1.17559">
        <ele>5.1</ele>
        <time>2020-06-15T15:46:02Z</time>
      </trkpt>
      <trkpt lat="49.41614" lon="-1.17559">
        <ele>5.1</ele>
        <time>2020-06-15T15:46:03Z</time>
      </trkpt>
      <trkpt lat="49.41617" lon="-1.1756">
        <ele>5.3</ele>
        <time>2020-06-15T15:46:04Z</time>
      </trkpt>
      <trkpt lat="49.41618" lon="-1.17561">
        <ele>5.3</ele>
        <time>2020-06-15T15:46:05Z</time>
      </trkpt>
      <trkpt lat="49.41619" lon="-1.1756">
        <ele>5.3</ele>
        <time>2020-06-15T15:46:06Z</time>
      </trkpt>
      <trkpt lat="49.41619" lon="-1.17561">
        <ele>5.3</ele>
        <time>2020-06-15T15:46:07Z</time>
      </trkpt>
      <trkpt lat="49.4162" lon="-1.17561">
        <ele>5.4</ele>
        <time>2020-06-15T15:46:08Z</time>
      </trkpt>
      <trkpt lat="49.41622" lon="-1.17561">
        <ele>5.4</ele>
        <time>2020-06-15T15:46:09Z</time>
      </trkpt>
      <trkpt lat="49.41623" lon="-1.17562">
        <ele>5.4</ele>
        <time>2020-06-15T15:46:10Z</time>
      </trkpt>
      <trkpt lat="49.41625" lon="-1.17563">
        <ele>5.3</ele>
        <time>2020-06-15T15:46:11Z</time>
      </trkpt>
      <trkpt lat="49.41626" lon="-1.17563">
        <ele>5.3</ele>
        <time>2020-06-15T15:46:12Z</time>
      </trkpt>
      <trkpt lat="49.41627" lon="-1.17564">
        <ele>5.3</ele>
        <time>2020-06-15T15:46:13Z</time>
      </trkpt>
      <trkpt lat="49.41628" lon="-1.17564">
        <ele>5.4</ele>
        <time>2020-06-15T15:46:14Z</time>
      </trkpt>
      <trkpt lat="49.4163" lon="-1.17565">
        <ele>5.4</ele>
        <time>2020-06-15T15:46:15Z</time>
      </trkpt>
      <trkpt lat="49.4163" lon="-1.17565">
        <ele>5.4</ele>
        <time>2020-06-15T15:46:16Z</time>
      </trkpt>
      <trkpt lat="49.41631" lon="-1.17565">
        <ele>5.5</ele>
        <time>2020-06-15T15:46:17Z</time>
      </trkpt>
      <trkpt lat="49.41633" lon="-1.17566">
        <ele>5.5</ele>
        <time>2020-06-15T15:46:18Z</time>
      </trkpt>
      <trkpt lat="49.41634" lon="-1.17567">
        <ele>5.6</ele>
        <time>2020-06-15T15:46:19Z</time>
      </trkpt>
      <trkpt lat="49.41633" lon="-1.17565">
        <ele>5.5</ele>
        <time>2020-06-15T15:46:20Z</time>
      </trkpt>
      <trkpt lat="49.41632" lon="-1.17571">
        <ele>5.5</ele>
        <time>2020-06-15T15:46:21Z</time>
      </trkpt>
      <trkpt lat="49.41634" lon="-1.17571">
        <ele>5.6</ele>
        <time>2020-06-15T15:46:22Z</time>
      </trkpt>
      <trkpt lat="49.41635" lon="-1.1757">
        <ele>5.6</ele>
        <time>2020-06-15T15:46:23Z</time>
      </trkpt>
      <trkpt lat="49.41635" lon="-1.1757">
        <ele>5.6</ele>
        <time>2020-06-15T15:46:24Z</time>
      </trkpt>
      <trkpt lat="49.41635" lon="-1.17569">
        <ele>5.6</ele>
        <time>2020-06-15T15:46:25Z</time>
      </trkpt>
      <trkpt lat="49.41635" lon="-1.17569">
        <ele>5.6</ele>
        <time>2020-06-15T15:46:26Z</time>
      </trkpt>
      <trkpt lat="49.41636" lon="-1.17569">
        <ele>5.6</ele>
        <time>2020-06-15T15:46:27Z</time>
      </trkpt>
      <trkpt lat="49.41636" lon="-1.17569">
        <ele>5.6</ele>
        <time>2020-06-15T15:46:28Z</time>
      </trkpt>
      <trkpt lat="49.41636" lon="-1.17569">
        <ele>5.6</ele>
        <time>2020-06-15T15:46:29Z</time>
      </trkpt>
      <trkpt lat="49.41636" lon="-1.17569">
        <ele>5.6</ele>
        <time>2020-06-15T15:46:30Z</time>
      </trkpt>
      <trkpt lat="49.41636" lon="-1.17569">
        <ele>5.6</ele>
        <time>2020-06-15T15:46:31Z</time>
      </trkpt>
      <trkpt lat="49.41636" lon="-1.17569">
        <ele>5.6</ele>
        <time>2020-06-15T15:46:32Z</time>
      </trkpt>
      <trkpt lat="49.41633" lon="-1.17576">
        <ele>5.4</ele>
        <time>2020-06-15T15:47:02Z</time>
      </trkpt>
      <trkpt lat="49.41633" lon="-1.17577">
        <ele>5.4</ele>
        <time>2020-06-15T15:47:03Z</time>
      </trkpt>
      <trkpt lat="49.41633" lon="-1.17577">
        <ele>5.4</ele>
        <time>2020-06-15T15:47:04Z</time>
      </trkpt>
      <trkpt lat="49.41633" lon="-1.17578">
        <ele>5.4</ele>
        <time>2020-06-15T15:47:05Z</time>
      </trkpt>
      <trkpt lat="49.41634" lon="-1.17578">
        <ele>5.6</ele>
        <time>2020-06-15T15:47:06Z</time>
      </trkpt>
      <trkpt lat="49.41635" lon="-1.17577">
        <ele>5.6</ele>
        <time>2020-06-15T15:47:07Z</time>
      </trkpt>
      <trkpt lat="49.41635" lon="-1.17577">
        <ele>5.6</ele>
        <time>2020-06-15T15:47:08Z</time>
      </trkpt>
      <trkpt lat="49.41636" lon="-1.17576">
        <ele>5.6</ele>
        <time>2020-06-15T15:47:09Z</time>
      </trkpt>
      <trkpt lat="49.41637" lon="-1.17575">
        <ele>5.8</ele>
        <time>2020-06-15T15:47:10Z</time>
      </trkpt>
      <trkpt lat="49.41637" lon="-1.17574">
        <ele>5.8</ele>
        <time>2020-06-15T15:47:11Z</time>
      </trkpt>
      <trkpt lat="49.41637" lon="-1.17574">
        <ele>5.8</ele>
        <time>2020-06-15T15:47:12Z</time>
      </trkpt>
      <trkpt lat="49.41637" lon="-1.17574">
        <ele>5.8</ele>
        <time>2020-06-15T15:47:13Z</time>
      </trkpt>
      <trkpt lat="49.41638" lon="-1.17573">
        <ele>5.8</ele>
        <time>2020-06-15T15:47:14Z</time>
      </trkpt>
      <trkpt lat="49.41638" lon="-1.17572">
        <ele>5.8</ele>
        <time>2020-06-15T15:47:15Z</time>
      </trkpt>
      <trkpt lat="49.41638" lon="-1.17571">
        <ele>5.8</ele>
        <time>2020-06-15T15:47:16Z</time>
      </trkpt>
      <trkpt lat="49.41638" lon="-1.17571">
        <ele>5.7</ele>
        <time>2020-06-15T15:47:17Z</time>
      </trkpt>
      <trkpt lat="49.41639" lon="-1.1757">
        <ele>5.7</ele>
        <time>2020-06-15T15:47:18Z</time>
      </trkpt>
      <trkpt lat="49.41639" lon="-1.1757">
        <ele>5.7</ele>
        <time>2020-06-15T15:47:19Z</time>
      </trkpt>
      <trkpt lat="49.41639" lon="-1.17569">
        <ele>5.7</ele>
        <time>2020-06-15T15:47:20Z</time>
      </trkpt>
      <trkpt lat="49.4164" lon="-1.17568">
        <ele>5.8</ele>
        <time>2020-06-15T15:47:21Z</time>
      </trkpt>
      <trkpt lat="49.4164" lon="-1.17566">
        <ele>5.5</ele>
        <time>2020-06-15T15:47:22Z</time>
      </trkpt>
      <trkpt lat="49.4164" lon="-1.17565">
        <ele>5.5</ele>
        <time>2020-06-15T15:47:23Z</time>
      </trkpt>
      <trkpt lat="49.4164" lon="-1.17564">
        <ele>5.5</ele>
        <time>2020-06-15T15:47:24Z</time>
      </trkpt>
      <trkpt lat="49.4164" lon="-1.17563">
        <ele>5.5</ele>
        <time>2020-06-15T15:47:25Z</time>
      </trkpt>
      <trkpt lat="49.4164" lon="-1.17562">
        <ele>5.5</ele>
        <time>2020-06-15T15:47:26Z</time>
      </trkpt>
      <trkpt lat="49.41639" lon="-1.1756">
        <ele>5.5</ele>
        <time>2020-06-15T15:47:27Z</time>
      </trkpt>
      <trkpt lat="49.41638" lon="-1.1756">
        <ele>5.5</ele>
        <time>2020-06-15T15:47:28Z</time>
      </trkpt>
      <trkpt lat="49.41637" lon="-1.17559">
        <ele>5.5</ele>
        <time>2020-06-15T15:47:29Z</time>
      </trkpt>
      <trkpt lat="49.41636" lon="-1.17558">
        <ele>5.5</ele>
        <time>2020-06-15T15:47:30Z</time>
      </trkpt>
      <trkpt lat="49.41635" lon="-1.17557">
        <ele>5.5</ele>
        <time>2020-06-15T15:47:31Z</time>
      </trkpt>
      <trkpt lat="49.41635" lon="-1.17556">
        <ele>5.5</ele>
        <time>2020-06-15T15:47:32Z</time>
      </trkpt>
      <trkpt lat="49.41634" lon="-1.17556">
        <ele>5.5</ele>
        <time>2020-06-15T15:47:33Z</time>
      </trkpt>
      <trkpt lat="49.41634" lon="-1.17557">
        <ele>5.6</ele>
        <time>2020-06-15T15:47:34Z</time>
      </trkpt>
      <trkpt lat="49.41634" lon="-1.17557">
        <ele>5.6</ele>
        <time>2020-06-15T15:47:35Z</time>
      </trkpt>
      <trkpt lat="49.41633" lon="-1.17557">
        <ele>5.6</ele>
        <time>2020-06-15T15:47:36Z</time>
      </trkpt>
      <trkpt lat="49.41633" lon="-1.17557">
        <ele>5.6</ele>
        <time>2020-06-15T15:47:37Z</time>
      </trkpt>
      <trkpt lat="49.41633" lon="-1.17557">
        <ele>5.6</ele>
        <time>2020-06-15T15:47:38Z</time>
      </trkpt>
      <trkpt lat="49.41633" lon="-1.17556">
        <ele>5.6</ele>
        <time>2020-06-15T15:47:39Z</time>
      </trkpt>
      <trkpt lat="49.41633" lon="-1.17555">
        <ele>5.6</ele>
        <time>2020-06-15T15:47:40Z</time>
      </trkpt>
      <trkpt lat="49.41633" lon="-1.17555">
        <ele>5.6</ele>
        <time>2020-06-15T15:47:41Z</time>
      </trkpt>
      <trkpt lat="49.41634" lon="-1.17555">
        <ele>5.6</ele>
        <time>2020-06-15T15:47:42Z</time>
      </trkpt>
      <trkpt lat="49.41634" lon="-1.17555">
        <ele>5.6</ele>
        <time>2020-06-15T15:47:43Z</time>
      </trkpt>
      <trkpt lat="49.41634" lon="-1.17555">
        <ele>5.6</ele>
        <time>2020-06-15T15:47:44Z</time>
      </trkpt>
      <trkpt lat="49.41634" lon="-1.17555">
        <ele>5.6</ele>
        <time>2020-06-15T15:47:45Z</time>
      </trkpt>
      <trkpt lat="49.41634" lon="-1.17555">
        <ele>5.6</ele>
        <time>2020-06-15T15:47:46Z</time>
      </trkpt>
      <trkpt lat="49.41634" lon="-1.17555">
        <ele>5.6</ele>
        <time>2020-06-15T15:47:47Z</time>
      </trkpt>
      <trkpt lat="49.41634" lon="-1.17555">
        <ele>5.6</ele>
        <time>2020-06-15T15:47:48Z</time>
      </trkpt>
      <trkpt lat="49.41634" lon="-1.17554">
        <ele>5.6</ele>
        <time>2020-06-15T15:47:49Z</time>
      </trkpt>
      <trkpt lat="49.41634" lon="-1.17554">
        <ele>5.6</ele>
        <time>2020-06-15T15:47:50Z</time>
      </trkpt>
      <trkpt lat="49.41635" lon="-1.17554">
        <ele>5.6</ele>
        <time>2020-06-15T15:47:51Z</time>
      </trkpt>
      <trkpt lat="49.41635" lon="-1.17554">
        <ele>5.6</ele>
        <time>2020-06-15T15:47:52Z</time>
      </trkpt>
      <trkpt lat="49.41635" lon="-1.17554">
        <ele>5.6</ele>
        <time>2020-06-15T15:47:53Z</time>
      </trkpt>
      <trkpt lat="49.41635" lon="-1.17554">
        <ele>5.6</ele>
        <time>2020-06-15T15:47:54Z</time>
      </trkpt>
      <trkpt lat="49.41635" lon="-1.17554">
        <ele>5.6</ele>
        <time>2020-06-15T15:47:55Z</time>
      </trkpt>
      <trkpt lat="49.41635" lon="-1.17553">
        <ele>5.6</ele>
        <time>2020-06-15T15:47:56Z</time>
      </trkpt>
      <trkpt lat="49.41635" lon="-1.17553">
        <ele>5.6</ele>
        <time>2020-06-15T15:47:57Z</time>
      </trkpt>
      <trkpt lat="49.41636" lon="-1.17553">
        <ele>5.6</ele>
        <time>2020-06-15T15:47:58Z</time>
      </trkpt>
      <trkpt lat="49.41636" lon="-1.17553">
        <ele>5.6</ele>
        <time>2020-06-15T15:47:59Z</time>
      </trkpt>
      <trkpt lat="49.41637" lon="-1.17552">
        <ele>5.6</ele>
        <time>2020-06-15T15:48:00Z</time>
      </trkpt>
      <trkpt lat="49.41636" lon="-1.17552">
        <ele>5.6</ele>
        <time>2020-06-15T15:48:01Z</time>
      </trkpt>
      <trkpt lat="49.41636" lon="-1.17552">
        <ele>5.6</ele>
        <time>2020-06-15T15:48:02Z</time>
      </trkpt>
      <trkpt lat="49.41636" lon="-1.17552">
        <ele>5.6</ele>
        <time>2020-06-15T15:48:03Z</time>
      </trkpt>
      <trkpt lat="49.41637" lon="-1.1755">
        <ele>5.6</ele>
        <time>2020-06-15T15:48:04Z</time>
      </trkpt>
      <trkpt lat="49.41637" lon="-1.17549">
        <ele>5.6</ele>
        <time>2020-06-15T15:48:05Z</time>
      </trkpt>
      <trkpt lat="49.41637" lon="-1.17548">
        <ele>5.6</ele>
        <time>2020-06-15T15:48:06Z</time>
      </trkpt>
      <trkpt lat="49.41638" lon="-1.17547">
        <ele>5.6</ele>
        <time>2020-06-15T15:48:07Z</time>
      </trkpt>
      <trkpt lat="49.41637" lon="-1.17547">
        <ele>5.6</ele>
        <time>2020-06-15T15:48:08Z</time>
      </trkpt>
      <trkpt lat="49.41638" lon="-1.17547">
        <ele>5.6</ele>
        <time>2020-06-15T15:48:09Z</time>
      </trkpt>
      <trkpt lat="49.41638" lon="-1.17547">
        <ele>5.6</ele>
        <time>2020-06-15T15:48:10Z</time>
      </trkpt>
      <trkpt lat="49.41638" lon="-1.17547">
        <ele>5.6</ele>
        <time>2020-06-15T15:48:11Z</time>
      </trkpt>
      <trkpt lat="49.41638" lon="-1.17547">
        <ele>5.6</ele>
        <time>2020-06-15T15:48:12Z</time>
      </trkpt>
      <trkpt lat="49.41638" lon="-1.17547">
        <ele>5.6</ele>
        <time>2020-06-15T15:48:13Z</time>
      </trkpt>
      <trkpt lat="49.41638" lon="-1.17547">
        <ele>5.6</ele>
        <time>2020-06-15T15:48:14Z</time>
      </trkpt>
      <trkpt lat="49.41638" lon="-1.17547">
        <ele>5.6</ele>
        <time>2020-06-15T15:48:15Z</time>
      </trkpt>
      <trkpt lat="49.41638" lon="-1.17547">
        <ele>5.6</ele>
        <time>2020-06-15T15:48:16Z</time>
      </trkpt>
      <trkpt lat="49.41648" lon="-1.17569">
        <ele>5.6</ele>
        <time>2020-06-15T15:50:30Z</time>
      </trkpt>
      <trkpt lat="49.41647" lon="-1.17567">
        <ele>5.6</ele>
        <time>2020-06-15T15:50:31Z</time>
      </trkpt>
      <trkpt lat="49.41646" lon="-1.17567">
        <ele>5.6</ele>
        <time>2020-06-15T15:50:32Z</time>
      </trkpt>
      <trkpt lat="49.41646" lon="-1.17567">
        <ele>5.6</ele>
        <time>2020-06-15T15:50:33Z</time>
      </trkpt>
      <trkpt lat="49.41646" lon="-1.17567">
        <ele>5.6</ele>
        <time>2020-06-15T15:50:34Z</time>
      </trkpt>
      <trkpt lat="49.41645" lon="-1.17567">
        <ele>5.6</ele>
        <time>2020-06-15T15:50:35Z</time>
      </trkpt>
      <trkpt lat="49.41644" lon="-1.17567">
        <ele>5.6</ele>
        <time>2020-06-15T15:50:36Z</time>
      </trkpt>
      <trkpt lat="49.41644" lon="-1.17565">
        <ele>5.6</ele>
        <time>2020-06-15T15:50:37Z</time>
      </trkpt>
      <trkpt lat="49.41644" lon="-1.17564">
        <ele>5.6</ele>
        <time>2020-06-15T15:50:38Z</time>
      </trkpt>
      <trkpt lat="49.41644" lon="-1.17564">
        <ele>5.6</ele>
        <time>2020-06-15T15:50:39Z</time>
      </trkpt>
      <trkpt lat="49.41644" lon="-1.17563">
        <ele>5.6</ele>
        <time>2020-06-15T15:50:40Z</time>
      </trkpt>
      <trkpt lat="49.41643" lon="-1.17564">
        <ele>5.6</ele>
        <time>2020-06-15T15:50:41Z</time>
      </trkpt>
      <trkpt lat="49.41642" lon="-1.17564">
        <ele>5.6</ele>
        <time>2020-06-15T15:50:42Z</time>
      </trkpt>
      <trkpt lat="49.41642" lon="-1.17564">
        <ele>5.6</ele>
        <time>2020-06-15T15:50:43Z</time>
      </trkpt>
      <trkpt lat="49.41642" lon="-1.17564">
        <ele>5.6</ele>
        <time>2020-06-15T15:50:44Z</time>
      </trkpt>
      <trkpt lat="49.41641" lon="-1.17565">
        <ele>5.6</ele>
        <time>2020-06-15T15:50:45Z</time>
      </trkpt>
      <trkpt lat="49.41641" lon="-1.17566">
        <ele>5.6</ele>
        <time>2020-06-15T15:50:46Z</time>
      </trkpt>
      <trkpt lat="49.4164" lon="-1.17567">
        <ele>5.6</ele>
        <time>2020-06-15T15:50:47Z</time>
      </trkpt>
      <trkpt lat="49.4164" lon="-1.17568">
        <ele>5.6</ele>
        <time>2020-06-15T15:50:48Z</time>
      </trkpt>
      <trkpt lat="49.41639" lon="-1.17569">
        <ele>5.6</ele>
        <time>2020-06-15T15:50:49Z</time>
      </trkpt>
      <trkpt lat="49.41639" lon="-1.1757">
        <ele>5.6</ele>
        <time>2020-06-15T15:50:50Z</time>
      </trkpt>
      <trkpt lat="49.41639" lon="-1.1757">
        <ele>5.6</ele>
        <time>2020-06-15T15:50:51Z</time>
      </trkpt>
      <trkpt lat="49.41639" lon="-1.1757">
        <ele>5.6</ele>
        <time>2020-06-15T15:50:52Z</time>
      </trkpt>
      <trkpt lat="49.41639" lon="-1.1757">
        <ele>5.6</ele>
        <time>2020-06-15T15:50:53Z</time>
      </trkpt>
      <trkpt lat="49.41639" lon="-1.1757">
        <ele>5.6</ele>
        <time>2020-06-15T15:50:54Z</time>
      </trkpt>
      <trkpt lat="49.41638" lon="-1.1757">
        <ele>5.5</ele>
        <time>2020-06-15T15:50:55Z</time>
      </trkpt>
      <trkpt lat="49.41638" lon="-1.17571">
        <ele>5.5</ele>
        <time>2020-06-15T15:50:56Z</time>
      </trkpt>
      <trkpt lat="49.41637" lon="-1.17571">
        <ele>5.5</ele>
        <time>2020-06-15T15:50:57Z</time>
      </trkpt>
      <trkpt lat="49.41636" lon="-1.17572">
        <ele>5.5</ele>
        <time>2020-06-15T15:50:58Z</time>
      </trkpt>
      <trkpt lat="49.41635" lon="-1.17573">
        <ele>5.5</ele>
        <time>2020-06-15T15:50:59Z</time>
      </trkpt>
      <trkpt lat="49.41635" lon="-1.17574">
        <ele>5.5</ele>
        <time>2020-06-15T15:51:00Z</time>
      </trkpt>
      <trkpt lat="49.41635" lon="-1.17574">
        <ele>5.5</ele>
        <time>2020-06-15T15:51:01Z</time>
      </trkpt>
      <trkpt lat="49.41634" lon="-1.17575">
        <ele>5.5</ele>
        <time>2020-06-15T15:51:02Z</time>
      </trkpt>
      <trkpt lat="49.41634" lon="-1.17576">
        <ele>5.5</ele>
        <time>2020-06-15T15:51:03Z</time>
      </trkpt>
      <trkpt lat="49.41634" lon="-1.17578">
        <ele>5.5</ele>
        <time>2020-06-15T15:51:04Z</time>
      </trkpt>
      <trkpt lat="49.41634" lon="-1.1758">
        <ele>5.4</ele>
        <time>2020-06-15T15:51:05Z</time>
      </trkpt>
      <trkpt lat="49.41633" lon="-1.17583">
        <ele>5.3</ele>
        <time>2020-06-15T15:51:06Z</time>
      </trkpt>
      <trkpt lat="49.41633" lon="-1.17585">
        <ele>5.3</ele>
        <time>2020-06-15T15:51:07Z</time>
      </trkpt>
      <trkpt lat="49.41632" lon="-1.17586">
        <ele>5.3</ele>
        <time>2020-06-15T15:51:08Z</time>
      </trkpt>
      <trkpt lat="49.41632" lon="-1.17587">
        <ele>5.3</ele>
        <time>2020-06-15T15:51:09Z</time>
      </trkpt>
      <trkpt lat="49.41631" lon="-1.17589">
        <ele>5.2</ele>
        <time>2020-06-15T15:51:10Z</time>
      </trkpt>
      <trkpt lat="49.41631" lon="-1.1759">
        <ele>5.2</ele>
        <time>2020-06-15T15:51:11Z</time>
      </trkpt>
      <trkpt lat="49.4163" lon="-1.17591">
        <ele>5.2</ele>
        <time>2020-06-15T15:51:12Z</time>
      </trkpt>
      <trkpt lat="49.4163" lon="-1.17592">
        <ele>5.2</ele>
        <time>2020-06-15T15:51:13Z</time>
      </trkpt>
      <trkpt lat="49.41629" lon="-1.17593">
        <ele>5.1</ele>
        <time>2020-06-15T15:51:14Z</time>
      </trkpt>
      <trkpt lat="49.41628" lon="-1.17595">
        <ele>5.1</ele>
        <time>2020-06-15T15:51:15Z</time>
      </trkpt>
      <trkpt lat="49.41628" lon="-1.17596">
        <ele>5.1</ele>
        <time>2020-06-15T15:51:16Z</time>
      </trkpt>
      <trkpt lat="49.41627" lon="-1.17597">
        <ele>5.1</ele>
        <time>2020-06-15T15:51:17Z</time>
      </trkpt>
      <trkpt lat="49.41627" lon="-1.17599">
        <ele>5</ele>
        <time>2020-06-15T15:51:18Z</time>
      </trkpt>
      <trkpt lat="49.41627" lon="-1.17601">
        <ele>5</ele>
        <time>2020-06-15T15:51:19Z</time>
      </trkpt>
      <trkpt lat="49.41626" lon="-1.17602">
        <ele>5</ele>
        <time>2020-06-15T15:51:20Z</time>
      </trkpt>
      <trkpt lat="49.41625" lon="-1.17603">
        <ele>5</ele>
        <time>2020-06-15T15:51:21Z</time>
      </trkpt>
      <trkpt lat="49.41626" lon="-1.17605">
        <ele>5</ele>
        <time>2020-06-15T15:51:22Z</time>
      </trkpt>
      <trkpt lat="49.41625" lon="-1.17606">
        <ele>5</ele>
        <time>2020-06-15T15:51:23Z</time>
      </trkpt>
      <trkpt lat="49.41625" lon="-1.17608">
        <ele>5</ele>
        <time>2020-06-15T15:51:24Z</time>
      </trkpt>
      <trkpt lat="49.41625" lon="-1.17609">
        <ele>5</ele>
        <time>2020-06-15T15:51:25Z</time>
      </trkpt>
      <trkpt lat="49.41624" lon="-1.17611">
        <ele>5</ele>
        <time>2020-06-15T15:51:26Z</time>
      </trkpt>
      <trkpt lat="49.41624" lon="-1.17614">
        <ele>4.9</ele>
        <time>2020-06-15T15:51:27Z</time>
      </trkpt>
      <trkpt lat="49.41624" lon="-1.17614">
        <ele>4.9</ele>
        <time>2020-06-15T15:51:28Z</time>
      </trkpt>
      <trkpt lat="49.41624" lon="-1.17615">
        <ele>4.9</ele>
        <time>2020-06-15T15:51:29Z</time>
      </trkpt>
      <trkpt lat="49.41624" lon="-1.17616">
        <ele>4.9</ele>
        <time>2020-06-15T15:51:30Z</time>
      </trkpt>
      <trkpt lat="49.41624" lon="-1.17618">
        <ele>4.9</ele>
        <time>2020-06-15T15:51:31Z</time>
      </trkpt>
      <trkpt lat="49.41624" lon="-1.17619">
        <ele>4.9</ele>
        <time>2020-06-15T15:51:32Z</time>
      </trkpt>
      <trkpt lat="49.41624" lon="-1.17619">
        <ele>4.9</ele>
        <time>2020-06-15T15:51:33Z</time>
      </trkpt>
      <trkpt lat="49.41625" lon="-1.17621">
        <ele>4.9</ele>
        <time>2020-06-15T15:51:34Z</time>
      </trkpt>
      <trkpt lat="49.41625" lon="-1.1762">
        <ele>4.9</ele>
        <time>2020-06-15T15:51:35Z</time>
      </trkpt>
      <trkpt lat="49.41626" lon="-1.1762">
        <ele>4.9</ele>
        <time>2020-06-15T15:51:36Z</time>
      </trkpt>
      <trkpt lat="49.41626" lon="-1.1762">
        <ele>4.9</ele>
        <time>2020-06-15T15:51:37Z</time>
      </trkpt>
      <trkpt lat="49.41625" lon="-1.17619">
        <ele>4.9</ele>
        <time>2020-06-15T15:51:38Z</time>
      </trkpt>
      <trkpt lat="49.41624" lon="-1.17618">
        <ele>4.9</ele>
        <time>2020-06-15T15:51:39Z</time>
      </trkpt>
      <trkpt lat="49.41622" lon="-1.17617">
        <ele>4.9</ele>
        <time>2020-06-15T15:51:40Z</time>
      </trkpt>
      <trkpt lat="49.41621" lon="-1.17617">
        <ele>4.9</ele>
        <time>2020-06-15T15:51:41Z</time>
      </trkpt>
      <trkpt lat="49.41619" lon="-1.17616">
        <ele>4.9</ele>
        <time>2020-06-15T15:51:42Z</time>
      </trkpt>
      <trkpt lat="49.41616" lon="-1.17614">
        <ele>4.8</ele>
        <time>2020-06-15T15:51:43Z</time>
      </trkpt>
      <trkpt lat="49.41615" lon="-1.17613">
        <ele>4.8</ele>
        <time>2020-06-15T15:51:44Z</time>
      </trkpt>
      <trkpt lat="49.41612" lon="-1.17611">
        <ele>4.8</ele>
        <time>2020-06-15T15:51:45Z</time>
      </trkpt>
      <trkpt lat="49.41611" lon="-1.1761">
        <ele>4.8</ele>
        <time>2020-06-15T15:51:46Z</time>
      </trkpt>
      <trkpt lat="49.41607" lon="-1.17607">
        <ele>4.8</ele>
        <time>2020-06-15T15:51:47Z</time>
      </trkpt>
      <trkpt lat="49.41605" lon="-1.17606">
        <ele>4.8</ele>
        <time>2020-06-15T15:51:48Z</time>
      </trkpt>
      <trkpt lat="49.41602" lon="-1.17604">
        <ele>4.8</ele>
        <time>2020-06-15T15:51:49Z</time>
      </trkpt>
      <trkpt lat="49.41599" lon="-1.17602">
        <ele>4.7</ele>
        <time>2020-06-15T15:51:50Z</time>
      </trkpt>
      <trkpt lat="49.41597" lon="-1.17599">
        <ele>4.7</ele>
        <time>2020-06-15T15:51:51Z</time>
      </trkpt>
      <trkpt lat="49.41594" lon="-1.17598">
        <ele>4.7</ele>
        <time>2020-06-15T15:51:52Z</time>
      </trkpt>
      <trkpt lat="49.41591" lon="-1.17595">
        <ele>4.7</ele>
        <time>2020-06-15T15:51:53Z</time>
      </trkpt>
      <trkpt lat="49.41588" lon="-1.17593">
        <ele>4.7</ele>
        <time>2020-06-15T15:51:54Z</time>
      </trkpt>
      <trkpt lat="49.41585" lon="-1.1759">
        <ele>4.7</ele>
        <time>2020-06-15T15:51:55Z</time>
      </trkpt>
      <trkpt lat="49.41582" lon="-1.17588">
        <ele>4.7</ele>
        <time>2020-06-15T15:51:56Z</time>
      </trkpt>
      <trkpt lat="49.41579" lon="-1.17585">
        <ele>4.7</ele>
        <time>2020-06-15T15:51:57Z</time>
      </trkpt>
      <trkpt lat="49.41576" lon="-1.17582">
        <ele>4.7</ele>
        <time>2020-06-15T15:51:58Z</time>
      </trkpt>
      <trkpt lat="49.41573" lon="-1.17579">
        <ele>4.8</ele>
        <time>2020-06-15T15:51:59Z</time>
      </trkpt>
      <trkpt lat="49.41571" lon="-1.17575">
        <ele>4.8</ele>
        <time>2020-06-15T15:52:00Z</time>
      </trkpt>
      <trkpt lat="49.4157" lon="-1.17573">
        <ele>4.8</ele>
        <time>2020-06-15T15:52:01Z</time>
      </trkpt>
      <trkpt lat="49.41568" lon="-1.17571">
        <ele>4.8</ele>
        <time>2020-06-15T15:52:02Z</time>
      </trkpt>
      <trkpt lat="49.41565" lon="-1.1757">
        <ele>4.8</ele>
        <time>2020-06-15T15:52:03Z</time>
      </trkpt>
      <trkpt lat="49.41563" lon="-1.1757">
        <ele>4.8</ele>
        <time>2020-06-15T15:52:04Z</time>
      </trkpt>
      <trkpt lat="49.4156" lon="-1.17567">
        <ele>4.8</ele>
        <time>2020-06-15T15:52:05Z</time>
      </trkpt>
      <trkpt lat="49.41559" lon="-1.17566">
        <ele>4.8</ele>
        <time>2020-06-15T15:52:06Z</time>
      </trkpt>
      <trkpt lat="49.41558" lon="-1.17565">
        <ele>4.8</ele>
        <time>2020-06-15T15:52:07Z</time>
      </trkpt>
      <trkpt lat="49.41557" lon="-1.17566">
        <ele>4.8</ele>
        <time>2020-06-15T15:52:08Z</time>
      </trkpt>
      <trkpt lat="49.41557" lon="-1.17566">
        <ele>4.8</ele>
        <time>2020-06-15T15:52:09Z</time>
      </trkpt>
      <trkpt lat="49.41557" lon="-1.17568">
        <ele>4.8</ele>
        <time>2020-06-15T15:52:10Z</time>
      </trkpt>
      <trkpt lat="49.41558" lon="-1.17568">
        <ele>4.8</ele>
        <time>2020-06-15T15:52:11Z</time>
      </trkpt>
      <trkpt lat="49.41558" lon="-1.17569">
        <ele>4.8</ele>
        <time>2020-06-15T15:52:12Z</time>
      </trkpt>
      <trkpt lat="49.41558" lon="-1.17568">
        <ele>4.8</ele>
        <time>2020-06-15T15:52:13Z</time>
      </trkpt>
      <trkpt lat="49.41558" lon="-1.17566">
        <ele>4.9</ele>
        <time>2020-06-15T15:52:14Z</time>
      </trkpt>
      <trkpt lat="49.41559" lon="-1.17567">
        <ele>4.9</ele>
        <time>2020-06-15T15:52:15Z</time>
      </trkpt>
      <trkpt lat="49.41559" lon="-1.17567">
        <ele>4.9</ele>
        <time>2020-06-15T15:52:16Z</time>
      </trkpt>
      <trkpt lat="49.41559" lon="-1.17567">
        <ele>4.9</ele>
        <time>2020-06-15T15:52:17Z</time>
      </trkpt>
      <trkpt lat="49.41558" lon="-1.17567">
        <ele>4.9</ele>
        <time>2020-06-15T15:52:18Z</time>
      </trkpt>
      <trkpt lat="49.41559" lon="-1.17566">
        <ele>4.9</ele>
        <time>2020-06-15T15:52:19Z</time>
      </trkpt>
      <trkpt lat="49.41558" lon="-1.17566">
        <ele>4.9</ele>
        <time>2020-06-15T15:52:20Z</time>
      </trkpt>
      <trkpt lat="49.41558" lon="-1.17567">
        <ele>4.9</ele>
        <time>2020-06-15T15:52:21Z</time>
      </trkpt>
      <trkpt lat="49.41558" lon="-1.17567">
        <ele>4.9</ele>
        <time>2020-06-15T15:52:22Z</time>
      </trkpt>
      <trkpt lat="49.41558" lon="-1.17567">
        <ele>4.9</ele>
        <time>2020-06-15T15:52:23Z</time>
      </trkpt>
      <trkpt lat="49.41558" lon="-1.17567">
        <ele>4.9</ele>
        <time>2020-06-15T15:52:24Z</time>
      </trkpt>
      <trkpt lat="49.41558" lon="-1.17566">
        <ele>4.9</ele>
        <time>2020-06-15T15:52:25Z</time>
      </trkpt>
      <trkpt lat="49.41557" lon="-1.17564">
        <ele>4.9</ele>
        <time>2020-06-15T15:52:26Z</time>
      </trkpt>
      <trkpt lat="49.41557" lon="-1.17564">
        <ele>4.9</ele>
        <time>2020-06-15T15:52:27Z</time>
      </trkpt>
      <trkpt lat="49.41557" lon="-1.17563">
        <ele>4.9</ele>
        <time>2020-06-15T15:52:28Z</time>
      </trkpt>
      <trkpt lat="49.41556" lon="-1.17562">
        <ele>4.9</ele>
        <time>2020-06-15T15:52:29Z</time>
      </trkpt>
      <trkpt lat="49.41556" lon="-1.17562">
        <ele>4.9</ele>
        <time>2020-06-15T15:52:30Z</time>
      </trkpt>
      <trkpt lat="49.41556" lon="-1.17562">
        <ele>5</ele>
        <time>2020-06-15T15:52:31Z</time>
      </trkpt>
      <trkpt lat="49.41556" lon="-1.17561">
        <ele>5</ele>
        <time>2020-06-15T15:52:32Z</time>
      </trkpt>
      <trkpt lat="49.41555" lon="-1.17561">
        <ele>5</ele>
        <time>2020-06-15T15:52:33Z</time>
      </trkpt>
      <trkpt lat="49.41555" lon="-1.17561">
        <ele>5</ele>
        <time>2020-06-15T15:52:34Z</time>
      </trkpt>
      <trkpt lat="49.41555" lon="-1.17561">
        <ele>5</ele>
        <time>2020-06-15T15:52:35Z</time>
      </trkpt>
      <trkpt lat="49.41555" lon="-1.17559">
        <ele>5</ele>
        <time>2020-06-15T15:52:36Z</time>
      </trkpt>
      <trkpt lat="49.41556" lon="-1.17553">
        <ele>5</ele>
        <time>2020-06-15T15:52:37Z</time>
      </trkpt>
      <trkpt lat="49.41557" lon="-1.17551">
        <ele>5</ele>
        <time>2020-06-15T15:52:38Z</time>
      </trkpt>
      <trkpt lat="49.41558" lon="-1.17547">
        <ele>5.1</ele>
        <time>2020-06-15T15:52:39Z</time>
      </trkpt>
      <trkpt lat="49.41558" lon="-1.17545">
        <ele>5.1</ele>
        <time>2020-06-15T15:52:40Z</time>
      </trkpt>
      <trkpt lat="49.41559" lon="-1.17543">
        <ele>5.1</ele>
        <time>2020-06-15T15:52:41Z</time>
      </trkpt>
      <trkpt lat="49.4156" lon="-1.17542">
        <ele>5.1</ele>
        <time>2020-06-15T15:52:42Z</time>
      </trkpt>
      <trkpt lat="49.41561" lon="-1.1754">
        <ele>5.1</ele>
        <time>2020-06-15T15:52:43Z</time>
      </trkpt>
      <trkpt lat="49.41562" lon="-1.17539">
        <ele>5.1</ele>
        <time>2020-06-15T15:52:44Z</time>
      </trkpt>
      <trkpt lat="49.41563" lon="-1.17538">
        <ele>5.1</ele>
        <time>2020-06-15T15:52:45Z</time>
      </trkpt>
      <trkpt lat="49.41563" lon="-1.17536">
        <ele>5.2</ele>
        <time>2020-06-15T15:52:46Z</time>
      </trkpt>
      <trkpt lat="49.41564" lon="-1.17535">
        <ele>5.2</ele>
        <time>2020-06-15T15:52:47Z</time>
      </trkpt>
      <trkpt lat="49.41565" lon="-1.17531">
        <ele>5.2</ele>
        <time>2020-06-15T15:52:48Z</time>
      </trkpt>
      <trkpt lat="49.41566" lon="-1.1753">
        <ele>5.2</ele>
        <time>2020-06-15T15:52:49Z</time>
      </trkpt>
      <trkpt lat="49.41567" lon="-1.17528">
        <ele>5.2</ele>
        <time>2020-06-15T15:52:50Z</time>
      </trkpt>
      <trkpt lat="49.41568" lon="-1.17526">
        <ele>5.2</ele>
        <time>2020-06-15T15:52:51Z</time>
      </trkpt>
      <trkpt lat="49.4157" lon="-1.17525">
        <ele>5.2</ele>
        <time>2020-06-15T15:52:52Z</time>
      </trkpt>
      <trkpt lat="49.41571" lon="-1.17524">
        <ele>5.2</ele>
        <time>2020-06-15T15:52:53Z</time>
      </trkpt>
      <trkpt lat="49.41572" lon="-1.17523">
        <ele>5.2</ele>
        <time>2020-06-15T15:52:54Z</time>
      </trkpt>
      <trkpt lat="49.41573" lon="-1.17523">
        <ele>5.2</ele>
        <time>2020-06-15T15:52:55Z</time>
      </trkpt>
      <trkpt lat="49.41574" lon="-1.17524">
        <ele>5.2</ele>
        <time>2020-06-15T15:52:56Z</time>
      </trkpt>
      <trkpt lat="49.41574" lon="-1.17526">
        <ele>5.2</ele>
        <time>2020-06-15T15:52:57Z</time>
      </trkpt>
      <trkpt lat="49.41575" lon="-1.17528">
        <ele>5.2</ele>
        <time>2020-06-15T15:52:58Z</time>
      </trkpt>
      <trkpt lat="49.41575" lon="-1.17528">
        <ele>5.2</ele>
        <time>2020-06-15T15:52:59Z</time>
      </trkpt>
      <trkpt lat="49.41575" lon="-1.17528">
        <ele>5.2</ele>
        <time>2020-06-15T15:53:00Z</time>
      </trkpt>
      <trkpt lat="49.41575" lon="-1.17528">
        <ele>5.2</ele>
        <time>2020-06-15T15:53:01Z</time>
      </trkpt>
      <trkpt lat="49.41574" lon="-1.17529">
        <ele>5.2</ele>
        <time>2020-06-15T15:53:02Z</time>
      </trkpt>
      <trkpt lat="49.41573" lon="-1.17529">
        <ele>5.2</ele>
        <time>2020-06-15T15:53:03Z</time>
      </trkpt>
      <trkpt lat="49.41572" lon="-1.1753">
        <ele>5.2</ele>
        <time>2020-06-15T15:53:04Z</time>
      </trkpt>
      <trkpt lat="49.41571" lon="-1.1753">
        <ele>5.2</ele>
        <time>2020-06-15T15:53:05Z</time>
      </trkpt>
      <trkpt lat="49.41571" lon="-1.17531">
        <ele>5.3</ele>
        <time>2020-06-15T15:53:06Z</time>
      </trkpt>
      <trkpt lat="49.4157" lon="-1.17532">
        <ele>5.3</ele>
        <time>2020-06-15T15:53:07Z</time>
      </trkpt>
      <trkpt lat="49.41569" lon="-1.17532">
        <ele>5.3</ele>
        <time>2020-06-15T15:53:08Z</time>
      </trkpt>
      <trkpt lat="49.41568" lon="-1.17533">
        <ele>5.3</ele>
        <time>2020-06-15T15:53:09Z</time>
      </trkpt>
      <trkpt lat="49.41567" lon="-1.17533">
        <ele>5.3</ele>
        <time>2020-06-15T15:54:08Z</time>
      </trkpt>
      <trkpt lat="49.41566" lon="-1.17534">
        <ele>5.3</ele>
        <time>2020-06-15T15:54:09Z</time>
      </trkpt>
      <trkpt lat="49.41565" lon="-1.17534">
        <ele>5.3</ele>
        <time>2020-06-15T15:54:10Z</time>
      </trkpt>
      <trkpt lat="49.41565" lon="-1.17534">
        <ele>5.3</ele>
        <time>2020-06-15T15:54:11Z</time>
      </trkpt>
      <trkpt lat="49.41565" lon="-1.17535">
        <ele>5.3</ele>
        <time>2020-06-15T15:54:12Z</time>
      </trkpt>
      <trkpt lat="49.41565" lon="-1.17535">
        <ele>5.3</ele>
        <time>2020-06-15T15:54:13Z</time>
      </trkpt>
      <trkpt lat="49.41565" lon="-1.17535">
        <ele>5.3</ele>
        <time>2020-06-15T15:54:14Z</time>
      </trkpt>
      <trkpt lat="49.41565" lon="-1.17535">
        <ele>5.3</ele>
        <time>2020-06-15T15:54:15Z</time>
      </trkpt>
      <trkpt lat="49.41565" lon="-1.17535">
        <ele>5.3</ele>
        <time>2020-06-15T15:54:16Z</time>
      </trkpt>
      <trkpt lat="49.41565" lon="-1.17536">
        <ele>5.3</ele>
        <time>2020-06-15T15:54:17Z</time>
      </trkpt>
      <trkpt lat="49.41567" lon="-1.17535">
        <ele>5.3</ele>
        <time>2020-06-15T15:54:18Z</time>
      </trkpt>
      <trkpt lat="49.41567" lon="-1.17534">
        <ele>5.3</ele>
        <time>2020-06-15T15:54:19Z</time>
      </trkpt>
      <trkpt lat="49.41567" lon="-1.17534">
        <ele>5.3</ele>
        <time>2020-06-15T15:54:20Z</time>
      </trkpt>
      <trkpt lat="49.41567" lon="-1.17534">
        <ele>5.3</ele>
        <time>2020-06-15T15:54:21Z</time>
      </trkpt>
      <trkpt lat="49.41563" lon="-1.1754">
        <ele>5.3</ele>
        <time>2020-06-15T15:57:09Z</time>
      </trkpt>
      <trkpt lat="49.41563" lon="-1.17538">
        <ele>5.3</ele>
        <time>2020-06-15T15:57:10Z</time>
      </trkpt>
      <trkpt lat="49.41564" lon="-1.17537">
        <ele>5.3</ele>
        <time>2020-06-15T15:57:11Z</time>
      </trkpt>
      <trkpt lat="49.41565" lon="-1.17535">
        <ele>5.3</ele>
        <time>2020-06-15T15:57:12Z</time>
      </trkpt>
      <trkpt lat="49.41566" lon="-1.17534">
        <ele>5.3</ele>
        <time>2020-06-15T15:57:13Z</time>
      </trkpt>
      <trkpt lat="49.41566" lon="-1.17531">
        <ele>5.3</ele>
        <time>2020-06-15T15:57:14Z</time>
      </trkpt>
      <trkpt lat="49.41566" lon="-1.17529">
        <ele>5.3</ele>
        <time>2020-06-15T15:57:15Z</time>
      </trkpt>
      <trkpt lat="49.41567" lon="-1.17527">
        <ele>5.3</ele>
        <time>2020-06-15T15:57:16Z</time>
      </trkpt>
      <trkpt lat="49.41568" lon="-1.17526">
        <ele>5.3</ele>
        <time>2020-06-15T15:57:17Z</time>
      </trkpt>
      <trkpt lat="49.41568" lon="-1.17524">
        <ele>5.3</ele>
        <time>2020-06-15T15:57:18Z</time>
      </trkpt>
      <trkpt lat="49.41568" lon="-1.17522">
        <ele>5.3</ele>
        <time>2020-06-15T15:57:19Z</time>
      </trkpt>
      <trkpt lat="49.41569" lon="-1.17519">
        <ele>5.2</ele>
        <time>2020-06-15T15:57:20Z</time>
      </trkpt>
      <trkpt lat="49.41569" lon="-1.17517">
        <ele>5.1</ele>
        <time>2020-06-15T15:57:21Z</time>
      </trkpt>
      <trkpt lat="49.4157" lon="-1.17515">
        <ele>5</ele>
        <time>2020-06-15T15:57:22Z</time>
      </trkpt>
      <trkpt lat="49.4157" lon="-1.17514">
        <ele>5</ele>
        <time>2020-06-15T15:57:23Z</time>
      </trkpt>
      <trkpt lat="49.4157" lon="-1.17514">
        <ele>5</ele>
        <time>2020-06-15T15:57:24Z</time>
      </trkpt>
      <trkpt lat="49.4157" lon="-1.17512">
        <ele>4.9</ele>
        <time>2020-06-15T15:57:25Z</time>
      </trkpt>
      <trkpt lat="49.41569" lon="-1.17512">
        <ele>4.8</ele>
        <time>2020-06-15T15:57:26Z</time>
      </trkpt>
      <trkpt lat="49.41569" lon="-1.17511">
        <ele>4.8</ele>
        <time>2020-06-15T15:57:27Z</time>
      </trkpt>
      <trkpt lat="49.41569" lon="-1.17511">
        <ele>4.8</ele>
        <time>2020-06-15T15:57:28Z</time>
      </trkpt>
      <trkpt lat="49.41569" lon="-1.17511">
        <ele>4.8</ele>
        <time>2020-06-15T15:57:29Z</time>
      </trkpt>
      <trkpt lat="49.41569" lon="-1.17511">
        <ele>4.8</ele>
        <time>2020-06-15T15:57:30Z</time>
      </trkpt>
      <trkpt lat="49.41569" lon="-1.17511">
        <ele>4.8</ele>
        <time>2020-06-15T15:57:31Z</time>
      </trkpt>
      <trkpt lat="49.41569" lon="-1.17511">
        <ele>4.8</ele>
        <time>2020-06-15T15:57:32Z</time>
      </trkpt>
      <trkpt lat="49.41569" lon="-1.17511">
        <ele>4.8</ele>
        <time>2020-06-15T15:57:33Z</time>
      </trkpt>
      <trkpt lat="49.41569" lon="-1.17511">
        <ele>4.8</ele>
        <time>2020-06-15T15:57:34Z</time>
      </trkpt>
      <trkpt lat="49.41569" lon="-1.17511">
        <ele>4.8</ele>
        <time>2020-06-15T15:57:35Z</time>
      </trkpt>
      <trkpt lat="49.41572" lon="-1.17508">
        <ele>4.6</ele>
        <time>2020-06-15T15:57:59Z</time>
      </trkpt>
      <trkpt lat="49.41573" lon="-1.17507">
        <ele>4.5</ele>
        <time>2020-06-15T15:58:00Z</time>
      </trkpt>
      <trkpt lat="49.41572" lon="-1.17507">
        <ele>4.5</ele>
        <time>2020-06-15T15:58:01Z</time>
      </trkpt>
      <trkpt lat="49.41573" lon="-1.17505">
        <ele>4.4</ele>
        <time>2020-06-15T15:58:02Z</time>
      </trkpt>
      <trkpt lat="49.41573" lon="-1.17504">
        <ele>4.4</ele>
        <time>2020-06-15T15:58:03Z</time>
      </trkpt>
      <trkpt lat="49.41573" lon="-1.17503">
        <ele>4.3</ele>
        <time>2020-06-15T15:58:04Z</time>
      </trkpt>
      <trkpt lat="49.41574" lon="-1.17501">
        <ele>4.2</ele>
        <time>2020-06-15T15:58:05Z</time>
      </trkpt>
      <trkpt lat="49.41575" lon="-1.17499">
        <ele>4.2</ele>
        <time>2020-06-15T15:58:06Z</time>
      </trkpt>
      <trkpt lat="49.41575" lon="-1.17498">
        <ele>4.1</ele>
        <time>2020-06-15T15:58:07Z</time>
      </trkpt>
      <trkpt lat="49.41576" lon="-1.17497">
        <ele>4</ele>
        <time>2020-06-15T15:58:08Z</time>
      </trkpt>
      <trkpt lat="49.41577" lon="-1.17495">
        <ele>3.9</ele>
        <time>2020-06-15T15:58:09Z</time>
      </trkpt>
      <trkpt lat="49.41577" lon="-1.17494">
        <ele>3.8</ele>
        <time>2020-06-15T15:58:10Z</time>
      </trkpt>
      <trkpt lat="49.41578" lon="-1.17492">
        <ele>3.8</ele>
        <time>2020-06-15T15:58:11Z</time>
      </trkpt>
      <trkpt lat="49.41578" lon="-1.1749">
        <ele>3.7</ele>
        <time>2020-06-15T15:58:12Z</time>
      </trkpt>
      <trkpt lat="49.41579" lon="-1.17488">
        <ele>3.6</ele>
        <time>2020-06-15T15:58:13Z</time>
      </trkpt>
      <trkpt lat="49.41579" lon="-1.17487">
        <ele>3.5</ele>
        <time>2020-06-15T15:58:14Z</time>
      </trkpt>
      <trkpt lat="49.41579" lon="-1.17486">
        <ele>3.5</ele>
        <time>2020-06-15T15:58:15Z</time>
      </trkpt>
      <trkpt lat="49.41581" lon="-1.17485">
        <ele>3.4</ele>
        <time>2020-06-15T15:58:16Z</time>
      </trkpt>
      <trkpt lat="49.41581" lon="-1.17483">
        <ele>3.3</ele>
        <time>2020-06-15T15:58:17Z</time>
      </trkpt>
      <trkpt lat="49.41582" lon="-1.17481">
        <ele>3.2</ele>
        <time>2020-06-15T15:58:18Z</time>
      </trkpt>
      <trkpt lat="49.41582" lon="-1.17479">
        <ele>3.1</ele>
        <time>2020-06-15T15:58:19Z</time>
      </trkpt>
      <trkpt lat="49.41582" lon="-1.17478">
        <ele>3</ele>
        <time>2020-06-15T15:58:20Z</time>
      </trkpt>
      <trkpt lat="49.41582" lon="-1.17477">
        <ele>2.9</ele>
        <time>2020-06-15T15:58:21Z</time>
      </trkpt>
      <trkpt lat="49.41582" lon="-1.17476">
        <ele>2.9</ele>
        <time>2020-06-15T15:58:22Z</time>
      </trkpt>
      <trkpt lat="49.41583" lon="-1.17475">
        <ele>2.8</ele>
        <time>2020-06-15T15:58:23Z</time>
      </trkpt>
      <trkpt lat="49.41583" lon="-1.17474">
        <ele>2.8</ele>
        <time>2020-06-15T15:58:24Z</time>
      </trkpt>
      <trkpt lat="49.41582" lon="-1.17474">
        <ele>2.8</ele>
        <time>2020-06-15T15:58:25Z</time>
      </trkpt>
      <trkpt lat="49.41582" lon="-1.17473">
        <ele>2.7</ele>
        <time>2020-06-15T15:58:26Z</time>
      </trkpt>
      <trkpt lat="49.41583" lon="-1.1747">
        <ele>2.6</ele>
        <time>2020-06-15T15:58:27Z</time>
      </trkpt>
      <trkpt lat="49.41583" lon="-1.17469">
        <ele>2.5</ele>
        <time>2020-06-15T15:58:28Z</time>
      </trkpt>
      <trkpt lat="49.41584" lon="-1.17468">
        <ele>2.5</ele>
        <time>2020-06-15T15:58:29Z</time>
      </trkpt>
      <trkpt lat="49.41584" lon="-1.17467">
        <ele>2.4</ele>
        <time>2020-06-15T15:58:30Z</time>
      </trkpt>
      <trkpt lat="49.41585" lon="-1.17466">
        <ele>2.3</ele>
        <time>2020-06-15T15:58:31Z</time>
      </trkpt>
      <trkpt lat="49.41585" lon="-1.17465">
        <ele>2.3</ele>
        <time>2020-06-15T15:58:32Z</time>
      </trkpt>
      <trkpt lat="49.41585" lon="-1.17463">
        <ele>2.2</ele>
        <time>2020-06-15T15:58:33Z</time>
      </trkpt>
      <trkpt lat="49.41585" lon="-1.17462">
        <ele>2.1</ele>
        <time>2020-06-15T15:58:34Z</time>
      </trkpt>
      <trkpt lat="49.41586" lon="-1.17461">
        <ele>2.1</ele>
        <time>2020-06-15T15:58:35Z</time>
      </trkpt>
      <trkpt lat="49.41586" lon="-1.1746">
        <ele>2</ele>
        <time>2020-06-15T15:58:36Z</time>
      </trkpt>
      <trkpt lat="49.41586" lon="-1.17459">
        <ele>1.9</ele>
        <time>2020-06-15T15:58:37Z</time>
      </trkpt>
      <trkpt lat="49.41587" lon="-1.17457">
        <ele>1.8</ele>
        <time>2020-06-15T15:58:38Z</time>
      </trkpt>
      <trkpt lat="49.41587" lon="-1.17456">
        <ele>1.8</ele>
        <time>2020-06-15T15:58:39Z</time>
      </trkpt>
      <trkpt lat="49.41588" lon="-1.17455">
        <ele>1.7</ele>
        <time>2020-06-15T15:58:40Z</time>
      </trkpt>
      <trkpt lat="49.41589" lon="-1.17454">
        <ele>1.6</ele>
        <time>2020-06-15T15:58:41Z</time>
      </trkpt>
      <trkpt lat="49.41589" lon="-1.17452">
        <ele>1.5</ele>
        <time>2020-06-15T15:58:42Z</time>
      </trkpt>
      <trkpt lat="49.41589" lon="-1.17451">
        <ele>1.4</ele>
        <time>2020-06-15T15:58:43Z</time>
      </trkpt>
      <trkpt lat="49.41589" lon="-1.1745">
        <ele>1.4</ele>
        <time>2020-06-15T15:58:44Z</time>
      </trkpt>
      <trkpt lat="49.41589" lon="-1.17449">
        <ele>1.3</ele>
        <time>2020-06-15T15:58:45Z</time>
      </trkpt>
      <trkpt lat="49.41589" lon="-1.17447">
        <ele>1.2</ele>
        <time>2020-06-15T15:58:46Z</time>
      </trkpt>
      <trkpt lat="49.41589" lon="-1.17447">
        <ele>1.2</ele>
        <time>2020-06-15T15:58:47Z</time>
      </trkpt>
      <trkpt lat="49.41589" lon="-1.17447">
        <ele>1.2</ele>
        <time>2020-06-15T15:58:48Z</time>
      </trkpt>
      <trkpt lat="49.41589" lon="-1.17447">
        <ele>1.2</ele>
        <time>2020-06-15T15:58:49Z</time>
      </trkpt>
      <trkpt lat="49.41589" lon="-1.17447">
        <ele>1.2</ele>
        <time>2020-06-15T15:58:50Z</time>
      </trkpt>
      <trkpt lat="49.41589" lon="-1.17446">
        <ele>1.2</ele>
        <time>2020-06-15T15:58:51Z</time>
      </trkpt>
      <trkpt lat="49.4159" lon="-1.17446">
        <ele>1.2</ele>
        <time>2020-06-15T15:58:52Z</time>
      </trkpt>
      <trkpt lat="49.4159" lon="-1.17446">
        <ele>1.1</ele>
        <time>2020-06-15T15:58:53Z</time>
      </trkpt>
      <trkpt lat="49.4159" lon="-1.17445">
        <ele>1</ele>
        <time>2020-06-15T15:58:54Z</time>
      </trkpt>
      <trkpt lat="49.4159" lon="-1.17444">
        <ele>1</ele>
        <time>2020-06-15T15:58:55Z</time>
      </trkpt>
      <trkpt lat="49.4159" lon="-1.17444">
        <ele>1</ele>
        <time>2020-06-15T15:58:56Z</time>
      </trkpt>
      <trkpt lat="49.4159" lon="-1.17444">
        <ele>1</ele>
        <time>2020-06-15T15:58:57Z</time>
      </trkpt>
      <trkpt lat="49.4159" lon="-1.17453">
        <ele>0.5</ele>
        <time>2020-06-15T15:59:14Z</time>
      </trkpt>
      <trkpt lat="49.41589" lon="-1.17454">
        <ele>0.4</ele>
        <time>2020-06-15T15:59:15Z</time>
      </trkpt>
      <trkpt lat="49.41588" lon="-1.17455">
        <ele>0.3</ele>
        <time>2020-06-15T15:59:16Z</time>
      </trkpt>
      <trkpt lat="49.41588" lon="-1.17455">
        <ele>0.2</ele>
        <time>2020-06-15T15:59:17Z</time>
      </trkpt>
      <trkpt lat="49.41588" lon="-1.17456">
        <ele>0.3</ele>
        <time>2020-06-15T15:59:18Z</time>
      </trkpt>
      <trkpt lat="49.41588" lon="-1.17457">
        <ele>0.4</ele>
        <time>2020-06-15T15:59:19Z</time>
      </trkpt>
      <trkpt lat="49.41587" lon="-1.17459">
        <ele>0.5</ele>
        <time>2020-06-15T15:59:20Z</time>
      </trkpt>
      <trkpt lat="49.41587" lon="-1.1746">
        <ele>0.6</ele>
        <time>2020-06-15T15:59:21Z</time>
      </trkpt>
      <trkpt lat="49.41587" lon="-1.1746">
        <ele>0.7</ele>
        <time>2020-06-15T15:59:22Z</time>
      </trkpt>
      <trkpt lat="49.41586" lon="-1.17462">
        <ele>0.8</ele>
        <time>2020-06-15T15:59:23Z</time>
      </trkpt>
      <trkpt lat="49.41586" lon="-1.17463">
        <ele>0.9</ele>
        <time>2020-06-15T15:59:24Z</time>
      </trkpt>
      <trkpt lat="49.41585" lon="-1.17465">
        <ele>1.1</ele>
        <time>2020-06-15T15:59:25Z</time>
      </trkpt>
      <trkpt lat="49.41585" lon="-1.17466">
        <ele>1.1</ele>
        <time>2020-06-15T15:59:26Z</time>
      </trkpt>
      <trkpt lat="49.41585" lon="-1.17468">
        <ele>1.3</ele>
        <time>2020-06-15T15:59:27Z</time>
      </trkpt>
      <trkpt lat="49.41584" lon="-1.17469">
        <ele>1.4</ele>
        <time>2020-06-15T15:59:28Z</time>
      </trkpt>
      <trkpt lat="49.41585" lon="-1.1747">
        <ele>1.5</ele>
        <time>2020-06-15T15:59:29Z</time>
      </trkpt>
      <trkpt lat="49.41585" lon="-1.17471">
        <ele>1.6</ele>
        <time>2020-06-15T15:59:30Z</time>
      </trkpt>
      <trkpt lat="49.41584" lon="-1.17472">
        <ele>1.7</ele>
        <time>2020-06-15T15:59:31Z</time>
      </trkpt>
      <trkpt lat="49.41584" lon="-1.17474">
        <ele>1.8</ele>
        <time>2020-06-15T15:59:32Z</time>
      </trkpt>
      <trkpt lat="49.41583" lon="-1.17475">
        <ele>1.9</ele>
        <time>2020-06-15T15:59:33Z</time>
      </trkpt>
      <trkpt lat="49.41583" lon="-1.17477">
        <ele>2</ele>
        <time>2020-06-15T15:59:34Z</time>
      </trkpt>
      <trkpt lat="49.41582" lon="-1.17479">
        <ele>2.2</ele>
        <time>2020-06-15T15:59:35Z</time>
      </trkpt>
      <trkpt lat="49.41582" lon="-1.1748">
        <ele>2.2</ele>
        <time>2020-06-15T15:59:36Z</time>
      </trkpt>
      <trkpt lat="49.41582" lon="-1.17481">
        <ele>2.3</ele>
        <time>2020-06-15T15:59:37Z</time>
      </trkpt>
      <trkpt lat="49.41582" lon="-1.17483">
        <ele>2.4</ele>
        <time>2020-06-15T15:59:38Z</time>
      </trkpt>
      <trkpt lat="49.41583" lon="-1.17484">
        <ele>2.5</ele>
        <time>2020-06-15T15:59:39Z</time>
      </trkpt>
      <trkpt lat="49.41583" lon="-1.17485">
        <ele>2.6</ele>
        <time>2020-06-15T15:59:40Z</time>
      </trkpt>
      <trkpt lat="49.41583" lon="-1.17486">
        <ele>2.7</ele>
        <time>2020-06-15T15:59:41Z</time>
      </trkpt>
      <trkpt lat="49.41583" lon="-1.17488">
        <ele>2.9</ele>
        <time>2020-06-15T15:59:42Z</time>
      </trkpt>
      <trkpt lat="49.41582" lon="-1.17489">
        <ele>3</ele>
        <time>2020-06-15T15:59:43Z</time>
      </trkpt>
      <trkpt lat="49.41581" lon="-1.1749">
        <ele>3</ele>
        <time>2020-06-15T15:59:44Z</time>
      </trkpt>
      <trkpt lat="49.41581" lon="-1.17491">
        <ele>3.1</ele>
        <time>2020-06-15T15:59:45Z</time>
      </trkpt>
      <trkpt lat="49.41579" lon="-1.17493">
        <ele>3.3</ele>
        <time>2020-06-15T15:59:46Z</time>
      </trkpt>
      <trkpt lat="49.41579" lon="-1.17494">
        <ele>3.4</ele>
        <time>2020-06-15T15:59:47Z</time>
      </trkpt>
      <trkpt lat="49.41578" lon="-1.17495">
        <ele>3.5</ele>
        <time>2020-06-15T15:59:48Z</time>
      </trkpt>
      <trkpt lat="49.41577" lon="-1.17496">
        <ele>3.6</ele>
        <time>2020-06-15T15:59:49Z</time>
      </trkpt>
      <trkpt lat="49.41577" lon="-1.17497">
        <ele>3.7</ele>
        <time>2020-06-15T15:59:50Z</time>
      </trkpt>
      <trkpt lat="49.41576" lon="-1.17499">
        <ele>3.8</ele>
        <time>2020-06-15T15:59:51Z</time>
      </trkpt>
      <trkpt lat="49.41576" lon="-1.175">
        <ele>3.9</ele>
        <time>2020-06-15T15:59:52Z</time>
      </trkpt>
      <trkpt lat="49.41575" lon="-1.17502">
        <ele>4</ele>
        <time>2020-06-15T15:59:53Z</time>
      </trkpt>
      <trkpt lat="49.41575" lon="-1.17503">
        <ele>4.1</ele>
        <time>2020-06-15T15:59:54Z</time>
      </trkpt>
      <trkpt lat="49.41575" lon="-1.17505">
        <ele>4.2</ele>
        <time>2020-06-15T15:59:55Z</time>
      </trkpt>
      <trkpt lat="49.41575" lon="-1.17506">
        <ele>4.2</ele>
        <time>2020-06-15T15:59:56Z</time>
      </trkpt>
      <trkpt lat="49.41575" lon="-1.17506">
        <ele>4.3</ele>
        <time>2020-06-15T15:59:57Z</time>
      </trkpt>
      <trkpt lat="49.41576" lon="-1.17508">
        <ele>4.4</ele>
        <time>2020-06-15T15:59:58Z</time>
      </trkpt>
      <trkpt lat="49.41576" lon="-1.1751">
        <ele>4.9</ele>
        <time>2020-06-15T15:59:59Z</time>
      </trkpt>
      <trkpt lat="49.41577" lon="-1.17512">
        <ele>4.9</ele>
        <time>2020-06-15T16:00:00Z</time>
      </trkpt>
      <trkpt lat="49.41578" lon="-1.17512">
        <ele>4.8</ele>
        <time>2020-06-15T16:00:01Z</time>
      </trkpt>
      <trkpt lat="49.41579" lon="-1.17512">
        <ele>4.8</ele>
        <time>2020-06-15T16:00:02Z</time>
      </trkpt>
      <trkpt lat="49.41579" lon="-1.17512">
        <ele>4.8</ele>
        <time>2020-06-15T16:00:03Z</time>
      </trkpt>
      <trkpt lat="49.41579" lon="-1.17512">
        <ele>4.8</ele>
        <time>2020-06-15T16:00:04Z</time>
      </trkpt>
      <trkpt lat="49.4158" lon="-1.17513">
        <ele>4.7</ele>
        <time>2020-06-15T16:00:05Z</time>
      </trkpt>
      <trkpt lat="49.41582" lon="-1.17513">
        <ele>4.7</ele>
        <time>2020-06-15T16:00:06Z</time>
      </trkpt>
      <trkpt lat="49.41583" lon="-1.17512">
        <ele>4.6</ele>
        <time>2020-06-15T16:00:07Z</time>
      </trkpt>
      <trkpt lat="49.41585" lon="-1.17511">
        <ele>4.6</ele>
        <time>2020-06-15T16:00:08Z</time>
      </trkpt>
      <trkpt lat="49.41586" lon="-1.17511">
        <ele>4.5</ele>
        <time>2020-06-15T16:00:09Z</time>
      </trkpt>
      <trkpt lat="49.41587" lon="-1.1751">
        <ele>4.5</ele>
        <time>2020-06-15T16:00:10Z</time>
      </trkpt>
      <trkpt lat="49.41588" lon="-1.1751">
        <ele>4.5</ele>
        <time>2020-06-15T16:00:11Z</time>
      </trkpt>
      <trkpt lat="49.4159" lon="-1.1751">
        <ele>4.5</ele>
        <time>2020-06-15T16:00:12Z</time>
      </trkpt>
      <trkpt lat="49.41593" lon="-1.17509">
        <ele>4.4</ele>
        <time>2020-06-15T16:00:13Z</time>
      </trkpt>
      <trkpt lat="49.41594" lon="-1.17509">
        <ele>4.4</ele>
        <time>2020-06-15T16:00:14Z</time>
      </trkpt>
      <trkpt lat="49.41595" lon="-1.17509">
        <ele>4.4</ele>
        <time>2020-06-15T16:00:15Z</time>
      </trkpt>
      <trkpt lat="49.41597" lon="-1.17508">
        <ele>4.4</ele>
        <time>2020-06-15T16:00:16Z</time>
      </trkpt>
      <trkpt lat="49.41598" lon="-1.17508">
        <ele>4.4</ele>
        <time>2020-06-15T16:00:17Z</time>
      </trkpt>
      <trkpt lat="49.41599" lon="-1.17508">
        <ele>4.4</ele>
        <time>2020-06-15T16:00:18Z</time>
      </trkpt>
      <trkpt lat="49.416" lon="-1.17508">
        <ele>4.4</ele>
        <time>2020-06-15T16:00:19Z</time>
      </trkpt>
      <trkpt lat="49.41601" lon="-1.17509">
        <ele>4.4</ele>
        <time>2020-06-15T16:00:20Z</time>
      </trkpt>
      <trkpt lat="49.41602" lon="-1.17509">
        <ele>4.3</ele>
        <time>2020-06-15T16:00:21Z</time>
      </trkpt>
      <trkpt lat="49.41602" lon="-1.1751">
        <ele>4.3</ele>
        <time>2020-06-15T16:00:22Z</time>
      </trkpt>
      <trkpt lat="49.41603" lon="-1.17512">
        <ele>4.3</ele>
        <time>2020-06-15T16:00:23Z</time>
      </trkpt>
      <trkpt lat="49.41604" lon="-1.17513">
        <ele>4.3</ele>
        <time>2020-06-15T16:00:24Z</time>
      </trkpt>
      <trkpt lat="49.41604" lon="-1.17514">
        <ele>4.2</ele>
        <time>2020-06-15T16:00:25Z</time>
      </trkpt>
      <trkpt lat="49.41605" lon="-1.17515">
        <ele>4.3</ele>
        <time>2020-06-15T16:00:26Z</time>
      </trkpt>
      <trkpt lat="49.41606" lon="-1.17516">
        <ele>4.3</ele>
        <time>2020-06-15T16:00:27Z</time>
      </trkpt>
      <trkpt lat="49.41606" lon="-1.17517">
        <ele>4.3</ele>
        <time>2020-06-15T16:00:28Z</time>
      </trkpt>
      <trkpt lat="49.41607" lon="-1.17517">
        <ele>4.3</ele>
        <time>2020-06-15T16:00:29Z</time>
      </trkpt>
      <trkpt lat="49.41607" lon="-1.17518">
        <ele>4.3</ele>
        <time>2020-06-15T16:00:30Z</time>
      </trkpt>
      <trkpt lat="49.41607" lon="-1.17519">
        <ele>4.3</ele>
        <time>2020-06-15T16:00:31Z</time>
      </trkpt>
      <trkpt lat="49.41607" lon="-1.17519">
        <ele>4.3</ele>
        <time>2020-06-15T16:00:32Z</time>
      </trkpt>
      <trkpt lat="49.41606" lon="-1.1752">
        <ele>4.3</ele>
        <time>2020-06-15T16:00:33Z</time>
      </trkpt>
      <trkpt lat="49.41606" lon="-1.17521">
        <ele>4.3</ele>
        <time>2020-06-15T16:00:34Z</time>
      </trkpt>
      <trkpt lat="49.41605" lon="-1.17522">
        <ele>4.3</ele>
        <time>2020-06-15T16:00:35Z</time>
      </trkpt>
      <trkpt lat="49.41605" lon="-1.17522">
        <ele>4.3</ele>
        <time>2020-06-15T16:00:36Z</time>
      </trkpt>
      <trkpt lat="49.41605" lon="-1.17524">
        <ele>4.3</ele>
        <time>2020-06-15T16:00:37Z</time>
      </trkpt>
      <trkpt lat="49.41604" lon="-1.17525">
        <ele>4.3</ele>
        <time>2020-06-15T16:00:38Z</time>
      </trkpt>
      <trkpt lat="49.41604" lon="-1.17525">
        <ele>4.3</ele>
        <time>2020-06-15T16:00:39Z</time>
      </trkpt>
      <trkpt lat="49.41604" lon="-1.17526">
        <ele>4.3</ele>
        <time>2020-06-15T16:00:40Z</time>
      </trkpt>
      <trkpt lat="49.41603" lon="-1.17526">
        <ele>4.3</ele>
        <time>2020-06-15T16:00:41Z</time>
      </trkpt>
      <trkpt lat="49.41603" lon="-1.17526">
        <ele>4.3</ele>
        <time>2020-06-15T16:00:42Z</time>
      </trkpt>
      <trkpt lat="49.41602" lon="-1.17527">
        <ele>4.3</ele>
        <time>2020-06-15T16:00:43Z</time>
      </trkpt>
      <trkpt lat="49.41602" lon="-1.17527">
        <ele>4.3</ele>
        <time>2020-06-15T16:00:44Z</time>
      </trkpt>
      <trkpt lat="49.41602" lon="-1.17528">
        <ele>4.3</ele>
        <time>2020-06-15T16:00:45Z</time>
      </trkpt>
      <trkpt lat="49.41602" lon="-1.17528">
        <ele>4.4</ele>
        <time>2020-06-15T16:00:46Z</time>
      </trkpt>
      <trkpt lat="49.41602" lon="-1.17525">
        <ele>4.4</ele>
        <time>2020-06-15T16:00:47Z</time>
      </trkpt>
      <trkpt lat="49.41603" lon="-1.17522">
        <ele>4.4</ele>
        <time>2020-06-15T16:00:48Z</time>
      </trkpt>
      <trkpt lat="49.41604" lon="-1.17519">
        <ele>4.4</ele>
        <time>2020-06-15T16:00:49Z</time>
      </trkpt>
      <trkpt lat="49.41605" lon="-1.17517">
        <ele>4.4</ele>
        <time>2020-06-15T16:01:16Z</time>
      </trkpt>
      <trkpt lat="49.41605" lon="-1.17514">
        <ele>4.4</ele>
        <time>2020-06-15T16:01:17Z</time>
      </trkpt>
      <trkpt lat="49.41606" lon="-1.17511">
        <ele>4.4</ele>
        <time>2020-06-15T16:01:18Z</time>
      </trkpt>
      <trkpt lat="49.41607" lon="-1.17511">
        <ele>4.4</ele>
        <time>2020-06-15T16:01:19Z</time>
      </trkpt>
      <trkpt lat="49.41608" lon="-1.1751">
        <ele>4.4</ele>
        <time>2020-06-15T16:01:20Z</time>
      </trkpt>
      <trkpt lat="49.41608" lon="-1.1751">
        <ele>4.4</ele>
        <time>2020-06-15T16:01:21Z</time>
      </trkpt>
      <trkpt lat="49.41608" lon="-1.1751">
        <ele>4.4</ele>
        <time>2020-06-15T16:01:22Z</time>
      </trkpt>
      <trkpt lat="49.41608" lon="-1.17509">
        <ele>4.4</ele>
        <time>2020-06-15T16:01:23Z</time>
      </trkpt>
      <trkpt lat="49.41608" lon="-1.17509">
        <ele>4.4</ele>
        <time>2020-06-15T16:01:24Z</time>
      </trkpt>
      <trkpt lat="49.41608" lon="-1.17509">
        <ele>4.4</ele>
        <time>2020-06-15T16:01:25Z</time>
      </trkpt>
      <trkpt lat="49.41608" lon="-1.17509">
        <ele>4.4</ele>
        <time>2020-06-15T16:01:26Z</time>
      </trkpt>
      <trkpt lat="49.41608" lon="-1.17509">
        <ele>4.4</ele>
        <time>2020-06-15T16:01:27Z</time>
      </trkpt>
      <trkpt lat="49.41608" lon="-1.17509">
        <ele>4.4</ele>
        <time>2020-06-15T16:01:28Z</time>
      </trkpt>
      <trkpt lat="49.41585" lon="-1.17517">
        <ele>4.7</ele>
        <time>2020-06-15T16:04:16Z</time>
      </trkpt>
      <trkpt lat="49.41584" lon="-1.17518">
        <ele>4.8</ele>
        <time>2020-06-15T16:04:17Z</time>
      </trkpt>
      <trkpt lat="49.41583" lon="-1.17519">
        <ele>4.8</ele>
        <time>2020-06-15T16:04:18Z</time>
      </trkpt>
      <trkpt lat="49.41582" lon="-1.17522">
        <ele>4.8</ele>
        <time>2020-06-15T16:04:19Z</time>
      </trkpt>
      <trkpt lat="49.41581" lon="-1.17523">
        <ele>4.8</ele>
        <time>2020-06-15T16:04:20Z</time>
      </trkpt>
      <trkpt lat="49.4158" lon="-1.17524">
        <ele>4.9</ele>
        <time>2020-06-15T16:04:21Z</time>
      </trkpt>
      <trkpt lat="49.41579" lon="-1.17526">
        <ele>4.9</ele>
        <time>2020-06-15T16:04:22Z</time>
      </trkpt>
      <trkpt lat="49.41578" lon="-1.17527">
        <ele>4.9</ele>
        <time>2020-06-15T16:04:23Z</time>
      </trkpt>
      <trkpt lat="49.41577" lon="-1.17529">
        <ele>5</ele>
        <time>2020-06-15T16:04:24Z</time>
      </trkpt>
      <trkpt lat="49.41577" lon="-1.1753">
        <ele>5</ele>
        <time>2020-06-15T16:04:25Z</time>
      </trkpt>
      <trkpt lat="49.41577" lon="-1.17529">
        <ele>5</ele>
        <time>2020-06-15T16:04:26Z</time>
      </trkpt>
      <trkpt lat="49.41577" lon="-1.17529">
        <ele>5</ele>
        <time>2020-06-15T16:04:27Z</time>
      </trkpt>
      <trkpt lat="49.41576" lon="-1.17528">
        <ele>5</ele>
        <time>2020-06-15T16:04:28Z</time>
      </trkpt>
      <trkpt lat="49.41575" lon="-1.17528">
        <ele>5</ele>
        <time>2020-06-15T16:04:29Z</time>
      </trkpt>
      <trkpt lat="49.41574" lon="-1.17528">
        <ele>5</ele>
        <time>2020-06-15T16:04:30Z</time>
      </trkpt>
      <trkpt lat="49.41573" lon="-1.17528">
        <ele>5.1</ele>
        <time>2020-06-15T16:04:31Z</time>
      </trkpt>
      <trkpt lat="49.41572" lon="-1.17527">
        <ele>5.1</ele>
        <time>2020-06-15T16:04:32Z</time>
      </trkpt>
      <trkpt lat="49.4157" lon="-1.17526">
        <ele>5.1</ele>
        <time>2020-06-15T16:04:33Z</time>
      </trkpt>
      <trkpt lat="49.41569" lon="-1.17525">
        <ele>5.2</ele>
        <time>2020-06-15T16:04:34Z</time>
      </trkpt>
      <trkpt lat="49.41568" lon="-1.17526">
        <ele>5.2</ele>
        <time>2020-06-15T16:04:35Z</time>
      </trkpt>
      <trkpt lat="49.41567" lon="-1.17525">
        <ele>5.2</ele>
        <time>2020-06-15T16:04:36Z</time>
      </trkpt>
      <trkpt lat="49.41566" lon="-1.17525">
        <ele>5.2</ele>
        <time>2020-06-15T16:04:37Z</time>
      </trkpt>
      <trkpt lat="49.41564" lon="-1.17524">
        <ele>5.3</ele>
        <time>2020-06-15T16:04:38Z</time>
      </trkpt>
      <trkpt lat="49.41562" lon="-1.17523">
        <ele>5.2</ele>
        <time>2020-06-15T16:04:39Z</time>
      </trkpt>
      <trkpt lat="49.41561" lon="-1.17523">
        <ele>5.2</ele>
        <time>2020-06-15T16:04:40Z</time>
      </trkpt>
      <trkpt lat="49.4156" lon="-1.17523">
        <ele>5.2</ele>
        <time>2020-06-15T16:04:41Z</time>
      </trkpt>
      <trkpt lat="49.41559" lon="-1.17523">
        <ele>5.2</ele>
        <time>2020-06-15T16:04:42Z</time>
      </trkpt>
      <trkpt lat="49.41558" lon="-1.17522">
        <ele>5.2</ele>
        <time>2020-06-15T16:04:43Z</time>
      </trkpt>
      <trkpt lat="49.41557" lon="-1.17522">
        <ele>5.2</ele>
        <time>2020-06-15T16:04:44Z</time>
      </trkpt>
      <trkpt lat="49.41555" lon="-1.17521">
        <ele>5.3</ele>
        <time>2020-06-15T16:04:45Z</time>
      </trkpt>
      <trkpt lat="49.41554" lon="-1.1752">
        <ele>5.3</ele>
        <time>2020-06-15T16:04:46Z</time>
      </trkpt>
      <trkpt lat="49.41553" lon="-1.1752">
        <ele>5.3</ele>
        <time>2020-06-15T16:04:47Z</time>
      </trkpt>
      <trkpt lat="49.41551" lon="-1.17519">
        <ele>5.4</ele>
        <time>2020-06-15T16:04:48Z</time>
      </trkpt>
      <trkpt lat="49.4155" lon="-1.17518">
        <ele>5.4</ele>
        <time>2020-06-15T16:04:49Z</time>
      </trkpt>
      <trkpt lat="49.41549" lon="-1.17518">
        <ele>5.4</ele>
        <time>2020-06-15T16:04:50Z</time>
      </trkpt>
      <trkpt lat="49.41549" lon="-1.17518">
        <ele>5.4</ele>
        <time>2020-06-15T16:04:51Z</time>
      </trkpt>
      <trkpt lat="49.41548" lon="-1.17519">
        <ele>5.4</ele>
        <time>2020-06-15T16:04:52Z</time>
      </trkpt>
      <trkpt lat="49.41548" lon="-1.17519">
        <ele>5.4</ele>
        <time>2020-06-15T16:04:53Z</time>
      </trkpt>
      <trkpt lat="49.41547" lon="-1.17519">
        <ele>5.5</ele>
        <time>2020-06-15T16:04:54Z</time>
      </trkpt>
      <trkpt lat="49.41547" lon="-1.1752">
        <ele>5.4</ele>
        <time>2020-06-15T16:04:55Z</time>
      </trkpt>
      <trkpt lat="49.41546" lon="-1.1752">
        <ele>5.4</ele>
        <time>2020-06-15T16:04:56Z</time>
      </trkpt>
      <trkpt lat="49.41545" lon="-1.1752">
        <ele>5.4</ele>
        <time>2020-06-15T16:04:57Z</time>
      </trkpt>
      <trkpt lat="49.41545" lon="-1.1752">
        <ele>5.4</ele>
        <time>2020-06-15T16:04:58Z</time>
      </trkpt>
      <trkpt lat="49.41543" lon="-1.1752">
        <ele>5.5</ele>
        <time>2020-06-15T16:04:59Z</time>
      </trkpt>
      <trkpt lat="49.41542" lon="-1.1752">
        <ele>5.4</ele>
        <time>2020-06-15T16:05:00Z</time>
      </trkpt>
      <trkpt lat="49.41542" lon="-1.17521">
        <ele>5.4</ele>
        <time>2020-06-15T16:05:01Z</time>
      </trkpt>
      <trkpt lat="49.41541" lon="-1.17521">
        <ele>5.5</ele>
        <time>2020-06-15T16:05:02Z</time>
      </trkpt>
      <trkpt lat="49.41539" lon="-1.17521">
        <ele>5.5</ele>
        <time>2020-06-15T16:05:03Z</time>
      </trkpt>
      <trkpt lat="49.41539" lon="-1.1752">
        <ele>5.4</ele>
        <time>2020-06-15T16:05:04Z</time>
      </trkpt>
      <trkpt lat="49.41538" lon="-1.1752">
        <ele>5.5</ele>
        <time>2020-06-15T16:05:05Z</time>
      </trkpt>
      <trkpt lat="49.41537" lon="-1.1752">
        <ele>5.5</ele>
        <time>2020-06-15T16:05:06Z</time>
      </trkpt>
      <trkpt lat="49.41536" lon="-1.17519">
        <ele>5.5</ele>
        <time>2020-06-15T16:05:07Z</time>
      </trkpt>
      <trkpt lat="49.41535" lon="-1.17518">
        <ele>5.5</ele>
        <time>2020-06-15T16:05:08Z</time>
      </trkpt>
      <trkpt lat="49.41535" lon="-1.17515">
        <ele>5.5</ele>
        <time>2020-06-15T16:05:09Z</time>
      </trkpt>
      <trkpt lat="49.41535" lon="-1.17514">
        <ele>5.5</ele>
        <time>2020-06-15T16:05:10Z</time>
      </trkpt>
      <trkpt lat="49.41535" lon="-1.17512">
        <ele>5.5</ele>
        <time>2020-06-15T16:05:11Z</time>
      </trkpt>
      <trkpt lat="49.41535" lon="-1.1751">
        <ele>5.4</ele>
        <time>2020-06-15T16:05:12Z</time>
      </trkpt>
      <trkpt lat="49.41536" lon="-1.17509">
        <ele>5.4</ele>
        <time>2020-06-15T16:05:13Z</time>
      </trkpt>
      <trkpt lat="49.41536" lon="-1.17508">
        <ele>5.4</ele>
        <time>2020-06-15T16:05:14Z</time>
      </trkpt>
      <trkpt lat="49.41537" lon="-1.17508">
        <ele>5.4</ele>
        <time>2020-06-15T16:05:15Z</time>
      </trkpt>
      <trkpt lat="49.41537" lon="-1.17507">
        <ele>5.4</ele>
        <time>2020-06-15T16:05:16Z</time>
      </trkpt>
      <trkpt lat="49.41537" lon="-1.17507">
        <ele>5.4</ele>
        <time>2020-06-15T16:05:17Z</time>
      </trkpt>
      <trkpt lat="49.41537" lon="-1.17507">
        <ele>5.4</ele>
        <time>2020-06-15T16:05:18Z</time>
      </trkpt>
      <trkpt lat="49.41537" lon="-1.17507">
        <ele>5.4</ele>
        <time>2020-06-15T16:05:19Z</time>
      </trkpt>
      <trkpt lat="49.41537" lon="-1.17507">
        <ele>5.4</ele>
        <time>2020-06-15T16:05:20Z</time>
      </trkpt>
      <trkpt lat="49.41537" lon="-1.17507">
        <ele>5.4</ele>
        <time>2020-06-15T16:05:21Z</time>
      </trkpt>
      <trkpt lat="49.41537" lon="-1.17507">
        <ele>5.4</ele>
        <time>2020-06-15T16:05:22Z</time>
      </trkpt>
      <trkpt lat="49.41537" lon="-1.17507">
        <ele>5.4</ele>
        <time>2020-06-15T16:05:23Z</time>
      </trkpt>
      <trkpt lat="49.41537" lon="-1.17507">
        <ele>5.4</ele>
        <time>2020-06-15T16:05:24Z</time>
      </trkpt>
      <trkpt lat="49.41536" lon="-1.17506">
        <ele>5.3</ele>
        <time>2020-06-15T16:05:25Z</time>
      </trkpt>
      <trkpt lat="49.41535" lon="-1.17501">
        <ele>5.2</ele>
        <time>2020-06-15T16:05:33Z</time>
      </trkpt>
      <trkpt lat="49.41533" lon="-1.175">
        <ele>5.2</ele>
        <time>2020-06-15T16:05:34Z</time>
      </trkpt>
      <trkpt lat="49.41532" lon="-1.175">
        <ele>5.3</ele>
        <time>2020-06-15T16:05:35Z</time>
      </trkpt>
      <trkpt lat="49.41531" lon="-1.175">
        <ele>5.3</ele>
        <time>2020-06-15T16:05:36Z</time>
      </trkpt>
      <trkpt lat="49.41531" lon="-1.175">
        <ele>5.2</ele>
        <time>2020-06-15T16:05:37Z</time>
      </trkpt>
      <trkpt lat="49.41531" lon="-1.17499">
        <ele>5.2</ele>
        <time>2020-06-15T16:05:38Z</time>
      </trkpt>
      <trkpt lat="49.41531" lon="-1.17498">
        <ele>5.2</ele>
        <time>2020-06-15T16:05:39Z</time>
      </trkpt>
      <trkpt lat="49.4153" lon="-1.17497">
        <ele>5.2</ele>
        <time>2020-06-15T16:05:40Z</time>
      </trkpt>
      <trkpt lat="49.4153" lon="-1.17497">
        <ele>5.2</ele>
        <time>2020-06-15T16:05:41Z</time>
      </trkpt>
      <trkpt lat="49.41531" lon="-1.17497">
        <ele>5.2</ele>
        <time>2020-06-15T16:05:42Z</time>
      </trkpt>
      <trkpt lat="49.41532" lon="-1.17498">
        <ele>5.2</ele>
        <time>2020-06-15T16:05:43Z</time>
      </trkpt>
      <trkpt lat="49.41533" lon="-1.175">
        <ele>5.2</ele>
        <time>2020-06-15T16:05:44Z</time>
      </trkpt>
      <trkpt lat="49.41533" lon="-1.17501">
        <ele>5.2</ele>
        <time>2020-06-15T16:05:45Z</time>
      </trkpt>
      <trkpt lat="49.41534" lon="-1.17503">
        <ele>5.2</ele>
        <time>2020-06-15T16:05:46Z</time>
      </trkpt>
      <trkpt lat="49.41534" lon="-1.17505">
        <ele>5.2</ele>
        <time>2020-06-15T16:05:47Z</time>
      </trkpt>
      <trkpt lat="49.41535" lon="-1.17506">
        <ele>5.2</ele>
        <time>2020-06-15T16:05:48Z</time>
      </trkpt>
      <trkpt lat="49.41535" lon="-1.17508">
        <ele>5.3</ele>
        <time>2020-06-15T16:05:49Z</time>
      </trkpt>
      <trkpt lat="49.41535" lon="-1.17508">
        <ele>5.3</ele>
        <time>2020-06-15T16:05:50Z</time>
      </trkpt>
      <trkpt lat="49.41536" lon="-1.17509">
        <ele>5.3</ele>
        <time>2020-06-15T16:05:51Z</time>
      </trkpt>
      <trkpt lat="49.41536" lon="-1.17511">
        <ele>5.3</ele>
        <time>2020-06-15T16:05:52Z</time>
      </trkpt>
      <trkpt lat="49.41537" lon="-1.17512">
        <ele>5.3</ele>
        <time>2020-06-15T16:05:53Z</time>
      </trkpt>
      <trkpt lat="49.41537" lon="-1.17514">
        <ele>5.3</ele>
        <time>2020-06-15T16:05:54Z</time>
      </trkpt>
      <trkpt lat="49.41538" lon="-1.17516">
        <ele>5.3</ele>
        <time>2020-06-15T16:05:55Z</time>
      </trkpt>
      <trkpt lat="49.41539" lon="-1.17518">
        <ele>5.2</ele>
        <time>2020-06-15T16:05:56Z</time>
      </trkpt>
      <trkpt lat="49.41602" lon="-1.17537">
        <ele>5.8</ele>
        <time>2020-06-15T16:17:59Z</time>
      </trkpt>
      <trkpt lat="49.416" lon="-1.17533">
        <ele>5.8</ele>
        <time>2020-06-15T16:18:00Z</time>
      </trkpt>
      <trkpt lat="49.41599" lon="-1.17531">
        <ele>5.9</ele>
        <time>2020-06-15T16:18:01Z</time>
      </trkpt>
      <trkpt lat="49.41598" lon="-1.17529">
        <ele>5.9</ele>
        <time>2020-06-15T16:18:02Z</time>
      </trkpt>
      <trkpt lat="49.41597" lon="-1.17527">
        <ele>6</ele>
        <time>2020-06-15T16:18:03Z</time>
      </trkpt>
      <trkpt lat="49.41596" lon="-1.17527">
        <ele>6</ele>
        <time>2020-06-15T16:18:04Z</time>
      </trkpt>
      <trkpt lat="49.41595" lon="-1.17526">
        <ele>6</ele>
        <time>2020-06-15T16:18:05Z</time>
      </trkpt>
      <trkpt lat="49.41593" lon="-1.17526">
        <ele>6</ele>
        <time>2020-06-15T16:18:06Z</time>
      </trkpt>
      <trkpt lat="49.41591" lon="-1.17526">
        <ele>6</ele>
        <time>2020-06-15T16:18:07Z</time>
      </trkpt>
      <trkpt lat="49.41589" lon="-1.17528">
        <ele>6</ele>
        <time>2020-06-15T16:18:08Z</time>
      </trkpt>
      <trkpt lat="49.41588" lon="-1.17529">
        <ele>5.8</ele>
        <time>2020-06-15T16:18:09Z</time>
      </trkpt>
      <trkpt lat="49.41582" lon="-1.17527">
        <ele>5.7</ele>
        <time>2020-06-15T16:18:10Z</time>
      </trkpt>
      <trkpt lat="49.41578" lon="-1.17525">
        <ele>5.5</ele>
        <time>2020-06-15T16:18:11Z</time>
      </trkpt>
      <trkpt lat="49.41571" lon="-1.17521">
        <ele>5.1</ele>
        <time>2020-06-15T16:18:12Z</time>
      </trkpt>
      <trkpt lat="49.4157" lon="-1.17519">
        <ele>5.1</ele>
        <time>2020-06-15T16:18:13Z</time>
      </trkpt>
      <trkpt lat="49.41571" lon="-1.17518">
        <ele>5.1</ele>
        <time>2020-06-15T16:18:14Z</time>
      </trkpt>
      <trkpt lat="49.41571" lon="-1.17516">
        <ele>5.1</ele>
        <time>2020-06-15T16:18:15Z</time>
      </trkpt>
      <trkpt lat="49.41568" lon="-1.17514">
        <ele>5</ele>
        <time>2020-06-15T16:18:16Z</time>
      </trkpt>
      <trkpt lat="49.41567" lon="-1.17513">
        <ele>5</ele>
        <time>2020-06-15T16:18:17Z</time>
      </trkpt>
      <trkpt lat="49.41566" lon="-1.17512">
        <ele>5</ele>
        <time>2020-06-15T16:18:18Z</time>
      </trkpt>
      <trkpt lat="49.41563" lon="-1.17508">
        <ele>5.1</ele>
        <time>2020-06-15T16:18:19Z</time>
      </trkpt>
      <trkpt lat="49.41562" lon="-1.17507">
        <ele>5.1</ele>
        <time>2020-06-15T16:18:20Z</time>
      </trkpt>
      <trkpt lat="49.4156" lon="-1.17506">
        <ele>5.2</ele>
        <time>2020-06-15T16:18:21Z</time>
      </trkpt>
      <trkpt lat="49.41559" lon="-1.17505">
        <ele>5.2</ele>
        <time>2020-06-15T16:18:22Z</time>
      </trkpt>
      <trkpt lat="49.41557" lon="-1.17505">
        <ele>5.2</ele>
        <time>2020-06-15T16:18:23Z</time>
      </trkpt>
      <trkpt lat="49.41556" lon="-1.17504">
        <ele>5.2</ele>
        <time>2020-06-15T16:18:24Z</time>
      </trkpt>
      <trkpt lat="49.41554" lon="-1.17503">
        <ele>5.1</ele>
        <time>2020-06-15T16:18:25Z</time>
      </trkpt>
      <trkpt lat="49.41553" lon="-1.17502">
        <ele>5.2</ele>
        <time>2020-06-15T16:18:26Z</time>
      </trkpt>
      <trkpt lat="49.41552" lon="-1.17501">
        <ele>5.2</ele>
        <time>2020-06-15T16:18:27Z</time>
      </trkpt>
      <trkpt lat="49.41551" lon="-1.175">
        <ele>5.2</ele>
        <time>2020-06-15T16:18:28Z</time>
      </trkpt>
      <trkpt lat="49.4155" lon="-1.175">
        <ele>5.1</ele>
        <time>2020-06-15T16:18:29Z</time>
      </trkpt>
      <trkpt lat="49.4155" lon="-1.17498">
        <ele>5.1</ele>
        <time>2020-06-15T16:18:30Z</time>
      </trkpt>
      <trkpt lat="49.41549" lon="-1.17498">
        <ele>5.1</ele>
        <time>2020-06-15T16:18:31Z</time>
      </trkpt>
      <trkpt lat="49.41549" lon="-1.17498">
        <ele>5.1</ele>
        <time>2020-06-15T16:18:32Z</time>
      </trkpt>
      <trkpt lat="49.41549" lon="-1.17497">
        <ele>5.1</ele>
        <time>2020-06-15T16:18:33Z</time>
      </trkpt>
      <trkpt lat="49.41549" lon="-1.17497">
        <ele>5.1</ele>
        <time>2020-06-15T16:18:34Z</time>
      </trkpt>
      <trkpt lat="49.41544" lon="-1.17501">
        <ele>4.9</ele>
        <time>2020-06-15T16:18:35Z</time>
      </trkpt>
      <trkpt lat="49.41539" lon="-1.17506">
        <ele>4.9</ele>
        <time>2020-06-15T16:18:36Z</time>
      </trkpt>
      <trkpt lat="49.41534" lon="-1.1751">
        <ele>4.9</ele>
        <time>2020-06-15T16:20:30Z</time>
      </trkpt>
      <trkpt lat="49.41528" lon="-1.17515">
        <ele>5</ele>
        <time>2020-06-15T16:20:31Z</time>
      </trkpt>
      <trkpt lat="49.41526" lon="-1.17517">
        <ele>5</ele>
        <time>2020-06-15T16:20:32Z</time>
      </trkpt>
      <trkpt lat="49.41523" lon="-1.17519">
        <ele>5</ele>
        <time>2020-06-15T16:20:33Z</time>
      </trkpt>
      <trkpt lat="49.41521" lon="-1.17521">
        <ele>4.9</ele>
        <time>2020-06-15T16:20:34Z</time>
      </trkpt>
      <trkpt lat="49.41518" lon="-1.17523">
        <ele>4.9</ele>
        <time>2020-06-15T16:20:35Z</time>
      </trkpt>
      <trkpt lat="49.41515" lon="-1.17526">
        <ele>4.9</ele>
        <time>2020-06-15T16:20:36Z</time>
      </trkpt>
      <trkpt lat="49.41514" lon="-1.17526">
        <ele>4.8</ele>
        <time>2020-06-15T16:20:37Z</time>
      </trkpt>
      <trkpt lat="49.41512" lon="-1.17528">
        <ele>4.8</ele>
        <time>2020-06-15T16:20:38Z</time>
      </trkpt>
      <trkpt lat="49.4151" lon="-1.17529">
        <ele>4.8</ele>
        <time>2020-06-15T16:20:39Z</time>
      </trkpt>
      <trkpt lat="49.41509" lon="-1.17531">
        <ele>4.8</ele>
        <time>2020-06-15T16:20:40Z</time>
      </trkpt>
      <trkpt lat="49.41508" lon="-1.17532">
        <ele>4.8</ele>
        <time>2020-06-15T16:20:41Z</time>
      </trkpt>
      <trkpt lat="49.41507" lon="-1.17533">
        <ele>4.7</ele>
        <time>2020-06-15T16:20:42Z</time>
      </trkpt>
      <trkpt lat="49.41506" lon="-1.17536">
        <ele>4.7</ele>
        <time>2020-06-15T16:20:43Z</time>
      </trkpt>
      <trkpt lat="49.41505" lon="-1.17537">
        <ele>4.6</ele>
        <time>2020-06-15T16:20:44Z</time>
      </trkpt>
      <trkpt lat="49.41505" lon="-1.17539">
        <ele>4.6</ele>
        <time>2020-06-15T16:20:45Z</time>
      </trkpt>
      <trkpt lat="49.41505" lon="-1.1754">
        <ele>4.5</ele>
        <time>2020-06-15T16:20:46Z</time>
      </trkpt>
      <trkpt lat="49.41505" lon="-1.17541">
        <ele>4.5</ele>
        <time>2020-06-15T16:20:47Z</time>
      </trkpt>
      <trkpt lat="49.41505" lon="-1.17541">
        <ele>4.5</ele>
        <time>2020-06-15T16:20:48Z</time>
      </trkpt>
      <trkpt lat="49.41505" lon="-1.17541">
        <ele>4.5</ele>
        <time>2020-06-15T16:20:49Z</time>
      </trkpt>
      <trkpt lat="49.41505" lon="-1.17541">
        <ele>4.5</ele>
        <time>2020-06-15T16:20:50Z</time>
      </trkpt>
      <trkpt lat="49.41505" lon="-1.17541">
        <ele>4.5</ele>
        <time>2020-06-15T16:20:51Z</time>
      </trkpt>
      <trkpt lat="49.41505" lon="-1.17541">
        <ele>4.4</ele>
        <time>2020-06-15T16:20:52Z</time>
      </trkpt>
      <trkpt lat="49.41504" lon="-1.17541">
        <ele>4.4</ele>
        <time>2020-06-15T16:20:53Z</time>
      </trkpt>
      <trkpt lat="49.41504" lon="-1.17541">
        <ele>4.4</ele>
        <time>2020-06-15T16:20:54Z</time>
      </trkpt>
      <trkpt lat="49.41504" lon="-1.17541">
        <ele>4.4</ele>
        <time>2020-06-15T16:20:55Z</time>
      </trkpt>
      <trkpt lat="49.41503" lon="-1.17544">
        <ele>4.4</ele>
        <time>2020-06-15T16:20:56Z</time>
      </trkpt>
      <trkpt lat="49.41503" lon="-1.17546">
        <ele>4.3</ele>
        <time>2020-06-15T16:21:04Z</time>
      </trkpt>
      <trkpt lat="49.41502" lon="-1.17548">
        <ele>4.3</ele>
        <time>2020-06-15T16:21:05Z</time>
      </trkpt>
      <trkpt lat="49.41501" lon="-1.17551">
        <ele>4.2</ele>
        <time>2020-06-15T16:21:06Z</time>
      </trkpt>
      <trkpt lat="49.41499" lon="-1.17554">
        <ele>4.1</ele>
        <time>2020-06-15T16:21:07Z</time>
      </trkpt>
      <trkpt lat="49.41499" lon="-1.17556">
        <ele>4.1</ele>
        <time>2020-06-15T16:21:08Z</time>
      </trkpt>
      <trkpt lat="49.41497" lon="-1.17561">
        <ele>4</ele>
        <time>2020-06-15T16:21:09Z</time>
      </trkpt>
      <trkpt lat="49.41496" lon="-1.17563">
        <ele>3.9</ele>
        <time>2020-06-15T16:21:10Z</time>
      </trkpt>
      <trkpt lat="49.41493" lon="-1.17564">
        <ele>3.8</ele>
        <time>2020-06-15T16:21:11Z</time>
      </trkpt>
      <trkpt lat="49.41489" lon="-1.17564">
        <ele>3.8</ele>
        <time>2020-06-15T16:21:12Z</time>
      </trkpt>
      <trkpt lat="49.41488" lon="-1.17564">
        <ele>3.8</ele>
        <time>2020-06-15T16:21:13Z</time>
      </trkpt>
      <trkpt lat="49.41484" lon="-1.17562">
        <ele>3.7</ele>
        <time>2020-06-15T16:21:14Z</time>
      </trkpt>
      <trkpt lat="49.4148" lon="-1.1756">
        <ele>3.8</ele>
        <time>2020-06-15T16:21:15Z</time>
      </trkpt>
      <trkpt lat="49.41477" lon="-1.17558">
        <ele>3.7</ele>
        <time>2020-06-15T16:21:16Z</time>
      </trkpt>
      <trkpt lat="49.41475" lon="-1.17557">
        <ele>3.8</ele>
        <time>2020-06-15T16:21:17Z</time>
      </trkpt>
      <trkpt lat="49.41472" lon="-1.17555">
        <ele>3.7</ele>
        <time>2020-06-15T16:21:18Z</time>
      </trkpt>
      <trkpt lat="49.41469" lon="-1.17552">
        <ele>3.8</ele>
        <time>2020-06-15T16:21:19Z</time>
      </trkpt>
      <trkpt lat="49.41466" lon="-1.17551">
        <ele>3.8</ele>
        <time>2020-06-15T16:21:20Z</time>
      </trkpt>
      <trkpt lat="49.41466" lon="-1.1755">
        <ele>3.7</ele>
        <time>2020-06-15T16:21:21Z</time>
      </trkpt>
      <trkpt lat="49.41464" lon="-1.17549">
        <ele>3.8</ele>
        <time>2020-06-15T16:21:22Z</time>
      </trkpt>
      <trkpt lat="49.41463" lon="-1.17548">
        <ele>3.7</ele>
        <time>2020-06-15T16:21:23Z</time>
      </trkpt>
      <trkpt lat="49.41461" lon="-1.17547">
        <ele>3.7</ele>
        <time>2020-06-15T16:21:24Z</time>
      </trkpt>
      <trkpt lat="49.41459" lon="-1.17547">
        <ele>3.7</ele>
        <time>2020-06-15T16:21:25Z</time>
      </trkpt>
      <trkpt lat="49.41459" lon="-1.17547">
        <ele>3.7</ele>
        <time>2020-06-15T16:21:26Z</time>
      </trkpt>
      <trkpt lat="49.41458" lon="-1.17547">
        <ele>3.7</ele>
        <time>2020-06-15T16:21:27Z</time>
      </trkpt>
      <trkpt lat="49.41458" lon="-1.17547">
        <ele>3.6</ele>
        <time>2020-06-15T16:21:28Z</time>
      </trkpt>
      <trkpt lat="49.41458" lon="-1.17547">
        <ele>3.6</ele>
        <time>2020-06-15T16:21:29Z</time>
      </trkpt>
      <trkpt lat="49.41458" lon="-1.17547">
        <ele>3.6</ele>
        <time>2020-06-15T16:21:30Z</time>
      </trkpt>
      <trkpt lat="49.41458" lon="-1.17547">
        <ele>3.6</ele>
        <time>2020-06-15T16:21:31Z</time>
      </trkpt>
      <trkpt lat="49.41458" lon="-1.17547">
        <ele>3.6</ele>
        <time>2020-06-15T16:21:32Z</time>
      </trkpt>
      <trkpt lat="49.41458" lon="-1.17547">
        <ele>3.6</ele>
        <time>2020-06-15T16:21:33Z</time>
      </trkpt>
      <trkpt lat="49.41458" lon="-1.17547">
        <ele>3.6</ele>
        <time>2020-06-15T16:21:34Z</time>
      </trkpt>
      <trkpt lat="49.41458" lon="-1.17547">
        <ele>3.6</ele>
        <time>2020-06-15T16:21:35Z</time>
      </trkpt>
      <trkpt lat="49.41458" lon="-1.17547">
        <ele>3.6</ele>
        <time>2020-06-15T16:21:36Z</time>
      </trkpt>
      <trkpt lat="49.41458" lon="-1.17547">
        <ele>3.6</ele>
        <time>2020-06-15T16:21:37Z</time>
      </trkpt>
      <trkpt lat="49.41463" lon="-1.17542">
        <ele>3.7</ele>
        <time>2020-06-15T16:22:46Z</time>
      </trkpt>
      <trkpt lat="49.41463" lon="-1.17542">
        <ele>3.8</ele>
        <time>2020-06-15T16:22:47Z</time>
      </trkpt>
      <trkpt lat="49.41464" lon="-1.17543">
        <ele>3.8</ele>
        <time>2020-06-15T16:22:48Z</time>
      </trkpt>
      <trkpt lat="49.41464" lon="-1.17543">
        <ele>3.8</ele>
        <time>2020-06-15T16:22:49Z</time>
      </trkpt>
      <trkpt lat="49.41465" lon="-1.17544">
        <ele>3.7</ele>
        <time>2020-06-15T16:22:50Z</time>
      </trkpt>
      <trkpt lat="49.41466" lon="-1.17543">
        <ele>3.7</ele>
        <time>2020-06-15T16:22:51Z</time>
      </trkpt>
      <trkpt lat="49.41467" lon="-1.17543">
        <ele>3.8</ele>
        <time>2020-06-15T16:22:52Z</time>
      </trkpt>
      <trkpt lat="49.41467" lon="-1.17543">
        <ele>3.8</ele>
        <time>2020-06-15T16:22:53Z</time>
      </trkpt>
      <trkpt lat="49.41467" lon="-1.17543">
        <ele>3.8</ele>
        <time>2020-06-15T16:22:54Z</time>
      </trkpt>
      <trkpt lat="49.41467" lon="-1.17543">
        <ele>3.8</ele>
        <time>2020-06-15T16:22:55Z</time>
      </trkpt>
      <trkpt lat="49.41467" lon="-1.17543">
        <ele>3.8</ele>
        <time>2020-06-15T16:22:56Z</time>
      </trkpt>
      <trkpt lat="49.41467" lon="-1.17543">
        <ele>3.8</ele>
        <time>2020-06-15T16:22:57Z</time>
      </trkpt>
      <trkpt lat="49.41467" lon="-1.17543">
        <ele>3.8</ele>
        <time>2020-06-15T16:22:58Z</time>
      </trkpt>
      <trkpt lat="49.41467" lon="-1.17543">
        <ele>3.7</ele>
        <time>2020-06-15T16:22:59Z</time>
      </trkpt>
      <trkpt lat="49.41467" lon="-1.17543">
        <ele>3.7</ele>
        <time>2020-06-15T16:23:00Z</time>
      </trkpt>
      <trkpt lat="49.41467" lon="-1.17543">
        <ele>3.7</ele>
        <time>2020-06-15T16:23:01Z</time>
      </trkpt>
      <trkpt lat="49.41467" lon="-1.17543">
        <ele>3.7</ele>
        <time>2020-06-15T16:23:02Z</time>
      </trkpt>
      <trkpt lat="49.41467" lon="-1.17539">
        <ele>3.8</ele>
        <time>2020-06-15T16:23:10Z</time>
      </trkpt>
      <trkpt lat="49.41467" lon="-1.17537">
        <ele>3.8</ele>
        <time>2020-06-15T16:23:11Z</time>
      </trkpt>
      <trkpt lat="49.41466" lon="-1.17534">
        <ele>3.9</ele>
        <time>2020-06-15T16:23:12Z</time>
      </trkpt>
      <trkpt lat="49.41466" lon="-1.17532">
        <ele>3.9</ele>
        <time>2020-06-15T16:23:13Z</time>
      </trkpt>
      <trkpt lat="49.41466" lon="-1.1753">
        <ele>3.9</ele>
        <time>2020-06-15T16:23:14Z</time>
      </trkpt>
      <trkpt lat="49.41467" lon="-1.17526">
        <ele>4</ele>
        <time>2020-06-15T16:23:15Z</time>
      </trkpt>
      <trkpt lat="49.41468" lon="-1.17524">
        <ele>4</ele>
        <time>2020-06-15T16:23:16Z</time>
      </trkpt>
      <trkpt lat="49.41468" lon="-1.17519">
        <ele>4</ele>
        <time>2020-06-15T16:23:17Z</time>
      </trkpt>
      <trkpt lat="49.41469" lon="-1.17518">
        <ele>4.2</ele>
        <time>2020-06-15T16:23:18Z</time>
      </trkpt>
      <trkpt lat="49.41471" lon="-1.17513">
        <ele>4.2</ele>
        <time>2020-06-15T16:23:19Z</time>
      </trkpt>
      <trkpt lat="49.41471" lon="-1.17512">
        <ele>4.2</ele>
        <time>2020-06-15T16:23:20Z</time>
      </trkpt>
      <trkpt lat="49.41473" lon="-1.17508">
        <ele>4.4</ele>
        <time>2020-06-15T16:23:21Z</time>
      </trkpt>
      <trkpt lat="49.41473" lon="-1.17506">
        <ele>4.4</ele>
        <time>2020-06-15T16:23:22Z</time>
      </trkpt>
      <trkpt lat="49.41474" lon="-1.17504">
        <ele>4.4</ele>
        <time>2020-06-15T16:23:23Z</time>
      </trkpt>
      <trkpt lat="49.41475" lon="-1.17501">
        <ele>4.5</ele>
        <time>2020-06-15T16:23:24Z</time>
      </trkpt>
      <trkpt lat="49.41476" lon="-1.175">
        <ele>4.5</ele>
        <time>2020-06-15T16:23:25Z</time>
      </trkpt>
      <trkpt lat="49.41477" lon="-1.17498">
        <ele>4.6</ele>
        <time>2020-06-15T16:23:26Z</time>
      </trkpt>
      <trkpt lat="49.41478" lon="-1.17496">
        <ele>4.6</ele>
        <time>2020-06-15T16:23:27Z</time>
      </trkpt>
      <trkpt lat="49.4148" lon="-1.17495">
        <ele>4.6</ele>
        <time>2020-06-15T16:23:28Z</time>
      </trkpt>
      <trkpt lat="49.41482" lon="-1.17494">
        <ele>4.6</ele>
        <time>2020-06-15T16:23:29Z</time>
      </trkpt>
      <trkpt lat="49.41483" lon="-1.17494">
        <ele>4.6</ele>
        <time>2020-06-15T16:23:30Z</time>
      </trkpt>
      <trkpt lat="49.41484" lon="-1.17493">
        <ele>4.6</ele>
        <time>2020-06-15T16:23:31Z</time>
      </trkpt>
      <trkpt lat="49.41485" lon="-1.17493">
        <ele>4.7</ele>
        <time>2020-06-15T16:23:32Z</time>
      </trkpt>
      <trkpt lat="49.41487" lon="-1.17493">
        <ele>4.7</ele>
        <time>2020-06-15T16:23:33Z</time>
      </trkpt>
      <trkpt lat="49.4149" lon="-1.17496">
        <ele>4.7</ele>
        <time>2020-06-15T16:23:34Z</time>
      </trkpt>
      <trkpt lat="49.41491" lon="-1.17498">
        <ele>4.7</ele>
        <time>2020-06-15T16:23:35Z</time>
      </trkpt>
      <trkpt lat="49.41494" lon="-1.175">
        <ele>4.8</ele>
        <time>2020-06-15T16:23:36Z</time>
      </trkpt>
      <trkpt lat="49.41495" lon="-1.17501">
        <ele>4.8</ele>
        <time>2020-06-15T16:23:37Z</time>
      </trkpt>
      <trkpt lat="49.41498" lon="-1.17503">
        <ele>4.8</ele>
        <time>2020-06-15T16:23:38Z</time>
      </trkpt>
      <trkpt lat="49.41499" lon="-1.17503">
        <ele>4.8</ele>
        <time>2020-06-15T16:23:39Z</time>
      </trkpt>
      <trkpt lat="49.41503" lon="-1.17507">
        <ele>4.9</ele>
        <time>2020-06-15T16:23:40Z</time>
      </trkpt>
      <trkpt lat="49.41505" lon="-1.17508">
        <ele>4.9</ele>
        <time>2020-06-15T16:23:41Z</time>
      </trkpt>
      <trkpt lat="49.41508" lon="-1.17511">
        <ele>4.9</ele>
        <time>2020-06-15T16:23:42Z</time>
      </trkpt>
      <trkpt lat="49.41509" lon="-1.17512">
        <ele>4.9</ele>
        <time>2020-06-15T16:23:43Z</time>
      </trkpt>
      <trkpt lat="49.41512" lon="-1.17514">
        <ele>4.9</ele>
        <time>2020-06-15T16:23:44Z</time>
      </trkpt>
      <trkpt lat="49.41514" lon="-1.17517">
        <ele>4.9</ele>
        <time>2020-06-15T16:23:45Z</time>
      </trkpt>
      <trkpt lat="49.41517" lon="-1.1752">
        <ele>4.9</ele>
        <time>2020-06-15T16:23:46Z</time>
      </trkpt>
      <trkpt lat="49.4152" lon="-1.17522">
        <ele>4.9</ele>
        <time>2020-06-15T16:23:47Z</time>
      </trkpt>
      <trkpt lat="49.41524" lon="-1.17525">
        <ele>4.9</ele>
        <time>2020-06-15T16:23:48Z</time>
      </trkpt>
      <trkpt lat="49.41527" lon="-1.17528">
        <ele>4.9</ele>
        <time>2020-06-15T16:23:49Z</time>
      </trkpt>
      <trkpt lat="49.4153" lon="-1.17532">
        <ele>4.9</ele>
        <time>2020-06-15T16:23:50Z</time>
      </trkpt>
      <trkpt lat="49.41533" lon="-1.17535">
        <ele>4.9</ele>
        <time>2020-06-15T16:23:51Z</time>
      </trkpt>
      <trkpt lat="49.41535" lon="-1.17538">
        <ele>4.9</ele>
        <time>2020-06-15T16:23:52Z</time>
      </trkpt>
      <trkpt lat="49.41538" lon="-1.17542">
        <ele>4.9</ele>
        <time>2020-06-15T16:23:53Z</time>
      </trkpt>
      <trkpt lat="49.4154" lon="-1.17546">
        <ele>4.9</ele>
        <time>2020-06-15T16:23:54Z</time>
      </trkpt>
      <trkpt lat="49.41542" lon="-1.17551">
        <ele>4.9</ele>
        <time>2020-06-15T16:23:55Z</time>
      </trkpt>
      <trkpt lat="49.41543" lon="-1.17555">
        <ele>4.9</ele>
        <time>2020-06-15T16:23:56Z</time>
      </trkpt>
      <trkpt lat="49.41545" lon="-1.1756">
        <ele>4.8</ele>
        <time>2020-06-15T16:23:57Z</time>
      </trkpt>
      <trkpt lat="49.41547" lon="-1.17564">
        <ele>4.8</ele>
        <time>2020-06-15T16:23:58Z</time>
      </trkpt>
      <trkpt lat="49.41547" lon="-1.17568">
        <ele>4.8</ele>
        <time>2020-06-15T16:23:59Z</time>
      </trkpt>
      <trkpt lat="49.41546" lon="-1.17574">
        <ele>4.5</ele>
        <time>2020-06-15T16:24:00Z</time>
      </trkpt>
      <trkpt lat="49.41545" lon="-1.17577">
        <ele>4.5</ele>
        <time>2020-06-15T16:24:01Z</time>
      </trkpt>
      <trkpt lat="49.41544" lon="-1.17581">
        <ele>4.5</ele>
        <time>2020-06-15T16:24:02Z</time>
      </trkpt>
      <trkpt lat="49.41542" lon="-1.17584">
        <ele>4.4</ele>
        <time>2020-06-15T16:24:03Z</time>
      </trkpt>
      <trkpt lat="49.41541" lon="-1.17588">
        <ele>4.3</ele>
        <time>2020-06-15T16:24:04Z</time>
      </trkpt>
      <trkpt lat="49.41539" lon="-1.17592">
        <ele>4.3</ele>
        <time>2020-06-15T16:24:05Z</time>
      </trkpt>
      <trkpt lat="49.41537" lon="-1.17595">
        <ele>4.2</ele>
        <time>2020-06-15T16:24:06Z</time>
      </trkpt>
      <trkpt lat="49.41536" lon="-1.17599">
        <ele>4.2</ele>
        <time>2020-06-15T16:24:07Z</time>
      </trkpt>
      <trkpt lat="49.41534" lon="-1.17602">
        <ele>4.1</ele>
        <time>2020-06-15T16:24:08Z</time>
      </trkpt>
      <trkpt lat="49.41532" lon="-1.17606">
        <ele>4.1</ele>
        <time>2020-06-15T16:24:09Z</time>
      </trkpt>
      <trkpt lat="49.41531" lon="-1.1761">
        <ele>4.1</ele>
        <time>2020-06-15T16:24:10Z</time>
      </trkpt>
      <trkpt lat="49.41529" lon="-1.17614">
        <ele>4</ele>
        <time>2020-06-15T16:24:11Z</time>
      </trkpt>
      <trkpt lat="49.41528" lon="-1.17617">
        <ele>4</ele>
        <time>2020-06-15T16:24:12Z</time>
      </trkpt>
      <trkpt lat="49.41526" lon="-1.17621">
        <ele>4</ele>
        <time>2020-06-15T16:24:13Z</time>
      </trkpt>
      <trkpt lat="49.41525" lon="-1.17625">
        <ele>3.9</ele>
        <time>2020-06-15T16:24:14Z</time>
      </trkpt>
      <trkpt lat="49.41523" lon="-1.17628">
        <ele>3.9</ele>
        <time>2020-06-15T16:24:15Z</time>
      </trkpt>
      <trkpt lat="49.41521" lon="-1.17633">
        <ele>3.9</ele>
        <time>2020-06-15T16:24:16Z</time>
      </trkpt>
      <trkpt lat="49.41521" lon="-1.17635">
        <ele>3.9</ele>
        <time>2020-06-15T16:24:17Z</time>
      </trkpt>
      <trkpt lat="49.41519" lon="-1.17639">
        <ele>3.8</ele>
        <time>2020-06-15T16:24:18Z</time>
      </trkpt>
      <trkpt lat="49.41518" lon="-1.17643">
        <ele>3.8</ele>
        <time>2020-06-15T16:24:19Z</time>
      </trkpt>
      <trkpt lat="49.41517" lon="-1.17646">
        <ele>3.8</ele>
        <time>2020-06-15T16:24:20Z</time>
      </trkpt>
      <trkpt lat="49.41515" lon="-1.17652">
        <ele>3.7</ele>
        <time>2020-06-15T16:24:21Z</time>
      </trkpt>
      <trkpt lat="49.41514" lon="-1.17654">
        <ele>3.7</ele>
        <time>2020-06-15T16:24:22Z</time>
      </trkpt>
      <trkpt lat="49.41513" lon="-1.17658">
        <ele>3.7</ele>
        <time>2020-06-15T16:24:23Z</time>
      </trkpt>
      <trkpt lat="49.41511" lon="-1.17662">
        <ele>3.7</ele>
        <time>2020-06-15T16:24:24Z</time>
      </trkpt>
      <trkpt lat="49.4151" lon="-1.17664">
        <ele>3.7</ele>
        <time>2020-06-15T16:24:25Z</time>
      </trkpt>
      <trkpt lat="49.41508" lon="-1.17669">
        <ele>3.6</ele>
        <time>2020-06-15T16:24:26Z</time>
      </trkpt>
      <trkpt lat="49.41507" lon="-1.1767">
        <ele>3.6</ele>
        <time>2020-06-15T16:24:27Z</time>
      </trkpt>
      <trkpt lat="49.41505" lon="-1.17676">
        <ele>3.6</ele>
        <time>2020-06-15T16:24:28Z</time>
      </trkpt>
      <trkpt lat="49.41505" lon="-1.17678">
        <ele>3.6</ele>
        <time>2020-06-15T16:24:29Z</time>
      </trkpt>
      <trkpt lat="49.41503" lon="-1.17683">
        <ele>3.6</ele>
        <time>2020-06-15T16:24:30Z</time>
      </trkpt>
      <trkpt lat="49.41503" lon="-1.17685">
        <ele>3.6</ele>
        <time>2020-06-15T16:24:31Z</time>
      </trkpt>
      <trkpt lat="49.41502" lon="-1.17691">
        <ele>3.5</ele>
        <time>2020-06-15T16:24:32Z</time>
      </trkpt>
      <trkpt lat="49.41504" lon="-1.17695">
        <ele>3.5</ele>
        <time>2020-06-15T16:24:33Z</time>
      </trkpt>
      <trkpt lat="49.41505" lon="-1.17696">
        <ele>3.5</ele>
        <time>2020-06-15T16:24:34Z</time>
      </trkpt>
      <trkpt lat="49.41507" lon="-1.17698">
        <ele>3.5</ele>
        <time>2020-06-15T16:24:35Z</time>
      </trkpt>
      <trkpt lat="49.41511" lon="-1.17699">
        <ele>3.5</ele>
        <time>2020-06-15T16:24:36Z</time>
      </trkpt>
      <trkpt lat="49.41514" lon="-1.177">
        <ele>3.4</ele>
        <time>2020-06-15T16:24:37Z</time>
      </trkpt>
      <trkpt lat="49.41518" lon="-1.17701">
        <ele>3.4</ele>
        <time>2020-06-15T16:24:38Z</time>
      </trkpt>
      <trkpt lat="49.41522" lon="-1.17703">
        <ele>3.4</ele>
        <time>2020-06-15T16:24:39Z</time>
      </trkpt>
      <trkpt lat="49.41526" lon="-1.17705">
        <ele>3.3</ele>
        <time>2020-06-15T16:24:40Z</time>
      </trkpt>
      <trkpt lat="49.4153" lon="-1.17707">
        <ele>3.3</ele>
        <time>2020-06-15T16:24:41Z</time>
      </trkpt>
      <trkpt lat="49.41535" lon="-1.1771">
        <ele>3.3</ele>
        <time>2020-06-15T16:24:42Z</time>
      </trkpt>
      <trkpt lat="49.4154" lon="-1.17713">
        <ele>3.3</ele>
        <time>2020-06-15T16:24:43Z</time>
      </trkpt>
      <trkpt lat="49.41544" lon="-1.17716">
        <ele>3.3</ele>
        <time>2020-06-15T16:24:44Z</time>
      </trkpt>
      <trkpt lat="49.41549" lon="-1.17719">
        <ele>3.2</ele>
        <time>2020-06-15T16:24:45Z</time>
      </trkpt>
      <trkpt lat="49.41553" lon="-1.17722">
        <ele>3.2</ele>
        <time>2020-06-15T16:24:46Z</time>
      </trkpt>
      <trkpt lat="49.41558" lon="-1.17726">
        <ele>3.2</ele>
        <time>2020-06-15T16:24:47Z</time>
      </trkpt>
      <trkpt lat="49.41562" lon="-1.17729">
        <ele>3.2</ele>
        <time>2020-06-15T16:24:48Z</time>
      </trkpt>
      <trkpt lat="49.41566" lon="-1.17732">
        <ele>3.2</ele>
        <time>2020-06-15T16:24:49Z</time>
      </trkpt>
      <trkpt lat="49.4157" lon="-1.17736">
        <ele>3.2</ele>
        <time>2020-06-15T16:24:50Z</time>
      </trkpt>
      <trkpt lat="49.41575" lon="-1.1774">
        <ele>3.2</ele>
        <time>2020-06-15T16:24:51Z</time>
      </trkpt>
      <trkpt lat="49.41579" lon="-1.17744">
        <ele>3.2</ele>
        <time>2020-06-15T16:24:52Z</time>
      </trkpt>
      <trkpt lat="49.41583" lon="-1.17747">
        <ele>3.2</ele>
        <time>2020-06-15T16:24:53Z</time>
      </trkpt>
      <trkpt lat="49.41587" lon="-1.17751">
        <ele>3.2</ele>
        <time>2020-06-15T16:24:54Z</time>
      </trkpt>
      <trkpt lat="49.41591" lon="-1.17755">
        <ele>3.2</ele>
        <time>2020-06-15T16:24:55Z</time>
      </trkpt>
      <trkpt lat="49.41596" lon="-1.17759">
        <ele>3.2</ele>
        <time>2020-06-15T16:24:56Z</time>
      </trkpt>
      <trkpt lat="49.41601" lon="-1.1776">
        <ele>3.2</ele>
        <time>2020-06-15T16:24:57Z</time>
      </trkpt>
      <trkpt lat="49.41606" lon="-1.1776">
        <ele>3.2</ele>
        <time>2020-06-15T16:24:58Z</time>
      </trkpt>
      <trkpt lat="49.41611" lon="-1.17757">
        <ele>3.2</ele>
        <time>2020-06-15T16:24:59Z</time>
      </trkpt>
      <trkpt lat="49.41615" lon="-1.17753">
        <ele>3.2</ele>
        <time>2020-06-15T16:25:00Z</time>
      </trkpt>
      <trkpt lat="49.41618" lon="-1.17748">
        <ele>3.2</ele>
        <time>2020-06-15T16:25:01Z</time>
      </trkpt>
      <trkpt lat="49.41621" lon="-1.17743">
        <ele>3.2</ele>
        <time>2020-06-15T16:25:02Z</time>
      </trkpt>
      <trkpt lat="49.41624" lon="-1.17738">
        <ele>3.2</ele>
        <time>2020-06-15T16:25:03Z</time>
      </trkpt>
      <trkpt lat="49.41626" lon="-1.17732">
        <ele>3.2</ele>
        <time>2020-06-15T16:25:04Z</time>
      </trkpt>
      <trkpt lat="49.41628" lon="-1.17726">
        <ele>3.2</ele>
        <time>2020-06-15T16:25:05Z</time>
      </trkpt>
      <trkpt lat="49.41629" lon="-1.17719">
        <ele>3.2</ele>
        <time>2020-06-15T16:25:06Z</time>
      </trkpt>
      <trkpt lat="49.4163" lon="-1.17713">
        <ele>3.2</ele>
        <time>2020-06-15T16:25:07Z</time>
      </trkpt>
      <trkpt lat="49.41632" lon="-1.17708">
        <ele>3.2</ele>
        <time>2020-06-15T16:25:08Z</time>
      </trkpt>
      <trkpt lat="49.41634" lon="-1.17702">
        <ele>3.2</ele>
        <time>2020-06-15T16:25:09Z</time>
      </trkpt>
      <trkpt lat="49.41636" lon="-1.17696">
        <ele>3.3</ele>
        <time>2020-06-15T16:25:10Z</time>
      </trkpt>
      <trkpt lat="49.41639" lon="-1.17691">
        <ele>3.3</ele>
        <time>2020-06-15T16:25:11Z</time>
      </trkpt>
      <trkpt lat="49.41641" lon="-1.17686">
        <ele>3.3</ele>
        <time>2020-06-15T16:25:12Z</time>
      </trkpt>
      <trkpt lat="49.41644" lon="-1.17681">
        <ele>3.4</ele>
        <time>2020-06-15T16:25:13Z</time>
      </trkpt>
      <trkpt lat="49.41647" lon="-1.17677">
        <ele>3.4</ele>
        <time>2020-06-15T16:25:14Z</time>
      </trkpt>
      <trkpt lat="49.41651" lon="-1.17675">
        <ele>3.4</ele>
        <time>2020-06-15T16:25:15Z</time>
      </trkpt>
      <trkpt lat="49.41655" lon="-1.17674">
        <ele>3.4</ele>
        <time>2020-06-15T16:25:16Z</time>
      </trkpt>
      <trkpt lat="49.41659" lon="-1.17674">
        <ele>3.4</ele>
        <time>2020-06-15T16:25:17Z</time>
      </trkpt>
      <trkpt lat="49.41662" lon="-1.17675">
        <ele>3.4</ele>
        <time>2020-06-15T16:25:18Z</time>
      </trkpt>
      <trkpt lat="49.41665" lon="-1.17676">
        <ele>3.5</ele>
        <time>2020-06-15T16:25:19Z</time>
      </trkpt>
      <trkpt lat="49.41669" lon="-1.17676">
        <ele>3.5</ele>
        <time>2020-06-15T16:25:20Z</time>
      </trkpt>
      <trkpt lat="49.41669" lon="-1.17676">
        <ele>3.5</ele>
        <time>2020-06-15T16:25:21Z</time>
      </trkpt>
      <trkpt lat="49.4167" lon="-1.17677">
        <ele>3.5</ele>
        <time>2020-06-15T16:25:22Z</time>
      </trkpt>
      <trkpt lat="49.41671" lon="-1.17677">
        <ele>3.5</ele>
        <time>2020-06-15T16:25:23Z</time>
      </trkpt>
      <trkpt lat="49.41672" lon="-1.17678">
        <ele>3.5</ele>
        <time>2020-06-15T16:25:24Z</time>
      </trkpt>
      <trkpt lat="49.41672" lon="-1.17678">
        <ele>3.5</ele>
        <time>2020-06-15T16:25:25Z</time>
      </trkpt>
      <trkpt lat="49.41672" lon="-1.17678">
        <ele>3.5</ele>
        <time>2020-06-15T16:25:26Z</time>
      </trkpt>
      <trkpt lat="49.41672" lon="-1.17677">
        <ele>3.5</ele>
        <time>2020-06-15T16:25:27Z</time>
      </trkpt>
      <trkpt lat="49.41672" lon="-1.17677">
        <ele>3.5</ele>
        <time>2020-06-15T16:25:28Z</time>
      </trkpt>
      <trkpt lat="49.41672" lon="-1.17677">
        <ele>3.5</ele>
        <time>2020-06-15T16:25:29Z</time>
      </trkpt>
      <trkpt lat="49.41671" lon="-1.17678">
        <ele>3.5</ele>
        <time>2020-06-15T16:25:30Z</time>
      </trkpt>
      <trkpt lat="49.4167" lon="-1.17678">
        <ele>3.5</ele>
        <time>2020-06-15T16:25:31Z</time>
      </trkpt>
      <trkpt lat="49.41669" lon="-1.17678">
        <ele>3.4</ele>
        <time>2020-06-15T16:25:32Z</time>
      </trkpt>
      <trkpt lat="49.41669" lon="-1.17679">
        <ele>3.4</ele>
        <time>2020-06-15T16:25:33Z</time>
      </trkpt>
      <trkpt lat="49.41669" lon="-1.1768">
        <ele>3.4</ele>
        <time>2020-06-15T16:25:34Z</time>
      </trkpt>
      <trkpt lat="49.4167" lon="-1.17683">
        <ele>3.4</ele>
        <time>2020-06-15T16:25:35Z</time>
      </trkpt>
      <trkpt lat="49.41673" lon="-1.17688">
        <ele>3.4</ele>
        <time>2020-06-15T16:25:36Z</time>
      </trkpt>
      <trkpt lat="49.41673" lon="-1.1769">
        <ele>3.4</ele>
        <time>2020-06-15T16:25:37Z</time>
      </trkpt>
      <trkpt lat="49.41676" lon="-1.17693">
        <ele>3.4</ele>
        <time>2020-06-15T16:25:38Z</time>
      </trkpt>
      <trkpt lat="49.41678" lon="-1.17695">
        <ele>3.4</ele>
        <time>2020-06-15T16:25:39Z</time>
      </trkpt>
      <trkpt lat="49.41681" lon="-1.17696">
        <ele>3.4</ele>
        <time>2020-06-15T16:25:40Z</time>
      </trkpt>
      <trkpt lat="49.41684" lon="-1.17698">
        <ele>3.4</ele>
        <time>2020-06-15T16:25:41Z</time>
      </trkpt>
      <trkpt lat="49.41687" lon="-1.17701">
        <ele>3.4</ele>
        <time>2020-06-15T16:25:42Z</time>
      </trkpt>
      <trkpt lat="49.4169" lon="-1.17703">
        <ele>3.4</ele>
        <time>2020-06-15T16:25:43Z</time>
      </trkpt>
      <trkpt lat="49.41694" lon="-1.17706">
        <ele>3.5</ele>
        <time>2020-06-15T16:25:44Z</time>
      </trkpt>
      <trkpt lat="49.41697" lon="-1.17709">
        <ele>3.5</ele>
        <time>2020-06-15T16:25:45Z</time>
      </trkpt>
      <trkpt lat="49.41701" lon="-1.17713">
        <ele>3.5</ele>
        <time>2020-06-15T16:25:46Z</time>
      </trkpt>
      <trkpt lat="49.41705" lon="-1.17716">
        <ele>3.5</ele>
        <time>2020-06-15T16:25:47Z</time>
      </trkpt>
      <trkpt lat="49.4171" lon="-1.1772">
        <ele>3.5</ele>
        <time>2020-06-15T16:25:48Z</time>
      </trkpt>
      <trkpt lat="49.41714" lon="-1.17724">
        <ele>3.4</ele>
        <time>2020-06-15T16:25:49Z</time>
      </trkpt>
      <trkpt lat="49.41717" lon="-1.17727">
        <ele>3.4</ele>
        <time>2020-06-15T16:25:50Z</time>
      </trkpt>
      <trkpt lat="49.41721" lon="-1.1773">
        <ele>3.4</ele>
        <time>2020-06-15T16:25:51Z</time>
      </trkpt>
      <trkpt lat="49.41725" lon="-1.17734">
        <ele>3.4</ele>
        <time>2020-06-15T16:25:52Z</time>
      </trkpt>
      <trkpt lat="49.41729" lon="-1.17737">
        <ele>3.4</ele>
        <time>2020-06-15T16:25:53Z</time>
      </trkpt>
      <trkpt lat="49.41732" lon="-1.1774">
        <ele>3.4</ele>
        <time>2020-06-15T16:25:54Z</time>
      </trkpt>
      <trkpt lat="49.41736" lon="-1.17744">
        <ele>3.4</ele>
        <time>2020-06-15T16:25:55Z</time>
      </trkpt>
      <trkpt lat="49.41741" lon="-1.17747">
        <ele>3.4</ele>
        <time>2020-06-15T16:25:56Z</time>
      </trkpt>
      <trkpt lat="49.41746" lon="-1.1775">
        <ele>3.4</ele>
        <time>2020-06-15T16:25:57Z</time>
      </trkpt>
      <trkpt lat="49.4175" lon="-1.17754">
        <ele>3.4</ele>
        <time>2020-06-15T16:25:58Z</time>
      </trkpt>
      <trkpt lat="49.41755" lon="-1.17758">
        <ele>3.4</ele>
        <time>2020-06-15T16:25:59Z</time>
      </trkpt>
      <trkpt lat="49.41759" lon="-1.17762">
        <ele>3.5</ele>
        <time>2020-06-15T16:26:00Z</time>
      </trkpt>
      <trkpt lat="49.41764" lon="-1.17765">
        <ele>3.5</ele>
        <time>2020-06-15T16:26:01Z</time>
      </trkpt>
      <trkpt lat="49.41769" lon="-1.1777">
        <ele>3.5</ele>
        <time>2020-06-15T16:26:02Z</time>
      </trkpt>
      <trkpt lat="49.41774" lon="-1.17774">
        <ele>3.5</ele>
        <time>2020-06-15T16:26:03Z</time>
      </trkpt>
      <trkpt lat="49.41779" lon="-1.17779">
        <ele>3.5</ele>
        <time>2020-06-15T16:26:04Z</time>
      </trkpt>
      <trkpt lat="49.41783" lon="-1.17783">
        <ele>3.5</ele>
        <time>2020-06-15T16:26:05Z</time>
      </trkpt>
      <trkpt lat="49.41787" lon="-1.17787">
        <ele>3.6</ele>
        <time>2020-06-15T16:26:06Z</time>
      </trkpt>
      <trkpt lat="49.41791" lon="-1.17792">
        <ele>3.6</ele>
        <time>2020-06-15T16:26:07Z</time>
      </trkpt>
      <trkpt lat="49.41795" lon="-1.17796">
        <ele>3.6</ele>
        <time>2020-06-15T16:26:08Z</time>
      </trkpt>
      <trkpt lat="49.41799" lon="-1.178">
        <ele>3.6</ele>
        <time>2020-06-15T16:26:09Z</time>
      </trkpt>
      <trkpt lat="49.41803" lon="-1.17804">
        <ele>3.6</ele>
        <time>2020-06-15T16:26:10Z</time>
      </trkpt>
      <trkpt lat="49.41807" lon="-1.17808">
        <ele>3.6</ele>
        <time>2020-06-15T16:26:11Z</time>
      </trkpt>
      <trkpt lat="49.41811" lon="-1.17812">
        <ele>3.6</ele>
        <time>2020-06-15T16:26:12Z</time>
      </trkpt>
      <trkpt lat="49.41815" lon="-1.17815">
        <ele>3.6</ele>
        <time>2020-06-15T16:26:13Z</time>
      </trkpt>
      <trkpt lat="49.41819" lon="-1.17819">
        <ele>3.6</ele>
        <time>2020-06-15T16:26:14Z</time>
      </trkpt>
      <trkpt lat="49.41824" lon="-1.17823">
        <ele>3.6</ele>
        <time>2020-06-15T16:26:15Z</time>
      </trkpt>
      <trkpt lat="49.41829" lon="-1.17826">
        <ele>3.6</ele>
        <time>2020-06-15T16:26:16Z</time>
      </trkpt>
      <trkpt lat="49.41833" lon="-1.1783">
        <ele>3.6</ele>
        <time>2020-06-15T16:26:17Z</time>
      </trkpt>
      <trkpt lat="49.41837" lon="-1.17834">
        <ele>3.6</ele>
        <time>2020-06-15T16:26:18Z</time>
      </trkpt>
      <trkpt lat="49.41842" lon="-1.17838">
        <ele>3.6</ele>
        <time>2020-06-15T16:26:19Z</time>
      </trkpt>
      <trkpt lat="49.41847" lon="-1.17842">
        <ele>3.6</ele>
        <time>2020-06-15T16:26:20Z</time>
      </trkpt>
      <trkpt lat="49.41851" lon="-1.17846">
        <ele>3.6</ele>
        <time>2020-06-15T16:26:21Z</time>
      </trkpt>
      <trkpt lat="49.41856" lon="-1.17851">
        <ele>3.7</ele>
        <time>2020-06-15T16:26:22Z</time>
      </trkpt>
      <trkpt lat="49.41861" lon="-1.17855">
        <ele>3.7</ele>
        <time>2020-06-15T16:26:23Z</time>
      </trkpt>
      <trkpt lat="49.41866" lon="-1.1786">
        <ele>3.7</ele>
        <time>2020-06-15T16:26:24Z</time>
      </trkpt>
      <trkpt lat="49.4187" lon="-1.17865">
        <ele>3.7</ele>
        <time>2020-06-15T16:26:25Z</time>
      </trkpt>
      <trkpt lat="49.41874" lon="-1.1787">
        <ele>3.6</ele>
        <time>2020-06-15T16:26:26Z</time>
      </trkpt>
      <trkpt lat="49.41879" lon="-1.17874">
        <ele>3.6</ele>
        <time>2020-06-15T16:26:27Z</time>
      </trkpt>
      <trkpt lat="49.41883" lon="-1.17879">
        <ele>3.6</ele>
        <time>2020-06-15T16:26:28Z</time>
      </trkpt>
      <trkpt lat="49.41887" lon="-1.17883">
        <ele>3.6</ele>
        <time>2020-06-15T16:26:29Z</time>
      </trkpt>
      <trkpt lat="49.41892" lon="-1.17888">
        <ele>3.6</ele>
        <time>2020-06-15T16:26:30Z</time>
      </trkpt>
      <trkpt lat="49.41896" lon="-1.17892">
        <ele>3.5</ele>
        <time>2020-06-15T16:26:31Z</time>
      </trkpt>
      <trkpt lat="49.419" lon="-1.17895">
        <ele>3.5</ele>
        <time>2020-06-15T16:26:32Z</time>
      </trkpt>
      <trkpt lat="49.41904" lon="-1.17899">
        <ele>3.5</ele>
        <time>2020-06-15T16:26:33Z</time>
      </trkpt>
      <trkpt lat="49.41909" lon="-1.17902">
        <ele>3.5</ele>
        <time>2020-06-15T16:26:34Z</time>
      </trkpt>
      <trkpt lat="49.41912" lon="-1.17906">
        <ele>3.5</ele>
        <time>2020-06-15T16:26:35Z</time>
      </trkpt>
      <trkpt lat="49.41917" lon="-1.17912">
        <ele>3.5</ele>
        <time>2020-06-15T16:26:36Z</time>
      </trkpt>
      <trkpt lat="49.41922" lon="-1.17916">
        <ele>3.5</ele>
        <time>2020-06-15T16:26:37Z</time>
      </trkpt>
      <trkpt lat="49.41927" lon="-1.1792">
        <ele>3.5</ele>
        <time>2020-06-15T16:26:38Z</time>
      </trkpt>
      <trkpt lat="49.41932" lon="-1.17924">
        <ele>3.5</ele>
        <time>2020-06-15T16:26:39Z</time>
      </trkpt>
      <trkpt lat="49.41937" lon="-1.17928">
        <ele>3.5</ele>
        <time>2020-06-15T16:26:40Z</time>
      </trkpt>
      <trkpt lat="49.41942" lon="-1.17932">
        <ele>3.5</ele>
        <time>2020-06-15T16:26:41Z</time>
      </trkpt>
      <trkpt lat="49.41947" lon="-1.17937">
        <ele>3.5</ele>
        <time>2020-06-15T16:26:42Z</time>
      </trkpt>
      <trkpt lat="49.41953" lon="-1.17942">
        <ele>3.5</ele>
        <time>2020-06-15T16:26:43Z</time>
      </trkpt>
      <trkpt lat="49.41958" lon="-1.17947">
        <ele>3.5</ele>
        <time>2020-06-15T16:26:44Z</time>
      </trkpt>
      <trkpt lat="49.41963" lon="-1.17952">
        <ele>3.5</ele>
        <time>2020-06-15T16:26:45Z</time>
      </trkpt>
      <trkpt lat="49.41967" lon="-1.17956">
        <ele>3.4</ele>
        <time>2020-06-15T16:26:46Z</time>
      </trkpt>
      <trkpt lat="49.41972" lon="-1.17961">
        <ele>3.4</ele>
        <time>2020-06-15T16:26:47Z</time>
      </trkpt>
      <trkpt lat="49.41977" lon="-1.17966">
        <ele>3.3</ele>
        <time>2020-06-15T16:26:48Z</time>
      </trkpt>
      <trkpt lat="49.41981" lon="-1.1797">
        <ele>3.3</ele>
        <time>2020-06-15T16:26:49Z</time>
      </trkpt>
      <trkpt lat="49.41986" lon="-1.17973">
        <ele>3.3</ele>
        <time>2020-06-15T16:26:50Z</time>
      </trkpt>
      <trkpt lat="49.41991" lon="-1.17978">
        <ele>3.3</ele>
        <time>2020-06-15T16:26:51Z</time>
      </trkpt>
      <trkpt lat="49.41995" lon="-1.17983">
        <ele>3.3</ele>
        <time>2020-06-15T16:26:52Z</time>
      </trkpt>
      <trkpt lat="49.42" lon="-1.17988">
        <ele>3.3</ele>
        <time>2020-06-15T16:26:53Z</time>
      </trkpt>
      <trkpt lat="49.42005" lon="-1.17993">
        <ele>3.4</ele>
        <time>2020-06-15T16:26:54Z</time>
      </trkpt>
      <trkpt lat="49.4201" lon="-1.17996">
        <ele>3.4</ele>
        <time>2020-06-15T16:26:55Z</time>
      </trkpt>
      <trkpt lat="49.42016" lon="-1.17998">
        <ele>3.5</ele>
        <time>2020-06-15T16:26:56Z</time>
      </trkpt>
      <trkpt lat="49.4202" lon="-1.18001">
        <ele>3.4</ele>
        <time>2020-06-15T16:26:57Z</time>
      </trkpt>
      <trkpt lat="49.42024" lon="-1.18004">
        <ele>3.4</ele>
        <time>2020-06-15T16:26:58Z</time>
      </trkpt>
      <trkpt lat="49.42029" lon="-1.18008">
        <ele>3.4</ele>
        <time>2020-06-15T16:26:59Z</time>
      </trkpt>
      <trkpt lat="49.42033" lon="-1.18012">
        <ele>3.4</ele>
        <time>2020-06-15T16:27:00Z</time>
      </trkpt>
      <trkpt lat="49.42038" lon="-1.18017">
        <ele>3.4</ele>
        <time>2020-06-15T16:27:01Z</time>
      </trkpt>
      <trkpt lat="49.42043" lon="-1.18022">
        <ele>3.3</ele>
        <time>2020-06-15T16:27:02Z</time>
      </trkpt>
      <trkpt lat="49.42047" lon="-1.18028">
        <ele>3.3</ele>
        <time>2020-06-15T16:27:03Z</time>
      </trkpt>
      <trkpt lat="49.42052" lon="-1.18034">
        <ele>3.3</ele>
        <time>2020-06-15T16:27:04Z</time>
      </trkpt>
      <trkpt lat="49.42056" lon="-1.18039">
        <ele>3.3</ele>
        <time>2020-06-15T16:27:05Z</time>
      </trkpt>
      <trkpt lat="49.4206" lon="-1.18044">
        <ele>3.3</ele>
        <time>2020-06-15T16:27:06Z</time>
      </trkpt>
      <trkpt lat="49.42064" lon="-1.1805">
        <ele>3.3</ele>
        <time>2020-06-15T16:27:07Z</time>
      </trkpt>
      <trkpt lat="49.42068" lon="-1.18056">
        <ele>3.3</ele>
        <time>2020-06-15T16:27:08Z</time>
      </trkpt>
      <trkpt lat="49.42072" lon="-1.18062">
        <ele>3.2</ele>
        <time>2020-06-15T16:27:09Z</time>
      </trkpt>
      <trkpt lat="49.42076" lon="-1.18069">
        <ele>3.2</ele>
        <time>2020-06-15T16:27:10Z</time>
      </trkpt>
      <trkpt lat="49.42081" lon="-1.18076">
        <ele>3.2</ele>
        <time>2020-06-15T16:27:11Z</time>
      </trkpt>
      <trkpt lat="49.42085" lon="-1.18083">
        <ele>3.2</ele>
        <time>2020-06-15T16:27:12Z</time>
      </trkpt>
      <trkpt lat="49.42089" lon="-1.1809">
        <ele>3.1</ele>
        <time>2020-06-15T16:27:13Z</time>
      </trkpt>
      <trkpt lat="49.42093" lon="-1.18096">
        <ele>3.1</ele>
        <time>2020-06-15T16:27:14Z</time>
      </trkpt>
      <trkpt lat="49.42097" lon="-1.18103">
        <ele>3.1</ele>
        <time>2020-06-15T16:27:15Z</time>
      </trkpt>
      <trkpt lat="49.42102" lon="-1.1811">
        <ele>3.1</ele>
        <time>2020-06-15T16:27:16Z</time>
      </trkpt>
      <trkpt lat="49.42106" lon="-1.18117">
        <ele>3.1</ele>
        <time>2020-06-15T16:27:17Z</time>
      </trkpt>
      <trkpt lat="49.4211" lon="-1.18124">
        <ele>3.1</ele>
        <time>2020-06-15T16:27:18Z</time>
      </trkpt>
      <trkpt lat="49.42114" lon="-1.1813">
        <ele>3.1</ele>
        <time>2020-06-15T16:27:19Z</time>
      </trkpt>
      <trkpt lat="49.42119" lon="-1.18137">
        <ele>3.1</ele>
        <time>2020-06-15T16:27:20Z</time>
      </trkpt>
      <trkpt lat="49.42123" lon="-1.18142">
        <ele>3.1</ele>
        <time>2020-06-15T16:27:21Z</time>
      </trkpt>
      <trkpt lat="49.42127" lon="-1.18148">
        <ele>3.1</ele>
        <time>2020-06-15T16:27:22Z</time>
      </trkpt>
      <trkpt lat="49.42131" lon="-1.18154">
        <ele>3.1</ele>
        <time>2020-06-15T16:27:23Z</time>
      </trkpt>
      <trkpt lat="49.42135" lon="-1.1816">
        <ele>3.1</ele>
        <time>2020-06-15T16:27:24Z</time>
      </trkpt>
      <trkpt lat="49.4214" lon="-1.18166">
        <ele>3</ele>
        <time>2020-06-15T16:27:25Z</time>
      </trkpt>
      <trkpt lat="49.42144" lon="-1.18172">
        <ele>3</ele>
        <time>2020-06-15T16:27:26Z</time>
      </trkpt>
      <trkpt lat="49.42149" lon="-1.18179">
        <ele>2.9</ele>
        <time>2020-06-15T16:27:27Z</time>
      </trkpt>
      <trkpt lat="49.42154" lon="-1.18186">
        <ele>2.9</ele>
        <time>2020-06-15T16:27:28Z</time>
      </trkpt>
      <trkpt lat="49.42158" lon="-1.1819">
        <ele>2.9</ele>
        <time>2020-06-15T16:27:29Z</time>
      </trkpt>
      <trkpt lat="49.42164" lon="-1.18197">
        <ele>2.8</ele>
        <time>2020-06-15T16:27:30Z</time>
      </trkpt>
      <trkpt lat="49.42169" lon="-1.18202">
        <ele>2.8</ele>
        <time>2020-06-15T16:27:31Z</time>
      </trkpt>
      <trkpt lat="49.42174" lon="-1.18208">
        <ele>2.8</ele>
        <time>2020-06-15T16:27:32Z</time>
      </trkpt>
      <trkpt lat="49.42178" lon="-1.18212">
        <ele>2.8</ele>
        <time>2020-06-15T16:27:33Z</time>
      </trkpt>
      <trkpt lat="49.42184" lon="-1.18217">
        <ele>2.8</ele>
        <time>2020-06-15T16:27:34Z</time>
      </trkpt>
      <trkpt lat="49.42188" lon="-1.18222">
        <ele>2.8</ele>
        <time>2020-06-15T16:27:35Z</time>
      </trkpt>
      <trkpt lat="49.42194" lon="-1.18227">
        <ele>2.8</ele>
        <time>2020-06-15T16:27:36Z</time>
      </trkpt>
      <trkpt lat="49.42198" lon="-1.18231">
        <ele>2.8</ele>
        <time>2020-06-15T16:27:37Z</time>
      </trkpt>
      <trkpt lat="49.42203" lon="-1.18235">
        <ele>2.8</ele>
        <time>2020-06-15T16:27:38Z</time>
      </trkpt>
      <trkpt lat="49.42209" lon="-1.1824">
        <ele>2.8</ele>
        <time>2020-06-15T16:27:39Z</time>
      </trkpt>
      <trkpt lat="49.42214" lon="-1.18245">
        <ele>2.8</ele>
        <time>2020-06-15T16:27:40Z</time>
      </trkpt>
      <trkpt lat="49.4222" lon="-1.1825">
        <ele>2.8</ele>
        <time>2020-06-15T16:27:41Z</time>
      </trkpt>
      <trkpt lat="49.42225" lon="-1.18254">
        <ele>2.9</ele>
        <time>2020-06-15T16:27:42Z</time>
      </trkpt>
      <trkpt lat="49.4223" lon="-1.18259">
        <ele>2.9</ele>
        <time>2020-06-15T16:27:43Z</time>
      </trkpt>
      <trkpt lat="49.42235" lon="-1.18263">
        <ele>2.9</ele>
        <time>2020-06-15T16:27:44Z</time>
      </trkpt>
      <trkpt lat="49.4224" lon="-1.18267">
        <ele>2.9</ele>
        <time>2020-06-15T16:27:45Z</time>
      </trkpt>
      <trkpt lat="49.42245" lon="-1.1827">
        <ele>2.9</ele>
        <time>2020-06-15T16:27:46Z</time>
      </trkpt>
      <trkpt lat="49.4225" lon="-1.18275">
        <ele>2.9</ele>
        <time>2020-06-15T16:27:47Z</time>
      </trkpt>
      <trkpt lat="49.42255" lon="-1.1828">
        <ele>2.9</ele>
        <time>2020-06-15T16:27:48Z</time>
      </trkpt>
      <trkpt lat="49.4226" lon="-1.18285">
        <ele>2.9</ele>
        <time>2020-06-15T16:27:49Z</time>
      </trkpt>
      <trkpt lat="49.42266" lon="-1.1829">
        <ele>3</ele>
        <time>2020-06-15T16:27:50Z</time>
      </trkpt>
      <trkpt lat="49.42271" lon="-1.18295">
        <ele>3.1</ele>
        <time>2020-06-15T16:27:51Z</time>
      </trkpt>
      <trkpt lat="49.42277" lon="-1.18301">
        <ele>3.2</ele>
        <time>2020-06-15T16:27:52Z</time>
      </trkpt>
      <trkpt lat="49.42282" lon="-1.18305">
        <ele>3.2</ele>
        <time>2020-06-15T16:27:53Z</time>
      </trkpt>
      <trkpt lat="49.42285" lon="-1.18309">
        <ele>3.3</ele>
        <time>2020-06-15T16:27:54Z</time>
      </trkpt>
      <trkpt lat="49.42289" lon="-1.18314">
        <ele>3.3</ele>
        <time>2020-06-15T16:27:55Z</time>
      </trkpt>
      <trkpt lat="49.42294" lon="-1.18318">
        <ele>3.4</ele>
        <time>2020-06-15T16:27:56Z</time>
      </trkpt>
      <trkpt lat="49.42298" lon="-1.18323">
        <ele>3.4</ele>
        <time>2020-06-15T16:27:57Z</time>
      </trkpt>
      <trkpt lat="49.42303" lon="-1.18327">
        <ele>3.4</ele>
        <time>2020-06-15T16:27:58Z</time>
      </trkpt>
      <trkpt lat="49.42308" lon="-1.18332">
        <ele>3.3</ele>
        <time>2020-06-15T16:27:59Z</time>
      </trkpt>
      <trkpt lat="49.42313" lon="-1.18337">
        <ele>3.3</ele>
        <time>2020-06-15T16:28:00Z</time>
      </trkpt>
      <trkpt lat="49.42317" lon="-1.18342">
        <ele>3.2</ele>
        <time>2020-06-15T16:28:01Z</time>
      </trkpt>
      <trkpt lat="49.42322" lon="-1.18347">
        <ele>3.2</ele>
        <time>2020-06-15T16:28:02Z</time>
      </trkpt>
      <trkpt lat="49.42327" lon="-1.18352">
        <ele>3.1</ele>
        <time>2020-06-15T16:28:03Z</time>
      </trkpt>
      <trkpt lat="49.42332" lon="-1.18358">
        <ele>3</ele>
        <time>2020-06-15T16:28:04Z</time>
      </trkpt>
      <trkpt lat="49.42337" lon="-1.18364">
        <ele>3</ele>
        <time>2020-06-15T16:28:05Z</time>
      </trkpt>
      <trkpt lat="49.42342" lon="-1.1837">
        <ele>2.9</ele>
        <time>2020-06-15T16:28:06Z</time>
      </trkpt>
      <trkpt lat="49.42346" lon="-1.18375">
        <ele>2.9</ele>
        <time>2020-06-15T16:28:07Z</time>
      </trkpt>
      <trkpt lat="49.42351" lon="-1.1838">
        <ele>2.9</ele>
        <time>2020-06-15T16:28:08Z</time>
      </trkpt>
      <trkpt lat="49.42356" lon="-1.18386">
        <ele>2.8</ele>
        <time>2020-06-15T16:28:09Z</time>
      </trkpt>
      <trkpt lat="49.42361" lon="-1.1839">
        <ele>2.8</ele>
        <time>2020-06-15T16:28:10Z</time>
      </trkpt>
      <trkpt lat="49.42366" lon="-1.18395">
        <ele>2.8</ele>
        <time>2020-06-15T16:28:11Z</time>
      </trkpt>
      <trkpt lat="49.42371" lon="-1.184">
        <ele>2.8</ele>
        <time>2020-06-15T16:28:12Z</time>
      </trkpt>
      <trkpt lat="49.42376" lon="-1.18405">
        <ele>2.8</ele>
        <time>2020-06-15T16:28:13Z</time>
      </trkpt>
      <trkpt lat="49.42381" lon="-1.18411">
        <ele>2.7</ele>
        <time>2020-06-15T16:28:14Z</time>
      </trkpt>
      <trkpt lat="49.42386" lon="-1.18416">
        <ele>2.7</ele>
        <time>2020-06-15T16:28:15Z</time>
      </trkpt>
      <trkpt lat="49.42392" lon="-1.18422">
        <ele>2.7</ele>
        <time>2020-06-15T16:28:16Z</time>
      </trkpt>
      <trkpt lat="49.42397" lon="-1.18427">
        <ele>2.7</ele>
        <time>2020-06-15T16:28:17Z</time>
      </trkpt>
      <trkpt lat="49.42402" lon="-1.18431">
        <ele>2.7</ele>
        <time>2020-06-15T16:28:18Z</time>
      </trkpt>
      <trkpt lat="49.42407" lon="-1.18436">
        <ele>2.6</ele>
        <time>2020-06-15T16:28:19Z</time>
      </trkpt>
      <trkpt lat="49.42412" lon="-1.1844">
        <ele>2.6</ele>
        <time>2020-06-15T16:28:20Z</time>
      </trkpt>
      <trkpt lat="49.42417" lon="-1.18446">
        <ele>2.6</ele>
        <time>2020-06-15T16:28:21Z</time>
      </trkpt>
      <trkpt lat="49.42422" lon="-1.18451">
        <ele>2.5</ele>
        <time>2020-06-15T16:28:22Z</time>
      </trkpt>
      <trkpt lat="49.42427" lon="-1.18456">
        <ele>2.5</ele>
        <time>2020-06-15T16:28:23Z</time>
      </trkpt>
      <trkpt lat="49.42432" lon="-1.18462">
        <ele>2.5</ele>
        <time>2020-06-15T16:28:24Z</time>
      </trkpt>
      <trkpt lat="49.42436" lon="-1.18467">
        <ele>2.5</ele>
        <time>2020-06-15T16:28:25Z</time>
      </trkpt>
      <trkpt lat="49.42441" lon="-1.18472">
        <ele>2.5</ele>
        <time>2020-06-15T16:28:26Z</time>
      </trkpt>
      <trkpt lat="49.42446" lon="-1.18478">
        <ele>2.4</ele>
        <time>2020-06-15T16:28:27Z</time>
      </trkpt>
      <trkpt lat="49.42451" lon="-1.18484">
        <ele>2.4</ele>
        <time>2020-06-15T16:28:28Z</time>
      </trkpt>
      <trkpt lat="49.42456" lon="-1.1849">
        <ele>2.4</ele>
        <time>2020-06-15T16:28:29Z</time>
      </trkpt>
      <trkpt lat="49.42462" lon="-1.18496">
        <ele>2.4</ele>
        <time>2020-06-15T16:28:30Z</time>
      </trkpt>
      <trkpt lat="49.42467" lon="-1.18501">
        <ele>2.5</ele>
        <time>2020-06-15T16:28:31Z</time>
      </trkpt>
      <trkpt lat="49.42472" lon="-1.18507">
        <ele>2.5</ele>
        <time>2020-06-15T16:28:32Z</time>
      </trkpt>
      <trkpt lat="49.42478" lon="-1.18512">
        <ele>2.5</ele>
        <time>2020-06-15T16:28:33Z</time>
      </trkpt>
      <trkpt lat="49.42482" lon="-1.18518">
        <ele>2.5</ele>
        <time>2020-06-15T16:28:34Z</time>
      </trkpt>
      <trkpt lat="49.42487" lon="-1.18522">
        <ele>2.5</ele>
        <time>2020-06-15T16:28:35Z</time>
      </trkpt>
      <trkpt lat="49.42492" lon="-1.18529">
        <ele>2.5</ele>
        <time>2020-06-15T16:28:36Z</time>
      </trkpt>
      <trkpt lat="49.42496" lon="-1.18534">
        <ele>2.5</ele>
        <time>2020-06-15T16:28:37Z</time>
      </trkpt>
      <trkpt lat="49.42502" lon="-1.1854">
        <ele>2.5</ele>
        <time>2020-06-15T16:28:38Z</time>
      </trkpt>
      <trkpt lat="49.42507" lon="-1.18546">
        <ele>2.5</ele>
        <time>2020-06-15T16:28:39Z</time>
      </trkpt>
      <trkpt lat="49.42512" lon="-1.18552">
        <ele>2.5</ele>
        <time>2020-06-15T16:28:40Z</time>
      </trkpt>
      <trkpt lat="49.42518" lon="-1.18558">
        <ele>2.5</ele>
        <time>2020-06-15T16:28:41Z</time>
      </trkpt>
      <trkpt lat="49.42523" lon="-1.18564">
        <ele>2.5</ele>
        <time>2020-06-15T16:28:42Z</time>
      </trkpt>
      <trkpt lat="49.42528" lon="-1.18569">
        <ele>2.6</ele>
        <time>2020-06-15T16:28:43Z</time>
      </trkpt>
      <trkpt lat="49.42533" lon="-1.18574">
        <ele>2.6</ele>
        <time>2020-06-15T16:28:44Z</time>
      </trkpt>
      <trkpt lat="49.42537" lon="-1.1858">
        <ele>2.6</ele>
        <time>2020-06-15T16:28:45Z</time>
      </trkpt>
      <trkpt lat="49.42542" lon="-1.18585">
        <ele>2.6</ele>
        <time>2020-06-15T16:28:46Z</time>
      </trkpt>
      <trkpt lat="49.42547" lon="-1.18591">
        <ele>2.7</ele>
        <time>2020-06-15T16:28:47Z</time>
      </trkpt>
      <trkpt lat="49.42552" lon="-1.18595">
        <ele>2.7</ele>
        <time>2020-06-15T16:28:48Z</time>
      </trkpt>
      <trkpt lat="49.42556" lon="-1.186">
        <ele>2.7</ele>
        <time>2020-06-15T16:28:49Z</time>
      </trkpt>
      <trkpt lat="49.42561" lon="-1.18604">
        <ele>2.7</ele>
        <time>2020-06-15T16:28:50Z</time>
      </trkpt>
      <trkpt lat="49.42565" lon="-1.1861">
        <ele>2.8</ele>
        <time>2020-06-15T16:28:51Z</time>
      </trkpt>
      <trkpt lat="49.4257" lon="-1.18615">
        <ele>2.8</ele>
        <time>2020-06-15T16:28:52Z</time>
      </trkpt>
      <trkpt lat="49.42575" lon="-1.1862">
        <ele>2.8</ele>
        <time>2020-06-15T16:28:53Z</time>
      </trkpt>
      <trkpt lat="49.4258" lon="-1.18626">
        <ele>2.8</ele>
        <time>2020-06-15T16:28:54Z</time>
      </trkpt>
      <trkpt lat="49.42586" lon="-1.18631">
        <ele>2.9</ele>
        <time>2020-06-15T16:28:55Z</time>
      </trkpt>
      <trkpt lat="49.42592" lon="-1.18637">
        <ele>2.9</ele>
        <time>2020-06-15T16:28:56Z</time>
      </trkpt>
      <trkpt lat="49.42597" lon="-1.18642">
        <ele>2.9</ele>
        <time>2020-06-15T16:28:57Z</time>
      </trkpt>
      <trkpt lat="49.42603" lon="-1.18649">
        <ele>2.9</ele>
        <time>2020-06-15T16:28:58Z</time>
      </trkpt>
      <trkpt lat="49.42608" lon="-1.18654">
        <ele>2.9</ele>
        <time>2020-06-15T16:28:59Z</time>
      </trkpt>
      <trkpt lat="49.42614" lon="-1.1866">
        <ele>3</ele>
        <time>2020-06-15T16:29:00Z</time>
      </trkpt>
      <trkpt lat="49.42619" lon="-1.18665">
        <ele>3</ele>
        <time>2020-06-15T16:29:01Z</time>
      </trkpt>
      <trkpt lat="49.42623" lon="-1.18671">
        <ele>3</ele>
        <time>2020-06-15T16:29:02Z</time>
      </trkpt>
      <trkpt lat="49.42627" lon="-1.18675">
        <ele>3</ele>
        <time>2020-06-15T16:29:03Z</time>
      </trkpt>
      <trkpt lat="49.42632" lon="-1.1868">
        <ele>3</ele>
        <time>2020-06-15T16:29:04Z</time>
      </trkpt>
      <trkpt lat="49.42637" lon="-1.18685">
        <ele>3</ele>
        <time>2020-06-15T16:29:05Z</time>
      </trkpt>
      <trkpt lat="49.42641" lon="-1.1869">
        <ele>3</ele>
        <time>2020-06-15T16:29:06Z</time>
      </trkpt>
      <trkpt lat="49.42645" lon="-1.18694">
        <ele>3.1</ele>
        <time>2020-06-15T16:29:07Z</time>
      </trkpt>
      <trkpt lat="49.42651" lon="-1.187">
        <ele>3.1</ele>
        <time>2020-06-15T16:29:08Z</time>
      </trkpt>
      <trkpt lat="49.42656" lon="-1.18705">
        <ele>3.1</ele>
        <time>2020-06-15T16:29:09Z</time>
      </trkpt>
      <trkpt lat="49.4266" lon="-1.1871">
        <ele>3.1</ele>
        <time>2020-06-15T16:29:10Z</time>
      </trkpt>
      <trkpt lat="49.42664" lon="-1.18714">
        <ele>3.1</ele>
        <time>2020-06-15T16:29:11Z</time>
      </trkpt>
      <trkpt lat="49.42669" lon="-1.18719">
        <ele>3.1</ele>
        <time>2020-06-15T16:29:12Z</time>
      </trkpt>
      <trkpt lat="49.42673" lon="-1.18724">
        <ele>3.1</ele>
        <time>2020-06-15T16:29:13Z</time>
      </trkpt>
      <trkpt lat="49.42679" lon="-1.1873">
        <ele>3.1</ele>
        <time>2020-06-15T16:29:14Z</time>
      </trkpt>
      <trkpt lat="49.42683" lon="-1.18735">
        <ele>3.1</ele>
        <time>2020-06-15T16:29:15Z</time>
      </trkpt>
      <trkpt lat="49.42688" lon="-1.18739">
        <ele>3.1</ele>
        <time>2020-06-15T16:29:16Z</time>
      </trkpt>
      <trkpt lat="49.42692" lon="-1.18744">
        <ele>3.1</ele>
        <time>2020-06-15T16:29:17Z</time>
      </trkpt>
      <trkpt lat="49.42697" lon="-1.18749">
        <ele>3.2</ele>
        <time>2020-06-15T16:29:18Z</time>
      </trkpt>
      <trkpt lat="49.42702" lon="-1.18753">
        <ele>3.2</ele>
        <time>2020-06-15T16:29:19Z</time>
      </trkpt>
      <trkpt lat="49.42707" lon="-1.18759">
        <ele>3.2</ele>
        <time>2020-06-15T16:29:20Z</time>
      </trkpt>
      <trkpt lat="49.42712" lon="-1.18764">
        <ele>3.3</ele>
        <time>2020-06-15T16:29:21Z</time>
      </trkpt>
      <trkpt lat="49.42717" lon="-1.18769">
        <ele>3.3</ele>
        <time>2020-06-15T16:29:22Z</time>
      </trkpt>
      <trkpt lat="49.42722" lon="-1.18771">
        <ele>3.3</ele>
        <time>2020-06-15T16:29:23Z</time>
      </trkpt>
      <trkpt lat="49.42727" lon="-1.18774">
        <ele>3.4</ele>
        <time>2020-06-15T16:29:24Z</time>
      </trkpt>
      <trkpt lat="49.42732" lon="-1.18778">
        <ele>3.4</ele>
        <time>2020-06-15T16:29:25Z</time>
      </trkpt>
      <trkpt lat="49.42737" lon="-1.18782">
        <ele>3.4</ele>
        <time>2020-06-15T16:29:26Z</time>
      </trkpt>
      <trkpt lat="49.42742" lon="-1.18785">
        <ele>3.4</ele>
        <time>2020-06-15T16:29:27Z</time>
      </trkpt>
      <trkpt lat="49.42747" lon="-1.18789">
        <ele>3.4</ele>
        <time>2020-06-15T16:29:28Z</time>
      </trkpt>
      <trkpt lat="49.42752" lon="-1.18793">
        <ele>3.4</ele>
        <time>2020-06-15T16:29:29Z</time>
      </trkpt>
      <trkpt lat="49.42757" lon="-1.18799">
        <ele>3.4</ele>
        <time>2020-06-15T16:29:30Z</time>
      </trkpt>
      <trkpt lat="49.42761" lon="-1.18803">
        <ele>3.4</ele>
        <time>2020-06-15T16:29:31Z</time>
      </trkpt>
      <trkpt lat="49.42766" lon="-1.18807">
        <ele>3.4</ele>
        <time>2020-06-15T16:29:32Z</time>
      </trkpt>
      <trkpt lat="49.42771" lon="-1.18812">
        <ele>3.4</ele>
        <time>2020-06-15T16:29:33Z</time>
      </trkpt>
      <trkpt lat="49.42776" lon="-1.18817">
        <ele>3.4</ele>
        <time>2020-06-15T16:29:34Z</time>
      </trkpt>
      <trkpt lat="49.42781" lon="-1.18823">
        <ele>3.4</ele>
        <time>2020-06-15T16:29:35Z</time>
      </trkpt>
      <trkpt lat="49.42786" lon="-1.18828">
        <ele>3.4</ele>
        <time>2020-06-15T16:29:36Z</time>
      </trkpt>
      <trkpt lat="49.42791" lon="-1.18833">
        <ele>3.4</ele>
        <time>2020-06-15T16:29:37Z</time>
      </trkpt>
      <trkpt lat="49.42796" lon="-1.18837">
        <ele>3.4</ele>
        <time>2020-06-15T16:29:38Z</time>
      </trkpt>
      <trkpt lat="49.428" lon="-1.18842">
        <ele>3.4</ele>
        <time>2020-06-15T16:29:39Z</time>
      </trkpt>
      <trkpt lat="49.42804" lon="-1.18846">
        <ele>3.3</ele>
        <time>2020-06-15T16:29:40Z</time>
      </trkpt>
      <trkpt lat="49.42809" lon="-1.18852">
        <ele>3.3</ele>
        <time>2020-06-15T16:29:41Z</time>
      </trkpt>
      <trkpt lat="49.42813" lon="-1.18857">
        <ele>3.3</ele>
        <time>2020-06-15T16:29:42Z</time>
      </trkpt>
      <trkpt lat="49.42817" lon="-1.18864">
        <ele>3.3</ele>
        <time>2020-06-15T16:29:43Z</time>
      </trkpt>
      <trkpt lat="49.42822" lon="-1.18871">
        <ele>3.3</ele>
        <time>2020-06-15T16:29:44Z</time>
      </trkpt>
      <trkpt lat="49.42826" lon="-1.18878">
        <ele>3.3</ele>
        <time>2020-06-15T16:29:45Z</time>
      </trkpt>
      <trkpt lat="49.4283" lon="-1.18884">
        <ele>3.2</ele>
        <time>2020-06-15T16:29:46Z</time>
      </trkpt>
      <trkpt lat="49.42834" lon="-1.18892">
        <ele>3.2</ele>
        <time>2020-06-15T16:29:47Z</time>
      </trkpt>
      <trkpt lat="49.42838" lon="-1.189">
        <ele>3.1</ele>
        <time>2020-06-15T16:29:48Z</time>
      </trkpt>
      <trkpt lat="49.42842" lon="-1.18909">
        <ele>3</ele>
        <time>2020-06-15T16:29:49Z</time>
      </trkpt>
      <trkpt lat="49.42846" lon="-1.18917">
        <ele>2.9</ele>
        <time>2020-06-15T16:29:50Z</time>
      </trkpt>
      <trkpt lat="49.4285" lon="-1.18925">
        <ele>2.8</ele>
        <time>2020-06-15T16:29:51Z</time>
      </trkpt>
      <trkpt lat="49.42853" lon="-1.18933">
        <ele>2.7</ele>
        <time>2020-06-15T16:29:52Z</time>
      </trkpt>
      <trkpt lat="49.42856" lon="-1.18941">
        <ele>2.7</ele>
        <time>2020-06-15T16:29:53Z</time>
      </trkpt>
      <trkpt lat="49.42858" lon="-1.1895">
        <ele>2.6</ele>
        <time>2020-06-15T16:29:54Z</time>
      </trkpt>
      <trkpt lat="49.42862" lon="-1.1896">
        <ele>2.5</ele>
        <time>2020-06-15T16:29:55Z</time>
      </trkpt>
      <trkpt lat="49.42864" lon="-1.1897">
        <ele>2.5</ele>
        <time>2020-06-15T16:29:56Z</time>
      </trkpt>
      <trkpt lat="49.42867" lon="-1.1898">
        <ele>2.4</ele>
        <time>2020-06-15T16:29:57Z</time>
      </trkpt>
      <trkpt lat="49.42869" lon="-1.18989">
        <ele>2.4</ele>
        <time>2020-06-15T16:29:58Z</time>
      </trkpt>
      <trkpt lat="49.42871" lon="-1.18998">
        <ele>2.4</ele>
        <time>2020-06-15T16:29:59Z</time>
      </trkpt>
      <trkpt lat="49.42872" lon="-1.19006">
        <ele>2.3</ele>
        <time>2020-06-15T16:30:00Z</time>
      </trkpt>
      <trkpt lat="49.42874" lon="-1.19014">
        <ele>2.3</ele>
        <time>2020-06-15T16:30:01Z</time>
      </trkpt>
      <trkpt lat="49.42875" lon="-1.1902">
        <ele>2.3</ele>
        <time>2020-06-15T16:30:02Z</time>
      </trkpt>
      <trkpt lat="49.42876" lon="-1.19026">
        <ele>2.3</ele>
        <time>2020-06-15T16:30:03Z</time>
      </trkpt>
      <trkpt lat="49.42877" lon="-1.1903">
        <ele>2.3</ele>
        <time>2020-06-15T16:30:04Z</time>
      </trkpt>
      <trkpt lat="49.42878" lon="-1.19034">
        <ele>2.3</ele>
        <time>2020-06-15T16:30:05Z</time>
      </trkpt>
      <trkpt lat="49.42878" lon="-1.19036">
        <ele>2.3</ele>
        <time>2020-06-15T16:30:06Z</time>
      </trkpt>
      <trkpt lat="49.42879" lon="-1.19037">
        <ele>2.3</ele>
        <time>2020-06-15T16:30:07Z</time>
      </trkpt>
      <trkpt lat="49.42879" lon="-1.19038">
        <ele>2.3</ele>
        <time>2020-06-15T16:30:08Z</time>
      </trkpt>
      <trkpt lat="49.42879" lon="-1.19037">
        <ele>2.3</ele>
        <time>2020-06-15T16:30:09Z</time>
      </trkpt>
      <trkpt lat="49.42879" lon="-1.19035">
        <ele>2.3</ele>
        <time>2020-06-15T16:30:10Z</time>
      </trkpt>
      <trkpt lat="49.4288" lon="-1.19033">
        <ele>2.3</ele>
        <time>2020-06-15T16:30:11Z</time>
      </trkpt>
      <trkpt lat="49.4288" lon="-1.19033">
        <ele>2.3</ele>
        <time>2020-06-15T16:30:12Z</time>
      </trkpt>
      <trkpt lat="49.4288" lon="-1.19033">
        <ele>2.3</ele>
        <time>2020-06-15T16:30:13Z</time>
      </trkpt>
      <trkpt lat="49.42881" lon="-1.19033">
        <ele>2.3</ele>
        <time>2020-06-15T16:30:14Z</time>
      </trkpt>
      <trkpt lat="49.42882" lon="-1.19033">
        <ele>2.3</ele>
        <time>2020-06-15T16:30:15Z</time>
      </trkpt>
      <trkpt lat="49.42882" lon="-1.19035">
        <ele>2.4</ele>
        <time>2020-06-15T16:30:16Z</time>
      </trkpt>
      <trkpt lat="49.42883" lon="-1.19031">
        <ele>2.4</ele>
        <time>2020-06-15T16:30:17Z</time>
      </trkpt>
      <trkpt lat="49.42884" lon="-1.19027">
        <ele>2.4</ele>
        <time>2020-06-15T16:30:18Z</time>
      </trkpt>
      <trkpt lat="49.42886" lon="-1.19024">
        <ele>2.4</ele>
        <time>2020-06-15T16:30:19Z</time>
      </trkpt>
      <trkpt lat="49.42887" lon="-1.19021">
        <ele>2.5</ele>
        <time>2020-06-15T16:30:27Z</time>
      </trkpt>
      <trkpt lat="49.42888" lon="-1.19018">
        <ele>2.5</ele>
        <time>2020-06-15T16:30:28Z</time>
      </trkpt>
      <trkpt lat="49.42889" lon="-1.19015">
        <ele>2.5</ele>
        <time>2020-06-15T16:30:29Z</time>
      </trkpt>
      <trkpt lat="49.4289" lon="-1.19013">
        <ele>2.6</ele>
        <time>2020-06-15T16:30:30Z</time>
      </trkpt>
      <trkpt lat="49.42891" lon="-1.19011">
        <ele>2.6</ele>
        <time>2020-06-15T16:30:31Z</time>
      </trkpt>
      <trkpt lat="49.42893" lon="-1.19007">
        <ele>2.7</ele>
        <time>2020-06-15T16:30:32Z</time>
      </trkpt>
      <trkpt lat="49.42893" lon="-1.19006">
        <ele>2.7</ele>
        <time>2020-06-15T16:30:33Z</time>
      </trkpt>
      <trkpt lat="49.42895" lon="-1.19003">
        <ele>2.7</ele>
        <time>2020-06-15T16:30:34Z</time>
      </trkpt>
      <trkpt lat="49.42895" lon="-1.19002">
        <ele>2.8</ele>
        <time>2020-06-15T16:30:35Z</time>
      </trkpt>
      <trkpt lat="49.42897" lon="-1.18999">
        <ele>2.8</ele>
        <time>2020-06-15T16:30:36Z</time>
      </trkpt>
      <trkpt lat="49.42898" lon="-1.18999">
        <ele>2.9</ele>
        <time>2020-06-15T16:30:37Z</time>
      </trkpt>
      <trkpt lat="49.42898" lon="-1.18999">
        <ele>2.9</ele>
        <time>2020-06-15T16:30:38Z</time>
      </trkpt>
      <trkpt lat="49.42899" lon="-1.18997">
        <ele>2.9</ele>
        <time>2020-06-15T16:30:39Z</time>
      </trkpt>
      <trkpt lat="49.42901" lon="-1.18996">
        <ele>3</ele>
        <time>2020-06-15T16:30:40Z</time>
      </trkpt>
      <trkpt lat="49.42901" lon="-1.18994">
        <ele>3</ele>
        <time>2020-06-15T16:30:41Z</time>
      </trkpt>
      <trkpt lat="49.42903" lon="-1.18993">
        <ele>3.1</ele>
        <time>2020-06-15T16:30:42Z</time>
      </trkpt>
      <trkpt lat="49.42904" lon="-1.18992">
        <ele>3.1</ele>
        <time>2020-06-15T16:30:43Z</time>
      </trkpt>
      <trkpt lat="49.42905" lon="-1.18992">
        <ele>3.1</ele>
        <time>2020-06-15T16:30:44Z</time>
      </trkpt>
      <trkpt lat="49.42907" lon="-1.18991">
        <ele>3.1</ele>
        <time>2020-06-15T16:30:45Z</time>
      </trkpt>
      <trkpt lat="49.42908" lon="-1.18989">
        <ele>3.2</ele>
        <time>2020-06-15T16:30:46Z</time>
      </trkpt>
      <trkpt lat="49.42909" lon="-1.18987">
        <ele>3.2</ele>
        <time>2020-06-15T16:30:47Z</time>
      </trkpt>
      <trkpt lat="49.42909" lon="-1.18986">
        <ele>3.3</ele>
        <time>2020-06-15T16:30:48Z</time>
      </trkpt>
      <trkpt lat="49.4291" lon="-1.18984">
        <ele>3.3</ele>
        <time>2020-06-15T16:30:49Z</time>
      </trkpt>
      <trkpt lat="49.4291" lon="-1.18984">
        <ele>3.3</ele>
        <time>2020-06-15T16:30:50Z</time>
      </trkpt>
      <trkpt lat="49.4291" lon="-1.18983">
        <ele>3.3</ele>
        <time>2020-06-15T16:30:51Z</time>
      </trkpt>
      <trkpt lat="49.4291" lon="-1.18983">
        <ele>3.4</ele>
        <time>2020-06-15T16:30:52Z</time>
      </trkpt>
      <trkpt lat="49.4291" lon="-1.18983">
        <ele>3.5</ele>
        <time>2020-06-15T16:30:53Z</time>
      </trkpt>
      <trkpt lat="49.4291" lon="-1.18982">
        <ele>3.5</ele>
        <time>2020-06-15T16:30:54Z</time>
      </trkpt>
      <trkpt lat="49.42911" lon="-1.18981">
        <ele>3.5</ele>
        <time>2020-06-15T16:30:55Z</time>
      </trkpt>
      <trkpt lat="49.42911" lon="-1.18981">
        <ele>3.6</ele>
        <time>2020-06-15T16:30:56Z</time>
      </trkpt>
      <trkpt lat="49.42911" lon="-1.1898">
        <ele>3.6</ele>
        <time>2020-06-15T16:30:57Z</time>
      </trkpt>
      <trkpt lat="49.42911" lon="-1.18979">
        <ele>3.6</ele>
        <time>2020-06-15T16:30:58Z</time>
      </trkpt>
      <trkpt lat="49.42911" lon="-1.18979">
        <ele>3.7</ele>
        <time>2020-06-15T16:30:59Z</time>
      </trkpt>
      <trkpt lat="49.42934" lon="-1.1888">
        <ele>0.4</ele>
        <time>2020-06-15T16:32:29Z</time>
      </trkpt>
      <trkpt lat="49.42935" lon="-1.18882">
        <ele>0.5</ele>
        <time>2020-06-15T16:32:30Z</time>
      </trkpt>
      <trkpt lat="49.42935" lon="-1.18884">
        <ele>0.5</ele>
        <time>2020-06-15T16:32:31Z</time>
      </trkpt>
      <trkpt lat="49.42935" lon="-1.18886">
        <ele>0.6</ele>
        <time>2020-06-15T16:32:32Z</time>
      </trkpt>
      <trkpt lat="49.42934" lon="-1.1889">
        <ele>0.6</ele>
        <time>2020-06-15T16:32:33Z</time>
      </trkpt>
      <trkpt lat="49.42934" lon="-1.18892">
        <ele>0.7</ele>
        <time>2020-06-15T16:32:34Z</time>
      </trkpt>
      <trkpt lat="49.42933" lon="-1.18895">
        <ele>0.7</ele>
        <time>2020-06-15T16:32:35Z</time>
      </trkpt>
      <trkpt lat="49.42933" lon="-1.18896">
        <ele>0.8</ele>
        <time>2020-06-15T16:32:36Z</time>
      </trkpt>
      <trkpt lat="49.42933" lon="-1.18897">
        <ele>0.8</ele>
        <time>2020-06-15T16:32:37Z</time>
      </trkpt>
      <trkpt lat="49.42932" lon="-1.189">
        <ele>0.8</ele>
        <time>2020-06-15T16:32:38Z</time>
      </trkpt>
      <trkpt lat="49.42932" lon="-1.18901">
        <ele>0.7</ele>
        <time>2020-06-15T16:32:39Z</time>
      </trkpt>
      <trkpt lat="49.42932" lon="-1.18902">
        <ele>0.8</ele>
        <time>2020-06-15T16:32:40Z</time>
      </trkpt>
      <trkpt lat="49.42931" lon="-1.18903">
        <ele>0.7</ele>
        <time>2020-06-15T16:32:41Z</time>
      </trkpt>
      <trkpt lat="49.42932" lon="-1.18905">
        <ele>0.8</ele>
        <time>2020-06-15T16:32:42Z</time>
      </trkpt>
      <trkpt lat="49.42933" lon="-1.18906">
        <ele>0.7</ele>
        <time>2020-06-15T16:32:43Z</time>
      </trkpt>
      <trkpt lat="49.42933" lon="-1.18905">
        <ele>0.9</ele>
        <time>2020-06-15T16:32:44Z</time>
      </trkpt>
      <trkpt lat="49.42932" lon="-1.18906">
        <ele>0.8</ele>
        <time>2020-06-15T16:32:45Z</time>
      </trkpt>
      <trkpt lat="49.42931" lon="-1.18906">
        <ele>0.8</ele>
        <time>2020-06-15T16:32:46Z</time>
      </trkpt>
      <trkpt lat="49.4293" lon="-1.1891">
        <ele>0.8</ele>
        <time>2020-06-15T16:32:47Z</time>
      </trkpt>
      <trkpt lat="49.42928" lon="-1.1891">
        <ele>0.8</ele>
        <time>2020-06-15T16:32:48Z</time>
      </trkpt>
      <trkpt lat="49.42927" lon="-1.18911">
        <ele>0.8</ele>
        <time>2020-06-15T16:32:49Z</time>
      </trkpt>
      <trkpt lat="49.42926" lon="-1.18912">
        <ele>0.9</ele>
        <time>2020-06-15T16:32:50Z</time>
      </trkpt>
      <trkpt lat="49.42925" lon="-1.18914">
        <ele>0.9</ele>
        <time>2020-06-15T16:32:51Z</time>
      </trkpt>
      <trkpt lat="49.42924" lon="-1.18914">
        <ele>1</ele>
        <time>2020-06-15T16:32:52Z</time>
      </trkpt>
      <trkpt lat="49.42923" lon="-1.18914">
        <ele>1.1</ele>
        <time>2020-06-15T16:32:53Z</time>
      </trkpt>
      <trkpt lat="49.42922" lon="-1.18914">
        <ele>1.1</ele>
        <time>2020-06-15T16:32:54Z</time>
      </trkpt>
      <trkpt lat="49.42922" lon="-1.18914">
        <ele>1.1</ele>
        <time>2020-06-15T16:32:55Z</time>
      </trkpt>
      <trkpt lat="49.42923" lon="-1.18914">
        <ele>1.1</ele>
        <time>2020-06-15T16:32:56Z</time>
      </trkpt>
      <trkpt lat="49.42923" lon="-1.18913">
        <ele>1.1</ele>
        <time>2020-06-15T16:32:57Z</time>
      </trkpt>
      <trkpt lat="49.42922" lon="-1.18913">
        <ele>1.2</ele>
        <time>2020-06-15T16:32:58Z</time>
      </trkpt>
      <trkpt lat="49.42922" lon="-1.18913">
        <ele>1.2</ele>
        <time>2020-06-15T16:32:59Z</time>
      </trkpt>
      <trkpt lat="49.42922" lon="-1.18912">
        <ele>1.3</ele>
        <time>2020-06-15T16:33:00Z</time>
      </trkpt>
      <trkpt lat="49.42922" lon="-1.18912">
        <ele>1.3</ele>
        <time>2020-06-15T16:33:01Z</time>
      </trkpt>
      <trkpt lat="49.42922" lon="-1.18912">
        <ele>1.3</ele>
        <time>2020-06-15T16:33:02Z</time>
      </trkpt>
      <trkpt lat="49.42922" lon="-1.18911">
        <ele>1.4</ele>
        <time>2020-06-15T16:33:03Z</time>
      </trkpt>
      <trkpt lat="49.42922" lon="-1.1891">
        <ele>1.3</ele>
        <time>2020-06-15T16:33:04Z</time>
      </trkpt>
      <trkpt lat="49.42921" lon="-1.18909">
        <ele>1.3</ele>
        <time>2020-06-15T16:33:05Z</time>
      </trkpt>
      <trkpt lat="49.4292" lon="-1.1891">
        <ele>1.4</ele>
        <time>2020-06-15T16:33:06Z</time>
      </trkpt>
      <trkpt lat="49.4292" lon="-1.18908">
        <ele>1.4</ele>
        <time>2020-06-15T16:33:07Z</time>
      </trkpt>
      <trkpt lat="49.42921" lon="-1.18907">
        <ele>1.4</ele>
        <time>2020-06-15T16:33:08Z</time>
      </trkpt>
      <trkpt lat="49.4292" lon="-1.18907">
        <ele>1.5</ele>
        <time>2020-06-15T16:33:09Z</time>
      </trkpt>
      <trkpt lat="49.4292" lon="-1.18905">
        <ele>1.4</ele>
        <time>2020-06-15T16:33:10Z</time>
      </trkpt>
      <trkpt lat="49.42921" lon="-1.18906">
        <ele>1.5</ele>
        <time>2020-06-15T16:33:11Z</time>
      </trkpt>
      <trkpt lat="49.42922" lon="-1.18907">
        <ele>1.6</ele>
        <time>2020-06-15T16:33:12Z</time>
      </trkpt>
      <trkpt lat="49.42923" lon="-1.18908">
        <ele>1.6</ele>
        <time>2020-06-15T16:33:13Z</time>
      </trkpt>
      <trkpt lat="49.42924" lon="-1.18908">
        <ele>1.6</ele>
        <time>2020-06-15T16:33:14Z</time>
      </trkpt>
      <trkpt lat="49.42924" lon="-1.1891">
        <ele>1.7</ele>
        <time>2020-06-15T16:33:15Z</time>
      </trkpt>
      <trkpt lat="49.42924" lon="-1.18911">
        <ele>1.7</ele>
        <time>2020-06-15T16:33:16Z</time>
      </trkpt>
      <trkpt lat="49.42925" lon="-1.18913">
        <ele>1.7</ele>
        <time>2020-06-15T16:33:17Z</time>
      </trkpt>
      <trkpt lat="49.42925" lon="-1.18914">
        <ele>1.8</ele>
        <time>2020-06-15T16:33:18Z</time>
      </trkpt>
      <trkpt lat="49.42925" lon="-1.18914">
        <ele>1.8</ele>
        <time>2020-06-15T16:33:19Z</time>
      </trkpt>
      <trkpt lat="49.42925" lon="-1.18915">
        <ele>1.9</ele>
        <time>2020-06-15T16:33:20Z</time>
      </trkpt>
      <trkpt lat="49.42925" lon="-1.18915">
        <ele>2</ele>
        <time>2020-06-15T16:33:21Z</time>
      </trkpt>
      <trkpt lat="49.42925" lon="-1.18916">
        <ele>2</ele>
        <time>2020-06-15T16:33:22Z</time>
      </trkpt>
      <trkpt lat="49.42924" lon="-1.18916">
        <ele>2</ele>
        <time>2020-06-15T16:33:23Z</time>
      </trkpt>
      <trkpt lat="49.42924" lon="-1.18917">
        <ele>2.1</ele>
        <time>2020-06-15T16:33:24Z</time>
      </trkpt>
      <trkpt lat="49.42924" lon="-1.18917">
        <ele>2.1</ele>
        <time>2020-06-15T16:33:25Z</time>
      </trkpt>
      <trkpt lat="49.42924" lon="-1.18918">
        <ele>2.1</ele>
        <time>2020-06-15T16:33:26Z</time>
      </trkpt>
      <trkpt lat="49.42924" lon="-1.18919">
        <ele>2.3</ele>
        <time>2020-06-15T16:33:27Z</time>
      </trkpt>
      <trkpt lat="49.42923" lon="-1.18919">
        <ele>2.3</ele>
        <time>2020-06-15T16:33:28Z</time>
      </trkpt>
      <trkpt lat="49.42923" lon="-1.1892">
        <ele>2.4</ele>
        <time>2020-06-15T16:33:29Z</time>
      </trkpt>
      <trkpt lat="49.42923" lon="-1.1892">
        <ele>2.7</ele>
        <time>2020-06-15T16:33:30Z</time>
      </trkpt>
      <trkpt lat="49.42923" lon="-1.18921">
        <ele>2.7</ele>
        <time>2020-06-15T16:33:31Z</time>
      </trkpt>
      <trkpt lat="49.42922" lon="-1.18925">
        <ele>3</ele>
        <time>2020-06-15T16:33:32Z</time>
      </trkpt>
      <trkpt lat="49.42921" lon="-1.18928">
        <ele>3.1</ele>
        <time>2020-06-15T16:33:33Z</time>
      </trkpt>
      <trkpt lat="49.4292" lon="-1.18929">
        <ele>3.1</ele>
        <time>2020-06-15T16:33:34Z</time>
      </trkpt>
      <trkpt lat="49.4292" lon="-1.18929">
        <ele>3.1</ele>
        <time>2020-06-15T16:33:35Z</time>
      </trkpt>
      <trkpt lat="49.4292" lon="-1.1893">
        <ele>3.1</ele>
        <time>2020-06-15T16:33:36Z</time>
      </trkpt>
      <trkpt lat="49.4292" lon="-1.1893">
        <ele>3.1</ele>
        <time>2020-06-15T16:33:37Z</time>
      </trkpt>
      <trkpt lat="49.42919" lon="-1.18932">
        <ele>3.2</ele>
        <time>2020-06-15T16:33:38Z</time>
      </trkpt>
      <trkpt lat="49.42919" lon="-1.18932">
        <ele>3.2</ele>
        <time>2020-06-15T16:33:39Z</time>
      </trkpt>
      <trkpt lat="49.42919" lon="-1.18932">
        <ele>3.2</ele>
        <time>2020-06-15T16:33:40Z</time>
      </trkpt>
      <trkpt lat="49.42919" lon="-1.18932">
        <ele>3.2</ele>
        <time>2020-06-15T16:33:41Z</time>
      </trkpt>
      <trkpt lat="49.42919" lon="-1.18932">
        <ele>3.2</ele>
        <time>2020-06-15T16:33:42Z</time>
      </trkpt>
      <trkpt lat="49.42918" lon="-1.18932">
        <ele>3.2</ele>
        <time>2020-06-15T16:33:43Z</time>
      </trkpt>
      <trkpt lat="49.42918" lon="-1.18931">
        <ele>3.2</ele>
        <time>2020-06-15T16:33:44Z</time>
      </trkpt>
      <trkpt lat="49.42918" lon="-1.18931">
        <ele>3.2</ele>
        <time>2020-06-15T16:33:45Z</time>
      </trkpt>
      <trkpt lat="49.42918" lon="-1.18931">
        <ele>3.2</ele>
        <time>2020-06-15T16:33:46Z</time>
      </trkpt>
      <trkpt lat="49.42923" lon="-1.18936">
        <ele>3.3</ele>
        <time>2020-06-15T16:38:59Z</time>
      </trkpt>
      <trkpt lat="49.42923" lon="-1.18937">
        <ele>3.3</ele>
        <time>2020-06-15T16:39:00Z</time>
      </trkpt>
      <trkpt lat="49.42923" lon="-1.18938">
        <ele>3.3</ele>
        <time>2020-06-15T16:39:01Z</time>
      </trkpt>
      <trkpt lat="49.42924" lon="-1.18939">
        <ele>3.3</ele>
        <time>2020-06-15T16:39:02Z</time>
      </trkpt>
      <trkpt lat="49.42924" lon="-1.1894">
        <ele>3.3</ele>
        <time>2020-06-15T16:39:03Z</time>
      </trkpt>
      <trkpt lat="49.42925" lon="-1.18941">
        <ele>3.3</ele>
        <time>2020-06-15T16:39:04Z</time>
      </trkpt>
      <trkpt lat="49.42925" lon="-1.18942">
        <ele>3.3</ele>
        <time>2020-06-15T16:39:05Z</time>
      </trkpt>
      <trkpt lat="49.42925" lon="-1.18943">
        <ele>3.3</ele>
        <time>2020-06-15T16:39:06Z</time>
      </trkpt>
      <trkpt lat="49.42926" lon="-1.18945">
        <ele>3.3</ele>
        <time>2020-06-15T16:39:07Z</time>
      </trkpt>
      <trkpt lat="49.42926" lon="-1.18946">
        <ele>3.3</ele>
        <time>2020-06-15T16:39:08Z</time>
      </trkpt>
      <trkpt lat="49.42927" lon="-1.18947">
        <ele>3.3</ele>
        <time>2020-06-15T16:39:09Z</time>
      </trkpt>
      <trkpt lat="49.42927" lon="-1.18948">
        <ele>3.3</ele>
        <time>2020-06-15T16:39:10Z</time>
      </trkpt>
      <trkpt lat="49.42928" lon="-1.18949">
        <ele>3.3</ele>
        <time>2020-06-15T16:39:11Z</time>
      </trkpt>
      <trkpt lat="49.42928" lon="-1.18951">
        <ele>3.3</ele>
        <time>2020-06-15T16:39:12Z</time>
      </trkpt>
      <trkpt lat="49.42929" lon="-1.18952">
        <ele>3.3</ele>
        <time>2020-06-15T16:39:13Z</time>
      </trkpt>
      <trkpt lat="49.4293" lon="-1.18953">
        <ele>3.3</ele>
        <time>2020-06-15T16:39:14Z</time>
      </trkpt>
      <trkpt lat="49.4293" lon="-1.18954">
        <ele>3.3</ele>
        <time>2020-06-15T16:39:15Z</time>
      </trkpt>
      <trkpt lat="49.42931" lon="-1.18955">
        <ele>3.3</ele>
        <time>2020-06-15T16:39:16Z</time>
      </trkpt>
      <trkpt lat="49.42932" lon="-1.18957">
        <ele>3.2</ele>
        <time>2020-06-15T16:39:17Z</time>
      </trkpt>
      <trkpt lat="49.42932" lon="-1.18958">
        <ele>3.2</ele>
        <time>2020-06-15T16:39:18Z</time>
      </trkpt>
      <trkpt lat="49.42933" lon="-1.18958">
        <ele>3.2</ele>
        <time>2020-06-15T16:39:19Z</time>
      </trkpt>
      <trkpt lat="49.42933" lon="-1.18959">
        <ele>3.2</ele>
        <time>2020-06-15T16:39:20Z</time>
      </trkpt>
      <trkpt lat="49.42934" lon="-1.18959">
        <ele>3.2</ele>
        <time>2020-06-15T16:39:21Z</time>
      </trkpt>
      <trkpt lat="49.42935" lon="-1.1896">
        <ele>3.2</ele>
        <time>2020-06-15T16:39:22Z</time>
      </trkpt>
      <trkpt lat="49.42936" lon="-1.18962">
        <ele>3.2</ele>
        <time>2020-06-15T16:39:23Z</time>
      </trkpt>
      <trkpt lat="49.42937" lon="-1.18964">
        <ele>3.1</ele>
        <time>2020-06-15T16:39:24Z</time>
      </trkpt>
      <trkpt lat="49.42938" lon="-1.18967">
        <ele>3.1</ele>
        <time>2020-06-15T16:39:25Z</time>
      </trkpt>
      <trkpt lat="49.42939" lon="-1.18968">
        <ele>3</ele>
        <time>2020-06-15T16:39:26Z</time>
      </trkpt>
      <trkpt lat="49.4294" lon="-1.1897">
        <ele>3</ele>
        <time>2020-06-15T16:39:27Z</time>
      </trkpt>
      <trkpt lat="49.4294" lon="-1.18971">
        <ele>3</ele>
        <time>2020-06-15T16:39:28Z</time>
      </trkpt>
      <trkpt lat="49.42939" lon="-1.18971">
        <ele>3</ele>
        <time>2020-06-15T16:39:29Z</time>
      </trkpt>
      <trkpt lat="49.42938" lon="-1.18973">
        <ele>3</ele>
        <time>2020-06-15T16:39:30Z</time>
      </trkpt>
      <trkpt lat="49.42938" lon="-1.18976">
        <ele>3</ele>
        <time>2020-06-15T16:39:31Z</time>
      </trkpt>
      <trkpt lat="49.42937" lon="-1.18978">
        <ele>3</ele>
        <time>2020-06-15T16:39:32Z</time>
      </trkpt>
      <trkpt lat="49.42936" lon="-1.1898">
        <ele>2.9</ele>
        <time>2020-06-15T16:39:33Z</time>
      </trkpt>
      <trkpt lat="49.42936" lon="-1.18982">
        <ele>2.9</ele>
        <time>2020-06-15T16:39:34Z</time>
      </trkpt>
      <trkpt lat="49.42936" lon="-1.18985">
        <ele>2.9</ele>
        <time>2020-06-15T16:39:35Z</time>
      </trkpt>
      <trkpt lat="49.42936" lon="-1.18986">
        <ele>2.9</ele>
        <time>2020-06-15T16:39:36Z</time>
      </trkpt>
      <trkpt lat="49.42936" lon="-1.18987">
        <ele>2.9</ele>
        <time>2020-06-15T16:39:37Z</time>
      </trkpt>
      <trkpt lat="49.42935" lon="-1.18988">
        <ele>2.9</ele>
        <time>2020-06-15T16:39:38Z</time>
      </trkpt>
      <trkpt lat="49.42936" lon="-1.1899">
        <ele>2.8</ele>
        <time>2020-06-15T16:39:39Z</time>
      </trkpt>
      <trkpt lat="49.42935" lon="-1.18991">
        <ele>2.8</ele>
        <time>2020-06-15T16:39:40Z</time>
      </trkpt>
      <trkpt lat="49.42934" lon="-1.18993">
        <ele>2.8</ele>
        <time>2020-06-15T16:39:41Z</time>
      </trkpt>
      <trkpt lat="49.42933" lon="-1.18994">
        <ele>2.8</ele>
        <time>2020-06-15T16:39:42Z</time>
      </trkpt>
      <trkpt lat="49.42932" lon="-1.18996">
        <ele>2.8</ele>
        <time>2020-06-15T16:39:43Z</time>
      </trkpt>
      <trkpt lat="49.42931" lon="-1.18997">
        <ele>2.7</ele>
        <time>2020-06-15T16:39:44Z</time>
      </trkpt>
      <trkpt lat="49.4293" lon="-1.18999">
        <ele>2.7</ele>
        <time>2020-06-15T16:39:45Z</time>
      </trkpt>
      <trkpt lat="49.42929" lon="-1.19">
        <ele>2.7</ele>
        <time>2020-06-15T16:39:46Z</time>
      </trkpt>
      <trkpt lat="49.42928" lon="-1.19002">
        <ele>2.7</ele>
        <time>2020-06-15T16:39:47Z</time>
      </trkpt>
      <trkpt lat="49.42927" lon="-1.19005">
        <ele>2.6</ele>
        <time>2020-06-15T16:39:48Z</time>
      </trkpt>
      <trkpt lat="49.42926" lon="-1.19007">
        <ele>2.6</ele>
        <time>2020-06-15T16:39:49Z</time>
      </trkpt>
      <trkpt lat="49.42924" lon="-1.19009">
        <ele>2.6</ele>
        <time>2020-06-15T16:39:50Z</time>
      </trkpt>
      <trkpt lat="49.42923" lon="-1.1901">
        <ele>2.6</ele>
        <time>2020-06-15T16:39:51Z</time>
      </trkpt>
      <trkpt lat="49.42922" lon="-1.19012">
        <ele>2.6</ele>
        <time>2020-06-15T16:39:52Z</time>
      </trkpt>
      <trkpt lat="49.42922" lon="-1.19015">
        <ele>2.6</ele>
        <time>2020-06-15T16:39:53Z</time>
      </trkpt>
      <trkpt lat="49.4292" lon="-1.19017">
        <ele>2.5</ele>
        <time>2020-06-15T16:39:54Z</time>
      </trkpt>
      <trkpt lat="49.42919" lon="-1.19018">
        <ele>2.5</ele>
        <time>2020-06-15T16:39:55Z</time>
      </trkpt>
      <trkpt lat="49.42919" lon="-1.19019">
        <ele>2.5</ele>
        <time>2020-06-15T16:39:56Z</time>
      </trkpt>
      <trkpt lat="49.42918" lon="-1.1902">
        <ele>2.5</ele>
        <time>2020-06-15T16:39:57Z</time>
      </trkpt>
      <trkpt lat="49.42918" lon="-1.1902">
        <ele>2.5</ele>
        <time>2020-06-15T16:39:58Z</time>
      </trkpt>
      <trkpt lat="49.42918" lon="-1.19021">
        <ele>2.5</ele>
        <time>2020-06-15T16:39:59Z</time>
      </trkpt>
      <trkpt lat="49.42917" lon="-1.19022">
        <ele>2.5</ele>
        <time>2020-06-15T16:40:00Z</time>
      </trkpt>
      <trkpt lat="49.42917" lon="-1.19023">
        <ele>2.5</ele>
        <time>2020-06-15T16:40:01Z</time>
      </trkpt>
      <trkpt lat="49.42917" lon="-1.19024">
        <ele>2.5</ele>
        <time>2020-06-15T16:40:02Z</time>
      </trkpt>
      <trkpt lat="49.42916" lon="-1.19025">
        <ele>2.5</ele>
        <time>2020-06-15T16:40:03Z</time>
      </trkpt>
      <trkpt lat="49.42915" lon="-1.19027">
        <ele>2.5</ele>
        <time>2020-06-15T16:40:04Z</time>
      </trkpt>
      <trkpt lat="49.42915" lon="-1.19029">
        <ele>2.5</ele>
        <time>2020-06-15T16:40:05Z</time>
      </trkpt>
      <trkpt lat="49.42914" lon="-1.19031">
        <ele>2.5</ele>
        <time>2020-06-15T16:40:06Z</time>
      </trkpt>
      <trkpt lat="49.42913" lon="-1.19032">
        <ele>2.5</ele>
        <time>2020-06-15T16:40:07Z</time>
      </trkpt>
      <trkpt lat="49.42912" lon="-1.19034">
        <ele>2.5</ele>
        <time>2020-06-15T16:40:08Z</time>
      </trkpt>
      <trkpt lat="49.42912" lon="-1.19035">
        <ele>2.5</ele>
        <time>2020-06-15T16:40:09Z</time>
      </trkpt>
      <trkpt lat="49.42911" lon="-1.19038">
        <ele>2.5</ele>
        <time>2020-06-15T16:40:10Z</time>
      </trkpt>
      <trkpt lat="49.42911" lon="-1.19039">
        <ele>2.5</ele>
        <time>2020-06-15T16:40:11Z</time>
      </trkpt>
      <trkpt lat="49.4291" lon="-1.19041">
        <ele>2.5</ele>
        <time>2020-06-15T16:40:12Z</time>
      </trkpt>
      <trkpt lat="49.42909" lon="-1.19042">
        <ele>2.5</ele>
        <time>2020-06-15T16:40:13Z</time>
      </trkpt>
      <trkpt lat="49.42909" lon="-1.19043">
        <ele>2.5</ele>
        <time>2020-06-15T16:40:14Z</time>
      </trkpt>
      <trkpt lat="49.42908" lon="-1.19045">
        <ele>2.5</ele>
        <time>2020-06-15T16:40:15Z</time>
      </trkpt>
      <trkpt lat="49.42907" lon="-1.19047">
        <ele>2.5</ele>
        <time>2020-06-15T16:40:16Z</time>
      </trkpt>
      <trkpt lat="49.42906" lon="-1.19048">
        <ele>2.5</ele>
        <time>2020-06-15T16:40:17Z</time>
      </trkpt>
      <trkpt lat="49.42905" lon="-1.19049">
        <ele>2.5</ele>
        <time>2020-06-15T16:40:18Z</time>
      </trkpt>
      <trkpt lat="49.42904" lon="-1.1905">
        <ele>2.5</ele>
        <time>2020-06-15T16:40:19Z</time>
      </trkpt>
      <trkpt lat="49.42904" lon="-1.19051">
        <ele>2.5</ele>
        <time>2020-06-15T16:40:20Z</time>
      </trkpt>
      <trkpt lat="49.42902" lon="-1.19054">
        <ele>2.5</ele>
        <time>2020-06-15T16:40:21Z</time>
      </trkpt>
      <trkpt lat="49.42901" lon="-1.19055">
        <ele>2.6</ele>
        <time>2020-06-15T16:40:22Z</time>
      </trkpt>
      <trkpt lat="49.429" lon="-1.19057">
        <ele>2.6</ele>
        <time>2020-06-15T16:40:23Z</time>
      </trkpt>
      <trkpt lat="49.42899" lon="-1.19059">
        <ele>2.6</ele>
        <time>2020-06-15T16:40:24Z</time>
      </trkpt>
      <trkpt lat="49.42897" lon="-1.19061">
        <ele>2.6</ele>
        <time>2020-06-15T16:40:25Z</time>
      </trkpt>
      <trkpt lat="49.42896" lon="-1.19062">
        <ele>2.6</ele>
        <time>2020-06-15T16:40:26Z</time>
      </trkpt>
      <trkpt lat="49.42896" lon="-1.19063">
        <ele>2.6</ele>
        <time>2020-06-15T16:40:27Z</time>
      </trkpt>
      <trkpt lat="49.42895" lon="-1.19064">
        <ele>2.6</ele>
        <time>2020-06-15T16:40:28Z</time>
      </trkpt>
      <trkpt lat="49.42894" lon="-1.19064">
        <ele>2.6</ele>
        <time>2020-06-15T16:40:29Z</time>
      </trkpt>
      <trkpt lat="49.42892" lon="-1.19063">
        <ele>2.6</ele>
        <time>2020-06-15T16:40:30Z</time>
      </trkpt>
      <trkpt lat="49.42891" lon="-1.19063">
        <ele>2.6</ele>
        <time>2020-06-15T16:40:31Z</time>
      </trkpt>
      <trkpt lat="49.4289" lon="-1.19063">
        <ele>2.6</ele>
        <time>2020-06-15T16:40:32Z</time>
      </trkpt>
      <trkpt lat="49.42889" lon="-1.19063">
        <ele>2.6</ele>
        <time>2020-06-15T16:40:33Z</time>
      </trkpt>
      <trkpt lat="49.42888" lon="-1.19062">
        <ele>2.6</ele>
        <time>2020-06-15T16:40:34Z</time>
      </trkpt>
      <trkpt lat="49.42887" lon="-1.19061">
        <ele>2.6</ele>
        <time>2020-06-15T16:40:35Z</time>
      </trkpt>
      <trkpt lat="49.42886" lon="-1.19061">
        <ele>2.6</ele>
        <time>2020-06-15T16:40:36Z</time>
      </trkpt>
      <trkpt lat="49.42885" lon="-1.1906">
        <ele>2.6</ele>
        <time>2020-06-15T16:40:37Z</time>
      </trkpt>
      <trkpt lat="49.42884" lon="-1.19059">
        <ele>2.6</ele>
        <time>2020-06-15T16:40:38Z</time>
      </trkpt>
      <trkpt lat="49.42883" lon="-1.19057">
        <ele>2.6</ele>
        <time>2020-06-15T16:40:39Z</time>
      </trkpt>
      <trkpt lat="49.42882" lon="-1.19056">
        <ele>2.7</ele>
        <time>2020-06-15T16:40:40Z</time>
      </trkpt>
      <trkpt lat="49.42882" lon="-1.19055">
        <ele>2.7</ele>
        <time>2020-06-15T16:40:41Z</time>
      </trkpt>
      <trkpt lat="49.42882" lon="-1.19054">
        <ele>2.7</ele>
        <time>2020-06-15T16:40:42Z</time>
      </trkpt>
      <trkpt lat="49.42882" lon="-1.19053">
        <ele>2.7</ele>
        <time>2020-06-15T16:40:43Z</time>
      </trkpt>
      <trkpt lat="49.42882" lon="-1.1905">
        <ele>2.7</ele>
        <time>2020-06-15T16:40:44Z</time>
      </trkpt>
      <trkpt lat="49.42882" lon="-1.19048">
        <ele>2.7</ele>
        <time>2020-06-15T16:40:45Z</time>
      </trkpt>
      <trkpt lat="49.42882" lon="-1.19046">
        <ele>2.7</ele>
        <time>2020-06-15T16:40:46Z</time>
      </trkpt>
      <trkpt lat="49.42882" lon="-1.19045">
        <ele>2.7</ele>
        <time>2020-06-15T16:40:47Z</time>
      </trkpt>
      <trkpt lat="49.42882" lon="-1.19045">
        <ele>2.7</ele>
        <time>2020-06-15T16:40:48Z</time>
      </trkpt>
      <trkpt lat="49.42883" lon="-1.19044">
        <ele>2.7</ele>
        <time>2020-06-15T16:40:49Z</time>
      </trkpt>
      <trkpt lat="49.42883" lon="-1.19044">
        <ele>2.7</ele>
        <time>2020-06-15T16:40:50Z</time>
      </trkpt>
      <trkpt lat="49.42883" lon="-1.19043">
        <ele>2.7</ele>
        <time>2020-06-15T16:40:51Z</time>
      </trkpt>
      <trkpt lat="49.42882" lon="-1.19042">
        <ele>2.7</ele>
        <time>2020-06-15T16:40:52Z</time>
      </trkpt>
      <trkpt lat="49.42882" lon="-1.19043">
        <ele>2.7</ele>
        <time>2020-06-15T16:40:53Z</time>
      </trkpt>
      <trkpt lat="49.42882" lon="-1.19044">
        <ele>2.7</ele>
        <time>2020-06-15T16:40:54Z</time>
      </trkpt>
      <trkpt lat="49.42882" lon="-1.19045">
        <ele>2.7</ele>
        <time>2020-06-15T16:40:55Z</time>
      </trkpt>
      <trkpt lat="49.42882" lon="-1.19046">
        <ele>2.7</ele>
        <time>2020-06-15T16:40:56Z</time>
      </trkpt>
      <trkpt lat="49.42882" lon="-1.19047">
        <ele>2.7</ele>
        <time>2020-06-15T16:40:57Z</time>
      </trkpt>
      <trkpt lat="49.42882" lon="-1.19048">
        <ele>2.7</ele>
        <time>2020-06-15T16:40:58Z</time>
      </trkpt>
      <trkpt lat="49.42883" lon="-1.1905">
        <ele>2.7</ele>
        <time>2020-06-15T16:40:59Z</time>
      </trkpt>
      <trkpt lat="49.42883" lon="-1.19052">
        <ele>2.7</ele>
        <time>2020-06-15T16:41:00Z</time>
      </trkpt>
      <trkpt lat="49.42883" lon="-1.19053">
        <ele>2.7</ele>
        <time>2020-06-15T16:41:01Z</time>
      </trkpt>
      <trkpt lat="49.42883" lon="-1.19053">
        <ele>2.7</ele>
        <time>2020-06-15T16:41:02Z</time>
      </trkpt>
      <trkpt lat="49.42882" lon="-1.19054">
        <ele>2.7</ele>
        <time>2020-06-15T16:41:03Z</time>
      </trkpt>
      <trkpt lat="49.42882" lon="-1.19054">
        <ele>2.7</ele>
        <time>2020-06-15T16:41:04Z</time>
      </trkpt>
      <trkpt lat="49.42882" lon="-1.19055">
        <ele>2.7</ele>
        <time>2020-06-15T16:41:05Z</time>
      </trkpt>
      <trkpt lat="49.42882" lon="-1.19056">
        <ele>2.7</ele>
        <time>2020-06-15T16:41:06Z</time>
      </trkpt>
      <trkpt lat="49.42882" lon="-1.19057">
        <ele>2.7</ele>
        <time>2020-06-15T16:41:07Z</time>
      </trkpt>
      <trkpt lat="49.42882" lon="-1.1906">
        <ele>2.7</ele>
        <time>2020-06-15T16:41:08Z</time>
      </trkpt>
      <trkpt lat="49.42883" lon="-1.19062">
        <ele>2.7</ele>
        <time>2020-06-15T16:41:09Z</time>
      </trkpt>
      <trkpt lat="49.42883" lon="-1.19063">
        <ele>2.7</ele>
        <time>2020-06-15T16:41:10Z</time>
      </trkpt>
      <trkpt lat="49.42883" lon="-1.19065">
        <ele>2.7</ele>
        <time>2020-06-15T16:41:11Z</time>
      </trkpt>
      <trkpt lat="49.42884" lon="-1.19067">
        <ele>2.7</ele>
        <time>2020-06-15T16:41:12Z</time>
      </trkpt>
      <trkpt lat="49.42884" lon="-1.19069">
        <ele>2.7</ele>
        <time>2020-06-15T16:41:13Z</time>
      </trkpt>
      <trkpt lat="49.42884" lon="-1.19073">
        <ele>2.7</ele>
        <time>2020-06-15T16:41:14Z</time>
      </trkpt>
      <trkpt lat="49.42885" lon="-1.19079">
        <ele>2.7</ele>
        <time>2020-06-15T16:41:15Z</time>
      </trkpt>
      <trkpt lat="49.42884" lon="-1.19081">
        <ele>2.7</ele>
        <time>2020-06-15T16:41:16Z</time>
      </trkpt>
      <trkpt lat="49.42883" lon="-1.19086">
        <ele>2.7</ele>
        <time>2020-06-15T16:41:17Z</time>
      </trkpt>
      <trkpt lat="49.42883" lon="-1.19091">
        <ele>2.7</ele>
        <time>2020-06-15T16:41:18Z</time>
      </trkpt>
      <trkpt lat="49.42882" lon="-1.19096">
        <ele>2.7</ele>
        <time>2020-06-15T16:41:19Z</time>
      </trkpt>
      <trkpt lat="49.42881" lon="-1.19101">
        <ele>2.7</ele>
        <time>2020-06-15T16:41:20Z</time>
      </trkpt>
      <trkpt lat="49.4288" lon="-1.19107">
        <ele>2.7</ele>
        <time>2020-06-15T16:41:21Z</time>
      </trkpt>
      <trkpt lat="49.42878" lon="-1.19113">
        <ele>2.7</ele>
        <time>2020-06-15T16:41:22Z</time>
      </trkpt>
      <trkpt lat="49.42876" lon="-1.19119">
        <ele>2.6</ele>
        <time>2020-06-15T16:41:23Z</time>
      </trkpt>
      <trkpt lat="49.42875" lon="-1.19125">
        <ele>2.6</ele>
        <time>2020-06-15T16:41:24Z</time>
      </trkpt>
      <trkpt lat="49.42873" lon="-1.19131">
        <ele>2.6</ele>
        <time>2020-06-15T16:41:25Z</time>
      </trkpt>
      <trkpt lat="49.42871" lon="-1.19139">
        <ele>2.6</ele>
        <time>2020-06-15T16:41:26Z</time>
      </trkpt>
      <trkpt lat="49.42869" lon="-1.19146">
        <ele>2.6</ele>
        <time>2020-06-15T16:41:27Z</time>
      </trkpt>
      <trkpt lat="49.42867" lon="-1.19153">
        <ele>2.5</ele>
        <time>2020-06-15T16:41:28Z</time>
      </trkpt>
      <trkpt lat="49.42865" lon="-1.19161">
        <ele>2.5</ele>
        <time>2020-06-15T16:41:29Z</time>
      </trkpt>
      <trkpt lat="49.42863" lon="-1.19167">
        <ele>2.5</ele>
        <time>2020-06-15T16:41:30Z</time>
      </trkpt>
      <trkpt lat="49.4286" lon="-1.19174">
        <ele>2.5</ele>
        <time>2020-06-15T16:41:31Z</time>
      </trkpt>
      <trkpt lat="49.42857" lon="-1.1918">
        <ele>2.5</ele>
        <time>2020-06-15T16:41:32Z</time>
      </trkpt>
      <trkpt lat="49.42855" lon="-1.19187">
        <ele>2.4</ele>
        <time>2020-06-15T16:41:33Z</time>
      </trkpt>
      <trkpt lat="49.42851" lon="-1.19194">
        <ele>2.4</ele>
        <time>2020-06-15T16:41:34Z</time>
      </trkpt>
      <trkpt lat="49.42848" lon="-1.19201">
        <ele>2.4</ele>
        <time>2020-06-15T16:41:35Z</time>
      </trkpt>
      <trkpt lat="49.42845" lon="-1.19207">
        <ele>2.3</ele>
        <time>2020-06-15T16:41:36Z</time>
      </trkpt>
      <trkpt lat="49.42841" lon="-1.19213">
        <ele>2.3</ele>
        <time>2020-06-15T16:41:37Z</time>
      </trkpt>
      <trkpt lat="49.42837" lon="-1.1922">
        <ele>2.3</ele>
        <time>2020-06-15T16:41:38Z</time>
      </trkpt>
      <trkpt lat="49.42833" lon="-1.19226">
        <ele>2.2</ele>
        <time>2020-06-15T16:41:39Z</time>
      </trkpt>
      <trkpt lat="49.42828" lon="-1.19234">
        <ele>2.2</ele>
        <time>2020-06-15T16:41:40Z</time>
      </trkpt>
      <trkpt lat="49.42824" lon="-1.19242">
        <ele>2.2</ele>
        <time>2020-06-15T16:41:41Z</time>
      </trkpt>
      <trkpt lat="49.42821" lon="-1.19249">
        <ele>2.1</ele>
        <time>2020-06-15T16:41:42Z</time>
      </trkpt>
      <trkpt lat="49.42817" lon="-1.19255">
        <ele>2.1</ele>
        <time>2020-06-15T16:41:43Z</time>
      </trkpt>
      <trkpt lat="49.42812" lon="-1.19262">
        <ele>2.1</ele>
        <time>2020-06-15T16:41:44Z</time>
      </trkpt>
      <trkpt lat="49.42808" lon="-1.19269">
        <ele>2.1</ele>
        <time>2020-06-15T16:41:45Z</time>
      </trkpt>
      <trkpt lat="49.42804" lon="-1.19275">
        <ele>2</ele>
        <time>2020-06-15T16:41:46Z</time>
      </trkpt>
      <trkpt lat="49.428" lon="-1.19281">
        <ele>2</ele>
        <time>2020-06-15T16:41:47Z</time>
      </trkpt>
      <trkpt lat="49.42796" lon="-1.19288">
        <ele>2</ele>
        <time>2020-06-15T16:41:48Z</time>
      </trkpt>
      <trkpt lat="49.42792" lon="-1.19295">
        <ele>2</ele>
        <time>2020-06-15T16:41:49Z</time>
      </trkpt>
      <trkpt lat="49.42788" lon="-1.19302">
        <ele>1.9</ele>
        <time>2020-06-15T16:41:50Z</time>
      </trkpt>
      <trkpt lat="49.42784" lon="-1.19309">
        <ele>1.9</ele>
        <time>2020-06-15T16:41:51Z</time>
      </trkpt>
      <trkpt lat="49.4278" lon="-1.19317">
        <ele>1.9</ele>
        <time>2020-06-15T16:41:52Z</time>
      </trkpt>
      <trkpt lat="49.42776" lon="-1.19324">
        <ele>1.8</ele>
        <time>2020-06-15T16:41:53Z</time>
      </trkpt>
      <trkpt lat="49.42772" lon="-1.19333">
        <ele>1.8</ele>
        <time>2020-06-15T16:41:54Z</time>
      </trkpt>
      <trkpt lat="49.42768" lon="-1.19341">
        <ele>1.8</ele>
        <time>2020-06-15T16:41:55Z</time>
      </trkpt>
      <trkpt lat="49.42764" lon="-1.19347">
        <ele>1.8</ele>
        <time>2020-06-15T16:41:56Z</time>
      </trkpt>
      <trkpt lat="49.4276" lon="-1.19354">
        <ele>1.8</ele>
        <time>2020-06-15T16:41:57Z</time>
      </trkpt>
      <trkpt lat="49.42756" lon="-1.19362">
        <ele>1.8</ele>
        <time>2020-06-15T16:41:58Z</time>
      </trkpt>
      <trkpt lat="49.42752" lon="-1.19369">
        <ele>1.9</ele>
        <time>2020-06-15T16:41:59Z</time>
      </trkpt>
      <trkpt lat="49.42749" lon="-1.19376">
        <ele>1.9</ele>
        <time>2020-06-15T16:42:00Z</time>
      </trkpt>
      <trkpt lat="49.42745" lon="-1.19383">
        <ele>1.8</ele>
        <time>2020-06-15T16:42:01Z</time>
      </trkpt>
      <trkpt lat="49.42742" lon="-1.19389">
        <ele>1.8</ele>
        <time>2020-06-15T16:42:02Z</time>
      </trkpt>
      <trkpt lat="49.42739" lon="-1.19396">
        <ele>1.8</ele>
        <time>2020-06-15T16:42:03Z</time>
      </trkpt>
      <trkpt lat="49.42735" lon="-1.19403">
        <ele>1.8</ele>
        <time>2020-06-15T16:42:04Z</time>
      </trkpt>
      <trkpt lat="49.42731" lon="-1.19411">
        <ele>1.8</ele>
        <time>2020-06-15T16:42:05Z</time>
      </trkpt>
      <trkpt lat="49.42727" lon="-1.19419">
        <ele>1.9</ele>
        <time>2020-06-15T16:42:06Z</time>
      </trkpt>
      <trkpt lat="49.42724" lon="-1.19426">
        <ele>2</ele>
        <time>2020-06-15T16:42:07Z</time>
      </trkpt>
      <trkpt lat="49.4272" lon="-1.19435">
        <ele>2.2</ele>
        <time>2020-06-15T16:42:08Z</time>
      </trkpt>
      <trkpt lat="49.42715" lon="-1.19444">
        <ele>2.3</ele>
        <time>2020-06-15T16:42:09Z</time>
      </trkpt>
      <trkpt lat="49.4271" lon="-1.19453">
        <ele>2.4</ele>
        <time>2020-06-15T16:42:10Z</time>
      </trkpt>
      <trkpt lat="49.42707" lon="-1.1946">
        <ele>2.5</ele>
        <time>2020-06-15T16:42:11Z</time>
      </trkpt>
      <trkpt lat="49.42703" lon="-1.19466">
        <ele>2.6</ele>
        <time>2020-06-15T16:42:12Z</time>
      </trkpt>
      <trkpt lat="49.42699" lon="-1.19473">
        <ele>2.8</ele>
        <time>2020-06-15T16:42:13Z</time>
      </trkpt>
      <trkpt lat="49.42695" lon="-1.1948">
        <ele>2.7</ele>
        <time>2020-06-15T16:42:14Z</time>
      </trkpt>
      <trkpt lat="49.42692" lon="-1.19486">
        <ele>2.7</ele>
        <time>2020-06-15T16:42:15Z</time>
      </trkpt>
      <trkpt lat="49.42688" lon="-1.19493">
        <ele>2.7</ele>
        <time>2020-06-15T16:42:16Z</time>
      </trkpt>
      <trkpt lat="49.42685" lon="-1.19501">
        <ele>2.7</ele>
        <time>2020-06-15T16:42:17Z</time>
      </trkpt>
      <trkpt lat="49.42682" lon="-1.19509">
        <ele>2.7</ele>
        <time>2020-06-15T16:42:18Z</time>
      </trkpt>
      <trkpt lat="49.42679" lon="-1.19517">
        <ele>2.7</ele>
        <time>2020-06-15T16:42:19Z</time>
      </trkpt>
      <trkpt lat="49.42677" lon="-1.19524">
        <ele>2.7</ele>
        <time>2020-06-15T16:42:20Z</time>
      </trkpt>
      <trkpt lat="49.42673" lon="-1.19532">
        <ele>2.7</ele>
        <time>2020-06-15T16:42:21Z</time>
      </trkpt>
      <trkpt lat="49.4267" lon="-1.1954">
        <ele>2.7</ele>
        <time>2020-06-15T16:42:22Z</time>
      </trkpt>
      <trkpt lat="49.42667" lon="-1.19549">
        <ele>2.7</ele>
        <time>2020-06-15T16:42:23Z</time>
      </trkpt>
      <trkpt lat="49.42663" lon="-1.19558">
        <ele>2.7</ele>
        <time>2020-06-15T16:42:24Z</time>
      </trkpt>
      <trkpt lat="49.4266" lon="-1.19565">
        <ele>2.7</ele>
        <time>2020-06-15T16:42:25Z</time>
      </trkpt>
      <trkpt lat="49.42656" lon="-1.19573">
        <ele>2.6</ele>
        <time>2020-06-15T16:42:26Z</time>
      </trkpt>
      <trkpt lat="49.42652" lon="-1.19581">
        <ele>2.6</ele>
        <time>2020-06-15T16:42:27Z</time>
      </trkpt>
      <trkpt lat="49.42648" lon="-1.19588">
        <ele>2.5</ele>
        <time>2020-06-15T16:42:28Z</time>
      </trkpt>
      <trkpt lat="49.42645" lon="-1.19596">
        <ele>2.5</ele>
        <time>2020-06-15T16:42:29Z</time>
      </trkpt>
      <trkpt lat="49.42641" lon="-1.19604">
        <ele>2.4</ele>
        <time>2020-06-15T16:42:30Z</time>
      </trkpt>
      <trkpt lat="49.42637" lon="-1.19612">
        <ele>2.4</ele>
        <time>2020-06-15T16:42:31Z</time>
      </trkpt>
      <trkpt lat="49.42634" lon="-1.19619">
        <ele>2.4</ele>
        <time>2020-06-15T16:42:32Z</time>
      </trkpt>
      <trkpt lat="49.42631" lon="-1.19626">
        <ele>2.4</ele>
        <time>2020-06-15T16:42:33Z</time>
      </trkpt>
      <trkpt lat="49.42627" lon="-1.19634">
        <ele>2.3</ele>
        <time>2020-06-15T16:42:34Z</time>
      </trkpt>
      <trkpt lat="49.42625" lon="-1.19642">
        <ele>2.3</ele>
        <time>2020-06-15T16:42:35Z</time>
      </trkpt>
      <trkpt lat="49.42622" lon="-1.19651">
        <ele>2.2</ele>
        <time>2020-06-15T16:42:36Z</time>
      </trkpt>
      <trkpt lat="49.42618" lon="-1.1966">
        <ele>2.1</ele>
        <time>2020-06-15T16:42:37Z</time>
      </trkpt>
      <trkpt lat="49.42615" lon="-1.19668">
        <ele>2.1</ele>
        <time>2020-06-15T16:42:38Z</time>
      </trkpt>
      <trkpt lat="49.42612" lon="-1.19677">
        <ele>2</ele>
        <time>2020-06-15T16:42:39Z</time>
      </trkpt>
      <trkpt lat="49.42608" lon="-1.19686">
        <ele>1.9</ele>
        <time>2020-06-15T16:42:40Z</time>
      </trkpt>
      <trkpt lat="49.42605" lon="-1.19695">
        <ele>1.9</ele>
        <time>2020-06-15T16:42:41Z</time>
      </trkpt>
      <trkpt lat="49.42602" lon="-1.19704">
        <ele>1.9</ele>
        <time>2020-06-15T16:42:42Z</time>
      </trkpt>
      <trkpt lat="49.42599" lon="-1.19713">
        <ele>1.9</ele>
        <time>2020-06-15T16:42:43Z</time>
      </trkpt>
      <trkpt lat="49.42597" lon="-1.19721">
        <ele>1.8</ele>
        <time>2020-06-15T16:42:44Z</time>
      </trkpt>
      <trkpt lat="49.42594" lon="-1.19731">
        <ele>1.7</ele>
        <time>2020-06-15T16:42:45Z</time>
      </trkpt>
      <trkpt lat="49.4259" lon="-1.19741">
        <ele>1.7</ele>
        <time>2020-06-15T16:42:46Z</time>
      </trkpt>
      <trkpt lat="49.42587" lon="-1.19751">
        <ele>1.6</ele>
        <time>2020-06-15T16:42:47Z</time>
      </trkpt>
      <trkpt lat="49.42584" lon="-1.19761">
        <ele>1.6</ele>
        <time>2020-06-15T16:42:48Z</time>
      </trkpt>
      <trkpt lat="49.42582" lon="-1.1977">
        <ele>1.6</ele>
        <time>2020-06-15T16:42:49Z</time>
      </trkpt>
      <trkpt lat="49.42578" lon="-1.19779">
        <ele>1.5</ele>
        <time>2020-06-15T16:42:50Z</time>
      </trkpt>
      <trkpt lat="49.42576" lon="-1.19789">
        <ele>1.5</ele>
        <time>2020-06-15T16:42:51Z</time>
      </trkpt>
      <trkpt lat="49.42573" lon="-1.19796">
        <ele>1.5</ele>
        <time>2020-06-15T16:42:52Z</time>
      </trkpt>
      <trkpt lat="49.42571" lon="-1.19803">
        <ele>1.5</ele>
        <time>2020-06-15T16:42:53Z</time>
      </trkpt>
      <trkpt lat="49.42569" lon="-1.19811">
        <ele>1.6</ele>
        <time>2020-06-15T16:42:54Z</time>
      </trkpt>
      <trkpt lat="49.42567" lon="-1.19821">
        <ele>1.7</ele>
        <time>2020-06-15T16:42:55Z</time>
      </trkpt>
      <trkpt lat="49.42565" lon="-1.1983">
        <ele>1.7</ele>
        <time>2020-06-15T16:42:56Z</time>
      </trkpt>
      <trkpt lat="49.42563" lon="-1.1984">
        <ele>1.7</ele>
        <time>2020-06-15T16:42:57Z</time>
      </trkpt>
      <trkpt lat="49.42561" lon="-1.19849">
        <ele>1.7</ele>
        <time>2020-06-15T16:42:58Z</time>
      </trkpt>
      <trkpt lat="49.42559" lon="-1.19858">
        <ele>1.6</ele>
        <time>2020-06-15T16:42:59Z</time>
      </trkpt>
      <trkpt lat="49.42557" lon="-1.19867">
        <ele>1.6</ele>
        <time>2020-06-15T16:43:00Z</time>
      </trkpt>
      <trkpt lat="49.42554" lon="-1.19876">
        <ele>1.7</ele>
        <time>2020-06-15T16:43:01Z</time>
      </trkpt>
      <trkpt lat="49.42552" lon="-1.19885">
        <ele>1.7</ele>
        <time>2020-06-15T16:43:02Z</time>
      </trkpt>
      <trkpt lat="49.42551" lon="-1.19894">
        <ele>1.7</ele>
        <time>2020-06-15T16:43:03Z</time>
      </trkpt>
      <trkpt lat="49.42548" lon="-1.19903">
        <ele>1.8</ele>
        <time>2020-06-15T16:43:04Z</time>
      </trkpt>
      <trkpt lat="49.42545" lon="-1.19912">
        <ele>1.8</ele>
        <time>2020-06-15T16:43:05Z</time>
      </trkpt>
      <trkpt lat="49.42542" lon="-1.1992">
        <ele>1.8</ele>
        <time>2020-06-15T16:43:06Z</time>
      </trkpt>
      <trkpt lat="49.42539" lon="-1.19928">
        <ele>1.8</ele>
        <time>2020-06-15T16:43:07Z</time>
      </trkpt>
      <trkpt lat="49.42537" lon="-1.19936">
        <ele>1.8</ele>
        <time>2020-06-15T16:43:08Z</time>
      </trkpt>
      <trkpt lat="49.42534" lon="-1.19946">
        <ele>1.7</ele>
        <time>2020-06-15T16:43:09Z</time>
      </trkpt>
      <trkpt lat="49.42531" lon="-1.19954">
        <ele>1.7</ele>
        <time>2020-06-15T16:43:10Z</time>
      </trkpt>
      <trkpt lat="49.42528" lon="-1.19962">
        <ele>1.7</ele>
        <time>2020-06-15T16:43:11Z</time>
      </trkpt>
      <trkpt lat="49.42526" lon="-1.1997">
        <ele>1.8</ele>
        <time>2020-06-15T16:43:12Z</time>
      </trkpt>
      <trkpt lat="49.42523" lon="-1.19979">
        <ele>1.8</ele>
        <time>2020-06-15T16:43:13Z</time>
      </trkpt>
      <trkpt lat="49.42521" lon="-1.19986">
        <ele>1.8</ele>
        <time>2020-06-15T16:43:14Z</time>
      </trkpt>
      <trkpt lat="49.42519" lon="-1.19994">
        <ele>1.9</ele>
        <time>2020-06-15T16:43:15Z</time>
      </trkpt>
      <trkpt lat="49.42517" lon="-1.20002">
        <ele>1.9</ele>
        <time>2020-06-15T16:43:16Z</time>
      </trkpt>
      <trkpt lat="49.42515" lon="-1.20012">
        <ele>1.9</ele>
        <time>2020-06-15T16:43:17Z</time>
      </trkpt>
      <trkpt lat="49.42512" lon="-1.2002">
        <ele>1.9</ele>
        <time>2020-06-15T16:43:18Z</time>
      </trkpt>
      <trkpt lat="49.4251" lon="-1.20028">
        <ele>1.9</ele>
        <time>2020-06-15T16:43:19Z</time>
      </trkpt>
      <trkpt lat="49.42507" lon="-1.20037">
        <ele>1.8</ele>
        <time>2020-06-15T16:43:20Z</time>
      </trkpt>
      <trkpt lat="49.42504" lon="-1.20044">
        <ele>1.8</ele>
        <time>2020-06-15T16:43:21Z</time>
      </trkpt>
      <trkpt lat="49.42502" lon="-1.20052">
        <ele>1.8</ele>
        <time>2020-06-15T16:43:22Z</time>
      </trkpt>
      <trkpt lat="49.42499" lon="-1.2006">
        <ele>1.7</ele>
        <time>2020-06-15T16:43:23Z</time>
      </trkpt>
      <trkpt lat="49.42497" lon="-1.20068">
        <ele>1.7</ele>
        <time>2020-06-15T16:43:24Z</time>
      </trkpt>
      <trkpt lat="49.42494" lon="-1.20075">
        <ele>1.7</ele>
        <time>2020-06-15T16:43:25Z</time>
      </trkpt>
      <trkpt lat="49.42491" lon="-1.20083">
        <ele>1.7</ele>
        <time>2020-06-15T16:43:26Z</time>
      </trkpt>
      <trkpt lat="49.42489" lon="-1.20091">
        <ele>1.7</ele>
        <time>2020-06-15T16:43:27Z</time>
      </trkpt>
      <trkpt lat="49.42486" lon="-1.20099">
        <ele>1.7</ele>
        <time>2020-06-15T16:43:28Z</time>
      </trkpt>
      <trkpt lat="49.42483" lon="-1.20107">
        <ele>1.8</ele>
        <time>2020-06-15T16:43:29Z</time>
      </trkpt>
      <trkpt lat="49.4248" lon="-1.20114">
        <ele>1.8</ele>
        <time>2020-06-15T16:43:30Z</time>
      </trkpt>
      <trkpt lat="49.42477" lon="-1.20122">
        <ele>1.8</ele>
        <time>2020-06-15T16:43:31Z</time>
      </trkpt>
      <trkpt lat="49.42474" lon="-1.2013">
        <ele>1.7</ele>
        <time>2020-06-15T16:43:32Z</time>
      </trkpt>
      <trkpt lat="49.42471" lon="-1.20136">
        <ele>1.7</ele>
        <time>2020-06-15T16:43:33Z</time>
      </trkpt>
      <trkpt lat="49.42469" lon="-1.20144">
        <ele>1.7</ele>
        <time>2020-06-15T16:43:34Z</time>
      </trkpt>
      <trkpt lat="49.42466" lon="-1.20152">
        <ele>1.7</ele>
        <time>2020-06-15T16:43:35Z</time>
      </trkpt>
      <trkpt lat="49.42463" lon="-1.20159">
        <ele>1.7</ele>
        <time>2020-06-15T16:43:36Z</time>
      </trkpt>
      <trkpt lat="49.4246" lon="-1.20166">
        <ele>1.7</ele>
        <time>2020-06-15T16:43:37Z</time>
      </trkpt>
      <trkpt lat="49.42456" lon="-1.20173">
        <ele>1.7</ele>
        <time>2020-06-15T16:43:38Z</time>
      </trkpt>
      <trkpt lat="49.42452" lon="-1.2018">
        <ele>1.6</ele>
        <time>2020-06-15T16:43:39Z</time>
      </trkpt>
      <trkpt lat="49.42449" lon="-1.20187">
        <ele>1.6</ele>
        <time>2020-06-15T16:43:40Z</time>
      </trkpt>
      <trkpt lat="49.42445" lon="-1.20193">
        <ele>1.6</ele>
        <time>2020-06-15T16:43:41Z</time>
      </trkpt>
      <trkpt lat="49.42442" lon="-1.20199">
        <ele>1.6</ele>
        <time>2020-06-15T16:43:42Z</time>
      </trkpt>
      <trkpt lat="49.4244" lon="-1.20206">
        <ele>1.6</ele>
        <time>2020-06-15T16:43:43Z</time>
      </trkpt>
      <trkpt lat="49.42438" lon="-1.20212">
        <ele>1.6</ele>
        <time>2020-06-15T16:43:44Z</time>
      </trkpt>
      <trkpt lat="49.42437" lon="-1.20217">
        <ele>1.6</ele>
        <time>2020-06-15T16:43:45Z</time>
      </trkpt>
      <trkpt lat="49.42434" lon="-1.20225">
        <ele>1.6</ele>
        <time>2020-06-15T16:43:46Z</time>
      </trkpt>
      <trkpt lat="49.42431" lon="-1.20234">
        <ele>1.6</ele>
        <time>2020-06-15T16:43:47Z</time>
      </trkpt>
      <trkpt lat="49.4243" lon="-1.20244">
        <ele>1.6</ele>
        <time>2020-06-15T16:43:48Z</time>
      </trkpt>
      <trkpt lat="49.42429" lon="-1.20253">
        <ele>1.6</ele>
        <time>2020-06-15T16:43:49Z</time>
      </trkpt>
      <trkpt lat="49.42428" lon="-1.20264">
        <ele>1.6</ele>
        <time>2020-06-15T16:43:50Z</time>
      </trkpt>
      <trkpt lat="49.42428" lon="-1.20273">
        <ele>1.6</ele>
        <time>2020-06-15T16:43:51Z</time>
      </trkpt>
      <trkpt lat="49.42429" lon="-1.2028">
        <ele>1.7</ele>
        <time>2020-06-15T16:43:52Z</time>
      </trkpt>
      <trkpt lat="49.4243" lon="-1.20288">
        <ele>1.8</ele>
        <time>2020-06-15T16:43:53Z</time>
      </trkpt>
      <trkpt lat="49.42433" lon="-1.20296">
        <ele>1.8</ele>
        <time>2020-06-15T16:43:54Z</time>
      </trkpt>
      <trkpt lat="49.42437" lon="-1.20301">
        <ele>1.8</ele>
        <time>2020-06-15T16:43:55Z</time>
      </trkpt>
      <trkpt lat="49.42442" lon="-1.20305">
        <ele>1.7</ele>
        <time>2020-06-15T16:43:56Z</time>
      </trkpt>
      <trkpt lat="49.42446" lon="-1.20309">
        <ele>1.7</ele>
        <time>2020-06-15T16:43:57Z</time>
      </trkpt>
      <trkpt lat="49.4245" lon="-1.20313">
        <ele>1.7</ele>
        <time>2020-06-15T16:43:58Z</time>
      </trkpt>
      <trkpt lat="49.42454" lon="-1.20318">
        <ele>1.7</ele>
        <time>2020-06-15T16:43:59Z</time>
      </trkpt>
      <trkpt lat="49.42458" lon="-1.20321">
        <ele>1.8</ele>
        <time>2020-06-15T16:44:00Z</time>
      </trkpt>
      <trkpt lat="49.42462" lon="-1.20326">
        <ele>1.8</ele>
        <time>2020-06-15T16:44:01Z</time>
      </trkpt>
      <trkpt lat="49.42466" lon="-1.20331">
        <ele>1.8</ele>
        <time>2020-06-15T16:44:02Z</time>
      </trkpt>
      <trkpt lat="49.4247" lon="-1.20336">
        <ele>1.8</ele>
        <time>2020-06-15T16:44:03Z</time>
      </trkpt>
      <trkpt lat="49.42474" lon="-1.2034">
        <ele>1.8</ele>
        <time>2020-06-15T16:44:04Z</time>
      </trkpt>
      <trkpt lat="49.42479" lon="-1.20344">
        <ele>1.8</ele>
        <time>2020-06-15T16:44:05Z</time>
      </trkpt>
      <trkpt lat="49.42484" lon="-1.20348">
        <ele>1.9</ele>
        <time>2020-06-15T16:44:06Z</time>
      </trkpt>
      <trkpt lat="49.42489" lon="-1.20351">
        <ele>2</ele>
        <time>2020-06-15T16:44:07Z</time>
      </trkpt>
      <trkpt lat="49.42494" lon="-1.20355">
        <ele>2.1</ele>
        <time>2020-06-15T16:44:08Z</time>
      </trkpt>
      <trkpt lat="49.42499" lon="-1.20359">
        <ele>2.2</ele>
        <time>2020-06-15T16:44:09Z</time>
      </trkpt>
      <trkpt lat="49.42504" lon="-1.20364">
        <ele>2.2</ele>
        <time>2020-06-15T16:44:10Z</time>
      </trkpt>
      <trkpt lat="49.42509" lon="-1.20368">
        <ele>2.1</ele>
        <time>2020-06-15T16:44:11Z</time>
      </trkpt>
      <trkpt lat="49.42515" lon="-1.20372">
        <ele>2.1</ele>
        <time>2020-06-15T16:44:12Z</time>
      </trkpt>
      <trkpt lat="49.4252" lon="-1.20376">
        <ele>2.1</ele>
        <time>2020-06-15T16:44:13Z</time>
      </trkpt>
      <trkpt lat="49.42527" lon="-1.2038">
        <ele>2</ele>
        <time>2020-06-15T16:44:14Z</time>
      </trkpt>
      <trkpt lat="49.42533" lon="-1.20383">
        <ele>2</ele>
        <time>2020-06-15T16:44:15Z</time>
      </trkpt>
      <trkpt lat="49.42539" lon="-1.20386">
        <ele>2</ele>
        <time>2020-06-15T16:44:16Z</time>
      </trkpt>
      <trkpt lat="49.42545" lon="-1.2039">
        <ele>2</ele>
        <time>2020-06-15T16:44:17Z</time>
      </trkpt>
      <trkpt lat="49.42552" lon="-1.20394">
        <ele>2</ele>
        <time>2020-06-15T16:44:18Z</time>
      </trkpt>
      <trkpt lat="49.42558" lon="-1.20398">
        <ele>2</ele>
        <time>2020-06-15T16:44:19Z</time>
      </trkpt>
      <trkpt lat="49.42563" lon="-1.20402">
        <ele>2.1</ele>
        <time>2020-06-15T16:44:20Z</time>
      </trkpt>
      <trkpt lat="49.42569" lon="-1.20406">
        <ele>2.1</ele>
        <time>2020-06-15T16:44:21Z</time>
      </trkpt>
      <trkpt lat="49.42574" lon="-1.2041">
        <ele>2.1</ele>
        <time>2020-06-15T16:44:22Z</time>
      </trkpt>
      <trkpt lat="49.4258" lon="-1.20415">
        <ele>2.1</ele>
        <time>2020-06-15T16:44:23Z</time>
      </trkpt>
      <trkpt lat="49.42585" lon="-1.2042">
        <ele>2.1</ele>
        <time>2020-06-15T16:44:24Z</time>
      </trkpt>
      <trkpt lat="49.4259" lon="-1.20424">
        <ele>2.1</ele>
        <time>2020-06-15T16:44:25Z</time>
      </trkpt>
      <trkpt lat="49.42595" lon="-1.20429">
        <ele>2.1</ele>
        <time>2020-06-15T16:44:26Z</time>
      </trkpt>
      <trkpt lat="49.426" lon="-1.20434">
        <ele>2.1</ele>
        <time>2020-06-15T16:44:27Z</time>
      </trkpt>
      <trkpt lat="49.42605" lon="-1.2044">
        <ele>2.1</ele>
        <time>2020-06-15T16:44:28Z</time>
      </trkpt>
      <trkpt lat="49.42611" lon="-1.20445">
        <ele>2.1</ele>
        <time>2020-06-15T16:44:29Z</time>
      </trkpt>
      <trkpt lat="49.42617" lon="-1.2045">
        <ele>2.1</ele>
        <time>2020-06-15T16:44:30Z</time>
      </trkpt>
      <trkpt lat="49.42623" lon="-1.20455">
        <ele>2.1</ele>
        <time>2020-06-15T16:44:31Z</time>
      </trkpt>
      <trkpt lat="49.42627" lon="-1.20459">
        <ele>2.2</ele>
        <time>2020-06-15T16:44:32Z</time>
      </trkpt>
      <trkpt lat="49.42633" lon="-1.20465">
        <ele>2.2</ele>
        <time>2020-06-15T16:44:33Z</time>
      </trkpt>
      <trkpt lat="49.42638" lon="-1.20471">
        <ele>2.2</ele>
        <time>2020-06-15T16:44:34Z</time>
      </trkpt>
      <trkpt lat="49.42644" lon="-1.20476">
        <ele>2.1</ele>
        <time>2020-06-15T16:44:35Z</time>
      </trkpt>
      <trkpt lat="49.42649" lon="-1.20482">
        <ele>2.1</ele>
        <time>2020-06-15T16:44:36Z</time>
      </trkpt>
      <trkpt lat="49.42654" lon="-1.20488">
        <ele>2.1</ele>
        <time>2020-06-15T16:44:37Z</time>
      </trkpt>
      <trkpt lat="49.42659" lon="-1.20494">
        <ele>2.1</ele>
        <time>2020-06-15T16:44:38Z</time>
      </trkpt>
      <trkpt lat="49.42665" lon="-1.205">
        <ele>2.1</ele>
        <time>2020-06-15T16:44:39Z</time>
      </trkpt>
      <trkpt lat="49.42671" lon="-1.20505">
        <ele>2.1</ele>
        <time>2020-06-15T16:44:40Z</time>
      </trkpt>
      <trkpt lat="49.42676" lon="-1.20511">
        <ele>2.1</ele>
        <time>2020-06-15T16:44:41Z</time>
      </trkpt>
      <trkpt lat="49.42682" lon="-1.20516">
        <ele>2.2</ele>
        <time>2020-06-15T16:44:42Z</time>
      </trkpt>
      <trkpt lat="49.42687" lon="-1.20522">
        <ele>2.1</ele>
        <time>2020-06-15T16:44:43Z</time>
      </trkpt>
      <trkpt lat="49.42693" lon="-1.20527">
        <ele>2.1</ele>
        <time>2020-06-15T16:44:44Z</time>
      </trkpt>
      <trkpt lat="49.42699" lon="-1.20532">
        <ele>2.1</ele>
        <time>2020-06-15T16:44:45Z</time>
      </trkpt>
      <trkpt lat="49.42704" lon="-1.20538">
        <ele>2.1</ele>
        <time>2020-06-15T16:44:46Z</time>
      </trkpt>
      <trkpt lat="49.42708" lon="-1.20545">
        <ele>2.1</ele>
        <time>2020-06-15T16:44:47Z</time>
      </trkpt>
      <trkpt lat="49.42713" lon="-1.2055">
        <ele>2.1</ele>
        <time>2020-06-15T16:44:48Z</time>
      </trkpt>
      <trkpt lat="49.42719" lon="-1.20555">
        <ele>2.2</ele>
        <time>2020-06-15T16:44:49Z</time>
      </trkpt>
      <trkpt lat="49.42724" lon="-1.20559">
        <ele>2.2</ele>
        <time>2020-06-15T16:44:50Z</time>
      </trkpt>
      <trkpt lat="49.42729" lon="-1.20564">
        <ele>2.2</ele>
        <time>2020-06-15T16:44:51Z</time>
      </trkpt>
      <trkpt lat="49.42735" lon="-1.20569">
        <ele>2.2</ele>
        <time>2020-06-15T16:44:52Z</time>
      </trkpt>
      <trkpt lat="49.42741" lon="-1.20574">
        <ele>2.2</ele>
        <time>2020-06-15T16:44:53Z</time>
      </trkpt>
      <trkpt lat="49.42747" lon="-1.20579">
        <ele>2.1</ele>
        <time>2020-06-15T16:44:54Z</time>
      </trkpt>
      <trkpt lat="49.42753" lon="-1.20585">
        <ele>2.1</ele>
        <time>2020-06-15T16:44:55Z</time>
      </trkpt>
      <trkpt lat="49.42758" lon="-1.20591">
        <ele>1.9</ele>
        <time>2020-06-15T16:44:56Z</time>
      </trkpt>
      <trkpt lat="49.42765" lon="-1.20598">
        <ele>1.8</ele>
        <time>2020-06-15T16:44:57Z</time>
      </trkpt>
      <trkpt lat="49.42771" lon="-1.20604">
        <ele>1.7</ele>
        <time>2020-06-15T16:44:58Z</time>
      </trkpt>
      <trkpt lat="49.42777" lon="-1.2061">
        <ele>1.6</ele>
        <time>2020-06-15T16:44:59Z</time>
      </trkpt>
      <trkpt lat="49.42782" lon="-1.20617">
        <ele>1.6</ele>
        <time>2020-06-15T16:45:00Z</time>
      </trkpt>
      <trkpt lat="49.42788" lon="-1.20623">
        <ele>1.6</ele>
        <time>2020-06-15T16:45:01Z</time>
      </trkpt>
      <trkpt lat="49.42795" lon="-1.2063">
        <ele>1.6</ele>
        <time>2020-06-15T16:45:02Z</time>
      </trkpt>
      <trkpt lat="49.42798" lon="-1.20635">
        <ele>1.7</ele>
        <time>2020-06-15T16:45:03Z</time>
      </trkpt>
      <trkpt lat="49.42803" lon="-1.2064">
        <ele>1.7</ele>
        <time>2020-06-15T16:45:04Z</time>
      </trkpt>
      <trkpt lat="49.42808" lon="-1.20646">
        <ele>1.8</ele>
        <time>2020-06-15T16:45:05Z</time>
      </trkpt>
      <trkpt lat="49.42813" lon="-1.20652">
        <ele>1.8</ele>
        <time>2020-06-15T16:45:06Z</time>
      </trkpt>
      <trkpt lat="49.42818" lon="-1.20658">
        <ele>1.9</ele>
        <time>2020-06-15T16:45:07Z</time>
      </trkpt>
      <trkpt lat="49.42825" lon="-1.20663">
        <ele>1.9</ele>
        <time>2020-06-15T16:45:08Z</time>
      </trkpt>
      <trkpt lat="49.42831" lon="-1.20667">
        <ele>1.8</ele>
        <time>2020-06-15T16:45:09Z</time>
      </trkpt>
      <trkpt lat="49.42836" lon="-1.20671">
        <ele>1.8</ele>
        <time>2020-06-15T16:45:10Z</time>
      </trkpt>
      <trkpt lat="49.4284" lon="-1.20675">
        <ele>1.8</ele>
        <time>2020-06-15T16:45:11Z</time>
      </trkpt>
      <trkpt lat="49.42845" lon="-1.20679">
        <ele>1.8</ele>
        <time>2020-06-15T16:45:12Z</time>
      </trkpt>
      <trkpt lat="49.42848" lon="-1.20684">
        <ele>1.8</ele>
        <time>2020-06-15T16:45:13Z</time>
      </trkpt>
      <trkpt lat="49.42852" lon="-1.20688">
        <ele>1.9</ele>
        <time>2020-06-15T16:45:14Z</time>
      </trkpt>
      <trkpt lat="49.42855" lon="-1.20691">
        <ele>1.9</ele>
        <time>2020-06-15T16:45:15Z</time>
      </trkpt>
      <trkpt lat="49.42858" lon="-1.20693">
        <ele>1.9</ele>
        <time>2020-06-15T16:45:16Z</time>
      </trkpt>
      <trkpt lat="49.42864" lon="-1.20697">
        <ele>2</ele>
        <time>2020-06-15T16:45:17Z</time>
      </trkpt>
      <trkpt lat="49.42868" lon="-1.207">
        <ele>2</ele>
        <time>2020-06-15T16:45:18Z</time>
      </trkpt>
      <trkpt lat="49.42872" lon="-1.20702">
        <ele>1.9</ele>
        <time>2020-06-15T16:45:19Z</time>
      </trkpt>
      <trkpt lat="49.42874" lon="-1.20705">
        <ele>1.9</ele>
        <time>2020-06-15T16:45:20Z</time>
      </trkpt>
      <trkpt lat="49.42877" lon="-1.20707">
        <ele>1.9</ele>
        <time>2020-06-15T16:45:21Z</time>
      </trkpt>
      <trkpt lat="49.42881" lon="-1.20709">
        <ele>1.9</ele>
        <time>2020-06-15T16:45:22Z</time>
      </trkpt>
      <trkpt lat="49.42884" lon="-1.2071">
        <ele>1.9</ele>
        <time>2020-06-15T16:45:23Z</time>
      </trkpt>
      <trkpt lat="49.42887" lon="-1.20712">
        <ele>1.9</ele>
        <time>2020-06-15T16:45:24Z</time>
      </trkpt>
      <trkpt lat="49.42888" lon="-1.20713">
        <ele>1.8</ele>
        <time>2020-06-15T16:45:25Z</time>
      </trkpt>
      <trkpt lat="49.42887" lon="-1.20714">
        <ele>1.8</ele>
        <time>2020-06-15T16:45:26Z</time>
      </trkpt>
      <trkpt lat="49.42887" lon="-1.20715">
        <ele>1.8</ele>
        <time>2020-06-15T16:45:27Z</time>
      </trkpt>
      <trkpt lat="49.42887" lon="-1.20716">
        <ele>1.8</ele>
        <time>2020-06-15T16:45:28Z</time>
      </trkpt>
      <trkpt lat="49.42886" lon="-1.20717">
        <ele>1.8</ele>
        <time>2020-06-15T16:45:29Z</time>
      </trkpt>
      <trkpt lat="49.42886" lon="-1.20718">
        <ele>1.7</ele>
        <time>2020-06-15T16:45:30Z</time>
      </trkpt>
      <trkpt lat="49.42884" lon="-1.20722">
        <ele>1.7</ele>
        <time>2020-06-15T16:45:31Z</time>
      </trkpt>
      <trkpt lat="49.42883" lon="-1.20723">
        <ele>1.6</ele>
        <time>2020-06-15T16:45:32Z</time>
      </trkpt>
      <trkpt lat="49.42881" lon="-1.20727">
        <ele>1.6</ele>
        <time>2020-06-15T16:45:33Z</time>
      </trkpt>
      <trkpt lat="49.42878" lon="-1.20732">
        <ele>1.6</ele>
        <time>2020-06-15T16:45:34Z</time>
      </trkpt>
      <trkpt lat="49.42875" lon="-1.20737">
        <ele>1.6</ele>
        <time>2020-06-15T16:45:35Z</time>
      </trkpt>
      <trkpt lat="49.42872" lon="-1.20743">
        <ele>1.7</ele>
        <time>2020-06-15T16:45:36Z</time>
      </trkpt>
      <trkpt lat="49.42869" lon="-1.20748">
        <ele>1.7</ele>
        <time>2020-06-15T16:45:37Z</time>
      </trkpt>
      <trkpt lat="49.42865" lon="-1.20753">
        <ele>1.7</ele>
        <time>2020-06-15T16:45:38Z</time>
      </trkpt>
      <trkpt lat="49.42863" lon="-1.20758">
        <ele>1.7</ele>
        <time>2020-06-15T16:45:39Z</time>
      </trkpt>
      <trkpt lat="49.4286" lon="-1.20762">
        <ele>1.7</ele>
        <time>2020-06-15T16:45:40Z</time>
      </trkpt>
      <trkpt lat="49.42858" lon="-1.20766">
        <ele>1.7</ele>
        <time>2020-06-15T16:45:41Z</time>
      </trkpt>
      <trkpt lat="49.42854" lon="-1.20771">
        <ele>1.6</ele>
        <time>2020-06-15T16:45:42Z</time>
      </trkpt>
      <trkpt lat="49.42853" lon="-1.20775">
        <ele>1.5</ele>
        <time>2020-06-15T16:45:43Z</time>
      </trkpt>
      <trkpt lat="49.42851" lon="-1.2078">
        <ele>1.5</ele>
        <time>2020-06-15T16:45:44Z</time>
      </trkpt>
      <trkpt lat="49.42849" lon="-1.20786">
        <ele>1.4</ele>
        <time>2020-06-15T16:45:45Z</time>
      </trkpt>
      <trkpt lat="49.42848" lon="-1.20792">
        <ele>1.3</ele>
        <time>2020-06-15T16:45:46Z</time>
      </trkpt>
      <trkpt lat="49.42846" lon="-1.20798">
        <ele>1.3</ele>
        <time>2020-06-15T16:45:47Z</time>
      </trkpt>
      <trkpt lat="49.42843" lon="-1.20803">
        <ele>1.3</ele>
        <time>2020-06-15T16:45:48Z</time>
      </trkpt>
      <trkpt lat="49.4284" lon="-1.20807">
        <ele>1.3</ele>
        <time>2020-06-15T16:45:49Z</time>
      </trkpt>
      <trkpt lat="49.42838" lon="-1.20812">
        <ele>1.3</ele>
        <time>2020-06-15T16:45:50Z</time>
      </trkpt>
      <trkpt lat="49.42836" lon="-1.20817">
        <ele>1.3</ele>
        <time>2020-06-15T16:45:51Z</time>
      </trkpt>
      <trkpt lat="49.42834" lon="-1.20822">
        <ele>1.3</ele>
        <time>2020-06-15T16:45:52Z</time>
      </trkpt>
      <trkpt lat="49.42831" lon="-1.20827">
        <ele>1.3</ele>
        <time>2020-06-15T16:45:53Z</time>
      </trkpt>
      <trkpt lat="49.4283" lon="-1.20832">
        <ele>1.2</ele>
        <time>2020-06-15T16:45:54Z</time>
      </trkpt>
      <trkpt lat="49.42827" lon="-1.20836">
        <ele>1.2</ele>
        <time>2020-06-15T16:45:55Z</time>
      </trkpt>
      <trkpt lat="49.42825" lon="-1.2084">
        <ele>1.2</ele>
        <time>2020-06-15T16:45:56Z</time>
      </trkpt>
      <trkpt lat="49.42822" lon="-1.20846">
        <ele>1.2</ele>
        <time>2020-06-15T16:45:57Z</time>
      </trkpt>
      <trkpt lat="49.42819" lon="-1.2085">
        <ele>1.2</ele>
        <time>2020-06-15T16:45:58Z</time>
      </trkpt>
      <trkpt lat="49.42818" lon="-1.20855">
        <ele>1.2</ele>
        <time>2020-06-15T16:45:59Z</time>
      </trkpt>
      <trkpt lat="49.42815" lon="-1.20861">
        <ele>1.2</ele>
        <time>2020-06-15T16:46:00Z</time>
      </trkpt>
      <trkpt lat="49.42813" lon="-1.20866">
        <ele>1.2</ele>
        <time>2020-06-15T16:46:01Z</time>
      </trkpt>
      <trkpt lat="49.42811" lon="-1.20871">
        <ele>1.3</ele>
        <time>2020-06-15T16:46:02Z</time>
      </trkpt>
      <trkpt lat="49.42808" lon="-1.20876">
        <ele>1.3</ele>
        <time>2020-06-15T16:46:03Z</time>
      </trkpt>
      <trkpt lat="49.42805" lon="-1.20882">
        <ele>1.3</ele>
        <time>2020-06-15T16:46:04Z</time>
      </trkpt>
      <trkpt lat="49.42803" lon="-1.20888">
        <ele>1.4</ele>
        <time>2020-06-15T16:46:05Z</time>
      </trkpt>
      <trkpt lat="49.428" lon="-1.20893">
        <ele>1.4</ele>
        <time>2020-06-15T16:46:06Z</time>
      </trkpt>
      <trkpt lat="49.42797" lon="-1.20898">
        <ele>1.5</ele>
        <time>2020-06-15T16:46:07Z</time>
      </trkpt>
      <trkpt lat="49.42794" lon="-1.20903">
        <ele>1.5</ele>
        <time>2020-06-15T16:46:08Z</time>
      </trkpt>
      <trkpt lat="49.42792" lon="-1.20908">
        <ele>1.5</ele>
        <time>2020-06-15T16:46:09Z</time>
      </trkpt>
      <trkpt lat="49.42789" lon="-1.20913">
        <ele>1.5</ele>
        <time>2020-06-15T16:46:10Z</time>
      </trkpt>
      <trkpt lat="49.42787" lon="-1.20918">
        <ele>1.4</ele>
        <time>2020-06-15T16:46:11Z</time>
      </trkpt>
      <trkpt lat="49.42785" lon="-1.20924">
        <ele>1.4</ele>
        <time>2020-06-15T16:46:12Z</time>
      </trkpt>
      <trkpt lat="49.42782" lon="-1.20931">
        <ele>1.3</ele>
        <time>2020-06-15T16:46:13Z</time>
      </trkpt>
      <trkpt lat="49.4278" lon="-1.20938">
        <ele>1.3</ele>
        <time>2020-06-15T16:46:14Z</time>
      </trkpt>
      <trkpt lat="49.42777" lon="-1.20943">
        <ele>1.2</ele>
        <time>2020-06-15T16:46:15Z</time>
      </trkpt>
      <trkpt lat="49.42775" lon="-1.2095">
        <ele>1.2</ele>
        <time>2020-06-15T16:46:16Z</time>
      </trkpt>
      <trkpt lat="49.42772" lon="-1.20958">
        <ele>1.2</ele>
        <time>2020-06-15T16:46:17Z</time>
      </trkpt>
      <trkpt lat="49.42769" lon="-1.20965">
        <ele>1.2</ele>
        <time>2020-06-15T16:46:18Z</time>
      </trkpt>
      <trkpt lat="49.42767" lon="-1.20972">
        <ele>1.2</ele>
        <time>2020-06-15T16:46:19Z</time>
      </trkpt>
      <trkpt lat="49.42763" lon="-1.20979">
        <ele>1.2</ele>
        <time>2020-06-15T16:46:20Z</time>
      </trkpt>
      <trkpt lat="49.42761" lon="-1.20985">
        <ele>1.2</ele>
        <time>2020-06-15T16:46:21Z</time>
      </trkpt>
      <trkpt lat="49.42758" lon="-1.2099">
        <ele>1.2</ele>
        <time>2020-06-15T16:46:22Z</time>
      </trkpt>
      <trkpt lat="49.42756" lon="-1.20996">
        <ele>1.2</ele>
        <time>2020-06-15T16:46:23Z</time>
      </trkpt>
      <trkpt lat="49.42753" lon="-1.21003">
        <ele>1.2</ele>
        <time>2020-06-15T16:46:24Z</time>
      </trkpt>
      <trkpt lat="49.4275" lon="-1.21008">
        <ele>1.2</ele>
        <time>2020-06-15T16:46:25Z</time>
      </trkpt>
      <trkpt lat="49.42747" lon="-1.21014">
        <ele>1.2</ele>
        <time>2020-06-15T16:46:26Z</time>
      </trkpt>
      <trkpt lat="49.42745" lon="-1.21019">
        <ele>1.2</ele>
        <time>2020-06-15T16:46:27Z</time>
      </trkpt>
      <trkpt lat="49.42743" lon="-1.21025">
        <ele>1.2</ele>
        <time>2020-06-15T16:46:28Z</time>
      </trkpt>
      <trkpt lat="49.42741" lon="-1.21031">
        <ele>1.3</ele>
        <time>2020-06-15T16:46:29Z</time>
      </trkpt>
      <trkpt lat="49.42737" lon="-1.21037">
        <ele>1.3</ele>
        <time>2020-06-15T16:46:30Z</time>
      </trkpt>
      <trkpt lat="49.42733" lon="-1.21042">
        <ele>1.4</ele>
        <time>2020-06-15T16:46:31Z</time>
      </trkpt>
      <trkpt lat="49.4273" lon="-1.21047">
        <ele>1.4</ele>
        <time>2020-06-15T16:46:32Z</time>
      </trkpt>
      <trkpt lat="49.42727" lon="-1.21053">
        <ele>1.3</ele>
        <time>2020-06-15T16:46:33Z</time>
      </trkpt>
      <trkpt lat="49.42725" lon="-1.21059">
        <ele>1.3</ele>
        <time>2020-06-15T16:46:34Z</time>
      </trkpt>
      <trkpt lat="49.42722" lon="-1.21065">
        <ele>1.2</ele>
        <time>2020-06-15T16:46:35Z</time>
      </trkpt>
      <trkpt lat="49.4272" lon="-1.2107">
        <ele>1.2</ele>
        <time>2020-06-15T16:46:36Z</time>
      </trkpt>
      <trkpt lat="49.42719" lon="-1.21075">
        <ele>1.2</ele>
        <time>2020-06-15T16:46:37Z</time>
      </trkpt>
      <trkpt lat="49.42716" lon="-1.21079">
        <ele>1.2</ele>
        <time>2020-06-15T16:46:38Z</time>
      </trkpt>
      <trkpt lat="49.42714" lon="-1.21085">
        <ele>1.2</ele>
        <time>2020-06-15T16:46:39Z</time>
      </trkpt>
      <trkpt lat="49.4271" lon="-1.21089">
        <ele>1.2</ele>
        <time>2020-06-15T16:46:40Z</time>
      </trkpt>
      <trkpt lat="49.42707" lon="-1.21094">
        <ele>1.2</ele>
        <time>2020-06-15T16:46:41Z</time>
      </trkpt>
      <trkpt lat="49.42703" lon="-1.21098">
        <ele>1.2</ele>
        <time>2020-06-15T16:46:42Z</time>
      </trkpt>
      <trkpt lat="49.42699" lon="-1.21102">
        <ele>1.1</ele>
        <time>2020-06-15T16:46:43Z</time>
      </trkpt>
      <trkpt lat="49.42695" lon="-1.21107">
        <ele>1.1</ele>
        <time>2020-06-15T16:46:44Z</time>
      </trkpt>
      <trkpt lat="49.42691" lon="-1.21111">
        <ele>1.1</ele>
        <time>2020-06-15T16:46:45Z</time>
      </trkpt>
      <trkpt lat="49.42687" lon="-1.21116">
        <ele>1.2</ele>
        <time>2020-06-15T16:46:46Z</time>
      </trkpt>
      <trkpt lat="49.42683" lon="-1.21121">
        <ele>1.2</ele>
        <time>2020-06-15T16:46:47Z</time>
      </trkpt>
      <trkpt lat="49.42678" lon="-1.21126">
        <ele>1.3</ele>
        <time>2020-06-15T16:46:48Z</time>
      </trkpt>
      <trkpt lat="49.42674" lon="-1.21132">
        <ele>1.3</ele>
        <time>2020-06-15T16:46:49Z</time>
      </trkpt>
      <trkpt lat="49.42669" lon="-1.21138">
        <ele>1.2</ele>
        <time>2020-06-15T16:46:50Z</time>
      </trkpt>
      <trkpt lat="49.42665" lon="-1.21145">
        <ele>1.1</ele>
        <time>2020-06-15T16:46:51Z</time>
      </trkpt>
      <trkpt lat="49.42661" lon="-1.21152">
        <ele>1.1</ele>
        <time>2020-06-15T16:46:52Z</time>
      </trkpt>
      <trkpt lat="49.42657" lon="-1.21159">
        <ele>1</ele>
        <time>2020-06-15T16:46:53Z</time>
      </trkpt>
      <trkpt lat="49.42653" lon="-1.21166">
        <ele>1</ele>
        <time>2020-06-15T16:46:54Z</time>
      </trkpt>
      <trkpt lat="49.42648" lon="-1.21172">
        <ele>1</ele>
        <time>2020-06-15T16:46:55Z</time>
      </trkpt>
      <trkpt lat="49.42643" lon="-1.21178">
        <ele>1</ele>
        <time>2020-06-15T16:46:56Z</time>
      </trkpt>
      <trkpt lat="49.42638" lon="-1.21184">
        <ele>1</ele>
        <time>2020-06-15T16:46:57Z</time>
      </trkpt>
      <trkpt lat="49.42635" lon="-1.21189">
        <ele>1</ele>
        <time>2020-06-15T16:46:58Z</time>
      </trkpt>
      <trkpt lat="49.42631" lon="-1.21195">
        <ele>1</ele>
        <time>2020-06-15T16:46:59Z</time>
      </trkpt>
      <trkpt lat="49.42628" lon="-1.21201">
        <ele>1</ele>
        <time>2020-06-15T16:47:00Z</time>
      </trkpt>
      <trkpt lat="49.42624" lon="-1.21207">
        <ele>1.1</ele>
        <time>2020-06-15T16:47:01Z</time>
      </trkpt>
      <trkpt lat="49.42621" lon="-1.21213">
        <ele>1.1</ele>
        <time>2020-06-15T16:47:02Z</time>
      </trkpt>
      <trkpt lat="49.42617" lon="-1.21219">
        <ele>1.2</ele>
        <time>2020-06-15T16:47:03Z</time>
      </trkpt>
      <trkpt lat="49.42614" lon="-1.21225">
        <ele>1.2</ele>
        <time>2020-06-15T16:47:04Z</time>
      </trkpt>
      <trkpt lat="49.42611" lon="-1.21232">
        <ele>1.2</ele>
        <time>2020-06-15T16:47:05Z</time>
      </trkpt>
      <trkpt lat="49.42608" lon="-1.21238">
        <ele>1.2</ele>
        <time>2020-06-15T16:47:06Z</time>
      </trkpt>
      <trkpt lat="49.42605" lon="-1.21244">
        <ele>1.2</ele>
        <time>2020-06-15T16:47:07Z</time>
      </trkpt>
      <trkpt lat="49.42603" lon="-1.2125">
        <ele>1.2</ele>
        <time>2020-06-15T16:47:08Z</time>
      </trkpt>
      <trkpt lat="49.426" lon="-1.21256">
        <ele>1.2</ele>
        <time>2020-06-15T16:47:09Z</time>
      </trkpt>
      <trkpt lat="49.42598" lon="-1.21262">
        <ele>1.2</ele>
        <time>2020-06-15T16:47:10Z</time>
      </trkpt>
      <trkpt lat="49.42595" lon="-1.21267">
        <ele>1.2</ele>
        <time>2020-06-15T16:47:11Z</time>
      </trkpt>
      <trkpt lat="49.42592" lon="-1.21273">
        <ele>1.2</ele>
        <time>2020-06-15T16:47:12Z</time>
      </trkpt>
      <trkpt lat="49.42589" lon="-1.2128">
        <ele>1.3</ele>
        <time>2020-06-15T16:47:13Z</time>
      </trkpt>
      <trkpt lat="49.42587" lon="-1.21287">
        <ele>1.3</ele>
        <time>2020-06-15T16:47:14Z</time>
      </trkpt>
      <trkpt lat="49.42584" lon="-1.21293">
        <ele>1.3</ele>
        <time>2020-06-15T16:47:15Z</time>
      </trkpt>
      <trkpt lat="49.42582" lon="-1.21299">
        <ele>1.2</ele>
        <time>2020-06-15T16:47:16Z</time>
      </trkpt>
      <trkpt lat="49.42579" lon="-1.21306">
        <ele>1.2</ele>
        <time>2020-06-15T16:47:17Z</time>
      </trkpt>
      <trkpt lat="49.42576" lon="-1.21313">
        <ele>1.2</ele>
        <time>2020-06-15T16:47:18Z</time>
      </trkpt>
      <trkpt lat="49.42574" lon="-1.21319">
        <ele>1.2</ele>
        <time>2020-06-15T16:47:19Z</time>
      </trkpt>
      <trkpt lat="49.42571" lon="-1.21326">
        <ele>1.2</ele>
        <time>2020-06-15T16:47:20Z</time>
      </trkpt>
      <trkpt lat="49.4257" lon="-1.21332">
        <ele>1.1</ele>
        <time>2020-06-15T16:47:21Z</time>
      </trkpt>
      <trkpt lat="49.42567" lon="-1.21339">
        <ele>1</ele>
        <time>2020-06-15T16:47:22Z</time>
      </trkpt>
      <trkpt lat="49.42564" lon="-1.21346">
        <ele>1</ele>
        <time>2020-06-15T16:47:23Z</time>
      </trkpt>
      <trkpt lat="49.42562" lon="-1.21353">
        <ele>0.9</ele>
        <time>2020-06-15T16:47:24Z</time>
      </trkpt>
      <trkpt lat="49.42559" lon="-1.2136">
        <ele>0.9</ele>
        <time>2020-06-15T16:47:25Z</time>
      </trkpt>
      <trkpt lat="49.42556" lon="-1.21366">
        <ele>0.8</ele>
        <time>2020-06-15T16:47:26Z</time>
      </trkpt>
      <trkpt lat="49.42554" lon="-1.21372">
        <ele>0.7</ele>
        <time>2020-06-15T16:47:27Z</time>
      </trkpt>
      <trkpt lat="49.42552" lon="-1.21377">
        <ele>0.7</ele>
        <time>2020-06-15T16:47:28Z</time>
      </trkpt>
      <trkpt lat="49.4255" lon="-1.21383">
        <ele>0.6</ele>
        <time>2020-06-15T16:47:29Z</time>
      </trkpt>
      <trkpt lat="49.42548" lon="-1.21389">
        <ele>0.6</ele>
        <time>2020-06-15T16:47:30Z</time>
      </trkpt>
      <trkpt lat="49.42546" lon="-1.21394">
        <ele>0.5</ele>
        <time>2020-06-15T16:47:31Z</time>
      </trkpt>
      <trkpt lat="49.42544" lon="-1.21401">
        <ele>0.5</ele>
        <time>2020-06-15T16:47:32Z</time>
      </trkpt>
      <trkpt lat="49.42541" lon="-1.21407">
        <ele>0.5</ele>
        <time>2020-06-15T16:47:33Z</time>
      </trkpt>
      <trkpt lat="49.42538" lon="-1.21414">
        <ele>0.5</ele>
        <time>2020-06-15T16:47:34Z</time>
      </trkpt>
      <trkpt lat="49.42535" lon="-1.2142">
        <ele>0.4</ele>
        <time>2020-06-15T16:47:35Z</time>
      </trkpt>
      <trkpt lat="49.42533" lon="-1.21426">
        <ele>0.4</ele>
        <time>2020-06-15T16:47:36Z</time>
      </trkpt>
      <trkpt lat="49.42531" lon="-1.21432">
        <ele>0.4</ele>
        <time>2020-06-15T16:47:37Z</time>
      </trkpt>
      <trkpt lat="49.42528" lon="-1.21437">
        <ele>0.4</ele>
        <time>2020-06-15T16:47:38Z</time>
      </trkpt>
      <trkpt lat="49.42526" lon="-1.21444">
        <ele>0.4</ele>
        <time>2020-06-15T16:47:39Z</time>
      </trkpt>
      <trkpt lat="49.42523" lon="-1.2145">
        <ele>0.4</ele>
        <time>2020-06-15T16:47:40Z</time>
      </trkpt>
      <trkpt lat="49.42521" lon="-1.21456">
        <ele>0.4</ele>
        <time>2020-06-15T16:47:41Z</time>
      </trkpt>
      <trkpt lat="49.42518" lon="-1.21462">
        <ele>0.4</ele>
        <time>2020-06-15T16:47:42Z</time>
      </trkpt>
      <trkpt lat="49.42516" lon="-1.21468">
        <ele>0.5</ele>
        <time>2020-06-15T16:47:43Z</time>
      </trkpt>
      <trkpt lat="49.42514" lon="-1.21475">
        <ele>0.5</ele>
        <time>2020-06-15T16:47:44Z</time>
      </trkpt>
      <trkpt lat="49.42511" lon="-1.21482">
        <ele>0.6</ele>
        <time>2020-06-15T16:47:45Z</time>
      </trkpt>
      <trkpt lat="49.42508" lon="-1.2149">
        <ele>0.7</ele>
        <time>2020-06-15T16:47:46Z</time>
      </trkpt>
      <trkpt lat="49.42506" lon="-1.21497">
        <ele>0.7</ele>
        <time>2020-06-15T16:47:47Z</time>
      </trkpt>
      <trkpt lat="49.42504" lon="-1.21504">
        <ele>0.8</ele>
        <time>2020-06-15T16:47:48Z</time>
      </trkpt>
      <trkpt lat="49.42501" lon="-1.2151">
        <ele>0.8</ele>
        <time>2020-06-15T16:47:49Z</time>
      </trkpt>
      <trkpt lat="49.42499" lon="-1.21516">
        <ele>0.8</ele>
        <time>2020-06-15T16:47:50Z</time>
      </trkpt>
      <trkpt lat="49.42498" lon="-1.21523">
        <ele>0.7</ele>
        <time>2020-06-15T16:47:51Z</time>
      </trkpt>
      <trkpt lat="49.42496" lon="-1.21531">
        <ele>0.7</ele>
        <time>2020-06-15T16:47:52Z</time>
      </trkpt>
      <trkpt lat="49.42494" lon="-1.21538">
        <ele>0.6</ele>
        <time>2020-06-15T16:47:53Z</time>
      </trkpt>
      <trkpt lat="49.42492" lon="-1.21545">
        <ele>0.6</ele>
        <time>2020-06-15T16:47:54Z</time>
      </trkpt>
      <trkpt lat="49.42489" lon="-1.21552">
        <ele>0.5</ele>
        <time>2020-06-15T16:47:55Z</time>
      </trkpt>
      <trkpt lat="49.42487" lon="-1.21559">
        <ele>0.4</ele>
        <time>2020-06-15T16:47:56Z</time>
      </trkpt>
      <trkpt lat="49.42484" lon="-1.21567">
        <ele>0.4</ele>
        <time>2020-06-15T16:47:57Z</time>
      </trkpt>
      <trkpt lat="49.42481" lon="-1.21574">
        <ele>0.4</ele>
        <time>2020-06-15T16:47:58Z</time>
      </trkpt>
      <trkpt lat="49.42478" lon="-1.21581">
        <ele>0.5</ele>
        <time>2020-06-15T16:47:59Z</time>
      </trkpt>
      <trkpt lat="49.42475" lon="-1.21589">
        <ele>0.6</ele>
        <time>2020-06-15T16:48:00Z</time>
      </trkpt>
      <trkpt lat="49.42472" lon="-1.21595">
        <ele>0.7</ele>
        <time>2020-06-15T16:48:01Z</time>
      </trkpt>
      <trkpt lat="49.4247" lon="-1.21603">
        <ele>0.7</ele>
        <time>2020-06-15T16:48:02Z</time>
      </trkpt>
      <trkpt lat="49.42468" lon="-1.21612">
        <ele>0.8</ele>
        <time>2020-06-15T16:48:03Z</time>
      </trkpt>
      <trkpt lat="49.42465" lon="-1.21618">
        <ele>0.7</ele>
        <time>2020-06-15T16:48:04Z</time>
      </trkpt>
      <trkpt lat="49.42463" lon="-1.21624">
        <ele>0.7</ele>
        <time>2020-06-15T16:48:05Z</time>
      </trkpt>
      <trkpt lat="49.42461" lon="-1.21631">
        <ele>0.7</ele>
        <time>2020-06-15T16:48:06Z</time>
      </trkpt>
      <trkpt lat="49.42458" lon="-1.21637">
        <ele>0.6</ele>
        <time>2020-06-15T16:48:07Z</time>
      </trkpt>
      <trkpt lat="49.42455" lon="-1.21645">
        <ele>0.6</ele>
        <time>2020-06-15T16:48:08Z</time>
      </trkpt>
      <trkpt lat="49.42453" lon="-1.21653">
        <ele>0.6</ele>
        <time>2020-06-15T16:48:09Z</time>
      </trkpt>
      <trkpt lat="49.4245" lon="-1.2166">
        <ele>0.7</ele>
        <time>2020-06-15T16:48:10Z</time>
      </trkpt>
      <trkpt lat="49.42448" lon="-1.21667">
        <ele>0.8</ele>
        <time>2020-06-15T16:48:11Z</time>
      </trkpt>
      <trkpt lat="49.42445" lon="-1.21675">
        <ele>0.9</ele>
        <time>2020-06-15T16:48:12Z</time>
      </trkpt>
      <trkpt lat="49.42444" lon="-1.21682">
        <ele>0.9</ele>
        <time>2020-06-15T16:48:13Z</time>
      </trkpt>
      <trkpt lat="49.42442" lon="-1.2169">
        <ele>0.9</ele>
        <time>2020-06-15T16:48:14Z</time>
      </trkpt>
      <trkpt lat="49.4244" lon="-1.217">
        <ele>1</ele>
        <time>2020-06-15T16:48:15Z</time>
      </trkpt>
      <trkpt lat="49.42438" lon="-1.21709">
        <ele>1</ele>
        <time>2020-06-15T16:48:16Z</time>
      </trkpt>
      <trkpt lat="49.42436" lon="-1.21718">
        <ele>1</ele>
        <time>2020-06-15T16:48:17Z</time>
      </trkpt>
      <trkpt lat="49.42434" lon="-1.21727">
        <ele>1</ele>
        <time>2020-06-15T16:48:18Z</time>
      </trkpt>
      <trkpt lat="49.42432" lon="-1.21735">
        <ele>1.1</ele>
        <time>2020-06-15T16:48:19Z</time>
      </trkpt>
      <trkpt lat="49.42431" lon="-1.21743">
        <ele>1.1</ele>
        <time>2020-06-15T16:48:20Z</time>
      </trkpt>
      <trkpt lat="49.4243" lon="-1.21752">
        <ele>1.2</ele>
        <time>2020-06-15T16:48:21Z</time>
      </trkpt>
      <trkpt lat="49.42429" lon="-1.2176">
        <ele>1.3</ele>
        <time>2020-06-15T16:48:22Z</time>
      </trkpt>
      <trkpt lat="49.42428" lon="-1.21769">
        <ele>1.3</ele>
        <time>2020-06-15T16:48:23Z</time>
      </trkpt>
      <trkpt lat="49.42427" lon="-1.21777">
        <ele>1.4</ele>
        <time>2020-06-15T16:48:24Z</time>
      </trkpt>
      <trkpt lat="49.42426" lon="-1.21784">
        <ele>1.4</ele>
        <time>2020-06-15T16:48:25Z</time>
      </trkpt>
      <trkpt lat="49.42425" lon="-1.21791">
        <ele>1.5</ele>
        <time>2020-06-15T16:48:26Z</time>
      </trkpt>
      <trkpt lat="49.42424" lon="-1.21798">
        <ele>1.5</ele>
        <time>2020-06-15T16:48:27Z</time>
      </trkpt>
      <trkpt lat="49.42423" lon="-1.21805">
        <ele>1.5</ele>
        <time>2020-06-15T16:48:28Z</time>
      </trkpt>
      <trkpt lat="49.42422" lon="-1.2181">
        <ele>1.5</ele>
        <time>2020-06-15T16:48:29Z</time>
      </trkpt>
      <trkpt lat="49.42422" lon="-1.21816">
        <ele>1.5</ele>
        <time>2020-06-15T16:48:30Z</time>
      </trkpt>
      <trkpt lat="49.42421" lon="-1.21822">
        <ele>1.4</ele>
        <time>2020-06-15T16:48:31Z</time>
      </trkpt>
      <trkpt lat="49.4242" lon="-1.21829">
        <ele>1.4</ele>
        <time>2020-06-15T16:48:32Z</time>
      </trkpt>
      <trkpt lat="49.42419" lon="-1.21836">
        <ele>1.3</ele>
        <time>2020-06-15T16:48:33Z</time>
      </trkpt>
      <trkpt lat="49.42418" lon="-1.21843">
        <ele>1.3</ele>
        <time>2020-06-15T16:48:34Z</time>
      </trkpt>
      <trkpt lat="49.42417" lon="-1.2185">
        <ele>1.3</ele>
        <time>2020-06-15T16:48:35Z</time>
      </trkpt>
      <trkpt lat="49.42416" lon="-1.21858">
        <ele>1.3</ele>
        <time>2020-06-15T16:48:36Z</time>
      </trkpt>
      <trkpt lat="49.42415" lon="-1.21866">
        <ele>1.3</ele>
        <time>2020-06-15T16:48:37Z</time>
      </trkpt>
      <trkpt lat="49.42414" lon="-1.21874">
        <ele>1.3</ele>
        <time>2020-06-15T16:48:38Z</time>
      </trkpt>
      <trkpt lat="49.42414" lon="-1.21881">
        <ele>1.4</ele>
        <time>2020-06-15T16:48:39Z</time>
      </trkpt>
      <trkpt lat="49.42413" lon="-1.21888">
        <ele>1.4</ele>
        <time>2020-06-15T16:48:40Z</time>
      </trkpt>
      <trkpt lat="49.42413" lon="-1.21897">
        <ele>1.5</ele>
        <time>2020-06-15T16:48:41Z</time>
      </trkpt>
      <trkpt lat="49.42412" lon="-1.21905">
        <ele>1.5</ele>
        <time>2020-06-15T16:48:42Z</time>
      </trkpt>
      <trkpt lat="49.42412" lon="-1.21912">
        <ele>1.6</ele>
        <time>2020-06-15T16:48:43Z</time>
      </trkpt>
      <trkpt lat="49.42412" lon="-1.21919">
        <ele>1.6</ele>
        <time>2020-06-15T16:48:44Z</time>
      </trkpt>
      <trkpt lat="49.42411" lon="-1.21926">
        <ele>1.6</ele>
        <time>2020-06-15T16:48:45Z</time>
      </trkpt>
      <trkpt lat="49.42411" lon="-1.21933">
        <ele>1.6</ele>
        <time>2020-06-15T16:48:46Z</time>
      </trkpt>
      <trkpt lat="49.42411" lon="-1.2194">
        <ele>1.6</ele>
        <time>2020-06-15T16:48:47Z</time>
      </trkpt>
      <trkpt lat="49.4241" lon="-1.21947">
        <ele>1.5</ele>
        <time>2020-06-15T16:48:48Z</time>
      </trkpt>
      <trkpt lat="49.42411" lon="-1.21952">
        <ele>1.5</ele>
        <time>2020-06-15T16:48:49Z</time>
      </trkpt>
      <trkpt lat="49.4241" lon="-1.21959">
        <ele>1.5</ele>
        <time>2020-06-15T16:48:50Z</time>
      </trkpt>
      <trkpt lat="49.4241" lon="-1.21965">
        <ele>1.5</ele>
        <time>2020-06-15T16:48:51Z</time>
      </trkpt>
      <trkpt lat="49.42411" lon="-1.21971">
        <ele>1.5</ele>
        <time>2020-06-15T16:48:52Z</time>
      </trkpt>
      <trkpt lat="49.42411" lon="-1.21978">
        <ele>1.6</ele>
        <time>2020-06-15T16:48:53Z</time>
      </trkpt>
      <trkpt lat="49.4241" lon="-1.21985">
        <ele>1.6</ele>
        <time>2020-06-15T16:48:54Z</time>
      </trkpt>
      <trkpt lat="49.4241" lon="-1.21991">
        <ele>1.6</ele>
        <time>2020-06-15T16:48:55Z</time>
      </trkpt>
      <trkpt lat="49.42409" lon="-1.21998">
        <ele>1.7</ele>
        <time>2020-06-15T16:48:56Z</time>
      </trkpt>
      <trkpt lat="49.42409" lon="-1.22006">
        <ele>1.7</ele>
        <time>2020-06-15T16:48:57Z</time>
      </trkpt>
      <trkpt lat="49.42408" lon="-1.22013">
        <ele>1.8</ele>
        <time>2020-06-15T16:48:58Z</time>
      </trkpt>
      <trkpt lat="49.42408" lon="-1.2202">
        <ele>1.8</ele>
        <time>2020-06-15T16:48:59Z</time>
      </trkpt>
      <trkpt lat="49.42407" lon="-1.22025">
        <ele>1.8</ele>
        <time>2020-06-15T16:49:00Z</time>
      </trkpt>
      <trkpt lat="49.42405" lon="-1.22031">
        <ele>1.8</ele>
        <time>2020-06-15T16:49:01Z</time>
      </trkpt>
      <trkpt lat="49.42405" lon="-1.22037">
        <ele>1.8</ele>
        <time>2020-06-15T16:49:02Z</time>
      </trkpt>
      <trkpt lat="49.42404" lon="-1.22044">
        <ele>1.9</ele>
        <time>2020-06-15T16:49:03Z</time>
      </trkpt>
      <trkpt lat="49.42403" lon="-1.2205">
        <ele>1.9</ele>
        <time>2020-06-15T16:49:04Z</time>
      </trkpt>
      <trkpt lat="49.42402" lon="-1.22056">
        <ele>1.9</ele>
        <time>2020-06-15T16:49:05Z</time>
      </trkpt>
      <trkpt lat="49.42402" lon="-1.22062">
        <ele>1.9</ele>
        <time>2020-06-15T16:49:06Z</time>
      </trkpt>
      <trkpt lat="49.42401" lon="-1.22068">
        <ele>1.9</ele>
        <time>2020-06-15T16:49:07Z</time>
      </trkpt>
      <trkpt lat="49.424" lon="-1.22075">
        <ele>1.9</ele>
        <time>2020-06-15T16:49:08Z</time>
      </trkpt>
      <trkpt lat="49.424" lon="-1.22082">
        <ele>1.9</ele>
        <time>2020-06-15T16:49:09Z</time>
      </trkpt>
      <trkpt lat="49.42399" lon="-1.22089">
        <ele>1.9</ele>
        <time>2020-06-15T16:49:10Z</time>
      </trkpt>
      <trkpt lat="49.42398" lon="-1.22096">
        <ele>1.9</ele>
        <time>2020-06-15T16:49:11Z</time>
      </trkpt>
      <trkpt lat="49.42397" lon="-1.22102">
        <ele>1.9</ele>
        <time>2020-06-15T16:49:12Z</time>
      </trkpt>
      <trkpt lat="49.42396" lon="-1.22109">
        <ele>1.8</ele>
        <time>2020-06-15T16:49:13Z</time>
      </trkpt>
      <trkpt lat="49.42396" lon="-1.22116">
        <ele>1.8</ele>
        <time>2020-06-15T16:49:14Z</time>
      </trkpt>
      <trkpt lat="49.42395" lon="-1.22123">
        <ele>1.8</ele>
        <time>2020-06-15T16:49:15Z</time>
      </trkpt>
      <trkpt lat="49.42395" lon="-1.2213">
        <ele>1.8</ele>
        <time>2020-06-15T16:49:16Z</time>
      </trkpt>
      <trkpt lat="49.42394" lon="-1.22137">
        <ele>1.8</ele>
        <time>2020-06-15T16:49:17Z</time>
      </trkpt>
      <trkpt lat="49.42394" lon="-1.22144">
        <ele>1.8</ele>
        <time>2020-06-15T16:49:18Z</time>
      </trkpt>
      <trkpt lat="49.42393" lon="-1.22153">
        <ele>1.8</ele>
        <time>2020-06-15T16:49:19Z</time>
      </trkpt>
      <trkpt lat="49.42392" lon="-1.2216">
        <ele>1.9</ele>
        <time>2020-06-15T16:49:20Z</time>
      </trkpt>
      <trkpt lat="49.42391" lon="-1.22168">
        <ele>1.9</ele>
        <time>2020-06-15T16:49:21Z</time>
      </trkpt>
      <trkpt lat="49.4239" lon="-1.22177">
        <ele>2</ele>
        <time>2020-06-15T16:49:22Z</time>
      </trkpt>
      <trkpt lat="49.42389" lon="-1.22186">
        <ele>2</ele>
        <time>2020-06-15T16:49:23Z</time>
      </trkpt>
      <trkpt lat="49.42388" lon="-1.22195">
        <ele>2</ele>
        <time>2020-06-15T16:49:24Z</time>
      </trkpt>
      <trkpt lat="49.42386" lon="-1.22203">
        <ele>2</ele>
        <time>2020-06-15T16:49:25Z</time>
      </trkpt>
      <trkpt lat="49.42385" lon="-1.22211">
        <ele>2</ele>
        <time>2020-06-15T16:49:26Z</time>
      </trkpt>
      <trkpt lat="49.42384" lon="-1.22219">
        <ele>2</ele>
        <time>2020-06-15T16:49:27Z</time>
      </trkpt>
      <trkpt lat="49.42383" lon="-1.22226">
        <ele>2</ele>
        <time>2020-06-15T16:49:28Z</time>
      </trkpt>
      <trkpt lat="49.42382" lon="-1.22234">
        <ele>2</ele>
        <time>2020-06-15T16:49:29Z</time>
      </trkpt>
      <trkpt lat="49.42381" lon="-1.22241">
        <ele>2</ele>
        <time>2020-06-15T16:49:30Z</time>
      </trkpt>
      <trkpt lat="49.4238" lon="-1.22247">
        <ele>2</ele>
        <time>2020-06-15T16:49:31Z</time>
      </trkpt>
      <trkpt lat="49.42379" lon="-1.22253">
        <ele>2</ele>
        <time>2020-06-15T16:49:32Z</time>
      </trkpt>
      <trkpt lat="49.42378" lon="-1.22259">
        <ele>2</ele>
        <time>2020-06-15T16:49:33Z</time>
      </trkpt>
      <trkpt lat="49.42377" lon="-1.22264">
        <ele>2</ele>
        <time>2020-06-15T16:49:34Z</time>
      </trkpt>
      <trkpt lat="49.42376" lon="-1.22271">
        <ele>2.1</ele>
        <time>2020-06-15T16:49:35Z</time>
      </trkpt>
      <trkpt lat="49.42376" lon="-1.22276">
        <ele>2.1</ele>
        <time>2020-06-15T16:49:36Z</time>
      </trkpt>
      <trkpt lat="49.42376" lon="-1.22282">
        <ele>2.2</ele>
        <time>2020-06-15T16:49:37Z</time>
      </trkpt>
      <trkpt lat="49.42376" lon="-1.22288">
        <ele>2.2</ele>
        <time>2020-06-15T16:49:38Z</time>
      </trkpt>
      <trkpt lat="49.42375" lon="-1.22294">
        <ele>2.2</ele>
        <time>2020-06-15T16:49:39Z</time>
      </trkpt>
      <trkpt lat="49.42375" lon="-1.223">
        <ele>2.2</ele>
        <time>2020-06-15T16:49:40Z</time>
      </trkpt>
      <trkpt lat="49.42375" lon="-1.22306">
        <ele>2.2</ele>
        <time>2020-06-15T16:49:41Z</time>
      </trkpt>
      <trkpt lat="49.42374" lon="-1.22312">
        <ele>2.2</ele>
        <time>2020-06-15T16:49:42Z</time>
      </trkpt>
      <trkpt lat="49.42375" lon="-1.22318">
        <ele>2.2</ele>
        <time>2020-06-15T16:49:43Z</time>
      </trkpt>
      <trkpt lat="49.42376" lon="-1.22325">
        <ele>2.2</ele>
        <time>2020-06-15T16:49:44Z</time>
      </trkpt>
      <trkpt lat="49.42377" lon="-1.22331">
        <ele>2.1</ele>
        <time>2020-06-15T16:49:45Z</time>
      </trkpt>
      <trkpt lat="49.42376" lon="-1.22337">
        <ele>2.1</ele>
        <time>2020-06-15T16:49:46Z</time>
      </trkpt>
      <trkpt lat="49.42376" lon="-1.22343">
        <ele>2.1</ele>
        <time>2020-06-15T16:49:47Z</time>
      </trkpt>
      <trkpt lat="49.42376" lon="-1.22349">
        <ele>2.1</ele>
        <time>2020-06-15T16:49:48Z</time>
      </trkpt>
      <trkpt lat="49.42376" lon="-1.22355">
        <ele>2.1</ele>
        <time>2020-06-15T16:49:49Z</time>
      </trkpt>
      <trkpt lat="49.42375" lon="-1.22361">
        <ele>2.1</ele>
        <time>2020-06-15T16:49:50Z</time>
      </trkpt>
      <trkpt lat="49.42375" lon="-1.22367">
        <ele>2.1</ele>
        <time>2020-06-15T16:49:51Z</time>
      </trkpt>
      <trkpt lat="49.42375" lon="-1.22374">
        <ele>2.1</ele>
        <time>2020-06-15T16:49:52Z</time>
      </trkpt>
      <trkpt lat="49.42375" lon="-1.2238">
        <ele>2.2</ele>
        <time>2020-06-15T16:49:53Z</time>
      </trkpt>
      <trkpt lat="49.42375" lon="-1.22387">
        <ele>2.2</ele>
        <time>2020-06-15T16:49:54Z</time>
      </trkpt>
      <trkpt lat="49.42374" lon="-1.22394">
        <ele>2.2</ele>
        <time>2020-06-15T16:49:55Z</time>
      </trkpt>
      <trkpt lat="49.42373" lon="-1.224">
        <ele>2.1</ele>
        <time>2020-06-15T16:49:56Z</time>
      </trkpt>
      <trkpt lat="49.42372" lon="-1.22406">
        <ele>2.1</ele>
        <time>2020-06-15T16:49:57Z</time>
      </trkpt>
      <trkpt lat="49.42371" lon="-1.22413">
        <ele>2.1</ele>
        <time>2020-06-15T16:49:58Z</time>
      </trkpt>
      <trkpt lat="49.4237" lon="-1.22419">
        <ele>2.1</ele>
        <time>2020-06-15T16:49:59Z</time>
      </trkpt>
      <trkpt lat="49.4237" lon="-1.22426">
        <ele>2.1</ele>
        <time>2020-06-15T16:50:00Z</time>
      </trkpt>
      <trkpt lat="49.42369" lon="-1.22432">
        <ele>2.1</ele>
        <time>2020-06-15T16:50:01Z</time>
      </trkpt>
      <trkpt lat="49.42369" lon="-1.22439">
        <ele>2.2</ele>
        <time>2020-06-15T16:50:02Z</time>
      </trkpt>
      <trkpt lat="49.42369" lon="-1.22445">
        <ele>2.2</ele>
        <time>2020-06-15T16:50:03Z</time>
      </trkpt>
      <trkpt lat="49.42368" lon="-1.22451">
        <ele>2.2</ele>
        <time>2020-06-15T16:50:04Z</time>
      </trkpt>
      <trkpt lat="49.42368" lon="-1.22459">
        <ele>2.3</ele>
        <time>2020-06-15T16:50:05Z</time>
      </trkpt>
      <trkpt lat="49.42368" lon="-1.22467">
        <ele>2.3</ele>
        <time>2020-06-15T16:50:06Z</time>
      </trkpt>
      <trkpt lat="49.42367" lon="-1.22476">
        <ele>2.3</ele>
        <time>2020-06-15T16:50:07Z</time>
      </trkpt>
      <trkpt lat="49.42366" lon="-1.22485">
        <ele>2.3</ele>
        <time>2020-06-15T16:50:08Z</time>
      </trkpt>
      <trkpt lat="49.42366" lon="-1.22493">
        <ele>2.3</ele>
        <time>2020-06-15T16:50:09Z</time>
      </trkpt>
      <trkpt lat="49.42365" lon="-1.22501">
        <ele>2.4</ele>
        <time>2020-06-15T16:50:10Z</time>
      </trkpt>
      <trkpt lat="49.42364" lon="-1.22509">
        <ele>2.4</ele>
        <time>2020-06-15T16:50:11Z</time>
      </trkpt>
      <trkpt lat="49.42363" lon="-1.22517">
        <ele>2.4</ele>
        <time>2020-06-15T16:50:12Z</time>
      </trkpt>
      <trkpt lat="49.42361" lon="-1.22525">
        <ele>2.3</ele>
        <time>2020-06-15T16:50:13Z</time>
      </trkpt>
      <trkpt lat="49.4236" lon="-1.22532">
        <ele>2.3</ele>
        <time>2020-06-15T16:50:14Z</time>
      </trkpt>
      <trkpt lat="49.42358" lon="-1.2254">
        <ele>2.3</ele>
        <time>2020-06-15T16:50:15Z</time>
      </trkpt>
      <trkpt lat="49.42357" lon="-1.22548">
        <ele>2.3</ele>
        <time>2020-06-15T16:50:16Z</time>
      </trkpt>
      <trkpt lat="49.42356" lon="-1.22556">
        <ele>2.2</ele>
        <time>2020-06-15T16:50:17Z</time>
      </trkpt>
      <trkpt lat="49.42355" lon="-1.22562">
        <ele>2.2</ele>
        <time>2020-06-15T16:50:18Z</time>
      </trkpt>
      <trkpt lat="49.42354" lon="-1.22569">
        <ele>2.2</ele>
        <time>2020-06-15T16:50:19Z</time>
      </trkpt>
      <trkpt lat="49.42353" lon="-1.22576">
        <ele>2.2</ele>
        <time>2020-06-15T16:50:20Z</time>
      </trkpt>
      <trkpt lat="49.42352" lon="-1.22583">
        <ele>2.2</ele>
        <time>2020-06-15T16:50:21Z</time>
      </trkpt>
      <trkpt lat="49.42351" lon="-1.2259">
        <ele>2.2</ele>
        <time>2020-06-15T16:50:22Z</time>
      </trkpt>
      <trkpt lat="49.4235" lon="-1.22597">
        <ele>2.3</ele>
        <time>2020-06-15T16:50:23Z</time>
      </trkpt>
      <trkpt lat="49.4235" lon="-1.22604">
        <ele>2.3</ele>
        <time>2020-06-15T16:50:24Z</time>
      </trkpt>
      <trkpt lat="49.42349" lon="-1.22611">
        <ele>2.3</ele>
        <time>2020-06-15T16:50:25Z</time>
      </trkpt>
      <trkpt lat="49.42348" lon="-1.22618">
        <ele>2.3</ele>
        <time>2020-06-15T16:50:26Z</time>
      </trkpt>
      <trkpt lat="49.42346" lon="-1.22625">
        <ele>2.3</ele>
        <time>2020-06-15T16:50:27Z</time>
      </trkpt>
      <trkpt lat="49.42345" lon="-1.22633">
        <ele>2.3</ele>
        <time>2020-06-15T16:50:28Z</time>
      </trkpt>
      <trkpt lat="49.42344" lon="-1.22641">
        <ele>2.4</ele>
        <time>2020-06-15T16:50:29Z</time>
      </trkpt>
      <trkpt lat="49.42344" lon="-1.22649">
        <ele>2.4</ele>
        <time>2020-06-15T16:50:30Z</time>
      </trkpt>
      <trkpt lat="49.42343" lon="-1.22657">
        <ele>2.5</ele>
        <time>2020-06-15T16:50:31Z</time>
      </trkpt>
      <trkpt lat="49.42343" lon="-1.22665">
        <ele>2.5</ele>
        <time>2020-06-15T16:50:32Z</time>
      </trkpt>
      <trkpt lat="49.42342" lon="-1.22672">
        <ele>2.5</ele>
        <time>2020-06-15T16:50:33Z</time>
      </trkpt>
      <trkpt lat="49.42342" lon="-1.2268">
        <ele>2.6</ele>
        <time>2020-06-15T16:50:34Z</time>
      </trkpt>
      <trkpt lat="49.42341" lon="-1.22688">
        <ele>2.6</ele>
        <time>2020-06-15T16:50:35Z</time>
      </trkpt>
      <trkpt lat="49.4234" lon="-1.22697">
        <ele>2.6</ele>
        <time>2020-06-15T16:50:36Z</time>
      </trkpt>
      <trkpt lat="49.42339" lon="-1.22705">
        <ele>2.6</ele>
        <time>2020-06-15T16:50:37Z</time>
      </trkpt>
      <trkpt lat="49.42338" lon="-1.22712">
        <ele>2.6</ele>
        <time>2020-06-15T16:50:38Z</time>
      </trkpt>
      <trkpt lat="49.42337" lon="-1.22719">
        <ele>2.6</ele>
        <time>2020-06-15T16:50:39Z</time>
      </trkpt>
      <trkpt lat="49.42337" lon="-1.22726">
        <ele>2.6</ele>
        <time>2020-06-15T16:50:40Z</time>
      </trkpt>
      <trkpt lat="49.42335" lon="-1.22733">
        <ele>2.5</ele>
        <time>2020-06-15T16:50:41Z</time>
      </trkpt>
      <trkpt lat="49.42334" lon="-1.22741">
        <ele>2.4</ele>
        <time>2020-06-15T16:50:42Z</time>
      </trkpt>
      <trkpt lat="49.42333" lon="-1.22749">
        <ele>2.4</ele>
        <time>2020-06-15T16:50:43Z</time>
      </trkpt>
      <trkpt lat="49.42332" lon="-1.22757">
        <ele>2.4</ele>
        <time>2020-06-15T16:50:44Z</time>
      </trkpt>
      <trkpt lat="49.4233" lon="-1.22765">
        <ele>2.3</ele>
        <time>2020-06-15T16:50:45Z</time>
      </trkpt>
      <trkpt lat="49.42329" lon="-1.22773">
        <ele>2.4</ele>
        <time>2020-06-15T16:50:46Z</time>
      </trkpt>
      <trkpt lat="49.42328" lon="-1.2278">
        <ele>2.4</ele>
        <time>2020-06-15T16:50:47Z</time>
      </trkpt>
      <trkpt lat="49.42326" lon="-1.22788">
        <ele>2.5</ele>
        <time>2020-06-15T16:50:48Z</time>
      </trkpt>
      <trkpt lat="49.42325" lon="-1.22797">
        <ele>2.6</ele>
        <time>2020-06-15T16:50:49Z</time>
      </trkpt>
      <trkpt lat="49.42324" lon="-1.22804">
        <ele>2.7</ele>
        <time>2020-06-15T16:50:50Z</time>
      </trkpt>
      <trkpt lat="49.42323" lon="-1.2281">
        <ele>2.8</ele>
        <time>2020-06-15T16:50:51Z</time>
      </trkpt>
      <trkpt lat="49.42323" lon="-1.22817">
        <ele>2.8</ele>
        <time>2020-06-15T16:50:52Z</time>
      </trkpt>
      <trkpt lat="49.42322" lon="-1.22823">
        <ele>2.9</ele>
        <time>2020-06-15T16:50:53Z</time>
      </trkpt>
      <trkpt lat="49.42321" lon="-1.22829">
        <ele>3</ele>
        <time>2020-06-15T16:50:54Z</time>
      </trkpt>
      <trkpt lat="49.42321" lon="-1.22836">
        <ele>3.1</ele>
        <time>2020-06-15T16:50:55Z</time>
      </trkpt>
      <trkpt lat="49.42321" lon="-1.22841">
        <ele>3.1</ele>
        <time>2020-06-15T16:50:56Z</time>
      </trkpt>
      <trkpt lat="49.42322" lon="-1.22845">
        <ele>3.1</ele>
        <time>2020-06-15T16:50:57Z</time>
      </trkpt>
      <trkpt lat="49.42324" lon="-1.2285">
        <ele>3.2</ele>
        <time>2020-06-15T16:50:58Z</time>
      </trkpt>
      <trkpt lat="49.42326" lon="-1.22854">
        <ele>3.4</ele>
        <time>2020-06-15T16:50:59Z</time>
      </trkpt>
      <trkpt lat="49.42327" lon="-1.22855">
        <ele>3.4</ele>
        <time>2020-06-15T16:51:00Z</time>
      </trkpt>
      <trkpt lat="49.4233" lon="-1.22856">
        <ele>3.4</ele>
        <time>2020-06-15T16:51:01Z</time>
      </trkpt>
      <trkpt lat="49.42332" lon="-1.22856">
        <ele>3.4</ele>
        <time>2020-06-15T16:51:02Z</time>
      </trkpt>
      <trkpt lat="49.42333" lon="-1.22856">
        <ele>3.4</ele>
        <time>2020-06-15T16:51:03Z</time>
      </trkpt>
      <trkpt lat="49.42336" lon="-1.22856">
        <ele>3.3</ele>
        <time>2020-06-15T16:51:04Z</time>
      </trkpt>
      <trkpt lat="49.42337" lon="-1.22856">
        <ele>3.3</ele>
        <time>2020-06-15T16:51:05Z</time>
      </trkpt>
      <trkpt lat="49.42338" lon="-1.22856">
        <ele>3.3</ele>
        <time>2020-06-15T16:51:06Z</time>
      </trkpt>
      <trkpt lat="49.42339" lon="-1.22858">
        <ele>3.3</ele>
        <time>2020-06-15T16:51:07Z</time>
      </trkpt>
      <trkpt lat="49.4234" lon="-1.22859">
        <ele>3.3</ele>
        <time>2020-06-15T16:51:08Z</time>
      </trkpt>
      <trkpt lat="49.42341" lon="-1.22859">
        <ele>3.3</ele>
        <time>2020-06-15T16:51:09Z</time>
      </trkpt>
      <trkpt lat="49.42341" lon="-1.22859">
        <ele>3.3</ele>
        <time>2020-06-15T16:51:10Z</time>
      </trkpt>
      <trkpt lat="49.42341" lon="-1.22859">
        <ele>3.3</ele>
        <time>2020-06-15T16:51:11Z</time>
      </trkpt>
      <trkpt lat="49.42341" lon="-1.22859">
        <ele>3.3</ele>
        <time>2020-06-15T16:51:12Z</time>
      </trkpt>
      <trkpt lat="49.42341" lon="-1.2286">
        <ele>3.3</ele>
        <time>2020-06-15T16:51:13Z</time>
      </trkpt>
      <trkpt lat="49.42341" lon="-1.2286">
        <ele>3.3</ele>
        <time>2020-06-15T16:51:14Z</time>
      </trkpt>
      <trkpt lat="49.42341" lon="-1.22861">
        <ele>3.3</ele>
        <time>2020-06-15T16:51:15Z</time>
      </trkpt>
      <trkpt lat="49.42341" lon="-1.22861">
        <ele>3.3</ele>
        <time>2020-06-15T16:51:16Z</time>
      </trkpt>
      <trkpt lat="49.42342" lon="-1.22861">
        <ele>3.3</ele>
        <time>2020-06-15T16:51:17Z</time>
      </trkpt>
      <trkpt lat="49.4235" lon="-1.22862">
        <ele>3.3</ele>
        <time>2020-06-15T16:51:20Z</time>
      </trkpt>
      <trkpt lat="49.42353" lon="-1.22864">
        <ele>3.3</ele>
        <time>2020-06-15T16:51:21Z</time>
      </trkpt>
      <trkpt lat="49.42356" lon="-1.22864">
        <ele>3.3</ele>
        <time>2020-06-15T16:51:22Z</time>
      </trkpt>
      <trkpt lat="49.4236" lon="-1.22864">
        <ele>3.3</ele>
        <time>2020-06-15T16:51:23Z</time>
      </trkpt>
      <trkpt lat="49.42363" lon="-1.22865">
        <ele>3.3</ele>
        <time>2020-06-15T16:51:24Z</time>
      </trkpt>
      <trkpt lat="49.42367" lon="-1.22865">
        <ele>3.3</ele>
        <time>2020-06-15T16:51:25Z</time>
      </trkpt>
      <trkpt lat="49.4237" lon="-1.22865">
        <ele>3.3</ele>
        <time>2020-06-15T16:51:26Z</time>
      </trkpt>
      <trkpt lat="49.42373" lon="-1.22865">
        <ele>3.3</ele>
        <time>2020-06-15T16:51:27Z</time>
      </trkpt>
      <trkpt lat="49.42377" lon="-1.22864">
        <ele>3.3</ele>
        <time>2020-06-15T16:51:28Z</time>
      </trkpt>
      <trkpt lat="49.42381" lon="-1.22863">
        <ele>3.4</ele>
        <time>2020-06-15T16:51:29Z</time>
      </trkpt>
      <trkpt lat="49.42385" lon="-1.22863">
        <ele>3.5</ele>
        <time>2020-06-15T16:51:30Z</time>
      </trkpt>
      <trkpt lat="49.42387" lon="-1.22862">
        <ele>3.5</ele>
        <time>2020-06-15T16:51:31Z</time>
      </trkpt>
      <trkpt lat="49.4239" lon="-1.22861">
        <ele>3.5</ele>
        <time>2020-06-15T16:51:32Z</time>
      </trkpt>
      <trkpt lat="49.42394" lon="-1.2286">
        <ele>3.6</ele>
        <time>2020-06-15T16:51:33Z</time>
      </trkpt>
      <trkpt lat="49.42398" lon="-1.22859">
        <ele>3.6</ele>
        <time>2020-06-15T16:51:34Z</time>
      </trkpt>
      <trkpt lat="49.42402" lon="-1.22858">
        <ele>3.6</ele>
        <time>2020-06-15T16:51:35Z</time>
      </trkpt>
      <trkpt lat="49.42407" lon="-1.22859">
        <ele>3.7</ele>
        <time>2020-06-15T16:51:36Z</time>
      </trkpt>
      <trkpt lat="49.42411" lon="-1.2286">
        <ele>3.7</ele>
        <time>2020-06-15T16:51:37Z</time>
      </trkpt>
      <trkpt lat="49.42416" lon="-1.22861">
        <ele>3.7</ele>
        <time>2020-06-15T16:51:38Z</time>
      </trkpt>
      <trkpt lat="49.42421" lon="-1.22862">
        <ele>3.7</ele>
        <time>2020-06-15T16:51:39Z</time>
      </trkpt>
      <trkpt lat="49.42426" lon="-1.22863">
        <ele>3.7</ele>
        <time>2020-06-15T16:51:40Z</time>
      </trkpt>
      <trkpt lat="49.42431" lon="-1.22864">
        <ele>3.7</ele>
        <time>2020-06-15T16:51:41Z</time>
      </trkpt>
      <trkpt lat="49.42437" lon="-1.22866">
        <ele>3.7</ele>
        <time>2020-06-15T16:51:42Z</time>
      </trkpt>
      <trkpt lat="49.42441" lon="-1.22866">
        <ele>3.7</ele>
        <time>2020-06-15T16:51:43Z</time>
      </trkpt>
      <trkpt lat="49.42446" lon="-1.22868">
        <ele>3.8</ele>
        <time>2020-06-15T16:51:44Z</time>
      </trkpt>
      <trkpt lat="49.42452" lon="-1.2287">
        <ele>3.8</ele>
        <time>2020-06-15T16:51:45Z</time>
      </trkpt>
      <trkpt lat="49.42458" lon="-1.22872">
        <ele>3.7</ele>
        <time>2020-06-15T16:51:46Z</time>
      </trkpt>
      <trkpt lat="49.42464" lon="-1.22875">
        <ele>3.7</ele>
        <time>2020-06-15T16:51:47Z</time>
      </trkpt>
      <trkpt lat="49.4247" lon="-1.22881">
        <ele>3.6</ele>
        <time>2020-06-15T16:51:48Z</time>
      </trkpt>
      <trkpt lat="49.42477" lon="-1.22889">
        <ele>3.5</ele>
        <time>2020-06-15T16:51:49Z</time>
      </trkpt>
      <trkpt lat="49.42482" lon="-1.22896">
        <ele>3.4</ele>
        <time>2020-06-15T16:51:50Z</time>
      </trkpt>
      <trkpt lat="49.42487" lon="-1.22903">
        <ele>3.4</ele>
        <time>2020-06-15T16:51:51Z</time>
      </trkpt>
      <trkpt lat="49.42493" lon="-1.22907">
        <ele>3.5</ele>
        <time>2020-06-15T16:51:52Z</time>
      </trkpt>
      <trkpt lat="49.42499" lon="-1.22911">
        <ele>3.6</ele>
        <time>2020-06-15T16:51:53Z</time>
      </trkpt>
      <trkpt lat="49.42504" lon="-1.22915">
        <ele>3.6</ele>
        <time>2020-06-15T16:51:54Z</time>
      </trkpt>
      <trkpt lat="49.4251" lon="-1.22917">
        <ele>3.7</ele>
        <time>2020-06-15T16:51:55Z</time>
      </trkpt>
      <trkpt lat="49.42516" lon="-1.2292">
        <ele>3.8</ele>
        <time>2020-06-15T16:51:56Z</time>
      </trkpt>
      <trkpt lat="49.4252" lon="-1.22924">
        <ele>3.9</ele>
        <time>2020-06-15T16:51:57Z</time>
      </trkpt>
      <trkpt lat="49.42525" lon="-1.22928">
        <ele>4.1</ele>
        <time>2020-06-15T16:51:58Z</time>
      </trkpt>
      <trkpt lat="49.4253" lon="-1.22933">
        <ele>4.2</ele>
        <time>2020-06-15T16:51:59Z</time>
      </trkpt>
      <trkpt lat="49.42534" lon="-1.22936">
        <ele>4.3</ele>
        <time>2020-06-15T16:52:00Z</time>
      </trkpt>
      <trkpt lat="49.42539" lon="-1.2294">
        <ele>4.3</ele>
        <time>2020-06-15T16:52:01Z</time>
      </trkpt>
      <trkpt lat="49.42545" lon="-1.22944">
        <ele>4.4</ele>
        <time>2020-06-15T16:52:02Z</time>
      </trkpt>
      <trkpt lat="49.42551" lon="-1.22948">
        <ele>4.4</ele>
        <time>2020-06-15T16:52:03Z</time>
      </trkpt>
      <trkpt lat="49.42557" lon="-1.22952">
        <ele>4.4</ele>
        <time>2020-06-15T16:52:04Z</time>
      </trkpt>
      <trkpt lat="49.42563" lon="-1.22955">
        <ele>4.5</ele>
        <time>2020-06-15T16:52:05Z</time>
      </trkpt>
      <trkpt lat="49.4257" lon="-1.22959">
        <ele>4.5</ele>
        <time>2020-06-15T16:52:06Z</time>
      </trkpt>
      <trkpt lat="49.42577" lon="-1.22963">
        <ele>4.4</ele>
        <time>2020-06-15T16:52:07Z</time>
      </trkpt>
      <trkpt lat="49.42583" lon="-1.22967">
        <ele>4.4</ele>
        <time>2020-06-15T16:52:08Z</time>
      </trkpt>
      <trkpt lat="49.42589" lon="-1.2297">
        <ele>4.3</ele>
        <time>2020-06-15T16:52:09Z</time>
      </trkpt>
      <trkpt lat="49.42594" lon="-1.22972">
        <ele>4.3</ele>
        <time>2020-06-15T16:52:10Z</time>
      </trkpt>
      <trkpt lat="49.42599" lon="-1.22974">
        <ele>4.2</ele>
        <time>2020-06-15T16:52:11Z</time>
      </trkpt>
      <trkpt lat="49.42605" lon="-1.22976">
        <ele>4.2</ele>
        <time>2020-06-15T16:52:12Z</time>
      </trkpt>
      <trkpt lat="49.42611" lon="-1.22978">
        <ele>4.2</ele>
        <time>2020-06-15T16:52:13Z</time>
      </trkpt>
      <trkpt lat="49.42617" lon="-1.2298">
        <ele>4.1</ele>
        <time>2020-06-15T16:52:14Z</time>
      </trkpt>
      <trkpt lat="49.42623" lon="-1.22981">
        <ele>3.8</ele>
        <time>2020-06-15T16:52:15Z</time>
      </trkpt>
      <trkpt lat="49.4263" lon="-1.22983">
        <ele>3.6</ele>
        <time>2020-06-15T16:52:16Z</time>
      </trkpt>
      <trkpt lat="49.42635" lon="-1.22984">
        <ele>3.4</ele>
        <time>2020-06-15T16:52:17Z</time>
      </trkpt>
      <trkpt lat="49.4264" lon="-1.22987">
        <ele>3.3</ele>
        <time>2020-06-15T16:52:18Z</time>
      </trkpt>
      <trkpt lat="49.42646" lon="-1.2299">
        <ele>3.3</ele>
        <time>2020-06-15T16:52:19Z</time>
      </trkpt>
      <trkpt lat="49.42653" lon="-1.22992">
        <ele>3.3</ele>
        <time>2020-06-15T16:52:20Z</time>
      </trkpt>
      <trkpt lat="49.42662" lon="-1.22993">
        <ele>3.4</ele>
        <time>2020-06-15T16:52:21Z</time>
      </trkpt>
      <trkpt lat="49.42671" lon="-1.22994">
        <ele>3.5</ele>
        <time>2020-06-15T16:52:22Z</time>
      </trkpt>
      <trkpt lat="49.42678" lon="-1.22996">
        <ele>3.5</ele>
        <time>2020-06-15T16:52:23Z</time>
      </trkpt>
      <trkpt lat="49.42681" lon="-1.22997">
        <ele>3.5</ele>
        <time>2020-06-15T16:52:24Z</time>
      </trkpt>
      <trkpt lat="49.42687" lon="-1.22999">
        <ele>3.4</ele>
        <time>2020-06-15T16:52:25Z</time>
      </trkpt>
      <trkpt lat="49.42694" lon="-1.23003">
        <ele>3.2</ele>
        <time>2020-06-15T16:52:26Z</time>
      </trkpt>
      <trkpt lat="49.42701" lon="-1.23007">
        <ele>2.9</ele>
        <time>2020-06-15T16:52:27Z</time>
      </trkpt>
      <trkpt lat="49.42707" lon="-1.23013">
        <ele>3.2</ele>
        <time>2020-06-15T16:52:28Z</time>
      </trkpt>
      <trkpt lat="49.42715" lon="-1.2302">
        <ele>3.4</ele>
        <time>2020-06-15T16:52:29Z</time>
      </trkpt>
      <trkpt lat="49.4272" lon="-1.23027">
        <ele>3.4</ele>
        <time>2020-06-15T16:52:30Z</time>
      </trkpt>
      <trkpt lat="49.42727" lon="-1.23034">
        <ele>3.4</ele>
        <time>2020-06-15T16:52:31Z</time>
      </trkpt>
      <trkpt lat="49.42732" lon="-1.23041">
        <ele>3.4</ele>
        <time>2020-06-15T16:52:32Z</time>
      </trkpt>
      <trkpt lat="49.42737" lon="-1.23048">
        <ele>3.5</ele>
        <time>2020-06-15T16:52:33Z</time>
      </trkpt>
      <trkpt lat="49.42742" lon="-1.23056">
        <ele>3.6</ele>
        <time>2020-06-15T16:52:34Z</time>
      </trkpt>
      <trkpt lat="49.42747" lon="-1.23063">
        <ele>3.7</ele>
        <time>2020-06-15T16:52:35Z</time>
      </trkpt>
      <trkpt lat="49.42751" lon="-1.23069">
        <ele>3.8</ele>
        <time>2020-06-15T16:52:36Z</time>
      </trkpt>
      <trkpt lat="49.42753" lon="-1.23075">
        <ele>3.8</ele>
        <time>2020-06-15T16:52:37Z</time>
      </trkpt>
      <trkpt lat="49.42755" lon="-1.23081">
        <ele>3.8</ele>
        <time>2020-06-15T16:52:38Z</time>
      </trkpt>
      <trkpt lat="49.42757" lon="-1.23086">
        <ele>3.8</ele>
        <time>2020-06-15T16:52:39Z</time>
      </trkpt>
      <trkpt lat="49.4276" lon="-1.23092">
        <ele>3.8</ele>
        <time>2020-06-15T16:52:40Z</time>
      </trkpt>
      <trkpt lat="49.42762" lon="-1.23099">
        <ele>3.7</ele>
        <time>2020-06-15T16:52:41Z</time>
      </trkpt>
      <trkpt lat="49.42763" lon="-1.23108">
        <ele>3.7</ele>
        <time>2020-06-15T16:52:42Z</time>
      </trkpt>
      <trkpt lat="49.42764" lon="-1.23114">
        <ele>3.7</ele>
        <time>2020-06-15T16:52:43Z</time>
      </trkpt>
      <trkpt lat="49.42765" lon="-1.23119">
        <ele>3.8</ele>
        <time>2020-06-15T16:52:44Z</time>
      </trkpt>
      <trkpt lat="49.42768" lon="-1.23124">
        <ele>3.8</ele>
        <time>2020-06-15T16:52:45Z</time>
      </trkpt>
      <trkpt lat="49.4277" lon="-1.23131">
        <ele>3.9</ele>
        <time>2020-06-15T16:52:46Z</time>
      </trkpt>
      <trkpt lat="49.42774" lon="-1.23138">
        <ele>3.9</ele>
        <time>2020-06-15T16:52:47Z</time>
      </trkpt>
      <trkpt lat="49.42777" lon="-1.23144">
        <ele>3.9</ele>
        <time>2020-06-15T16:52:48Z</time>
      </trkpt>
      <trkpt lat="49.4278" lon="-1.23152">
        <ele>3.9</ele>
        <time>2020-06-15T16:52:49Z</time>
      </trkpt>
      <trkpt lat="49.42783" lon="-1.2316">
        <ele>3.9</ele>
        <time>2020-06-15T16:52:50Z</time>
      </trkpt>
      <trkpt lat="49.42786" lon="-1.23167">
        <ele>4</ele>
        <time>2020-06-15T16:52:51Z</time>
      </trkpt>
      <trkpt lat="49.42787" lon="-1.23172">
        <ele>4</ele>
        <time>2020-06-15T16:52:52Z</time>
      </trkpt>
      <trkpt lat="49.42786" lon="-1.23178">
        <ele>4</ele>
        <time>2020-06-15T16:52:53Z</time>
      </trkpt>
      <trkpt lat="49.42785" lon="-1.23186">
        <ele>4</ele>
        <time>2020-06-15T16:52:54Z</time>
      </trkpt>
      <trkpt lat="49.42782" lon="-1.23193">
        <ele>4.2</ele>
        <time>2020-06-15T16:52:55Z</time>
      </trkpt>
      <trkpt lat="49.42779" lon="-1.23201">
        <ele>4.4</ele>
        <time>2020-06-15T16:52:56Z</time>
      </trkpt>
      <trkpt lat="49.42776" lon="-1.23209">
        <ele>4.7</ele>
        <time>2020-06-15T16:52:57Z</time>
      </trkpt>
      <trkpt lat="49.42772" lon="-1.23219">
        <ele>4.9</ele>
        <time>2020-06-15T16:52:58Z</time>
      </trkpt>
      <trkpt lat="49.42769" lon="-1.23229">
        <ele>5.2</ele>
        <time>2020-06-15T16:52:59Z</time>
      </trkpt>
      <trkpt lat="49.42766" lon="-1.23238">
        <ele>5.3</ele>
        <time>2020-06-15T16:53:00Z</time>
      </trkpt>
      <trkpt lat="49.42762" lon="-1.23246">
        <ele>5.5</ele>
        <time>2020-06-15T16:53:01Z</time>
      </trkpt>
      <trkpt lat="49.42759" lon="-1.23254">
        <ele>5.6</ele>
        <time>2020-06-15T16:53:02Z</time>
      </trkpt>
      <trkpt lat="49.42755" lon="-1.23262">
        <ele>5.7</ele>
        <time>2020-06-15T16:53:03Z</time>
      </trkpt>
      <trkpt lat="49.42752" lon="-1.2327">
        <ele>5.8</ele>
        <time>2020-06-15T16:53:04Z</time>
      </trkpt>
      <trkpt lat="49.42749" lon="-1.23279">
        <ele>5.9</ele>
        <time>2020-06-15T16:53:05Z</time>
      </trkpt>
      <trkpt lat="49.42746" lon="-1.23287">
        <ele>6.1</ele>
        <time>2020-06-15T16:53:06Z</time>
      </trkpt>
      <trkpt lat="49.42744" lon="-1.23295">
        <ele>6.3</ele>
        <time>2020-06-15T16:53:07Z</time>
      </trkpt>
      <trkpt lat="49.42741" lon="-1.23304">
        <ele>6.6</ele>
        <time>2020-06-15T16:53:08Z</time>
      </trkpt>
      <trkpt lat="49.42739" lon="-1.23312">
        <ele>6.7</ele>
        <time>2020-06-15T16:53:09Z</time>
      </trkpt>
      <trkpt lat="49.42737" lon="-1.2332">
        <ele>6.9</ele>
        <time>2020-06-15T16:53:10Z</time>
      </trkpt>
      <trkpt lat="49.42735" lon="-1.23328">
        <ele>7.1</ele>
        <time>2020-06-15T16:53:11Z</time>
      </trkpt>
      <trkpt lat="49.42733" lon="-1.23335">
        <ele>7.2</ele>
        <time>2020-06-15T16:53:12Z</time>
      </trkpt>
      <trkpt lat="49.4273" lon="-1.23342">
        <ele>7.4</ele>
        <time>2020-06-15T16:53:13Z</time>
      </trkpt>
      <trkpt lat="49.42728" lon="-1.23349">
        <ele>7.5</ele>
        <time>2020-06-15T16:53:14Z</time>
      </trkpt>
      <trkpt lat="49.42725" lon="-1.23357">
        <ele>7.7</ele>
        <time>2020-06-15T16:53:15Z</time>
      </trkpt>
      <trkpt lat="49.42723" lon="-1.23365">
        <ele>7.8</ele>
        <time>2020-06-15T16:53:16Z</time>
      </trkpt>
      <trkpt lat="49.42721" lon="-1.23373">
        <ele>8</ele>
        <time>2020-06-15T16:53:17Z</time>
      </trkpt>
      <trkpt lat="49.42719" lon="-1.2338">
        <ele>8.1</ele>
        <time>2020-06-15T16:53:18Z</time>
      </trkpt>
      <trkpt lat="49.42716" lon="-1.23388">
        <ele>8.3</ele>
        <time>2020-06-15T16:53:19Z</time>
      </trkpt>
      <trkpt lat="49.42714" lon="-1.23396">
        <ele>8.5</ele>
        <time>2020-06-15T16:53:20Z</time>
      </trkpt>
      <trkpt lat="49.42711" lon="-1.23404">
        <ele>8.6</ele>
        <time>2020-06-15T16:53:21Z</time>
      </trkpt>
      <trkpt lat="49.42709" lon="-1.2341">
        <ele>8.8</ele>
        <time>2020-06-15T16:53:22Z</time>
      </trkpt>
      <trkpt lat="49.42707" lon="-1.23417">
        <ele>8.9</ele>
        <time>2020-06-15T16:53:23Z</time>
      </trkpt>
      <trkpt lat="49.42704" lon="-1.23424">
        <ele>9.1</ele>
        <time>2020-06-15T16:53:24Z</time>
      </trkpt>
      <trkpt lat="49.42702" lon="-1.2343">
        <ele>9.2</ele>
        <time>2020-06-15T16:53:25Z</time>
      </trkpt>
      <trkpt lat="49.427" lon="-1.23438">
        <ele>9.3</ele>
        <time>2020-06-15T16:53:26Z</time>
      </trkpt>
      <trkpt lat="49.42697" lon="-1.23445">
        <ele>9.4</ele>
        <time>2020-06-15T16:53:27Z</time>
      </trkpt>
      <trkpt lat="49.42695" lon="-1.23453">
        <ele>9.6</ele>
        <time>2020-06-15T16:53:28Z</time>
      </trkpt>
      <trkpt lat="49.42692" lon="-1.23459">
        <ele>9.8</ele>
        <time>2020-06-15T16:53:29Z</time>
      </trkpt>
      <trkpt lat="49.4269" lon="-1.23466">
        <ele>10.1</ele>
        <time>2020-06-15T16:53:30Z</time>
      </trkpt>
      <trkpt lat="49.42688" lon="-1.23474">
        <ele>10.4</ele>
        <time>2020-06-15T16:53:31Z</time>
      </trkpt>
      <trkpt lat="49.42687" lon="-1.23481">
        <ele>10.8</ele>
        <time>2020-06-15T16:53:32Z</time>
      </trkpt>
      <trkpt lat="49.42687" lon="-1.23486">
        <ele>10.7</ele>
        <time>2020-06-15T16:53:33Z</time>
      </trkpt>
      <trkpt lat="49.42687" lon="-1.23491">
        <ele>10.7</ele>
        <time>2020-06-15T16:53:34Z</time>
      </trkpt>
      <trkpt lat="49.42689" lon="-1.23495">
        <ele>10.7</ele>
        <time>2020-06-15T16:53:35Z</time>
      </trkpt>
      <trkpt lat="49.42689" lon="-1.23496">
        <ele>10.7</ele>
        <time>2020-06-15T16:53:36Z</time>
      </trkpt>
      <trkpt lat="49.42692" lon="-1.235">
        <ele>10.7</ele>
        <time>2020-06-15T16:53:37Z</time>
      </trkpt>
      <trkpt lat="49.42694" lon="-1.23502">
        <ele>10.7</ele>
        <time>2020-06-15T16:53:38Z</time>
      </trkpt>
      <trkpt lat="49.42697" lon="-1.23506">
        <ele>10.6</ele>
        <time>2020-06-15T16:53:39Z</time>
      </trkpt>
      <trkpt lat="49.427" lon="-1.23511">
        <ele>10.6</ele>
        <time>2020-06-15T16:53:40Z</time>
      </trkpt>
      <trkpt lat="49.42704" lon="-1.23515">
        <ele>10.5</ele>
        <time>2020-06-15T16:53:41Z</time>
      </trkpt>
      <trkpt lat="49.42707" lon="-1.2352">
        <ele>10.5</ele>
        <time>2020-06-15T16:53:42Z</time>
      </trkpt>
      <trkpt lat="49.42709" lon="-1.23525">
        <ele>10.4</ele>
        <time>2020-06-15T16:53:43Z</time>
      </trkpt>
      <trkpt lat="49.42711" lon="-1.23531">
        <ele>10.6</ele>
        <time>2020-06-15T16:53:44Z</time>
      </trkpt>
      <trkpt lat="49.42711" lon="-1.23536">
        <ele>10.9</ele>
        <time>2020-06-15T16:53:45Z</time>
      </trkpt>
      <trkpt lat="49.4271" lon="-1.23542">
        <ele>11.1</ele>
        <time>2020-06-15T16:53:46Z</time>
      </trkpt>
      <trkpt lat="49.42709" lon="-1.23548">
        <ele>11.3</ele>
        <time>2020-06-15T16:53:47Z</time>
      </trkpt>
      <trkpt lat="49.42708" lon="-1.23554">
        <ele>11.6</ele>
        <time>2020-06-15T16:53:48Z</time>
      </trkpt>
      <trkpt lat="49.42708" lon="-1.2356">
        <ele>11.8</ele>
        <time>2020-06-15T16:53:49Z</time>
      </trkpt>
      <trkpt lat="49.42707" lon="-1.23565">
        <ele>12</ele>
        <time>2020-06-15T16:53:50Z</time>
      </trkpt>
      <trkpt lat="49.42706" lon="-1.23571">
        <ele>12.3</ele>
        <time>2020-06-15T16:53:51Z</time>
      </trkpt>
      <trkpt lat="49.42706" lon="-1.23573">
        <ele>12.4</ele>
        <time>2020-06-15T16:53:52Z</time>
      </trkpt>
      <trkpt lat="49.42705" lon="-1.23577">
        <ele>12.6</ele>
        <time>2020-06-15T16:53:53Z</time>
      </trkpt>
      <trkpt lat="49.42705" lon="-1.23578">
        <ele>12.7</ele>
        <time>2020-06-15T16:53:54Z</time>
      </trkpt>
      <trkpt lat="49.42703" lon="-1.23582">
        <ele>12.9</ele>
        <time>2020-06-15T16:53:55Z</time>
      </trkpt>
      <trkpt lat="49.42701" lon="-1.23587">
        <ele>13.2</ele>
        <time>2020-06-15T16:53:56Z</time>
      </trkpt>
      <trkpt lat="49.427" lon="-1.23588">
        <ele>13.3</ele>
        <time>2020-06-15T16:53:57Z</time>
      </trkpt>
      <trkpt lat="49.42698" lon="-1.23592">
        <ele>13.6</ele>
        <time>2020-06-15T16:53:58Z</time>
      </trkpt>
      <trkpt lat="49.42698" lon="-1.23594">
        <ele>13.7</ele>
        <time>2020-06-15T16:53:59Z</time>
      </trkpt>
      <trkpt lat="49.42696" lon="-1.23597">
        <ele>14</ele>
        <time>2020-06-15T16:54:00Z</time>
      </trkpt>
      <trkpt lat="49.42695" lon="-1.23598">
        <ele>14.1</ele>
        <time>2020-06-15T16:54:01Z</time>
      </trkpt>
      <trkpt lat="49.42693" lon="-1.23602">
        <ele>14.4</ele>
        <time>2020-06-15T16:54:02Z</time>
      </trkpt>
      <trkpt lat="49.42692" lon="-1.23604">
        <ele>14.5</ele>
        <time>2020-06-15T16:54:03Z</time>
      </trkpt>
      <trkpt lat="49.42691" lon="-1.23609">
        <ele>14.9</ele>
        <time>2020-06-15T16:54:04Z</time>
      </trkpt>
      <trkpt lat="49.4269" lon="-1.2361">
        <ele>15</ele>
        <time>2020-06-15T16:54:05Z</time>
      </trkpt>
      <trkpt lat="49.4269" lon="-1.23615">
        <ele>15.8</ele>
        <time>2020-06-15T16:54:06Z</time>
      </trkpt>
      <trkpt lat="49.42688" lon="-1.2362">
        <ele>16.2</ele>
        <time>2020-06-15T16:54:07Z</time>
      </trkpt>
      <trkpt lat="49.42688" lon="-1.23621">
        <ele>16.3</ele>
        <time>2020-06-15T16:54:08Z</time>
      </trkpt>
      <trkpt lat="49.42686" lon="-1.23626">
        <ele>16.7</ele>
        <time>2020-06-15T16:54:09Z</time>
      </trkpt>
      <trkpt lat="49.42685" lon="-1.23627">
        <ele>16.8</ele>
        <time>2020-06-15T16:54:10Z</time>
      </trkpt>
      <trkpt lat="49.42684" lon="-1.23631">
        <ele>17.1</ele>
        <time>2020-06-15T16:54:11Z</time>
      </trkpt>
      <trkpt lat="49.42682" lon="-1.23636">
        <ele>17.3</ele>
        <time>2020-06-15T16:54:12Z</time>
      </trkpt>
      <trkpt lat="49.4268" lon="-1.23641">
        <ele>17.6</ele>
        <time>2020-06-15T16:54:13Z</time>
      </trkpt>
      <trkpt lat="49.42678" lon="-1.23646">
        <ele>17.9</ele>
        <time>2020-06-15T16:54:14Z</time>
      </trkpt>
      <trkpt lat="49.42677" lon="-1.23651">
        <ele>18.1</ele>
        <time>2020-06-15T16:54:15Z</time>
      </trkpt>
      <trkpt lat="49.42676" lon="-1.23655">
        <ele>18.3</ele>
        <time>2020-06-15T16:54:16Z</time>
      </trkpt>
      <trkpt lat="49.42675" lon="-1.2366">
        <ele>18.6</ele>
        <time>2020-06-15T16:54:17Z</time>
      </trkpt>
      <trkpt lat="49.42673" lon="-1.23665">
        <ele>18.8</ele>
        <time>2020-06-15T16:54:18Z</time>
      </trkpt>
      <trkpt lat="49.42672" lon="-1.2367">
        <ele>19.1</ele>
        <time>2020-06-15T16:54:19Z</time>
      </trkpt>
      <trkpt lat="49.42671" lon="-1.23673">
        <ele>19.3</ele>
        <time>2020-06-15T16:54:20Z</time>
      </trkpt>
      <trkpt lat="49.4267" lon="-1.23677">
        <ele>19.5</ele>
        <time>2020-06-15T16:54:21Z</time>
      </trkpt>
      <trkpt lat="49.42669" lon="-1.23683">
        <ele>19.7</ele>
        <time>2020-06-15T16:54:22Z</time>
      </trkpt>
      <trkpt lat="49.42669" lon="-1.23684">
        <ele>19.8</ele>
        <time>2020-06-15T16:54:23Z</time>
      </trkpt>
      <trkpt lat="49.42668" lon="-1.23689">
        <ele>20</ele>
        <time>2020-06-15T16:54:24Z</time>
      </trkpt>
      <trkpt lat="49.42668" lon="-1.23691">
        <ele>20.1</ele>
        <time>2020-06-15T16:54:25Z</time>
      </trkpt>
      <trkpt lat="49.42668" lon="-1.23696">
        <ele>20.4</ele>
        <time>2020-06-15T16:54:26Z</time>
      </trkpt>
      <trkpt lat="49.42667" lon="-1.23698">
        <ele>20.5</ele>
        <time>2020-06-15T16:54:27Z</time>
      </trkpt>
      <trkpt lat="49.42666" lon="-1.23703">
        <ele>20.7</ele>
        <time>2020-06-15T16:54:28Z</time>
      </trkpt>
      <trkpt lat="49.42666" lon="-1.23705">
        <ele>20.8</ele>
        <time>2020-06-15T16:54:29Z</time>
      </trkpt>
      <trkpt lat="49.42665" lon="-1.2371">
        <ele>21</ele>
        <time>2020-06-15T16:54:30Z</time>
      </trkpt>
      <trkpt lat="49.42665" lon="-1.23712">
        <ele>21</ele>
        <time>2020-06-15T16:54:31Z</time>
      </trkpt>
      <trkpt lat="49.42665" lon="-1.23717">
        <ele>21.2</ele>
        <time>2020-06-15T16:54:32Z</time>
      </trkpt>
      <trkpt lat="49.42666" lon="-1.23722">
        <ele>21.4</ele>
        <time>2020-06-15T16:54:33Z</time>
      </trkpt>
      <trkpt lat="49.42666" lon="-1.23726">
        <ele>21.4</ele>
        <time>2020-06-15T16:54:34Z</time>
      </trkpt>
      <trkpt lat="49.42667" lon="-1.23731">
        <ele>21.4</ele>
        <time>2020-06-15T16:54:35Z</time>
      </trkpt>
      <trkpt lat="49.42667" lon="-1.23735">
        <ele>21.4</ele>
        <time>2020-06-15T16:54:36Z</time>
      </trkpt>
      <trkpt lat="49.42668" lon="-1.2374">
        <ele>21.3</ele>
        <time>2020-06-15T16:54:37Z</time>
      </trkpt>
      <trkpt lat="49.42668" lon="-1.23744">
        <ele>21.3</ele>
        <time>2020-06-15T16:54:38Z</time>
      </trkpt>
      <trkpt lat="49.42669" lon="-1.23749">
        <ele>21.3</ele>
        <time>2020-06-15T16:54:39Z</time>
      </trkpt>
      <trkpt lat="49.42669" lon="-1.23755">
        <ele>21.2</ele>
        <time>2020-06-15T16:54:40Z</time>
      </trkpt>
      <trkpt lat="49.4267" lon="-1.23758">
        <ele>21.2</ele>
        <time>2020-06-15T16:54:41Z</time>
      </trkpt>
      <trkpt lat="49.4267" lon="-1.23763">
        <ele>21.3</ele>
        <time>2020-06-15T16:54:42Z</time>
      </trkpt>
      <trkpt lat="49.4267" lon="-1.23769">
        <ele>21.3</ele>
        <time>2020-06-15T16:54:43Z</time>
      </trkpt>
      <trkpt lat="49.4267" lon="-1.23774">
        <ele>21.3</ele>
        <time>2020-06-15T16:54:44Z</time>
      </trkpt>
      <trkpt lat="49.42671" lon="-1.2378">
        <ele>21.3</ele>
        <time>2020-06-15T16:54:45Z</time>
      </trkpt>
      <trkpt lat="49.42671" lon="-1.23786">
        <ele>21.4</ele>
        <time>2020-06-15T16:54:46Z</time>
      </trkpt>
      <trkpt lat="49.42672" lon="-1.23792">
        <ele>21.4</ele>
        <time>2020-06-15T16:54:47Z</time>
      </trkpt>
      <trkpt lat="49.42672" lon="-1.23798">
        <ele>21.4</ele>
        <time>2020-06-15T16:54:48Z</time>
      </trkpt>
      <trkpt lat="49.42673" lon="-1.23803">
        <ele>21.4</ele>
        <time>2020-06-15T16:54:49Z</time>
      </trkpt>
      <trkpt lat="49.42674" lon="-1.2381">
        <ele>21.4</ele>
        <time>2020-06-15T16:54:50Z</time>
      </trkpt>
      <trkpt lat="49.42674" lon="-1.23817">
        <ele>21.4</ele>
        <time>2020-06-15T16:54:51Z</time>
      </trkpt>
      <trkpt lat="49.42674" lon="-1.23823">
        <ele>21.4</ele>
        <time>2020-06-15T16:54:52Z</time>
      </trkpt>
      <trkpt lat="49.42672" lon="-1.2383">
        <ele>21.4</ele>
        <time>2020-06-15T16:54:53Z</time>
      </trkpt>
      <trkpt lat="49.42672" lon="-1.23839">
        <ele>21.4</ele>
        <time>2020-06-15T16:54:54Z</time>
      </trkpt>
      <trkpt lat="49.42672" lon="-1.23847">
        <ele>21.4</ele>
        <time>2020-06-15T16:54:55Z</time>
      </trkpt>
      <trkpt lat="49.42672" lon="-1.23855">
        <ele>21.5</ele>
        <time>2020-06-15T16:54:56Z</time>
      </trkpt>
      <trkpt lat="49.42671" lon="-1.23863">
        <ele>21.5</ele>
        <time>2020-06-15T16:54:57Z</time>
      </trkpt>
      <trkpt lat="49.4267" lon="-1.23872">
        <ele>21.5</ele>
        <time>2020-06-15T16:54:58Z</time>
      </trkpt>
      <trkpt lat="49.42669" lon="-1.2388">
        <ele>21.5</ele>
        <time>2020-06-15T16:54:59Z</time>
      </trkpt>
      <trkpt lat="49.42668" lon="-1.23889">
        <ele>21.4</ele>
        <time>2020-06-15T16:55:00Z</time>
      </trkpt>
      <trkpt lat="49.42668" lon="-1.23896">
        <ele>21.4</ele>
        <time>2020-06-15T16:55:01Z</time>
      </trkpt>
      <trkpt lat="49.42668" lon="-1.23904">
        <ele>21.3</ele>
        <time>2020-06-15T16:55:02Z</time>
      </trkpt>
      <trkpt lat="49.42669" lon="-1.23913">
        <ele>21.3</ele>
        <time>2020-06-15T16:55:03Z</time>
      </trkpt>
      <trkpt lat="49.42669" lon="-1.23923">
        <ele>21.3</ele>
        <time>2020-06-15T16:55:04Z</time>
      </trkpt>
      <trkpt lat="49.42669" lon="-1.23932">
        <ele>21.4</ele>
        <time>2020-06-15T16:55:05Z</time>
      </trkpt>
      <trkpt lat="49.42669" lon="-1.23941">
        <ele>21.6</ele>
        <time>2020-06-15T16:55:06Z</time>
      </trkpt>
      <trkpt lat="49.42669" lon="-1.2395">
        <ele>21.7</ele>
        <time>2020-06-15T16:55:07Z</time>
      </trkpt>
      <trkpt lat="49.4267" lon="-1.23959">
        <ele>21.8</ele>
        <time>2020-06-15T16:55:08Z</time>
      </trkpt>
      <trkpt lat="49.42672" lon="-1.23967">
        <ele>21.8</ele>
        <time>2020-06-15T16:55:09Z</time>
      </trkpt>
      <trkpt lat="49.42673" lon="-1.23974">
        <ele>21.8</ele>
        <time>2020-06-15T16:55:10Z</time>
      </trkpt>
      <trkpt lat="49.42673" lon="-1.23982">
        <ele>21.7</ele>
        <time>2020-06-15T16:55:11Z</time>
      </trkpt>
      <trkpt lat="49.42674" lon="-1.23991">
        <ele>21.7</ele>
        <time>2020-06-15T16:55:12Z</time>
      </trkpt>
      <trkpt lat="49.42674" lon="-1.23998">
        <ele>21.7</ele>
        <time>2020-06-15T16:55:13Z</time>
      </trkpt>
      <trkpt lat="49.42675" lon="-1.24006">
        <ele>21.7</ele>
        <time>2020-06-15T16:55:14Z</time>
      </trkpt>
      <trkpt lat="49.42676" lon="-1.24014">
        <ele>21.7</ele>
        <time>2020-06-15T16:55:15Z</time>
      </trkpt>
      <trkpt lat="49.42677" lon="-1.24021">
        <ele>21.8</ele>
        <time>2020-06-15T16:55:16Z</time>
      </trkpt>
      <trkpt lat="49.42677" lon="-1.24029">
        <ele>21.9</ele>
        <time>2020-06-15T16:55:17Z</time>
      </trkpt>
      <trkpt lat="49.42678" lon="-1.24037">
        <ele>21.9</ele>
        <time>2020-06-15T16:55:18Z</time>
      </trkpt>
      <trkpt lat="49.42679" lon="-1.24044">
        <ele>21.9</ele>
        <time>2020-06-15T16:55:19Z</time>
      </trkpt>
      <trkpt lat="49.42679" lon="-1.24052">
        <ele>21.9</ele>
        <time>2020-06-15T16:55:20Z</time>
      </trkpt>
      <trkpt lat="49.4268" lon="-1.24059">
        <ele>21.9</ele>
        <time>2020-06-15T16:55:21Z</time>
      </trkpt>
      <trkpt lat="49.4268" lon="-1.24066">
        <ele>21.9</ele>
        <time>2020-06-15T16:55:22Z</time>
      </trkpt>
      <trkpt lat="49.4268" lon="-1.24073">
        <ele>22</ele>
        <time>2020-06-15T16:55:23Z</time>
      </trkpt>
      <trkpt lat="49.4268" lon="-1.24081">
        <ele>22</ele>
        <time>2020-06-15T16:55:24Z</time>
      </trkpt>
      <trkpt lat="49.4268" lon="-1.24087">
        <ele>22.1</ele>
        <time>2020-06-15T16:55:25Z</time>
      </trkpt>
      <trkpt lat="49.4268" lon="-1.24094">
        <ele>22.2</ele>
        <time>2020-06-15T16:55:26Z</time>
      </trkpt>
      <trkpt lat="49.4268" lon="-1.24101">
        <ele>22.2</ele>
        <time>2020-06-15T16:55:27Z</time>
      </trkpt>
      <trkpt lat="49.4268" lon="-1.24108">
        <ele>22.3</ele>
        <time>2020-06-15T16:55:28Z</time>
      </trkpt>
      <trkpt lat="49.42681" lon="-1.24115">
        <ele>22.3</ele>
        <time>2020-06-15T16:55:29Z</time>
      </trkpt>
      <trkpt lat="49.42682" lon="-1.24123">
        <ele>22.4</ele>
        <time>2020-06-15T16:55:30Z</time>
      </trkpt>
      <trkpt lat="49.42683" lon="-1.24132">
        <ele>22.5</ele>
        <time>2020-06-15T16:55:31Z</time>
      </trkpt>
      <trkpt lat="49.42683" lon="-1.24141">
        <ele>22.6</ele>
        <time>2020-06-15T16:55:32Z</time>
      </trkpt>
      <trkpt lat="49.42683" lon="-1.24149">
        <ele>22.7</ele>
        <time>2020-06-15T16:55:33Z</time>
      </trkpt>
      <trkpt lat="49.42682" lon="-1.24158">
        <ele>22.8</ele>
        <time>2020-06-15T16:55:34Z</time>
      </trkpt>
      <trkpt lat="49.42683" lon="-1.24167">
        <ele>22.9</ele>
        <time>2020-06-15T16:55:35Z</time>
      </trkpt>
      <trkpt lat="49.42684" lon="-1.24175">
        <ele>23</ele>
        <time>2020-06-15T16:55:36Z</time>
      </trkpt>
      <trkpt lat="49.42684" lon="-1.24184">
        <ele>23</ele>
        <time>2020-06-15T16:55:37Z</time>
      </trkpt>
      <trkpt lat="49.42686" lon="-1.24192">
        <ele>23.1</ele>
        <time>2020-06-15T16:55:38Z</time>
      </trkpt>
      <trkpt lat="49.42686" lon="-1.24199">
        <ele>23.2</ele>
        <time>2020-06-15T16:55:39Z</time>
      </trkpt>
      <trkpt lat="49.42686" lon="-1.24206">
        <ele>23.3</ele>
        <time>2020-06-15T16:55:40Z</time>
      </trkpt>
      <trkpt lat="49.42686" lon="-1.24213">
        <ele>23.3</ele>
        <time>2020-06-15T16:55:41Z</time>
      </trkpt>
      <trkpt lat="49.42686" lon="-1.2422">
        <ele>23.4</ele>
        <time>2020-06-15T16:55:42Z</time>
      </trkpt>
      <trkpt lat="49.42686" lon="-1.24228">
        <ele>23.4</ele>
        <time>2020-06-15T16:55:43Z</time>
      </trkpt>
      <trkpt lat="49.42686" lon="-1.24235">
        <ele>23.4</ele>
        <time>2020-06-15T16:55:44Z</time>
      </trkpt>
      <trkpt lat="49.42686" lon="-1.24243">
        <ele>23.4</ele>
        <time>2020-06-15T16:55:45Z</time>
      </trkpt>
      <trkpt lat="49.42685" lon="-1.2425">
        <ele>23.4</ele>
        <time>2020-06-15T16:55:46Z</time>
      </trkpt>
      <trkpt lat="49.42684" lon="-1.24257">
        <ele>23.4</ele>
        <time>2020-06-15T16:55:47Z</time>
      </trkpt>
      <trkpt lat="49.42684" lon="-1.24265">
        <ele>23.4</ele>
        <time>2020-06-15T16:55:48Z</time>
      </trkpt>
      <trkpt lat="49.42683" lon="-1.24273">
        <ele>23.4</ele>
        <time>2020-06-15T16:55:49Z</time>
      </trkpt>
      <trkpt lat="49.42683" lon="-1.24281">
        <ele>23.5</ele>
        <time>2020-06-15T16:55:50Z</time>
      </trkpt>
      <trkpt lat="49.42683" lon="-1.24288">
        <ele>23.5</ele>
        <time>2020-06-15T16:55:51Z</time>
      </trkpt>
      <trkpt lat="49.42682" lon="-1.24296">
        <ele>23.6</ele>
        <time>2020-06-15T16:55:52Z</time>
      </trkpt>
      <trkpt lat="49.42682" lon="-1.24303">
        <ele>23.6</ele>
        <time>2020-06-15T16:55:53Z</time>
      </trkpt>
      <trkpt lat="49.42681" lon="-1.24309">
        <ele>23.6</ele>
        <time>2020-06-15T16:55:54Z</time>
      </trkpt>
      <trkpt lat="49.4268" lon="-1.24316">
        <ele>23.7</ele>
        <time>2020-06-15T16:55:55Z</time>
      </trkpt>
      <trkpt lat="49.4268" lon="-1.24323">
        <ele>23.8</ele>
        <time>2020-06-15T16:55:56Z</time>
      </trkpt>
      <trkpt lat="49.4268" lon="-1.2433">
        <ele>23.8</ele>
        <time>2020-06-15T16:55:57Z</time>
      </trkpt>
      <trkpt lat="49.4268" lon="-1.24337">
        <ele>23.8</ele>
        <time>2020-06-15T16:55:58Z</time>
      </trkpt>
      <trkpt lat="49.42679" lon="-1.24345">
        <ele>23.8</ele>
        <time>2020-06-15T16:55:59Z</time>
      </trkpt>
      <trkpt lat="49.42678" lon="-1.24352">
        <ele>23.9</ele>
        <time>2020-06-15T16:56:00Z</time>
      </trkpt>
      <trkpt lat="49.42678" lon="-1.24359">
        <ele>23.9</ele>
        <time>2020-06-15T16:56:01Z</time>
      </trkpt>
      <trkpt lat="49.42679" lon="-1.24367">
        <ele>23.9</ele>
        <time>2020-06-15T16:56:02Z</time>
      </trkpt>
      <trkpt lat="49.42679" lon="-1.24374">
        <ele>23.9</ele>
        <time>2020-06-15T16:56:03Z</time>
      </trkpt>
      <trkpt lat="49.42679" lon="-1.24381">
        <ele>23.8</ele>
        <time>2020-06-15T16:56:04Z</time>
      </trkpt>
      <trkpt lat="49.42679" lon="-1.24388">
        <ele>23.7</ele>
        <time>2020-06-15T16:56:05Z</time>
      </trkpt>
      <trkpt lat="49.4268" lon="-1.24396">
        <ele>23.6</ele>
        <time>2020-06-15T16:56:06Z</time>
      </trkpt>
      <trkpt lat="49.42681" lon="-1.24404">
        <ele>23.6</ele>
        <time>2020-06-15T16:56:07Z</time>
      </trkpt>
      <trkpt lat="49.42681" lon="-1.24412">
        <ele>23.6</ele>
        <time>2020-06-15T16:56:08Z</time>
      </trkpt>
      <trkpt lat="49.42681" lon="-1.2442">
        <ele>23.6</ele>
        <time>2020-06-15T16:56:09Z</time>
      </trkpt>
      <trkpt lat="49.42681" lon="-1.24429">
        <ele>23.6</ele>
        <time>2020-06-15T16:56:10Z</time>
      </trkpt>
      <trkpt lat="49.42681" lon="-1.24436">
        <ele>23.6</ele>
        <time>2020-06-15T16:56:11Z</time>
      </trkpt>
      <trkpt lat="49.42681" lon="-1.24444">
        <ele>23.6</ele>
        <time>2020-06-15T16:56:12Z</time>
      </trkpt>
      <trkpt lat="49.42681" lon="-1.24453">
        <ele>23.6</ele>
        <time>2020-06-15T16:56:13Z</time>
      </trkpt>
      <trkpt lat="49.4268" lon="-1.24462">
        <ele>23.5</ele>
        <time>2020-06-15T16:56:14Z</time>
      </trkpt>
      <trkpt lat="49.4268" lon="-1.24469">
        <ele>23.4</ele>
        <time>2020-06-15T16:56:15Z</time>
      </trkpt>
      <trkpt lat="49.4268" lon="-1.24477">
        <ele>23.3</ele>
        <time>2020-06-15T16:56:16Z</time>
      </trkpt>
      <trkpt lat="49.4268" lon="-1.24485">
        <ele>23.2</ele>
        <time>2020-06-15T16:56:17Z</time>
      </trkpt>
      <trkpt lat="49.4268" lon="-1.24494">
        <ele>23.1</ele>
        <time>2020-06-15T16:56:18Z</time>
      </trkpt>
      <trkpt lat="49.42679" lon="-1.24504">
        <ele>23.1</ele>
        <time>2020-06-15T16:56:19Z</time>
      </trkpt>
      <trkpt lat="49.42678" lon="-1.24512">
        <ele>23.1</ele>
        <time>2020-06-15T16:56:20Z</time>
      </trkpt>
      <trkpt lat="49.42677" lon="-1.24521">
        <ele>23.1</ele>
        <time>2020-06-15T16:56:21Z</time>
      </trkpt>
      <trkpt lat="49.42676" lon="-1.2453">
        <ele>22.9</ele>
        <time>2020-06-15T16:56:22Z</time>
      </trkpt>
      <trkpt lat="49.42676" lon="-1.24539">
        <ele>22.8</ele>
        <time>2020-06-15T16:56:23Z</time>
      </trkpt>
      <trkpt lat="49.42676" lon="-1.24548">
        <ele>22.8</ele>
        <time>2020-06-15T16:56:24Z</time>
      </trkpt>
      <trkpt lat="49.42676" lon="-1.24557">
        <ele>22.7</ele>
        <time>2020-06-15T16:56:25Z</time>
      </trkpt>
      <trkpt lat="49.42677" lon="-1.24567">
        <ele>22.6</ele>
        <time>2020-06-15T16:56:26Z</time>
      </trkpt>
      <trkpt lat="49.42677" lon="-1.24575">
        <ele>22.5</ele>
        <time>2020-06-15T16:56:27Z</time>
      </trkpt>
      <trkpt lat="49.42678" lon="-1.24584">
        <ele>22.4</ele>
        <time>2020-06-15T16:56:28Z</time>
      </trkpt>
      <trkpt lat="49.42678" lon="-1.24594">
        <ele>22.4</ele>
        <time>2020-06-15T16:56:29Z</time>
      </trkpt>
      <trkpt lat="49.42678" lon="-1.24605">
        <ele>22.4</ele>
        <time>2020-06-15T16:56:30Z</time>
      </trkpt>
      <trkpt lat="49.42677" lon="-1.24615">
        <ele>22.5</ele>
        <time>2020-06-15T16:56:31Z</time>
      </trkpt>
      <trkpt lat="49.42677" lon="-1.24627">
        <ele>22.5</ele>
        <time>2020-06-15T16:56:32Z</time>
      </trkpt>
      <trkpt lat="49.42675" lon="-1.24636">
        <ele>22.5</ele>
        <time>2020-06-15T16:56:33Z</time>
      </trkpt>
      <trkpt lat="49.42671" lon="-1.24649">
        <ele>22.6</ele>
        <time>2020-06-15T16:56:34Z</time>
      </trkpt>
      <trkpt lat="49.42668" lon="-1.24658">
        <ele>22.7</ele>
        <time>2020-06-15T16:56:35Z</time>
      </trkpt>
      <trkpt lat="49.42666" lon="-1.24667">
        <ele>22.8</ele>
        <time>2020-06-15T16:56:36Z</time>
      </trkpt>
      <trkpt lat="49.42664" lon="-1.24674">
        <ele>22.8</ele>
        <time>2020-06-15T16:56:37Z</time>
      </trkpt>
      <trkpt lat="49.42663" lon="-1.2468">
        <ele>22.8</ele>
        <time>2020-06-15T16:56:38Z</time>
      </trkpt>
      <trkpt lat="49.42663" lon="-1.24687">
        <ele>22.8</ele>
        <time>2020-06-15T16:56:39Z</time>
      </trkpt>
      <trkpt lat="49.42663" lon="-1.24695">
        <ele>22.6</ele>
        <time>2020-06-15T16:56:40Z</time>
      </trkpt>
      <trkpt lat="49.42662" lon="-1.24702">
        <ele>22.5</ele>
        <time>2020-06-15T16:56:41Z</time>
      </trkpt>
      <trkpt lat="49.42661" lon="-1.2471">
        <ele>22.3</ele>
        <time>2020-06-15T16:56:42Z</time>
      </trkpt>
      <trkpt lat="49.42659" lon="-1.2472">
        <ele>22.1</ele>
        <time>2020-06-15T16:56:43Z</time>
      </trkpt>
      <trkpt lat="49.42657" lon="-1.24728">
        <ele>21.9</ele>
        <time>2020-06-15T16:56:44Z</time>
      </trkpt>
      <trkpt lat="49.42657" lon="-1.24741">
        <ele>21.6</ele>
        <time>2020-06-15T16:56:45Z</time>
      </trkpt>
      <trkpt lat="49.42656" lon="-1.24751">
        <ele>21.4</ele>
        <time>2020-06-15T16:56:46Z</time>
      </trkpt>
      <trkpt lat="49.42654" lon="-1.24761">
        <ele>21.2</ele>
        <time>2020-06-15T16:56:47Z</time>
      </trkpt>
      <trkpt lat="49.42651" lon="-1.24772">
        <ele>21.1</ele>
        <time>2020-06-15T16:56:48Z</time>
      </trkpt>
      <trkpt lat="49.42647" lon="-1.24783">
        <ele>21.1</ele>
        <time>2020-06-15T16:56:49Z</time>
      </trkpt>
      <trkpt lat="49.42643" lon="-1.24795">
        <ele>21</ele>
        <time>2020-06-15T16:56:50Z</time>
      </trkpt>
      <trkpt lat="49.4264" lon="-1.24806">
        <ele>21.1</ele>
        <time>2020-06-15T16:56:51Z</time>
      </trkpt>
      <trkpt lat="49.42638" lon="-1.24816">
        <ele>21.2</ele>
        <time>2020-06-15T16:56:52Z</time>
      </trkpt>
      <trkpt lat="49.42635" lon="-1.24827">
        <ele>21.3</ele>
        <time>2020-06-15T16:56:53Z</time>
      </trkpt>
      <trkpt lat="49.42633" lon="-1.24838">
        <ele>21.4</ele>
        <time>2020-06-15T16:56:54Z</time>
      </trkpt>
      <trkpt lat="49.42631" lon="-1.24848">
        <ele>21.5</ele>
        <time>2020-06-15T16:56:55Z</time>
      </trkpt>
      <trkpt lat="49.42629" lon="-1.24857">
        <ele>21.5</ele>
        <time>2020-06-15T16:56:56Z</time>
      </trkpt>
      <trkpt lat="49.42627" lon="-1.24867">
        <ele>21.6</ele>
        <time>2020-06-15T16:56:57Z</time>
      </trkpt>
      <trkpt lat="49.42626" lon="-1.24877">
        <ele>21.6</ele>
        <time>2020-06-15T16:56:58Z</time>
      </trkpt>
      <trkpt lat="49.42624" lon="-1.24888">
        <ele>21.7</ele>
        <time>2020-06-15T16:56:59Z</time>
      </trkpt>
      <trkpt lat="49.42623" lon="-1.24897">
        <ele>21.7</ele>
        <time>2020-06-15T16:57:00Z</time>
      </trkpt>
      <trkpt lat="49.42621" lon="-1.24906">
        <ele>21.8</ele>
        <time>2020-06-15T16:57:01Z</time>
      </trkpt>
      <trkpt lat="49.42621" lon="-1.24915">
        <ele>21.8</ele>
        <time>2020-06-15T16:57:02Z</time>
      </trkpt>
      <trkpt lat="49.4262" lon="-1.24923">
        <ele>21.8</ele>
        <time>2020-06-15T16:57:03Z</time>
      </trkpt>
      <trkpt lat="49.42619" lon="-1.24931">
        <ele>21.8</ele>
        <time>2020-06-15T16:57:04Z</time>
      </trkpt>
      <trkpt lat="49.42618" lon="-1.24939">
        <ele>21.8</ele>
        <time>2020-06-15T16:57:05Z</time>
      </trkpt>
      <trkpt lat="49.42616" lon="-1.24947">
        <ele>21.9</ele>
        <time>2020-06-15T16:57:06Z</time>
      </trkpt>
      <trkpt lat="49.42614" lon="-1.24955">
        <ele>21.9</ele>
        <time>2020-06-15T16:57:07Z</time>
      </trkpt>
      <trkpt lat="49.42612" lon="-1.24963">
        <ele>22</ele>
        <time>2020-06-15T16:57:08Z</time>
      </trkpt>
      <trkpt lat="49.42611" lon="-1.24972">
        <ele>22.1</ele>
        <time>2020-06-15T16:57:09Z</time>
      </trkpt>
      <trkpt lat="49.42609" lon="-1.2498">
        <ele>22.1</ele>
        <time>2020-06-15T16:57:10Z</time>
      </trkpt>
      <trkpt lat="49.42608" lon="-1.24988">
        <ele>22.2</ele>
        <time>2020-06-15T16:57:11Z</time>
      </trkpt>
      <trkpt lat="49.42607" lon="-1.24996">
        <ele>22.2</ele>
        <time>2020-06-15T16:57:12Z</time>
      </trkpt>
      <trkpt lat="49.42605" lon="-1.25003">
        <ele>22.3</ele>
        <time>2020-06-15T16:57:13Z</time>
      </trkpt>
      <trkpt lat="49.42602" lon="-1.25012">
        <ele>22.4</ele>
        <time>2020-06-15T16:57:14Z</time>
      </trkpt>
      <trkpt lat="49.426" lon="-1.2502">
        <ele>22.5</ele>
        <time>2020-06-15T16:57:15Z</time>
      </trkpt>
      <trkpt lat="49.42598" lon="-1.25028">
        <ele>22.5</ele>
        <time>2020-06-15T16:57:16Z</time>
      </trkpt>
      <trkpt lat="49.42596" lon="-1.25036">
        <ele>22.4</ele>
        <time>2020-06-15T16:57:17Z</time>
      </trkpt>
      <trkpt lat="49.42593" lon="-1.25044">
        <ele>22.4</ele>
        <time>2020-06-15T16:57:18Z</time>
      </trkpt>
      <trkpt lat="49.42591" lon="-1.25052">
        <ele>22.4</ele>
        <time>2020-06-15T16:57:19Z</time>
      </trkpt>
      <trkpt lat="49.42588" lon="-1.2506">
        <ele>22.4</ele>
        <time>2020-06-15T16:57:20Z</time>
      </trkpt>
      <trkpt lat="49.42585" lon="-1.2507">
        <ele>22.4</ele>
        <time>2020-06-15T16:57:21Z</time>
      </trkpt>
      <trkpt lat="49.42582" lon="-1.25078">
        <ele>22.5</ele>
        <time>2020-06-15T16:57:22Z</time>
      </trkpt>
      <trkpt lat="49.42579" lon="-1.25086">
        <ele>22.5</ele>
        <time>2020-06-15T16:57:23Z</time>
      </trkpt>
      <trkpt lat="49.42575" lon="-1.25095">
        <ele>22.5</ele>
        <time>2020-06-15T16:57:24Z</time>
      </trkpt>
      <trkpt lat="49.42572" lon="-1.25104">
        <ele>22.5</ele>
        <time>2020-06-15T16:57:25Z</time>
      </trkpt>
      <trkpt lat="49.42568" lon="-1.25114">
        <ele>22.5</ele>
        <time>2020-06-15T16:57:26Z</time>
      </trkpt>
      <trkpt lat="49.42564" lon="-1.25124">
        <ele>22.5</ele>
        <time>2020-06-15T16:57:27Z</time>
      </trkpt>
      <trkpt lat="49.4256" lon="-1.25133">
        <ele>22.6</ele>
        <time>2020-06-15T16:57:28Z</time>
      </trkpt>
      <trkpt lat="49.42556" lon="-1.25143">
        <ele>22.7</ele>
        <time>2020-06-15T16:57:29Z</time>
      </trkpt>
      <trkpt lat="49.42551" lon="-1.25152">
        <ele>22.9</ele>
        <time>2020-06-15T16:57:30Z</time>
      </trkpt>
      <trkpt lat="49.42547" lon="-1.25158">
        <ele>23</ele>
        <time>2020-06-15T16:57:31Z</time>
      </trkpt>
      <trkpt lat="49.42543" lon="-1.25167">
        <ele>23.1</ele>
        <time>2020-06-15T16:57:32Z</time>
      </trkpt>
      <trkpt lat="49.42539" lon="-1.25174">
        <ele>23.2</ele>
        <time>2020-06-15T16:57:33Z</time>
      </trkpt>
      <trkpt lat="49.42535" lon="-1.25183">
        <ele>23.2</ele>
        <time>2020-06-15T16:57:34Z</time>
      </trkpt>
      <trkpt lat="49.42531" lon="-1.25191">
        <ele>23.3</ele>
        <time>2020-06-15T16:57:35Z</time>
      </trkpt>
      <trkpt lat="49.42528" lon="-1.25199">
        <ele>23.3</ele>
        <time>2020-06-15T16:57:36Z</time>
      </trkpt>
      <trkpt lat="49.42525" lon="-1.25208">
        <ele>23.3</ele>
        <time>2020-06-15T16:57:37Z</time>
      </trkpt>
      <trkpt lat="49.42522" lon="-1.25217">
        <ele>23.3</ele>
        <time>2020-06-15T16:57:38Z</time>
      </trkpt>
      <trkpt lat="49.4252" lon="-1.25224">
        <ele>23.2</ele>
        <time>2020-06-15T16:57:39Z</time>
      </trkpt>
      <trkpt lat="49.42518" lon="-1.25231">
        <ele>23.2</ele>
        <time>2020-06-15T16:57:40Z</time>
      </trkpt>
      <trkpt lat="49.42515" lon="-1.25237">
        <ele>23.2</ele>
        <time>2020-06-15T16:57:41Z</time>
      </trkpt>
      <trkpt lat="49.42513" lon="-1.25246">
        <ele>23.2</ele>
        <time>2020-06-15T16:57:42Z</time>
      </trkpt>
      <trkpt lat="49.42511" lon="-1.25255">
        <ele>23.3</ele>
        <time>2020-06-15T16:57:43Z</time>
      </trkpt>
      <trkpt lat="49.42508" lon="-1.25264">
        <ele>23.4</ele>
        <time>2020-06-15T16:57:44Z</time>
      </trkpt>
      <trkpt lat="49.42505" lon="-1.25272">
        <ele>23.4</ele>
        <time>2020-06-15T16:57:45Z</time>
      </trkpt>
      <trkpt lat="49.42503" lon="-1.2528">
        <ele>23.5</ele>
        <time>2020-06-15T16:57:46Z</time>
      </trkpt>
      <trkpt lat="49.425" lon="-1.2529">
        <ele>23.6</ele>
        <time>2020-06-15T16:57:47Z</time>
      </trkpt>
      <trkpt lat="49.42499" lon="-1.25297">
        <ele>23.6</ele>
        <time>2020-06-15T16:57:48Z</time>
      </trkpt>
      <trkpt lat="49.42497" lon="-1.25306">
        <ele>23.7</ele>
        <time>2020-06-15T16:57:49Z</time>
      </trkpt>
      <trkpt lat="49.42495" lon="-1.25314">
        <ele>23.8</ele>
        <time>2020-06-15T16:57:50Z</time>
      </trkpt>
      <trkpt lat="49.42494" lon="-1.25322">
        <ele>23.8</ele>
        <time>2020-06-15T16:57:51Z</time>
      </trkpt>
      <trkpt lat="49.42494" lon="-1.2533">
        <ele>23.9</ele>
        <time>2020-06-15T16:57:52Z</time>
      </trkpt>
      <trkpt lat="49.42492" lon="-1.25338">
        <ele>24</ele>
        <time>2020-06-15T16:57:53Z</time>
      </trkpt>
      <trkpt lat="49.42491" lon="-1.25347">
        <ele>24.1</ele>
        <time>2020-06-15T16:57:54Z</time>
      </trkpt>
      <trkpt lat="49.42489" lon="-1.25355">
        <ele>24.2</ele>
        <time>2020-06-15T16:57:55Z</time>
      </trkpt>
      <trkpt lat="49.42487" lon="-1.25365">
        <ele>24.3</ele>
        <time>2020-06-15T16:57:56Z</time>
      </trkpt>
      <trkpt lat="49.42486" lon="-1.25373">
        <ele>24.4</ele>
        <time>2020-06-15T16:57:57Z</time>
      </trkpt>
      <trkpt lat="49.42484" lon="-1.25381">
        <ele>24.4</ele>
        <time>2020-06-15T16:57:58Z</time>
      </trkpt>
      <trkpt lat="49.42483" lon="-1.25391">
        <ele>24.6</ele>
        <time>2020-06-15T16:57:59Z</time>
      </trkpt>
      <trkpt lat="49.42481" lon="-1.25399">
        <ele>24.8</ele>
        <time>2020-06-15T16:58:00Z</time>
      </trkpt>
      <trkpt lat="49.4248" lon="-1.25406">
        <ele>25</ele>
        <time>2020-06-15T16:58:01Z</time>
      </trkpt>
      <trkpt lat="49.42478" lon="-1.25413">
        <ele>25.4</ele>
        <time>2020-06-15T16:58:02Z</time>
      </trkpt>
      <trkpt lat="49.42475" lon="-1.25421">
        <ele>25.8</ele>
        <time>2020-06-15T16:58:03Z</time>
      </trkpt>
      <trkpt lat="49.42473" lon="-1.25428">
        <ele>25.4</ele>
        <time>2020-06-15T16:58:04Z</time>
      </trkpt>
      <trkpt lat="49.4247" lon="-1.25435">
        <ele>25.1</ele>
        <time>2020-06-15T16:58:05Z</time>
      </trkpt>
      <trkpt lat="49.42467" lon="-1.25442">
        <ele>25</ele>
        <time>2020-06-15T16:58:06Z</time>
      </trkpt>
      <trkpt lat="49.42464" lon="-1.2545">
        <ele>25</ele>
        <time>2020-06-15T16:58:07Z</time>
      </trkpt>
      <trkpt lat="49.42461" lon="-1.25456">
        <ele>25</ele>
        <time>2020-06-15T16:58:08Z</time>
      </trkpt>
      <trkpt lat="49.42458" lon="-1.25463">
        <ele>25.2</ele>
        <time>2020-06-15T16:58:09Z</time>
      </trkpt>
      <trkpt lat="49.42456" lon="-1.25471">
        <ele>25.3</ele>
        <time>2020-06-15T16:58:10Z</time>
      </trkpt>
      <trkpt lat="49.42454" lon="-1.25479">
        <ele>25.5</ele>
        <time>2020-06-15T16:58:11Z</time>
      </trkpt>
      <trkpt lat="49.42449" lon="-1.25488">
        <ele>25.7</ele>
        <time>2020-06-15T16:58:12Z</time>
      </trkpt>
      <trkpt lat="49.42445" lon="-1.25496">
        <ele>25.8</ele>
        <time>2020-06-15T16:58:13Z</time>
      </trkpt>
      <trkpt lat="49.4244" lon="-1.25505">
        <ele>26</ele>
        <time>2020-06-15T16:58:14Z</time>
      </trkpt>
      <trkpt lat="49.42437" lon="-1.25513">
        <ele>26.1</ele>
        <time>2020-06-15T16:58:15Z</time>
      </trkpt>
      <trkpt lat="49.42433" lon="-1.2552">
        <ele>26.2</ele>
        <time>2020-06-15T16:58:16Z</time>
      </trkpt>
      <trkpt lat="49.4243" lon="-1.25528">
        <ele>26.4</ele>
        <time>2020-06-15T16:58:17Z</time>
      </trkpt>
      <trkpt lat="49.42427" lon="-1.25535">
        <ele>26.5</ele>
        <time>2020-06-15T16:58:18Z</time>
      </trkpt>
      <trkpt lat="49.42424" lon="-1.25542">
        <ele>26.7</ele>
        <time>2020-06-15T16:58:19Z</time>
      </trkpt>
      <trkpt lat="49.42421" lon="-1.25549">
        <ele>26.8</ele>
        <time>2020-06-15T16:58:20Z</time>
      </trkpt>
      <trkpt lat="49.42418" lon="-1.25558">
        <ele>27</ele>
        <time>2020-06-15T16:58:21Z</time>
      </trkpt>
      <trkpt lat="49.42415" lon="-1.25566">
        <ele>27</ele>
        <time>2020-06-15T16:58:22Z</time>
      </trkpt>
      <trkpt lat="49.42412" lon="-1.25573">
        <ele>27</ele>
        <time>2020-06-15T16:58:23Z</time>
      </trkpt>
      <trkpt lat="49.4241" lon="-1.2558">
        <ele>27</ele>
        <time>2020-06-15T16:58:24Z</time>
      </trkpt>
      <trkpt lat="49.42407" lon="-1.25588">
        <ele>27</ele>
        <time>2020-06-15T16:58:25Z</time>
      </trkpt>
      <trkpt lat="49.42404" lon="-1.25595">
        <ele>27.1</ele>
        <time>2020-06-15T16:58:26Z</time>
      </trkpt>
      <trkpt lat="49.424" lon="-1.25603">
        <ele>27.1</ele>
        <time>2020-06-15T16:58:27Z</time>
      </trkpt>
      <trkpt lat="49.42396" lon="-1.2561">
        <ele>27.1</ele>
        <time>2020-06-15T16:58:28Z</time>
      </trkpt>
      <trkpt lat="49.42393" lon="-1.25618">
        <ele>27.1</ele>
        <time>2020-06-15T16:58:29Z</time>
      </trkpt>
      <trkpt lat="49.4239" lon="-1.25626">
        <ele>27.2</ele>
        <time>2020-06-15T16:58:30Z</time>
      </trkpt>
      <trkpt lat="49.42386" lon="-1.25633">
        <ele>27.3</ele>
        <time>2020-06-15T16:58:31Z</time>
      </trkpt>
      <trkpt lat="49.42383" lon="-1.25641">
        <ele>27.5</ele>
        <time>2020-06-15T16:58:32Z</time>
      </trkpt>
      <trkpt lat="49.4238" lon="-1.25647">
        <ele>27.6</ele>
        <time>2020-06-15T16:58:33Z</time>
      </trkpt>
      <trkpt lat="49.42378" lon="-1.25654">
        <ele>27.6</ele>
        <time>2020-06-15T16:58:34Z</time>
      </trkpt>
      <trkpt lat="49.42375" lon="-1.2566">
        <ele>27.7</ele>
        <time>2020-06-15T16:58:35Z</time>
      </trkpt>
      <trkpt lat="49.42373" lon="-1.25666">
        <ele>27.7</ele>
        <time>2020-06-15T16:58:36Z</time>
      </trkpt>
      <trkpt lat="49.42372" lon="-1.2567">
        <ele>27.7</ele>
        <time>2020-06-15T16:58:37Z</time>
      </trkpt>
      <trkpt lat="49.42369" lon="-1.25675">
        <ele>27.8</ele>
        <time>2020-06-15T16:58:38Z</time>
      </trkpt>
      <trkpt lat="49.42366" lon="-1.25681">
        <ele>27.8</ele>
        <time>2020-06-15T16:58:39Z</time>
      </trkpt>
      <trkpt lat="49.42363" lon="-1.25687">
        <ele>27.9</ele>
        <time>2020-06-15T16:58:40Z</time>
      </trkpt>
      <trkpt lat="49.42359" lon="-1.25692">
        <ele>28</ele>
        <time>2020-06-15T16:58:41Z</time>
      </trkpt>
      <trkpt lat="49.42354" lon="-1.25699">
        <ele>28.1</ele>
        <time>2020-06-15T16:58:42Z</time>
      </trkpt>
      <trkpt lat="49.42349" lon="-1.25706">
        <ele>28.1</ele>
        <time>2020-06-15T16:58:43Z</time>
      </trkpt>
      <trkpt lat="49.42345" lon="-1.25712">
        <ele>28.1</ele>
        <time>2020-06-15T16:58:44Z</time>
      </trkpt>
      <trkpt lat="49.42341" lon="-1.25717">
        <ele>28.1</ele>
        <time>2020-06-15T16:58:45Z</time>
      </trkpt>
      <trkpt lat="49.42337" lon="-1.25723">
        <ele>28.1</ele>
        <time>2020-06-15T16:58:46Z</time>
      </trkpt>
      <trkpt lat="49.42332" lon="-1.2573">
        <ele>28.1</ele>
        <time>2020-06-15T16:58:47Z</time>
      </trkpt>
      <trkpt lat="49.42328" lon="-1.25735">
        <ele>28.1</ele>
        <time>2020-06-15T16:58:48Z</time>
      </trkpt>
      <trkpt lat="49.42324" lon="-1.25742">
        <ele>28.2</ele>
        <time>2020-06-15T16:58:49Z</time>
      </trkpt>
      <trkpt lat="49.4232" lon="-1.25747">
        <ele>28.3</ele>
        <time>2020-06-15T16:58:50Z</time>
      </trkpt>
      <trkpt lat="49.42317" lon="-1.25753">
        <ele>28.4</ele>
        <time>2020-06-15T16:58:51Z</time>
      </trkpt>
      <trkpt lat="49.42314" lon="-1.25758">
        <ele>28.4</ele>
        <time>2020-06-15T16:58:52Z</time>
      </trkpt>
      <trkpt lat="49.42311" lon="-1.25765">
        <ele>28.5</ele>
        <time>2020-06-15T16:58:53Z</time>
      </trkpt>
      <trkpt lat="49.42308" lon="-1.25771">
        <ele>28.5</ele>
        <time>2020-06-15T16:58:54Z</time>
      </trkpt>
      <trkpt lat="49.42305" lon="-1.25778">
        <ele>28.6</ele>
        <time>2020-06-15T16:58:55Z</time>
      </trkpt>
      <trkpt lat="49.42301" lon="-1.25785">
        <ele>28.5</ele>
        <time>2020-06-15T16:58:56Z</time>
      </trkpt>
      <trkpt lat="49.42298" lon="-1.25792">
        <ele>28.5</ele>
        <time>2020-06-15T16:58:57Z</time>
      </trkpt>
      <trkpt lat="49.42295" lon="-1.25797">
        <ele>28.5</ele>
        <time>2020-06-15T16:58:58Z</time>
      </trkpt>
      <trkpt lat="49.42293" lon="-1.25803">
        <ele>28.5</ele>
        <time>2020-06-15T16:58:59Z</time>
      </trkpt>
      <trkpt lat="49.42291" lon="-1.25808">
        <ele>28.5</ele>
        <time>2020-06-15T16:59:00Z</time>
      </trkpt>
      <trkpt lat="49.4229" lon="-1.25813">
        <ele>28.5</ele>
        <time>2020-06-15T16:59:01Z</time>
      </trkpt>
      <trkpt lat="49.42289" lon="-1.25819">
        <ele>28.6</ele>
        <time>2020-06-15T16:59:02Z</time>
      </trkpt>
      <trkpt lat="49.42288" lon="-1.25826">
        <ele>28.7</ele>
        <time>2020-06-15T16:59:03Z</time>
      </trkpt>
      <trkpt lat="49.42286" lon="-1.25833">
        <ele>28.9</ele>
        <time>2020-06-15T16:59:04Z</time>
      </trkpt>
      <trkpt lat="49.42285" lon="-1.2584">
        <ele>29.1</ele>
        <time>2020-06-15T16:59:05Z</time>
      </trkpt>
      <trkpt lat="49.42284" lon="-1.25847">
        <ele>29.3</ele>
        <time>2020-06-15T16:59:06Z</time>
      </trkpt>
      <trkpt lat="49.42283" lon="-1.25852">
        <ele>29.3</ele>
        <time>2020-06-15T16:59:07Z</time>
      </trkpt>
      <trkpt lat="49.42282" lon="-1.25858">
        <ele>29.4</ele>
        <time>2020-06-15T16:59:08Z</time>
      </trkpt>
      <trkpt lat="49.42282" lon="-1.25864">
        <ele>29.4</ele>
        <time>2020-06-15T16:59:09Z</time>
      </trkpt>
      <trkpt lat="49.42282" lon="-1.2587">
        <ele>29.5</ele>
        <time>2020-06-15T16:59:10Z</time>
      </trkpt>
      <trkpt lat="49.42281" lon="-1.25876">
        <ele>29.6</ele>
        <time>2020-06-15T16:59:11Z</time>
      </trkpt>
      <trkpt lat="49.4228" lon="-1.25882">
        <ele>29.6</ele>
        <time>2020-06-15T16:59:12Z</time>
      </trkpt>
      <trkpt lat="49.42279" lon="-1.25889">
        <ele>29.7</ele>
        <time>2020-06-15T16:59:13Z</time>
      </trkpt>
      <trkpt lat="49.42278" lon="-1.25896">
        <ele>29.8</ele>
        <time>2020-06-15T16:59:14Z</time>
      </trkpt>
      <trkpt lat="49.42277" lon="-1.25904">
        <ele>29.7</ele>
        <time>2020-06-15T16:59:15Z</time>
      </trkpt>
      <trkpt lat="49.42276" lon="-1.2591">
        <ele>29.7</ele>
        <time>2020-06-15T16:59:16Z</time>
      </trkpt>
      <trkpt lat="49.42275" lon="-1.25919">
        <ele>29.6</ele>
        <time>2020-06-15T16:59:17Z</time>
      </trkpt>
      <trkpt lat="49.42273" lon="-1.25927">
        <ele>29.6</ele>
        <time>2020-06-15T16:59:18Z</time>
      </trkpt>
      <trkpt lat="49.42272" lon="-1.25935">
        <ele>29.6</ele>
        <time>2020-06-15T16:59:19Z</time>
      </trkpt>
      <trkpt lat="49.4227" lon="-1.25944">
        <ele>29.7</ele>
        <time>2020-06-15T16:59:20Z</time>
      </trkpt>
      <trkpt lat="49.42268" lon="-1.25952">
        <ele>29.8</ele>
        <time>2020-06-15T16:59:21Z</time>
      </trkpt>
      <trkpt lat="49.42267" lon="-1.2596">
        <ele>29.9</ele>
        <time>2020-06-15T16:59:22Z</time>
      </trkpt>
      <trkpt lat="49.42265" lon="-1.25968">
        <ele>30.1</ele>
        <time>2020-06-15T16:59:23Z</time>
      </trkpt>
      <trkpt lat="49.42264" lon="-1.25977">
        <ele>30.2</ele>
        <time>2020-06-15T16:59:24Z</time>
      </trkpt>
      <trkpt lat="49.42262" lon="-1.25987">
        <ele>30.3</ele>
        <time>2020-06-15T16:59:25Z</time>
      </trkpt>
      <trkpt lat="49.42261" lon="-1.25996">
        <ele>30.4</ele>
        <time>2020-06-15T16:59:26Z</time>
      </trkpt>
      <trkpt lat="49.4226" lon="-1.26005">
        <ele>30.5</ele>
        <time>2020-06-15T16:59:27Z</time>
      </trkpt>
      <trkpt lat="49.42259" lon="-1.26012">
        <ele>30.6</ele>
        <time>2020-06-15T16:59:28Z</time>
      </trkpt>
      <trkpt lat="49.42258" lon="-1.2602">
        <ele>30.6</ele>
        <time>2020-06-15T16:59:29Z</time>
      </trkpt>
      <trkpt lat="49.42256" lon="-1.26029">
        <ele>30.7</ele>
        <time>2020-06-15T16:59:30Z</time>
      </trkpt>
      <trkpt lat="49.42255" lon="-1.26037">
        <ele>30.7</ele>
        <time>2020-06-15T16:59:31Z</time>
      </trkpt>
      <trkpt lat="49.42253" lon="-1.26047">
        <ele>30.7</ele>
        <time>2020-06-15T16:59:32Z</time>
      </trkpt>
      <trkpt lat="49.42251" lon="-1.26057">
        <ele>30.7</ele>
        <time>2020-06-15T16:59:33Z</time>
      </trkpt>
      <trkpt lat="49.4225" lon="-1.26066">
        <ele>30.6</ele>
        <time>2020-06-15T16:59:34Z</time>
      </trkpt>
      <trkpt lat="49.42249" lon="-1.26075">
        <ele>30.6</ele>
        <time>2020-06-15T16:59:35Z</time>
      </trkpt>
      <trkpt lat="49.42247" lon="-1.26084">
        <ele>30.5</ele>
        <time>2020-06-15T16:59:36Z</time>
      </trkpt>
      <trkpt lat="49.42245" lon="-1.26094">
        <ele>30.5</ele>
        <time>2020-06-15T16:59:37Z</time>
      </trkpt>
      <trkpt lat="49.42243" lon="-1.26102">
        <ele>30.5</ele>
        <time>2020-06-15T16:59:38Z</time>
      </trkpt>
      <trkpt lat="49.42241" lon="-1.26111">
        <ele>30.5</ele>
        <time>2020-06-15T16:59:39Z</time>
      </trkpt>
      <trkpt lat="49.4224" lon="-1.26119">
        <ele>30.6</ele>
        <time>2020-06-15T16:59:40Z</time>
      </trkpt>
      <trkpt lat="49.42238" lon="-1.26128">
        <ele>30.6</ele>
        <time>2020-06-15T16:59:41Z</time>
      </trkpt>
      <trkpt lat="49.42237" lon="-1.26136">
        <ele>30.6</ele>
        <time>2020-06-15T16:59:42Z</time>
      </trkpt>
      <trkpt lat="49.42236" lon="-1.26146">
        <ele>30.7</ele>
        <time>2020-06-15T16:59:43Z</time>
      </trkpt>
      <trkpt lat="49.42234" lon="-1.26154">
        <ele>30.7</ele>
        <time>2020-06-15T16:59:44Z</time>
      </trkpt>
      <trkpt lat="49.42232" lon="-1.26163">
        <ele>30.8</ele>
        <time>2020-06-15T16:59:45Z</time>
      </trkpt>
      <trkpt lat="49.4223" lon="-1.26171">
        <ele>30.9</ele>
        <time>2020-06-15T16:59:46Z</time>
      </trkpt>
      <trkpt lat="49.42227" lon="-1.26178">
        <ele>31.1</ele>
        <time>2020-06-15T16:59:47Z</time>
      </trkpt>
      <trkpt lat="49.42225" lon="-1.26185">
        <ele>31.2</ele>
        <time>2020-06-15T16:59:48Z</time>
      </trkpt>
      <trkpt lat="49.42224" lon="-1.26191">
        <ele>31.3</ele>
        <time>2020-06-15T16:59:49Z</time>
      </trkpt>
      <trkpt lat="49.42222" lon="-1.26197">
        <ele>31.4</ele>
        <time>2020-06-15T16:59:50Z</time>
      </trkpt>
      <trkpt lat="49.42219" lon="-1.26204">
        <ele>31.5</ele>
        <time>2020-06-15T16:59:51Z</time>
      </trkpt>
      <trkpt lat="49.42217" lon="-1.2621">
        <ele>31.6</ele>
        <time>2020-06-15T16:59:52Z</time>
      </trkpt>
      <trkpt lat="49.42215" lon="-1.26215">
        <ele>31.7</ele>
        <time>2020-06-15T16:59:53Z</time>
      </trkpt>
      <trkpt lat="49.42213" lon="-1.26221">
        <ele>31.7</ele>
        <time>2020-06-15T16:59:54Z</time>
      </trkpt>
      <trkpt lat="49.42211" lon="-1.26227">
        <ele>31.8</ele>
        <time>2020-06-15T16:59:55Z</time>
      </trkpt>
      <trkpt lat="49.42207" lon="-1.26235">
        <ele>31.8</ele>
        <time>2020-06-15T16:59:56Z</time>
      </trkpt>
      <trkpt lat="49.42205" lon="-1.26242">
        <ele>31.9</ele>
        <time>2020-06-15T16:59:57Z</time>
      </trkpt>
      <trkpt lat="49.42202" lon="-1.26249">
        <ele>31.9</ele>
        <time>2020-06-15T16:59:58Z</time>
      </trkpt>
      <trkpt lat="49.42199" lon="-1.26257">
        <ele>31.9</ele>
        <time>2020-06-15T16:59:59Z</time>
      </trkpt>
      <trkpt lat="49.42197" lon="-1.26265">
        <ele>31.9</ele>
        <time>2020-06-15T17:00:00Z</time>
      </trkpt>
      <trkpt lat="49.42195" lon="-1.26272">
        <ele>31.9</ele>
        <time>2020-06-15T17:00:01Z</time>
      </trkpt>
      <trkpt lat="49.42193" lon="-1.2628">
        <ele>31.9</ele>
        <time>2020-06-15T17:00:02Z</time>
      </trkpt>
      <trkpt lat="49.42192" lon="-1.26288">
        <ele>31.9</ele>
        <time>2020-06-15T17:00:03Z</time>
      </trkpt>
      <trkpt lat="49.4219" lon="-1.26296">
        <ele>32</ele>
        <time>2020-06-15T17:00:04Z</time>
      </trkpt>
      <trkpt lat="49.42189" lon="-1.26303">
        <ele>32</ele>
        <time>2020-06-15T17:00:05Z</time>
      </trkpt>
      <trkpt lat="49.42187" lon="-1.26311">
        <ele>32.1</ele>
        <time>2020-06-15T17:00:06Z</time>
      </trkpt>
      <trkpt lat="49.42186" lon="-1.26319">
        <ele>32.1</ele>
        <time>2020-06-15T17:00:07Z</time>
      </trkpt>
      <trkpt lat="49.42186" lon="-1.26329">
        <ele>32.2</ele>
        <time>2020-06-15T17:00:08Z</time>
      </trkpt>
      <trkpt lat="49.42184" lon="-1.26339">
        <ele>32.3</ele>
        <time>2020-06-15T17:00:09Z</time>
      </trkpt>
      <trkpt lat="49.42184" lon="-1.26347">
        <ele>32.3</ele>
        <time>2020-06-15T17:00:10Z</time>
      </trkpt>
      <trkpt lat="49.42183" lon="-1.26355">
        <ele>32.4</ele>
        <time>2020-06-15T17:00:11Z</time>
      </trkpt>
      <trkpt lat="49.42182" lon="-1.26363">
        <ele>32.5</ele>
        <time>2020-06-15T17:00:12Z</time>
      </trkpt>
      <trkpt lat="49.42181" lon="-1.26372">
        <ele>32.7</ele>
        <time>2020-06-15T17:00:13Z</time>
      </trkpt>
      <trkpt lat="49.42179" lon="-1.26381">
        <ele>33</ele>
        <time>2020-06-15T17:00:14Z</time>
      </trkpt>
      <trkpt lat="49.42177" lon="-1.2639">
        <ele>33.2</ele>
        <time>2020-06-15T17:00:15Z</time>
      </trkpt>
      <trkpt lat="49.42176" lon="-1.26398">
        <ele>33.3</ele>
        <time>2020-06-15T17:00:16Z</time>
      </trkpt>
      <trkpt lat="49.42174" lon="-1.26408">
        <ele>33.4</ele>
        <time>2020-06-15T17:00:17Z</time>
      </trkpt>
      <trkpt lat="49.42173" lon="-1.26417">
        <ele>33.5</ele>
        <time>2020-06-15T17:00:18Z</time>
      </trkpt>
      <trkpt lat="49.42172" lon="-1.26427">
        <ele>33.5</ele>
        <time>2020-06-15T17:00:19Z</time>
      </trkpt>
      <trkpt lat="49.42171" lon="-1.26434">
        <ele>33.6</ele>
        <time>2020-06-15T17:00:20Z</time>
      </trkpt>
      <trkpt lat="49.42169" lon="-1.26442">
        <ele>33.7</ele>
        <time>2020-06-15T17:00:21Z</time>
      </trkpt>
      <trkpt lat="49.42167" lon="-1.26448">
        <ele>33.7</ele>
        <time>2020-06-15T17:00:22Z</time>
      </trkpt>
      <trkpt lat="49.42166" lon="-1.26455">
        <ele>33.7</ele>
        <time>2020-06-15T17:00:23Z</time>
      </trkpt>
      <trkpt lat="49.42164" lon="-1.26463">
        <ele>33.8</ele>
        <time>2020-06-15T17:00:24Z</time>
      </trkpt>
      <trkpt lat="49.42163" lon="-1.26471">
        <ele>33.9</ele>
        <time>2020-06-15T17:00:25Z</time>
      </trkpt>
      <trkpt lat="49.42162" lon="-1.26478">
        <ele>34</ele>
        <time>2020-06-15T17:00:26Z</time>
      </trkpt>
      <trkpt lat="49.4216" lon="-1.26486">
        <ele>34</ele>
        <time>2020-06-15T17:00:27Z</time>
      </trkpt>
      <trkpt lat="49.42159" lon="-1.26492">
        <ele>34.1</ele>
        <time>2020-06-15T17:00:28Z</time>
      </trkpt>
      <trkpt lat="49.42157" lon="-1.26499">
        <ele>34.1</ele>
        <time>2020-06-15T17:00:29Z</time>
      </trkpt>
      <trkpt lat="49.42155" lon="-1.26506">
        <ele>34.2</ele>
        <time>2020-06-15T17:00:30Z</time>
      </trkpt>
      <trkpt lat="49.42154" lon="-1.26514">
        <ele>34.2</ele>
        <time>2020-06-15T17:00:31Z</time>
      </trkpt>
      <trkpt lat="49.42152" lon="-1.26521">
        <ele>34.3</ele>
        <time>2020-06-15T17:00:32Z</time>
      </trkpt>
      <trkpt lat="49.4215" lon="-1.26529">
        <ele>34.4</ele>
        <time>2020-06-15T17:00:33Z</time>
      </trkpt>
      <trkpt lat="49.42148" lon="-1.26537">
        <ele>34.4</ele>
        <time>2020-06-15T17:00:34Z</time>
      </trkpt>
      <trkpt lat="49.42145" lon="-1.26547">
        <ele>34.5</ele>
        <time>2020-06-15T17:00:35Z</time>
      </trkpt>
      <trkpt lat="49.42143" lon="-1.26555">
        <ele>34.6</ele>
        <time>2020-06-15T17:00:36Z</time>
      </trkpt>
      <trkpt lat="49.42141" lon="-1.26562">
        <ele>34.8</ele>
        <time>2020-06-15T17:00:37Z</time>
      </trkpt>
      <trkpt lat="49.42139" lon="-1.26567">
        <ele>34.9</ele>
        <time>2020-06-15T17:00:38Z</time>
      </trkpt>
      <trkpt lat="49.42138" lon="-1.26573">
        <ele>35</ele>
        <time>2020-06-15T17:00:39Z</time>
      </trkpt>
      <trkpt lat="49.42136" lon="-1.26577">
        <ele>35</ele>
        <time>2020-06-15T17:00:40Z</time>
      </trkpt>
      <trkpt lat="49.42134" lon="-1.26582">
        <ele>35.1</ele>
        <time>2020-06-15T17:00:41Z</time>
      </trkpt>
      <trkpt lat="49.42132" lon="-1.26587">
        <ele>35.1</ele>
        <time>2020-06-15T17:00:42Z</time>
      </trkpt>
      <trkpt lat="49.4213" lon="-1.26594">
        <ele>35.1</ele>
        <time>2020-06-15T17:00:43Z</time>
      </trkpt>
      <trkpt lat="49.42129" lon="-1.26601">
        <ele>35.2</ele>
        <time>2020-06-15T17:00:44Z</time>
      </trkpt>
      <trkpt lat="49.42128" lon="-1.2661">
        <ele>35.2</ele>
        <time>2020-06-15T17:00:45Z</time>
      </trkpt>
      <trkpt lat="49.42125" lon="-1.26617">
        <ele>35.3</ele>
        <time>2020-06-15T17:00:46Z</time>
      </trkpt>
      <trkpt lat="49.42121" lon="-1.26623">
        <ele>35.3</ele>
        <time>2020-06-15T17:00:47Z</time>
      </trkpt>
      <trkpt lat="49.42118" lon="-1.26629">
        <ele>35.4</ele>
        <time>2020-06-15T17:00:48Z</time>
      </trkpt>
      <trkpt lat="49.42114" lon="-1.26635">
        <ele>35.4</ele>
        <time>2020-06-15T17:00:49Z</time>
      </trkpt>
      <trkpt lat="49.42113" lon="-1.26644">
        <ele>35.5</ele>
        <time>2020-06-15T17:00:50Z</time>
      </trkpt>
      <trkpt lat="49.42111" lon="-1.2665">
        <ele>35.6</ele>
        <time>2020-06-15T17:00:51Z</time>
      </trkpt>
      <trkpt lat="49.42109" lon="-1.26656">
        <ele>35.7</ele>
        <time>2020-06-15T17:00:52Z</time>
      </trkpt>
      <trkpt lat="49.42107" lon="-1.26662">
        <ele>35.7</ele>
        <time>2020-06-15T17:00:53Z</time>
      </trkpt>
      <trkpt lat="49.42105" lon="-1.26669">
        <ele>35.7</ele>
        <time>2020-06-15T17:00:54Z</time>
      </trkpt>
      <trkpt lat="49.42103" lon="-1.26675">
        <ele>35.7</ele>
        <time>2020-06-15T17:00:55Z</time>
      </trkpt>
      <trkpt lat="49.421" lon="-1.26682">
        <ele>35.7</ele>
        <time>2020-06-15T17:00:56Z</time>
      </trkpt>
      <trkpt lat="49.42097" lon="-1.26689">
        <ele>35.7</ele>
        <time>2020-06-15T17:00:57Z</time>
      </trkpt>
      <trkpt lat="49.42095" lon="-1.26697">
        <ele>35.7</ele>
        <time>2020-06-15T17:00:58Z</time>
      </trkpt>
      <trkpt lat="49.42091" lon="-1.26704">
        <ele>35.7</ele>
        <time>2020-06-15T17:00:59Z</time>
      </trkpt>
      <trkpt lat="49.42088" lon="-1.2671">
        <ele>35.7</ele>
        <time>2020-06-15T17:01:00Z</time>
      </trkpt>
      <trkpt lat="49.42085" lon="-1.26716">
        <ele>35.7</ele>
        <time>2020-06-15T17:01:01Z</time>
      </trkpt>
      <trkpt lat="49.42081" lon="-1.26723">
        <ele>35.7</ele>
        <time>2020-06-15T17:01:02Z</time>
      </trkpt>
      <trkpt lat="49.42078" lon="-1.2673">
        <ele>35.7</ele>
        <time>2020-06-15T17:01:03Z</time>
      </trkpt>
      <trkpt lat="49.42074" lon="-1.26738">
        <ele>35.7</ele>
        <time>2020-06-15T17:01:04Z</time>
      </trkpt>
      <trkpt lat="49.4207" lon="-1.26744">
        <ele>35.7</ele>
        <time>2020-06-15T17:01:05Z</time>
      </trkpt>
      <trkpt lat="49.42066" lon="-1.2675">
        <ele>35.8</ele>
        <time>2020-06-15T17:01:06Z</time>
      </trkpt>
      <trkpt lat="49.42062" lon="-1.26755">
        <ele>35.8</ele>
        <time>2020-06-15T17:01:07Z</time>
      </trkpt>
      <trkpt lat="49.42058" lon="-1.26762">
        <ele>35.8</ele>
        <time>2020-06-15T17:01:08Z</time>
      </trkpt>
      <trkpt lat="49.42054" lon="-1.26769">
        <ele>35.7</ele>
        <time>2020-06-15T17:01:09Z</time>
      </trkpt>
      <trkpt lat="49.4205" lon="-1.26776">
        <ele>35.7</ele>
        <time>2020-06-15T17:01:10Z</time>
      </trkpt>
      <trkpt lat="49.42044" lon="-1.26784">
        <ele>35.7</ele>
        <time>2020-06-15T17:01:11Z</time>
      </trkpt>
      <trkpt lat="49.42039" lon="-1.26791">
        <ele>35.6</ele>
        <time>2020-06-15T17:01:12Z</time>
      </trkpt>
      <trkpt lat="49.42035" lon="-1.26798">
        <ele>35.6</ele>
        <time>2020-06-15T17:01:13Z</time>
      </trkpt>
      <trkpt lat="49.42031" lon="-1.26807">
        <ele>35.5</ele>
        <time>2020-06-15T17:01:14Z</time>
      </trkpt>
      <trkpt lat="49.42027" lon="-1.26815">
        <ele>35.5</ele>
        <time>2020-06-15T17:01:15Z</time>
      </trkpt>
      <trkpt lat="49.42023" lon="-1.26822">
        <ele>35.6</ele>
        <time>2020-06-15T17:01:16Z</time>
      </trkpt>
      <trkpt lat="49.4202" lon="-1.26831">
        <ele>35.6</ele>
        <time>2020-06-15T17:01:17Z</time>
      </trkpt>
      <trkpt lat="49.42017" lon="-1.2684">
        <ele>35.7</ele>
        <time>2020-06-15T17:01:18Z</time>
      </trkpt>
      <trkpt lat="49.42015" lon="-1.26846">
        <ele>35.8</ele>
        <time>2020-06-15T17:01:19Z</time>
      </trkpt>
      <trkpt lat="49.42011" lon="-1.26854">
        <ele>35.9</ele>
        <time>2020-06-15T17:01:20Z</time>
      </trkpt>
      <trkpt lat="49.42007" lon="-1.26864">
        <ele>36</ele>
        <time>2020-06-15T17:01:21Z</time>
      </trkpt>
      <trkpt lat="49.42003" lon="-1.26872">
        <ele>36.1</ele>
        <time>2020-06-15T17:01:22Z</time>
      </trkpt>
      <trkpt lat="49.42" lon="-1.26879">
        <ele>36.2</ele>
        <time>2020-06-15T17:01:23Z</time>
      </trkpt>
      <trkpt lat="49.41998" lon="-1.26886">
        <ele>36.2</ele>
        <time>2020-06-15T17:01:24Z</time>
      </trkpt>
      <trkpt lat="49.41997" lon="-1.26892">
        <ele>36.3</ele>
        <time>2020-06-15T17:01:25Z</time>
      </trkpt>
      <trkpt lat="49.41994" lon="-1.26898">
        <ele>36.3</ele>
        <time>2020-06-15T17:01:26Z</time>
      </trkpt>
      <trkpt lat="49.41992" lon="-1.26906">
        <ele>36.4</ele>
        <time>2020-06-15T17:01:27Z</time>
      </trkpt>
      <trkpt lat="49.41989" lon="-1.26913">
        <ele>36.5</ele>
        <time>2020-06-15T17:01:28Z</time>
      </trkpt>
      <trkpt lat="49.41985" lon="-1.26921">
        <ele>36.7</ele>
        <time>2020-06-15T17:01:29Z</time>
      </trkpt>
      <trkpt lat="49.41981" lon="-1.26928">
        <ele>36.9</ele>
        <time>2020-06-15T17:01:30Z</time>
      </trkpt>
      <trkpt lat="49.41976" lon="-1.26935">
        <ele>36.9</ele>
        <time>2020-06-15T17:01:31Z</time>
      </trkpt>
      <trkpt lat="49.41971" lon="-1.26941">
        <ele>36.9</ele>
        <time>2020-06-15T17:01:32Z</time>
      </trkpt>
      <trkpt lat="49.41965" lon="-1.26948">
        <ele>36.9</ele>
        <time>2020-06-15T17:01:33Z</time>
      </trkpt>
      <trkpt lat="49.4196" lon="-1.26955">
        <ele>36.9</ele>
        <time>2020-06-15T17:01:34Z</time>
      </trkpt>
      <trkpt lat="49.41957" lon="-1.2696">
        <ele>36.9</ele>
        <time>2020-06-15T17:01:35Z</time>
      </trkpt>
      <trkpt lat="49.41954" lon="-1.26966">
        <ele>36.9</ele>
        <time>2020-06-15T17:01:36Z</time>
      </trkpt>
      <trkpt lat="49.4195" lon="-1.26971">
        <ele>36.9</ele>
        <time>2020-06-15T17:01:37Z</time>
      </trkpt>
      <trkpt lat="49.41944" lon="-1.26978">
        <ele>36.8</ele>
        <time>2020-06-15T17:01:38Z</time>
      </trkpt>
      <trkpt lat="49.4194" lon="-1.26983">
        <ele>36.8</ele>
        <time>2020-06-15T17:01:39Z</time>
      </trkpt>
      <trkpt lat="49.41934" lon="-1.26989">
        <ele>36.8</ele>
        <time>2020-06-15T17:01:40Z</time>
      </trkpt>
      <trkpt lat="49.41928" lon="-1.26995">
        <ele>36.7</ele>
        <time>2020-06-15T17:01:41Z</time>
      </trkpt>
      <trkpt lat="49.41922" lon="-1.27001">
        <ele>36.7</ele>
        <time>2020-06-15T17:01:42Z</time>
      </trkpt>
      <trkpt lat="49.41916" lon="-1.27006">
        <ele>36.8</ele>
        <time>2020-06-15T17:01:43Z</time>
      </trkpt>
      <trkpt lat="49.41911" lon="-1.27011">
        <ele>36.7</ele>
        <time>2020-06-15T17:01:44Z</time>
      </trkpt>
      <trkpt lat="49.41906" lon="-1.27016">
        <ele>36.6</ele>
        <time>2020-06-15T17:01:45Z</time>
      </trkpt>
      <trkpt lat="49.419" lon="-1.27022">
        <ele>36.5</ele>
        <time>2020-06-15T17:01:46Z</time>
      </trkpt>
      <trkpt lat="49.41895" lon="-1.27028">
        <ele>36.4</ele>
        <time>2020-06-15T17:01:47Z</time>
      </trkpt>
      <trkpt lat="49.4189" lon="-1.27035">
        <ele>36.3</ele>
        <time>2020-06-15T17:01:48Z</time>
      </trkpt>
      <trkpt lat="49.41885" lon="-1.27042">
        <ele>36.1</ele>
        <time>2020-06-15T17:01:49Z</time>
      </trkpt>
      <trkpt lat="49.41879" lon="-1.2705">
        <ele>35.8</ele>
        <time>2020-06-15T17:01:50Z</time>
      </trkpt>
      <trkpt lat="49.41873" lon="-1.27057">
        <ele>35.6</ele>
        <time>2020-06-15T17:01:51Z</time>
      </trkpt>
      <trkpt lat="49.41867" lon="-1.27063">
        <ele>35.4</ele>
        <time>2020-06-15T17:01:52Z</time>
      </trkpt>
      <trkpt lat="49.41861" lon="-1.2707">
        <ele>35.2</ele>
        <time>2020-06-15T17:01:53Z</time>
      </trkpt>
      <trkpt lat="49.41856" lon="-1.27077">
        <ele>34.9</ele>
        <time>2020-06-15T17:01:54Z</time>
      </trkpt>
      <trkpt lat="49.4185" lon="-1.27085">
        <ele>34.6</ele>
        <time>2020-06-15T17:01:55Z</time>
      </trkpt>
      <trkpt lat="49.41843" lon="-1.27095">
        <ele>34.5</ele>
        <time>2020-06-15T17:01:56Z</time>
      </trkpt>
      <trkpt lat="49.41836" lon="-1.27104">
        <ele>34.4</ele>
        <time>2020-06-15T17:01:57Z</time>
      </trkpt>
      <trkpt lat="49.4183" lon="-1.27114">
        <ele>34.3</ele>
        <time>2020-06-15T17:01:58Z</time>
      </trkpt>
      <trkpt lat="49.41824" lon="-1.27123">
        <ele>34.2</ele>
        <time>2020-06-15T17:01:59Z</time>
      </trkpt>
      <trkpt lat="49.41818" lon="-1.27131">
        <ele>34.1</ele>
        <time>2020-06-15T17:02:00Z</time>
      </trkpt>
      <trkpt lat="49.41814" lon="-1.27139">
        <ele>34.1</ele>
        <time>2020-06-15T17:02:01Z</time>
      </trkpt>
      <trkpt lat="49.41808" lon="-1.27147">
        <ele>34.1</ele>
        <time>2020-06-15T17:02:02Z</time>
      </trkpt>
      <trkpt lat="49.41803" lon="-1.27154">
        <ele>34.1</ele>
        <time>2020-06-15T17:02:03Z</time>
      </trkpt>
      <trkpt lat="49.418" lon="-1.2716">
        <ele>33.9</ele>
        <time>2020-06-15T17:02:04Z</time>
      </trkpt>
      <trkpt lat="49.41798" lon="-1.27168">
        <ele>33.3</ele>
        <time>2020-06-15T17:02:05Z</time>
      </trkpt>
      <trkpt lat="49.41797" lon="-1.27174">
        <ele>33.3</ele>
        <time>2020-06-15T17:02:06Z</time>
      </trkpt>
      <trkpt lat="49.41798" lon="-1.2718">
        <ele>33.3</ele>
        <time>2020-06-15T17:02:07Z</time>
      </trkpt>
      <trkpt lat="49.418" lon="-1.27187">
        <ele>33.3</ele>
        <time>2020-06-15T17:02:08Z</time>
      </trkpt>
      <trkpt lat="49.41801" lon="-1.27194">
        <ele>33.3</ele>
        <time>2020-06-15T17:02:09Z</time>
      </trkpt>
      <trkpt lat="49.41803" lon="-1.27202">
        <ele>33.3</ele>
        <time>2020-06-15T17:02:10Z</time>
      </trkpt>
      <trkpt lat="49.41806" lon="-1.27209">
        <ele>33.3</ele>
        <time>2020-06-15T17:02:11Z</time>
      </trkpt>
      <trkpt lat="49.41809" lon="-1.27218">
        <ele>33.4</ele>
        <time>2020-06-15T17:02:12Z</time>
      </trkpt>
      <trkpt lat="49.41812" lon="-1.27227">
        <ele>33.5</ele>
        <time>2020-06-15T17:02:13Z</time>
      </trkpt>
      <trkpt lat="49.41816" lon="-1.27235">
        <ele>33.6</ele>
        <time>2020-06-15T17:02:14Z</time>
      </trkpt>
      <trkpt lat="49.41821" lon="-1.27244">
        <ele>33.7</ele>
        <time>2020-06-15T17:02:15Z</time>
      </trkpt>
      <trkpt lat="49.41825" lon="-1.27252">
        <ele>33.8</ele>
        <time>2020-06-15T17:02:16Z</time>
      </trkpt>
      <trkpt lat="49.41829" lon="-1.27261">
        <ele>34</ele>
        <time>2020-06-15T17:02:17Z</time>
      </trkpt>
      <trkpt lat="49.41832" lon="-1.27269">
        <ele>34.1</ele>
        <time>2020-06-15T17:02:18Z</time>
      </trkpt>
      <trkpt lat="49.41836" lon="-1.27276">
        <ele>34.2</ele>
        <time>2020-06-15T17:02:19Z</time>
      </trkpt>
      <trkpt lat="49.41839" lon="-1.27283">
        <ele>34.3</ele>
        <time>2020-06-15T17:02:20Z</time>
      </trkpt>
      <trkpt lat="49.41841" lon="-1.27289">
        <ele>34.4</ele>
        <time>2020-06-15T17:02:21Z</time>
      </trkpt>
      <trkpt lat="49.41844" lon="-1.27295">
        <ele>34.6</ele>
        <time>2020-06-15T17:02:22Z</time>
      </trkpt>
      <trkpt lat="49.41847" lon="-1.27301">
        <ele>34.8</ele>
        <time>2020-06-15T17:02:23Z</time>
      </trkpt>
      <trkpt lat="49.41849" lon="-1.27307">
        <ele>34.9</ele>
        <time>2020-06-15T17:02:24Z</time>
      </trkpt>
      <trkpt lat="49.41851" lon="-1.27314">
        <ele>35.1</ele>
        <time>2020-06-15T17:02:25Z</time>
      </trkpt>
      <trkpt lat="49.41854" lon="-1.2732">
        <ele>35.3</ele>
        <time>2020-06-15T17:02:26Z</time>
      </trkpt>
      <trkpt lat="49.41858" lon="-1.27328">
        <ele>35.5</ele>
        <time>2020-06-15T17:02:27Z</time>
      </trkpt>
      <trkpt lat="49.41862" lon="-1.27335">
        <ele>35.6</ele>
        <time>2020-06-15T17:02:28Z</time>
      </trkpt>
      <trkpt lat="49.41865" lon="-1.27341">
        <ele>35.8</ele>
        <time>2020-06-15T17:02:29Z</time>
      </trkpt>
      <trkpt lat="49.41868" lon="-1.27347">
        <ele>35.9</ele>
        <time>2020-06-15T17:02:30Z</time>
      </trkpt>
      <trkpt lat="49.41872" lon="-1.27355">
        <ele>36.1</ele>
        <time>2020-06-15T17:02:31Z</time>
      </trkpt>
      <trkpt lat="49.41877" lon="-1.27361">
        <ele>36.3</ele>
        <time>2020-06-15T17:02:32Z</time>
      </trkpt>
      <trkpt lat="49.41882" lon="-1.27369">
        <ele>36.5</ele>
        <time>2020-06-15T17:02:33Z</time>
      </trkpt>
      <trkpt lat="49.41884" lon="-1.27375">
        <ele>36.6</ele>
        <time>2020-06-15T17:02:34Z</time>
      </trkpt>
      <trkpt lat="49.41887" lon="-1.27383">
        <ele>36.8</ele>
        <time>2020-06-15T17:02:35Z</time>
      </trkpt>
      <trkpt lat="49.41891" lon="-1.27389">
        <ele>37</ele>
        <time>2020-06-15T17:02:36Z</time>
      </trkpt>
      <trkpt lat="49.41894" lon="-1.27396">
        <ele>37.2</ele>
        <time>2020-06-15T17:02:37Z</time>
      </trkpt>
      <trkpt lat="49.41899" lon="-1.27403">
        <ele>37.4</ele>
        <time>2020-06-15T17:02:38Z</time>
      </trkpt>
      <trkpt lat="49.41901" lon="-1.27409">
        <ele>37.6</ele>
        <time>2020-06-15T17:02:39Z</time>
      </trkpt>
      <trkpt lat="49.41903" lon="-1.27415">
        <ele>37.8</ele>
        <time>2020-06-15T17:02:40Z</time>
      </trkpt>
      <trkpt lat="49.41906" lon="-1.27422">
        <ele>38</ele>
        <time>2020-06-15T17:02:41Z</time>
      </trkpt>
      <trkpt lat="49.41909" lon="-1.27429">
        <ele>38.1</ele>
        <time>2020-06-15T17:02:42Z</time>
      </trkpt>
      <trkpt lat="49.41912" lon="-1.27436">
        <ele>38.3</ele>
        <time>2020-06-15T17:02:43Z</time>
      </trkpt>
      <trkpt lat="49.41916" lon="-1.27443">
        <ele>38.4</ele>
        <time>2020-06-15T17:02:44Z</time>
      </trkpt>
      <trkpt lat="49.41919" lon="-1.27451">
        <ele>38.6</ele>
        <time>2020-06-15T17:02:45Z</time>
      </trkpt>
      <trkpt lat="49.41922" lon="-1.27458">
        <ele>38.7</ele>
        <time>2020-06-15T17:02:46Z</time>
      </trkpt>
      <trkpt lat="49.41924" lon="-1.27464">
        <ele>38.8</ele>
        <time>2020-06-15T17:02:47Z</time>
      </trkpt>
      <trkpt lat="49.41927" lon="-1.27471">
        <ele>38.9</ele>
        <time>2020-06-15T17:02:48Z</time>
      </trkpt>
      <trkpt lat="49.4193" lon="-1.27477">
        <ele>39</ele>
        <time>2020-06-15T17:02:49Z</time>
      </trkpt>
      <trkpt lat="49.41933" lon="-1.27483">
        <ele>39.1</ele>
        <time>2020-06-15T17:02:50Z</time>
      </trkpt>
      <trkpt lat="49.41935" lon="-1.2749">
        <ele>39.2</ele>
        <time>2020-06-15T17:02:51Z</time>
      </trkpt>
      <trkpt lat="49.41938" lon="-1.27496">
        <ele>39.3</ele>
        <time>2020-06-15T17:02:52Z</time>
      </trkpt>
      <trkpt lat="49.41941" lon="-1.27502">
        <ele>39.3</ele>
        <time>2020-06-15T17:02:53Z</time>
      </trkpt>
      <trkpt lat="49.41943" lon="-1.27509">
        <ele>39.4</ele>
        <time>2020-06-15T17:02:54Z</time>
      </trkpt>
      <trkpt lat="49.41946" lon="-1.27516">
        <ele>39.5</ele>
        <time>2020-06-15T17:02:55Z</time>
      </trkpt>
      <trkpt lat="49.41949" lon="-1.27523">
        <ele>39.6</ele>
        <time>2020-06-15T17:02:56Z</time>
      </trkpt>
      <trkpt lat="49.41951" lon="-1.2753">
        <ele>39.6</ele>
        <time>2020-06-15T17:02:57Z</time>
      </trkpt>
      <trkpt lat="49.41954" lon="-1.27538">
        <ele>39.6</ele>
        <time>2020-06-15T17:02:58Z</time>
      </trkpt>
      <trkpt lat="49.41956" lon="-1.27544">
        <ele>39.6</ele>
        <time>2020-06-15T17:02:59Z</time>
      </trkpt>
      <trkpt lat="49.41959" lon="-1.27551">
        <ele>39.6</ele>
        <time>2020-06-15T17:03:00Z</time>
      </trkpt>
      <trkpt lat="49.41962" lon="-1.27557">
        <ele>39.6</ele>
        <time>2020-06-15T17:03:01Z</time>
      </trkpt>
      <trkpt lat="49.41965" lon="-1.27564">
        <ele>39.6</ele>
        <time>2020-06-15T17:03:02Z</time>
      </trkpt>
      <trkpt lat="49.41967" lon="-1.2757">
        <ele>39.6</ele>
        <time>2020-06-15T17:03:03Z</time>
      </trkpt>
      <trkpt lat="49.4197" lon="-1.27576">
        <ele>39.6</ele>
        <time>2020-06-15T17:03:04Z</time>
      </trkpt>
      <trkpt lat="49.41973" lon="-1.27582">
        <ele>39.5</ele>
        <time>2020-06-15T17:03:05Z</time>
      </trkpt>
      <trkpt lat="49.41976" lon="-1.27589">
        <ele>39.5</ele>
        <time>2020-06-15T17:03:06Z</time>
      </trkpt>
      <trkpt lat="49.41979" lon="-1.27597">
        <ele>39.4</ele>
        <time>2020-06-15T17:03:07Z</time>
      </trkpt>
      <trkpt lat="49.41982" lon="-1.27605">
        <ele>39.2</ele>
        <time>2020-06-15T17:03:08Z</time>
      </trkpt>
      <trkpt lat="49.41986" lon="-1.27612">
        <ele>39.1</ele>
        <time>2020-06-15T17:03:09Z</time>
      </trkpt>
      <trkpt lat="49.4199" lon="-1.27618">
        <ele>39</ele>
        <time>2020-06-15T17:03:10Z</time>
      </trkpt>
      <trkpt lat="49.41995" lon="-1.27625">
        <ele>38.9</ele>
        <time>2020-06-15T17:03:11Z</time>
      </trkpt>
      <trkpt lat="49.42" lon="-1.27631">
        <ele>38.8</ele>
        <time>2020-06-15T17:03:12Z</time>
      </trkpt>
      <trkpt lat="49.42004" lon="-1.27637">
        <ele>38.7</ele>
        <time>2020-06-15T17:03:13Z</time>
      </trkpt>
      <trkpt lat="49.42009" lon="-1.27644">
        <ele>38.7</ele>
        <time>2020-06-15T17:03:14Z</time>
      </trkpt>
      <trkpt lat="49.42012" lon="-1.27652">
        <ele>38.5</ele>
        <time>2020-06-15T17:03:15Z</time>
      </trkpt>
      <trkpt lat="49.42017" lon="-1.27659">
        <ele>38.3</ele>
        <time>2020-06-15T17:03:16Z</time>
      </trkpt>
      <trkpt lat="49.42022" lon="-1.27666">
        <ele>38.3</ele>
        <time>2020-06-15T17:03:17Z</time>
      </trkpt>
      <trkpt lat="49.42025" lon="-1.27674">
        <ele>38.3</ele>
        <time>2020-06-15T17:03:18Z</time>
      </trkpt>
      <trkpt lat="49.42029" lon="-1.27681">
        <ele>38.2</ele>
        <time>2020-06-15T17:03:19Z</time>
      </trkpt>
      <trkpt lat="49.42033" lon="-1.27688">
        <ele>38.2</ele>
        <time>2020-06-15T17:03:20Z</time>
      </trkpt>
      <trkpt lat="49.42038" lon="-1.27695">
        <ele>38.2</ele>
        <time>2020-06-15T17:03:21Z</time>
      </trkpt>
      <trkpt lat="49.42042" lon="-1.27701">
        <ele>38.1</ele>
        <time>2020-06-15T17:03:22Z</time>
      </trkpt>
      <trkpt lat="49.42046" lon="-1.27707">
        <ele>38</ele>
        <time>2020-06-15T17:03:23Z</time>
      </trkpt>
      <trkpt lat="49.4205" lon="-1.27713">
        <ele>38</ele>
        <time>2020-06-15T17:03:24Z</time>
      </trkpt>
      <trkpt lat="49.42055" lon="-1.27719">
        <ele>37.9</ele>
        <time>2020-06-15T17:03:25Z</time>
      </trkpt>
      <trkpt lat="49.42059" lon="-1.27726">
        <ele>37.9</ele>
        <time>2020-06-15T17:03:26Z</time>
      </trkpt>
      <trkpt lat="49.42064" lon="-1.27732">
        <ele>37.8</ele>
        <time>2020-06-15T17:03:27Z</time>
      </trkpt>
      <trkpt lat="49.42067" lon="-1.27738">
        <ele>37.8</ele>
        <time>2020-06-15T17:03:28Z</time>
      </trkpt>
      <trkpt lat="49.42071" lon="-1.27743">
        <ele>37.7</ele>
        <time>2020-06-15T17:03:29Z</time>
      </trkpt>
      <trkpt lat="49.42075" lon="-1.27749">
        <ele>37.6</ele>
        <time>2020-06-15T17:03:30Z</time>
      </trkpt>
      <trkpt lat="49.42078" lon="-1.27755">
        <ele>37.6</ele>
        <time>2020-06-15T17:03:31Z</time>
      </trkpt>
      <trkpt lat="49.42081" lon="-1.2776">
        <ele>37.5</ele>
        <time>2020-06-15T17:03:32Z</time>
      </trkpt>
      <trkpt lat="49.42084" lon="-1.27767">
        <ele>37.5</ele>
        <time>2020-06-15T17:03:33Z</time>
      </trkpt>
      <trkpt lat="49.42085" lon="-1.27774">
        <ele>37.4</ele>
        <time>2020-06-15T17:03:34Z</time>
      </trkpt>
      <trkpt lat="49.42086" lon="-1.27782">
        <ele>37.1</ele>
        <time>2020-06-15T17:03:35Z</time>
      </trkpt>
      <trkpt lat="49.42086" lon="-1.27788">
        <ele>37.1</ele>
        <time>2020-06-15T17:03:36Z</time>
      </trkpt>
      <trkpt lat="49.42084" lon="-1.27793">
        <ele>37.1</ele>
        <time>2020-06-15T17:03:37Z</time>
      </trkpt>
      <trkpt lat="49.42081" lon="-1.27799">
        <ele>37.1</ele>
        <time>2020-06-15T17:03:38Z</time>
      </trkpt>
      <trkpt lat="49.42079" lon="-1.27805">
        <ele>37.1</ele>
        <time>2020-06-15T17:03:39Z</time>
      </trkpt>
      <trkpt lat="49.42077" lon="-1.2781">
        <ele>37.1</ele>
        <time>2020-06-15T17:03:40Z</time>
      </trkpt>
      <trkpt lat="49.42074" lon="-1.27816">
        <ele>37.2</ele>
        <time>2020-06-15T17:03:41Z</time>
      </trkpt>
      <trkpt lat="49.42071" lon="-1.27822">
        <ele>37.2</ele>
        <time>2020-06-15T17:03:42Z</time>
      </trkpt>
      <trkpt lat="49.42068" lon="-1.27827">
        <ele>37.2</ele>
        <time>2020-06-15T17:03:43Z</time>
      </trkpt>
      <trkpt lat="49.42065" lon="-1.27832">
        <ele>37.2</ele>
        <time>2020-06-15T17:03:44Z</time>
      </trkpt>
      <trkpt lat="49.42062" lon="-1.27838">
        <ele>37.2</ele>
        <time>2020-06-15T17:03:45Z</time>
      </trkpt>
      <trkpt lat="49.4206" lon="-1.27846">
        <ele>37.3</ele>
        <time>2020-06-15T17:03:46Z</time>
      </trkpt>
      <trkpt lat="49.42056" lon="-1.27852">
        <ele>37.3</ele>
        <time>2020-06-15T17:03:47Z</time>
      </trkpt>
      <trkpt lat="49.42053" lon="-1.27858">
        <ele>37.3</ele>
        <time>2020-06-15T17:03:48Z</time>
      </trkpt>
      <trkpt lat="49.42049" lon="-1.27864">
        <ele>37.3</ele>
        <time>2020-06-15T17:03:49Z</time>
      </trkpt>
      <trkpt lat="49.42047" lon="-1.27871">
        <ele>37.3</ele>
        <time>2020-06-15T17:03:50Z</time>
      </trkpt>
      <trkpt lat="49.42044" lon="-1.27877">
        <ele>37.4</ele>
        <time>2020-06-15T17:03:51Z</time>
      </trkpt>
      <trkpt lat="49.4204" lon="-1.27884">
        <ele>37.4</ele>
        <time>2020-06-15T17:03:52Z</time>
      </trkpt>
      <trkpt lat="49.42038" lon="-1.2789">
        <ele>37.4</ele>
        <time>2020-06-15T17:03:53Z</time>
      </trkpt>
      <trkpt lat="49.42036" lon="-1.27897">
        <ele>37.4</ele>
        <time>2020-06-15T17:03:54Z</time>
      </trkpt>
      <trkpt lat="49.42033" lon="-1.27903">
        <ele>37.4</ele>
        <time>2020-06-15T17:03:55Z</time>
      </trkpt>
      <trkpt lat="49.4203" lon="-1.27909">
        <ele>37.5</ele>
        <time>2020-06-15T17:03:56Z</time>
      </trkpt>
      <trkpt lat="49.42027" lon="-1.27915">
        <ele>37.5</ele>
        <time>2020-06-15T17:03:57Z</time>
      </trkpt>
      <trkpt lat="49.42024" lon="-1.27921">
        <ele>37.5</ele>
        <time>2020-06-15T17:03:58Z</time>
      </trkpt>
      <trkpt lat="49.42021" lon="-1.27927">
        <ele>37.5</ele>
        <time>2020-06-15T17:03:59Z</time>
      </trkpt>
      <trkpt lat="49.42018" lon="-1.27933">
        <ele>37.5</ele>
        <time>2020-06-15T17:04:00Z</time>
      </trkpt>
      <trkpt lat="49.42015" lon="-1.27941">
        <ele>37.5</ele>
        <time>2020-06-15T17:04:01Z</time>
      </trkpt>
      <trkpt lat="49.42012" lon="-1.27949">
        <ele>37.6</ele>
        <time>2020-06-15T17:04:02Z</time>
      </trkpt>
      <trkpt lat="49.42008" lon="-1.27957">
        <ele>37.6</ele>
        <time>2020-06-15T17:04:03Z</time>
      </trkpt>
      <trkpt lat="49.42005" lon="-1.27965">
        <ele>37.6</ele>
        <time>2020-06-15T17:04:04Z</time>
      </trkpt>
      <trkpt lat="49.42001" lon="-1.27972">
        <ele>37.6</ele>
        <time>2020-06-15T17:04:05Z</time>
      </trkpt>
      <trkpt lat="49.41998" lon="-1.27979">
        <ele>37.6</ele>
        <time>2020-06-15T17:04:06Z</time>
      </trkpt>
      <trkpt lat="49.41995" lon="-1.27987">
        <ele>37.6</ele>
        <time>2020-06-15T17:04:07Z</time>
      </trkpt>
      <trkpt lat="49.41991" lon="-1.27994">
        <ele>37.6</ele>
        <time>2020-06-15T17:04:08Z</time>
      </trkpt>
      <trkpt lat="49.41986" lon="-1.28003">
        <ele>37.7</ele>
        <time>2020-06-15T17:04:09Z</time>
      </trkpt>
      <trkpt lat="49.41982" lon="-1.28013">
        <ele>37.7</ele>
        <time>2020-06-15T17:04:10Z</time>
      </trkpt>
      <trkpt lat="49.41978" lon="-1.28021">
        <ele>37.7</ele>
        <time>2020-06-15T17:04:11Z</time>
      </trkpt>
      <trkpt lat="49.41975" lon="-1.2803">
        <ele>37.7</ele>
        <time>2020-06-15T17:04:12Z</time>
      </trkpt>
      <trkpt lat="49.41971" lon="-1.28039">
        <ele>37.7</ele>
        <time>2020-06-15T17:04:13Z</time>
      </trkpt>
      <trkpt lat="49.41967" lon="-1.28046">
        <ele>37.7</ele>
        <time>2020-06-15T17:04:14Z</time>
      </trkpt>
      <trkpt lat="49.41963" lon="-1.28054">
        <ele>37.7</ele>
        <time>2020-06-15T17:04:15Z</time>
      </trkpt>
      <trkpt lat="49.41959" lon="-1.28062">
        <ele>37.7</ele>
        <time>2020-06-15T17:04:16Z</time>
      </trkpt>
      <trkpt lat="49.41956" lon="-1.2807">
        <ele>37.7</ele>
        <time>2020-06-15T17:04:17Z</time>
      </trkpt>
      <trkpt lat="49.41952" lon="-1.2808">
        <ele>37.7</ele>
        <time>2020-06-15T17:04:18Z</time>
      </trkpt>
      <trkpt lat="49.41949" lon="-1.28089">
        <ele>37.7</ele>
        <time>2020-06-15T17:04:19Z</time>
      </trkpt>
      <trkpt lat="49.41945" lon="-1.28099">
        <ele>37.7</ele>
        <time>2020-06-15T17:04:20Z</time>
      </trkpt>
      <trkpt lat="49.41941" lon="-1.28109">
        <ele>37.7</ele>
        <time>2020-06-15T17:04:21Z</time>
      </trkpt>
      <trkpt lat="49.41938" lon="-1.28119">
        <ele>37.7</ele>
        <time>2020-06-15T17:04:22Z</time>
      </trkpt>
      <trkpt lat="49.41936" lon="-1.2813">
        <ele>37.7</ele>
        <time>2020-06-15T17:04:23Z</time>
      </trkpt>
      <trkpt lat="49.41933" lon="-1.28141">
        <ele>37.8</ele>
        <time>2020-06-15T17:04:24Z</time>
      </trkpt>
      <trkpt lat="49.41931" lon="-1.28153">
        <ele>37.8</ele>
        <time>2020-06-15T17:04:25Z</time>
      </trkpt>
      <trkpt lat="49.41929" lon="-1.28164">
        <ele>37.8</ele>
        <time>2020-06-15T17:04:26Z</time>
      </trkpt>
      <trkpt lat="49.41926" lon="-1.28174">
        <ele>37.8</ele>
        <time>2020-06-15T17:04:27Z</time>
      </trkpt>
      <trkpt lat="49.41923" lon="-1.28183">
        <ele>37.8</ele>
        <time>2020-06-15T17:04:28Z</time>
      </trkpt>
      <trkpt lat="49.4192" lon="-1.28193">
        <ele>37.8</ele>
        <time>2020-06-15T17:04:29Z</time>
      </trkpt>
      <trkpt lat="49.41917" lon="-1.28202">
        <ele>37.9</ele>
        <time>2020-06-15T17:04:30Z</time>
      </trkpt>
      <trkpt lat="49.41914" lon="-1.28211">
        <ele>37.9</ele>
        <time>2020-06-15T17:04:31Z</time>
      </trkpt>
      <trkpt lat="49.41911" lon="-1.28219">
        <ele>38</ele>
        <time>2020-06-15T17:04:32Z</time>
      </trkpt>
      <trkpt lat="49.41907" lon="-1.28227">
        <ele>38</ele>
        <time>2020-06-15T17:04:33Z</time>
      </trkpt>
      <trkpt lat="49.41904" lon="-1.28236">
        <ele>38.1</ele>
        <time>2020-06-15T17:04:34Z</time>
      </trkpt>
      <trkpt lat="49.41901" lon="-1.28244">
        <ele>38</ele>
        <time>2020-06-15T17:04:35Z</time>
      </trkpt>
      <trkpt lat="49.41898" lon="-1.28253">
        <ele>38</ele>
        <time>2020-06-15T17:04:36Z</time>
      </trkpt>
      <trkpt lat="49.41894" lon="-1.28263">
        <ele>38</ele>
        <time>2020-06-15T17:04:37Z</time>
      </trkpt>
      <trkpt lat="49.4189" lon="-1.28272">
        <ele>38</ele>
        <time>2020-06-15T17:04:38Z</time>
      </trkpt>
      <trkpt lat="49.41887" lon="-1.2828">
        <ele>38</ele>
        <time>2020-06-15T17:04:39Z</time>
      </trkpt>
      <trkpt lat="49.41883" lon="-1.28289">
        <ele>38</ele>
        <time>2020-06-15T17:04:40Z</time>
      </trkpt>
      <trkpt lat="49.4188" lon="-1.28299">
        <ele>38</ele>
        <time>2020-06-15T17:04:41Z</time>
      </trkpt>
      <trkpt lat="49.41878" lon="-1.28308">
        <ele>38</ele>
        <time>2020-06-15T17:04:42Z</time>
      </trkpt>
      <trkpt lat="49.41874" lon="-1.28318">
        <ele>38</ele>
        <time>2020-06-15T17:04:43Z</time>
      </trkpt>
      <trkpt lat="49.41871" lon="-1.28328">
        <ele>38</ele>
        <time>2020-06-15T17:04:44Z</time>
      </trkpt>
      <trkpt lat="49.41868" lon="-1.28337">
        <ele>38</ele>
        <time>2020-06-15T17:04:45Z</time>
      </trkpt>
      <trkpt lat="49.41864" lon="-1.28346">
        <ele>38</ele>
        <time>2020-06-15T17:04:46Z</time>
      </trkpt>
      <trkpt lat="49.4186" lon="-1.28355">
        <ele>37.9</ele>
        <time>2020-06-15T17:04:47Z</time>
      </trkpt>
      <trkpt lat="49.41856" lon="-1.28364">
        <ele>37.9</ele>
        <time>2020-06-15T17:04:48Z</time>
      </trkpt>
      <trkpt lat="49.41852" lon="-1.28373">
        <ele>37.8</ele>
        <time>2020-06-15T17:04:49Z</time>
      </trkpt>
      <trkpt lat="49.41848" lon="-1.2838">
        <ele>37.8</ele>
        <time>2020-06-15T17:04:50Z</time>
      </trkpt>
      <trkpt lat="49.41844" lon="-1.28387">
        <ele>37.8</ele>
        <time>2020-06-15T17:04:51Z</time>
      </trkpt>
      <trkpt lat="49.41839" lon="-1.28395">
        <ele>37.8</ele>
        <time>2020-06-15T17:04:52Z</time>
      </trkpt>
      <trkpt lat="49.41832" lon="-1.28401">
        <ele>37.8</ele>
        <time>2020-06-15T17:04:53Z</time>
      </trkpt>
      <trkpt lat="49.41827" lon="-1.28409">
        <ele>37.8</ele>
        <time>2020-06-15T17:04:54Z</time>
      </trkpt>
      <trkpt lat="49.41822" lon="-1.28415">
        <ele>37.8</ele>
        <time>2020-06-15T17:04:55Z</time>
      </trkpt>
      <trkpt lat="49.41818" lon="-1.28422">
        <ele>37.8</ele>
        <time>2020-06-15T17:04:56Z</time>
      </trkpt>
      <trkpt lat="49.41813" lon="-1.28428">
        <ele>37.9</ele>
        <time>2020-06-15T17:04:57Z</time>
      </trkpt>
      <trkpt lat="49.4181" lon="-1.28434">
        <ele>37.9</ele>
        <time>2020-06-15T17:04:58Z</time>
      </trkpt>
      <trkpt lat="49.41805" lon="-1.2844">
        <ele>37.9</ele>
        <time>2020-06-15T17:04:59Z</time>
      </trkpt>
      <trkpt lat="49.41799" lon="-1.28447">
        <ele>38</ele>
        <time>2020-06-15T17:05:00Z</time>
      </trkpt>
      <trkpt lat="49.41794" lon="-1.28454">
        <ele>37.9</ele>
        <time>2020-06-15T17:05:01Z</time>
      </trkpt>
      <trkpt lat="49.41788" lon="-1.2846">
        <ele>37.9</ele>
        <time>2020-06-15T17:05:02Z</time>
      </trkpt>
      <trkpt lat="49.41785" lon="-1.28467">
        <ele>37.9</ele>
        <time>2020-06-15T17:05:03Z</time>
      </trkpt>
      <trkpt lat="49.4178" lon="-1.28473">
        <ele>37.9</ele>
        <time>2020-06-15T17:05:04Z</time>
      </trkpt>
      <trkpt lat="49.41775" lon="-1.28479">
        <ele>37.8</ele>
        <time>2020-06-15T17:05:05Z</time>
      </trkpt>
      <trkpt lat="49.41771" lon="-1.28486">
        <ele>37.9</ele>
        <time>2020-06-15T17:05:06Z</time>
      </trkpt>
      <trkpt lat="49.41766" lon="-1.28491">
        <ele>37.9</ele>
        <time>2020-06-15T17:05:07Z</time>
      </trkpt>
      <trkpt lat="49.41762" lon="-1.28496">
        <ele>37.9</ele>
        <time>2020-06-15T17:05:08Z</time>
      </trkpt>
      <trkpt lat="49.41755" lon="-1.28504">
        <ele>37.9</ele>
        <time>2020-06-15T17:05:09Z</time>
      </trkpt>
      <trkpt lat="49.41749" lon="-1.2851">
        <ele>37.9</ele>
        <time>2020-06-15T17:05:10Z</time>
      </trkpt>
      <trkpt lat="49.41745" lon="-1.28513">
        <ele>37.9</ele>
        <time>2020-06-15T17:05:11Z</time>
      </trkpt>
      <trkpt lat="49.4174" lon="-1.28518">
        <ele>37.9</ele>
        <time>2020-06-15T17:05:12Z</time>
      </trkpt>
      <trkpt lat="49.41736" lon="-1.28524">
        <ele>37.9</ele>
        <time>2020-06-15T17:05:13Z</time>
      </trkpt>
      <trkpt lat="49.41731" lon="-1.28529">
        <ele>37.9</ele>
        <time>2020-06-15T17:05:14Z</time>
      </trkpt>
      <trkpt lat="49.41726" lon="-1.28536">
        <ele>37.9</ele>
        <time>2020-06-15T17:05:15Z</time>
      </trkpt>
      <trkpt lat="49.4172" lon="-1.28545">
        <ele>37.9</ele>
        <time>2020-06-15T17:05:16Z</time>
      </trkpt>
      <trkpt lat="49.41715" lon="-1.28553">
        <ele>37.9</ele>
        <time>2020-06-15T17:05:17Z</time>
      </trkpt>
      <trkpt lat="49.4171" lon="-1.28561">
        <ele>37.9</ele>
        <time>2020-06-15T17:05:18Z</time>
      </trkpt>
      <trkpt lat="49.41706" lon="-1.28568">
        <ele>37.9</ele>
        <time>2020-06-15T17:05:19Z</time>
      </trkpt>
      <trkpt lat="49.41699" lon="-1.28581">
        <ele>37.8</ele>
        <time>2020-06-15T17:05:20Z</time>
      </trkpt>
      <trkpt lat="49.41697" lon="-1.28584">
        <ele>37.7</ele>
        <time>2020-06-15T17:05:21Z</time>
      </trkpt>
      <trkpt lat="49.41692" lon="-1.28592">
        <ele>37.7</ele>
        <time>2020-06-15T17:05:22Z</time>
      </trkpt>
      <trkpt lat="49.41687" lon="-1.28598">
        <ele>37.6</ele>
        <time>2020-06-15T17:05:23Z</time>
      </trkpt>
      <trkpt lat="49.41681" lon="-1.28604">
        <ele>37.6</ele>
        <time>2020-06-15T17:05:24Z</time>
      </trkpt>
      <trkpt lat="49.41674" lon="-1.28612">
        <ele>37.6</ele>
        <time>2020-06-15T17:05:25Z</time>
      </trkpt>
      <trkpt lat="49.41669" lon="-1.2862">
        <ele>37.6</ele>
        <time>2020-06-15T17:05:26Z</time>
      </trkpt>
      <trkpt lat="49.41664" lon="-1.28625">
        <ele>37.5</ele>
        <time>2020-06-15T17:05:27Z</time>
      </trkpt>
      <trkpt lat="49.41658" lon="-1.28632">
        <ele>37.4</ele>
        <time>2020-06-15T17:05:28Z</time>
      </trkpt>
      <trkpt lat="49.41652" lon="-1.2864">
        <ele>37.3</ele>
        <time>2020-06-15T17:05:29Z</time>
      </trkpt>
      <trkpt lat="49.41647" lon="-1.28647">
        <ele>37.3</ele>
        <time>2020-06-15T17:05:30Z</time>
      </trkpt>
      <trkpt lat="49.41641" lon="-1.28654">
        <ele>37.2</ele>
        <time>2020-06-15T17:05:31Z</time>
      </trkpt>
      <trkpt lat="49.41636" lon="-1.28662">
        <ele>37.2</ele>
        <time>2020-06-15T17:05:32Z</time>
      </trkpt>
      <trkpt lat="49.41631" lon="-1.2867">
        <ele>37.2</ele>
        <time>2020-06-15T17:05:33Z</time>
      </trkpt>
      <trkpt lat="49.41626" lon="-1.28681">
        <ele>37.2</ele>
        <time>2020-06-15T17:05:34Z</time>
      </trkpt>
      <trkpt lat="49.4162" lon="-1.2869">
        <ele>37.1</ele>
        <time>2020-06-15T17:05:35Z</time>
      </trkpt>
      <trkpt lat="49.41614" lon="-1.28698">
        <ele>37</ele>
        <time>2020-06-15T17:05:36Z</time>
      </trkpt>
      <trkpt lat="49.41609" lon="-1.28706">
        <ele>36.9</ele>
        <time>2020-06-15T17:05:37Z</time>
      </trkpt>
      <trkpt lat="49.41605" lon="-1.28712">
        <ele>36.8</ele>
        <time>2020-06-15T17:05:38Z</time>
      </trkpt>
      <trkpt lat="49.41599" lon="-1.28726">
        <ele>36.5</ele>
        <time>2020-06-15T17:05:39Z</time>
      </trkpt>
      <trkpt lat="49.41594" lon="-1.28739">
        <ele>36.3</ele>
        <time>2020-06-15T17:05:40Z</time>
      </trkpt>
      <trkpt lat="49.41589" lon="-1.2875">
        <ele>36.2</ele>
        <time>2020-06-15T17:05:41Z</time>
      </trkpt>
      <trkpt lat="49.41584" lon="-1.28761">
        <ele>36.1</ele>
        <time>2020-06-15T17:05:42Z</time>
      </trkpt>
      <trkpt lat="49.4158" lon="-1.28771">
        <ele>35.9</ele>
        <time>2020-06-15T17:05:43Z</time>
      </trkpt>
      <trkpt lat="49.41576" lon="-1.28782">
        <ele>35.8</ele>
        <time>2020-06-15T17:05:44Z</time>
      </trkpt>
      <trkpt lat="49.41573" lon="-1.28792">
        <ele>35.7</ele>
        <time>2020-06-15T17:05:45Z</time>
      </trkpt>
      <trkpt lat="49.4157" lon="-1.28802">
        <ele>35.6</ele>
        <time>2020-06-15T17:05:46Z</time>
      </trkpt>
      <trkpt lat="49.41567" lon="-1.28814">
        <ele>35.4</ele>
        <time>2020-06-15T17:05:47Z</time>
      </trkpt>
      <trkpt lat="49.41564" lon="-1.28826">
        <ele>35.3</ele>
        <time>2020-06-15T17:05:48Z</time>
      </trkpt>
      <trkpt lat="49.41561" lon="-1.28839">
        <ele>35.2</ele>
        <time>2020-06-15T17:05:49Z</time>
      </trkpt>
      <trkpt lat="49.41559" lon="-1.28851">
        <ele>35</ele>
        <time>2020-06-15T17:05:50Z</time>
      </trkpt>
      <trkpt lat="49.41557" lon="-1.28862">
        <ele>34.9</ele>
        <time>2020-06-15T17:05:51Z</time>
      </trkpt>
      <trkpt lat="49.41556" lon="-1.28874">
        <ele>34.8</ele>
        <time>2020-06-15T17:05:52Z</time>
      </trkpt>
      <trkpt lat="49.41554" lon="-1.28886">
        <ele>34.7</ele>
        <time>2020-06-15T17:05:53Z</time>
      </trkpt>
      <trkpt lat="49.41553" lon="-1.28897">
        <ele>34.7</ele>
        <time>2020-06-15T17:05:54Z</time>
      </trkpt>
      <trkpt lat="49.41552" lon="-1.28907">
        <ele>34.6</ele>
        <time>2020-06-15T17:05:55Z</time>
      </trkpt>
      <trkpt lat="49.41551" lon="-1.28918">
        <ele>34.5</ele>
        <time>2020-06-15T17:05:56Z</time>
      </trkpt>
      <trkpt lat="49.41549" lon="-1.2893">
        <ele>34.3</ele>
        <time>2020-06-15T17:05:57Z</time>
      </trkpt>
      <trkpt lat="49.41548" lon="-1.28941">
        <ele>34.2</ele>
        <time>2020-06-15T17:05:58Z</time>
      </trkpt>
      <trkpt lat="49.41547" lon="-1.28952">
        <ele>34.2</ele>
        <time>2020-06-15T17:05:59Z</time>
      </trkpt>
      <trkpt lat="49.41546" lon="-1.28965">
        <ele>34.1</ele>
        <time>2020-06-15T17:06:00Z</time>
      </trkpt>
      <trkpt lat="49.41545" lon="-1.28978">
        <ele>34.1</ele>
        <time>2020-06-15T17:06:01Z</time>
      </trkpt>
      <trkpt lat="49.41544" lon="-1.2899">
        <ele>34</ele>
        <time>2020-06-15T17:06:02Z</time>
      </trkpt>
      <trkpt lat="49.41542" lon="-1.29003">
        <ele>34</ele>
        <time>2020-06-15T17:06:03Z</time>
      </trkpt>
      <trkpt lat="49.41541" lon="-1.29016">
        <ele>33.9</ele>
        <time>2020-06-15T17:06:04Z</time>
      </trkpt>
      <trkpt lat="49.4154" lon="-1.2903">
        <ele>33.8</ele>
        <time>2020-06-15T17:06:05Z</time>
      </trkpt>
      <trkpt lat="49.41539" lon="-1.29042">
        <ele>33.7</ele>
        <time>2020-06-15T17:06:06Z</time>
      </trkpt>
      <trkpt lat="49.41538" lon="-1.29054">
        <ele>33.6</ele>
        <time>2020-06-15T17:06:07Z</time>
      </trkpt>
      <trkpt lat="49.41537" lon="-1.29066">
        <ele>33.5</ele>
        <time>2020-06-15T17:06:08Z</time>
      </trkpt>
      <trkpt lat="49.41536" lon="-1.29078">
        <ele>33.5</ele>
        <time>2020-06-15T17:06:09Z</time>
      </trkpt>
      <trkpt lat="49.41534" lon="-1.29091">
        <ele>33.4</ele>
        <time>2020-06-15T17:06:10Z</time>
      </trkpt>
      <trkpt lat="49.41533" lon="-1.29104">
        <ele>33.4</ele>
        <time>2020-06-15T17:06:11Z</time>
      </trkpt>
      <trkpt lat="49.41532" lon="-1.29118">
        <ele>33.4</ele>
        <time>2020-06-15T17:06:12Z</time>
      </trkpt>
      <trkpt lat="49.41531" lon="-1.29132">
        <ele>33.4</ele>
        <time>2020-06-15T17:06:13Z</time>
      </trkpt>
      <trkpt lat="49.41529" lon="-1.29146">
        <ele>33.4</ele>
        <time>2020-06-15T17:06:14Z</time>
      </trkpt>
      <trkpt lat="49.41528" lon="-1.2916">
        <ele>33.4</ele>
        <time>2020-06-15T17:06:15Z</time>
      </trkpt>
      <trkpt lat="49.41527" lon="-1.29175">
        <ele>33.4</ele>
        <time>2020-06-15T17:06:16Z</time>
      </trkpt>
      <trkpt lat="49.41526" lon="-1.29188">
        <ele>33.3</ele>
        <time>2020-06-15T17:06:17Z</time>
      </trkpt>
      <trkpt lat="49.41525" lon="-1.29202">
        <ele>33.1</ele>
        <time>2020-06-15T17:06:18Z</time>
      </trkpt>
      <trkpt lat="49.41524" lon="-1.29216">
        <ele>33</ele>
        <time>2020-06-15T17:06:19Z</time>
      </trkpt>
      <trkpt lat="49.41522" lon="-1.2923">
        <ele>32.8</ele>
        <time>2020-06-15T17:06:20Z</time>
      </trkpt>
      <trkpt lat="49.41521" lon="-1.29245">
        <ele>32.7</ele>
        <time>2020-06-15T17:06:21Z</time>
      </trkpt>
      <trkpt lat="49.4152" lon="-1.29259">
        <ele>32.7</ele>
        <time>2020-06-15T17:06:22Z</time>
      </trkpt>
      <trkpt lat="49.41518" lon="-1.29273">
        <ele>32.7</ele>
        <time>2020-06-15T17:06:23Z</time>
      </trkpt>
      <trkpt lat="49.41516" lon="-1.29288">
        <ele>32.7</ele>
        <time>2020-06-15T17:06:24Z</time>
      </trkpt>
      <trkpt lat="49.41516" lon="-1.29301">
        <ele>32.7</ele>
        <time>2020-06-15T17:06:25Z</time>
      </trkpt>
      <trkpt lat="49.41513" lon="-1.29314">
        <ele>32.7</ele>
        <time>2020-06-15T17:06:26Z</time>
      </trkpt>
      <trkpt lat="49.41511" lon="-1.29325">
        <ele>32.7</ele>
        <time>2020-06-15T17:06:27Z</time>
      </trkpt>
      <trkpt lat="49.41508" lon="-1.29336">
        <ele>32.6</ele>
        <time>2020-06-15T17:06:28Z</time>
      </trkpt>
      <trkpt lat="49.41507" lon="-1.29348">
        <ele>32.5</ele>
        <time>2020-06-15T17:06:29Z</time>
      </trkpt>
      <trkpt lat="49.41505" lon="-1.29359">
        <ele>32.4</ele>
        <time>2020-06-15T17:06:30Z</time>
      </trkpt>
      <trkpt lat="49.41503" lon="-1.29369">
        <ele>32.4</ele>
        <time>2020-06-15T17:06:31Z</time>
      </trkpt>
      <trkpt lat="49.41501" lon="-1.2938">
        <ele>32.3</ele>
        <time>2020-06-15T17:06:32Z</time>
      </trkpt>
      <trkpt lat="49.415" lon="-1.29391">
        <ele>32.2</ele>
        <time>2020-06-15T17:06:33Z</time>
      </trkpt>
      <trkpt lat="49.41498" lon="-1.29402">
        <ele>32.2</ele>
        <time>2020-06-15T17:06:34Z</time>
      </trkpt>
      <trkpt lat="49.41497" lon="-1.29414">
        <ele>32.2</ele>
        <time>2020-06-15T17:06:35Z</time>
      </trkpt>
      <trkpt lat="49.41495" lon="-1.29427">
        <ele>32.2</ele>
        <time>2020-06-15T17:06:36Z</time>
      </trkpt>
      <trkpt lat="49.41493" lon="-1.29439">
        <ele>32.2</ele>
        <time>2020-06-15T17:06:37Z</time>
      </trkpt>
      <trkpt lat="49.41492" lon="-1.29452">
        <ele>32.2</ele>
        <time>2020-06-15T17:06:38Z</time>
      </trkpt>
      <trkpt lat="49.41491" lon="-1.29462">
        <ele>32.1</ele>
        <time>2020-06-15T17:06:39Z</time>
      </trkpt>
      <trkpt lat="49.41491" lon="-1.29474">
        <ele>31.9</ele>
        <time>2020-06-15T17:06:40Z</time>
      </trkpt>
      <trkpt lat="49.41491" lon="-1.29485">
        <ele>31.8</ele>
        <time>2020-06-15T17:06:41Z</time>
      </trkpt>
      <trkpt lat="49.41493" lon="-1.29496">
        <ele>31.7</ele>
        <time>2020-06-15T17:06:42Z</time>
      </trkpt>
      <trkpt lat="49.41495" lon="-1.29505">
        <ele>31.7</ele>
        <time>2020-06-15T17:06:43Z</time>
      </trkpt>
      <trkpt lat="49.41497" lon="-1.29514">
        <ele>31.7</ele>
        <time>2020-06-15T17:06:44Z</time>
      </trkpt>
      <trkpt lat="49.41499" lon="-1.29525">
        <ele>31.7</ele>
        <time>2020-06-15T17:06:45Z</time>
      </trkpt>
      <trkpt lat="49.41501" lon="-1.29537">
        <ele>31.6</ele>
        <time>2020-06-15T17:06:46Z</time>
      </trkpt>
      <trkpt lat="49.41505" lon="-1.29549">
        <ele>31.6</ele>
        <time>2020-06-15T17:06:47Z</time>
      </trkpt>
      <trkpt lat="49.41508" lon="-1.29559">
        <ele>31.5</ele>
        <time>2020-06-15T17:06:48Z</time>
      </trkpt>
      <trkpt lat="49.41512" lon="-1.29569">
        <ele>31.4</ele>
        <time>2020-06-15T17:06:49Z</time>
      </trkpt>
      <trkpt lat="49.41516" lon="-1.2958">
        <ele>31.4</ele>
        <time>2020-06-15T17:06:50Z</time>
      </trkpt>
      <trkpt lat="49.41518" lon="-1.29592">
        <ele>31.3</ele>
        <time>2020-06-15T17:06:51Z</time>
      </trkpt>
      <trkpt lat="49.41521" lon="-1.29603">
        <ele>31.2</ele>
        <time>2020-06-15T17:06:52Z</time>
      </trkpt>
      <trkpt lat="49.41524" lon="-1.29615">
        <ele>31.1</ele>
        <time>2020-06-15T17:06:53Z</time>
      </trkpt>
      <trkpt lat="49.41528" lon="-1.29627">
        <ele>31</ele>
        <time>2020-06-15T17:06:54Z</time>
      </trkpt>
      <trkpt lat="49.41531" lon="-1.29639">
        <ele>31</ele>
        <time>2020-06-15T17:06:55Z</time>
      </trkpt>
      <trkpt lat="49.41534" lon="-1.2965">
        <ele>31</ele>
        <time>2020-06-15T17:06:56Z</time>
      </trkpt>
      <trkpt lat="49.41537" lon="-1.29661">
        <ele>31</ele>
        <time>2020-06-15T17:06:57Z</time>
      </trkpt>
      <trkpt lat="49.41541" lon="-1.29671">
        <ele>31</ele>
        <time>2020-06-15T17:06:58Z</time>
      </trkpt>
      <trkpt lat="49.41544" lon="-1.29682">
        <ele>30.9</ele>
        <time>2020-06-15T17:06:59Z</time>
      </trkpt>
      <trkpt lat="49.41547" lon="-1.29694">
        <ele>30.9</ele>
        <time>2020-06-15T17:07:00Z</time>
      </trkpt>
      <trkpt lat="49.41549" lon="-1.29704">
        <ele>30.9</ele>
        <time>2020-06-15T17:07:01Z</time>
      </trkpt>
      <trkpt lat="49.41551" lon="-1.29715">
        <ele>30.7</ele>
        <time>2020-06-15T17:07:02Z</time>
      </trkpt>
      <trkpt lat="49.41554" lon="-1.29726">
        <ele>30.7</ele>
        <time>2020-06-15T17:07:03Z</time>
      </trkpt>
      <trkpt lat="49.41555" lon="-1.29737">
        <ele>30.6</ele>
        <time>2020-06-15T17:07:04Z</time>
      </trkpt>
      <trkpt lat="49.41555" lon="-1.29747">
        <ele>30.7</ele>
        <time>2020-06-15T17:07:05Z</time>
      </trkpt>
      <trkpt lat="49.41555" lon="-1.29758">
        <ele>30.8</ele>
        <time>2020-06-15T17:07:06Z</time>
      </trkpt>
      <trkpt lat="49.41555" lon="-1.29769">
        <ele>30.9</ele>
        <time>2020-06-15T17:07:07Z</time>
      </trkpt>
      <trkpt lat="49.41555" lon="-1.2978">
        <ele>31</ele>
        <time>2020-06-15T17:07:08Z</time>
      </trkpt>
      <trkpt lat="49.41554" lon="-1.29791">
        <ele>31.1</ele>
        <time>2020-06-15T17:07:09Z</time>
      </trkpt>
      <trkpt lat="49.41553" lon="-1.29801">
        <ele>31.3</ele>
        <time>2020-06-15T17:07:10Z</time>
      </trkpt>
      <trkpt lat="49.41553" lon="-1.29812">
        <ele>31.4</ele>
        <time>2020-06-15T17:07:11Z</time>
      </trkpt>
      <trkpt lat="49.4155" lon="-1.29823">
        <ele>31.5</ele>
        <time>2020-06-15T17:07:12Z</time>
      </trkpt>
      <trkpt lat="49.41547" lon="-1.29832">
        <ele>31.6</ele>
        <time>2020-06-15T17:07:13Z</time>
      </trkpt>
      <trkpt lat="49.41544" lon="-1.29842">
        <ele>31.6</ele>
        <time>2020-06-15T17:07:14Z</time>
      </trkpt>
      <trkpt lat="49.41542" lon="-1.29854">
        <ele>31.7</ele>
        <time>2020-06-15T17:07:15Z</time>
      </trkpt>
      <trkpt lat="49.41538" lon="-1.29863">
        <ele>31.8</ele>
        <time>2020-06-15T17:07:16Z</time>
      </trkpt>
      <trkpt lat="49.41535" lon="-1.29873">
        <ele>31.9</ele>
        <time>2020-06-15T17:07:17Z</time>
      </trkpt>
      <trkpt lat="49.41531" lon="-1.29882">
        <ele>31.9</ele>
        <time>2020-06-15T17:07:18Z</time>
      </trkpt>
      <trkpt lat="49.41528" lon="-1.29892">
        <ele>32</ele>
        <time>2020-06-15T17:07:19Z</time>
      </trkpt>
      <trkpt lat="49.41526" lon="-1.299">
        <ele>32.1</ele>
        <time>2020-06-15T17:07:20Z</time>
      </trkpt>
      <trkpt lat="49.41523" lon="-1.29908">
        <ele>32.1</ele>
        <time>2020-06-15T17:07:21Z</time>
      </trkpt>
      <trkpt lat="49.41521" lon="-1.29917">
        <ele>32.2</ele>
        <time>2020-06-15T17:07:22Z</time>
      </trkpt>
      <trkpt lat="49.41519" lon="-1.29926">
        <ele>32.2</ele>
        <time>2020-06-15T17:07:23Z</time>
      </trkpt>
      <trkpt lat="49.41517" lon="-1.29935">
        <ele>32.2</ele>
        <time>2020-06-15T17:07:24Z</time>
      </trkpt>
      <trkpt lat="49.41514" lon="-1.29945">
        <ele>32.3</ele>
        <time>2020-06-15T17:07:25Z</time>
      </trkpt>
      <trkpt lat="49.41512" lon="-1.29954">
        <ele>32.3</ele>
        <time>2020-06-15T17:07:26Z</time>
      </trkpt>
      <trkpt lat="49.41509" lon="-1.29965">
        <ele>32.3</ele>
        <time>2020-06-15T17:07:27Z</time>
      </trkpt>
      <trkpt lat="49.41506" lon="-1.29974">
        <ele>32.2</ele>
        <time>2020-06-15T17:07:28Z</time>
      </trkpt>
      <trkpt lat="49.41504" lon="-1.29983">
        <ele>32.2</ele>
        <time>2020-06-15T17:07:29Z</time>
      </trkpt>
      <trkpt lat="49.41501" lon="-1.29991">
        <ele>32.2</ele>
        <time>2020-06-15T17:07:30Z</time>
      </trkpt>
      <trkpt lat="49.41498" lon="-1.30001">
        <ele>32.1</ele>
        <time>2020-06-15T17:07:31Z</time>
      </trkpt>
      <trkpt lat="49.41495" lon="-1.3001">
        <ele>32.1</ele>
        <time>2020-06-15T17:07:32Z</time>
      </trkpt>
      <trkpt lat="49.41492" lon="-1.30019">
        <ele>32.1</ele>
        <time>2020-06-15T17:07:33Z</time>
      </trkpt>
      <trkpt lat="49.41489" lon="-1.30027">
        <ele>32.1</ele>
        <time>2020-06-15T17:07:34Z</time>
      </trkpt>
      <trkpt lat="49.41487" lon="-1.30037">
        <ele>32.1</ele>
        <time>2020-06-15T17:07:35Z</time>
      </trkpt>
      <trkpt lat="49.41484" lon="-1.30046">
        <ele>32.2</ele>
        <time>2020-06-15T17:07:36Z</time>
      </trkpt>
      <trkpt lat="49.41481" lon="-1.30056">
        <ele>32.2</ele>
        <time>2020-06-15T17:07:37Z</time>
      </trkpt>
      <trkpt lat="49.41478" lon="-1.30066">
        <ele>32.2</ele>
        <time>2020-06-15T17:07:38Z</time>
      </trkpt>
      <trkpt lat="49.41475" lon="-1.30076">
        <ele>32.3</ele>
        <time>2020-06-15T17:07:39Z</time>
      </trkpt>
      <trkpt lat="49.41472" lon="-1.30086">
        <ele>32.3</ele>
        <time>2020-06-15T17:07:40Z</time>
      </trkpt>
      <trkpt lat="49.41469" lon="-1.30096">
        <ele>32.3</ele>
        <time>2020-06-15T17:07:41Z</time>
      </trkpt>
      <trkpt lat="49.41467" lon="-1.30106">
        <ele>32.2</ele>
        <time>2020-06-15T17:07:42Z</time>
      </trkpt>
      <trkpt lat="49.41465" lon="-1.30113">
        <ele>32.2</ele>
        <time>2020-06-15T17:07:43Z</time>
      </trkpt>
      <trkpt lat="49.41463" lon="-1.30123">
        <ele>32.2</ele>
        <time>2020-06-15T17:07:44Z</time>
      </trkpt>
      <trkpt lat="49.41461" lon="-1.30133">
        <ele>32.2</ele>
        <time>2020-06-15T17:07:45Z</time>
      </trkpt>
      <trkpt lat="49.41459" lon="-1.30142">
        <ele>32.2</ele>
        <time>2020-06-15T17:07:46Z</time>
      </trkpt>
      <trkpt lat="49.41457" lon="-1.30153">
        <ele>32.2</ele>
        <time>2020-06-15T17:07:47Z</time>
      </trkpt>
      <trkpt lat="49.41456" lon="-1.30164">
        <ele>32.2</ele>
        <time>2020-06-15T17:07:48Z</time>
      </trkpt>
      <trkpt lat="49.41454" lon="-1.30174">
        <ele>32.3</ele>
        <time>2020-06-15T17:07:49Z</time>
      </trkpt>
      <trkpt lat="49.41452" lon="-1.30185">
        <ele>32.3</ele>
        <time>2020-06-15T17:07:50Z</time>
      </trkpt>
      <trkpt lat="49.4145" lon="-1.30196">
        <ele>32.2</ele>
        <time>2020-06-15T17:07:51Z</time>
      </trkpt>
      <trkpt lat="49.41448" lon="-1.30208">
        <ele>32.2</ele>
        <time>2020-06-15T17:07:52Z</time>
      </trkpt>
      <trkpt lat="49.41444" lon="-1.30218">
        <ele>32.1</ele>
        <time>2020-06-15T17:07:53Z</time>
      </trkpt>
      <trkpt lat="49.41442" lon="-1.3023">
        <ele>32.1</ele>
        <time>2020-06-15T17:07:54Z</time>
      </trkpt>
      <trkpt lat="49.41439" lon="-1.30242">
        <ele>32.1</ele>
        <time>2020-06-15T17:07:55Z</time>
      </trkpt>
      <trkpt lat="49.41437" lon="-1.30254">
        <ele>32.1</ele>
        <time>2020-06-15T17:07:56Z</time>
      </trkpt>
      <trkpt lat="49.41434" lon="-1.30266">
        <ele>32</ele>
        <time>2020-06-15T17:07:57Z</time>
      </trkpt>
      <trkpt lat="49.41432" lon="-1.30278">
        <ele>31.9</ele>
        <time>2020-06-15T17:07:58Z</time>
      </trkpt>
      <trkpt lat="49.41429" lon="-1.30288">
        <ele>31.9</ele>
        <time>2020-06-15T17:07:59Z</time>
      </trkpt>
      <trkpt lat="49.41427" lon="-1.30299">
        <ele>31.8</ele>
        <time>2020-06-15T17:08:00Z</time>
      </trkpt>
      <trkpt lat="49.41425" lon="-1.3031">
        <ele>31.7</ele>
        <time>2020-06-15T17:08:01Z</time>
      </trkpt>
      <trkpt lat="49.41423" lon="-1.3032">
        <ele>31.7</ele>
        <time>2020-06-15T17:08:02Z</time>
      </trkpt>
      <trkpt lat="49.41421" lon="-1.30332">
        <ele>31.6</ele>
        <time>2020-06-15T17:08:03Z</time>
      </trkpt>
      <trkpt lat="49.41418" lon="-1.30344">
        <ele>31.5</ele>
        <time>2020-06-15T17:08:04Z</time>
      </trkpt>
      <trkpt lat="49.41416" lon="-1.30352">
        <ele>31.4</ele>
        <time>2020-06-15T17:08:05Z</time>
      </trkpt>
      <trkpt lat="49.41415" lon="-1.30362">
        <ele>31.4</ele>
        <time>2020-06-15T17:08:06Z</time>
      </trkpt>
      <trkpt lat="49.41413" lon="-1.3037">
        <ele>31.3</ele>
        <time>2020-06-15T17:08:07Z</time>
      </trkpt>
      <trkpt lat="49.41411" lon="-1.3038">
        <ele>31.2</ele>
        <time>2020-06-15T17:08:08Z</time>
      </trkpt>
      <trkpt lat="49.41408" lon="-1.30389">
        <ele>31.1</ele>
        <time>2020-06-15T17:08:09Z</time>
      </trkpt>
      <trkpt lat="49.41405" lon="-1.30398">
        <ele>31.1</ele>
        <time>2020-06-15T17:08:10Z</time>
      </trkpt>
      <trkpt lat="49.41403" lon="-1.30408">
        <ele>31.1</ele>
        <time>2020-06-15T17:08:11Z</time>
      </trkpt>
      <trkpt lat="49.414" lon="-1.30418">
        <ele>31.1</ele>
        <time>2020-06-15T17:08:12Z</time>
      </trkpt>
      <trkpt lat="49.41397" lon="-1.30428">
        <ele>31.1</ele>
        <time>2020-06-15T17:08:13Z</time>
      </trkpt>
      <trkpt lat="49.41395" lon="-1.30438">
        <ele>31</ele>
        <time>2020-06-15T17:08:14Z</time>
      </trkpt>
      <trkpt lat="49.41392" lon="-1.30447">
        <ele>31</ele>
        <time>2020-06-15T17:08:15Z</time>
      </trkpt>
      <trkpt lat="49.4139" lon="-1.30457">
        <ele>31</ele>
        <time>2020-06-15T17:08:16Z</time>
      </trkpt>
      <trkpt lat="49.41388" lon="-1.30467">
        <ele>31</ele>
        <time>2020-06-15T17:08:17Z</time>
      </trkpt>
      <trkpt lat="49.41385" lon="-1.30477">
        <ele>31</ele>
        <time>2020-06-15T17:08:18Z</time>
      </trkpt>
      <trkpt lat="49.41383" lon="-1.30488">
        <ele>31.1</ele>
        <time>2020-06-15T17:08:19Z</time>
      </trkpt>
      <trkpt lat="49.41381" lon="-1.30498">
        <ele>31.1</ele>
        <time>2020-06-15T17:08:20Z</time>
      </trkpt>
      <trkpt lat="49.41379" lon="-1.30508">
        <ele>31.2</ele>
        <time>2020-06-15T17:08:21Z</time>
      </trkpt>
      <trkpt lat="49.41378" lon="-1.30517">
        <ele>31.2</ele>
        <time>2020-06-15T17:08:22Z</time>
      </trkpt>
      <trkpt lat="49.41376" lon="-1.30525">
        <ele>31.2</ele>
        <time>2020-06-15T17:08:23Z</time>
      </trkpt>
      <trkpt lat="49.41374" lon="-1.30533">
        <ele>31.2</ele>
        <time>2020-06-15T17:08:24Z</time>
      </trkpt>
      <trkpt lat="49.41372" lon="-1.30542">
        <ele>31.2</ele>
        <time>2020-06-15T17:08:25Z</time>
      </trkpt>
      <trkpt lat="49.4137" lon="-1.30548">
        <ele>31.2</ele>
        <time>2020-06-15T17:08:26Z</time>
      </trkpt>
      <trkpt lat="49.41367" lon="-1.30557">
        <ele>31.2</ele>
        <time>2020-06-15T17:08:27Z</time>
      </trkpt>
      <trkpt lat="49.41363" lon="-1.30567">
        <ele>31.2</ele>
        <time>2020-06-15T17:08:28Z</time>
      </trkpt>
      <trkpt lat="49.41361" lon="-1.30576">
        <ele>31.2</ele>
        <time>2020-06-15T17:08:29Z</time>
      </trkpt>
      <trkpt lat="49.41359" lon="-1.30584">
        <ele>31.2</ele>
        <time>2020-06-15T17:08:30Z</time>
      </trkpt>
      <trkpt lat="49.41358" lon="-1.30592">
        <ele>31.3</ele>
        <time>2020-06-15T17:08:31Z</time>
      </trkpt>
      <trkpt lat="49.41355" lon="-1.30602">
        <ele>31.3</ele>
        <time>2020-06-15T17:08:32Z</time>
      </trkpt>
      <trkpt lat="49.41353" lon="-1.30611">
        <ele>31.4</ele>
        <time>2020-06-15T17:08:33Z</time>
      </trkpt>
      <trkpt lat="49.41351" lon="-1.30621">
        <ele>31.4</ele>
        <time>2020-06-15T17:08:34Z</time>
      </trkpt>
      <trkpt lat="49.41348" lon="-1.3063">
        <ele>31.5</ele>
        <time>2020-06-15T17:08:35Z</time>
      </trkpt>
      <trkpt lat="49.41345" lon="-1.30639">
        <ele>31.5</ele>
        <time>2020-06-15T17:08:36Z</time>
      </trkpt>
      <trkpt lat="49.41342" lon="-1.30648">
        <ele>31.6</ele>
        <time>2020-06-15T17:08:37Z</time>
      </trkpt>
      <trkpt lat="49.41338" lon="-1.30658">
        <ele>31.6</ele>
        <time>2020-06-15T17:08:38Z</time>
      </trkpt>
      <trkpt lat="49.41334" lon="-1.30669">
        <ele>31.6</ele>
        <time>2020-06-15T17:08:39Z</time>
      </trkpt>
      <trkpt lat="49.41331" lon="-1.3068">
        <ele>31.7</ele>
        <time>2020-06-15T17:08:40Z</time>
      </trkpt>
      <trkpt lat="49.41327" lon="-1.30691">
        <ele>31.7</ele>
        <time>2020-06-15T17:08:41Z</time>
      </trkpt>
      <trkpt lat="49.41323" lon="-1.307">
        <ele>31.7</ele>
        <time>2020-06-15T17:08:42Z</time>
      </trkpt>
      <trkpt lat="49.4132" lon="-1.30711">
        <ele>31.8</ele>
        <time>2020-06-15T17:08:43Z</time>
      </trkpt>
      <trkpt lat="49.41316" lon="-1.30721">
        <ele>31.8</ele>
        <time>2020-06-15T17:08:44Z</time>
      </trkpt>
      <trkpt lat="49.41311" lon="-1.30732">
        <ele>31.8</ele>
        <time>2020-06-15T17:08:45Z</time>
      </trkpt>
      <trkpt lat="49.41308" lon="-1.30741">
        <ele>31.8</ele>
        <time>2020-06-15T17:08:46Z</time>
      </trkpt>
      <trkpt lat="49.41305" lon="-1.30749">
        <ele>31.8</ele>
        <time>2020-06-15T17:08:47Z</time>
      </trkpt>
      <trkpt lat="49.41301" lon="-1.30758">
        <ele>31.9</ele>
        <time>2020-06-15T17:08:48Z</time>
      </trkpt>
      <trkpt lat="49.41298" lon="-1.30767">
        <ele>31.9</ele>
        <time>2020-06-15T17:08:49Z</time>
      </trkpt>
      <trkpt lat="49.41296" lon="-1.30776">
        <ele>31.9</ele>
        <time>2020-06-15T17:08:50Z</time>
      </trkpt>
      <trkpt lat="49.41293" lon="-1.30785">
        <ele>31.9</ele>
        <time>2020-06-15T17:08:51Z</time>
      </trkpt>
      <trkpt lat="49.41291" lon="-1.30795">
        <ele>31.8</ele>
        <time>2020-06-15T17:08:52Z</time>
      </trkpt>
      <trkpt lat="49.41289" lon="-1.30803">
        <ele>31.8</ele>
        <time>2020-06-15T17:08:53Z</time>
      </trkpt>
      <trkpt lat="49.41287" lon="-1.30813">
        <ele>31.8</ele>
        <time>2020-06-15T17:08:54Z</time>
      </trkpt>
      <trkpt lat="49.41284" lon="-1.30824">
        <ele>31.8</ele>
        <time>2020-06-15T17:08:55Z</time>
      </trkpt>
      <trkpt lat="49.41282" lon="-1.30835">
        <ele>31.8</ele>
        <time>2020-06-15T17:08:56Z</time>
      </trkpt>
      <trkpt lat="49.4128" lon="-1.30846">
        <ele>31.7</ele>
        <time>2020-06-15T17:08:57Z</time>
      </trkpt>
      <trkpt lat="49.41278" lon="-1.30855">
        <ele>31.7</ele>
        <time>2020-06-15T17:08:58Z</time>
      </trkpt>
      <trkpt lat="49.41275" lon="-1.30864">
        <ele>31.7</ele>
        <time>2020-06-15T17:08:59Z</time>
      </trkpt>
      <trkpt lat="49.41273" lon="-1.30874">
        <ele>31.7</ele>
        <time>2020-06-15T17:09:00Z</time>
      </trkpt>
      <trkpt lat="49.41271" lon="-1.30884">
        <ele>31.7</ele>
        <time>2020-06-15T17:09:01Z</time>
      </trkpt>
      <trkpt lat="49.4127" lon="-1.30893">
        <ele>31.6</ele>
        <time>2020-06-15T17:09:02Z</time>
      </trkpt>
      <trkpt lat="49.41268" lon="-1.30904">
        <ele>31.6</ele>
        <time>2020-06-15T17:09:03Z</time>
      </trkpt>
      <trkpt lat="49.41267" lon="-1.30914">
        <ele>31.6</ele>
        <time>2020-06-15T17:09:04Z</time>
      </trkpt>
      <trkpt lat="49.41266" lon="-1.30924">
        <ele>31.5</ele>
        <time>2020-06-15T17:09:05Z</time>
      </trkpt>
      <trkpt lat="49.41265" lon="-1.30933">
        <ele>31.5</ele>
        <time>2020-06-15T17:09:06Z</time>
      </trkpt>
      <trkpt lat="49.41264" lon="-1.30942">
        <ele>31.5</ele>
        <time>2020-06-15T17:09:07Z</time>
      </trkpt>
      <trkpt lat="49.41262" lon="-1.3095">
        <ele>31.4</ele>
        <time>2020-06-15T17:09:08Z</time>
      </trkpt>
      <trkpt lat="49.4126" lon="-1.3096">
        <ele>31.4</ele>
        <time>2020-06-15T17:09:09Z</time>
      </trkpt>
      <trkpt lat="49.41258" lon="-1.30969">
        <ele>31.3</ele>
        <time>2020-06-15T17:09:10Z</time>
      </trkpt>
      <trkpt lat="49.41256" lon="-1.30978">
        <ele>31.3</ele>
        <time>2020-06-15T17:09:11Z</time>
      </trkpt>
      <trkpt lat="49.41255" lon="-1.30986">
        <ele>31.3</ele>
        <time>2020-06-15T17:09:12Z</time>
      </trkpt>
      <trkpt lat="49.41254" lon="-1.30994">
        <ele>31.2</ele>
        <time>2020-06-15T17:09:13Z</time>
      </trkpt>
      <trkpt lat="49.41253" lon="-1.31004">
        <ele>31.2</ele>
        <time>2020-06-15T17:09:14Z</time>
      </trkpt>
      <trkpt lat="49.41252" lon="-1.31014">
        <ele>31.2</ele>
        <time>2020-06-15T17:09:15Z</time>
      </trkpt>
      <trkpt lat="49.41251" lon="-1.31022">
        <ele>31.1</ele>
        <time>2020-06-15T17:09:16Z</time>
      </trkpt>
      <trkpt lat="49.41249" lon="-1.31029">
        <ele>31.1</ele>
        <time>2020-06-15T17:09:17Z</time>
      </trkpt>
      <trkpt lat="49.41246" lon="-1.31032">
        <ele>31</ele>
        <time>2020-06-15T17:09:18Z</time>
      </trkpt>
      <trkpt lat="49.41244" lon="-1.31031">
        <ele>31</ele>
        <time>2020-06-15T17:09:19Z</time>
      </trkpt>
      <trkpt lat="49.41243" lon="-1.3103">
        <ele>31</ele>
        <time>2020-06-15T17:09:20Z</time>
      </trkpt>
      <trkpt lat="49.41243" lon="-1.3103">
        <ele>31</ele>
        <time>2020-06-15T17:09:21Z</time>
      </trkpt>
      <trkpt lat="49.41245" lon="-1.31033">
        <ele>30.9</ele>
        <time>2020-06-15T17:09:22Z</time>
      </trkpt>
      <trkpt lat="49.41245" lon="-1.31036">
        <ele>30.9</ele>
        <time>2020-06-15T17:09:23Z</time>
      </trkpt>
      <trkpt lat="49.41245" lon="-1.31038">
        <ele>30.9</ele>
        <time>2020-06-15T17:09:24Z</time>
      </trkpt>
      <trkpt lat="49.41244" lon="-1.31038">
        <ele>30.9</ele>
        <time>2020-06-15T17:09:25Z</time>
      </trkpt>
      <trkpt lat="49.41244" lon="-1.31038">
        <ele>30.9</ele>
        <time>2020-06-15T17:09:26Z</time>
      </trkpt>
      <trkpt lat="49.41244" lon="-1.31035">
        <ele>30.8</ele>
        <time>2020-06-15T17:09:27Z</time>
      </trkpt>
      <trkpt lat="49.41245" lon="-1.31035">
        <ele>30.8</ele>
        <time>2020-06-15T17:09:28Z</time>
      </trkpt>
      <trkpt lat="49.41246" lon="-1.31036">
        <ele>30.8</ele>
        <time>2020-06-15T17:09:29Z</time>
      </trkpt>
      <trkpt lat="49.41247" lon="-1.31038">
        <ele>30.8</ele>
        <time>2020-06-15T17:09:30Z</time>
      </trkpt>
      <trkpt lat="49.41247" lon="-1.3104">
        <ele>30.8</ele>
        <time>2020-06-15T17:09:31Z</time>
      </trkpt>
      <trkpt lat="49.41248" lon="-1.31044">
        <ele>30.7</ele>
        <time>2020-06-15T17:09:32Z</time>
      </trkpt>
      <trkpt lat="49.41249" lon="-1.3105">
        <ele>30.7</ele>
        <time>2020-06-15T17:09:33Z</time>
      </trkpt>
      <trkpt lat="49.4125" lon="-1.31053">
        <ele>30.7</ele>
        <time>2020-06-15T17:09:34Z</time>
      </trkpt>
      <trkpt lat="49.4125" lon="-1.3106">
        <ele>30.7</ele>
        <time>2020-06-15T17:09:35Z</time>
      </trkpt>
      <trkpt lat="49.4125" lon="-1.31068">
        <ele>30.7</ele>
        <time>2020-06-15T17:09:36Z</time>
      </trkpt>
      <trkpt lat="49.4125" lon="-1.31075">
        <ele>30.7</ele>
        <time>2020-06-15T17:09:37Z</time>
      </trkpt>
      <trkpt lat="49.4125" lon="-1.31082">
        <ele>30.7</ele>
        <time>2020-06-15T17:09:38Z</time>
      </trkpt>
      <trkpt lat="49.41249" lon="-1.31088">
        <ele>30.7</ele>
        <time>2020-06-15T17:09:39Z</time>
      </trkpt>
      <trkpt lat="49.41248" lon="-1.31093">
        <ele>30.7</ele>
        <time>2020-06-15T17:09:40Z</time>
      </trkpt>
      <trkpt lat="49.41246" lon="-1.31098">
        <ele>30.3</ele>
        <time>2020-06-15T17:09:41Z</time>
      </trkpt>
      <trkpt lat="49.41244" lon="-1.31103">
        <ele>30.2</ele>
        <time>2020-06-15T17:09:42Z</time>
      </trkpt>
      <trkpt lat="49.41241" lon="-1.31111">
        <ele>30.1</ele>
        <time>2020-06-15T17:09:43Z</time>
      </trkpt>
      <trkpt lat="49.41237" lon="-1.31116">
        <ele>29.9</ele>
        <time>2020-06-15T17:09:44Z</time>
      </trkpt>
      <trkpt lat="49.41233" lon="-1.31124">
        <ele>29.8</ele>
        <time>2020-06-15T17:09:45Z</time>
      </trkpt>
      <trkpt lat="49.41228" lon="-1.3113">
        <ele>29.8</ele>
        <time>2020-06-15T17:09:46Z</time>
      </trkpt>
      <trkpt lat="49.41223" lon="-1.31136">
        <ele>29.7</ele>
        <time>2020-06-15T17:09:47Z</time>
      </trkpt>
      <trkpt lat="49.41218" lon="-1.3114">
        <ele>29.6</ele>
        <time>2020-06-15T17:09:48Z</time>
      </trkpt>
      <trkpt lat="49.41213" lon="-1.31145">
        <ele>29.5</ele>
        <time>2020-06-15T17:09:49Z</time>
      </trkpt>
      <trkpt lat="49.41208" lon="-1.3115">
        <ele>29.4</ele>
        <time>2020-06-15T17:09:50Z</time>
      </trkpt>
      <trkpt lat="49.41204" lon="-1.31155">
        <ele>29.3</ele>
        <time>2020-06-15T17:09:51Z</time>
      </trkpt>
      <trkpt lat="49.41199" lon="-1.3116">
        <ele>29.2</ele>
        <time>2020-06-15T17:09:52Z</time>
      </trkpt>
      <trkpt lat="49.41195" lon="-1.31165">
        <ele>29.2</ele>
        <time>2020-06-15T17:09:53Z</time>
      </trkpt>
      <trkpt lat="49.41191" lon="-1.3117">
        <ele>29.1</ele>
        <time>2020-06-15T17:09:54Z</time>
      </trkpt>
      <trkpt lat="49.41187" lon="-1.31175">
        <ele>29</ele>
        <time>2020-06-15T17:09:55Z</time>
      </trkpt>
      <trkpt lat="49.41183" lon="-1.31179">
        <ele>29</ele>
        <time>2020-06-15T17:09:56Z</time>
      </trkpt>
      <trkpt lat="49.41179" lon="-1.31183">
        <ele>29</ele>
        <time>2020-06-15T17:09:57Z</time>
      </trkpt>
      <trkpt lat="49.41175" lon="-1.31188">
        <ele>28.9</ele>
        <time>2020-06-15T17:09:58Z</time>
      </trkpt>
      <trkpt lat="49.41171" lon="-1.31193">
        <ele>28.9</ele>
        <time>2020-06-15T17:09:59Z</time>
      </trkpt>
      <trkpt lat="49.41168" lon="-1.31198">
        <ele>28.9</ele>
        <time>2020-06-15T17:10:00Z</time>
      </trkpt>
      <trkpt lat="49.41165" lon="-1.31203">
        <ele>28.8</ele>
        <time>2020-06-15T17:10:01Z</time>
      </trkpt>
      <trkpt lat="49.41161" lon="-1.31206">
        <ele>28.8</ele>
        <time>2020-06-15T17:10:02Z</time>
      </trkpt>
      <trkpt lat="49.41158" lon="-1.3121">
        <ele>28.8</ele>
        <time>2020-06-15T17:10:03Z</time>
      </trkpt>
      <trkpt lat="49.41154" lon="-1.31214">
        <ele>28.8</ele>
        <time>2020-06-15T17:10:04Z</time>
      </trkpt>
      <trkpt lat="49.41151" lon="-1.31219">
        <ele>28.8</ele>
        <time>2020-06-15T17:10:05Z</time>
      </trkpt>
      <trkpt lat="49.41147" lon="-1.31223">
        <ele>28.8</ele>
        <time>2020-06-15T17:10:06Z</time>
      </trkpt>
      <trkpt lat="49.41144" lon="-1.31227">
        <ele>28.8</ele>
        <time>2020-06-15T17:10:07Z</time>
      </trkpt>
      <trkpt lat="49.41141" lon="-1.31229">
        <ele>28.8</ele>
        <time>2020-06-15T17:10:08Z</time>
      </trkpt>
      <trkpt lat="49.41138" lon="-1.31231">
        <ele>28.7</ele>
        <time>2020-06-15T17:10:09Z</time>
      </trkpt>
      <trkpt lat="49.41134" lon="-1.31236">
        <ele>28.7</ele>
        <time>2020-06-15T17:10:10Z</time>
      </trkpt>
      <trkpt lat="49.41131" lon="-1.31241">
        <ele>28.7</ele>
        <time>2020-06-15T17:10:11Z</time>
      </trkpt>
      <trkpt lat="49.41127" lon="-1.31245">
        <ele>28.7</ele>
        <time>2020-06-15T17:10:12Z</time>
      </trkpt>
      <trkpt lat="49.41123" lon="-1.31251">
        <ele>28.7</ele>
        <time>2020-06-15T17:10:13Z</time>
      </trkpt>
      <trkpt lat="49.41119" lon="-1.31259">
        <ele>28.6</ele>
        <time>2020-06-15T17:10:14Z</time>
      </trkpt>
      <trkpt lat="49.41115" lon="-1.31265">
        <ele>28.6</ele>
        <time>2020-06-15T17:10:15Z</time>
      </trkpt>
      <trkpt lat="49.41111" lon="-1.31271">
        <ele>28.6</ele>
        <time>2020-06-15T17:10:16Z</time>
      </trkpt>
      <trkpt lat="49.41107" lon="-1.31276">
        <ele>28.5</ele>
        <time>2020-06-15T17:10:17Z</time>
      </trkpt>
      <trkpt lat="49.41102" lon="-1.31282">
        <ele>28.5</ele>
        <time>2020-06-15T17:10:18Z</time>
      </trkpt>
      <trkpt lat="49.41097" lon="-1.31287">
        <ele>28.4</ele>
        <time>2020-06-15T17:10:19Z</time>
      </trkpt>
      <trkpt lat="49.41092" lon="-1.31293">
        <ele>28.4</ele>
        <time>2020-06-15T17:10:20Z</time>
      </trkpt>
      <trkpt lat="49.41087" lon="-1.31297">
        <ele>28.3</ele>
        <time>2020-06-15T17:10:21Z</time>
      </trkpt>
      <trkpt lat="49.41082" lon="-1.31302">
        <ele>28.3</ele>
        <time>2020-06-15T17:10:22Z</time>
      </trkpt>
      <trkpt lat="49.41078" lon="-1.31308">
        <ele>28.3</ele>
        <time>2020-06-15T17:10:23Z</time>
      </trkpt>
      <trkpt lat="49.41073" lon="-1.31315">
        <ele>28.3</ele>
        <time>2020-06-15T17:10:24Z</time>
      </trkpt>
      <trkpt lat="49.41069" lon="-1.31319">
        <ele>28.3</ele>
        <time>2020-06-15T17:10:25Z</time>
      </trkpt>
      <trkpt lat="49.41064" lon="-1.31324">
        <ele>28.2</ele>
        <time>2020-06-15T17:10:26Z</time>
      </trkpt>
      <trkpt lat="49.4106" lon="-1.31329">
        <ele>28.2</ele>
        <time>2020-06-15T17:10:27Z</time>
      </trkpt>
      <trkpt lat="49.41055" lon="-1.31334">
        <ele>28.1</ele>
        <time>2020-06-15T17:10:28Z</time>
      </trkpt>
      <trkpt lat="49.41051" lon="-1.3134">
        <ele>28</ele>
        <time>2020-06-15T17:10:29Z</time>
      </trkpt>
      <trkpt lat="49.41048" lon="-1.31346">
        <ele>27.9</ele>
        <time>2020-06-15T17:10:30Z</time>
      </trkpt>
      <trkpt lat="49.41044" lon="-1.31353">
        <ele>27.8</ele>
        <time>2020-06-15T17:10:31Z</time>
      </trkpt>
      <trkpt lat="49.4104" lon="-1.31359">
        <ele>27.7</ele>
        <time>2020-06-15T17:10:32Z</time>
      </trkpt>
      <trkpt lat="49.41036" lon="-1.31366">
        <ele>27.7</ele>
        <time>2020-06-15T17:10:33Z</time>
      </trkpt>
      <trkpt lat="49.41033" lon="-1.31372">
        <ele>27.6</ele>
        <time>2020-06-15T17:10:34Z</time>
      </trkpt>
      <trkpt lat="49.41029" lon="-1.31378">
        <ele>27.5</ele>
        <time>2020-06-15T17:10:35Z</time>
      </trkpt>
      <trkpt lat="49.41025" lon="-1.31385">
        <ele>27.3</ele>
        <time>2020-06-15T17:10:36Z</time>
      </trkpt>
      <trkpt lat="49.41021" lon="-1.31393">
        <ele>27.2</ele>
        <time>2020-06-15T17:10:37Z</time>
      </trkpt>
      <trkpt lat="49.41017" lon="-1.31399">
        <ele>27</ele>
        <time>2020-06-15T17:10:38Z</time>
      </trkpt>
      <trkpt lat="49.41013" lon="-1.31407">
        <ele>26.9</ele>
        <time>2020-06-15T17:10:39Z</time>
      </trkpt>
      <trkpt lat="49.41008" lon="-1.31414">
        <ele>26.8</ele>
        <time>2020-06-15T17:10:40Z</time>
      </trkpt>
      <trkpt lat="49.41003" lon="-1.31422">
        <ele>26.6</ele>
        <time>2020-06-15T17:10:41Z</time>
      </trkpt>
      <trkpt lat="49.40998" lon="-1.31426">
        <ele>26.6</ele>
        <time>2020-06-15T17:10:42Z</time>
      </trkpt>
      <trkpt lat="49.40994" lon="-1.31432">
        <ele>26.5</ele>
        <time>2020-06-15T17:10:43Z</time>
      </trkpt>
      <trkpt lat="49.40988" lon="-1.31436">
        <ele>26.4</ele>
        <time>2020-06-15T17:10:44Z</time>
      </trkpt>
      <trkpt lat="49.40983" lon="-1.3144">
        <ele>26.4</ele>
        <time>2020-06-15T17:10:45Z</time>
      </trkpt>
      <trkpt lat="49.40977" lon="-1.31445">
        <ele>26.2</ele>
        <time>2020-06-15T17:10:46Z</time>
      </trkpt>
      <trkpt lat="49.40974" lon="-1.31448">
        <ele>26.1</ele>
        <time>2020-06-15T17:10:47Z</time>
      </trkpt>
      <trkpt lat="49.40969" lon="-1.31453">
        <ele>26.1</ele>
        <time>2020-06-15T17:10:48Z</time>
      </trkpt>
      <trkpt lat="49.40965" lon="-1.31457">
        <ele>26</ele>
        <time>2020-06-15T17:10:49Z</time>
      </trkpt>
      <trkpt lat="49.40962" lon="-1.31461">
        <ele>26</ele>
        <time>2020-06-15T17:10:50Z</time>
      </trkpt>
      <trkpt lat="49.40959" lon="-1.31465">
        <ele>26</ele>
        <time>2020-06-15T17:10:51Z</time>
      </trkpt>
      <trkpt lat="49.40957" lon="-1.31469">
        <ele>25.9</ele>
        <time>2020-06-15T17:10:52Z</time>
      </trkpt>
      <trkpt lat="49.40954" lon="-1.31474">
        <ele>25.9</ele>
        <time>2020-06-15T17:10:53Z</time>
      </trkpt>
      <trkpt lat="49.4095" lon="-1.3148">
        <ele>25.9</ele>
        <time>2020-06-15T17:10:54Z</time>
      </trkpt>
      <trkpt lat="49.40948" lon="-1.31485">
        <ele>25.9</ele>
        <time>2020-06-15T17:10:55Z</time>
      </trkpt>
      <trkpt lat="49.40945" lon="-1.3149">
        <ele>25.9</ele>
        <time>2020-06-15T17:10:56Z</time>
      </trkpt>
      <trkpt lat="49.40944" lon="-1.31499">
        <ele>25.7</ele>
        <time>2020-06-15T17:10:57Z</time>
      </trkpt>
      <trkpt lat="49.40945" lon="-1.31506">
        <ele>25.6</ele>
        <time>2020-06-15T17:10:58Z</time>
      </trkpt>
      <trkpt lat="49.40948" lon="-1.31514">
        <ele>25.4</ele>
        <time>2020-06-15T17:10:59Z</time>
      </trkpt>
      <trkpt lat="49.4095" lon="-1.31521">
        <ele>25.2</ele>
        <time>2020-06-15T17:11:00Z</time>
      </trkpt>
      <trkpt lat="49.40953" lon="-1.31526">
        <ele>25.1</ele>
        <time>2020-06-15T17:11:01Z</time>
      </trkpt>
      <trkpt lat="49.40955" lon="-1.31531">
        <ele>25</ele>
        <time>2020-06-15T17:11:02Z</time>
      </trkpt>
      <trkpt lat="49.40957" lon="-1.31535">
        <ele>24.9</ele>
        <time>2020-06-15T17:11:03Z</time>
      </trkpt>
      <trkpt lat="49.40959" lon="-1.3154">
        <ele>24.8</ele>
        <time>2020-06-15T17:11:04Z</time>
      </trkpt>
      <trkpt lat="49.40959" lon="-1.31546">
        <ele>24.7</ele>
        <time>2020-06-15T17:11:05Z</time>
      </trkpt>
      <trkpt lat="49.40959" lon="-1.31547">
        <ele>24.7</ele>
        <time>2020-06-15T17:11:06Z</time>
      </trkpt>
      <trkpt lat="49.40956" lon="-1.31553">
        <ele>24.8</ele>
        <time>2020-06-15T17:11:07Z</time>
      </trkpt>
      <trkpt lat="49.40955" lon="-1.31555">
        <ele>24.8</ele>
        <time>2020-06-15T17:11:08Z</time>
      </trkpt>
      <trkpt lat="49.40952" lon="-1.31557">
        <ele>24.8</ele>
        <time>2020-06-15T17:11:09Z</time>
      </trkpt>
      <trkpt lat="49.40949" lon="-1.3156">
        <ele>24.9</ele>
        <time>2020-06-15T17:11:10Z</time>
      </trkpt>
      <trkpt lat="49.40946" lon="-1.31564">
        <ele>24.9</ele>
        <time>2020-06-15T17:11:11Z</time>
      </trkpt>
      <trkpt lat="49.40943" lon="-1.31568">
        <ele>25</ele>
        <time>2020-06-15T17:11:12Z</time>
      </trkpt>
      <trkpt lat="49.40939" lon="-1.31571">
        <ele>25.1</ele>
        <time>2020-06-15T17:11:13Z</time>
      </trkpt>
      <trkpt lat="49.40935" lon="-1.31574">
        <ele>25.1</ele>
        <time>2020-06-15T17:11:14Z</time>
      </trkpt>
      <trkpt lat="49.40931" lon="-1.31577">
        <ele>25.2</ele>
        <time>2020-06-15T17:11:15Z</time>
      </trkpt>
      <trkpt lat="49.40927" lon="-1.3158">
        <ele>25.2</ele>
        <time>2020-06-15T17:11:16Z</time>
      </trkpt>
      <trkpt lat="49.40923" lon="-1.31583">
        <ele>25.3</ele>
        <time>2020-06-15T17:11:17Z</time>
      </trkpt>
      <trkpt lat="49.4092" lon="-1.31585">
        <ele>25.3</ele>
        <time>2020-06-15T17:11:18Z</time>
      </trkpt>
      <trkpt lat="49.40917" lon="-1.31588">
        <ele>25.4</ele>
        <time>2020-06-15T17:11:19Z</time>
      </trkpt>
      <trkpt lat="49.40915" lon="-1.31591">
        <ele>25.5</ele>
        <time>2020-06-15T17:11:20Z</time>
      </trkpt>
      <trkpt lat="49.40912" lon="-1.31594">
        <ele>25.5</ele>
        <time>2020-06-15T17:11:21Z</time>
      </trkpt>
      <trkpt lat="49.4091" lon="-1.31598">
        <ele>25.6</ele>
        <time>2020-06-15T17:11:22Z</time>
      </trkpt>
      <trkpt lat="49.40909" lon="-1.31604">
        <ele>25.5</ele>
        <time>2020-06-15T17:11:23Z</time>
      </trkpt>
      <trkpt lat="49.40909" lon="-1.31607">
        <ele>25.5</ele>
        <time>2020-06-15T17:11:24Z</time>
      </trkpt>
      <trkpt lat="49.40908" lon="-1.31613">
        <ele>25.5</ele>
        <time>2020-06-15T17:11:25Z</time>
      </trkpt>
      <trkpt lat="49.40907" lon="-1.31619">
        <ele>25.4</ele>
        <time>2020-06-15T17:11:26Z</time>
      </trkpt>
      <trkpt lat="49.40905" lon="-1.31624">
        <ele>25.4</ele>
        <time>2020-06-15T17:11:27Z</time>
      </trkpt>
      <trkpt lat="49.40904" lon="-1.31629">
        <ele>25.3</ele>
        <time>2020-06-15T17:11:28Z</time>
      </trkpt>
      <trkpt lat="49.40902" lon="-1.31635">
        <ele>25.2</ele>
        <time>2020-06-15T17:11:29Z</time>
      </trkpt>
      <trkpt lat="49.40899" lon="-1.31641">
        <ele>25.1</ele>
        <time>2020-06-15T17:11:30Z</time>
      </trkpt>
      <trkpt lat="49.40896" lon="-1.31647">
        <ele>24.9</ele>
        <time>2020-06-15T17:11:31Z</time>
      </trkpt>
      <trkpt lat="49.40894" lon="-1.31653">
        <ele>24.8</ele>
        <time>2020-06-15T17:11:32Z</time>
      </trkpt>
      <trkpt lat="49.40891" lon="-1.3166">
        <ele>24.6</ele>
        <time>2020-06-15T17:11:33Z</time>
      </trkpt>
      <trkpt lat="49.40889" lon="-1.31667">
        <ele>24.4</ele>
        <time>2020-06-15T17:11:34Z</time>
      </trkpt>
      <trkpt lat="49.40887" lon="-1.31674">
        <ele>24.3</ele>
        <time>2020-06-15T17:11:35Z</time>
      </trkpt>
      <trkpt lat="49.40884" lon="-1.3168">
        <ele>24.1</ele>
        <time>2020-06-15T17:11:36Z</time>
      </trkpt>
      <trkpt lat="49.40882" lon="-1.31686">
        <ele>24</ele>
        <time>2020-06-15T17:11:37Z</time>
      </trkpt>
      <trkpt lat="49.40879" lon="-1.31691">
        <ele>23.8</ele>
        <time>2020-06-15T17:11:38Z</time>
      </trkpt>
      <trkpt lat="49.40876" lon="-1.31698">
        <ele>23.7</ele>
        <time>2020-06-15T17:11:39Z</time>
      </trkpt>
      <trkpt lat="49.40874" lon="-1.31705">
        <ele>23.5</ele>
        <time>2020-06-15T17:11:40Z</time>
      </trkpt>
      <trkpt lat="49.4087" lon="-1.3171">
        <ele>23.4</ele>
        <time>2020-06-15T17:11:41Z</time>
      </trkpt>
      <trkpt lat="49.40866" lon="-1.31714">
        <ele>23.3</ele>
        <time>2020-06-15T17:11:42Z</time>
      </trkpt>
      <trkpt lat="49.40862" lon="-1.31718">
        <ele>23.2</ele>
        <time>2020-06-15T17:11:43Z</time>
      </trkpt>
      <trkpt lat="49.4086" lon="-1.31722">
        <ele>23.1</ele>
        <time>2020-06-15T17:11:44Z</time>
      </trkpt>
      <trkpt lat="49.40857" lon="-1.31725">
        <ele>23</ele>
        <time>2020-06-15T17:11:45Z</time>
      </trkpt>
      <trkpt lat="49.40856" lon="-1.31728">
        <ele>23</ele>
        <time>2020-06-15T17:11:46Z</time>
      </trkpt>
      <trkpt lat="49.40856" lon="-1.31729">
        <ele>22.9</ele>
        <time>2020-06-15T17:11:47Z</time>
      </trkpt>
      <trkpt lat="49.40855" lon="-1.3173">
        <ele>22.9</ele>
        <time>2020-06-15T17:11:48Z</time>
      </trkpt>
      <trkpt lat="49.40854" lon="-1.31731">
        <ele>22.9</ele>
        <time>2020-06-15T17:11:49Z</time>
      </trkpt>
      <trkpt lat="49.40854" lon="-1.31733">
        <ele>22.9</ele>
        <time>2020-06-15T17:11:50Z</time>
      </trkpt>
      <trkpt lat="49.40854" lon="-1.31735">
        <ele>22.8</ele>
        <time>2020-06-15T17:11:51Z</time>
      </trkpt>
      <trkpt lat="49.40853" lon="-1.31736">
        <ele>22.8</ele>
        <time>2020-06-15T17:11:52Z</time>
      </trkpt>
      <trkpt lat="49.40853" lon="-1.31736">
        <ele>22.8</ele>
        <time>2020-06-15T17:11:53Z</time>
      </trkpt>
      <trkpt lat="49.40852" lon="-1.31736">
        <ele>22.8</ele>
        <time>2020-06-15T17:11:54Z</time>
      </trkpt>
      <trkpt lat="49.40852" lon="-1.31737">
        <ele>22.8</ele>
        <time>2020-06-15T17:11:55Z</time>
      </trkpt>
      <trkpt lat="49.40851" lon="-1.31738">
        <ele>22.8</ele>
        <time>2020-06-15T17:11:56Z</time>
      </trkpt>
      <trkpt lat="49.40851" lon="-1.31741">
        <ele>22.7</ele>
        <time>2020-06-15T17:11:57Z</time>
      </trkpt>
      <trkpt lat="49.40851" lon="-1.31742">
        <ele>22.7</ele>
        <time>2020-06-15T17:11:58Z</time>
      </trkpt>
      <trkpt lat="49.40851" lon="-1.31744">
        <ele>22.7</ele>
        <time>2020-06-15T17:11:59Z</time>
      </trkpt>
      <trkpt lat="49.40851" lon="-1.31745">
        <ele>22.7</ele>
        <time>2020-06-15T17:12:00Z</time>
      </trkpt>
      <trkpt lat="49.40851" lon="-1.31746">
        <ele>22.6</ele>
        <time>2020-06-15T17:12:01Z</time>
      </trkpt>
      <trkpt lat="49.40852" lon="-1.31746">
        <ele>22.6</ele>
        <time>2020-06-15T17:12:02Z</time>
      </trkpt>
      <trkpt lat="49.40852" lon="-1.31747">
        <ele>22.6</ele>
        <time>2020-06-15T17:12:03Z</time>
      </trkpt>
      <trkpt lat="49.40852" lon="-1.31747">
        <ele>22.6</ele>
        <time>2020-06-15T17:12:04Z</time>
      </trkpt>
      <trkpt lat="49.4085" lon="-1.31749">
        <ele>22.6</ele>
        <time>2020-06-15T17:12:05Z</time>
      </trkpt>
      <trkpt lat="49.40849" lon="-1.31751">
        <ele>22.5</ele>
        <time>2020-06-15T17:12:06Z</time>
      </trkpt>
      <trkpt lat="49.40848" lon="-1.31752">
        <ele>22.5</ele>
        <time>2020-06-15T17:12:07Z</time>
      </trkpt>
      <trkpt lat="49.40847" lon="-1.31755">
        <ele>22.5</ele>
        <time>2020-06-15T17:12:08Z</time>
      </trkpt>
      <trkpt lat="49.40846" lon="-1.31756">
        <ele>22.5</ele>
        <time>2020-06-15T17:12:09Z</time>
      </trkpt>
      <trkpt lat="49.40845" lon="-1.31756">
        <ele>23</ele>
        <time>2020-06-15T17:12:10Z</time>
      </trkpt>
      <trkpt lat="49.40844" lon="-1.31755">
        <ele>23.1</ele>
        <time>2020-06-15T17:12:11Z</time>
      </trkpt>
      <trkpt lat="49.40844" lon="-1.31754">
        <ele>23.1</ele>
        <time>2020-06-15T17:12:12Z</time>
      </trkpt>
      <trkpt lat="49.40843" lon="-1.31752">
        <ele>23.1</ele>
        <time>2020-06-15T17:12:13Z</time>
      </trkpt>
      <trkpt lat="49.40843" lon="-1.31751">
        <ele>23.2</ele>
        <time>2020-06-15T17:12:14Z</time>
      </trkpt>
      <trkpt lat="49.40843" lon="-1.3175">
        <ele>23.2</ele>
        <time>2020-06-15T17:12:15Z</time>
      </trkpt>
      <trkpt lat="49.40843" lon="-1.31749">
        <ele>23.2</ele>
        <time>2020-06-15T17:12:16Z</time>
      </trkpt>
      <trkpt lat="49.40843" lon="-1.31746">
        <ele>23.3</ele>
        <time>2020-06-15T17:12:17Z</time>
      </trkpt>
      <trkpt lat="49.40843" lon="-1.31745">
        <ele>23.3</ele>
        <time>2020-06-15T17:12:18Z</time>
      </trkpt>
      <trkpt lat="49.40842" lon="-1.31743">
        <ele>23.4</ele>
        <time>2020-06-15T17:12:19Z</time>
      </trkpt>
      <trkpt lat="49.40841" lon="-1.31741">
        <ele>23.4</ele>
        <time>2020-06-15T17:12:20Z</time>
      </trkpt>
      <trkpt lat="49.40841" lon="-1.3174">
        <ele>23.5</ele>
        <time>2020-06-15T17:12:21Z</time>
      </trkpt>
      <trkpt lat="49.40841" lon="-1.3174">
        <ele>23.5</ele>
        <time>2020-06-15T17:12:22Z</time>
      </trkpt>
      <trkpt lat="49.40841" lon="-1.3174">
        <ele>23.5</ele>
        <time>2020-06-15T17:12:23Z</time>
      </trkpt>
      <trkpt lat="49.40841" lon="-1.3174">
        <ele>23.5</ele>
        <time>2020-06-15T17:12:24Z</time>
      </trkpt>
      <trkpt lat="49.40841" lon="-1.3174">
        <ele>23.5</ele>
        <time>2020-06-15T17:12:25Z</time>
      </trkpt>
      <trkpt lat="49.40841" lon="-1.3174">
        <ele>23.5</ele>
        <time>2020-06-15T17:12:26Z</time>
      </trkpt>
      <trkpt lat="49.40841" lon="-1.3174">
        <ele>23.5</ele>
        <time>2020-06-15T17:12:27Z</time>
      </trkpt>
      <trkpt lat="49.40841" lon="-1.3174">
        <ele>23.5</ele>
        <time>2020-06-15T17:12:28Z</time>
      </trkpt>
      <trkpt lat="49.40842" lon="-1.31739">
        <ele>23.5</ele>
        <time>2020-06-15T17:12:29Z</time>
      </trkpt>
      <trkpt lat="49.40841" lon="-1.31739">
        <ele>23.5</ele>
        <time>2020-06-15T17:12:30Z</time>
      </trkpt>
      <trkpt lat="49.40842" lon="-1.31739">
        <ele>23.5</ele>
        <time>2020-06-15T17:12:31Z</time>
      </trkpt>
      <trkpt lat="49.40842" lon="-1.31739">
        <ele>23.5</ele>
        <time>2020-06-15T17:12:32Z</time>
      </trkpt>
      <trkpt lat="49.4084" lon="-1.31735">
        <ele>23.7</ele>
        <time>2020-06-15T17:13:04Z</time>
      </trkpt>
      <trkpt lat="49.40839" lon="-1.31735">
        <ele>23.7</ele>
        <time>2020-06-15T17:13:05Z</time>
      </trkpt>
      <trkpt lat="49.40838" lon="-1.31734">
        <ele>23.8</ele>
        <time>2020-06-15T17:13:06Z</time>
      </trkpt>
      <trkpt lat="49.40836" lon="-1.31734">
        <ele>23.8</ele>
        <time>2020-06-15T17:13:07Z</time>
      </trkpt>
      <trkpt lat="49.40835" lon="-1.31733">
        <ele>23.9</ele>
        <time>2020-06-15T17:13:08Z</time>
      </trkpt>
      <trkpt lat="49.40833" lon="-1.31733">
        <ele>24</ele>
        <time>2020-06-15T17:13:09Z</time>
      </trkpt>
      <trkpt lat="49.40832" lon="-1.31733">
        <ele>24</ele>
        <time>2020-06-15T17:13:10Z</time>
      </trkpt>
      <trkpt lat="49.40831" lon="-1.31732">
        <ele>24</ele>
        <time>2020-06-15T17:13:11Z</time>
      </trkpt>
      <trkpt lat="49.4083" lon="-1.31732">
        <ele>24.1</ele>
        <time>2020-06-15T17:13:12Z</time>
      </trkpt>
      <trkpt lat="49.40828" lon="-1.31731">
        <ele>24.1</ele>
        <time>2020-06-15T17:13:13Z</time>
      </trkpt>
      <trkpt lat="49.40827" lon="-1.3173">
        <ele>24.2</ele>
        <time>2020-06-15T17:13:14Z</time>
      </trkpt>
      <trkpt lat="49.40825" lon="-1.31729">
        <ele>24.3</ele>
        <time>2020-06-15T17:13:15Z</time>
      </trkpt>
      <trkpt lat="49.40823" lon="-1.31726">
        <ele>24.4</ele>
        <time>2020-06-15T17:13:16Z</time>
      </trkpt>
      <trkpt lat="49.40822" lon="-1.31725">
        <ele>24.5</ele>
        <time>2020-06-15T17:13:17Z</time>
      </trkpt>
      <trkpt lat="49.4082" lon="-1.31724">
        <ele>24.6</ele>
        <time>2020-06-15T17:13:18Z</time>
      </trkpt>
      <trkpt lat="49.40819" lon="-1.31722">
        <ele>24.6</ele>
        <time>2020-06-15T17:13:19Z</time>
      </trkpt>
      <trkpt lat="49.40818" lon="-1.31721">
        <ele>24.7</ele>
        <time>2020-06-15T17:13:20Z</time>
      </trkpt>
      <trkpt lat="49.40817" lon="-1.3172">
        <ele>24.7</ele>
        <time>2020-06-15T17:13:21Z</time>
      </trkpt>
      <trkpt lat="49.40817" lon="-1.31719">
        <ele>24.7</ele>
        <time>2020-06-15T17:13:22Z</time>
      </trkpt>
      <trkpt lat="49.40815" lon="-1.31717">
        <ele>24.8</ele>
        <time>2020-06-15T17:13:23Z</time>
      </trkpt>
      <trkpt lat="49.40814" lon="-1.31716">
        <ele>24.9</ele>
        <time>2020-06-15T17:13:24Z</time>
      </trkpt>
      <trkpt lat="49.40814" lon="-1.31715">
        <ele>24.9</ele>
        <time>2020-06-15T17:13:25Z</time>
      </trkpt>
      <trkpt lat="49.40812" lon="-1.31714">
        <ele>25</ele>
        <time>2020-06-15T17:13:26Z</time>
      </trkpt>
      <trkpt lat="49.40812" lon="-1.31714">
        <ele>25.4</ele>
        <time>2020-06-15T17:13:27Z</time>
      </trkpt>
      <trkpt lat="49.40811" lon="-1.31713">
        <ele>25.4</ele>
        <time>2020-06-15T17:13:28Z</time>
      </trkpt>
      <trkpt lat="49.4081" lon="-1.31712">
        <ele>25.4</ele>
        <time>2020-06-15T17:13:29Z</time>
      </trkpt>
      <trkpt lat="49.4081" lon="-1.31711">
        <ele>25.4</ele>
        <time>2020-06-15T17:13:30Z</time>
      </trkpt>
      <trkpt lat="49.40809" lon="-1.31711">
        <ele>25.4</ele>
        <time>2020-06-15T17:13:31Z</time>
      </trkpt>
      <trkpt lat="49.40809" lon="-1.31711">
        <ele>25.4</ele>
        <time>2020-06-15T17:13:32Z</time>
      </trkpt>
      <trkpt lat="49.40809" lon="-1.3171">
        <ele>25.5</ele>
        <time>2020-06-15T17:13:33Z</time>
      </trkpt>
      <trkpt lat="49.40808" lon="-1.31709">
        <ele>25.5</ele>
        <time>2020-06-15T17:13:34Z</time>
      </trkpt>
      <trkpt lat="49.40809" lon="-1.31708">
        <ele>25.5</ele>
        <time>2020-06-15T17:13:35Z</time>
      </trkpt>
      <trkpt lat="49.40809" lon="-1.31708">
        <ele>25.5</ele>
        <time>2020-06-15T17:13:36Z</time>
      </trkpt>
      <trkpt lat="49.40808" lon="-1.31708">
        <ele>25.5</ele>
        <time>2020-06-15T17:13:37Z</time>
      </trkpt>
      <trkpt lat="49.40808" lon="-1.31707">
        <ele>25.5</ele>
        <time>2020-06-15T17:13:38Z</time>
      </trkpt>
      <trkpt lat="49.40808" lon="-1.31707">
        <ele>25.5</ele>
        <time>2020-06-15T17:13:39Z</time>
      </trkpt>
      <trkpt lat="49.40807" lon="-1.31706">
        <ele>25.5</ele>
        <time>2020-06-15T17:13:40Z</time>
      </trkpt>
      <trkpt lat="49.40807" lon="-1.31706">
        <ele>25.5</ele>
        <time>2020-06-15T17:13:41Z</time>
      </trkpt>
      <trkpt lat="49.40807" lon="-1.31705">
        <ele>25.5</ele>
        <time>2020-06-15T17:13:42Z</time>
      </trkpt>
      <trkpt lat="49.40808" lon="-1.31705">
        <ele>25.5</ele>
        <time>2020-06-15T17:13:43Z</time>
      </trkpt>
      <trkpt lat="49.40808" lon="-1.31705">
        <ele>25.5</ele>
        <time>2020-06-15T17:13:44Z</time>
      </trkpt>
      <trkpt lat="49.40808" lon="-1.31705">
        <ele>25.5</ele>
        <time>2020-06-15T17:13:45Z</time>
      </trkpt>
      <trkpt lat="49.40808" lon="-1.31705">
        <ele>25.5</ele>
        <time>2020-06-15T17:13:46Z</time>
      </trkpt>
      <trkpt lat="49.40808" lon="-1.31705">
        <ele>25.5</ele>
        <time>2020-06-15T17:13:47Z</time>
      </trkpt>
      <trkpt lat="49.40808" lon="-1.31705">
        <ele>25.5</ele>
        <time>2020-06-15T17:13:48Z</time>
      </trkpt>
      <trkpt lat="49.40808" lon="-1.31706">
        <ele>25.5</ele>
        <time>2020-06-15T17:13:49Z</time>
      </trkpt>
      <trkpt lat="49.40808" lon="-1.31706">
        <ele>25.5</ele>
        <time>2020-06-15T17:13:50Z</time>
      </trkpt>
      <trkpt lat="49.40808" lon="-1.31706">
        <ele>25.5</ele>
        <time>2020-06-15T17:13:51Z</time>
      </trkpt>
      <trkpt lat="49.40808" lon="-1.31706">
        <ele>25.5</ele>
        <time>2020-06-15T17:13:52Z</time>
      </trkpt>
      <trkpt lat="49.40808" lon="-1.31706">
        <ele>25.5</ele>
        <time>2020-06-15T17:13:53Z</time>
      </trkpt>
      <trkpt lat="49.40808" lon="-1.31706">
        <ele>25.6</ele>
        <time>2020-06-15T17:13:54Z</time>
      </trkpt>
      <trkpt lat="49.40808" lon="-1.31706">
        <ele>25.6</ele>
        <time>2020-06-15T17:13:55Z</time>
      </trkpt>
      <trkpt lat="49.40808" lon="-1.31707">
        <ele>25.6</ele>
        <time>2020-06-15T17:13:56Z</time>
      </trkpt>
      <trkpt lat="49.40808" lon="-1.31708">
        <ele>25.6</ele>
        <time>2020-06-15T17:13:57Z</time>
      </trkpt>
      <trkpt lat="49.40808" lon="-1.31707">
        <ele>25.6</ele>
        <time>2020-06-15T17:13:58Z</time>
      </trkpt>
      <trkpt lat="49.40808" lon="-1.31706">
        <ele>25.6</ele>
        <time>2020-06-15T17:13:59Z</time>
      </trkpt>
      <trkpt lat="49.40808" lon="-1.31705">
        <ele>25.6</ele>
        <time>2020-06-15T17:14:00Z</time>
      </trkpt>
      <trkpt lat="49.40812" lon="-1.31701">
        <ele>25.7</ele>
        <time>2020-06-15T17:14:05Z</time>
      </trkpt>
      <trkpt lat="49.40813" lon="-1.31698">
        <ele>25.7</ele>
        <time>2020-06-15T17:14:06Z</time>
      </trkpt>
      <trkpt lat="49.40814" lon="-1.31695">
        <ele>25.7</ele>
        <time>2020-06-15T17:14:07Z</time>
      </trkpt>
      <trkpt lat="49.40814" lon="-1.31693">
        <ele>25.7</ele>
        <time>2020-06-15T17:14:08Z</time>
      </trkpt>
      <trkpt lat="49.40817" lon="-1.31689">
        <ele>25.7</ele>
        <time>2020-06-15T17:14:09Z</time>
      </trkpt>
      <trkpt lat="49.40817" lon="-1.31688">
        <ele>25.8</ele>
        <time>2020-06-15T17:14:10Z</time>
      </trkpt>
      <trkpt lat="49.40819" lon="-1.31683">
        <ele>25.8</ele>
        <time>2020-06-15T17:14:11Z</time>
      </trkpt>
      <trkpt lat="49.40819" lon="-1.31682">
        <ele>25.9</ele>
        <time>2020-06-15T17:14:12Z</time>
      </trkpt>
      <trkpt lat="49.40819" lon="-1.3168">
        <ele>25.9</ele>
        <time>2020-06-15T17:14:13Z</time>
      </trkpt>
      <trkpt lat="49.40819" lon="-1.31678">
        <ele>25.9</ele>
        <time>2020-06-15T17:14:14Z</time>
      </trkpt>
      <trkpt lat="49.40819" lon="-1.31676">
        <ele>25.9</ele>
        <time>2020-06-15T17:14:15Z</time>
      </trkpt>
      <trkpt lat="49.40819" lon="-1.31675">
        <ele>26</ele>
        <time>2020-06-15T17:14:16Z</time>
      </trkpt>
      <trkpt lat="49.4082" lon="-1.31674">
        <ele>26.1</ele>
        <time>2020-06-15T17:14:17Z</time>
      </trkpt>
      <trkpt lat="49.4082" lon="-1.31673">
        <ele>26.1</ele>
        <time>2020-06-15T17:14:18Z</time>
      </trkpt>
      <trkpt lat="49.40821" lon="-1.31673">
        <ele>26.1</ele>
        <time>2020-06-15T17:14:19Z</time>
      </trkpt>
      <trkpt lat="49.40822" lon="-1.31672">
        <ele>26.1</ele>
        <time>2020-06-15T17:14:20Z</time>
      </trkpt>
      <trkpt lat="49.40822" lon="-1.31671">
        <ele>26.1</ele>
        <time>2020-06-15T17:14:21Z</time>
      </trkpt>
      <trkpt lat="49.40822" lon="-1.31671">
        <ele>26.1</ele>
        <time>2020-06-15T17:14:22Z</time>
      </trkpt>
      <trkpt lat="49.40822" lon="-1.3167">
        <ele>26.1</ele>
        <time>2020-06-15T17:14:23Z</time>
      </trkpt>
      <trkpt lat="49.40823" lon="-1.3167">
        <ele>26.1</ele>
        <time>2020-06-15T17:14:24Z</time>
      </trkpt>
      <trkpt lat="49.40823" lon="-1.31669">
        <ele>26.1</ele>
        <time>2020-06-15T17:14:25Z</time>
      </trkpt>
      <trkpt lat="49.40823" lon="-1.31668">
        <ele>26.1</ele>
        <time>2020-06-15T17:14:26Z</time>
      </trkpt>
      <trkpt lat="49.40824" lon="-1.31668">
        <ele>26.1</ele>
        <time>2020-06-15T17:14:27Z</time>
      </trkpt>
      <trkpt lat="49.40824" lon="-1.31667">
        <ele>26.1</ele>
        <time>2020-06-15T17:14:28Z</time>
      </trkpt>
      <trkpt lat="49.40824" lon="-1.31667">
        <ele>26.1</ele>
        <time>2020-06-15T17:14:29Z</time>
      </trkpt>
      <trkpt lat="49.40824" lon="-1.31666">
        <ele>26.1</ele>
        <time>2020-06-15T17:14:30Z</time>
      </trkpt>
      <trkpt lat="49.40825" lon="-1.31665">
        <ele>26.1</ele>
        <time>2020-06-15T17:14:43Z</time>
      </trkpt>
      <trkpt lat="49.40825" lon="-1.31665">
        <ele>26.1</ele>
        <time>2020-06-15T17:14:44Z</time>
      </trkpt>
      <trkpt lat="49.40825" lon="-1.31664">
        <ele>26.1</ele>
        <time>2020-06-15T17:14:45Z</time>
      </trkpt>
      <trkpt lat="49.40826" lon="-1.31662">
        <ele>26.4</ele>
        <time>2020-06-15T17:14:46Z</time>
      </trkpt>
      <trkpt lat="49.40827" lon="-1.31661">
        <ele>26.4</ele>
        <time>2020-06-15T17:14:47Z</time>
      </trkpt>
      <trkpt lat="49.40829" lon="-1.31659">
        <ele>26.4</ele>
        <time>2020-06-15T17:14:48Z</time>
      </trkpt>
      <trkpt lat="49.4083" lon="-1.31659">
        <ele>26.4</ele>
        <time>2020-06-15T17:14:49Z</time>
      </trkpt>
      <trkpt lat="49.40831" lon="-1.31659">
        <ele>26</ele>
        <time>2020-06-15T17:14:50Z</time>
      </trkpt>
      <trkpt lat="49.40832" lon="-1.31658">
        <ele>26</ele>
        <time>2020-06-15T17:14:51Z</time>
      </trkpt>
      <trkpt lat="49.40833" lon="-1.31658">
        <ele>26</ele>
        <time>2020-06-15T17:14:52Z</time>
      </trkpt>
      <trkpt lat="49.40833" lon="-1.31658">
        <ele>26</ele>
        <time>2020-06-15T17:14:53Z</time>
      </trkpt>
      <trkpt lat="49.40834" lon="-1.31658">
        <ele>26</ele>
        <time>2020-06-15T17:14:54Z</time>
      </trkpt>
      <trkpt lat="49.40836" lon="-1.31658">
        <ele>25.9</ele>
        <time>2020-06-15T17:14:55Z</time>
      </trkpt>
      <trkpt lat="49.40837" lon="-1.31659">
        <ele>25.9</ele>
        <time>2020-06-15T17:14:56Z</time>
      </trkpt>
      <trkpt lat="49.40838" lon="-1.3166">
        <ele>25.9</ele>
        <time>2020-06-15T17:14:57Z</time>
      </trkpt>
      <trkpt lat="49.40839" lon="-1.31661">
        <ele>25.9</ele>
        <time>2020-06-15T17:14:58Z</time>
      </trkpt>
      <trkpt lat="49.40841" lon="-1.31661">
        <ele>25.9</ele>
        <time>2020-06-15T17:14:59Z</time>
      </trkpt>
      <trkpt lat="49.40842" lon="-1.31662">
        <ele>25.9</ele>
        <time>2020-06-15T17:15:00Z</time>
      </trkpt>
      <trkpt lat="49.40843" lon="-1.31663">
        <ele>25.9</ele>
        <time>2020-06-15T17:15:01Z</time>
      </trkpt>
      <trkpt lat="49.40844" lon="-1.31664">
        <ele>25.9</ele>
        <time>2020-06-15T17:15:27Z</time>
      </trkpt>
      <trkpt lat="49.40846" lon="-1.31665">
        <ele>25.9</ele>
        <time>2020-06-15T17:15:28Z</time>
      </trkpt>
      <trkpt lat="49.4085" lon="-1.31665">
        <ele>25.9</ele>
        <time>2020-06-15T17:15:29Z</time>
      </trkpt>
      <trkpt lat="49.40851" lon="-1.31665">
        <ele>25.9</ele>
        <time>2020-06-15T17:15:30Z</time>
      </trkpt>
      <trkpt lat="49.40854" lon="-1.31666">
        <ele>26</ele>
        <time>2020-06-15T17:15:31Z</time>
      </trkpt>
      <trkpt lat="49.40856" lon="-1.31665">
        <ele>26</ele>
        <time>2020-06-15T17:15:32Z</time>
      </trkpt>
      <trkpt lat="49.40857" lon="-1.31665">
        <ele>26</ele>
        <time>2020-06-15T17:15:33Z</time>
      </trkpt>
      <trkpt lat="49.40859" lon="-1.31666">
        <ele>26</ele>
        <time>2020-06-15T17:15:34Z</time>
      </trkpt>
      <trkpt lat="49.4086" lon="-1.31666">
        <ele>26</ele>
        <time>2020-06-15T17:15:35Z</time>
      </trkpt>
      <trkpt lat="49.4086" lon="-1.31666">
        <ele>26</ele>
        <time>2020-06-15T17:15:36Z</time>
      </trkpt>
      <trkpt lat="49.40861" lon="-1.31667">
        <ele>26</ele>
        <time>2020-06-15T17:15:37Z</time>
      </trkpt>
      <trkpt lat="49.40862" lon="-1.31667">
        <ele>26</ele>
        <time>2020-06-15T17:15:38Z</time>
      </trkpt>
      <trkpt lat="49.40862" lon="-1.31667">
        <ele>26</ele>
        <time>2020-06-15T17:15:39Z</time>
      </trkpt>
      <trkpt lat="49.40863" lon="-1.31667">
        <ele>26</ele>
        <time>2020-06-15T17:15:40Z</time>
      </trkpt>
      <trkpt lat="49.40863" lon="-1.31668">
        <ele>26</ele>
        <time>2020-06-15T17:15:41Z</time>
      </trkpt>
      <trkpt lat="49.40863" lon="-1.31669">
        <ele>26</ele>
        <time>2020-06-15T17:15:42Z</time>
      </trkpt>
      <trkpt lat="49.40863" lon="-1.3167">
        <ele>26</ele>
        <time>2020-06-15T17:15:43Z</time>
      </trkpt>
      <trkpt lat="49.40864" lon="-1.3167">
        <ele>26</ele>
        <time>2020-06-15T17:15:44Z</time>
      </trkpt>
      <trkpt lat="49.40864" lon="-1.3167">
        <ele>26</ele>
        <time>2020-06-15T17:15:45Z</time>
      </trkpt>
      <trkpt lat="49.40864" lon="-1.3167">
        <ele>26</ele>
        <time>2020-06-15T17:15:46Z</time>
      </trkpt>
      <trkpt lat="49.40864" lon="-1.3167">
        <ele>26</ele>
        <time>2020-06-15T17:15:47Z</time>
      </trkpt>
      <trkpt lat="49.40864" lon="-1.3167">
        <ele>26</ele>
        <time>2020-06-15T17:15:48Z</time>
      </trkpt>
      <trkpt lat="49.40864" lon="-1.3167">
        <ele>26</ele>
        <time>2020-06-15T17:15:49Z</time>
      </trkpt>
      <trkpt lat="49.40863" lon="-1.3167">
        <ele>26</ele>
        <time>2020-06-15T17:15:50Z</time>
      </trkpt>
      <trkpt lat="49.40861" lon="-1.3166">
        <ele>26.2</ele>
        <time>2020-06-15T17:16:00Z</time>
      </trkpt>
      <trkpt lat="49.40862" lon="-1.31657">
        <ele>26.3</ele>
        <time>2020-06-15T17:16:01Z</time>
      </trkpt>
      <trkpt lat="49.40862" lon="-1.31652">
        <ele>26.3</ele>
        <time>2020-06-15T17:16:02Z</time>
      </trkpt>
      <trkpt lat="49.40862" lon="-1.3165">
        <ele>26.4</ele>
        <time>2020-06-15T17:16:03Z</time>
      </trkpt>
      <trkpt lat="49.40862" lon="-1.31647">
        <ele>26.4</ele>
        <time>2020-06-15T17:16:04Z</time>
      </trkpt>
      <trkpt lat="49.40863" lon="-1.31645">
        <ele>26.4</ele>
        <time>2020-06-15T17:16:05Z</time>
      </trkpt>
      <trkpt lat="49.40864" lon="-1.31643">
        <ele>26.4</ele>
        <time>2020-06-15T17:16:06Z</time>
      </trkpt>
      <trkpt lat="49.40865" lon="-1.31641">
        <ele>26.4</ele>
        <time>2020-06-15T17:16:07Z</time>
      </trkpt>
      <trkpt lat="49.40866" lon="-1.3164">
        <ele>26.3</ele>
        <time>2020-06-15T17:16:08Z</time>
      </trkpt>
      <trkpt lat="49.40867" lon="-1.31639">
        <ele>26.3</ele>
        <time>2020-06-15T17:16:09Z</time>
      </trkpt>
      <trkpt lat="49.40868" lon="-1.31638">
        <ele>26.3</ele>
        <time>2020-06-15T17:16:10Z</time>
      </trkpt>
      <trkpt lat="49.40869" lon="-1.31639">
        <ele>26.2</ele>
        <time>2020-06-15T17:16:11Z</time>
      </trkpt>
      <trkpt lat="49.4087" lon="-1.31639">
        <ele>26.2</ele>
        <time>2020-06-15T17:16:12Z</time>
      </trkpt>
      <trkpt lat="49.4087" lon="-1.3164">
        <ele>26.2</ele>
        <time>2020-06-15T17:16:13Z</time>
      </trkpt>
      <trkpt lat="49.40871" lon="-1.31641">
        <ele>26.2</ele>
        <time>2020-06-15T17:16:14Z</time>
      </trkpt>
      <trkpt lat="49.40872" lon="-1.31643">
        <ele>26.1</ele>
        <time>2020-06-15T17:16:15Z</time>
      </trkpt>
      <trkpt lat="49.40872" lon="-1.31644">
        <ele>26.1</ele>
        <time>2020-06-15T17:16:16Z</time>
      </trkpt>
      <trkpt lat="49.40872" lon="-1.31644">
        <ele>26.1</ele>
        <time>2020-06-15T17:16:17Z</time>
      </trkpt>
      <trkpt lat="49.40872" lon="-1.31645">
        <ele>26</ele>
        <time>2020-06-15T17:16:18Z</time>
      </trkpt>
      <trkpt lat="49.40872" lon="-1.31645">
        <ele>26</ele>
        <time>2020-06-15T17:16:19Z</time>
      </trkpt>
      <trkpt lat="49.40872" lon="-1.31646">
        <ele>26</ele>
        <time>2020-06-15T17:16:20Z</time>
      </trkpt>
      <trkpt lat="49.40872" lon="-1.31645">
        <ele>26</ele>
        <time>2020-06-15T17:16:21Z</time>
      </trkpt>
      <trkpt lat="49.40872" lon="-1.31645">
        <ele>26</ele>
        <time>2020-06-15T17:16:22Z</time>
      </trkpt>
      <trkpt lat="49.40873" lon="-1.31646">
        <ele>26</ele>
        <time>2020-06-15T17:16:23Z</time>
      </trkpt>
      <trkpt lat="49.40873" lon="-1.31645">
        <ele>26</ele>
        <time>2020-06-15T17:16:24Z</time>
      </trkpt>
      <trkpt lat="49.40874" lon="-1.31645">
        <ele>25.9</ele>
        <time>2020-06-15T17:16:25Z</time>
      </trkpt>
      <trkpt lat="49.40874" lon="-1.31644">
        <ele>25.9</ele>
        <time>2020-06-15T17:16:26Z</time>
      </trkpt>
      <trkpt lat="49.40874" lon="-1.31645">
        <ele>25.9</ele>
        <time>2020-06-15T17:16:27Z</time>
      </trkpt>
      <trkpt lat="49.40875" lon="-1.31645">
        <ele>25.9</ele>
        <time>2020-06-15T17:16:28Z</time>
      </trkpt>
      <trkpt lat="49.40874" lon="-1.31644">
        <ele>25.9</ele>
        <time>2020-06-15T17:16:29Z</time>
      </trkpt>
      <trkpt lat="49.40874" lon="-1.31644">
        <ele>25.9</ele>
        <time>2020-06-15T17:16:30Z</time>
      </trkpt>
      <trkpt lat="49.40875" lon="-1.31641">
        <ele>25.9</ele>
        <time>2020-06-15T17:16:31Z</time>
      </trkpt>
      <trkpt lat="49.40875" lon="-1.31637">
        <ele>25.9</ele>
        <time>2020-06-15T17:16:32Z</time>
      </trkpt>
      <trkpt lat="49.40875" lon="-1.31634">
        <ele>26</ele>
        <time>2020-06-15T17:16:33Z</time>
      </trkpt>
      <trkpt lat="49.40875" lon="-1.31631">
        <ele>26</ele>
        <time>2020-06-15T17:16:34Z</time>
      </trkpt>
      <trkpt lat="49.40641" lon="-1.31319">
        <ele>24.7</ele>
        <time>2020-06-15T17:19:48Z</time>
      </trkpt>
      <trkpt lat="49.40638" lon="-1.31326">
        <ele>24.7</ele>
        <time>2020-06-15T17:19:49Z</time>
      </trkpt>
      <trkpt lat="49.40637" lon="-1.31328">
        <ele>24.7</ele>
        <time>2020-06-15T17:19:50Z</time>
      </trkpt>
      <trkpt lat="49.40636" lon="-1.31331">
        <ele>24.7</ele>
        <time>2020-06-15T17:19:51Z</time>
      </trkpt>
      <trkpt lat="49.40636" lon="-1.31333">
        <ele>24.7</ele>
        <time>2020-06-15T17:19:52Z</time>
      </trkpt>
      <trkpt lat="49.40636" lon="-1.31337">
        <ele>24.7</ele>
        <time>2020-06-15T17:19:53Z</time>
      </trkpt>
      <trkpt lat="49.40637" lon="-1.31338">
        <ele>24.7</ele>
        <time>2020-06-15T17:19:54Z</time>
      </trkpt>
      <trkpt lat="49.40639" lon="-1.31338">
        <ele>24.7</ele>
        <time>2020-06-15T17:19:55Z</time>
      </trkpt>
      <trkpt lat="49.40641" lon="-1.31337">
        <ele>24.7</ele>
        <time>2020-06-15T17:19:56Z</time>
      </trkpt>
      <trkpt lat="49.40643" lon="-1.31335">
        <ele>24.8</ele>
        <time>2020-06-15T17:19:57Z</time>
      </trkpt>
      <trkpt lat="49.40646" lon="-1.31334">
        <ele>24.7</ele>
        <time>2020-06-15T17:19:58Z</time>
      </trkpt>
      <trkpt lat="49.40649" lon="-1.31334">
        <ele>24.8</ele>
        <time>2020-06-15T17:19:59Z</time>
      </trkpt>
      <trkpt lat="49.4065" lon="-1.31337">
        <ele>24.8</ele>
        <time>2020-06-15T17:20:00Z</time>
      </trkpt>
      <trkpt lat="49.40652" lon="-1.31338">
        <ele>24.8</ele>
        <time>2020-06-15T17:20:01Z</time>
      </trkpt>
      <trkpt lat="49.40658" lon="-1.31346">
        <ele>24.9</ele>
        <time>2020-06-15T17:20:02Z</time>
      </trkpt>
      <trkpt lat="49.40663" lon="-1.31355">
        <ele>25</ele>
        <time>2020-06-15T17:20:03Z</time>
      </trkpt>
      <trkpt lat="49.40667" lon="-1.31364">
        <ele>25</ele>
        <time>2020-06-15T17:20:04Z</time>
      </trkpt>
      <trkpt lat="49.40672" lon="-1.31372">
        <ele>25.1</ele>
        <time>2020-06-15T17:20:05Z</time>
      </trkpt>
      <trkpt lat="49.40675" lon="-1.31369">
        <ele>25.1</ele>
        <time>2020-06-15T17:20:06Z</time>
      </trkpt>
      <trkpt lat="49.40681" lon="-1.31366">
        <ele>25.1</ele>
        <time>2020-06-15T17:20:07Z</time>
      </trkpt>
      <trkpt lat="49.40683" lon="-1.31367">
        <ele>25.2</ele>
        <time>2020-06-15T17:20:08Z</time>
      </trkpt>
      <trkpt lat="49.40686" lon="-1.31369">
        <ele>25.2</ele>
        <time>2020-06-15T17:20:09Z</time>
      </trkpt>
      <trkpt lat="49.40689" lon="-1.3137">
        <ele>25.2</ele>
        <time>2020-06-15T17:20:10Z</time>
      </trkpt>
      <trkpt lat="49.40691" lon="-1.31371">
        <ele>25.3</ele>
        <time>2020-06-15T17:20:11Z</time>
      </trkpt>
      <trkpt lat="49.40694" lon="-1.31372">
        <ele>25.3</ele>
        <time>2020-06-15T17:20:12Z</time>
      </trkpt>
      <trkpt lat="49.40696" lon="-1.31381">
        <ele>25.4</ele>
        <time>2020-06-15T17:20:13Z</time>
      </trkpt>
      <trkpt lat="49.40696" lon="-1.31387">
        <ele>25.4</ele>
        <time>2020-06-15T17:20:14Z</time>
      </trkpt>
      <trkpt lat="49.40695" lon="-1.31394">
        <ele>25.5</ele>
        <time>2020-06-15T17:20:15Z</time>
      </trkpt>
      <trkpt lat="49.40692" lon="-1.31399">
        <ele>25.4</ele>
        <time>2020-06-15T17:20:16Z</time>
      </trkpt>
      <trkpt lat="49.4069" lon="-1.31403">
        <ele>25.4</ele>
        <time>2020-06-15T17:20:17Z</time>
      </trkpt>
      <trkpt lat="49.40689" lon="-1.31404">
        <ele>25.4</ele>
        <time>2020-06-15T17:20:18Z</time>
      </trkpt>
      <trkpt lat="49.4069" lon="-1.3141">
        <ele>25.5</ele>
        <time>2020-06-15T17:20:19Z</time>
      </trkpt>
      <trkpt lat="49.4069" lon="-1.31412">
        <ele>25.5</ele>
        <time>2020-06-15T17:20:20Z</time>
      </trkpt>
      <trkpt lat="49.40691" lon="-1.31416">
        <ele>25.5</ele>
        <time>2020-06-15T17:20:21Z</time>
      </trkpt>
      <trkpt lat="49.40691" lon="-1.31417">
        <ele>25.5</ele>
        <time>2020-06-15T17:20:22Z</time>
      </trkpt>
      <trkpt lat="49.40693" lon="-1.31421">
        <ele>25.6</ele>
        <time>2020-06-15T17:20:23Z</time>
      </trkpt>
      <trkpt lat="49.40693" lon="-1.31423">
        <ele>25.6</ele>
        <time>2020-06-15T17:20:24Z</time>
      </trkpt>
      <trkpt lat="49.40694" lon="-1.31425">
        <ele>25.6</ele>
        <time>2020-06-15T17:20:25Z</time>
      </trkpt>
      <trkpt lat="49.40695" lon="-1.31427">
        <ele>25.6</ele>
        <time>2020-06-15T17:20:26Z</time>
      </trkpt>
      <trkpt lat="49.40696" lon="-1.31427">
        <ele>25.6</ele>
        <time>2020-06-15T17:20:27Z</time>
      </trkpt>
      <trkpt lat="49.40696" lon="-1.31428">
        <ele>25.6</ele>
        <time>2020-06-15T17:20:28Z</time>
      </trkpt>
      <trkpt lat="49.40697" lon="-1.31428">
        <ele>25.7</ele>
        <time>2020-06-15T17:20:29Z</time>
      </trkpt>
      <trkpt lat="49.40697" lon="-1.31428">
        <ele>25.6</ele>
        <time>2020-06-15T17:20:30Z</time>
      </trkpt>
      <trkpt lat="49.40697" lon="-1.31429">
        <ele>25.6</ele>
        <time>2020-06-15T17:20:31Z</time>
      </trkpt>
      <trkpt lat="49.40697" lon="-1.31429">
        <ele>25.6</ele>
        <time>2020-06-15T17:20:32Z</time>
      </trkpt>
      <trkpt lat="49.40697" lon="-1.31429">
        <ele>25.6</ele>
        <time>2020-06-15T17:20:33Z</time>
      </trkpt>
      <trkpt lat="49.40697" lon="-1.3143">
        <ele>25.6</ele>
        <time>2020-06-15T17:20:34Z</time>
      </trkpt>
      <trkpt lat="49.40698" lon="-1.31431">
        <ele>25.6</ele>
        <time>2020-06-15T17:20:35Z</time>
      </trkpt>
      <trkpt lat="49.40697" lon="-1.31431">
        <ele>25.6</ele>
        <time>2020-06-15T17:20:36Z</time>
      </trkpt>
      <trkpt lat="49.40698" lon="-1.31431">
        <ele>25.6</ele>
        <time>2020-06-15T17:20:37Z</time>
      </trkpt>
      <trkpt lat="49.40698" lon="-1.31431">
        <ele>25.6</ele>
        <time>2020-06-15T17:20:38Z</time>
      </trkpt>
      <trkpt lat="49.40699" lon="-1.31432">
        <ele>25.6</ele>
        <time>2020-06-15T17:20:39Z</time>
      </trkpt>
      <trkpt lat="49.40699" lon="-1.31432">
        <ele>25.6</ele>
        <time>2020-06-15T17:20:40Z</time>
      </trkpt>
      <trkpt lat="49.40697" lon="-1.31435">
        <ele>25.6</ele>
        <time>2020-06-15T17:20:41Z</time>
      </trkpt>
      <trkpt lat="49.40696" lon="-1.31436">
        <ele>25.6</ele>
        <time>2020-06-15T17:20:42Z</time>
      </trkpt>
      <trkpt lat="49.40696" lon="-1.31437">
        <ele>25.6</ele>
        <time>2020-06-15T17:20:43Z</time>
      </trkpt>
      <trkpt lat="49.40696" lon="-1.31438">
        <ele>25.6</ele>
        <time>2020-06-15T17:20:44Z</time>
      </trkpt>
      <trkpt lat="49.40696" lon="-1.31438">
        <ele>25.6</ele>
        <time>2020-06-15T17:20:45Z</time>
      </trkpt>
      <trkpt lat="49.40697" lon="-1.31439">
        <ele>25.6</ele>
        <time>2020-06-15T17:20:46Z</time>
      </trkpt>
      <trkpt lat="49.40697" lon="-1.31441">
        <ele>25.6</ele>
        <time>2020-06-15T17:20:47Z</time>
      </trkpt>
      <trkpt lat="49.40697" lon="-1.31442">
        <ele>25.7</ele>
        <time>2020-06-15T17:20:48Z</time>
      </trkpt>
      <trkpt lat="49.40697" lon="-1.31443">
        <ele>25.7</ele>
        <time>2020-06-15T17:20:49Z</time>
      </trkpt>
      <trkpt lat="49.40697" lon="-1.31445">
        <ele>25.6</ele>
        <time>2020-06-15T17:20:50Z</time>
      </trkpt>
      <trkpt lat="49.40698" lon="-1.31446">
        <ele>25.7</ele>
        <time>2020-06-15T17:20:51Z</time>
      </trkpt>
      <trkpt lat="49.40698" lon="-1.31446">
        <ele>25.7</ele>
        <time>2020-06-15T17:20:52Z</time>
      </trkpt>
      <trkpt lat="49.40698" lon="-1.31446">
        <ele>25.7</ele>
        <time>2020-06-15T17:20:53Z</time>
      </trkpt>
      <trkpt lat="49.40697" lon="-1.31446">
        <ele>25.7</ele>
        <time>2020-06-15T17:20:54Z</time>
      </trkpt>
      <trkpt lat="49.40865" lon="-1.31651">
        <ele>25.3</ele>
        <time>2020-06-15T17:22:26Z</time>
      </trkpt>
      <trkpt lat="49.40866" lon="-1.3165">
        <ele>25.2</ele>
        <time>2020-06-15T17:22:27Z</time>
      </trkpt>
      <trkpt lat="49.40867" lon="-1.31648">
        <ele>25.2</ele>
        <time>2020-06-15T17:22:28Z</time>
      </trkpt>
      <trkpt lat="49.40867" lon="-1.31648">
        <ele>25.2</ele>
        <time>2020-06-15T17:22:29Z</time>
      </trkpt>
      <trkpt lat="49.40868" lon="-1.31646">
        <ele>25.2</ele>
        <time>2020-06-15T17:22:30Z</time>
      </trkpt>
      <trkpt lat="49.40869" lon="-1.31645">
        <ele>25.2</ele>
        <time>2020-06-15T17:22:31Z</time>
      </trkpt>
      <trkpt lat="49.40869" lon="-1.31643">
        <ele>25.2</ele>
        <time>2020-06-15T17:22:32Z</time>
      </trkpt>
      <trkpt lat="49.4087" lon="-1.31642">
        <ele>25.2</ele>
        <time>2020-06-15T17:22:33Z</time>
      </trkpt>
      <trkpt lat="49.4087" lon="-1.31641">
        <ele>25.2</ele>
        <time>2020-06-15T17:22:34Z</time>
      </trkpt>
      <trkpt lat="49.4087" lon="-1.31639">
        <ele>25.2</ele>
        <time>2020-06-15T17:22:35Z</time>
      </trkpt>
      <trkpt lat="49.40871" lon="-1.31638">
        <ele>25.2</ele>
        <time>2020-06-15T17:22:36Z</time>
      </trkpt>
      <trkpt lat="49.40871" lon="-1.31637">
        <ele>25.2</ele>
        <time>2020-06-15T17:22:37Z</time>
      </trkpt>
      <trkpt lat="49.40871" lon="-1.31636">
        <ele>25.2</ele>
        <time>2020-06-15T17:22:38Z</time>
      </trkpt>
      <trkpt lat="49.40872" lon="-1.31634">
        <ele>25.2</ele>
        <time>2020-06-15T17:22:39Z</time>
      </trkpt>
      <trkpt lat="49.40873" lon="-1.31633">
        <ele>25.2</ele>
        <time>2020-06-15T17:22:40Z</time>
      </trkpt>
      <trkpt lat="49.40874" lon="-1.31632">
        <ele>25.2</ele>
        <time>2020-06-15T17:22:41Z</time>
      </trkpt>
      <trkpt lat="49.40874" lon="-1.31632">
        <ele>25.1</ele>
        <time>2020-06-15T17:22:42Z</time>
      </trkpt>
      <trkpt lat="49.40875" lon="-1.31632">
        <ele>25.1</ele>
        <time>2020-06-15T17:22:43Z</time>
      </trkpt>
      <trkpt lat="49.40874" lon="-1.31632">
        <ele>25.1</ele>
        <time>2020-06-15T17:22:44Z</time>
      </trkpt>
      <trkpt lat="49.40875" lon="-1.31632">
        <ele>25.1</ele>
        <time>2020-06-15T17:22:45Z</time>
      </trkpt>
      <trkpt lat="49.40875" lon="-1.31633">
        <ele>25</ele>
        <time>2020-06-15T17:22:46Z</time>
      </trkpt>
      <trkpt lat="49.40875" lon="-1.31633">
        <ele>25</ele>
        <time>2020-06-15T17:22:47Z</time>
      </trkpt>
      <trkpt lat="49.40875" lon="-1.31634">
        <ele>25</ele>
        <time>2020-06-15T17:22:48Z</time>
      </trkpt>
      <trkpt lat="49.40875" lon="-1.31635">
        <ele>25</ele>
        <time>2020-06-15T17:22:49Z</time>
      </trkpt>
      <trkpt lat="49.40875" lon="-1.31635">
        <ele>25</ele>
        <time>2020-06-15T17:22:50Z</time>
      </trkpt>
      <trkpt lat="49.40875" lon="-1.31636">
        <ele>24.9</ele>
        <time>2020-06-15T17:22:51Z</time>
      </trkpt>
      <trkpt lat="49.40875" lon="-1.31636">
        <ele>24.9</ele>
        <time>2020-06-15T17:22:52Z</time>
      </trkpt>
      <trkpt lat="49.40875" lon="-1.31636">
        <ele>24.9</ele>
        <time>2020-06-15T17:22:53Z</time>
      </trkpt>
      <trkpt lat="49.40879" lon="-1.31636">
        <ele>24.9</ele>
        <time>2020-06-15T17:24:25Z</time>
      </trkpt>
      <trkpt lat="49.4088" lon="-1.31635">
        <ele>24.8</ele>
        <time>2020-06-15T17:24:26Z</time>
      </trkpt>
      <trkpt lat="49.40881" lon="-1.31635">
        <ele>24.8</ele>
        <time>2020-06-15T17:24:27Z</time>
      </trkpt>
      <trkpt lat="49.4088" lon="-1.31635">
        <ele>24.8</ele>
        <time>2020-06-15T17:24:28Z</time>
      </trkpt>
      <trkpt lat="49.4088" lon="-1.31636">
        <ele>24.8</ele>
        <time>2020-06-15T17:24:29Z</time>
      </trkpt>
      <trkpt lat="49.4088" lon="-1.31636">
        <ele>24.8</ele>
        <time>2020-06-15T17:24:30Z</time>
      </trkpt>
      <trkpt lat="49.4088" lon="-1.31637">
        <ele>24.8</ele>
        <time>2020-06-15T17:24:31Z</time>
      </trkpt>
      <trkpt lat="49.4088" lon="-1.31637">
        <ele>24.8</ele>
        <time>2020-06-15T17:24:32Z</time>
      </trkpt>
      <trkpt lat="49.4088" lon="-1.31638">
        <ele>24.7</ele>
        <time>2020-06-15T17:24:33Z</time>
      </trkpt>
      <trkpt lat="49.4088" lon="-1.31638">
        <ele>24.7</ele>
        <time>2020-06-15T17:24:34Z</time>
      </trkpt>
      <trkpt lat="49.4088" lon="-1.31639">
        <ele>24.7</ele>
        <time>2020-06-15T17:24:35Z</time>
      </trkpt>
      <trkpt lat="49.4088" lon="-1.31639">
        <ele>24.7</ele>
        <time>2020-06-15T17:24:36Z</time>
      </trkpt>
      <trkpt lat="49.4088" lon="-1.31639">
        <ele>24.7</ele>
        <time>2020-06-15T17:24:37Z</time>
      </trkpt>
      <trkpt lat="49.4088" lon="-1.3164">
        <ele>24.7</ele>
        <time>2020-06-15T17:24:53Z</time>
      </trkpt>
      <trkpt lat="49.4088" lon="-1.3164">
        <ele>24.7</ele>
        <time>2020-06-15T17:24:54Z</time>
      </trkpt>
      <trkpt lat="49.4088" lon="-1.31641">
        <ele>24.7</ele>
        <time>2020-06-15T17:24:55Z</time>
      </trkpt>
      <trkpt lat="49.40879" lon="-1.31641">
        <ele>24.7</ele>
        <time>2020-06-15T17:24:56Z</time>
      </trkpt>
      <trkpt lat="49.40879" lon="-1.31642">
        <ele>24.6</ele>
        <time>2020-06-15T17:24:57Z</time>
      </trkpt>
      <trkpt lat="49.40879" lon="-1.31642">
        <ele>24.6</ele>
        <time>2020-06-15T17:24:58Z</time>
      </trkpt>
      <trkpt lat="49.40879" lon="-1.31643">
        <ele>24.6</ele>
        <time>2020-06-15T17:24:59Z</time>
      </trkpt>
      <trkpt lat="49.40879" lon="-1.31643">
        <ele>24.6</ele>
        <time>2020-06-15T17:25:00Z</time>
      </trkpt>
      <trkpt lat="49.40879" lon="-1.31644">
        <ele>24.6</ele>
        <time>2020-06-15T17:25:01Z</time>
      </trkpt>
      <trkpt lat="49.40879" lon="-1.31644">
        <ele>24.6</ele>
        <time>2020-06-15T17:25:02Z</time>
      </trkpt>
      <trkpt lat="49.40879" lon="-1.31644">
        <ele>24.6</ele>
        <time>2020-06-15T17:25:03Z</time>
      </trkpt>
      <trkpt lat="49.40879" lon="-1.31645">
        <ele>24.6</ele>
        <time>2020-06-15T17:25:04Z</time>
      </trkpt>
      <trkpt lat="49.40879" lon="-1.31645">
        <ele>24.6</ele>
        <time>2020-06-15T17:25:05Z</time>
      </trkpt>
      <trkpt lat="49.40879" lon="-1.31646">
        <ele>24.6</ele>
        <time>2020-06-15T17:25:06Z</time>
      </trkpt>
      <trkpt lat="49.40879" lon="-1.31646">
        <ele>24.5</ele>
        <time>2020-06-15T17:25:18Z</time>
      </trkpt>
      <trkpt lat="49.40878" lon="-1.31647">
        <ele>24.5</ele>
        <time>2020-06-15T17:25:19Z</time>
      </trkpt>
      <trkpt lat="49.40878" lon="-1.31647">
        <ele>24.5</ele>
        <time>2020-06-15T17:25:20Z</time>
      </trkpt>
      <trkpt lat="49.40878" lon="-1.31648">
        <ele>24.5</ele>
        <time>2020-06-15T17:25:21Z</time>
      </trkpt>
      <trkpt lat="49.40878" lon="-1.31648">
        <ele>24.5</ele>
        <time>2020-06-15T17:25:22Z</time>
      </trkpt>
      <trkpt lat="49.40876" lon="-1.31652">
        <ele>24.4</ele>
        <time>2020-06-15T17:25:23Z</time>
      </trkpt>
      <trkpt lat="49.40875" lon="-1.31656">
        <ele>24.3</ele>
        <time>2020-06-15T17:25:24Z</time>
      </trkpt>
      <trkpt lat="49.40873" lon="-1.31661">
        <ele>24.2</ele>
        <time>2020-06-15T17:25:25Z</time>
      </trkpt>
      <trkpt lat="49.40872" lon="-1.31666">
        <ele>24.1</ele>
        <time>2020-06-15T17:25:26Z</time>
      </trkpt>
      <trkpt lat="49.4087" lon="-1.31672">
        <ele>24</ele>
        <time>2020-06-15T17:25:27Z</time>
      </trkpt>
      <trkpt lat="49.40869" lon="-1.31677">
        <ele>23.9</ele>
        <time>2020-06-15T17:25:28Z</time>
      </trkpt>
      <trkpt lat="49.40868" lon="-1.31683">
        <ele>23.7</ele>
        <time>2020-06-15T17:25:29Z</time>
      </trkpt>
      <trkpt lat="49.40867" lon="-1.3169">
        <ele>23.6</ele>
        <time>2020-06-15T17:25:30Z</time>
      </trkpt>
      <trkpt lat="49.40867" lon="-1.31697">
        <ele>23.5</ele>
        <time>2020-06-15T17:25:31Z</time>
      </trkpt>
      <trkpt lat="49.40866" lon="-1.31702">
        <ele>23.4</ele>
        <time>2020-06-15T17:25:32Z</time>
      </trkpt>
      <trkpt lat="49.40866" lon="-1.31708">
        <ele>23.3</ele>
        <time>2020-06-15T17:25:33Z</time>
      </trkpt>
      <trkpt lat="49.40864" lon="-1.31713">
        <ele>23.2</ele>
        <time>2020-06-15T17:25:34Z</time>
      </trkpt>
      <trkpt lat="49.40862" lon="-1.31717">
        <ele>23.1</ele>
        <time>2020-06-15T17:25:35Z</time>
      </trkpt>
      <trkpt lat="49.40861" lon="-1.31722">
        <ele>23</ele>
        <time>2020-06-15T17:25:36Z</time>
      </trkpt>
      <trkpt lat="49.40861" lon="-1.31727">
        <ele>23</ele>
        <time>2020-06-15T17:25:37Z</time>
      </trkpt>
      <trkpt lat="49.4086" lon="-1.31732">
        <ele>22.9</ele>
        <time>2020-06-15T17:25:38Z</time>
      </trkpt>
      <trkpt lat="49.40859" lon="-1.31739">
        <ele>22.8</ele>
        <time>2020-06-15T17:25:39Z</time>
      </trkpt>
      <trkpt lat="49.40859" lon="-1.31744">
        <ele>22.7</ele>
        <time>2020-06-15T17:25:40Z</time>
      </trkpt>
      <trkpt lat="49.40858" lon="-1.3175">
        <ele>22.6</ele>
        <time>2020-06-15T17:25:41Z</time>
      </trkpt>
      <trkpt lat="49.40857" lon="-1.31752">
        <ele>22.6</ele>
        <time>2020-06-15T17:25:42Z</time>
      </trkpt>
      <trkpt lat="49.40856" lon="-1.31757">
        <ele>22.5</ele>
        <time>2020-06-15T17:25:43Z</time>
      </trkpt>
      <trkpt lat="49.40856" lon="-1.31759">
        <ele>22.5</ele>
        <time>2020-06-15T17:25:44Z</time>
      </trkpt>
      <trkpt lat="49.40855" lon="-1.31763">
        <ele>22.5</ele>
        <time>2020-06-15T17:25:45Z</time>
      </trkpt>
      <trkpt lat="49.40854" lon="-1.31764">
        <ele>22.5</ele>
        <time>2020-06-15T17:25:46Z</time>
      </trkpt>
      <trkpt lat="49.40852" lon="-1.31768">
        <ele>22.5</ele>
        <time>2020-06-15T17:25:47Z</time>
      </trkpt>
      <trkpt lat="49.40851" lon="-1.31772">
        <ele>22.6</ele>
        <time>2020-06-15T17:25:48Z</time>
      </trkpt>
      <trkpt lat="49.40849" lon="-1.31777">
        <ele>22.7</ele>
        <time>2020-06-15T17:25:49Z</time>
      </trkpt>
      <trkpt lat="49.40847" lon="-1.31782">
        <ele>22.8</ele>
        <time>2020-06-15T17:25:50Z</time>
      </trkpt>
      <trkpt lat="49.40845" lon="-1.31787">
        <ele>22.9</ele>
        <time>2020-06-15T17:25:51Z</time>
      </trkpt>
      <trkpt lat="49.40843" lon="-1.31792">
        <ele>23</ele>
        <time>2020-06-15T17:25:52Z</time>
      </trkpt>
      <trkpt lat="49.40841" lon="-1.31796">
        <ele>23.1</ele>
        <time>2020-06-15T17:25:53Z</time>
      </trkpt>
      <trkpt lat="49.40838" lon="-1.318">
        <ele>23.1</ele>
        <time>2020-06-15T17:25:54Z</time>
      </trkpt>
      <trkpt lat="49.40836" lon="-1.31804">
        <ele>23.1</ele>
        <time>2020-06-15T17:25:55Z</time>
      </trkpt>
      <trkpt lat="49.40834" lon="-1.31809">
        <ele>23</ele>
        <time>2020-06-15T17:25:56Z</time>
      </trkpt>
      <trkpt lat="49.40831" lon="-1.31815">
        <ele>23</ele>
        <time>2020-06-15T17:25:57Z</time>
      </trkpt>
      <trkpt lat="49.40828" lon="-1.31822">
        <ele>22.9</ele>
        <time>2020-06-15T17:25:58Z</time>
      </trkpt>
      <trkpt lat="49.40825" lon="-1.31828">
        <ele>22.9</ele>
        <time>2020-06-15T17:25:59Z</time>
      </trkpt>
      <trkpt lat="49.40821" lon="-1.31835">
        <ele>22.8</ele>
        <time>2020-06-15T17:26:00Z</time>
      </trkpt>
      <trkpt lat="49.40817" lon="-1.31841">
        <ele>22.7</ele>
        <time>2020-06-15T17:26:01Z</time>
      </trkpt>
      <trkpt lat="49.40813" lon="-1.31848">
        <ele>22.6</ele>
        <time>2020-06-15T17:26:02Z</time>
      </trkpt>
      <trkpt lat="49.40809" lon="-1.31854">
        <ele>22.4</ele>
        <time>2020-06-15T17:26:03Z</time>
      </trkpt>
      <trkpt lat="49.40804" lon="-1.31861">
        <ele>22.3</ele>
        <time>2020-06-15T17:26:04Z</time>
      </trkpt>
      <trkpt lat="49.40799" lon="-1.31867">
        <ele>22.2</ele>
        <time>2020-06-15T17:26:05Z</time>
      </trkpt>
      <trkpt lat="49.40795" lon="-1.31873">
        <ele>22.1</ele>
        <time>2020-06-15T17:26:06Z</time>
      </trkpt>
      <trkpt lat="49.40791" lon="-1.31878">
        <ele>22</ele>
        <time>2020-06-15T17:26:07Z</time>
      </trkpt>
      <trkpt lat="49.40787" lon="-1.31885">
        <ele>21.9</ele>
        <time>2020-06-15T17:26:08Z</time>
      </trkpt>
      <trkpt lat="49.40784" lon="-1.31893">
        <ele>21.8</ele>
        <time>2020-06-15T17:26:09Z</time>
      </trkpt>
      <trkpt lat="49.40781" lon="-1.319">
        <ele>21.7</ele>
        <time>2020-06-15T17:26:10Z</time>
      </trkpt>
      <trkpt lat="49.40777" lon="-1.31908">
        <ele>21.6</ele>
        <time>2020-06-15T17:26:11Z</time>
      </trkpt>
      <trkpt lat="49.40774" lon="-1.31917">
        <ele>21.4</ele>
        <time>2020-06-15T17:26:12Z</time>
      </trkpt>
      <trkpt lat="49.40771" lon="-1.31927">
        <ele>21.2</ele>
        <time>2020-06-15T17:26:13Z</time>
      </trkpt>
      <trkpt lat="49.40768" lon="-1.31937">
        <ele>20.8</ele>
        <time>2020-06-15T17:26:14Z</time>
      </trkpt>
      <trkpt lat="49.40766" lon="-1.31948">
        <ele>20.4</ele>
        <time>2020-06-15T17:26:15Z</time>
      </trkpt>
      <trkpt lat="49.40763" lon="-1.3196">
        <ele>20.1</ele>
        <time>2020-06-15T17:26:16Z</time>
      </trkpt>
      <trkpt lat="49.4076" lon="-1.31973">
        <ele>19.8</ele>
        <time>2020-06-15T17:26:17Z</time>
      </trkpt>
      <trkpt lat="49.40757" lon="-1.31985">
        <ele>19.4</ele>
        <time>2020-06-15T17:26:18Z</time>
      </trkpt>
      <trkpt lat="49.40754" lon="-1.31996">
        <ele>19.1</ele>
        <time>2020-06-15T17:26:19Z</time>
      </trkpt>
      <trkpt lat="49.40752" lon="-1.32006">
        <ele>18.9</ele>
        <time>2020-06-15T17:26:20Z</time>
      </trkpt>
      <trkpt lat="49.40752" lon="-1.32016">
        <ele>18.8</ele>
        <time>2020-06-15T17:26:21Z</time>
      </trkpt>
      <trkpt lat="49.40751" lon="-1.32024">
        <ele>18.7</ele>
        <time>2020-06-15T17:26:22Z</time>
      </trkpt>
      <trkpt lat="49.40752" lon="-1.32032">
        <ele>18.5</ele>
        <time>2020-06-15T17:26:23Z</time>
      </trkpt>
      <trkpt lat="49.40753" lon="-1.32038">
        <ele>18.4</ele>
        <time>2020-06-15T17:26:24Z</time>
      </trkpt>
      <trkpt lat="49.40756" lon="-1.32042">
        <ele>18.3</ele>
        <time>2020-06-15T17:26:25Z</time>
      </trkpt>
      <trkpt lat="49.4076" lon="-1.32047">
        <ele>18.2</ele>
        <time>2020-06-15T17:26:26Z</time>
      </trkpt>
      <trkpt lat="49.40765" lon="-1.32048">
        <ele>18</ele>
        <time>2020-06-15T17:26:27Z</time>
      </trkpt>
      <trkpt lat="49.4077" lon="-1.32048">
        <ele>17.9</ele>
        <time>2020-06-15T17:26:28Z</time>
      </trkpt>
      <trkpt lat="49.40774" lon="-1.32052">
        <ele>17.8</ele>
        <time>2020-06-15T17:26:29Z</time>
      </trkpt>
      <trkpt lat="49.40777" lon="-1.32055">
        <ele>17.7</ele>
        <time>2020-06-15T17:26:30Z</time>
      </trkpt>
      <trkpt lat="49.4078" lon="-1.32058">
        <ele>17.6</ele>
        <time>2020-06-15T17:26:31Z</time>
      </trkpt>
      <trkpt lat="49.40784" lon="-1.32062">
        <ele>17.4</ele>
        <time>2020-06-15T17:26:32Z</time>
      </trkpt>
      <trkpt lat="49.40786" lon="-1.32065">
        <ele>17.3</ele>
        <time>2020-06-15T17:26:33Z</time>
      </trkpt>
      <trkpt lat="49.40788" lon="-1.32066">
        <ele>17.1</ele>
        <time>2020-06-15T17:26:34Z</time>
      </trkpt>
      <trkpt lat="49.40789" lon="-1.32067">
        <ele>17.1</ele>
        <time>2020-06-15T17:26:35Z</time>
      </trkpt>
      <trkpt lat="49.4079" lon="-1.32068">
        <ele>17</ele>
        <time>2020-06-15T17:26:36Z</time>
      </trkpt>
      <trkpt lat="49.40791" lon="-1.3207">
        <ele>16.9</ele>
        <time>2020-06-15T17:26:37Z</time>
      </trkpt>
      <trkpt lat="49.40792" lon="-1.32073">
        <ele>16.9</ele>
        <time>2020-06-15T17:26:38Z</time>
      </trkpt>
      <trkpt lat="49.40792" lon="-1.32075">
        <ele>16.9</ele>
        <time>2020-06-15T17:26:39Z</time>
      </trkpt>
      <trkpt lat="49.40791" lon="-1.32078">
        <ele>16.9</ele>
        <time>2020-06-15T17:26:40Z</time>
      </trkpt>
      <trkpt lat="49.4079" lon="-1.32082">
        <ele>16.8</ele>
        <time>2020-06-15T17:26:41Z</time>
      </trkpt>
      <trkpt lat="49.40789" lon="-1.32086">
        <ele>16.8</ele>
        <time>2020-06-15T17:26:42Z</time>
      </trkpt>
      <trkpt lat="49.40788" lon="-1.32091">
        <ele>16.8</ele>
        <time>2020-06-15T17:26:43Z</time>
      </trkpt>
      <trkpt lat="49.40788" lon="-1.32099">
        <ele>16.7</ele>
        <time>2020-06-15T17:26:44Z</time>
      </trkpt>
      <trkpt lat="49.40787" lon="-1.32112">
        <ele>16.7</ele>
        <time>2020-06-15T17:26:45Z</time>
      </trkpt>
      <trkpt lat="49.40786" lon="-1.32119">
        <ele>16.6</ele>
        <time>2020-06-15T17:26:46Z</time>
      </trkpt>
      <trkpt lat="49.40786" lon="-1.32125">
        <ele>16.5</ele>
        <time>2020-06-15T17:26:47Z</time>
      </trkpt>
      <trkpt lat="49.40785" lon="-1.32132">
        <ele>16.5</ele>
        <time>2020-06-15T17:26:48Z</time>
      </trkpt>
      <trkpt lat="49.40784" lon="-1.32139">
        <ele>16.4</ele>
        <time>2020-06-15T17:26:49Z</time>
      </trkpt>
      <trkpt lat="49.40781" lon="-1.32148">
        <ele>16.3</ele>
        <time>2020-06-15T17:26:50Z</time>
      </trkpt>
      <trkpt lat="49.40778" lon="-1.32159">
        <ele>16.2</ele>
        <time>2020-06-15T17:26:51Z</time>
      </trkpt>
      <trkpt lat="49.40773" lon="-1.3217">
        <ele>16.2</ele>
        <time>2020-06-15T17:26:52Z</time>
      </trkpt>
      <trkpt lat="49.40768" lon="-1.3218">
        <ele>16.2</ele>
        <time>2020-06-15T17:26:53Z</time>
      </trkpt>
      <trkpt lat="49.40761" lon="-1.32189">
        <ele>16.1</ele>
        <time>2020-06-15T17:26:54Z</time>
      </trkpt>
      <trkpt lat="49.40753" lon="-1.32197">
        <ele>15.9</ele>
        <time>2020-06-15T17:26:55Z</time>
      </trkpt>
      <trkpt lat="49.40745" lon="-1.32205">
        <ele>15.8</ele>
        <time>2020-06-15T17:26:56Z</time>
      </trkpt>
      <trkpt lat="49.40737" lon="-1.3221">
        <ele>15.7</ele>
        <time>2020-06-15T17:26:57Z</time>
      </trkpt>
      <trkpt lat="49.40729" lon="-1.32216">
        <ele>15.7</ele>
        <time>2020-06-15T17:26:58Z</time>
      </trkpt>
      <trkpt lat="49.40722" lon="-1.32221">
        <ele>15.6</ele>
        <time>2020-06-15T17:26:59Z</time>
      </trkpt>
      <trkpt lat="49.40715" lon="-1.32226">
        <ele>15.5</ele>
        <time>2020-06-15T17:27:00Z</time>
      </trkpt>
      <trkpt lat="49.40708" lon="-1.3223">
        <ele>15.5</ele>
        <time>2020-06-15T17:27:01Z</time>
      </trkpt>
      <trkpt lat="49.40702" lon="-1.32234">
        <ele>15.4</ele>
        <time>2020-06-15T17:27:02Z</time>
      </trkpt>
      <trkpt lat="49.40696" lon="-1.3224">
        <ele>15.4</ele>
        <time>2020-06-15T17:27:03Z</time>
      </trkpt>
      <trkpt lat="49.40689" lon="-1.32246">
        <ele>15.4</ele>
        <time>2020-06-15T17:27:04Z</time>
      </trkpt>
      <trkpt lat="49.40684" lon="-1.32252">
        <ele>15.4</ele>
        <time>2020-06-15T17:27:05Z</time>
      </trkpt>
      <trkpt lat="49.40679" lon="-1.32257">
        <ele>15.4</ele>
        <time>2020-06-15T17:27:06Z</time>
      </trkpt>
      <trkpt lat="49.40672" lon="-1.3226">
        <ele>15.5</ele>
        <time>2020-06-15T17:27:07Z</time>
      </trkpt>
      <trkpt lat="49.40665" lon="-1.32261">
        <ele>15.6</ele>
        <time>2020-06-15T17:27:08Z</time>
      </trkpt>
      <trkpt lat="49.40658" lon="-1.32259">
        <ele>15.8</ele>
        <time>2020-06-15T17:27:09Z</time>
      </trkpt>
      <trkpt lat="49.40652" lon="-1.32255">
        <ele>15.9</ele>
        <time>2020-06-15T17:27:10Z</time>
      </trkpt>
      <trkpt lat="49.40649" lon="-1.32249">
        <ele>16</ele>
        <time>2020-06-15T17:27:11Z</time>
      </trkpt>
      <trkpt lat="49.40644" lon="-1.32244">
        <ele>16</ele>
        <time>2020-06-15T17:27:12Z</time>
      </trkpt>
      <trkpt lat="49.40639" lon="-1.32238">
        <ele>16.1</ele>
        <time>2020-06-15T17:27:13Z</time>
      </trkpt>
      <trkpt lat="49.40635" lon="-1.32233">
        <ele>16.2</ele>
        <time>2020-06-15T17:27:14Z</time>
      </trkpt>
      <trkpt lat="49.4063" lon="-1.32228">
        <ele>16.3</ele>
        <time>2020-06-15T17:27:15Z</time>
      </trkpt>
      <trkpt lat="49.40625" lon="-1.32223">
        <ele>16.5</ele>
        <time>2020-06-15T17:27:16Z</time>
      </trkpt>
      <trkpt lat="49.4062" lon="-1.32217">
        <ele>16.7</ele>
        <time>2020-06-15T17:27:17Z</time>
      </trkpt>
      <trkpt lat="49.40615" lon="-1.32212">
        <ele>16.8</ele>
        <time>2020-06-15T17:27:18Z</time>
      </trkpt>
      <trkpt lat="49.4061" lon="-1.32207">
        <ele>17</ele>
        <time>2020-06-15T17:27:19Z</time>
      </trkpt>
      <trkpt lat="49.40605" lon="-1.32202">
        <ele>17.2</ele>
        <time>2020-06-15T17:27:20Z</time>
      </trkpt>
      <trkpt lat="49.406" lon="-1.32197">
        <ele>17.4</ele>
        <time>2020-06-15T17:27:21Z</time>
      </trkpt>
      <trkpt lat="49.40595" lon="-1.32192">
        <ele>17.6</ele>
        <time>2020-06-15T17:27:22Z</time>
      </trkpt>
      <trkpt lat="49.40591" lon="-1.32187">
        <ele>17.8</ele>
        <time>2020-06-15T17:27:23Z</time>
      </trkpt>
      <trkpt lat="49.40587" lon="-1.32182">
        <ele>17.9</ele>
        <time>2020-06-15T17:27:24Z</time>
      </trkpt>
      <trkpt lat="49.40583" lon="-1.32177">
        <ele>18.1</ele>
        <time>2020-06-15T17:27:25Z</time>
      </trkpt>
      <trkpt lat="49.40579" lon="-1.32172">
        <ele>18.3</ele>
        <time>2020-06-15T17:27:26Z</time>
      </trkpt>
      <trkpt lat="49.40576" lon="-1.32168">
        <ele>18.5</ele>
        <time>2020-06-15T17:27:27Z</time>
      </trkpt>
      <trkpt lat="49.40572" lon="-1.32164">
        <ele>18.6</ele>
        <time>2020-06-15T17:27:28Z</time>
      </trkpt>
      <trkpt lat="49.40569" lon="-1.3216">
        <ele>18.8</ele>
        <time>2020-06-15T17:27:29Z</time>
      </trkpt>
      <trkpt lat="49.40564" lon="-1.32159">
        <ele>18.9</ele>
        <time>2020-06-15T17:27:30Z</time>
      </trkpt>
      <trkpt lat="49.40559" lon="-1.3216">
        <ele>18.9</ele>
        <time>2020-06-15T17:27:31Z</time>
      </trkpt>
      <trkpt lat="49.40555" lon="-1.32162">
        <ele>18.8</ele>
        <time>2020-06-15T17:27:32Z</time>
      </trkpt>
      <trkpt lat="49.40552" lon="-1.32165">
        <ele>18.7</ele>
        <time>2020-06-15T17:27:33Z</time>
      </trkpt>
      <trkpt lat="49.40549" lon="-1.3217">
        <ele>18.6</ele>
        <time>2020-06-15T17:27:34Z</time>
      </trkpt>
      <trkpt lat="49.40547" lon="-1.32176">
        <ele>18.6</ele>
        <time>2020-06-15T17:27:35Z</time>
      </trkpt>
      <trkpt lat="49.40544" lon="-1.32182">
        <ele>18.5</ele>
        <time>2020-06-15T17:27:36Z</time>
      </trkpt>
      <trkpt lat="49.40541" lon="-1.3219">
        <ele>18.3</ele>
        <time>2020-06-15T17:27:37Z</time>
      </trkpt>
      <trkpt lat="49.40539" lon="-1.32197">
        <ele>18.2</ele>
        <time>2020-06-15T17:27:38Z</time>
      </trkpt>
      <trkpt lat="49.40536" lon="-1.32202">
        <ele>18.2</ele>
        <time>2020-06-15T17:27:39Z</time>
      </trkpt>
      <trkpt lat="49.40532" lon="-1.32208">
        <ele>18.1</ele>
        <time>2020-06-15T17:27:40Z</time>
      </trkpt>
      <trkpt lat="49.40526" lon="-1.32212">
        <ele>18</ele>
        <time>2020-06-15T17:27:41Z</time>
      </trkpt>
      <trkpt lat="49.40521" lon="-1.32215">
        <ele>17.9</ele>
        <time>2020-06-15T17:27:42Z</time>
      </trkpt>
      <trkpt lat="49.40517" lon="-1.32217">
        <ele>18</ele>
        <time>2020-06-15T17:27:43Z</time>
      </trkpt>
      <trkpt lat="49.40512" lon="-1.32217">
        <ele>18</ele>
        <time>2020-06-15T17:27:44Z</time>
      </trkpt>
      <trkpt lat="49.40506" lon="-1.32218">
        <ele>18</ele>
        <time>2020-06-15T17:27:45Z</time>
      </trkpt>
      <trkpt lat="49.40501" lon="-1.32219">
        <ele>18</ele>
        <time>2020-06-15T17:27:46Z</time>
      </trkpt>
      <trkpt lat="49.40496" lon="-1.32221">
        <ele>18.1</ele>
        <time>2020-06-15T17:27:47Z</time>
      </trkpt>
      <trkpt lat="49.40489" lon="-1.32223">
        <ele>18.1</ele>
        <time>2020-06-15T17:27:48Z</time>
      </trkpt>
      <trkpt lat="49.40483" lon="-1.32225">
        <ele>18.2</ele>
        <time>2020-06-15T17:27:49Z</time>
      </trkpt>
      <trkpt lat="49.40478" lon="-1.32227">
        <ele>18.2</ele>
        <time>2020-06-15T17:27:50Z</time>
      </trkpt>
      <trkpt lat="49.40472" lon="-1.32229">
        <ele>18.3</ele>
        <time>2020-06-15T17:27:51Z</time>
      </trkpt>
      <trkpt lat="49.40467" lon="-1.32232">
        <ele>18.4</ele>
        <time>2020-06-15T17:27:52Z</time>
      </trkpt>
      <trkpt lat="49.40462" lon="-1.32235">
        <ele>18.4</ele>
        <time>2020-06-15T17:27:53Z</time>
      </trkpt>
      <trkpt lat="49.40458" lon="-1.32238">
        <ele>18.5</ele>
        <time>2020-06-15T17:27:54Z</time>
      </trkpt>
      <trkpt lat="49.40453" lon="-1.32242">
        <ele>18.5</ele>
        <time>2020-06-15T17:27:55Z</time>
      </trkpt>
      <trkpt lat="49.40449" lon="-1.32245">
        <ele>18.6</ele>
        <time>2020-06-15T17:27:56Z</time>
      </trkpt>
      <trkpt lat="49.40444" lon="-1.32248">
        <ele>18.6</ele>
        <time>2020-06-15T17:27:57Z</time>
      </trkpt>
      <trkpt lat="49.4044" lon="-1.32251">
        <ele>18.7</ele>
        <time>2020-06-15T17:27:58Z</time>
      </trkpt>
      <trkpt lat="49.40435" lon="-1.32255">
        <ele>18.8</ele>
        <time>2020-06-15T17:27:59Z</time>
      </trkpt>
      <trkpt lat="49.40431" lon="-1.3226">
        <ele>18.8</ele>
        <time>2020-06-15T17:28:00Z</time>
      </trkpt>
      <trkpt lat="49.40428" lon="-1.32265">
        <ele>18.9</ele>
        <time>2020-06-15T17:28:01Z</time>
      </trkpt>
      <trkpt lat="49.40424" lon="-1.32269">
        <ele>19</ele>
        <time>2020-06-15T17:28:02Z</time>
      </trkpt>
      <trkpt lat="49.40421" lon="-1.32273">
        <ele>19.1</ele>
        <time>2020-06-15T17:28:03Z</time>
      </trkpt>
      <trkpt lat="49.40418" lon="-1.32275">
        <ele>19.3</ele>
        <time>2020-06-15T17:28:04Z</time>
      </trkpt>
      <trkpt lat="49.40415" lon="-1.32277">
        <ele>19.4</ele>
        <time>2020-06-15T17:28:05Z</time>
      </trkpt>
      <trkpt lat="49.40413" lon="-1.3228">
        <ele>19.6</ele>
        <time>2020-06-15T17:28:06Z</time>
      </trkpt>
      <trkpt lat="49.40411" lon="-1.32284">
        <ele>19.7</ele>
        <time>2020-06-15T17:28:07Z</time>
      </trkpt>
      <trkpt lat="49.4041" lon="-1.32286">
        <ele>19.8</ele>
        <time>2020-06-15T17:28:08Z</time>
      </trkpt>
      <trkpt lat="49.40408" lon="-1.32288">
        <ele>19.9</ele>
        <time>2020-06-15T17:28:09Z</time>
      </trkpt>
      <trkpt lat="49.40407" lon="-1.32292">
        <ele>20.1</ele>
        <time>2020-06-15T17:28:10Z</time>
      </trkpt>
      <trkpt lat="49.40406" lon="-1.32293">
        <ele>20.1</ele>
        <time>2020-06-15T17:28:11Z</time>
      </trkpt>
      <trkpt lat="49.40406" lon="-1.32295">
        <ele>20.1</ele>
        <time>2020-06-15T17:28:12Z</time>
      </trkpt>
      <trkpt lat="49.40406" lon="-1.32295">
        <ele>20.1</ele>
        <time>2020-06-15T17:28:13Z</time>
      </trkpt>
      <trkpt lat="49.40406" lon="-1.32296">
        <ele>20.1</ele>
        <time>2020-06-15T17:28:14Z</time>
      </trkpt>
      <trkpt lat="49.40405" lon="-1.32297">
        <ele>20.1</ele>
        <time>2020-06-15T17:28:15Z</time>
      </trkpt>
      <trkpt lat="49.40405" lon="-1.32297">
        <ele>20.1</ele>
        <time>2020-06-15T17:28:16Z</time>
      </trkpt>
      <trkpt lat="49.40405" lon="-1.32298">
        <ele>20.1</ele>
        <time>2020-06-15T17:28:17Z</time>
      </trkpt>
      <trkpt lat="49.40406" lon="-1.32298">
        <ele>20.1</ele>
        <time>2020-06-15T17:28:18Z</time>
      </trkpt>
      <trkpt lat="49.40406" lon="-1.32298">
        <ele>20.1</ele>
        <time>2020-06-15T17:28:19Z</time>
      </trkpt>
      <trkpt lat="49.40405" lon="-1.32298">
        <ele>20.1</ele>
        <time>2020-06-15T17:28:20Z</time>
      </trkpt>
      <trkpt lat="49.40405" lon="-1.32299">
        <ele>20.1</ele>
        <time>2020-06-15T17:28:21Z</time>
      </trkpt>
      <trkpt lat="49.40405" lon="-1.32301">
        <ele>20.2</ele>
        <time>2020-06-15T17:28:22Z</time>
      </trkpt>
      <trkpt lat="49.40406" lon="-1.32302">
        <ele>20.2</ele>
        <time>2020-06-15T17:28:24Z</time>
      </trkpt>
      <trkpt lat="49.40406" lon="-1.32303">
        <ele>20.2</ele>
        <time>2020-06-15T17:28:25Z</time>
      </trkpt>
      <trkpt lat="49.40407" lon="-1.32303">
        <ele>20.2</ele>
        <time>2020-06-15T17:28:26Z</time>
      </trkpt>
      <trkpt lat="49.40407" lon="-1.32305">
        <ele>20.3</ele>
        <time>2020-06-15T17:28:27Z</time>
      </trkpt>
      <trkpt lat="49.40408" lon="-1.32306">
        <ele>20.2</ele>
        <time>2020-06-15T17:28:28Z</time>
      </trkpt>
      <trkpt lat="49.40408" lon="-1.32307">
        <ele>20.2</ele>
        <time>2020-06-15T17:28:29Z</time>
      </trkpt>
      <trkpt lat="49.40408" lon="-1.32307">
        <ele>20.2</ele>
        <time>2020-06-15T17:28:30Z</time>
      </trkpt>
      <trkpt lat="49.40408" lon="-1.32308">
        <ele>20.3</ele>
        <time>2020-06-15T17:28:31Z</time>
      </trkpt>
      <trkpt lat="49.40408" lon="-1.32308">
        <ele>20.3</ele>
        <time>2020-06-15T17:28:32Z</time>
      </trkpt>
      <trkpt lat="49.40408" lon="-1.32308">
        <ele>20.2</ele>
        <time>2020-06-15T17:28:33Z</time>
      </trkpt>
      <trkpt lat="49.40408" lon="-1.32308">
        <ele>20.2</ele>
        <time>2020-06-15T17:28:34Z</time>
      </trkpt>
      <trkpt lat="49.40408" lon="-1.32308">
        <ele>20.2</ele>
        <time>2020-06-15T17:28:35Z</time>
      </trkpt>
      <trkpt lat="49.40409" lon="-1.32308">
        <ele>20.3</ele>
        <time>2020-06-15T17:28:36Z</time>
      </trkpt>
      <trkpt lat="49.40409" lon="-1.32308">
        <ele>20.3</ele>
        <time>2020-06-15T17:28:37Z</time>
      </trkpt>
      <trkpt lat="49.4041" lon="-1.32309">
        <ele>20.3</ele>
        <time>2020-06-15T17:28:38Z</time>
      </trkpt>
      <trkpt lat="49.4041" lon="-1.32309">
        <ele>20.3</ele>
        <time>2020-06-15T17:28:39Z</time>
      </trkpt>
      <trkpt lat="49.40411" lon="-1.32309">
        <ele>20.2</ele>
        <time>2020-06-15T17:28:40Z</time>
      </trkpt>
      <trkpt lat="49.40412" lon="-1.3231">
        <ele>20.2</ele>
        <time>2020-06-15T17:28:41Z</time>
      </trkpt>
      <trkpt lat="49.40412" lon="-1.3231">
        <ele>20.2</ele>
        <time>2020-06-15T17:28:42Z</time>
      </trkpt>
      <trkpt lat="49.40413" lon="-1.32311">
        <ele>20.2</ele>
        <time>2020-06-15T17:28:43Z</time>
      </trkpt>
      <trkpt lat="49.40414" lon="-1.32311">
        <ele>20.1</ele>
        <time>2020-06-15T17:28:44Z</time>
      </trkpt>
      <trkpt lat="49.404" lon="-1.32298">
        <ele>20.3</ele>
        <time>2020-06-15T17:32:29Z</time>
      </trkpt>
      <trkpt lat="49.40399" lon="-1.32297">
        <ele>20.4</ele>
        <time>2020-06-15T17:32:30Z</time>
      </trkpt>
      <trkpt lat="49.404" lon="-1.32297">
        <ele>20.3</ele>
        <time>2020-06-15T17:32:31Z</time>
      </trkpt>
      <trkpt lat="49.404" lon="-1.32297">
        <ele>20.3</ele>
        <time>2020-06-15T17:32:32Z</time>
      </trkpt>
      <trkpt lat="49.40397" lon="-1.32299">
        <ele>20.4</ele>
        <time>2020-06-15T17:32:33Z</time>
      </trkpt>
      <trkpt lat="49.40396" lon="-1.32298">
        <ele>20.5</ele>
        <time>2020-06-15T17:32:34Z</time>
      </trkpt>
      <trkpt lat="49.40395" lon="-1.32297">
        <ele>20.5</ele>
        <time>2020-06-15T17:32:35Z</time>
      </trkpt>
      <trkpt lat="49.40396" lon="-1.32298">
        <ele>20.5</ele>
        <time>2020-06-15T17:32:36Z</time>
      </trkpt>
      <trkpt lat="49.40397" lon="-1.32298">
        <ele>20.4</ele>
        <time>2020-06-15T17:32:37Z</time>
      </trkpt>
      <trkpt lat="49.40397" lon="-1.32298">
        <ele>20.4</ele>
        <time>2020-06-15T17:32:38Z</time>
      </trkpt>
      <trkpt lat="49.40398" lon="-1.32298">
        <ele>20.4</ele>
        <time>2020-06-15T17:32:39Z</time>
      </trkpt>
      <trkpt lat="49.40398" lon="-1.32298">
        <ele>20.4</ele>
        <time>2020-06-15T17:32:40Z</time>
      </trkpt>
      <trkpt lat="49.40399" lon="-1.32298">
        <ele>20.4</ele>
        <time>2020-06-15T17:32:41Z</time>
      </trkpt>
      <trkpt lat="49.40399" lon="-1.32299">
        <ele>20.4</ele>
        <time>2020-06-15T17:32:42Z</time>
      </trkpt>
      <trkpt lat="49.404" lon="-1.32299">
        <ele>20.3</ele>
        <time>2020-06-15T17:32:43Z</time>
      </trkpt>
      <trkpt lat="49.40404" lon="-1.32297">
        <ele>20.2</ele>
        <time>2020-06-15T17:32:44Z</time>
      </trkpt>
      <trkpt lat="49.40406" lon="-1.32295">
        <ele>20.2</ele>
        <time>2020-06-15T17:32:45Z</time>
      </trkpt>
      <trkpt lat="49.40406" lon="-1.32297">
        <ele>20.2</ele>
        <time>2020-06-15T17:32:46Z</time>
      </trkpt>
      <trkpt lat="49.40406" lon="-1.32299">
        <ele>20.2</ele>
        <time>2020-06-15T17:32:47Z</time>
      </trkpt>
      <trkpt lat="49.40407" lon="-1.323">
        <ele>20.2</ele>
        <time>2020-06-15T17:32:48Z</time>
      </trkpt>
      <trkpt lat="49.40407" lon="-1.32305">
        <ele>20.3</ele>
        <time>2020-06-15T17:32:49Z</time>
      </trkpt>
      <trkpt lat="49.40407" lon="-1.32306">
        <ele>20.3</ele>
        <time>2020-06-15T17:32:50Z</time>
      </trkpt>
      <trkpt lat="49.40408" lon="-1.32309">
        <ele>20.3</ele>
        <time>2020-06-15T17:32:51Z</time>
      </trkpt>
      <trkpt lat="49.40409" lon="-1.32311">
        <ele>20.3</ele>
        <time>2020-06-15T17:32:52Z</time>
      </trkpt>
      <trkpt lat="49.40408" lon="-1.32312">
        <ele>20.3</ele>
        <time>2020-06-15T17:32:53Z</time>
      </trkpt>
      <trkpt lat="49.40408" lon="-1.32312">
        <ele>20.3</ele>
        <time>2020-06-15T17:32:54Z</time>
      </trkpt>
      <trkpt lat="49.40408" lon="-1.32311">
        <ele>20.3</ele>
        <time>2020-06-15T17:32:55Z</time>
      </trkpt>
      <trkpt lat="49.40408" lon="-1.32311">
        <ele>20.3</ele>
        <time>2020-06-15T17:32:56Z</time>
      </trkpt>
      <trkpt lat="49.40408" lon="-1.3231">
        <ele>20.3</ele>
        <time>2020-06-15T17:32:57Z</time>
      </trkpt>
      <trkpt lat="49.40408" lon="-1.32309">
        <ele>20.3</ele>
        <time>2020-06-15T17:32:58Z</time>
      </trkpt>
      <trkpt lat="49.40408" lon="-1.32309">
        <ele>20.3</ele>
        <time>2020-06-15T17:32:59Z</time>
      </trkpt>
      <trkpt lat="49.40408" lon="-1.32309">
        <ele>20.3</ele>
        <time>2020-06-15T17:33:00Z</time>
      </trkpt>
      <trkpt lat="49.40408" lon="-1.32308">
        <ele>20.3</ele>
        <time>2020-06-15T17:33:01Z</time>
      </trkpt>
      <trkpt lat="49.40408" lon="-1.32308">
        <ele>20.3</ele>
        <time>2020-06-15T17:33:02Z</time>
      </trkpt>
      <trkpt lat="49.40408" lon="-1.32308">
        <ele>20.3</ele>
        <time>2020-06-15T17:33:03Z</time>
      </trkpt>
      <trkpt lat="49.40408" lon="-1.32308">
        <ele>20.3</ele>
        <time>2020-06-15T17:33:04Z</time>
      </trkpt>
      <trkpt lat="49.40402" lon="-1.323">
        <ele>20.4</ele>
        <time>2020-06-15T17:33:23Z</time>
      </trkpt>
      <trkpt lat="49.40402" lon="-1.323">
        <ele>20.4</ele>
        <time>2020-06-15T17:33:24Z</time>
      </trkpt>
      <trkpt lat="49.40401" lon="-1.32299">
        <ele>20.3</ele>
        <time>2020-06-15T17:33:25Z</time>
      </trkpt>
      <trkpt lat="49.404" lon="-1.32299">
        <ele>20.3</ele>
        <time>2020-06-15T17:33:26Z</time>
      </trkpt>
      <trkpt lat="49.404" lon="-1.32299">
        <ele>20.3</ele>
        <time>2020-06-15T17:33:27Z</time>
      </trkpt>
      <trkpt lat="49.404" lon="-1.323">
        <ele>20.4</ele>
        <time>2020-06-15T17:33:28Z</time>
      </trkpt>
      <trkpt lat="49.404" lon="-1.323">
        <ele>20.4</ele>
        <time>2020-06-15T17:33:29Z</time>
      </trkpt>
      <trkpt lat="49.404" lon="-1.323">
        <ele>20.4</ele>
        <time>2020-06-15T17:33:30Z</time>
      </trkpt>
      <trkpt lat="49.404" lon="-1.323">
        <ele>20.4</ele>
        <time>2020-06-15T17:33:31Z</time>
      </trkpt>
      <trkpt lat="49.404" lon="-1.32301">
        <ele>20.4</ele>
        <time>2020-06-15T17:33:32Z</time>
      </trkpt>
      <trkpt lat="49.40399" lon="-1.32301">
        <ele>20.4</ele>
        <time>2020-06-15T17:33:33Z</time>
      </trkpt>
      <trkpt lat="49.40402" lon="-1.323">
        <ele>20.4</ele>
        <time>2020-06-15T17:33:34Z</time>
      </trkpt>
      <trkpt lat="49.40403" lon="-1.32299">
        <ele>20.3</ele>
        <time>2020-06-15T17:33:35Z</time>
      </trkpt>
      <trkpt lat="49.40404" lon="-1.32298">
        <ele>20.3</ele>
        <time>2020-06-15T17:33:36Z</time>
      </trkpt>
      <trkpt lat="49.40404" lon="-1.32298">
        <ele>20.3</ele>
        <time>2020-06-15T17:33:37Z</time>
      </trkpt>
      <trkpt lat="49.40405" lon="-1.32299">
        <ele>20.2</ele>
        <time>2020-06-15T17:33:38Z</time>
      </trkpt>
      <trkpt lat="49.40406" lon="-1.32299">
        <ele>20.2</ele>
        <time>2020-06-15T17:33:39Z</time>
      </trkpt>
      <trkpt lat="49.40407" lon="-1.32299">
        <ele>20.2</ele>
        <time>2020-06-15T17:33:40Z</time>
      </trkpt>
      <trkpt lat="49.40407" lon="-1.32299">
        <ele>20.2</ele>
        <time>2020-06-15T17:33:41Z</time>
      </trkpt>
      <trkpt lat="49.40407" lon="-1.32298">
        <ele>20.2</ele>
        <time>2020-06-15T17:33:42Z</time>
      </trkpt>
      <trkpt lat="49.40408" lon="-1.32297">
        <ele>20.1</ele>
        <time>2020-06-15T17:33:43Z</time>
      </trkpt>
      <trkpt lat="49.40408" lon="-1.32297">
        <ele>20.1</ele>
        <time>2020-06-15T17:33:44Z</time>
      </trkpt>
      <trkpt lat="49.40408" lon="-1.32297">
        <ele>20.1</ele>
        <time>2020-06-15T17:33:45Z</time>
      </trkpt>
      <trkpt lat="49.40408" lon="-1.32296">
        <ele>20.1</ele>
        <time>2020-06-15T17:33:46Z</time>
      </trkpt>
      <trkpt lat="49.40409" lon="-1.32296">
        <ele>20.1</ele>
        <time>2020-06-15T17:33:47Z</time>
      </trkpt>
      <trkpt lat="49.40409" lon="-1.32296">
        <ele>20.1</ele>
        <time>2020-06-15T17:33:48Z</time>
      </trkpt>
      <trkpt lat="49.40409" lon="-1.32295">
        <ele>20.1</ele>
        <time>2020-06-15T17:33:49Z</time>
      </trkpt>
      <trkpt lat="49.4041" lon="-1.32295">
        <ele>20</ele>
        <time>2020-06-15T17:33:50Z</time>
      </trkpt>
      <trkpt lat="49.40409" lon="-1.32297">
        <ele>20.1</ele>
        <time>2020-06-15T17:33:51Z</time>
      </trkpt>
      <trkpt lat="49.40409" lon="-1.32298">
        <ele>20.1</ele>
        <time>2020-06-15T17:33:52Z</time>
      </trkpt>
      <trkpt lat="49.40409" lon="-1.32298">
        <ele>20.1</ele>
        <time>2020-06-15T17:33:53Z</time>
      </trkpt>
      <trkpt lat="49.40409" lon="-1.32299">
        <ele>20.1</ele>
        <time>2020-06-15T17:33:54Z</time>
      </trkpt>
      <trkpt lat="49.40408" lon="-1.32299">
        <ele>20.1</ele>
        <time>2020-06-15T17:33:55Z</time>
      </trkpt>
      <trkpt lat="49.40408" lon="-1.32298">
        <ele>20.1</ele>
        <time>2020-06-15T17:33:56Z</time>
      </trkpt>
      <trkpt lat="49.40408" lon="-1.32297">
        <ele>20.1</ele>
        <time>2020-06-15T17:33:57Z</time>
      </trkpt>
      <trkpt lat="49.40408" lon="-1.32296">
        <ele>20.1</ele>
        <time>2020-06-15T17:33:58Z</time>
      </trkpt>
      <trkpt lat="49.40408" lon="-1.32296">
        <ele>20.1</ele>
        <time>2020-06-15T17:33:59Z</time>
      </trkpt>
      <trkpt lat="49.40408" lon="-1.32298">
        <ele>20.1</ele>
        <time>2020-06-15T17:34:00Z</time>
      </trkpt>
      <trkpt lat="49.40406" lon="-1.32297">
        <ele>20.2</ele>
        <time>2020-06-15T17:34:01Z</time>
      </trkpt>
      <trkpt lat="49.40406" lon="-1.32297">
        <ele>20.2</ele>
        <time>2020-06-15T17:34:02Z</time>
      </trkpt>
      <trkpt lat="49.40406" lon="-1.32299">
        <ele>20.2</ele>
        <time>2020-06-15T17:34:03Z</time>
      </trkpt>
      <trkpt lat="49.40405" lon="-1.323">
        <ele>20.3</ele>
        <time>2020-06-15T17:34:04Z</time>
      </trkpt>
      <trkpt lat="49.40404" lon="-1.32303">
        <ele>20.3</ele>
        <time>2020-06-15T17:34:05Z</time>
      </trkpt>
      <trkpt lat="49.40404" lon="-1.32303">
        <ele>20.3</ele>
        <time>2020-06-15T17:34:06Z</time>
      </trkpt>
      <trkpt lat="49.40403" lon="-1.32304">
        <ele>20.4</ele>
        <time>2020-06-15T17:34:07Z</time>
      </trkpt>
      <trkpt lat="49.40403" lon="-1.32303">
        <ele>20.3</ele>
        <time>2020-06-15T17:34:08Z</time>
      </trkpt>
      <trkpt lat="49.40403" lon="-1.32304">
        <ele>20.3</ele>
        <time>2020-06-15T17:34:09Z</time>
      </trkpt>
      <trkpt lat="49.40403" lon="-1.32304">
        <ele>20.4</ele>
        <time>2020-06-15T17:34:10Z</time>
      </trkpt>
      <trkpt lat="49.40403" lon="-1.32304">
        <ele>20.4</ele>
        <time>2020-06-15T17:34:11Z</time>
      </trkpt>
      <trkpt lat="49.40402" lon="-1.32303">
        <ele>20.3</ele>
        <time>2020-06-15T17:34:12Z</time>
      </trkpt>
      <trkpt lat="49.40402" lon="-1.32302">
        <ele>20.4</ele>
        <time>2020-06-15T17:34:13Z</time>
      </trkpt>
      <trkpt lat="49.40401" lon="-1.32301">
        <ele>20.4</ele>
        <time>2020-06-15T17:34:14Z</time>
      </trkpt>
      <trkpt lat="49.404" lon="-1.32299">
        <ele>20.4</ele>
        <time>2020-06-15T17:34:15Z</time>
      </trkpt>
      <trkpt lat="49.404" lon="-1.32298">
        <ele>20.4</ele>
        <time>2020-06-15T17:34:16Z</time>
      </trkpt>
      <trkpt lat="49.404" lon="-1.32296">
        <ele>20.4</ele>
        <time>2020-06-15T17:34:17Z</time>
      </trkpt>
      <trkpt lat="49.40401" lon="-1.32295">
        <ele>20.4</ele>
        <time>2020-06-15T17:34:18Z</time>
      </trkpt>
      <trkpt lat="49.40401" lon="-1.32295">
        <ele>20.4</ele>
        <time>2020-06-15T17:34:19Z</time>
      </trkpt>
      <trkpt lat="49.40401" lon="-1.32295">
        <ele>20.4</ele>
        <time>2020-06-15T17:34:20Z</time>
      </trkpt>
      <trkpt lat="49.40402" lon="-1.32295">
        <ele>20.3</ele>
        <time>2020-06-15T17:34:21Z</time>
      </trkpt>
      <trkpt lat="49.40402" lon="-1.32295">
        <ele>20.3</ele>
        <time>2020-06-15T17:34:22Z</time>
      </trkpt>
      <trkpt lat="49.40402" lon="-1.32295">
        <ele>20.2</ele>
        <time>2020-06-15T17:34:23Z</time>
      </trkpt>
      <trkpt lat="49.40402" lon="-1.32295">
        <ele>20.2</ele>
        <time>2020-06-15T17:34:24Z</time>
      </trkpt>
      <trkpt lat="49.40403" lon="-1.32295">
        <ele>20.2</ele>
        <time>2020-06-15T17:34:25Z</time>
      </trkpt>
      <trkpt lat="49.40403" lon="-1.32295">
        <ele>20.2</ele>
        <time>2020-06-15T17:34:26Z</time>
      </trkpt>
      <trkpt lat="49.40403" lon="-1.32295">
        <ele>20.2</ele>
        <time>2020-06-15T17:34:27Z</time>
      </trkpt>
      <trkpt lat="49.40404" lon="-1.32295">
        <ele>20.2</ele>
        <time>2020-06-15T17:34:28Z</time>
      </trkpt>
      <trkpt lat="49.40404" lon="-1.32296">
        <ele>20.3</ele>
        <time>2020-06-15T17:34:29Z</time>
      </trkpt>
      <trkpt lat="49.40404" lon="-1.32297">
        <ele>20.3</ele>
        <time>2020-06-15T17:34:30Z</time>
      </trkpt>
      <trkpt lat="49.40404" lon="-1.32298">
        <ele>20.3</ele>
        <time>2020-06-15T17:34:31Z</time>
      </trkpt>
      <trkpt lat="49.40404" lon="-1.32298">
        <ele>20.3</ele>
        <time>2020-06-15T17:34:32Z</time>
      </trkpt>
      <trkpt lat="49.40404" lon="-1.32298">
        <ele>20.3</ele>
        <time>2020-06-15T17:34:33Z</time>
      </trkpt>
      <trkpt lat="49.40404" lon="-1.32298">
        <ele>20.3</ele>
        <time>2020-06-15T17:34:34Z</time>
      </trkpt>
      <trkpt lat="49.40405" lon="-1.32299">
        <ele>20.3</ele>
        <time>2020-06-15T17:34:35Z</time>
      </trkpt>
      <trkpt lat="49.40405" lon="-1.32298">
        <ele>20.3</ele>
        <time>2020-06-15T17:34:36Z</time>
      </trkpt>
      <trkpt lat="49.40405" lon="-1.32297">
        <ele>20.3</ele>
        <time>2020-06-15T17:34:37Z</time>
      </trkpt>
      <trkpt lat="49.40405" lon="-1.32296">
        <ele>20.2</ele>
        <time>2020-06-15T17:34:38Z</time>
      </trkpt>
      <trkpt lat="49.40405" lon="-1.32295">
        <ele>20.1</ele>
        <time>2020-06-15T17:34:39Z</time>
      </trkpt>
      <trkpt lat="49.40406" lon="-1.32294">
        <ele>20.1</ele>
        <time>2020-06-15T17:34:40Z</time>
      </trkpt>
      <trkpt lat="49.40406" lon="-1.32293">
        <ele>20.1</ele>
        <time>2020-06-15T17:34:41Z</time>
      </trkpt>
      <trkpt lat="49.40407" lon="-1.32294">
        <ele>20.1</ele>
        <time>2020-06-15T17:34:42Z</time>
      </trkpt>
      <trkpt lat="49.40407" lon="-1.32295">
        <ele>20.1</ele>
        <time>2020-06-15T17:34:43Z</time>
      </trkpt>
      <trkpt lat="49.40407" lon="-1.32295">
        <ele>20.1</ele>
        <time>2020-06-15T17:34:44Z</time>
      </trkpt>
      <trkpt lat="49.40408" lon="-1.32295">
        <ele>20</ele>
        <time>2020-06-15T17:34:45Z</time>
      </trkpt>
      <trkpt lat="49.40408" lon="-1.32295">
        <ele>20</ele>
        <time>2020-06-15T17:34:46Z</time>
      </trkpt>
      <trkpt lat="49.40408" lon="-1.32294">
        <ele>20</ele>
        <time>2020-06-15T17:34:47Z</time>
      </trkpt>
      <trkpt lat="49.40408" lon="-1.32293">
        <ele>20</ele>
        <time>2020-06-15T17:34:48Z</time>
      </trkpt>
      <trkpt lat="49.40408" lon="-1.32293">
        <ele>20</ele>
        <time>2020-06-15T17:34:49Z</time>
      </trkpt>
      <trkpt lat="49.40408" lon="-1.32293">
        <ele>20</ele>
        <time>2020-06-15T17:34:50Z</time>
      </trkpt>
      <trkpt lat="49.40408" lon="-1.32292">
        <ele>20</ele>
        <time>2020-06-15T17:34:51Z</time>
      </trkpt>
      <trkpt lat="49.40408" lon="-1.32292">
        <ele>20</ele>
        <time>2020-06-15T17:34:52Z</time>
      </trkpt>
      <trkpt lat="49.40408" lon="-1.32291">
        <ele>20</ele>
        <time>2020-06-15T17:34:53Z</time>
      </trkpt>
      <trkpt lat="49.40408" lon="-1.32292">
        <ele>20</ele>
        <time>2020-06-15T17:34:54Z</time>
      </trkpt>
      <trkpt lat="49.40408" lon="-1.32292">
        <ele>20.1</ele>
        <time>2020-06-15T17:34:55Z</time>
      </trkpt>
      <trkpt lat="49.40407" lon="-1.32291">
        <ele>20.1</ele>
        <time>2020-06-15T17:34:56Z</time>
      </trkpt>
      <trkpt lat="49.40407" lon="-1.32291">
        <ele>20.1</ele>
        <time>2020-06-15T17:34:57Z</time>
      </trkpt>
      <trkpt lat="49.40406" lon="-1.32291">
        <ele>20.1</ele>
        <time>2020-06-15T17:34:58Z</time>
      </trkpt>
      <trkpt lat="49.40406" lon="-1.32291">
        <ele>20.1</ele>
        <time>2020-06-15T17:34:59Z</time>
      </trkpt>
      <trkpt lat="49.40406" lon="-1.32291">
        <ele>20.1</ele>
        <time>2020-06-15T17:35:00Z</time>
      </trkpt>
      <trkpt lat="49.40406" lon="-1.32292">
        <ele>20.1</ele>
        <time>2020-06-15T17:35:01Z</time>
      </trkpt>
      <trkpt lat="49.40406" lon="-1.32292">
        <ele>20.1</ele>
        <time>2020-06-15T17:35:02Z</time>
      </trkpt>
      <trkpt lat="49.40406" lon="-1.32292">
        <ele>20.1</ele>
        <time>2020-06-15T17:35:03Z</time>
      </trkpt>
      <trkpt lat="49.40405" lon="-1.32295">
        <ele>20.1</ele>
        <time>2020-06-15T17:35:04Z</time>
      </trkpt>
      <trkpt lat="49.40405" lon="-1.32297">
        <ele>20.3</ele>
        <time>2020-06-15T17:35:05Z</time>
      </trkpt>
      <trkpt lat="49.40405" lon="-1.32298">
        <ele>20.3</ele>
        <time>2020-06-15T17:35:06Z</time>
      </trkpt>
      <trkpt lat="49.40405" lon="-1.32299">
        <ele>20.3</ele>
        <time>2020-06-15T17:35:07Z</time>
      </trkpt>
      <trkpt lat="49.40405" lon="-1.32299">
        <ele>20.3</ele>
        <time>2020-06-15T17:35:08Z</time>
      </trkpt>
      <trkpt lat="49.40404" lon="-1.323">
        <ele>20.4</ele>
        <time>2020-06-15T17:35:09Z</time>
      </trkpt>
      <trkpt lat="49.40404" lon="-1.32301">
        <ele>20.4</ele>
        <time>2020-06-15T17:35:10Z</time>
      </trkpt>
      <trkpt lat="49.40404" lon="-1.32301">
        <ele>20.4</ele>
        <time>2020-06-15T17:35:11Z</time>
      </trkpt>
      <trkpt lat="49.40403" lon="-1.32302">
        <ele>20.4</ele>
        <time>2020-06-15T17:35:12Z</time>
      </trkpt>
      <trkpt lat="49.40403" lon="-1.32302">
        <ele>20.4</ele>
        <time>2020-06-15T17:35:13Z</time>
      </trkpt>
      <trkpt lat="49.40403" lon="-1.32301">
        <ele>20.4</ele>
        <time>2020-06-15T17:35:14Z</time>
      </trkpt>
      <trkpt lat="49.40403" lon="-1.323">
        <ele>20.4</ele>
        <time>2020-06-15T17:35:15Z</time>
      </trkpt>
      <trkpt lat="49.40402" lon="-1.32299">
        <ele>20.3</ele>
        <time>2020-06-15T17:35:16Z</time>
      </trkpt>
      <trkpt lat="49.40402" lon="-1.32298">
        <ele>20.4</ele>
        <time>2020-06-15T17:35:17Z</time>
      </trkpt>
      <trkpt lat="49.40401" lon="-1.32298">
        <ele>20.4</ele>
        <time>2020-06-15T17:35:18Z</time>
      </trkpt>
      <trkpt lat="49.40401" lon="-1.32297">
        <ele>20.4</ele>
        <time>2020-06-15T17:35:19Z</time>
      </trkpt>
      <trkpt lat="49.40401" lon="-1.32297">
        <ele>20.4</ele>
        <time>2020-06-15T17:35:20Z</time>
      </trkpt>
      <trkpt lat="49.404" lon="-1.32296">
        <ele>20.4</ele>
        <time>2020-06-15T17:35:21Z</time>
      </trkpt>
      <trkpt lat="49.40399" lon="-1.32295">
        <ele>20.4</ele>
        <time>2020-06-15T17:35:22Z</time>
      </trkpt>
      <trkpt lat="49.40399" lon="-1.32295">
        <ele>20.4</ele>
        <time>2020-06-15T17:35:23Z</time>
      </trkpt>
      <trkpt lat="49.40398" lon="-1.32294">
        <ele>20.4</ele>
        <time>2020-06-15T17:35:24Z</time>
      </trkpt>
      <trkpt lat="49.40398" lon="-1.32294">
        <ele>20.4</ele>
        <time>2020-06-15T17:35:25Z</time>
      </trkpt>
      <trkpt lat="49.40397" lon="-1.32294">
        <ele>20.4</ele>
        <time>2020-06-15T17:35:26Z</time>
      </trkpt>
      <trkpt lat="49.40396" lon="-1.32295">
        <ele>20.5</ele>
        <time>2020-06-15T17:35:27Z</time>
      </trkpt>
      <trkpt lat="49.40396" lon="-1.32295">
        <ele>20.5</ele>
        <time>2020-06-15T17:35:28Z</time>
      </trkpt>
      <trkpt lat="49.40396" lon="-1.32295">
        <ele>20.5</ele>
        <time>2020-06-15T17:35:29Z</time>
      </trkpt>
      <trkpt lat="49.40396" lon="-1.32295">
        <ele>20.5</ele>
        <time>2020-06-15T17:35:30Z</time>
      </trkpt>
      <trkpt lat="49.40395" lon="-1.32296">
        <ele>20.6</ele>
        <time>2020-06-15T17:35:31Z</time>
      </trkpt>
      <trkpt lat="49.40395" lon="-1.32298">
        <ele>20.6</ele>
        <time>2020-06-15T17:35:32Z</time>
      </trkpt>
      <trkpt lat="49.40395" lon="-1.32298">
        <ele>20.6</ele>
        <time>2020-06-15T17:35:33Z</time>
      </trkpt>
      <trkpt lat="49.40396" lon="-1.32298">
        <ele>20.6</ele>
        <time>2020-06-15T17:35:34Z</time>
      </trkpt>
      <trkpt lat="49.40396" lon="-1.32299">
        <ele>20.6</ele>
        <time>2020-06-15T17:35:35Z</time>
      </trkpt>
      <trkpt lat="49.40396" lon="-1.32301">
        <ele>20.6</ele>
        <time>2020-06-15T17:35:36Z</time>
      </trkpt>
      <trkpt lat="49.40396" lon="-1.32302">
        <ele>20.6</ele>
        <time>2020-06-15T17:35:37Z</time>
      </trkpt>
      <trkpt lat="49.40397" lon="-1.32304">
        <ele>20.6</ele>
        <time>2020-06-15T17:35:38Z</time>
      </trkpt>
      <trkpt lat="49.40397" lon="-1.32305">
        <ele>20.6</ele>
        <time>2020-06-15T17:35:39Z</time>
      </trkpt>
      <trkpt lat="49.40398" lon="-1.32306">
        <ele>20.6</ele>
        <time>2020-06-15T17:35:40Z</time>
      </trkpt>
      <trkpt lat="49.40398" lon="-1.32307">
        <ele>20.6</ele>
        <time>2020-06-15T17:35:41Z</time>
      </trkpt>
      <trkpt lat="49.40398" lon="-1.32308">
        <ele>20.6</ele>
        <time>2020-06-15T17:35:42Z</time>
      </trkpt>
      <trkpt lat="49.40398" lon="-1.32309">
        <ele>20.6</ele>
        <time>2020-06-15T17:35:43Z</time>
      </trkpt>
      <trkpt lat="49.40398" lon="-1.32309">
        <ele>20.6</ele>
        <time>2020-06-15T17:35:44Z</time>
      </trkpt>
      <trkpt lat="49.40398" lon="-1.32309">
        <ele>20.6</ele>
        <time>2020-06-15T17:35:45Z</time>
      </trkpt>
      <trkpt lat="49.40397" lon="-1.32309">
        <ele>20.6</ele>
        <time>2020-06-15T17:35:46Z</time>
      </trkpt>
      <trkpt lat="49.40397" lon="-1.32309">
        <ele>20.6</ele>
        <time>2020-06-15T17:35:47Z</time>
      </trkpt>
      <trkpt lat="49.40397" lon="-1.32308">
        <ele>20.6</ele>
        <time>2020-06-15T17:35:48Z</time>
      </trkpt>
      <trkpt lat="49.40397" lon="-1.32309">
        <ele>20.6</ele>
        <time>2020-06-15T17:35:49Z</time>
      </trkpt>
      <trkpt lat="49.40397" lon="-1.3231">
        <ele>20.6</ele>
        <time>2020-06-15T17:35:50Z</time>
      </trkpt>
      <trkpt lat="49.40397" lon="-1.3231">
        <ele>20.6</ele>
        <time>2020-06-15T17:35:51Z</time>
      </trkpt>
      <trkpt lat="49.40398" lon="-1.3231">
        <ele>20.6</ele>
        <time>2020-06-15T17:35:52Z</time>
      </trkpt>
      <trkpt lat="49.40398" lon="-1.32311">
        <ele>20.6</ele>
        <time>2020-06-15T17:35:53Z</time>
      </trkpt>
      <trkpt lat="49.40398" lon="-1.32311">
        <ele>20.6</ele>
        <time>2020-06-15T17:35:54Z</time>
      </trkpt>
      <trkpt lat="49.40398" lon="-1.32311">
        <ele>20.6</ele>
        <time>2020-06-15T17:35:55Z</time>
      </trkpt>
      <trkpt lat="49.40399" lon="-1.32311">
        <ele>20.6</ele>
        <time>2020-06-15T17:35:56Z</time>
      </trkpt>
      <trkpt lat="49.40399" lon="-1.32311">
        <ele>20.6</ele>
        <time>2020-06-15T17:35:57Z</time>
      </trkpt>
      <trkpt lat="49.40399" lon="-1.3231">
        <ele>20.6</ele>
        <time>2020-06-15T17:35:58Z</time>
      </trkpt>
      <trkpt lat="49.404" lon="-1.3231">
        <ele>20.6</ele>
        <time>2020-06-15T17:35:59Z</time>
      </trkpt>
      <trkpt lat="49.404" lon="-1.3231">
        <ele>20.6</ele>
        <time>2020-06-15T17:36:00Z</time>
      </trkpt>
      <trkpt lat="49.404" lon="-1.3231">
        <ele>20.6</ele>
        <time>2020-06-15T17:36:01Z</time>
      </trkpt>
      <trkpt lat="49.40401" lon="-1.3231">
        <ele>20.6</ele>
        <time>2020-06-15T17:36:02Z</time>
      </trkpt>
      <trkpt lat="49.40401" lon="-1.32309">
        <ele>20.6</ele>
        <time>2020-06-15T17:36:03Z</time>
      </trkpt>
      <trkpt lat="49.40401" lon="-1.32309">
        <ele>20.6</ele>
        <time>2020-06-15T17:36:04Z</time>
      </trkpt>
      <trkpt lat="49.40402" lon="-1.32309">
        <ele>20.6</ele>
        <time>2020-06-15T17:36:05Z</time>
      </trkpt>
      <trkpt lat="49.40402" lon="-1.32309">
        <ele>20.6</ele>
        <time>2020-06-15T17:36:06Z</time>
      </trkpt>
      <trkpt lat="49.40402" lon="-1.32308">
        <ele>20.5</ele>
        <time>2020-06-15T17:36:07Z</time>
      </trkpt>
      <trkpt lat="49.40402" lon="-1.32308">
        <ele>20.5</ele>
        <time>2020-06-15T17:36:08Z</time>
      </trkpt>
      <trkpt lat="49.40403" lon="-1.32308">
        <ele>20.5</ele>
        <time>2020-06-15T17:36:09Z</time>
      </trkpt>
      <trkpt lat="49.40403" lon="-1.32308">
        <ele>20.5</ele>
        <time>2020-06-15T17:36:10Z</time>
      </trkpt>
      <trkpt lat="49.40403" lon="-1.32308">
        <ele>20.5</ele>
        <time>2020-06-15T17:36:11Z</time>
      </trkpt>
      <trkpt lat="49.40404" lon="-1.32307">
        <ele>20.5</ele>
        <time>2020-06-15T17:36:12Z</time>
      </trkpt>
      <trkpt lat="49.40404" lon="-1.32307">
        <ele>20.5</ele>
        <time>2020-06-15T17:36:13Z</time>
      </trkpt>
      <trkpt lat="49.40404" lon="-1.32307">
        <ele>20.5</ele>
        <time>2020-06-15T17:36:14Z</time>
      </trkpt>
      <trkpt lat="49.40405" lon="-1.32307">
        <ele>20.5</ele>
        <time>2020-06-15T17:36:15Z</time>
      </trkpt>
      <trkpt lat="49.40405" lon="-1.32307">
        <ele>20.4</ele>
        <time>2020-06-15T17:37:42Z</time>
      </trkpt>
      <trkpt lat="49.40405" lon="-1.32306">
        <ele>20.4</ele>
        <time>2020-06-15T17:37:43Z</time>
      </trkpt>
      <trkpt lat="49.40406" lon="-1.32306">
        <ele>20.4</ele>
        <time>2020-06-15T17:37:44Z</time>
      </trkpt>
      <trkpt lat="49.40406" lon="-1.32306">
        <ele>20.4</ele>
        <time>2020-06-15T17:37:45Z</time>
      </trkpt>
      <trkpt lat="49.40406" lon="-1.32306">
        <ele>20.4</ele>
        <time>2020-06-15T17:37:46Z</time>
      </trkpt>
      <trkpt lat="49.40407" lon="-1.32306">
        <ele>20.4</ele>
        <time>2020-06-15T17:37:47Z</time>
      </trkpt>
      <trkpt lat="49.40407" lon="-1.32305">
        <ele>20.4</ele>
        <time>2020-06-15T17:37:48Z</time>
      </trkpt>
      <trkpt lat="49.40407" lon="-1.32305">
        <ele>20.4</ele>
        <time>2020-06-15T17:37:49Z</time>
      </trkpt>
      <trkpt lat="49.40407" lon="-1.32305">
        <ele>20.4</ele>
        <time>2020-06-15T17:37:50Z</time>
      </trkpt>
      <trkpt lat="49.40408" lon="-1.32305">
        <ele>20.3</ele>
        <time>2020-06-15T17:37:51Z</time>
      </trkpt>
      <trkpt lat="49.40408" lon="-1.32304">
        <ele>20.3</ele>
        <time>2020-06-15T17:37:52Z</time>
      </trkpt>
      <trkpt lat="49.40408" lon="-1.32304">
        <ele>20.3</ele>
        <time>2020-06-15T17:37:53Z</time>
      </trkpt>
      <trkpt lat="49.40409" lon="-1.32304">
        <ele>20.3</ele>
        <time>2020-06-15T17:37:54Z</time>
      </trkpt>
      <trkpt lat="49.40409" lon="-1.32304">
        <ele>20.3</ele>
        <time>2020-06-15T17:37:55Z</time>
      </trkpt>
      <trkpt lat="49.40409" lon="-1.32304">
        <ele>20.2</ele>
        <time>2020-06-15T17:37:56Z</time>
      </trkpt>
      <trkpt lat="49.4041" lon="-1.32303">
        <ele>20.2</ele>
        <time>2020-06-15T17:37:57Z</time>
      </trkpt>
      <trkpt lat="49.4041" lon="-1.32303">
        <ele>20.2</ele>
        <time>2020-06-15T17:37:58Z</time>
      </trkpt>
      <trkpt lat="49.4041" lon="-1.32303">
        <ele>20.2</ele>
        <time>2020-06-15T17:37:59Z</time>
      </trkpt>
      <trkpt lat="49.40411" lon="-1.32303">
        <ele>20.2</ele>
        <time>2020-06-15T17:38:40Z</time>
      </trkpt>
      <trkpt lat="49.40411" lon="-1.32303">
        <ele>20.2</ele>
        <time>2020-06-15T17:38:41Z</time>
      </trkpt>
      <trkpt lat="49.40414" lon="-1.32304">
        <ele>20.1</ele>
        <time>2020-06-15T17:38:42Z</time>
      </trkpt>
      <trkpt lat="49.40416" lon="-1.32308">
        <ele>20</ele>
        <time>2020-06-15T17:38:43Z</time>
      </trkpt>
      <trkpt lat="49.40418" lon="-1.32311">
        <ele>20.1</ele>
        <time>2020-06-15T17:38:44Z</time>
      </trkpt>
      <trkpt lat="49.40421" lon="-1.32314">
        <ele>20.1</ele>
        <time>2020-06-15T17:38:45Z</time>
      </trkpt>
      <trkpt lat="49.40422" lon="-1.32315">
        <ele>20</ele>
        <time>2020-06-15T17:38:46Z</time>
      </trkpt>
      <trkpt lat="49.40426" lon="-1.32316">
        <ele>19.9</ele>
        <time>2020-06-15T17:38:47Z</time>
      </trkpt>
      <trkpt lat="49.40428" lon="-1.32316">
        <ele>19.8</ele>
        <time>2020-06-15T17:38:48Z</time>
      </trkpt>
      <trkpt lat="49.40431" lon="-1.32316">
        <ele>19.7</ele>
        <time>2020-06-15T17:38:49Z</time>
      </trkpt>
      <trkpt lat="49.40433" lon="-1.32316">
        <ele>19.6</ele>
        <time>2020-06-15T17:38:50Z</time>
      </trkpt>
      <trkpt lat="49.40436" lon="-1.32314">
        <ele>19.5</ele>
        <time>2020-06-15T17:38:51Z</time>
      </trkpt>
      <trkpt lat="49.40439" lon="-1.32312">
        <ele>19.4</ele>
        <time>2020-06-15T17:38:52Z</time>
      </trkpt>
      <trkpt lat="49.40442" lon="-1.32309">
        <ele>19.2</ele>
        <time>2020-06-15T17:38:53Z</time>
      </trkpt>
      <trkpt lat="49.40445" lon="-1.32306">
        <ele>19</ele>
        <time>2020-06-15T17:38:54Z</time>
      </trkpt>
      <trkpt lat="49.40448" lon="-1.32304">
        <ele>18.9</ele>
        <time>2020-06-15T17:38:55Z</time>
      </trkpt>
      <trkpt lat="49.40451" lon="-1.32301">
        <ele>18.7</ele>
        <time>2020-06-15T17:38:56Z</time>
      </trkpt>
      <trkpt lat="49.40454" lon="-1.32298">
        <ele>18.6</ele>
        <time>2020-06-15T17:38:57Z</time>
      </trkpt>
      <trkpt lat="49.40455" lon="-1.32297">
        <ele>18.6</ele>
        <time>2020-06-15T17:38:58Z</time>
      </trkpt>
      <trkpt lat="49.40458" lon="-1.32295">
        <ele>18.4</ele>
        <time>2020-06-15T17:38:59Z</time>
      </trkpt>
      <trkpt lat="49.40459" lon="-1.32295">
        <ele>18.4</ele>
        <time>2020-06-15T17:39:00Z</time>
      </trkpt>
      <trkpt lat="49.40462" lon="-1.32292">
        <ele>18.3</ele>
        <time>2020-06-15T17:39:01Z</time>
      </trkpt>
      <trkpt lat="49.40463" lon="-1.3229">
        <ele>18.3</ele>
        <time>2020-06-15T17:39:02Z</time>
      </trkpt>
      <trkpt lat="49.40466" lon="-1.32286">
        <ele>18.2</ele>
        <time>2020-06-15T17:39:03Z</time>
      </trkpt>
      <trkpt lat="49.40466" lon="-1.32284">
        <ele>18.2</ele>
        <time>2020-06-15T17:39:04Z</time>
      </trkpt>
      <trkpt lat="49.40467" lon="-1.32282">
        <ele>18.2</ele>
        <time>2020-06-15T17:39:05Z</time>
      </trkpt>
      <trkpt lat="49.40466" lon="-1.32279">
        <ele>18.3</ele>
        <time>2020-06-15T17:39:06Z</time>
      </trkpt>
      <trkpt lat="49.40464" lon="-1.32275">
        <ele>18.3</ele>
        <time>2020-06-15T17:39:07Z</time>
      </trkpt>
      <trkpt lat="49.40463" lon="-1.32274">
        <ele>18.4</ele>
        <time>2020-06-15T17:39:08Z</time>
      </trkpt>
      <trkpt lat="49.40461" lon="-1.3227">
        <ele>18.4</ele>
        <time>2020-06-15T17:39:09Z</time>
      </trkpt>
      <trkpt lat="49.4046" lon="-1.32269">
        <ele>18.5</ele>
        <time>2020-06-15T17:39:10Z</time>
      </trkpt>
      <trkpt lat="49.40457" lon="-1.32266">
        <ele>18.5</ele>
        <time>2020-06-15T17:39:11Z</time>
      </trkpt>
      <trkpt lat="49.40456" lon="-1.32265">
        <ele>18.5</ele>
        <time>2020-06-15T17:39:12Z</time>
      </trkpt>
      <trkpt lat="49.40455" lon="-1.32263">
        <ele>18.6</ele>
        <time>2020-06-15T17:39:13Z</time>
      </trkpt>
      <trkpt lat="49.40453" lon="-1.32262">
        <ele>18.6</ele>
        <time>2020-06-15T17:39:14Z</time>
      </trkpt>
      <trkpt lat="49.40452" lon="-1.3226">
        <ele>18.6</ele>
        <time>2020-06-15T17:39:15Z</time>
      </trkpt>
      <trkpt lat="49.40451" lon="-1.32258">
        <ele>18.6</ele>
        <time>2020-06-15T17:39:16Z</time>
      </trkpt>
      <trkpt lat="49.4045" lon="-1.32257">
        <ele>18.7</ele>
        <time>2020-06-15T17:39:17Z</time>
      </trkpt>
      <trkpt lat="49.40449" lon="-1.32255">
        <ele>18.7</ele>
        <time>2020-06-15T17:39:18Z</time>
      </trkpt>
      <trkpt lat="49.40449" lon="-1.32252">
        <ele>18.7</ele>
        <time>2020-06-15T17:39:19Z</time>
      </trkpt>
      <trkpt lat="49.4045" lon="-1.3225">
        <ele>18.7</ele>
        <time>2020-06-15T17:39:20Z</time>
      </trkpt>
      <trkpt lat="49.40452" lon="-1.32246">
        <ele>18.7</ele>
        <time>2020-06-15T17:39:21Z</time>
      </trkpt>
      <trkpt lat="49.40452" lon="-1.32245">
        <ele>18.7</ele>
        <time>2020-06-15T17:39:22Z</time>
      </trkpt>
      <trkpt lat="49.40455" lon="-1.32243">
        <ele>18.6</ele>
        <time>2020-06-15T17:39:23Z</time>
      </trkpt>
      <trkpt lat="49.40455" lon="-1.32242">
        <ele>18.6</ele>
        <time>2020-06-15T17:39:24Z</time>
      </trkpt>
      <trkpt lat="49.40459" lon="-1.32243">
        <ele>18.6</ele>
        <time>2020-06-15T17:39:25Z</time>
      </trkpt>
      <trkpt lat="49.4046" lon="-1.32244">
        <ele>18.5</ele>
        <time>2020-06-15T17:39:26Z</time>
      </trkpt>
      <trkpt lat="49.40463" lon="-1.32245">
        <ele>18.5</ele>
        <time>2020-06-15T17:39:27Z</time>
      </trkpt>
      <trkpt lat="49.40465" lon="-1.32247">
        <ele>18.4</ele>
        <time>2020-06-15T17:39:28Z</time>
      </trkpt>
      <trkpt lat="49.40468" lon="-1.32251">
        <ele>18.4</ele>
        <time>2020-06-15T17:39:29Z</time>
      </trkpt>
      <trkpt lat="49.40469" lon="-1.32252">
        <ele>18.4</ele>
        <time>2020-06-15T17:39:30Z</time>
      </trkpt>
      <trkpt lat="49.40472" lon="-1.32255">
        <ele>18.3</ele>
        <time>2020-06-15T17:39:31Z</time>
      </trkpt>
      <trkpt lat="49.40473" lon="-1.32256">
        <ele>18.3</ele>
        <time>2020-06-15T17:39:32Z</time>
      </trkpt>
      <trkpt lat="49.40476" lon="-1.32258">
        <ele>18.2</ele>
        <time>2020-06-15T17:39:33Z</time>
      </trkpt>
      <trkpt lat="49.40479" lon="-1.3226">
        <ele>18.2</ele>
        <time>2020-06-15T17:39:34Z</time>
      </trkpt>
      <trkpt lat="49.40482" lon="-1.32262">
        <ele>18.1</ele>
        <time>2020-06-15T17:39:35Z</time>
      </trkpt>
      <trkpt lat="49.40485" lon="-1.32263">
        <ele>18.1</ele>
        <time>2020-06-15T17:39:36Z</time>
      </trkpt>
      <trkpt lat="49.40488" lon="-1.32265">
        <ele>18</ele>
        <time>2020-06-15T17:39:37Z</time>
      </trkpt>
      <trkpt lat="49.40491" lon="-1.32267">
        <ele>17.9</ele>
        <time>2020-06-15T17:39:38Z</time>
      </trkpt>
      <trkpt lat="49.40494" lon="-1.32267">
        <ele>17.9</ele>
        <time>2020-06-15T17:39:39Z</time>
      </trkpt>
      <trkpt lat="49.40497" lon="-1.32267">
        <ele>17.8</ele>
        <time>2020-06-15T17:39:40Z</time>
      </trkpt>
      <trkpt lat="49.405" lon="-1.32266">
        <ele>17.7</ele>
        <time>2020-06-15T17:39:41Z</time>
      </trkpt>
      <trkpt lat="49.40504" lon="-1.32265">
        <ele>17.7</ele>
        <time>2020-06-15T17:39:42Z</time>
      </trkpt>
      <trkpt lat="49.40508" lon="-1.32262">
        <ele>17.7</ele>
        <time>2020-06-15T17:39:43Z</time>
      </trkpt>
      <trkpt lat="49.40511" lon="-1.3226">
        <ele>17.7</ele>
        <time>2020-06-15T17:39:44Z</time>
      </trkpt>
      <trkpt lat="49.40514" lon="-1.32256">
        <ele>17.7</ele>
        <time>2020-06-15T17:39:45Z</time>
      </trkpt>
      <trkpt lat="49.40518" lon="-1.32251">
        <ele>17.7</ele>
        <time>2020-06-15T17:39:46Z</time>
      </trkpt>
      <trkpt lat="49.40521" lon="-1.32247">
        <ele>17.7</ele>
        <time>2020-06-15T17:39:47Z</time>
      </trkpt>
      <trkpt lat="49.40524" lon="-1.32242">
        <ele>17.8</ele>
        <time>2020-06-15T17:39:48Z</time>
      </trkpt>
      <trkpt lat="49.40528" lon="-1.32236">
        <ele>17.8</ele>
        <time>2020-06-15T17:39:49Z</time>
      </trkpt>
      <trkpt lat="49.40531" lon="-1.32231">
        <ele>17.9</ele>
        <time>2020-06-15T17:39:50Z</time>
      </trkpt>
      <trkpt lat="49.40534" lon="-1.32225">
        <ele>18</ele>
        <time>2020-06-15T17:39:51Z</time>
      </trkpt>
      <trkpt lat="49.40536" lon="-1.32219">
        <ele>18</ele>
        <time>2020-06-15T17:39:52Z</time>
      </trkpt>
      <trkpt lat="49.40538" lon="-1.32214">
        <ele>18.1</ele>
        <time>2020-06-15T17:39:53Z</time>
      </trkpt>
      <trkpt lat="49.4054" lon="-1.32208">
        <ele>18.1</ele>
        <time>2020-06-15T17:39:54Z</time>
      </trkpt>
      <trkpt lat="49.40542" lon="-1.32203">
        <ele>18.2</ele>
        <time>2020-06-15T17:39:55Z</time>
      </trkpt>
      <trkpt lat="49.40544" lon="-1.32198">
        <ele>18.3</ele>
        <time>2020-06-15T17:39:56Z</time>
      </trkpt>
      <trkpt lat="49.40546" lon="-1.32193">
        <ele>18.4</ele>
        <time>2020-06-15T17:39:57Z</time>
      </trkpt>
      <trkpt lat="49.40548" lon="-1.32188">
        <ele>18.5</ele>
        <time>2020-06-15T17:39:58Z</time>
      </trkpt>
      <trkpt lat="49.40549" lon="-1.32183">
        <ele>18.5</ele>
        <time>2020-06-15T17:39:59Z</time>
      </trkpt>
      <trkpt lat="49.4055" lon="-1.32179">
        <ele>18.6</ele>
        <time>2020-06-15T17:40:00Z</time>
      </trkpt>
      <trkpt lat="49.40552" lon="-1.32175">
        <ele>18.7</ele>
        <time>2020-06-15T17:40:01Z</time>
      </trkpt>
      <trkpt lat="49.40554" lon="-1.3217">
        <ele>18.7</ele>
        <time>2020-06-15T17:40:02Z</time>
      </trkpt>
      <trkpt lat="49.40555" lon="-1.32166">
        <ele>18.8</ele>
        <time>2020-06-15T17:40:03Z</time>
      </trkpt>
      <trkpt lat="49.40557" lon="-1.32161">
        <ele>18.9</ele>
        <time>2020-06-15T17:40:04Z</time>
      </trkpt>
      <trkpt lat="49.40559" lon="-1.32156">
        <ele>19</ele>
        <time>2020-06-15T17:40:05Z</time>
      </trkpt>
      <trkpt lat="49.4056" lon="-1.32152">
        <ele>19</ele>
        <time>2020-06-15T17:40:06Z</time>
      </trkpt>
      <trkpt lat="49.40563" lon="-1.32148">
        <ele>19.1</ele>
        <time>2020-06-15T17:40:07Z</time>
      </trkpt>
      <trkpt lat="49.40565" lon="-1.32145">
        <ele>19.2</ele>
        <time>2020-06-15T17:40:08Z</time>
      </trkpt>
      <trkpt lat="49.40566" lon="-1.3214">
        <ele>19.3</ele>
        <time>2020-06-15T17:40:09Z</time>
      </trkpt>
      <trkpt lat="49.40566" lon="-1.32138">
        <ele>19.3</ele>
        <time>2020-06-15T17:40:10Z</time>
      </trkpt>
      <trkpt lat="49.40565" lon="-1.32134">
        <ele>19.4</ele>
        <time>2020-06-15T17:40:11Z</time>
      </trkpt>
      <trkpt lat="49.40563" lon="-1.3213">
        <ele>19.5</ele>
        <time>2020-06-15T17:40:12Z</time>
      </trkpt>
      <trkpt lat="49.40562" lon="-1.32125">
        <ele>19.6</ele>
        <time>2020-06-15T17:40:13Z</time>
      </trkpt>
      <trkpt lat="49.4056" lon="-1.32121">
        <ele>19.6</ele>
        <time>2020-06-15T17:40:14Z</time>
      </trkpt>
      <trkpt lat="49.40558" lon="-1.32117">
        <ele>19.7</ele>
        <time>2020-06-15T17:40:15Z</time>
      </trkpt>
      <trkpt lat="49.40557" lon="-1.32113">
        <ele>19.8</ele>
        <time>2020-06-15T17:40:16Z</time>
      </trkpt>
      <trkpt lat="49.40556" lon="-1.32108">
        <ele>19.9</ele>
        <time>2020-06-15T17:40:17Z</time>
      </trkpt>
      <trkpt lat="49.40555" lon="-1.32104">
        <ele>20</ele>
        <time>2020-06-15T17:40:18Z</time>
      </trkpt>
      <trkpt lat="49.40555" lon="-1.321">
        <ele>20.1</ele>
        <time>2020-06-15T17:40:19Z</time>
      </trkpt>
      <trkpt lat="49.40555" lon="-1.32095">
        <ele>20.2</ele>
        <time>2020-06-15T17:40:20Z</time>
      </trkpt>
      <trkpt lat="49.40555" lon="-1.3209">
        <ele>20.3</ele>
        <time>2020-06-15T17:40:21Z</time>
      </trkpt>
      <trkpt lat="49.40554" lon="-1.32086">
        <ele>20.4</ele>
        <time>2020-06-15T17:40:22Z</time>
      </trkpt>
      <trkpt lat="49.40553" lon="-1.32081">
        <ele>20.5</ele>
        <time>2020-06-15T17:40:23Z</time>
      </trkpt>
      <trkpt lat="49.40552" lon="-1.32076">
        <ele>20.6</ele>
        <time>2020-06-15T17:40:24Z</time>
      </trkpt>
      <trkpt lat="49.40551" lon="-1.3207">
        <ele>20.7</ele>
        <time>2020-06-15T17:40:25Z</time>
      </trkpt>
      <trkpt lat="49.4055" lon="-1.32064">
        <ele>20.8</ele>
        <time>2020-06-15T17:40:26Z</time>
      </trkpt>
      <trkpt lat="49.40549" lon="-1.32057">
        <ele>21</ele>
        <time>2020-06-15T17:40:27Z</time>
      </trkpt>
      <trkpt lat="49.40548" lon="-1.32051">
        <ele>21.1</ele>
        <time>2020-06-15T17:40:28Z</time>
      </trkpt>
      <trkpt lat="49.40547" lon="-1.32043">
        <ele>21.2</ele>
        <time>2020-06-15T17:40:29Z</time>
      </trkpt>
      <trkpt lat="49.40545" lon="-1.32038">
        <ele>21.2</ele>
        <time>2020-06-15T17:40:30Z</time>
      </trkpt>
      <trkpt lat="49.40544" lon="-1.32033">
        <ele>21.3</ele>
        <time>2020-06-15T17:40:31Z</time>
      </trkpt>
      <trkpt lat="49.40542" lon="-1.32028">
        <ele>21.4</ele>
        <time>2020-06-15T17:40:32Z</time>
      </trkpt>
      <trkpt lat="49.40541" lon="-1.32023">
        <ele>21.4</ele>
        <time>2020-06-15T17:40:33Z</time>
      </trkpt>
      <trkpt lat="49.4054" lon="-1.32018">
        <ele>21.4</ele>
        <time>2020-06-15T17:40:34Z</time>
      </trkpt>
      <trkpt lat="49.40539" lon="-1.32013">
        <ele>21.5</ele>
        <time>2020-06-15T17:40:35Z</time>
      </trkpt>
      <trkpt lat="49.40537" lon="-1.32007">
        <ele>21.5</ele>
        <time>2020-06-15T17:40:36Z</time>
      </trkpt>
      <trkpt lat="49.40536" lon="-1.32">
        <ele>21.6</ele>
        <time>2020-06-15T17:40:37Z</time>
      </trkpt>
      <trkpt lat="49.40535" lon="-1.31994">
        <ele>21.6</ele>
        <time>2020-06-15T17:40:38Z</time>
      </trkpt>
      <trkpt lat="49.40534" lon="-1.31987">
        <ele>21.7</ele>
        <time>2020-06-15T17:40:39Z</time>
      </trkpt>
      <trkpt lat="49.40533" lon="-1.31981">
        <ele>21.7</ele>
        <time>2020-06-15T17:40:40Z</time>
      </trkpt>
      <trkpt lat="49.40532" lon="-1.31974">
        <ele>21.7</ele>
        <time>2020-06-15T17:40:41Z</time>
      </trkpt>
      <trkpt lat="49.40531" lon="-1.31968">
        <ele>21.8</ele>
        <time>2020-06-15T17:40:42Z</time>
      </trkpt>
      <trkpt lat="49.40529" lon="-1.31961">
        <ele>21.8</ele>
        <time>2020-06-15T17:40:43Z</time>
      </trkpt>
      <trkpt lat="49.40528" lon="-1.31953">
        <ele>21.8</ele>
        <time>2020-06-15T17:40:44Z</time>
      </trkpt>
      <trkpt lat="49.40527" lon="-1.31947">
        <ele>21.8</ele>
        <time>2020-06-15T17:40:45Z</time>
      </trkpt>
      <trkpt lat="49.40526" lon="-1.31939">
        <ele>21.8</ele>
        <time>2020-06-15T17:40:46Z</time>
      </trkpt>
      <trkpt lat="49.40524" lon="-1.31931">
        <ele>21.9</ele>
        <time>2020-06-15T17:40:47Z</time>
      </trkpt>
      <trkpt lat="49.40523" lon="-1.31924">
        <ele>21.9</ele>
        <time>2020-06-15T17:40:48Z</time>
      </trkpt>
      <trkpt lat="49.40522" lon="-1.31919">
        <ele>21.9</ele>
        <time>2020-06-15T17:40:49Z</time>
      </trkpt>
      <trkpt lat="49.40521" lon="-1.31912">
        <ele>21.9</ele>
        <time>2020-06-15T17:40:50Z</time>
      </trkpt>
      <trkpt lat="49.40521" lon="-1.31906">
        <ele>21.9</ele>
        <time>2020-06-15T17:40:51Z</time>
      </trkpt>
      <trkpt lat="49.4052" lon="-1.31901">
        <ele>21.9</ele>
        <time>2020-06-15T17:40:52Z</time>
      </trkpt>
      <trkpt lat="49.40518" lon="-1.31895">
        <ele>21.9</ele>
        <time>2020-06-15T17:40:53Z</time>
      </trkpt>
      <trkpt lat="49.40517" lon="-1.3189">
        <ele>21.9</ele>
        <time>2020-06-15T17:40:54Z</time>
      </trkpt>
      <trkpt lat="49.40515" lon="-1.31884">
        <ele>21.9</ele>
        <time>2020-06-15T17:40:55Z</time>
      </trkpt>
      <trkpt lat="49.40512" lon="-1.31877">
        <ele>21.9</ele>
        <time>2020-06-15T17:40:56Z</time>
      </trkpt>
      <trkpt lat="49.4051" lon="-1.3187">
        <ele>21.9</ele>
        <time>2020-06-15T17:40:57Z</time>
      </trkpt>
      <trkpt lat="49.40508" lon="-1.31864">
        <ele>21.8</ele>
        <time>2020-06-15T17:40:58Z</time>
      </trkpt>
      <trkpt lat="49.40506" lon="-1.31858">
        <ele>21.8</ele>
        <time>2020-06-15T17:40:59Z</time>
      </trkpt>
      <trkpt lat="49.40503" lon="-1.31852">
        <ele>21.7</ele>
        <time>2020-06-15T17:41:00Z</time>
      </trkpt>
      <trkpt lat="49.405" lon="-1.31846">
        <ele>21.7</ele>
        <time>2020-06-15T17:41:01Z</time>
      </trkpt>
      <trkpt lat="49.40497" lon="-1.31841">
        <ele>21.6</ele>
        <time>2020-06-15T17:41:02Z</time>
      </trkpt>
      <trkpt lat="49.40494" lon="-1.31836">
        <ele>21.5</ele>
        <time>2020-06-15T17:41:03Z</time>
      </trkpt>
      <trkpt lat="49.40492" lon="-1.31831">
        <ele>21.4</ele>
        <time>2020-06-15T17:41:04Z</time>
      </trkpt>
      <trkpt lat="49.40488" lon="-1.31825">
        <ele>21.3</ele>
        <time>2020-06-15T17:41:05Z</time>
      </trkpt>
      <trkpt lat="49.40486" lon="-1.3182">
        <ele>21.3</ele>
        <time>2020-06-15T17:41:06Z</time>
      </trkpt>
      <trkpt lat="49.40483" lon="-1.31814">
        <ele>21.2</ele>
        <time>2020-06-15T17:41:07Z</time>
      </trkpt>
      <trkpt lat="49.4048" lon="-1.31809">
        <ele>21.1</ele>
        <time>2020-06-15T17:41:08Z</time>
      </trkpt>
      <trkpt lat="49.40477" lon="-1.31804">
        <ele>21</ele>
        <time>2020-06-15T17:41:09Z</time>
      </trkpt>
      <trkpt lat="49.40474" lon="-1.31799">
        <ele>20.9</ele>
        <time>2020-06-15T17:41:10Z</time>
      </trkpt>
      <trkpt lat="49.4047" lon="-1.31793">
        <ele>20.8</ele>
        <time>2020-06-15T17:41:11Z</time>
      </trkpt>
      <trkpt lat="49.40466" lon="-1.31788">
        <ele>20.6</ele>
        <time>2020-06-15T17:41:12Z</time>
      </trkpt>
      <trkpt lat="49.40463" lon="-1.31783">
        <ele>20.5</ele>
        <time>2020-06-15T17:41:13Z</time>
      </trkpt>
      <trkpt lat="49.40459" lon="-1.31776">
        <ele>20.3</ele>
        <time>2020-06-15T17:41:14Z</time>
      </trkpt>
      <trkpt lat="49.40456" lon="-1.3177">
        <ele>20.1</ele>
        <time>2020-06-15T17:41:15Z</time>
      </trkpt>
      <trkpt lat="49.40452" lon="-1.31764">
        <ele>19.9</ele>
        <time>2020-06-15T17:41:16Z</time>
      </trkpt>
      <trkpt lat="49.40449" lon="-1.31758">
        <ele>19.7</ele>
        <time>2020-06-15T17:41:17Z</time>
      </trkpt>
      <trkpt lat="49.40446" lon="-1.31752">
        <ele>19.5</ele>
        <time>2020-06-15T17:41:18Z</time>
      </trkpt>
      <trkpt lat="49.40443" lon="-1.31745">
        <ele>19.3</ele>
        <time>2020-06-15T17:41:19Z</time>
      </trkpt>
      <trkpt lat="49.4044" lon="-1.31737">
        <ele>19.1</ele>
        <time>2020-06-15T17:41:20Z</time>
      </trkpt>
      <trkpt lat="49.40437" lon="-1.31729">
        <ele>18.8</ele>
        <time>2020-06-15T17:41:21Z</time>
      </trkpt>
      <trkpt lat="49.40434" lon="-1.31721">
        <ele>18.6</ele>
        <time>2020-06-15T17:41:22Z</time>
      </trkpt>
      <trkpt lat="49.40431" lon="-1.31712">
        <ele>18.4</ele>
        <time>2020-06-15T17:41:23Z</time>
      </trkpt>
      <trkpt lat="49.40427" lon="-1.31703">
        <ele>18.1</ele>
        <time>2020-06-15T17:41:24Z</time>
      </trkpt>
      <trkpt lat="49.40423" lon="-1.31695">
        <ele>17.9</ele>
        <time>2020-06-15T17:41:25Z</time>
      </trkpt>
      <trkpt lat="49.40419" lon="-1.31686">
        <ele>17.7</ele>
        <time>2020-06-15T17:41:26Z</time>
      </trkpt>
      <trkpt lat="49.40415" lon="-1.31675">
        <ele>17.5</ele>
        <time>2020-06-15T17:41:27Z</time>
      </trkpt>
      <trkpt lat="49.40411" lon="-1.31664">
        <ele>17.5</ele>
        <time>2020-06-15T17:41:28Z</time>
      </trkpt>
      <trkpt lat="49.40406" lon="-1.31654">
        <ele>17.5</ele>
        <time>2020-06-15T17:41:29Z</time>
      </trkpt>
      <trkpt lat="49.40403" lon="-1.31645">
        <ele>17.5</ele>
        <time>2020-06-15T17:41:30Z</time>
      </trkpt>
      <trkpt lat="49.40399" lon="-1.31636">
        <ele>17.6</ele>
        <time>2020-06-15T17:41:31Z</time>
      </trkpt>
      <trkpt lat="49.40395" lon="-1.31626">
        <ele>17.7</ele>
        <time>2020-06-15T17:41:32Z</time>
      </trkpt>
      <trkpt lat="49.40392" lon="-1.31617">
        <ele>17.8</ele>
        <time>2020-06-15T17:41:33Z</time>
      </trkpt>
      <trkpt lat="49.40388" lon="-1.31608">
        <ele>17.9</ele>
        <time>2020-06-15T17:41:34Z</time>
      </trkpt>
      <trkpt lat="49.40385" lon="-1.31598">
        <ele>18.1</ele>
        <time>2020-06-15T17:41:35Z</time>
      </trkpt>
      <trkpt lat="49.40381" lon="-1.3159">
        <ele>18.2</ele>
        <time>2020-06-15T17:41:36Z</time>
      </trkpt>
      <trkpt lat="49.40379" lon="-1.31584">
        <ele>18.4</ele>
        <time>2020-06-15T17:41:37Z</time>
      </trkpt>
      <trkpt lat="49.40375" lon="-1.31578">
        <ele>18.6</ele>
        <time>2020-06-15T17:41:38Z</time>
      </trkpt>
      <trkpt lat="49.40373" lon="-1.31571">
        <ele>18.7</ele>
        <time>2020-06-15T17:41:39Z</time>
      </trkpt>
      <trkpt lat="49.4037" lon="-1.31566">
        <ele>18.9</ele>
        <time>2020-06-15T17:41:40Z</time>
      </trkpt>
      <trkpt lat="49.40367" lon="-1.31561">
        <ele>19</ele>
        <time>2020-06-15T17:41:41Z</time>
      </trkpt>
      <trkpt lat="49.40364" lon="-1.31556">
        <ele>19.2</ele>
        <time>2020-06-15T17:41:42Z</time>
      </trkpt>
      <trkpt lat="49.40361" lon="-1.3155">
        <ele>19.4</ele>
        <time>2020-06-15T17:41:43Z</time>
      </trkpt>
      <trkpt lat="49.40358" lon="-1.31545">
        <ele>19.5</ele>
        <time>2020-06-15T17:41:44Z</time>
      </trkpt>
      <trkpt lat="49.40355" lon="-1.31538">
        <ele>19.7</ele>
        <time>2020-06-15T17:41:45Z</time>
      </trkpt>
      <trkpt lat="49.40353" lon="-1.31532">
        <ele>19.8</ele>
        <time>2020-06-15T17:41:46Z</time>
      </trkpt>
      <trkpt lat="49.4035" lon="-1.31526">
        <ele>20</ele>
        <time>2020-06-15T17:41:47Z</time>
      </trkpt>
      <trkpt lat="49.40348" lon="-1.3152">
        <ele>20.1</ele>
        <time>2020-06-15T17:41:48Z</time>
      </trkpt>
      <trkpt lat="49.40346" lon="-1.31514">
        <ele>20.2</ele>
        <time>2020-06-15T17:41:49Z</time>
      </trkpt>
      <trkpt lat="49.40343" lon="-1.31508">
        <ele>20.4</ele>
        <time>2020-06-15T17:41:50Z</time>
      </trkpt>
      <trkpt lat="49.4034" lon="-1.31501">
        <ele>20.6</ele>
        <time>2020-06-15T17:41:51Z</time>
      </trkpt>
      <trkpt lat="49.40338" lon="-1.31495">
        <ele>20.7</ele>
        <time>2020-06-15T17:41:52Z</time>
      </trkpt>
      <trkpt lat="49.40335" lon="-1.31488">
        <ele>20.8</ele>
        <time>2020-06-15T17:41:53Z</time>
      </trkpt>
      <trkpt lat="49.40333" lon="-1.31482">
        <ele>21</ele>
        <time>2020-06-15T17:41:54Z</time>
      </trkpt>
      <trkpt lat="49.40331" lon="-1.31474">
        <ele>21.1</ele>
        <time>2020-06-15T17:41:55Z</time>
      </trkpt>
      <trkpt lat="49.40328" lon="-1.31468">
        <ele>21.2</ele>
        <time>2020-06-15T17:41:56Z</time>
      </trkpt>
      <trkpt lat="49.40325" lon="-1.31464">
        <ele>21.3</ele>
        <time>2020-06-15T17:41:57Z</time>
      </trkpt>
      <trkpt lat="49.40323" lon="-1.31458">
        <ele>21.4</ele>
        <time>2020-06-15T17:41:58Z</time>
      </trkpt>
      <trkpt lat="49.4032" lon="-1.31453">
        <ele>21.5</ele>
        <time>2020-06-15T17:41:59Z</time>
      </trkpt>
      <trkpt lat="49.40317" lon="-1.31446">
        <ele>21.6</ele>
        <time>2020-06-15T17:42:00Z</time>
      </trkpt>
      <trkpt lat="49.40314" lon="-1.31441">
        <ele>21.7</ele>
        <time>2020-06-15T17:42:01Z</time>
      </trkpt>
      <trkpt lat="49.40311" lon="-1.31435">
        <ele>21.7</ele>
        <time>2020-06-15T17:42:02Z</time>
      </trkpt>
      <trkpt lat="49.40308" lon="-1.31429">
        <ele>21.8</ele>
        <time>2020-06-15T17:42:03Z</time>
      </trkpt>
      <trkpt lat="49.40305" lon="-1.31424">
        <ele>21.9</ele>
        <time>2020-06-15T17:42:04Z</time>
      </trkpt>
      <trkpt lat="49.40303" lon="-1.31419">
        <ele>22</ele>
        <time>2020-06-15T17:42:05Z</time>
      </trkpt>
      <trkpt lat="49.403" lon="-1.31413">
        <ele>22</ele>
        <time>2020-06-15T17:42:06Z</time>
      </trkpt>
      <trkpt lat="49.40298" lon="-1.31408">
        <ele>22.1</ele>
        <time>2020-06-15T17:42:07Z</time>
      </trkpt>
      <trkpt lat="49.40295" lon="-1.31402">
        <ele>22.1</ele>
        <time>2020-06-15T17:42:08Z</time>
      </trkpt>
      <trkpt lat="49.40292" lon="-1.31396">
        <ele>22.2</ele>
        <time>2020-06-15T17:42:09Z</time>
      </trkpt>
      <trkpt lat="49.40288" lon="-1.3139">
        <ele>22.3</ele>
        <time>2020-06-15T17:42:10Z</time>
      </trkpt>
      <trkpt lat="49.40285" lon="-1.31386">
        <ele>22.4</ele>
        <time>2020-06-15T17:42:11Z</time>
      </trkpt>
      <trkpt lat="49.40281" lon="-1.3138">
        <ele>22.4</ele>
        <time>2020-06-15T17:42:12Z</time>
      </trkpt>
      <trkpt lat="49.40278" lon="-1.31375">
        <ele>22.5</ele>
        <time>2020-06-15T17:42:13Z</time>
      </trkpt>
      <trkpt lat="49.40274" lon="-1.3137">
        <ele>22.6</ele>
        <time>2020-06-15T17:42:14Z</time>
      </trkpt>
      <trkpt lat="49.40269" lon="-1.31366">
        <ele>22.7</ele>
        <time>2020-06-15T17:42:15Z</time>
      </trkpt>
      <trkpt lat="49.40265" lon="-1.31362">
        <ele>22.7</ele>
        <time>2020-06-15T17:42:16Z</time>
      </trkpt>
      <trkpt lat="49.4026" lon="-1.3136">
        <ele>22.8</ele>
        <time>2020-06-15T17:42:17Z</time>
      </trkpt>
      <trkpt lat="49.40256" lon="-1.31357">
        <ele>22.9</ele>
        <time>2020-06-15T17:42:18Z</time>
      </trkpt>
      <trkpt lat="49.40252" lon="-1.31354">
        <ele>22.9</ele>
        <time>2020-06-15T17:42:19Z</time>
      </trkpt>
      <trkpt lat="49.40247" lon="-1.31353">
        <ele>23</ele>
        <time>2020-06-15T17:42:20Z</time>
      </trkpt>
      <trkpt lat="49.40242" lon="-1.31352">
        <ele>23</ele>
        <time>2020-06-15T17:42:21Z</time>
      </trkpt>
      <trkpt lat="49.40238" lon="-1.31352">
        <ele>23.1</ele>
        <time>2020-06-15T17:42:22Z</time>
      </trkpt>
      <trkpt lat="49.40233" lon="-1.31351">
        <ele>23.1</ele>
        <time>2020-06-15T17:42:23Z</time>
      </trkpt>
      <trkpt lat="49.40228" lon="-1.3135">
        <ele>23.2</ele>
        <time>2020-06-15T17:42:24Z</time>
      </trkpt>
      <trkpt lat="49.40224" lon="-1.3135">
        <ele>23.2</ele>
        <time>2020-06-15T17:42:25Z</time>
      </trkpt>
      <trkpt lat="49.40219" lon="-1.31352">
        <ele>23.2</ele>
        <time>2020-06-15T17:42:26Z</time>
      </trkpt>
      <trkpt lat="49.40215" lon="-1.31353">
        <ele>23.3</ele>
        <time>2020-06-15T17:42:27Z</time>
      </trkpt>
      <trkpt lat="49.4021" lon="-1.31353">
        <ele>23.3</ele>
        <time>2020-06-15T17:42:28Z</time>
      </trkpt>
      <trkpt lat="49.40206" lon="-1.31353">
        <ele>23.4</ele>
        <time>2020-06-15T17:42:29Z</time>
      </trkpt>
      <trkpt lat="49.40201" lon="-1.31354">
        <ele>23.4</ele>
        <time>2020-06-15T17:42:30Z</time>
      </trkpt>
      <trkpt lat="49.40196" lon="-1.31355">
        <ele>23.5</ele>
        <time>2020-06-15T17:42:31Z</time>
      </trkpt>
      <trkpt lat="49.40191" lon="-1.31355">
        <ele>23.5</ele>
        <time>2020-06-15T17:42:32Z</time>
      </trkpt>
      <trkpt lat="49.40186" lon="-1.31355">
        <ele>23.6</ele>
        <time>2020-06-15T17:42:33Z</time>
      </trkpt>
      <trkpt lat="49.40181" lon="-1.31354">
        <ele>23.7</ele>
        <time>2020-06-15T17:42:34Z</time>
      </trkpt>
      <trkpt lat="49.40177" lon="-1.31351">
        <ele>23.7</ele>
        <time>2020-06-15T17:42:35Z</time>
      </trkpt>
      <trkpt lat="49.40173" lon="-1.31347">
        <ele>23.8</ele>
        <time>2020-06-15T17:42:36Z</time>
      </trkpt>
      <trkpt lat="49.40169" lon="-1.31341">
        <ele>23.8</ele>
        <time>2020-06-15T17:42:37Z</time>
      </trkpt>
      <trkpt lat="49.40166" lon="-1.31336">
        <ele>23.8</ele>
        <time>2020-06-15T17:42:38Z</time>
      </trkpt>
      <trkpt lat="49.40164" lon="-1.31331">
        <ele>23.9</ele>
        <time>2020-06-15T17:42:39Z</time>
      </trkpt>
      <trkpt lat="49.40162" lon="-1.31325">
        <ele>23.9</ele>
        <time>2020-06-15T17:42:40Z</time>
      </trkpt>
      <trkpt lat="49.4016" lon="-1.31319">
        <ele>23.9</ele>
        <time>2020-06-15T17:42:41Z</time>
      </trkpt>
      <trkpt lat="49.40159" lon="-1.31312">
        <ele>23.9</ele>
        <time>2020-06-15T17:42:42Z</time>
      </trkpt>
      <trkpt lat="49.40158" lon="-1.31305">
        <ele>23.9</ele>
        <time>2020-06-15T17:42:43Z</time>
      </trkpt>
      <trkpt lat="49.40158" lon="-1.31296">
        <ele>24</ele>
        <time>2020-06-15T17:42:44Z</time>
      </trkpt>
      <trkpt lat="49.40158" lon="-1.31288">
        <ele>24</ele>
        <time>2020-06-15T17:42:45Z</time>
      </trkpt>
      <trkpt lat="49.40159" lon="-1.31279">
        <ele>24.1</ele>
        <time>2020-06-15T17:42:46Z</time>
      </trkpt>
      <trkpt lat="49.4016" lon="-1.31271">
        <ele>24.2</ele>
        <time>2020-06-15T17:42:47Z</time>
      </trkpt>
      <trkpt lat="49.40162" lon="-1.31263">
        <ele>24.2</ele>
        <time>2020-06-15T17:42:48Z</time>
      </trkpt>
      <trkpt lat="49.40163" lon="-1.31257">
        <ele>24.3</ele>
        <time>2020-06-15T17:42:49Z</time>
      </trkpt>
      <trkpt lat="49.40164" lon="-1.31251">
        <ele>24.3</ele>
        <time>2020-06-15T17:42:50Z</time>
      </trkpt>
      <trkpt lat="49.40164" lon="-1.31244">
        <ele>24.3</ele>
        <time>2020-06-15T17:42:51Z</time>
      </trkpt>
      <trkpt lat="49.40162" lon="-1.31239">
        <ele>24.2</ele>
        <time>2020-06-15T17:42:52Z</time>
      </trkpt>
      <trkpt lat="49.40159" lon="-1.31233">
        <ele>24.2</ele>
        <time>2020-06-15T17:42:53Z</time>
      </trkpt>
      <trkpt lat="49.40155" lon="-1.31228">
        <ele>24.1</ele>
        <time>2020-06-15T17:42:54Z</time>
      </trkpt>
      <trkpt lat="49.4015" lon="-1.31225">
        <ele>24</ele>
        <time>2020-06-15T17:42:55Z</time>
      </trkpt>
      <trkpt lat="49.40146" lon="-1.31221">
        <ele>24</ele>
        <time>2020-06-15T17:42:56Z</time>
      </trkpt>
      <trkpt lat="49.4014" lon="-1.31219">
        <ele>24</ele>
        <time>2020-06-15T17:42:57Z</time>
      </trkpt>
      <trkpt lat="49.40136" lon="-1.31216">
        <ele>23.9</ele>
        <time>2020-06-15T17:42:58Z</time>
      </trkpt>
      <trkpt lat="49.40131" lon="-1.31213">
        <ele>23.9</ele>
        <time>2020-06-15T17:42:59Z</time>
      </trkpt>
      <trkpt lat="49.40126" lon="-1.31209">
        <ele>23.8</ele>
        <time>2020-06-15T17:43:00Z</time>
      </trkpt>
      <trkpt lat="49.40121" lon="-1.31206">
        <ele>23.8</ele>
        <time>2020-06-15T17:43:01Z</time>
      </trkpt>
      <trkpt lat="49.40117" lon="-1.31203">
        <ele>23.8</ele>
        <time>2020-06-15T17:43:02Z</time>
      </trkpt>
      <trkpt lat="49.40113" lon="-1.31199">
        <ele>23.8</ele>
        <time>2020-06-15T17:43:03Z</time>
      </trkpt>
      <trkpt lat="49.40109" lon="-1.31195">
        <ele>23.7</ele>
        <time>2020-06-15T17:43:04Z</time>
      </trkpt>
      <trkpt lat="49.40105" lon="-1.31192">
        <ele>23.7</ele>
        <time>2020-06-15T17:43:05Z</time>
      </trkpt>
      <trkpt lat="49.40101" lon="-1.31188">
        <ele>23.7</ele>
        <time>2020-06-15T17:43:06Z</time>
      </trkpt>
      <trkpt lat="49.40097" lon="-1.31184">
        <ele>23.7</ele>
        <time>2020-06-15T17:43:07Z</time>
      </trkpt>
      <trkpt lat="49.40092" lon="-1.3118">
        <ele>23.7</ele>
        <time>2020-06-15T17:43:08Z</time>
      </trkpt>
      <trkpt lat="49.40088" lon="-1.31178">
        <ele>23.7</ele>
        <time>2020-06-15T17:43:09Z</time>
      </trkpt>
      <trkpt lat="49.40082" lon="-1.31175">
        <ele>23.7</ele>
        <time>2020-06-15T17:43:10Z</time>
      </trkpt>
      <trkpt lat="49.40078" lon="-1.31172">
        <ele>23.7</ele>
        <time>2020-06-15T17:43:11Z</time>
      </trkpt>
      <trkpt lat="49.40074" lon="-1.31169">
        <ele>23.7</ele>
        <time>2020-06-15T17:43:12Z</time>
      </trkpt>
      <trkpt lat="49.40069" lon="-1.31165">
        <ele>23.7</ele>
        <time>2020-06-15T17:43:13Z</time>
      </trkpt>
      <trkpt lat="49.40064" lon="-1.31163">
        <ele>23.6</ele>
        <time>2020-06-15T17:43:14Z</time>
      </trkpt>
      <trkpt lat="49.40059" lon="-1.3116">
        <ele>23.6</ele>
        <time>2020-06-15T17:43:15Z</time>
      </trkpt>
      <trkpt lat="49.40056" lon="-1.31155">
        <ele>23.6</ele>
        <time>2020-06-15T17:43:16Z</time>
      </trkpt>
      <trkpt lat="49.40051" lon="-1.31151">
        <ele>23.5</ele>
        <time>2020-06-15T17:43:17Z</time>
      </trkpt>
      <trkpt lat="49.40047" lon="-1.31148">
        <ele>23.5</ele>
        <time>2020-06-15T17:43:18Z</time>
      </trkpt>
      <trkpt lat="49.40042" lon="-1.31144">
        <ele>23.4</ele>
        <time>2020-06-15T17:43:19Z</time>
      </trkpt>
      <trkpt lat="49.40037" lon="-1.31141">
        <ele>23.3</ele>
        <time>2020-06-15T17:43:20Z</time>
      </trkpt>
      <trkpt lat="49.40033" lon="-1.31138">
        <ele>23.3</ele>
        <time>2020-06-15T17:43:21Z</time>
      </trkpt>
      <trkpt lat="49.40028" lon="-1.31135">
        <ele>23.2</ele>
        <time>2020-06-15T17:43:22Z</time>
      </trkpt>
      <trkpt lat="49.40024" lon="-1.31131">
        <ele>23.1</ele>
        <time>2020-06-15T17:43:23Z</time>
      </trkpt>
      <trkpt lat="49.40019" lon="-1.31127">
        <ele>23</ele>
        <time>2020-06-15T17:43:24Z</time>
      </trkpt>
      <trkpt lat="49.40014" lon="-1.31122">
        <ele>22.8</ele>
        <time>2020-06-15T17:43:25Z</time>
      </trkpt>
      <trkpt lat="49.4001" lon="-1.31118">
        <ele>22.7</ele>
        <time>2020-06-15T17:43:26Z</time>
      </trkpt>
      <trkpt lat="49.40004" lon="-1.31112">
        <ele>22.6</ele>
        <time>2020-06-15T17:43:27Z</time>
      </trkpt>
      <trkpt lat="49.39999" lon="-1.31107">
        <ele>22.4</ele>
        <time>2020-06-15T17:43:28Z</time>
      </trkpt>
      <trkpt lat="49.39992" lon="-1.31101">
        <ele>22.2</ele>
        <time>2020-06-15T17:43:29Z</time>
      </trkpt>
      <trkpt lat="49.39987" lon="-1.31096">
        <ele>22</ele>
        <time>2020-06-15T17:43:30Z</time>
      </trkpt>
      <trkpt lat="49.39981" lon="-1.31092">
        <ele>21.9</ele>
        <time>2020-06-15T17:43:31Z</time>
      </trkpt>
      <trkpt lat="49.39975" lon="-1.31087">
        <ele>21.7</ele>
        <time>2020-06-15T17:43:32Z</time>
      </trkpt>
      <trkpt lat="49.39968" lon="-1.31082">
        <ele>21.6</ele>
        <time>2020-06-15T17:43:33Z</time>
      </trkpt>
      <trkpt lat="49.39962" lon="-1.31077">
        <ele>21.4</ele>
        <time>2020-06-15T17:43:34Z</time>
      </trkpt>
      <trkpt lat="49.39956" lon="-1.31073">
        <ele>21.2</ele>
        <time>2020-06-15T17:43:35Z</time>
      </trkpt>
      <trkpt lat="49.3995" lon="-1.31067">
        <ele>21.1</ele>
        <time>2020-06-15T17:43:36Z</time>
      </trkpt>
      <trkpt lat="49.39944" lon="-1.31062">
        <ele>20.9</ele>
        <time>2020-06-15T17:43:37Z</time>
      </trkpt>
      <trkpt lat="49.39939" lon="-1.31057">
        <ele>20.8</ele>
        <time>2020-06-15T17:43:38Z</time>
      </trkpt>
      <trkpt lat="49.39933" lon="-1.31052">
        <ele>20.6</ele>
        <time>2020-06-15T17:43:39Z</time>
      </trkpt>
      <trkpt lat="49.39926" lon="-1.31046">
        <ele>20.5</ele>
        <time>2020-06-15T17:43:40Z</time>
      </trkpt>
      <trkpt lat="49.3992" lon="-1.31041">
        <ele>20.4</ele>
        <time>2020-06-15T17:43:41Z</time>
      </trkpt>
      <trkpt lat="49.39913" lon="-1.31035">
        <ele>20.4</ele>
        <time>2020-06-15T17:43:42Z</time>
      </trkpt>
      <trkpt lat="49.39906" lon="-1.31029">
        <ele>20.6</ele>
        <time>2020-06-15T17:43:43Z</time>
      </trkpt>
      <trkpt lat="49.399" lon="-1.31023">
        <ele>20.8</ele>
        <time>2020-06-15T17:43:44Z</time>
      </trkpt>
      <trkpt lat="49.39893" lon="-1.31018">
        <ele>20.9</ele>
        <time>2020-06-15T17:43:45Z</time>
      </trkpt>
      <trkpt lat="49.39888" lon="-1.31014">
        <ele>21</ele>
        <time>2020-06-15T17:43:46Z</time>
      </trkpt>
      <trkpt lat="49.39882" lon="-1.31011">
        <ele>21</ele>
        <time>2020-06-15T17:43:47Z</time>
      </trkpt>
      <trkpt lat="49.39877" lon="-1.31007">
        <ele>21.1</ele>
        <time>2020-06-15T17:43:48Z</time>
      </trkpt>
      <trkpt lat="49.39872" lon="-1.31003">
        <ele>21.2</ele>
        <time>2020-06-15T17:43:49Z</time>
      </trkpt>
      <trkpt lat="49.39867" lon="-1.30999">
        <ele>21.2</ele>
        <time>2020-06-15T17:43:50Z</time>
      </trkpt>
      <trkpt lat="49.39863" lon="-1.30995">
        <ele>21.3</ele>
        <time>2020-06-15T17:43:51Z</time>
      </trkpt>
      <trkpt lat="49.39859" lon="-1.30991">
        <ele>21.4</ele>
        <time>2020-06-15T17:43:52Z</time>
      </trkpt>
      <trkpt lat="49.39854" lon="-1.30988">
        <ele>21.5</ele>
        <time>2020-06-15T17:43:53Z</time>
      </trkpt>
      <trkpt lat="49.39849" lon="-1.30985">
        <ele>21.6</ele>
        <time>2020-06-15T17:43:54Z</time>
      </trkpt>
      <trkpt lat="49.39844" lon="-1.30982">
        <ele>21.8</ele>
        <time>2020-06-15T17:43:55Z</time>
      </trkpt>
      <trkpt lat="49.3984" lon="-1.30978">
        <ele>21.9</ele>
        <time>2020-06-15T17:43:56Z</time>
      </trkpt>
      <trkpt lat="49.39836" lon="-1.30975">
        <ele>22</ele>
        <time>2020-06-15T17:43:57Z</time>
      </trkpt>
      <trkpt lat="49.39832" lon="-1.30971">
        <ele>22.2</ele>
        <time>2020-06-15T17:43:58Z</time>
      </trkpt>
      <trkpt lat="49.39828" lon="-1.30968">
        <ele>22.3</ele>
        <time>2020-06-15T17:43:59Z</time>
      </trkpt>
      <trkpt lat="49.39824" lon="-1.30964">
        <ele>22.4</ele>
        <time>2020-06-15T17:44:00Z</time>
      </trkpt>
      <trkpt lat="49.3982" lon="-1.30962">
        <ele>22.6</ele>
        <time>2020-06-15T17:44:01Z</time>
      </trkpt>
      <trkpt lat="49.39816" lon="-1.3096">
        <ele>22.7</ele>
        <time>2020-06-15T17:44:02Z</time>
      </trkpt>
      <trkpt lat="49.39812" lon="-1.30957">
        <ele>22.8</ele>
        <time>2020-06-15T17:44:03Z</time>
      </trkpt>
      <trkpt lat="49.39809" lon="-1.30954">
        <ele>23</ele>
        <time>2020-06-15T17:44:04Z</time>
      </trkpt>
      <trkpt lat="49.39805" lon="-1.30952">
        <ele>23.1</ele>
        <time>2020-06-15T17:44:05Z</time>
      </trkpt>
      <trkpt lat="49.39801" lon="-1.3095">
        <ele>23.2</ele>
        <time>2020-06-15T17:44:06Z</time>
      </trkpt>
      <trkpt lat="49.39797" lon="-1.30948">
        <ele>23.3</ele>
        <time>2020-06-15T17:44:07Z</time>
      </trkpt>
      <trkpt lat="49.39794" lon="-1.30946">
        <ele>23.5</ele>
        <time>2020-06-15T17:44:08Z</time>
      </trkpt>
      <trkpt lat="49.3979" lon="-1.30943">
        <ele>23.6</ele>
        <time>2020-06-15T17:44:09Z</time>
      </trkpt>
      <trkpt lat="49.39786" lon="-1.3094">
        <ele>23.8</ele>
        <time>2020-06-15T17:44:10Z</time>
      </trkpt>
      <trkpt lat="49.39782" lon="-1.30937">
        <ele>23.9</ele>
        <time>2020-06-15T17:44:11Z</time>
      </trkpt>
      <trkpt lat="49.39778" lon="-1.30935">
        <ele>24.1</ele>
        <time>2020-06-15T17:44:12Z</time>
      </trkpt>
      <trkpt lat="49.39774" lon="-1.30932">
        <ele>24.2</ele>
        <time>2020-06-15T17:44:13Z</time>
      </trkpt>
      <trkpt lat="49.3977" lon="-1.3093">
        <ele>24.4</ele>
        <time>2020-06-15T17:44:14Z</time>
      </trkpt>
      <trkpt lat="49.39766" lon="-1.30927">
        <ele>24.6</ele>
        <time>2020-06-15T17:44:15Z</time>
      </trkpt>
      <trkpt lat="49.39762" lon="-1.30924">
        <ele>24.8</ele>
        <time>2020-06-15T17:44:16Z</time>
      </trkpt>
      <trkpt lat="49.39759" lon="-1.30921">
        <ele>24.9</ele>
        <time>2020-06-15T17:44:17Z</time>
      </trkpt>
      <trkpt lat="49.39756" lon="-1.30919">
        <ele>25.1</ele>
        <time>2020-06-15T17:44:18Z</time>
      </trkpt>
      <trkpt lat="49.39752" lon="-1.30915">
        <ele>25.3</ele>
        <time>2020-06-15T17:44:19Z</time>
      </trkpt>
      <trkpt lat="49.39748" lon="-1.30913">
        <ele>25.5</ele>
        <time>2020-06-15T17:44:20Z</time>
      </trkpt>
      <trkpt lat="49.39745" lon="-1.3091">
        <ele>25.7</ele>
        <time>2020-06-15T17:44:21Z</time>
      </trkpt>
      <trkpt lat="49.39742" lon="-1.30908">
        <ele>25.8</ele>
        <time>2020-06-15T17:44:22Z</time>
      </trkpt>
      <trkpt lat="49.39739" lon="-1.30906">
        <ele>25.9</ele>
        <time>2020-06-15T17:44:23Z</time>
      </trkpt>
      <trkpt lat="49.39736" lon="-1.30904">
        <ele>26.1</ele>
        <time>2020-06-15T17:44:24Z</time>
      </trkpt>
      <trkpt lat="49.39734" lon="-1.30901">
        <ele>26.2</ele>
        <time>2020-06-15T17:44:25Z</time>
      </trkpt>
      <trkpt lat="49.3973" lon="-1.30897">
        <ele>26.4</ele>
        <time>2020-06-15T17:44:26Z</time>
      </trkpt>
      <trkpt lat="49.39726" lon="-1.30894">
        <ele>26.6</ele>
        <time>2020-06-15T17:44:27Z</time>
      </trkpt>
      <trkpt lat="49.39722" lon="-1.30892">
        <ele>26.7</ele>
        <time>2020-06-15T17:44:28Z</time>
      </trkpt>
      <trkpt lat="49.39718" lon="-1.30889">
        <ele>26.9</ele>
        <time>2020-06-15T17:44:29Z</time>
      </trkpt>
      <trkpt lat="49.39715" lon="-1.30887">
        <ele>27</ele>
        <time>2020-06-15T17:44:30Z</time>
      </trkpt>
      <trkpt lat="49.39711" lon="-1.30884">
        <ele>27.1</ele>
        <time>2020-06-15T17:44:31Z</time>
      </trkpt>
      <trkpt lat="49.39707" lon="-1.30881">
        <ele>27.3</ele>
        <time>2020-06-15T17:44:32Z</time>
      </trkpt>
      <trkpt lat="49.39704" lon="-1.30877">
        <ele>27.4</ele>
        <time>2020-06-15T17:44:33Z</time>
      </trkpt>
      <trkpt lat="49.397" lon="-1.30874">
        <ele>27.6</ele>
        <time>2020-06-15T17:44:34Z</time>
      </trkpt>
      <trkpt lat="49.39697" lon="-1.30871">
        <ele>27.8</ele>
        <time>2020-06-15T17:44:35Z</time>
      </trkpt>
      <trkpt lat="49.39695" lon="-1.30868">
        <ele>27.9</ele>
        <time>2020-06-15T17:44:36Z</time>
      </trkpt>
      <trkpt lat="49.39691" lon="-1.30866">
        <ele>28</ele>
        <time>2020-06-15T17:44:37Z</time>
      </trkpt>
      <trkpt lat="49.39687" lon="-1.30863">
        <ele>28.2</ele>
        <time>2020-06-15T17:44:38Z</time>
      </trkpt>
      <trkpt lat="49.39683" lon="-1.3086">
        <ele>28.4</ele>
        <time>2020-06-15T17:44:39Z</time>
      </trkpt>
      <trkpt lat="49.3968" lon="-1.30857">
        <ele>28.5</ele>
        <time>2020-06-15T17:44:40Z</time>
      </trkpt>
      <trkpt lat="49.39677" lon="-1.30855">
        <ele>28.6</ele>
        <time>2020-06-15T17:44:41Z</time>
      </trkpt>
      <trkpt lat="49.39673" lon="-1.30852">
        <ele>28.8</ele>
        <time>2020-06-15T17:44:42Z</time>
      </trkpt>
      <trkpt lat="49.39669" lon="-1.3085">
        <ele>28.9</ele>
        <time>2020-06-15T17:44:43Z</time>
      </trkpt>
      <trkpt lat="49.39666" lon="-1.30846">
        <ele>29.1</ele>
        <time>2020-06-15T17:44:44Z</time>
      </trkpt>
      <trkpt lat="49.39662" lon="-1.30843">
        <ele>29.2</ele>
        <time>2020-06-15T17:44:45Z</time>
      </trkpt>
      <trkpt lat="49.39659" lon="-1.30841">
        <ele>29.3</ele>
        <time>2020-06-15T17:44:46Z</time>
      </trkpt>
      <trkpt lat="49.39656" lon="-1.30837">
        <ele>29.4</ele>
        <time>2020-06-15T17:44:47Z</time>
      </trkpt>
      <trkpt lat="49.39653" lon="-1.30835">
        <ele>29.5</ele>
        <time>2020-06-15T17:44:48Z</time>
      </trkpt>
      <trkpt lat="49.3965" lon="-1.30833">
        <ele>29.6</ele>
        <time>2020-06-15T17:44:49Z</time>
      </trkpt>
      <trkpt lat="49.39646" lon="-1.30831">
        <ele>29.7</ele>
        <time>2020-06-15T17:44:50Z</time>
      </trkpt>
      <trkpt lat="49.39643" lon="-1.30829">
        <ele>29.8</ele>
        <time>2020-06-15T17:44:51Z</time>
      </trkpt>
      <trkpt lat="49.39639" lon="-1.30827">
        <ele>29.9</ele>
        <time>2020-06-15T17:44:52Z</time>
      </trkpt>
      <trkpt lat="49.39636" lon="-1.30824">
        <ele>30</ele>
        <time>2020-06-15T17:44:53Z</time>
      </trkpt>
      <trkpt lat="49.39633" lon="-1.30822">
        <ele>30.1</ele>
        <time>2020-06-15T17:44:54Z</time>
      </trkpt>
      <trkpt lat="49.39629" lon="-1.30819">
        <ele>30.2</ele>
        <time>2020-06-15T17:44:55Z</time>
      </trkpt>
      <trkpt lat="49.39625" lon="-1.30816">
        <ele>30.3</ele>
        <time>2020-06-15T17:44:56Z</time>
      </trkpt>
      <trkpt lat="49.39621" lon="-1.30814">
        <ele>30.4</ele>
        <time>2020-06-15T17:44:57Z</time>
      </trkpt>
      <trkpt lat="49.39618" lon="-1.30811">
        <ele>30.5</ele>
        <time>2020-06-15T17:44:58Z</time>
      </trkpt>
      <trkpt lat="49.39614" lon="-1.30808">
        <ele>30.5</ele>
        <time>2020-06-15T17:44:59Z</time>
      </trkpt>
      <trkpt lat="49.3961" lon="-1.30805">
        <ele>30.6</ele>
        <time>2020-06-15T17:45:00Z</time>
      </trkpt>
      <trkpt lat="49.39607" lon="-1.30802">
        <ele>30.7</ele>
        <time>2020-06-15T17:45:01Z</time>
      </trkpt>
      <trkpt lat="49.39604" lon="-1.308">
        <ele>30.7</ele>
        <time>2020-06-15T17:45:02Z</time>
      </trkpt>
      <trkpt lat="49.39601" lon="-1.30797">
        <ele>30.8</ele>
        <time>2020-06-15T17:45:03Z</time>
      </trkpt>
      <trkpt lat="49.39598" lon="-1.30794">
        <ele>30.8</ele>
        <time>2020-06-15T17:45:04Z</time>
      </trkpt>
      <trkpt lat="49.39595" lon="-1.30791">
        <ele>30.8</ele>
        <time>2020-06-15T17:45:05Z</time>
      </trkpt>
      <trkpt lat="49.39592" lon="-1.3079">
        <ele>30.8</ele>
        <time>2020-06-15T17:45:06Z</time>
      </trkpt>
      <trkpt lat="49.39589" lon="-1.30788">
        <ele>30.8</ele>
        <time>2020-06-15T17:45:07Z</time>
      </trkpt>
      <trkpt lat="49.39587" lon="-1.30785">
        <ele>30.8</ele>
        <time>2020-06-15T17:45:08Z</time>
      </trkpt>
      <trkpt lat="49.39584" lon="-1.30782">
        <ele>30.8</ele>
        <time>2020-06-15T17:45:09Z</time>
      </trkpt>
      <trkpt lat="49.39583" lon="-1.3078">
        <ele>30.8</ele>
        <time>2020-06-15T17:45:10Z</time>
      </trkpt>
      <trkpt lat="49.3958" lon="-1.30777">
        <ele>30.8</ele>
        <time>2020-06-15T17:45:11Z</time>
      </trkpt>
      <trkpt lat="49.39577" lon="-1.30773">
        <ele>30.8</ele>
        <time>2020-06-15T17:45:12Z</time>
      </trkpt>
      <trkpt lat="49.39574" lon="-1.30767">
        <ele>30.8</ele>
        <time>2020-06-15T17:45:13Z</time>
      </trkpt>
      <trkpt lat="49.39572" lon="-1.30763">
        <ele>30.8</ele>
        <time>2020-06-15T17:45:14Z</time>
      </trkpt>
      <trkpt lat="49.3957" lon="-1.30759">
        <ele>30.8</ele>
        <time>2020-06-15T17:45:15Z</time>
      </trkpt>
      <trkpt lat="49.39568" lon="-1.30755">
        <ele>30.8</ele>
        <time>2020-06-15T17:45:16Z</time>
      </trkpt>
      <trkpt lat="49.39567" lon="-1.30754">
        <ele>30.8</ele>
        <time>2020-06-15T17:45:17Z</time>
      </trkpt>
      <trkpt lat="49.39564" lon="-1.30752">
        <ele>30.8</ele>
        <time>2020-06-15T17:45:18Z</time>
      </trkpt>
      <trkpt lat="49.39564" lon="-1.30752">
        <ele>30.8</ele>
        <time>2020-06-15T17:45:19Z</time>
      </trkpt>
      <trkpt lat="49.39562" lon="-1.3075">
        <ele>30.8</ele>
        <time>2020-06-15T17:45:20Z</time>
      </trkpt>
      <trkpt lat="49.39562" lon="-1.3075">
        <ele>30.8</ele>
        <time>2020-06-15T17:45:21Z</time>
      </trkpt>
      <trkpt lat="49.39561" lon="-1.3075">
        <ele>30.8</ele>
        <time>2020-06-15T17:45:22Z</time>
      </trkpt>
      <trkpt lat="49.39562" lon="-1.30747">
        <ele>30.8</ele>
        <time>2020-06-15T17:45:23Z</time>
      </trkpt>
      <trkpt lat="49.39563" lon="-1.30746">
        <ele>30.8</ele>
        <time>2020-06-15T17:45:24Z</time>
      </trkpt>
      <trkpt lat="49.39564" lon="-1.30745">
        <ele>30.8</ele>
        <time>2020-06-15T17:45:25Z</time>
      </trkpt>
      <trkpt lat="49.39567" lon="-1.30746">
        <ele>30.7</ele>
        <time>2020-06-15T17:45:26Z</time>
      </trkpt>
      <trkpt lat="49.39568" lon="-1.30747">
        <ele>30.7</ele>
        <time>2020-06-15T17:45:27Z</time>
      </trkpt>
      <trkpt lat="49.3957" lon="-1.30749">
        <ele>30.7</ele>
        <time>2020-06-15T17:45:28Z</time>
      </trkpt>
      <trkpt lat="49.39571" lon="-1.3075">
        <ele>30.7</ele>
        <time>2020-06-15T17:45:29Z</time>
      </trkpt>
      <trkpt lat="49.39573" lon="-1.30754">
        <ele>30.7</ele>
        <time>2020-06-15T17:45:30Z</time>
      </trkpt>
      <trkpt lat="49.39574" lon="-1.30755">
        <ele>30.7</ele>
        <time>2020-06-15T17:45:31Z</time>
      </trkpt>
      <trkpt lat="49.39576" lon="-1.30759">
        <ele>30.7</ele>
        <time>2020-06-15T17:45:32Z</time>
      </trkpt>
      <trkpt lat="49.39579" lon="-1.30763">
        <ele>30.8</ele>
        <time>2020-06-15T17:45:33Z</time>
      </trkpt>
      <trkpt lat="49.39582" lon="-1.30766">
        <ele>30.8</ele>
        <time>2020-06-15T17:45:34Z</time>
      </trkpt>
      <trkpt lat="49.39584" lon="-1.30768">
        <ele>30.8</ele>
        <time>2020-06-15T17:45:35Z</time>
      </trkpt>
      <trkpt lat="49.39587" lon="-1.30772">
        <ele>30.8</ele>
        <time>2020-06-15T17:45:36Z</time>
      </trkpt>
      <trkpt lat="49.3959" lon="-1.30775">
        <ele>30.8</ele>
        <time>2020-06-15T17:45:37Z</time>
      </trkpt>
      <trkpt lat="49.39592" lon="-1.30779">
        <ele>30.8</ele>
        <time>2020-06-15T17:45:38Z</time>
      </trkpt>
      <trkpt lat="49.39594" lon="-1.30784">
        <ele>30.8</ele>
        <time>2020-06-15T17:45:39Z</time>
      </trkpt>
      <trkpt lat="49.39597" lon="-1.30788">
        <ele>30.8</ele>
        <time>2020-06-15T17:45:40Z</time>
      </trkpt>
      <trkpt lat="49.396" lon="-1.30791">
        <ele>30.8</ele>
        <time>2020-06-15T17:45:41Z</time>
      </trkpt>
      <trkpt lat="49.39603" lon="-1.30795">
        <ele>30.8</ele>
        <time>2020-06-15T17:45:42Z</time>
      </trkpt>
      <trkpt lat="49.39606" lon="-1.30799">
        <ele>30.7</ele>
        <time>2020-06-15T17:45:43Z</time>
      </trkpt>
      <trkpt lat="49.39609" lon="-1.30802">
        <ele>30.7</ele>
        <time>2020-06-15T17:45:44Z</time>
      </trkpt>
      <trkpt lat="49.39613" lon="-1.30806">
        <ele>30.6</ele>
        <time>2020-06-15T17:45:45Z</time>
      </trkpt>
      <trkpt lat="49.39617" lon="-1.30808">
        <ele>30.5</ele>
        <time>2020-06-15T17:45:46Z</time>
      </trkpt>
      <trkpt lat="49.39622" lon="-1.3081">
        <ele>30.4</ele>
        <time>2020-06-15T17:45:47Z</time>
      </trkpt>
      <trkpt lat="49.39626" lon="-1.30812">
        <ele>30.3</ele>
        <time>2020-06-15T17:45:48Z</time>
      </trkpt>
      <trkpt lat="49.39631" lon="-1.30815">
        <ele>30.2</ele>
        <time>2020-06-15T17:45:49Z</time>
      </trkpt>
      <trkpt lat="49.39636" lon="-1.30818">
        <ele>30.1</ele>
        <time>2020-06-15T17:45:50Z</time>
      </trkpt>
      <trkpt lat="49.3964" lon="-1.30821">
        <ele>30</ele>
        <time>2020-06-15T17:45:51Z</time>
      </trkpt>
      <trkpt lat="49.39644" lon="-1.30824">
        <ele>29.9</ele>
        <time>2020-06-15T17:45:52Z</time>
      </trkpt>
      <trkpt lat="49.39646" lon="-1.30829">
        <ele>29.8</ele>
        <time>2020-06-15T17:45:53Z</time>
      </trkpt>
      <trkpt lat="49.39647" lon="-1.30833">
        <ele>29.8</ele>
        <time>2020-06-15T17:45:54Z</time>
      </trkpt>
      <trkpt lat="49.39647" lon="-1.30838">
        <ele>29.8</ele>
        <time>2020-06-15T17:45:55Z</time>
      </trkpt>
      <trkpt lat="49.39647" lon="-1.30841">
        <ele>29.8</ele>
        <time>2020-06-15T17:45:56Z</time>
      </trkpt>
      <trkpt lat="49.39647" lon="-1.30843">
        <ele>29.9</ele>
        <time>2020-06-15T17:45:57Z</time>
      </trkpt>
      <trkpt lat="49.39646" lon="-1.30844">
        <ele>29.9</ele>
        <time>2020-06-15T17:45:58Z</time>
      </trkpt>
      <trkpt lat="49.39646" lon="-1.30846">
        <ele>29.9</ele>
        <time>2020-06-15T17:45:59Z</time>
      </trkpt>
      <trkpt lat="49.39646" lon="-1.30846">
        <ele>29.9</ele>
        <time>2020-06-15T17:46:00Z</time>
      </trkpt>
      <trkpt lat="49.39646" lon="-1.30846">
        <ele>29.9</ele>
        <time>2020-06-15T17:46:01Z</time>
      </trkpt>
      <trkpt lat="49.39644" lon="-1.30846">
        <ele>29.9</ele>
        <time>2020-06-15T17:46:02Z</time>
      </trkpt>
      <trkpt lat="49.39641" lon="-1.30847">
        <ele>29.9</ele>
        <time>2020-06-15T17:46:03Z</time>
      </trkpt>
      <trkpt lat="49.39639" lon="-1.30847">
        <ele>30</ele>
        <time>2020-06-15T17:46:04Z</time>
      </trkpt>
      <trkpt lat="49.39636" lon="-1.30847">
        <ele>30</ele>
        <time>2020-06-15T17:46:05Z</time>
      </trkpt>
      <trkpt lat="49.39635" lon="-1.30847">
        <ele>30</ele>
        <time>2020-06-15T17:46:06Z</time>
      </trkpt>
      <trkpt lat="49.39632" lon="-1.30848">
        <ele>30</ele>
        <time>2020-06-15T17:46:07Z</time>
      </trkpt>
      <trkpt lat="49.39631" lon="-1.30848">
        <ele>30</ele>
        <time>2020-06-15T17:46:08Z</time>
      </trkpt>
      <trkpt lat="49.39629" lon="-1.30848">
        <ele>30.1</ele>
        <time>2020-06-15T17:46:09Z</time>
      </trkpt>
      <trkpt lat="49.39627" lon="-1.30848">
        <ele>30.1</ele>
        <time>2020-06-15T17:46:10Z</time>
      </trkpt>
      <trkpt lat="49.39625" lon="-1.3085">
        <ele>30.1</ele>
        <time>2020-06-15T17:46:11Z</time>
      </trkpt>
      <trkpt lat="49.39624" lon="-1.30851">
        <ele>30.1</ele>
        <time>2020-06-15T17:46:12Z</time>
      </trkpt>
      <trkpt lat="49.39622" lon="-1.30852">
        <ele>30.1</ele>
        <time>2020-06-15T17:46:13Z</time>
      </trkpt>
      <trkpt lat="49.39621" lon="-1.30852">
        <ele>30.2</ele>
        <time>2020-06-15T17:46:14Z</time>
      </trkpt>
      <trkpt lat="49.39619" lon="-1.30852">
        <ele>30.2</ele>
        <time>2020-06-15T17:46:15Z</time>
      </trkpt>
      <trkpt lat="49.39618" lon="-1.30852">
        <ele>30.2</ele>
        <time>2020-06-15T17:46:16Z</time>
      </trkpt>
      <trkpt lat="49.39616" lon="-1.30852">
        <ele>30.2</ele>
        <time>2020-06-15T17:46:17Z</time>
      </trkpt>
      <trkpt lat="49.39615" lon="-1.30852">
        <ele>30.2</ele>
        <time>2020-06-15T17:46:18Z</time>
      </trkpt>
      <trkpt lat="49.39613" lon="-1.30852">
        <ele>30.2</ele>
        <time>2020-06-15T17:46:19Z</time>
      </trkpt>
      <trkpt lat="49.39611" lon="-1.30852">
        <ele>30.2</ele>
        <time>2020-06-15T17:46:20Z</time>
      </trkpt>
      <trkpt lat="49.3961" lon="-1.30852">
        <ele>30.2</ele>
        <time>2020-06-15T17:46:21Z</time>
      </trkpt>
      <trkpt lat="49.39608" lon="-1.30853">
        <ele>30.3</ele>
        <time>2020-06-15T17:46:22Z</time>
      </trkpt>
      <trkpt lat="49.39607" lon="-1.30853">
        <ele>30.3</ele>
        <time>2020-06-15T17:46:23Z</time>
      </trkpt>
      <trkpt lat="49.39605" lon="-1.30854">
        <ele>30.3</ele>
        <time>2020-06-15T17:46:24Z</time>
      </trkpt>
      <trkpt lat="49.39603" lon="-1.30854">
        <ele>30.3</ele>
        <time>2020-06-15T17:46:25Z</time>
      </trkpt>
      <trkpt lat="49.39602" lon="-1.30855">
        <ele>30.3</ele>
        <time>2020-06-15T17:46:26Z</time>
      </trkpt>
      <trkpt lat="49.396" lon="-1.30855">
        <ele>30.3</ele>
        <time>2020-06-15T17:46:27Z</time>
      </trkpt>
      <trkpt lat="49.396" lon="-1.30854">
        <ele>30.3</ele>
        <time>2020-06-15T17:46:28Z</time>
      </trkpt>
      <trkpt lat="49.39598" lon="-1.30854">
        <ele>30.3</ele>
        <time>2020-06-15T17:46:29Z</time>
      </trkpt>
      <trkpt lat="49.39597" lon="-1.30854">
        <ele>30.3</ele>
        <time>2020-06-15T17:46:30Z</time>
      </trkpt>
      <trkpt lat="49.39596" lon="-1.30854">
        <ele>30.4</ele>
        <time>2020-06-15T17:46:31Z</time>
      </trkpt>
      <trkpt lat="49.39594" lon="-1.30853">
        <ele>30.4</ele>
        <time>2020-06-15T17:46:32Z</time>
      </trkpt>
      <trkpt lat="49.39593" lon="-1.30853">
        <ele>30.4</ele>
        <time>2020-06-15T17:46:33Z</time>
      </trkpt>
      <trkpt lat="49.39592" lon="-1.30853">
        <ele>30.4</ele>
        <time>2020-06-15T17:46:34Z</time>
      </trkpt>
      <trkpt lat="49.39591" lon="-1.30853">
        <ele>30.4</ele>
        <time>2020-06-15T17:46:35Z</time>
      </trkpt>
      <trkpt lat="49.3959" lon="-1.30852">
        <ele>30.4</ele>
        <time>2020-06-15T17:46:36Z</time>
      </trkpt>
      <trkpt lat="49.39589" lon="-1.30851">
        <ele>30.4</ele>
        <time>2020-06-15T17:46:37Z</time>
      </trkpt>
      <trkpt lat="49.39589" lon="-1.3085">
        <ele>30.4</ele>
        <time>2020-06-15T17:46:38Z</time>
      </trkpt>
      <trkpt lat="49.39588" lon="-1.30849">
        <ele>30.4</ele>
        <time>2020-06-15T17:46:39Z</time>
      </trkpt>
      <trkpt lat="49.39587" lon="-1.30848">
        <ele>30.4</ele>
        <time>2020-06-15T17:46:40Z</time>
      </trkpt>
      <trkpt lat="49.39587" lon="-1.30846">
        <ele>30.4</ele>
        <time>2020-06-15T17:46:41Z</time>
      </trkpt>
      <trkpt lat="49.39586" lon="-1.30844">
        <ele>30.4</ele>
        <time>2020-06-15T17:46:42Z</time>
      </trkpt>
      <trkpt lat="49.39586" lon="-1.30842">
        <ele>30.4</ele>
        <time>2020-06-15T17:46:43Z</time>
      </trkpt>
      <trkpt lat="49.39586" lon="-1.30841">
        <ele>30.5</ele>
        <time>2020-06-15T17:46:44Z</time>
      </trkpt>
      <trkpt lat="49.39585" lon="-1.3084">
        <ele>30.5</ele>
        <time>2020-06-15T17:46:45Z</time>
      </trkpt>
      <trkpt lat="49.39585" lon="-1.30839">
        <ele>30.5</ele>
        <time>2020-06-15T17:46:46Z</time>
      </trkpt>
      <trkpt lat="49.39585" lon="-1.30838">
        <ele>30.5</ele>
        <time>2020-06-15T17:46:47Z</time>
      </trkpt>
      <trkpt lat="49.39585" lon="-1.30837">
        <ele>30.5</ele>
        <time>2020-06-15T17:46:48Z</time>
      </trkpt>
      <trkpt lat="49.39584" lon="-1.30836">
        <ele>30.5</ele>
        <time>2020-06-15T17:46:49Z</time>
      </trkpt>
      <trkpt lat="49.39584" lon="-1.30836">
        <ele>30.5</ele>
        <time>2020-06-15T17:46:50Z</time>
      </trkpt>
      <trkpt lat="49.39584" lon="-1.30835">
        <ele>30.5</ele>
        <time>2020-06-15T17:46:51Z</time>
      </trkpt>
      <trkpt lat="49.39584" lon="-1.30834">
        <ele>30.5</ele>
        <time>2020-06-15T17:46:52Z</time>
      </trkpt>
      <trkpt lat="49.39584" lon="-1.30834">
        <ele>30.5</ele>
        <time>2020-06-15T17:46:53Z</time>
      </trkpt>
      <trkpt lat="49.39584" lon="-1.30834">
        <ele>30.5</ele>
        <time>2020-06-15T17:46:54Z</time>
      </trkpt>
      <trkpt lat="49.39584" lon="-1.30834">
        <ele>30.5</ele>
        <time>2020-06-15T17:46:55Z</time>
      </trkpt>
      <trkpt lat="49.39583" lon="-1.30834">
        <ele>30.5</ele>
        <time>2020-06-15T17:46:56Z</time>
      </trkpt>
      <trkpt lat="49.39583" lon="-1.30834">
        <ele>30.5</ele>
        <time>2020-06-15T17:46:57Z</time>
      </trkpt>
      <trkpt lat="49.39584" lon="-1.30833">
        <ele>30.5</ele>
        <time>2020-06-15T17:46:58Z</time>
      </trkpt>
      <trkpt lat="49.39584" lon="-1.30832">
        <ele>30.5</ele>
        <time>2020-06-15T17:46:59Z</time>
      </trkpt>
      <trkpt lat="49.39585" lon="-1.30832">
        <ele>30.5</ele>
        <time>2020-06-15T17:47:00Z</time>
      </trkpt>
      <trkpt lat="49.39585" lon="-1.30832">
        <ele>30.5</ele>
        <time>2020-06-15T17:47:01Z</time>
      </trkpt>
      <trkpt lat="49.39585" lon="-1.30832">
        <ele>30.5</ele>
        <time>2020-06-15T17:47:02Z</time>
      </trkpt>
      <trkpt lat="49.39586" lon="-1.30832">
        <ele>30.5</ele>
        <time>2020-06-15T17:47:03Z</time>
      </trkpt>
      <trkpt lat="49.39586" lon="-1.30831">
        <ele>30.5</ele>
        <time>2020-06-15T17:47:04Z</time>
      </trkpt>
      <trkpt lat="49.39587" lon="-1.30831">
        <ele>30.5</ele>
        <time>2020-06-15T17:47:05Z</time>
      </trkpt>
      <trkpt lat="49.39588" lon="-1.3083">
        <ele>30.5</ele>
        <time>2020-06-15T17:47:06Z</time>
      </trkpt>
      <trkpt lat="49.39589" lon="-1.30829">
        <ele>30.5</ele>
        <time>2020-06-15T17:47:07Z</time>
      </trkpt>
      <trkpt lat="49.39589" lon="-1.30829">
        <ele>30.5</ele>
        <time>2020-06-15T17:47:08Z</time>
      </trkpt>
      <trkpt lat="49.39589" lon="-1.30828">
        <ele>30.5</ele>
        <time>2020-06-15T17:47:09Z</time>
      </trkpt>
      <trkpt lat="49.39589" lon="-1.30828">
        <ele>30.5</ele>
        <time>2020-06-15T17:47:10Z</time>
      </trkpt>
      <trkpt lat="49.39589" lon="-1.30827">
        <ele>30.5</ele>
        <time>2020-06-15T17:47:11Z</time>
      </trkpt>
      <trkpt lat="49.39589" lon="-1.30827">
        <ele>30.5</ele>
        <time>2020-06-15T17:47:12Z</time>
      </trkpt>
      <trkpt lat="49.3959" lon="-1.30828">
        <ele>30.5</ele>
        <time>2020-06-15T17:47:13Z</time>
      </trkpt>
      <trkpt lat="49.39591" lon="-1.30828">
        <ele>30.6</ele>
        <time>2020-06-15T17:47:14Z</time>
      </trkpt>
      <trkpt lat="49.39591" lon="-1.30828">
        <ele>30.6</ele>
        <time>2020-06-15T17:47:15Z</time>
      </trkpt>
      <trkpt lat="49.39591" lon="-1.30828">
        <ele>30.6</ele>
        <time>2020-06-15T17:47:16Z</time>
      </trkpt>
      <trkpt lat="49.39591" lon="-1.30828">
        <ele>30.6</ele>
        <time>2020-06-15T17:47:17Z</time>
      </trkpt>
      <trkpt lat="49.39591" lon="-1.30828">
        <ele>30.6</ele>
        <time>2020-06-15T17:47:18Z</time>
      </trkpt>
      <trkpt lat="49.39591" lon="-1.30828">
        <ele>30.6</ele>
        <time>2020-06-15T17:49:54Z</time>
      </trkpt>
      <trkpt lat="49.3959" lon="-1.30827">
        <ele>30.6</ele>
        <time>2020-06-15T17:49:55Z</time>
      </trkpt>
      <trkpt lat="49.3959" lon="-1.30826">
        <ele>30.6</ele>
        <time>2020-06-15T17:49:56Z</time>
      </trkpt>
      <trkpt lat="49.39589" lon="-1.30826">
        <ele>30.6</ele>
        <time>2020-06-15T17:49:57Z</time>
      </trkpt>
      <trkpt lat="49.39589" lon="-1.30826">
        <ele>30.6</ele>
        <time>2020-06-15T17:49:58Z</time>
      </trkpt>
      <trkpt lat="49.39589" lon="-1.30826">
        <ele>30.6</ele>
        <time>2020-06-15T17:49:59Z</time>
      </trkpt>
      <trkpt lat="49.39589" lon="-1.30826">
        <ele>30.6</ele>
        <time>2020-06-15T17:50:00Z</time>
      </trkpt>
      <trkpt lat="49.39589" lon="-1.30826">
        <ele>30.6</ele>
        <time>2020-06-15T17:50:01Z</time>
      </trkpt>
      <trkpt lat="49.39589" lon="-1.30826">
        <ele>30.6</ele>
        <time>2020-06-15T17:50:02Z</time>
      </trkpt>
      <trkpt lat="49.39589" lon="-1.30825">
        <ele>30.6</ele>
        <time>2020-06-15T17:50:03Z</time>
      </trkpt>
      <trkpt lat="49.39589" lon="-1.30825">
        <ele>30.6</ele>
        <time>2020-06-15T17:50:04Z</time>
      </trkpt>
      <trkpt lat="49.39588" lon="-1.30825">
        <ele>30.6</ele>
        <time>2020-06-15T17:50:05Z</time>
      </trkpt>
      <trkpt lat="49.39587" lon="-1.30824">
        <ele>30.6</ele>
        <time>2020-06-15T17:50:06Z</time>
      </trkpt>
      <trkpt lat="49.39587" lon="-1.30824">
        <ele>30.6</ele>
        <time>2020-06-15T17:50:07Z</time>
      </trkpt>
      <trkpt lat="49.39586" lon="-1.30823">
        <ele>30.6</ele>
        <time>2020-06-15T17:50:08Z</time>
      </trkpt>
      <trkpt lat="49.39586" lon="-1.30823">
        <ele>30.6</ele>
        <time>2020-06-15T17:50:09Z</time>
      </trkpt>
      <trkpt lat="49.39586" lon="-1.30823">
        <ele>30.6</ele>
        <time>2020-06-15T17:50:10Z</time>
      </trkpt>
      <trkpt lat="49.39586" lon="-1.30824">
        <ele>30.6</ele>
        <time>2020-06-15T17:50:11Z</time>
      </trkpt>
      <trkpt lat="49.39586" lon="-1.30824">
        <ele>30.6</ele>
        <time>2020-06-15T17:50:12Z</time>
      </trkpt>
      <trkpt lat="49.39586" lon="-1.30825">
        <ele>30.6</ele>
        <time>2020-06-15T17:50:13Z</time>
      </trkpt>
      <trkpt lat="49.39586" lon="-1.30825">
        <ele>30.6</ele>
        <time>2020-06-15T17:50:14Z</time>
      </trkpt>
      <trkpt lat="49.39586" lon="-1.30825">
        <ele>30.6</ele>
        <time>2020-06-15T17:50:15Z</time>
      </trkpt>
      <trkpt lat="49.39586" lon="-1.30825">
        <ele>30.6</ele>
        <time>2020-06-15T17:50:16Z</time>
      </trkpt>
      <trkpt lat="49.39586" lon="-1.30824">
        <ele>30.6</ele>
        <time>2020-06-15T17:50:17Z</time>
      </trkpt>
      <trkpt lat="49.39584" lon="-1.30825">
        <ele>30.6</ele>
        <time>2020-06-15T17:50:18Z</time>
      </trkpt>
      <trkpt lat="49.39584" lon="-1.30826">
        <ele>30.6</ele>
        <time>2020-06-15T17:50:19Z</time>
      </trkpt>
      <trkpt lat="49.39584" lon="-1.30826">
        <ele>30.6</ele>
        <time>2020-06-15T17:50:20Z</time>
      </trkpt>
      <trkpt lat="49.39584" lon="-1.30826">
        <ele>30.6</ele>
        <time>2020-06-15T17:50:21Z</time>
      </trkpt>
      <trkpt lat="49.39584" lon="-1.30826">
        <ele>30.6</ele>
        <time>2020-06-15T17:50:22Z</time>
      </trkpt>
      <trkpt lat="49.39584" lon="-1.30826">
        <ele>30.6</ele>
        <time>2020-06-15T17:50:23Z</time>
      </trkpt>
      <trkpt lat="49.39584" lon="-1.30825">
        <ele>30.6</ele>
        <time>2020-06-15T17:50:24Z</time>
      </trkpt>
      <trkpt lat="49.39584" lon="-1.30826">
        <ele>30.6</ele>
        <time>2020-06-15T17:50:25Z</time>
      </trkpt>
      <trkpt lat="49.39585" lon="-1.30826">
        <ele>30.6</ele>
        <time>2020-06-15T17:50:26Z</time>
      </trkpt>
      <trkpt lat="49.39584" lon="-1.30826">
        <ele>30.6</ele>
        <time>2020-06-15T17:50:27Z</time>
      </trkpt>
      <trkpt lat="49.39585" lon="-1.30826">
        <ele>30.6</ele>
        <time>2020-06-15T17:50:28Z</time>
      </trkpt>
      <trkpt lat="49.39585" lon="-1.30827">
        <ele>30.7</ele>
        <time>2020-06-15T17:50:29Z</time>
      </trkpt>
      <trkpt lat="49.39585" lon="-1.30828">
        <ele>30.7</ele>
        <time>2020-06-15T17:50:30Z</time>
      </trkpt>
      <trkpt lat="49.39585" lon="-1.30828">
        <ele>30.7</ele>
        <time>2020-06-15T17:50:31Z</time>
      </trkpt>
      <trkpt lat="49.39585" lon="-1.30828">
        <ele>30.7</ele>
        <time>2020-06-15T17:50:32Z</time>
      </trkpt>
      <trkpt lat="49.39584" lon="-1.30827">
        <ele>30.7</ele>
        <time>2020-06-15T17:50:33Z</time>
      </trkpt>
      <trkpt lat="49.39584" lon="-1.30826">
        <ele>30.7</ele>
        <time>2020-06-15T17:50:34Z</time>
      </trkpt>
      <trkpt lat="49.39584" lon="-1.30826">
        <ele>30.7</ele>
        <time>2020-06-15T17:50:35Z</time>
      </trkpt>
      <trkpt lat="49.39584" lon="-1.30825">
        <ele>30.7</ele>
        <time>2020-06-15T17:50:36Z</time>
      </trkpt>
      <trkpt lat="49.39583" lon="-1.30825">
        <ele>30.7</ele>
        <time>2020-06-15T17:50:37Z</time>
      </trkpt>
      <trkpt lat="49.39583" lon="-1.30824">
        <ele>30.7</ele>
        <time>2020-06-15T17:50:38Z</time>
      </trkpt>
      <trkpt lat="49.39582" lon="-1.30823">
        <ele>30.7</ele>
        <time>2020-06-15T17:50:39Z</time>
      </trkpt>
      <trkpt lat="49.39582" lon="-1.30822">
        <ele>30.7</ele>
        <time>2020-06-15T17:50:40Z</time>
      </trkpt>
      <trkpt lat="49.39582" lon="-1.30821">
        <ele>30.7</ele>
        <time>2020-06-15T17:50:41Z</time>
      </trkpt>
      <trkpt lat="49.39582" lon="-1.30821">
        <ele>30.7</ele>
        <time>2020-06-15T17:50:42Z</time>
      </trkpt>
      <trkpt lat="49.39582" lon="-1.30821">
        <ele>30.7</ele>
        <time>2020-06-15T17:50:43Z</time>
      </trkpt>
      <trkpt lat="49.39582" lon="-1.30821">
        <ele>30.7</ele>
        <time>2020-06-15T17:50:44Z</time>
      </trkpt>
      <trkpt lat="49.39583" lon="-1.30822">
        <ele>30.7</ele>
        <time>2020-06-15T17:50:45Z</time>
      </trkpt>
      <trkpt lat="49.39583" lon="-1.30822">
        <ele>30.7</ele>
        <time>2020-06-15T17:50:46Z</time>
      </trkpt>
      <trkpt lat="49.39584" lon="-1.30823">
        <ele>30.7</ele>
        <time>2020-06-15T17:50:47Z</time>
      </trkpt>
      <trkpt lat="49.39584" lon="-1.30824">
        <ele>30.7</ele>
        <time>2020-06-15T17:50:48Z</time>
      </trkpt>
      <trkpt lat="49.39584" lon="-1.30824">
        <ele>30.7</ele>
        <time>2020-06-15T17:50:49Z</time>
      </trkpt>
      <trkpt lat="49.39584" lon="-1.30825">
        <ele>30.7</ele>
        <time>2020-06-15T17:50:50Z</time>
      </trkpt>
      <trkpt lat="49.39584" lon="-1.30824">
        <ele>30.7</ele>
        <time>2020-06-15T17:50:51Z</time>
      </trkpt>
      <trkpt lat="49.39584" lon="-1.30824">
        <ele>30.7</ele>
        <time>2020-06-15T17:50:52Z</time>
      </trkpt>
      <trkpt lat="49.39584" lon="-1.30824">
        <ele>30.7</ele>
        <time>2020-06-15T17:50:53Z</time>
      </trkpt>
      <trkpt lat="49.39584" lon="-1.30824">
        <ele>30.7</ele>
        <time>2020-06-15T17:50:54Z</time>
      </trkpt>
      <trkpt lat="49.39584" lon="-1.30825">
        <ele>30.7</ele>
        <time>2020-06-15T17:50:55Z</time>
      </trkpt>
      <trkpt lat="49.39585" lon="-1.30826">
        <ele>30.7</ele>
        <time>2020-06-15T17:50:56Z</time>
      </trkpt>
      <trkpt lat="49.39585" lon="-1.30827">
        <ele>30.7</ele>
        <time>2020-06-15T17:50:57Z</time>
      </trkpt>
      <trkpt lat="49.39588" lon="-1.30829">
        <ele>30.7</ele>
        <time>2020-06-15T17:51:03Z</time>
      </trkpt>
      <trkpt lat="49.39589" lon="-1.3083">
        <ele>30.7</ele>
        <time>2020-06-15T17:51:04Z</time>
      </trkpt>
      <trkpt lat="49.3959" lon="-1.3083">
        <ele>30.7</ele>
        <time>2020-06-15T17:51:05Z</time>
      </trkpt>
      <trkpt lat="49.3959" lon="-1.30831">
        <ele>30.7</ele>
        <time>2020-06-15T17:51:06Z</time>
      </trkpt>
      <trkpt lat="49.3959" lon="-1.30832">
        <ele>30.7</ele>
        <time>2020-06-15T17:51:07Z</time>
      </trkpt>
      <trkpt lat="49.3959" lon="-1.30832">
        <ele>30.7</ele>
        <time>2020-06-15T17:51:08Z</time>
      </trkpt>
      <trkpt lat="49.3959" lon="-1.30833">
        <ele>30.8</ele>
        <time>2020-06-15T17:51:09Z</time>
      </trkpt>
      <trkpt lat="49.3959" lon="-1.30834">
        <ele>30.8</ele>
        <time>2020-06-15T17:51:10Z</time>
      </trkpt>
      <trkpt lat="49.3959" lon="-1.30834">
        <ele>30.8</ele>
        <time>2020-06-15T17:51:11Z</time>
      </trkpt>
      <trkpt lat="49.3959" lon="-1.30834">
        <ele>30.8</ele>
        <time>2020-06-15T17:51:12Z</time>
      </trkpt>
      <trkpt lat="49.39591" lon="-1.30835">
        <ele>30.7</ele>
        <time>2020-06-15T17:51:13Z</time>
      </trkpt>
      <trkpt lat="49.39591" lon="-1.30836">
        <ele>30.7</ele>
        <time>2020-06-15T17:51:14Z</time>
      </trkpt>
      <trkpt lat="49.39592" lon="-1.30836">
        <ele>30.7</ele>
        <time>2020-06-15T17:51:15Z</time>
      </trkpt>
      <trkpt lat="49.39593" lon="-1.30836">
        <ele>30.7</ele>
        <time>2020-06-15T17:51:16Z</time>
      </trkpt>
      <trkpt lat="49.39593" lon="-1.30836">
        <ele>30.7</ele>
        <time>2020-06-15T17:51:17Z</time>
      </trkpt>
      <trkpt lat="49.39593" lon="-1.30837">
        <ele>30.7</ele>
        <time>2020-06-15T17:51:18Z</time>
      </trkpt>
      <trkpt lat="49.39593" lon="-1.30837">
        <ele>30.7</ele>
        <time>2020-06-15T17:51:19Z</time>
      </trkpt>
      <trkpt lat="49.39593" lon="-1.30838">
        <ele>30.7</ele>
        <time>2020-06-15T17:51:20Z</time>
      </trkpt>
      <trkpt lat="49.39592" lon="-1.30838">
        <ele>30.7</ele>
        <time>2020-06-15T17:51:21Z</time>
      </trkpt>
      <trkpt lat="49.39592" lon="-1.30837">
        <ele>30.7</ele>
        <time>2020-06-15T17:51:22Z</time>
      </trkpt>
      <trkpt lat="49.39592" lon="-1.30836">
        <ele>30.7</ele>
        <time>2020-06-15T17:51:23Z</time>
      </trkpt>
      <trkpt lat="49.39592" lon="-1.30836">
        <ele>30.7</ele>
        <time>2020-06-15T17:51:24Z</time>
      </trkpt>
      <trkpt lat="49.39592" lon="-1.30836">
        <ele>30.7</ele>
        <time>2020-06-15T17:51:25Z</time>
      </trkpt>
      <trkpt lat="49.39592" lon="-1.30836">
        <ele>30.7</ele>
        <time>2020-06-15T17:51:26Z</time>
      </trkpt>
      <trkpt lat="49.39593" lon="-1.30837">
        <ele>30.7</ele>
        <time>2020-06-15T17:51:27Z</time>
      </trkpt>
      <trkpt lat="49.39593" lon="-1.30837">
        <ele>30.7</ele>
        <time>2020-06-15T17:51:28Z</time>
      </trkpt>
      <trkpt lat="49.39593" lon="-1.30837">
        <ele>30.7</ele>
        <time>2020-06-15T17:51:29Z</time>
      </trkpt>
      <trkpt lat="49.39593" lon="-1.30838">
        <ele>30.7</ele>
        <time>2020-06-15T17:51:30Z</time>
      </trkpt>
      <trkpt lat="49.39593" lon="-1.30838">
        <ele>30.7</ele>
        <time>2020-06-15T17:51:31Z</time>
      </trkpt>
      <trkpt lat="49.39593" lon="-1.30838">
        <ele>30.7</ele>
        <time>2020-06-15T17:51:32Z</time>
      </trkpt>
      <trkpt lat="49.39594" lon="-1.30839">
        <ele>30.7</ele>
        <time>2020-06-15T17:51:33Z</time>
      </trkpt>
      <trkpt lat="49.39593" lon="-1.30839">
        <ele>30.7</ele>
        <time>2020-06-15T17:51:34Z</time>
      </trkpt>
      <trkpt lat="49.39593" lon="-1.30839">
        <ele>30.7</ele>
        <time>2020-06-15T17:51:35Z</time>
      </trkpt>
      <trkpt lat="49.39593" lon="-1.30839">
        <ele>30.7</ele>
        <time>2020-06-15T17:51:36Z</time>
      </trkpt>
      <trkpt lat="49.39593" lon="-1.30839">
        <ele>30.7</ele>
        <time>2020-06-15T17:51:37Z</time>
      </trkpt>
      <trkpt lat="49.39593" lon="-1.30837">
        <ele>30.7</ele>
        <time>2020-06-15T17:51:38Z</time>
      </trkpt>
      <trkpt lat="49.39593" lon="-1.30836">
        <ele>30.7</ele>
        <time>2020-06-15T17:51:39Z</time>
      </trkpt>
      <trkpt lat="49.39593" lon="-1.30836">
        <ele>30.7</ele>
        <time>2020-06-15T17:51:40Z</time>
      </trkpt>
      <trkpt lat="49.39593" lon="-1.30835">
        <ele>30.7</ele>
        <time>2020-06-15T17:51:41Z</time>
      </trkpt>
      <trkpt lat="49.39593" lon="-1.30836">
        <ele>30.7</ele>
        <time>2020-06-15T17:51:42Z</time>
      </trkpt>
      <trkpt lat="49.39593" lon="-1.30836">
        <ele>30.7</ele>
        <time>2020-06-15T17:51:43Z</time>
      </trkpt>
      <trkpt lat="49.39592" lon="-1.30836">
        <ele>30.7</ele>
        <time>2020-06-15T17:51:44Z</time>
      </trkpt>
      <trkpt lat="49.39592" lon="-1.30837">
        <ele>30.7</ele>
        <time>2020-06-15T17:51:45Z</time>
      </trkpt>
      <trkpt lat="49.39592" lon="-1.30837">
        <ele>30.7</ele>
        <time>2020-06-15T17:51:46Z</time>
      </trkpt>
      <trkpt lat="49.39592" lon="-1.30837">
        <ele>30.7</ele>
        <time>2020-06-15T17:51:47Z</time>
      </trkpt>
      <trkpt lat="49.39591" lon="-1.30837">
        <ele>30.7</ele>
        <time>2020-06-15T17:51:48Z</time>
      </trkpt>
      <trkpt lat="49.39591" lon="-1.30838">
        <ele>30.7</ele>
        <time>2020-06-15T17:51:49Z</time>
      </trkpt>
      <trkpt lat="49.39591" lon="-1.30837">
        <ele>30.7</ele>
        <time>2020-06-15T17:51:50Z</time>
      </trkpt>
      <trkpt lat="49.3959" lon="-1.30837">
        <ele>30.7</ele>
        <time>2020-06-15T17:51:51Z</time>
      </trkpt>
      <trkpt lat="49.3959" lon="-1.30837">
        <ele>30.7</ele>
        <time>2020-06-15T17:51:52Z</time>
      </trkpt>
      <trkpt lat="49.3959" lon="-1.30836">
        <ele>30.8</ele>
        <time>2020-06-15T17:51:53Z</time>
      </trkpt>
      <trkpt lat="49.39589" lon="-1.30835">
        <ele>30.8</ele>
        <time>2020-06-15T17:51:54Z</time>
      </trkpt>
      <trkpt lat="49.39589" lon="-1.30835">
        <ele>30.8</ele>
        <time>2020-06-15T17:51:55Z</time>
      </trkpt>
      <trkpt lat="49.39588" lon="-1.30833">
        <ele>30.8</ele>
        <time>2020-06-15T17:51:56Z</time>
      </trkpt>
      <trkpt lat="49.39587" lon="-1.30832">
        <ele>30.8</ele>
        <time>2020-06-15T17:51:57Z</time>
      </trkpt>
      <trkpt lat="49.39587" lon="-1.30831">
        <ele>30.8</ele>
        <time>2020-06-15T17:51:58Z</time>
      </trkpt>
      <trkpt lat="49.39586" lon="-1.30831">
        <ele>30.8</ele>
        <time>2020-06-15T17:51:59Z</time>
      </trkpt>
      <trkpt lat="49.39586" lon="-1.30831">
        <ele>30.8</ele>
        <time>2020-06-15T17:52:00Z</time>
      </trkpt>
      <trkpt lat="49.39586" lon="-1.30833">
        <ele>30.8</ele>
        <time>2020-06-15T17:52:01Z</time>
      </trkpt>
      <trkpt lat="49.39585" lon="-1.30834">
        <ele>30.8</ele>
        <time>2020-06-15T17:52:02Z</time>
      </trkpt>
      <trkpt lat="49.39585" lon="-1.30833">
        <ele>30.8</ele>
        <time>2020-06-15T17:52:03Z</time>
      </trkpt>
      <trkpt lat="49.39586" lon="-1.30833">
        <ele>30.8</ele>
        <time>2020-06-15T17:52:04Z</time>
      </trkpt>
      <trkpt lat="49.39586" lon="-1.30834">
        <ele>30.8</ele>
        <time>2020-06-15T17:52:05Z</time>
      </trkpt>
      <trkpt lat="49.39586" lon="-1.30835">
        <ele>30.8</ele>
        <time>2020-06-15T17:52:06Z</time>
      </trkpt>
      <trkpt lat="49.39586" lon="-1.30835">
        <ele>30.8</ele>
        <time>2020-06-15T17:52:07Z</time>
      </trkpt>
      <trkpt lat="49.39586" lon="-1.30835">
        <ele>30.8</ele>
        <time>2020-06-15T17:52:08Z</time>
      </trkpt>
      <trkpt lat="49.39586" lon="-1.30835">
        <ele>30.8</ele>
        <time>2020-06-15T17:52:09Z</time>
      </trkpt>
      <trkpt lat="49.39586" lon="-1.30836">
        <ele>30.8</ele>
        <time>2020-06-15T17:52:10Z</time>
      </trkpt>
      <trkpt lat="49.39586" lon="-1.30836">
        <ele>30.8</ele>
        <time>2020-06-15T17:52:11Z</time>
      </trkpt>
      <trkpt lat="49.39585" lon="-1.30836">
        <ele>30.8</ele>
        <time>2020-06-15T17:52:12Z</time>
      </trkpt>
      <trkpt lat="49.39585" lon="-1.30837">
        <ele>30.8</ele>
        <time>2020-06-15T17:52:13Z</time>
      </trkpt>
      <trkpt lat="49.39585" lon="-1.30837">
        <ele>30.8</ele>
        <time>2020-06-15T17:52:14Z</time>
      </trkpt>
      <trkpt lat="49.39585" lon="-1.30837">
        <ele>30.8</ele>
        <time>2020-06-15T17:52:15Z</time>
      </trkpt>
      <trkpt lat="49.39585" lon="-1.30837">
        <ele>30.8</ele>
        <time>2020-06-15T17:52:16Z</time>
      </trkpt>
      <trkpt lat="49.39586" lon="-1.30838">
        <ele>30.8</ele>
        <time>2020-06-15T17:52:17Z</time>
      </trkpt>
      <trkpt lat="49.39586" lon="-1.30838">
        <ele>30.8</ele>
        <time>2020-06-15T17:52:18Z</time>
      </trkpt>
      <trkpt lat="49.39586" lon="-1.30838">
        <ele>30.8</ele>
        <time>2020-06-15T17:52:19Z</time>
      </trkpt>
      <trkpt lat="49.39586" lon="-1.30838">
        <ele>30.8</ele>
        <time>2020-06-15T17:52:20Z</time>
      </trkpt>
      <trkpt lat="49.39586" lon="-1.30839">
        <ele>30.8</ele>
        <time>2020-06-15T17:52:21Z</time>
      </trkpt>
      <trkpt lat="49.39587" lon="-1.30839">
        <ele>30.8</ele>
        <time>2020-06-15T17:52:22Z</time>
      </trkpt>
      <trkpt lat="49.39587" lon="-1.30839">
        <ele>30.8</ele>
        <time>2020-06-15T17:52:23Z</time>
      </trkpt>
      <trkpt lat="49.39587" lon="-1.30839">
        <ele>30.8</ele>
        <time>2020-06-15T17:52:24Z</time>
      </trkpt>
      <trkpt lat="49.39587" lon="-1.3084">
        <ele>30.8</ele>
        <time>2020-06-15T17:52:25Z</time>
      </trkpt>
      <trkpt lat="49.39587" lon="-1.3084">
        <ele>30.8</ele>
        <time>2020-06-15T17:52:26Z</time>
      </trkpt>
      <trkpt lat="49.39588" lon="-1.3084">
        <ele>30.8</ele>
        <time>2020-06-15T17:54:35Z</time>
      </trkpt>
      <trkpt lat="49.39588" lon="-1.3084">
        <ele>30.8</ele>
        <time>2020-06-15T17:54:36Z</time>
      </trkpt>
      <trkpt lat="49.39588" lon="-1.30841">
        <ele>30.8</ele>
        <time>2020-06-15T17:54:37Z</time>
      </trkpt>
      <trkpt lat="49.39588" lon="-1.30841">
        <ele>30.8</ele>
        <time>2020-06-15T17:54:38Z</time>
      </trkpt>
      <trkpt lat="49.39589" lon="-1.30841">
        <ele>30.8</ele>
        <time>2020-06-15T17:54:39Z</time>
      </trkpt>
      <trkpt lat="49.39589" lon="-1.30841">
        <ele>30.7</ele>
        <time>2020-06-15T17:54:40Z</time>
      </trkpt>
      <trkpt lat="49.39589" lon="-1.30842">
        <ele>30.7</ele>
        <time>2020-06-15T17:54:41Z</time>
      </trkpt>
      <trkpt lat="49.39589" lon="-1.30842">
        <ele>30.7</ele>
        <time>2020-06-15T17:54:42Z</time>
      </trkpt>
      <trkpt lat="49.39589" lon="-1.30842">
        <ele>30.7</ele>
        <time>2020-06-15T17:54:43Z</time>
      </trkpt>
      <trkpt lat="49.3959" lon="-1.30842">
        <ele>30.7</ele>
        <time>2020-06-15T17:54:44Z</time>
      </trkpt>
      <trkpt lat="49.3959" lon="-1.30843">
        <ele>30.7</ele>
        <time>2020-06-15T17:54:45Z</time>
      </trkpt>
      <trkpt lat="49.3959" lon="-1.30843">
        <ele>30.7</ele>
        <time>2020-06-15T17:54:46Z</time>
      </trkpt>
      <trkpt lat="49.3959" lon="-1.30843">
        <ele>30.7</ele>
        <time>2020-06-15T17:54:47Z</time>
      </trkpt>
      <trkpt lat="49.3959" lon="-1.30843">
        <ele>30.7</ele>
        <time>2020-06-15T17:54:48Z</time>
      </trkpt>
      <trkpt lat="49.39591" lon="-1.30844">
        <ele>30.7</ele>
        <time>2020-06-15T17:54:49Z</time>
      </trkpt>
      <trkpt lat="49.39591" lon="-1.30844">
        <ele>30.7</ele>
        <time>2020-06-15T17:54:50Z</time>
      </trkpt>
      <trkpt lat="49.39591" lon="-1.30844">
        <ele>30.7</ele>
        <time>2020-06-15T17:54:51Z</time>
      </trkpt>
      <trkpt lat="49.39591" lon="-1.30844">
        <ele>30.7</ele>
        <time>2020-06-15T17:54:52Z</time>
      </trkpt>
      <trkpt lat="49.39591" lon="-1.30845">
        <ele>30.7</ele>
        <time>2020-06-15T17:58:37Z</time>
      </trkpt>
      <trkpt lat="49.39592" lon="-1.30845">
        <ele>30.7</ele>
        <time>2020-06-15T17:58:38Z</time>
      </trkpt>
      <trkpt lat="49.39592" lon="-1.30849">
        <ele>30.7</ele>
        <time>2020-06-15T17:58:39Z</time>
      </trkpt>
      <trkpt lat="49.39593" lon="-1.30851">
        <ele>30.7</ele>
        <time>2020-06-15T17:58:40Z</time>
      </trkpt>
      <trkpt lat="49.39594" lon="-1.30856">
        <ele>30.6</ele>
        <time>2020-06-15T17:58:41Z</time>
      </trkpt>
      <trkpt lat="49.39595" lon="-1.30857">
        <ele>30.6</ele>
        <time>2020-06-15T17:58:42Z</time>
      </trkpt>
      <trkpt lat="49.39599" lon="-1.30858">
        <ele>30.6</ele>
        <time>2020-06-15T17:58:43Z</time>
      </trkpt>
      <trkpt lat="49.39601" lon="-1.30857">
        <ele>30.5</ele>
        <time>2020-06-15T17:58:44Z</time>
      </trkpt>
      <trkpt lat="49.39605" lon="-1.30855">
        <ele>30.5</ele>
        <time>2020-06-15T17:58:45Z</time>
      </trkpt>
      <trkpt lat="49.39609" lon="-1.30854">
        <ele>30.4</ele>
        <time>2020-06-15T17:58:46Z</time>
      </trkpt>
      <trkpt lat="49.39613" lon="-1.30854">
        <ele>30.3</ele>
        <time>2020-06-15T17:58:47Z</time>
      </trkpt>
      <trkpt lat="49.39617" lon="-1.30853">
        <ele>30.3</ele>
        <time>2020-06-15T17:58:48Z</time>
      </trkpt>
      <trkpt lat="49.39622" lon="-1.30852">
        <ele>30.2</ele>
        <time>2020-06-15T17:58:49Z</time>
      </trkpt>
      <trkpt lat="49.39626" lon="-1.30851">
        <ele>30.1</ele>
        <time>2020-06-15T17:58:50Z</time>
      </trkpt>
      <trkpt lat="49.3963" lon="-1.30849">
        <ele>30</ele>
        <time>2020-06-15T17:58:51Z</time>
      </trkpt>
      <trkpt lat="49.39634" lon="-1.30848">
        <ele>29.9</ele>
        <time>2020-06-15T17:58:52Z</time>
      </trkpt>
      <trkpt lat="49.39638" lon="-1.30846">
        <ele>29.8</ele>
        <time>2020-06-15T17:58:53Z</time>
      </trkpt>
      <trkpt lat="49.39643" lon="-1.30844">
        <ele>29.9</ele>
        <time>2020-06-15T17:58:54Z</time>
      </trkpt>
      <trkpt lat="49.39645" lon="-1.30841">
        <ele>30</ele>
        <time>2020-06-15T17:58:55Z</time>
      </trkpt>
      <trkpt lat="49.39646" lon="-1.3084">
        <ele>30</ele>
        <time>2020-06-15T17:58:56Z</time>
      </trkpt>
      <trkpt lat="49.39644" lon="-1.30838">
        <ele>30.1</ele>
        <time>2020-06-15T17:58:57Z</time>
      </trkpt>
      <trkpt lat="49.39643" lon="-1.30837">
        <ele>30.1</ele>
        <time>2020-06-15T17:58:58Z</time>
      </trkpt>
      <trkpt lat="49.39641" lon="-1.30836">
        <ele>30.1</ele>
        <time>2020-06-15T17:58:59Z</time>
      </trkpt>
      <trkpt lat="49.39638" lon="-1.30833">
        <ele>30.2</ele>
        <time>2020-06-15T17:59:00Z</time>
      </trkpt>
      <trkpt lat="49.39635" lon="-1.3083">
        <ele>30.3</ele>
        <time>2020-06-15T17:59:01Z</time>
      </trkpt>
      <trkpt lat="49.39631" lon="-1.30826">
        <ele>30.3</ele>
        <time>2020-06-15T17:59:02Z</time>
      </trkpt>
      <trkpt lat="49.39626" lon="-1.30822">
        <ele>30.4</ele>
        <time>2020-06-15T17:59:03Z</time>
      </trkpt>
      <trkpt lat="49.39621" lon="-1.30818">
        <ele>30.5</ele>
        <time>2020-06-15T17:59:04Z</time>
      </trkpt>
      <trkpt lat="49.39617" lon="-1.30815">
        <ele>30.6</ele>
        <time>2020-06-15T17:59:05Z</time>
      </trkpt>
      <trkpt lat="49.39613" lon="-1.30813">
        <ele>30.6</ele>
        <time>2020-06-15T17:59:06Z</time>
      </trkpt>
      <trkpt lat="49.39609" lon="-1.3081">
        <ele>30.7</ele>
        <time>2020-06-15T17:59:07Z</time>
      </trkpt>
      <trkpt lat="49.39605" lon="-1.30806">
        <ele>30.7</ele>
        <time>2020-06-15T17:59:08Z</time>
      </trkpt>
      <trkpt lat="49.39601" lon="-1.30802">
        <ele>30.8</ele>
        <time>2020-06-15T17:59:09Z</time>
      </trkpt>
      <trkpt lat="49.39597" lon="-1.30798">
        <ele>30.8</ele>
        <time>2020-06-15T17:59:10Z</time>
      </trkpt>
      <trkpt lat="49.39594" lon="-1.30795">
        <ele>30.8</ele>
        <time>2020-06-15T17:59:11Z</time>
      </trkpt>
      <trkpt lat="49.39591" lon="-1.30791">
        <ele>30.8</ele>
        <time>2020-06-15T17:59:12Z</time>
      </trkpt>
      <trkpt lat="49.39587" lon="-1.30786">
        <ele>30.8</ele>
        <time>2020-06-15T17:59:13Z</time>
      </trkpt>
      <trkpt lat="49.39584" lon="-1.30781">
        <ele>30.8</ele>
        <time>2020-06-15T17:59:14Z</time>
      </trkpt>
      <trkpt lat="49.39581" lon="-1.30775">
        <ele>30.8</ele>
        <time>2020-06-15T17:59:15Z</time>
      </trkpt>
      <trkpt lat="49.39578" lon="-1.3077">
        <ele>30.8</ele>
        <time>2020-06-15T17:59:16Z</time>
      </trkpt>
      <trkpt lat="49.39574" lon="-1.30764">
        <ele>30.7</ele>
        <time>2020-06-15T17:59:17Z</time>
      </trkpt>
      <trkpt lat="49.39571" lon="-1.30761">
        <ele>30.7</ele>
        <time>2020-06-15T17:59:18Z</time>
      </trkpt>
      <trkpt lat="49.39567" lon="-1.30756">
        <ele>30.7</ele>
        <time>2020-06-15T17:59:19Z</time>
      </trkpt>
      <trkpt lat="49.39563" lon="-1.30752">
        <ele>30.6</ele>
        <time>2020-06-15T17:59:20Z</time>
      </trkpt>
      <trkpt lat="49.39559" lon="-1.30748">
        <ele>30.6</ele>
        <time>2020-06-15T17:59:21Z</time>
      </trkpt>
      <trkpt lat="49.39555" lon="-1.30746">
        <ele>30.5</ele>
        <time>2020-06-15T17:59:22Z</time>
      </trkpt>
      <trkpt lat="49.39551" lon="-1.30746">
        <ele>30.3</ele>
        <time>2020-06-15T17:59:23Z</time>
      </trkpt>
      <trkpt lat="49.39547" lon="-1.30745">
        <ele>30.2</ele>
        <time>2020-06-15T17:59:24Z</time>
      </trkpt>
      <trkpt lat="49.39543" lon="-1.30744">
        <ele>30.1</ele>
        <time>2020-06-15T17:59:25Z</time>
      </trkpt>
      <trkpt lat="49.39536" lon="-1.30743">
        <ele>29.9</ele>
        <time>2020-06-15T17:59:26Z</time>
      </trkpt>
      <trkpt lat="49.39531" lon="-1.30741">
        <ele>29.7</ele>
        <time>2020-06-15T17:59:27Z</time>
      </trkpt>
      <trkpt lat="49.39527" lon="-1.30738">
        <ele>29.5</ele>
        <time>2020-06-15T17:59:28Z</time>
      </trkpt>
      <trkpt lat="49.39522" lon="-1.30736">
        <ele>29.3</ele>
        <time>2020-06-15T17:59:29Z</time>
      </trkpt>
      <trkpt lat="49.39517" lon="-1.30734">
        <ele>29.1</ele>
        <time>2020-06-15T17:59:30Z</time>
      </trkpt>
      <trkpt lat="49.39511" lon="-1.30731">
        <ele>28.9</ele>
        <time>2020-06-15T17:59:31Z</time>
      </trkpt>
      <trkpt lat="49.39506" lon="-1.30729">
        <ele>28.7</ele>
        <time>2020-06-15T17:59:32Z</time>
      </trkpt>
      <trkpt lat="49.39502" lon="-1.30727">
        <ele>28.6</ele>
        <time>2020-06-15T17:59:33Z</time>
      </trkpt>
      <trkpt lat="49.39498" lon="-1.30725">
        <ele>28.5</ele>
        <time>2020-06-15T17:59:34Z</time>
      </trkpt>
      <trkpt lat="49.39494" lon="-1.30723">
        <ele>28.3</ele>
        <time>2020-06-15T17:59:35Z</time>
      </trkpt>
      <trkpt lat="49.39491" lon="-1.30719">
        <ele>28.2</ele>
        <time>2020-06-15T17:59:36Z</time>
      </trkpt>
      <trkpt lat="49.39487" lon="-1.30716">
        <ele>28.1</ele>
        <time>2020-06-15T17:59:37Z</time>
      </trkpt>
      <trkpt lat="49.39483" lon="-1.30712">
        <ele>27.9</ele>
        <time>2020-06-15T17:59:38Z</time>
      </trkpt>
      <trkpt lat="49.39479" lon="-1.30707">
        <ele>27.6</ele>
        <time>2020-06-15T17:59:39Z</time>
      </trkpt>
      <trkpt lat="49.39474" lon="-1.30703">
        <ele>27.4</ele>
        <time>2020-06-15T17:59:40Z</time>
      </trkpt>
      <trkpt lat="49.39469" lon="-1.30699">
        <ele>27.1</ele>
        <time>2020-06-15T17:59:41Z</time>
      </trkpt>
      <trkpt lat="49.39464" lon="-1.30695">
        <ele>26.8</ele>
        <time>2020-06-15T17:59:42Z</time>
      </trkpt>
      <trkpt lat="49.39459" lon="-1.3069">
        <ele>26.6</ele>
        <time>2020-06-15T17:59:43Z</time>
      </trkpt>
      <trkpt lat="49.39454" lon="-1.30683">
        <ele>26.3</ele>
        <time>2020-06-15T17:59:44Z</time>
      </trkpt>
      <trkpt lat="49.39448" lon="-1.30678">
        <ele>26</ele>
        <time>2020-06-15T17:59:45Z</time>
      </trkpt>
      <trkpt lat="49.39442" lon="-1.30673">
        <ele>25.7</ele>
        <time>2020-06-15T17:59:46Z</time>
      </trkpt>
      <trkpt lat="49.39436" lon="-1.30669">
        <ele>25.3</ele>
        <time>2020-06-15T17:59:47Z</time>
      </trkpt>
      <trkpt lat="49.3943" lon="-1.30665">
        <ele>24.9</ele>
        <time>2020-06-15T17:59:48Z</time>
      </trkpt>
      <trkpt lat="49.39423" lon="-1.30661">
        <ele>24.5</ele>
        <time>2020-06-15T17:59:49Z</time>
      </trkpt>
      <trkpt lat="49.39415" lon="-1.30658">
        <ele>24</ele>
        <time>2020-06-15T17:59:50Z</time>
      </trkpt>
      <trkpt lat="49.39407" lon="-1.30655">
        <ele>23.5</ele>
        <time>2020-06-15T17:59:51Z</time>
      </trkpt>
      <trkpt lat="49.394" lon="-1.30651">
        <ele>23.1</ele>
        <time>2020-06-15T17:59:52Z</time>
      </trkpt>
      <trkpt lat="49.39392" lon="-1.30647">
        <ele>22.6</ele>
        <time>2020-06-15T17:59:53Z</time>
      </trkpt>
      <trkpt lat="49.39385" lon="-1.30642">
        <ele>22</ele>
        <time>2020-06-15T17:59:54Z</time>
      </trkpt>
      <trkpt lat="49.39377" lon="-1.30638">
        <ele>21.5</ele>
        <time>2020-06-15T17:59:55Z</time>
      </trkpt>
      <trkpt lat="49.3937" lon="-1.30633">
        <ele>21</ele>
        <time>2020-06-15T17:59:56Z</time>
      </trkpt>
      <trkpt lat="49.39362" lon="-1.30628">
        <ele>20.5</ele>
        <time>2020-06-15T17:59:57Z</time>
      </trkpt>
      <trkpt lat="49.39354" lon="-1.30623">
        <ele>20</ele>
        <time>2020-06-15T17:59:58Z</time>
      </trkpt>
      <trkpt lat="49.39346" lon="-1.30617">
        <ele>19.5</ele>
        <time>2020-06-15T17:59:59Z</time>
      </trkpt>
      <trkpt lat="49.39338" lon="-1.30612">
        <ele>19</ele>
        <time>2020-06-15T18:00:00Z</time>
      </trkpt>
      <trkpt lat="49.3933" lon="-1.30607">
        <ele>18.5</ele>
        <time>2020-06-15T18:00:01Z</time>
      </trkpt>
      <trkpt lat="49.39322" lon="-1.30601">
        <ele>18</ele>
        <time>2020-06-15T18:00:02Z</time>
      </trkpt>
      <trkpt lat="49.39314" lon="-1.30596">
        <ele>17.5</ele>
        <time>2020-06-15T18:00:03Z</time>
      </trkpt>
      <trkpt lat="49.39306" lon="-1.3059">
        <ele>17</ele>
        <time>2020-06-15T18:00:04Z</time>
      </trkpt>
      <trkpt lat="49.39298" lon="-1.30585">
        <ele>16.6</ele>
        <time>2020-06-15T18:00:05Z</time>
      </trkpt>
      <trkpt lat="49.39291" lon="-1.30579">
        <ele>16.1</ele>
        <time>2020-06-15T18:00:06Z</time>
      </trkpt>
      <trkpt lat="49.39284" lon="-1.30573">
        <ele>15.6</ele>
        <time>2020-06-15T18:00:07Z</time>
      </trkpt>
      <trkpt lat="49.39276" lon="-1.30567">
        <ele>15.2</ele>
        <time>2020-06-15T18:00:08Z</time>
      </trkpt>
      <trkpt lat="49.39268" lon="-1.30561">
        <ele>14.8</ele>
        <time>2020-06-15T18:00:09Z</time>
      </trkpt>
      <trkpt lat="49.39261" lon="-1.30555">
        <ele>14.4</ele>
        <time>2020-06-15T18:00:10Z</time>
      </trkpt>
      <trkpt lat="49.39253" lon="-1.30549">
        <ele>14</ele>
        <time>2020-06-15T18:00:11Z</time>
      </trkpt>
      <trkpt lat="49.39246" lon="-1.30542">
        <ele>13.6</ele>
        <time>2020-06-15T18:00:12Z</time>
      </trkpt>
      <trkpt lat="49.39239" lon="-1.30535">
        <ele>13.3</ele>
        <time>2020-06-15T18:00:13Z</time>
      </trkpt>
      <trkpt lat="49.39231" lon="-1.3053">
        <ele>13</ele>
        <time>2020-06-15T18:00:14Z</time>
      </trkpt>
      <trkpt lat="49.39224" lon="-1.30524">
        <ele>12.7</ele>
        <time>2020-06-15T18:00:15Z</time>
      </trkpt>
      <trkpt lat="49.39217" lon="-1.30519">
        <ele>12.5</ele>
        <time>2020-06-15T18:00:16Z</time>
      </trkpt>
      <trkpt lat="49.39209" lon="-1.30513">
        <ele>12.3</ele>
        <time>2020-06-15T18:00:17Z</time>
      </trkpt>
      <trkpt lat="49.39202" lon="-1.30508">
        <ele>12.1</ele>
        <time>2020-06-15T18:00:18Z</time>
      </trkpt>
      <trkpt lat="49.39195" lon="-1.30503">
        <ele>11.9</ele>
        <time>2020-06-15T18:00:19Z</time>
      </trkpt>
      <trkpt lat="49.39189" lon="-1.30498">
        <ele>11.7</ele>
        <time>2020-06-15T18:00:20Z</time>
      </trkpt>
      <trkpt lat="49.39182" lon="-1.30493">
        <ele>11.5</ele>
        <time>2020-06-15T18:00:21Z</time>
      </trkpt>
      <trkpt lat="49.39174" lon="-1.30489">
        <ele>11.4</ele>
        <time>2020-06-15T18:00:22Z</time>
      </trkpt>
      <trkpt lat="49.39167" lon="-1.30484">
        <ele>11.3</ele>
        <time>2020-06-15T18:00:23Z</time>
      </trkpt>
      <trkpt lat="49.3916" lon="-1.30479">
        <ele>11.2</ele>
        <time>2020-06-15T18:00:24Z</time>
      </trkpt>
      <trkpt lat="49.39153" lon="-1.30474">
        <ele>11.1</ele>
        <time>2020-06-15T18:00:25Z</time>
      </trkpt>
      <trkpt lat="49.39146" lon="-1.3047">
        <ele>11</ele>
        <time>2020-06-15T18:00:26Z</time>
      </trkpt>
      <trkpt lat="49.3914" lon="-1.30465">
        <ele>10.9</ele>
        <time>2020-06-15T18:00:27Z</time>
      </trkpt>
      <trkpt lat="49.39133" lon="-1.3046">
        <ele>10.8</ele>
        <time>2020-06-15T18:00:28Z</time>
      </trkpt>
      <trkpt lat="49.39127" lon="-1.30457">
        <ele>10.8</ele>
        <time>2020-06-15T18:00:29Z</time>
      </trkpt>
      <trkpt lat="49.39121" lon="-1.30454">
        <ele>10.7</ele>
        <time>2020-06-15T18:00:30Z</time>
      </trkpt>
      <trkpt lat="49.39115" lon="-1.3045">
        <ele>10.6</ele>
        <time>2020-06-15T18:00:31Z</time>
      </trkpt>
      <trkpt lat="49.3911" lon="-1.30446">
        <ele>10.5</ele>
        <time>2020-06-15T18:00:32Z</time>
      </trkpt>
      <trkpt lat="49.39104" lon="-1.30443">
        <ele>10.4</ele>
        <time>2020-06-15T18:00:33Z</time>
      </trkpt>
      <trkpt lat="49.39098" lon="-1.30439">
        <ele>10.3</ele>
        <time>2020-06-15T18:00:34Z</time>
      </trkpt>
      <trkpt lat="49.39093" lon="-1.30435">
        <ele>10.2</ele>
        <time>2020-06-15T18:00:35Z</time>
      </trkpt>
      <trkpt lat="49.39087" lon="-1.3043">
        <ele>10.1</ele>
        <time>2020-06-15T18:00:36Z</time>
      </trkpt>
      <trkpt lat="49.39082" lon="-1.30426">
        <ele>10</ele>
        <time>2020-06-15T18:00:37Z</time>
      </trkpt>
      <trkpt lat="49.39076" lon="-1.30422">
        <ele>9.9</ele>
        <time>2020-06-15T18:00:38Z</time>
      </trkpt>
      <trkpt lat="49.3907" lon="-1.30417">
        <ele>9.8</ele>
        <time>2020-06-15T18:00:39Z</time>
      </trkpt>
      <trkpt lat="49.39064" lon="-1.30413">
        <ele>9.8</ele>
        <time>2020-06-15T18:00:40Z</time>
      </trkpt>
      <trkpt lat="49.39059" lon="-1.30408">
        <ele>9.7</ele>
        <time>2020-06-15T18:00:41Z</time>
      </trkpt>
      <trkpt lat="49.39053" lon="-1.30405">
        <ele>9.6</ele>
        <time>2020-06-15T18:00:42Z</time>
      </trkpt>
      <trkpt lat="49.39048" lon="-1.304">
        <ele>9.5</ele>
        <time>2020-06-15T18:00:43Z</time>
      </trkpt>
      <trkpt lat="49.39042" lon="-1.30395">
        <ele>9.5</ele>
        <time>2020-06-15T18:00:44Z</time>
      </trkpt>
      <trkpt lat="49.39036" lon="-1.3039">
        <ele>9.5</ele>
        <time>2020-06-15T18:00:45Z</time>
      </trkpt>
      <trkpt lat="49.3903" lon="-1.30385">
        <ele>9.4</ele>
        <time>2020-06-15T18:00:46Z</time>
      </trkpt>
      <trkpt lat="49.39025" lon="-1.30382">
        <ele>9.4</ele>
        <time>2020-06-15T18:00:47Z</time>
      </trkpt>
      <trkpt lat="49.39019" lon="-1.30378">
        <ele>9.4</ele>
        <time>2020-06-15T18:00:48Z</time>
      </trkpt>
      <trkpt lat="49.39014" lon="-1.30374">
        <ele>9.4</ele>
        <time>2020-06-15T18:00:49Z</time>
      </trkpt>
      <trkpt lat="49.39008" lon="-1.3037">
        <ele>9.5</ele>
        <time>2020-06-15T18:00:50Z</time>
      </trkpt>
      <trkpt lat="49.39003" lon="-1.30365">
        <ele>9.5</ele>
        <time>2020-06-15T18:00:51Z</time>
      </trkpt>
      <trkpt lat="49.38997" lon="-1.3036">
        <ele>9.5</ele>
        <time>2020-06-15T18:00:52Z</time>
      </trkpt>
      <trkpt lat="49.38991" lon="-1.30355">
        <ele>9.3</ele>
        <time>2020-06-15T18:00:53Z</time>
      </trkpt>
      <trkpt lat="49.38985" lon="-1.30351">
        <ele>9</ele>
        <time>2020-06-15T18:00:54Z</time>
      </trkpt>
      <trkpt lat="49.38981" lon="-1.30347">
        <ele>8.6</ele>
        <time>2020-06-15T18:00:55Z</time>
      </trkpt>
      <trkpt lat="49.38976" lon="-1.30343">
        <ele>8.5</ele>
        <time>2020-06-15T18:00:56Z</time>
      </trkpt>
      <trkpt lat="49.38971" lon="-1.30339">
        <ele>8.4</ele>
        <time>2020-06-15T18:00:57Z</time>
      </trkpt>
      <trkpt lat="49.38965" lon="-1.30336">
        <ele>8.4</ele>
        <time>2020-06-15T18:00:58Z</time>
      </trkpt>
      <trkpt lat="49.3896" lon="-1.30331">
        <ele>8.3</ele>
        <time>2020-06-15T18:00:59Z</time>
      </trkpt>
      <trkpt lat="49.38955" lon="-1.30327">
        <ele>8.2</ele>
        <time>2020-06-15T18:01:00Z</time>
      </trkpt>
      <trkpt lat="49.3895" lon="-1.30324">
        <ele>8.2</ele>
        <time>2020-06-15T18:01:01Z</time>
      </trkpt>
      <trkpt lat="49.38945" lon="-1.30319">
        <ele>8.2</ele>
        <time>2020-06-15T18:01:02Z</time>
      </trkpt>
      <trkpt lat="49.3894" lon="-1.30316">
        <ele>8.2</ele>
        <time>2020-06-15T18:01:03Z</time>
      </trkpt>
      <trkpt lat="49.38935" lon="-1.30313">
        <ele>8.3</ele>
        <time>2020-06-15T18:01:04Z</time>
      </trkpt>
      <trkpt lat="49.3893" lon="-1.30309">
        <ele>8.3</ele>
        <time>2020-06-15T18:01:05Z</time>
      </trkpt>
      <trkpt lat="49.38924" lon="-1.30305">
        <ele>8.3</ele>
        <time>2020-06-15T18:01:06Z</time>
      </trkpt>
      <trkpt lat="49.3892" lon="-1.30301">
        <ele>8.3</ele>
        <time>2020-06-15T18:01:07Z</time>
      </trkpt>
      <trkpt lat="49.38915" lon="-1.30298">
        <ele>8.3</ele>
        <time>2020-06-15T18:01:08Z</time>
      </trkpt>
      <trkpt lat="49.3891" lon="-1.30294">
        <ele>8.3</ele>
        <time>2020-06-15T18:01:09Z</time>
      </trkpt>
      <trkpt lat="49.38905" lon="-1.30289">
        <ele>8.3</ele>
        <time>2020-06-15T18:01:10Z</time>
      </trkpt>
      <trkpt lat="49.389" lon="-1.30286">
        <ele>8.4</ele>
        <time>2020-06-15T18:01:11Z</time>
      </trkpt>
      <trkpt lat="49.38894" lon="-1.30281">
        <ele>8.4</ele>
        <time>2020-06-15T18:01:12Z</time>
      </trkpt>
      <trkpt lat="49.38889" lon="-1.30278">
        <ele>8.5</ele>
        <time>2020-06-15T18:01:13Z</time>
      </trkpt>
      <trkpt lat="49.38884" lon="-1.30274">
        <ele>8.6</ele>
        <time>2020-06-15T18:01:14Z</time>
      </trkpt>
      <trkpt lat="49.38879" lon="-1.3027">
        <ele>8.7</ele>
        <time>2020-06-15T18:01:15Z</time>
      </trkpt>
      <trkpt lat="49.38874" lon="-1.30266">
        <ele>8.8</ele>
        <time>2020-06-15T18:01:16Z</time>
      </trkpt>
      <trkpt lat="49.3887" lon="-1.30263">
        <ele>8.8</ele>
        <time>2020-06-15T18:01:17Z</time>
      </trkpt>
      <trkpt lat="49.38864" lon="-1.30258">
        <ele>8.9</ele>
        <time>2020-06-15T18:01:18Z</time>
      </trkpt>
      <trkpt lat="49.38858" lon="-1.30254">
        <ele>9</ele>
        <time>2020-06-15T18:01:19Z</time>
      </trkpt>
      <trkpt lat="49.38852" lon="-1.30249">
        <ele>9.1</ele>
        <time>2020-06-15T18:01:20Z</time>
      </trkpt>
      <trkpt lat="49.38847" lon="-1.30245">
        <ele>9.3</ele>
        <time>2020-06-15T18:01:21Z</time>
      </trkpt>
      <trkpt lat="49.38841" lon="-1.30241">
        <ele>9.4</ele>
        <time>2020-06-15T18:01:22Z</time>
      </trkpt>
      <trkpt lat="49.38835" lon="-1.30237">
        <ele>9.4</ele>
        <time>2020-06-15T18:01:23Z</time>
      </trkpt>
      <trkpt lat="49.3883" lon="-1.30234">
        <ele>9.4</ele>
        <time>2020-06-15T18:01:24Z</time>
      </trkpt>
      <trkpt lat="49.38824" lon="-1.3023">
        <ele>9.4</ele>
        <time>2020-06-15T18:01:25Z</time>
      </trkpt>
      <trkpt lat="49.38819" lon="-1.30227">
        <ele>9.4</ele>
        <time>2020-06-15T18:01:26Z</time>
      </trkpt>
      <trkpt lat="49.38814" lon="-1.30223">
        <ele>9.5</ele>
        <time>2020-06-15T18:01:27Z</time>
      </trkpt>
      <trkpt lat="49.38809" lon="-1.30218">
        <ele>9.6</ele>
        <time>2020-06-15T18:01:28Z</time>
      </trkpt>
      <trkpt lat="49.38805" lon="-1.30214">
        <ele>9.7</ele>
        <time>2020-06-15T18:01:29Z</time>
      </trkpt>
      <trkpt lat="49.388" lon="-1.3021">
        <ele>9.8</ele>
        <time>2020-06-15T18:01:30Z</time>
      </trkpt>
      <trkpt lat="49.38795" lon="-1.30206">
        <ele>10</ele>
        <time>2020-06-15T18:01:31Z</time>
      </trkpt>
      <trkpt lat="49.3879" lon="-1.30203">
        <ele>10.1</ele>
        <time>2020-06-15T18:01:32Z</time>
      </trkpt>
      <trkpt lat="49.38786" lon="-1.30198">
        <ele>10.3</ele>
        <time>2020-06-15T18:01:33Z</time>
      </trkpt>
      <trkpt lat="49.38781" lon="-1.30194">
        <ele>10.5</ele>
        <time>2020-06-15T18:01:34Z</time>
      </trkpt>
      <trkpt lat="49.38777" lon="-1.30191">
        <ele>10.7</ele>
        <time>2020-06-15T18:01:35Z</time>
      </trkpt>
      <trkpt lat="49.38772" lon="-1.30188">
        <ele>10.9</ele>
        <time>2020-06-15T18:01:36Z</time>
      </trkpt>
      <trkpt lat="49.38767" lon="-1.30186">
        <ele>11</ele>
        <time>2020-06-15T18:01:37Z</time>
      </trkpt>
      <trkpt lat="49.38764" lon="-1.30182">
        <ele>11.2</ele>
        <time>2020-06-15T18:01:38Z</time>
      </trkpt>
      <trkpt lat="49.3876" lon="-1.30179">
        <ele>11.3</ele>
        <time>2020-06-15T18:01:39Z</time>
      </trkpt>
      <trkpt lat="49.38756" lon="-1.30177">
        <ele>11.4</ele>
        <time>2020-06-15T18:01:40Z</time>
      </trkpt>
      <trkpt lat="49.38752" lon="-1.30174">
        <ele>11.6</ele>
        <time>2020-06-15T18:01:41Z</time>
      </trkpt>
      <trkpt lat="49.38749" lon="-1.30171">
        <ele>11.8</ele>
        <time>2020-06-15T18:01:42Z</time>
      </trkpt>
      <trkpt lat="49.38745" lon="-1.30169">
        <ele>11.9</ele>
        <time>2020-06-15T18:01:43Z</time>
      </trkpt>
      <trkpt lat="49.38741" lon="-1.30165">
        <ele>12.1</ele>
        <time>2020-06-15T18:01:44Z</time>
      </trkpt>
      <trkpt lat="49.38737" lon="-1.30162">
        <ele>12.3</ele>
        <time>2020-06-15T18:01:45Z</time>
      </trkpt>
      <trkpt lat="49.38733" lon="-1.30159">
        <ele>12.6</ele>
        <time>2020-06-15T18:01:46Z</time>
      </trkpt>
      <trkpt lat="49.38729" lon="-1.30156">
        <ele>12.7</ele>
        <time>2020-06-15T18:01:47Z</time>
      </trkpt>
      <trkpt lat="49.38726" lon="-1.30153">
        <ele>13</ele>
        <time>2020-06-15T18:01:48Z</time>
      </trkpt>
      <trkpt lat="49.38723" lon="-1.30151">
        <ele>13.2</ele>
        <time>2020-06-15T18:01:49Z</time>
      </trkpt>
      <trkpt lat="49.38718" lon="-1.30148">
        <ele>13.4</ele>
        <time>2020-06-15T18:01:50Z</time>
      </trkpt>
      <trkpt lat="49.38715" lon="-1.30147">
        <ele>13.6</ele>
        <time>2020-06-15T18:01:51Z</time>
      </trkpt>
      <trkpt lat="49.38712" lon="-1.30145">
        <ele>13.8</ele>
        <time>2020-06-15T18:01:52Z</time>
      </trkpt>
      <trkpt lat="49.3871" lon="-1.30143">
        <ele>14</ele>
        <time>2020-06-15T18:01:53Z</time>
      </trkpt>
      <trkpt lat="49.38706" lon="-1.30139">
        <ele>14.2</ele>
        <time>2020-06-15T18:01:54Z</time>
      </trkpt>
      <trkpt lat="49.38704" lon="-1.30138">
        <ele>14.3</ele>
        <time>2020-06-15T18:01:55Z</time>
      </trkpt>
      <trkpt lat="49.38701" lon="-1.30135">
        <ele>14.5</ele>
        <time>2020-06-15T18:01:56Z</time>
      </trkpt>
      <trkpt lat="49.38698" lon="-1.30132">
        <ele>14.7</ele>
        <time>2020-06-15T18:01:57Z</time>
      </trkpt>
      <trkpt lat="49.38695" lon="-1.3013">
        <ele>15</ele>
        <time>2020-06-15T18:01:58Z</time>
      </trkpt>
      <trkpt lat="49.38692" lon="-1.30127">
        <ele>15.1</ele>
        <time>2020-06-15T18:01:59Z</time>
      </trkpt>
      <trkpt lat="49.38689" lon="-1.30125">
        <ele>15.3</ele>
        <time>2020-06-15T18:02:00Z</time>
      </trkpt>
      <trkpt lat="49.38686" lon="-1.30122">
        <ele>15.5</ele>
        <time>2020-06-15T18:02:01Z</time>
      </trkpt>
      <trkpt lat="49.38683" lon="-1.3012">
        <ele>15.6</ele>
        <time>2020-06-15T18:02:02Z</time>
      </trkpt>
      <trkpt lat="49.3868" lon="-1.30117">
        <ele>15.9</ele>
        <time>2020-06-15T18:02:03Z</time>
      </trkpt>
      <trkpt lat="49.38676" lon="-1.30115">
        <ele>16.1</ele>
        <time>2020-06-15T18:02:04Z</time>
      </trkpt>
      <trkpt lat="49.38673" lon="-1.30112">
        <ele>16.3</ele>
        <time>2020-06-15T18:02:05Z</time>
      </trkpt>
      <trkpt lat="49.3867" lon="-1.30109">
        <ele>16.5</ele>
        <time>2020-06-15T18:02:06Z</time>
      </trkpt>
      <trkpt lat="49.38666" lon="-1.30106">
        <ele>16.7</ele>
        <time>2020-06-15T18:02:07Z</time>
      </trkpt>
      <trkpt lat="49.38662" lon="-1.30103">
        <ele>17</ele>
        <time>2020-06-15T18:02:08Z</time>
      </trkpt>
      <trkpt lat="49.38658" lon="-1.301">
        <ele>17.2</ele>
        <time>2020-06-15T18:02:09Z</time>
      </trkpt>
      <trkpt lat="49.38655" lon="-1.30098">
        <ele>17.3</ele>
        <time>2020-06-15T18:02:10Z</time>
      </trkpt>
      <trkpt lat="49.38652" lon="-1.30097">
        <ele>17.5</ele>
        <time>2020-06-15T18:02:11Z</time>
      </trkpt>
      <trkpt lat="49.38648" lon="-1.30094">
        <ele>17.7</ele>
        <time>2020-06-15T18:02:12Z</time>
      </trkpt>
      <trkpt lat="49.38645" lon="-1.30091">
        <ele>17.9</ele>
        <time>2020-06-15T18:02:13Z</time>
      </trkpt>
      <trkpt lat="49.38641" lon="-1.30089">
        <ele>18.1</ele>
        <time>2020-06-15T18:02:14Z</time>
      </trkpt>
      <trkpt lat="49.38638" lon="-1.30086">
        <ele>18.3</ele>
        <time>2020-06-15T18:02:15Z</time>
      </trkpt>
      <trkpt lat="49.38635" lon="-1.30084">
        <ele>18.5</ele>
        <time>2020-06-15T18:02:16Z</time>
      </trkpt>
      <trkpt lat="49.38632" lon="-1.30081">
        <ele>18.7</ele>
        <time>2020-06-15T18:02:17Z</time>
      </trkpt>
      <trkpt lat="49.38629" lon="-1.30078">
        <ele>18.9</ele>
        <time>2020-06-15T18:02:18Z</time>
      </trkpt>
      <trkpt lat="49.38625" lon="-1.30076">
        <ele>19.1</ele>
        <time>2020-06-15T18:02:19Z</time>
      </trkpt>
      <trkpt lat="49.38622" lon="-1.30073">
        <ele>19.3</ele>
        <time>2020-06-15T18:02:20Z</time>
      </trkpt>
      <trkpt lat="49.38618" lon="-1.3007">
        <ele>19.5</ele>
        <time>2020-06-15T18:02:21Z</time>
      </trkpt>
      <trkpt lat="49.38614" lon="-1.30068">
        <ele>19.7</ele>
        <time>2020-06-15T18:02:22Z</time>
      </trkpt>
      <trkpt lat="49.38611" lon="-1.30066">
        <ele>19.9</ele>
        <time>2020-06-15T18:02:23Z</time>
      </trkpt>
      <trkpt lat="49.38607" lon="-1.30064">
        <ele>20.1</ele>
        <time>2020-06-15T18:02:24Z</time>
      </trkpt>
      <trkpt lat="49.38603" lon="-1.30061">
        <ele>20.3</ele>
        <time>2020-06-15T18:02:25Z</time>
      </trkpt>
      <trkpt lat="49.38602" lon="-1.3006">
        <ele>20.3</ele>
        <time>2020-06-15T18:02:26Z</time>
      </trkpt>
      <trkpt lat="49.38599" lon="-1.30058">
        <ele>20.5</ele>
        <time>2020-06-15T18:02:27Z</time>
      </trkpt>
      <trkpt lat="49.38596" lon="-1.30055">
        <ele>20.6</ele>
        <time>2020-06-15T18:02:28Z</time>
      </trkpt>
      <trkpt lat="49.38594" lon="-1.30052">
        <ele>20.8</ele>
        <time>2020-06-15T18:02:29Z</time>
      </trkpt>
      <trkpt lat="49.3859" lon="-1.3005">
        <ele>20.9</ele>
        <time>2020-06-15T18:02:30Z</time>
      </trkpt>
      <trkpt lat="49.38588" lon="-1.30047">
        <ele>21.1</ele>
        <time>2020-06-15T18:02:31Z</time>
      </trkpt>
      <trkpt lat="49.38584" lon="-1.30044">
        <ele>21.2</ele>
        <time>2020-06-15T18:02:32Z</time>
      </trkpt>
      <trkpt lat="49.38581" lon="-1.30042">
        <ele>21.3</ele>
        <time>2020-06-15T18:02:33Z</time>
      </trkpt>
      <trkpt lat="49.38578" lon="-1.30039">
        <ele>21.5</ele>
        <time>2020-06-15T18:02:34Z</time>
      </trkpt>
      <trkpt lat="49.38574" lon="-1.30035">
        <ele>21.7</ele>
        <time>2020-06-15T18:02:35Z</time>
      </trkpt>
      <trkpt lat="49.38571" lon="-1.30033">
        <ele>21.8</ele>
        <time>2020-06-15T18:02:36Z</time>
      </trkpt>
      <trkpt lat="49.38566" lon="-1.30031">
        <ele>21.9</ele>
        <time>2020-06-15T18:02:37Z</time>
      </trkpt>
      <trkpt lat="49.38563" lon="-1.30029">
        <ele>22</ele>
        <time>2020-06-15T18:02:38Z</time>
      </trkpt>
      <trkpt lat="49.3856" lon="-1.30026">
        <ele>22.1</ele>
        <time>2020-06-15T18:02:39Z</time>
      </trkpt>
      <trkpt lat="49.38557" lon="-1.30023">
        <ele>22.2</ele>
        <time>2020-06-15T18:02:40Z</time>
      </trkpt>
      <trkpt lat="49.38553" lon="-1.30021">
        <ele>22.3</ele>
        <time>2020-06-15T18:02:41Z</time>
      </trkpt>
      <trkpt lat="49.38549" lon="-1.30018">
        <ele>22.5</ele>
        <time>2020-06-15T18:02:42Z</time>
      </trkpt>
      <trkpt lat="49.38545" lon="-1.30015">
        <ele>22.7</ele>
        <time>2020-06-15T18:02:43Z</time>
      </trkpt>
      <trkpt lat="49.38541" lon="-1.30011">
        <ele>22.8</ele>
        <time>2020-06-15T18:02:44Z</time>
      </trkpt>
      <trkpt lat="49.38538" lon="-1.30008">
        <ele>23</ele>
        <time>2020-06-15T18:02:45Z</time>
      </trkpt>
      <trkpt lat="49.38536" lon="-1.30006">
        <ele>23.1</ele>
        <time>2020-06-15T18:02:46Z</time>
      </trkpt>
      <trkpt lat="49.38532" lon="-1.30004">
        <ele>23.2</ele>
        <time>2020-06-15T18:02:47Z</time>
      </trkpt>
      <trkpt lat="49.38529" lon="-1.30001">
        <ele>23.4</ele>
        <time>2020-06-15T18:02:48Z</time>
      </trkpt>
      <trkpt lat="49.38526" lon="-1.29999">
        <ele>23.5</ele>
        <time>2020-06-15T18:02:49Z</time>
      </trkpt>
      <trkpt lat="49.38522" lon="-1.29996">
        <ele>23.7</ele>
        <time>2020-06-15T18:02:50Z</time>
      </trkpt>
      <trkpt lat="49.38519" lon="-1.29995">
        <ele>23.8</ele>
        <time>2020-06-15T18:02:51Z</time>
      </trkpt>
      <trkpt lat="49.38516" lon="-1.29993">
        <ele>23.9</ele>
        <time>2020-06-15T18:02:52Z</time>
      </trkpt>
      <trkpt lat="49.38511" lon="-1.29989">
        <ele>24.1</ele>
        <time>2020-06-15T18:02:53Z</time>
      </trkpt>
      <trkpt lat="49.38508" lon="-1.29987">
        <ele>24.2</ele>
        <time>2020-06-15T18:02:54Z</time>
      </trkpt>
      <trkpt lat="49.38505" lon="-1.29983">
        <ele>24.3</ele>
        <time>2020-06-15T18:02:55Z</time>
      </trkpt>
      <trkpt lat="49.38502" lon="-1.29979">
        <ele>24.4</ele>
        <time>2020-06-15T18:02:56Z</time>
      </trkpt>
      <trkpt lat="49.38498" lon="-1.29975">
        <ele>24.5</ele>
        <time>2020-06-15T18:02:57Z</time>
      </trkpt>
      <trkpt lat="49.38495" lon="-1.29972">
        <ele>24.6</ele>
        <time>2020-06-15T18:02:58Z</time>
      </trkpt>
      <trkpt lat="49.38492" lon="-1.29968">
        <ele>24.8</ele>
        <time>2020-06-15T18:02:59Z</time>
      </trkpt>
      <trkpt lat="49.38487" lon="-1.29964">
        <ele>24.9</ele>
        <time>2020-06-15T18:03:00Z</time>
      </trkpt>
      <trkpt lat="49.38483" lon="-1.29961">
        <ele>25.1</ele>
        <time>2020-06-15T18:03:01Z</time>
      </trkpt>
      <trkpt lat="49.38479" lon="-1.29958">
        <ele>25.2</ele>
        <time>2020-06-15T18:03:02Z</time>
      </trkpt>
      <trkpt lat="49.38475" lon="-1.29956">
        <ele>25.4</ele>
        <time>2020-06-15T18:03:03Z</time>
      </trkpt>
      <trkpt lat="49.38472" lon="-1.29953">
        <ele>25.5</ele>
        <time>2020-06-15T18:03:04Z</time>
      </trkpt>
      <trkpt lat="49.38468" lon="-1.29951">
        <ele>25.6</ele>
        <time>2020-06-15T18:03:05Z</time>
      </trkpt>
      <trkpt lat="49.38465" lon="-1.29948">
        <ele>25.7</ele>
        <time>2020-06-15T18:03:06Z</time>
      </trkpt>
      <trkpt lat="49.38462" lon="-1.29946">
        <ele>25.8</ele>
        <time>2020-06-15T18:03:07Z</time>
      </trkpt>
      <trkpt lat="49.38458" lon="-1.29943">
        <ele>25.9</ele>
        <time>2020-06-15T18:03:08Z</time>
      </trkpt>
      <trkpt lat="49.38454" lon="-1.29939">
        <ele>26.1</ele>
        <time>2020-06-15T18:03:09Z</time>
      </trkpt>
      <trkpt lat="49.3845" lon="-1.29938">
        <ele>26.2</ele>
        <time>2020-06-15T18:03:10Z</time>
      </trkpt>
      <trkpt lat="49.38445" lon="-1.29935">
        <ele>26.3</ele>
        <time>2020-06-15T18:03:11Z</time>
      </trkpt>
      <trkpt lat="49.38441" lon="-1.29931">
        <ele>26.5</ele>
        <time>2020-06-15T18:03:12Z</time>
      </trkpt>
      <trkpt lat="49.38437" lon="-1.29929">
        <ele>26.6</ele>
        <time>2020-06-15T18:03:13Z</time>
      </trkpt>
      <trkpt lat="49.38433" lon="-1.29927">
        <ele>26.7</ele>
        <time>2020-06-15T18:03:14Z</time>
      </trkpt>
      <trkpt lat="49.3843" lon="-1.29925">
        <ele>26.8</ele>
        <time>2020-06-15T18:03:15Z</time>
      </trkpt>
      <trkpt lat="49.38427" lon="-1.29923">
        <ele>26.8</ele>
        <time>2020-06-15T18:03:16Z</time>
      </trkpt>
      <trkpt lat="49.38423" lon="-1.2992">
        <ele>26.9</ele>
        <time>2020-06-15T18:03:17Z</time>
      </trkpt>
      <trkpt lat="49.38419" lon="-1.29917">
        <ele>27</ele>
        <time>2020-06-15T18:03:18Z</time>
      </trkpt>
      <trkpt lat="49.38415" lon="-1.29915">
        <ele>27.2</ele>
        <time>2020-06-15T18:03:19Z</time>
      </trkpt>
      <trkpt lat="49.38411" lon="-1.29912">
        <ele>27.3</ele>
        <time>2020-06-15T18:03:20Z</time>
      </trkpt>
      <trkpt lat="49.38408" lon="-1.2991">
        <ele>27.4</ele>
        <time>2020-06-15T18:03:21Z</time>
      </trkpt>
      <trkpt lat="49.38404" lon="-1.29909">
        <ele>27.5</ele>
        <time>2020-06-15T18:03:22Z</time>
      </trkpt>
      <trkpt lat="49.384" lon="-1.29905">
        <ele>27.7</ele>
        <time>2020-06-15T18:03:23Z</time>
      </trkpt>
      <trkpt lat="49.38397" lon="-1.29903">
        <ele>27.7</ele>
        <time>2020-06-15T18:03:24Z</time>
      </trkpt>
      <trkpt lat="49.38392" lon="-1.29898">
        <ele>27.9</ele>
        <time>2020-06-15T18:03:25Z</time>
      </trkpt>
      <trkpt lat="49.38388" lon="-1.29895">
        <ele>27.9</ele>
        <time>2020-06-15T18:03:26Z</time>
      </trkpt>
      <trkpt lat="49.38385" lon="-1.29893">
        <ele>28</ele>
        <time>2020-06-15T18:03:27Z</time>
      </trkpt>
      <trkpt lat="49.38381" lon="-1.2989">
        <ele>28.1</ele>
        <time>2020-06-15T18:03:28Z</time>
      </trkpt>
      <trkpt lat="49.38377" lon="-1.29887">
        <ele>28.1</ele>
        <time>2020-06-15T18:03:29Z</time>
      </trkpt>
      <trkpt lat="49.38374" lon="-1.29885">
        <ele>28.2</ele>
        <time>2020-06-15T18:03:30Z</time>
      </trkpt>
      <trkpt lat="49.38371" lon="-1.29883">
        <ele>28.2</ele>
        <time>2020-06-15T18:03:31Z</time>
      </trkpt>
      <trkpt lat="49.38367" lon="-1.29879">
        <ele>28.3</ele>
        <time>2020-06-15T18:03:32Z</time>
      </trkpt>
      <trkpt lat="49.38363" lon="-1.29877">
        <ele>28.3</ele>
        <time>2020-06-15T18:03:33Z</time>
      </trkpt>
      <trkpt lat="49.38358" lon="-1.29874">
        <ele>28.4</ele>
        <time>2020-06-15T18:03:34Z</time>
      </trkpt>
      <trkpt lat="49.38354" lon="-1.29871">
        <ele>28.4</ele>
        <time>2020-06-15T18:03:35Z</time>
      </trkpt>
      <trkpt lat="49.3835" lon="-1.29867">
        <ele>28.5</ele>
        <time>2020-06-15T18:03:36Z</time>
      </trkpt>
      <trkpt lat="49.38346" lon="-1.29864">
        <ele>28.5</ele>
        <time>2020-06-15T18:03:37Z</time>
      </trkpt>
      <trkpt lat="49.38342" lon="-1.29861">
        <ele>28.6</ele>
        <time>2020-06-15T18:03:38Z</time>
      </trkpt>
      <trkpt lat="49.38339" lon="-1.29858">
        <ele>28.6</ele>
        <time>2020-06-15T18:03:39Z</time>
      </trkpt>
      <trkpt lat="49.38335" lon="-1.29856">
        <ele>28.7</ele>
        <time>2020-06-15T18:03:40Z</time>
      </trkpt>
      <trkpt lat="49.3833" lon="-1.29852">
        <ele>28.7</ele>
        <time>2020-06-15T18:03:41Z</time>
      </trkpt>
      <trkpt lat="49.38327" lon="-1.29848">
        <ele>28.8</ele>
        <time>2020-06-15T18:03:42Z</time>
      </trkpt>
      <trkpt lat="49.38323" lon="-1.29845">
        <ele>28.9</ele>
        <time>2020-06-15T18:03:43Z</time>
      </trkpt>
      <trkpt lat="49.38319" lon="-1.29843">
        <ele>28.9</ele>
        <time>2020-06-15T18:03:44Z</time>
      </trkpt>
      <trkpt lat="49.38314" lon="-1.2984">
        <ele>29</ele>
        <time>2020-06-15T18:03:45Z</time>
      </trkpt>
      <trkpt lat="49.3831" lon="-1.29836">
        <ele>29</ele>
        <time>2020-06-15T18:03:46Z</time>
      </trkpt>
      <trkpt lat="49.38305" lon="-1.29833">
        <ele>29.1</ele>
        <time>2020-06-15T18:03:47Z</time>
      </trkpt>
      <trkpt lat="49.383" lon="-1.29831">
        <ele>29.2</ele>
        <time>2020-06-15T18:03:48Z</time>
      </trkpt>
      <trkpt lat="49.38297" lon="-1.29828">
        <ele>29.2</ele>
        <time>2020-06-15T18:03:49Z</time>
      </trkpt>
      <trkpt lat="49.38292" lon="-1.29826">
        <ele>29.2</ele>
        <time>2020-06-15T18:03:50Z</time>
      </trkpt>
      <trkpt lat="49.38288" lon="-1.29824">
        <ele>29.3</ele>
        <time>2020-06-15T18:03:51Z</time>
      </trkpt>
      <trkpt lat="49.38284" lon="-1.29822">
        <ele>29.3</ele>
        <time>2020-06-15T18:03:52Z</time>
      </trkpt>
      <trkpt lat="49.3828" lon="-1.2982">
        <ele>29.3</ele>
        <time>2020-06-15T18:03:53Z</time>
      </trkpt>
      <trkpt lat="49.38275" lon="-1.29818">
        <ele>29.4</ele>
        <time>2020-06-15T18:03:54Z</time>
      </trkpt>
      <trkpt lat="49.3827" lon="-1.29816">
        <ele>29.4</ele>
        <time>2020-06-15T18:03:55Z</time>
      </trkpt>
      <trkpt lat="49.38267" lon="-1.29814">
        <ele>29.4</ele>
        <time>2020-06-15T18:03:56Z</time>
      </trkpt>
      <trkpt lat="49.38262" lon="-1.29811">
        <ele>29.4</ele>
        <time>2020-06-15T18:03:57Z</time>
      </trkpt>
      <trkpt lat="49.38257" lon="-1.29809">
        <ele>29.4</ele>
        <time>2020-06-15T18:03:58Z</time>
      </trkpt>
      <trkpt lat="49.38252" lon="-1.29806">
        <ele>29.5</ele>
        <time>2020-06-15T18:03:59Z</time>
      </trkpt>
      <trkpt lat="49.38247" lon="-1.29803">
        <ele>29.5</ele>
        <time>2020-06-15T18:04:00Z</time>
      </trkpt>
      <trkpt lat="49.38242" lon="-1.29799">
        <ele>29.6</ele>
        <time>2020-06-15T18:04:01Z</time>
      </trkpt>
      <trkpt lat="49.38238" lon="-1.29796">
        <ele>29.7</ele>
        <time>2020-06-15T18:04:02Z</time>
      </trkpt>
      <trkpt lat="49.38234" lon="-1.29793">
        <ele>29.8</ele>
        <time>2020-06-15T18:04:03Z</time>
      </trkpt>
      <trkpt lat="49.3823" lon="-1.2979">
        <ele>29.8</ele>
        <time>2020-06-15T18:04:04Z</time>
      </trkpt>
      <trkpt lat="49.38226" lon="-1.29788">
        <ele>29.9</ele>
        <time>2020-06-15T18:04:05Z</time>
      </trkpt>
      <trkpt lat="49.38222" lon="-1.29784">
        <ele>29.9</ele>
        <time>2020-06-15T18:04:06Z</time>
      </trkpt>
      <trkpt lat="49.38217" lon="-1.29782">
        <ele>30</ele>
        <time>2020-06-15T18:04:07Z</time>
      </trkpt>
      <trkpt lat="49.38213" lon="-1.2978">
        <ele>30</ele>
        <time>2020-06-15T18:04:08Z</time>
      </trkpt>
      <trkpt lat="49.38207" lon="-1.29776">
        <ele>30.1</ele>
        <time>2020-06-15T18:04:09Z</time>
      </trkpt>
      <trkpt lat="49.38203" lon="-1.29773">
        <ele>30.1</ele>
        <time>2020-06-15T18:04:10Z</time>
      </trkpt>
      <trkpt lat="49.38199" lon="-1.2977">
        <ele>30.2</ele>
        <time>2020-06-15T18:04:11Z</time>
      </trkpt>
      <trkpt lat="49.38194" lon="-1.29767">
        <ele>30.2</ele>
        <time>2020-06-15T18:04:12Z</time>
      </trkpt>
      <trkpt lat="49.3819" lon="-1.29765">
        <ele>30.2</ele>
        <time>2020-06-15T18:04:13Z</time>
      </trkpt>
      <trkpt lat="49.38186" lon="-1.29762">
        <ele>30.3</ele>
        <time>2020-06-15T18:04:14Z</time>
      </trkpt>
      <trkpt lat="49.38182" lon="-1.2976">
        <ele>30.3</ele>
        <time>2020-06-15T18:04:15Z</time>
      </trkpt>
      <trkpt lat="49.38178" lon="-1.29759">
        <ele>30.3</ele>
        <time>2020-06-15T18:04:16Z</time>
      </trkpt>
      <trkpt lat="49.38175" lon="-1.29758">
        <ele>30.3</ele>
        <time>2020-06-15T18:04:17Z</time>
      </trkpt>
      <trkpt lat="49.38169" lon="-1.29756">
        <ele>30.3</ele>
        <time>2020-06-15T18:04:18Z</time>
      </trkpt>
      <trkpt lat="49.38165" lon="-1.29754">
        <ele>30.3</ele>
        <time>2020-06-15T18:04:19Z</time>
      </trkpt>
      <trkpt lat="49.38161" lon="-1.29754">
        <ele>30.3</ele>
        <time>2020-06-15T18:04:20Z</time>
      </trkpt>
      <trkpt lat="49.38158" lon="-1.29754">
        <ele>30.3</ele>
        <time>2020-06-15T18:04:21Z</time>
      </trkpt>
      <trkpt lat="49.38154" lon="-1.29753">
        <ele>30.3</ele>
        <time>2020-06-15T18:04:22Z</time>
      </trkpt>
      <trkpt lat="49.38151" lon="-1.29752">
        <ele>30.3</ele>
        <time>2020-06-15T18:04:23Z</time>
      </trkpt>
      <trkpt lat="49.38148" lon="-1.29753">
        <ele>30.3</ele>
        <time>2020-06-15T18:04:24Z</time>
      </trkpt>
      <trkpt lat="49.38144" lon="-1.29754">
        <ele>30.3</ele>
        <time>2020-06-15T18:04:25Z</time>
      </trkpt>
      <trkpt lat="49.38141" lon="-1.29755">
        <ele>30.3</ele>
        <time>2020-06-15T18:04:26Z</time>
      </trkpt>
      <trkpt lat="49.38138" lon="-1.29757">
        <ele>30.3</ele>
        <time>2020-06-15T18:04:27Z</time>
      </trkpt>
      <trkpt lat="49.38137" lon="-1.29758">
        <ele>30.3</ele>
        <time>2020-06-15T18:04:28Z</time>
      </trkpt>
      <trkpt lat="49.38133" lon="-1.29761">
        <ele>30.3</ele>
        <time>2020-06-15T18:04:29Z</time>
      </trkpt>
      <trkpt lat="49.38132" lon="-1.29762">
        <ele>30.2</ele>
        <time>2020-06-15T18:04:30Z</time>
      </trkpt>
      <trkpt lat="49.3813" lon="-1.29765">
        <ele>30.2</ele>
        <time>2020-06-15T18:04:31Z</time>
      </trkpt>
      <trkpt lat="49.38127" lon="-1.2977">
        <ele>30.2</ele>
        <time>2020-06-15T18:04:32Z</time>
      </trkpt>
      <trkpt lat="49.38126" lon="-1.29771">
        <ele>30.2</ele>
        <time>2020-06-15T18:04:33Z</time>
      </trkpt>
      <trkpt lat="49.38123" lon="-1.29775">
        <ele>30.2</ele>
        <time>2020-06-15T18:04:34Z</time>
      </trkpt>
      <trkpt lat="49.38122" lon="-1.29777">
        <ele>30.2</ele>
        <time>2020-06-15T18:04:35Z</time>
      </trkpt>
      <trkpt lat="49.38121" lon="-1.29782">
        <ele>30.2</ele>
        <time>2020-06-15T18:04:36Z</time>
      </trkpt>
      <trkpt lat="49.3812" lon="-1.29784">
        <ele>30.2</ele>
        <time>2020-06-15T18:04:37Z</time>
      </trkpt>
      <trkpt lat="49.38119" lon="-1.29789">
        <ele>30.2</ele>
        <time>2020-06-15T18:04:38Z</time>
      </trkpt>
      <trkpt lat="49.38118" lon="-1.29791">
        <ele>30.2</ele>
        <time>2020-06-15T18:04:39Z</time>
      </trkpt>
      <trkpt lat="49.38116" lon="-1.29796">
        <ele>30.2</ele>
        <time>2020-06-15T18:04:40Z</time>
      </trkpt>
      <trkpt lat="49.38114" lon="-1.29797">
        <ele>30.2</ele>
        <time>2020-06-15T18:04:41Z</time>
      </trkpt>
      <trkpt lat="49.38112" lon="-1.29798">
        <ele>30.2</ele>
        <time>2020-06-15T18:04:42Z</time>
      </trkpt>
      <trkpt lat="49.38109" lon="-1.298">
        <ele>30.2</ele>
        <time>2020-06-15T18:04:43Z</time>
      </trkpt>
      <trkpt lat="49.38106" lon="-1.29801">
        <ele>30.3</ele>
        <time>2020-06-15T18:04:44Z</time>
      </trkpt>
      <trkpt lat="49.38103" lon="-1.29803">
        <ele>30.3</ele>
        <time>2020-06-15T18:04:45Z</time>
      </trkpt>
      <trkpt lat="49.38102" lon="-1.29804">
        <ele>30.3</ele>
        <time>2020-06-15T18:04:46Z</time>
      </trkpt>
      <trkpt lat="49.38099" lon="-1.29805">
        <ele>30.3</ele>
        <time>2020-06-15T18:04:47Z</time>
      </trkpt>
      <trkpt lat="49.38096" lon="-1.29804">
        <ele>30.3</ele>
        <time>2020-06-15T18:04:48Z</time>
      </trkpt>
      <trkpt lat="49.38092" lon="-1.29801">
        <ele>30.3</ele>
        <time>2020-06-15T18:04:49Z</time>
      </trkpt>
      <trkpt lat="49.38091" lon="-1.298">
        <ele>30.3</ele>
        <time>2020-06-15T18:04:50Z</time>
      </trkpt>
      <trkpt lat="49.38088" lon="-1.29796">
        <ele>30.2</ele>
        <time>2020-06-15T18:04:51Z</time>
      </trkpt>
      <trkpt lat="49.38086" lon="-1.29792">
        <ele>30.1</ele>
        <time>2020-06-15T18:04:52Z</time>
      </trkpt>
      <trkpt lat="49.38084" lon="-1.29788">
        <ele>30.1</ele>
        <time>2020-06-15T18:04:53Z</time>
      </trkpt>
      <trkpt lat="49.38083" lon="-1.29782">
        <ele>30</ele>
        <time>2020-06-15T18:04:54Z</time>
      </trkpt>
      <trkpt lat="49.38081" lon="-1.29776">
        <ele>29.9</ele>
        <time>2020-06-15T18:04:55Z</time>
      </trkpt>
      <trkpt lat="49.38079" lon="-1.2977">
        <ele>29.8</ele>
        <time>2020-06-15T18:04:56Z</time>
      </trkpt>
      <trkpt lat="49.38078" lon="-1.29763">
        <ele>29.7</ele>
        <time>2020-06-15T18:04:57Z</time>
      </trkpt>
      <trkpt lat="49.38076" lon="-1.29756">
        <ele>29.5</ele>
        <time>2020-06-15T18:04:58Z</time>
      </trkpt>
      <trkpt lat="49.38075" lon="-1.2975">
        <ele>29.4</ele>
        <time>2020-06-15T18:04:59Z</time>
      </trkpt>
      <trkpt lat="49.38074" lon="-1.29743">
        <ele>29.3</ele>
        <time>2020-06-15T18:05:00Z</time>
      </trkpt>
      <trkpt lat="49.38072" lon="-1.29736">
        <ele>29.2</ele>
        <time>2020-06-15T18:05:01Z</time>
      </trkpt>
      <trkpt lat="49.38071" lon="-1.29729">
        <ele>29.2</ele>
        <time>2020-06-15T18:05:02Z</time>
      </trkpt>
      <trkpt lat="49.3807" lon="-1.29721">
        <ele>29.1</ele>
        <time>2020-06-15T18:05:03Z</time>
      </trkpt>
      <trkpt lat="49.38069" lon="-1.29714">
        <ele>29.1</ele>
        <time>2020-06-15T18:05:04Z</time>
      </trkpt>
      <trkpt lat="49.38069" lon="-1.29706">
        <ele>29.1</ele>
        <time>2020-06-15T18:05:05Z</time>
      </trkpt>
      <trkpt lat="49.38068" lon="-1.29697">
        <ele>29</ele>
        <time>2020-06-15T18:05:06Z</time>
      </trkpt>
      <trkpt lat="49.38068" lon="-1.29688">
        <ele>28.9</ele>
        <time>2020-06-15T18:05:07Z</time>
      </trkpt>
      <trkpt lat="49.38068" lon="-1.2968">
        <ele>28.8</ele>
        <time>2020-06-15T18:05:08Z</time>
      </trkpt>
      <trkpt lat="49.38069" lon="-1.29672">
        <ele>28.7</ele>
        <time>2020-06-15T18:05:09Z</time>
      </trkpt>
      <trkpt lat="49.3807" lon="-1.29661">
        <ele>29</ele>
        <time>2020-06-15T18:05:10Z</time>
      </trkpt>
      <trkpt lat="49.3807" lon="-1.29657">
        <ele>29</ele>
        <time>2020-06-15T18:05:11Z</time>
      </trkpt>
      <trkpt lat="49.38071" lon="-1.29649">
        <ele>29.1</ele>
        <time>2020-06-15T18:05:12Z</time>
      </trkpt>
      <trkpt lat="49.38072" lon="-1.29642">
        <ele>29.2</ele>
        <time>2020-06-15T18:05:13Z</time>
      </trkpt>
      <trkpt lat="49.38071" lon="-1.29634">
        <ele>29.3</ele>
        <time>2020-06-15T18:05:14Z</time>
      </trkpt>
      <trkpt lat="49.38071" lon="-1.29628">
        <ele>29.3</ele>
        <time>2020-06-15T18:05:15Z</time>
      </trkpt>
      <trkpt lat="49.3807" lon="-1.29621">
        <ele>29.3</ele>
        <time>2020-06-15T18:05:16Z</time>
      </trkpt>
      <trkpt lat="49.38067" lon="-1.29615">
        <ele>29.2</ele>
        <time>2020-06-15T18:05:17Z</time>
      </trkpt>
      <trkpt lat="49.38064" lon="-1.29612">
        <ele>29.2</ele>
        <time>2020-06-15T18:05:18Z</time>
      </trkpt>
      <trkpt lat="49.38058" lon="-1.29609">
        <ele>29.3</ele>
        <time>2020-06-15T18:05:19Z</time>
      </trkpt>
      <trkpt lat="49.38055" lon="-1.29608">
        <ele>29.3</ele>
        <time>2020-06-15T18:05:20Z</time>
      </trkpt>
      <trkpt lat="49.3805" lon="-1.29606">
        <ele>29.4</ele>
        <time>2020-06-15T18:05:21Z</time>
      </trkpt>
      <trkpt lat="49.38045" lon="-1.29603">
        <ele>29.4</ele>
        <time>2020-06-15T18:05:22Z</time>
      </trkpt>
      <trkpt lat="49.3804" lon="-1.29602">
        <ele>29.5</ele>
        <time>2020-06-15T18:05:23Z</time>
      </trkpt>
      <trkpt lat="49.38035" lon="-1.296">
        <ele>29.5</ele>
        <time>2020-06-15T18:05:24Z</time>
      </trkpt>
      <trkpt lat="49.3803" lon="-1.29598">
        <ele>29.6</ele>
        <time>2020-06-15T18:05:25Z</time>
      </trkpt>
      <trkpt lat="49.38024" lon="-1.29596">
        <ele>29.7</ele>
        <time>2020-06-15T18:05:26Z</time>
      </trkpt>
      <trkpt lat="49.3802" lon="-1.29593">
        <ele>29.8</ele>
        <time>2020-06-15T18:05:27Z</time>
      </trkpt>
      <trkpt lat="49.38016" lon="-1.2959">
        <ele>29.9</ele>
        <time>2020-06-15T18:05:28Z</time>
      </trkpt>
      <trkpt lat="49.38012" lon="-1.29588">
        <ele>30</ele>
        <time>2020-06-15T18:05:29Z</time>
      </trkpt>
      <trkpt lat="49.38008" lon="-1.29585">
        <ele>30.1</ele>
        <time>2020-06-15T18:05:30Z</time>
      </trkpt>
      <trkpt lat="49.38004" lon="-1.29581">
        <ele>30.2</ele>
        <time>2020-06-15T18:05:31Z</time>
      </trkpt>
      <trkpt lat="49.38001" lon="-1.29577">
        <ele>30.3</ele>
        <time>2020-06-15T18:05:32Z</time>
      </trkpt>
      <trkpt lat="49.37997" lon="-1.29573">
        <ele>30.4</ele>
        <time>2020-06-15T18:05:33Z</time>
      </trkpt>
      <trkpt lat="49.37992" lon="-1.29569">
        <ele>30.4</ele>
        <time>2020-06-15T18:05:34Z</time>
      </trkpt>
      <trkpt lat="49.37987" lon="-1.29564">
        <ele>30.4</ele>
        <time>2020-06-15T18:05:35Z</time>
      </trkpt>
      <trkpt lat="49.37983" lon="-1.2956">
        <ele>30.5</ele>
        <time>2020-06-15T18:05:36Z</time>
      </trkpt>
      <trkpt lat="49.37978" lon="-1.29556">
        <ele>30.5</ele>
        <time>2020-06-15T18:05:37Z</time>
      </trkpt>
      <trkpt lat="49.37974" lon="-1.29552">
        <ele>30.5</ele>
        <time>2020-06-15T18:05:38Z</time>
      </trkpt>
      <trkpt lat="49.37969" lon="-1.29548">
        <ele>30.5</ele>
        <time>2020-06-15T18:05:39Z</time>
      </trkpt>
      <trkpt lat="49.37966" lon="-1.29545">
        <ele>30.5</ele>
        <time>2020-06-15T18:05:40Z</time>
      </trkpt>
      <trkpt lat="49.37961" lon="-1.2954">
        <ele>30.5</ele>
        <time>2020-06-15T18:05:41Z</time>
      </trkpt>
      <trkpt lat="49.37957" lon="-1.29537">
        <ele>30.5</ele>
        <time>2020-06-15T18:05:42Z</time>
      </trkpt>
      <trkpt lat="49.37951" lon="-1.29533">
        <ele>30.5</ele>
        <time>2020-06-15T18:05:43Z</time>
      </trkpt>
      <trkpt lat="49.37946" lon="-1.29529">
        <ele>30.5</ele>
        <time>2020-06-15T18:05:44Z</time>
      </trkpt>
      <trkpt lat="49.37941" lon="-1.29526">
        <ele>30.5</ele>
        <time>2020-06-15T18:05:45Z</time>
      </trkpt>
      <trkpt lat="49.37937" lon="-1.29523">
        <ele>30.5</ele>
        <time>2020-06-15T18:05:46Z</time>
      </trkpt>
      <trkpt lat="49.37932" lon="-1.2952">
        <ele>30.5</ele>
        <time>2020-06-15T18:05:47Z</time>
      </trkpt>
      <trkpt lat="49.37926" lon="-1.29516">
        <ele>30.5</ele>
        <time>2020-06-15T18:05:48Z</time>
      </trkpt>
      <trkpt lat="49.37922" lon="-1.29513">
        <ele>30.7</ele>
        <time>2020-06-15T18:05:49Z</time>
      </trkpt>
      <trkpt lat="49.37916" lon="-1.29509">
        <ele>30.7</ele>
        <time>2020-06-15T18:05:50Z</time>
      </trkpt>
      <trkpt lat="49.37911" lon="-1.29504">
        <ele>30.7</ele>
        <time>2020-06-15T18:05:51Z</time>
      </trkpt>
      <trkpt lat="49.37905" lon="-1.295">
        <ele>30.6</ele>
        <time>2020-06-15T18:05:52Z</time>
      </trkpt>
      <trkpt lat="49.379" lon="-1.29495">
        <ele>30.6</ele>
        <time>2020-06-15T18:05:53Z</time>
      </trkpt>
      <trkpt lat="49.37895" lon="-1.2949">
        <ele>30.6</ele>
        <time>2020-06-15T18:05:54Z</time>
      </trkpt>
      <trkpt lat="49.37889" lon="-1.29486">
        <ele>30.6</ele>
        <time>2020-06-15T18:05:55Z</time>
      </trkpt>
      <trkpt lat="49.37884" lon="-1.29482">
        <ele>30.6</ele>
        <time>2020-06-15T18:05:56Z</time>
      </trkpt>
      <trkpt lat="49.37879" lon="-1.29477">
        <ele>30.6</ele>
        <time>2020-06-15T18:05:57Z</time>
      </trkpt>
      <trkpt lat="49.37873" lon="-1.29472">
        <ele>30.6</ele>
        <time>2020-06-15T18:05:58Z</time>
      </trkpt>
      <trkpt lat="49.37868" lon="-1.29468">
        <ele>30.6</ele>
        <time>2020-06-15T18:05:59Z</time>
      </trkpt>
      <trkpt lat="49.37862" lon="-1.29462">
        <ele>30.7</ele>
        <time>2020-06-15T18:06:00Z</time>
      </trkpt>
      <trkpt lat="49.37857" lon="-1.29458">
        <ele>30.7</ele>
        <time>2020-06-15T18:06:01Z</time>
      </trkpt>
      <trkpt lat="49.37852" lon="-1.29455">
        <ele>30.7</ele>
        <time>2020-06-15T18:06:02Z</time>
      </trkpt>
      <trkpt lat="49.37846" lon="-1.29451">
        <ele>30.8</ele>
        <time>2020-06-15T18:06:03Z</time>
      </trkpt>
      <trkpt lat="49.37841" lon="-1.29447">
        <ele>30.8</ele>
        <time>2020-06-15T18:06:04Z</time>
      </trkpt>
      <trkpt lat="49.37836" lon="-1.29443">
        <ele>30.8</ele>
        <time>2020-06-15T18:06:05Z</time>
      </trkpt>
      <trkpt lat="49.37831" lon="-1.29439">
        <ele>30.9</ele>
        <time>2020-06-15T18:06:06Z</time>
      </trkpt>
      <trkpt lat="49.37826" lon="-1.29436">
        <ele>30.9</ele>
        <time>2020-06-15T18:06:07Z</time>
      </trkpt>
      <trkpt lat="49.37821" lon="-1.29433">
        <ele>30.9</ele>
        <time>2020-06-15T18:06:08Z</time>
      </trkpt>
      <trkpt lat="49.37817" lon="-1.2943">
        <ele>31</ele>
        <time>2020-06-15T18:06:09Z</time>
      </trkpt>
      <trkpt lat="49.37812" lon="-1.29426">
        <ele>31</ele>
        <time>2020-06-15T18:06:10Z</time>
      </trkpt>
      <trkpt lat="49.37807" lon="-1.29422">
        <ele>31</ele>
        <time>2020-06-15T18:06:11Z</time>
      </trkpt>
      <trkpt lat="49.37802" lon="-1.29419">
        <ele>31</ele>
        <time>2020-06-15T18:06:12Z</time>
      </trkpt>
      <trkpt lat="49.37797" lon="-1.29415">
        <ele>31.1</ele>
        <time>2020-06-15T18:06:13Z</time>
      </trkpt>
      <trkpt lat="49.37792" lon="-1.29411">
        <ele>31.1</ele>
        <time>2020-06-15T18:06:14Z</time>
      </trkpt>
      <trkpt lat="49.37787" lon="-1.29408">
        <ele>31.1</ele>
        <time>2020-06-15T18:06:15Z</time>
      </trkpt>
      <trkpt lat="49.37781" lon="-1.29404">
        <ele>31.2</ele>
        <time>2020-06-15T18:06:16Z</time>
      </trkpt>
      <trkpt lat="49.37776" lon="-1.29401">
        <ele>31.2</ele>
        <time>2020-06-15T18:06:17Z</time>
      </trkpt>
      <trkpt lat="49.37771" lon="-1.29396">
        <ele>31.2</ele>
        <time>2020-06-15T18:06:18Z</time>
      </trkpt>
      <trkpt lat="49.37767" lon="-1.29392">
        <ele>31.2</ele>
        <time>2020-06-15T18:06:19Z</time>
      </trkpt>
      <trkpt lat="49.37761" lon="-1.29389">
        <ele>31.3</ele>
        <time>2020-06-15T18:06:20Z</time>
      </trkpt>
      <trkpt lat="49.37755" lon="-1.29385">
        <ele>31.3</ele>
        <time>2020-06-15T18:06:21Z</time>
      </trkpt>
      <trkpt lat="49.3775" lon="-1.29381">
        <ele>31.4</ele>
        <time>2020-06-15T18:06:22Z</time>
      </trkpt>
      <trkpt lat="49.37744" lon="-1.29378">
        <ele>31.4</ele>
        <time>2020-06-15T18:06:23Z</time>
      </trkpt>
      <trkpt lat="49.37738" lon="-1.29373">
        <ele>31.5</ele>
        <time>2020-06-15T18:06:24Z</time>
      </trkpt>
      <trkpt lat="49.37732" lon="-1.29369">
        <ele>31.5</ele>
        <time>2020-06-15T18:06:25Z</time>
      </trkpt>
      <trkpt lat="49.37726" lon="-1.29365">
        <ele>31.6</ele>
        <time>2020-06-15T18:06:26Z</time>
      </trkpt>
      <trkpt lat="49.37721" lon="-1.29361">
        <ele>31.6</ele>
        <time>2020-06-15T18:06:27Z</time>
      </trkpt>
      <trkpt lat="49.37716" lon="-1.29358">
        <ele>31.6</ele>
        <time>2020-06-15T18:06:28Z</time>
      </trkpt>
      <trkpt lat="49.37712" lon="-1.29354">
        <ele>31.6</ele>
        <time>2020-06-15T18:06:29Z</time>
      </trkpt>
      <trkpt lat="49.37706" lon="-1.29349">
        <ele>31.6</ele>
        <time>2020-06-15T18:06:30Z</time>
      </trkpt>
      <trkpt lat="49.37701" lon="-1.29345">
        <ele>31.6</ele>
        <time>2020-06-15T18:06:31Z</time>
      </trkpt>
      <trkpt lat="49.37695" lon="-1.29341">
        <ele>31.6</ele>
        <time>2020-06-15T18:06:32Z</time>
      </trkpt>
      <trkpt lat="49.3769" lon="-1.29337">
        <ele>31.7</ele>
        <time>2020-06-15T18:06:33Z</time>
      </trkpt>
      <trkpt lat="49.37684" lon="-1.29332">
        <ele>31.7</ele>
        <time>2020-06-15T18:06:34Z</time>
      </trkpt>
      <trkpt lat="49.37678" lon="-1.29328">
        <ele>31.7</ele>
        <time>2020-06-15T18:06:35Z</time>
      </trkpt>
      <trkpt lat="49.37673" lon="-1.29323">
        <ele>31.8</ele>
        <time>2020-06-15T18:06:36Z</time>
      </trkpt>
      <trkpt lat="49.37668" lon="-1.29319">
        <ele>31.8</ele>
        <time>2020-06-15T18:06:37Z</time>
      </trkpt>
      <trkpt lat="49.37663" lon="-1.29316">
        <ele>31.9</ele>
        <time>2020-06-15T18:06:38Z</time>
      </trkpt>
      <trkpt lat="49.37658" lon="-1.29311">
        <ele>31.9</ele>
        <time>2020-06-15T18:06:39Z</time>
      </trkpt>
      <trkpt lat="49.37653" lon="-1.29307">
        <ele>32</ele>
        <time>2020-06-15T18:06:40Z</time>
      </trkpt>
      <trkpt lat="49.37648" lon="-1.29302">
        <ele>32</ele>
        <time>2020-06-15T18:06:41Z</time>
      </trkpt>
      <trkpt lat="49.37643" lon="-1.29298">
        <ele>32</ele>
        <time>2020-06-15T18:06:42Z</time>
      </trkpt>
      <trkpt lat="49.37638" lon="-1.29293">
        <ele>32.1</ele>
        <time>2020-06-15T18:06:43Z</time>
      </trkpt>
      <trkpt lat="49.37633" lon="-1.29289">
        <ele>32.1</ele>
        <time>2020-06-15T18:06:44Z</time>
      </trkpt>
      <trkpt lat="49.37628" lon="-1.29285">
        <ele>32.1</ele>
        <time>2020-06-15T18:06:45Z</time>
      </trkpt>
      <trkpt lat="49.37623" lon="-1.29282">
        <ele>32.1</ele>
        <time>2020-06-15T18:06:46Z</time>
      </trkpt>
      <trkpt lat="49.37617" lon="-1.29278">
        <ele>32.1</ele>
        <time>2020-06-15T18:06:47Z</time>
      </trkpt>
      <trkpt lat="49.37612" lon="-1.29275">
        <ele>32.2</ele>
        <time>2020-06-15T18:06:48Z</time>
      </trkpt>
      <trkpt lat="49.37607" lon="-1.29271">
        <ele>32.2</ele>
        <time>2020-06-15T18:06:49Z</time>
      </trkpt>
      <trkpt lat="49.37601" lon="-1.29267">
        <ele>32.2</ele>
        <time>2020-06-15T18:06:50Z</time>
      </trkpt>
      <trkpt lat="49.37596" lon="-1.29262">
        <ele>32.3</ele>
        <time>2020-06-15T18:06:51Z</time>
      </trkpt>
      <trkpt lat="49.37591" lon="-1.29258">
        <ele>32.3</ele>
        <time>2020-06-15T18:06:52Z</time>
      </trkpt>
      <trkpt lat="49.37585" lon="-1.29253">
        <ele>32.4</ele>
        <time>2020-06-15T18:06:53Z</time>
      </trkpt>
      <trkpt lat="49.3758" lon="-1.29249">
        <ele>32.4</ele>
        <time>2020-06-15T18:06:54Z</time>
      </trkpt>
      <trkpt lat="49.37575" lon="-1.29245">
        <ele>32.5</ele>
        <time>2020-06-15T18:06:55Z</time>
      </trkpt>
      <trkpt lat="49.3757" lon="-1.29242">
        <ele>32.5</ele>
        <time>2020-06-15T18:06:56Z</time>
      </trkpt>
      <trkpt lat="49.37566" lon="-1.29239">
        <ele>32.5</ele>
        <time>2020-06-15T18:06:57Z</time>
      </trkpt>
      <trkpt lat="49.37561" lon="-1.29236">
        <ele>32.6</ele>
        <time>2020-06-15T18:06:58Z</time>
      </trkpt>
      <trkpt lat="49.37557" lon="-1.29231">
        <ele>32.6</ele>
        <time>2020-06-15T18:06:59Z</time>
      </trkpt>
      <trkpt lat="49.37553" lon="-1.29227">
        <ele>32.6</ele>
        <time>2020-06-15T18:07:00Z</time>
      </trkpt>
      <trkpt lat="49.37549" lon="-1.29223">
        <ele>32.5</ele>
        <time>2020-06-15T18:07:01Z</time>
      </trkpt>
      <trkpt lat="49.37545" lon="-1.29219">
        <ele>32.5</ele>
        <time>2020-06-15T18:07:02Z</time>
      </trkpt>
      <trkpt lat="49.37541" lon="-1.29215">
        <ele>32.5</ele>
        <time>2020-06-15T18:07:03Z</time>
      </trkpt>
      <trkpt lat="49.37536" lon="-1.29211">
        <ele>32.5</ele>
        <time>2020-06-15T18:07:04Z</time>
      </trkpt>
      <trkpt lat="49.37531" lon="-1.29207">
        <ele>32.4</ele>
        <time>2020-06-15T18:07:05Z</time>
      </trkpt>
      <trkpt lat="49.37527" lon="-1.29203">
        <ele>32.3</ele>
        <time>2020-06-15T18:07:06Z</time>
      </trkpt>
      <trkpt lat="49.37521" lon="-1.29199">
        <ele>32.3</ele>
        <time>2020-06-15T18:07:07Z</time>
      </trkpt>
      <trkpt lat="49.37516" lon="-1.29195">
        <ele>32.2</ele>
        <time>2020-06-15T18:07:08Z</time>
      </trkpt>
      <trkpt lat="49.37512" lon="-1.29191">
        <ele>32.1</ele>
        <time>2020-06-15T18:07:09Z</time>
      </trkpt>
      <trkpt lat="49.37507" lon="-1.29186">
        <ele>32</ele>
        <time>2020-06-15T18:07:10Z</time>
      </trkpt>
      <trkpt lat="49.37502" lon="-1.29181">
        <ele>31.9</ele>
        <time>2020-06-15T18:07:11Z</time>
      </trkpt>
      <trkpt lat="49.37497" lon="-1.29176">
        <ele>31.8</ele>
        <time>2020-06-15T18:07:12Z</time>
      </trkpt>
      <trkpt lat="49.37493" lon="-1.29172">
        <ele>31.7</ele>
        <time>2020-06-15T18:07:13Z</time>
      </trkpt>
      <trkpt lat="49.37489" lon="-1.29167">
        <ele>31.5</ele>
        <time>2020-06-15T18:07:14Z</time>
      </trkpt>
      <trkpt lat="49.37484" lon="-1.29162">
        <ele>31.3</ele>
        <time>2020-06-15T18:07:15Z</time>
      </trkpt>
      <trkpt lat="49.37479" lon="-1.29159">
        <ele>31.1</ele>
        <time>2020-06-15T18:07:16Z</time>
      </trkpt>
      <trkpt lat="49.37475" lon="-1.29154">
        <ele>30.9</ele>
        <time>2020-06-15T18:07:17Z</time>
      </trkpt>
      <trkpt lat="49.3747" lon="-1.2915">
        <ele>30.7</ele>
        <time>2020-06-15T18:07:18Z</time>
      </trkpt>
      <trkpt lat="49.37465" lon="-1.29146">
        <ele>30.5</ele>
        <time>2020-06-15T18:07:19Z</time>
      </trkpt>
      <trkpt lat="49.37459" lon="-1.29142">
        <ele>30.2</ele>
        <time>2020-06-15T18:07:20Z</time>
      </trkpt>
      <trkpt lat="49.37453" lon="-1.29137">
        <ele>29.9</ele>
        <time>2020-06-15T18:07:21Z</time>
      </trkpt>
      <trkpt lat="49.37447" lon="-1.29131">
        <ele>29.6</ele>
        <time>2020-06-15T18:07:22Z</time>
      </trkpt>
      <trkpt lat="49.37441" lon="-1.29126">
        <ele>29.3</ele>
        <time>2020-06-15T18:07:23Z</time>
      </trkpt>
      <trkpt lat="49.37434" lon="-1.29121">
        <ele>29</ele>
        <time>2020-06-15T18:07:24Z</time>
      </trkpt>
      <trkpt lat="49.37428" lon="-1.29116">
        <ele>28.6</ele>
        <time>2020-06-15T18:07:25Z</time>
      </trkpt>
      <trkpt lat="49.37421" lon="-1.2911">
        <ele>28.3</ele>
        <time>2020-06-15T18:07:26Z</time>
      </trkpt>
      <trkpt lat="49.37415" lon="-1.29104">
        <ele>27.9</ele>
        <time>2020-06-15T18:07:27Z</time>
      </trkpt>
      <trkpt lat="49.37408" lon="-1.29099">
        <ele>27.6</ele>
        <time>2020-06-15T18:07:28Z</time>
      </trkpt>
      <trkpt lat="49.37402" lon="-1.29093">
        <ele>27.3</ele>
        <time>2020-06-15T18:07:29Z</time>
      </trkpt>
      <trkpt lat="49.37395" lon="-1.29087">
        <ele>26.9</ele>
        <time>2020-06-15T18:07:30Z</time>
      </trkpt>
      <trkpt lat="49.37389" lon="-1.2908">
        <ele>26.6</ele>
        <time>2020-06-15T18:07:31Z</time>
      </trkpt>
      <trkpt lat="49.37382" lon="-1.29073">
        <ele>26.2</ele>
        <time>2020-06-15T18:07:32Z</time>
      </trkpt>
      <trkpt lat="49.37376" lon="-1.29065">
        <ele>25.8</ele>
        <time>2020-06-15T18:07:33Z</time>
      </trkpt>
      <trkpt lat="49.37369" lon="-1.29057">
        <ele>25.5</ele>
        <time>2020-06-15T18:07:34Z</time>
      </trkpt>
      <trkpt lat="49.37364" lon="-1.29049">
        <ele>25.2</ele>
        <time>2020-06-15T18:07:35Z</time>
      </trkpt>
      <trkpt lat="49.37358" lon="-1.29041">
        <ele>24.9</ele>
        <time>2020-06-15T18:07:36Z</time>
      </trkpt>
      <trkpt lat="49.37352" lon="-1.29032">
        <ele>24.6</ele>
        <time>2020-06-15T18:07:37Z</time>
      </trkpt>
      <trkpt lat="49.37346" lon="-1.29023">
        <ele>24.3</ele>
        <time>2020-06-15T18:07:38Z</time>
      </trkpt>
      <trkpt lat="49.3734" lon="-1.29014">
        <ele>23.9</ele>
        <time>2020-06-15T18:07:39Z</time>
      </trkpt>
      <trkpt lat="49.37334" lon="-1.29005">
        <ele>23.6</ele>
        <time>2020-06-15T18:07:40Z</time>
      </trkpt>
      <trkpt lat="49.37328" lon="-1.28996">
        <ele>23.3</ele>
        <time>2020-06-15T18:07:41Z</time>
      </trkpt>
      <trkpt lat="49.37323" lon="-1.28987">
        <ele>23.1</ele>
        <time>2020-06-15T18:07:42Z</time>
      </trkpt>
      <trkpt lat="49.37318" lon="-1.28977">
        <ele>22.8</ele>
        <time>2020-06-15T18:07:43Z</time>
      </trkpt>
      <trkpt lat="49.37312" lon="-1.28967">
        <ele>22.5</ele>
        <time>2020-06-15T18:07:44Z</time>
      </trkpt>
      <trkpt lat="49.37306" lon="-1.28958">
        <ele>22.3</ele>
        <time>2020-06-15T18:07:45Z</time>
      </trkpt>
      <trkpt lat="49.373" lon="-1.2895">
        <ele>22</ele>
        <time>2020-06-15T18:07:46Z</time>
      </trkpt>
      <trkpt lat="49.37294" lon="-1.28942">
        <ele>21.8</ele>
        <time>2020-06-15T18:07:47Z</time>
      </trkpt>
      <trkpt lat="49.37288" lon="-1.28934">
        <ele>21.5</ele>
        <time>2020-06-15T18:07:48Z</time>
      </trkpt>
      <trkpt lat="49.37282" lon="-1.28926">
        <ele>21.2</ele>
        <time>2020-06-15T18:07:49Z</time>
      </trkpt>
      <trkpt lat="49.37276" lon="-1.28918">
        <ele>21</ele>
        <time>2020-06-15T18:07:50Z</time>
      </trkpt>
      <trkpt lat="49.37269" lon="-1.28911">
        <ele>20.7</ele>
        <time>2020-06-15T18:07:51Z</time>
      </trkpt>
      <trkpt lat="49.37262" lon="-1.28904">
        <ele>20.3</ele>
        <time>2020-06-15T18:07:52Z</time>
      </trkpt>
      <trkpt lat="49.37255" lon="-1.28897">
        <ele>19.9</ele>
        <time>2020-06-15T18:07:53Z</time>
      </trkpt>
      <trkpt lat="49.37249" lon="-1.2889">
        <ele>19.6</ele>
        <time>2020-06-15T18:07:54Z</time>
      </trkpt>
      <trkpt lat="49.37242" lon="-1.28883">
        <ele>19.2</ele>
        <time>2020-06-15T18:07:55Z</time>
      </trkpt>
      <trkpt lat="49.37236" lon="-1.28876">
        <ele>18.9</ele>
        <time>2020-06-15T18:07:56Z</time>
      </trkpt>
      <trkpt lat="49.37229" lon="-1.28868">
        <ele>18.6</ele>
        <time>2020-06-15T18:07:57Z</time>
      </trkpt>
      <trkpt lat="49.37223" lon="-1.28862">
        <ele>18.3</ele>
        <time>2020-06-15T18:07:58Z</time>
      </trkpt>
      <trkpt lat="49.37216" lon="-1.28854">
        <ele>18</ele>
        <time>2020-06-15T18:07:59Z</time>
      </trkpt>
      <trkpt lat="49.3721" lon="-1.28846">
        <ele>17.7</ele>
        <time>2020-06-15T18:08:00Z</time>
      </trkpt>
      <trkpt lat="49.37203" lon="-1.28838">
        <ele>17.3</ele>
        <time>2020-06-15T18:08:01Z</time>
      </trkpt>
      <trkpt lat="49.37197" lon="-1.2883">
        <ele>17</ele>
        <time>2020-06-15T18:08:02Z</time>
      </trkpt>
      <trkpt lat="49.3719" lon="-1.28822">
        <ele>16.7</ele>
        <time>2020-06-15T18:08:03Z</time>
      </trkpt>
      <trkpt lat="49.37184" lon="-1.28814">
        <ele>16.3</ele>
        <time>2020-06-15T18:08:04Z</time>
      </trkpt>
      <trkpt lat="49.37177" lon="-1.28805">
        <ele>15.9</ele>
        <time>2020-06-15T18:08:05Z</time>
      </trkpt>
      <trkpt lat="49.3717" lon="-1.28797">
        <ele>15.4</ele>
        <time>2020-06-15T18:08:06Z</time>
      </trkpt>
      <trkpt lat="49.37164" lon="-1.28789">
        <ele>14.9</ele>
        <time>2020-06-15T18:08:07Z</time>
      </trkpt>
      <trkpt lat="49.37158" lon="-1.2878">
        <ele>14.5</ele>
        <time>2020-06-15T18:08:08Z</time>
      </trkpt>
      <trkpt lat="49.37152" lon="-1.28771">
        <ele>14</ele>
        <time>2020-06-15T18:08:09Z</time>
      </trkpt>
      <trkpt lat="49.37145" lon="-1.28762">
        <ele>13.5</ele>
        <time>2020-06-15T18:08:10Z</time>
      </trkpt>
      <trkpt lat="49.37139" lon="-1.28753">
        <ele>13.1</ele>
        <time>2020-06-15T18:08:11Z</time>
      </trkpt>
      <trkpt lat="49.37133" lon="-1.28744">
        <ele>12.6</ele>
        <time>2020-06-15T18:08:12Z</time>
      </trkpt>
      <trkpt lat="49.37126" lon="-1.28735">
        <ele>12.1</ele>
        <time>2020-06-15T18:08:13Z</time>
      </trkpt>
      <trkpt lat="49.37119" lon="-1.28726">
        <ele>11.7</ele>
        <time>2020-06-15T18:08:14Z</time>
      </trkpt>
      <trkpt lat="49.37112" lon="-1.28717">
        <ele>11.3</ele>
        <time>2020-06-15T18:08:15Z</time>
      </trkpt>
      <trkpt lat="49.37105" lon="-1.28708">
        <ele>10.9</ele>
        <time>2020-06-15T18:08:16Z</time>
      </trkpt>
      <trkpt lat="49.37098" lon="-1.28699">
        <ele>10.7</ele>
        <time>2020-06-15T18:08:17Z</time>
      </trkpt>
      <trkpt lat="49.3709" lon="-1.2869">
        <ele>10.4</ele>
        <time>2020-06-15T18:08:18Z</time>
      </trkpt>
      <trkpt lat="49.37083" lon="-1.28682">
        <ele>10.3</ele>
        <time>2020-06-15T18:08:19Z</time>
      </trkpt>
      <trkpt lat="49.37076" lon="-1.28674">
        <ele>10.2</ele>
        <time>2020-06-15T18:08:20Z</time>
      </trkpt>
      <trkpt lat="49.37069" lon="-1.28666">
        <ele>10.3</ele>
        <time>2020-06-15T18:08:21Z</time>
      </trkpt>
      <trkpt lat="49.37063" lon="-1.28658">
        <ele>10.4</ele>
        <time>2020-06-15T18:08:22Z</time>
      </trkpt>
      <trkpt lat="49.37056" lon="-1.28651">
        <ele>10.5</ele>
        <time>2020-06-15T18:08:23Z</time>
      </trkpt>
      <trkpt lat="49.3705" lon="-1.28643">
        <ele>10.5</ele>
        <time>2020-06-15T18:08:24Z</time>
      </trkpt>
      <trkpt lat="49.37044" lon="-1.28635">
        <ele>10.6</ele>
        <time>2020-06-15T18:08:25Z</time>
      </trkpt>
      <trkpt lat="49.37038" lon="-1.28628">
        <ele>10.7</ele>
        <time>2020-06-15T18:08:26Z</time>
      </trkpt>
      <trkpt lat="49.37032" lon="-1.28621">
        <ele>10.8</ele>
        <time>2020-06-15T18:08:27Z</time>
      </trkpt>
      <trkpt lat="49.37027" lon="-1.28614">
        <ele>10.9</ele>
        <time>2020-06-15T18:08:28Z</time>
      </trkpt>
      <trkpt lat="49.37021" lon="-1.28608">
        <ele>11</ele>
        <time>2020-06-15T18:08:29Z</time>
      </trkpt>
      <trkpt lat="49.37016" lon="-1.28602">
        <ele>11</ele>
        <time>2020-06-15T18:08:30Z</time>
      </trkpt>
      <trkpt lat="49.37011" lon="-1.28594">
        <ele>11</ele>
        <time>2020-06-15T18:08:31Z</time>
      </trkpt>
      <trkpt lat="49.37006" lon="-1.28587">
        <ele>11.1</ele>
        <time>2020-06-15T18:08:32Z</time>
      </trkpt>
      <trkpt lat="49.37002" lon="-1.2858">
        <ele>11.1</ele>
        <time>2020-06-15T18:08:33Z</time>
      </trkpt>
      <trkpt lat="49.36997" lon="-1.28574">
        <ele>11.1</ele>
        <time>2020-06-15T18:08:34Z</time>
      </trkpt>
      <trkpt lat="49.36992" lon="-1.28568">
        <ele>11</ele>
        <time>2020-06-15T18:08:35Z</time>
      </trkpt>
      <trkpt lat="49.36988" lon="-1.28562">
        <ele>11</ele>
        <time>2020-06-15T18:08:36Z</time>
      </trkpt>
      <trkpt lat="49.36984" lon="-1.28557">
        <ele>11</ele>
        <time>2020-06-15T18:08:37Z</time>
      </trkpt>
      <trkpt lat="49.3698" lon="-1.28552">
        <ele>11</ele>
        <time>2020-06-15T18:08:38Z</time>
      </trkpt>
      <trkpt lat="49.36975" lon="-1.28547">
        <ele>10.9</ele>
        <time>2020-06-15T18:08:39Z</time>
      </trkpt>
      <trkpt lat="49.36971" lon="-1.28541">
        <ele>10.9</ele>
        <time>2020-06-15T18:08:40Z</time>
      </trkpt>
      <trkpt lat="49.36966" lon="-1.28535">
        <ele>10.9</ele>
        <time>2020-06-15T18:08:41Z</time>
      </trkpt>
      <trkpt lat="49.36961" lon="-1.2853">
        <ele>10.9</ele>
        <time>2020-06-15T18:08:42Z</time>
      </trkpt>
      <trkpt lat="49.36957" lon="-1.28524">
        <ele>10.9</ele>
        <time>2020-06-15T18:08:43Z</time>
      </trkpt>
      <trkpt lat="49.36953" lon="-1.28518">
        <ele>10.8</ele>
        <time>2020-06-15T18:08:44Z</time>
      </trkpt>
      <trkpt lat="49.36949" lon="-1.28514">
        <ele>10.8</ele>
        <time>2020-06-15T18:08:45Z</time>
      </trkpt>
      <trkpt lat="49.36944" lon="-1.28508">
        <ele>10.8</ele>
        <time>2020-06-15T18:08:46Z</time>
      </trkpt>
      <trkpt lat="49.3694" lon="-1.28503">
        <ele>10.7</ele>
        <time>2020-06-15T18:08:47Z</time>
      </trkpt>
      <trkpt lat="49.36936" lon="-1.28497">
        <ele>10.7</ele>
        <time>2020-06-15T18:08:48Z</time>
      </trkpt>
      <trkpt lat="49.36932" lon="-1.28492">
        <ele>10.6</ele>
        <time>2020-06-15T18:08:49Z</time>
      </trkpt>
      <trkpt lat="49.36928" lon="-1.28486">
        <ele>10.5</ele>
        <time>2020-06-15T18:08:50Z</time>
      </trkpt>
      <trkpt lat="49.36923" lon="-1.28481">
        <ele>10.5</ele>
        <time>2020-06-15T18:08:51Z</time>
      </trkpt>
      <trkpt lat="49.3692" lon="-1.28476">
        <ele>10.4</ele>
        <time>2020-06-15T18:08:52Z</time>
      </trkpt>
      <trkpt lat="49.36916" lon="-1.2847">
        <ele>10.4</ele>
        <time>2020-06-15T18:08:53Z</time>
      </trkpt>
      <trkpt lat="49.36912" lon="-1.28464">
        <ele>10.3</ele>
        <time>2020-06-15T18:08:54Z</time>
      </trkpt>
      <trkpt lat="49.36908" lon="-1.28459">
        <ele>10.2</ele>
        <time>2020-06-15T18:08:55Z</time>
      </trkpt>
      <trkpt lat="49.36903" lon="-1.28453">
        <ele>10.2</ele>
        <time>2020-06-15T18:08:56Z</time>
      </trkpt>
      <trkpt lat="49.36899" lon="-1.28448">
        <ele>10.1</ele>
        <time>2020-06-15T18:08:57Z</time>
      </trkpt>
      <trkpt lat="49.36896" lon="-1.28443">
        <ele>10.1</ele>
        <time>2020-06-15T18:08:58Z</time>
      </trkpt>
      <trkpt lat="49.36892" lon="-1.28437">
        <ele>10.1</ele>
        <time>2020-06-15T18:08:59Z</time>
      </trkpt>
      <trkpt lat="49.36889" lon="-1.28432">
        <ele>10</ele>
        <time>2020-06-15T18:09:00Z</time>
      </trkpt>
      <trkpt lat="49.36885" lon="-1.28428">
        <ele>10</ele>
        <time>2020-06-15T18:09:01Z</time>
      </trkpt>
      <trkpt lat="49.36881" lon="-1.28423">
        <ele>10</ele>
        <time>2020-06-15T18:09:02Z</time>
      </trkpt>
      <trkpt lat="49.36878" lon="-1.28418">
        <ele>9.9</ele>
        <time>2020-06-15T18:09:03Z</time>
      </trkpt>
      <trkpt lat="49.36873" lon="-1.28413">
        <ele>9.9</ele>
        <time>2020-06-15T18:09:04Z</time>
      </trkpt>
      <trkpt lat="49.3687" lon="-1.28409">
        <ele>9.9</ele>
        <time>2020-06-15T18:09:05Z</time>
      </trkpt>
      <trkpt lat="49.36867" lon="-1.28406">
        <ele>9.9</ele>
        <time>2020-06-15T18:09:06Z</time>
      </trkpt>
      <trkpt lat="49.36863" lon="-1.28401">
        <ele>9.8</ele>
        <time>2020-06-15T18:09:07Z</time>
      </trkpt>
      <trkpt lat="49.36858" lon="-1.28395">
        <ele>9.8</ele>
        <time>2020-06-15T18:09:08Z</time>
      </trkpt>
      <trkpt lat="49.36855" lon="-1.28391">
        <ele>9.8</ele>
        <time>2020-06-15T18:09:09Z</time>
      </trkpt>
      <trkpt lat="49.36851" lon="-1.28387">
        <ele>9.8</ele>
        <time>2020-06-15T18:09:10Z</time>
      </trkpt>
      <trkpt lat="49.36847" lon="-1.28381">
        <ele>9.9</ele>
        <time>2020-06-15T18:09:11Z</time>
      </trkpt>
      <trkpt lat="49.36843" lon="-1.28377">
        <ele>9.9</ele>
        <time>2020-06-15T18:09:12Z</time>
      </trkpt>
      <trkpt lat="49.36839" lon="-1.28373">
        <ele>9.9</ele>
        <time>2020-06-15T18:09:13Z</time>
      </trkpt>
      <trkpt lat="49.36835" lon="-1.28368">
        <ele>10</ele>
        <time>2020-06-15T18:09:14Z</time>
      </trkpt>
      <trkpt lat="49.3683" lon="-1.28362">
        <ele>10</ele>
        <time>2020-06-15T18:09:15Z</time>
      </trkpt>
      <trkpt lat="49.36826" lon="-1.28357">
        <ele>10.1</ele>
        <time>2020-06-15T18:09:16Z</time>
      </trkpt>
      <trkpt lat="49.36822" lon="-1.28352">
        <ele>10.1</ele>
        <time>2020-06-15T18:09:17Z</time>
      </trkpt>
      <trkpt lat="49.36817" lon="-1.28347">
        <ele>10.2</ele>
        <time>2020-06-15T18:09:18Z</time>
      </trkpt>
      <trkpt lat="49.36814" lon="-1.28342">
        <ele>10.2</ele>
        <time>2020-06-15T18:09:19Z</time>
      </trkpt>
      <trkpt lat="49.36811" lon="-1.28338">
        <ele>10.3</ele>
        <time>2020-06-15T18:09:20Z</time>
      </trkpt>
      <trkpt lat="49.36807" lon="-1.28334">
        <ele>10.3</ele>
        <time>2020-06-15T18:09:21Z</time>
      </trkpt>
      <trkpt lat="49.36805" lon="-1.2833">
        <ele>10.4</ele>
        <time>2020-06-15T18:09:22Z</time>
      </trkpt>
      <trkpt lat="49.36803" lon="-1.28326">
        <ele>10.4</ele>
        <time>2020-06-15T18:09:23Z</time>
      </trkpt>
      <trkpt lat="49.36802" lon="-1.28322">
        <ele>10.4</ele>
        <time>2020-06-15T18:09:24Z</time>
      </trkpt>
      <trkpt lat="49.36802" lon="-1.28321">
        <ele>10.4</ele>
        <time>2020-06-15T18:09:25Z</time>
      </trkpt>
      <trkpt lat="49.36804" lon="-1.28321">
        <ele>10.4</ele>
        <time>2020-06-15T18:09:26Z</time>
      </trkpt>
      <trkpt lat="49.36805" lon="-1.28322">
        <ele>10.3</ele>
        <time>2020-06-15T18:09:27Z</time>
      </trkpt>
      <trkpt lat="49.36806" lon="-1.28322">
        <ele>10.3</ele>
        <time>2020-06-15T18:09:28Z</time>
      </trkpt>
      <trkpt lat="49.3681" lon="-1.28325">
        <ele>10.3</ele>
        <time>2020-06-15T18:09:29Z</time>
      </trkpt>
      <trkpt lat="49.36811" lon="-1.28326">
        <ele>10.3</ele>
        <time>2020-06-15T18:09:30Z</time>
      </trkpt>
      <trkpt lat="49.36813" lon="-1.28329">
        <ele>10.3</ele>
        <time>2020-06-15T18:09:31Z</time>
      </trkpt>
      <trkpt lat="49.36816" lon="-1.28332">
        <ele>10.3</ele>
        <time>2020-06-15T18:09:32Z</time>
      </trkpt>
      <trkpt lat="49.36817" lon="-1.28334">
        <ele>10.3</ele>
        <time>2020-06-15T18:09:33Z</time>
      </trkpt>
      <trkpt lat="49.36819" lon="-1.28337">
        <ele>10.3</ele>
        <time>2020-06-15T18:09:34Z</time>
      </trkpt>
      <trkpt lat="49.3682" lon="-1.28339">
        <ele>10.3</ele>
        <time>2020-06-15T18:09:35Z</time>
      </trkpt>
      <trkpt lat="49.36823" lon="-1.28341">
        <ele>10.3</ele>
        <time>2020-06-15T18:09:36Z</time>
      </trkpt>
      <trkpt lat="49.36823" lon="-1.28342">
        <ele>10.3</ele>
        <time>2020-06-15T18:09:37Z</time>
      </trkpt>
      <trkpt lat="49.36824" lon="-1.28344">
        <ele>10.3</ele>
        <time>2020-06-15T18:09:38Z</time>
      </trkpt>
      <trkpt lat="49.36826" lon="-1.28346">
        <ele>10.3</ele>
        <time>2020-06-15T18:09:39Z</time>
      </trkpt>
      <trkpt lat="49.36826" lon="-1.28348">
        <ele>10.3</ele>
        <time>2020-06-15T18:09:40Z</time>
      </trkpt>
      <trkpt lat="49.36827" lon="-1.28351">
        <ele>10.2</ele>
        <time>2020-06-15T18:09:41Z</time>
      </trkpt>
      <trkpt lat="49.36827" lon="-1.28353">
        <ele>10.2</ele>
        <time>2020-06-15T18:09:42Z</time>
      </trkpt>
      <trkpt lat="49.36827" lon="-1.28356">
        <ele>10.2</ele>
        <time>2020-06-15T18:09:43Z</time>
      </trkpt>
      <trkpt lat="49.36828" lon="-1.28358">
        <ele>10.2</ele>
        <time>2020-06-15T18:09:44Z</time>
      </trkpt>
      <trkpt lat="49.36829" lon="-1.2836">
        <ele>10.2</ele>
        <time>2020-06-15T18:09:45Z</time>
      </trkpt>
      <trkpt lat="49.36831" lon="-1.28364">
        <ele>10.2</ele>
        <time>2020-06-15T18:09:46Z</time>
      </trkpt>
      <trkpt lat="49.36831" lon="-1.28366">
        <ele>10.2</ele>
        <time>2020-06-15T18:09:47Z</time>
      </trkpt>
      <trkpt lat="49.36833" lon="-1.2837">
        <ele>10.2</ele>
        <time>2020-06-15T18:09:48Z</time>
      </trkpt>
      <trkpt lat="49.36833" lon="-1.28371">
        <ele>10.2</ele>
        <time>2020-06-15T18:09:49Z</time>
      </trkpt>
      <trkpt lat="49.36834" lon="-1.28372">
        <ele>10.2</ele>
        <time>2020-06-15T18:09:50Z</time>
      </trkpt>
      <trkpt lat="49.36833" lon="-1.28373">
        <ele>10.2</ele>
        <time>2020-06-15T18:09:51Z</time>
      </trkpt>
      <trkpt lat="49.36834" lon="-1.28372">
        <ele>10.2</ele>
        <time>2020-06-15T18:09:52Z</time>
      </trkpt>
      <trkpt lat="49.36834" lon="-1.28372">
        <ele>10.2</ele>
        <time>2020-06-15T18:09:53Z</time>
      </trkpt>
      <trkpt lat="49.36835" lon="-1.28372">
        <ele>10.2</ele>
        <time>2020-06-15T18:09:54Z</time>
      </trkpt>
      <trkpt lat="49.36835" lon="-1.28372">
        <ele>10.2</ele>
        <time>2020-06-15T18:09:55Z</time>
      </trkpt>
      <trkpt lat="49.36836" lon="-1.28372">
        <ele>10.2</ele>
        <time>2020-06-15T18:09:56Z</time>
      </trkpt>
      <trkpt lat="49.36836" lon="-1.28372">
        <ele>10.2</ele>
        <time>2020-06-15T18:09:57Z</time>
      </trkpt>
      <trkpt lat="49.36836" lon="-1.28372">
        <ele>10.2</ele>
        <time>2020-06-15T18:09:58Z</time>
      </trkpt>
      <trkpt lat="49.36836" lon="-1.28372">
        <ele>10.2</ele>
        <time>2020-06-15T18:09:59Z</time>
      </trkpt>
      <trkpt lat="49.36836" lon="-1.28372">
        <ele>10.2</ele>
        <time>2020-06-15T18:10:00Z</time>
      </trkpt>
      <trkpt lat="49.36836" lon="-1.28373">
        <ele>10.2</ele>
        <time>2020-06-15T18:10:01Z</time>
      </trkpt>
      <trkpt lat="49.36836" lon="-1.28373">
        <ele>10.2</ele>
        <time>2020-06-15T18:10:02Z</time>
      </trkpt>
      <trkpt lat="49.36836" lon="-1.28386">
        <ele>10.1</ele>
        <time>2020-06-15T18:14:20Z</time>
      </trkpt>
      <trkpt lat="49.36837" lon="-1.28387">
        <ele>10.1</ele>
        <time>2020-06-15T18:14:21Z</time>
      </trkpt>
      <trkpt lat="49.36838" lon="-1.28388">
        <ele>10.1</ele>
        <time>2020-06-15T18:14:22Z</time>
      </trkpt>
      <trkpt lat="49.36838" lon="-1.28389">
        <ele>10.1</ele>
        <time>2020-06-15T18:14:23Z</time>
      </trkpt>
      <trkpt lat="49.36838" lon="-1.28391">
        <ele>10.1</ele>
        <time>2020-06-15T18:14:24Z</time>
      </trkpt>
      <trkpt lat="49.36837" lon="-1.28392">
        <ele>10.1</ele>
        <time>2020-06-15T18:14:25Z</time>
      </trkpt>
      <trkpt lat="49.36836" lon="-1.28393">
        <ele>10.1</ele>
        <time>2020-06-15T18:14:26Z</time>
      </trkpt>
      <trkpt lat="49.36835" lon="-1.28395">
        <ele>10.1</ele>
        <time>2020-06-15T18:14:27Z</time>
      </trkpt>
      <trkpt lat="49.36833" lon="-1.28396">
        <ele>10.1</ele>
        <time>2020-06-15T18:14:28Z</time>
      </trkpt>
      <trkpt lat="49.36832" lon="-1.28398">
        <ele>10.1</ele>
        <time>2020-06-15T18:14:29Z</time>
      </trkpt>
      <trkpt lat="49.36831" lon="-1.284">
        <ele>10.1</ele>
        <time>2020-06-15T18:14:30Z</time>
      </trkpt>
      <trkpt lat="49.36829" lon="-1.28401">
        <ele>10.1</ele>
        <time>2020-06-15T18:14:31Z</time>
      </trkpt>
      <trkpt lat="49.36828" lon="-1.28402">
        <ele>10.1</ele>
        <time>2020-06-15T18:14:32Z</time>
      </trkpt>
      <trkpt lat="49.36827" lon="-1.28403">
        <ele>10.1</ele>
        <time>2020-06-15T18:14:33Z</time>
      </trkpt>
      <trkpt lat="49.36826" lon="-1.28405">
        <ele>10.1</ele>
        <time>2020-06-15T18:14:34Z</time>
      </trkpt>
      <trkpt lat="49.36826" lon="-1.28406">
        <ele>10.1</ele>
        <time>2020-06-15T18:14:35Z</time>
      </trkpt>
      <trkpt lat="49.36825" lon="-1.28408">
        <ele>10.1</ele>
        <time>2020-06-15T18:14:36Z</time>
      </trkpt>
      <trkpt lat="49.36825" lon="-1.28409">
        <ele>10.1</ele>
        <time>2020-06-15T18:14:37Z</time>
      </trkpt>
      <trkpt lat="49.36824" lon="-1.2841">
        <ele>10</ele>
        <time>2020-06-15T18:14:38Z</time>
      </trkpt>
      <trkpt lat="49.36824" lon="-1.28411">
        <ele>10</ele>
        <time>2020-06-15T18:14:39Z</time>
      </trkpt>
      <trkpt lat="49.36822" lon="-1.28413">
        <ele>10</ele>
        <time>2020-06-15T18:14:40Z</time>
      </trkpt>
      <trkpt lat="49.36822" lon="-1.28414">
        <ele>10</ele>
        <time>2020-06-15T18:14:41Z</time>
      </trkpt>
      <trkpt lat="49.36821" lon="-1.28415">
        <ele>10</ele>
        <time>2020-06-15T18:14:42Z</time>
      </trkpt>
      <trkpt lat="49.3682" lon="-1.28418">
        <ele>10</ele>
        <time>2020-06-15T18:14:43Z</time>
      </trkpt>
      <trkpt lat="49.3682" lon="-1.28419">
        <ele>10</ele>
        <time>2020-06-15T18:14:44Z</time>
      </trkpt>
      <trkpt lat="49.36819" lon="-1.28421">
        <ele>10</ele>
        <time>2020-06-15T18:14:45Z</time>
      </trkpt>
      <trkpt lat="49.36818" lon="-1.28423">
        <ele>10</ele>
        <time>2020-06-15T18:14:46Z</time>
      </trkpt>
      <trkpt lat="49.36817" lon="-1.28425">
        <ele>10</ele>
        <time>2020-06-15T18:14:47Z</time>
      </trkpt>
      <trkpt lat="49.36817" lon="-1.28426">
        <ele>10</ele>
        <time>2020-06-15T18:14:48Z</time>
      </trkpt>
      <trkpt lat="49.36816" lon="-1.28427">
        <ele>10</ele>
        <time>2020-06-15T18:14:49Z</time>
      </trkpt>
      <trkpt lat="49.36816" lon="-1.28427">
        <ele>10</ele>
        <time>2020-06-15T18:14:50Z</time>
      </trkpt>
      <trkpt lat="49.36815" lon="-1.28426">
        <ele>10</ele>
        <time>2020-06-15T18:14:51Z</time>
      </trkpt>
      <trkpt lat="49.36815" lon="-1.28426">
        <ele>10</ele>
        <time>2020-06-15T18:14:52Z</time>
      </trkpt>
      <trkpt lat="49.36815" lon="-1.28426">
        <ele>10</ele>
        <time>2020-06-15T18:14:53Z</time>
      </trkpt>
      <trkpt lat="49.36815" lon="-1.28426">
        <ele>10</ele>
        <time>2020-06-15T18:14:54Z</time>
      </trkpt>
      <trkpt lat="49.36815" lon="-1.28426">
        <ele>10</ele>
        <time>2020-06-15T18:14:55Z</time>
      </trkpt>
      <trkpt lat="49.36815" lon="-1.28426">
        <ele>10</ele>
        <time>2020-06-15T18:14:56Z</time>
      </trkpt>
      <trkpt lat="49.36814" lon="-1.28426">
        <ele>10</ele>
        <time>2020-06-15T18:14:57Z</time>
      </trkpt>
      <trkpt lat="49.36814" lon="-1.28426">
        <ele>10</ele>
        <time>2020-06-15T18:14:58Z</time>
      </trkpt>
      <trkpt lat="49.36813" lon="-1.28427">
        <ele>10</ele>
        <time>2020-06-15T18:14:59Z</time>
      </trkpt>
      <trkpt lat="49.36814" lon="-1.2843">
        <ele>10</ele>
        <time>2020-06-15T18:16:28Z</time>
      </trkpt>
      <trkpt lat="49.36815" lon="-1.2843">
        <ele>10</ele>
        <time>2020-06-15T18:16:29Z</time>
      </trkpt>
      <trkpt lat="49.36815" lon="-1.2843">
        <ele>10</ele>
        <time>2020-06-15T18:16:30Z</time>
      </trkpt>
      <trkpt lat="49.36816" lon="-1.2843">
        <ele>10</ele>
        <time>2020-06-15T18:16:31Z</time>
      </trkpt>
      <trkpt lat="49.36816" lon="-1.2843">
        <ele>10</ele>
        <time>2020-06-15T18:16:32Z</time>
      </trkpt>
      <trkpt lat="49.36816" lon="-1.2843">
        <ele>10</ele>
        <time>2020-06-15T18:16:33Z</time>
      </trkpt>
      <trkpt lat="49.36816" lon="-1.2843">
        <ele>10</ele>
        <time>2020-06-15T18:16:34Z</time>
      </trkpt>
      <trkpt lat="49.36816" lon="-1.28429">
        <ele>10</ele>
        <time>2020-06-15T18:16:35Z</time>
      </trkpt>
      <trkpt lat="49.36817" lon="-1.2843">
        <ele>10</ele>
        <time>2020-06-15T18:16:36Z</time>
      </trkpt>
      <trkpt lat="49.36817" lon="-1.2843">
        <ele>10</ele>
        <time>2020-06-15T18:16:37Z</time>
      </trkpt>
      <trkpt lat="49.36816" lon="-1.2843">
        <ele>10</ele>
        <time>2020-06-15T18:16:38Z</time>
      </trkpt>
      <trkpt lat="49.36817" lon="-1.28431">
        <ele>10</ele>
        <time>2020-06-15T18:16:39Z</time>
      </trkpt>
      <trkpt lat="49.36807" lon="-1.28428">
        <ele>10</ele>
        <time>2020-06-15T18:17:15Z</time>
      </trkpt>
      <trkpt lat="49.36806" lon="-1.2843">
        <ele>10</ele>
        <time>2020-06-15T18:17:16Z</time>
      </trkpt>
      <trkpt lat="49.36805" lon="-1.28431">
        <ele>10</ele>
        <time>2020-06-15T18:17:17Z</time>
      </trkpt>
      <trkpt lat="49.36805" lon="-1.28433">
        <ele>10</ele>
        <time>2020-06-15T18:17:18Z</time>
      </trkpt>
      <trkpt lat="49.36805" lon="-1.28433">
        <ele>10</ele>
        <time>2020-06-15T18:17:19Z</time>
      </trkpt>
      <trkpt lat="49.36805" lon="-1.28433">
        <ele>9.9</ele>
        <time>2020-06-15T18:17:20Z</time>
      </trkpt>
      <trkpt lat="49.36805" lon="-1.28434">
        <ele>9.9</ele>
        <time>2020-06-15T18:17:21Z</time>
      </trkpt>
      <trkpt lat="49.36804" lon="-1.28436">
        <ele>9.9</ele>
        <time>2020-06-15T18:17:22Z</time>
      </trkpt>
      <trkpt lat="49.36804" lon="-1.28438">
        <ele>9.9</ele>
        <time>2020-06-15T18:17:23Z</time>
      </trkpt>
      <trkpt lat="49.36804" lon="-1.28439">
        <ele>9.9</ele>
        <time>2020-06-15T18:17:24Z</time>
      </trkpt>
      <trkpt lat="49.36804" lon="-1.28441">
        <ele>9.9</ele>
        <time>2020-06-15T18:17:25Z</time>
      </trkpt>
      <trkpt lat="49.36803" lon="-1.28442">
        <ele>9.9</ele>
        <time>2020-06-15T18:17:26Z</time>
      </trkpt>
      <trkpt lat="49.36802" lon="-1.28443">
        <ele>9.9</ele>
        <time>2020-06-15T18:17:27Z</time>
      </trkpt>
      <trkpt lat="49.36802" lon="-1.28444">
        <ele>9.9</ele>
        <time>2020-06-15T18:17:28Z</time>
      </trkpt>
      <trkpt lat="49.36801" lon="-1.28445">
        <ele>9.9</ele>
        <time>2020-06-15T18:17:29Z</time>
      </trkpt>
      <trkpt lat="49.368" lon="-1.28446">
        <ele>9.9</ele>
        <time>2020-06-15T18:17:30Z</time>
      </trkpt>
      <trkpt lat="49.36799" lon="-1.28446">
        <ele>9.9</ele>
        <time>2020-06-15T18:17:31Z</time>
      </trkpt>
      <trkpt lat="49.36799" lon="-1.28447">
        <ele>9.9</ele>
        <time>2020-06-15T18:17:32Z</time>
      </trkpt>
      <trkpt lat="49.36799" lon="-1.28448">
        <ele>9.9</ele>
        <time>2020-06-15T18:17:33Z</time>
      </trkpt>
      <trkpt lat="49.36799" lon="-1.28448">
        <ele>9.9</ele>
        <time>2020-06-15T18:17:34Z</time>
      </trkpt>
      <trkpt lat="49.36799" lon="-1.28448">
        <ele>9.9</ele>
        <time>2020-06-15T18:17:35Z</time>
      </trkpt>
      <trkpt lat="49.36799" lon="-1.28449">
        <ele>9.9</ele>
        <time>2020-06-15T18:17:36Z</time>
      </trkpt>
      <trkpt lat="49.36799" lon="-1.28449">
        <ele>9.9</ele>
        <time>2020-06-15T18:17:37Z</time>
      </trkpt>
      <trkpt lat="49.36799" lon="-1.28449">
        <ele>9.9</ele>
        <time>2020-06-15T18:17:38Z</time>
      </trkpt>
      <trkpt lat="49.36799" lon="-1.28449">
        <ele>9.9</ele>
        <time>2020-06-15T18:17:39Z</time>
      </trkpt>
      <trkpt lat="49.36799" lon="-1.28449">
        <ele>9.9</ele>
        <time>2020-06-15T18:17:40Z</time>
      </trkpt>
      <trkpt lat="49.36798" lon="-1.28449">
        <ele>9.9</ele>
        <time>2020-06-15T18:17:41Z</time>
      </trkpt>
      <trkpt lat="49.36798" lon="-1.28449">
        <ele>9.9</ele>
        <time>2020-06-15T18:17:42Z</time>
      </trkpt>
      <trkpt lat="49.36798" lon="-1.28449">
        <ele>9.9</ele>
        <time>2020-06-15T18:17:43Z</time>
      </trkpt>
      <trkpt lat="49.36798" lon="-1.2845">
        <ele>9.9</ele>
        <time>2020-06-15T18:17:44Z</time>
      </trkpt>
    </trkseg>
  </trk>
</gpx>